<?xml version="1.0" encoding="UTF-8"?>
<gpx
  version="1.0"
  creator="pymavlink"
  xmlns:xsi="http://www.w3.org/2001/XMLSchema-instance"
  xmlns="http://www.topografix.com/GPX/1/0"
  xsi:schemaLocation="http://www.topografix.com/GPX/1/0 http://www.topografix.com/GPX/1/0/gpx.xsd">
<trk>
<trkseg>
<trkpt lat="40.0713749" lon="-105.229789">
  <ele>1583.0</ele>
  <time>2026-09-02T20:50:12Z</time>
  <course>0.0</course>
  <speed>0.0</speed>
  <fix>3d</fix>
</trkpt>
<trkpt lat="40.0713749" lon="-105.229789">
  <ele>1583.0</ele>
  <time>2026-09-02T20:50:12Z</time>
  <course>0.0</course>
  <speed>0.0</speed>
  <fix>3d</fix>
</trkpt>
<trkpt lat="40.0713749" lon="-105.229789">
  <ele>1583.0</ele>
  <time>2026-09-02T20:50:12Z</time>
  <course>0.0</course>
  <speed>0.0</speed>
  <fix>3d</fix>
</trkpt>
<trkpt lat="40.0713749" lon="-105.229789">
  <ele>1583.0</ele>
  <time>2026-09-02T20:50:12Z</time>
  <course>0.0</course>
  <speed>0.0</speed>
  <fix>3d</fix>
</trkpt>
<trkpt lat="40.0713749" lon="-105.229789">
  <ele>1583.0</ele>
  <time>2026-09-02T20:50:12Z</time>
  <course>0.0</course>
  <speed>0.0</speed>
  <fix>3d</fix>
</trkpt>
<trkpt lat="40.0713749" lon="-105.229789">
  <ele>1583.0</ele>
  <time>2026-09-02T20:50:12Z</time>
  <course>0.0</course>
  <speed>0.0</speed>
  <fix>3d</fix>
</trkpt>
<trkpt lat="40.0713749" lon="-105.229789">
  <ele>1583.0</ele>
  <time>2026-09-02T20:50:12Z</time>
  <course>0.0</course>
  <speed>0.0</speed>
  <fix>3d</fix>
</trkpt>
<trkpt lat="40.0713749" lon="-105.229789">
  <ele>1583.0</ele>
  <time>2026-09-02T20:50:12Z</time>
  <course>0.0</course>
  <speed>0.0</speed>
  <fix>3d</fix>
</trkpt>
<trkpt lat="40.0713749" lon="-105.229789">
  <ele>1583.0</ele>
  <time>2026-09-02T20:50:12Z</time>
  <course>0.0</course>
  <speed>0.0</speed>
  <fix>3d</fix>
</trkpt>
<trkpt lat="40.0713749" lon="-105.229789">
  <ele>1583.0</ele>
  <time>2026-09-02T20:50:12Z</time>
  <course>0.0</course>
  <speed>0.0</speed>
  <fix>3d</fix>
</trkpt>
<trkpt lat="40.0713749" lon="-105.229789">
  <ele>1583.0</ele>
  <time>2026-09-02T20:50:12Z</time>
  <course>0.0</course>
  <speed>0.0</speed>
  <fix>3d</fix>
</trkpt>
<trkpt lat="40.0713749" lon="-105.229789">
  <ele>1583.0</ele>
  <time>2026-09-02T20:50:12Z</time>
  <course>0.0</course>
  <speed>0.0</speed>
  <fix>3d</fix>
</trkpt>
<trkpt lat="40.0713749" lon="-105.229789">
  <ele>1583.0</ele>
  <time>2026-09-02T20:50:12Z</time>
  <course>0.0</course>
  <speed>0.0</speed>
  <fix>3d</fix>
</trkpt>
<trkpt lat="40.0713749" lon="-105.229789">
  <ele>1583.0</ele>
  <time>2026-09-02T20:50:12Z</time>
  <course>0.0</course>
  <speed>0.0</speed>
  <fix>3d</fix>
</trkpt>
<trkpt lat="40.0713749" lon="-105.229789">
  <ele>1583.0</ele>
  <time>2026-09-02T20:50:12Z</time>
  <course>0.0</course>
  <speed>0.0</speed>
  <fix>3d</fix>
</trkpt>
<trkpt lat="40.0713749" lon="-105.229789">
  <ele>1583.0</ele>
  <time>2026-09-02T20:50:12Z</time>
  <course>0.0</course>
  <speed>0.0</speed>
  <fix>3d</fix>
</trkpt>
<trkpt lat="40.0713749" lon="-105.229789">
  <ele>1583.0</ele>
  <time>2026-09-02T20:50:12Z</time>
  <course>0.0</course>
  <speed>0.0</speed>
  <fix>3d</fix>
</trkpt>
<trkpt lat="40.0713749" lon="-105.229789">
  <ele>1583.0</ele>
  <time>2026-09-02T20:50:13Z</time>
  <course>0.0</course>
  <speed>0.0</speed>
  <fix>3d</fix>
</trkpt>
<trkpt lat="40.0713749" lon="-105.229789">
  <ele>1583.0</ele>
  <time>2026-09-02T20:50:13Z</time>
  <course>0.0</course>
  <speed>0.0</speed>
  <fix>3d</fix>
</trkpt>
<trkpt lat="40.0713749" lon="-105.229789">
  <ele>1583.0</ele>
  <time>2026-09-02T20:50:13Z</time>
  <course>0.0</course>
  <speed>0.0</speed>
  <fix>3d</fix>
</trkpt>
<trkpt lat="40.0713749" lon="-105.229789">
  <ele>1583.0</ele>
  <time>2026-09-02T20:50:13Z</time>
  <course>0.0</course>
  <speed>0.0</speed>
  <fix>3d</fix>
</trkpt>
<trkpt lat="40.0713749" lon="-105.229789">
  <ele>1583.0</ele>
  <time>2026-09-02T20:50:13Z</time>
  <course>0.0</course>
  <speed>0.0</speed>
  <fix>3d</fix>
</trkpt>
<trkpt lat="40.0713749" lon="-105.229789">
  <ele>1583.0</ele>
  <time>2026-09-02T20:50:13Z</time>
  <course>0.0</course>
  <speed>0.0</speed>
  <fix>3d</fix>
</trkpt>
<trkpt lat="40.0713749" lon="-105.229789">
  <ele>1583.0</ele>
  <time>2026-09-02T20:50:13Z</time>
  <course>0.0</course>
  <speed>0.0</speed>
  <fix>3d</fix>
</trkpt>
<trkpt lat="40.0713749" lon="-105.229789">
  <ele>1583.0</ele>
  <time>2026-09-02T20:50:13Z</time>
  <course>0.0</course>
  <speed>0.0</speed>
  <fix>3d</fix>
</trkpt>
<trkpt lat="40.0713749" lon="-105.229789">
  <ele>1583.0</ele>
  <time>2026-09-02T20:50:13Z</time>
  <course>0.0</course>
  <speed>0.0</speed>
  <fix>3d</fix>
</trkpt>
<trkpt lat="40.0713749" lon="-105.229789">
  <ele>1583.0</ele>
  <time>2026-09-02T20:50:13Z</time>
  <course>0.0</course>
  <speed>0.0</speed>
  <fix>3d</fix>
</trkpt>
<trkpt lat="40.0713749" lon="-105.229789">
  <ele>1583.0</ele>
  <time>2026-09-02T20:50:13Z</time>
  <course>0.0</course>
  <speed>0.0</speed>
  <fix>3d</fix>
</trkpt>
<trkpt lat="40.0713749" lon="-105.229789">
  <ele>1583.0</ele>
  <time>2026-09-02T20:50:13Z</time>
  <course>0.0</course>
  <speed>0.0</speed>
  <fix>3d</fix>
</trkpt>
<trkpt lat="40.0713749" lon="-105.229789">
  <ele>1583.0</ele>
  <time>2026-09-02T20:50:13Z</time>
  <course>0.0</course>
  <speed>0.0</speed>
  <fix>3d</fix>
</trkpt>
<trkpt lat="40.0713749" lon="-105.229789">
  <ele>1583.0</ele>
  <time>2026-09-02T20:50:13Z</time>
  <course>0.0</course>
  <speed>0.0</speed>
  <fix>3d</fix>
</trkpt>
<trkpt lat="40.0713749" lon="-105.229789">
  <ele>1583.0</ele>
  <time>2026-09-02T20:50:13Z</time>
  <course>0.0</course>
  <speed>0.0</speed>
  <fix>3d</fix>
</trkpt>
<trkpt lat="40.0713749" lon="-105.229789">
  <ele>1583.0</ele>
  <time>2026-09-02T20:50:13Z</time>
  <course>0.0</course>
  <speed>0.0</speed>
  <fix>3d</fix>
</trkpt>
<trkpt lat="40.0713749" lon="-105.229789">
  <ele>1583.0</ele>
  <time>2026-09-02T20:50:13Z</time>
  <course>0.0</course>
  <speed>0.0</speed>
  <fix>3d</fix>
</trkpt>
<trkpt lat="40.0713749" lon="-105.229789">
  <ele>1583.0</ele>
  <time>2026-09-02T20:50:13Z</time>
  <course>0.0</course>
  <speed>0.0</speed>
  <fix>3d</fix>
</trkpt>
<trkpt lat="40.0713749" lon="-105.229789">
  <ele>1583.0</ele>
  <time>2026-09-02T20:50:13Z</time>
  <course>0.0</course>
  <speed>0.0</speed>
  <fix>3d</fix>
</trkpt>
<trkpt lat="40.0713749" lon="-105.229789">
  <ele>1583.0</ele>
  <time>2026-09-02T20:50:13Z</time>
  <course>0.0</course>
  <speed>0.0</speed>
  <fix>3d</fix>
</trkpt>
<trkpt lat="40.0713749" lon="-105.229789">
  <ele>1583.0</ele>
  <time>2026-09-02T20:50:13Z</time>
  <course>0.0</course>
  <speed>0.0</speed>
  <fix>3d</fix>
</trkpt>
<trkpt lat="40.0713749" lon="-105.229789">
  <ele>1583.0</ele>
  <time>2026-09-02T20:50:13Z</time>
  <course>0.0</course>
  <speed>0.0</speed>
  <fix>3d</fix>
</trkpt>
<trkpt lat="40.0713749" lon="-105.229789">
  <ele>1583.0</ele>
  <time>2026-09-02T20:50:13Z</time>
  <course>0.0</course>
  <speed>0.0</speed>
  <fix>3d</fix>
</trkpt>
<trkpt lat="40.0713749" lon="-105.229789">
  <ele>1583.0</ele>
  <time>2026-09-02T20:50:13Z</time>
  <course>0.0</course>
  <speed>0.0</speed>
  <fix>3d</fix>
</trkpt>
<trkpt lat="40.0713749" lon="-105.229789">
  <ele>1583.0</ele>
  <time>2026-09-02T20:50:13Z</time>
  <course>0.0</course>
  <speed>0.0</speed>
  <fix>3d</fix>
</trkpt>
<trkpt lat="40.0713749" lon="-105.229789">
  <ele>1583.0</ele>
  <time>2026-09-02T20:50:13Z</time>
  <course>0.0</course>
  <speed>0.0</speed>
  <fix>3d</fix>
</trkpt>
<trkpt lat="40.0713749" lon="-105.229789">
  <ele>1583.0</ele>
  <time>2026-09-02T20:50:13Z</time>
  <course>0.0</course>
  <speed>0.0</speed>
  <fix>3d</fix>
</trkpt>
<trkpt lat="40.0713749" lon="-105.229789">
  <ele>1583.0</ele>
  <time>2026-09-02T20:50:13Z</time>
  <course>0.0</course>
  <speed>0.0</speed>
  <fix>3d</fix>
</trkpt>
<trkpt lat="40.0713749" lon="-105.229789">
  <ele>1583.0</ele>
  <time>2026-09-02T20:50:13Z</time>
  <course>0.0</course>
  <speed>0.0</speed>
  <fix>3d</fix>
</trkpt>
<trkpt lat="40.0713749" lon="-105.229789">
  <ele>1583.0</ele>
  <time>2026-09-02T20:50:13Z</time>
  <course>0.0</course>
  <speed>0.0</speed>
  <fix>3d</fix>
</trkpt>
<trkpt lat="40.0713749" lon="-105.229789">
  <ele>1583.0</ele>
  <time>2026-09-02T20:50:13Z</time>
  <course>0.0</course>
  <speed>0.0</speed>
  <fix>3d</fix>
</trkpt>
<trkpt lat="40.0713749" lon="-105.229789">
  <ele>1583.0</ele>
  <time>2026-09-02T20:50:13Z</time>
  <course>0.0</course>
  <speed>0.0</speed>
  <fix>3d</fix>
</trkpt>
<trkpt lat="40.0713749" lon="-105.229789">
  <ele>1583.0</ele>
  <time>2026-09-02T20:50:13Z</time>
  <course>0.0</course>
  <speed>0.0</speed>
  <fix>3d</fix>
</trkpt>
<trkpt lat="40.0713749" lon="-105.229789">
  <ele>1583.0</ele>
  <time>2026-09-02T20:50:13Z</time>
  <course>0.0</course>
  <speed>0.0</speed>
  <fix>3d</fix>
</trkpt>
<trkpt lat="40.0713749" lon="-105.229789">
  <ele>1583.0</ele>
  <time>2026-09-02T20:50:13Z</time>
  <course>0.0</course>
  <speed>0.0</speed>
  <fix>3d</fix>
</trkpt>
<trkpt lat="40.0713749" lon="-105.229789">
  <ele>1583.0</ele>
  <time>2026-09-02T20:50:13Z</time>
  <course>0.0</course>
  <speed>0.0</speed>
  <fix>3d</fix>
</trkpt>
<trkpt lat="40.0713749" lon="-105.229789">
  <ele>1583.0</ele>
  <time>2026-09-02T20:50:13Z</time>
  <course>0.0</course>
  <speed>0.0</speed>
  <fix>3d</fix>
</trkpt>
<trkpt lat="40.0713749" lon="-105.229789">
  <ele>1583.0</ele>
  <time>2026-09-02T20:50:13Z</time>
  <course>0.0</course>
  <speed>0.0</speed>
  <fix>3d</fix>
</trkpt>
<trkpt lat="40.0713749" lon="-105.229789">
  <ele>1583.0</ele>
  <time>2026-09-02T20:50:13Z</time>
  <course>0.0</course>
  <speed>0.0</speed>
  <fix>3d</fix>
</trkpt>
<trkpt lat="40.0713749" lon="-105.229789">
  <ele>1583.0</ele>
  <time>2026-09-02T20:50:13Z</time>
  <course>0.0</course>
  <speed>0.0</speed>
  <fix>3d</fix>
</trkpt>
<trkpt lat="40.0713749" lon="-105.229789">
  <ele>1583.0</ele>
  <time>2026-09-02T20:50:13Z</time>
  <course>0.0</course>
  <speed>0.0</speed>
  <fix>3d</fix>
</trkpt>
<trkpt lat="40.0713749" lon="-105.229789">
  <ele>1583.0</ele>
  <time>2026-09-02T20:50:13Z</time>
  <course>0.0</course>
  <speed>0.0</speed>
  <fix>3d</fix>
</trkpt>
<trkpt lat="40.0713749" lon="-105.229789">
  <ele>1583.0</ele>
  <time>2026-09-02T20:50:13Z</time>
  <course>0.0</course>
  <speed>0.0</speed>
  <fix>3d</fix>
</trkpt>
<trkpt lat="40.0713749" lon="-105.229789">
  <ele>1583.0</ele>
  <time>2026-09-02T20:50:13Z</time>
  <course>0.0</course>
  <speed>0.0</speed>
  <fix>3d</fix>
</trkpt>
<trkpt lat="40.0713749" lon="-105.229789">
  <ele>1583.0</ele>
  <time>2026-09-02T20:50:13Z</time>
  <course>0.0</course>
  <speed>0.0</speed>
  <fix>3d</fix>
</trkpt>
<trkpt lat="40.0713749" lon="-105.229789">
  <ele>1583.0</ele>
  <time>2026-09-02T20:50:13Z</time>
  <course>0.0</course>
  <speed>0.0</speed>
  <fix>3d</fix>
</trkpt>
<trkpt lat="40.0713749" lon="-105.229789">
  <ele>1583.0</ele>
  <time>2026-09-02T20:50:13Z</time>
  <course>0.0</course>
  <speed>0.0</speed>
  <fix>3d</fix>
</trkpt>
<trkpt lat="40.0713749" lon="-105.229789">
  <ele>1583.0</ele>
  <time>2026-09-02T20:50:13Z</time>
  <course>0.0</course>
  <speed>0.0</speed>
  <fix>3d</fix>
</trkpt>
<trkpt lat="40.0713749" lon="-105.229789">
  <ele>1583.0</ele>
  <time>2026-09-02T20:50:13Z</time>
  <course>0.0</course>
  <speed>0.0</speed>
  <fix>3d</fix>
</trkpt>
<trkpt lat="40.0713749" lon="-105.229789">
  <ele>1583.0</ele>
  <time>2026-09-02T20:50:13Z</time>
  <course>0.0</course>
  <speed>0.0</speed>
  <fix>3d</fix>
</trkpt>
<trkpt lat="40.0713749" lon="-105.229789">
  <ele>1583.0</ele>
  <time>2026-09-02T20:50:13Z</time>
  <course>0.0</course>
  <speed>0.0</speed>
  <fix>3d</fix>
</trkpt>
<trkpt lat="40.0713749" lon="-105.229789">
  <ele>1583.0</ele>
  <time>2026-09-02T20:50:13Z</time>
  <course>0.0</course>
  <speed>0.0</speed>
  <fix>3d</fix>
</trkpt>
<trkpt lat="40.0713749" lon="-105.229789">
  <ele>1583.0</ele>
  <time>2026-09-02T20:50:13Z</time>
  <course>0.0</course>
  <speed>0.0</speed>
  <fix>3d</fix>
</trkpt>
<trkpt lat="40.0713749" lon="-105.229789">
  <ele>1583.0</ele>
  <time>2026-09-02T20:50:13Z</time>
  <course>0.0</course>
  <speed>0.0</speed>
  <fix>3d</fix>
</trkpt>
<trkpt lat="40.0713749" lon="-105.229789">
  <ele>1583.0</ele>
  <time>2026-09-02T20:50:13Z</time>
  <course>0.0</course>
  <speed>0.0</speed>
  <fix>3d</fix>
</trkpt>
<trkpt lat="40.0713749" lon="-105.229789">
  <ele>1583.0</ele>
  <time>2026-09-02T20:50:13Z</time>
  <course>0.0</course>
  <speed>0.0</speed>
  <fix>3d</fix>
</trkpt>
<trkpt lat="40.0713749" lon="-105.229789">
  <ele>1583.0</ele>
  <time>2026-09-02T20:50:13Z</time>
  <course>0.0</course>
  <speed>0.0</speed>
  <fix>3d</fix>
</trkpt>
<trkpt lat="40.0713749" lon="-105.229789">
  <ele>1583.0</ele>
  <time>2026-09-02T20:50:13Z</time>
  <course>0.0</course>
  <speed>0.0</speed>
  <fix>3d</fix>
</trkpt>
<trkpt lat="40.0713749" lon="-105.229789">
  <ele>1583.0</ele>
  <time>2026-09-02T20:50:13Z</time>
  <course>0.0</course>
  <speed>0.0</speed>
  <fix>3d</fix>
</trkpt>
<trkpt lat="40.0713749" lon="-105.229789">
  <ele>1583.0</ele>
  <time>2026-09-02T20:50:13Z</time>
  <course>0.0</course>
  <speed>0.0</speed>
  <fix>3d</fix>
</trkpt>
<trkpt lat="40.0713749" lon="-105.229789">
  <ele>1583.0</ele>
  <time>2026-09-02T20:50:13Z</time>
  <course>0.0</course>
  <speed>0.0</speed>
  <fix>3d</fix>
</trkpt>
<trkpt lat="40.0713749" lon="-105.229789">
  <ele>1583.0</ele>
  <time>2026-09-02T20:50:13Z</time>
  <course>0.0</course>
  <speed>0.0</speed>
  <fix>3d</fix>
</trkpt>
<trkpt lat="40.0713749" lon="-105.229789">
  <ele>1583.0</ele>
  <time>2026-09-02T20:50:13Z</time>
  <course>0.0</course>
  <speed>0.0</speed>
  <fix>3d</fix>
</trkpt>
<trkpt lat="40.0713749" lon="-105.229789">
  <ele>1583.0</ele>
  <time>2026-09-02T20:50:13Z</time>
  <course>0.0</course>
  <speed>0.0</speed>
  <fix>3d</fix>
</trkpt>
<trkpt lat="40.0713749" lon="-105.229789">
  <ele>1583.0</ele>
  <time>2026-09-02T20:50:13Z</time>
  <course>0.0</course>
  <speed>0.0</speed>
  <fix>3d</fix>
</trkpt>
<trkpt lat="40.0713749" lon="-105.229789">
  <ele>1583.0</ele>
  <time>2026-09-02T20:50:13Z</time>
  <course>0.0</course>
  <speed>0.0</speed>
  <fix>3d</fix>
</trkpt>
<trkpt lat="40.0713749" lon="-105.229789">
  <ele>1583.0</ele>
  <time>2026-09-02T20:50:13Z</time>
  <course>0.0</course>
  <speed>0.0</speed>
  <fix>3d</fix>
</trkpt>
<trkpt lat="40.0713749" lon="-105.229789">
  <ele>1583.0</ele>
  <time>2026-09-02T20:50:13Z</time>
  <course>0.0</course>
  <speed>0.0</speed>
  <fix>3d</fix>
</trkpt>
<trkpt lat="40.0713749" lon="-105.229789">
  <ele>1583.0</ele>
  <time>2026-09-02T20:50:13Z</time>
  <course>0.0</course>
  <speed>0.0</speed>
  <fix>3d</fix>
</trkpt>
<trkpt lat="40.0713749" lon="-105.229789">
  <ele>1583.0</ele>
  <time>2026-09-02T20:50:13Z</time>
  <course>0.0</course>
  <speed>0.0</speed>
  <fix>3d</fix>
</trkpt>
<trkpt lat="40.0713749" lon="-105.229789">
  <ele>1583.0</ele>
  <time>2026-09-02T20:50:13Z</time>
  <course>0.0</course>
  <speed>0.0</speed>
  <fix>3d</fix>
</trkpt>
<trkpt lat="40.0713749" lon="-105.229789">
  <ele>1583.0</ele>
  <time>2026-09-02T20:50:13Z</time>
  <course>0.0</course>
  <speed>0.0</speed>
  <fix>3d</fix>
</trkpt>
<trkpt lat="40.0713749" lon="-105.229789">
  <ele>1583.0</ele>
  <time>2026-09-02T20:50:13Z</time>
  <course>0.0</course>
  <speed>0.0</speed>
  <fix>3d</fix>
</trkpt>
<trkpt lat="40.0713749" lon="-105.229789">
  <ele>1583.0</ele>
  <time>2026-09-02T20:50:13Z</time>
  <course>0.0</course>
  <speed>0.0</speed>
  <fix>3d</fix>
</trkpt>
<trkpt lat="40.0713749" lon="-105.229789">
  <ele>1583.0</ele>
  <time>2026-09-02T20:50:13Z</time>
  <course>0.0</course>
  <speed>0.0</speed>
  <fix>3d</fix>
</trkpt>
<trkpt lat="40.0713749" lon="-105.229789">
  <ele>1583.0</ele>
  <time>2026-09-02T20:50:13Z</time>
  <course>0.0</course>
  <speed>0.0</speed>
  <fix>3d</fix>
</trkpt>
<trkpt lat="40.0713749" lon="-105.229789">
  <ele>1583.0</ele>
  <time>2026-09-02T20:50:13Z</time>
  <course>0.0</course>
  <speed>0.0</speed>
  <fix>3d</fix>
</trkpt>
<trkpt lat="40.0713749" lon="-105.229789">
  <ele>1583.0</ele>
  <time>2026-09-02T20:50:13Z</time>
  <course>0.0</course>
  <speed>0.0</speed>
  <fix>3d</fix>
</trkpt>
<trkpt lat="40.0713749" lon="-105.229789">
  <ele>1583.0</ele>
  <time>2026-09-02T20:50:13Z</time>
  <course>0.0</course>
  <speed>0.0</speed>
  <fix>3d</fix>
</trkpt>
<trkpt lat="40.0713749" lon="-105.229789">
  <ele>1583.0</ele>
  <time>2026-09-02T20:50:13Z</time>
  <course>0.0</course>
  <speed>0.0</speed>
  <fix>3d</fix>
</trkpt>
<trkpt lat="40.0713749" lon="-105.229789">
  <ele>1583.0</ele>
  <time>2026-09-02T20:50:13Z</time>
  <course>0.0</course>
  <speed>0.0</speed>
  <fix>3d</fix>
</trkpt>
<trkpt lat="40.0713749" lon="-105.229789">
  <ele>1583.0</ele>
  <time>2026-09-02T20:50:13Z</time>
  <course>0.0</course>
  <speed>0.0</speed>
  <fix>3d</fix>
</trkpt>
<trkpt lat="40.0713749" lon="-105.229789">
  <ele>1583.0</ele>
  <time>2026-09-02T20:50:13Z</time>
  <course>0.0</course>
  <speed>0.0</speed>
  <fix>3d</fix>
</trkpt>
<trkpt lat="40.0713749" lon="-105.229789">
  <ele>1583.0</ele>
  <time>2026-09-02T20:50:13Z</time>
  <course>0.0</course>
  <speed>0.0</speed>
  <fix>3d</fix>
</trkpt>
<trkpt lat="40.0713749" lon="-105.229789">
  <ele>1583.0</ele>
  <time>2026-09-02T20:50:13Z</time>
  <course>0.0</course>
  <speed>0.0</speed>
  <fix>3d</fix>
</trkpt>
<trkpt lat="40.0713749" lon="-105.229789">
  <ele>1583.0</ele>
  <time>2026-09-02T20:50:13Z</time>
  <course>0.0</course>
  <speed>0.0</speed>
  <fix>3d</fix>
</trkpt>
<trkpt lat="40.0713749" lon="-105.229789">
  <ele>1583.0</ele>
  <time>2026-09-02T20:50:13Z</time>
  <course>0.0</course>
  <speed>0.0</speed>
  <fix>3d</fix>
</trkpt>
<trkpt lat="40.0713749" lon="-105.229789">
  <ele>1583.0</ele>
  <time>2026-09-02T20:50:13Z</time>
  <course>0.0</course>
  <speed>0.0</speed>
  <fix>3d</fix>
</trkpt>
<trkpt lat="40.0713749" lon="-105.229789">
  <ele>1583.0</ele>
  <time>2026-09-02T20:50:13Z</time>
  <course>0.0</course>
  <speed>0.0</speed>
  <fix>3d</fix>
</trkpt>
<trkpt lat="40.0713749" lon="-105.229789">
  <ele>1583.0</ele>
  <time>2026-09-02T20:50:13Z</time>
  <course>0.0</course>
  <speed>0.0</speed>
  <fix>3d</fix>
</trkpt>
<trkpt lat="40.0713749" lon="-105.229789">
  <ele>1583.0</ele>
  <time>2026-09-02T20:50:13Z</time>
  <course>0.0</course>
  <speed>0.0</speed>
  <fix>3d</fix>
</trkpt>
<trkpt lat="40.0713749" lon="-105.229789">
  <ele>1583.0</ele>
  <time>2026-09-02T20:50:13Z</time>
  <course>0.0</course>
  <speed>0.0</speed>
  <fix>3d</fix>
</trkpt>
<trkpt lat="40.0713749" lon="-105.229789">
  <ele>1583.0</ele>
  <time>2026-09-02T20:50:13Z</time>
  <course>0.0</course>
  <speed>0.0</speed>
  <fix>3d</fix>
</trkpt>
<trkpt lat="40.0713749" lon="-105.229789">
  <ele>1583.0</ele>
  <time>2026-09-02T20:50:13Z</time>
  <course>0.0</course>
  <speed>0.0</speed>
  <fix>3d</fix>
</trkpt>
<trkpt lat="40.0713749" lon="-105.229789">
  <ele>1583.0</ele>
  <time>2026-09-02T20:50:13Z</time>
  <course>0.0</course>
  <speed>0.0</speed>
  <fix>3d</fix>
</trkpt>
<trkpt lat="40.0713749" lon="-105.229789">
  <ele>1583.0</ele>
  <time>2026-09-02T20:50:13Z</time>
  <course>0.0</course>
  <speed>0.0</speed>
  <fix>3d</fix>
</trkpt>
<trkpt lat="40.0713749" lon="-105.229789">
  <ele>1583.0</ele>
  <time>2026-09-02T20:50:13Z</time>
  <course>0.0</course>
  <speed>0.0</speed>
  <fix>3d</fix>
</trkpt>
<trkpt lat="40.0713749" lon="-105.229789">
  <ele>1583.0</ele>
  <time>2026-09-02T20:50:13Z</time>
  <course>0.0</course>
  <speed>0.0</speed>
  <fix>3d</fix>
</trkpt>
<trkpt lat="40.0713749" lon="-105.229789">
  <ele>1583.0</ele>
  <time>2026-09-02T20:50:13Z</time>
  <course>0.0</course>
  <speed>0.0</speed>
  <fix>3d</fix>
</trkpt>
<trkpt lat="40.0713749" lon="-105.229789">
  <ele>1583.0</ele>
  <time>2026-09-02T20:50:13Z</time>
  <course>0.0</course>
  <speed>0.0</speed>
  <fix>3d</fix>
</trkpt>
<trkpt lat="40.0713749" lon="-105.229789">
  <ele>1583.0</ele>
  <time>2026-09-02T20:50:13Z</time>
  <course>0.0</course>
  <speed>0.0</speed>
  <fix>3d</fix>
</trkpt>
<trkpt lat="40.0713749" lon="-105.229789">
  <ele>1583.0</ele>
  <time>2026-09-02T20:50:13Z</time>
  <course>0.0</course>
  <speed>0.0</speed>
  <fix>3d</fix>
</trkpt>
<trkpt lat="40.0713749" lon="-105.229789">
  <ele>1583.0</ele>
  <time>2026-09-02T20:50:13Z</time>
  <course>0.0</course>
  <speed>0.0</speed>
  <fix>3d</fix>
</trkpt>
<trkpt lat="40.0713749" lon="-105.229789">
  <ele>1583.0</ele>
  <time>2026-09-02T20:50:13Z</time>
  <course>0.0</course>
  <speed>0.0</speed>
  <fix>3d</fix>
</trkpt>
<trkpt lat="40.0713749" lon="-105.229789">
  <ele>1583.0</ele>
  <time>2026-09-02T20:50:13Z</time>
  <course>0.0</course>
  <speed>0.0</speed>
  <fix>3d</fix>
</trkpt>
<trkpt lat="40.0713749" lon="-105.229789">
  <ele>1583.0</ele>
  <time>2026-09-02T20:50:13Z</time>
  <course>0.0</course>
  <speed>0.0</speed>
  <fix>3d</fix>
</trkpt>
<trkpt lat="40.0713749" lon="-105.229789">
  <ele>1583.0</ele>
  <time>2026-09-02T20:50:13Z</time>
  <course>0.0</course>
  <speed>0.0</speed>
  <fix>3d</fix>
</trkpt>
<trkpt lat="40.0713749" lon="-105.229789">
  <ele>1583.0</ele>
  <time>2026-09-02T20:50:13Z</time>
  <course>0.0</course>
  <speed>0.0</speed>
  <fix>3d</fix>
</trkpt>
<trkpt lat="40.0713749" lon="-105.229789">
  <ele>1583.0</ele>
  <time>2026-09-02T20:50:13Z</time>
  <course>0.0</course>
  <speed>0.0</speed>
  <fix>3d</fix>
</trkpt>
<trkpt lat="40.0713749" lon="-105.229789">
  <ele>1583.0</ele>
  <time>2026-09-02T20:50:13Z</time>
  <course>0.0</course>
  <speed>0.0</speed>
  <fix>3d</fix>
</trkpt>
<trkpt lat="40.0713749" lon="-105.229789">
  <ele>1583.0</ele>
  <time>2026-09-02T20:50:13Z</time>
  <course>0.0</course>
  <speed>0.0</speed>
  <fix>3d</fix>
</trkpt>
<trkpt lat="40.0713749" lon="-105.229789">
  <ele>1583.0</ele>
  <time>2026-09-02T20:50:13Z</time>
  <course>0.0</course>
  <speed>0.0</speed>
  <fix>3d</fix>
</trkpt>
<trkpt lat="40.0713749" lon="-105.229789">
  <ele>1583.0</ele>
  <time>2026-09-02T20:50:13Z</time>
  <course>0.0</course>
  <speed>0.0</speed>
  <fix>3d</fix>
</trkpt>
<trkpt lat="40.0713749" lon="-105.229789">
  <ele>1583.0</ele>
  <time>2026-09-02T20:50:13Z</time>
  <course>0.0</course>
  <speed>0.0</speed>
  <fix>3d</fix>
</trkpt>
<trkpt lat="40.0713749" lon="-105.229789">
  <ele>1583.0</ele>
  <time>2026-09-02T20:50:13Z</time>
  <course>0.0</course>
  <speed>0.0</speed>
  <fix>3d</fix>
</trkpt>
<trkpt lat="40.0713749" lon="-105.229789">
  <ele>1583.0</ele>
  <time>2026-09-02T20:50:13Z</time>
  <course>0.0</course>
  <speed>0.0</speed>
  <fix>3d</fix>
</trkpt>
<trkpt lat="40.0713749" lon="-105.229789">
  <ele>1583.0</ele>
  <time>2026-09-02T20:50:13Z</time>
  <course>0.0</course>
  <speed>0.0</speed>
  <fix>3d</fix>
</trkpt>
<trkpt lat="40.0713749" lon="-105.229789">
  <ele>1583.0</ele>
  <time>2026-09-02T20:50:13Z</time>
  <course>0.0</course>
  <speed>0.0</speed>
  <fix>3d</fix>
</trkpt>
<trkpt lat="40.0713749" lon="-105.229789">
  <ele>1583.0</ele>
  <time>2026-09-02T20:50:13Z</time>
  <course>0.0</course>
  <speed>0.0</speed>
  <fix>3d</fix>
</trkpt>
<trkpt lat="40.0713749" lon="-105.229789">
  <ele>1583.0</ele>
  <time>2026-09-02T20:50:13Z</time>
  <course>0.0</course>
  <speed>0.0</speed>
  <fix>3d</fix>
</trkpt>
<trkpt lat="40.0713749" lon="-105.229789">
  <ele>1583.0</ele>
  <time>2026-09-02T20:50:13Z</time>
  <course>0.0</course>
  <speed>0.0</speed>
  <fix>3d</fix>
</trkpt>
<trkpt lat="40.0713749" lon="-105.229789">
  <ele>1583.0</ele>
  <time>2026-09-02T20:50:13Z</time>
  <course>0.0</course>
  <speed>0.0</speed>
  <fix>3d</fix>
</trkpt>
<trkpt lat="40.0713749" lon="-105.229789">
  <ele>1583.0</ele>
  <time>2026-09-02T20:50:13Z</time>
  <course>0.0</course>
  <speed>0.0</speed>
  <fix>3d</fix>
</trkpt>
<trkpt lat="40.0713749" lon="-105.229789">
  <ele>1583.0</ele>
  <time>2026-09-02T20:50:13Z</time>
  <course>0.0</course>
  <speed>0.0</speed>
  <fix>3d</fix>
</trkpt>
<trkpt lat="40.0713749" lon="-105.229789">
  <ele>1583.0</ele>
  <time>2026-09-02T20:50:13Z</time>
  <course>0.0</course>
  <speed>0.0</speed>
  <fix>3d</fix>
</trkpt>
<trkpt lat="40.0713749" lon="-105.229789">
  <ele>1583.0</ele>
  <time>2026-09-02T20:50:13Z</time>
  <course>0.0</course>
  <speed>0.0</speed>
  <fix>3d</fix>
</trkpt>
<trkpt lat="40.0713749" lon="-105.229789">
  <ele>1583.0</ele>
  <time>2026-09-02T20:50:13Z</time>
  <course>0.0</course>
  <speed>0.0</speed>
  <fix>3d</fix>
</trkpt>
<trkpt lat="40.0713749" lon="-105.229789">
  <ele>1583.0</ele>
  <time>2026-09-02T20:50:13Z</time>
  <course>0.0</course>
  <speed>0.0</speed>
  <fix>3d</fix>
</trkpt>
<trkpt lat="40.0713749" lon="-105.229789">
  <ele>1583.0</ele>
  <time>2026-09-02T20:50:13Z</time>
  <course>0.0</course>
  <speed>0.0</speed>
  <fix>3d</fix>
</trkpt>
<trkpt lat="40.0713749" lon="-105.229789">
  <ele>1583.0</ele>
  <time>2026-09-02T20:50:13Z</time>
  <course>0.0</course>
  <speed>0.0</speed>
  <fix>3d</fix>
</trkpt>
<trkpt lat="40.0713749" lon="-105.229789">
  <ele>1583.0</ele>
  <time>2026-09-02T20:50:13Z</time>
  <course>0.0</course>
  <speed>0.0</speed>
  <fix>3d</fix>
</trkpt>
<trkpt lat="40.0713749" lon="-105.229789">
  <ele>1583.0</ele>
  <time>2026-09-02T20:50:13Z</time>
  <course>0.0</course>
  <speed>0.0</speed>
  <fix>3d</fix>
</trkpt>
<trkpt lat="40.0713749" lon="-105.229789">
  <ele>1583.0</ele>
  <time>2026-09-02T20:50:13Z</time>
  <course>0.0</course>
  <speed>0.0</speed>
  <fix>3d</fix>
</trkpt>
<trkpt lat="40.0713749" lon="-105.229789">
  <ele>1583.0</ele>
  <time>2026-09-02T20:50:13Z</time>
  <course>0.0</course>
  <speed>0.0</speed>
  <fix>3d</fix>
</trkpt>
<trkpt lat="40.0713749" lon="-105.229789">
  <ele>1583.0</ele>
  <time>2026-09-02T20:50:13Z</time>
  <course>0.0</course>
  <speed>0.0</speed>
  <fix>3d</fix>
</trkpt>
<trkpt lat="40.0713749" lon="-105.229789">
  <ele>1583.0</ele>
  <time>2026-09-02T20:50:13Z</time>
  <course>0.0</course>
  <speed>0.0</speed>
  <fix>3d</fix>
</trkpt>
<trkpt lat="40.0713749" lon="-105.229789">
  <ele>1583.0</ele>
  <time>2026-09-02T20:50:13Z</time>
  <course>0.0</course>
  <speed>0.0</speed>
  <fix>3d</fix>
</trkpt>
<trkpt lat="40.0713749" lon="-105.229789">
  <ele>1583.0</ele>
  <time>2026-09-02T20:50:13Z</time>
  <course>0.0</course>
  <speed>0.0</speed>
  <fix>3d</fix>
</trkpt>
<trkpt lat="40.0713749" lon="-105.229789">
  <ele>1583.0</ele>
  <time>2026-09-02T20:50:13Z</time>
  <course>0.0</course>
  <speed>0.0</speed>
  <fix>3d</fix>
</trkpt>
<trkpt lat="40.0713749" lon="-105.229789">
  <ele>1583.0</ele>
  <time>2026-09-02T20:50:13Z</time>
  <course>0.0</course>
  <speed>0.0</speed>
  <fix>3d</fix>
</trkpt>
<trkpt lat="40.0713749" lon="-105.229789">
  <ele>1583.0</ele>
  <time>2026-09-02T20:50:13Z</time>
  <course>0.0</course>
  <speed>0.0</speed>
  <fix>3d</fix>
</trkpt>
<trkpt lat="40.0713749" lon="-105.229789">
  <ele>1583.0</ele>
  <time>2026-09-02T20:50:13Z</time>
  <course>0.0</course>
  <speed>0.0</speed>
  <fix>3d</fix>
</trkpt>
<trkpt lat="40.0713749" lon="-105.229789">
  <ele>1583.0</ele>
  <time>2026-09-02T20:50:13Z</time>
  <course>0.0</course>
  <speed>0.0</speed>
  <fix>3d</fix>
</trkpt>
<trkpt lat="40.0713749" lon="-105.229789">
  <ele>1583.0</ele>
  <time>2026-09-02T20:50:13Z</time>
  <course>0.0</course>
  <speed>0.0</speed>
  <fix>3d</fix>
</trkpt>
<trkpt lat="40.0713749" lon="-105.229789">
  <ele>1583.0</ele>
  <time>2026-09-02T20:50:13Z</time>
  <course>0.0</course>
  <speed>0.0</speed>
  <fix>3d</fix>
</trkpt>
<trkpt lat="40.0713749" lon="-105.229789">
  <ele>1583.0</ele>
  <time>2026-09-02T20:50:13Z</time>
  <course>0.0</course>
  <speed>0.0</speed>
  <fix>3d</fix>
</trkpt>
<trkpt lat="40.0713749" lon="-105.229789">
  <ele>1583.0</ele>
  <time>2026-09-02T20:50:13Z</time>
  <course>0.0</course>
  <speed>0.0</speed>
  <fix>3d</fix>
</trkpt>
<trkpt lat="40.0713749" lon="-105.229789">
  <ele>1583.0</ele>
  <time>2026-09-02T20:50:13Z</time>
  <course>0.0</course>
  <speed>0.0</speed>
  <fix>3d</fix>
</trkpt>
<trkpt lat="40.0713749" lon="-105.229789">
  <ele>1583.0</ele>
  <time>2026-09-02T20:50:13Z</time>
  <course>0.0</course>
  <speed>0.0</speed>
  <fix>3d</fix>
</trkpt>
<trkpt lat="40.0713749" lon="-105.229789">
  <ele>1583.0</ele>
  <time>2026-09-02T20:50:13Z</time>
  <course>0.0</course>
  <speed>0.0</speed>
  <fix>3d</fix>
</trkpt>
<trkpt lat="40.0713749" lon="-105.229789">
  <ele>1583.0</ele>
  <time>2026-09-02T20:50:13Z</time>
  <course>0.0</course>
  <speed>0.0</speed>
  <fix>3d</fix>
</trkpt>
<trkpt lat="40.0713749" lon="-105.229789">
  <ele>1583.0</ele>
  <time>2026-09-02T20:50:13Z</time>
  <course>0.0</course>
  <speed>0.0</speed>
  <fix>3d</fix>
</trkpt>
<trkpt lat="40.0713749" lon="-105.229789">
  <ele>1583.0</ele>
  <time>2026-09-02T20:50:13Z</time>
  <course>0.0</course>
  <speed>0.0</speed>
  <fix>3d</fix>
</trkpt>
<trkpt lat="40.0713749" lon="-105.229789">
  <ele>1583.0</ele>
  <time>2026-09-02T20:50:13Z</time>
  <course>0.0</course>
  <speed>0.0</speed>
  <fix>3d</fix>
</trkpt>
<trkpt lat="40.0713749" lon="-105.229789">
  <ele>1583.0</ele>
  <time>2026-09-02T20:50:13Z</time>
  <course>0.0</course>
  <speed>0.0</speed>
  <fix>3d</fix>
</trkpt>
<trkpt lat="40.0713749" lon="-105.229789">
  <ele>1583.0</ele>
  <time>2026-09-02T20:50:13Z</time>
  <course>0.0</course>
  <speed>0.0</speed>
  <fix>3d</fix>
</trkpt>
<trkpt lat="40.0713749" lon="-105.229789">
  <ele>1583.0</ele>
  <time>2026-09-02T20:50:13Z</time>
  <course>0.0</course>
  <speed>0.0</speed>
  <fix>3d</fix>
</trkpt>
<trkpt lat="40.0713749" lon="-105.229789">
  <ele>1583.0</ele>
  <time>2026-09-02T20:50:13Z</time>
  <course>0.0</course>
  <speed>0.0</speed>
  <fix>3d</fix>
</trkpt>
<trkpt lat="40.0713749" lon="-105.229789">
  <ele>1583.0</ele>
  <time>2026-09-02T20:50:13Z</time>
  <course>0.0</course>
  <speed>0.0</speed>
  <fix>3d</fix>
</trkpt>
<trkpt lat="40.0713749" lon="-105.229789">
  <ele>1583.0</ele>
  <time>2026-09-02T20:50:13Z</time>
  <course>0.0</course>
  <speed>0.0</speed>
  <fix>3d</fix>
</trkpt>
<trkpt lat="40.0713749" lon="-105.229789">
  <ele>1583.0</ele>
  <time>2026-09-02T20:50:13Z</time>
  <course>0.0</course>
  <speed>0.0</speed>
  <fix>3d</fix>
</trkpt>
<trkpt lat="40.0713749" lon="-105.229789">
  <ele>1583.0</ele>
  <time>2026-09-02T20:50:13Z</time>
  <course>0.0</course>
  <speed>0.0</speed>
  <fix>3d</fix>
</trkpt>
<trkpt lat="40.0713749" lon="-105.229789">
  <ele>1583.0</ele>
  <time>2026-09-02T20:50:13Z</time>
  <course>0.0</course>
  <speed>0.0</speed>
  <fix>3d</fix>
</trkpt>
<trkpt lat="40.0713749" lon="-105.229789">
  <ele>1583.0</ele>
  <time>2026-09-02T20:50:13Z</time>
  <course>0.0</course>
  <speed>0.0</speed>
  <fix>3d</fix>
</trkpt>
<trkpt lat="40.0713749" lon="-105.229789">
  <ele>1583.0</ele>
  <time>2026-09-02T20:50:13Z</time>
  <course>0.0</course>
  <speed>0.0</speed>
  <fix>3d</fix>
</trkpt>
<trkpt lat="40.0713749" lon="-105.229789">
  <ele>1583.0</ele>
  <time>2026-09-02T20:50:13Z</time>
  <course>0.0</course>
  <speed>0.0</speed>
  <fix>3d</fix>
</trkpt>
<trkpt lat="40.0713749" lon="-105.229789">
  <ele>1583.0</ele>
  <time>2026-09-02T20:50:13Z</time>
  <course>0.0</course>
  <speed>0.0</speed>
  <fix>3d</fix>
</trkpt>
<trkpt lat="40.0713749" lon="-105.229789">
  <ele>1583.0</ele>
  <time>2026-09-02T20:50:13Z</time>
  <course>0.0</course>
  <speed>0.0</speed>
  <fix>3d</fix>
</trkpt>
<trkpt lat="40.0713749" lon="-105.229789">
  <ele>1583.0</ele>
  <time>2026-09-02T20:50:13Z</time>
  <course>0.0</course>
  <speed>0.0</speed>
  <fix>3d</fix>
</trkpt>
<trkpt lat="40.0713749" lon="-105.229789">
  <ele>1583.0</ele>
  <time>2026-09-02T20:50:13Z</time>
  <course>0.0</course>
  <speed>0.0</speed>
  <fix>3d</fix>
</trkpt>
<trkpt lat="40.0713749" lon="-105.229789">
  <ele>1583.0</ele>
  <time>2026-09-02T20:50:13Z</time>
  <course>0.0</course>
  <speed>0.0</speed>
  <fix>3d</fix>
</trkpt>
<trkpt lat="40.0713749" lon="-105.229789">
  <ele>1583.0</ele>
  <time>2026-09-02T20:50:13Z</time>
  <course>0.0</course>
  <speed>0.0</speed>
  <fix>3d</fix>
</trkpt>
<trkpt lat="40.0713749" lon="-105.229789">
  <ele>1583.0</ele>
  <time>2026-09-02T20:50:13Z</time>
  <course>0.0</course>
  <speed>0.0</speed>
  <fix>3d</fix>
</trkpt>
<trkpt lat="40.0713749" lon="-105.229789">
  <ele>1583.0</ele>
  <time>2026-09-02T20:50:13Z</time>
  <course>0.0</course>
  <speed>0.0</speed>
  <fix>3d</fix>
</trkpt>
<trkpt lat="40.0713749" lon="-105.229789">
  <ele>1583.0</ele>
  <time>2026-09-02T20:50:13Z</time>
  <course>0.0</course>
  <speed>0.0</speed>
  <fix>3d</fix>
</trkpt>
<trkpt lat="40.0713749" lon="-105.229789">
  <ele>1583.0</ele>
  <time>2026-09-02T20:50:13Z</time>
  <course>0.0</course>
  <speed>0.0</speed>
  <fix>3d</fix>
</trkpt>
<trkpt lat="40.0713749" lon="-105.229789">
  <ele>1583.0</ele>
  <time>2026-09-02T20:50:13Z</time>
  <course>0.0</course>
  <speed>0.0</speed>
  <fix>3d</fix>
</trkpt>
<trkpt lat="40.0713749" lon="-105.229789">
  <ele>1583.0</ele>
  <time>2026-09-02T20:50:13Z</time>
  <course>0.0</course>
  <speed>0.0</speed>
  <fix>3d</fix>
</trkpt>
<trkpt lat="40.0713749" lon="-105.229789">
  <ele>1583.0</ele>
  <time>2026-09-02T20:50:13Z</time>
  <course>0.0</course>
  <speed>0.0</speed>
  <fix>3d</fix>
</trkpt>
<trkpt lat="40.0713749" lon="-105.229789">
  <ele>1583.0</ele>
  <time>2026-09-02T20:50:13Z</time>
  <course>0.0</course>
  <speed>0.0</speed>
  <fix>3d</fix>
</trkpt>
<trkpt lat="40.0713749" lon="-105.229789">
  <ele>1583.0</ele>
  <time>2026-09-02T20:50:13Z</time>
  <course>0.0</course>
  <speed>0.0</speed>
  <fix>3d</fix>
</trkpt>
<trkpt lat="40.0713749" lon="-105.229789">
  <ele>1583.0</ele>
  <time>2026-09-02T20:50:13Z</time>
  <course>0.0</course>
  <speed>0.0</speed>
  <fix>3d</fix>
</trkpt>
<trkpt lat="40.0713749" lon="-105.229789">
  <ele>1583.0</ele>
  <time>2026-09-02T20:50:13Z</time>
  <course>0.0</course>
  <speed>0.0</speed>
  <fix>3d</fix>
</trkpt>
<trkpt lat="40.0713749" lon="-105.229789">
  <ele>1583.0</ele>
  <time>2026-09-02T20:50:13Z</time>
  <course>0.0</course>
  <speed>0.0</speed>
  <fix>3d</fix>
</trkpt>
<trkpt lat="40.0713749" lon="-105.229789">
  <ele>1583.0</ele>
  <time>2026-09-02T20:50:13Z</time>
  <course>0.0</course>
  <speed>0.0</speed>
  <fix>3d</fix>
</trkpt>
<trkpt lat="40.0713749" lon="-105.229789">
  <ele>1583.0</ele>
  <time>2026-09-02T20:50:13Z</time>
  <course>0.0</course>
  <speed>0.0</speed>
  <fix>3d</fix>
</trkpt>
<trkpt lat="40.0713749" lon="-105.229789">
  <ele>1583.0</ele>
  <time>2026-09-02T20:50:13Z</time>
  <course>0.0</course>
  <speed>0.0</speed>
  <fix>3d</fix>
</trkpt>
<trkpt lat="40.0713749" lon="-105.229789">
  <ele>1583.0</ele>
  <time>2026-09-02T20:50:13Z</time>
  <course>0.0</course>
  <speed>0.0</speed>
  <fix>3d</fix>
</trkpt>
<trkpt lat="40.0713749" lon="-105.229789">
  <ele>1583.0</ele>
  <time>2026-09-02T20:50:13Z</time>
  <course>0.0</course>
  <speed>0.0</speed>
  <fix>3d</fix>
</trkpt>
<trkpt lat="40.0713749" lon="-105.229789">
  <ele>1583.0</ele>
  <time>2026-09-02T20:50:13Z</time>
  <course>0.0</course>
  <speed>0.0</speed>
  <fix>3d</fix>
</trkpt>
<trkpt lat="40.0713749" lon="-105.229789">
  <ele>1583.0</ele>
  <time>2026-09-02T20:50:13Z</time>
  <course>0.0</course>
  <speed>0.0</speed>
  <fix>3d</fix>
</trkpt>
<trkpt lat="40.0713749" lon="-105.229789">
  <ele>1583.0</ele>
  <time>2026-09-02T20:50:13Z</time>
  <course>0.0</course>
  <speed>0.0</speed>
  <fix>3d</fix>
</trkpt>
<trkpt lat="40.0713749" lon="-105.229789">
  <ele>1583.0</ele>
  <time>2026-09-02T20:50:13Z</time>
  <course>0.0</course>
  <speed>0.0</speed>
  <fix>3d</fix>
</trkpt>
<trkpt lat="40.0713749" lon="-105.229789">
  <ele>1583.0</ele>
  <time>2026-09-02T20:50:13Z</time>
  <course>0.0</course>
  <speed>0.0</speed>
  <fix>3d</fix>
</trkpt>
<trkpt lat="40.0713749" lon="-105.229789">
  <ele>1583.0</ele>
  <time>2026-09-02T20:50:13Z</time>
  <course>0.0</course>
  <speed>0.0</speed>
  <fix>3d</fix>
</trkpt>
<trkpt lat="40.0713749" lon="-105.229789">
  <ele>1583.0</ele>
  <time>2026-09-02T20:50:13Z</time>
  <course>0.0</course>
  <speed>0.0</speed>
  <fix>3d</fix>
</trkpt>
<trkpt lat="40.0713749" lon="-105.229789">
  <ele>1583.0</ele>
  <time>2026-09-02T20:50:13Z</time>
  <course>0.0</course>
  <speed>0.0</speed>
  <fix>3d</fix>
</trkpt>
<trkpt lat="40.0713749" lon="-105.229789">
  <ele>1583.0</ele>
  <time>2026-09-02T20:50:13Z</time>
  <course>0.0</course>
  <speed>0.0</speed>
  <fix>3d</fix>
</trkpt>
<trkpt lat="40.0713749" lon="-105.229789">
  <ele>1583.0</ele>
  <time>2026-09-02T20:50:13Z</time>
  <course>0.0</course>
  <speed>0.0</speed>
  <fix>3d</fix>
</trkpt>
<trkpt lat="40.0713749" lon="-105.229789">
  <ele>1583.0</ele>
  <time>2026-09-02T20:50:13Z</time>
  <course>0.0</course>
  <speed>0.0</speed>
  <fix>3d</fix>
</trkpt>
<trkpt lat="40.0713749" lon="-105.229789">
  <ele>1583.0</ele>
  <time>2026-09-02T20:50:13Z</time>
  <course>0.0</course>
  <speed>0.0</speed>
  <fix>3d</fix>
</trkpt>
<trkpt lat="40.0713749" lon="-105.229789">
  <ele>1583.0</ele>
  <time>2026-09-02T20:50:13Z</time>
  <course>0.0</course>
  <speed>0.0</speed>
  <fix>3d</fix>
</trkpt>
<trkpt lat="40.0713749" lon="-105.229789">
  <ele>1583.0</ele>
  <time>2026-09-02T20:50:13Z</time>
  <course>0.0</course>
  <speed>0.0</speed>
  <fix>3d</fix>
</trkpt>
<trkpt lat="40.0713749" lon="-105.229789">
  <ele>1583.0</ele>
  <time>2026-09-02T20:50:13Z</time>
  <course>0.0</course>
  <speed>0.0</speed>
  <fix>3d</fix>
</trkpt>
<trkpt lat="40.0713749" lon="-105.229789">
  <ele>1583.0</ele>
  <time>2026-09-02T20:50:13Z</time>
  <course>0.0</course>
  <speed>0.0</speed>
  <fix>3d</fix>
</trkpt>
<trkpt lat="40.0713749" lon="-105.229789">
  <ele>1583.0</ele>
  <time>2026-09-02T20:50:13Z</time>
  <course>0.0</course>
  <speed>0.0</speed>
  <fix>3d</fix>
</trkpt>
<trkpt lat="40.0713749" lon="-105.229789">
  <ele>1583.0</ele>
  <time>2026-09-02T20:50:13Z</time>
  <course>0.0</course>
  <speed>0.0</speed>
  <fix>3d</fix>
</trkpt>
<trkpt lat="40.0713749" lon="-105.229789">
  <ele>1583.0</ele>
  <time>2026-09-02T20:50:13Z</time>
  <course>0.0</course>
  <speed>0.0</speed>
  <fix>3d</fix>
</trkpt>
<trkpt lat="40.0713749" lon="-105.229789">
  <ele>1583.0</ele>
  <time>2026-09-02T20:50:13Z</time>
  <course>0.0</course>
  <speed>0.0</speed>
  <fix>3d</fix>
</trkpt>
<trkpt lat="40.0713749" lon="-105.229789">
  <ele>1583.0</ele>
  <time>2026-09-02T20:50:13Z</time>
  <course>0.0</course>
  <speed>0.0</speed>
  <fix>3d</fix>
</trkpt>
<trkpt lat="40.0713749" lon="-105.229789">
  <ele>1583.0</ele>
  <time>2026-09-02T20:50:13Z</time>
  <course>0.0</course>
  <speed>0.0</speed>
  <fix>3d</fix>
</trkpt>
<trkpt lat="40.0713749" lon="-105.229789">
  <ele>1583.0</ele>
  <time>2026-09-02T20:50:13Z</time>
  <course>0.0</course>
  <speed>0.0</speed>
  <fix>3d</fix>
</trkpt>
<trkpt lat="40.0713749" lon="-105.229789">
  <ele>1583.0</ele>
  <time>2026-09-02T20:50:13Z</time>
  <course>0.0</course>
  <speed>0.0</speed>
  <fix>3d</fix>
</trkpt>
<trkpt lat="40.0713749" lon="-105.229789">
  <ele>1583.0</ele>
  <time>2026-09-02T20:50:13Z</time>
  <course>0.0</course>
  <speed>0.0</speed>
  <fix>3d</fix>
</trkpt>
<trkpt lat="40.0713749" lon="-105.229789">
  <ele>1583.0</ele>
  <time>2026-09-02T20:50:13Z</time>
  <course>0.0</course>
  <speed>0.0</speed>
  <fix>3d</fix>
</trkpt>
<trkpt lat="40.0713749" lon="-105.229789">
  <ele>1583.0</ele>
  <time>2026-09-02T20:50:13Z</time>
  <course>0.0</course>
  <speed>0.0</speed>
  <fix>3d</fix>
</trkpt>
<trkpt lat="40.0713749" lon="-105.229789">
  <ele>1583.0</ele>
  <time>2026-09-02T20:50:13Z</time>
  <course>0.0</course>
  <speed>0.0</speed>
  <fix>3d</fix>
</trkpt>
<trkpt lat="40.0713749" lon="-105.229789">
  <ele>1583.0</ele>
  <time>2026-09-02T20:50:13Z</time>
  <course>0.0</course>
  <speed>0.0</speed>
  <fix>3d</fix>
</trkpt>
<trkpt lat="40.0713749" lon="-105.229789">
  <ele>1583.0</ele>
  <time>2026-09-02T20:50:13Z</time>
  <course>0.0</course>
  <speed>0.0</speed>
  <fix>3d</fix>
</trkpt>
<trkpt lat="40.0713749" lon="-105.229789">
  <ele>1583.0</ele>
  <time>2026-09-02T20:50:13Z</time>
  <course>0.0</course>
  <speed>0.0</speed>
  <fix>3d</fix>
</trkpt>
<trkpt lat="40.0713749" lon="-105.229789">
  <ele>1583.0</ele>
  <time>2026-09-02T20:50:13Z</time>
  <course>0.0</course>
  <speed>0.0</speed>
  <fix>3d</fix>
</trkpt>
<trkpt lat="40.0713749" lon="-105.229789">
  <ele>1583.0</ele>
  <time>2026-09-02T20:50:13Z</time>
  <course>0.0</course>
  <speed>0.0</speed>
  <fix>3d</fix>
</trkpt>
<trkpt lat="40.0713749" lon="-105.229789">
  <ele>1583.0</ele>
  <time>2026-09-02T20:50:13Z</time>
  <course>0.0</course>
  <speed>0.0</speed>
  <fix>3d</fix>
</trkpt>
<trkpt lat="40.0713749" lon="-105.229789">
  <ele>1583.0</ele>
  <time>2026-09-02T20:50:13Z</time>
  <course>0.0</course>
  <speed>0.0</speed>
  <fix>3d</fix>
</trkpt>
<trkpt lat="40.0713749" lon="-105.229789">
  <ele>1583.0</ele>
  <time>2026-09-02T20:50:13Z</time>
  <course>0.0</course>
  <speed>0.0</speed>
  <fix>3d</fix>
</trkpt>
<trkpt lat="40.0713749" lon="-105.229789">
  <ele>1583.0</ele>
  <time>2026-09-02T20:50:13Z</time>
  <course>0.0</course>
  <speed>0.0</speed>
  <fix>3d</fix>
</trkpt>
<trkpt lat="40.0713749" lon="-105.229789">
  <ele>1583.0</ele>
  <time>2026-09-02T20:50:13Z</time>
  <course>0.0</course>
  <speed>0.0</speed>
  <fix>3d</fix>
</trkpt>
<trkpt lat="40.0713749" lon="-105.229789">
  <ele>1583.0</ele>
  <time>2026-09-02T20:50:13Z</time>
  <course>0.0</course>
  <speed>0.0</speed>
  <fix>3d</fix>
</trkpt>
<trkpt lat="40.0713749" lon="-105.229789">
  <ele>1583.0</ele>
  <time>2026-09-02T20:50:13Z</time>
  <course>0.0</course>
  <speed>0.0</speed>
  <fix>3d</fix>
</trkpt>
<trkpt lat="40.0713749" lon="-105.229789">
  <ele>1583.0</ele>
  <time>2026-09-02T20:50:13Z</time>
  <course>0.0</course>
  <speed>0.0</speed>
  <fix>3d</fix>
</trkpt>
<trkpt lat="40.0713749" lon="-105.229789">
  <ele>1583.0</ele>
  <time>2026-09-02T20:50:13Z</time>
  <course>0.0</course>
  <speed>0.0</speed>
  <fix>3d</fix>
</trkpt>
<trkpt lat="40.0713749" lon="-105.229789">
  <ele>1583.0</ele>
  <time>2026-09-02T20:50:13Z</time>
  <course>0.0</course>
  <speed>0.0</speed>
  <fix>3d</fix>
</trkpt>
<trkpt lat="40.0713749" lon="-105.229789">
  <ele>1583.0</ele>
  <time>2026-09-02T20:50:13Z</time>
  <course>0.0</course>
  <speed>0.0</speed>
  <fix>3d</fix>
</trkpt>
<trkpt lat="40.0713749" lon="-105.229789">
  <ele>1583.0</ele>
  <time>2026-09-02T20:50:13Z</time>
  <course>0.0</course>
  <speed>0.0</speed>
  <fix>3d</fix>
</trkpt>
<trkpt lat="40.0713749" lon="-105.229789">
  <ele>1583.0</ele>
  <time>2026-09-02T20:50:13Z</time>
  <course>0.0</course>
  <speed>0.0</speed>
  <fix>3d</fix>
</trkpt>
<trkpt lat="40.0713749" lon="-105.229789">
  <ele>1583.0</ele>
  <time>2026-09-02T20:50:13Z</time>
  <course>0.0</course>
  <speed>0.0</speed>
  <fix>3d</fix>
</trkpt>
<trkpt lat="40.0713749" lon="-105.229789">
  <ele>1583.0</ele>
  <time>2026-09-02T20:50:13Z</time>
  <course>0.0</course>
  <speed>0.0</speed>
  <fix>3d</fix>
</trkpt>
<trkpt lat="40.0713749" lon="-105.229789">
  <ele>1583.0</ele>
  <time>2026-09-02T20:50:13Z</time>
  <course>0.0</course>
  <speed>0.0</speed>
  <fix>3d</fix>
</trkpt>
<trkpt lat="40.0713749" lon="-105.229789">
  <ele>1583.0</ele>
  <time>2026-09-02T20:50:13Z</time>
  <course>0.0</course>
  <speed>0.0</speed>
  <fix>3d</fix>
</trkpt>
<trkpt lat="40.0713749" lon="-105.229789">
  <ele>1583.0</ele>
  <time>2026-09-02T20:50:13Z</time>
  <course>0.0</course>
  <speed>0.0</speed>
  <fix>3d</fix>
</trkpt>
<trkpt lat="40.0713749" lon="-105.229789">
  <ele>1583.0</ele>
  <time>2026-09-02T20:50:13Z</time>
  <course>0.0</course>
  <speed>0.0</speed>
  <fix>3d</fix>
</trkpt>
<trkpt lat="40.0713749" lon="-105.229789">
  <ele>1583.0</ele>
  <time>2026-09-02T20:50:13Z</time>
  <course>0.0</course>
  <speed>0.0</speed>
  <fix>3d</fix>
</trkpt>
<trkpt lat="40.0713749" lon="-105.229789">
  <ele>1583.0</ele>
  <time>2026-09-02T20:50:13Z</time>
  <course>0.0</course>
  <speed>0.0</speed>
  <fix>3d</fix>
</trkpt>
<trkpt lat="40.0713749" lon="-105.229789">
  <ele>1583.0</ele>
  <time>2026-09-02T20:50:13Z</time>
  <course>0.0</course>
  <speed>0.0</speed>
  <fix>3d</fix>
</trkpt>
<trkpt lat="40.0713749" lon="-105.229789">
  <ele>1583.0</ele>
  <time>2026-09-02T20:50:13Z</time>
  <course>0.0</course>
  <speed>0.0</speed>
  <fix>3d</fix>
</trkpt>
<trkpt lat="40.0713749" lon="-105.229789">
  <ele>1583.0</ele>
  <time>2026-09-02T20:50:13Z</time>
  <course>0.0</course>
  <speed>0.0</speed>
  <fix>3d</fix>
</trkpt>
<trkpt lat="40.0713749" lon="-105.229789">
  <ele>1583.0</ele>
  <time>2026-09-02T20:50:13Z</time>
  <course>0.0</course>
  <speed>0.0</speed>
  <fix>3d</fix>
</trkpt>
<trkpt lat="40.0713749" lon="-105.229789">
  <ele>1583.0</ele>
  <time>2026-09-02T20:50:13Z</time>
  <course>0.0</course>
  <speed>0.0</speed>
  <fix>3d</fix>
</trkpt>
<trkpt lat="40.0713749" lon="-105.229789">
  <ele>1583.0</ele>
  <time>2026-09-02T20:50:13Z</time>
  <course>0.0</course>
  <speed>0.0</speed>
  <fix>3d</fix>
</trkpt>
<trkpt lat="40.0713749" lon="-105.229789">
  <ele>1583.0</ele>
  <time>2026-09-02T20:50:13Z</time>
  <course>0.0</course>
  <speed>0.0</speed>
  <fix>3d</fix>
</trkpt>
<trkpt lat="40.0713749" lon="-105.229789">
  <ele>1583.0</ele>
  <time>2026-09-02T20:50:13Z</time>
  <course>0.0</course>
  <speed>0.0</speed>
  <fix>3d</fix>
</trkpt>
<trkpt lat="40.0713749" lon="-105.229789">
  <ele>1583.0</ele>
  <time>2026-09-02T20:50:13Z</time>
  <course>0.0</course>
  <speed>0.0</speed>
  <fix>3d</fix>
</trkpt>
<trkpt lat="40.0713749" lon="-105.229789">
  <ele>1583.0</ele>
  <time>2026-09-02T20:50:13Z</time>
  <course>0.0</course>
  <speed>0.0</speed>
  <fix>3d</fix>
</trkpt>
<trkpt lat="40.0713749" lon="-105.229789">
  <ele>1583.0</ele>
  <time>2026-09-02T20:50:13Z</time>
  <course>0.0</course>
  <speed>0.0</speed>
  <fix>3d</fix>
</trkpt>
<trkpt lat="40.0713749" lon="-105.229789">
  <ele>1583.0</ele>
  <time>2026-09-02T20:50:13Z</time>
  <course>0.0</course>
  <speed>0.0</speed>
  <fix>3d</fix>
</trkpt>
<trkpt lat="40.0713749" lon="-105.229789">
  <ele>1583.0</ele>
  <time>2026-09-02T20:50:13Z</time>
  <course>0.0</course>
  <speed>0.0</speed>
  <fix>3d</fix>
</trkpt>
<trkpt lat="40.0713749" lon="-105.229789">
  <ele>1583.0</ele>
  <time>2026-09-02T20:50:13Z</time>
  <course>0.0</course>
  <speed>0.0</speed>
  <fix>3d</fix>
</trkpt>
<trkpt lat="40.0713749" lon="-105.229789">
  <ele>1583.0</ele>
  <time>2026-09-02T20:50:13Z</time>
  <course>0.0</course>
  <speed>0.0</speed>
  <fix>3d</fix>
</trkpt>
<trkpt lat="40.0713749" lon="-105.229789">
  <ele>1583.0</ele>
  <time>2026-09-02T20:50:13Z</time>
  <course>0.0</course>
  <speed>0.0</speed>
  <fix>3d</fix>
</trkpt>
<trkpt lat="40.0713749" lon="-105.229789">
  <ele>1583.0</ele>
  <time>2026-09-02T20:50:13Z</time>
  <course>0.0</course>
  <speed>0.0</speed>
  <fix>3d</fix>
</trkpt>
<trkpt lat="40.0713749" lon="-105.229789">
  <ele>1583.0</ele>
  <time>2026-09-02T20:50:13Z</time>
  <course>0.0</course>
  <speed>0.0</speed>
  <fix>3d</fix>
</trkpt>
<trkpt lat="40.0713749" lon="-105.229789">
  <ele>1583.0</ele>
  <time>2026-09-02T20:50:13Z</time>
  <course>0.0</course>
  <speed>0.0</speed>
  <fix>3d</fix>
</trkpt>
<trkpt lat="40.0713749" lon="-105.229789">
  <ele>1583.0</ele>
  <time>2026-09-02T20:50:13Z</time>
  <course>0.0</course>
  <speed>0.0</speed>
  <fix>3d</fix>
</trkpt>
<trkpt lat="40.0713749" lon="-105.229789">
  <ele>1583.0</ele>
  <time>2026-09-02T20:50:13Z</time>
  <course>0.0</course>
  <speed>0.0</speed>
  <fix>3d</fix>
</trkpt>
<trkpt lat="40.0713749" lon="-105.229789">
  <ele>1583.0</ele>
  <time>2026-09-02T20:50:13Z</time>
  <course>0.0</course>
  <speed>0.0</speed>
  <fix>3d</fix>
</trkpt>
<trkpt lat="40.0713749" lon="-105.229789">
  <ele>1583.0</ele>
  <time>2026-09-02T20:50:13Z</time>
  <course>0.0</course>
  <speed>0.0</speed>
  <fix>3d</fix>
</trkpt>
<trkpt lat="40.0713749" lon="-105.229789">
  <ele>1583.0</ele>
  <time>2026-09-02T20:50:13Z</time>
  <course>0.0</course>
  <speed>0.0</speed>
  <fix>3d</fix>
</trkpt>
<trkpt lat="40.0713749" lon="-105.229789">
  <ele>1583.0</ele>
  <time>2026-09-02T20:50:13Z</time>
  <course>0.0</course>
  <speed>0.0</speed>
  <fix>3d</fix>
</trkpt>
<trkpt lat="40.0713749" lon="-105.229789">
  <ele>1583.0</ele>
  <time>2026-09-02T20:50:13Z</time>
  <course>0.0</course>
  <speed>0.0</speed>
  <fix>3d</fix>
</trkpt>
<trkpt lat="40.0713749" lon="-105.229789">
  <ele>1583.0</ele>
  <time>2026-09-02T20:50:13Z</time>
  <course>0.0</course>
  <speed>0.0</speed>
  <fix>3d</fix>
</trkpt>
<trkpt lat="40.0713749" lon="-105.229789">
  <ele>1583.0</ele>
  <time>2026-09-02T20:50:13Z</time>
  <course>0.0</course>
  <speed>0.0</speed>
  <fix>3d</fix>
</trkpt>
<trkpt lat="40.0713749" lon="-105.229789">
  <ele>1583.0</ele>
  <time>2026-09-02T20:50:13Z</time>
  <course>0.0</course>
  <speed>0.0</speed>
  <fix>3d</fix>
</trkpt>
<trkpt lat="40.0713749" lon="-105.229789">
  <ele>1583.0</ele>
  <time>2026-09-02T20:50:13Z</time>
  <course>0.0</course>
  <speed>0.0</speed>
  <fix>3d</fix>
</trkpt>
<trkpt lat="40.0713749" lon="-105.229789">
  <ele>1583.0</ele>
  <time>2026-09-02T20:50:13Z</time>
  <course>0.0</course>
  <speed>0.0</speed>
  <fix>3d</fix>
</trkpt>
<trkpt lat="40.0713749" lon="-105.229789">
  <ele>1583.0</ele>
  <time>2026-09-02T20:50:13Z</time>
  <course>0.0</course>
  <speed>0.0</speed>
  <fix>3d</fix>
</trkpt>
<trkpt lat="40.0713749" lon="-105.229789">
  <ele>1583.0</ele>
  <time>2026-09-02T20:50:13Z</time>
  <course>0.0</course>
  <speed>0.0</speed>
  <fix>3d</fix>
</trkpt>
<trkpt lat="40.0713749" lon="-105.229789">
  <ele>1583.0</ele>
  <time>2026-09-02T20:50:13Z</time>
  <course>0.0</course>
  <speed>0.0</speed>
  <fix>3d</fix>
</trkpt>
<trkpt lat="40.0713749" lon="-105.229789">
  <ele>1583.0</ele>
  <time>2026-09-02T20:50:13Z</time>
  <course>0.0</course>
  <speed>0.0</speed>
  <fix>3d</fix>
</trkpt>
<trkpt lat="40.0713749" lon="-105.229789">
  <ele>1583.0</ele>
  <time>2026-09-02T20:50:13Z</time>
  <course>0.0</course>
  <speed>0.0</speed>
  <fix>3d</fix>
</trkpt>
<trkpt lat="40.0713749" lon="-105.229789">
  <ele>1583.0</ele>
  <time>2026-09-02T20:50:13Z</time>
  <course>0.0</course>
  <speed>0.0</speed>
  <fix>3d</fix>
</trkpt>
<trkpt lat="40.0713749" lon="-105.229789">
  <ele>1583.0</ele>
  <time>2026-09-02T20:50:13Z</time>
  <course>0.0</course>
  <speed>0.0</speed>
  <fix>3d</fix>
</trkpt>
<trkpt lat="40.0713749" lon="-105.229789">
  <ele>1583.0</ele>
  <time>2026-09-02T20:50:13Z</time>
  <course>0.0</course>
  <speed>0.0</speed>
  <fix>3d</fix>
</trkpt>
<trkpt lat="40.0713749" lon="-105.229789">
  <ele>1583.0</ele>
  <time>2026-09-02T20:50:13Z</time>
  <course>0.0</course>
  <speed>0.0</speed>
  <fix>3d</fix>
</trkpt>
<trkpt lat="40.0713749" lon="-105.229789">
  <ele>1583.0</ele>
  <time>2026-09-02T20:50:13Z</time>
  <course>0.0</course>
  <speed>0.0</speed>
  <fix>3d</fix>
</trkpt>
<trkpt lat="40.0713749" lon="-105.229789">
  <ele>1583.0</ele>
  <time>2026-09-02T20:50:13Z</time>
  <course>0.0</course>
  <speed>0.0</speed>
  <fix>3d</fix>
</trkpt>
<trkpt lat="40.0713749" lon="-105.229789">
  <ele>1583.0</ele>
  <time>2026-09-02T20:50:13Z</time>
  <course>0.0</course>
  <speed>0.0</speed>
  <fix>3d</fix>
</trkpt>
<trkpt lat="40.0713749" lon="-105.229789">
  <ele>1583.0</ele>
  <time>2026-09-02T20:50:13Z</time>
  <course>0.0</course>
  <speed>0.0</speed>
  <fix>3d</fix>
</trkpt>
<trkpt lat="40.0713749" lon="-105.229789">
  <ele>1583.0</ele>
  <time>2026-09-02T20:50:13Z</time>
  <course>0.0</course>
  <speed>0.0</speed>
  <fix>3d</fix>
</trkpt>
<trkpt lat="40.0713749" lon="-105.229789">
  <ele>1583.0</ele>
  <time>2026-09-02T20:50:13Z</time>
  <course>0.0</course>
  <speed>0.0</speed>
  <fix>3d</fix>
</trkpt>
<trkpt lat="40.0713749" lon="-105.229789">
  <ele>1583.0</ele>
  <time>2026-09-02T20:50:13Z</time>
  <course>0.0</course>
  <speed>0.0</speed>
  <fix>3d</fix>
</trkpt>
<trkpt lat="40.0713749" lon="-105.229789">
  <ele>1583.0</ele>
  <time>2026-09-02T20:50:13Z</time>
  <course>0.0</course>
  <speed>0.0</speed>
  <fix>3d</fix>
</trkpt>
<trkpt lat="40.0713749" lon="-105.229789">
  <ele>1583.0</ele>
  <time>2026-09-02T20:50:13Z</time>
  <course>0.0</course>
  <speed>0.0</speed>
  <fix>3d</fix>
</trkpt>
<trkpt lat="40.0713749" lon="-105.229789">
  <ele>1583.0</ele>
  <time>2026-09-02T20:50:13Z</time>
  <course>0.0</course>
  <speed>0.0</speed>
  <fix>3d</fix>
</trkpt>
<trkpt lat="40.0713749" lon="-105.229789">
  <ele>1583.0</ele>
  <time>2026-09-02T20:50:13Z</time>
  <course>0.0</course>
  <speed>0.0</speed>
  <fix>3d</fix>
</trkpt>
<trkpt lat="40.0713749" lon="-105.229789">
  <ele>1583.0</ele>
  <time>2026-09-02T20:50:13Z</time>
  <course>0.0</course>
  <speed>0.0</speed>
  <fix>3d</fix>
</trkpt>
<trkpt lat="40.0713749" lon="-105.229789">
  <ele>1583.0</ele>
  <time>2026-09-02T20:50:13Z</time>
  <course>0.0</course>
  <speed>0.0</speed>
  <fix>3d</fix>
</trkpt>
<trkpt lat="40.0713749" lon="-105.229789">
  <ele>1583.0</ele>
  <time>2026-09-02T20:50:13Z</time>
  <course>0.0</course>
  <speed>0.0</speed>
  <fix>3d</fix>
</trkpt>
<trkpt lat="40.0713749" lon="-105.229789">
  <ele>1583.0</ele>
  <time>2026-09-02T20:50:13Z</time>
  <course>0.0</course>
  <speed>0.0</speed>
  <fix>3d</fix>
</trkpt>
<trkpt lat="40.0713749" lon="-105.229789">
  <ele>1583.0</ele>
  <time>2026-09-02T20:50:13Z</time>
  <course>0.0</course>
  <speed>0.0</speed>
  <fix>3d</fix>
</trkpt>
<trkpt lat="40.0713749" lon="-105.229789">
  <ele>1583.0</ele>
  <time>2026-09-02T20:50:13Z</time>
  <course>0.0</course>
  <speed>0.0</speed>
  <fix>3d</fix>
</trkpt>
<trkpt lat="40.0713749" lon="-105.229789">
  <ele>1583.0</ele>
  <time>2026-09-02T20:50:13Z</time>
  <course>0.0</course>
  <speed>0.0</speed>
  <fix>3d</fix>
</trkpt>
<trkpt lat="40.0713749" lon="-105.229789">
  <ele>1583.0</ele>
  <time>2026-09-02T20:50:13Z</time>
  <course>0.0</course>
  <speed>0.0</speed>
  <fix>3d</fix>
</trkpt>
<trkpt lat="40.0713749" lon="-105.229789">
  <ele>1583.0</ele>
  <time>2026-09-02T20:50:13Z</time>
  <course>0.0</course>
  <speed>0.0</speed>
  <fix>3d</fix>
</trkpt>
<trkpt lat="40.0713749" lon="-105.229789">
  <ele>1583.0</ele>
  <time>2026-09-02T20:50:13Z</time>
  <course>0.0</course>
  <speed>0.0</speed>
  <fix>3d</fix>
</trkpt>
<trkpt lat="40.0713749" lon="-105.229789">
  <ele>1583.0</ele>
  <time>2026-09-02T20:50:13Z</time>
  <course>0.0</course>
  <speed>0.0</speed>
  <fix>3d</fix>
</trkpt>
<trkpt lat="40.0713749" lon="-105.229789">
  <ele>1583.0</ele>
  <time>2026-09-02T20:50:13Z</time>
  <course>0.0</course>
  <speed>0.0</speed>
  <fix>3d</fix>
</trkpt>
<trkpt lat="40.0713749" lon="-105.229789">
  <ele>1583.0</ele>
  <time>2026-09-02T20:50:13Z</time>
  <course>0.0</course>
  <speed>0.0</speed>
  <fix>3d</fix>
</trkpt>
<trkpt lat="40.0713749" lon="-105.229789">
  <ele>1583.0</ele>
  <time>2026-09-02T20:50:13Z</time>
  <course>0.0</course>
  <speed>0.0</speed>
  <fix>3d</fix>
</trkpt>
<trkpt lat="40.0713749" lon="-105.229789">
  <ele>1583.0</ele>
  <time>2026-09-02T20:50:13Z</time>
  <course>0.0</course>
  <speed>0.0</speed>
  <fix>3d</fix>
</trkpt>
<trkpt lat="40.0713749" lon="-105.229789">
  <ele>1583.0</ele>
  <time>2026-09-02T20:50:13Z</time>
  <course>0.0</course>
  <speed>0.0</speed>
  <fix>3d</fix>
</trkpt>
<trkpt lat="40.0713749" lon="-105.229789">
  <ele>1583.0</ele>
  <time>2026-09-02T20:50:13Z</time>
  <course>0.0</course>
  <speed>0.0</speed>
  <fix>3d</fix>
</trkpt>
<trkpt lat="40.0713749" lon="-105.229789">
  <ele>1583.0</ele>
  <time>2026-09-02T20:50:13Z</time>
  <course>0.0</course>
  <speed>0.0</speed>
  <fix>3d</fix>
</trkpt>
<trkpt lat="40.0713749" lon="-105.229789">
  <ele>1583.0</ele>
  <time>2026-09-02T20:50:13Z</time>
  <course>0.0</course>
  <speed>0.0</speed>
  <fix>3d</fix>
</trkpt>
<trkpt lat="40.0713749" lon="-105.229789">
  <ele>1583.0</ele>
  <time>2026-09-02T20:50:13Z</time>
  <course>0.0</course>
  <speed>0.0</speed>
  <fix>3d</fix>
</trkpt>
<trkpt lat="40.0713749" lon="-105.229789">
  <ele>1583.0</ele>
  <time>2026-09-02T20:50:13Z</time>
  <course>0.0</course>
  <speed>0.0</speed>
  <fix>3d</fix>
</trkpt>
<trkpt lat="40.0713749" lon="-105.229789">
  <ele>1583.0</ele>
  <time>2026-09-02T20:50:13Z</time>
  <course>0.0</course>
  <speed>0.0</speed>
  <fix>3d</fix>
</trkpt>
<trkpt lat="40.0713749" lon="-105.229789">
  <ele>1583.0</ele>
  <time>2026-09-02T20:50:13Z</time>
  <course>0.0</course>
  <speed>0.0</speed>
  <fix>3d</fix>
</trkpt>
<trkpt lat="40.0713749" lon="-105.229789">
  <ele>1583.0</ele>
  <time>2026-09-02T20:50:13Z</time>
  <course>0.0</course>
  <speed>0.0</speed>
  <fix>3d</fix>
</trkpt>
<trkpt lat="40.0713749" lon="-105.229789">
  <ele>1583.0</ele>
  <time>2026-09-02T20:50:13Z</time>
  <course>0.0</course>
  <speed>0.0</speed>
  <fix>3d</fix>
</trkpt>
<trkpt lat="40.0713749" lon="-105.229789">
  <ele>1583.0</ele>
  <time>2026-09-02T20:50:13Z</time>
  <course>0.0</course>
  <speed>0.0</speed>
  <fix>3d</fix>
</trkpt>
<trkpt lat="40.0713749" lon="-105.229789">
  <ele>1583.0</ele>
  <time>2026-09-02T20:50:13Z</time>
  <course>0.0</course>
  <speed>0.0</speed>
  <fix>3d</fix>
</trkpt>
<trkpt lat="40.0713749" lon="-105.229789">
  <ele>1583.0</ele>
  <time>2026-09-02T20:50:13Z</time>
  <course>0.0</course>
  <speed>0.0</speed>
  <fix>3d</fix>
</trkpt>
<trkpt lat="40.0713749" lon="-105.229789">
  <ele>1583.0</ele>
  <time>2026-09-02T20:50:13Z</time>
  <course>0.0</course>
  <speed>0.0</speed>
  <fix>3d</fix>
</trkpt>
<trkpt lat="40.0713749" lon="-105.229789">
  <ele>1583.0</ele>
  <time>2026-09-02T20:50:13Z</time>
  <course>0.0</course>
  <speed>0.0</speed>
  <fix>3d</fix>
</trkpt>
<trkpt lat="40.0713749" lon="-105.229789">
  <ele>1583.0</ele>
  <time>2026-09-02T20:50:13Z</time>
  <course>0.0</course>
  <speed>0.0</speed>
  <fix>3d</fix>
</trkpt>
<trkpt lat="40.0713749" lon="-105.229789">
  <ele>1583.0</ele>
  <time>2026-09-02T20:50:13Z</time>
  <course>0.0</course>
  <speed>0.0</speed>
  <fix>3d</fix>
</trkpt>
<trkpt lat="40.0713749" lon="-105.229789">
  <ele>1583.0</ele>
  <time>2026-09-02T20:50:13Z</time>
  <course>0.0</course>
  <speed>0.0</speed>
  <fix>3d</fix>
</trkpt>
<trkpt lat="40.0713749" lon="-105.229789">
  <ele>1583.0</ele>
  <time>2026-09-02T20:50:13Z</time>
  <course>0.0</course>
  <speed>0.0</speed>
  <fix>3d</fix>
</trkpt>
<trkpt lat="40.0713749" lon="-105.229789">
  <ele>1583.0</ele>
  <time>2026-09-02T20:50:13Z</time>
  <course>0.0</course>
  <speed>0.0</speed>
  <fix>3d</fix>
</trkpt>
<trkpt lat="40.0713749" lon="-105.229789">
  <ele>1583.0</ele>
  <time>2026-09-02T20:50:13Z</time>
  <course>0.0</course>
  <speed>0.0</speed>
  <fix>3d</fix>
</trkpt>
<trkpt lat="40.0713749" lon="-105.229789">
  <ele>1583.0</ele>
  <time>2026-09-02T20:50:13Z</time>
  <course>0.0</course>
  <speed>0.0</speed>
  <fix>3d</fix>
</trkpt>
<trkpt lat="40.0713749" lon="-105.229789">
  <ele>1583.0</ele>
  <time>2026-09-02T20:50:13Z</time>
  <course>0.0</course>
  <speed>0.0</speed>
  <fix>3d</fix>
</trkpt>
<trkpt lat="40.0713749" lon="-105.229789">
  <ele>1583.0</ele>
  <time>2026-09-02T20:50:13Z</time>
  <course>0.0</course>
  <speed>0.0</speed>
  <fix>3d</fix>
</trkpt>
<trkpt lat="40.0713749" lon="-105.229789">
  <ele>1583.0</ele>
  <time>2026-09-02T20:50:13Z</time>
  <course>0.0</course>
  <speed>0.0</speed>
  <fix>3d</fix>
</trkpt>
<trkpt lat="40.0713749" lon="-105.229789">
  <ele>1583.0</ele>
  <time>2026-09-02T20:50:13Z</time>
  <course>0.0</course>
  <speed>0.0</speed>
  <fix>3d</fix>
</trkpt>
<trkpt lat="40.0713749" lon="-105.229789">
  <ele>1583.0</ele>
  <time>2026-09-02T20:50:13Z</time>
  <course>0.0</course>
  <speed>0.0</speed>
  <fix>3d</fix>
</trkpt>
<trkpt lat="40.0713749" lon="-105.229789">
  <ele>1583.0</ele>
  <time>2026-09-02T20:50:13Z</time>
  <course>0.0</course>
  <speed>0.0</speed>
  <fix>3d</fix>
</trkpt>
<trkpt lat="40.0713749" lon="-105.229789">
  <ele>1583.0</ele>
  <time>2026-09-02T20:50:13Z</time>
  <course>0.0</course>
  <speed>0.0</speed>
  <fix>3d</fix>
</trkpt>
<trkpt lat="40.0713749" lon="-105.229789">
  <ele>1583.0</ele>
  <time>2026-09-02T20:50:13Z</time>
  <course>0.0</course>
  <speed>0.0</speed>
  <fix>3d</fix>
</trkpt>
<trkpt lat="40.0713749" lon="-105.229789">
  <ele>1583.0</ele>
  <time>2026-09-02T20:50:13Z</time>
  <course>0.0</course>
  <speed>0.0</speed>
  <fix>3d</fix>
</trkpt>
<trkpt lat="40.0713749" lon="-105.229789">
  <ele>1583.0</ele>
  <time>2026-09-02T20:50:13Z</time>
  <course>0.0</course>
  <speed>0.0</speed>
  <fix>3d</fix>
</trkpt>
<trkpt lat="40.0713749" lon="-105.229789">
  <ele>1583.0</ele>
  <time>2026-09-02T20:50:13Z</time>
  <course>0.0</course>
  <speed>0.0</speed>
  <fix>3d</fix>
</trkpt>
<trkpt lat="40.0713749" lon="-105.229789">
  <ele>1583.0</ele>
  <time>2026-09-02T20:50:13Z</time>
  <course>0.0</course>
  <speed>0.0</speed>
  <fix>3d</fix>
</trkpt>
<trkpt lat="40.0713749" lon="-105.229789">
  <ele>1583.0</ele>
  <time>2026-09-02T20:50:13Z</time>
  <course>0.0</course>
  <speed>0.0</speed>
  <fix>3d</fix>
</trkpt>
<trkpt lat="40.0713749" lon="-105.229789">
  <ele>1583.0</ele>
  <time>2026-09-02T20:50:13Z</time>
  <course>0.0</course>
  <speed>0.0</speed>
  <fix>3d</fix>
</trkpt>
<trkpt lat="40.0713749" lon="-105.229789">
  <ele>1583.0</ele>
  <time>2026-09-02T20:50:13Z</time>
  <course>0.0</course>
  <speed>0.0</speed>
  <fix>3d</fix>
</trkpt>
<trkpt lat="40.0713749" lon="-105.229789">
  <ele>1583.0</ele>
  <time>2026-09-02T20:50:13Z</time>
  <course>0.0</course>
  <speed>0.0</speed>
  <fix>3d</fix>
</trkpt>
<trkpt lat="40.0713749" lon="-105.229789">
  <ele>1583.0</ele>
  <time>2026-09-02T20:50:13Z</time>
  <course>0.0</course>
  <speed>0.0</speed>
  <fix>3d</fix>
</trkpt>
<trkpt lat="40.0713749" lon="-105.229789">
  <ele>1583.0</ele>
  <time>2026-09-02T20:50:13Z</time>
  <course>0.0</course>
  <speed>0.0</speed>
  <fix>3d</fix>
</trkpt>
<trkpt lat="40.0713749" lon="-105.229789">
  <ele>1583.0</ele>
  <time>2026-09-02T20:50:13Z</time>
  <course>0.0</course>
  <speed>0.0</speed>
  <fix>3d</fix>
</trkpt>
<trkpt lat="40.0713749" lon="-105.229789">
  <ele>1583.0</ele>
  <time>2026-09-02T20:50:13Z</time>
  <course>0.0</course>
  <speed>0.0</speed>
  <fix>3d</fix>
</trkpt>
<trkpt lat="40.0713749" lon="-105.229789">
  <ele>1583.0</ele>
  <time>2026-09-02T20:50:13Z</time>
  <course>0.0</course>
  <speed>0.0</speed>
  <fix>3d</fix>
</trkpt>
<trkpt lat="40.0713749" lon="-105.229789">
  <ele>1583.0</ele>
  <time>2026-09-02T20:50:13Z</time>
  <course>0.0</course>
  <speed>0.0</speed>
  <fix>3d</fix>
</trkpt>
<trkpt lat="40.0713749" lon="-105.229789">
  <ele>1583.0</ele>
  <time>2026-09-02T20:50:13Z</time>
  <course>0.0</course>
  <speed>0.0</speed>
  <fix>3d</fix>
</trkpt>
<trkpt lat="40.0713749" lon="-105.229789">
  <ele>1583.0</ele>
  <time>2026-09-02T20:50:13Z</time>
  <course>0.0</course>
  <speed>0.0</speed>
  <fix>3d</fix>
</trkpt>
<trkpt lat="40.0713749" lon="-105.229789">
  <ele>1583.0</ele>
  <time>2026-09-02T20:50:13Z</time>
  <course>0.0</course>
  <speed>0.0</speed>
  <fix>3d</fix>
</trkpt>
<trkpt lat="40.0713749" lon="-105.229789">
  <ele>1583.0</ele>
  <time>2026-09-02T20:50:13Z</time>
  <course>0.0</course>
  <speed>0.0</speed>
  <fix>3d</fix>
</trkpt>
<trkpt lat="40.0713749" lon="-105.229789">
  <ele>1583.0</ele>
  <time>2026-09-02T20:50:13Z</time>
  <course>0.0</course>
  <speed>0.0</speed>
  <fix>3d</fix>
</trkpt>
<trkpt lat="40.0713749" lon="-105.229789">
  <ele>1583.0</ele>
  <time>2026-09-02T20:50:13Z</time>
  <course>0.0</course>
  <speed>0.0</speed>
  <fix>3d</fix>
</trkpt>
<trkpt lat="40.0713749" lon="-105.229789">
  <ele>1583.0</ele>
  <time>2026-09-02T20:50:13Z</time>
  <course>0.0</course>
  <speed>0.0</speed>
  <fix>3d</fix>
</trkpt>
<trkpt lat="40.0713749" lon="-105.229789">
  <ele>1583.0</ele>
  <time>2026-09-02T20:50:13Z</time>
  <course>0.0</course>
  <speed>0.0</speed>
  <fix>3d</fix>
</trkpt>
<trkpt lat="40.0713749" lon="-105.229789">
  <ele>1583.0</ele>
  <time>2026-09-02T20:50:13Z</time>
  <course>0.0</course>
  <speed>0.0</speed>
  <fix>3d</fix>
</trkpt>
<trkpt lat="40.0713749" lon="-105.229789">
  <ele>1583.0</ele>
  <time>2026-09-02T20:50:13Z</time>
  <course>0.0</course>
  <speed>0.0</speed>
  <fix>3d</fix>
</trkpt>
<trkpt lat="40.0713749" lon="-105.229789">
  <ele>1583.0</ele>
  <time>2026-09-02T20:50:13Z</time>
  <course>0.0</course>
  <speed>0.0</speed>
  <fix>3d</fix>
</trkpt>
<trkpt lat="40.0713749" lon="-105.229789">
  <ele>1583.0</ele>
  <time>2026-09-02T20:50:13Z</time>
  <course>0.0</course>
  <speed>0.0</speed>
  <fix>3d</fix>
</trkpt>
<trkpt lat="40.0713749" lon="-105.229789">
  <ele>1583.0</ele>
  <time>2026-09-02T20:50:13Z</time>
  <course>0.0</course>
  <speed>0.0</speed>
  <fix>3d</fix>
</trkpt>
<trkpt lat="40.0713749" lon="-105.229789">
  <ele>1583.0</ele>
  <time>2026-09-02T20:50:13Z</time>
  <course>0.0</course>
  <speed>0.0</speed>
  <fix>3d</fix>
</trkpt>
<trkpt lat="40.0713749" lon="-105.229789">
  <ele>1583.0</ele>
  <time>2026-09-02T20:50:13Z</time>
  <course>0.0</course>
  <speed>0.0</speed>
  <fix>3d</fix>
</trkpt>
<trkpt lat="40.0713749" lon="-105.229789">
  <ele>1583.0</ele>
  <time>2026-09-02T20:50:13Z</time>
  <course>0.0</course>
  <speed>0.0</speed>
  <fix>3d</fix>
</trkpt>
<trkpt lat="40.0713749" lon="-105.229789">
  <ele>1583.0</ele>
  <time>2026-09-02T20:50:13Z</time>
  <course>0.0</course>
  <speed>0.0</speed>
  <fix>3d</fix>
</trkpt>
<trkpt lat="40.0713749" lon="-105.229789">
  <ele>1583.0</ele>
  <time>2026-09-02T20:50:13Z</time>
  <course>0.0</course>
  <speed>0.0</speed>
  <fix>3d</fix>
</trkpt>
<trkpt lat="40.0713749" lon="-105.229789">
  <ele>1583.0</ele>
  <time>2026-09-02T20:50:13Z</time>
  <course>0.0</course>
  <speed>0.0</speed>
  <fix>3d</fix>
</trkpt>
<trkpt lat="40.0713749" lon="-105.229789">
  <ele>1583.0</ele>
  <time>2026-09-02T20:50:13Z</time>
  <course>0.0</course>
  <speed>0.0</speed>
  <fix>3d</fix>
</trkpt>
<trkpt lat="40.0713749" lon="-105.229789">
  <ele>1583.0</ele>
  <time>2026-09-02T20:50:13Z</time>
  <course>0.0</course>
  <speed>0.0</speed>
  <fix>3d</fix>
</trkpt>
<trkpt lat="40.0713749" lon="-105.229789">
  <ele>1583.0</ele>
  <time>2026-09-02T20:50:13Z</time>
  <course>0.0</course>
  <speed>0.0</speed>
  <fix>3d</fix>
</trkpt>
<trkpt lat="40.0713749" lon="-105.229789">
  <ele>1583.0</ele>
  <time>2026-09-02T20:50:13Z</time>
  <course>0.0</course>
  <speed>0.0</speed>
  <fix>3d</fix>
</trkpt>
<trkpt lat="40.0713749" lon="-105.229789">
  <ele>1583.0</ele>
  <time>2026-09-02T20:50:13Z</time>
  <course>0.0</course>
  <speed>0.0</speed>
  <fix>3d</fix>
</trkpt>
<trkpt lat="40.0713749" lon="-105.229789">
  <ele>1583.0</ele>
  <time>2026-09-02T20:50:13Z</time>
  <course>0.0</course>
  <speed>0.0</speed>
  <fix>3d</fix>
</trkpt>
<trkpt lat="40.0713749" lon="-105.229789">
  <ele>1583.0</ele>
  <time>2026-09-02T20:50:13Z</time>
  <course>0.0</course>
  <speed>0.0</speed>
  <fix>3d</fix>
</trkpt>
<trkpt lat="40.0713749" lon="-105.229789">
  <ele>1583.0</ele>
  <time>2026-09-02T20:50:13Z</time>
  <course>0.0</course>
  <speed>0.0</speed>
  <fix>3d</fix>
</trkpt>
<trkpt lat="40.0713749" lon="-105.229789">
  <ele>1583.0</ele>
  <time>2026-09-02T20:50:13Z</time>
  <course>0.0</course>
  <speed>0.0</speed>
  <fix>3d</fix>
</trkpt>
<trkpt lat="40.0713749" lon="-105.229789">
  <ele>1583.0</ele>
  <time>2026-09-02T20:50:13Z</time>
  <course>0.0</course>
  <speed>0.0</speed>
  <fix>3d</fix>
</trkpt>
<trkpt lat="40.0713749" lon="-105.229789">
  <ele>1583.0</ele>
  <time>2026-09-02T20:50:13Z</time>
  <course>0.0</course>
  <speed>0.0</speed>
  <fix>3d</fix>
</trkpt>
<trkpt lat="40.0713749" lon="-105.229789">
  <ele>1583.0</ele>
  <time>2026-09-02T20:50:13Z</time>
  <course>0.0</course>
  <speed>0.0</speed>
  <fix>3d</fix>
</trkpt>
<trkpt lat="40.0713749" lon="-105.229789">
  <ele>1583.0</ele>
  <time>2026-09-02T20:50:13Z</time>
  <course>0.0</course>
  <speed>0.0</speed>
  <fix>3d</fix>
</trkpt>
<trkpt lat="40.0713749" lon="-105.229789">
  <ele>1583.0</ele>
  <time>2026-09-02T20:50:13Z</time>
  <course>0.0</course>
  <speed>0.0</speed>
  <fix>3d</fix>
</trkpt>
<trkpt lat="40.0713749" lon="-105.229789">
  <ele>1583.0</ele>
  <time>2026-09-02T20:50:13Z</time>
  <course>0.0</course>
  <speed>0.0</speed>
  <fix>3d</fix>
</trkpt>
<trkpt lat="40.0713749" lon="-105.229789">
  <ele>1583.0</ele>
  <time>2026-09-02T20:50:13Z</time>
  <course>0.0</course>
  <speed>0.0</speed>
  <fix>3d</fix>
</trkpt>
<trkpt lat="40.0713749" lon="-105.229789">
  <ele>1583.0</ele>
  <time>2026-09-02T20:50:13Z</time>
  <course>0.0</course>
  <speed>0.0</speed>
  <fix>3d</fix>
</trkpt>
<trkpt lat="40.0713749" lon="-105.229789">
  <ele>1583.0</ele>
  <time>2026-09-02T20:50:13Z</time>
  <course>0.0</course>
  <speed>0.0</speed>
  <fix>3d</fix>
</trkpt>
<trkpt lat="40.0713749" lon="-105.229789">
  <ele>1583.0</ele>
  <time>2026-09-02T20:50:13Z</time>
  <course>0.0</course>
  <speed>0.0</speed>
  <fix>3d</fix>
</trkpt>
<trkpt lat="40.0713749" lon="-105.229789">
  <ele>1583.0</ele>
  <time>2026-09-02T20:50:13Z</time>
  <course>0.0</course>
  <speed>0.0</speed>
  <fix>3d</fix>
</trkpt>
<trkpt lat="40.0713749" lon="-105.229789">
  <ele>1583.0</ele>
  <time>2026-09-02T20:50:13Z</time>
  <course>0.0</course>
  <speed>0.0</speed>
  <fix>3d</fix>
</trkpt>
<trkpt lat="40.0713749" lon="-105.229789">
  <ele>1583.0</ele>
  <time>2026-09-02T20:50:13Z</time>
  <course>0.0</course>
  <speed>0.0</speed>
  <fix>3d</fix>
</trkpt>
<trkpt lat="40.0713749" lon="-105.229789">
  <ele>1583.0</ele>
  <time>2026-09-02T20:50:13Z</time>
  <course>0.0</course>
  <speed>0.0</speed>
  <fix>3d</fix>
</trkpt>
<trkpt lat="40.0713749" lon="-105.229789">
  <ele>1583.0</ele>
  <time>2026-09-02T20:50:13Z</time>
  <course>0.0</course>
  <speed>0.0</speed>
  <fix>3d</fix>
</trkpt>
<trkpt lat="40.0713749" lon="-105.229789">
  <ele>1583.0</ele>
  <time>2026-09-02T20:50:13Z</time>
  <course>0.0</course>
  <speed>0.0</speed>
  <fix>3d</fix>
</trkpt>
<trkpt lat="40.0713749" lon="-105.229789">
  <ele>1583.0</ele>
  <time>2026-09-02T20:50:13Z</time>
  <course>0.0</course>
  <speed>0.0</speed>
  <fix>3d</fix>
</trkpt>
<trkpt lat="40.0713749" lon="-105.229789">
  <ele>1583.0</ele>
  <time>2026-09-02T20:50:13Z</time>
  <course>0.0</course>
  <speed>0.0</speed>
  <fix>3d</fix>
</trkpt>
<trkpt lat="40.0713749" lon="-105.229789">
  <ele>1583.0</ele>
  <time>2026-09-02T20:50:13Z</time>
  <course>0.0</course>
  <speed>0.0</speed>
  <fix>3d</fix>
</trkpt>
<trkpt lat="40.0713749" lon="-105.229789">
  <ele>1583.0</ele>
  <time>2026-09-02T20:50:13Z</time>
  <course>0.0</course>
  <speed>0.0</speed>
  <fix>3d</fix>
</trkpt>
<trkpt lat="40.0713749" lon="-105.229789">
  <ele>1583.0</ele>
  <time>2026-09-02T20:50:13Z</time>
  <course>0.0</course>
  <speed>0.0</speed>
  <fix>3d</fix>
</trkpt>
<trkpt lat="40.0713749" lon="-105.229789">
  <ele>1583.0</ele>
  <time>2026-09-02T20:50:13Z</time>
  <course>0.0</course>
  <speed>0.0</speed>
  <fix>3d</fix>
</trkpt>
<trkpt lat="40.0713749" lon="-105.229789">
  <ele>1583.0</ele>
  <time>2026-09-02T20:50:13Z</time>
  <course>0.0</course>
  <speed>0.0</speed>
  <fix>3d</fix>
</trkpt>
<trkpt lat="40.0713749" lon="-105.229789">
  <ele>1583.0</ele>
  <time>2026-09-02T20:50:13Z</time>
  <course>0.0</course>
  <speed>0.0</speed>
  <fix>3d</fix>
</trkpt>
<trkpt lat="40.0713749" lon="-105.229789">
  <ele>1583.0</ele>
  <time>2026-09-02T20:50:13Z</time>
  <course>0.0</course>
  <speed>0.0</speed>
  <fix>3d</fix>
</trkpt>
<trkpt lat="40.0713749" lon="-105.229789">
  <ele>1583.0</ele>
  <time>2026-09-02T20:50:13Z</time>
  <course>0.0</course>
  <speed>0.0</speed>
  <fix>3d</fix>
</trkpt>
<trkpt lat="40.0713749" lon="-105.229789">
  <ele>1583.0</ele>
  <time>2026-09-02T20:50:13Z</time>
  <course>0.0</course>
  <speed>0.0</speed>
  <fix>3d</fix>
</trkpt>
<trkpt lat="40.0713749" lon="-105.229789">
  <ele>1583.0</ele>
  <time>2026-09-02T20:50:13Z</time>
  <course>0.0</course>
  <speed>0.0</speed>
  <fix>3d</fix>
</trkpt>
<trkpt lat="40.0713749" lon="-105.229789">
  <ele>1583.0</ele>
  <time>2026-09-02T20:50:13Z</time>
  <course>0.0</course>
  <speed>0.0</speed>
  <fix>3d</fix>
</trkpt>
<trkpt lat="40.0713749" lon="-105.229789">
  <ele>1583.0</ele>
  <time>2026-09-02T20:50:13Z</time>
  <course>0.0</course>
  <speed>0.0</speed>
  <fix>3d</fix>
</trkpt>
<trkpt lat="40.0713749" lon="-105.229789">
  <ele>1583.0</ele>
  <time>2026-09-02T20:50:13Z</time>
  <course>0.0</course>
  <speed>0.0</speed>
  <fix>3d</fix>
</trkpt>
<trkpt lat="40.0713749" lon="-105.229789">
  <ele>1583.0</ele>
  <time>2026-09-02T20:50:13Z</time>
  <course>0.0</course>
  <speed>0.0</speed>
  <fix>3d</fix>
</trkpt>
<trkpt lat="40.0713749" lon="-105.229789">
  <ele>1583.0</ele>
  <time>2026-09-02T20:50:13Z</time>
  <course>0.0</course>
  <speed>0.0</speed>
  <fix>3d</fix>
</trkpt>
<trkpt lat="40.0713749" lon="-105.229789">
  <ele>1583.0</ele>
  <time>2026-09-02T20:50:13Z</time>
  <course>0.0</course>
  <speed>0.0</speed>
  <fix>3d</fix>
</trkpt>
<trkpt lat="40.0713749" lon="-105.229789">
  <ele>1583.0</ele>
  <time>2026-09-02T20:50:13Z</time>
  <course>0.0</course>
  <speed>0.0</speed>
  <fix>3d</fix>
</trkpt>
<trkpt lat="40.0713749" lon="-105.229789">
  <ele>1583.0</ele>
  <time>2026-09-02T20:50:13Z</time>
  <course>0.0</course>
  <speed>0.0</speed>
  <fix>3d</fix>
</trkpt>
<trkpt lat="40.0713749" lon="-105.229789">
  <ele>1583.0</ele>
  <time>2026-09-02T20:50:13Z</time>
  <course>0.0</course>
  <speed>0.0</speed>
  <fix>3d</fix>
</trkpt>
<trkpt lat="40.0713749" lon="-105.229789">
  <ele>1583.0</ele>
  <time>2026-09-02T20:50:13Z</time>
  <course>0.0</course>
  <speed>0.0</speed>
  <fix>3d</fix>
</trkpt>
<trkpt lat="40.0713749" lon="-105.229789">
  <ele>1583.0</ele>
  <time>2026-09-02T20:50:13Z</time>
  <course>0.0</course>
  <speed>0.0</speed>
  <fix>3d</fix>
</trkpt>
<trkpt lat="40.0713749" lon="-105.229789">
  <ele>1583.0</ele>
  <time>2026-09-02T20:50:13Z</time>
  <course>0.0</course>
  <speed>0.0</speed>
  <fix>3d</fix>
</trkpt>
<trkpt lat="40.0713749" lon="-105.229789">
  <ele>1583.0</ele>
  <time>2026-09-02T20:50:13Z</time>
  <course>0.0</course>
  <speed>0.0</speed>
  <fix>3d</fix>
</trkpt>
<trkpt lat="40.0713749" lon="-105.229789">
  <ele>1583.0</ele>
  <time>2026-09-02T20:50:13Z</time>
  <course>0.0</course>
  <speed>0.0</speed>
  <fix>3d</fix>
</trkpt>
<trkpt lat="40.0713749" lon="-105.229789">
  <ele>1583.0</ele>
  <time>2026-09-02T20:50:13Z</time>
  <course>0.0</course>
  <speed>0.0</speed>
  <fix>3d</fix>
</trkpt>
<trkpt lat="40.0713749" lon="-105.229789">
  <ele>1583.0</ele>
  <time>2026-09-02T20:50:13Z</time>
  <course>0.0</course>
  <speed>0.0</speed>
  <fix>3d</fix>
</trkpt>
<trkpt lat="40.0713749" lon="-105.229789">
  <ele>1583.0</ele>
  <time>2026-09-02T20:50:14Z</time>
  <course>0.0</course>
  <speed>0.0</speed>
  <fix>3d</fix>
</trkpt>
<trkpt lat="40.0713749" lon="-105.229789">
  <ele>1583.0</ele>
  <time>2026-09-02T20:50:14Z</time>
  <course>0.0</course>
  <speed>0.0</speed>
  <fix>3d</fix>
</trkpt>
<trkpt lat="40.0713749" lon="-105.229789">
  <ele>1583.0</ele>
  <time>2026-09-02T20:50:14Z</time>
  <course>0.0</course>
  <speed>0.0</speed>
  <fix>3d</fix>
</trkpt>
<trkpt lat="40.0713749" lon="-105.229789">
  <ele>1583.0</ele>
  <time>2026-09-02T20:50:14Z</time>
  <course>0.0</course>
  <speed>0.0</speed>
  <fix>3d</fix>
</trkpt>
<trkpt lat="40.0713749" lon="-105.229789">
  <ele>1583.0</ele>
  <time>2026-09-02T20:50:14Z</time>
  <course>0.0</course>
  <speed>0.0</speed>
  <fix>3d</fix>
</trkpt>
<trkpt lat="40.0713749" lon="-105.229789">
  <ele>1583.0</ele>
  <time>2026-09-02T20:50:14Z</time>
  <course>0.0</course>
  <speed>0.0</speed>
  <fix>3d</fix>
</trkpt>
<trkpt lat="40.0713749" lon="-105.229789">
  <ele>1583.0</ele>
  <time>2026-09-02T20:50:14Z</time>
  <course>0.0</course>
  <speed>0.0</speed>
  <fix>3d</fix>
</trkpt>
<trkpt lat="40.0713749" lon="-105.229789">
  <ele>1583.0</ele>
  <time>2026-09-02T20:50:14Z</time>
  <course>0.0</course>
  <speed>0.0</speed>
  <fix>3d</fix>
</trkpt>
<trkpt lat="40.0713749" lon="-105.229789">
  <ele>1583.0</ele>
  <time>2026-09-02T20:50:14Z</time>
  <course>0.0</course>
  <speed>0.0</speed>
  <fix>3d</fix>
</trkpt>
<trkpt lat="40.0713749" lon="-105.229789">
  <ele>1583.0</ele>
  <time>2026-09-02T20:50:14Z</time>
  <course>0.0</course>
  <speed>0.0</speed>
  <fix>3d</fix>
</trkpt>
<trkpt lat="40.0713749" lon="-105.229789">
  <ele>1583.0</ele>
  <time>2026-09-02T20:50:14Z</time>
  <course>0.0</course>
  <speed>0.0</speed>
  <fix>3d</fix>
</trkpt>
<trkpt lat="40.0713749" lon="-105.229789">
  <ele>1583.0</ele>
  <time>2026-09-02T20:50:14Z</time>
  <course>0.0</course>
  <speed>0.0</speed>
  <fix>3d</fix>
</trkpt>
<trkpt lat="40.0713749" lon="-105.229789">
  <ele>1583.0</ele>
  <time>2026-09-02T20:50:14Z</time>
  <course>0.0</course>
  <speed>0.0</speed>
  <fix>3d</fix>
</trkpt>
<trkpt lat="40.0713749" lon="-105.229789">
  <ele>1583.0</ele>
  <time>2026-09-02T20:50:14Z</time>
  <course>0.0</course>
  <speed>0.0</speed>
  <fix>3d</fix>
</trkpt>
<trkpt lat="40.0713749" lon="-105.229789">
  <ele>1583.0</ele>
  <time>2026-09-02T20:50:14Z</time>
  <course>0.0</course>
  <speed>0.0</speed>
  <fix>3d</fix>
</trkpt>
<trkpt lat="40.0713749" lon="-105.229789">
  <ele>1583.0</ele>
  <time>2026-09-02T20:50:14Z</time>
  <course>0.0</course>
  <speed>0.0</speed>
  <fix>3d</fix>
</trkpt>
<trkpt lat="40.0713749" lon="-105.229789">
  <ele>1583.0</ele>
  <time>2026-09-02T20:50:14Z</time>
  <course>0.0</course>
  <speed>0.0</speed>
  <fix>3d</fix>
</trkpt>
<trkpt lat="40.0713749" lon="-105.229789">
  <ele>1583.0</ele>
  <time>2026-09-02T20:50:14Z</time>
  <course>0.0</course>
  <speed>0.0</speed>
  <fix>3d</fix>
</trkpt>
<trkpt lat="40.0713749" lon="-105.229789">
  <ele>1583.0</ele>
  <time>2026-09-02T20:50:14Z</time>
  <course>0.0</course>
  <speed>0.0</speed>
  <fix>3d</fix>
</trkpt>
<trkpt lat="40.0713749" lon="-105.229789">
  <ele>1583.0</ele>
  <time>2026-09-02T20:50:14Z</time>
  <course>0.0</course>
  <speed>0.0</speed>
  <fix>3d</fix>
</trkpt>
<trkpt lat="40.0713749" lon="-105.229789">
  <ele>1583.0</ele>
  <time>2026-09-02T20:50:14Z</time>
  <course>0.0</course>
  <speed>0.0</speed>
  <fix>3d</fix>
</trkpt>
<trkpt lat="40.0713749" lon="-105.229789">
  <ele>1583.0</ele>
  <time>2026-09-02T20:50:14Z</time>
  <course>0.0</course>
  <speed>0.0</speed>
  <fix>3d</fix>
</trkpt>
<trkpt lat="40.0713749" lon="-105.229789">
  <ele>1583.0</ele>
  <time>2026-09-02T20:50:14Z</time>
  <course>0.0</course>
  <speed>0.0</speed>
  <fix>3d</fix>
</trkpt>
<trkpt lat="40.0713749" lon="-105.229789">
  <ele>1583.0</ele>
  <time>2026-09-02T20:50:14Z</time>
  <course>0.0</course>
  <speed>0.0</speed>
  <fix>3d</fix>
</trkpt>
<trkpt lat="40.0713749" lon="-105.229789">
  <ele>1583.0</ele>
  <time>2026-09-02T20:50:14Z</time>
  <course>0.0</course>
  <speed>0.0</speed>
  <fix>3d</fix>
</trkpt>
<trkpt lat="40.0713749" lon="-105.229789">
  <ele>1583.0</ele>
  <time>2026-09-02T20:50:14Z</time>
  <course>0.0</course>
  <speed>0.0</speed>
  <fix>3d</fix>
</trkpt>
<trkpt lat="40.0713749" lon="-105.229789">
  <ele>1583.0</ele>
  <time>2026-09-02T20:50:14Z</time>
  <course>0.0</course>
  <speed>0.0</speed>
  <fix>3d</fix>
</trkpt>
<trkpt lat="40.0713749" lon="-105.229789">
  <ele>1583.0</ele>
  <time>2026-09-02T20:50:14Z</time>
  <course>0.0</course>
  <speed>0.0</speed>
  <fix>3d</fix>
</trkpt>
<trkpt lat="40.0713749" lon="-105.229789">
  <ele>1583.0</ele>
  <time>2026-09-02T20:50:14Z</time>
  <course>0.0</course>
  <speed>0.0</speed>
  <fix>3d</fix>
</trkpt>
<trkpt lat="40.0713749" lon="-105.229789">
  <ele>1583.0</ele>
  <time>2026-09-02T20:50:14Z</time>
  <course>0.0</course>
  <speed>0.0</speed>
  <fix>3d</fix>
</trkpt>
<trkpt lat="40.0713749" lon="-105.229789">
  <ele>1583.0</ele>
  <time>2026-09-02T20:50:14Z</time>
  <course>0.0</course>
  <speed>0.0</speed>
  <fix>3d</fix>
</trkpt>
<trkpt lat="40.0713749" lon="-105.229789">
  <ele>1583.0</ele>
  <time>2026-09-02T20:50:14Z</time>
  <course>0.0</course>
  <speed>0.0</speed>
  <fix>3d</fix>
</trkpt>
<trkpt lat="40.0713749" lon="-105.229789">
  <ele>1583.0</ele>
  <time>2026-09-02T20:50:14Z</time>
  <course>0.0</course>
  <speed>0.0</speed>
  <fix>3d</fix>
</trkpt>
<trkpt lat="40.0713749" lon="-105.229789">
  <ele>1583.0</ele>
  <time>2026-09-02T20:50:14Z</time>
  <course>0.0</course>
  <speed>0.0</speed>
  <fix>3d</fix>
</trkpt>
<trkpt lat="40.0713749" lon="-105.229789">
  <ele>1583.0</ele>
  <time>2026-09-02T20:50:14Z</time>
  <course>0.0</course>
  <speed>0.0</speed>
  <fix>3d</fix>
</trkpt>
<trkpt lat="40.0713749" lon="-105.229789">
  <ele>1583.0</ele>
  <time>2026-09-02T20:50:14Z</time>
  <course>0.0</course>
  <speed>0.0</speed>
  <fix>3d</fix>
</trkpt>
<trkpt lat="40.0713749" lon="-105.229789">
  <ele>1583.0</ele>
  <time>2026-09-02T20:50:14Z</time>
  <course>0.0</course>
  <speed>0.0</speed>
  <fix>3d</fix>
</trkpt>
<trkpt lat="40.0713749" lon="-105.229789">
  <ele>1583.0</ele>
  <time>2026-09-02T20:50:14Z</time>
  <course>0.0</course>
  <speed>0.0</speed>
  <fix>3d</fix>
</trkpt>
<trkpt lat="40.0713749" lon="-105.229789">
  <ele>1583.0</ele>
  <time>2026-09-02T20:50:14Z</time>
  <course>0.0</course>
  <speed>0.0</speed>
  <fix>3d</fix>
</trkpt>
<trkpt lat="40.0713749" lon="-105.229789">
  <ele>1583.0</ele>
  <time>2026-09-02T20:50:14Z</time>
  <course>0.0</course>
  <speed>0.0</speed>
  <fix>3d</fix>
</trkpt>
<trkpt lat="40.0713749" lon="-105.229789">
  <ele>1583.0</ele>
  <time>2026-09-02T20:50:14Z</time>
  <course>0.0</course>
  <speed>0.0</speed>
  <fix>3d</fix>
</trkpt>
<trkpt lat="40.0713749" lon="-105.229789">
  <ele>1583.0</ele>
  <time>2026-09-02T20:50:14Z</time>
  <course>0.0</course>
  <speed>0.0</speed>
  <fix>3d</fix>
</trkpt>
<trkpt lat="40.0713749" lon="-105.229789">
  <ele>1583.0</ele>
  <time>2026-09-02T20:50:14Z</time>
  <course>0.0</course>
  <speed>0.0</speed>
  <fix>3d</fix>
</trkpt>
<trkpt lat="40.0713749" lon="-105.229789">
  <ele>1583.0</ele>
  <time>2026-09-02T20:50:14Z</time>
  <course>0.0</course>
  <speed>0.0</speed>
  <fix>3d</fix>
</trkpt>
<trkpt lat="40.0713749" lon="-105.229789">
  <ele>1583.0</ele>
  <time>2026-09-02T20:50:14Z</time>
  <course>0.0</course>
  <speed>0.0</speed>
  <fix>3d</fix>
</trkpt>
<trkpt lat="40.0713749" lon="-105.229789">
  <ele>1583.0</ele>
  <time>2026-09-02T20:50:14Z</time>
  <course>0.0</course>
  <speed>0.0</speed>
  <fix>3d</fix>
</trkpt>
<trkpt lat="40.0713749" lon="-105.229789">
  <ele>1583.0</ele>
  <time>2026-09-02T20:50:14Z</time>
  <course>0.0</course>
  <speed>0.0</speed>
  <fix>3d</fix>
</trkpt>
<trkpt lat="40.0713749" lon="-105.229789">
  <ele>1583.0</ele>
  <time>2026-09-02T20:50:14Z</time>
  <course>0.0</course>
  <speed>0.0</speed>
  <fix>3d</fix>
</trkpt>
<trkpt lat="40.0713749" lon="-105.229789">
  <ele>1583.0</ele>
  <time>2026-09-02T20:50:14Z</time>
  <course>0.0</course>
  <speed>0.0</speed>
  <fix>3d</fix>
</trkpt>
<trkpt lat="40.0713749" lon="-105.229789">
  <ele>1583.0</ele>
  <time>2026-09-02T20:50:14Z</time>
  <course>0.0</course>
  <speed>0.0</speed>
  <fix>3d</fix>
</trkpt>
<trkpt lat="40.0713749" lon="-105.229789">
  <ele>1583.0</ele>
  <time>2026-09-02T20:50:14Z</time>
  <course>0.0</course>
  <speed>0.0</speed>
  <fix>3d</fix>
</trkpt>
<trkpt lat="40.0713749" lon="-105.229789">
  <ele>1583.0</ele>
  <time>2026-09-02T20:50:14Z</time>
  <course>0.0</course>
  <speed>0.0</speed>
  <fix>3d</fix>
</trkpt>
<trkpt lat="40.0713749" lon="-105.229789">
  <ele>1583.0</ele>
  <time>2026-09-02T20:50:14Z</time>
  <course>0.0</course>
  <speed>0.0</speed>
  <fix>3d</fix>
</trkpt>
<trkpt lat="40.0713749" lon="-105.229789">
  <ele>1583.0</ele>
  <time>2026-09-02T20:50:14Z</time>
  <course>0.0</course>
  <speed>0.0</speed>
  <fix>3d</fix>
</trkpt>
<trkpt lat="40.0713749" lon="-105.229789">
  <ele>1583.0</ele>
  <time>2026-09-02T20:50:14Z</time>
  <course>0.0</course>
  <speed>0.0</speed>
  <fix>3d</fix>
</trkpt>
<trkpt lat="40.0713749" lon="-105.229789">
  <ele>1583.0</ele>
  <time>2026-09-02T20:50:14Z</time>
  <course>0.0</course>
  <speed>0.0</speed>
  <fix>3d</fix>
</trkpt>
<trkpt lat="40.0713749" lon="-105.229789">
  <ele>1583.0</ele>
  <time>2026-09-02T20:50:14Z</time>
  <course>0.0</course>
  <speed>0.0</speed>
  <fix>3d</fix>
</trkpt>
<trkpt lat="40.0713749" lon="-105.229789">
  <ele>1583.0</ele>
  <time>2026-09-02T20:50:14Z</time>
  <course>0.0</course>
  <speed>0.0</speed>
  <fix>3d</fix>
</trkpt>
<trkpt lat="40.0713749" lon="-105.229789">
  <ele>1583.0</ele>
  <time>2026-09-02T20:50:14Z</time>
  <course>0.0</course>
  <speed>0.0</speed>
  <fix>3d</fix>
</trkpt>
<trkpt lat="40.0713749" lon="-105.229789">
  <ele>1583.0</ele>
  <time>2026-09-02T20:50:14Z</time>
  <course>0.0</course>
  <speed>0.0</speed>
  <fix>3d</fix>
</trkpt>
<trkpt lat="40.0713749" lon="-105.229789">
  <ele>1583.0</ele>
  <time>2026-09-02T20:50:14Z</time>
  <course>0.0</course>
  <speed>0.0</speed>
  <fix>3d</fix>
</trkpt>
<trkpt lat="40.0713749" lon="-105.229789">
  <ele>1583.0</ele>
  <time>2026-09-02T20:50:14Z</time>
  <course>0.0</course>
  <speed>0.0</speed>
  <fix>3d</fix>
</trkpt>
<trkpt lat="40.0713749" lon="-105.229789">
  <ele>1583.0</ele>
  <time>2026-09-02T20:50:14Z</time>
  <course>0.0</course>
  <speed>0.0</speed>
  <fix>3d</fix>
</trkpt>
<trkpt lat="40.0713749" lon="-105.229789">
  <ele>1583.0</ele>
  <time>2026-09-02T20:50:14Z</time>
  <course>0.0</course>
  <speed>0.0</speed>
  <fix>3d</fix>
</trkpt>
<trkpt lat="40.0713749" lon="-105.229789">
  <ele>1583.0</ele>
  <time>2026-09-02T20:50:14Z</time>
  <course>0.0</course>
  <speed>0.0</speed>
  <fix>3d</fix>
</trkpt>
<trkpt lat="40.0713749" lon="-105.229789">
  <ele>1583.0</ele>
  <time>2026-09-02T20:50:14Z</time>
  <course>0.0</course>
  <speed>0.0</speed>
  <fix>3d</fix>
</trkpt>
<trkpt lat="40.0713749" lon="-105.229789">
  <ele>1583.0</ele>
  <time>2026-09-02T20:50:14Z</time>
  <course>0.0</course>
  <speed>0.0</speed>
  <fix>3d</fix>
</trkpt>
<trkpt lat="40.0713749" lon="-105.229789">
  <ele>1583.0</ele>
  <time>2026-09-02T20:50:14Z</time>
  <course>0.0</course>
  <speed>0.0</speed>
  <fix>3d</fix>
</trkpt>
<trkpt lat="40.0713749" lon="-105.229789">
  <ele>1583.0</ele>
  <time>2026-09-02T20:50:14Z</time>
  <course>0.0</course>
  <speed>0.0</speed>
  <fix>3d</fix>
</trkpt>
<trkpt lat="40.0713749" lon="-105.229789">
  <ele>1583.0</ele>
  <time>2026-09-02T20:50:14Z</time>
  <course>0.0</course>
  <speed>0.0</speed>
  <fix>3d</fix>
</trkpt>
<trkpt lat="40.0713749" lon="-105.229789">
  <ele>1583.0</ele>
  <time>2026-09-02T20:50:14Z</time>
  <course>0.0</course>
  <speed>0.0</speed>
  <fix>3d</fix>
</trkpt>
<trkpt lat="40.0713749" lon="-105.229789">
  <ele>1583.0</ele>
  <time>2026-09-02T20:50:14Z</time>
  <course>0.0</course>
  <speed>0.0</speed>
  <fix>3d</fix>
</trkpt>
<trkpt lat="40.0713749" lon="-105.229789">
  <ele>1583.0</ele>
  <time>2026-09-02T20:50:14Z</time>
  <course>0.0</course>
  <speed>0.0</speed>
  <fix>3d</fix>
</trkpt>
<trkpt lat="40.0713749" lon="-105.229789">
  <ele>1583.0</ele>
  <time>2026-09-02T20:50:14Z</time>
  <course>0.0</course>
  <speed>0.0</speed>
  <fix>3d</fix>
</trkpt>
<trkpt lat="40.0713749" lon="-105.229789">
  <ele>1583.0</ele>
  <time>2026-09-02T20:50:14Z</time>
  <course>0.0</course>
  <speed>0.0</speed>
  <fix>3d</fix>
</trkpt>
<trkpt lat="40.0713749" lon="-105.229789">
  <ele>1583.0</ele>
  <time>2026-09-02T20:50:14Z</time>
  <course>0.0</course>
  <speed>0.0</speed>
  <fix>3d</fix>
</trkpt>
<trkpt lat="40.0713749" lon="-105.229789">
  <ele>1583.0</ele>
  <time>2026-09-02T20:50:14Z</time>
  <course>0.0</course>
  <speed>0.0</speed>
  <fix>3d</fix>
</trkpt>
<trkpt lat="40.0713749" lon="-105.229789">
  <ele>1583.0</ele>
  <time>2026-09-02T20:50:14Z</time>
  <course>0.0</course>
  <speed>0.0</speed>
  <fix>3d</fix>
</trkpt>
<trkpt lat="40.0713749" lon="-105.229789">
  <ele>1583.0</ele>
  <time>2026-09-02T20:50:14Z</time>
  <course>0.0</course>
  <speed>0.0</speed>
  <fix>3d</fix>
</trkpt>
<trkpt lat="40.0713749" lon="-105.229789">
  <ele>1583.0</ele>
  <time>2026-09-02T20:50:14Z</time>
  <course>0.0</course>
  <speed>0.0</speed>
  <fix>3d</fix>
</trkpt>
<trkpt lat="40.0713749" lon="-105.229789">
  <ele>1583.0</ele>
  <time>2026-09-02T20:50:14Z</time>
  <course>0.0</course>
  <speed>0.0</speed>
  <fix>3d</fix>
</trkpt>
<trkpt lat="40.0713749" lon="-105.229789">
  <ele>1583.0</ele>
  <time>2026-09-02T20:50:14Z</time>
  <course>0.0</course>
  <speed>0.0</speed>
  <fix>3d</fix>
</trkpt>
<trkpt lat="40.0713749" lon="-105.229789">
  <ele>1583.0</ele>
  <time>2026-09-02T20:50:14Z</time>
  <course>0.0</course>
  <speed>0.0</speed>
  <fix>3d</fix>
</trkpt>
<trkpt lat="40.0713749" lon="-105.229789">
  <ele>1583.0</ele>
  <time>2026-09-02T20:50:14Z</time>
  <course>0.0</course>
  <speed>0.0</speed>
  <fix>3d</fix>
</trkpt>
<trkpt lat="40.0713749" lon="-105.229789">
  <ele>1583.0</ele>
  <time>2026-09-02T20:50:14Z</time>
  <course>0.0</course>
  <speed>0.0</speed>
  <fix>3d</fix>
</trkpt>
<trkpt lat="40.0713749" lon="-105.229789">
  <ele>1583.0</ele>
  <time>2026-09-02T20:50:14Z</time>
  <course>0.0</course>
  <speed>0.0</speed>
  <fix>3d</fix>
</trkpt>
<trkpt lat="40.0713749" lon="-105.229789">
  <ele>1583.0</ele>
  <time>2026-09-02T20:50:14Z</time>
  <course>0.0</course>
  <speed>0.0</speed>
  <fix>3d</fix>
</trkpt>
<trkpt lat="40.0713749" lon="-105.229789">
  <ele>1583.0</ele>
  <time>2026-09-02T20:50:14Z</time>
  <course>0.0</course>
  <speed>0.0</speed>
  <fix>3d</fix>
</trkpt>
<trkpt lat="40.0713749" lon="-105.229789">
  <ele>1583.0</ele>
  <time>2026-09-02T20:50:14Z</time>
  <course>0.0</course>
  <speed>0.0</speed>
  <fix>3d</fix>
</trkpt>
<trkpt lat="40.0713749" lon="-105.229789">
  <ele>1583.0</ele>
  <time>2026-09-02T20:50:14Z</time>
  <course>0.0</course>
  <speed>0.0</speed>
  <fix>3d</fix>
</trkpt>
<trkpt lat="40.0713749" lon="-105.229789">
  <ele>1583.0</ele>
  <time>2026-09-02T20:50:14Z</time>
  <course>0.0</course>
  <speed>0.0</speed>
  <fix>3d</fix>
</trkpt>
<trkpt lat="40.0713749" lon="-105.229789">
  <ele>1583.0</ele>
  <time>2026-09-02T20:50:14Z</time>
  <course>0.0</course>
  <speed>0.0</speed>
  <fix>3d</fix>
</trkpt>
<trkpt lat="40.0713749" lon="-105.229789">
  <ele>1583.0</ele>
  <time>2026-09-02T20:50:14Z</time>
  <course>0.0</course>
  <speed>0.0</speed>
  <fix>3d</fix>
</trkpt>
<trkpt lat="40.0713749" lon="-105.229789">
  <ele>1583.0</ele>
  <time>2026-09-02T20:50:14Z</time>
  <course>0.0</course>
  <speed>0.0</speed>
  <fix>3d</fix>
</trkpt>
<trkpt lat="40.0713749" lon="-105.229789">
  <ele>1583.0</ele>
  <time>2026-09-02T20:50:14Z</time>
  <course>0.0</course>
  <speed>0.0</speed>
  <fix>3d</fix>
</trkpt>
<trkpt lat="40.0713749" lon="-105.229789">
  <ele>1583.0</ele>
  <time>2026-09-02T20:50:14Z</time>
  <course>0.0</course>
  <speed>0.0</speed>
  <fix>3d</fix>
</trkpt>
<trkpt lat="40.0713749" lon="-105.229789">
  <ele>1583.0</ele>
  <time>2026-09-02T20:50:14Z</time>
  <course>0.0</course>
  <speed>0.0</speed>
  <fix>3d</fix>
</trkpt>
<trkpt lat="40.0713749" lon="-105.229789">
  <ele>1583.0</ele>
  <time>2026-09-02T20:50:14Z</time>
  <course>0.0</course>
  <speed>0.0</speed>
  <fix>3d</fix>
</trkpt>
<trkpt lat="40.0713749" lon="-105.229789">
  <ele>1583.0</ele>
  <time>2026-09-02T20:50:14Z</time>
  <course>0.0</course>
  <speed>0.0</speed>
  <fix>3d</fix>
</trkpt>
<trkpt lat="40.0713749" lon="-105.229789">
  <ele>1583.0</ele>
  <time>2026-09-02T20:50:14Z</time>
  <course>0.0</course>
  <speed>0.0</speed>
  <fix>3d</fix>
</trkpt>
<trkpt lat="40.0713749" lon="-105.229789">
  <ele>1583.0</ele>
  <time>2026-09-02T20:50:14Z</time>
  <course>0.0</course>
  <speed>0.0</speed>
  <fix>3d</fix>
</trkpt>
<trkpt lat="40.0713749" lon="-105.229789">
  <ele>1583.0</ele>
  <time>2026-09-02T20:50:14Z</time>
  <course>0.0</course>
  <speed>0.0</speed>
  <fix>3d</fix>
</trkpt>
<trkpt lat="40.0713749" lon="-105.229789">
  <ele>1583.0</ele>
  <time>2026-09-02T20:50:14Z</time>
  <course>0.0</course>
  <speed>0.0</speed>
  <fix>3d</fix>
</trkpt>
<trkpt lat="40.0713749" lon="-105.229789">
  <ele>1583.0</ele>
  <time>2026-09-02T20:50:14Z</time>
  <course>0.0</course>
  <speed>0.0</speed>
  <fix>3d</fix>
</trkpt>
<trkpt lat="40.0713749" lon="-105.229789">
  <ele>1583.0</ele>
  <time>2026-09-02T20:50:14Z</time>
  <course>0.0</course>
  <speed>0.0</speed>
  <fix>3d</fix>
</trkpt>
<trkpt lat="40.0713749" lon="-105.229789">
  <ele>1583.0</ele>
  <time>2026-09-02T20:50:14Z</time>
  <course>0.0</course>
  <speed>0.0</speed>
  <fix>3d</fix>
</trkpt>
<trkpt lat="40.0713749" lon="-105.229789">
  <ele>1583.0</ele>
  <time>2026-09-02T20:50:14Z</time>
  <course>0.0</course>
  <speed>0.0</speed>
  <fix>3d</fix>
</trkpt>
<trkpt lat="40.0713749" lon="-105.229789">
  <ele>1583.0</ele>
  <time>2026-09-02T20:50:14Z</time>
  <course>0.0</course>
  <speed>0.0</speed>
  <fix>3d</fix>
</trkpt>
<trkpt lat="40.0713749" lon="-105.229789">
  <ele>1583.0</ele>
  <time>2026-09-02T20:50:14Z</time>
  <course>0.0</course>
  <speed>0.0</speed>
  <fix>3d</fix>
</trkpt>
<trkpt lat="40.0713749" lon="-105.229789">
  <ele>1583.0</ele>
  <time>2026-09-02T20:50:14Z</time>
  <course>0.0</course>
  <speed>0.0</speed>
  <fix>3d</fix>
</trkpt>
<trkpt lat="40.0713749" lon="-105.229789">
  <ele>1583.0</ele>
  <time>2026-09-02T20:50:14Z</time>
  <course>0.0</course>
  <speed>0.0</speed>
  <fix>3d</fix>
</trkpt>
<trkpt lat="40.0713749" lon="-105.229789">
  <ele>1583.0</ele>
  <time>2026-09-02T20:50:14Z</time>
  <course>0.0</course>
  <speed>0.0</speed>
  <fix>3d</fix>
</trkpt>
<trkpt lat="40.0713749" lon="-105.229789">
  <ele>1583.0</ele>
  <time>2026-09-02T20:50:14Z</time>
  <course>0.0</course>
  <speed>0.0</speed>
  <fix>3d</fix>
</trkpt>
<trkpt lat="40.0713749" lon="-105.229789">
  <ele>1583.0</ele>
  <time>2026-09-02T20:50:14Z</time>
  <course>0.0</course>
  <speed>0.0</speed>
  <fix>3d</fix>
</trkpt>
<trkpt lat="40.0713749" lon="-105.229789">
  <ele>1583.0</ele>
  <time>2026-09-02T20:50:14Z</time>
  <course>0.0</course>
  <speed>0.0</speed>
  <fix>3d</fix>
</trkpt>
<trkpt lat="40.0713749" lon="-105.229789">
  <ele>1583.0</ele>
  <time>2026-09-02T20:50:14Z</time>
  <course>0.0</course>
  <speed>0.0</speed>
  <fix>3d</fix>
</trkpt>
<trkpt lat="40.0713749" lon="-105.229789">
  <ele>1583.0</ele>
  <time>2026-09-02T20:50:14Z</time>
  <course>0.0</course>
  <speed>0.0</speed>
  <fix>3d</fix>
</trkpt>
<trkpt lat="40.0713749" lon="-105.229789">
  <ele>1583.0</ele>
  <time>2026-09-02T20:50:14Z</time>
  <course>0.0</course>
  <speed>0.0</speed>
  <fix>3d</fix>
</trkpt>
<trkpt lat="40.0713749" lon="-105.229789">
  <ele>1583.0</ele>
  <time>2026-09-02T20:50:14Z</time>
  <course>0.0</course>
  <speed>0.0</speed>
  <fix>3d</fix>
</trkpt>
<trkpt lat="40.0713749" lon="-105.229789">
  <ele>1583.0</ele>
  <time>2026-09-02T20:50:14Z</time>
  <course>0.0</course>
  <speed>0.0</speed>
  <fix>3d</fix>
</trkpt>
<trkpt lat="40.0713749" lon="-105.229789">
  <ele>1583.0</ele>
  <time>2026-09-02T20:50:14Z</time>
  <course>0.0</course>
  <speed>0.0</speed>
  <fix>3d</fix>
</trkpt>
<trkpt lat="40.0713749" lon="-105.229789">
  <ele>1583.0</ele>
  <time>2026-09-02T20:50:14Z</time>
  <course>0.0</course>
  <speed>0.0</speed>
  <fix>3d</fix>
</trkpt>
<trkpt lat="40.0713749" lon="-105.229789">
  <ele>1583.0</ele>
  <time>2026-09-02T20:50:14Z</time>
  <course>0.0</course>
  <speed>0.0</speed>
  <fix>3d</fix>
</trkpt>
<trkpt lat="40.0713749" lon="-105.229789">
  <ele>1583.0</ele>
  <time>2026-09-02T20:50:14Z</time>
  <course>0.0</course>
  <speed>0.0</speed>
  <fix>3d</fix>
</trkpt>
<trkpt lat="40.0713749" lon="-105.229789">
  <ele>1583.0</ele>
  <time>2026-09-02T20:50:14Z</time>
  <course>0.0</course>
  <speed>0.0</speed>
  <fix>3d</fix>
</trkpt>
<trkpt lat="40.0713749" lon="-105.229789">
  <ele>1583.0</ele>
  <time>2026-09-02T20:50:14Z</time>
  <course>0.0</course>
  <speed>0.0</speed>
  <fix>3d</fix>
</trkpt>
<trkpt lat="40.0713749" lon="-105.229789">
  <ele>1583.0</ele>
  <time>2026-09-02T20:50:14Z</time>
  <course>0.0</course>
  <speed>0.0</speed>
  <fix>3d</fix>
</trkpt>
<trkpt lat="40.0713749" lon="-105.229789">
  <ele>1583.0</ele>
  <time>2026-09-02T20:50:14Z</time>
  <course>0.0</course>
  <speed>0.0</speed>
  <fix>3d</fix>
</trkpt>
<trkpt lat="40.0713749" lon="-105.229789">
  <ele>1583.0</ele>
  <time>2026-09-02T20:50:14Z</time>
  <course>0.0</course>
  <speed>0.0</speed>
  <fix>3d</fix>
</trkpt>
<trkpt lat="40.0713749" lon="-105.229789">
  <ele>1583.0</ele>
  <time>2026-09-02T20:50:14Z</time>
  <course>0.0</course>
  <speed>0.0</speed>
  <fix>3d</fix>
</trkpt>
<trkpt lat="40.0713749" lon="-105.229789">
  <ele>1583.0</ele>
  <time>2026-09-02T20:50:14Z</time>
  <course>0.0</course>
  <speed>0.0</speed>
  <fix>3d</fix>
</trkpt>
<trkpt lat="40.0713749" lon="-105.229789">
  <ele>1583.0</ele>
  <time>2026-09-02T20:50:14Z</time>
  <course>0.0</course>
  <speed>0.0</speed>
  <fix>3d</fix>
</trkpt>
<trkpt lat="40.0713749" lon="-105.229789">
  <ele>1583.0</ele>
  <time>2026-09-02T20:50:14Z</time>
  <course>0.0</course>
  <speed>0.0</speed>
  <fix>3d</fix>
</trkpt>
<trkpt lat="40.0713749" lon="-105.229789">
  <ele>1583.0</ele>
  <time>2026-09-02T20:50:14Z</time>
  <course>0.0</course>
  <speed>0.0</speed>
  <fix>3d</fix>
</trkpt>
<trkpt lat="40.0713749" lon="-105.229789">
  <ele>1583.0</ele>
  <time>2026-09-02T20:50:14Z</time>
  <course>0.0</course>
  <speed>0.0</speed>
  <fix>3d</fix>
</trkpt>
<trkpt lat="40.0713749" lon="-105.229789">
  <ele>1583.0</ele>
  <time>2026-09-02T20:50:14Z</time>
  <course>0.0</course>
  <speed>0.0</speed>
  <fix>3d</fix>
</trkpt>
<trkpt lat="40.0713749" lon="-105.229789">
  <ele>1583.0</ele>
  <time>2026-09-02T20:50:14Z</time>
  <course>0.0</course>
  <speed>0.0</speed>
  <fix>3d</fix>
</trkpt>
<trkpt lat="40.0713749" lon="-105.229789">
  <ele>1583.0</ele>
  <time>2026-09-02T20:50:14Z</time>
  <course>0.0</course>
  <speed>0.0</speed>
  <fix>3d</fix>
</trkpt>
<trkpt lat="40.0713749" lon="-105.229789">
  <ele>1583.0</ele>
  <time>2026-09-02T20:50:14Z</time>
  <course>0.0</course>
  <speed>0.0</speed>
  <fix>3d</fix>
</trkpt>
<trkpt lat="40.0713749" lon="-105.229789">
  <ele>1583.0</ele>
  <time>2026-09-02T20:50:14Z</time>
  <course>0.0</course>
  <speed>0.0</speed>
  <fix>3d</fix>
</trkpt>
<trkpt lat="40.0713749" lon="-105.229789">
  <ele>1583.0</ele>
  <time>2026-09-02T20:50:14Z</time>
  <course>0.0</course>
  <speed>0.0</speed>
  <fix>3d</fix>
</trkpt>
<trkpt lat="40.0713749" lon="-105.229789">
  <ele>1583.0</ele>
  <time>2026-09-02T20:50:14Z</time>
  <course>0.0</course>
  <speed>0.0</speed>
  <fix>3d</fix>
</trkpt>
<trkpt lat="40.0713749" lon="-105.229789">
  <ele>1583.0</ele>
  <time>2026-09-02T20:50:14Z</time>
  <course>0.0</course>
  <speed>0.0</speed>
  <fix>3d</fix>
</trkpt>
<trkpt lat="40.0713749" lon="-105.229789">
  <ele>1583.0</ele>
  <time>2026-09-02T20:50:14Z</time>
  <course>0.0</course>
  <speed>0.0</speed>
  <fix>3d</fix>
</trkpt>
<trkpt lat="40.0713749" lon="-105.229789">
  <ele>1583.0</ele>
  <time>2026-09-02T20:50:14Z</time>
  <course>0.0</course>
  <speed>0.0</speed>
  <fix>3d</fix>
</trkpt>
<trkpt lat="40.0713749" lon="-105.229789">
  <ele>1583.0</ele>
  <time>2026-09-02T20:50:14Z</time>
  <course>0.0</course>
  <speed>0.0</speed>
  <fix>3d</fix>
</trkpt>
<trkpt lat="40.0713749" lon="-105.229789">
  <ele>1583.0</ele>
  <time>2026-09-02T20:50:14Z</time>
  <course>0.0</course>
  <speed>0.0</speed>
  <fix>3d</fix>
</trkpt>
<trkpt lat="40.0713749" lon="-105.229789">
  <ele>1583.0</ele>
  <time>2026-09-02T20:50:14Z</time>
  <course>0.0</course>
  <speed>0.0</speed>
  <fix>3d</fix>
</trkpt>
<trkpt lat="40.0713749" lon="-105.229789">
  <ele>1583.0</ele>
  <time>2026-09-02T20:50:14Z</time>
  <course>0.0</course>
  <speed>0.0</speed>
  <fix>3d</fix>
</trkpt>
<trkpt lat="40.0713749" lon="-105.229789">
  <ele>1583.0</ele>
  <time>2026-09-02T20:50:14Z</time>
  <course>0.0</course>
  <speed>0.0</speed>
  <fix>3d</fix>
</trkpt>
<trkpt lat="40.0713749" lon="-105.229789">
  <ele>1583.0</ele>
  <time>2026-09-02T20:50:14Z</time>
  <course>0.0</course>
  <speed>0.0</speed>
  <fix>3d</fix>
</trkpt>
<trkpt lat="40.0713749" lon="-105.229789">
  <ele>1583.0</ele>
  <time>2026-09-02T20:50:14Z</time>
  <course>0.0</course>
  <speed>0.0</speed>
  <fix>3d</fix>
</trkpt>
<trkpt lat="40.0713749" lon="-105.229789">
  <ele>1583.0</ele>
  <time>2026-09-02T20:50:14Z</time>
  <course>0.0</course>
  <speed>0.0</speed>
  <fix>3d</fix>
</trkpt>
<trkpt lat="40.0713749" lon="-105.229789">
  <ele>1583.0</ele>
  <time>2026-09-02T20:50:14Z</time>
  <course>0.0</course>
  <speed>0.0</speed>
  <fix>3d</fix>
</trkpt>
<trkpt lat="40.0713749" lon="-105.229789">
  <ele>1583.0</ele>
  <time>2026-09-02T20:50:14Z</time>
  <course>0.0</course>
  <speed>0.0</speed>
  <fix>3d</fix>
</trkpt>
<trkpt lat="40.0713749" lon="-105.229789">
  <ele>1583.0</ele>
  <time>2026-09-02T20:50:14Z</time>
  <course>0.0</course>
  <speed>0.0</speed>
  <fix>3d</fix>
</trkpt>
<trkpt lat="40.0713749" lon="-105.229789">
  <ele>1583.0</ele>
  <time>2026-09-02T20:50:14Z</time>
  <course>0.0</course>
  <speed>0.0</speed>
  <fix>3d</fix>
</trkpt>
<trkpt lat="40.0713749" lon="-105.229789">
  <ele>1583.0</ele>
  <time>2026-09-02T20:50:14Z</time>
  <course>0.0</course>
  <speed>0.0</speed>
  <fix>3d</fix>
</trkpt>
<trkpt lat="40.0713749" lon="-105.229789">
  <ele>1583.0</ele>
  <time>2026-09-02T20:50:14Z</time>
  <course>0.0</course>
  <speed>0.0</speed>
  <fix>3d</fix>
</trkpt>
<trkpt lat="40.0713749" lon="-105.229789">
  <ele>1583.0</ele>
  <time>2026-09-02T20:50:14Z</time>
  <course>0.0</course>
  <speed>0.0</speed>
  <fix>3d</fix>
</trkpt>
<trkpt lat="40.0713749" lon="-105.229789">
  <ele>1583.0</ele>
  <time>2026-09-02T20:50:14Z</time>
  <course>0.0</course>
  <speed>0.0</speed>
  <fix>3d</fix>
</trkpt>
<trkpt lat="40.0713749" lon="-105.229789">
  <ele>1583.0</ele>
  <time>2026-09-02T20:50:14Z</time>
  <course>0.0</course>
  <speed>0.0</speed>
  <fix>3d</fix>
</trkpt>
<trkpt lat="40.0713749" lon="-105.229789">
  <ele>1583.0</ele>
  <time>2026-09-02T20:50:14Z</time>
  <course>0.0</course>
  <speed>0.0</speed>
  <fix>3d</fix>
</trkpt>
<trkpt lat="40.0713749" lon="-105.229789">
  <ele>1583.0</ele>
  <time>2026-09-02T20:50:14Z</time>
  <course>0.0</course>
  <speed>0.0</speed>
  <fix>3d</fix>
</trkpt>
<trkpt lat="40.0713749" lon="-105.229789">
  <ele>1583.0</ele>
  <time>2026-09-02T20:50:14Z</time>
  <course>0.0</course>
  <speed>0.0</speed>
  <fix>3d</fix>
</trkpt>
<trkpt lat="40.0713749" lon="-105.229789">
  <ele>1583.0</ele>
  <time>2026-09-02T20:50:14Z</time>
  <course>0.0</course>
  <speed>0.0</speed>
  <fix>3d</fix>
</trkpt>
<trkpt lat="40.0713749" lon="-105.229789">
  <ele>1583.0</ele>
  <time>2026-09-02T20:50:14Z</time>
  <course>0.0</course>
  <speed>0.0</speed>
  <fix>3d</fix>
</trkpt>
<trkpt lat="40.0713749" lon="-105.229789">
  <ele>1583.0</ele>
  <time>2026-09-02T20:50:14Z</time>
  <course>0.0</course>
  <speed>0.0</speed>
  <fix>3d</fix>
</trkpt>
<trkpt lat="40.0713749" lon="-105.229789">
  <ele>1583.0</ele>
  <time>2026-09-02T20:50:14Z</time>
  <course>0.0</course>
  <speed>0.0</speed>
  <fix>3d</fix>
</trkpt>
<trkpt lat="40.0713749" lon="-105.229789">
  <ele>1583.0</ele>
  <time>2026-09-02T20:50:14Z</time>
  <course>0.0</course>
  <speed>0.0</speed>
  <fix>3d</fix>
</trkpt>
<trkpt lat="40.0713749" lon="-105.229789">
  <ele>1583.0</ele>
  <time>2026-09-02T20:50:14Z</time>
  <course>0.0</course>
  <speed>0.0</speed>
  <fix>3d</fix>
</trkpt>
<trkpt lat="40.0713749" lon="-105.229789">
  <ele>1583.0</ele>
  <time>2026-09-02T20:50:14Z</time>
  <course>0.0</course>
  <speed>0.0</speed>
  <fix>3d</fix>
</trkpt>
<trkpt lat="40.0713749" lon="-105.229789">
  <ele>1583.0</ele>
  <time>2026-09-02T20:50:14Z</time>
  <course>0.0</course>
  <speed>0.0</speed>
  <fix>3d</fix>
</trkpt>
<trkpt lat="40.0713749" lon="-105.229789">
  <ele>1583.0</ele>
  <time>2026-09-02T20:50:14Z</time>
  <course>0.0</course>
  <speed>0.0</speed>
  <fix>3d</fix>
</trkpt>
<trkpt lat="40.0713749" lon="-105.229789">
  <ele>1583.0</ele>
  <time>2026-09-02T20:50:14Z</time>
  <course>0.0</course>
  <speed>0.0</speed>
  <fix>3d</fix>
</trkpt>
<trkpt lat="40.0713749" lon="-105.229789">
  <ele>1583.0</ele>
  <time>2026-09-02T20:50:14Z</time>
  <course>0.0</course>
  <speed>0.0</speed>
  <fix>3d</fix>
</trkpt>
<trkpt lat="40.0713749" lon="-105.229789">
  <ele>1583.0</ele>
  <time>2026-09-02T20:50:14Z</time>
  <course>0.0</course>
  <speed>0.0</speed>
  <fix>3d</fix>
</trkpt>
<trkpt lat="40.0713749" lon="-105.229789">
  <ele>1583.0</ele>
  <time>2026-09-02T20:50:14Z</time>
  <course>0.0</course>
  <speed>0.0</speed>
  <fix>3d</fix>
</trkpt>
<trkpt lat="40.0713749" lon="-105.229789">
  <ele>1583.0</ele>
  <time>2026-09-02T20:50:14Z</time>
  <course>0.0</course>
  <speed>0.0</speed>
  <fix>3d</fix>
</trkpt>
<trkpt lat="40.0713749" lon="-105.229789">
  <ele>1583.0</ele>
  <time>2026-09-02T20:50:14Z</time>
  <course>0.0</course>
  <speed>0.0</speed>
  <fix>3d</fix>
</trkpt>
<trkpt lat="40.0713749" lon="-105.229789">
  <ele>1583.0</ele>
  <time>2026-09-02T20:50:14Z</time>
  <course>0.0</course>
  <speed>0.0</speed>
  <fix>3d</fix>
</trkpt>
<trkpt lat="40.0713749" lon="-105.229789">
  <ele>1583.0</ele>
  <time>2026-09-02T20:50:14Z</time>
  <course>0.0</course>
  <speed>0.0</speed>
  <fix>3d</fix>
</trkpt>
<trkpt lat="40.0713749" lon="-105.229789">
  <ele>1583.0</ele>
  <time>2026-09-02T20:50:14Z</time>
  <course>0.0</course>
  <speed>0.0</speed>
  <fix>3d</fix>
</trkpt>
<trkpt lat="40.0713749" lon="-105.229789">
  <ele>1583.0</ele>
  <time>2026-09-02T20:50:14Z</time>
  <course>0.0</course>
  <speed>0.0</speed>
  <fix>3d</fix>
</trkpt>
<trkpt lat="40.0713749" lon="-105.229789">
  <ele>1583.0</ele>
  <time>2026-09-02T20:50:14Z</time>
  <course>0.0</course>
  <speed>0.0</speed>
  <fix>3d</fix>
</trkpt>
<trkpt lat="40.0713749" lon="-105.229789">
  <ele>1583.0</ele>
  <time>2026-09-02T20:50:14Z</time>
  <course>0.0</course>
  <speed>0.0</speed>
  <fix>3d</fix>
</trkpt>
<trkpt lat="40.0713749" lon="-105.229789">
  <ele>1583.0</ele>
  <time>2026-09-02T20:50:14Z</time>
  <course>0.0</course>
  <speed>0.0</speed>
  <fix>3d</fix>
</trkpt>
<trkpt lat="40.0713749" lon="-105.229789">
  <ele>1583.0</ele>
  <time>2026-09-02T20:50:14Z</time>
  <course>0.0</course>
  <speed>0.0</speed>
  <fix>3d</fix>
</trkpt>
<trkpt lat="40.0713749" lon="-105.229789">
  <ele>1583.0</ele>
  <time>2026-09-02T20:50:14Z</time>
  <course>0.0</course>
  <speed>0.0</speed>
  <fix>3d</fix>
</trkpt>
<trkpt lat="40.0713749" lon="-105.229789">
  <ele>1583.0</ele>
  <time>2026-09-02T20:50:14Z</time>
  <course>0.0</course>
  <speed>0.0</speed>
  <fix>3d</fix>
</trkpt>
<trkpt lat="40.0713749" lon="-105.229789">
  <ele>1583.0</ele>
  <time>2026-09-02T20:50:14Z</time>
  <course>0.0</course>
  <speed>0.0</speed>
  <fix>3d</fix>
</trkpt>
<trkpt lat="40.0713749" lon="-105.229789">
  <ele>1583.0</ele>
  <time>2026-09-02T20:50:14Z</time>
  <course>0.0</course>
  <speed>0.0</speed>
  <fix>3d</fix>
</trkpt>
<trkpt lat="40.0713749" lon="-105.229789">
  <ele>1583.0</ele>
  <time>2026-09-02T20:50:14Z</time>
  <course>0.0</course>
  <speed>0.0</speed>
  <fix>3d</fix>
</trkpt>
<trkpt lat="40.0713749" lon="-105.229789">
  <ele>1583.0</ele>
  <time>2026-09-02T20:50:14Z</time>
  <course>0.0</course>
  <speed>0.0</speed>
  <fix>3d</fix>
</trkpt>
<trkpt lat="40.0713749" lon="-105.229789">
  <ele>1583.0</ele>
  <time>2026-09-02T20:50:14Z</time>
  <course>0.0</course>
  <speed>0.0</speed>
  <fix>3d</fix>
</trkpt>
<trkpt lat="40.0713749" lon="-105.229789">
  <ele>1583.0</ele>
  <time>2026-09-02T20:50:14Z</time>
  <course>0.0</course>
  <speed>0.0</speed>
  <fix>3d</fix>
</trkpt>
<trkpt lat="40.0713749" lon="-105.229789">
  <ele>1583.0</ele>
  <time>2026-09-02T20:50:14Z</time>
  <course>0.0</course>
  <speed>0.0</speed>
  <fix>3d</fix>
</trkpt>
<trkpt lat="40.0713749" lon="-105.229789">
  <ele>1583.0</ele>
  <time>2026-09-02T20:50:14Z</time>
  <course>0.0</course>
  <speed>0.0</speed>
  <fix>3d</fix>
</trkpt>
<trkpt lat="40.0713749" lon="-105.229789">
  <ele>1583.0</ele>
  <time>2026-09-02T20:50:14Z</time>
  <course>0.0</course>
  <speed>0.0</speed>
  <fix>3d</fix>
</trkpt>
<trkpt lat="40.0713749" lon="-105.229789">
  <ele>1583.0</ele>
  <time>2026-09-02T20:50:14Z</time>
  <course>0.0</course>
  <speed>0.0</speed>
  <fix>3d</fix>
</trkpt>
<trkpt lat="40.0713749" lon="-105.229789">
  <ele>1583.0</ele>
  <time>2026-09-02T20:50:14Z</time>
  <course>0.0</course>
  <speed>0.0</speed>
  <fix>3d</fix>
</trkpt>
<trkpt lat="40.0713749" lon="-105.229789">
  <ele>1583.0</ele>
  <time>2026-09-02T20:50:14Z</time>
  <course>0.0</course>
  <speed>0.0</speed>
  <fix>3d</fix>
</trkpt>
<trkpt lat="40.0713749" lon="-105.229789">
  <ele>1583.0</ele>
  <time>2026-09-02T20:50:14Z</time>
  <course>0.0</course>
  <speed>0.0</speed>
  <fix>3d</fix>
</trkpt>
<trkpt lat="40.0713749" lon="-105.229789">
  <ele>1583.0</ele>
  <time>2026-09-02T20:50:14Z</time>
  <course>0.0</course>
  <speed>0.0</speed>
  <fix>3d</fix>
</trkpt>
<trkpt lat="40.0713749" lon="-105.229789">
  <ele>1583.0</ele>
  <time>2026-09-02T20:50:14Z</time>
  <course>0.0</course>
  <speed>0.0</speed>
  <fix>3d</fix>
</trkpt>
<trkpt lat="40.0713749" lon="-105.229789">
  <ele>1583.0</ele>
  <time>2026-09-02T20:50:14Z</time>
  <course>0.0</course>
  <speed>0.0</speed>
  <fix>3d</fix>
</trkpt>
<trkpt lat="40.0713749" lon="-105.229789">
  <ele>1583.0</ele>
  <time>2026-09-02T20:50:14Z</time>
  <course>0.0</course>
  <speed>0.0</speed>
  <fix>3d</fix>
</trkpt>
<trkpt lat="40.0713749" lon="-105.229789">
  <ele>1583.0</ele>
  <time>2026-09-02T20:50:14Z</time>
  <course>0.0</course>
  <speed>0.0</speed>
  <fix>3d</fix>
</trkpt>
<trkpt lat="40.0713749" lon="-105.229789">
  <ele>1583.0</ele>
  <time>2026-09-02T20:50:14Z</time>
  <course>0.0</course>
  <speed>0.0</speed>
  <fix>3d</fix>
</trkpt>
<trkpt lat="40.0713749" lon="-105.229789">
  <ele>1583.0</ele>
  <time>2026-09-02T20:50:14Z</time>
  <course>0.0</course>
  <speed>0.0</speed>
  <fix>3d</fix>
</trkpt>
<trkpt lat="40.0713749" lon="-105.229789">
  <ele>1583.0</ele>
  <time>2026-09-02T20:50:14Z</time>
  <course>0.0</course>
  <speed>0.0</speed>
  <fix>3d</fix>
</trkpt>
<trkpt lat="40.0713749" lon="-105.229789">
  <ele>1583.0</ele>
  <time>2026-09-02T20:50:14Z</time>
  <course>0.0</course>
  <speed>0.0</speed>
  <fix>3d</fix>
</trkpt>
<trkpt lat="40.0713749" lon="-105.229789">
  <ele>1583.0</ele>
  <time>2026-09-02T20:50:14Z</time>
  <course>0.0</course>
  <speed>0.0</speed>
  <fix>3d</fix>
</trkpt>
<trkpt lat="40.0713749" lon="-105.229789">
  <ele>1583.0</ele>
  <time>2026-09-02T20:50:14Z</time>
  <course>0.0</course>
  <speed>0.0</speed>
  <fix>3d</fix>
</trkpt>
<trkpt lat="40.0713749" lon="-105.229789">
  <ele>1583.0</ele>
  <time>2026-09-02T20:50:14Z</time>
  <course>0.0</course>
  <speed>0.0</speed>
  <fix>3d</fix>
</trkpt>
<trkpt lat="40.0713749" lon="-105.229789">
  <ele>1583.0</ele>
  <time>2026-09-02T20:50:14Z</time>
  <course>0.0</course>
  <speed>0.0</speed>
  <fix>3d</fix>
</trkpt>
<trkpt lat="40.0713749" lon="-105.229789">
  <ele>1583.0</ele>
  <time>2026-09-02T20:50:14Z</time>
  <course>0.0</course>
  <speed>0.0</speed>
  <fix>3d</fix>
</trkpt>
<trkpt lat="40.0713749" lon="-105.229789">
  <ele>1583.0</ele>
  <time>2026-09-02T20:50:14Z</time>
  <course>0.0</course>
  <speed>0.0</speed>
  <fix>3d</fix>
</trkpt>
<trkpt lat="40.0713749" lon="-105.229789">
  <ele>1583.0</ele>
  <time>2026-09-02T20:50:14Z</time>
  <course>0.0</course>
  <speed>0.0</speed>
  <fix>3d</fix>
</trkpt>
<trkpt lat="40.0713749" lon="-105.229789">
  <ele>1583.0</ele>
  <time>2026-09-02T20:50:14Z</time>
  <course>0.0</course>
  <speed>0.0</speed>
  <fix>3d</fix>
</trkpt>
<trkpt lat="40.0713749" lon="-105.229789">
  <ele>1583.0</ele>
  <time>2026-09-02T20:50:14Z</time>
  <course>0.0</course>
  <speed>0.0</speed>
  <fix>3d</fix>
</trkpt>
<trkpt lat="40.0713749" lon="-105.229789">
  <ele>1583.0</ele>
  <time>2026-09-02T20:50:14Z</time>
  <course>0.0</course>
  <speed>0.0</speed>
  <fix>3d</fix>
</trkpt>
<trkpt lat="40.0713749" lon="-105.229789">
  <ele>1583.0</ele>
  <time>2026-09-02T20:50:14Z</time>
  <course>0.0</course>
  <speed>0.0</speed>
  <fix>3d</fix>
</trkpt>
<trkpt lat="40.0713749" lon="-105.229789">
  <ele>1583.0</ele>
  <time>2026-09-02T20:50:14Z</time>
  <course>0.0</course>
  <speed>0.0</speed>
  <fix>3d</fix>
</trkpt>
<trkpt lat="40.0713749" lon="-105.229789">
  <ele>1583.0</ele>
  <time>2026-09-02T20:50:14Z</time>
  <course>0.0</course>
  <speed>0.0</speed>
  <fix>3d</fix>
</trkpt>
<trkpt lat="40.0713749" lon="-105.229789">
  <ele>1583.0</ele>
  <time>2026-09-02T20:50:14Z</time>
  <course>0.0</course>
  <speed>0.0</speed>
  <fix>3d</fix>
</trkpt>
<trkpt lat="40.0713749" lon="-105.229789">
  <ele>1583.0</ele>
  <time>2026-09-02T20:50:14Z</time>
  <course>0.0</course>
  <speed>0.0</speed>
  <fix>3d</fix>
</trkpt>
<trkpt lat="40.0713749" lon="-105.229789">
  <ele>1583.0</ele>
  <time>2026-09-02T20:50:14Z</time>
  <course>0.0</course>
  <speed>0.0</speed>
  <fix>3d</fix>
</trkpt>
<trkpt lat="40.0713749" lon="-105.229789">
  <ele>1583.0</ele>
  <time>2026-09-02T20:50:14Z</time>
  <course>0.0</course>
  <speed>0.0</speed>
  <fix>3d</fix>
</trkpt>
<trkpt lat="40.0713749" lon="-105.229789">
  <ele>1583.0</ele>
  <time>2026-09-02T20:50:14Z</time>
  <course>0.0</course>
  <speed>0.0</speed>
  <fix>3d</fix>
</trkpt>
<trkpt lat="40.0713749" lon="-105.229789">
  <ele>1583.0</ele>
  <time>2026-09-02T20:50:14Z</time>
  <course>0.0</course>
  <speed>0.0</speed>
  <fix>3d</fix>
</trkpt>
<trkpt lat="40.0713749" lon="-105.229789">
  <ele>1583.0</ele>
  <time>2026-09-02T20:50:14Z</time>
  <course>0.0</course>
  <speed>0.0</speed>
  <fix>3d</fix>
</trkpt>
<trkpt lat="40.0713749" lon="-105.229789">
  <ele>1583.0</ele>
  <time>2026-09-02T20:50:14Z</time>
  <course>0.0</course>
  <speed>0.0</speed>
  <fix>3d</fix>
</trkpt>
<trkpt lat="40.0713749" lon="-105.229789">
  <ele>1583.0</ele>
  <time>2026-09-02T20:50:14Z</time>
  <course>0.0</course>
  <speed>0.0</speed>
  <fix>3d</fix>
</trkpt>
<trkpt lat="40.0713749" lon="-105.229789">
  <ele>1583.0</ele>
  <time>2026-09-02T20:50:14Z</time>
  <course>0.0</course>
  <speed>0.0</speed>
  <fix>3d</fix>
</trkpt>
<trkpt lat="40.0713749" lon="-105.229789">
  <ele>1583.0</ele>
  <time>2026-09-02T20:50:14Z</time>
  <course>0.0</course>
  <speed>0.0</speed>
  <fix>3d</fix>
</trkpt>
<trkpt lat="40.0713749" lon="-105.229789">
  <ele>1583.0</ele>
  <time>2026-09-02T20:50:14Z</time>
  <course>0.0</course>
  <speed>0.0</speed>
  <fix>3d</fix>
</trkpt>
<trkpt lat="40.0713749" lon="-105.229789">
  <ele>1583.0</ele>
  <time>2026-09-02T20:50:14Z</time>
  <course>0.0</course>
  <speed>0.0</speed>
  <fix>3d</fix>
</trkpt>
<trkpt lat="40.0713749" lon="-105.229789">
  <ele>1583.0</ele>
  <time>2026-09-02T20:50:14Z</time>
  <course>0.0</course>
  <speed>0.0</speed>
  <fix>3d</fix>
</trkpt>
<trkpt lat="40.0713749" lon="-105.229789">
  <ele>1583.0</ele>
  <time>2026-09-02T20:50:14Z</time>
  <course>0.0</course>
  <speed>0.0</speed>
  <fix>3d</fix>
</trkpt>
<trkpt lat="40.0713749" lon="-105.229789">
  <ele>1583.0</ele>
  <time>2026-09-02T20:50:14Z</time>
  <course>0.0</course>
  <speed>0.0</speed>
  <fix>3d</fix>
</trkpt>
<trkpt lat="40.0713749" lon="-105.229789">
  <ele>1583.0</ele>
  <time>2026-09-02T20:50:14Z</time>
  <course>0.0</course>
  <speed>0.0</speed>
  <fix>3d</fix>
</trkpt>
<trkpt lat="40.0713749" lon="-105.229789">
  <ele>1583.0</ele>
  <time>2026-09-02T20:50:14Z</time>
  <course>0.0</course>
  <speed>0.0</speed>
  <fix>3d</fix>
</trkpt>
<trkpt lat="40.0713749" lon="-105.229789">
  <ele>1583.0</ele>
  <time>2026-09-02T20:50:14Z</time>
  <course>0.0</course>
  <speed>0.0</speed>
  <fix>3d</fix>
</trkpt>
<trkpt lat="40.0713749" lon="-105.229789">
  <ele>1583.0</ele>
  <time>2026-09-02T20:50:14Z</time>
  <course>0.0</course>
  <speed>0.0</speed>
  <fix>3d</fix>
</trkpt>
<trkpt lat="40.0713749" lon="-105.229789">
  <ele>1583.0</ele>
  <time>2026-09-02T20:50:14Z</time>
  <course>0.0</course>
  <speed>0.0</speed>
  <fix>3d</fix>
</trkpt>
<trkpt lat="40.0713749" lon="-105.229789">
  <ele>1583.0</ele>
  <time>2026-09-02T20:50:14Z</time>
  <course>0.0</course>
  <speed>0.0</speed>
  <fix>3d</fix>
</trkpt>
<trkpt lat="40.0713749" lon="-105.229789">
  <ele>1583.0</ele>
  <time>2026-09-02T20:50:14Z</time>
  <course>0.0</course>
  <speed>0.0</speed>
  <fix>3d</fix>
</trkpt>
<trkpt lat="40.0713749" lon="-105.229789">
  <ele>1583.0</ele>
  <time>2026-09-02T20:50:14Z</time>
  <course>0.0</course>
  <speed>0.0</speed>
  <fix>3d</fix>
</trkpt>
<trkpt lat="40.0713749" lon="-105.229789">
  <ele>1583.0</ele>
  <time>2026-09-02T20:50:14Z</time>
  <course>0.0</course>
  <speed>0.0</speed>
  <fix>3d</fix>
</trkpt>
<trkpt lat="40.0713749" lon="-105.229789">
  <ele>1583.0</ele>
  <time>2026-09-02T20:50:14Z</time>
  <course>0.0</course>
  <speed>0.0</speed>
  <fix>3d</fix>
</trkpt>
<trkpt lat="40.0713749" lon="-105.229789">
  <ele>1583.0</ele>
  <time>2026-09-02T20:50:14Z</time>
  <course>0.0</course>
  <speed>0.0</speed>
  <fix>3d</fix>
</trkpt>
<trkpt lat="40.0713749" lon="-105.229789">
  <ele>1583.0</ele>
  <time>2026-09-02T20:50:14Z</time>
  <course>0.0</course>
  <speed>0.0</speed>
  <fix>3d</fix>
</trkpt>
<trkpt lat="40.0713749" lon="-105.229789">
  <ele>1583.0</ele>
  <time>2026-09-02T20:50:14Z</time>
  <course>0.0</course>
  <speed>0.0</speed>
  <fix>3d</fix>
</trkpt>
<trkpt lat="40.0713749" lon="-105.229789">
  <ele>1583.0</ele>
  <time>2026-09-02T20:50:14Z</time>
  <course>0.0</course>
  <speed>0.0</speed>
  <fix>3d</fix>
</trkpt>
<trkpt lat="40.0713749" lon="-105.229789">
  <ele>1583.0</ele>
  <time>2026-09-02T20:50:14Z</time>
  <course>0.0</course>
  <speed>0.0</speed>
  <fix>3d</fix>
</trkpt>
<trkpt lat="40.0713749" lon="-105.229789">
  <ele>1583.0</ele>
  <time>2026-09-02T20:50:14Z</time>
  <course>0.0</course>
  <speed>0.0</speed>
  <fix>3d</fix>
</trkpt>
<trkpt lat="40.0713749" lon="-105.229789">
  <ele>1583.0</ele>
  <time>2026-09-02T20:50:14Z</time>
  <course>0.0</course>
  <speed>0.0</speed>
  <fix>3d</fix>
</trkpt>
<trkpt lat="40.0713749" lon="-105.229789">
  <ele>1583.0</ele>
  <time>2026-09-02T20:50:14Z</time>
  <course>0.0</course>
  <speed>0.0</speed>
  <fix>3d</fix>
</trkpt>
<trkpt lat="40.0713749" lon="-105.229789">
  <ele>1583.0</ele>
  <time>2026-09-02T20:50:14Z</time>
  <course>0.0</course>
  <speed>0.0</speed>
  <fix>3d</fix>
</trkpt>
<trkpt lat="40.0713749" lon="-105.229789">
  <ele>1583.0</ele>
  <time>2026-09-02T20:50:14Z</time>
  <course>0.0</course>
  <speed>0.0</speed>
  <fix>3d</fix>
</trkpt>
<trkpt lat="40.0713749" lon="-105.229789">
  <ele>1583.0</ele>
  <time>2026-09-02T20:50:14Z</time>
  <course>0.0</course>
  <speed>0.0</speed>
  <fix>3d</fix>
</trkpt>
<trkpt lat="40.0713749" lon="-105.229789">
  <ele>1583.0</ele>
  <time>2026-09-02T20:50:14Z</time>
  <course>0.0</course>
  <speed>0.0</speed>
  <fix>3d</fix>
</trkpt>
<trkpt lat="40.0713749" lon="-105.229789">
  <ele>1583.0</ele>
  <time>2026-09-02T20:50:14Z</time>
  <course>0.0</course>
  <speed>0.0</speed>
  <fix>3d</fix>
</trkpt>
<trkpt lat="40.0713749" lon="-105.229789">
  <ele>1583.0</ele>
  <time>2026-09-02T20:50:14Z</time>
  <course>0.0</course>
  <speed>0.0</speed>
  <fix>3d</fix>
</trkpt>
<trkpt lat="40.0713749" lon="-105.229789">
  <ele>1583.0</ele>
  <time>2026-09-02T20:50:14Z</time>
  <course>0.0</course>
  <speed>0.0</speed>
  <fix>3d</fix>
</trkpt>
<trkpt lat="40.0713749" lon="-105.229789">
  <ele>1583.0</ele>
  <time>2026-09-02T20:50:14Z</time>
  <course>0.0</course>
  <speed>0.0</speed>
  <fix>3d</fix>
</trkpt>
<trkpt lat="40.0713749" lon="-105.229789">
  <ele>1583.0</ele>
  <time>2026-09-02T20:50:14Z</time>
  <course>0.0</course>
  <speed>0.0</speed>
  <fix>3d</fix>
</trkpt>
<trkpt lat="40.0713749" lon="-105.229789">
  <ele>1583.0</ele>
  <time>2026-09-02T20:50:14Z</time>
  <course>0.0</course>
  <speed>0.0</speed>
  <fix>3d</fix>
</trkpt>
<trkpt lat="40.0713749" lon="-105.229789">
  <ele>1583.0</ele>
  <time>2026-09-02T20:50:14Z</time>
  <course>0.0</course>
  <speed>0.0</speed>
  <fix>3d</fix>
</trkpt>
<trkpt lat="40.0713749" lon="-105.229789">
  <ele>1583.0</ele>
  <time>2026-09-02T20:50:14Z</time>
  <course>0.0</course>
  <speed>0.0</speed>
  <fix>3d</fix>
</trkpt>
<trkpt lat="40.0713749" lon="-105.229789">
  <ele>1583.0</ele>
  <time>2026-09-02T20:50:14Z</time>
  <course>0.0</course>
  <speed>0.0</speed>
  <fix>3d</fix>
</trkpt>
<trkpt lat="40.0713749" lon="-105.229789">
  <ele>1583.0</ele>
  <time>2026-09-02T20:50:14Z</time>
  <course>0.0</course>
  <speed>0.0</speed>
  <fix>3d</fix>
</trkpt>
<trkpt lat="40.0713749" lon="-105.229789">
  <ele>1583.0</ele>
  <time>2026-09-02T20:50:14Z</time>
  <course>0.0</course>
  <speed>0.0</speed>
  <fix>3d</fix>
</trkpt>
<trkpt lat="40.0713749" lon="-105.229789">
  <ele>1583.0</ele>
  <time>2026-09-02T20:50:14Z</time>
  <course>0.0</course>
  <speed>0.0</speed>
  <fix>3d</fix>
</trkpt>
<trkpt lat="40.0713749" lon="-105.229789">
  <ele>1583.0</ele>
  <time>2026-09-02T20:50:14Z</time>
  <course>0.0</course>
  <speed>0.0</speed>
  <fix>3d</fix>
</trkpt>
<trkpt lat="40.0713749" lon="-105.229789">
  <ele>1583.0</ele>
  <time>2026-09-02T20:50:14Z</time>
  <course>0.0</course>
  <speed>0.0</speed>
  <fix>3d</fix>
</trkpt>
<trkpt lat="40.0713749" lon="-105.229789">
  <ele>1583.0</ele>
  <time>2026-09-02T20:50:14Z</time>
  <course>0.0</course>
  <speed>0.0</speed>
  <fix>3d</fix>
</trkpt>
<trkpt lat="40.0713749" lon="-105.229789">
  <ele>1583.0</ele>
  <time>2026-09-02T20:50:14Z</time>
  <course>0.0</course>
  <speed>0.0</speed>
  <fix>3d</fix>
</trkpt>
<trkpt lat="40.0713749" lon="-105.229789">
  <ele>1583.0</ele>
  <time>2026-09-02T20:50:14Z</time>
  <course>0.0</course>
  <speed>0.0</speed>
  <fix>3d</fix>
</trkpt>
<trkpt lat="40.0713749" lon="-105.229789">
  <ele>1583.0</ele>
  <time>2026-09-02T20:50:14Z</time>
  <course>0.0</course>
  <speed>0.0</speed>
  <fix>3d</fix>
</trkpt>
<trkpt lat="40.0713749" lon="-105.229789">
  <ele>1583.0</ele>
  <time>2026-09-02T20:50:14Z</time>
  <course>0.0</course>
  <speed>0.0</speed>
  <fix>3d</fix>
</trkpt>
<trkpt lat="40.0713749" lon="-105.229789">
  <ele>1583.0</ele>
  <time>2026-09-02T20:50:14Z</time>
  <course>0.0</course>
  <speed>0.0</speed>
  <fix>3d</fix>
</trkpt>
<trkpt lat="40.0713749" lon="-105.229789">
  <ele>1583.0</ele>
  <time>2026-09-02T20:50:14Z</time>
  <course>0.0</course>
  <speed>0.0</speed>
  <fix>3d</fix>
</trkpt>
<trkpt lat="40.0713749" lon="-105.229789">
  <ele>1583.0</ele>
  <time>2026-09-02T20:50:14Z</time>
  <course>0.0</course>
  <speed>0.0</speed>
  <fix>3d</fix>
</trkpt>
<trkpt lat="40.0713749" lon="-105.229789">
  <ele>1583.0</ele>
  <time>2026-09-02T20:50:14Z</time>
  <course>0.0</course>
  <speed>0.0</speed>
  <fix>3d</fix>
</trkpt>
<trkpt lat="40.0713749" lon="-105.229789">
  <ele>1583.0</ele>
  <time>2026-09-02T20:50:14Z</time>
  <course>0.0</course>
  <speed>0.0</speed>
  <fix>3d</fix>
</trkpt>
<trkpt lat="40.0713749" lon="-105.229789">
  <ele>1583.0</ele>
  <time>2026-09-02T20:50:14Z</time>
  <course>0.0</course>
  <speed>0.0</speed>
  <fix>3d</fix>
</trkpt>
<trkpt lat="40.0713749" lon="-105.229789">
  <ele>1583.0</ele>
  <time>2026-09-02T20:50:14Z</time>
  <course>0.0</course>
  <speed>0.0</speed>
  <fix>3d</fix>
</trkpt>
<trkpt lat="40.0713749" lon="-105.229789">
  <ele>1583.0</ele>
  <time>2026-09-02T20:50:14Z</time>
  <course>0.0</course>
  <speed>0.0</speed>
  <fix>3d</fix>
</trkpt>
<trkpt lat="40.0713749" lon="-105.229789">
  <ele>1583.0</ele>
  <time>2026-09-02T20:50:14Z</time>
  <course>0.0</course>
  <speed>0.0</speed>
  <fix>3d</fix>
</trkpt>
<trkpt lat="40.0713749" lon="-105.229789">
  <ele>1583.0</ele>
  <time>2026-09-02T20:50:14Z</time>
  <course>0.0</course>
  <speed>0.0</speed>
  <fix>3d</fix>
</trkpt>
<trkpt lat="40.0713749" lon="-105.229789">
  <ele>1583.0</ele>
  <time>2026-09-02T20:50:14Z</time>
  <course>0.0</course>
  <speed>0.0</speed>
  <fix>3d</fix>
</trkpt>
<trkpt lat="40.0713749" lon="-105.229789">
  <ele>1583.0</ele>
  <time>2026-09-02T20:50:14Z</time>
  <course>0.0</course>
  <speed>0.0</speed>
  <fix>3d</fix>
</trkpt>
<trkpt lat="40.0713749" lon="-105.229789">
  <ele>1583.0</ele>
  <time>2026-09-02T20:50:14Z</time>
  <course>0.0</course>
  <speed>0.0</speed>
  <fix>3d</fix>
</trkpt>
<trkpt lat="40.0713749" lon="-105.229789">
  <ele>1583.0</ele>
  <time>2026-09-02T20:50:14Z</time>
  <course>0.0</course>
  <speed>0.0</speed>
  <fix>3d</fix>
</trkpt>
<trkpt lat="40.0713749" lon="-105.229789">
  <ele>1583.0</ele>
  <time>2026-09-02T20:50:14Z</time>
  <course>0.0</course>
  <speed>0.0</speed>
  <fix>3d</fix>
</trkpt>
<trkpt lat="40.0713749" lon="-105.229789">
  <ele>1583.0</ele>
  <time>2026-09-02T20:50:14Z</time>
  <course>0.0</course>
  <speed>0.0</speed>
  <fix>3d</fix>
</trkpt>
<trkpt lat="40.0713749" lon="-105.229789">
  <ele>1583.0</ele>
  <time>2026-09-02T20:50:14Z</time>
  <course>0.0</course>
  <speed>0.0</speed>
  <fix>3d</fix>
</trkpt>
<trkpt lat="40.0713749" lon="-105.229789">
  <ele>1583.0</ele>
  <time>2026-09-02T20:50:14Z</time>
  <course>0.0</course>
  <speed>0.0</speed>
  <fix>3d</fix>
</trkpt>
<trkpt lat="40.0713749" lon="-105.229789">
  <ele>1583.0</ele>
  <time>2026-09-02T20:50:14Z</time>
  <course>0.0</course>
  <speed>0.0</speed>
  <fix>3d</fix>
</trkpt>
<trkpt lat="40.0713749" lon="-105.229789">
  <ele>1583.0</ele>
  <time>2026-09-02T20:50:14Z</time>
  <course>0.0</course>
  <speed>0.0</speed>
  <fix>3d</fix>
</trkpt>
<trkpt lat="40.0713749" lon="-105.229789">
  <ele>1583.0</ele>
  <time>2026-09-02T20:50:14Z</time>
  <course>0.0</course>
  <speed>0.0</speed>
  <fix>3d</fix>
</trkpt>
<trkpt lat="40.0713749" lon="-105.229789">
  <ele>1583.0</ele>
  <time>2026-09-02T20:50:14Z</time>
  <course>0.0</course>
  <speed>0.0</speed>
  <fix>3d</fix>
</trkpt>
<trkpt lat="40.0713749" lon="-105.229789">
  <ele>1583.0</ele>
  <time>2026-09-02T20:50:14Z</time>
  <course>0.0</course>
  <speed>0.0</speed>
  <fix>3d</fix>
</trkpt>
<trkpt lat="40.0713749" lon="-105.229789">
  <ele>1583.0</ele>
  <time>2026-09-02T20:50:14Z</time>
  <course>0.0</course>
  <speed>0.0</speed>
  <fix>3d</fix>
</trkpt>
<trkpt lat="40.0713749" lon="-105.229789">
  <ele>1583.0</ele>
  <time>2026-09-02T20:50:14Z</time>
  <course>0.0</course>
  <speed>0.0</speed>
  <fix>3d</fix>
</trkpt>
<trkpt lat="40.0713749" lon="-105.229789">
  <ele>1583.0</ele>
  <time>2026-09-02T20:50:14Z</time>
  <course>0.0</course>
  <speed>0.0</speed>
  <fix>3d</fix>
</trkpt>
<trkpt lat="40.0713749" lon="-105.229789">
  <ele>1583.0</ele>
  <time>2026-09-02T20:50:14Z</time>
  <course>0.0</course>
  <speed>0.0</speed>
  <fix>3d</fix>
</trkpt>
<trkpt lat="40.0713749" lon="-105.229789">
  <ele>1583.0</ele>
  <time>2026-09-02T20:50:14Z</time>
  <course>0.0</course>
  <speed>0.0</speed>
  <fix>3d</fix>
</trkpt>
<trkpt lat="40.0713749" lon="-105.229789">
  <ele>1583.0</ele>
  <time>2026-09-02T20:50:14Z</time>
  <course>0.0</course>
  <speed>0.0</speed>
  <fix>3d</fix>
</trkpt>
<trkpt lat="40.0713749" lon="-105.229789">
  <ele>1583.0</ele>
  <time>2026-09-02T20:50:14Z</time>
  <course>0.0</course>
  <speed>0.0</speed>
  <fix>3d</fix>
</trkpt>
<trkpt lat="40.0713749" lon="-105.229789">
  <ele>1583.0</ele>
  <time>2026-09-02T20:50:14Z</time>
  <course>0.0</course>
  <speed>0.0</speed>
  <fix>3d</fix>
</trkpt>
<trkpt lat="40.0713749" lon="-105.229789">
  <ele>1583.0</ele>
  <time>2026-09-02T20:50:14Z</time>
  <course>0.0</course>
  <speed>0.0</speed>
  <fix>3d</fix>
</trkpt>
<trkpt lat="40.0713749" lon="-105.229789">
  <ele>1583.0</ele>
  <time>2026-09-02T20:50:14Z</time>
  <course>0.0</course>
  <speed>0.0</speed>
  <fix>3d</fix>
</trkpt>
<trkpt lat="40.0713749" lon="-105.229789">
  <ele>1583.0</ele>
  <time>2026-09-02T20:50:14Z</time>
  <course>0.0</course>
  <speed>0.0</speed>
  <fix>3d</fix>
</trkpt>
<trkpt lat="40.0713749" lon="-105.229789">
  <ele>1583.0</ele>
  <time>2026-09-02T20:50:14Z</time>
  <course>0.0</course>
  <speed>0.0</speed>
  <fix>3d</fix>
</trkpt>
<trkpt lat="40.0713749" lon="-105.229789">
  <ele>1583.0</ele>
  <time>2026-09-02T20:50:14Z</time>
  <course>0.0</course>
  <speed>0.0</speed>
  <fix>3d</fix>
</trkpt>
<trkpt lat="40.0713749" lon="-105.229789">
  <ele>1583.0</ele>
  <time>2026-09-02T20:50:14Z</time>
  <course>0.0</course>
  <speed>0.0</speed>
  <fix>3d</fix>
</trkpt>
<trkpt lat="40.0713749" lon="-105.229789">
  <ele>1583.0</ele>
  <time>2026-09-02T20:50:14Z</time>
  <course>0.0</course>
  <speed>0.0</speed>
  <fix>3d</fix>
</trkpt>
<trkpt lat="40.0713749" lon="-105.229789">
  <ele>1583.0</ele>
  <time>2026-09-02T20:50:14Z</time>
  <course>0.0</course>
  <speed>0.0</speed>
  <fix>3d</fix>
</trkpt>
<trkpt lat="40.0713749" lon="-105.229789">
  <ele>1583.0</ele>
  <time>2026-09-02T20:50:14Z</time>
  <course>0.0</course>
  <speed>0.0</speed>
  <fix>3d</fix>
</trkpt>
<trkpt lat="40.0713749" lon="-105.229789">
  <ele>1583.0</ele>
  <time>2026-09-02T20:50:14Z</time>
  <course>0.0</course>
  <speed>0.0</speed>
  <fix>3d</fix>
</trkpt>
<trkpt lat="40.0713749" lon="-105.229789">
  <ele>1583.0</ele>
  <time>2026-09-02T20:50:14Z</time>
  <course>0.0</course>
  <speed>0.0</speed>
  <fix>3d</fix>
</trkpt>
<trkpt lat="40.0713749" lon="-105.229789">
  <ele>1583.0</ele>
  <time>2026-09-02T20:50:14Z</time>
  <course>0.0</course>
  <speed>0.0</speed>
  <fix>3d</fix>
</trkpt>
<trkpt lat="40.0713749" lon="-105.229789">
  <ele>1583.0</ele>
  <time>2026-09-02T20:50:14Z</time>
  <course>0.0</course>
  <speed>0.0</speed>
  <fix>3d</fix>
</trkpt>
<trkpt lat="40.0713749" lon="-105.229789">
  <ele>1583.0</ele>
  <time>2026-09-02T20:50:14Z</time>
  <course>0.0</course>
  <speed>0.0</speed>
  <fix>3d</fix>
</trkpt>
<trkpt lat="40.0713749" lon="-105.229789">
  <ele>1583.0</ele>
  <time>2026-09-02T20:50:14Z</time>
  <course>0.0</course>
  <speed>0.0</speed>
  <fix>3d</fix>
</trkpt>
<trkpt lat="40.0713749" lon="-105.229789">
  <ele>1583.0</ele>
  <time>2026-09-02T20:50:14Z</time>
  <course>0.0</course>
  <speed>0.0</speed>
  <fix>3d</fix>
</trkpt>
<trkpt lat="40.0713749" lon="-105.229789">
  <ele>1583.0</ele>
  <time>2026-09-02T20:50:14Z</time>
  <course>0.0</course>
  <speed>0.0</speed>
  <fix>3d</fix>
</trkpt>
<trkpt lat="40.0713749" lon="-105.229789">
  <ele>1583.0</ele>
  <time>2026-09-02T20:50:14Z</time>
  <course>0.0</course>
  <speed>0.0</speed>
  <fix>3d</fix>
</trkpt>
<trkpt lat="40.0713749" lon="-105.229789">
  <ele>1583.0</ele>
  <time>2026-09-02T20:50:14Z</time>
  <course>0.0</course>
  <speed>0.0</speed>
  <fix>3d</fix>
</trkpt>
<trkpt lat="40.0713749" lon="-105.229789">
  <ele>1583.0</ele>
  <time>2026-09-02T20:50:14Z</time>
  <course>0.0</course>
  <speed>0.0</speed>
  <fix>3d</fix>
</trkpt>
<trkpt lat="40.0713749" lon="-105.229789">
  <ele>1583.0</ele>
  <time>2026-09-02T20:50:14Z</time>
  <course>0.0</course>
  <speed>0.0</speed>
  <fix>3d</fix>
</trkpt>
<trkpt lat="40.0713749" lon="-105.229789">
  <ele>1583.0</ele>
  <time>2026-09-02T20:50:14Z</time>
  <course>0.0</course>
  <speed>0.0</speed>
  <fix>3d</fix>
</trkpt>
<trkpt lat="40.0713749" lon="-105.229789">
  <ele>1583.0</ele>
  <time>2026-09-02T20:50:14Z</time>
  <course>0.0</course>
  <speed>0.0</speed>
  <fix>3d</fix>
</trkpt>
<trkpt lat="40.0713749" lon="-105.229789">
  <ele>1583.0</ele>
  <time>2026-09-02T20:50:14Z</time>
  <course>0.0</course>
  <speed>0.0</speed>
  <fix>3d</fix>
</trkpt>
<trkpt lat="40.0713749" lon="-105.229789">
  <ele>1583.0</ele>
  <time>2026-09-02T20:50:14Z</time>
  <course>0.0</course>
  <speed>0.0</speed>
  <fix>3d</fix>
</trkpt>
<trkpt lat="40.0713749" lon="-105.229789">
  <ele>1583.0</ele>
  <time>2026-09-02T20:50:14Z</time>
  <course>0.0</course>
  <speed>0.0</speed>
  <fix>3d</fix>
</trkpt>
<trkpt lat="40.0713749" lon="-105.229789">
  <ele>1583.0</ele>
  <time>2026-09-02T20:50:14Z</time>
  <course>0.0</course>
  <speed>0.0</speed>
  <fix>3d</fix>
</trkpt>
<trkpt lat="40.0713749" lon="-105.229789">
  <ele>1583.0</ele>
  <time>2026-09-02T20:50:14Z</time>
  <course>0.0</course>
  <speed>0.0</speed>
  <fix>3d</fix>
</trkpt>
<trkpt lat="40.0713749" lon="-105.229789">
  <ele>1583.0</ele>
  <time>2026-09-02T20:50:14Z</time>
  <course>0.0</course>
  <speed>0.0</speed>
  <fix>3d</fix>
</trkpt>
<trkpt lat="40.0713749" lon="-105.229789">
  <ele>1583.0</ele>
  <time>2026-09-02T20:50:14Z</time>
  <course>0.0</course>
  <speed>0.0</speed>
  <fix>3d</fix>
</trkpt>
<trkpt lat="40.0713749" lon="-105.229789">
  <ele>1583.0</ele>
  <time>2026-09-02T20:50:14Z</time>
  <course>0.0</course>
  <speed>0.0</speed>
  <fix>3d</fix>
</trkpt>
<trkpt lat="40.0713749" lon="-105.229789">
  <ele>1583.0</ele>
  <time>2026-09-02T20:50:14Z</time>
  <course>0.0</course>
  <speed>0.0</speed>
  <fix>3d</fix>
</trkpt>
<trkpt lat="40.0713749" lon="-105.229789">
  <ele>1583.0</ele>
  <time>2026-09-02T20:50:14Z</time>
  <course>0.0</course>
  <speed>0.0</speed>
  <fix>3d</fix>
</trkpt>
<trkpt lat="40.0713749" lon="-105.229789">
  <ele>1583.0</ele>
  <time>2026-09-02T20:50:14Z</time>
  <course>0.0</course>
  <speed>0.0</speed>
  <fix>3d</fix>
</trkpt>
<trkpt lat="40.0713749" lon="-105.229789">
  <ele>1583.0</ele>
  <time>2026-09-02T20:50:14Z</time>
  <course>0.0</course>
  <speed>0.0</speed>
  <fix>3d</fix>
</trkpt>
<trkpt lat="40.0713749" lon="-105.229789">
  <ele>1583.0</ele>
  <time>2026-09-02T20:50:14Z</time>
  <course>0.0</course>
  <speed>0.0</speed>
  <fix>3d</fix>
</trkpt>
<trkpt lat="40.0713749" lon="-105.229789">
  <ele>1583.0</ele>
  <time>2026-09-02T20:50:14Z</time>
  <course>0.0</course>
  <speed>0.0</speed>
  <fix>3d</fix>
</trkpt>
<trkpt lat="40.0713749" lon="-105.229789">
  <ele>1583.0</ele>
  <time>2026-09-02T20:50:14Z</time>
  <course>0.0</course>
  <speed>0.0</speed>
  <fix>3d</fix>
</trkpt>
<trkpt lat="40.0713749" lon="-105.229789">
  <ele>1583.0</ele>
  <time>2026-09-02T20:50:14Z</time>
  <course>0.0</course>
  <speed>0.0</speed>
  <fix>3d</fix>
</trkpt>
<trkpt lat="40.0713749" lon="-105.229789">
  <ele>1583.0</ele>
  <time>2026-09-02T20:50:14Z</time>
  <course>0.0</course>
  <speed>0.0</speed>
  <fix>3d</fix>
</trkpt>
<trkpt lat="40.0713749" lon="-105.229789">
  <ele>1583.0</ele>
  <time>2026-09-02T20:50:14Z</time>
  <course>0.0</course>
  <speed>0.0</speed>
  <fix>3d</fix>
</trkpt>
<trkpt lat="40.0713749" lon="-105.229789">
  <ele>1583.0</ele>
  <time>2026-09-02T20:50:14Z</time>
  <course>0.0</course>
  <speed>0.0</speed>
  <fix>3d</fix>
</trkpt>
<trkpt lat="40.0713749" lon="-105.229789">
  <ele>1583.0</ele>
  <time>2026-09-02T20:50:14Z</time>
  <course>0.0</course>
  <speed>0.0</speed>
  <fix>3d</fix>
</trkpt>
<trkpt lat="40.0713749" lon="-105.229789">
  <ele>1583.0</ele>
  <time>2026-09-02T20:50:14Z</time>
  <course>0.0</course>
  <speed>0.0</speed>
  <fix>3d</fix>
</trkpt>
<trkpt lat="40.0713749" lon="-105.229789">
  <ele>1583.0</ele>
  <time>2026-09-02T20:50:14Z</time>
  <course>0.0</course>
  <speed>0.0</speed>
  <fix>3d</fix>
</trkpt>
<trkpt lat="40.0713749" lon="-105.229789">
  <ele>1583.0</ele>
  <time>2026-09-02T20:50:14Z</time>
  <course>0.0</course>
  <speed>0.0</speed>
  <fix>3d</fix>
</trkpt>
<trkpt lat="40.0713749" lon="-105.229789">
  <ele>1583.0</ele>
  <time>2026-09-02T20:50:14Z</time>
  <course>0.0</course>
  <speed>0.0</speed>
  <fix>3d</fix>
</trkpt>
<trkpt lat="40.0713749" lon="-105.229789">
  <ele>1583.0</ele>
  <time>2026-09-02T20:50:14Z</time>
  <course>0.0</course>
  <speed>0.0</speed>
  <fix>3d</fix>
</trkpt>
<trkpt lat="40.0713749" lon="-105.229789">
  <ele>1583.0</ele>
  <time>2026-09-02T20:50:14Z</time>
  <course>0.0</course>
  <speed>0.0</speed>
  <fix>3d</fix>
</trkpt>
<trkpt lat="40.0713749" lon="-105.229789">
  <ele>1583.0</ele>
  <time>2026-09-02T20:50:14Z</time>
  <course>0.0</course>
  <speed>0.0</speed>
  <fix>3d</fix>
</trkpt>
<trkpt lat="40.0713749" lon="-105.229789">
  <ele>1583.0</ele>
  <time>2026-09-02T20:50:14Z</time>
  <course>0.0</course>
  <speed>0.0</speed>
  <fix>3d</fix>
</trkpt>
<trkpt lat="40.0713749" lon="-105.229789">
  <ele>1583.0</ele>
  <time>2026-09-02T20:50:14Z</time>
  <course>0.0</course>
  <speed>0.0</speed>
  <fix>3d</fix>
</trkpt>
<trkpt lat="40.0713749" lon="-105.229789">
  <ele>1583.0</ele>
  <time>2026-09-02T20:50:14Z</time>
  <course>0.0</course>
  <speed>0.0</speed>
  <fix>3d</fix>
</trkpt>
<trkpt lat="40.0713749" lon="-105.229789">
  <ele>1583.0</ele>
  <time>2026-09-02T20:50:14Z</time>
  <course>0.0</course>
  <speed>0.0</speed>
  <fix>3d</fix>
</trkpt>
<trkpt lat="40.0713749" lon="-105.229789">
  <ele>1583.0</ele>
  <time>2026-09-02T20:50:14Z</time>
  <course>0.0</course>
  <speed>0.0</speed>
  <fix>3d</fix>
</trkpt>
<trkpt lat="40.0713749" lon="-105.229789">
  <ele>1583.0</ele>
  <time>2026-09-02T20:50:14Z</time>
  <course>0.0</course>
  <speed>0.0</speed>
  <fix>3d</fix>
</trkpt>
<trkpt lat="40.0713749" lon="-105.229789">
  <ele>1583.0</ele>
  <time>2026-09-02T20:50:14Z</time>
  <course>0.0</course>
  <speed>0.0</speed>
  <fix>3d</fix>
</trkpt>
<trkpt lat="40.0713749" lon="-105.229789">
  <ele>1583.0</ele>
  <time>2026-09-02T20:50:14Z</time>
  <course>0.0</course>
  <speed>0.0</speed>
  <fix>3d</fix>
</trkpt>
<trkpt lat="40.0713749" lon="-105.229789">
  <ele>1583.0</ele>
  <time>2026-09-02T20:50:14Z</time>
  <course>0.0</course>
  <speed>0.0</speed>
  <fix>3d</fix>
</trkpt>
<trkpt lat="40.0713749" lon="-105.229789">
  <ele>1583.0</ele>
  <time>2026-09-02T20:50:14Z</time>
  <course>0.0</course>
  <speed>0.0</speed>
  <fix>3d</fix>
</trkpt>
<trkpt lat="40.0713749" lon="-105.229789">
  <ele>1583.0</ele>
  <time>2026-09-02T20:50:14Z</time>
  <course>0.0</course>
  <speed>0.0</speed>
  <fix>3d</fix>
</trkpt>
<trkpt lat="40.0713749" lon="-105.229789">
  <ele>1583.0</ele>
  <time>2026-09-02T20:50:14Z</time>
  <course>0.0</course>
  <speed>0.0</speed>
  <fix>3d</fix>
</trkpt>
<trkpt lat="40.0713749" lon="-105.229789">
  <ele>1583.0</ele>
  <time>2026-09-02T20:50:14Z</time>
  <course>0.0</course>
  <speed>0.0</speed>
  <fix>3d</fix>
</trkpt>
<trkpt lat="40.0713749" lon="-105.229789">
  <ele>1583.0</ele>
  <time>2026-09-02T20:50:14Z</time>
  <course>0.0</course>
  <speed>0.0</speed>
  <fix>3d</fix>
</trkpt>
<trkpt lat="40.0713749" lon="-105.229789">
  <ele>1583.0</ele>
  <time>2026-09-02T20:50:14Z</time>
  <course>0.0</course>
  <speed>0.0</speed>
  <fix>3d</fix>
</trkpt>
<trkpt lat="40.0713749" lon="-105.229789">
  <ele>1583.0</ele>
  <time>2026-09-02T20:50:14Z</time>
  <course>0.0</course>
  <speed>0.0</speed>
  <fix>3d</fix>
</trkpt>
<trkpt lat="40.0713749" lon="-105.229789">
  <ele>1583.0</ele>
  <time>2026-09-02T20:50:14Z</time>
  <course>0.0</course>
  <speed>0.0</speed>
  <fix>3d</fix>
</trkpt>
<trkpt lat="40.0713749" lon="-105.229789">
  <ele>1583.0</ele>
  <time>2026-09-02T20:50:14Z</time>
  <course>0.0</course>
  <speed>0.0</speed>
  <fix>3d</fix>
</trkpt>
<trkpt lat="40.0713749" lon="-105.229789">
  <ele>1583.0</ele>
  <time>2026-09-02T20:50:14Z</time>
  <course>0.0</course>
  <speed>0.0</speed>
  <fix>3d</fix>
</trkpt>
<trkpt lat="40.0713749" lon="-105.229789">
  <ele>1583.0</ele>
  <time>2026-09-02T20:50:14Z</time>
  <course>0.0</course>
  <speed>0.0</speed>
  <fix>3d</fix>
</trkpt>
<trkpt lat="40.0713749" lon="-105.229789">
  <ele>1583.0</ele>
  <time>2026-09-02T20:50:14Z</time>
  <course>0.0</course>
  <speed>0.0</speed>
  <fix>3d</fix>
</trkpt>
<trkpt lat="40.0713749" lon="-105.229789">
  <ele>1583.0</ele>
  <time>2026-09-02T20:50:14Z</time>
  <course>0.0</course>
  <speed>0.0</speed>
  <fix>3d</fix>
</trkpt>
<trkpt lat="40.0713749" lon="-105.229789">
  <ele>1583.0</ele>
  <time>2026-09-02T20:50:14Z</time>
  <course>0.0</course>
  <speed>0.0</speed>
  <fix>3d</fix>
</trkpt>
<trkpt lat="40.0713749" lon="-105.229789">
  <ele>1583.0</ele>
  <time>2026-09-02T20:50:14Z</time>
  <course>0.0</course>
  <speed>0.0</speed>
  <fix>3d</fix>
</trkpt>
<trkpt lat="40.0713749" lon="-105.229789">
  <ele>1583.0</ele>
  <time>2026-09-02T20:50:14Z</time>
  <course>0.0</course>
  <speed>0.0</speed>
  <fix>3d</fix>
</trkpt>
<trkpt lat="40.0713749" lon="-105.229789">
  <ele>1583.0</ele>
  <time>2026-09-02T20:50:14Z</time>
  <course>0.0</course>
  <speed>0.0</speed>
  <fix>3d</fix>
</trkpt>
<trkpt lat="40.0713749" lon="-105.229789">
  <ele>1583.0</ele>
  <time>2026-09-02T20:50:14Z</time>
  <course>0.0</course>
  <speed>0.0</speed>
  <fix>3d</fix>
</trkpt>
<trkpt lat="40.0713749" lon="-105.229789">
  <ele>1583.0</ele>
  <time>2026-09-02T20:50:14Z</time>
  <course>0.0</course>
  <speed>0.0</speed>
  <fix>3d</fix>
</trkpt>
<trkpt lat="40.0713749" lon="-105.229789">
  <ele>1583.0</ele>
  <time>2026-09-02T20:50:14Z</time>
  <course>0.0</course>
  <speed>0.0</speed>
  <fix>3d</fix>
</trkpt>
<trkpt lat="40.0713749" lon="-105.229789">
  <ele>1583.0</ele>
  <time>2026-09-02T20:50:14Z</time>
  <course>0.0</course>
  <speed>0.0</speed>
  <fix>3d</fix>
</trkpt>
<trkpt lat="40.0713749" lon="-105.229789">
  <ele>1583.0</ele>
  <time>2026-09-02T20:50:14Z</time>
  <course>0.0</course>
  <speed>0.0</speed>
  <fix>3d</fix>
</trkpt>
<trkpt lat="40.0713749" lon="-105.229789">
  <ele>1583.0</ele>
  <time>2026-09-02T20:50:14Z</time>
  <course>0.0</course>
  <speed>0.0</speed>
  <fix>3d</fix>
</trkpt>
<trkpt lat="40.0713749" lon="-105.229789">
  <ele>1583.0</ele>
  <time>2026-09-02T20:50:14Z</time>
  <course>0.0</course>
  <speed>0.0</speed>
  <fix>3d</fix>
</trkpt>
<trkpt lat="40.0713749" lon="-105.229789">
  <ele>1583.0</ele>
  <time>2026-09-02T20:50:14Z</time>
  <course>0.0</course>
  <speed>0.0</speed>
  <fix>3d</fix>
</trkpt>
<trkpt lat="40.0713749" lon="-105.229789">
  <ele>1583.0</ele>
  <time>2026-09-02T20:50:14Z</time>
  <course>0.0</course>
  <speed>0.0</speed>
  <fix>3d</fix>
</trkpt>
<trkpt lat="40.0713749" lon="-105.229789">
  <ele>1583.0</ele>
  <time>2026-09-02T20:50:14Z</time>
  <course>0.0</course>
  <speed>0.0</speed>
  <fix>3d</fix>
</trkpt>
<trkpt lat="40.0713749" lon="-105.229789">
  <ele>1583.0</ele>
  <time>2026-09-02T20:50:14Z</time>
  <course>0.0</course>
  <speed>0.0</speed>
  <fix>3d</fix>
</trkpt>
<trkpt lat="40.0713749" lon="-105.229789">
  <ele>1583.0</ele>
  <time>2026-09-02T20:50:14Z</time>
  <course>0.0</course>
  <speed>0.0</speed>
  <fix>3d</fix>
</trkpt>
<trkpt lat="40.0713749" lon="-105.229789">
  <ele>1583.0</ele>
  <time>2026-09-02T20:50:14Z</time>
  <course>0.0</course>
  <speed>0.0</speed>
  <fix>3d</fix>
</trkpt>
<trkpt lat="40.0713749" lon="-105.229789">
  <ele>1583.0</ele>
  <time>2026-09-02T20:50:14Z</time>
  <course>0.0</course>
  <speed>0.0</speed>
  <fix>3d</fix>
</trkpt>
<trkpt lat="40.0713749" lon="-105.229789">
  <ele>1583.0</ele>
  <time>2026-09-02T20:50:14Z</time>
  <course>0.0</course>
  <speed>0.0</speed>
  <fix>3d</fix>
</trkpt>
<trkpt lat="40.0713749" lon="-105.229789">
  <ele>1583.0</ele>
  <time>2026-09-02T20:50:14Z</time>
  <course>0.0</course>
  <speed>0.0</speed>
  <fix>3d</fix>
</trkpt>
<trkpt lat="40.0713749" lon="-105.229789">
  <ele>1583.0</ele>
  <time>2026-09-02T20:50:14Z</time>
  <course>0.0</course>
  <speed>0.0</speed>
  <fix>3d</fix>
</trkpt>
<trkpt lat="40.0713749" lon="-105.229789">
  <ele>1583.0</ele>
  <time>2026-09-02T20:50:14Z</time>
  <course>0.0</course>
  <speed>0.0</speed>
  <fix>3d</fix>
</trkpt>
<trkpt lat="40.0713749" lon="-105.229789">
  <ele>1583.0</ele>
  <time>2026-09-02T20:50:14Z</time>
  <course>0.0</course>
  <speed>0.0</speed>
  <fix>3d</fix>
</trkpt>
<trkpt lat="40.0713749" lon="-105.229789">
  <ele>1583.0</ele>
  <time>2026-09-02T20:50:14Z</time>
  <course>0.0</course>
  <speed>0.0</speed>
  <fix>3d</fix>
</trkpt>
<trkpt lat="40.0713749" lon="-105.229789">
  <ele>1583.0</ele>
  <time>2026-09-02T20:50:14Z</time>
  <course>0.0</course>
  <speed>0.0</speed>
  <fix>3d</fix>
</trkpt>
<trkpt lat="40.0713749" lon="-105.229789">
  <ele>1583.0</ele>
  <time>2026-09-02T20:50:14Z</time>
  <course>0.0</course>
  <speed>0.0</speed>
  <fix>3d</fix>
</trkpt>
<trkpt lat="40.0713749" lon="-105.229789">
  <ele>1583.0</ele>
  <time>2026-09-02T20:50:14Z</time>
  <course>0.0</course>
  <speed>0.0</speed>
  <fix>3d</fix>
</trkpt>
<trkpt lat="40.0713749" lon="-105.229789">
  <ele>1583.0</ele>
  <time>2026-09-02T20:50:14Z</time>
  <course>0.0</course>
  <speed>0.0</speed>
  <fix>3d</fix>
</trkpt>
<trkpt lat="40.0713749" lon="-105.229789">
  <ele>1583.0</ele>
  <time>2026-09-02T20:50:14Z</time>
  <course>0.0</course>
  <speed>0.0</speed>
  <fix>3d</fix>
</trkpt>
<trkpt lat="40.0713749" lon="-105.229789">
  <ele>1583.0</ele>
  <time>2026-09-02T20:50:14Z</time>
  <course>0.0</course>
  <speed>0.0</speed>
  <fix>3d</fix>
</trkpt>
<trkpt lat="40.0713749" lon="-105.229789">
  <ele>1583.0</ele>
  <time>2026-09-02T20:50:14Z</time>
  <course>0.0</course>
  <speed>0.0</speed>
  <fix>3d</fix>
</trkpt>
<trkpt lat="40.0713749" lon="-105.229789">
  <ele>1583.0</ele>
  <time>2026-09-02T20:50:14Z</time>
  <course>0.0</course>
  <speed>0.0</speed>
  <fix>3d</fix>
</trkpt>
<trkpt lat="40.0713749" lon="-105.229789">
  <ele>1583.0</ele>
  <time>2026-09-02T20:50:14Z</time>
  <course>0.0</course>
  <speed>0.0</speed>
  <fix>3d</fix>
</trkpt>
<trkpt lat="40.0713749" lon="-105.229789">
  <ele>1583.0</ele>
  <time>2026-09-02T20:50:14Z</time>
  <course>0.0</course>
  <speed>0.0</speed>
  <fix>3d</fix>
</trkpt>
<trkpt lat="40.0713749" lon="-105.229789">
  <ele>1583.0</ele>
  <time>2026-09-02T20:50:14Z</time>
  <course>0.0</course>
  <speed>0.0</speed>
  <fix>3d</fix>
</trkpt>
<trkpt lat="40.0713749" lon="-105.229789">
  <ele>1583.0</ele>
  <time>2026-09-02T20:50:14Z</time>
  <course>0.0</course>
  <speed>0.0</speed>
  <fix>3d</fix>
</trkpt>
<trkpt lat="40.0713749" lon="-105.229789">
  <ele>1583.0</ele>
  <time>2026-09-02T20:50:14Z</time>
  <course>0.0</course>
  <speed>0.0</speed>
  <fix>3d</fix>
</trkpt>
<trkpt lat="40.0713749" lon="-105.229789">
  <ele>1583.0</ele>
  <time>2026-09-02T20:50:14Z</time>
  <course>0.0</course>
  <speed>0.0</speed>
  <fix>3d</fix>
</trkpt>
<trkpt lat="40.0713749" lon="-105.229789">
  <ele>1583.0</ele>
  <time>2026-09-02T20:50:14Z</time>
  <course>0.0</course>
  <speed>0.0</speed>
  <fix>3d</fix>
</trkpt>
<trkpt lat="40.0713749" lon="-105.229789">
  <ele>1583.0</ele>
  <time>2026-09-02T20:50:14Z</time>
  <course>0.0</course>
  <speed>0.0</speed>
  <fix>3d</fix>
</trkpt>
<trkpt lat="40.0713749" lon="-105.229789">
  <ele>1583.0</ele>
  <time>2026-09-02T20:50:14Z</time>
  <course>0.0</course>
  <speed>0.0</speed>
  <fix>3d</fix>
</trkpt>
<trkpt lat="40.0713749" lon="-105.229789">
  <ele>1583.0</ele>
  <time>2026-09-02T20:50:14Z</time>
  <course>0.0</course>
  <speed>0.0</speed>
  <fix>3d</fix>
</trkpt>
<trkpt lat="40.0713749" lon="-105.229789">
  <ele>1583.0</ele>
  <time>2026-09-02T20:50:14Z</time>
  <course>0.0</course>
  <speed>0.0</speed>
  <fix>3d</fix>
</trkpt>
<trkpt lat="40.0713749" lon="-105.229789">
  <ele>1583.0</ele>
  <time>2026-09-02T20:50:14Z</time>
  <course>0.0</course>
  <speed>0.0</speed>
  <fix>3d</fix>
</trkpt>
<trkpt lat="40.0713749" lon="-105.229789">
  <ele>1583.0</ele>
  <time>2026-09-02T20:50:14Z</time>
  <course>0.0</course>
  <speed>0.0</speed>
  <fix>3d</fix>
</trkpt>
<trkpt lat="40.0713749" lon="-105.229789">
  <ele>1583.0</ele>
  <time>2026-09-02T20:50:14Z</time>
  <course>0.0</course>
  <speed>0.0</speed>
  <fix>3d</fix>
</trkpt>
<trkpt lat="40.0713749" lon="-105.229789">
  <ele>1583.0</ele>
  <time>2026-09-02T20:50:14Z</time>
  <course>0.0</course>
  <speed>0.0</speed>
  <fix>3d</fix>
</trkpt>
<trkpt lat="40.0713749" lon="-105.229789">
  <ele>1583.0</ele>
  <time>2026-09-02T20:50:14Z</time>
  <course>0.0</course>
  <speed>0.0</speed>
  <fix>3d</fix>
</trkpt>
<trkpt lat="40.0713749" lon="-105.229789">
  <ele>1583.0</ele>
  <time>2026-09-02T20:50:14Z</time>
  <course>0.0</course>
  <speed>0.0</speed>
  <fix>3d</fix>
</trkpt>
<trkpt lat="40.0713749" lon="-105.229789">
  <ele>1583.0</ele>
  <time>2026-09-02T20:50:14Z</time>
  <course>0.0</course>
  <speed>0.0</speed>
  <fix>3d</fix>
</trkpt>
<trkpt lat="40.0713749" lon="-105.229789">
  <ele>1583.0</ele>
  <time>2026-09-02T20:50:14Z</time>
  <course>0.0</course>
  <speed>0.0</speed>
  <fix>3d</fix>
</trkpt>
<trkpt lat="40.0713749" lon="-105.229789">
  <ele>1583.0</ele>
  <time>2026-09-02T20:50:14Z</time>
  <course>0.0</course>
  <speed>0.0</speed>
  <fix>3d</fix>
</trkpt>
<trkpt lat="40.0713749" lon="-105.229789">
  <ele>1583.0</ele>
  <time>2026-09-02T20:50:14Z</time>
  <course>0.0</course>
  <speed>0.0</speed>
  <fix>3d</fix>
</trkpt>
<trkpt lat="40.0713749" lon="-105.229789">
  <ele>1583.0</ele>
  <time>2026-09-02T20:50:14Z</time>
  <course>0.0</course>
  <speed>0.0</speed>
  <fix>3d</fix>
</trkpt>
<trkpt lat="40.0713749" lon="-105.229789">
  <ele>1583.0</ele>
  <time>2026-09-02T20:50:14Z</time>
  <course>0.0</course>
  <speed>0.0</speed>
  <fix>3d</fix>
</trkpt>
<trkpt lat="40.0713749" lon="-105.229789">
  <ele>1583.0</ele>
  <time>2026-09-02T20:50:14Z</time>
  <course>0.0</course>
  <speed>0.0</speed>
  <fix>3d</fix>
</trkpt>
<trkpt lat="40.0713749" lon="-105.229789">
  <ele>1583.0</ele>
  <time>2026-09-02T20:50:14Z</time>
  <course>0.0</course>
  <speed>0.0</speed>
  <fix>3d</fix>
</trkpt>
<trkpt lat="40.0713749" lon="-105.229789">
  <ele>1583.0</ele>
  <time>2026-09-02T20:50:14Z</time>
  <course>0.0</course>
  <speed>0.0</speed>
  <fix>3d</fix>
</trkpt>
<trkpt lat="40.0713749" lon="-105.229789">
  <ele>1583.0</ele>
  <time>2026-09-02T20:50:14Z</time>
  <course>0.0</course>
  <speed>0.0</speed>
  <fix>3d</fix>
</trkpt>
<trkpt lat="40.0713749" lon="-105.229789">
  <ele>1583.0</ele>
  <time>2026-09-02T20:50:14Z</time>
  <course>0.0</course>
  <speed>0.0</speed>
  <fix>3d</fix>
</trkpt>
<trkpt lat="40.0713749" lon="-105.229789">
  <ele>1583.0</ele>
  <time>2026-09-02T20:50:14Z</time>
  <course>0.0</course>
  <speed>0.0</speed>
  <fix>3d</fix>
</trkpt>
<trkpt lat="40.0713749" lon="-105.229789">
  <ele>1583.0</ele>
  <time>2026-09-02T20:50:14Z</time>
  <course>0.0</course>
  <speed>0.0</speed>
  <fix>3d</fix>
</trkpt>
<trkpt lat="40.0713749" lon="-105.229789">
  <ele>1583.0</ele>
  <time>2026-09-02T20:50:14Z</time>
  <course>0.0</course>
  <speed>0.0</speed>
  <fix>3d</fix>
</trkpt>
<trkpt lat="40.0713749" lon="-105.229789">
  <ele>1583.0</ele>
  <time>2026-09-02T20:50:14Z</time>
  <course>0.0</course>
  <speed>0.0</speed>
  <fix>3d</fix>
</trkpt>
<trkpt lat="40.0713749" lon="-105.229789">
  <ele>1583.0</ele>
  <time>2026-09-02T20:50:14Z</time>
  <course>0.0</course>
  <speed>0.0</speed>
  <fix>3d</fix>
</trkpt>
<trkpt lat="40.0713749" lon="-105.229789">
  <ele>1583.0</ele>
  <time>2026-09-02T20:50:14Z</time>
  <course>0.0</course>
  <speed>0.0</speed>
  <fix>3d</fix>
</trkpt>
<trkpt lat="40.0713749" lon="-105.229789">
  <ele>1583.0</ele>
  <time>2026-09-02T20:50:14Z</time>
  <course>0.0</course>
  <speed>0.0</speed>
  <fix>3d</fix>
</trkpt>
<trkpt lat="40.0713749" lon="-105.229789">
  <ele>1583.0</ele>
  <time>2026-09-02T20:50:14Z</time>
  <course>0.0</course>
  <speed>0.0</speed>
  <fix>3d</fix>
</trkpt>
<trkpt lat="40.0713749" lon="-105.229789">
  <ele>1583.0</ele>
  <time>2026-09-02T20:50:14Z</time>
  <course>0.0</course>
  <speed>0.0</speed>
  <fix>3d</fix>
</trkpt>
<trkpt lat="40.0713749" lon="-105.229789">
  <ele>1583.0</ele>
  <time>2026-09-02T20:50:14Z</time>
  <course>0.0</course>
  <speed>0.0</speed>
  <fix>3d</fix>
</trkpt>
<trkpt lat="40.0713749" lon="-105.229789">
  <ele>1583.0</ele>
  <time>2026-09-02T20:50:14Z</time>
  <course>0.0</course>
  <speed>0.0</speed>
  <fix>3d</fix>
</trkpt>
<trkpt lat="40.0713749" lon="-105.229789">
  <ele>1583.0</ele>
  <time>2026-09-02T20:50:14Z</time>
  <course>0.0</course>
  <speed>0.0</speed>
  <fix>3d</fix>
</trkpt>
<trkpt lat="40.0713749" lon="-105.229789">
  <ele>1583.0</ele>
  <time>2026-09-02T20:50:14Z</time>
  <course>0.0</course>
  <speed>0.0</speed>
  <fix>3d</fix>
</trkpt>
<trkpt lat="40.0713749" lon="-105.229789">
  <ele>1583.0</ele>
  <time>2026-09-02T20:50:14Z</time>
  <course>0.0</course>
  <speed>0.0</speed>
  <fix>3d</fix>
</trkpt>
<trkpt lat="40.0713749" lon="-105.229789">
  <ele>1583.0</ele>
  <time>2026-09-02T20:50:14Z</time>
  <course>0.0</course>
  <speed>0.0</speed>
  <fix>3d</fix>
</trkpt>
<trkpt lat="40.0713749" lon="-105.229789">
  <ele>1583.0</ele>
  <time>2026-09-02T20:50:14Z</time>
  <course>0.0</course>
  <speed>0.0</speed>
  <fix>3d</fix>
</trkpt>
<trkpt lat="40.0713749" lon="-105.229789">
  <ele>1583.0</ele>
  <time>2026-09-02T20:50:14Z</time>
  <course>0.0</course>
  <speed>0.0</speed>
  <fix>3d</fix>
</trkpt>
<trkpt lat="40.0713749" lon="-105.229789">
  <ele>1583.0</ele>
  <time>2026-09-02T20:50:14Z</time>
  <course>0.0</course>
  <speed>0.0</speed>
  <fix>3d</fix>
</trkpt>
<trkpt lat="40.0713749" lon="-105.229789">
  <ele>1583.0</ele>
  <time>2026-09-02T20:50:14Z</time>
  <course>0.0</course>
  <speed>0.0</speed>
  <fix>3d</fix>
</trkpt>
<trkpt lat="40.0713749" lon="-105.229789">
  <ele>1583.0</ele>
  <time>2026-09-02T20:50:14Z</time>
  <course>0.0</course>
  <speed>0.0</speed>
  <fix>3d</fix>
</trkpt>
<trkpt lat="40.0713749" lon="-105.229789">
  <ele>1583.0</ele>
  <time>2026-09-02T20:50:14Z</time>
  <course>0.0</course>
  <speed>0.0</speed>
  <fix>3d</fix>
</trkpt>
<trkpt lat="40.0713749" lon="-105.229789">
  <ele>1583.0</ele>
  <time>2026-09-02T20:50:14Z</time>
  <course>0.0</course>
  <speed>0.0</speed>
  <fix>3d</fix>
</trkpt>
<trkpt lat="40.0713749" lon="-105.229789">
  <ele>1583.0</ele>
  <time>2026-09-02T20:50:14Z</time>
  <course>0.0</course>
  <speed>0.0</speed>
  <fix>3d</fix>
</trkpt>
<trkpt lat="40.0713749" lon="-105.229789">
  <ele>1583.0</ele>
  <time>2026-09-02T20:50:14Z</time>
  <course>0.0</course>
  <speed>0.0</speed>
  <fix>3d</fix>
</trkpt>
<trkpt lat="40.0713749" lon="-105.229789">
  <ele>1583.0</ele>
  <time>2026-09-02T20:50:14Z</time>
  <course>0.0</course>
  <speed>0.0</speed>
  <fix>3d</fix>
</trkpt>
<trkpt lat="40.0713749" lon="-105.229789">
  <ele>1583.0</ele>
  <time>2026-09-02T20:50:14Z</time>
  <course>0.0</course>
  <speed>0.0</speed>
  <fix>3d</fix>
</trkpt>
<trkpt lat="40.0713749" lon="-105.229789">
  <ele>1583.0</ele>
  <time>2026-09-02T20:50:14Z</time>
  <course>0.0</course>
  <speed>0.0</speed>
  <fix>3d</fix>
</trkpt>
<trkpt lat="40.0713749" lon="-105.229789">
  <ele>1583.0</ele>
  <time>2026-09-02T20:50:14Z</time>
  <course>0.0</course>
  <speed>0.0</speed>
  <fix>3d</fix>
</trkpt>
<trkpt lat="40.0713749" lon="-105.229789">
  <ele>1583.0</ele>
  <time>2026-09-02T20:50:14Z</time>
  <course>0.0</course>
  <speed>0.0</speed>
  <fix>3d</fix>
</trkpt>
<trkpt lat="40.0713749" lon="-105.229789">
  <ele>1583.0</ele>
  <time>2026-09-02T20:50:14Z</time>
  <course>0.0</course>
  <speed>0.0</speed>
  <fix>3d</fix>
</trkpt>
<trkpt lat="40.0713749" lon="-105.229789">
  <ele>1583.0</ele>
  <time>2026-09-02T20:50:14Z</time>
  <course>0.0</course>
  <speed>0.0</speed>
  <fix>3d</fix>
</trkpt>
<trkpt lat="40.0713749" lon="-105.229789">
  <ele>1583.0</ele>
  <time>2026-09-02T20:50:14Z</time>
  <course>0.0</course>
  <speed>0.0</speed>
  <fix>3d</fix>
</trkpt>
<trkpt lat="40.0713749" lon="-105.229789">
  <ele>1583.0</ele>
  <time>2026-09-02T20:50:14Z</time>
  <course>0.0</course>
  <speed>0.0</speed>
  <fix>3d</fix>
</trkpt>
<trkpt lat="40.0713749" lon="-105.229789">
  <ele>1583.0</ele>
  <time>2026-09-02T20:50:14Z</time>
  <course>0.0</course>
  <speed>0.0</speed>
  <fix>3d</fix>
</trkpt>
<trkpt lat="40.0713749" lon="-105.229789">
  <ele>1583.0</ele>
  <time>2026-09-02T20:50:14Z</time>
  <course>0.0</course>
  <speed>0.0</speed>
  <fix>3d</fix>
</trkpt>
<trkpt lat="40.0713749" lon="-105.229789">
  <ele>1583.0</ele>
  <time>2026-09-02T20:50:14Z</time>
  <course>0.0</course>
  <speed>0.0</speed>
  <fix>3d</fix>
</trkpt>
<trkpt lat="40.0713749" lon="-105.229789">
  <ele>1583.0</ele>
  <time>2026-09-02T20:50:14Z</time>
  <course>0.0</course>
  <speed>0.0</speed>
  <fix>3d</fix>
</trkpt>
<trkpt lat="40.0713749" lon="-105.229789">
  <ele>1583.0</ele>
  <time>2026-09-02T20:50:14Z</time>
  <course>0.0</course>
  <speed>0.0</speed>
  <fix>3d</fix>
</trkpt>
<trkpt lat="40.0713749" lon="-105.229789">
  <ele>1583.0</ele>
  <time>2026-09-02T20:50:14Z</time>
  <course>0.0</course>
  <speed>0.0</speed>
  <fix>3d</fix>
</trkpt>
<trkpt lat="40.0713749" lon="-105.229789">
  <ele>1583.0</ele>
  <time>2026-09-02T20:50:14Z</time>
  <course>0.0</course>
  <speed>0.0</speed>
  <fix>3d</fix>
</trkpt>
<trkpt lat="40.0713749" lon="-105.229789">
  <ele>1583.0</ele>
  <time>2026-09-02T20:50:14Z</time>
  <course>0.0</course>
  <speed>0.0</speed>
  <fix>3d</fix>
</trkpt>
<trkpt lat="40.0713749" lon="-105.229789">
  <ele>1583.0</ele>
  <time>2026-09-02T20:50:14Z</time>
  <course>0.0</course>
  <speed>0.0</speed>
  <fix>3d</fix>
</trkpt>
<trkpt lat="40.0713749" lon="-105.229789">
  <ele>1583.0</ele>
  <time>2026-09-02T20:50:14Z</time>
  <course>0.0</course>
  <speed>0.0</speed>
  <fix>3d</fix>
</trkpt>
<trkpt lat="40.0713749" lon="-105.229789">
  <ele>1583.0</ele>
  <time>2026-09-02T20:50:14Z</time>
  <course>0.0</course>
  <speed>0.0</speed>
  <fix>3d</fix>
</trkpt>
<trkpt lat="40.0713749" lon="-105.229789">
  <ele>1583.0</ele>
  <time>2026-09-02T20:50:14Z</time>
  <course>0.0</course>
  <speed>0.0</speed>
  <fix>3d</fix>
</trkpt>
<trkpt lat="40.0713749" lon="-105.229789">
  <ele>1583.0</ele>
  <time>2026-09-02T20:50:14Z</time>
  <course>0.0</course>
  <speed>0.0</speed>
  <fix>3d</fix>
</trkpt>
<trkpt lat="40.0713749" lon="-105.229789">
  <ele>1583.0</ele>
  <time>2026-09-02T20:50:14Z</time>
  <course>0.0</course>
  <speed>0.0</speed>
  <fix>3d</fix>
</trkpt>
<trkpt lat="40.0713749" lon="-105.229789">
  <ele>1583.0</ele>
  <time>2026-09-02T20:50:14Z</time>
  <course>0.0</course>
  <speed>0.0</speed>
  <fix>3d</fix>
</trkpt>
<trkpt lat="40.0713749" lon="-105.229789">
  <ele>1583.0</ele>
  <time>2026-09-02T20:50:14Z</time>
  <course>0.0</course>
  <speed>0.0</speed>
  <fix>3d</fix>
</trkpt>
<trkpt lat="40.0713749" lon="-105.229789">
  <ele>1583.0</ele>
  <time>2026-09-02T20:50:14Z</time>
  <course>0.0</course>
  <speed>0.0</speed>
  <fix>3d</fix>
</trkpt>
<trkpt lat="40.0713749" lon="-105.229789">
  <ele>1583.0</ele>
  <time>2026-09-02T20:50:14Z</time>
  <course>0.0</course>
  <speed>0.0</speed>
  <fix>3d</fix>
</trkpt>
<trkpt lat="40.0713749" lon="-105.229789">
  <ele>1583.0</ele>
  <time>2026-09-02T20:50:14Z</time>
  <course>0.0</course>
  <speed>0.0</speed>
  <fix>3d</fix>
</trkpt>
<trkpt lat="40.0713749" lon="-105.229789">
  <ele>1583.0</ele>
  <time>2026-09-02T20:50:14Z</time>
  <course>0.0</course>
  <speed>0.0</speed>
  <fix>3d</fix>
</trkpt>
<trkpt lat="40.0713749" lon="-105.229789">
  <ele>1583.0</ele>
  <time>2026-09-02T20:50:14Z</time>
  <course>0.0</course>
  <speed>0.0</speed>
  <fix>3d</fix>
</trkpt>
<trkpt lat="40.0713749" lon="-105.229789">
  <ele>1583.0</ele>
  <time>2026-09-02T20:50:14Z</time>
  <course>0.0</course>
  <speed>0.0</speed>
  <fix>3d</fix>
</trkpt>
<trkpt lat="40.0713749" lon="-105.229789">
  <ele>1583.0</ele>
  <time>2026-09-02T20:50:14Z</time>
  <course>0.0</course>
  <speed>0.0</speed>
  <fix>3d</fix>
</trkpt>
<trkpt lat="40.0713749" lon="-105.229789">
  <ele>1583.0</ele>
  <time>2026-09-02T20:50:14Z</time>
  <course>0.0</course>
  <speed>0.0</speed>
  <fix>3d</fix>
</trkpt>
<trkpt lat="40.0713749" lon="-105.229789">
  <ele>1583.0</ele>
  <time>2026-09-02T20:50:14Z</time>
  <course>0.0</course>
  <speed>0.0</speed>
  <fix>3d</fix>
</trkpt>
<trkpt lat="40.0713749" lon="-105.229789">
  <ele>1583.0</ele>
  <time>2026-09-02T20:50:14Z</time>
  <course>0.0</course>
  <speed>0.0</speed>
  <fix>3d</fix>
</trkpt>
<trkpt lat="40.0713749" lon="-105.229789">
  <ele>1583.0</ele>
  <time>2026-09-02T20:50:14Z</time>
  <course>0.0</course>
  <speed>0.0</speed>
  <fix>3d</fix>
</trkpt>
<trkpt lat="40.0713749" lon="-105.229789">
  <ele>1583.0</ele>
  <time>2026-09-02T20:50:14Z</time>
  <course>0.0</course>
  <speed>0.0</speed>
  <fix>3d</fix>
</trkpt>
<trkpt lat="40.0713749" lon="-105.229789">
  <ele>1583.0</ele>
  <time>2026-09-02T20:50:14Z</time>
  <course>0.0</course>
  <speed>0.0</speed>
  <fix>3d</fix>
</trkpt>
<trkpt lat="40.0713749" lon="-105.229789">
  <ele>1583.0</ele>
  <time>2026-09-02T20:50:14Z</time>
  <course>0.0</course>
  <speed>0.0</speed>
  <fix>3d</fix>
</trkpt>
<trkpt lat="40.0713749" lon="-105.229789">
  <ele>1583.0</ele>
  <time>2026-09-02T20:50:14Z</time>
  <course>0.0</course>
  <speed>0.0</speed>
  <fix>3d</fix>
</trkpt>
<trkpt lat="40.0713749" lon="-105.229789">
  <ele>1583.0</ele>
  <time>2026-09-02T20:50:14Z</time>
  <course>0.0</course>
  <speed>0.0</speed>
  <fix>3d</fix>
</trkpt>
<trkpt lat="40.0713749" lon="-105.229789">
  <ele>1583.0</ele>
  <time>2026-09-02T20:50:14Z</time>
  <course>0.0</course>
  <speed>0.0</speed>
  <fix>3d</fix>
</trkpt>
<trkpt lat="40.0713749" lon="-105.229789">
  <ele>1583.0</ele>
  <time>2026-09-02T20:50:14Z</time>
  <course>0.0</course>
  <speed>0.0</speed>
  <fix>3d</fix>
</trkpt>
<trkpt lat="40.0713749" lon="-105.229789">
  <ele>1583.0</ele>
  <time>2026-09-02T20:50:14Z</time>
  <course>0.0</course>
  <speed>0.0</speed>
  <fix>3d</fix>
</trkpt>
<trkpt lat="40.0713749" lon="-105.229789">
  <ele>1583.0</ele>
  <time>2026-09-02T20:50:14Z</time>
  <course>0.0</course>
  <speed>0.0</speed>
  <fix>3d</fix>
</trkpt>
<trkpt lat="40.0713749" lon="-105.229789">
  <ele>1583.0</ele>
  <time>2026-09-02T20:50:14Z</time>
  <course>0.0</course>
  <speed>0.0</speed>
  <fix>3d</fix>
</trkpt>
<trkpt lat="40.0713749" lon="-105.229789">
  <ele>1583.0</ele>
  <time>2026-09-02T20:50:14Z</time>
  <course>0.0</course>
  <speed>0.0</speed>
  <fix>3d</fix>
</trkpt>
<trkpt lat="40.0713749" lon="-105.229789">
  <ele>1583.0</ele>
  <time>2026-09-02T20:50:14Z</time>
  <course>0.0</course>
  <speed>0.0</speed>
  <fix>3d</fix>
</trkpt>
<trkpt lat="40.0713749" lon="-105.229789">
  <ele>1583.0</ele>
  <time>2026-09-02T20:50:14Z</time>
  <course>0.0</course>
  <speed>0.0</speed>
  <fix>3d</fix>
</trkpt>
<trkpt lat="40.0713749" lon="-105.229789">
  <ele>1583.0</ele>
  <time>2026-09-02T20:50:14Z</time>
  <course>0.0</course>
  <speed>0.0</speed>
  <fix>3d</fix>
</trkpt>
<trkpt lat="40.0713749" lon="-105.229789">
  <ele>1583.0</ele>
  <time>2026-09-02T20:50:14Z</time>
  <course>0.0</course>
  <speed>0.0</speed>
  <fix>3d</fix>
</trkpt>
<trkpt lat="40.0713749" lon="-105.229789">
  <ele>1583.0</ele>
  <time>2026-09-02T20:50:14Z</time>
  <course>0.0</course>
  <speed>0.0</speed>
  <fix>3d</fix>
</trkpt>
<trkpt lat="40.0713749" lon="-105.229789">
  <ele>1583.0</ele>
  <time>2026-09-02T20:50:14Z</time>
  <course>0.0</course>
  <speed>0.0</speed>
  <fix>3d</fix>
</trkpt>
<trkpt lat="40.0713749" lon="-105.229789">
  <ele>1583.0</ele>
  <time>2026-09-02T20:50:14Z</time>
  <course>0.0</course>
  <speed>0.0</speed>
  <fix>3d</fix>
</trkpt>
<trkpt lat="40.0713749" lon="-105.229789">
  <ele>1583.0</ele>
  <time>2026-09-02T20:50:14Z</time>
  <course>0.0</course>
  <speed>0.0</speed>
  <fix>3d</fix>
</trkpt>
<trkpt lat="40.0713749" lon="-105.229789">
  <ele>1583.0</ele>
  <time>2026-09-02T20:50:14Z</time>
  <course>0.0</course>
  <speed>0.0</speed>
  <fix>3d</fix>
</trkpt>
<trkpt lat="40.0713749" lon="-105.229789">
  <ele>1583.0</ele>
  <time>2026-09-02T20:50:14Z</time>
  <course>0.0</course>
  <speed>0.0</speed>
  <fix>3d</fix>
</trkpt>
<trkpt lat="40.0713749" lon="-105.229789">
  <ele>1583.0</ele>
  <time>2026-09-02T20:50:14Z</time>
  <course>0.0</course>
  <speed>0.0</speed>
  <fix>3d</fix>
</trkpt>
<trkpt lat="40.0713749" lon="-105.229789">
  <ele>1583.0</ele>
  <time>2026-09-02T20:50:14Z</time>
  <course>0.0</course>
  <speed>0.0</speed>
  <fix>3d</fix>
</trkpt>
<trkpt lat="40.0713749" lon="-105.229789">
  <ele>1583.0</ele>
  <time>2026-09-02T20:50:14Z</time>
  <course>0.0</course>
  <speed>0.0</speed>
  <fix>3d</fix>
</trkpt>
<trkpt lat="40.0713749" lon="-105.229789">
  <ele>1583.0</ele>
  <time>2026-09-02T20:50:14Z</time>
  <course>0.0</course>
  <speed>0.0</speed>
  <fix>3d</fix>
</trkpt>
<trkpt lat="40.0713749" lon="-105.229789">
  <ele>1583.0</ele>
  <time>2026-09-02T20:50:14Z</time>
  <course>0.0</course>
  <speed>0.0</speed>
  <fix>3d</fix>
</trkpt>
<trkpt lat="40.0713749" lon="-105.229789">
  <ele>1583.0</ele>
  <time>2026-09-02T20:50:14Z</time>
  <course>0.0</course>
  <speed>0.0</speed>
  <fix>3d</fix>
</trkpt>
<trkpt lat="40.0713749" lon="-105.229789">
  <ele>1583.0</ele>
  <time>2026-09-02T20:50:14Z</time>
  <course>0.0</course>
  <speed>0.0</speed>
  <fix>3d</fix>
</trkpt>
<trkpt lat="40.0713749" lon="-105.229789">
  <ele>1583.0</ele>
  <time>2026-09-02T20:50:14Z</time>
  <course>0.0</course>
  <speed>0.0</speed>
  <fix>3d</fix>
</trkpt>
<trkpt lat="40.0713749" lon="-105.229789">
  <ele>1583.0</ele>
  <time>2026-09-02T20:50:14Z</time>
  <course>0.0</course>
  <speed>0.0</speed>
  <fix>3d</fix>
</trkpt>
<trkpt lat="40.0713749" lon="-105.229789">
  <ele>1583.0</ele>
  <time>2026-09-02T20:50:14Z</time>
  <course>0.0</course>
  <speed>0.0</speed>
  <fix>3d</fix>
</trkpt>
<trkpt lat="40.0713749" lon="-105.229789">
  <ele>1583.0</ele>
  <time>2026-09-02T20:50:14Z</time>
  <course>0.0</course>
  <speed>0.0</speed>
  <fix>3d</fix>
</trkpt>
<trkpt lat="40.0713749" lon="-105.229789">
  <ele>1583.0</ele>
  <time>2026-09-02T20:50:14Z</time>
  <course>0.0</course>
  <speed>0.0</speed>
  <fix>3d</fix>
</trkpt>
<trkpt lat="40.0713749" lon="-105.229789">
  <ele>1583.0</ele>
  <time>2026-09-02T20:50:14Z</time>
  <course>0.0</course>
  <speed>0.0</speed>
  <fix>3d</fix>
</trkpt>
<trkpt lat="40.0713749" lon="-105.229789">
  <ele>1583.0</ele>
  <time>2026-09-02T20:50:14Z</time>
  <course>0.0</course>
  <speed>0.0</speed>
  <fix>3d</fix>
</trkpt>
<trkpt lat="40.0713749" lon="-105.229789">
  <ele>1583.0</ele>
  <time>2026-09-02T20:50:14Z</time>
  <course>0.0</course>
  <speed>0.0</speed>
  <fix>3d</fix>
</trkpt>
<trkpt lat="40.0713749" lon="-105.229789">
  <ele>1583.0</ele>
  <time>2026-09-02T20:50:14Z</time>
  <course>0.0</course>
  <speed>0.0</speed>
  <fix>3d</fix>
</trkpt>
<trkpt lat="40.0713749" lon="-105.229789">
  <ele>1583.0</ele>
  <time>2026-09-02T20:50:14Z</time>
  <course>0.0</course>
  <speed>0.0</speed>
  <fix>3d</fix>
</trkpt>
<trkpt lat="40.0713749" lon="-105.229789">
  <ele>1583.0</ele>
  <time>2026-09-02T20:50:14Z</time>
  <course>0.0</course>
  <speed>0.0</speed>
  <fix>3d</fix>
</trkpt>
<trkpt lat="40.0713749" lon="-105.229789">
  <ele>1583.0</ele>
  <time>2026-09-02T20:50:14Z</time>
  <course>0.0</course>
  <speed>0.0</speed>
  <fix>3d</fix>
</trkpt>
<trkpt lat="40.0713749" lon="-105.229789">
  <ele>1583.0</ele>
  <time>2026-09-02T20:50:14Z</time>
  <course>0.0</course>
  <speed>0.0</speed>
  <fix>3d</fix>
</trkpt>
<trkpt lat="40.0713749" lon="-105.229789">
  <ele>1583.0</ele>
  <time>2026-09-02T20:50:14Z</time>
  <course>0.0</course>
  <speed>0.0</speed>
  <fix>3d</fix>
</trkpt>
<trkpt lat="40.0713749" lon="-105.229789">
  <ele>1583.0</ele>
  <time>2026-09-02T20:50:14Z</time>
  <course>0.0</course>
  <speed>0.0</speed>
  <fix>3d</fix>
</trkpt>
<trkpt lat="40.0713749" lon="-105.229789">
  <ele>1583.0</ele>
  <time>2026-09-02T20:50:14Z</time>
  <course>0.0</course>
  <speed>0.0</speed>
  <fix>3d</fix>
</trkpt>
<trkpt lat="40.0713749" lon="-105.229789">
  <ele>1583.0</ele>
  <time>2026-09-02T20:50:14Z</time>
  <course>0.0</course>
  <speed>0.0</speed>
  <fix>3d</fix>
</trkpt>
<trkpt lat="40.0713749" lon="-105.229789">
  <ele>1583.0</ele>
  <time>2026-09-02T20:50:14Z</time>
  <course>0.0</course>
  <speed>0.0</speed>
  <fix>3d</fix>
</trkpt>
<trkpt lat="40.0713749" lon="-105.229789">
  <ele>1583.0</ele>
  <time>2026-09-02T20:50:14Z</time>
  <course>0.0</course>
  <speed>0.0</speed>
  <fix>3d</fix>
</trkpt>
<trkpt lat="40.0713749" lon="-105.229789">
  <ele>1583.0</ele>
  <time>2026-09-02T20:50:14Z</time>
  <course>0.0</course>
  <speed>0.0</speed>
  <fix>3d</fix>
</trkpt>
<trkpt lat="40.0713749" lon="-105.229789">
  <ele>1583.0</ele>
  <time>2026-09-02T20:50:14Z</time>
  <course>0.0</course>
  <speed>0.0</speed>
  <fix>3d</fix>
</trkpt>
<trkpt lat="40.0713749" lon="-105.229789">
  <ele>1583.0</ele>
  <time>2026-09-02T20:50:14Z</time>
  <course>0.0</course>
  <speed>0.0</speed>
  <fix>3d</fix>
</trkpt>
<trkpt lat="40.0713749" lon="-105.229789">
  <ele>1583.0</ele>
  <time>2026-09-02T20:50:14Z</time>
  <course>0.0</course>
  <speed>0.0</speed>
  <fix>3d</fix>
</trkpt>
<trkpt lat="40.0713749" lon="-105.229789">
  <ele>1583.0</ele>
  <time>2026-09-02T20:50:14Z</time>
  <course>0.0</course>
  <speed>0.0</speed>
  <fix>3d</fix>
</trkpt>
<trkpt lat="40.0713749" lon="-105.229789">
  <ele>1583.0</ele>
  <time>2026-09-02T20:50:14Z</time>
  <course>0.0</course>
  <speed>0.0</speed>
  <fix>3d</fix>
</trkpt>
<trkpt lat="40.0713749" lon="-105.229789">
  <ele>1583.0</ele>
  <time>2026-09-02T20:50:14Z</time>
  <course>0.0</course>
  <speed>0.0</speed>
  <fix>3d</fix>
</trkpt>
<trkpt lat="40.0713749" lon="-105.229789">
  <ele>1583.0</ele>
  <time>2026-09-02T20:50:14Z</time>
  <course>0.0</course>
  <speed>0.0</speed>
  <fix>3d</fix>
</trkpt>
<trkpt lat="40.0713749" lon="-105.229789">
  <ele>1583.0</ele>
  <time>2026-09-02T20:50:14Z</time>
  <course>0.0</course>
  <speed>0.0</speed>
  <fix>3d</fix>
</trkpt>
<trkpt lat="40.0713749" lon="-105.229789">
  <ele>1583.0</ele>
  <time>2026-09-02T20:50:14Z</time>
  <course>0.0</course>
  <speed>0.0</speed>
  <fix>3d</fix>
</trkpt>
<trkpt lat="40.0713749" lon="-105.229789">
  <ele>1583.0</ele>
  <time>2026-09-02T20:50:14Z</time>
  <course>0.0</course>
  <speed>0.0</speed>
  <fix>3d</fix>
</trkpt>
<trkpt lat="40.0713749" lon="-105.229789">
  <ele>1583.0</ele>
  <time>2026-09-02T20:50:14Z</time>
  <course>0.0</course>
  <speed>0.0</speed>
  <fix>3d</fix>
</trkpt>
<trkpt lat="40.0713749" lon="-105.229789">
  <ele>1583.0</ele>
  <time>2026-09-02T20:50:14Z</time>
  <course>0.0</course>
  <speed>0.0</speed>
  <fix>3d</fix>
</trkpt>
<trkpt lat="40.0713749" lon="-105.229789">
  <ele>1583.0</ele>
  <time>2026-09-02T20:50:14Z</time>
  <course>0.0</course>
  <speed>0.0</speed>
  <fix>3d</fix>
</trkpt>
<trkpt lat="40.0713749" lon="-105.229789">
  <ele>1583.0</ele>
  <time>2026-09-02T20:50:14Z</time>
  <course>0.0</course>
  <speed>0.0</speed>
  <fix>3d</fix>
</trkpt>
<trkpt lat="40.0713749" lon="-105.229789">
  <ele>1583.0</ele>
  <time>2026-09-02T20:50:14Z</time>
  <course>0.0</course>
  <speed>0.0</speed>
  <fix>3d</fix>
</trkpt>
<trkpt lat="40.0713749" lon="-105.229789">
  <ele>1583.0</ele>
  <time>2026-09-02T20:50:14Z</time>
  <course>0.0</course>
  <speed>0.0</speed>
  <fix>3d</fix>
</trkpt>
<trkpt lat="40.0713749" lon="-105.229789">
  <ele>1583.0</ele>
  <time>2026-09-02T20:50:14Z</time>
  <course>0.0</course>
  <speed>0.0</speed>
  <fix>3d</fix>
</trkpt>
<trkpt lat="40.0713749" lon="-105.229789">
  <ele>1583.0</ele>
  <time>2026-09-02T20:50:14Z</time>
  <course>0.0</course>
  <speed>0.0</speed>
  <fix>3d</fix>
</trkpt>
<trkpt lat="40.0713749" lon="-105.229789">
  <ele>1583.0</ele>
  <time>2026-09-02T20:50:14Z</time>
  <course>0.0</course>
  <speed>0.0</speed>
  <fix>3d</fix>
</trkpt>
<trkpt lat="40.0713749" lon="-105.229789">
  <ele>1583.0</ele>
  <time>2026-09-02T20:50:14Z</time>
  <course>0.0</course>
  <speed>0.0</speed>
  <fix>3d</fix>
</trkpt>
<trkpt lat="40.0713749" lon="-105.229789">
  <ele>1583.0</ele>
  <time>2026-09-02T20:50:14Z</time>
  <course>0.0</course>
  <speed>0.0</speed>
  <fix>3d</fix>
</trkpt>
<trkpt lat="40.0713749" lon="-105.229789">
  <ele>1583.0</ele>
  <time>2026-09-02T20:50:14Z</time>
  <course>0.0</course>
  <speed>0.0</speed>
  <fix>3d</fix>
</trkpt>
<trkpt lat="40.0713749" lon="-105.229789">
  <ele>1583.0</ele>
  <time>2026-09-02T20:50:14Z</time>
  <course>0.0</course>
  <speed>0.0</speed>
  <fix>3d</fix>
</trkpt>
<trkpt lat="40.0713749" lon="-105.229789">
  <ele>1583.0</ele>
  <time>2026-09-02T20:50:14Z</time>
  <course>0.0</course>
  <speed>0.0</speed>
  <fix>3d</fix>
</trkpt>
<trkpt lat="40.0713749" lon="-105.229789">
  <ele>1583.0</ele>
  <time>2026-09-02T20:50:14Z</time>
  <course>0.0</course>
  <speed>0.0</speed>
  <fix>3d</fix>
</trkpt>
<trkpt lat="40.0713749" lon="-105.229789">
  <ele>1583.0</ele>
  <time>2026-09-02T20:50:14Z</time>
  <course>0.0</course>
  <speed>0.0</speed>
  <fix>3d</fix>
</trkpt>
<trkpt lat="40.0713749" lon="-105.229789">
  <ele>1583.0</ele>
  <time>2026-09-02T20:50:14Z</time>
  <course>0.0</course>
  <speed>0.0</speed>
  <fix>3d</fix>
</trkpt>
<trkpt lat="40.0713749" lon="-105.229789">
  <ele>1583.0</ele>
  <time>2026-09-02T20:50:14Z</time>
  <course>0.0</course>
  <speed>0.0</speed>
  <fix>3d</fix>
</trkpt>
<trkpt lat="40.0713749" lon="-105.229789">
  <ele>1583.0</ele>
  <time>2026-09-02T20:50:14Z</time>
  <course>0.0</course>
  <speed>0.0</speed>
  <fix>3d</fix>
</trkpt>
<trkpt lat="40.0713749" lon="-105.229789">
  <ele>1583.0</ele>
  <time>2026-09-02T20:50:14Z</time>
  <course>0.0</course>
  <speed>0.0</speed>
  <fix>3d</fix>
</trkpt>
<trkpt lat="40.0713749" lon="-105.229789">
  <ele>1583.0</ele>
  <time>2026-09-02T20:50:14Z</time>
  <course>0.0</course>
  <speed>0.0</speed>
  <fix>3d</fix>
</trkpt>
<trkpt lat="40.0713749" lon="-105.229789">
  <ele>1583.0</ele>
  <time>2026-09-02T20:50:14Z</time>
  <course>0.0</course>
  <speed>0.0</speed>
  <fix>3d</fix>
</trkpt>
<trkpt lat="40.0713749" lon="-105.229789">
  <ele>1583.0</ele>
  <time>2026-09-02T20:50:14Z</time>
  <course>0.0</course>
  <speed>0.0</speed>
  <fix>3d</fix>
</trkpt>
<trkpt lat="40.0713749" lon="-105.229789">
  <ele>1583.0</ele>
  <time>2026-09-02T20:50:14Z</time>
  <course>0.0</course>
  <speed>0.0</speed>
  <fix>3d</fix>
</trkpt>
<trkpt lat="40.0713749" lon="-105.229789">
  <ele>1583.0</ele>
  <time>2026-09-02T20:50:14Z</time>
  <course>0.0</course>
  <speed>0.0</speed>
  <fix>3d</fix>
</trkpt>
<trkpt lat="40.0713749" lon="-105.229789">
  <ele>1583.0</ele>
  <time>2026-09-02T20:50:14Z</time>
  <course>0.0</course>
  <speed>0.0</speed>
  <fix>3d</fix>
</trkpt>
<trkpt lat="40.0713749" lon="-105.229789">
  <ele>1583.0</ele>
  <time>2026-09-02T20:50:14Z</time>
  <course>0.0</course>
  <speed>0.0</speed>
  <fix>3d</fix>
</trkpt>
<trkpt lat="40.0713749" lon="-105.229789">
  <ele>1583.0</ele>
  <time>2026-09-02T20:50:14Z</time>
  <course>0.0</course>
  <speed>0.0</speed>
  <fix>3d</fix>
</trkpt>
<trkpt lat="40.0713749" lon="-105.229789">
  <ele>1583.0</ele>
  <time>2026-09-02T20:50:14Z</time>
  <course>0.0</course>
  <speed>0.0</speed>
  <fix>3d</fix>
</trkpt>
<trkpt lat="40.0713749" lon="-105.229789">
  <ele>1583.0</ele>
  <time>2026-09-02T20:50:14Z</time>
  <course>0.0</course>
  <speed>0.0</speed>
  <fix>3d</fix>
</trkpt>
<trkpt lat="40.0713749" lon="-105.229789">
  <ele>1583.0</ele>
  <time>2026-09-02T20:50:14Z</time>
  <course>0.0</course>
  <speed>0.0</speed>
  <fix>3d</fix>
</trkpt>
<trkpt lat="40.0713749" lon="-105.229789">
  <ele>1583.0</ele>
  <time>2026-09-02T20:50:14Z</time>
  <course>0.0</course>
  <speed>0.0</speed>
  <fix>3d</fix>
</trkpt>
<trkpt lat="40.0713749" lon="-105.229789">
  <ele>1583.0</ele>
  <time>2026-09-02T20:50:14Z</time>
  <course>0.0</course>
  <speed>0.0</speed>
  <fix>3d</fix>
</trkpt>
<trkpt lat="40.0713749" lon="-105.229789">
  <ele>1583.0</ele>
  <time>2026-09-02T20:50:14Z</time>
  <course>0.0</course>
  <speed>0.0</speed>
  <fix>3d</fix>
</trkpt>
<trkpt lat="40.0713749" lon="-105.229789">
  <ele>1583.0</ele>
  <time>2026-09-02T20:50:14Z</time>
  <course>0.0</course>
  <speed>0.0</speed>
  <fix>3d</fix>
</trkpt>
<trkpt lat="40.0713749" lon="-105.229789">
  <ele>1583.0</ele>
  <time>2026-09-02T20:50:14Z</time>
  <course>0.0</course>
  <speed>0.0</speed>
  <fix>3d</fix>
</trkpt>
<trkpt lat="40.0713749" lon="-105.229789">
  <ele>1583.0</ele>
  <time>2026-09-02T20:50:14Z</time>
  <course>0.0</course>
  <speed>0.0</speed>
  <fix>3d</fix>
</trkpt>
<trkpt lat="40.0713749" lon="-105.229789">
  <ele>1583.0</ele>
  <time>2026-09-02T20:50:14Z</time>
  <course>0.0</course>
  <speed>0.0</speed>
  <fix>3d</fix>
</trkpt>
<trkpt lat="40.0713749" lon="-105.229789">
  <ele>1583.0</ele>
  <time>2026-09-02T20:50:14Z</time>
  <course>0.0</course>
  <speed>0.0</speed>
  <fix>3d</fix>
</trkpt>
<trkpt lat="40.0713749" lon="-105.229789">
  <ele>1583.0</ele>
  <time>2026-09-02T20:50:14Z</time>
  <course>0.0</course>
  <speed>0.0</speed>
  <fix>3d</fix>
</trkpt>
<trkpt lat="40.0713749" lon="-105.229789">
  <ele>1583.0</ele>
  <time>2026-09-02T20:50:14Z</time>
  <course>0.0</course>
  <speed>0.0</speed>
  <fix>3d</fix>
</trkpt>
<trkpt lat="40.0713749" lon="-105.229789">
  <ele>1583.0</ele>
  <time>2026-09-02T20:50:14Z</time>
  <course>0.0</course>
  <speed>0.0</speed>
  <fix>3d</fix>
</trkpt>
<trkpt lat="40.0713749" lon="-105.229789">
  <ele>1583.0</ele>
  <time>2026-09-02T20:50:14Z</time>
  <course>0.0</course>
  <speed>0.0</speed>
  <fix>3d</fix>
</trkpt>
<trkpt lat="40.0713749" lon="-105.229789">
  <ele>1583.0</ele>
  <time>2026-09-02T20:50:14Z</time>
  <course>0.0</course>
  <speed>0.0</speed>
  <fix>3d</fix>
</trkpt>
<trkpt lat="40.0713749" lon="-105.229789">
  <ele>1583.0</ele>
  <time>2026-09-02T20:50:14Z</time>
  <course>0.0</course>
  <speed>0.0</speed>
  <fix>3d</fix>
</trkpt>
<trkpt lat="40.0713749" lon="-105.229789">
  <ele>1583.0</ele>
  <time>2026-09-02T20:50:14Z</time>
  <course>0.0</course>
  <speed>0.0</speed>
  <fix>3d</fix>
</trkpt>
<trkpt lat="40.0713749" lon="-105.229789">
  <ele>1583.0</ele>
  <time>2026-09-02T20:50:14Z</time>
  <course>0.0</course>
  <speed>0.0</speed>
  <fix>3d</fix>
</trkpt>
<trkpt lat="40.0713749" lon="-105.229789">
  <ele>1583.0</ele>
  <time>2026-09-02T20:50:14Z</time>
  <course>0.0</course>
  <speed>0.0</speed>
  <fix>3d</fix>
</trkpt>
<trkpt lat="40.0713749" lon="-105.229789">
  <ele>1583.0</ele>
  <time>2026-09-02T20:50:14Z</time>
  <course>0.0</course>
  <speed>0.0</speed>
  <fix>3d</fix>
</trkpt>
<trkpt lat="40.0713749" lon="-105.229789">
  <ele>1583.0</ele>
  <time>2026-09-02T20:50:14Z</time>
  <course>0.0</course>
  <speed>0.0</speed>
  <fix>3d</fix>
</trkpt>
<trkpt lat="40.0713749" lon="-105.229789">
  <ele>1583.0</ele>
  <time>2026-09-02T20:50:14Z</time>
  <course>0.0</course>
  <speed>0.0</speed>
  <fix>3d</fix>
</trkpt>
<trkpt lat="40.0713749" lon="-105.229789">
  <ele>1583.0</ele>
  <time>2026-09-02T20:50:15Z</time>
  <course>0.0</course>
  <speed>0.0</speed>
  <fix>3d</fix>
</trkpt>
<trkpt lat="40.0713749" lon="-105.229789">
  <ele>1583.0</ele>
  <time>2026-09-02T20:50:15Z</time>
  <course>0.0</course>
  <speed>0.0</speed>
  <fix>3d</fix>
</trkpt>
<trkpt lat="40.0713749" lon="-105.229789">
  <ele>1583.0</ele>
  <time>2026-09-02T20:50:15Z</time>
  <course>0.0</course>
  <speed>0.0</speed>
  <fix>3d</fix>
</trkpt>
<trkpt lat="40.0713749" lon="-105.229789">
  <ele>1583.0</ele>
  <time>2026-09-02T20:50:15Z</time>
  <course>0.0</course>
  <speed>0.0</speed>
  <fix>3d</fix>
</trkpt>
<trkpt lat="40.0713749" lon="-105.229789">
  <ele>1583.0</ele>
  <time>2026-09-02T20:50:15Z</time>
  <course>0.0</course>
  <speed>0.0</speed>
  <fix>3d</fix>
</trkpt>
<trkpt lat="40.0713749" lon="-105.229789">
  <ele>1583.0</ele>
  <time>2026-09-02T20:50:15Z</time>
  <course>0.0</course>
  <speed>0.0</speed>
  <fix>3d</fix>
</trkpt>
<trkpt lat="40.0713749" lon="-105.229789">
  <ele>1583.0</ele>
  <time>2026-09-02T20:50:15Z</time>
  <course>0.0</course>
  <speed>0.0</speed>
  <fix>3d</fix>
</trkpt>
<trkpt lat="40.0713749" lon="-105.229789">
  <ele>1583.0</ele>
  <time>2026-09-02T20:50:15Z</time>
  <course>0.0</course>
  <speed>0.0</speed>
  <fix>3d</fix>
</trkpt>
<trkpt lat="40.0713749" lon="-105.229789">
  <ele>1583.0</ele>
  <time>2026-09-02T20:50:15Z</time>
  <course>0.0</course>
  <speed>0.0</speed>
  <fix>3d</fix>
</trkpt>
<trkpt lat="40.0713749" lon="-105.229789">
  <ele>1583.0</ele>
  <time>2026-09-02T20:50:15Z</time>
  <course>0.0</course>
  <speed>0.0</speed>
  <fix>3d</fix>
</trkpt>
<trkpt lat="40.0713749" lon="-105.229789">
  <ele>1583.0</ele>
  <time>2026-09-02T20:50:15Z</time>
  <course>0.0</course>
  <speed>0.0</speed>
  <fix>3d</fix>
</trkpt>
<trkpt lat="40.0713749" lon="-105.229789">
  <ele>1583.0</ele>
  <time>2026-09-02T20:50:15Z</time>
  <course>0.0</course>
  <speed>0.0</speed>
  <fix>3d</fix>
</trkpt>
<trkpt lat="40.0713749" lon="-105.229789">
  <ele>1583.0</ele>
  <time>2026-09-02T20:50:15Z</time>
  <course>0.0</course>
  <speed>0.0</speed>
  <fix>3d</fix>
</trkpt>
<trkpt lat="40.0713749" lon="-105.229789">
  <ele>1583.0</ele>
  <time>2026-09-02T20:50:15Z</time>
  <course>0.0</course>
  <speed>0.0</speed>
  <fix>3d</fix>
</trkpt>
<trkpt lat="40.0713749" lon="-105.229789">
  <ele>1583.0</ele>
  <time>2026-09-02T20:50:15Z</time>
  <course>0.0</course>
  <speed>0.0</speed>
  <fix>3d</fix>
</trkpt>
<trkpt lat="40.0713749" lon="-105.229789">
  <ele>1583.0</ele>
  <time>2026-09-02T20:50:15Z</time>
  <course>0.0</course>
  <speed>0.0</speed>
  <fix>3d</fix>
</trkpt>
<trkpt lat="40.0713749" lon="-105.229789">
  <ele>1583.0</ele>
  <time>2026-09-02T20:50:15Z</time>
  <course>0.0</course>
  <speed>0.0</speed>
  <fix>3d</fix>
</trkpt>
<trkpt lat="40.0713749" lon="-105.229789">
  <ele>1583.0</ele>
  <time>2026-09-02T20:50:15Z</time>
  <course>0.0</course>
  <speed>0.0</speed>
  <fix>3d</fix>
</trkpt>
<trkpt lat="40.0713749" lon="-105.229789">
  <ele>1583.0</ele>
  <time>2026-09-02T20:50:15Z</time>
  <course>0.0</course>
  <speed>0.0</speed>
  <fix>3d</fix>
</trkpt>
<trkpt lat="40.0713749" lon="-105.229789">
  <ele>1583.0</ele>
  <time>2026-09-02T20:50:15Z</time>
  <course>0.0</course>
  <speed>0.0</speed>
  <fix>3d</fix>
</trkpt>
<trkpt lat="40.0713749" lon="-105.229789">
  <ele>1583.0</ele>
  <time>2026-09-02T20:50:15Z</time>
  <course>0.0</course>
  <speed>0.0</speed>
  <fix>3d</fix>
</trkpt>
<trkpt lat="40.0713749" lon="-105.229789">
  <ele>1583.0</ele>
  <time>2026-09-02T20:50:15Z</time>
  <course>0.0</course>
  <speed>0.0</speed>
  <fix>3d</fix>
</trkpt>
<trkpt lat="40.0713749" lon="-105.229789">
  <ele>1583.0</ele>
  <time>2026-09-02T20:50:15Z</time>
  <course>0.0</course>
  <speed>0.0</speed>
  <fix>3d</fix>
</trkpt>
<trkpt lat="40.0713749" lon="-105.229789">
  <ele>1583.0</ele>
  <time>2026-09-02T20:50:15Z</time>
  <course>0.0</course>
  <speed>0.0</speed>
  <fix>3d</fix>
</trkpt>
<trkpt lat="40.0713749" lon="-105.229789">
  <ele>1583.0</ele>
  <time>2026-09-02T20:50:15Z</time>
  <course>0.0</course>
  <speed>0.0</speed>
  <fix>3d</fix>
</trkpt>
<trkpt lat="40.0713749" lon="-105.229789">
  <ele>1583.0</ele>
  <time>2026-09-02T20:50:15Z</time>
  <course>0.0</course>
  <speed>0.0</speed>
  <fix>3d</fix>
</trkpt>
<trkpt lat="40.0713749" lon="-105.229789">
  <ele>1583.0</ele>
  <time>2026-09-02T20:50:15Z</time>
  <course>0.0</course>
  <speed>0.0</speed>
  <fix>3d</fix>
</trkpt>
<trkpt lat="40.0713749" lon="-105.229789">
  <ele>1583.0</ele>
  <time>2026-09-02T20:50:15Z</time>
  <course>0.0</course>
  <speed>0.0</speed>
  <fix>3d</fix>
</trkpt>
<trkpt lat="40.0713749" lon="-105.229789">
  <ele>1583.0</ele>
  <time>2026-09-02T20:50:15Z</time>
  <course>0.0</course>
  <speed>0.0</speed>
  <fix>3d</fix>
</trkpt>
<trkpt lat="40.0713749" lon="-105.229789">
  <ele>1583.0</ele>
  <time>2026-09-02T20:50:15Z</time>
  <course>0.0</course>
  <speed>0.0</speed>
  <fix>3d</fix>
</trkpt>
<trkpt lat="40.0713749" lon="-105.229789">
  <ele>1583.0</ele>
  <time>2026-09-02T20:50:15Z</time>
  <course>0.0</course>
  <speed>0.0</speed>
  <fix>3d</fix>
</trkpt>
<trkpt lat="40.0713749" lon="-105.229789">
  <ele>1583.0</ele>
  <time>2026-09-02T20:50:15Z</time>
  <course>0.0</course>
  <speed>0.0</speed>
  <fix>3d</fix>
</trkpt>
<trkpt lat="40.0713749" lon="-105.229789">
  <ele>1583.0</ele>
  <time>2026-09-02T20:50:15Z</time>
  <course>0.0</course>
  <speed>0.0</speed>
  <fix>3d</fix>
</trkpt>
<trkpt lat="40.0713749" lon="-105.229789">
  <ele>1583.0</ele>
  <time>2026-09-02T20:50:15Z</time>
  <course>0.0</course>
  <speed>0.0</speed>
  <fix>3d</fix>
</trkpt>
<trkpt lat="40.0713749" lon="-105.229789">
  <ele>1583.0</ele>
  <time>2026-09-02T20:50:15Z</time>
  <course>0.0</course>
  <speed>0.0</speed>
  <fix>3d</fix>
</trkpt>
<trkpt lat="40.0713749" lon="-105.229789">
  <ele>1583.0</ele>
  <time>2026-09-02T20:50:15Z</time>
  <course>0.0</course>
  <speed>0.0</speed>
  <fix>3d</fix>
</trkpt>
<trkpt lat="40.0713749" lon="-105.229789">
  <ele>1583.0</ele>
  <time>2026-09-02T20:50:15Z</time>
  <course>0.0</course>
  <speed>0.0</speed>
  <fix>3d</fix>
</trkpt>
<trkpt lat="40.0713749" lon="-105.229789">
  <ele>1583.0</ele>
  <time>2026-09-02T20:50:15Z</time>
  <course>0.0</course>
  <speed>0.0</speed>
  <fix>3d</fix>
</trkpt>
<trkpt lat="40.0713749" lon="-105.229789">
  <ele>1583.0</ele>
  <time>2026-09-02T20:50:15Z</time>
  <course>0.0</course>
  <speed>0.0</speed>
  <fix>3d</fix>
</trkpt>
<trkpt lat="40.0713749" lon="-105.229789">
  <ele>1583.0</ele>
  <time>2026-09-02T20:50:15Z</time>
  <course>0.0</course>
  <speed>0.0</speed>
  <fix>3d</fix>
</trkpt>
<trkpt lat="40.0713749" lon="-105.229789">
  <ele>1583.0</ele>
  <time>2026-09-02T20:50:15Z</time>
  <course>0.0</course>
  <speed>0.0</speed>
  <fix>3d</fix>
</trkpt>
<trkpt lat="40.0713749" lon="-105.229789">
  <ele>1583.0</ele>
  <time>2026-09-02T20:50:15Z</time>
  <course>0.0</course>
  <speed>0.0</speed>
  <fix>3d</fix>
</trkpt>
<trkpt lat="40.0713749" lon="-105.229789">
  <ele>1583.0</ele>
  <time>2026-09-02T20:50:15Z</time>
  <course>0.0</course>
  <speed>0.0</speed>
  <fix>3d</fix>
</trkpt>
<trkpt lat="40.0713749" lon="-105.229789">
  <ele>1583.0</ele>
  <time>2026-09-02T20:50:15Z</time>
  <course>0.0</course>
  <speed>0.0</speed>
  <fix>3d</fix>
</trkpt>
<trkpt lat="40.0713749" lon="-105.229789">
  <ele>1583.0</ele>
  <time>2026-09-02T20:50:15Z</time>
  <course>0.0</course>
  <speed>0.0</speed>
  <fix>3d</fix>
</trkpt>
<trkpt lat="40.0713749" lon="-105.229789">
  <ele>1583.0</ele>
  <time>2026-09-02T20:50:15Z</time>
  <course>0.0</course>
  <speed>0.0</speed>
  <fix>3d</fix>
</trkpt>
<trkpt lat="40.0713749" lon="-105.229789">
  <ele>1583.0</ele>
  <time>2026-09-02T20:50:15Z</time>
  <course>0.0</course>
  <speed>0.0</speed>
  <fix>3d</fix>
</trkpt>
<trkpt lat="40.0713749" lon="-105.229789">
  <ele>1583.0</ele>
  <time>2026-09-02T20:50:15Z</time>
  <course>0.0</course>
  <speed>0.0</speed>
  <fix>3d</fix>
</trkpt>
<trkpt lat="40.0713749" lon="-105.229789">
  <ele>1583.0</ele>
  <time>2026-09-02T20:50:15Z</time>
  <course>0.0</course>
  <speed>0.0</speed>
  <fix>3d</fix>
</trkpt>
<trkpt lat="40.0713749" lon="-105.229789">
  <ele>1583.0</ele>
  <time>2026-09-02T20:50:15Z</time>
  <course>0.0</course>
  <speed>0.0</speed>
  <fix>3d</fix>
</trkpt>
<trkpt lat="40.0713749" lon="-105.229789">
  <ele>1583.0</ele>
  <time>2026-09-02T20:50:15Z</time>
  <course>0.0</course>
  <speed>0.0</speed>
  <fix>3d</fix>
</trkpt>
<trkpt lat="40.0713749" lon="-105.229789">
  <ele>1583.0</ele>
  <time>2026-09-02T20:50:15Z</time>
  <course>0.0</course>
  <speed>0.0</speed>
  <fix>3d</fix>
</trkpt>
<trkpt lat="40.0713749" lon="-105.229789">
  <ele>1583.0</ele>
  <time>2026-09-02T20:50:15Z</time>
  <course>0.0</course>
  <speed>0.0</speed>
  <fix>3d</fix>
</trkpt>
<trkpt lat="40.0713749" lon="-105.229789">
  <ele>1583.0</ele>
  <time>2026-09-02T20:50:15Z</time>
  <course>0.0</course>
  <speed>0.0</speed>
  <fix>3d</fix>
</trkpt>
<trkpt lat="40.0713749" lon="-105.229789">
  <ele>1583.0</ele>
  <time>2026-09-02T20:50:15Z</time>
  <course>0.0</course>
  <speed>0.0</speed>
  <fix>3d</fix>
</trkpt>
<trkpt lat="40.0713749" lon="-105.229789">
  <ele>1583.0</ele>
  <time>2026-09-02T20:50:15Z</time>
  <course>0.0</course>
  <speed>0.0</speed>
  <fix>3d</fix>
</trkpt>
<trkpt lat="40.0713749" lon="-105.229789">
  <ele>1583.0</ele>
  <time>2026-09-02T20:50:15Z</time>
  <course>0.0</course>
  <speed>0.0</speed>
  <fix>3d</fix>
</trkpt>
<trkpt lat="40.0713749" lon="-105.229789">
  <ele>1583.0</ele>
  <time>2026-09-02T20:50:15Z</time>
  <course>0.0</course>
  <speed>0.0</speed>
  <fix>3d</fix>
</trkpt>
<trkpt lat="40.0713749" lon="-105.229789">
  <ele>1583.0</ele>
  <time>2026-09-02T20:50:15Z</time>
  <course>0.0</course>
  <speed>0.0</speed>
  <fix>3d</fix>
</trkpt>
<trkpt lat="40.0713749" lon="-105.229789">
  <ele>1583.0</ele>
  <time>2026-09-02T20:50:15Z</time>
  <course>0.0</course>
  <speed>0.0</speed>
  <fix>3d</fix>
</trkpt>
<trkpt lat="40.0713749" lon="-105.229789">
  <ele>1583.0</ele>
  <time>2026-09-02T20:50:15Z</time>
  <course>0.0</course>
  <speed>0.0</speed>
  <fix>3d</fix>
</trkpt>
<trkpt lat="40.0713749" lon="-105.229789">
  <ele>1583.0</ele>
  <time>2026-09-02T20:50:15Z</time>
  <course>0.0</course>
  <speed>0.0</speed>
  <fix>3d</fix>
</trkpt>
<trkpt lat="40.0713749" lon="-105.229789">
  <ele>1583.0</ele>
  <time>2026-09-02T20:50:15Z</time>
  <course>0.0</course>
  <speed>0.0</speed>
  <fix>3d</fix>
</trkpt>
<trkpt lat="40.0713749" lon="-105.229789">
  <ele>1583.0</ele>
  <time>2026-09-02T20:50:15Z</time>
  <course>0.0</course>
  <speed>0.0</speed>
  <fix>3d</fix>
</trkpt>
<trkpt lat="40.0713749" lon="-105.229789">
  <ele>1583.0</ele>
  <time>2026-09-02T20:50:15Z</time>
  <course>0.0</course>
  <speed>0.0</speed>
  <fix>3d</fix>
</trkpt>
<trkpt lat="40.0713749" lon="-105.229789">
  <ele>1583.0</ele>
  <time>2026-09-02T20:50:15Z</time>
  <course>0.0</course>
  <speed>0.0</speed>
  <fix>3d</fix>
</trkpt>
<trkpt lat="40.0713749" lon="-105.229789">
  <ele>1583.0</ele>
  <time>2026-09-02T20:50:15Z</time>
  <course>0.0</course>
  <speed>0.0</speed>
  <fix>3d</fix>
</trkpt>
<trkpt lat="40.0713749" lon="-105.229789">
  <ele>1583.0</ele>
  <time>2026-09-02T20:50:15Z</time>
  <course>0.0</course>
  <speed>0.0</speed>
  <fix>3d</fix>
</trkpt>
<trkpt lat="40.0713749" lon="-105.229789">
  <ele>1583.0</ele>
  <time>2026-09-02T20:50:15Z</time>
  <course>0.0</course>
  <speed>0.0</speed>
  <fix>3d</fix>
</trkpt>
<trkpt lat="40.0713749" lon="-105.229789">
  <ele>1583.0</ele>
  <time>2026-09-02T20:50:15Z</time>
  <course>0.0</course>
  <speed>0.0</speed>
  <fix>3d</fix>
</trkpt>
<trkpt lat="40.0713749" lon="-105.229789">
  <ele>1583.0</ele>
  <time>2026-09-02T20:50:15Z</time>
  <course>0.0</course>
  <speed>0.0</speed>
  <fix>3d</fix>
</trkpt>
<trkpt lat="40.0713749" lon="-105.229789">
  <ele>1583.0</ele>
  <time>2026-09-02T20:50:15Z</time>
  <course>0.0</course>
  <speed>0.0</speed>
  <fix>3d</fix>
</trkpt>
<trkpt lat="40.0713749" lon="-105.229789">
  <ele>1583.0</ele>
  <time>2026-09-02T20:50:15Z</time>
  <course>0.0</course>
  <speed>0.0</speed>
  <fix>3d</fix>
</trkpt>
<trkpt lat="40.0713749" lon="-105.229789">
  <ele>1583.0</ele>
  <time>2026-09-02T20:50:15Z</time>
  <course>0.0</course>
  <speed>0.0</speed>
  <fix>3d</fix>
</trkpt>
<trkpt lat="40.0713749" lon="-105.229789">
  <ele>1583.0</ele>
  <time>2026-09-02T20:50:15Z</time>
  <course>0.0</course>
  <speed>0.0</speed>
  <fix>3d</fix>
</trkpt>
<trkpt lat="40.0713749" lon="-105.229789">
  <ele>1583.0</ele>
  <time>2026-09-02T20:50:15Z</time>
  <course>0.0</course>
  <speed>0.0</speed>
  <fix>3d</fix>
</trkpt>
<trkpt lat="40.0713749" lon="-105.229789">
  <ele>1583.0</ele>
  <time>2026-09-02T20:50:15Z</time>
  <course>0.0</course>
  <speed>0.0</speed>
  <fix>3d</fix>
</trkpt>
<trkpt lat="40.0713749" lon="-105.229789">
  <ele>1583.0</ele>
  <time>2026-09-02T20:50:15Z</time>
  <course>0.0</course>
  <speed>0.0</speed>
  <fix>3d</fix>
</trkpt>
<trkpt lat="40.0713749" lon="-105.229789">
  <ele>1583.0</ele>
  <time>2026-09-02T20:50:15Z</time>
  <course>0.0</course>
  <speed>0.0</speed>
  <fix>3d</fix>
</trkpt>
<trkpt lat="40.0713749" lon="-105.229789">
  <ele>1583.0</ele>
  <time>2026-09-02T20:50:15Z</time>
  <course>0.0</course>
  <speed>0.0</speed>
  <fix>3d</fix>
</trkpt>
<trkpt lat="40.0713749" lon="-105.229789">
  <ele>1583.0</ele>
  <time>2026-09-02T20:50:15Z</time>
  <course>0.0</course>
  <speed>0.0</speed>
  <fix>3d</fix>
</trkpt>
<trkpt lat="40.0713749" lon="-105.229789">
  <ele>1583.0</ele>
  <time>2026-09-02T20:50:15Z</time>
  <course>0.0</course>
  <speed>0.0</speed>
  <fix>3d</fix>
</trkpt>
<trkpt lat="40.0713749" lon="-105.229789">
  <ele>1583.0</ele>
  <time>2026-09-02T20:50:15Z</time>
  <course>0.0</course>
  <speed>0.0</speed>
  <fix>3d</fix>
</trkpt>
<trkpt lat="40.0713749" lon="-105.229789">
  <ele>1583.0</ele>
  <time>2026-09-02T20:50:15Z</time>
  <course>0.0</course>
  <speed>0.0</speed>
  <fix>3d</fix>
</trkpt>
<trkpt lat="40.0713749" lon="-105.229789">
  <ele>1583.0</ele>
  <time>2026-09-02T20:50:15Z</time>
  <course>0.0</course>
  <speed>0.0</speed>
  <fix>3d</fix>
</trkpt>
<trkpt lat="40.0713749" lon="-105.229789">
  <ele>1583.0</ele>
  <time>2026-09-02T20:50:15Z</time>
  <course>0.0</course>
  <speed>0.0</speed>
  <fix>3d</fix>
</trkpt>
<trkpt lat="40.0713749" lon="-105.229789">
  <ele>1583.0</ele>
  <time>2026-09-02T20:50:15Z</time>
  <course>0.0</course>
  <speed>0.0</speed>
  <fix>3d</fix>
</trkpt>
<trkpt lat="40.0713749" lon="-105.229789">
  <ele>1583.0</ele>
  <time>2026-09-02T20:50:15Z</time>
  <course>0.0</course>
  <speed>0.0</speed>
  <fix>3d</fix>
</trkpt>
<trkpt lat="40.0713749" lon="-105.229789">
  <ele>1583.0</ele>
  <time>2026-09-02T20:50:15Z</time>
  <course>0.0</course>
  <speed>0.0</speed>
  <fix>3d</fix>
</trkpt>
<trkpt lat="40.0713749" lon="-105.229789">
  <ele>1583.0</ele>
  <time>2026-09-02T20:50:15Z</time>
  <course>0.0</course>
  <speed>0.0</speed>
  <fix>3d</fix>
</trkpt>
<trkpt lat="40.0713749" lon="-105.229789">
  <ele>1583.0</ele>
  <time>2026-09-02T20:50:15Z</time>
  <course>0.0</course>
  <speed>0.0</speed>
  <fix>3d</fix>
</trkpt>
<trkpt lat="40.0713749" lon="-105.229789">
  <ele>1583.0</ele>
  <time>2026-09-02T20:50:15Z</time>
  <course>0.0</course>
  <speed>0.0</speed>
  <fix>3d</fix>
</trkpt>
<trkpt lat="40.0713749" lon="-105.229789">
  <ele>1583.0</ele>
  <time>2026-09-02T20:50:15Z</time>
  <course>0.0</course>
  <speed>0.0</speed>
  <fix>3d</fix>
</trkpt>
<trkpt lat="40.0713749" lon="-105.229789">
  <ele>1583.0</ele>
  <time>2026-09-02T20:50:15Z</time>
  <course>0.0</course>
  <speed>0.0</speed>
  <fix>3d</fix>
</trkpt>
<trkpt lat="40.0713749" lon="-105.229789">
  <ele>1583.0</ele>
  <time>2026-09-02T20:50:15Z</time>
  <course>0.0</course>
  <speed>0.0</speed>
  <fix>3d</fix>
</trkpt>
<trkpt lat="40.0713749" lon="-105.229789">
  <ele>1583.0</ele>
  <time>2026-09-02T20:50:15Z</time>
  <course>0.0</course>
  <speed>0.0</speed>
  <fix>3d</fix>
</trkpt>
<trkpt lat="40.0713749" lon="-105.229789">
  <ele>1583.0</ele>
  <time>2026-09-02T20:50:15Z</time>
  <course>0.0</course>
  <speed>0.0</speed>
  <fix>3d</fix>
</trkpt>
<trkpt lat="40.0713749" lon="-105.229789">
  <ele>1583.0</ele>
  <time>2026-09-02T20:50:15Z</time>
  <course>0.0</course>
  <speed>0.0</speed>
  <fix>3d</fix>
</trkpt>
<trkpt lat="40.0713749" lon="-105.229789">
  <ele>1583.0</ele>
  <time>2026-09-02T20:50:15Z</time>
  <course>0.0</course>
  <speed>0.0</speed>
  <fix>3d</fix>
</trkpt>
<trkpt lat="40.0713749" lon="-105.229789">
  <ele>1583.0</ele>
  <time>2026-09-02T20:50:15Z</time>
  <course>0.0</course>
  <speed>0.0</speed>
  <fix>3d</fix>
</trkpt>
<trkpt lat="40.0713749" lon="-105.229789">
  <ele>1583.0</ele>
  <time>2026-09-02T20:50:15Z</time>
  <course>0.0</course>
  <speed>0.0</speed>
  <fix>3d</fix>
</trkpt>
<trkpt lat="40.0713749" lon="-105.229789">
  <ele>1583.0</ele>
  <time>2026-09-02T20:50:15Z</time>
  <course>0.0</course>
  <speed>0.0</speed>
  <fix>3d</fix>
</trkpt>
<trkpt lat="40.0713749" lon="-105.229789">
  <ele>1583.0</ele>
  <time>2026-09-02T20:50:15Z</time>
  <course>0.0</course>
  <speed>0.0</speed>
  <fix>3d</fix>
</trkpt>
<trkpt lat="40.0713749" lon="-105.229789">
  <ele>1583.0</ele>
  <time>2026-09-02T20:50:15Z</time>
  <course>0.0</course>
  <speed>0.0</speed>
  <fix>3d</fix>
</trkpt>
<trkpt lat="40.0713749" lon="-105.229789">
  <ele>1583.0</ele>
  <time>2026-09-02T20:50:15Z</time>
  <course>0.0</course>
  <speed>0.0</speed>
  <fix>3d</fix>
</trkpt>
<trkpt lat="40.0713749" lon="-105.229789">
  <ele>1583.0</ele>
  <time>2026-09-02T20:50:15Z</time>
  <course>0.0</course>
  <speed>0.0</speed>
  <fix>3d</fix>
</trkpt>
<trkpt lat="40.0713749" lon="-105.229789">
  <ele>1583.0</ele>
  <time>2026-09-02T20:50:15Z</time>
  <course>0.0</course>
  <speed>0.0</speed>
  <fix>3d</fix>
</trkpt>
<trkpt lat="40.0713749" lon="-105.229789">
  <ele>1583.0</ele>
  <time>2026-09-02T20:50:15Z</time>
  <course>0.0</course>
  <speed>0.0</speed>
  <fix>3d</fix>
</trkpt>
<trkpt lat="40.0713749" lon="-105.229789">
  <ele>1583.0</ele>
  <time>2026-09-02T20:50:15Z</time>
  <course>0.0</course>
  <speed>0.0</speed>
  <fix>3d</fix>
</trkpt>
<trkpt lat="40.0713749" lon="-105.229789">
  <ele>1583.0</ele>
  <time>2026-09-02T20:50:15Z</time>
  <course>0.0</course>
  <speed>0.0</speed>
  <fix>3d</fix>
</trkpt>
<trkpt lat="40.0713749" lon="-105.229789">
  <ele>1583.0</ele>
  <time>2026-09-02T20:50:15Z</time>
  <course>0.0</course>
  <speed>0.0</speed>
  <fix>3d</fix>
</trkpt>
<trkpt lat="40.0713749" lon="-105.229789">
  <ele>1583.0</ele>
  <time>2026-09-02T20:50:15Z</time>
  <course>0.0</course>
  <speed>0.0</speed>
  <fix>3d</fix>
</trkpt>
<trkpt lat="40.0713749" lon="-105.229789">
  <ele>1583.0</ele>
  <time>2026-09-02T20:50:15Z</time>
  <course>0.0</course>
  <speed>0.0</speed>
  <fix>3d</fix>
</trkpt>
<trkpt lat="40.0713749" lon="-105.229789">
  <ele>1583.0</ele>
  <time>2026-09-02T20:50:15Z</time>
  <course>0.0</course>
  <speed>0.0</speed>
  <fix>3d</fix>
</trkpt>
<trkpt lat="40.0713749" lon="-105.229789">
  <ele>1583.0</ele>
  <time>2026-09-02T20:50:15Z</time>
  <course>0.0</course>
  <speed>0.0</speed>
  <fix>3d</fix>
</trkpt>
<trkpt lat="40.0713749" lon="-105.229789">
  <ele>1583.0</ele>
  <time>2026-09-02T20:50:15Z</time>
  <course>0.0</course>
  <speed>0.0</speed>
  <fix>3d</fix>
</trkpt>
<trkpt lat="40.0713749" lon="-105.229789">
  <ele>1583.0</ele>
  <time>2026-09-02T20:50:15Z</time>
  <course>0.0</course>
  <speed>0.0</speed>
  <fix>3d</fix>
</trkpt>
<trkpt lat="40.0713749" lon="-105.229789">
  <ele>1583.0</ele>
  <time>2026-09-02T20:50:15Z</time>
  <course>0.0</course>
  <speed>0.0</speed>
  <fix>3d</fix>
</trkpt>
<trkpt lat="40.0713749" lon="-105.229789">
  <ele>1583.0</ele>
  <time>2026-09-02T20:50:15Z</time>
  <course>0.0</course>
  <speed>0.0</speed>
  <fix>3d</fix>
</trkpt>
<trkpt lat="40.0713749" lon="-105.229789">
  <ele>1583.0</ele>
  <time>2026-09-02T20:50:15Z</time>
  <course>0.0</course>
  <speed>0.0</speed>
  <fix>3d</fix>
</trkpt>
<trkpt lat="40.0713749" lon="-105.229789">
  <ele>1583.0</ele>
  <time>2026-09-02T20:50:15Z</time>
  <course>0.0</course>
  <speed>0.0</speed>
  <fix>3d</fix>
</trkpt>
<trkpt lat="40.0713749" lon="-105.229789">
  <ele>1583.0</ele>
  <time>2026-09-02T20:50:15Z</time>
  <course>0.0</course>
  <speed>0.0</speed>
  <fix>3d</fix>
</trkpt>
<trkpt lat="40.0713749" lon="-105.229789">
  <ele>1583.0</ele>
  <time>2026-09-02T20:50:15Z</time>
  <course>0.0</course>
  <speed>0.0</speed>
  <fix>3d</fix>
</trkpt>
<trkpt lat="40.0713749" lon="-105.229789">
  <ele>1583.0</ele>
  <time>2026-09-02T20:50:15Z</time>
  <course>0.0</course>
  <speed>0.0</speed>
  <fix>3d</fix>
</trkpt>
<trkpt lat="40.0713749" lon="-105.229789">
  <ele>1583.0</ele>
  <time>2026-09-02T20:50:15Z</time>
  <course>0.0</course>
  <speed>0.0</speed>
  <fix>3d</fix>
</trkpt>
<trkpt lat="40.0713749" lon="-105.229789">
  <ele>1583.0</ele>
  <time>2026-09-02T20:50:15Z</time>
  <course>0.0</course>
  <speed>0.0</speed>
  <fix>3d</fix>
</trkpt>
<trkpt lat="40.0713749" lon="-105.229789">
  <ele>1583.0</ele>
  <time>2026-09-02T20:50:15Z</time>
  <course>0.0</course>
  <speed>0.0</speed>
  <fix>3d</fix>
</trkpt>
<trkpt lat="40.0713749" lon="-105.229789">
  <ele>1583.0</ele>
  <time>2026-09-02T20:50:15Z</time>
  <course>0.0</course>
  <speed>0.0</speed>
  <fix>3d</fix>
</trkpt>
<trkpt lat="40.0713749" lon="-105.229789">
  <ele>1583.0</ele>
  <time>2026-09-02T20:50:15Z</time>
  <course>0.0</course>
  <speed>0.0</speed>
  <fix>3d</fix>
</trkpt>
<trkpt lat="40.0713749" lon="-105.229789">
  <ele>1583.0</ele>
  <time>2026-09-02T20:50:15Z</time>
  <course>0.0</course>
  <speed>0.0</speed>
  <fix>3d</fix>
</trkpt>
<trkpt lat="40.0713749" lon="-105.229789">
  <ele>1583.0</ele>
  <time>2026-09-02T20:50:15Z</time>
  <course>0.0</course>
  <speed>0.0</speed>
  <fix>3d</fix>
</trkpt>
<trkpt lat="40.0713749" lon="-105.229789">
  <ele>1583.0</ele>
  <time>2026-09-02T20:50:15Z</time>
  <course>0.0</course>
  <speed>0.0</speed>
  <fix>3d</fix>
</trkpt>
<trkpt lat="40.0713749" lon="-105.229789">
  <ele>1583.0</ele>
  <time>2026-09-02T20:50:15Z</time>
  <course>0.0</course>
  <speed>0.0</speed>
  <fix>3d</fix>
</trkpt>
<trkpt lat="40.0713749" lon="-105.229789">
  <ele>1583.0</ele>
  <time>2026-09-02T20:50:15Z</time>
  <course>0.0</course>
  <speed>0.0</speed>
  <fix>3d</fix>
</trkpt>
<trkpt lat="40.0713749" lon="-105.229789">
  <ele>1583.0</ele>
  <time>2026-09-02T20:50:15Z</time>
  <course>0.0</course>
  <speed>0.0</speed>
  <fix>3d</fix>
</trkpt>
<trkpt lat="40.0713749" lon="-105.229789">
  <ele>1583.0</ele>
  <time>2026-09-02T20:50:15Z</time>
  <course>0.0</course>
  <speed>0.0</speed>
  <fix>3d</fix>
</trkpt>
<trkpt lat="40.0713749" lon="-105.229789">
  <ele>1583.0</ele>
  <time>2026-09-02T20:50:15Z</time>
  <course>0.0</course>
  <speed>0.0</speed>
  <fix>3d</fix>
</trkpt>
<trkpt lat="40.0713749" lon="-105.229789">
  <ele>1583.0</ele>
  <time>2026-09-02T20:50:15Z</time>
  <course>0.0</course>
  <speed>0.0</speed>
  <fix>3d</fix>
</trkpt>
<trkpt lat="40.0713749" lon="-105.229789">
  <ele>1583.0</ele>
  <time>2026-09-02T20:50:15Z</time>
  <course>0.0</course>
  <speed>0.0</speed>
  <fix>3d</fix>
</trkpt>
<trkpt lat="40.0713749" lon="-105.229789">
  <ele>1583.0</ele>
  <time>2026-09-02T20:50:15Z</time>
  <course>0.0</course>
  <speed>0.0</speed>
  <fix>3d</fix>
</trkpt>
<trkpt lat="40.0713749" lon="-105.229789">
  <ele>1583.0</ele>
  <time>2026-09-02T20:50:15Z</time>
  <course>0.0</course>
  <speed>0.0</speed>
  <fix>3d</fix>
</trkpt>
<trkpt lat="40.0713749" lon="-105.229789">
  <ele>1583.0</ele>
  <time>2026-09-02T20:50:15Z</time>
  <course>0.0</course>
  <speed>0.0</speed>
  <fix>3d</fix>
</trkpt>
<trkpt lat="40.0713749" lon="-105.229789">
  <ele>1583.0</ele>
  <time>2026-09-02T20:50:15Z</time>
  <course>0.0</course>
  <speed>0.0</speed>
  <fix>3d</fix>
</trkpt>
<trkpt lat="40.0713749" lon="-105.229789">
  <ele>1583.0</ele>
  <time>2026-09-02T20:50:15Z</time>
  <course>0.0</course>
  <speed>0.0</speed>
  <fix>3d</fix>
</trkpt>
<trkpt lat="40.0713749" lon="-105.229789">
  <ele>1583.0</ele>
  <time>2026-09-02T20:50:15Z</time>
  <course>0.0</course>
  <speed>0.0</speed>
  <fix>3d</fix>
</trkpt>
<trkpt lat="40.0713749" lon="-105.229789">
  <ele>1583.0</ele>
  <time>2026-09-02T20:50:15Z</time>
  <course>0.0</course>
  <speed>0.0</speed>
  <fix>3d</fix>
</trkpt>
<trkpt lat="40.0713749" lon="-105.229789">
  <ele>1583.0</ele>
  <time>2026-09-02T20:50:15Z</time>
  <course>0.0</course>
  <speed>0.0</speed>
  <fix>3d</fix>
</trkpt>
<trkpt lat="40.0713749" lon="-105.229789">
  <ele>1583.0</ele>
  <time>2026-09-02T20:50:15Z</time>
  <course>0.0</course>
  <speed>0.0</speed>
  <fix>3d</fix>
</trkpt>
<trkpt lat="40.0713749" lon="-105.229789">
  <ele>1583.0</ele>
  <time>2026-09-02T20:50:15Z</time>
  <course>0.0</course>
  <speed>0.0</speed>
  <fix>3d</fix>
</trkpt>
<trkpt lat="40.0713749" lon="-105.229789">
  <ele>1583.0</ele>
  <time>2026-09-02T20:50:15Z</time>
  <course>0.0</course>
  <speed>0.0</speed>
  <fix>3d</fix>
</trkpt>
<trkpt lat="40.0713749" lon="-105.229789">
  <ele>1583.0</ele>
  <time>2026-09-02T20:50:15Z</time>
  <course>0.0</course>
  <speed>0.0</speed>
  <fix>3d</fix>
</trkpt>
<trkpt lat="40.0713749" lon="-105.229789">
  <ele>1583.0</ele>
  <time>2026-09-02T20:50:15Z</time>
  <course>0.0</course>
  <speed>0.0</speed>
  <fix>3d</fix>
</trkpt>
<trkpt lat="40.0713749" lon="-105.229789">
  <ele>1583.0</ele>
  <time>2026-09-02T20:50:15Z</time>
  <course>0.0</course>
  <speed>0.0</speed>
  <fix>3d</fix>
</trkpt>
<trkpt lat="40.0713749" lon="-105.229789">
  <ele>1583.0</ele>
  <time>2026-09-02T20:50:15Z</time>
  <course>0.0</course>
  <speed>0.0</speed>
  <fix>3d</fix>
</trkpt>
<trkpt lat="40.0713749" lon="-105.229789">
  <ele>1583.0</ele>
  <time>2026-09-02T20:50:15Z</time>
  <course>0.0</course>
  <speed>0.0</speed>
  <fix>3d</fix>
</trkpt>
<trkpt lat="40.0713749" lon="-105.229789">
  <ele>1583.0</ele>
  <time>2026-09-02T20:50:15Z</time>
  <course>0.0</course>
  <speed>0.0</speed>
  <fix>3d</fix>
</trkpt>
<trkpt lat="40.0713749" lon="-105.229789">
  <ele>1583.0</ele>
  <time>2026-09-02T20:50:15Z</time>
  <course>0.0</course>
  <speed>0.0</speed>
  <fix>3d</fix>
</trkpt>
<trkpt lat="40.0713749" lon="-105.229789">
  <ele>1583.0</ele>
  <time>2026-09-02T20:50:15Z</time>
  <course>0.0</course>
  <speed>0.0</speed>
  <fix>3d</fix>
</trkpt>
<trkpt lat="40.0713749" lon="-105.229789">
  <ele>1583.0</ele>
  <time>2026-09-02T20:50:15Z</time>
  <course>0.0</course>
  <speed>0.0</speed>
  <fix>3d</fix>
</trkpt>
<trkpt lat="40.0713749" lon="-105.229789">
  <ele>1583.0</ele>
  <time>2026-09-02T20:50:15Z</time>
  <course>0.0</course>
  <speed>0.0</speed>
  <fix>3d</fix>
</trkpt>
<trkpt lat="40.0713749" lon="-105.229789">
  <ele>1583.0</ele>
  <time>2026-09-02T20:50:15Z</time>
  <course>0.0</course>
  <speed>0.0</speed>
  <fix>3d</fix>
</trkpt>
<trkpt lat="40.0713749" lon="-105.229789">
  <ele>1583.0</ele>
  <time>2026-09-02T20:50:15Z</time>
  <course>0.0</course>
  <speed>0.0</speed>
  <fix>3d</fix>
</trkpt>
<trkpt lat="40.0713749" lon="-105.229789">
  <ele>1583.0</ele>
  <time>2026-09-02T20:50:15Z</time>
  <course>0.0</course>
  <speed>0.0</speed>
  <fix>3d</fix>
</trkpt>
<trkpt lat="40.0713749" lon="-105.229789">
  <ele>1583.0</ele>
  <time>2026-09-02T20:50:15Z</time>
  <course>0.0</course>
  <speed>0.0</speed>
  <fix>3d</fix>
</trkpt>
<trkpt lat="40.0713749" lon="-105.229789">
  <ele>1583.0</ele>
  <time>2026-09-02T20:50:15Z</time>
  <course>0.0</course>
  <speed>0.0</speed>
  <fix>3d</fix>
</trkpt>
<trkpt lat="40.0713749" lon="-105.229789">
  <ele>1583.0</ele>
  <time>2026-09-02T20:50:15Z</time>
  <course>0.0</course>
  <speed>0.0</speed>
  <fix>3d</fix>
</trkpt>
<trkpt lat="40.0713749" lon="-105.229789">
  <ele>1583.0</ele>
  <time>2026-09-02T20:50:15Z</time>
  <course>0.0</course>
  <speed>0.0</speed>
  <fix>3d</fix>
</trkpt>
<trkpt lat="40.0713749" lon="-105.229789">
  <ele>1583.0</ele>
  <time>2026-09-02T20:50:15Z</time>
  <course>0.0</course>
  <speed>0.0</speed>
  <fix>3d</fix>
</trkpt>
<trkpt lat="40.0713749" lon="-105.229789">
  <ele>1583.0</ele>
  <time>2026-09-02T20:50:15Z</time>
  <course>0.0</course>
  <speed>0.0</speed>
  <fix>3d</fix>
</trkpt>
<trkpt lat="40.0713749" lon="-105.229789">
  <ele>1583.0</ele>
  <time>2026-09-02T20:50:15Z</time>
  <course>0.0</course>
  <speed>0.0</speed>
  <fix>3d</fix>
</trkpt>
<trkpt lat="40.0713749" lon="-105.229789">
  <ele>1583.0</ele>
  <time>2026-09-02T20:50:15Z</time>
  <course>0.0</course>
  <speed>0.0</speed>
  <fix>3d</fix>
</trkpt>
<trkpt lat="40.0713749" lon="-105.229789">
  <ele>1583.0</ele>
  <time>2026-09-02T20:50:15Z</time>
  <course>0.0</course>
  <speed>0.0</speed>
  <fix>3d</fix>
</trkpt>
<trkpt lat="40.0713749" lon="-105.229789">
  <ele>1583.0</ele>
  <time>2026-09-02T20:50:15Z</time>
  <course>0.0</course>
  <speed>0.0</speed>
  <fix>3d</fix>
</trkpt>
<trkpt lat="40.0713749" lon="-105.229789">
  <ele>1583.0</ele>
  <time>2026-09-02T20:50:15Z</time>
  <course>0.0</course>
  <speed>0.0</speed>
  <fix>3d</fix>
</trkpt>
<trkpt lat="40.0713749" lon="-105.229789">
  <ele>1583.0</ele>
  <time>2026-09-02T20:50:15Z</time>
  <course>0.0</course>
  <speed>0.0</speed>
  <fix>3d</fix>
</trkpt>
<trkpt lat="40.0713749" lon="-105.229789">
  <ele>1583.0</ele>
  <time>2026-09-02T20:50:15Z</time>
  <course>0.0</course>
  <speed>0.0</speed>
  <fix>3d</fix>
</trkpt>
<trkpt lat="40.0713749" lon="-105.229789">
  <ele>1583.0</ele>
  <time>2026-09-02T20:50:15Z</time>
  <course>0.0</course>
  <speed>0.0</speed>
  <fix>3d</fix>
</trkpt>
<trkpt lat="40.0713749" lon="-105.229789">
  <ele>1583.0</ele>
  <time>2026-09-02T20:50:15Z</time>
  <course>0.0</course>
  <speed>0.0</speed>
  <fix>3d</fix>
</trkpt>
<trkpt lat="40.0713749" lon="-105.229789">
  <ele>1583.0</ele>
  <time>2026-09-02T20:50:15Z</time>
  <course>0.0</course>
  <speed>0.0</speed>
  <fix>3d</fix>
</trkpt>
<trkpt lat="40.0713749" lon="-105.229789">
  <ele>1583.0</ele>
  <time>2026-09-02T20:50:15Z</time>
  <course>0.0</course>
  <speed>0.0</speed>
  <fix>3d</fix>
</trkpt>
<trkpt lat="40.0713749" lon="-105.229789">
  <ele>1583.0</ele>
  <time>2026-09-02T20:50:15Z</time>
  <course>0.0</course>
  <speed>0.0</speed>
  <fix>3d</fix>
</trkpt>
<trkpt lat="40.0713749" lon="-105.229789">
  <ele>1583.0</ele>
  <time>2026-09-02T20:50:15Z</time>
  <course>0.0</course>
  <speed>0.0</speed>
  <fix>3d</fix>
</trkpt>
<trkpt lat="40.0713749" lon="-105.229789">
  <ele>1583.0</ele>
  <time>2026-09-02T20:50:15Z</time>
  <course>0.0</course>
  <speed>0.0</speed>
  <fix>3d</fix>
</trkpt>
<trkpt lat="40.0713749" lon="-105.229789">
  <ele>1583.0</ele>
  <time>2026-09-02T20:50:15Z</time>
  <course>0.0</course>
  <speed>0.0</speed>
  <fix>3d</fix>
</trkpt>
<trkpt lat="40.0713749" lon="-105.229789">
  <ele>1583.0</ele>
  <time>2026-09-02T20:50:15Z</time>
  <course>0.0</course>
  <speed>0.0</speed>
  <fix>3d</fix>
</trkpt>
<trkpt lat="40.0713749" lon="-105.229789">
  <ele>1583.0</ele>
  <time>2026-09-02T20:50:15Z</time>
  <course>0.0</course>
  <speed>0.0</speed>
  <fix>3d</fix>
</trkpt>
<trkpt lat="40.0713749" lon="-105.229789">
  <ele>1583.0</ele>
  <time>2026-09-02T20:50:15Z</time>
  <course>0.0</course>
  <speed>0.0</speed>
  <fix>3d</fix>
</trkpt>
<trkpt lat="40.0713749" lon="-105.229789">
  <ele>1583.0</ele>
  <time>2026-09-02T20:50:15Z</time>
  <course>0.0</course>
  <speed>0.0</speed>
  <fix>3d</fix>
</trkpt>
<trkpt lat="40.0713749" lon="-105.229789">
  <ele>1583.0</ele>
  <time>2026-09-02T20:50:15Z</time>
  <course>0.0</course>
  <speed>0.0</speed>
  <fix>3d</fix>
</trkpt>
<trkpt lat="40.0713749" lon="-105.229789">
  <ele>1583.0</ele>
  <time>2026-09-02T20:50:15Z</time>
  <course>0.0</course>
  <speed>0.0</speed>
  <fix>3d</fix>
</trkpt>
<trkpt lat="40.0713749" lon="-105.229789">
  <ele>1583.0</ele>
  <time>2026-09-02T20:50:15Z</time>
  <course>0.0</course>
  <speed>0.0</speed>
  <fix>3d</fix>
</trkpt>
<trkpt lat="40.0713749" lon="-105.229789">
  <ele>1583.0</ele>
  <time>2026-09-02T20:50:15Z</time>
  <course>0.0</course>
  <speed>0.0</speed>
  <fix>3d</fix>
</trkpt>
<trkpt lat="40.0713749" lon="-105.229789">
  <ele>1583.0</ele>
  <time>2026-09-02T20:50:15Z</time>
  <course>0.0</course>
  <speed>0.0</speed>
  <fix>3d</fix>
</trkpt>
<trkpt lat="40.0713749" lon="-105.229789">
  <ele>1583.0</ele>
  <time>2026-09-02T20:50:15Z</time>
  <course>0.0</course>
  <speed>0.0</speed>
  <fix>3d</fix>
</trkpt>
<trkpt lat="40.0713749" lon="-105.229789">
  <ele>1583.0</ele>
  <time>2026-09-02T20:50:15Z</time>
  <course>0.0</course>
  <speed>0.0</speed>
  <fix>3d</fix>
</trkpt>
<trkpt lat="40.0713749" lon="-105.229789">
  <ele>1583.0</ele>
  <time>2026-09-02T20:50:15Z</time>
  <course>0.0</course>
  <speed>0.0</speed>
  <fix>3d</fix>
</trkpt>
<trkpt lat="40.0713749" lon="-105.229789">
  <ele>1583.0</ele>
  <time>2026-09-02T20:50:15Z</time>
  <course>0.0</course>
  <speed>0.0</speed>
  <fix>3d</fix>
</trkpt>
<trkpt lat="40.0713749" lon="-105.229789">
  <ele>1583.0</ele>
  <time>2026-09-02T20:50:15Z</time>
  <course>0.0</course>
  <speed>0.0</speed>
  <fix>3d</fix>
</trkpt>
<trkpt lat="40.0713749" lon="-105.229789">
  <ele>1583.0</ele>
  <time>2026-09-02T20:50:15Z</time>
  <course>0.0</course>
  <speed>0.0</speed>
  <fix>3d</fix>
</trkpt>
<trkpt lat="40.0713749" lon="-105.229789">
  <ele>1583.0</ele>
  <time>2026-09-02T20:50:15Z</time>
  <course>0.0</course>
  <speed>0.0</speed>
  <fix>3d</fix>
</trkpt>
<trkpt lat="40.0713749" lon="-105.229789">
  <ele>1583.0</ele>
  <time>2026-09-02T20:50:15Z</time>
  <course>0.0</course>
  <speed>0.0</speed>
  <fix>3d</fix>
</trkpt>
<trkpt lat="40.0713749" lon="-105.229789">
  <ele>1583.0</ele>
  <time>2026-09-02T20:50:15Z</time>
  <course>0.0</course>
  <speed>0.0</speed>
  <fix>3d</fix>
</trkpt>
<trkpt lat="40.0713749" lon="-105.229789">
  <ele>1583.0</ele>
  <time>2026-09-02T20:50:15Z</time>
  <course>0.0</course>
  <speed>0.0</speed>
  <fix>3d</fix>
</trkpt>
<trkpt lat="40.0713749" lon="-105.229789">
  <ele>1583.0</ele>
  <time>2026-09-02T20:50:15Z</time>
  <course>0.0</course>
  <speed>0.0</speed>
  <fix>3d</fix>
</trkpt>
<trkpt lat="40.0713749" lon="-105.229789">
  <ele>1583.0</ele>
  <time>2026-09-02T20:50:15Z</time>
  <course>0.0</course>
  <speed>0.0</speed>
  <fix>3d</fix>
</trkpt>
<trkpt lat="40.0713749" lon="-105.229789">
  <ele>1583.0</ele>
  <time>2026-09-02T20:50:15Z</time>
  <course>0.0</course>
  <speed>0.0</speed>
  <fix>3d</fix>
</trkpt>
<trkpt lat="40.0713749" lon="-105.229789">
  <ele>1583.0</ele>
  <time>2026-09-02T20:50:15Z</time>
  <course>0.0</course>
  <speed>0.0</speed>
  <fix>3d</fix>
</trkpt>
<trkpt lat="40.0713749" lon="-105.229789">
  <ele>1583.0</ele>
  <time>2026-09-02T20:50:15Z</time>
  <course>0.0</course>
  <speed>0.0</speed>
  <fix>3d</fix>
</trkpt>
<trkpt lat="40.0713749" lon="-105.229789">
  <ele>1583.0</ele>
  <time>2026-09-02T20:50:15Z</time>
  <course>0.0</course>
  <speed>0.0</speed>
  <fix>3d</fix>
</trkpt>
<trkpt lat="40.0713749" lon="-105.229789">
  <ele>1583.0</ele>
  <time>2026-09-02T20:50:15Z</time>
  <course>0.0</course>
  <speed>0.0</speed>
  <fix>3d</fix>
</trkpt>
<trkpt lat="40.0713749" lon="-105.229789">
  <ele>1583.0</ele>
  <time>2026-09-02T20:50:15Z</time>
  <course>0.0</course>
  <speed>0.0</speed>
  <fix>3d</fix>
</trkpt>
<trkpt lat="40.0713749" lon="-105.229789">
  <ele>1583.0</ele>
  <time>2026-09-02T20:50:15Z</time>
  <course>0.0</course>
  <speed>0.0</speed>
  <fix>3d</fix>
</trkpt>
<trkpt lat="40.0713749" lon="-105.229789">
  <ele>1583.0</ele>
  <time>2026-09-02T20:50:15Z</time>
  <course>0.0</course>
  <speed>0.0</speed>
  <fix>3d</fix>
</trkpt>
<trkpt lat="40.0713749" lon="-105.229789">
  <ele>1583.0</ele>
  <time>2026-09-02T20:50:15Z</time>
  <course>0.0</course>
  <speed>0.0</speed>
  <fix>3d</fix>
</trkpt>
<trkpt lat="40.0713749" lon="-105.229789">
  <ele>1583.0</ele>
  <time>2026-09-02T20:50:15Z</time>
  <course>0.0</course>
  <speed>0.0</speed>
  <fix>3d</fix>
</trkpt>
<trkpt lat="40.0713749" lon="-105.229789">
  <ele>1583.0</ele>
  <time>2026-09-02T20:50:15Z</time>
  <course>0.0</course>
  <speed>0.0</speed>
  <fix>3d</fix>
</trkpt>
<trkpt lat="40.0713749" lon="-105.229789">
  <ele>1583.0</ele>
  <time>2026-09-02T20:50:15Z</time>
  <course>0.0</course>
  <speed>0.0</speed>
  <fix>3d</fix>
</trkpt>
<trkpt lat="40.0713749" lon="-105.229789">
  <ele>1583.0</ele>
  <time>2026-09-02T20:50:15Z</time>
  <course>0.0</course>
  <speed>0.0</speed>
  <fix>3d</fix>
</trkpt>
<trkpt lat="40.0713749" lon="-105.229789">
  <ele>1583.0</ele>
  <time>2026-09-02T20:50:15Z</time>
  <course>0.0</course>
  <speed>0.0</speed>
  <fix>3d</fix>
</trkpt>
<trkpt lat="40.0713749" lon="-105.229789">
  <ele>1583.0</ele>
  <time>2026-09-02T20:50:15Z</time>
  <course>0.0</course>
  <speed>0.0</speed>
  <fix>3d</fix>
</trkpt>
<trkpt lat="40.0713749" lon="-105.229789">
  <ele>1583.0</ele>
  <time>2026-09-02T20:50:15Z</time>
  <course>0.0</course>
  <speed>0.0</speed>
  <fix>3d</fix>
</trkpt>
<trkpt lat="40.0713749" lon="-105.229789">
  <ele>1583.0</ele>
  <time>2026-09-02T20:50:15Z</time>
  <course>0.0</course>
  <speed>0.0</speed>
  <fix>3d</fix>
</trkpt>
<trkpt lat="40.0713749" lon="-105.229789">
  <ele>1583.0</ele>
  <time>2026-09-02T20:50:15Z</time>
  <course>0.0</course>
  <speed>0.0</speed>
  <fix>3d</fix>
</trkpt>
<trkpt lat="40.0713749" lon="-105.229789">
  <ele>1583.0</ele>
  <time>2026-09-02T20:50:15Z</time>
  <course>0.0</course>
  <speed>0.0</speed>
  <fix>3d</fix>
</trkpt>
<trkpt lat="40.0713749" lon="-105.229789">
  <ele>1583.0</ele>
  <time>2026-09-02T20:50:15Z</time>
  <course>0.0</course>
  <speed>0.0</speed>
  <fix>3d</fix>
</trkpt>
<trkpt lat="40.0713749" lon="-105.229789">
  <ele>1583.0</ele>
  <time>2026-09-02T20:50:15Z</time>
  <course>0.0</course>
  <speed>0.0</speed>
  <fix>3d</fix>
</trkpt>
<trkpt lat="40.0713749" lon="-105.229789">
  <ele>1583.0</ele>
  <time>2026-09-02T20:50:15Z</time>
  <course>0.0</course>
  <speed>0.0</speed>
  <fix>3d</fix>
</trkpt>
<trkpt lat="40.0713749" lon="-105.229789">
  <ele>1583.0</ele>
  <time>2026-09-02T20:50:15Z</time>
  <course>0.0</course>
  <speed>0.0</speed>
  <fix>3d</fix>
</trkpt>
<trkpt lat="40.0713749" lon="-105.229789">
  <ele>1583.0</ele>
  <time>2026-09-02T20:50:15Z</time>
  <course>0.0</course>
  <speed>0.0</speed>
  <fix>3d</fix>
</trkpt>
<trkpt lat="40.0713749" lon="-105.229789">
  <ele>1583.0</ele>
  <time>2026-09-02T20:50:15Z</time>
  <course>0.0</course>
  <speed>0.0</speed>
  <fix>3d</fix>
</trkpt>
<trkpt lat="40.0713749" lon="-105.229789">
  <ele>1583.0</ele>
  <time>2026-09-02T20:50:15Z</time>
  <course>0.0</course>
  <speed>0.0</speed>
  <fix>3d</fix>
</trkpt>
<trkpt lat="40.0713749" lon="-105.229789">
  <ele>1583.0</ele>
  <time>2026-09-02T20:50:15Z</time>
  <course>0.0</course>
  <speed>0.0</speed>
  <fix>3d</fix>
</trkpt>
<trkpt lat="40.0713749" lon="-105.229789">
  <ele>1583.0</ele>
  <time>2026-09-02T20:50:15Z</time>
  <course>0.0</course>
  <speed>0.0</speed>
  <fix>3d</fix>
</trkpt>
<trkpt lat="40.0713749" lon="-105.229789">
  <ele>1583.0</ele>
  <time>2026-09-02T20:50:15Z</time>
  <course>0.0</course>
  <speed>0.0</speed>
  <fix>3d</fix>
</trkpt>
<trkpt lat="40.0713749" lon="-105.229789">
  <ele>1583.0</ele>
  <time>2026-09-02T20:50:15Z</time>
  <course>0.0</course>
  <speed>0.0</speed>
  <fix>3d</fix>
</trkpt>
<trkpt lat="40.0713749" lon="-105.229789">
  <ele>1583.0</ele>
  <time>2026-09-02T20:50:15Z</time>
  <course>0.0</course>
  <speed>0.0</speed>
  <fix>3d</fix>
</trkpt>
<trkpt lat="40.0713749" lon="-105.229789">
  <ele>1583.0</ele>
  <time>2026-09-02T20:50:15Z</time>
  <course>0.0</course>
  <speed>0.0</speed>
  <fix>3d</fix>
</trkpt>
<trkpt lat="40.0713749" lon="-105.229789">
  <ele>1583.0</ele>
  <time>2026-09-02T20:50:15Z</time>
  <course>0.0</course>
  <speed>0.0</speed>
  <fix>3d</fix>
</trkpt>
<trkpt lat="40.0713749" lon="-105.229789">
  <ele>1583.0</ele>
  <time>2026-09-02T20:50:15Z</time>
  <course>0.0</course>
  <speed>0.0</speed>
  <fix>3d</fix>
</trkpt>
<trkpt lat="40.0713749" lon="-105.229789">
  <ele>1583.0</ele>
  <time>2026-09-02T20:50:15Z</time>
  <course>0.0</course>
  <speed>0.0</speed>
  <fix>3d</fix>
</trkpt>
<trkpt lat="40.0713749" lon="-105.229789">
  <ele>1583.0</ele>
  <time>2026-09-02T20:50:15Z</time>
  <course>0.0</course>
  <speed>0.0</speed>
  <fix>3d</fix>
</trkpt>
<trkpt lat="40.0713749" lon="-105.229789">
  <ele>1583.0</ele>
  <time>2026-09-02T20:50:15Z</time>
  <course>0.0</course>
  <speed>0.0</speed>
  <fix>3d</fix>
</trkpt>
<trkpt lat="40.0713749" lon="-105.229789">
  <ele>1583.0</ele>
  <time>2026-09-02T20:50:15Z</time>
  <course>0.0</course>
  <speed>0.0</speed>
  <fix>3d</fix>
</trkpt>
<trkpt lat="40.0713749" lon="-105.229789">
  <ele>1583.0</ele>
  <time>2026-09-02T20:50:15Z</time>
  <course>0.0</course>
  <speed>0.0</speed>
  <fix>3d</fix>
</trkpt>
<trkpt lat="40.0713749" lon="-105.229789">
  <ele>1583.0</ele>
  <time>2026-09-02T20:50:15Z</time>
  <course>0.0</course>
  <speed>0.0</speed>
  <fix>3d</fix>
</trkpt>
<trkpt lat="40.0713749" lon="-105.229789">
  <ele>1583.0</ele>
  <time>2026-09-02T20:50:15Z</time>
  <course>0.0</course>
  <speed>0.0</speed>
  <fix>3d</fix>
</trkpt>
<trkpt lat="40.0713749" lon="-105.229789">
  <ele>1583.0</ele>
  <time>2026-09-02T20:50:15Z</time>
  <course>0.0</course>
  <speed>0.0</speed>
  <fix>3d</fix>
</trkpt>
<trkpt lat="40.0713749" lon="-105.229789">
  <ele>1583.0</ele>
  <time>2026-09-02T20:50:15Z</time>
  <course>0.0</course>
  <speed>0.0</speed>
  <fix>3d</fix>
</trkpt>
<trkpt lat="40.0713749" lon="-105.229789">
  <ele>1583.0</ele>
  <time>2026-09-02T20:50:15Z</time>
  <course>0.0</course>
  <speed>0.0</speed>
  <fix>3d</fix>
</trkpt>
<trkpt lat="40.0713749" lon="-105.229789">
  <ele>1583.0</ele>
  <time>2026-09-02T20:50:15Z</time>
  <course>0.0</course>
  <speed>0.0</speed>
  <fix>3d</fix>
</trkpt>
<trkpt lat="40.0713749" lon="-105.229789">
  <ele>1583.0</ele>
  <time>2026-09-02T20:50:15Z</time>
  <course>0.0</course>
  <speed>0.0</speed>
  <fix>3d</fix>
</trkpt>
<trkpt lat="40.0713749" lon="-105.229789">
  <ele>1583.0</ele>
  <time>2026-09-02T20:50:15Z</time>
  <course>0.0</course>
  <speed>0.0</speed>
  <fix>3d</fix>
</trkpt>
<trkpt lat="40.0713749" lon="-105.229789">
  <ele>1583.0</ele>
  <time>2026-09-02T20:50:15Z</time>
  <course>0.0</course>
  <speed>0.0</speed>
  <fix>3d</fix>
</trkpt>
<trkpt lat="40.0713749" lon="-105.229789">
  <ele>1583.0</ele>
  <time>2026-09-02T20:50:15Z</time>
  <course>0.0</course>
  <speed>0.0</speed>
  <fix>3d</fix>
</trkpt>
<trkpt lat="40.0713749" lon="-105.229789">
  <ele>1583.0</ele>
  <time>2026-09-02T20:50:15Z</time>
  <course>0.0</course>
  <speed>0.0</speed>
  <fix>3d</fix>
</trkpt>
<trkpt lat="40.0713749" lon="-105.229789">
  <ele>1583.0</ele>
  <time>2026-09-02T20:50:15Z</time>
  <course>0.0</course>
  <speed>0.0</speed>
  <fix>3d</fix>
</trkpt>
<trkpt lat="40.0713749" lon="-105.229789">
  <ele>1583.0</ele>
  <time>2026-09-02T20:50:15Z</time>
  <course>0.0</course>
  <speed>0.0</speed>
  <fix>3d</fix>
</trkpt>
<trkpt lat="40.0713749" lon="-105.229789">
  <ele>1583.0</ele>
  <time>2026-09-02T20:50:15Z</time>
  <course>0.0</course>
  <speed>0.0</speed>
  <fix>3d</fix>
</trkpt>
<trkpt lat="40.0713749" lon="-105.229789">
  <ele>1583.0</ele>
  <time>2026-09-02T20:50:15Z</time>
  <course>0.0</course>
  <speed>0.0</speed>
  <fix>3d</fix>
</trkpt>
<trkpt lat="40.0713749" lon="-105.229789">
  <ele>1583.0</ele>
  <time>2026-09-02T20:50:15Z</time>
  <course>0.0</course>
  <speed>0.0</speed>
  <fix>3d</fix>
</trkpt>
<trkpt lat="40.0713749" lon="-105.229789">
  <ele>1583.0</ele>
  <time>2026-09-02T20:50:15Z</time>
  <course>0.0</course>
  <speed>0.0</speed>
  <fix>3d</fix>
</trkpt>
<trkpt lat="40.0713749" lon="-105.229789">
  <ele>1583.0</ele>
  <time>2026-09-02T20:50:15Z</time>
  <course>0.0</course>
  <speed>0.0</speed>
  <fix>3d</fix>
</trkpt>
<trkpt lat="40.0713749" lon="-105.229789">
  <ele>1583.0</ele>
  <time>2026-09-02T20:50:15Z</time>
  <course>0.0</course>
  <speed>0.0</speed>
  <fix>3d</fix>
</trkpt>
<trkpt lat="40.0713749" lon="-105.229789">
  <ele>1583.0</ele>
  <time>2026-09-02T20:50:15Z</time>
  <course>0.0</course>
  <speed>0.0</speed>
  <fix>3d</fix>
</trkpt>
<trkpt lat="40.0713749" lon="-105.229789">
  <ele>1583.0</ele>
  <time>2026-09-02T20:50:15Z</time>
  <course>0.0</course>
  <speed>0.0</speed>
  <fix>3d</fix>
</trkpt>
<trkpt lat="40.0713749" lon="-105.229789">
  <ele>1583.0</ele>
  <time>2026-09-02T20:50:15Z</time>
  <course>0.0</course>
  <speed>0.0</speed>
  <fix>3d</fix>
</trkpt>
<trkpt lat="40.0713749" lon="-105.229789">
  <ele>1583.0</ele>
  <time>2026-09-02T20:50:15Z</time>
  <course>0.0</course>
  <speed>0.0</speed>
  <fix>3d</fix>
</trkpt>
<trkpt lat="40.0713749" lon="-105.229789">
  <ele>1583.0</ele>
  <time>2026-09-02T20:50:15Z</time>
  <course>0.0</course>
  <speed>0.0</speed>
  <fix>3d</fix>
</trkpt>
<trkpt lat="40.0713749" lon="-105.229789">
  <ele>1583.0</ele>
  <time>2026-09-02T20:50:15Z</time>
  <course>0.0</course>
  <speed>0.0</speed>
  <fix>3d</fix>
</trkpt>
<trkpt lat="40.0713749" lon="-105.229789">
  <ele>1583.0</ele>
  <time>2026-09-02T20:50:15Z</time>
  <course>0.0</course>
  <speed>0.0</speed>
  <fix>3d</fix>
</trkpt>
<trkpt lat="40.0713749" lon="-105.229789">
  <ele>1583.0</ele>
  <time>2026-09-02T20:50:15Z</time>
  <course>0.0</course>
  <speed>0.0</speed>
  <fix>3d</fix>
</trkpt>
<trkpt lat="40.0713749" lon="-105.229789">
  <ele>1583.0</ele>
  <time>2026-09-02T20:50:15Z</time>
  <course>0.0</course>
  <speed>0.0</speed>
  <fix>3d</fix>
</trkpt>
<trkpt lat="40.0713749" lon="-105.229789">
  <ele>1583.0</ele>
  <time>2026-09-02T20:50:15Z</time>
  <course>0.0</course>
  <speed>0.0</speed>
  <fix>3d</fix>
</trkpt>
<trkpt lat="40.0713749" lon="-105.229789">
  <ele>1583.0</ele>
  <time>2026-09-02T20:50:15Z</time>
  <course>0.0</course>
  <speed>0.0</speed>
  <fix>3d</fix>
</trkpt>
<trkpt lat="40.0713749" lon="-105.229789">
  <ele>1583.0</ele>
  <time>2026-09-02T20:50:15Z</time>
  <course>0.0</course>
  <speed>0.0</speed>
  <fix>3d</fix>
</trkpt>
<trkpt lat="40.0713749" lon="-105.229789">
  <ele>1583.0</ele>
  <time>2026-09-02T20:50:15Z</time>
  <course>0.0</course>
  <speed>0.0</speed>
  <fix>3d</fix>
</trkpt>
<trkpt lat="40.0713749" lon="-105.229789">
  <ele>1583.0</ele>
  <time>2026-09-02T20:50:15Z</time>
  <course>0.0</course>
  <speed>0.0</speed>
  <fix>3d</fix>
</trkpt>
<trkpt lat="40.0713749" lon="-105.229789">
  <ele>1583.0</ele>
  <time>2026-09-02T20:50:15Z</time>
  <course>0.0</course>
  <speed>0.0</speed>
  <fix>3d</fix>
</trkpt>
<trkpt lat="40.0713749" lon="-105.229789">
  <ele>1583.0</ele>
  <time>2026-09-02T20:50:15Z</time>
  <course>0.0</course>
  <speed>0.0</speed>
  <fix>3d</fix>
</trkpt>
<trkpt lat="40.0713749" lon="-105.229789">
  <ele>1583.0</ele>
  <time>2026-09-02T20:50:15Z</time>
  <course>0.0</course>
  <speed>0.0</speed>
  <fix>3d</fix>
</trkpt>
<trkpt lat="40.0713749" lon="-105.229789">
  <ele>1583.0</ele>
  <time>2026-09-02T20:50:15Z</time>
  <course>0.0</course>
  <speed>0.0</speed>
  <fix>3d</fix>
</trkpt>
<trkpt lat="40.0713749" lon="-105.229789">
  <ele>1583.0</ele>
  <time>2026-09-02T20:50:15Z</time>
  <course>0.0</course>
  <speed>0.0</speed>
  <fix>3d</fix>
</trkpt>
<trkpt lat="40.0713749" lon="-105.229789">
  <ele>1583.0</ele>
  <time>2026-09-02T20:50:15Z</time>
  <course>0.0</course>
  <speed>0.0</speed>
  <fix>3d</fix>
</trkpt>
<trkpt lat="40.0713749" lon="-105.229789">
  <ele>1583.0</ele>
  <time>2026-09-02T20:50:15Z</time>
  <course>0.0</course>
  <speed>0.0</speed>
  <fix>3d</fix>
</trkpt>
<trkpt lat="40.0713749" lon="-105.229789">
  <ele>1583.0</ele>
  <time>2026-09-02T20:50:15Z</time>
  <course>0.0</course>
  <speed>0.0</speed>
  <fix>3d</fix>
</trkpt>
<trkpt lat="40.0713749" lon="-105.229789">
  <ele>1583.0</ele>
  <time>2026-09-02T20:50:15Z</time>
  <course>0.0</course>
  <speed>0.0</speed>
  <fix>3d</fix>
</trkpt>
<trkpt lat="40.0713749" lon="-105.229789">
  <ele>1583.0</ele>
  <time>2026-09-02T20:50:15Z</time>
  <course>0.0</course>
  <speed>0.0</speed>
  <fix>3d</fix>
</trkpt>
<trkpt lat="40.0713749" lon="-105.229789">
  <ele>1583.0</ele>
  <time>2026-09-02T20:50:15Z</time>
  <course>0.0</course>
  <speed>0.0</speed>
  <fix>3d</fix>
</trkpt>
<trkpt lat="40.0713749" lon="-105.229789">
  <ele>1583.0</ele>
  <time>2026-09-02T20:50:15Z</time>
  <course>0.0</course>
  <speed>0.0</speed>
  <fix>3d</fix>
</trkpt>
<trkpt lat="40.0713749" lon="-105.229789">
  <ele>1583.0</ele>
  <time>2026-09-02T20:50:15Z</time>
  <course>0.0</course>
  <speed>0.0</speed>
  <fix>3d</fix>
</trkpt>
<trkpt lat="40.0713749" lon="-105.229789">
  <ele>1583.0</ele>
  <time>2026-09-02T20:50:15Z</time>
  <course>0.0</course>
  <speed>0.0</speed>
  <fix>3d</fix>
</trkpt>
<trkpt lat="40.0713749" lon="-105.229789">
  <ele>1583.0</ele>
  <time>2026-09-02T20:50:15Z</time>
  <course>0.0</course>
  <speed>0.0</speed>
  <fix>3d</fix>
</trkpt>
<trkpt lat="40.0713749" lon="-105.229789">
  <ele>1583.0</ele>
  <time>2026-09-02T20:50:15Z</time>
  <course>0.0</course>
  <speed>0.0</speed>
  <fix>3d</fix>
</trkpt>
<trkpt lat="40.0713749" lon="-105.229789">
  <ele>1583.0</ele>
  <time>2026-09-02T20:50:15Z</time>
  <course>0.0</course>
  <speed>0.0</speed>
  <fix>3d</fix>
</trkpt>
<trkpt lat="40.0713749" lon="-105.229789">
  <ele>1583.0</ele>
  <time>2026-09-02T20:50:15Z</time>
  <course>0.0</course>
  <speed>0.0</speed>
  <fix>3d</fix>
</trkpt>
<trkpt lat="40.0713749" lon="-105.229789">
  <ele>1583.0</ele>
  <time>2026-09-02T20:50:15Z</time>
  <course>0.0</course>
  <speed>0.0</speed>
  <fix>3d</fix>
</trkpt>
<trkpt lat="40.0713749" lon="-105.229789">
  <ele>1583.0</ele>
  <time>2026-09-02T20:50:15Z</time>
  <course>0.0</course>
  <speed>0.0</speed>
  <fix>3d</fix>
</trkpt>
<trkpt lat="40.0713749" lon="-105.229789">
  <ele>1583.0</ele>
  <time>2026-09-02T20:50:15Z</time>
  <course>0.0</course>
  <speed>0.0</speed>
  <fix>3d</fix>
</trkpt>
<trkpt lat="40.0713749" lon="-105.229789">
  <ele>1583.0</ele>
  <time>2026-09-02T20:50:15Z</time>
  <course>0.0</course>
  <speed>0.0</speed>
  <fix>3d</fix>
</trkpt>
<trkpt lat="40.0713749" lon="-105.229789">
  <ele>1583.0</ele>
  <time>2026-09-02T20:50:15Z</time>
  <course>0.0</course>
  <speed>0.0</speed>
  <fix>3d</fix>
</trkpt>
<trkpt lat="40.0713749" lon="-105.229789">
  <ele>1583.0</ele>
  <time>2026-09-02T20:50:15Z</time>
  <course>0.0</course>
  <speed>0.0</speed>
  <fix>3d</fix>
</trkpt>
<trkpt lat="40.0713749" lon="-105.229789">
  <ele>1583.0</ele>
  <time>2026-09-02T20:50:15Z</time>
  <course>0.0</course>
  <speed>0.0</speed>
  <fix>3d</fix>
</trkpt>
<trkpt lat="40.0713749" lon="-105.229789">
  <ele>1583.0</ele>
  <time>2026-09-02T20:50:15Z</time>
  <course>0.0</course>
  <speed>0.0</speed>
  <fix>3d</fix>
</trkpt>
<trkpt lat="40.0713749" lon="-105.229789">
  <ele>1583.0</ele>
  <time>2026-09-02T20:50:15Z</time>
  <course>0.0</course>
  <speed>0.0</speed>
  <fix>3d</fix>
</trkpt>
<trkpt lat="40.0713749" lon="-105.229789">
  <ele>1583.0</ele>
  <time>2026-09-02T20:50:15Z</time>
  <course>0.0</course>
  <speed>0.0</speed>
  <fix>3d</fix>
</trkpt>
<trkpt lat="40.0713749" lon="-105.229789">
  <ele>1583.0</ele>
  <time>2026-09-02T20:50:15Z</time>
  <course>0.0</course>
  <speed>0.0</speed>
  <fix>3d</fix>
</trkpt>
<trkpt lat="40.0713749" lon="-105.229789">
  <ele>1583.0</ele>
  <time>2026-09-02T20:50:15Z</time>
  <course>0.0</course>
  <speed>0.0</speed>
  <fix>3d</fix>
</trkpt>
<trkpt lat="40.0713749" lon="-105.229789">
  <ele>1583.0</ele>
  <time>2026-09-02T20:50:15Z</time>
  <course>0.0</course>
  <speed>0.0</speed>
  <fix>3d</fix>
</trkpt>
<trkpt lat="40.0713749" lon="-105.229789">
  <ele>1583.0</ele>
  <time>2026-09-02T20:50:15Z</time>
  <course>0.0</course>
  <speed>0.0</speed>
  <fix>3d</fix>
</trkpt>
<trkpt lat="40.0713749" lon="-105.229789">
  <ele>1583.0</ele>
  <time>2026-09-02T20:50:15Z</time>
  <course>0.0</course>
  <speed>0.0</speed>
  <fix>3d</fix>
</trkpt>
<trkpt lat="40.0713749" lon="-105.229789">
  <ele>1583.0</ele>
  <time>2026-09-02T20:50:15Z</time>
  <course>0.0</course>
  <speed>0.0</speed>
  <fix>3d</fix>
</trkpt>
<trkpt lat="40.0713749" lon="-105.229789">
  <ele>1583.0</ele>
  <time>2026-09-02T20:50:15Z</time>
  <course>0.0</course>
  <speed>0.0</speed>
  <fix>3d</fix>
</trkpt>
<trkpt lat="40.0713749" lon="-105.229789">
  <ele>1583.0</ele>
  <time>2026-09-02T20:50:15Z</time>
  <course>0.0</course>
  <speed>0.0</speed>
  <fix>3d</fix>
</trkpt>
<trkpt lat="40.0713749" lon="-105.229789">
  <ele>1583.0</ele>
  <time>2026-09-02T20:50:15Z</time>
  <course>0.0</course>
  <speed>0.0</speed>
  <fix>3d</fix>
</trkpt>
<trkpt lat="40.0713749" lon="-105.229789">
  <ele>1583.0</ele>
  <time>2026-09-02T20:50:15Z</time>
  <course>0.0</course>
  <speed>0.0</speed>
  <fix>3d</fix>
</trkpt>
<trkpt lat="40.0713749" lon="-105.229789">
  <ele>1583.0</ele>
  <time>2026-09-02T20:50:15Z</time>
  <course>0.0</course>
  <speed>0.0</speed>
  <fix>3d</fix>
</trkpt>
<trkpt lat="40.0713749" lon="-105.229789">
  <ele>1583.0</ele>
  <time>2026-09-02T20:50:15Z</time>
  <course>0.0</course>
  <speed>0.0</speed>
  <fix>3d</fix>
</trkpt>
<trkpt lat="40.0713749" lon="-105.229789">
  <ele>1583.0</ele>
  <time>2026-09-02T20:50:15Z</time>
  <course>0.0</course>
  <speed>0.0</speed>
  <fix>3d</fix>
</trkpt>
<trkpt lat="40.0713749" lon="-105.229789">
  <ele>1583.0</ele>
  <time>2026-09-02T20:50:15Z</time>
  <course>0.0</course>
  <speed>0.0</speed>
  <fix>3d</fix>
</trkpt>
<trkpt lat="40.0713749" lon="-105.229789">
  <ele>1583.0</ele>
  <time>2026-09-02T20:50:15Z</time>
  <course>0.0</course>
  <speed>0.0</speed>
  <fix>3d</fix>
</trkpt>
<trkpt lat="40.0713749" lon="-105.229789">
  <ele>1583.0</ele>
  <time>2026-09-02T20:50:15Z</time>
  <course>0.0</course>
  <speed>0.0</speed>
  <fix>3d</fix>
</trkpt>
<trkpt lat="40.0713749" lon="-105.229789">
  <ele>1583.0</ele>
  <time>2026-09-02T20:50:15Z</time>
  <course>0.0</course>
  <speed>0.0</speed>
  <fix>3d</fix>
</trkpt>
<trkpt lat="40.0713749" lon="-105.229789">
  <ele>1583.0</ele>
  <time>2026-09-02T20:50:15Z</time>
  <course>0.0</course>
  <speed>0.0</speed>
  <fix>3d</fix>
</trkpt>
<trkpt lat="40.0713749" lon="-105.229789">
  <ele>1583.0</ele>
  <time>2026-09-02T20:50:15Z</time>
  <course>0.0</course>
  <speed>0.0</speed>
  <fix>3d</fix>
</trkpt>
<trkpt lat="40.0713749" lon="-105.229789">
  <ele>1583.0</ele>
  <time>2026-09-02T20:50:15Z</time>
  <course>0.0</course>
  <speed>0.0</speed>
  <fix>3d</fix>
</trkpt>
<trkpt lat="40.0713749" lon="-105.229789">
  <ele>1583.0</ele>
  <time>2026-09-02T20:50:15Z</time>
  <course>0.0</course>
  <speed>0.0</speed>
  <fix>3d</fix>
</trkpt>
<trkpt lat="40.0713749" lon="-105.229789">
  <ele>1583.0</ele>
  <time>2026-09-02T20:50:15Z</time>
  <course>0.0</course>
  <speed>0.0</speed>
  <fix>3d</fix>
</trkpt>
<trkpt lat="40.0713749" lon="-105.229789">
  <ele>1583.0</ele>
  <time>2026-09-02T20:50:15Z</time>
  <course>0.0</course>
  <speed>0.0</speed>
  <fix>3d</fix>
</trkpt>
<trkpt lat="40.0713749" lon="-105.229789">
  <ele>1583.0</ele>
  <time>2026-09-02T20:50:15Z</time>
  <course>0.0</course>
  <speed>0.0</speed>
  <fix>3d</fix>
</trkpt>
<trkpt lat="40.0713749" lon="-105.229789">
  <ele>1583.0</ele>
  <time>2026-09-02T20:50:15Z</time>
  <course>0.0</course>
  <speed>0.0</speed>
  <fix>3d</fix>
</trkpt>
<trkpt lat="40.0713749" lon="-105.229789">
  <ele>1583.0</ele>
  <time>2026-09-02T20:50:15Z</time>
  <course>0.0</course>
  <speed>0.0</speed>
  <fix>3d</fix>
</trkpt>
<trkpt lat="40.0713749" lon="-105.229789">
  <ele>1583.0</ele>
  <time>2026-09-02T20:50:15Z</time>
  <course>0.0</course>
  <speed>0.0</speed>
  <fix>3d</fix>
</trkpt>
<trkpt lat="40.0713749" lon="-105.229789">
  <ele>1583.0</ele>
  <time>2026-09-02T20:50:15Z</time>
  <course>0.0</course>
  <speed>0.0</speed>
  <fix>3d</fix>
</trkpt>
<trkpt lat="40.0713749" lon="-105.229789">
  <ele>1583.0</ele>
  <time>2026-09-02T20:50:15Z</time>
  <course>0.0</course>
  <speed>0.0</speed>
  <fix>3d</fix>
</trkpt>
<trkpt lat="40.0713749" lon="-105.229789">
  <ele>1583.0</ele>
  <time>2026-09-02T20:50:15Z</time>
  <course>0.0</course>
  <speed>0.0</speed>
  <fix>3d</fix>
</trkpt>
<trkpt lat="40.0713749" lon="-105.229789">
  <ele>1583.0</ele>
  <time>2026-09-02T20:50:15Z</time>
  <course>0.0</course>
  <speed>0.0</speed>
  <fix>3d</fix>
</trkpt>
<trkpt lat="40.0713749" lon="-105.229789">
  <ele>1583.0</ele>
  <time>2026-09-02T20:50:15Z</time>
  <course>0.0</course>
  <speed>0.0</speed>
  <fix>3d</fix>
</trkpt>
<trkpt lat="40.0713749" lon="-105.229789">
  <ele>1583.0</ele>
  <time>2026-09-02T20:50:15Z</time>
  <course>0.0</course>
  <speed>0.0</speed>
  <fix>3d</fix>
</trkpt>
<trkpt lat="40.0713749" lon="-105.229789">
  <ele>1583.0</ele>
  <time>2026-09-02T20:50:15Z</time>
  <course>0.0</course>
  <speed>0.0</speed>
  <fix>3d</fix>
</trkpt>
<trkpt lat="40.0713749" lon="-105.229789">
  <ele>1583.0</ele>
  <time>2026-09-02T20:50:15Z</time>
  <course>0.0</course>
  <speed>0.0</speed>
  <fix>3d</fix>
</trkpt>
<trkpt lat="40.0713749" lon="-105.229789">
  <ele>1583.0</ele>
  <time>2026-09-02T20:50:15Z</time>
  <course>0.0</course>
  <speed>0.0</speed>
  <fix>3d</fix>
</trkpt>
<trkpt lat="40.0713749" lon="-105.229789">
  <ele>1583.0</ele>
  <time>2026-09-02T20:50:15Z</time>
  <course>0.0</course>
  <speed>0.0</speed>
  <fix>3d</fix>
</trkpt>
<trkpt lat="40.0713749" lon="-105.229789">
  <ele>1583.0</ele>
  <time>2026-09-02T20:50:15Z</time>
  <course>0.0</course>
  <speed>0.0</speed>
  <fix>3d</fix>
</trkpt>
<trkpt lat="40.0713749" lon="-105.229789">
  <ele>1583.0</ele>
  <time>2026-09-02T20:50:15Z</time>
  <course>0.0</course>
  <speed>0.0</speed>
  <fix>3d</fix>
</trkpt>
<trkpt lat="40.0713749" lon="-105.229789">
  <ele>1583.0</ele>
  <time>2026-09-02T20:50:15Z</time>
  <course>0.0</course>
  <speed>0.0</speed>
  <fix>3d</fix>
</trkpt>
<trkpt lat="40.0713749" lon="-105.229789">
  <ele>1583.0</ele>
  <time>2026-09-02T20:50:15Z</time>
  <course>0.0</course>
  <speed>0.0</speed>
  <fix>3d</fix>
</trkpt>
<trkpt lat="40.0713749" lon="-105.229789">
  <ele>1583.0</ele>
  <time>2026-09-02T20:50:15Z</time>
  <course>0.0</course>
  <speed>0.0</speed>
  <fix>3d</fix>
</trkpt>
<trkpt lat="40.0713749" lon="-105.229789">
  <ele>1583.0</ele>
  <time>2026-09-02T20:50:15Z</time>
  <course>0.0</course>
  <speed>0.0</speed>
  <fix>3d</fix>
</trkpt>
<trkpt lat="40.0713749" lon="-105.229789">
  <ele>1583.0</ele>
  <time>2026-09-02T20:50:15Z</time>
  <course>0.0</course>
  <speed>0.0</speed>
  <fix>3d</fix>
</trkpt>
<trkpt lat="40.0713749" lon="-105.229789">
  <ele>1583.0</ele>
  <time>2026-09-02T20:50:15Z</time>
  <course>0.0</course>
  <speed>0.0</speed>
  <fix>3d</fix>
</trkpt>
<trkpt lat="40.0713749" lon="-105.229789">
  <ele>1583.0</ele>
  <time>2026-09-02T20:50:15Z</time>
  <course>0.0</course>
  <speed>0.0</speed>
  <fix>3d</fix>
</trkpt>
<trkpt lat="40.0713749" lon="-105.229789">
  <ele>1583.0</ele>
  <time>2026-09-02T20:50:15Z</time>
  <course>0.0</course>
  <speed>0.0</speed>
  <fix>3d</fix>
</trkpt>
<trkpt lat="40.0713749" lon="-105.229789">
  <ele>1583.0</ele>
  <time>2026-09-02T20:50:15Z</time>
  <course>0.0</course>
  <speed>0.0</speed>
  <fix>3d</fix>
</trkpt>
<trkpt lat="40.0713749" lon="-105.229789">
  <ele>1583.0</ele>
  <time>2026-09-02T20:50:15Z</time>
  <course>0.0</course>
  <speed>0.0</speed>
  <fix>3d</fix>
</trkpt>
<trkpt lat="40.0713749" lon="-105.229789">
  <ele>1583.0</ele>
  <time>2026-09-02T20:50:15Z</time>
  <course>0.0</course>
  <speed>0.0</speed>
  <fix>3d</fix>
</trkpt>
<trkpt lat="40.0713749" lon="-105.229789">
  <ele>1583.0</ele>
  <time>2026-09-02T20:50:15Z</time>
  <course>0.0</course>
  <speed>0.0</speed>
  <fix>3d</fix>
</trkpt>
<trkpt lat="40.0713749" lon="-105.229789">
  <ele>1583.0</ele>
  <time>2026-09-02T20:50:15Z</time>
  <course>0.0</course>
  <speed>0.0</speed>
  <fix>3d</fix>
</trkpt>
<trkpt lat="40.0713749" lon="-105.229789">
  <ele>1583.0</ele>
  <time>2026-09-02T20:50:15Z</time>
  <course>0.0</course>
  <speed>0.0</speed>
  <fix>3d</fix>
</trkpt>
<trkpt lat="40.0713749" lon="-105.229789">
  <ele>1583.0</ele>
  <time>2026-09-02T20:50:15Z</time>
  <course>0.0</course>
  <speed>0.0</speed>
  <fix>3d</fix>
</trkpt>
<trkpt lat="40.0713749" lon="-105.229789">
  <ele>1583.0</ele>
  <time>2026-09-02T20:50:15Z</time>
  <course>0.0</course>
  <speed>0.0</speed>
  <fix>3d</fix>
</trkpt>
<trkpt lat="40.0713749" lon="-105.229789">
  <ele>1583.0</ele>
  <time>2026-09-02T20:50:15Z</time>
  <course>0.0</course>
  <speed>0.0</speed>
  <fix>3d</fix>
</trkpt>
<trkpt lat="40.0713749" lon="-105.229789">
  <ele>1583.0</ele>
  <time>2026-09-02T20:50:15Z</time>
  <course>0.0</course>
  <speed>0.0</speed>
  <fix>3d</fix>
</trkpt>
<trkpt lat="40.0713749" lon="-105.229789">
  <ele>1583.0</ele>
  <time>2026-09-02T20:50:15Z</time>
  <course>0.0</course>
  <speed>0.0</speed>
  <fix>3d</fix>
</trkpt>
<trkpt lat="40.0713749" lon="-105.229789">
  <ele>1583.0</ele>
  <time>2026-09-02T20:50:15Z</time>
  <course>0.0</course>
  <speed>0.0</speed>
  <fix>3d</fix>
</trkpt>
<trkpt lat="40.0713749" lon="-105.229789">
  <ele>1583.0</ele>
  <time>2026-09-02T20:50:15Z</time>
  <course>0.0</course>
  <speed>0.0</speed>
  <fix>3d</fix>
</trkpt>
<trkpt lat="40.0713749" lon="-105.229789">
  <ele>1583.0</ele>
  <time>2026-09-02T20:50:15Z</time>
  <course>0.0</course>
  <speed>0.0</speed>
  <fix>3d</fix>
</trkpt>
<trkpt lat="40.0713749" lon="-105.229789">
  <ele>1583.0</ele>
  <time>2026-09-02T20:50:15Z</time>
  <course>0.0</course>
  <speed>0.0</speed>
  <fix>3d</fix>
</trkpt>
<trkpt lat="40.0713749" lon="-105.229789">
  <ele>1583.0</ele>
  <time>2026-09-02T20:50:15Z</time>
  <course>0.0</course>
  <speed>0.0</speed>
  <fix>3d</fix>
</trkpt>
<trkpt lat="40.0713749" lon="-105.229789">
  <ele>1583.0</ele>
  <time>2026-09-02T20:50:15Z</time>
  <course>0.0</course>
  <speed>0.0</speed>
  <fix>3d</fix>
</trkpt>
<trkpt lat="40.0713749" lon="-105.229789">
  <ele>1583.0</ele>
  <time>2026-09-02T20:50:15Z</time>
  <course>0.0</course>
  <speed>0.0</speed>
  <fix>3d</fix>
</trkpt>
<trkpt lat="40.0713749" lon="-105.229789">
  <ele>1583.0</ele>
  <time>2026-09-02T20:50:15Z</time>
  <course>0.0</course>
  <speed>0.0</speed>
  <fix>3d</fix>
</trkpt>
<trkpt lat="40.0713749" lon="-105.229789">
  <ele>1583.0</ele>
  <time>2026-09-02T20:50:15Z</time>
  <course>0.0</course>
  <speed>0.0</speed>
  <fix>3d</fix>
</trkpt>
<trkpt lat="40.0713749" lon="-105.229789">
  <ele>1583.0</ele>
  <time>2026-09-02T20:50:15Z</time>
  <course>0.0</course>
  <speed>0.0</speed>
  <fix>3d</fix>
</trkpt>
<trkpt lat="40.0713749" lon="-105.229789">
  <ele>1583.0</ele>
  <time>2026-09-02T20:50:15Z</time>
  <course>0.0</course>
  <speed>0.0</speed>
  <fix>3d</fix>
</trkpt>
<trkpt lat="40.0713749" lon="-105.229789">
  <ele>1583.0</ele>
  <time>2026-09-02T20:50:15Z</time>
  <course>0.0</course>
  <speed>0.0</speed>
  <fix>3d</fix>
</trkpt>
<trkpt lat="40.0713749" lon="-105.229789">
  <ele>1583.0</ele>
  <time>2026-09-02T20:50:15Z</time>
  <course>0.0</course>
  <speed>0.0</speed>
  <fix>3d</fix>
</trkpt>
<trkpt lat="40.0713749" lon="-105.229789">
  <ele>1583.0</ele>
  <time>2026-09-02T20:50:15Z</time>
  <course>0.0</course>
  <speed>0.0</speed>
  <fix>3d</fix>
</trkpt>
<trkpt lat="40.0713749" lon="-105.229789">
  <ele>1583.0</ele>
  <time>2026-09-02T20:50:15Z</time>
  <course>0.0</course>
  <speed>0.0</speed>
  <fix>3d</fix>
</trkpt>
<trkpt lat="40.0713749" lon="-105.229789">
  <ele>1583.0</ele>
  <time>2026-09-02T20:50:15Z</time>
  <course>0.0</course>
  <speed>0.0</speed>
  <fix>3d</fix>
</trkpt>
<trkpt lat="40.0713749" lon="-105.229789">
  <ele>1583.0</ele>
  <time>2026-09-02T20:50:15Z</time>
  <course>0.0</course>
  <speed>0.0</speed>
  <fix>3d</fix>
</trkpt>
<trkpt lat="40.0713749" lon="-105.229789">
  <ele>1583.0</ele>
  <time>2026-09-02T20:50:15Z</time>
  <course>0.0</course>
  <speed>0.0</speed>
  <fix>3d</fix>
</trkpt>
<trkpt lat="40.0713749" lon="-105.229789">
  <ele>1583.0</ele>
  <time>2026-09-02T20:50:15Z</time>
  <course>0.0</course>
  <speed>0.0</speed>
  <fix>3d</fix>
</trkpt>
<trkpt lat="40.0713749" lon="-105.229789">
  <ele>1583.0</ele>
  <time>2026-09-02T20:50:15Z</time>
  <course>0.0</course>
  <speed>0.0</speed>
  <fix>3d</fix>
</trkpt>
<trkpt lat="40.0713749" lon="-105.229789">
  <ele>1583.0</ele>
  <time>2026-09-02T20:50:15Z</time>
  <course>0.0</course>
  <speed>0.0</speed>
  <fix>3d</fix>
</trkpt>
<trkpt lat="40.0713749" lon="-105.229789">
  <ele>1583.0</ele>
  <time>2026-09-02T20:50:15Z</time>
  <course>0.0</course>
  <speed>0.0</speed>
  <fix>3d</fix>
</trkpt>
<trkpt lat="40.0713749" lon="-105.229789">
  <ele>1583.0</ele>
  <time>2026-09-02T20:50:15Z</time>
  <course>0.0</course>
  <speed>0.0</speed>
  <fix>3d</fix>
</trkpt>
<trkpt lat="40.0713749" lon="-105.229789">
  <ele>1583.0</ele>
  <time>2026-09-02T20:50:15Z</time>
  <course>0.0</course>
  <speed>0.0</speed>
  <fix>3d</fix>
</trkpt>
<trkpt lat="40.0713749" lon="-105.229789">
  <ele>1583.0</ele>
  <time>2026-09-02T20:50:15Z</time>
  <course>0.0</course>
  <speed>0.0</speed>
  <fix>3d</fix>
</trkpt>
<trkpt lat="40.0713749" lon="-105.229789">
  <ele>1583.0</ele>
  <time>2026-09-02T20:50:15Z</time>
  <course>0.0</course>
  <speed>0.0</speed>
  <fix>3d</fix>
</trkpt>
<trkpt lat="40.0713749" lon="-105.229789">
  <ele>1583.0</ele>
  <time>2026-09-02T20:50:15Z</time>
  <course>0.0</course>
  <speed>0.0</speed>
  <fix>3d</fix>
</trkpt>
<trkpt lat="40.0713749" lon="-105.229789">
  <ele>1583.0</ele>
  <time>2026-09-02T20:50:15Z</time>
  <course>0.0</course>
  <speed>0.0</speed>
  <fix>3d</fix>
</trkpt>
<trkpt lat="40.0713749" lon="-105.229789">
  <ele>1583.0</ele>
  <time>2026-09-02T20:50:15Z</time>
  <course>0.0</course>
  <speed>0.0</speed>
  <fix>3d</fix>
</trkpt>
<trkpt lat="40.0713749" lon="-105.229789">
  <ele>1583.0</ele>
  <time>2026-09-02T20:50:15Z</time>
  <course>0.0</course>
  <speed>0.0</speed>
  <fix>3d</fix>
</trkpt>
<trkpt lat="40.0713749" lon="-105.229789">
  <ele>1583.0</ele>
  <time>2026-09-02T20:50:15Z</time>
  <course>0.0</course>
  <speed>0.0</speed>
  <fix>3d</fix>
</trkpt>
<trkpt lat="40.0713749" lon="-105.229789">
  <ele>1583.0</ele>
  <time>2026-09-02T20:50:15Z</time>
  <course>0.0</course>
  <speed>0.0</speed>
  <fix>3d</fix>
</trkpt>
<trkpt lat="40.0713749" lon="-105.229789">
  <ele>1583.0</ele>
  <time>2026-09-02T20:50:15Z</time>
  <course>0.0</course>
  <speed>0.0</speed>
  <fix>3d</fix>
</trkpt>
<trkpt lat="40.0713749" lon="-105.229789">
  <ele>1583.0</ele>
  <time>2026-09-02T20:50:15Z</time>
  <course>0.0</course>
  <speed>0.0</speed>
  <fix>3d</fix>
</trkpt>
<trkpt lat="40.0713749" lon="-105.229789">
  <ele>1583.0</ele>
  <time>2026-09-02T20:50:15Z</time>
  <course>0.0</course>
  <speed>0.0</speed>
  <fix>3d</fix>
</trkpt>
<trkpt lat="40.0713749" lon="-105.229789">
  <ele>1583.0</ele>
  <time>2026-09-02T20:50:15Z</time>
  <course>0.0</course>
  <speed>0.0</speed>
  <fix>3d</fix>
</trkpt>
<trkpt lat="40.0713749" lon="-105.229789">
  <ele>1583.0</ele>
  <time>2026-09-02T20:50:15Z</time>
  <course>0.0</course>
  <speed>0.0</speed>
  <fix>3d</fix>
</trkpt>
<trkpt lat="40.0713749" lon="-105.229789">
  <ele>1583.0</ele>
  <time>2026-09-02T20:50:15Z</time>
  <course>0.0</course>
  <speed>0.0</speed>
  <fix>3d</fix>
</trkpt>
<trkpt lat="40.0713749" lon="-105.229789">
  <ele>1583.0</ele>
  <time>2026-09-02T20:50:15Z</time>
  <course>0.0</course>
  <speed>0.0</speed>
  <fix>3d</fix>
</trkpt>
<trkpt lat="40.0713749" lon="-105.229789">
  <ele>1583.0</ele>
  <time>2026-09-02T20:50:15Z</time>
  <course>0.0</course>
  <speed>0.0</speed>
  <fix>3d</fix>
</trkpt>
<trkpt lat="40.0713749" lon="-105.229789">
  <ele>1583.0</ele>
  <time>2026-09-02T20:50:15Z</time>
  <course>0.0</course>
  <speed>0.0</speed>
  <fix>3d</fix>
</trkpt>
<trkpt lat="40.0713749" lon="-105.229789">
  <ele>1583.0</ele>
  <time>2026-09-02T20:50:15Z</time>
  <course>0.0</course>
  <speed>0.0</speed>
  <fix>3d</fix>
</trkpt>
<trkpt lat="40.0713749" lon="-105.229789">
  <ele>1583.0</ele>
  <time>2026-09-02T20:50:15Z</time>
  <course>0.0</course>
  <speed>0.0</speed>
  <fix>3d</fix>
</trkpt>
<trkpt lat="40.0713749" lon="-105.229789">
  <ele>1583.0</ele>
  <time>2026-09-02T20:50:15Z</time>
  <course>0.0</course>
  <speed>0.0</speed>
  <fix>3d</fix>
</trkpt>
<trkpt lat="40.0713749" lon="-105.229789">
  <ele>1583.0</ele>
  <time>2026-09-02T20:50:15Z</time>
  <course>0.0</course>
  <speed>0.0</speed>
  <fix>3d</fix>
</trkpt>
<trkpt lat="40.0713749" lon="-105.229789">
  <ele>1583.0</ele>
  <time>2026-09-02T20:50:15Z</time>
  <course>0.0</course>
  <speed>0.0</speed>
  <fix>3d</fix>
</trkpt>
<trkpt lat="40.0713749" lon="-105.229789">
  <ele>1583.0</ele>
  <time>2026-09-02T20:50:15Z</time>
  <course>0.0</course>
  <speed>0.0</speed>
  <fix>3d</fix>
</trkpt>
<trkpt lat="40.0713749" lon="-105.229789">
  <ele>1583.0</ele>
  <time>2026-09-02T20:50:15Z</time>
  <course>0.0</course>
  <speed>0.0</speed>
  <fix>3d</fix>
</trkpt>
<trkpt lat="40.0713749" lon="-105.229789">
  <ele>1583.0</ele>
  <time>2026-09-02T20:50:15Z</time>
  <course>0.0</course>
  <speed>0.0</speed>
  <fix>3d</fix>
</trkpt>
<trkpt lat="40.0713749" lon="-105.229789">
  <ele>1583.0</ele>
  <time>2026-09-02T20:50:15Z</time>
  <course>0.0</course>
  <speed>0.0</speed>
  <fix>3d</fix>
</trkpt>
<trkpt lat="40.0713749" lon="-105.229789">
  <ele>1583.0</ele>
  <time>2026-09-02T20:50:15Z</time>
  <course>0.0</course>
  <speed>0.0</speed>
  <fix>3d</fix>
</trkpt>
<trkpt lat="40.0713749" lon="-105.229789">
  <ele>1583.0</ele>
  <time>2026-09-02T20:50:15Z</time>
  <course>0.0</course>
  <speed>0.0</speed>
  <fix>3d</fix>
</trkpt>
<trkpt lat="40.0713749" lon="-105.229789">
  <ele>1583.0</ele>
  <time>2026-09-02T20:50:15Z</time>
  <course>0.0</course>
  <speed>0.0</speed>
  <fix>3d</fix>
</trkpt>
<trkpt lat="40.0713749" lon="-105.229789">
  <ele>1583.0</ele>
  <time>2026-09-02T20:50:15Z</time>
  <course>0.0</course>
  <speed>0.0</speed>
  <fix>3d</fix>
</trkpt>
<trkpt lat="40.0713749" lon="-105.229789">
  <ele>1583.0</ele>
  <time>2026-09-02T20:50:15Z</time>
  <course>0.0</course>
  <speed>0.0</speed>
  <fix>3d</fix>
</trkpt>
<trkpt lat="40.0713749" lon="-105.229789">
  <ele>1583.0</ele>
  <time>2026-09-02T20:50:15Z</time>
  <course>0.0</course>
  <speed>0.0</speed>
  <fix>3d</fix>
</trkpt>
<trkpt lat="40.0713749" lon="-105.229789">
  <ele>1583.0</ele>
  <time>2026-09-02T20:50:15Z</time>
  <course>0.0</course>
  <speed>0.0</speed>
  <fix>3d</fix>
</trkpt>
<trkpt lat="40.0713749" lon="-105.229789">
  <ele>1583.0</ele>
  <time>2026-09-02T20:50:15Z</time>
  <course>0.0</course>
  <speed>0.0</speed>
  <fix>3d</fix>
</trkpt>
<trkpt lat="40.0713749" lon="-105.229789">
  <ele>1583.0</ele>
  <time>2026-09-02T20:50:15Z</time>
  <course>0.0</course>
  <speed>0.0</speed>
  <fix>3d</fix>
</trkpt>
<trkpt lat="40.0713749" lon="-105.229789">
  <ele>1583.0</ele>
  <time>2026-09-02T20:50:15Z</time>
  <course>0.0</course>
  <speed>0.0</speed>
  <fix>3d</fix>
</trkpt>
<trkpt lat="40.0713749" lon="-105.229789">
  <ele>1583.0</ele>
  <time>2026-09-02T20:50:15Z</time>
  <course>0.0</course>
  <speed>0.0</speed>
  <fix>3d</fix>
</trkpt>
<trkpt lat="40.0713749" lon="-105.229789">
  <ele>1583.0</ele>
  <time>2026-09-02T20:50:15Z</time>
  <course>0.0</course>
  <speed>0.0</speed>
  <fix>3d</fix>
</trkpt>
<trkpt lat="40.0713749" lon="-105.229789">
  <ele>1583.0</ele>
  <time>2026-09-02T20:50:15Z</time>
  <course>0.0</course>
  <speed>0.0</speed>
  <fix>3d</fix>
</trkpt>
<trkpt lat="40.0713749" lon="-105.229789">
  <ele>1583.0</ele>
  <time>2026-09-02T20:50:15Z</time>
  <course>0.0</course>
  <speed>0.0</speed>
  <fix>3d</fix>
</trkpt>
<trkpt lat="40.0713749" lon="-105.229789">
  <ele>1583.0</ele>
  <time>2026-09-02T20:50:15Z</time>
  <course>0.0</course>
  <speed>0.0</speed>
  <fix>3d</fix>
</trkpt>
<trkpt lat="40.0713749" lon="-105.229789">
  <ele>1583.0</ele>
  <time>2026-09-02T20:50:15Z</time>
  <course>0.0</course>
  <speed>0.0</speed>
  <fix>3d</fix>
</trkpt>
<trkpt lat="40.0713749" lon="-105.229789">
  <ele>1583.0</ele>
  <time>2026-09-02T20:50:15Z</time>
  <course>0.0</course>
  <speed>0.0</speed>
  <fix>3d</fix>
</trkpt>
<trkpt lat="40.0713749" lon="-105.229789">
  <ele>1583.0</ele>
  <time>2026-09-02T20:50:15Z</time>
  <course>0.0</course>
  <speed>0.0</speed>
  <fix>3d</fix>
</trkpt>
<trkpt lat="40.0713749" lon="-105.229789">
  <ele>1583.0</ele>
  <time>2026-09-02T20:50:15Z</time>
  <course>0.0</course>
  <speed>0.0</speed>
  <fix>3d</fix>
</trkpt>
<trkpt lat="40.0713749" lon="-105.229789">
  <ele>1583.0</ele>
  <time>2026-09-02T20:50:15Z</time>
  <course>0.0</course>
  <speed>0.0</speed>
  <fix>3d</fix>
</trkpt>
<trkpt lat="40.0713749" lon="-105.229789">
  <ele>1583.0</ele>
  <time>2026-09-02T20:50:15Z</time>
  <course>0.0</course>
  <speed>0.0</speed>
  <fix>3d</fix>
</trkpt>
<trkpt lat="40.0713749" lon="-105.229789">
  <ele>1583.0</ele>
  <time>2026-09-02T20:50:15Z</time>
  <course>0.0</course>
  <speed>0.0</speed>
  <fix>3d</fix>
</trkpt>
<trkpt lat="40.0713749" lon="-105.229789">
  <ele>1583.0</ele>
  <time>2026-09-02T20:50:15Z</time>
  <course>0.0</course>
  <speed>0.0</speed>
  <fix>3d</fix>
</trkpt>
<trkpt lat="40.0713749" lon="-105.229789">
  <ele>1583.0</ele>
  <time>2026-09-02T20:50:15Z</time>
  <course>0.0</course>
  <speed>0.0</speed>
  <fix>3d</fix>
</trkpt>
<trkpt lat="40.0713749" lon="-105.229789">
  <ele>1583.0</ele>
  <time>2026-09-02T20:50:15Z</time>
  <course>0.0</course>
  <speed>0.0</speed>
  <fix>3d</fix>
</trkpt>
<trkpt lat="40.0713749" lon="-105.229789">
  <ele>1583.0</ele>
  <time>2026-09-02T20:50:15Z</time>
  <course>0.0</course>
  <speed>0.0</speed>
  <fix>3d</fix>
</trkpt>
<trkpt lat="40.0713749" lon="-105.229789">
  <ele>1583.0</ele>
  <time>2026-09-02T20:50:15Z</time>
  <course>0.0</course>
  <speed>0.0</speed>
  <fix>3d</fix>
</trkpt>
<trkpt lat="40.0713749" lon="-105.229789">
  <ele>1583.0</ele>
  <time>2026-09-02T20:50:15Z</time>
  <course>0.0</course>
  <speed>0.0</speed>
  <fix>3d</fix>
</trkpt>
<trkpt lat="40.0713749" lon="-105.229789">
  <ele>1583.0</ele>
  <time>2026-09-02T20:50:15Z</time>
  <course>0.0</course>
  <speed>0.0</speed>
  <fix>3d</fix>
</trkpt>
<trkpt lat="40.0713749" lon="-105.229789">
  <ele>1583.0</ele>
  <time>2026-09-02T20:50:15Z</time>
  <course>0.0</course>
  <speed>0.0</speed>
  <fix>3d</fix>
</trkpt>
<trkpt lat="40.0713749" lon="-105.229789">
  <ele>1583.0</ele>
  <time>2026-09-02T20:50:15Z</time>
  <course>0.0</course>
  <speed>0.0</speed>
  <fix>3d</fix>
</trkpt>
<trkpt lat="40.0713749" lon="-105.229789">
  <ele>1583.0</ele>
  <time>2026-09-02T20:50:15Z</time>
  <course>0.0</course>
  <speed>0.0</speed>
  <fix>3d</fix>
</trkpt>
<trkpt lat="40.0713749" lon="-105.229789">
  <ele>1583.0</ele>
  <time>2026-09-02T20:50:15Z</time>
  <course>0.0</course>
  <speed>0.0</speed>
  <fix>3d</fix>
</trkpt>
<trkpt lat="40.0713749" lon="-105.229789">
  <ele>1583.0</ele>
  <time>2026-09-02T20:50:15Z</time>
  <course>0.0</course>
  <speed>0.0</speed>
  <fix>3d</fix>
</trkpt>
<trkpt lat="40.0713749" lon="-105.229789">
  <ele>1583.0</ele>
  <time>2026-09-02T20:50:15Z</time>
  <course>0.0</course>
  <speed>0.0</speed>
  <fix>3d</fix>
</trkpt>
<trkpt lat="40.0713749" lon="-105.229789">
  <ele>1583.0</ele>
  <time>2026-09-02T20:50:15Z</time>
  <course>0.0</course>
  <speed>0.0</speed>
  <fix>3d</fix>
</trkpt>
<trkpt lat="40.0713749" lon="-105.229789">
  <ele>1583.0</ele>
  <time>2026-09-02T20:50:15Z</time>
  <course>0.0</course>
  <speed>0.0</speed>
  <fix>3d</fix>
</trkpt>
<trkpt lat="40.0713749" lon="-105.229789">
  <ele>1583.0</ele>
  <time>2026-09-02T20:50:15Z</time>
  <course>0.0</course>
  <speed>0.0</speed>
  <fix>3d</fix>
</trkpt>
<trkpt lat="40.0713749" lon="-105.229789">
  <ele>1583.0</ele>
  <time>2026-09-02T20:50:15Z</time>
  <course>0.0</course>
  <speed>0.0</speed>
  <fix>3d</fix>
</trkpt>
<trkpt lat="40.0713749" lon="-105.229789">
  <ele>1583.0</ele>
  <time>2026-09-02T20:50:15Z</time>
  <course>0.0</course>
  <speed>0.0</speed>
  <fix>3d</fix>
</trkpt>
<trkpt lat="40.0713749" lon="-105.229789">
  <ele>1583.0</ele>
  <time>2026-09-02T20:50:15Z</time>
  <course>0.0</course>
  <speed>0.0</speed>
  <fix>3d</fix>
</trkpt>
<trkpt lat="40.0713749" lon="-105.229789">
  <ele>1583.0</ele>
  <time>2026-09-02T20:50:15Z</time>
  <course>0.0</course>
  <speed>0.0</speed>
  <fix>3d</fix>
</trkpt>
<trkpt lat="40.0713749" lon="-105.229789">
  <ele>1583.0</ele>
  <time>2026-09-02T20:50:15Z</time>
  <course>0.0</course>
  <speed>0.0</speed>
  <fix>3d</fix>
</trkpt>
<trkpt lat="40.0713749" lon="-105.229789">
  <ele>1583.0</ele>
  <time>2026-09-02T20:50:15Z</time>
  <course>0.0</course>
  <speed>0.0</speed>
  <fix>3d</fix>
</trkpt>
<trkpt lat="40.0713749" lon="-105.229789">
  <ele>1583.0</ele>
  <time>2026-09-02T20:50:15Z</time>
  <course>0.0</course>
  <speed>0.0</speed>
  <fix>3d</fix>
</trkpt>
<trkpt lat="40.0713749" lon="-105.229789">
  <ele>1583.0</ele>
  <time>2026-09-02T20:50:15Z</time>
  <course>0.0</course>
  <speed>0.0</speed>
  <fix>3d</fix>
</trkpt>
<trkpt lat="40.0713749" lon="-105.229789">
  <ele>1583.0</ele>
  <time>2026-09-02T20:50:15Z</time>
  <course>0.0</course>
  <speed>0.0</speed>
  <fix>3d</fix>
</trkpt>
<trkpt lat="40.0713749" lon="-105.229789">
  <ele>1583.0</ele>
  <time>2026-09-02T20:50:15Z</time>
  <course>0.0</course>
  <speed>0.0</speed>
  <fix>3d</fix>
</trkpt>
<trkpt lat="40.0713749" lon="-105.229789">
  <ele>1583.0</ele>
  <time>2026-09-02T20:50:15Z</time>
  <course>0.0</course>
  <speed>0.0</speed>
  <fix>3d</fix>
</trkpt>
<trkpt lat="40.0713749" lon="-105.229789">
  <ele>1583.0</ele>
  <time>2026-09-02T20:50:15Z</time>
  <course>0.0</course>
  <speed>0.0</speed>
  <fix>3d</fix>
</trkpt>
<trkpt lat="40.0713749" lon="-105.229789">
  <ele>1583.0</ele>
  <time>2026-09-02T20:50:15Z</time>
  <course>0.0</course>
  <speed>0.0</speed>
  <fix>3d</fix>
</trkpt>
<trkpt lat="40.0713749" lon="-105.229789">
  <ele>1583.0</ele>
  <time>2026-09-02T20:50:15Z</time>
  <course>0.0</course>
  <speed>0.0</speed>
  <fix>3d</fix>
</trkpt>
<trkpt lat="40.0713749" lon="-105.229789">
  <ele>1583.0</ele>
  <time>2026-09-02T20:50:15Z</time>
  <course>0.0</course>
  <speed>0.0</speed>
  <fix>3d</fix>
</trkpt>
<trkpt lat="40.0713749" lon="-105.229789">
  <ele>1583.0</ele>
  <time>2026-09-02T20:50:15Z</time>
  <course>0.0</course>
  <speed>0.0</speed>
  <fix>3d</fix>
</trkpt>
<trkpt lat="40.0713749" lon="-105.229789">
  <ele>1583.0</ele>
  <time>2026-09-02T20:50:15Z</time>
  <course>0.0</course>
  <speed>0.0</speed>
  <fix>3d</fix>
</trkpt>
<trkpt lat="40.0713749" lon="-105.229789">
  <ele>1583.0</ele>
  <time>2026-09-02T20:50:15Z</time>
  <course>0.0</course>
  <speed>0.0</speed>
  <fix>3d</fix>
</trkpt>
<trkpt lat="40.0713749" lon="-105.229789">
  <ele>1583.0</ele>
  <time>2026-09-02T20:50:15Z</time>
  <course>0.0</course>
  <speed>0.0</speed>
  <fix>3d</fix>
</trkpt>
<trkpt lat="40.0713749" lon="-105.229789">
  <ele>1583.0</ele>
  <time>2026-09-02T20:50:15Z</time>
  <course>0.0</course>
  <speed>0.0</speed>
  <fix>3d</fix>
</trkpt>
<trkpt lat="40.0713749" lon="-105.229789">
  <ele>1583.0</ele>
  <time>2026-09-02T20:50:15Z</time>
  <course>0.0</course>
  <speed>0.0</speed>
  <fix>3d</fix>
</trkpt>
<trkpt lat="40.0713749" lon="-105.229789">
  <ele>1583.0</ele>
  <time>2026-09-02T20:50:15Z</time>
  <course>0.0</course>
  <speed>0.0</speed>
  <fix>3d</fix>
</trkpt>
<trkpt lat="40.0713749" lon="-105.229789">
  <ele>1583.0</ele>
  <time>2026-09-02T20:50:15Z</time>
  <course>0.0</course>
  <speed>0.0</speed>
  <fix>3d</fix>
</trkpt>
<trkpt lat="40.0713749" lon="-105.229789">
  <ele>1583.0</ele>
  <time>2026-09-02T20:50:15Z</time>
  <course>0.0</course>
  <speed>0.0</speed>
  <fix>3d</fix>
</trkpt>
<trkpt lat="40.0713749" lon="-105.229789">
  <ele>1583.0</ele>
  <time>2026-09-02T20:50:15Z</time>
  <course>0.0</course>
  <speed>0.0</speed>
  <fix>3d</fix>
</trkpt>
<trkpt lat="40.0713749" lon="-105.229789">
  <ele>1583.0</ele>
  <time>2026-09-02T20:50:15Z</time>
  <course>0.0</course>
  <speed>0.0</speed>
  <fix>3d</fix>
</trkpt>
<trkpt lat="40.0713749" lon="-105.229789">
  <ele>1583.0</ele>
  <time>2026-09-02T20:50:15Z</time>
  <course>0.0</course>
  <speed>0.0</speed>
  <fix>3d</fix>
</trkpt>
<trkpt lat="40.0713749" lon="-105.229789">
  <ele>1583.0</ele>
  <time>2026-09-02T20:50:15Z</time>
  <course>0.0</course>
  <speed>0.0</speed>
  <fix>3d</fix>
</trkpt>
<trkpt lat="40.0713749" lon="-105.229789">
  <ele>1583.0</ele>
  <time>2026-09-02T20:50:15Z</time>
  <course>0.0</course>
  <speed>0.0</speed>
  <fix>3d</fix>
</trkpt>
<trkpt lat="40.0713749" lon="-105.229789">
  <ele>1583.0</ele>
  <time>2026-09-02T20:50:15Z</time>
  <course>0.0</course>
  <speed>0.0</speed>
  <fix>3d</fix>
</trkpt>
<trkpt lat="40.0713749" lon="-105.229789">
  <ele>1583.0</ele>
  <time>2026-09-02T20:50:15Z</time>
  <course>0.0</course>
  <speed>0.0</speed>
  <fix>3d</fix>
</trkpt>
<trkpt lat="40.0713749" lon="-105.229789">
  <ele>1583.0</ele>
  <time>2026-09-02T20:50:15Z</time>
  <course>0.0</course>
  <speed>0.0</speed>
  <fix>3d</fix>
</trkpt>
<trkpt lat="40.0713749" lon="-105.229789">
  <ele>1583.0</ele>
  <time>2026-09-02T20:50:15Z</time>
  <course>0.0</course>
  <speed>0.0</speed>
  <fix>3d</fix>
</trkpt>
<trkpt lat="40.0713749" lon="-105.229789">
  <ele>1583.0</ele>
  <time>2026-09-02T20:50:15Z</time>
  <course>0.0</course>
  <speed>0.0</speed>
  <fix>3d</fix>
</trkpt>
<trkpt lat="40.0713749" lon="-105.229789">
  <ele>1583.0</ele>
  <time>2026-09-02T20:50:15Z</time>
  <course>0.0</course>
  <speed>0.0</speed>
  <fix>3d</fix>
</trkpt>
<trkpt lat="40.0713749" lon="-105.229789">
  <ele>1583.0</ele>
  <time>2026-09-02T20:50:15Z</time>
  <course>0.0</course>
  <speed>0.0</speed>
  <fix>3d</fix>
</trkpt>
<trkpt lat="40.0713749" lon="-105.229789">
  <ele>1583.0</ele>
  <time>2026-09-02T20:50:15Z</time>
  <course>0.0</course>
  <speed>0.0</speed>
  <fix>3d</fix>
</trkpt>
<trkpt lat="40.0713749" lon="-105.229789">
  <ele>1583.0</ele>
  <time>2026-09-02T20:50:15Z</time>
  <course>0.0</course>
  <speed>0.0</speed>
  <fix>3d</fix>
</trkpt>
<trkpt lat="40.0713749" lon="-105.229789">
  <ele>1583.0</ele>
  <time>2026-09-02T20:50:15Z</time>
  <course>0.0</course>
  <speed>0.0</speed>
  <fix>3d</fix>
</trkpt>
<trkpt lat="40.0713749" lon="-105.229789">
  <ele>1583.0</ele>
  <time>2026-09-02T20:50:15Z</time>
  <course>0.0</course>
  <speed>0.0</speed>
  <fix>3d</fix>
</trkpt>
<trkpt lat="40.0713749" lon="-105.229789">
  <ele>1583.0</ele>
  <time>2026-09-02T20:50:15Z</time>
  <course>0.0</course>
  <speed>0.0</speed>
  <fix>3d</fix>
</trkpt>
<trkpt lat="40.0713749" lon="-105.229789">
  <ele>1583.0</ele>
  <time>2026-09-02T20:50:15Z</time>
  <course>0.0</course>
  <speed>0.0</speed>
  <fix>3d</fix>
</trkpt>
<trkpt lat="40.0713749" lon="-105.229789">
  <ele>1583.0</ele>
  <time>2026-09-02T20:50:15Z</time>
  <course>0.0</course>
  <speed>0.0</speed>
  <fix>3d</fix>
</trkpt>
<trkpt lat="40.0713749" lon="-105.229789">
  <ele>1583.0</ele>
  <time>2026-09-02T20:50:15Z</time>
  <course>0.0</course>
  <speed>0.0</speed>
  <fix>3d</fix>
</trkpt>
<trkpt lat="40.0713749" lon="-105.229789">
  <ele>1583.0</ele>
  <time>2026-09-02T20:50:15Z</time>
  <course>0.0</course>
  <speed>0.0</speed>
  <fix>3d</fix>
</trkpt>
<trkpt lat="40.0713749" lon="-105.229789">
  <ele>1583.0</ele>
  <time>2026-09-02T20:50:15Z</time>
  <course>0.0</course>
  <speed>0.0</speed>
  <fix>3d</fix>
</trkpt>
<trkpt lat="40.0713749" lon="-105.229789">
  <ele>1583.0</ele>
  <time>2026-09-02T20:50:15Z</time>
  <course>0.0</course>
  <speed>0.0</speed>
  <fix>3d</fix>
</trkpt>
<trkpt lat="40.0713749" lon="-105.229789">
  <ele>1583.0</ele>
  <time>2026-09-02T20:50:15Z</time>
  <course>0.0</course>
  <speed>0.0</speed>
  <fix>3d</fix>
</trkpt>
<trkpt lat="40.0713749" lon="-105.229789">
  <ele>1583.0</ele>
  <time>2026-09-02T20:50:15Z</time>
  <course>0.0</course>
  <speed>0.0</speed>
  <fix>3d</fix>
</trkpt>
<trkpt lat="40.0713749" lon="-105.229789">
  <ele>1583.0</ele>
  <time>2026-09-02T20:50:15Z</time>
  <course>0.0</course>
  <speed>0.0</speed>
  <fix>3d</fix>
</trkpt>
<trkpt lat="40.0713749" lon="-105.229789">
  <ele>1583.0</ele>
  <time>2026-09-02T20:50:15Z</time>
  <course>0.0</course>
  <speed>0.0</speed>
  <fix>3d</fix>
</trkpt>
<trkpt lat="40.0713749" lon="-105.229789">
  <ele>1583.0</ele>
  <time>2026-09-02T20:50:15Z</time>
  <course>0.0</course>
  <speed>0.0</speed>
  <fix>3d</fix>
</trkpt>
<trkpt lat="40.0713749" lon="-105.229789">
  <ele>1583.0</ele>
  <time>2026-09-02T20:50:15Z</time>
  <course>0.0</course>
  <speed>0.0</speed>
  <fix>3d</fix>
</trkpt>
<trkpt lat="40.0713749" lon="-105.229789">
  <ele>1583.0</ele>
  <time>2026-09-02T20:50:15Z</time>
  <course>0.0</course>
  <speed>0.0</speed>
  <fix>3d</fix>
</trkpt>
<trkpt lat="40.0713749" lon="-105.229789">
  <ele>1583.0</ele>
  <time>2026-09-02T20:50:15Z</time>
  <course>0.0</course>
  <speed>0.0</speed>
  <fix>3d</fix>
</trkpt>
<trkpt lat="40.0713749" lon="-105.229789">
  <ele>1583.0</ele>
  <time>2026-09-02T20:50:15Z</time>
  <course>0.0</course>
  <speed>0.0</speed>
  <fix>3d</fix>
</trkpt>
<trkpt lat="40.0713749" lon="-105.229789">
  <ele>1583.0</ele>
  <time>2026-09-02T20:50:15Z</time>
  <course>0.0</course>
  <speed>0.0</speed>
  <fix>3d</fix>
</trkpt>
<trkpt lat="40.0713749" lon="-105.229789">
  <ele>1583.0</ele>
  <time>2026-09-02T20:50:15Z</time>
  <course>0.0</course>
  <speed>0.0</speed>
  <fix>3d</fix>
</trkpt>
<trkpt lat="40.0713749" lon="-105.229789">
  <ele>1583.0</ele>
  <time>2026-09-02T20:50:15Z</time>
  <course>0.0</course>
  <speed>0.0</speed>
  <fix>3d</fix>
</trkpt>
<trkpt lat="40.0713749" lon="-105.229789">
  <ele>1583.0</ele>
  <time>2026-09-02T20:50:15Z</time>
  <course>0.0</course>
  <speed>0.0</speed>
  <fix>3d</fix>
</trkpt>
<trkpt lat="40.0713749" lon="-105.229789">
  <ele>1583.0</ele>
  <time>2026-09-02T20:50:15Z</time>
  <course>0.0</course>
  <speed>0.0</speed>
  <fix>3d</fix>
</trkpt>
<trkpt lat="40.0713749" lon="-105.229789">
  <ele>1583.0</ele>
  <time>2026-09-02T20:50:15Z</time>
  <course>0.0</course>
  <speed>0.0</speed>
  <fix>3d</fix>
</trkpt>
<trkpt lat="40.0713749" lon="-105.229789">
  <ele>1583.0</ele>
  <time>2026-09-02T20:50:15Z</time>
  <course>0.0</course>
  <speed>0.0</speed>
  <fix>3d</fix>
</trkpt>
<trkpt lat="40.0713749" lon="-105.229789">
  <ele>1583.0</ele>
  <time>2026-09-02T20:50:15Z</time>
  <course>0.0</course>
  <speed>0.0</speed>
  <fix>3d</fix>
</trkpt>
<trkpt lat="40.0713749" lon="-105.229789">
  <ele>1583.0</ele>
  <time>2026-09-02T20:50:15Z</time>
  <course>0.0</course>
  <speed>0.0</speed>
  <fix>3d</fix>
</trkpt>
<trkpt lat="40.0713749" lon="-105.229789">
  <ele>1583.0</ele>
  <time>2026-09-02T20:50:15Z</time>
  <course>0.0</course>
  <speed>0.0</speed>
  <fix>3d</fix>
</trkpt>
<trkpt lat="40.0713749" lon="-105.229789">
  <ele>1583.0</ele>
  <time>2026-09-02T20:50:15Z</time>
  <course>0.0</course>
  <speed>0.0</speed>
  <fix>3d</fix>
</trkpt>
<trkpt lat="40.0713749" lon="-105.229789">
  <ele>1583.0</ele>
  <time>2026-09-02T20:50:15Z</time>
  <course>0.0</course>
  <speed>0.0</speed>
  <fix>3d</fix>
</trkpt>
<trkpt lat="40.0713749" lon="-105.229789">
  <ele>1583.0</ele>
  <time>2026-09-02T20:50:15Z</time>
  <course>0.0</course>
  <speed>0.0</speed>
  <fix>3d</fix>
</trkpt>
<trkpt lat="40.0713749" lon="-105.229789">
  <ele>1583.0</ele>
  <time>2026-09-02T20:50:15Z</time>
  <course>0.0</course>
  <speed>0.0</speed>
  <fix>3d</fix>
</trkpt>
<trkpt lat="40.0713749" lon="-105.229789">
  <ele>1583.0</ele>
  <time>2026-09-02T20:50:15Z</time>
  <course>0.0</course>
  <speed>0.0</speed>
  <fix>3d</fix>
</trkpt>
<trkpt lat="40.0713749" lon="-105.229789">
  <ele>1583.0</ele>
  <time>2026-09-02T20:50:15Z</time>
  <course>0.0</course>
  <speed>0.0</speed>
  <fix>3d</fix>
</trkpt>
<trkpt lat="40.0713749" lon="-105.229789">
  <ele>1583.0</ele>
  <time>2026-09-02T20:50:15Z</time>
  <course>0.0</course>
  <speed>0.0</speed>
  <fix>3d</fix>
</trkpt>
<trkpt lat="40.0713749" lon="-105.229789">
  <ele>1583.0</ele>
  <time>2026-09-02T20:50:15Z</time>
  <course>0.0</course>
  <speed>0.0</speed>
  <fix>3d</fix>
</trkpt>
<trkpt lat="40.0713749" lon="-105.229789">
  <ele>1583.0</ele>
  <time>2026-09-02T20:50:15Z</time>
  <course>0.0</course>
  <speed>0.0</speed>
  <fix>3d</fix>
</trkpt>
<trkpt lat="40.0713749" lon="-105.229789">
  <ele>1583.0</ele>
  <time>2026-09-02T20:50:15Z</time>
  <course>0.0</course>
  <speed>0.0</speed>
  <fix>3d</fix>
</trkpt>
<trkpt lat="40.0713749" lon="-105.229789">
  <ele>1583.0</ele>
  <time>2026-09-02T20:50:15Z</time>
  <course>0.0</course>
  <speed>0.0</speed>
  <fix>3d</fix>
</trkpt>
<trkpt lat="40.0713749" lon="-105.229789">
  <ele>1583.0</ele>
  <time>2026-09-02T20:50:15Z</time>
  <course>0.0</course>
  <speed>0.0</speed>
  <fix>3d</fix>
</trkpt>
<trkpt lat="40.0713749" lon="-105.229789">
  <ele>1583.0</ele>
  <time>2026-09-02T20:50:15Z</time>
  <course>0.0</course>
  <speed>0.0</speed>
  <fix>3d</fix>
</trkpt>
<trkpt lat="40.0713749" lon="-105.229789">
  <ele>1583.0</ele>
  <time>2026-09-02T20:50:15Z</time>
  <course>0.0</course>
  <speed>0.0</speed>
  <fix>3d</fix>
</trkpt>
<trkpt lat="40.0713749" lon="-105.229789">
  <ele>1583.0</ele>
  <time>2026-09-02T20:50:15Z</time>
  <course>0.0</course>
  <speed>0.0</speed>
  <fix>3d</fix>
</trkpt>
<trkpt lat="40.0713749" lon="-105.229789">
  <ele>1583.0</ele>
  <time>2026-09-02T20:50:15Z</time>
  <course>0.0</course>
  <speed>0.0</speed>
  <fix>3d</fix>
</trkpt>
<trkpt lat="40.0713749" lon="-105.229789">
  <ele>1583.0</ele>
  <time>2026-09-02T20:50:15Z</time>
  <course>0.0</course>
  <speed>0.0</speed>
  <fix>3d</fix>
</trkpt>
<trkpt lat="40.0713749" lon="-105.229789">
  <ele>1583.0</ele>
  <time>2026-09-02T20:50:15Z</time>
  <course>0.0</course>
  <speed>0.0</speed>
  <fix>3d</fix>
</trkpt>
<trkpt lat="40.0713749" lon="-105.229789">
  <ele>1583.0</ele>
  <time>2026-09-02T20:50:15Z</time>
  <course>0.0</course>
  <speed>0.0</speed>
  <fix>3d</fix>
</trkpt>
<trkpt lat="40.0713749" lon="-105.229789">
  <ele>1583.0</ele>
  <time>2026-09-02T20:50:15Z</time>
  <course>0.0</course>
  <speed>0.0</speed>
  <fix>3d</fix>
</trkpt>
<trkpt lat="40.0713749" lon="-105.229789">
  <ele>1583.0</ele>
  <time>2026-09-02T20:50:15Z</time>
  <course>0.0</course>
  <speed>0.0</speed>
  <fix>3d</fix>
</trkpt>
<trkpt lat="40.0713749" lon="-105.229789">
  <ele>1583.0</ele>
  <time>2026-09-02T20:50:15Z</time>
  <course>0.0</course>
  <speed>0.0</speed>
  <fix>3d</fix>
</trkpt>
<trkpt lat="40.0713749" lon="-105.229789">
  <ele>1583.0</ele>
  <time>2026-09-02T20:50:15Z</time>
  <course>0.0</course>
  <speed>0.0</speed>
  <fix>3d</fix>
</trkpt>
<trkpt lat="40.0713749" lon="-105.229789">
  <ele>1583.0</ele>
  <time>2026-09-02T20:50:15Z</time>
  <course>0.0</course>
  <speed>0.0</speed>
  <fix>3d</fix>
</trkpt>
<trkpt lat="40.0713749" lon="-105.229789">
  <ele>1583.0</ele>
  <time>2026-09-02T20:50:15Z</time>
  <course>0.0</course>
  <speed>0.0</speed>
  <fix>3d</fix>
</trkpt>
<trkpt lat="40.0713749" lon="-105.229789">
  <ele>1583.0</ele>
  <time>2026-09-02T20:50:15Z</time>
  <course>0.0</course>
  <speed>0.0</speed>
  <fix>3d</fix>
</trkpt>
<trkpt lat="40.0713749" lon="-105.229789">
  <ele>1583.0</ele>
  <time>2026-09-02T20:50:15Z</time>
  <course>0.0</course>
  <speed>0.0</speed>
  <fix>3d</fix>
</trkpt>
<trkpt lat="40.0713749" lon="-105.229789">
  <ele>1583.0</ele>
  <time>2026-09-02T20:50:15Z</time>
  <course>0.0</course>
  <speed>0.0</speed>
  <fix>3d</fix>
</trkpt>
<trkpt lat="40.0713749" lon="-105.229789">
  <ele>1583.0</ele>
  <time>2026-09-02T20:50:15Z</time>
  <course>0.0</course>
  <speed>0.0</speed>
  <fix>3d</fix>
</trkpt>
<trkpt lat="40.0713749" lon="-105.229789">
  <ele>1583.0</ele>
  <time>2026-09-02T20:50:15Z</time>
  <course>0.0</course>
  <speed>0.0</speed>
  <fix>3d</fix>
</trkpt>
<trkpt lat="40.0713749" lon="-105.229789">
  <ele>1583.0</ele>
  <time>2026-09-02T20:50:15Z</time>
  <course>0.0</course>
  <speed>0.0</speed>
  <fix>3d</fix>
</trkpt>
<trkpt lat="40.0713749" lon="-105.229789">
  <ele>1583.0</ele>
  <time>2026-09-02T20:50:15Z</time>
  <course>0.0</course>
  <speed>0.0</speed>
  <fix>3d</fix>
</trkpt>
<trkpt lat="40.0713749" lon="-105.229789">
  <ele>1583.0</ele>
  <time>2026-09-02T20:50:15Z</time>
  <course>0.0</course>
  <speed>0.0</speed>
  <fix>3d</fix>
</trkpt>
<trkpt lat="40.0713749" lon="-105.229789">
  <ele>1583.0</ele>
  <time>2026-09-02T20:50:15Z</time>
  <course>0.0</course>
  <speed>0.0</speed>
  <fix>3d</fix>
</trkpt>
<trkpt lat="40.0713749" lon="-105.229789">
  <ele>1583.0</ele>
  <time>2026-09-02T20:50:15Z</time>
  <course>0.0</course>
  <speed>0.0</speed>
  <fix>3d</fix>
</trkpt>
<trkpt lat="40.0713749" lon="-105.229789">
  <ele>1583.0</ele>
  <time>2026-09-02T20:50:15Z</time>
  <course>0.0</course>
  <speed>0.0</speed>
  <fix>3d</fix>
</trkpt>
<trkpt lat="40.0713749" lon="-105.229789">
  <ele>1583.0</ele>
  <time>2026-09-02T20:50:15Z</time>
  <course>0.0</course>
  <speed>0.0</speed>
  <fix>3d</fix>
</trkpt>
<trkpt lat="40.0713749" lon="-105.229789">
  <ele>1583.0</ele>
  <time>2026-09-02T20:50:15Z</time>
  <course>0.0</course>
  <speed>0.0</speed>
  <fix>3d</fix>
</trkpt>
<trkpt lat="40.0713749" lon="-105.229789">
  <ele>1583.0</ele>
  <time>2026-09-02T20:50:15Z</time>
  <course>0.0</course>
  <speed>0.0</speed>
  <fix>3d</fix>
</trkpt>
<trkpt lat="40.0713749" lon="-105.229789">
  <ele>1583.0</ele>
  <time>2026-09-02T20:50:15Z</time>
  <course>0.0</course>
  <speed>0.0</speed>
  <fix>3d</fix>
</trkpt>
<trkpt lat="40.0713749" lon="-105.229789">
  <ele>1583.0</ele>
  <time>2026-09-02T20:50:15Z</time>
  <course>0.0</course>
  <speed>0.0</speed>
  <fix>3d</fix>
</trkpt>
<trkpt lat="40.0713749" lon="-105.229789">
  <ele>1583.0</ele>
  <time>2026-09-02T20:50:15Z</time>
  <course>0.0</course>
  <speed>0.0</speed>
  <fix>3d</fix>
</trkpt>
<trkpt lat="40.0713749" lon="-105.229789">
  <ele>1583.0</ele>
  <time>2026-09-02T20:50:15Z</time>
  <course>0.0</course>
  <speed>0.0</speed>
  <fix>3d</fix>
</trkpt>
<trkpt lat="40.0713749" lon="-105.229789">
  <ele>1583.0</ele>
  <time>2026-09-02T20:50:15Z</time>
  <course>0.0</course>
  <speed>0.0</speed>
  <fix>3d</fix>
</trkpt>
<trkpt lat="40.0713749" lon="-105.229789">
  <ele>1583.0</ele>
  <time>2026-09-02T20:50:15Z</time>
  <course>0.0</course>
  <speed>0.0</speed>
  <fix>3d</fix>
</trkpt>
<trkpt lat="40.0713749" lon="-105.229789">
  <ele>1583.0</ele>
  <time>2026-09-02T20:50:15Z</time>
  <course>0.0</course>
  <speed>0.0</speed>
  <fix>3d</fix>
</trkpt>
<trkpt lat="40.0713749" lon="-105.229789">
  <ele>1583.0</ele>
  <time>2026-09-02T20:50:15Z</time>
  <course>0.0</course>
  <speed>0.0</speed>
  <fix>3d</fix>
</trkpt>
<trkpt lat="40.0713749" lon="-105.229789">
  <ele>1583.0</ele>
  <time>2026-09-02T20:50:15Z</time>
  <course>0.0</course>
  <speed>0.0</speed>
  <fix>3d</fix>
</trkpt>
<trkpt lat="40.0713749" lon="-105.229789">
  <ele>1583.0</ele>
  <time>2026-09-02T20:50:15Z</time>
  <course>0.0</course>
  <speed>0.0</speed>
  <fix>3d</fix>
</trkpt>
<trkpt lat="40.0713749" lon="-105.229789">
  <ele>1583.0</ele>
  <time>2026-09-02T20:50:15Z</time>
  <course>0.0</course>
  <speed>0.0</speed>
  <fix>3d</fix>
</trkpt>
<trkpt lat="40.0713749" lon="-105.229789">
  <ele>1583.0</ele>
  <time>2026-09-02T20:50:15Z</time>
  <course>0.0</course>
  <speed>0.0</speed>
  <fix>3d</fix>
</trkpt>
<trkpt lat="40.0713749" lon="-105.229789">
  <ele>1583.0</ele>
  <time>2026-09-02T20:50:15Z</time>
  <course>0.0</course>
  <speed>0.0</speed>
  <fix>3d</fix>
</trkpt>
<trkpt lat="40.0713749" lon="-105.229789">
  <ele>1583.0</ele>
  <time>2026-09-02T20:50:15Z</time>
  <course>0.0</course>
  <speed>0.0</speed>
  <fix>3d</fix>
</trkpt>
<trkpt lat="40.0713749" lon="-105.229789">
  <ele>1583.0</ele>
  <time>2026-09-02T20:50:15Z</time>
  <course>0.0</course>
  <speed>0.0</speed>
  <fix>3d</fix>
</trkpt>
<trkpt lat="40.0713749" lon="-105.229789">
  <ele>1583.0</ele>
  <time>2026-09-02T20:50:15Z</time>
  <course>0.0</course>
  <speed>0.0</speed>
  <fix>3d</fix>
</trkpt>
<trkpt lat="40.0713749" lon="-105.229789">
  <ele>1583.0</ele>
  <time>2026-09-02T20:50:15Z</time>
  <course>0.0</course>
  <speed>0.0</speed>
  <fix>3d</fix>
</trkpt>
<trkpt lat="40.0713749" lon="-105.229789">
  <ele>1583.0</ele>
  <time>2026-09-02T20:50:15Z</time>
  <course>0.0</course>
  <speed>0.0</speed>
  <fix>3d</fix>
</trkpt>
<trkpt lat="40.0713749" lon="-105.229789">
  <ele>1583.0</ele>
  <time>2026-09-02T20:50:15Z</time>
  <course>0.0</course>
  <speed>0.0</speed>
  <fix>3d</fix>
</trkpt>
<trkpt lat="40.0713749" lon="-105.229789">
  <ele>1583.0</ele>
  <time>2026-09-02T20:50:15Z</time>
  <course>0.0</course>
  <speed>0.0</speed>
  <fix>3d</fix>
</trkpt>
<trkpt lat="40.0713749" lon="-105.229789">
  <ele>1583.0</ele>
  <time>2026-09-02T20:50:15Z</time>
  <course>0.0</course>
  <speed>0.0</speed>
  <fix>3d</fix>
</trkpt>
<trkpt lat="40.0713749" lon="-105.229789">
  <ele>1583.0</ele>
  <time>2026-09-02T20:50:15Z</time>
  <course>0.0</course>
  <speed>0.0</speed>
  <fix>3d</fix>
</trkpt>
<trkpt lat="40.0713749" lon="-105.229789">
  <ele>1583.0</ele>
  <time>2026-09-02T20:50:15Z</time>
  <course>0.0</course>
  <speed>0.0</speed>
  <fix>3d</fix>
</trkpt>
<trkpt lat="40.0713749" lon="-105.229789">
  <ele>1583.0</ele>
  <time>2026-09-02T20:50:15Z</time>
  <course>0.0</course>
  <speed>0.0</speed>
  <fix>3d</fix>
</trkpt>
<trkpt lat="40.0713749" lon="-105.229789">
  <ele>1583.0</ele>
  <time>2026-09-02T20:50:15Z</time>
  <course>0.0</course>
  <speed>0.0</speed>
  <fix>3d</fix>
</trkpt>
<trkpt lat="40.0713749" lon="-105.229789">
  <ele>1583.0</ele>
  <time>2026-09-02T20:50:15Z</time>
  <course>0.0</course>
  <speed>0.0</speed>
  <fix>3d</fix>
</trkpt>
<trkpt lat="40.0713749" lon="-105.229789">
  <ele>1583.0</ele>
  <time>2026-09-02T20:50:15Z</time>
  <course>0.0</course>
  <speed>0.0</speed>
  <fix>3d</fix>
</trkpt>
<trkpt lat="40.0713749" lon="-105.229789">
  <ele>1583.0</ele>
  <time>2026-09-02T20:50:15Z</time>
  <course>0.0</course>
  <speed>0.0</speed>
  <fix>3d</fix>
</trkpt>
<trkpt lat="40.0713749" lon="-105.229789">
  <ele>1583.0</ele>
  <time>2026-09-02T20:50:15Z</time>
  <course>0.0</course>
  <speed>0.0</speed>
  <fix>3d</fix>
</trkpt>
<trkpt lat="40.0713749" lon="-105.229789">
  <ele>1583.0</ele>
  <time>2026-09-02T20:50:15Z</time>
  <course>0.0</course>
  <speed>0.0</speed>
  <fix>3d</fix>
</trkpt>
<trkpt lat="40.0713749" lon="-105.229789">
  <ele>1583.0</ele>
  <time>2026-09-02T20:50:15Z</time>
  <course>0.0</course>
  <speed>0.0</speed>
  <fix>3d</fix>
</trkpt>
<trkpt lat="40.0713749" lon="-105.229789">
  <ele>1583.0</ele>
  <time>2026-09-02T20:50:15Z</time>
  <course>0.0</course>
  <speed>0.0</speed>
  <fix>3d</fix>
</trkpt>
<trkpt lat="40.0713749" lon="-105.229789">
  <ele>1583.0</ele>
  <time>2026-09-02T20:50:15Z</time>
  <course>0.0</course>
  <speed>0.0</speed>
  <fix>3d</fix>
</trkpt>
<trkpt lat="40.0713749" lon="-105.229789">
  <ele>1583.0</ele>
  <time>2026-09-02T20:50:15Z</time>
  <course>0.0</course>
  <speed>0.0</speed>
  <fix>3d</fix>
</trkpt>
<trkpt lat="40.0713749" lon="-105.229789">
  <ele>1583.0</ele>
  <time>2026-09-02T20:50:15Z</time>
  <course>0.0</course>
  <speed>0.0</speed>
  <fix>3d</fix>
</trkpt>
<trkpt lat="40.0713749" lon="-105.229789">
  <ele>1583.0</ele>
  <time>2026-09-02T20:50:15Z</time>
  <course>0.0</course>
  <speed>0.0</speed>
  <fix>3d</fix>
</trkpt>
<trkpt lat="40.0713749" lon="-105.229789">
  <ele>1583.0</ele>
  <time>2026-09-02T20:50:15Z</time>
  <course>0.0</course>
  <speed>0.0</speed>
  <fix>3d</fix>
</trkpt>
<trkpt lat="40.0713749" lon="-105.229789">
  <ele>1583.0</ele>
  <time>2026-09-02T20:50:15Z</time>
  <course>0.0</course>
  <speed>0.0</speed>
  <fix>3d</fix>
</trkpt>
<trkpt lat="40.0713749" lon="-105.229789">
  <ele>1583.0</ele>
  <time>2026-09-02T20:50:15Z</time>
  <course>0.0</course>
  <speed>0.0</speed>
  <fix>3d</fix>
</trkpt>
<trkpt lat="40.0713749" lon="-105.229789">
  <ele>1583.0</ele>
  <time>2026-09-02T20:50:15Z</time>
  <course>0.0</course>
  <speed>0.0</speed>
  <fix>3d</fix>
</trkpt>
<trkpt lat="40.0713749" lon="-105.229789">
  <ele>1583.0</ele>
  <time>2026-09-02T20:50:15Z</time>
  <course>0.0</course>
  <speed>0.0</speed>
  <fix>3d</fix>
</trkpt>
<trkpt lat="40.0713749" lon="-105.229789">
  <ele>1583.0</ele>
  <time>2026-09-02T20:50:15Z</time>
  <course>0.0</course>
  <speed>0.0</speed>
  <fix>3d</fix>
</trkpt>
<trkpt lat="40.0713749" lon="-105.229789">
  <ele>1583.0</ele>
  <time>2026-09-02T20:50:15Z</time>
  <course>0.0</course>
  <speed>0.0</speed>
  <fix>3d</fix>
</trkpt>
<trkpt lat="40.0713749" lon="-105.229789">
  <ele>1583.0</ele>
  <time>2026-09-02T20:50:15Z</time>
  <course>0.0</course>
  <speed>0.0</speed>
  <fix>3d</fix>
</trkpt>
<trkpt lat="40.0713749" lon="-105.229789">
  <ele>1583.0</ele>
  <time>2026-09-02T20:50:15Z</time>
  <course>0.0</course>
  <speed>0.0</speed>
  <fix>3d</fix>
</trkpt>
<trkpt lat="40.0713749" lon="-105.229789">
  <ele>1583.0</ele>
  <time>2026-09-02T20:50:15Z</time>
  <course>0.0</course>
  <speed>0.0</speed>
  <fix>3d</fix>
</trkpt>
<trkpt lat="40.0713749" lon="-105.229789">
  <ele>1583.0</ele>
  <time>2026-09-02T20:50:15Z</time>
  <course>0.0</course>
  <speed>0.0</speed>
  <fix>3d</fix>
</trkpt>
<trkpt lat="40.0713749" lon="-105.229789">
  <ele>1583.0</ele>
  <time>2026-09-02T20:50:15Z</time>
  <course>0.0</course>
  <speed>0.0</speed>
  <fix>3d</fix>
</trkpt>
<trkpt lat="40.0713749" lon="-105.229789">
  <ele>1583.0</ele>
  <time>2026-09-02T20:50:15Z</time>
  <course>0.0</course>
  <speed>0.0</speed>
  <fix>3d</fix>
</trkpt>
<trkpt lat="40.0713749" lon="-105.229789">
  <ele>1583.0</ele>
  <time>2026-09-02T20:50:15Z</time>
  <course>0.0</course>
  <speed>0.0</speed>
  <fix>3d</fix>
</trkpt>
<trkpt lat="40.0713749" lon="-105.229789">
  <ele>1583.0</ele>
  <time>2026-09-02T20:50:15Z</time>
  <course>0.0</course>
  <speed>0.0</speed>
  <fix>3d</fix>
</trkpt>
<trkpt lat="40.0713749" lon="-105.229789">
  <ele>1583.0</ele>
  <time>2026-09-02T20:50:15Z</time>
  <course>0.0</course>
  <speed>0.0</speed>
  <fix>3d</fix>
</trkpt>
<trkpt lat="40.0713749" lon="-105.229789">
  <ele>1583.0</ele>
  <time>2026-09-02T20:50:15Z</time>
  <course>0.0</course>
  <speed>0.0</speed>
  <fix>3d</fix>
</trkpt>
<trkpt lat="40.0713749" lon="-105.229789">
  <ele>1583.0</ele>
  <time>2026-09-02T20:50:15Z</time>
  <course>0.0</course>
  <speed>0.0</speed>
  <fix>3d</fix>
</trkpt>
<trkpt lat="40.0713749" lon="-105.229789">
  <ele>1583.0</ele>
  <time>2026-09-02T20:50:15Z</time>
  <course>0.0</course>
  <speed>0.0</speed>
  <fix>3d</fix>
</trkpt>
<trkpt lat="40.0713749" lon="-105.229789">
  <ele>1583.0</ele>
  <time>2026-09-02T20:50:15Z</time>
  <course>0.0</course>
  <speed>0.0</speed>
  <fix>3d</fix>
</trkpt>
<trkpt lat="40.0713749" lon="-105.229789">
  <ele>1583.0</ele>
  <time>2026-09-02T20:50:15Z</time>
  <course>0.0</course>
  <speed>0.0</speed>
  <fix>3d</fix>
</trkpt>
<trkpt lat="40.0713749" lon="-105.229789">
  <ele>1583.0</ele>
  <time>2026-09-02T20:50:15Z</time>
  <course>0.0</course>
  <speed>0.0</speed>
  <fix>3d</fix>
</trkpt>
<trkpt lat="40.0713749" lon="-105.229789">
  <ele>1583.0</ele>
  <time>2026-09-02T20:50:15Z</time>
  <course>0.0</course>
  <speed>0.0</speed>
  <fix>3d</fix>
</trkpt>
<trkpt lat="40.0713749" lon="-105.229789">
  <ele>1583.0</ele>
  <time>2026-09-02T20:50:15Z</time>
  <course>0.0</course>
  <speed>0.0</speed>
  <fix>3d</fix>
</trkpt>
<trkpt lat="40.0713749" lon="-105.229789">
  <ele>1583.0</ele>
  <time>2026-09-02T20:50:16Z</time>
  <course>0.0</course>
  <speed>0.0</speed>
  <fix>3d</fix>
</trkpt>
<trkpt lat="40.0713749" lon="-105.229789">
  <ele>1583.0</ele>
  <time>2026-09-02T20:50:16Z</time>
  <course>0.0</course>
  <speed>0.0</speed>
  <fix>3d</fix>
</trkpt>
<trkpt lat="40.0713749" lon="-105.229789">
  <ele>1583.0</ele>
  <time>2026-09-02T20:50:16Z</time>
  <course>0.0</course>
  <speed>0.0</speed>
  <fix>3d</fix>
</trkpt>
<trkpt lat="40.0713749" lon="-105.229789">
  <ele>1583.0</ele>
  <time>2026-09-02T20:50:16Z</time>
  <course>0.0</course>
  <speed>0.0</speed>
  <fix>3d</fix>
</trkpt>
<trkpt lat="40.0713749" lon="-105.229789">
  <ele>1583.0</ele>
  <time>2026-09-02T20:50:16Z</time>
  <course>0.0</course>
  <speed>0.0</speed>
  <fix>3d</fix>
</trkpt>
<trkpt lat="40.0713749" lon="-105.229789">
  <ele>1583.0</ele>
  <time>2026-09-02T20:50:16Z</time>
  <course>0.0</course>
  <speed>0.0</speed>
  <fix>3d</fix>
</trkpt>
<trkpt lat="40.0713749" lon="-105.229789">
  <ele>1583.0</ele>
  <time>2026-09-02T20:50:16Z</time>
  <course>0.0</course>
  <speed>0.0</speed>
  <fix>3d</fix>
</trkpt>
<trkpt lat="40.0713749" lon="-105.229789">
  <ele>1583.0</ele>
  <time>2026-09-02T20:50:16Z</time>
  <course>0.0</course>
  <speed>0.0</speed>
  <fix>3d</fix>
</trkpt>
<trkpt lat="40.0713749" lon="-105.229789">
  <ele>1583.0</ele>
  <time>2026-09-02T20:50:16Z</time>
  <course>0.0</course>
  <speed>0.0</speed>
  <fix>3d</fix>
</trkpt>
<trkpt lat="40.0713749" lon="-105.229789">
  <ele>1583.0</ele>
  <time>2026-09-02T20:50:16Z</time>
  <course>0.0</course>
  <speed>0.0</speed>
  <fix>3d</fix>
</trkpt>
<trkpt lat="40.0713749" lon="-105.229789">
  <ele>1583.0</ele>
  <time>2026-09-02T20:50:16Z</time>
  <course>0.0</course>
  <speed>0.0</speed>
  <fix>3d</fix>
</trkpt>
<trkpt lat="40.0713749" lon="-105.229789">
  <ele>1583.0</ele>
  <time>2026-09-02T20:50:16Z</time>
  <course>0.0</course>
  <speed>0.0</speed>
  <fix>3d</fix>
</trkpt>
<trkpt lat="40.0713749" lon="-105.229789">
  <ele>1583.0</ele>
  <time>2026-09-02T20:50:16Z</time>
  <course>0.0</course>
  <speed>0.0</speed>
  <fix>3d</fix>
</trkpt>
<trkpt lat="40.0713749" lon="-105.229789">
  <ele>1583.0</ele>
  <time>2026-09-02T20:50:16Z</time>
  <course>0.0</course>
  <speed>0.0</speed>
  <fix>3d</fix>
</trkpt>
<trkpt lat="40.0713749" lon="-105.229789">
  <ele>1583.0</ele>
  <time>2026-09-02T20:50:16Z</time>
  <course>0.0</course>
  <speed>0.0</speed>
  <fix>3d</fix>
</trkpt>
<trkpt lat="40.0713749" lon="-105.229789">
  <ele>1583.0</ele>
  <time>2026-09-02T20:50:16Z</time>
  <course>0.0</course>
  <speed>0.0</speed>
  <fix>3d</fix>
</trkpt>
<trkpt lat="40.0713749" lon="-105.229789">
  <ele>1583.0</ele>
  <time>2026-09-02T20:50:16Z</time>
  <course>0.0</course>
  <speed>0.0</speed>
  <fix>3d</fix>
</trkpt>
<trkpt lat="40.0713749" lon="-105.229789">
  <ele>1583.0</ele>
  <time>2026-09-02T20:50:16Z</time>
  <course>0.0</course>
  <speed>0.0</speed>
  <fix>3d</fix>
</trkpt>
<trkpt lat="40.0713749" lon="-105.229789">
  <ele>1583.0</ele>
  <time>2026-09-02T20:50:16Z</time>
  <course>0.0</course>
  <speed>0.0</speed>
  <fix>3d</fix>
</trkpt>
<trkpt lat="40.0713749" lon="-105.229789">
  <ele>1583.0</ele>
  <time>2026-09-02T20:50:16Z</time>
  <course>0.0</course>
  <speed>0.0</speed>
  <fix>3d</fix>
</trkpt>
<trkpt lat="40.0713749" lon="-105.229789">
  <ele>1583.0</ele>
  <time>2026-09-02T20:50:16Z</time>
  <course>0.0</course>
  <speed>0.0</speed>
  <fix>3d</fix>
</trkpt>
<trkpt lat="40.0713749" lon="-105.229789">
  <ele>1583.0</ele>
  <time>2026-09-02T20:50:16Z</time>
  <course>0.0</course>
  <speed>0.0</speed>
  <fix>3d</fix>
</trkpt>
<trkpt lat="40.0713749" lon="-105.229789">
  <ele>1583.0</ele>
  <time>2026-09-02T20:50:16Z</time>
  <course>0.0</course>
  <speed>0.0</speed>
  <fix>3d</fix>
</trkpt>
<trkpt lat="40.0713749" lon="-105.229789">
  <ele>1583.0</ele>
  <time>2026-09-02T20:50:16Z</time>
  <course>0.0</course>
  <speed>0.0</speed>
  <fix>3d</fix>
</trkpt>
<trkpt lat="40.0713749" lon="-105.229789">
  <ele>1583.0</ele>
  <time>2026-09-02T20:50:16Z</time>
  <course>0.0</course>
  <speed>0.0</speed>
  <fix>3d</fix>
</trkpt>
<trkpt lat="40.0713749" lon="-105.229789">
  <ele>1583.0</ele>
  <time>2026-09-02T20:50:16Z</time>
  <course>0.0</course>
  <speed>0.0</speed>
  <fix>3d</fix>
</trkpt>
<trkpt lat="40.0713749" lon="-105.229789">
  <ele>1583.0</ele>
  <time>2026-09-02T20:50:16Z</time>
  <course>0.0</course>
  <speed>0.0</speed>
  <fix>3d</fix>
</trkpt>
<trkpt lat="40.0713749" lon="-105.229789">
  <ele>1583.0</ele>
  <time>2026-09-02T20:50:16Z</time>
  <course>0.0</course>
  <speed>0.0</speed>
  <fix>3d</fix>
</trkpt>
<trkpt lat="40.0713749" lon="-105.229789">
  <ele>1583.0</ele>
  <time>2026-09-02T20:50:16Z</time>
  <course>0.0</course>
  <speed>0.0</speed>
  <fix>3d</fix>
</trkpt>
<trkpt lat="40.0713749" lon="-105.229789">
  <ele>1583.0</ele>
  <time>2026-09-02T20:50:16Z</time>
  <course>0.0</course>
  <speed>0.0</speed>
  <fix>3d</fix>
</trkpt>
<trkpt lat="40.0713749" lon="-105.229789">
  <ele>1583.0</ele>
  <time>2026-09-02T20:50:16Z</time>
  <course>0.0</course>
  <speed>0.0</speed>
  <fix>3d</fix>
</trkpt>
<trkpt lat="40.0713749" lon="-105.229789">
  <ele>1583.0</ele>
  <time>2026-09-02T20:50:16Z</time>
  <course>0.0</course>
  <speed>0.0</speed>
  <fix>3d</fix>
</trkpt>
<trkpt lat="40.0713749" lon="-105.229789">
  <ele>1583.0</ele>
  <time>2026-09-02T20:50:16Z</time>
  <course>0.0</course>
  <speed>0.0</speed>
  <fix>3d</fix>
</trkpt>
<trkpt lat="40.0713749" lon="-105.229789">
  <ele>1583.0</ele>
  <time>2026-09-02T20:50:16Z</time>
  <course>0.0</course>
  <speed>0.0</speed>
  <fix>3d</fix>
</trkpt>
<trkpt lat="40.0713749" lon="-105.229789">
  <ele>1583.0</ele>
  <time>2026-09-02T20:50:16Z</time>
  <course>0.0</course>
  <speed>0.0</speed>
  <fix>3d</fix>
</trkpt>
<trkpt lat="40.0713749" lon="-105.229789">
  <ele>1583.0</ele>
  <time>2026-09-02T20:50:16Z</time>
  <course>0.0</course>
  <speed>0.0</speed>
  <fix>3d</fix>
</trkpt>
<trkpt lat="40.0713749" lon="-105.229789">
  <ele>1583.0</ele>
  <time>2026-09-02T20:50:16Z</time>
  <course>0.0</course>
  <speed>0.0</speed>
  <fix>3d</fix>
</trkpt>
<trkpt lat="40.0713749" lon="-105.229789">
  <ele>1583.0</ele>
  <time>2026-09-02T20:50:16Z</time>
  <course>0.0</course>
  <speed>0.0</speed>
  <fix>3d</fix>
</trkpt>
<trkpt lat="40.0713749" lon="-105.229789">
  <ele>1583.0</ele>
  <time>2026-09-02T20:50:16Z</time>
  <course>0.0</course>
  <speed>0.0</speed>
  <fix>3d</fix>
</trkpt>
<trkpt lat="40.0713749" lon="-105.229789">
  <ele>1583.0</ele>
  <time>2026-09-02T20:50:16Z</time>
  <course>0.0</course>
  <speed>0.0</speed>
  <fix>3d</fix>
</trkpt>
<trkpt lat="40.0713749" lon="-105.229789">
  <ele>1583.0</ele>
  <time>2026-09-02T20:50:16Z</time>
  <course>0.0</course>
  <speed>0.0</speed>
  <fix>3d</fix>
</trkpt>
<trkpt lat="40.0713749" lon="-105.229789">
  <ele>1583.0</ele>
  <time>2026-09-02T20:50:16Z</time>
  <course>0.0</course>
  <speed>0.0</speed>
  <fix>3d</fix>
</trkpt>
<trkpt lat="40.0713749" lon="-105.229789">
  <ele>1583.0</ele>
  <time>2026-09-02T20:50:16Z</time>
  <course>0.0</course>
  <speed>0.0</speed>
  <fix>3d</fix>
</trkpt>
<trkpt lat="40.0713749" lon="-105.229789">
  <ele>1583.0</ele>
  <time>2026-09-02T20:50:16Z</time>
  <course>0.0</course>
  <speed>0.0</speed>
  <fix>3d</fix>
</trkpt>
<trkpt lat="40.0713749" lon="-105.229789">
  <ele>1583.0</ele>
  <time>2026-09-02T20:50:16Z</time>
  <course>0.0</course>
  <speed>0.0</speed>
  <fix>3d</fix>
</trkpt>
<trkpt lat="40.0713749" lon="-105.229789">
  <ele>1583.0</ele>
  <time>2026-09-02T20:50:16Z</time>
  <course>0.0</course>
  <speed>0.0</speed>
  <fix>3d</fix>
</trkpt>
<trkpt lat="40.0713749" lon="-105.229789">
  <ele>1583.0</ele>
  <time>2026-09-02T20:50:16Z</time>
  <course>0.0</course>
  <speed>0.0</speed>
  <fix>3d</fix>
</trkpt>
<trkpt lat="40.0713749" lon="-105.229789">
  <ele>1583.0</ele>
  <time>2026-09-02T20:50:16Z</time>
  <course>0.0</course>
  <speed>0.0</speed>
  <fix>3d</fix>
</trkpt>
<trkpt lat="40.0713749" lon="-105.229789">
  <ele>1583.0</ele>
  <time>2026-09-02T20:50:16Z</time>
  <course>0.0</course>
  <speed>0.0</speed>
  <fix>3d</fix>
</trkpt>
<trkpt lat="40.0713749" lon="-105.229789">
  <ele>1583.0</ele>
  <time>2026-09-02T20:50:16Z</time>
  <course>0.0</course>
  <speed>0.0</speed>
  <fix>3d</fix>
</trkpt>
<trkpt lat="40.0713749" lon="-105.229789">
  <ele>1583.0</ele>
  <time>2026-09-02T20:50:16Z</time>
  <course>0.0</course>
  <speed>0.0</speed>
  <fix>3d</fix>
</trkpt>
<trkpt lat="40.0713749" lon="-105.229789">
  <ele>1583.0</ele>
  <time>2026-09-02T20:50:16Z</time>
  <course>0.0</course>
  <speed>0.0</speed>
  <fix>3d</fix>
</trkpt>
<trkpt lat="40.0713749" lon="-105.229789">
  <ele>1583.0</ele>
  <time>2026-09-02T20:50:16Z</time>
  <course>0.0</course>
  <speed>0.0</speed>
  <fix>3d</fix>
</trkpt>
<trkpt lat="40.0713749" lon="-105.229789">
  <ele>1583.0</ele>
  <time>2026-09-02T20:50:16Z</time>
  <course>0.0</course>
  <speed>0.0</speed>
  <fix>3d</fix>
</trkpt>
<trkpt lat="40.0713749" lon="-105.229789">
  <ele>1583.0</ele>
  <time>2026-09-02T20:50:16Z</time>
  <course>0.0</course>
  <speed>0.0</speed>
  <fix>3d</fix>
</trkpt>
<trkpt lat="40.0713749" lon="-105.229789">
  <ele>1583.0</ele>
  <time>2026-09-02T20:50:16Z</time>
  <course>0.0</course>
  <speed>0.0</speed>
  <fix>3d</fix>
</trkpt>
<trkpt lat="40.0713749" lon="-105.229789">
  <ele>1583.0</ele>
  <time>2026-09-02T20:50:16Z</time>
  <course>0.0</course>
  <speed>0.0</speed>
  <fix>3d</fix>
</trkpt>
<trkpt lat="40.0713749" lon="-105.229789">
  <ele>1583.0</ele>
  <time>2026-09-02T20:50:16Z</time>
  <course>0.0</course>
  <speed>0.0</speed>
  <fix>3d</fix>
</trkpt>
<trkpt lat="40.0713749" lon="-105.229789">
  <ele>1583.0</ele>
  <time>2026-09-02T20:50:16Z</time>
  <course>0.0</course>
  <speed>0.0</speed>
  <fix>3d</fix>
</trkpt>
<trkpt lat="40.0713749" lon="-105.229789">
  <ele>1583.0</ele>
  <time>2026-09-02T20:50:16Z</time>
  <course>0.0</course>
  <speed>0.0</speed>
  <fix>3d</fix>
</trkpt>
<trkpt lat="40.0713749" lon="-105.229789">
  <ele>1583.0</ele>
  <time>2026-09-02T20:50:16Z</time>
  <course>0.0</course>
  <speed>0.0</speed>
  <fix>3d</fix>
</trkpt>
<trkpt lat="40.0713749" lon="-105.229789">
  <ele>1583.0</ele>
  <time>2026-09-02T20:50:16Z</time>
  <course>0.0</course>
  <speed>0.0</speed>
  <fix>3d</fix>
</trkpt>
<trkpt lat="40.0713749" lon="-105.229789">
  <ele>1583.0</ele>
  <time>2026-09-02T20:50:16Z</time>
  <course>0.0</course>
  <speed>0.0</speed>
  <fix>3d</fix>
</trkpt>
<trkpt lat="40.0713749" lon="-105.229789">
  <ele>1583.0</ele>
  <time>2026-09-02T20:50:16Z</time>
  <course>0.0</course>
  <speed>0.0</speed>
  <fix>3d</fix>
</trkpt>
<trkpt lat="40.0713749" lon="-105.229789">
  <ele>1583.0</ele>
  <time>2026-09-02T20:50:16Z</time>
  <course>0.0</course>
  <speed>0.0</speed>
  <fix>3d</fix>
</trkpt>
<trkpt lat="40.0713749" lon="-105.229789">
  <ele>1583.0</ele>
  <time>2026-09-02T20:50:16Z</time>
  <course>0.0</course>
  <speed>0.0</speed>
  <fix>3d</fix>
</trkpt>
<trkpt lat="40.0713749" lon="-105.229789">
  <ele>1583.0</ele>
  <time>2026-09-02T20:50:16Z</time>
  <course>0.0</course>
  <speed>0.0</speed>
  <fix>3d</fix>
</trkpt>
<trkpt lat="40.0713749" lon="-105.229789">
  <ele>1583.0</ele>
  <time>2026-09-02T20:50:16Z</time>
  <course>0.0</course>
  <speed>0.0</speed>
  <fix>3d</fix>
</trkpt>
<trkpt lat="40.0713749" lon="-105.229789">
  <ele>1583.0</ele>
  <time>2026-09-02T20:50:16Z</time>
  <course>0.0</course>
  <speed>0.0</speed>
  <fix>3d</fix>
</trkpt>
<trkpt lat="40.0713749" lon="-105.229789">
  <ele>1583.0</ele>
  <time>2026-09-02T20:50:16Z</time>
  <course>0.0</course>
  <speed>0.0</speed>
  <fix>3d</fix>
</trkpt>
<trkpt lat="40.0713749" lon="-105.229789">
  <ele>1583.0</ele>
  <time>2026-09-02T20:50:16Z</time>
  <course>0.0</course>
  <speed>0.0</speed>
  <fix>3d</fix>
</trkpt>
<trkpt lat="40.0713749" lon="-105.229789">
  <ele>1583.0</ele>
  <time>2026-09-02T20:50:16Z</time>
  <course>0.0</course>
  <speed>0.0</speed>
  <fix>3d</fix>
</trkpt>
<trkpt lat="40.0713749" lon="-105.229789">
  <ele>1583.0</ele>
  <time>2026-09-02T20:50:16Z</time>
  <course>0.0</course>
  <speed>0.0</speed>
  <fix>3d</fix>
</trkpt>
<trkpt lat="40.0713749" lon="-105.229789">
  <ele>1583.0</ele>
  <time>2026-09-02T20:50:16Z</time>
  <course>0.0</course>
  <speed>0.0</speed>
  <fix>3d</fix>
</trkpt>
<trkpt lat="40.0713749" lon="-105.229789">
  <ele>1583.0</ele>
  <time>2026-09-02T20:50:16Z</time>
  <course>0.0</course>
  <speed>0.0</speed>
  <fix>3d</fix>
</trkpt>
<trkpt lat="40.0713749" lon="-105.229789">
  <ele>1583.0</ele>
  <time>2026-09-02T20:50:16Z</time>
  <course>0.0</course>
  <speed>0.0</speed>
  <fix>3d</fix>
</trkpt>
<trkpt lat="40.0713749" lon="-105.229789">
  <ele>1583.0</ele>
  <time>2026-09-02T20:50:16Z</time>
  <course>0.0</course>
  <speed>0.0</speed>
  <fix>3d</fix>
</trkpt>
<trkpt lat="40.0713749" lon="-105.229789">
  <ele>1583.0</ele>
  <time>2026-09-02T20:50:16Z</time>
  <course>0.0</course>
  <speed>0.0</speed>
  <fix>3d</fix>
</trkpt>
<trkpt lat="40.0713749" lon="-105.229789">
  <ele>1583.0</ele>
  <time>2026-09-02T20:50:16Z</time>
  <course>0.0</course>
  <speed>0.0</speed>
  <fix>3d</fix>
</trkpt>
<trkpt lat="40.0713749" lon="-105.229789">
  <ele>1583.0</ele>
  <time>2026-09-02T20:50:16Z</time>
  <course>0.0</course>
  <speed>0.0</speed>
  <fix>3d</fix>
</trkpt>
<trkpt lat="40.0713749" lon="-105.229789">
  <ele>1583.0</ele>
  <time>2026-09-02T20:50:16Z</time>
  <course>0.0</course>
  <speed>0.0</speed>
  <fix>3d</fix>
</trkpt>
<trkpt lat="40.0713749" lon="-105.229789">
  <ele>1583.0</ele>
  <time>2026-09-02T20:50:16Z</time>
  <course>0.0</course>
  <speed>0.0</speed>
  <fix>3d</fix>
</trkpt>
<trkpt lat="40.0713749" lon="-105.229789">
  <ele>1583.0</ele>
  <time>2026-09-02T20:50:16Z</time>
  <course>0.0</course>
  <speed>0.0</speed>
  <fix>3d</fix>
</trkpt>
<trkpt lat="40.0713749" lon="-105.229789">
  <ele>1583.0</ele>
  <time>2026-09-02T20:50:16Z</time>
  <course>0.0</course>
  <speed>0.0</speed>
  <fix>3d</fix>
</trkpt>
<trkpt lat="40.0713749" lon="-105.229789">
  <ele>1583.0</ele>
  <time>2026-09-02T20:50:16Z</time>
  <course>0.0</course>
  <speed>0.0</speed>
  <fix>3d</fix>
</trkpt>
<trkpt lat="40.0713749" lon="-105.229789">
  <ele>1583.0</ele>
  <time>2026-09-02T20:50:16Z</time>
  <course>0.0</course>
  <speed>0.0</speed>
  <fix>3d</fix>
</trkpt>
<trkpt lat="40.0713749" lon="-105.229789">
  <ele>1583.0</ele>
  <time>2026-09-02T20:50:16Z</time>
  <course>0.0</course>
  <speed>0.0</speed>
  <fix>3d</fix>
</trkpt>
<trkpt lat="40.0713749" lon="-105.229789">
  <ele>1583.0</ele>
  <time>2026-09-02T20:50:16Z</time>
  <course>0.0</course>
  <speed>0.0</speed>
  <fix>3d</fix>
</trkpt>
<trkpt lat="40.0713749" lon="-105.229789">
  <ele>1583.0</ele>
  <time>2026-09-02T20:50:16Z</time>
  <course>0.0</course>
  <speed>0.0</speed>
  <fix>3d</fix>
</trkpt>
<trkpt lat="40.0713749" lon="-105.229789">
  <ele>1583.0</ele>
  <time>2026-09-02T20:50:16Z</time>
  <course>0.0</course>
  <speed>0.0</speed>
  <fix>3d</fix>
</trkpt>
<trkpt lat="40.0713749" lon="-105.229789">
  <ele>1583.0</ele>
  <time>2026-09-02T20:50:16Z</time>
  <course>0.0</course>
  <speed>0.0</speed>
  <fix>3d</fix>
</trkpt>
<trkpt lat="40.0713749" lon="-105.229789">
  <ele>1583.0</ele>
  <time>2026-09-02T20:50:16Z</time>
  <course>0.0</course>
  <speed>0.0</speed>
  <fix>3d</fix>
</trkpt>
<trkpt lat="40.0713749" lon="-105.229789">
  <ele>1583.0</ele>
  <time>2026-09-02T20:50:16Z</time>
  <course>0.0</course>
  <speed>0.0</speed>
  <fix>3d</fix>
</trkpt>
<trkpt lat="40.0713749" lon="-105.229789">
  <ele>1583.0</ele>
  <time>2026-09-02T20:50:16Z</time>
  <course>0.0</course>
  <speed>0.0</speed>
  <fix>3d</fix>
</trkpt>
<trkpt lat="40.0713749" lon="-105.229789">
  <ele>1583.0</ele>
  <time>2026-09-02T20:50:16Z</time>
  <course>0.0</course>
  <speed>0.0</speed>
  <fix>3d</fix>
</trkpt>
<trkpt lat="40.0713749" lon="-105.229789">
  <ele>1583.0</ele>
  <time>2026-09-02T20:50:16Z</time>
  <course>0.0</course>
  <speed>0.0</speed>
  <fix>3d</fix>
</trkpt>
<trkpt lat="40.0713749" lon="-105.229789">
  <ele>1583.0</ele>
  <time>2026-09-02T20:50:16Z</time>
  <course>0.0</course>
  <speed>0.0</speed>
  <fix>3d</fix>
</trkpt>
<trkpt lat="40.0713749" lon="-105.229789">
  <ele>1583.0</ele>
  <time>2026-09-02T20:50:16Z</time>
  <course>0.0</course>
  <speed>0.0</speed>
  <fix>3d</fix>
</trkpt>
<trkpt lat="40.0713749" lon="-105.229789">
  <ele>1583.0</ele>
  <time>2026-09-02T20:50:16Z</time>
  <course>0.0</course>
  <speed>0.0</speed>
  <fix>3d</fix>
</trkpt>
<trkpt lat="40.0713749" lon="-105.229789">
  <ele>1583.0</ele>
  <time>2026-09-02T20:50:16Z</time>
  <course>0.0</course>
  <speed>0.0</speed>
  <fix>3d</fix>
</trkpt>
<trkpt lat="40.0713749" lon="-105.229789">
  <ele>1583.0</ele>
  <time>2026-09-02T20:50:16Z</time>
  <course>0.0</course>
  <speed>0.0</speed>
  <fix>3d</fix>
</trkpt>
<trkpt lat="40.0713749" lon="-105.229789">
  <ele>1583.0</ele>
  <time>2026-09-02T20:50:16Z</time>
  <course>0.0</course>
  <speed>0.0</speed>
  <fix>3d</fix>
</trkpt>
<trkpt lat="40.0713749" lon="-105.229789">
  <ele>1583.0</ele>
  <time>2026-09-02T20:50:16Z</time>
  <course>0.0</course>
  <speed>0.0</speed>
  <fix>3d</fix>
</trkpt>
<trkpt lat="40.0713749" lon="-105.229789">
  <ele>1583.0</ele>
  <time>2026-09-02T20:50:16Z</time>
  <course>0.0</course>
  <speed>0.0</speed>
  <fix>3d</fix>
</trkpt>
<trkpt lat="40.0713749" lon="-105.229789">
  <ele>1583.0</ele>
  <time>2026-09-02T20:50:16Z</time>
  <course>0.0</course>
  <speed>0.0</speed>
  <fix>3d</fix>
</trkpt>
<trkpt lat="40.0713749" lon="-105.229789">
  <ele>1583.0</ele>
  <time>2026-09-02T20:50:16Z</time>
  <course>0.0</course>
  <speed>0.0</speed>
  <fix>3d</fix>
</trkpt>
<trkpt lat="40.0713749" lon="-105.229789">
  <ele>1583.0</ele>
  <time>2026-09-02T20:50:16Z</time>
  <course>0.0</course>
  <speed>0.0</speed>
  <fix>3d</fix>
</trkpt>
<trkpt lat="40.0713749" lon="-105.229789">
  <ele>1583.0</ele>
  <time>2026-09-02T20:50:16Z</time>
  <course>0.0</course>
  <speed>0.0</speed>
  <fix>3d</fix>
</trkpt>
<trkpt lat="40.0713749" lon="-105.229789">
  <ele>1583.0</ele>
  <time>2026-09-02T20:50:16Z</time>
  <course>0.0</course>
  <speed>0.0</speed>
  <fix>3d</fix>
</trkpt>
<trkpt lat="40.0713749" lon="-105.229789">
  <ele>1583.0</ele>
  <time>2026-09-02T20:50:16Z</time>
  <course>0.0</course>
  <speed>0.0</speed>
  <fix>3d</fix>
</trkpt>
<trkpt lat="40.0713749" lon="-105.229789">
  <ele>1583.0</ele>
  <time>2026-09-02T20:50:16Z</time>
  <course>0.0</course>
  <speed>0.0</speed>
  <fix>3d</fix>
</trkpt>
<trkpt lat="40.0713749" lon="-105.229789">
  <ele>1583.0</ele>
  <time>2026-09-02T20:50:16Z</time>
  <course>0.0</course>
  <speed>0.0</speed>
  <fix>3d</fix>
</trkpt>
<trkpt lat="40.0713749" lon="-105.229789">
  <ele>1583.0</ele>
  <time>2026-09-02T20:50:16Z</time>
  <course>0.0</course>
  <speed>0.0</speed>
  <fix>3d</fix>
</trkpt>
<trkpt lat="40.0713749" lon="-105.229789">
  <ele>1583.0</ele>
  <time>2026-09-02T20:50:16Z</time>
  <course>0.0</course>
  <speed>0.0</speed>
  <fix>3d</fix>
</trkpt>
<trkpt lat="40.0713749" lon="-105.229789">
  <ele>1583.0</ele>
  <time>2026-09-02T20:50:16Z</time>
  <course>0.0</course>
  <speed>0.0</speed>
  <fix>3d</fix>
</trkpt>
<trkpt lat="40.0713749" lon="-105.229789">
  <ele>1583.0</ele>
  <time>2026-09-02T20:50:16Z</time>
  <course>0.0</course>
  <speed>0.0</speed>
  <fix>3d</fix>
</trkpt>
<trkpt lat="40.0713749" lon="-105.229789">
  <ele>1583.0</ele>
  <time>2026-09-02T20:50:16Z</time>
  <course>0.0</course>
  <speed>0.0</speed>
  <fix>3d</fix>
</trkpt>
<trkpt lat="40.0713749" lon="-105.229789">
  <ele>1583.0</ele>
  <time>2026-09-02T20:50:16Z</time>
  <course>0.0</course>
  <speed>0.0</speed>
  <fix>3d</fix>
</trkpt>
<trkpt lat="40.0713749" lon="-105.229789">
  <ele>1583.0</ele>
  <time>2026-09-02T20:50:16Z</time>
  <course>0.0</course>
  <speed>0.0</speed>
  <fix>3d</fix>
</trkpt>
<trkpt lat="40.0713749" lon="-105.229789">
  <ele>1583.0</ele>
  <time>2026-09-02T20:50:16Z</time>
  <course>0.0</course>
  <speed>0.0</speed>
  <fix>3d</fix>
</trkpt>
<trkpt lat="40.0713749" lon="-105.229789">
  <ele>1583.0</ele>
  <time>2026-09-02T20:50:16Z</time>
  <course>0.0</course>
  <speed>0.0</speed>
  <fix>3d</fix>
</trkpt>
<trkpt lat="40.0713749" lon="-105.229789">
  <ele>1583.0</ele>
  <time>2026-09-02T20:50:16Z</time>
  <course>0.0</course>
  <speed>0.0</speed>
  <fix>3d</fix>
</trkpt>
<trkpt lat="40.0713749" lon="-105.229789">
  <ele>1583.0</ele>
  <time>2026-09-02T20:50:16Z</time>
  <course>0.0</course>
  <speed>0.0</speed>
  <fix>3d</fix>
</trkpt>
<trkpt lat="40.0713749" lon="-105.229789">
  <ele>1583.0</ele>
  <time>2026-09-02T20:50:16Z</time>
  <course>0.0</course>
  <speed>0.0</speed>
  <fix>3d</fix>
</trkpt>
<trkpt lat="40.0713749" lon="-105.229789">
  <ele>1583.0</ele>
  <time>2026-09-02T20:50:16Z</time>
  <course>0.0</course>
  <speed>0.0</speed>
  <fix>3d</fix>
</trkpt>
<trkpt lat="40.0713749" lon="-105.229789">
  <ele>1583.0</ele>
  <time>2026-09-02T20:50:16Z</time>
  <course>0.0</course>
  <speed>0.0</speed>
  <fix>3d</fix>
</trkpt>
<trkpt lat="40.0713749" lon="-105.229789">
  <ele>1583.0</ele>
  <time>2026-09-02T20:50:16Z</time>
  <course>0.0</course>
  <speed>0.0</speed>
  <fix>3d</fix>
</trkpt>
<trkpt lat="40.0713749" lon="-105.229789">
  <ele>1583.0</ele>
  <time>2026-09-02T20:50:16Z</time>
  <course>0.0</course>
  <speed>0.0</speed>
  <fix>3d</fix>
</trkpt>
<trkpt lat="40.0713749" lon="-105.229789">
  <ele>1583.0</ele>
  <time>2026-09-02T20:50:16Z</time>
  <course>0.0</course>
  <speed>0.0</speed>
  <fix>3d</fix>
</trkpt>
<trkpt lat="40.0713749" lon="-105.229789">
  <ele>1583.0</ele>
  <time>2026-09-02T20:50:16Z</time>
  <course>0.0</course>
  <speed>0.0</speed>
  <fix>3d</fix>
</trkpt>
<trkpt lat="40.0713749" lon="-105.229789">
  <ele>1583.0</ele>
  <time>2026-09-02T20:50:16Z</time>
  <course>0.0</course>
  <speed>0.0</speed>
  <fix>3d</fix>
</trkpt>
<trkpt lat="40.0713749" lon="-105.229789">
  <ele>1583.0</ele>
  <time>2026-09-02T20:50:16Z</time>
  <course>0.0</course>
  <speed>0.0</speed>
  <fix>3d</fix>
</trkpt>
<trkpt lat="40.0713749" lon="-105.229789">
  <ele>1583.0</ele>
  <time>2026-09-02T20:50:16Z</time>
  <course>0.0</course>
  <speed>0.0</speed>
  <fix>3d</fix>
</trkpt>
<trkpt lat="40.0713749" lon="-105.229789">
  <ele>1583.0</ele>
  <time>2026-09-02T20:50:16Z</time>
  <course>0.0</course>
  <speed>0.0</speed>
  <fix>3d</fix>
</trkpt>
<trkpt lat="40.0713749" lon="-105.229789">
  <ele>1583.0</ele>
  <time>2026-09-02T20:50:16Z</time>
  <course>0.0</course>
  <speed>0.0</speed>
  <fix>3d</fix>
</trkpt>
<trkpt lat="40.0713749" lon="-105.229789">
  <ele>1583.0</ele>
  <time>2026-09-02T20:50:16Z</time>
  <course>0.0</course>
  <speed>0.0</speed>
  <fix>3d</fix>
</trkpt>
<trkpt lat="40.0713749" lon="-105.229789">
  <ele>1583.0</ele>
  <time>2026-09-02T20:50:16Z</time>
  <course>0.0</course>
  <speed>0.0</speed>
  <fix>3d</fix>
</trkpt>
<trkpt lat="40.0713749" lon="-105.229789">
  <ele>1583.0</ele>
  <time>2026-09-02T20:50:16Z</time>
  <course>0.0</course>
  <speed>0.0</speed>
  <fix>3d</fix>
</trkpt>
<trkpt lat="40.0713749" lon="-105.229789">
  <ele>1583.0</ele>
  <time>2026-09-02T20:50:16Z</time>
  <course>0.0</course>
  <speed>0.0</speed>
  <fix>3d</fix>
</trkpt>
<trkpt lat="40.0713749" lon="-105.229789">
  <ele>1583.0</ele>
  <time>2026-09-02T20:50:16Z</time>
  <course>0.0</course>
  <speed>0.0</speed>
  <fix>3d</fix>
</trkpt>
<trkpt lat="40.0713749" lon="-105.229789">
  <ele>1583.0</ele>
  <time>2026-09-02T20:50:16Z</time>
  <course>0.0</course>
  <speed>0.0</speed>
  <fix>3d</fix>
</trkpt>
<trkpt lat="40.0713749" lon="-105.229789">
  <ele>1583.0</ele>
  <time>2026-09-02T20:50:16Z</time>
  <course>0.0</course>
  <speed>0.0</speed>
  <fix>3d</fix>
</trkpt>
<trkpt lat="40.0713749" lon="-105.229789">
  <ele>1583.0</ele>
  <time>2026-09-02T20:50:16Z</time>
  <course>0.0</course>
  <speed>0.0</speed>
  <fix>3d</fix>
</trkpt>
<trkpt lat="40.0713749" lon="-105.229789">
  <ele>1583.0</ele>
  <time>2026-09-02T20:50:16Z</time>
  <course>0.0</course>
  <speed>0.0</speed>
  <fix>3d</fix>
</trkpt>
<trkpt lat="40.0713749" lon="-105.229789">
  <ele>1583.0</ele>
  <time>2026-09-02T20:50:16Z</time>
  <course>0.0</course>
  <speed>0.0</speed>
  <fix>3d</fix>
</trkpt>
<trkpt lat="40.0713749" lon="-105.229789">
  <ele>1583.0</ele>
  <time>2026-09-02T20:50:16Z</time>
  <course>0.0</course>
  <speed>0.0</speed>
  <fix>3d</fix>
</trkpt>
<trkpt lat="40.0713749" lon="-105.229789">
  <ele>1583.0</ele>
  <time>2026-09-02T20:50:16Z</time>
  <course>0.0</course>
  <speed>0.0</speed>
  <fix>3d</fix>
</trkpt>
<trkpt lat="40.0713749" lon="-105.229789">
  <ele>1583.0</ele>
  <time>2026-09-02T20:50:16Z</time>
  <course>0.0</course>
  <speed>0.0</speed>
  <fix>3d</fix>
</trkpt>
<trkpt lat="40.0713749" lon="-105.229789">
  <ele>1583.0</ele>
  <time>2026-09-02T20:50:16Z</time>
  <course>0.0</course>
  <speed>0.0</speed>
  <fix>3d</fix>
</trkpt>
<trkpt lat="40.0713749" lon="-105.229789">
  <ele>1583.0</ele>
  <time>2026-09-02T20:50:16Z</time>
  <course>0.0</course>
  <speed>0.0</speed>
  <fix>3d</fix>
</trkpt>
<trkpt lat="40.0713749" lon="-105.229789">
  <ele>1583.0</ele>
  <time>2026-09-02T20:50:16Z</time>
  <course>0.0</course>
  <speed>0.0</speed>
  <fix>3d</fix>
</trkpt>
<trkpt lat="40.0713749" lon="-105.229789">
  <ele>1583.0</ele>
  <time>2026-09-02T20:50:16Z</time>
  <course>0.0</course>
  <speed>0.0</speed>
  <fix>3d</fix>
</trkpt>
<trkpt lat="40.0713749" lon="-105.229789">
  <ele>1583.0</ele>
  <time>2026-09-02T20:50:16Z</time>
  <course>0.0</course>
  <speed>0.0</speed>
  <fix>3d</fix>
</trkpt>
<trkpt lat="40.0713749" lon="-105.229789">
  <ele>1583.0</ele>
  <time>2026-09-02T20:50:16Z</time>
  <course>0.0</course>
  <speed>0.0</speed>
  <fix>3d</fix>
</trkpt>
<trkpt lat="40.0713749" lon="-105.229789">
  <ele>1583.0</ele>
  <time>2026-09-02T20:50:16Z</time>
  <course>0.0</course>
  <speed>0.0</speed>
  <fix>3d</fix>
</trkpt>
<trkpt lat="40.0713749" lon="-105.229789">
  <ele>1583.0</ele>
  <time>2026-09-02T20:50:16Z</time>
  <course>0.0</course>
  <speed>0.0</speed>
  <fix>3d</fix>
</trkpt>
<trkpt lat="40.0713749" lon="-105.229789">
  <ele>1583.0</ele>
  <time>2026-09-02T20:50:16Z</time>
  <course>0.0</course>
  <speed>0.0</speed>
  <fix>3d</fix>
</trkpt>
<trkpt lat="40.0713749" lon="-105.229789">
  <ele>1583.0</ele>
  <time>2026-09-02T20:50:16Z</time>
  <course>0.0</course>
  <speed>0.0</speed>
  <fix>3d</fix>
</trkpt>
<trkpt lat="40.0713749" lon="-105.229789">
  <ele>1583.0</ele>
  <time>2026-09-02T20:50:16Z</time>
  <course>0.0</course>
  <speed>0.0</speed>
  <fix>3d</fix>
</trkpt>
<trkpt lat="40.0713749" lon="-105.229789">
  <ele>1583.0</ele>
  <time>2026-09-02T20:50:16Z</time>
  <course>0.0</course>
  <speed>0.0</speed>
  <fix>3d</fix>
</trkpt>
<trkpt lat="40.0713749" lon="-105.229789">
  <ele>1583.0</ele>
  <time>2026-09-02T20:50:16Z</time>
  <course>0.0</course>
  <speed>0.0</speed>
  <fix>3d</fix>
</trkpt>
<trkpt lat="40.0713749" lon="-105.229789">
  <ele>1583.0</ele>
  <time>2026-09-02T20:50:16Z</time>
  <course>0.0</course>
  <speed>0.0</speed>
  <fix>3d</fix>
</trkpt>
<trkpt lat="40.0713749" lon="-105.229789">
  <ele>1583.0</ele>
  <time>2026-09-02T20:50:16Z</time>
  <course>0.0</course>
  <speed>0.0</speed>
  <fix>3d</fix>
</trkpt>
<trkpt lat="40.0713749" lon="-105.229789">
  <ele>1583.0</ele>
  <time>2026-09-02T20:50:16Z</time>
  <course>0.0</course>
  <speed>0.0</speed>
  <fix>3d</fix>
</trkpt>
<trkpt lat="40.0713749" lon="-105.229789">
  <ele>1583.0</ele>
  <time>2026-09-02T20:50:16Z</time>
  <course>0.0</course>
  <speed>0.0</speed>
  <fix>3d</fix>
</trkpt>
<trkpt lat="40.0713749" lon="-105.229789">
  <ele>1583.0</ele>
  <time>2026-09-02T20:50:16Z</time>
  <course>0.0</course>
  <speed>0.0</speed>
  <fix>3d</fix>
</trkpt>
<trkpt lat="40.0713749" lon="-105.229789">
  <ele>1583.0</ele>
  <time>2026-09-02T20:50:16Z</time>
  <course>0.0</course>
  <speed>0.0</speed>
  <fix>3d</fix>
</trkpt>
<trkpt lat="40.0713749" lon="-105.229789">
  <ele>1583.0</ele>
  <time>2026-09-02T20:50:16Z</time>
  <course>0.0</course>
  <speed>0.0</speed>
  <fix>3d</fix>
</trkpt>
<trkpt lat="40.0713749" lon="-105.229789">
  <ele>1583.0</ele>
  <time>2026-09-02T20:50:16Z</time>
  <course>0.0</course>
  <speed>0.0</speed>
  <fix>3d</fix>
</trkpt>
<trkpt lat="40.0713749" lon="-105.229789">
  <ele>1583.0</ele>
  <time>2026-09-02T20:50:16Z</time>
  <course>0.0</course>
  <speed>0.0</speed>
  <fix>3d</fix>
</trkpt>
<trkpt lat="40.0713749" lon="-105.229789">
  <ele>1583.0</ele>
  <time>2026-09-02T20:50:16Z</time>
  <course>0.0</course>
  <speed>0.0</speed>
  <fix>3d</fix>
</trkpt>
<trkpt lat="40.0713749" lon="-105.229789">
  <ele>1583.0</ele>
  <time>2026-09-02T20:50:16Z</time>
  <course>0.0</course>
  <speed>0.0</speed>
  <fix>3d</fix>
</trkpt>
<trkpt lat="40.0713749" lon="-105.229789">
  <ele>1583.0</ele>
  <time>2026-09-02T20:50:16Z</time>
  <course>0.0</course>
  <speed>0.0</speed>
  <fix>3d</fix>
</trkpt>
<trkpt lat="40.0713749" lon="-105.229789">
  <ele>1583.0</ele>
  <time>2026-09-02T20:50:16Z</time>
  <course>0.0</course>
  <speed>0.0</speed>
  <fix>3d</fix>
</trkpt>
<trkpt lat="40.0713749" lon="-105.229789">
  <ele>1583.0</ele>
  <time>2026-09-02T20:50:16Z</time>
  <course>0.0</course>
  <speed>0.0</speed>
  <fix>3d</fix>
</trkpt>
<trkpt lat="40.0713749" lon="-105.229789">
  <ele>1583.0</ele>
  <time>2026-09-02T20:50:16Z</time>
  <course>0.0</course>
  <speed>0.0</speed>
  <fix>3d</fix>
</trkpt>
<trkpt lat="40.0713749" lon="-105.229789">
  <ele>1583.0</ele>
  <time>2026-09-02T20:50:16Z</time>
  <course>0.0</course>
  <speed>0.0</speed>
  <fix>3d</fix>
</trkpt>
<trkpt lat="40.0713749" lon="-105.229789">
  <ele>1583.0</ele>
  <time>2026-09-02T20:50:16Z</time>
  <course>0.0</course>
  <speed>0.0</speed>
  <fix>3d</fix>
</trkpt>
<trkpt lat="40.0713749" lon="-105.229789">
  <ele>1583.0</ele>
  <time>2026-09-02T20:50:16Z</time>
  <course>0.0</course>
  <speed>0.0</speed>
  <fix>3d</fix>
</trkpt>
<trkpt lat="40.0713749" lon="-105.229789">
  <ele>1583.0</ele>
  <time>2026-09-02T20:50:16Z</time>
  <course>0.0</course>
  <speed>0.0</speed>
  <fix>3d</fix>
</trkpt>
<trkpt lat="40.0713749" lon="-105.229789">
  <ele>1583.0</ele>
  <time>2026-09-02T20:50:16Z</time>
  <course>0.0</course>
  <speed>0.0</speed>
  <fix>3d</fix>
</trkpt>
<trkpt lat="40.0713749" lon="-105.229789">
  <ele>1583.0</ele>
  <time>2026-09-02T20:50:16Z</time>
  <course>0.0</course>
  <speed>0.0</speed>
  <fix>3d</fix>
</trkpt>
<trkpt lat="40.0713749" lon="-105.229789">
  <ele>1583.0</ele>
  <time>2026-09-02T20:50:16Z</time>
  <course>0.0</course>
  <speed>0.0</speed>
  <fix>3d</fix>
</trkpt>
<trkpt lat="40.0713749" lon="-105.229789">
  <ele>1583.0</ele>
  <time>2026-09-02T20:50:16Z</time>
  <course>0.0</course>
  <speed>0.0</speed>
  <fix>3d</fix>
</trkpt>
<trkpt lat="40.0713749" lon="-105.229789">
  <ele>1583.0</ele>
  <time>2026-09-02T20:50:16Z</time>
  <course>0.0</course>
  <speed>0.0</speed>
  <fix>3d</fix>
</trkpt>
<trkpt lat="40.0713749" lon="-105.229789">
  <ele>1583.0</ele>
  <time>2026-09-02T20:50:16Z</time>
  <course>0.0</course>
  <speed>0.0</speed>
  <fix>3d</fix>
</trkpt>
<trkpt lat="40.0713749" lon="-105.229789">
  <ele>1583.0</ele>
  <time>2026-09-02T20:50:16Z</time>
  <course>0.0</course>
  <speed>0.0</speed>
  <fix>3d</fix>
</trkpt>
<trkpt lat="40.0713749" lon="-105.229789">
  <ele>1583.0</ele>
  <time>2026-09-02T20:50:16Z</time>
  <course>0.0</course>
  <speed>0.0</speed>
  <fix>3d</fix>
</trkpt>
<trkpt lat="40.0713749" lon="-105.229789">
  <ele>1583.0</ele>
  <time>2026-09-02T20:50:16Z</time>
  <course>0.0</course>
  <speed>0.0</speed>
  <fix>3d</fix>
</trkpt>
<trkpt lat="40.0713749" lon="-105.229789">
  <ele>1583.0</ele>
  <time>2026-09-02T20:50:16Z</time>
  <course>0.0</course>
  <speed>0.0</speed>
  <fix>3d</fix>
</trkpt>
<trkpt lat="40.0713749" lon="-105.229789">
  <ele>1583.0</ele>
  <time>2026-09-02T20:50:16Z</time>
  <course>0.0</course>
  <speed>0.0</speed>
  <fix>3d</fix>
</trkpt>
<trkpt lat="40.0713749" lon="-105.229789">
  <ele>1583.0</ele>
  <time>2026-09-02T20:50:16Z</time>
  <course>0.0</course>
  <speed>0.0</speed>
  <fix>3d</fix>
</trkpt>
<trkpt lat="40.0713749" lon="-105.229789">
  <ele>1583.0</ele>
  <time>2026-09-02T20:50:16Z</time>
  <course>0.0</course>
  <speed>0.0</speed>
  <fix>3d</fix>
</trkpt>
<trkpt lat="40.0713749" lon="-105.229789">
  <ele>1583.0</ele>
  <time>2026-09-02T20:50:16Z</time>
  <course>0.0</course>
  <speed>0.0</speed>
  <fix>3d</fix>
</trkpt>
<trkpt lat="40.0713749" lon="-105.229789">
  <ele>1583.0</ele>
  <time>2026-09-02T20:50:16Z</time>
  <course>0.0</course>
  <speed>0.0</speed>
  <fix>3d</fix>
</trkpt>
<trkpt lat="40.0713749" lon="-105.229789">
  <ele>1583.0</ele>
  <time>2026-09-02T20:50:16Z</time>
  <course>0.0</course>
  <speed>0.0</speed>
  <fix>3d</fix>
</trkpt>
<trkpt lat="40.0713749" lon="-105.229789">
  <ele>1583.0</ele>
  <time>2026-09-02T20:50:16Z</time>
  <course>0.0</course>
  <speed>0.0</speed>
  <fix>3d</fix>
</trkpt>
<trkpt lat="40.0713749" lon="-105.229789">
  <ele>1583.0</ele>
  <time>2026-09-02T20:50:16Z</time>
  <course>0.0</course>
  <speed>0.0</speed>
  <fix>3d</fix>
</trkpt>
<trkpt lat="40.0713749" lon="-105.229789">
  <ele>1583.0</ele>
  <time>2026-09-02T20:50:16Z</time>
  <course>0.0</course>
  <speed>0.0</speed>
  <fix>3d</fix>
</trkpt>
<trkpt lat="40.0713749" lon="-105.229789">
  <ele>1583.0</ele>
  <time>2026-09-02T20:50:16Z</time>
  <course>0.0</course>
  <speed>0.0</speed>
  <fix>3d</fix>
</trkpt>
<trkpt lat="40.0713749" lon="-105.229789">
  <ele>1583.0</ele>
  <time>2026-09-02T20:50:16Z</time>
  <course>0.0</course>
  <speed>0.0</speed>
  <fix>3d</fix>
</trkpt>
<trkpt lat="40.0713749" lon="-105.229789">
  <ele>1583.0</ele>
  <time>2026-09-02T20:50:16Z</time>
  <course>0.0</course>
  <speed>0.0</speed>
  <fix>3d</fix>
</trkpt>
<trkpt lat="40.0713749" lon="-105.229789">
  <ele>1583.0</ele>
  <time>2026-09-02T20:50:16Z</time>
  <course>0.0</course>
  <speed>0.0</speed>
  <fix>3d</fix>
</trkpt>
<trkpt lat="40.0713749" lon="-105.229789">
  <ele>1583.0</ele>
  <time>2026-09-02T20:50:16Z</time>
  <course>0.0</course>
  <speed>0.0</speed>
  <fix>3d</fix>
</trkpt>
<trkpt lat="40.0713749" lon="-105.229789">
  <ele>1583.0</ele>
  <time>2026-09-02T20:50:16Z</time>
  <course>0.0</course>
  <speed>0.0</speed>
  <fix>3d</fix>
</trkpt>
<trkpt lat="40.0713749" lon="-105.229789">
  <ele>1583.0</ele>
  <time>2026-09-02T20:50:16Z</time>
  <course>0.0</course>
  <speed>0.0</speed>
  <fix>3d</fix>
</trkpt>
<trkpt lat="40.0713749" lon="-105.229789">
  <ele>1583.0</ele>
  <time>2026-09-02T20:50:16Z</time>
  <course>0.0</course>
  <speed>0.0</speed>
  <fix>3d</fix>
</trkpt>
<trkpt lat="40.0713749" lon="-105.229789">
  <ele>1583.0</ele>
  <time>2026-09-02T20:50:16Z</time>
  <course>0.0</course>
  <speed>0.0</speed>
  <fix>3d</fix>
</trkpt>
<trkpt lat="40.0713749" lon="-105.229789">
  <ele>1583.0</ele>
  <time>2026-09-02T20:50:16Z</time>
  <course>0.0</course>
  <speed>0.0</speed>
  <fix>3d</fix>
</trkpt>
<trkpt lat="40.0713749" lon="-105.229789">
  <ele>1583.0</ele>
  <time>2026-09-02T20:50:16Z</time>
  <course>0.0</course>
  <speed>0.0</speed>
  <fix>3d</fix>
</trkpt>
<trkpt lat="40.0713749" lon="-105.229789">
  <ele>1583.0</ele>
  <time>2026-09-02T20:50:16Z</time>
  <course>0.0</course>
  <speed>0.0</speed>
  <fix>3d</fix>
</trkpt>
<trkpt lat="40.0713749" lon="-105.229789">
  <ele>1583.0</ele>
  <time>2026-09-02T20:50:16Z</time>
  <course>0.0</course>
  <speed>0.0</speed>
  <fix>3d</fix>
</trkpt>
<trkpt lat="40.0713749" lon="-105.229789">
  <ele>1583.0</ele>
  <time>2026-09-02T20:50:16Z</time>
  <course>0.0</course>
  <speed>0.0</speed>
  <fix>3d</fix>
</trkpt>
<trkpt lat="40.0713749" lon="-105.229789">
  <ele>1583.0</ele>
  <time>2026-09-02T20:50:16Z</time>
  <course>0.0</course>
  <speed>0.0</speed>
  <fix>3d</fix>
</trkpt>
<trkpt lat="40.0713749" lon="-105.229789">
  <ele>1583.0</ele>
  <time>2026-09-02T20:50:16Z</time>
  <course>0.0</course>
  <speed>0.0</speed>
  <fix>3d</fix>
</trkpt>
<trkpt lat="40.0713749" lon="-105.229789">
  <ele>1583.0</ele>
  <time>2026-09-02T20:50:16Z</time>
  <course>0.0</course>
  <speed>0.0</speed>
  <fix>3d</fix>
</trkpt>
<trkpt lat="40.0713749" lon="-105.229789">
  <ele>1583.0</ele>
  <time>2026-09-02T20:50:16Z</time>
  <course>0.0</course>
  <speed>0.0</speed>
  <fix>3d</fix>
</trkpt>
<trkpt lat="40.0713749" lon="-105.229789">
  <ele>1583.0</ele>
  <time>2026-09-02T20:50:16Z</time>
  <course>0.0</course>
  <speed>0.0</speed>
  <fix>3d</fix>
</trkpt>
<trkpt lat="40.0713749" lon="-105.229789">
  <ele>1583.0</ele>
  <time>2026-09-02T20:50:16Z</time>
  <course>0.0</course>
  <speed>0.0</speed>
  <fix>3d</fix>
</trkpt>
<trkpt lat="40.0713749" lon="-105.229789">
  <ele>1583.0</ele>
  <time>2026-09-02T20:50:16Z</time>
  <course>0.0</course>
  <speed>0.0</speed>
  <fix>3d</fix>
</trkpt>
<trkpt lat="40.0713749" lon="-105.229789">
  <ele>1583.0</ele>
  <time>2026-09-02T20:50:16Z</time>
  <course>0.0</course>
  <speed>0.0</speed>
  <fix>3d</fix>
</trkpt>
<trkpt lat="40.0713749" lon="-105.229789">
  <ele>1583.0</ele>
  <time>2026-09-02T20:50:16Z</time>
  <course>0.0</course>
  <speed>0.0</speed>
  <fix>3d</fix>
</trkpt>
<trkpt lat="40.0713749" lon="-105.229789">
  <ele>1583.0</ele>
  <time>2026-09-02T20:50:16Z</time>
  <course>0.0</course>
  <speed>0.0</speed>
  <fix>3d</fix>
</trkpt>
<trkpt lat="40.0713749" lon="-105.229789">
  <ele>1583.0</ele>
  <time>2026-09-02T20:50:16Z</time>
  <course>0.0</course>
  <speed>0.0</speed>
  <fix>3d</fix>
</trkpt>
<trkpt lat="40.0713749" lon="-105.229789">
  <ele>1583.0</ele>
  <time>2026-09-02T20:50:16Z</time>
  <course>0.0</course>
  <speed>0.0</speed>
  <fix>3d</fix>
</trkpt>
<trkpt lat="40.0713749" lon="-105.229789">
  <ele>1583.0</ele>
  <time>2026-09-02T20:50:16Z</time>
  <course>0.0</course>
  <speed>0.0</speed>
  <fix>3d</fix>
</trkpt>
<trkpt lat="40.0713749" lon="-105.229789">
  <ele>1583.0</ele>
  <time>2026-09-02T20:50:16Z</time>
  <course>0.0</course>
  <speed>0.0</speed>
  <fix>3d</fix>
</trkpt>
<trkpt lat="40.0713749" lon="-105.229789">
  <ele>1583.0</ele>
  <time>2026-09-02T20:50:16Z</time>
  <course>0.0</course>
  <speed>0.0</speed>
  <fix>3d</fix>
</trkpt>
<trkpt lat="40.0713749" lon="-105.229789">
  <ele>1583.0</ele>
  <time>2026-09-02T20:50:16Z</time>
  <course>0.0</course>
  <speed>0.0</speed>
  <fix>3d</fix>
</trkpt>
<trkpt lat="40.0713749" lon="-105.229789">
  <ele>1583.0</ele>
  <time>2026-09-02T20:50:16Z</time>
  <course>0.0</course>
  <speed>0.0</speed>
  <fix>3d</fix>
</trkpt>
<trkpt lat="40.0713749" lon="-105.229789">
  <ele>1583.0</ele>
  <time>2026-09-02T20:50:16Z</time>
  <course>0.0</course>
  <speed>0.0</speed>
  <fix>3d</fix>
</trkpt>
<trkpt lat="40.0713749" lon="-105.229789">
  <ele>1583.0</ele>
  <time>2026-09-02T20:50:16Z</time>
  <course>0.0</course>
  <speed>0.0</speed>
  <fix>3d</fix>
</trkpt>
<trkpt lat="40.0713749" lon="-105.229789">
  <ele>1583.0</ele>
  <time>2026-09-02T20:50:16Z</time>
  <course>0.0</course>
  <speed>0.0</speed>
  <fix>3d</fix>
</trkpt>
<trkpt lat="40.0713749" lon="-105.229789">
  <ele>1583.0</ele>
  <time>2026-09-02T20:50:16Z</time>
  <course>0.0</course>
  <speed>0.0</speed>
  <fix>3d</fix>
</trkpt>
<trkpt lat="40.0713749" lon="-105.229789">
  <ele>1583.0</ele>
  <time>2026-09-02T20:50:16Z</time>
  <course>0.0</course>
  <speed>0.0</speed>
  <fix>3d</fix>
</trkpt>
<trkpt lat="40.0713749" lon="-105.229789">
  <ele>1583.0</ele>
  <time>2026-09-02T20:50:16Z</time>
  <course>0.0</course>
  <speed>0.0</speed>
  <fix>3d</fix>
</trkpt>
<trkpt lat="40.0713749" lon="-105.229789">
  <ele>1583.0</ele>
  <time>2026-09-02T20:50:16Z</time>
  <course>0.0</course>
  <speed>0.0</speed>
  <fix>3d</fix>
</trkpt>
<trkpt lat="40.0713749" lon="-105.229789">
  <ele>1583.0</ele>
  <time>2026-09-02T20:50:16Z</time>
  <course>0.0</course>
  <speed>0.0</speed>
  <fix>3d</fix>
</trkpt>
<trkpt lat="40.0713749" lon="-105.229789">
  <ele>1583.0</ele>
  <time>2026-09-02T20:50:16Z</time>
  <course>0.0</course>
  <speed>0.0</speed>
  <fix>3d</fix>
</trkpt>
<trkpt lat="40.0713749" lon="-105.229789">
  <ele>1583.0</ele>
  <time>2026-09-02T20:50:16Z</time>
  <course>0.0</course>
  <speed>0.0</speed>
  <fix>3d</fix>
</trkpt>
<trkpt lat="40.0713749" lon="-105.229789">
  <ele>1583.0</ele>
  <time>2026-09-02T20:50:16Z</time>
  <course>0.0</course>
  <speed>0.0</speed>
  <fix>3d</fix>
</trkpt>
<trkpt lat="40.0713749" lon="-105.229789">
  <ele>1583.0</ele>
  <time>2026-09-02T20:50:16Z</time>
  <course>0.0</course>
  <speed>0.0</speed>
  <fix>3d</fix>
</trkpt>
<trkpt lat="40.0713749" lon="-105.229789">
  <ele>1583.0</ele>
  <time>2026-09-02T20:50:16Z</time>
  <course>0.0</course>
  <speed>0.0</speed>
  <fix>3d</fix>
</trkpt>
<trkpt lat="40.0713749" lon="-105.229789">
  <ele>1583.0</ele>
  <time>2026-09-02T20:50:16Z</time>
  <course>0.0</course>
  <speed>0.0</speed>
  <fix>3d</fix>
</trkpt>
<trkpt lat="40.0713749" lon="-105.229789">
  <ele>1583.0</ele>
  <time>2026-09-02T20:50:16Z</time>
  <course>0.0</course>
  <speed>0.0</speed>
  <fix>3d</fix>
</trkpt>
<trkpt lat="40.0713749" lon="-105.229789">
  <ele>1583.0</ele>
  <time>2026-09-02T20:50:16Z</time>
  <course>0.0</course>
  <speed>0.0</speed>
  <fix>3d</fix>
</trkpt>
<trkpt lat="40.0713749" lon="-105.229789">
  <ele>1583.0</ele>
  <time>2026-09-02T20:50:16Z</time>
  <course>0.0</course>
  <speed>0.0</speed>
  <fix>3d</fix>
</trkpt>
<trkpt lat="40.0713749" lon="-105.229789">
  <ele>1583.0</ele>
  <time>2026-09-02T20:50:16Z</time>
  <course>0.0</course>
  <speed>0.0</speed>
  <fix>3d</fix>
</trkpt>
<trkpt lat="40.0713749" lon="-105.229789">
  <ele>1583.0</ele>
  <time>2026-09-02T20:50:16Z</time>
  <course>0.0</course>
  <speed>0.0</speed>
  <fix>3d</fix>
</trkpt>
<trkpt lat="40.0713749" lon="-105.229789">
  <ele>1583.0</ele>
  <time>2026-09-02T20:50:16Z</time>
  <course>0.0</course>
  <speed>0.0</speed>
  <fix>3d</fix>
</trkpt>
<trkpt lat="40.0713749" lon="-105.229789">
  <ele>1583.0</ele>
  <time>2026-09-02T20:50:16Z</time>
  <course>0.0</course>
  <speed>0.0</speed>
  <fix>3d</fix>
</trkpt>
<trkpt lat="40.0713749" lon="-105.229789">
  <ele>1583.0</ele>
  <time>2026-09-02T20:50:16Z</time>
  <course>0.0</course>
  <speed>0.0</speed>
  <fix>3d</fix>
</trkpt>
<trkpt lat="40.0713749" lon="-105.229789">
  <ele>1583.0</ele>
  <time>2026-09-02T20:50:16Z</time>
  <course>0.0</course>
  <speed>0.0</speed>
  <fix>3d</fix>
</trkpt>
<trkpt lat="40.0713749" lon="-105.229789">
  <ele>1583.0</ele>
  <time>2026-09-02T20:50:16Z</time>
  <course>0.0</course>
  <speed>0.0</speed>
  <fix>3d</fix>
</trkpt>
<trkpt lat="40.0713749" lon="-105.229789">
  <ele>1583.0</ele>
  <time>2026-09-02T20:50:16Z</time>
  <course>0.0</course>
  <speed>0.0</speed>
  <fix>3d</fix>
</trkpt>
<trkpt lat="40.0713749" lon="-105.229789">
  <ele>1583.0</ele>
  <time>2026-09-02T20:50:16Z</time>
  <course>0.0</course>
  <speed>0.0</speed>
  <fix>3d</fix>
</trkpt>
<trkpt lat="40.0713749" lon="-105.229789">
  <ele>1583.0</ele>
  <time>2026-09-02T20:50:16Z</time>
  <course>0.0</course>
  <speed>0.0</speed>
  <fix>3d</fix>
</trkpt>
<trkpt lat="40.0713749" lon="-105.229789">
  <ele>1583.0</ele>
  <time>2026-09-02T20:50:16Z</time>
  <course>0.0</course>
  <speed>0.0</speed>
  <fix>3d</fix>
</trkpt>
<trkpt lat="40.0713749" lon="-105.229789">
  <ele>1583.0</ele>
  <time>2026-09-02T20:50:16Z</time>
  <course>0.0</course>
  <speed>0.0</speed>
  <fix>3d</fix>
</trkpt>
<trkpt lat="40.0713749" lon="-105.229789">
  <ele>1583.0</ele>
  <time>2026-09-02T20:50:16Z</time>
  <course>0.0</course>
  <speed>0.0</speed>
  <fix>3d</fix>
</trkpt>
<trkpt lat="40.0713749" lon="-105.229789">
  <ele>1583.0</ele>
  <time>2026-09-02T20:50:16Z</time>
  <course>0.0</course>
  <speed>0.0</speed>
  <fix>3d</fix>
</trkpt>
<trkpt lat="40.0713749" lon="-105.229789">
  <ele>1583.0</ele>
  <time>2026-09-02T20:50:16Z</time>
  <course>0.0</course>
  <speed>0.0</speed>
  <fix>3d</fix>
</trkpt>
<trkpt lat="40.0713749" lon="-105.229789">
  <ele>1583.0</ele>
  <time>2026-09-02T20:50:16Z</time>
  <course>0.0</course>
  <speed>0.0</speed>
  <fix>3d</fix>
</trkpt>
<trkpt lat="40.0713749" lon="-105.229789">
  <ele>1583.0</ele>
  <time>2026-09-02T20:50:16Z</time>
  <course>0.0</course>
  <speed>0.0</speed>
  <fix>3d</fix>
</trkpt>
<trkpt lat="40.0713749" lon="-105.229789">
  <ele>1583.0</ele>
  <time>2026-09-02T20:50:16Z</time>
  <course>0.0</course>
  <speed>0.0</speed>
  <fix>3d</fix>
</trkpt>
<trkpt lat="40.0713749" lon="-105.229789">
  <ele>1583.0</ele>
  <time>2026-09-02T20:50:16Z</time>
  <course>0.0</course>
  <speed>0.0</speed>
  <fix>3d</fix>
</trkpt>
<trkpt lat="40.0713749" lon="-105.229789">
  <ele>1583.0</ele>
  <time>2026-09-02T20:50:16Z</time>
  <course>0.0</course>
  <speed>0.0</speed>
  <fix>3d</fix>
</trkpt>
<trkpt lat="40.0713749" lon="-105.229789">
  <ele>1583.0</ele>
  <time>2026-09-02T20:50:16Z</time>
  <course>0.0</course>
  <speed>0.0</speed>
  <fix>3d</fix>
</trkpt>
<trkpt lat="40.0713749" lon="-105.229789">
  <ele>1583.0</ele>
  <time>2026-09-02T20:50:16Z</time>
  <course>0.0</course>
  <speed>0.0</speed>
  <fix>3d</fix>
</trkpt>
<trkpt lat="40.0713749" lon="-105.229789">
  <ele>1583.0</ele>
  <time>2026-09-02T20:50:16Z</time>
  <course>0.0</course>
  <speed>0.0</speed>
  <fix>3d</fix>
</trkpt>
<trkpt lat="40.0713749" lon="-105.229789">
  <ele>1583.0</ele>
  <time>2026-09-02T20:50:16Z</time>
  <course>0.0</course>
  <speed>0.0</speed>
  <fix>3d</fix>
</trkpt>
<trkpt lat="40.0713749" lon="-105.229789">
  <ele>1583.0</ele>
  <time>2026-09-02T20:50:16Z</time>
  <course>0.0</course>
  <speed>0.0</speed>
  <fix>3d</fix>
</trkpt>
<trkpt lat="40.0713749" lon="-105.229789">
  <ele>1583.0</ele>
  <time>2026-09-02T20:50:16Z</time>
  <course>0.0</course>
  <speed>0.0</speed>
  <fix>3d</fix>
</trkpt>
<trkpt lat="40.0713749" lon="-105.229789">
  <ele>1583.0</ele>
  <time>2026-09-02T20:50:16Z</time>
  <course>0.0</course>
  <speed>0.0</speed>
  <fix>3d</fix>
</trkpt>
<trkpt lat="40.0713749" lon="-105.229789">
  <ele>1583.0</ele>
  <time>2026-09-02T20:50:16Z</time>
  <course>0.0</course>
  <speed>0.0</speed>
  <fix>3d</fix>
</trkpt>
<trkpt lat="40.0713749" lon="-105.229789">
  <ele>1583.0</ele>
  <time>2026-09-02T20:50:16Z</time>
  <course>0.0</course>
  <speed>0.0</speed>
  <fix>3d</fix>
</trkpt>
<trkpt lat="40.0713749" lon="-105.229789">
  <ele>1583.0</ele>
  <time>2026-09-02T20:50:16Z</time>
  <course>0.0</course>
  <speed>0.0</speed>
  <fix>3d</fix>
</trkpt>
<trkpt lat="40.0713749" lon="-105.229789">
  <ele>1583.0</ele>
  <time>2026-09-02T20:50:16Z</time>
  <course>0.0</course>
  <speed>0.0</speed>
  <fix>3d</fix>
</trkpt>
<trkpt lat="40.0713749" lon="-105.229789">
  <ele>1583.0</ele>
  <time>2026-09-02T20:50:16Z</time>
  <course>0.0</course>
  <speed>0.0</speed>
  <fix>3d</fix>
</trkpt>
<trkpt lat="40.0713749" lon="-105.229789">
  <ele>1583.0</ele>
  <time>2026-09-02T20:50:16Z</time>
  <course>0.0</course>
  <speed>0.0</speed>
  <fix>3d</fix>
</trkpt>
<trkpt lat="40.0713749" lon="-105.229789">
  <ele>1583.0</ele>
  <time>2026-09-02T20:50:16Z</time>
  <course>0.0</course>
  <speed>0.0</speed>
  <fix>3d</fix>
</trkpt>
<trkpt lat="40.0713749" lon="-105.229789">
  <ele>1583.0</ele>
  <time>2026-09-02T20:50:16Z</time>
  <course>0.0</course>
  <speed>0.0</speed>
  <fix>3d</fix>
</trkpt>
<trkpt lat="40.0713749" lon="-105.229789">
  <ele>1583.0</ele>
  <time>2026-09-02T20:50:16Z</time>
  <course>0.0</course>
  <speed>0.0</speed>
  <fix>3d</fix>
</trkpt>
<trkpt lat="40.0713749" lon="-105.229789">
  <ele>1583.0</ele>
  <time>2026-09-02T20:50:16Z</time>
  <course>0.0</course>
  <speed>0.0</speed>
  <fix>3d</fix>
</trkpt>
<trkpt lat="40.0713749" lon="-105.229789">
  <ele>1583.0</ele>
  <time>2026-09-02T20:50:16Z</time>
  <course>0.0</course>
  <speed>0.0</speed>
  <fix>3d</fix>
</trkpt>
<trkpt lat="40.0713749" lon="-105.229789">
  <ele>1583.0</ele>
  <time>2026-09-02T20:50:16Z</time>
  <course>0.0</course>
  <speed>0.0</speed>
  <fix>3d</fix>
</trkpt>
<trkpt lat="40.0713749" lon="-105.229789">
  <ele>1583.0</ele>
  <time>2026-09-02T20:50:16Z</time>
  <course>0.0</course>
  <speed>0.0</speed>
  <fix>3d</fix>
</trkpt>
<trkpt lat="40.0713749" lon="-105.229789">
  <ele>1583.0</ele>
  <time>2026-09-02T20:50:16Z</time>
  <course>0.0</course>
  <speed>0.0</speed>
  <fix>3d</fix>
</trkpt>
<trkpt lat="40.0713749" lon="-105.229789">
  <ele>1583.0</ele>
  <time>2026-09-02T20:50:16Z</time>
  <course>0.0</course>
  <speed>0.0</speed>
  <fix>3d</fix>
</trkpt>
<trkpt lat="40.0713749" lon="-105.229789">
  <ele>1583.0</ele>
  <time>2026-09-02T20:50:16Z</time>
  <course>0.0</course>
  <speed>0.0</speed>
  <fix>3d</fix>
</trkpt>
<trkpt lat="40.0713749" lon="-105.229789">
  <ele>1583.0</ele>
  <time>2026-09-02T20:50:16Z</time>
  <course>0.0</course>
  <speed>0.0</speed>
  <fix>3d</fix>
</trkpt>
<trkpt lat="40.0713749" lon="-105.229789">
  <ele>1583.0</ele>
  <time>2026-09-02T20:50:16Z</time>
  <course>0.0</course>
  <speed>0.0</speed>
  <fix>3d</fix>
</trkpt>
<trkpt lat="40.0713749" lon="-105.229789">
  <ele>1583.0</ele>
  <time>2026-09-02T20:50:16Z</time>
  <course>0.0</course>
  <speed>0.0</speed>
  <fix>3d</fix>
</trkpt>
<trkpt lat="40.0713749" lon="-105.229789">
  <ele>1583.0</ele>
  <time>2026-09-02T20:50:16Z</time>
  <course>0.0</course>
  <speed>0.0</speed>
  <fix>3d</fix>
</trkpt>
<trkpt lat="40.0713749" lon="-105.229789">
  <ele>1583.0</ele>
  <time>2026-09-02T20:50:16Z</time>
  <course>0.0</course>
  <speed>0.0</speed>
  <fix>3d</fix>
</trkpt>
<trkpt lat="40.0713749" lon="-105.229789">
  <ele>1583.0</ele>
  <time>2026-09-02T20:50:16Z</time>
  <course>0.0</course>
  <speed>0.0</speed>
  <fix>3d</fix>
</trkpt>
<trkpt lat="40.0713749" lon="-105.229789">
  <ele>1583.0</ele>
  <time>2026-09-02T20:50:16Z</time>
  <course>0.0</course>
  <speed>0.0</speed>
  <fix>3d</fix>
</trkpt>
<trkpt lat="40.0713749" lon="-105.229789">
  <ele>1583.0</ele>
  <time>2026-09-02T20:50:16Z</time>
  <course>0.0</course>
  <speed>0.0</speed>
  <fix>3d</fix>
</trkpt>
<trkpt lat="40.0713749" lon="-105.229789">
  <ele>1583.0</ele>
  <time>2026-09-02T20:50:16Z</time>
  <course>0.0</course>
  <speed>0.0</speed>
  <fix>3d</fix>
</trkpt>
<trkpt lat="40.0713749" lon="-105.229789">
  <ele>1583.0</ele>
  <time>2026-09-02T20:50:16Z</time>
  <course>0.0</course>
  <speed>0.0</speed>
  <fix>3d</fix>
</trkpt>
<trkpt lat="40.0713749" lon="-105.229789">
  <ele>1583.0</ele>
  <time>2026-09-02T20:50:16Z</time>
  <course>0.0</course>
  <speed>0.0</speed>
  <fix>3d</fix>
</trkpt>
<trkpt lat="40.0713749" lon="-105.229789">
  <ele>1583.0</ele>
  <time>2026-09-02T20:50:16Z</time>
  <course>0.0</course>
  <speed>0.0</speed>
  <fix>3d</fix>
</trkpt>
<trkpt lat="40.0713749" lon="-105.229789">
  <ele>1583.0</ele>
  <time>2026-09-02T20:50:16Z</time>
  <course>0.0</course>
  <speed>0.0</speed>
  <fix>3d</fix>
</trkpt>
<trkpt lat="40.0713749" lon="-105.229789">
  <ele>1583.0</ele>
  <time>2026-09-02T20:50:16Z</time>
  <course>0.0</course>
  <speed>0.0</speed>
  <fix>3d</fix>
</trkpt>
<trkpt lat="40.0713749" lon="-105.229789">
  <ele>1583.0</ele>
  <time>2026-09-02T20:50:16Z</time>
  <course>0.0</course>
  <speed>0.0</speed>
  <fix>3d</fix>
</trkpt>
<trkpt lat="40.0713749" lon="-105.229789">
  <ele>1583.0</ele>
  <time>2026-09-02T20:50:16Z</time>
  <course>0.0</course>
  <speed>0.0</speed>
  <fix>3d</fix>
</trkpt>
<trkpt lat="40.0713749" lon="-105.229789">
  <ele>1583.0</ele>
  <time>2026-09-02T20:50:16Z</time>
  <course>0.0</course>
  <speed>0.0</speed>
  <fix>3d</fix>
</trkpt>
<trkpt lat="40.0713749" lon="-105.229789">
  <ele>1583.0</ele>
  <time>2026-09-02T20:50:16Z</time>
  <course>0.0</course>
  <speed>0.0</speed>
  <fix>3d</fix>
</trkpt>
<trkpt lat="40.0713749" lon="-105.229789">
  <ele>1583.0</ele>
  <time>2026-09-02T20:50:16Z</time>
  <course>0.0</course>
  <speed>0.0</speed>
  <fix>3d</fix>
</trkpt>
<trkpt lat="40.0713749" lon="-105.229789">
  <ele>1583.0</ele>
  <time>2026-09-02T20:50:16Z</time>
  <course>0.0</course>
  <speed>0.0</speed>
  <fix>3d</fix>
</trkpt>
<trkpt lat="40.0713749" lon="-105.229789">
  <ele>1583.0</ele>
  <time>2026-09-02T20:50:16Z</time>
  <course>0.0</course>
  <speed>0.0</speed>
  <fix>3d</fix>
</trkpt>
<trkpt lat="40.0713749" lon="-105.229789">
  <ele>1583.0</ele>
  <time>2026-09-02T20:50:16Z</time>
  <course>0.0</course>
  <speed>0.0</speed>
  <fix>3d</fix>
</trkpt>
<trkpt lat="40.0713749" lon="-105.229789">
  <ele>1583.0</ele>
  <time>2026-09-02T20:50:16Z</time>
  <course>0.0</course>
  <speed>0.0</speed>
  <fix>3d</fix>
</trkpt>
<trkpt lat="40.0713749" lon="-105.229789">
  <ele>1583.0</ele>
  <time>2026-09-02T20:50:16Z</time>
  <course>0.0</course>
  <speed>0.0</speed>
  <fix>3d</fix>
</trkpt>
<trkpt lat="40.0713749" lon="-105.229789">
  <ele>1583.0</ele>
  <time>2026-09-02T20:50:16Z</time>
  <course>0.0</course>
  <speed>0.0</speed>
  <fix>3d</fix>
</trkpt>
<trkpt lat="40.0713749" lon="-105.229789">
  <ele>1583.0</ele>
  <time>2026-09-02T20:50:16Z</time>
  <course>0.0</course>
  <speed>0.0</speed>
  <fix>3d</fix>
</trkpt>
<trkpt lat="40.0713749" lon="-105.229789">
  <ele>1583.0</ele>
  <time>2026-09-02T20:50:16Z</time>
  <course>0.0</course>
  <speed>0.0</speed>
  <fix>3d</fix>
</trkpt>
<trkpt lat="40.0713749" lon="-105.229789">
  <ele>1583.0</ele>
  <time>2026-09-02T20:50:16Z</time>
  <course>0.0</course>
  <speed>0.0</speed>
  <fix>3d</fix>
</trkpt>
<trkpt lat="40.0713749" lon="-105.229789">
  <ele>1583.0</ele>
  <time>2026-09-02T20:50:16Z</time>
  <course>0.0</course>
  <speed>0.0</speed>
  <fix>3d</fix>
</trkpt>
<trkpt lat="40.0713749" lon="-105.229789">
  <ele>1583.0</ele>
  <time>2026-09-02T20:50:16Z</time>
  <course>0.0</course>
  <speed>0.0</speed>
  <fix>3d</fix>
</trkpt>
<trkpt lat="40.0713749" lon="-105.229789">
  <ele>1583.0</ele>
  <time>2026-09-02T20:50:16Z</time>
  <course>0.0</course>
  <speed>0.0</speed>
  <fix>3d</fix>
</trkpt>
<trkpt lat="40.0713749" lon="-105.229789">
  <ele>1583.0</ele>
  <time>2026-09-02T20:50:16Z</time>
  <course>0.0</course>
  <speed>0.0</speed>
  <fix>3d</fix>
</trkpt>
<trkpt lat="40.0713749" lon="-105.229789">
  <ele>1583.0</ele>
  <time>2026-09-02T20:50:16Z</time>
  <course>0.0</course>
  <speed>0.0</speed>
  <fix>3d</fix>
</trkpt>
<trkpt lat="40.0713749" lon="-105.229789">
  <ele>1583.0</ele>
  <time>2026-09-02T20:50:16Z</time>
  <course>0.0</course>
  <speed>0.0</speed>
  <fix>3d</fix>
</trkpt>
<trkpt lat="40.0713749" lon="-105.229789">
  <ele>1583.0</ele>
  <time>2026-09-02T20:50:16Z</time>
  <course>0.0</course>
  <speed>0.0</speed>
  <fix>3d</fix>
</trkpt>
<trkpt lat="40.0713749" lon="-105.229789">
  <ele>1583.0</ele>
  <time>2026-09-02T20:50:16Z</time>
  <course>0.0</course>
  <speed>0.0</speed>
  <fix>3d</fix>
</trkpt>
<trkpt lat="40.0713749" lon="-105.229789">
  <ele>1583.0</ele>
  <time>2026-09-02T20:50:16Z</time>
  <course>0.0</course>
  <speed>0.0</speed>
  <fix>3d</fix>
</trkpt>
<trkpt lat="40.0713749" lon="-105.229789">
  <ele>1583.0</ele>
  <time>2026-09-02T20:50:16Z</time>
  <course>0.0</course>
  <speed>0.0</speed>
  <fix>3d</fix>
</trkpt>
<trkpt lat="40.0713749" lon="-105.229789">
  <ele>1583.0</ele>
  <time>2026-09-02T20:50:16Z</time>
  <course>0.0</course>
  <speed>0.0</speed>
  <fix>3d</fix>
</trkpt>
<trkpt lat="40.0713749" lon="-105.229789">
  <ele>1583.0</ele>
  <time>2026-09-02T20:50:16Z</time>
  <course>0.0</course>
  <speed>0.0</speed>
  <fix>3d</fix>
</trkpt>
<trkpt lat="40.0713749" lon="-105.229789">
  <ele>1583.0</ele>
  <time>2026-09-02T20:50:16Z</time>
  <course>0.0</course>
  <speed>0.0</speed>
  <fix>3d</fix>
</trkpt>
<trkpt lat="40.0713749" lon="-105.229789">
  <ele>1583.0</ele>
  <time>2026-09-02T20:50:16Z</time>
  <course>0.0</course>
  <speed>0.0</speed>
  <fix>3d</fix>
</trkpt>
<trkpt lat="40.0713749" lon="-105.229789">
  <ele>1583.0</ele>
  <time>2026-09-02T20:50:16Z</time>
  <course>0.0</course>
  <speed>0.0</speed>
  <fix>3d</fix>
</trkpt>
<trkpt lat="40.0713749" lon="-105.229789">
  <ele>1583.0</ele>
  <time>2026-09-02T20:50:16Z</time>
  <course>0.0</course>
  <speed>0.0</speed>
  <fix>3d</fix>
</trkpt>
<trkpt lat="40.0713749" lon="-105.229789">
  <ele>1583.0</ele>
  <time>2026-09-02T20:50:16Z</time>
  <course>0.0</course>
  <speed>0.0</speed>
  <fix>3d</fix>
</trkpt>
<trkpt lat="40.0713749" lon="-105.229789">
  <ele>1583.0</ele>
  <time>2026-09-02T20:50:16Z</time>
  <course>0.0</course>
  <speed>0.0</speed>
  <fix>3d</fix>
</trkpt>
<trkpt lat="40.0713749" lon="-105.229789">
  <ele>1583.0</ele>
  <time>2026-09-02T20:50:16Z</time>
  <course>0.0</course>
  <speed>0.0</speed>
  <fix>3d</fix>
</trkpt>
<trkpt lat="40.0713749" lon="-105.229789">
  <ele>1583.0</ele>
  <time>2026-09-02T20:50:16Z</time>
  <course>0.0</course>
  <speed>0.0</speed>
  <fix>3d</fix>
</trkpt>
<trkpt lat="40.0713749" lon="-105.229789">
  <ele>1583.0</ele>
  <time>2026-09-02T20:50:16Z</time>
  <course>0.0</course>
  <speed>0.0</speed>
  <fix>3d</fix>
</trkpt>
<trkpt lat="40.0713749" lon="-105.229789">
  <ele>1583.0</ele>
  <time>2026-09-02T20:50:16Z</time>
  <course>0.0</course>
  <speed>0.0</speed>
  <fix>3d</fix>
</trkpt>
<trkpt lat="40.0713749" lon="-105.229789">
  <ele>1583.0</ele>
  <time>2026-09-02T20:50:16Z</time>
  <course>0.0</course>
  <speed>0.0</speed>
  <fix>3d</fix>
</trkpt>
<trkpt lat="40.0713749" lon="-105.229789">
  <ele>1583.0</ele>
  <time>2026-09-02T20:50:16Z</time>
  <course>0.0</course>
  <speed>0.0</speed>
  <fix>3d</fix>
</trkpt>
<trkpt lat="40.0713749" lon="-105.229789">
  <ele>1583.0</ele>
  <time>2026-09-02T20:50:16Z</time>
  <course>0.0</course>
  <speed>0.0</speed>
  <fix>3d</fix>
</trkpt>
<trkpt lat="40.0713749" lon="-105.229789">
  <ele>1583.0</ele>
  <time>2026-09-02T20:50:16Z</time>
  <course>0.0</course>
  <speed>0.0</speed>
  <fix>3d</fix>
</trkpt>
<trkpt lat="40.0713749" lon="-105.229789">
  <ele>1583.0</ele>
  <time>2026-09-02T20:50:16Z</time>
  <course>0.0</course>
  <speed>0.0</speed>
  <fix>3d</fix>
</trkpt>
<trkpt lat="40.0713749" lon="-105.229789">
  <ele>1583.0</ele>
  <time>2026-09-02T20:50:16Z</time>
  <course>0.0</course>
  <speed>0.0</speed>
  <fix>3d</fix>
</trkpt>
<trkpt lat="40.0713749" lon="-105.229789">
  <ele>1583.0</ele>
  <time>2026-09-02T20:50:16Z</time>
  <course>0.0</course>
  <speed>0.0</speed>
  <fix>3d</fix>
</trkpt>
<trkpt lat="40.0713749" lon="-105.229789">
  <ele>1583.0</ele>
  <time>2026-09-02T20:50:16Z</time>
  <course>0.0</course>
  <speed>0.0</speed>
  <fix>3d</fix>
</trkpt>
<trkpt lat="40.0713749" lon="-105.229789">
  <ele>1583.0</ele>
  <time>2026-09-02T20:50:16Z</time>
  <course>0.0</course>
  <speed>0.0</speed>
  <fix>3d</fix>
</trkpt>
<trkpt lat="40.0713749" lon="-105.229789">
  <ele>1583.0</ele>
  <time>2026-09-02T20:50:16Z</time>
  <course>0.0</course>
  <speed>0.0</speed>
  <fix>3d</fix>
</trkpt>
<trkpt lat="40.0713749" lon="-105.229789">
  <ele>1583.0</ele>
  <time>2026-09-02T20:50:16Z</time>
  <course>0.0</course>
  <speed>0.0</speed>
  <fix>3d</fix>
</trkpt>
<trkpt lat="40.0713749" lon="-105.229789">
  <ele>1583.0</ele>
  <time>2026-09-02T20:50:16Z</time>
  <course>0.0</course>
  <speed>0.0</speed>
  <fix>3d</fix>
</trkpt>
<trkpt lat="40.0713749" lon="-105.229789">
  <ele>1583.0</ele>
  <time>2026-09-02T20:50:16Z</time>
  <course>0.0</course>
  <speed>0.0</speed>
  <fix>3d</fix>
</trkpt>
<trkpt lat="40.0713749" lon="-105.229789">
  <ele>1583.0</ele>
  <time>2026-09-02T20:50:16Z</time>
  <course>0.0</course>
  <speed>0.0</speed>
  <fix>3d</fix>
</trkpt>
<trkpt lat="40.0713749" lon="-105.229789">
  <ele>1583.0</ele>
  <time>2026-09-02T20:50:16Z</time>
  <course>0.0</course>
  <speed>0.0</speed>
  <fix>3d</fix>
</trkpt>
<trkpt lat="40.0713749" lon="-105.229789">
  <ele>1583.0</ele>
  <time>2026-09-02T20:50:16Z</time>
  <course>0.0</course>
  <speed>0.0</speed>
  <fix>3d</fix>
</trkpt>
<trkpt lat="40.0713749" lon="-105.229789">
  <ele>1583.0</ele>
  <time>2026-09-02T20:50:16Z</time>
  <course>0.0</course>
  <speed>0.0</speed>
  <fix>3d</fix>
</trkpt>
<trkpt lat="40.0713749" lon="-105.229789">
  <ele>1583.0</ele>
  <time>2026-09-02T20:50:16Z</time>
  <course>0.0</course>
  <speed>0.0</speed>
  <fix>3d</fix>
</trkpt>
<trkpt lat="40.0713749" lon="-105.229789">
  <ele>1583.0</ele>
  <time>2026-09-02T20:50:16Z</time>
  <course>0.0</course>
  <speed>0.0</speed>
  <fix>3d</fix>
</trkpt>
<trkpt lat="40.0713749" lon="-105.229789">
  <ele>1583.0</ele>
  <time>2026-09-02T20:50:16Z</time>
  <course>0.0</course>
  <speed>0.0</speed>
  <fix>3d</fix>
</trkpt>
<trkpt lat="40.0713749" lon="-105.229789">
  <ele>1583.0</ele>
  <time>2026-09-02T20:50:16Z</time>
  <course>0.0</course>
  <speed>0.0</speed>
  <fix>3d</fix>
</trkpt>
<trkpt lat="40.0713749" lon="-105.229789">
  <ele>1583.0</ele>
  <time>2026-09-02T20:50:16Z</time>
  <course>0.0</course>
  <speed>0.0</speed>
  <fix>3d</fix>
</trkpt>
<trkpt lat="40.0713749" lon="-105.229789">
  <ele>1583.0</ele>
  <time>2026-09-02T20:50:16Z</time>
  <course>0.0</course>
  <speed>0.0</speed>
  <fix>3d</fix>
</trkpt>
<trkpt lat="40.0713749" lon="-105.229789">
  <ele>1583.0</ele>
  <time>2026-09-02T20:50:16Z</time>
  <course>0.0</course>
  <speed>0.0</speed>
  <fix>3d</fix>
</trkpt>
<trkpt lat="40.0713749" lon="-105.229789">
  <ele>1583.0</ele>
  <time>2026-09-02T20:50:16Z</time>
  <course>0.0</course>
  <speed>0.0</speed>
  <fix>3d</fix>
</trkpt>
<trkpt lat="40.0713749" lon="-105.229789">
  <ele>1583.0</ele>
  <time>2026-09-02T20:50:16Z</time>
  <course>0.0</course>
  <speed>0.0</speed>
  <fix>3d</fix>
</trkpt>
<trkpt lat="40.0713749" lon="-105.229789">
  <ele>1583.0</ele>
  <time>2026-09-02T20:50:16Z</time>
  <course>0.0</course>
  <speed>0.0</speed>
  <fix>3d</fix>
</trkpt>
<trkpt lat="40.0713749" lon="-105.229789">
  <ele>1583.0</ele>
  <time>2026-09-02T20:50:16Z</time>
  <course>0.0</course>
  <speed>0.0</speed>
  <fix>3d</fix>
</trkpt>
<trkpt lat="40.0713749" lon="-105.229789">
  <ele>1583.0</ele>
  <time>2026-09-02T20:50:16Z</time>
  <course>0.0</course>
  <speed>0.0</speed>
  <fix>3d</fix>
</trkpt>
<trkpt lat="40.0713749" lon="-105.229789">
  <ele>1583.0</ele>
  <time>2026-09-02T20:50:16Z</time>
  <course>0.0</course>
  <speed>0.0</speed>
  <fix>3d</fix>
</trkpt>
<trkpt lat="40.0713749" lon="-105.229789">
  <ele>1583.0</ele>
  <time>2026-09-02T20:50:16Z</time>
  <course>0.0</course>
  <speed>0.0</speed>
  <fix>3d</fix>
</trkpt>
<trkpt lat="40.0713749" lon="-105.229789">
  <ele>1583.0</ele>
  <time>2026-09-02T20:50:16Z</time>
  <course>0.0</course>
  <speed>0.0</speed>
  <fix>3d</fix>
</trkpt>
<trkpt lat="40.0713749" lon="-105.229789">
  <ele>1583.0</ele>
  <time>2026-09-02T20:50:16Z</time>
  <course>0.0</course>
  <speed>0.0</speed>
  <fix>3d</fix>
</trkpt>
<trkpt lat="40.0713749" lon="-105.229789">
  <ele>1583.0</ele>
  <time>2026-09-02T20:50:16Z</time>
  <course>0.0</course>
  <speed>0.0</speed>
  <fix>3d</fix>
</trkpt>
<trkpt lat="40.0713749" lon="-105.229789">
  <ele>1583.0</ele>
  <time>2026-09-02T20:50:16Z</time>
  <course>0.0</course>
  <speed>0.0</speed>
  <fix>3d</fix>
</trkpt>
<trkpt lat="40.0713749" lon="-105.229789">
  <ele>1583.0</ele>
  <time>2026-09-02T20:50:16Z</time>
  <course>0.0</course>
  <speed>0.0</speed>
  <fix>3d</fix>
</trkpt>
<trkpt lat="40.0713749" lon="-105.229789">
  <ele>1583.0</ele>
  <time>2026-09-02T20:50:16Z</time>
  <course>0.0</course>
  <speed>0.0</speed>
  <fix>3d</fix>
</trkpt>
<trkpt lat="40.0713749" lon="-105.229789">
  <ele>1583.0</ele>
  <time>2026-09-02T20:50:16Z</time>
  <course>0.0</course>
  <speed>0.0</speed>
  <fix>3d</fix>
</trkpt>
<trkpt lat="40.0713749" lon="-105.229789">
  <ele>1583.0</ele>
  <time>2026-09-02T20:50:16Z</time>
  <course>0.0</course>
  <speed>0.0</speed>
  <fix>3d</fix>
</trkpt>
<trkpt lat="40.0713749" lon="-105.229789">
  <ele>1583.0</ele>
  <time>2026-09-02T20:50:16Z</time>
  <course>0.0</course>
  <speed>0.0</speed>
  <fix>3d</fix>
</trkpt>
<trkpt lat="40.0713749" lon="-105.229789">
  <ele>1583.0</ele>
  <time>2026-09-02T20:50:16Z</time>
  <course>0.0</course>
  <speed>0.0</speed>
  <fix>3d</fix>
</trkpt>
<trkpt lat="40.0713749" lon="-105.229789">
  <ele>1583.0</ele>
  <time>2026-09-02T20:50:16Z</time>
  <course>0.0</course>
  <speed>0.0</speed>
  <fix>3d</fix>
</trkpt>
<trkpt lat="40.0713749" lon="-105.229789">
  <ele>1583.0</ele>
  <time>2026-09-02T20:50:16Z</time>
  <course>0.0</course>
  <speed>0.0</speed>
  <fix>3d</fix>
</trkpt>
<trkpt lat="40.0713749" lon="-105.229789">
  <ele>1583.0</ele>
  <time>2026-09-02T20:50:16Z</time>
  <course>0.0</course>
  <speed>0.0</speed>
  <fix>3d</fix>
</trkpt>
<trkpt lat="40.0713749" lon="-105.229789">
  <ele>1583.0</ele>
  <time>2026-09-02T20:50:16Z</time>
  <course>0.0</course>
  <speed>0.0</speed>
  <fix>3d</fix>
</trkpt>
<trkpt lat="40.0713749" lon="-105.229789">
  <ele>1583.0</ele>
  <time>2026-09-02T20:50:16Z</time>
  <course>0.0</course>
  <speed>0.0</speed>
  <fix>3d</fix>
</trkpt>
<trkpt lat="40.0713749" lon="-105.229789">
  <ele>1583.0</ele>
  <time>2026-09-02T20:50:16Z</time>
  <course>0.0</course>
  <speed>0.0</speed>
  <fix>3d</fix>
</trkpt>
<trkpt lat="40.0713749" lon="-105.229789">
  <ele>1583.0</ele>
  <time>2026-09-02T20:50:16Z</time>
  <course>0.0</course>
  <speed>0.0</speed>
  <fix>3d</fix>
</trkpt>
<trkpt lat="40.0713749" lon="-105.229789">
  <ele>1583.0</ele>
  <time>2026-09-02T20:50:16Z</time>
  <course>0.0</course>
  <speed>0.0</speed>
  <fix>3d</fix>
</trkpt>
<trkpt lat="40.0713749" lon="-105.229789">
  <ele>1583.0</ele>
  <time>2026-09-02T20:50:16Z</time>
  <course>0.0</course>
  <speed>0.0</speed>
  <fix>3d</fix>
</trkpt>
<trkpt lat="40.0713749" lon="-105.229789">
  <ele>1583.0</ele>
  <time>2026-09-02T20:50:16Z</time>
  <course>0.0</course>
  <speed>0.0</speed>
  <fix>3d</fix>
</trkpt>
<trkpt lat="40.0713749" lon="-105.229789">
  <ele>1583.0</ele>
  <time>2026-09-02T20:50:16Z</time>
  <course>0.0</course>
  <speed>0.0</speed>
  <fix>3d</fix>
</trkpt>
<trkpt lat="40.0713749" lon="-105.229789">
  <ele>1583.0</ele>
  <time>2026-09-02T20:50:16Z</time>
  <course>0.0</course>
  <speed>0.0</speed>
  <fix>3d</fix>
</trkpt>
<trkpt lat="40.0713749" lon="-105.229789">
  <ele>1583.0</ele>
  <time>2026-09-02T20:50:16Z</time>
  <course>0.0</course>
  <speed>0.0</speed>
  <fix>3d</fix>
</trkpt>
<trkpt lat="40.0713749" lon="-105.229789">
  <ele>1583.0</ele>
  <time>2026-09-02T20:50:16Z</time>
  <course>0.0</course>
  <speed>0.0</speed>
  <fix>3d</fix>
</trkpt>
<trkpt lat="40.0713749" lon="-105.229789">
  <ele>1583.0</ele>
  <time>2026-09-02T20:50:16Z</time>
  <course>0.0</course>
  <speed>0.0</speed>
  <fix>3d</fix>
</trkpt>
<trkpt lat="40.0713749" lon="-105.229789">
  <ele>1583.0</ele>
  <time>2026-09-02T20:50:16Z</time>
  <course>0.0</course>
  <speed>0.0</speed>
  <fix>3d</fix>
</trkpt>
<trkpt lat="40.0713749" lon="-105.229789">
  <ele>1583.0</ele>
  <time>2026-09-02T20:50:16Z</time>
  <course>0.0</course>
  <speed>0.0</speed>
  <fix>3d</fix>
</trkpt>
<trkpt lat="40.0713749" lon="-105.229789">
  <ele>1583.0</ele>
  <time>2026-09-02T20:50:16Z</time>
  <course>0.0</course>
  <speed>0.0</speed>
  <fix>3d</fix>
</trkpt>
<trkpt lat="40.0713749" lon="-105.229789">
  <ele>1583.0</ele>
  <time>2026-09-02T20:50:16Z</time>
  <course>0.0</course>
  <speed>0.0</speed>
  <fix>3d</fix>
</trkpt>
<trkpt lat="40.0713749" lon="-105.229789">
  <ele>1583.0</ele>
  <time>2026-09-02T20:50:16Z</time>
  <course>0.0</course>
  <speed>0.0</speed>
  <fix>3d</fix>
</trkpt>
<trkpt lat="40.0713749" lon="-105.229789">
  <ele>1583.0</ele>
  <time>2026-09-02T20:50:16Z</time>
  <course>0.0</course>
  <speed>0.0</speed>
  <fix>3d</fix>
</trkpt>
<trkpt lat="40.0713749" lon="-105.229789">
  <ele>1583.0</ele>
  <time>2026-09-02T20:50:16Z</time>
  <course>0.0</course>
  <speed>0.0</speed>
  <fix>3d</fix>
</trkpt>
<trkpt lat="40.0713749" lon="-105.229789">
  <ele>1583.0</ele>
  <time>2026-09-02T20:50:16Z</time>
  <course>0.0</course>
  <speed>0.0</speed>
  <fix>3d</fix>
</trkpt>
<trkpt lat="40.0713749" lon="-105.229789">
  <ele>1583.0</ele>
  <time>2026-09-02T20:50:16Z</time>
  <course>0.0</course>
  <speed>0.0</speed>
  <fix>3d</fix>
</trkpt>
<trkpt lat="40.0713749" lon="-105.229789">
  <ele>1583.0</ele>
  <time>2026-09-02T20:50:16Z</time>
  <course>0.0</course>
  <speed>0.0</speed>
  <fix>3d</fix>
</trkpt>
<trkpt lat="40.0713749" lon="-105.229789">
  <ele>1583.0</ele>
  <time>2026-09-02T20:50:16Z</time>
  <course>0.0</course>
  <speed>0.0</speed>
  <fix>3d</fix>
</trkpt>
<trkpt lat="40.0713749" lon="-105.229789">
  <ele>1583.0</ele>
  <time>2026-09-02T20:50:16Z</time>
  <course>0.0</course>
  <speed>0.0</speed>
  <fix>3d</fix>
</trkpt>
<trkpt lat="40.0713749" lon="-105.229789">
  <ele>1583.0</ele>
  <time>2026-09-02T20:50:16Z</time>
  <course>0.0</course>
  <speed>0.0</speed>
  <fix>3d</fix>
</trkpt>
<trkpt lat="40.0713749" lon="-105.229789">
  <ele>1583.0</ele>
  <time>2026-09-02T20:50:16Z</time>
  <course>0.0</course>
  <speed>0.0</speed>
  <fix>3d</fix>
</trkpt>
<trkpt lat="40.0713749" lon="-105.229789">
  <ele>1583.0</ele>
  <time>2026-09-02T20:50:16Z</time>
  <course>0.0</course>
  <speed>0.0</speed>
  <fix>3d</fix>
</trkpt>
<trkpt lat="40.0713749" lon="-105.229789">
  <ele>1583.0</ele>
  <time>2026-09-02T20:50:16Z</time>
  <course>0.0</course>
  <speed>0.0</speed>
  <fix>3d</fix>
</trkpt>
<trkpt lat="40.0713749" lon="-105.229789">
  <ele>1583.0</ele>
  <time>2026-09-02T20:50:16Z</time>
  <course>0.0</course>
  <speed>0.0</speed>
  <fix>3d</fix>
</trkpt>
<trkpt lat="40.0713749" lon="-105.229789">
  <ele>1583.0</ele>
  <time>2026-09-02T20:50:16Z</time>
  <course>0.0</course>
  <speed>0.0</speed>
  <fix>3d</fix>
</trkpt>
<trkpt lat="40.0713749" lon="-105.229789">
  <ele>1583.0</ele>
  <time>2026-09-02T20:50:16Z</time>
  <course>0.0</course>
  <speed>0.0</speed>
  <fix>3d</fix>
</trkpt>
<trkpt lat="40.0713749" lon="-105.229789">
  <ele>1583.0</ele>
  <time>2026-09-02T20:50:16Z</time>
  <course>0.0</course>
  <speed>0.0</speed>
  <fix>3d</fix>
</trkpt>
<trkpt lat="40.0713749" lon="-105.229789">
  <ele>1583.0</ele>
  <time>2026-09-02T20:50:16Z</time>
  <course>0.0</course>
  <speed>0.0</speed>
  <fix>3d</fix>
</trkpt>
<trkpt lat="40.0713749" lon="-105.229789">
  <ele>1583.0</ele>
  <time>2026-09-02T20:50:16Z</time>
  <course>0.0</course>
  <speed>0.0</speed>
  <fix>3d</fix>
</trkpt>
<trkpt lat="40.0713749" lon="-105.229789">
  <ele>1583.0</ele>
  <time>2026-09-02T20:50:16Z</time>
  <course>0.0</course>
  <speed>0.0</speed>
  <fix>3d</fix>
</trkpt>
<trkpt lat="40.0713749" lon="-105.229789">
  <ele>1583.0</ele>
  <time>2026-09-02T20:50:16Z</time>
  <course>0.0</course>
  <speed>0.0</speed>
  <fix>3d</fix>
</trkpt>
<trkpt lat="40.0713749" lon="-105.229789">
  <ele>1583.0</ele>
  <time>2026-09-02T20:50:16Z</time>
  <course>0.0</course>
  <speed>0.0</speed>
  <fix>3d</fix>
</trkpt>
<trkpt lat="40.0713749" lon="-105.229789">
  <ele>1583.0</ele>
  <time>2026-09-02T20:50:16Z</time>
  <course>0.0</course>
  <speed>0.0</speed>
  <fix>3d</fix>
</trkpt>
<trkpt lat="40.0713749" lon="-105.229789">
  <ele>1583.0</ele>
  <time>2026-09-02T20:50:16Z</time>
  <course>0.0</course>
  <speed>0.0</speed>
  <fix>3d</fix>
</trkpt>
<trkpt lat="40.0713749" lon="-105.229789">
  <ele>1583.0</ele>
  <time>2026-09-02T20:50:16Z</time>
  <course>0.0</course>
  <speed>0.0</speed>
  <fix>3d</fix>
</trkpt>
<trkpt lat="40.0713749" lon="-105.229789">
  <ele>1583.0</ele>
  <time>2026-09-02T20:50:16Z</time>
  <course>0.0</course>
  <speed>0.0</speed>
  <fix>3d</fix>
</trkpt>
<trkpt lat="40.0713749" lon="-105.229789">
  <ele>1583.0</ele>
  <time>2026-09-02T20:50:16Z</time>
  <course>0.0</course>
  <speed>0.0</speed>
  <fix>3d</fix>
</trkpt>
<trkpt lat="40.0713749" lon="-105.229789">
  <ele>1583.0</ele>
  <time>2026-09-02T20:50:16Z</time>
  <course>0.0</course>
  <speed>0.0</speed>
  <fix>3d</fix>
</trkpt>
<trkpt lat="40.0713749" lon="-105.229789">
  <ele>1583.0</ele>
  <time>2026-09-02T20:50:16Z</time>
  <course>0.0</course>
  <speed>0.0</speed>
  <fix>3d</fix>
</trkpt>
<trkpt lat="40.0713749" lon="-105.229789">
  <ele>1583.0</ele>
  <time>2026-09-02T20:50:16Z</time>
  <course>0.0</course>
  <speed>0.0</speed>
  <fix>3d</fix>
</trkpt>
<trkpt lat="40.0713749" lon="-105.229789">
  <ele>1583.0</ele>
  <time>2026-09-02T20:50:16Z</time>
  <course>0.0</course>
  <speed>0.0</speed>
  <fix>3d</fix>
</trkpt>
<trkpt lat="40.0713749" lon="-105.229789">
  <ele>1583.0</ele>
  <time>2026-09-02T20:50:16Z</time>
  <course>0.0</course>
  <speed>0.0</speed>
  <fix>3d</fix>
</trkpt>
<trkpt lat="40.0713749" lon="-105.229789">
  <ele>1583.0</ele>
  <time>2026-09-02T20:50:16Z</time>
  <course>0.0</course>
  <speed>0.0</speed>
  <fix>3d</fix>
</trkpt>
<trkpt lat="40.0713749" lon="-105.229789">
  <ele>1583.0</ele>
  <time>2026-09-02T20:50:16Z</time>
  <course>0.0</course>
  <speed>0.0</speed>
  <fix>3d</fix>
</trkpt>
<trkpt lat="40.0713749" lon="-105.229789">
  <ele>1583.0</ele>
  <time>2026-09-02T20:50:16Z</time>
  <course>0.0</course>
  <speed>0.0</speed>
  <fix>3d</fix>
</trkpt>
<trkpt lat="40.0713749" lon="-105.229789">
  <ele>1583.0</ele>
  <time>2026-09-02T20:50:16Z</time>
  <course>0.0</course>
  <speed>0.0</speed>
  <fix>3d</fix>
</trkpt>
<trkpt lat="40.0713749" lon="-105.229789">
  <ele>1583.0</ele>
  <time>2026-09-02T20:50:16Z</time>
  <course>0.0</course>
  <speed>0.0</speed>
  <fix>3d</fix>
</trkpt>
<trkpt lat="40.0713749" lon="-105.229789">
  <ele>1583.0</ele>
  <time>2026-09-02T20:50:16Z</time>
  <course>0.0</course>
  <speed>0.0</speed>
  <fix>3d</fix>
</trkpt>
<trkpt lat="40.0713749" lon="-105.229789">
  <ele>1583.0</ele>
  <time>2026-09-02T20:50:16Z</time>
  <course>0.0</course>
  <speed>0.0</speed>
  <fix>3d</fix>
</trkpt>
<trkpt lat="40.0713749" lon="-105.229789">
  <ele>1583.0</ele>
  <time>2026-09-02T20:50:16Z</time>
  <course>0.0</course>
  <speed>0.0</speed>
  <fix>3d</fix>
</trkpt>
<trkpt lat="40.0713749" lon="-105.229789">
  <ele>1583.0</ele>
  <time>2026-09-02T20:50:16Z</time>
  <course>0.0</course>
  <speed>0.0</speed>
  <fix>3d</fix>
</trkpt>
<trkpt lat="40.0713749" lon="-105.229789">
  <ele>1583.0</ele>
  <time>2026-09-02T20:50:16Z</time>
  <course>0.0</course>
  <speed>0.0</speed>
  <fix>3d</fix>
</trkpt>
<trkpt lat="40.0713749" lon="-105.229789">
  <ele>1583.0</ele>
  <time>2026-09-02T20:50:16Z</time>
  <course>0.0</course>
  <speed>0.0</speed>
  <fix>3d</fix>
</trkpt>
<trkpt lat="40.0713749" lon="-105.229789">
  <ele>1583.0</ele>
  <time>2026-09-02T20:50:16Z</time>
  <course>0.0</course>
  <speed>0.0</speed>
  <fix>3d</fix>
</trkpt>
<trkpt lat="40.0713749" lon="-105.229789">
  <ele>1583.0</ele>
  <time>2026-09-02T20:50:16Z</time>
  <course>0.0</course>
  <speed>0.0</speed>
  <fix>3d</fix>
</trkpt>
<trkpt lat="40.0713749" lon="-105.229789">
  <ele>1583.0</ele>
  <time>2026-09-02T20:50:16Z</time>
  <course>0.0</course>
  <speed>0.0</speed>
  <fix>3d</fix>
</trkpt>
<trkpt lat="40.0713749" lon="-105.229789">
  <ele>1583.0</ele>
  <time>2026-09-02T20:50:16Z</time>
  <course>0.0</course>
  <speed>0.0</speed>
  <fix>3d</fix>
</trkpt>
<trkpt lat="40.0713749" lon="-105.229789">
  <ele>1583.0</ele>
  <time>2026-09-02T20:50:16Z</time>
  <course>0.0</course>
  <speed>0.0</speed>
  <fix>3d</fix>
</trkpt>
<trkpt lat="40.0713749" lon="-105.229789">
  <ele>1583.0</ele>
  <time>2026-09-02T20:50:16Z</time>
  <course>0.0</course>
  <speed>0.0</speed>
  <fix>3d</fix>
</trkpt>
<trkpt lat="40.0713749" lon="-105.229789">
  <ele>1583.0</ele>
  <time>2026-09-02T20:50:16Z</time>
  <course>0.0</course>
  <speed>0.0</speed>
  <fix>3d</fix>
</trkpt>
<trkpt lat="40.0713749" lon="-105.229789">
  <ele>1583.0</ele>
  <time>2026-09-02T20:50:16Z</time>
  <course>0.0</course>
  <speed>0.0</speed>
  <fix>3d</fix>
</trkpt>
<trkpt lat="40.0713749" lon="-105.229789">
  <ele>1583.0</ele>
  <time>2026-09-02T20:50:16Z</time>
  <course>0.0</course>
  <speed>0.0</speed>
  <fix>3d</fix>
</trkpt>
<trkpt lat="40.0713749" lon="-105.229789">
  <ele>1583.0</ele>
  <time>2026-09-02T20:50:16Z</time>
  <course>0.0</course>
  <speed>0.0</speed>
  <fix>3d</fix>
</trkpt>
<trkpt lat="40.0713749" lon="-105.229789">
  <ele>1583.0</ele>
  <time>2026-09-02T20:50:16Z</time>
  <course>0.0</course>
  <speed>0.0</speed>
  <fix>3d</fix>
</trkpt>
<trkpt lat="40.0713749" lon="-105.229789">
  <ele>1583.0</ele>
  <time>2026-09-02T20:50:16Z</time>
  <course>0.0</course>
  <speed>0.0</speed>
  <fix>3d</fix>
</trkpt>
<trkpt lat="40.0713749" lon="-105.229789">
  <ele>1583.0</ele>
  <time>2026-09-02T20:50:16Z</time>
  <course>0.0</course>
  <speed>0.0</speed>
  <fix>3d</fix>
</trkpt>
<trkpt lat="40.0713749" lon="-105.229789">
  <ele>1583.0</ele>
  <time>2026-09-02T20:50:16Z</time>
  <course>0.0</course>
  <speed>0.0</speed>
  <fix>3d</fix>
</trkpt>
<trkpt lat="40.0713749" lon="-105.229789">
  <ele>1583.0</ele>
  <time>2026-09-02T20:50:16Z</time>
  <course>0.0</course>
  <speed>0.0</speed>
  <fix>3d</fix>
</trkpt>
<trkpt lat="40.0713749" lon="-105.229789">
  <ele>1583.0</ele>
  <time>2026-09-02T20:50:16Z</time>
  <course>0.0</course>
  <speed>0.0</speed>
  <fix>3d</fix>
</trkpt>
<trkpt lat="40.0713749" lon="-105.229789">
  <ele>1583.0</ele>
  <time>2026-09-02T20:50:16Z</time>
  <course>0.0</course>
  <speed>0.0</speed>
  <fix>3d</fix>
</trkpt>
<trkpt lat="40.0713749" lon="-105.229789">
  <ele>1583.0</ele>
  <time>2026-09-02T20:50:16Z</time>
  <course>0.0</course>
  <speed>0.0</speed>
  <fix>3d</fix>
</trkpt>
<trkpt lat="40.0713749" lon="-105.229789">
  <ele>1583.0</ele>
  <time>2026-09-02T20:50:16Z</time>
  <course>0.0</course>
  <speed>0.0</speed>
  <fix>3d</fix>
</trkpt>
<trkpt lat="40.0713749" lon="-105.229789">
  <ele>1583.0</ele>
  <time>2026-09-02T20:50:16Z</time>
  <course>0.0</course>
  <speed>0.0</speed>
  <fix>3d</fix>
</trkpt>
<trkpt lat="40.0713749" lon="-105.229789">
  <ele>1583.0</ele>
  <time>2026-09-02T20:50:16Z</time>
  <course>0.0</course>
  <speed>0.0</speed>
  <fix>3d</fix>
</trkpt>
<trkpt lat="40.0713749" lon="-105.229789">
  <ele>1583.0</ele>
  <time>2026-09-02T20:50:16Z</time>
  <course>0.0</course>
  <speed>0.0</speed>
  <fix>3d</fix>
</trkpt>
<trkpt lat="40.0713749" lon="-105.229789">
  <ele>1583.0</ele>
  <time>2026-09-02T20:50:16Z</time>
  <course>0.0</course>
  <speed>0.0</speed>
  <fix>3d</fix>
</trkpt>
<trkpt lat="40.0713749" lon="-105.229789">
  <ele>1583.0</ele>
  <time>2026-09-02T20:50:16Z</time>
  <course>0.0</course>
  <speed>0.0</speed>
  <fix>3d</fix>
</trkpt>
<trkpt lat="40.0713749" lon="-105.229789">
  <ele>1583.0</ele>
  <time>2026-09-02T20:50:16Z</time>
  <course>0.0</course>
  <speed>0.0</speed>
  <fix>3d</fix>
</trkpt>
<trkpt lat="40.0713749" lon="-105.229789">
  <ele>1583.0</ele>
  <time>2026-09-02T20:50:16Z</time>
  <course>0.0</course>
  <speed>0.0</speed>
  <fix>3d</fix>
</trkpt>
<trkpt lat="40.0713749" lon="-105.229789">
  <ele>1583.0</ele>
  <time>2026-09-02T20:50:16Z</time>
  <course>0.0</course>
  <speed>0.0</speed>
  <fix>3d</fix>
</trkpt>
<trkpt lat="40.0713749" lon="-105.229789">
  <ele>1583.0</ele>
  <time>2026-09-02T20:50:16Z</time>
  <course>0.0</course>
  <speed>0.0</speed>
  <fix>3d</fix>
</trkpt>
<trkpt lat="40.0713749" lon="-105.229789">
  <ele>1583.0</ele>
  <time>2026-09-02T20:50:16Z</time>
  <course>0.0</course>
  <speed>0.0</speed>
  <fix>3d</fix>
</trkpt>
<trkpt lat="40.0713749" lon="-105.229789">
  <ele>1583.0</ele>
  <time>2026-09-02T20:50:16Z</time>
  <course>0.0</course>
  <speed>0.0</speed>
  <fix>3d</fix>
</trkpt>
<trkpt lat="40.0713749" lon="-105.229789">
  <ele>1583.0</ele>
  <time>2026-09-02T20:50:16Z</time>
  <course>0.0</course>
  <speed>0.0</speed>
  <fix>3d</fix>
</trkpt>
<trkpt lat="40.0713749" lon="-105.229789">
  <ele>1583.0</ele>
  <time>2026-09-02T20:50:16Z</time>
  <course>0.0</course>
  <speed>0.0</speed>
  <fix>3d</fix>
</trkpt>
<trkpt lat="40.0713749" lon="-105.229789">
  <ele>1583.0</ele>
  <time>2026-09-02T20:50:16Z</time>
  <course>0.0</course>
  <speed>0.0</speed>
  <fix>3d</fix>
</trkpt>
<trkpt lat="40.0713749" lon="-105.229789">
  <ele>1583.0</ele>
  <time>2026-09-02T20:50:16Z</time>
  <course>0.0</course>
  <speed>0.0</speed>
  <fix>3d</fix>
</trkpt>
<trkpt lat="40.0713749" lon="-105.229789">
  <ele>1583.0</ele>
  <time>2026-09-02T20:50:16Z</time>
  <course>0.0</course>
  <speed>0.0</speed>
  <fix>3d</fix>
</trkpt>
<trkpt lat="40.0713749" lon="-105.229789">
  <ele>1583.0</ele>
  <time>2026-09-02T20:50:16Z</time>
  <course>0.0</course>
  <speed>0.0</speed>
  <fix>3d</fix>
</trkpt>
<trkpt lat="40.0713749" lon="-105.229789">
  <ele>1583.0</ele>
  <time>2026-09-02T20:50:16Z</time>
  <course>0.0</course>
  <speed>0.0</speed>
  <fix>3d</fix>
</trkpt>
<trkpt lat="40.0713749" lon="-105.229789">
  <ele>1583.0</ele>
  <time>2026-09-02T20:50:16Z</time>
  <course>0.0</course>
  <speed>0.0</speed>
  <fix>3d</fix>
</trkpt>
<trkpt lat="40.0713749" lon="-105.229789">
  <ele>1583.0</ele>
  <time>2026-09-02T20:50:16Z</time>
  <course>0.0</course>
  <speed>0.0</speed>
  <fix>3d</fix>
</trkpt>
<trkpt lat="40.0713749" lon="-105.229789">
  <ele>1583.0</ele>
  <time>2026-09-02T20:50:16Z</time>
  <course>0.0</course>
  <speed>0.0</speed>
  <fix>3d</fix>
</trkpt>
<trkpt lat="40.0713749" lon="-105.229789">
  <ele>1583.0</ele>
  <time>2026-09-02T20:50:16Z</time>
  <course>0.0</course>
  <speed>0.0</speed>
  <fix>3d</fix>
</trkpt>
<trkpt lat="40.0713749" lon="-105.229789">
  <ele>1583.0</ele>
  <time>2026-09-02T20:50:16Z</time>
  <course>0.0</course>
  <speed>0.0</speed>
  <fix>3d</fix>
</trkpt>
<trkpt lat="40.0713749" lon="-105.229789">
  <ele>1583.0</ele>
  <time>2026-09-02T20:50:16Z</time>
  <course>0.0</course>
  <speed>0.0</speed>
  <fix>3d</fix>
</trkpt>
<trkpt lat="40.0713749" lon="-105.229789">
  <ele>1583.0</ele>
  <time>2026-09-02T20:50:16Z</time>
  <course>0.0</course>
  <speed>0.0</speed>
  <fix>3d</fix>
</trkpt>
<trkpt lat="40.0713749" lon="-105.229789">
  <ele>1583.0</ele>
  <time>2026-09-02T20:50:16Z</time>
  <course>0.0</course>
  <speed>0.0</speed>
  <fix>3d</fix>
</trkpt>
<trkpt lat="40.0713749" lon="-105.229789">
  <ele>1583.0</ele>
  <time>2026-09-02T20:50:16Z</time>
  <course>0.0</course>
  <speed>0.0</speed>
  <fix>3d</fix>
</trkpt>
<trkpt lat="40.0713749" lon="-105.229789">
  <ele>1583.0</ele>
  <time>2026-09-02T20:50:16Z</time>
  <course>0.0</course>
  <speed>0.0</speed>
  <fix>3d</fix>
</trkpt>
<trkpt lat="40.0713749" lon="-105.229789">
  <ele>1583.0</ele>
  <time>2026-09-02T20:50:16Z</time>
  <course>0.0</course>
  <speed>0.0</speed>
  <fix>3d</fix>
</trkpt>
<trkpt lat="40.0713749" lon="-105.229789">
  <ele>1583.0</ele>
  <time>2026-09-02T20:50:16Z</time>
  <course>0.0</course>
  <speed>0.0</speed>
  <fix>3d</fix>
</trkpt>
<trkpt lat="40.0713749" lon="-105.229789">
  <ele>1583.0</ele>
  <time>2026-09-02T20:50:16Z</time>
  <course>0.0</course>
  <speed>0.0</speed>
  <fix>3d</fix>
</trkpt>
<trkpt lat="40.0713749" lon="-105.229789">
  <ele>1583.0</ele>
  <time>2026-09-02T20:50:16Z</time>
  <course>0.0</course>
  <speed>0.0</speed>
  <fix>3d</fix>
</trkpt>
<trkpt lat="40.0713749" lon="-105.229789">
  <ele>1583.0</ele>
  <time>2026-09-02T20:50:16Z</time>
  <course>0.0</course>
  <speed>0.0</speed>
  <fix>3d</fix>
</trkpt>
<trkpt lat="40.0713749" lon="-105.229789">
  <ele>1583.0</ele>
  <time>2026-09-02T20:50:16Z</time>
  <course>0.0</course>
  <speed>0.0</speed>
  <fix>3d</fix>
</trkpt>
<trkpt lat="40.0713749" lon="-105.229789">
  <ele>1583.0</ele>
  <time>2026-09-02T20:50:16Z</time>
  <course>0.0</course>
  <speed>0.0</speed>
  <fix>3d</fix>
</trkpt>
<trkpt lat="40.0713749" lon="-105.229789">
  <ele>1583.0</ele>
  <time>2026-09-02T20:50:16Z</time>
  <course>0.0</course>
  <speed>0.0</speed>
  <fix>3d</fix>
</trkpt>
<trkpt lat="40.0713749" lon="-105.229789">
  <ele>1583.0</ele>
  <time>2026-09-02T20:50:16Z</time>
  <course>0.0</course>
  <speed>0.0</speed>
  <fix>3d</fix>
</trkpt>
<trkpt lat="40.0713749" lon="-105.229789">
  <ele>1583.0</ele>
  <time>2026-09-02T20:50:16Z</time>
  <course>0.0</course>
  <speed>0.0</speed>
  <fix>3d</fix>
</trkpt>
<trkpt lat="40.0713749" lon="-105.229789">
  <ele>1583.0</ele>
  <time>2026-09-02T20:50:16Z</time>
  <course>0.0</course>
  <speed>0.0</speed>
  <fix>3d</fix>
</trkpt>
<trkpt lat="40.0713749" lon="-105.229789">
  <ele>1583.0</ele>
  <time>2026-09-02T20:50:16Z</time>
  <course>0.0</course>
  <speed>0.0</speed>
  <fix>3d</fix>
</trkpt>
<trkpt lat="40.0713749" lon="-105.229789">
  <ele>1583.0</ele>
  <time>2026-09-02T20:50:16Z</time>
  <course>0.0</course>
  <speed>0.0</speed>
  <fix>3d</fix>
</trkpt>
<trkpt lat="40.0713749" lon="-105.229789">
  <ele>1583.0</ele>
  <time>2026-09-02T20:50:16Z</time>
  <course>0.0</course>
  <speed>0.0</speed>
  <fix>3d</fix>
</trkpt>
<trkpt lat="40.0713749" lon="-105.229789">
  <ele>1583.0</ele>
  <time>2026-09-02T20:50:16Z</time>
  <course>0.0</course>
  <speed>0.0</speed>
  <fix>3d</fix>
</trkpt>
<trkpt lat="40.0713749" lon="-105.229789">
  <ele>1583.0</ele>
  <time>2026-09-02T20:50:16Z</time>
  <course>0.0</course>
  <speed>0.0</speed>
  <fix>3d</fix>
</trkpt>
<trkpt lat="40.0713749" lon="-105.229789">
  <ele>1583.0</ele>
  <time>2026-09-02T20:50:16Z</time>
  <course>0.0</course>
  <speed>0.0</speed>
  <fix>3d</fix>
</trkpt>
<trkpt lat="40.0713749" lon="-105.229789">
  <ele>1583.0</ele>
  <time>2026-09-02T20:50:16Z</time>
  <course>0.0</course>
  <speed>0.0</speed>
  <fix>3d</fix>
</trkpt>
<trkpt lat="40.0713749" lon="-105.229789">
  <ele>1583.0</ele>
  <time>2026-09-02T20:50:16Z</time>
  <course>0.0</course>
  <speed>0.0</speed>
  <fix>3d</fix>
</trkpt>
<trkpt lat="40.0713749" lon="-105.229789">
  <ele>1583.0</ele>
  <time>2026-09-02T20:50:16Z</time>
  <course>0.0</course>
  <speed>0.0</speed>
  <fix>3d</fix>
</trkpt>
<trkpt lat="40.0713749" lon="-105.229789">
  <ele>1583.0</ele>
  <time>2026-09-02T20:50:16Z</time>
  <course>0.0</course>
  <speed>0.0</speed>
  <fix>3d</fix>
</trkpt>
<trkpt lat="40.0713749" lon="-105.229789">
  <ele>1583.0</ele>
  <time>2026-09-02T20:50:16Z</time>
  <course>0.0</course>
  <speed>0.0</speed>
  <fix>3d</fix>
</trkpt>
<trkpt lat="40.0713749" lon="-105.229789">
  <ele>1583.0</ele>
  <time>2026-09-02T20:50:16Z</time>
  <course>0.0</course>
  <speed>0.0</speed>
  <fix>3d</fix>
</trkpt>
<trkpt lat="40.0713749" lon="-105.229789">
  <ele>1583.0</ele>
  <time>2026-09-02T20:50:16Z</time>
  <course>0.0</course>
  <speed>0.0</speed>
  <fix>3d</fix>
</trkpt>
<trkpt lat="40.0713749" lon="-105.229789">
  <ele>1583.0</ele>
  <time>2026-09-02T20:50:16Z</time>
  <course>0.0</course>
  <speed>0.0</speed>
  <fix>3d</fix>
</trkpt>
<trkpt lat="40.0713749" lon="-105.229789">
  <ele>1583.0</ele>
  <time>2026-09-02T20:50:16Z</time>
  <course>0.0</course>
  <speed>0.0</speed>
  <fix>3d</fix>
</trkpt>
<trkpt lat="40.0713749" lon="-105.229789">
  <ele>1583.0</ele>
  <time>2026-09-02T20:50:16Z</time>
  <course>0.0</course>
  <speed>0.0</speed>
  <fix>3d</fix>
</trkpt>
<trkpt lat="40.0713749" lon="-105.229789">
  <ele>1583.0</ele>
  <time>2026-09-02T20:50:16Z</time>
  <course>0.0</course>
  <speed>0.0</speed>
  <fix>3d</fix>
</trkpt>
<trkpt lat="40.0713749" lon="-105.229789">
  <ele>1583.0</ele>
  <time>2026-09-02T20:50:16Z</time>
  <course>0.0</course>
  <speed>0.0</speed>
  <fix>3d</fix>
</trkpt>
<trkpt lat="40.0713749" lon="-105.229789">
  <ele>1583.0</ele>
  <time>2026-09-02T20:50:16Z</time>
  <course>0.0</course>
  <speed>0.0</speed>
  <fix>3d</fix>
</trkpt>
<trkpt lat="40.0713749" lon="-105.229789">
  <ele>1583.0</ele>
  <time>2026-09-02T20:50:16Z</time>
  <course>0.0</course>
  <speed>0.0</speed>
  <fix>3d</fix>
</trkpt>
<trkpt lat="40.0713749" lon="-105.229789">
  <ele>1583.0</ele>
  <time>2026-09-02T20:50:16Z</time>
  <course>0.0</course>
  <speed>0.0</speed>
  <fix>3d</fix>
</trkpt>
<trkpt lat="40.0713749" lon="-105.229789">
  <ele>1583.0</ele>
  <time>2026-09-02T20:50:16Z</time>
  <course>0.0</course>
  <speed>0.0</speed>
  <fix>3d</fix>
</trkpt>
<trkpt lat="40.0713749" lon="-105.229789">
  <ele>1583.0</ele>
  <time>2026-09-02T20:50:16Z</time>
  <course>0.0</course>
  <speed>0.0</speed>
  <fix>3d</fix>
</trkpt>
<trkpt lat="40.0713749" lon="-105.229789">
  <ele>1583.0</ele>
  <time>2026-09-02T20:50:16Z</time>
  <course>0.0</course>
  <speed>0.0</speed>
  <fix>3d</fix>
</trkpt>
<trkpt lat="40.0713749" lon="-105.229789">
  <ele>1583.0</ele>
  <time>2026-09-02T20:50:16Z</time>
  <course>0.0</course>
  <speed>0.0</speed>
  <fix>3d</fix>
</trkpt>
<trkpt lat="40.0713749" lon="-105.229789">
  <ele>1583.0</ele>
  <time>2026-09-02T20:50:16Z</time>
  <course>0.0</course>
  <speed>0.0</speed>
  <fix>3d</fix>
</trkpt>
<trkpt lat="40.0713749" lon="-105.229789">
  <ele>1583.0</ele>
  <time>2026-09-02T20:50:16Z</time>
  <course>0.0</course>
  <speed>0.0</speed>
  <fix>3d</fix>
</trkpt>
<trkpt lat="40.0713749" lon="-105.229789">
  <ele>1583.0</ele>
  <time>2026-09-02T20:50:16Z</time>
  <course>0.0</course>
  <speed>0.0</speed>
  <fix>3d</fix>
</trkpt>
<trkpt lat="40.0713749" lon="-105.229789">
  <ele>1583.0</ele>
  <time>2026-09-02T20:50:16Z</time>
  <course>0.0</course>
  <speed>0.0</speed>
  <fix>3d</fix>
</trkpt>
<trkpt lat="40.0713749" lon="-105.229789">
  <ele>1583.0</ele>
  <time>2026-09-02T20:50:16Z</time>
  <course>0.0</course>
  <speed>0.0</speed>
  <fix>3d</fix>
</trkpt>
<trkpt lat="40.0713749" lon="-105.229789">
  <ele>1583.0</ele>
  <time>2026-09-02T20:50:16Z</time>
  <course>0.0</course>
  <speed>0.0</speed>
  <fix>3d</fix>
</trkpt>
<trkpt lat="40.0713749" lon="-105.229789">
  <ele>1583.0</ele>
  <time>2026-09-02T20:50:16Z</time>
  <course>0.0</course>
  <speed>0.0</speed>
  <fix>3d</fix>
</trkpt>
<trkpt lat="40.0713749" lon="-105.229789">
  <ele>1583.0</ele>
  <time>2026-09-02T20:50:16Z</time>
  <course>0.0</course>
  <speed>0.0</speed>
  <fix>3d</fix>
</trkpt>
<trkpt lat="40.0713749" lon="-105.229789">
  <ele>1583.0</ele>
  <time>2026-09-02T20:50:16Z</time>
  <course>0.0</course>
  <speed>0.0</speed>
  <fix>3d</fix>
</trkpt>
<trkpt lat="40.0713749" lon="-105.229789">
  <ele>1583.0</ele>
  <time>2026-09-02T20:50:16Z</time>
  <course>0.0</course>
  <speed>0.0</speed>
  <fix>3d</fix>
</trkpt>
<trkpt lat="40.0713749" lon="-105.229789">
  <ele>1583.0</ele>
  <time>2026-09-02T20:50:16Z</time>
  <course>0.0</course>
  <speed>0.0</speed>
  <fix>3d</fix>
</trkpt>
<trkpt lat="40.0713749" lon="-105.229789">
  <ele>1583.0</ele>
  <time>2026-09-02T20:50:16Z</time>
  <course>0.0</course>
  <speed>0.0</speed>
  <fix>3d</fix>
</trkpt>
<trkpt lat="40.0713749" lon="-105.229789">
  <ele>1583.0</ele>
  <time>2026-09-02T20:50:16Z</time>
  <course>0.0</course>
  <speed>0.0</speed>
  <fix>3d</fix>
</trkpt>
<trkpt lat="40.0713749" lon="-105.229789">
  <ele>1583.0</ele>
  <time>2026-09-02T20:50:16Z</time>
  <course>0.0</course>
  <speed>0.0</speed>
  <fix>3d</fix>
</trkpt>
<trkpt lat="40.0713749" lon="-105.229789">
  <ele>1583.0</ele>
  <time>2026-09-02T20:50:16Z</time>
  <course>0.0</course>
  <speed>0.0</speed>
  <fix>3d</fix>
</trkpt>
<trkpt lat="40.0713749" lon="-105.229789">
  <ele>1583.0</ele>
  <time>2026-09-02T20:50:16Z</time>
  <course>0.0</course>
  <speed>0.0</speed>
  <fix>3d</fix>
</trkpt>
<trkpt lat="40.0713749" lon="-105.229789">
  <ele>1583.0</ele>
  <time>2026-09-02T20:50:16Z</time>
  <course>0.0</course>
  <speed>0.0</speed>
  <fix>3d</fix>
</trkpt>
<trkpt lat="40.0713749" lon="-105.229789">
  <ele>1583.0</ele>
  <time>2026-09-02T20:50:16Z</time>
  <course>0.0</course>
  <speed>0.0</speed>
  <fix>3d</fix>
</trkpt>
<trkpt lat="40.0713749" lon="-105.229789">
  <ele>1583.0</ele>
  <time>2026-09-02T20:50:16Z</time>
  <course>0.0</course>
  <speed>0.0</speed>
  <fix>3d</fix>
</trkpt>
<trkpt lat="40.0713749" lon="-105.229789">
  <ele>1583.0</ele>
  <time>2026-09-02T20:50:16Z</time>
  <course>0.0</course>
  <speed>0.0</speed>
  <fix>3d</fix>
</trkpt>
<trkpt lat="40.0713749" lon="-105.229789">
  <ele>1583.0</ele>
  <time>2026-09-02T20:50:16Z</time>
  <course>0.0</course>
  <speed>0.0</speed>
  <fix>3d</fix>
</trkpt>
<trkpt lat="40.0713749" lon="-105.229789">
  <ele>1583.0</ele>
  <time>2026-09-02T20:50:16Z</time>
  <course>0.0</course>
  <speed>0.0</speed>
  <fix>3d</fix>
</trkpt>
<trkpt lat="40.0713749" lon="-105.229789">
  <ele>1583.0</ele>
  <time>2026-09-02T20:50:16Z</time>
  <course>0.0</course>
  <speed>0.0</speed>
  <fix>3d</fix>
</trkpt>
<trkpt lat="40.0713749" lon="-105.229789">
  <ele>1583.0</ele>
  <time>2026-09-02T20:50:16Z</time>
  <course>0.0</course>
  <speed>0.0</speed>
  <fix>3d</fix>
</trkpt>
<trkpt lat="40.0713749" lon="-105.229789">
  <ele>1583.0</ele>
  <time>2026-09-02T20:50:16Z</time>
  <course>0.0</course>
  <speed>0.0</speed>
  <fix>3d</fix>
</trkpt>
<trkpt lat="40.0713749" lon="-105.229789">
  <ele>1583.0</ele>
  <time>2026-09-02T20:50:16Z</time>
  <course>0.0</course>
  <speed>0.0</speed>
  <fix>3d</fix>
</trkpt>
<trkpt lat="40.0713749" lon="-105.229789">
  <ele>1583.0</ele>
  <time>2026-09-02T20:50:16Z</time>
  <course>0.0</course>
  <speed>0.0</speed>
  <fix>3d</fix>
</trkpt>
<trkpt lat="40.0713749" lon="-105.229789">
  <ele>1583.0</ele>
  <time>2026-09-02T20:50:16Z</time>
  <course>0.0</course>
  <speed>0.0</speed>
  <fix>3d</fix>
</trkpt>
<trkpt lat="40.0713749" lon="-105.229789">
  <ele>1583.0</ele>
  <time>2026-09-02T20:50:16Z</time>
  <course>0.0</course>
  <speed>0.0</speed>
  <fix>3d</fix>
</trkpt>
<trkpt lat="40.0713749" lon="-105.229789">
  <ele>1583.0</ele>
  <time>2026-09-02T20:50:16Z</time>
  <course>0.0</course>
  <speed>0.0</speed>
  <fix>3d</fix>
</trkpt>
<trkpt lat="40.0713749" lon="-105.229789">
  <ele>1583.0</ele>
  <time>2026-09-02T20:50:16Z</time>
  <course>0.0</course>
  <speed>0.0</speed>
  <fix>3d</fix>
</trkpt>
<trkpt lat="40.0713749" lon="-105.229789">
  <ele>1583.0</ele>
  <time>2026-09-02T20:50:16Z</time>
  <course>0.0</course>
  <speed>0.0</speed>
  <fix>3d</fix>
</trkpt>
<trkpt lat="40.0713749" lon="-105.229789">
  <ele>1583.0</ele>
  <time>2026-09-02T20:50:16Z</time>
  <course>0.0</course>
  <speed>0.0</speed>
  <fix>3d</fix>
</trkpt>
<trkpt lat="40.0713749" lon="-105.229789">
  <ele>1583.0</ele>
  <time>2026-09-02T20:50:16Z</time>
  <course>0.0</course>
  <speed>0.0</speed>
  <fix>3d</fix>
</trkpt>
<trkpt lat="40.0713749" lon="-105.229789">
  <ele>1583.0</ele>
  <time>2026-09-02T20:50:16Z</time>
  <course>0.0</course>
  <speed>0.0</speed>
  <fix>3d</fix>
</trkpt>
<trkpt lat="40.0713749" lon="-105.229789">
  <ele>1583.0</ele>
  <time>2026-09-02T20:50:16Z</time>
  <course>0.0</course>
  <speed>0.0</speed>
  <fix>3d</fix>
</trkpt>
<trkpt lat="40.0713749" lon="-105.229789">
  <ele>1583.0</ele>
  <time>2026-09-02T20:50:16Z</time>
  <course>0.0</course>
  <speed>0.0</speed>
  <fix>3d</fix>
</trkpt>
<trkpt lat="40.0713749" lon="-105.229789">
  <ele>1583.0</ele>
  <time>2026-09-02T20:50:16Z</time>
  <course>0.0</course>
  <speed>0.0</speed>
  <fix>3d</fix>
</trkpt>
<trkpt lat="40.0713749" lon="-105.229789">
  <ele>1583.0</ele>
  <time>2026-09-02T20:50:16Z</time>
  <course>0.0</course>
  <speed>0.0</speed>
  <fix>3d</fix>
</trkpt>
<trkpt lat="40.0713749" lon="-105.229789">
  <ele>1583.0</ele>
  <time>2026-09-02T20:50:16Z</time>
  <course>0.0</course>
  <speed>0.0</speed>
  <fix>3d</fix>
</trkpt>
<trkpt lat="40.0713749" lon="-105.229789">
  <ele>1583.0</ele>
  <time>2026-09-02T20:50:16Z</time>
  <course>0.0</course>
  <speed>0.0</speed>
  <fix>3d</fix>
</trkpt>
<trkpt lat="40.0713749" lon="-105.229789">
  <ele>1583.0</ele>
  <time>2026-09-02T20:50:16Z</time>
  <course>0.0</course>
  <speed>0.0</speed>
  <fix>3d</fix>
</trkpt>
<trkpt lat="40.0713749" lon="-105.229789">
  <ele>1583.0</ele>
  <time>2026-09-02T20:50:16Z</time>
  <course>0.0</course>
  <speed>0.0</speed>
  <fix>3d</fix>
</trkpt>
<trkpt lat="40.0713749" lon="-105.229789">
  <ele>1583.0</ele>
  <time>2026-09-02T20:50:16Z</time>
  <course>0.0</course>
  <speed>0.0</speed>
  <fix>3d</fix>
</trkpt>
<trkpt lat="40.0713749" lon="-105.229789">
  <ele>1583.0</ele>
  <time>2026-09-02T20:50:16Z</time>
  <course>0.0</course>
  <speed>0.0</speed>
  <fix>3d</fix>
</trkpt>
<trkpt lat="40.0713749" lon="-105.229789">
  <ele>1583.0</ele>
  <time>2026-09-02T20:50:16Z</time>
  <course>0.0</course>
  <speed>0.0</speed>
  <fix>3d</fix>
</trkpt>
<trkpt lat="40.0713749" lon="-105.229789">
  <ele>1583.0</ele>
  <time>2026-09-02T20:50:16Z</time>
  <course>0.0</course>
  <speed>0.0</speed>
  <fix>3d</fix>
</trkpt>
<trkpt lat="40.0713749" lon="-105.229789">
  <ele>1583.0</ele>
  <time>2026-09-02T20:50:16Z</time>
  <course>0.0</course>
  <speed>0.0</speed>
  <fix>3d</fix>
</trkpt>
<trkpt lat="40.0713749" lon="-105.229789">
  <ele>1583.0</ele>
  <time>2026-09-02T20:50:16Z</time>
  <course>0.0</course>
  <speed>0.0</speed>
  <fix>3d</fix>
</trkpt>
<trkpt lat="40.0713749" lon="-105.229789">
  <ele>1583.0</ele>
  <time>2026-09-02T20:50:16Z</time>
  <course>0.0</course>
  <speed>0.0</speed>
  <fix>3d</fix>
</trkpt>
<trkpt lat="40.0713749" lon="-105.229789">
  <ele>1583.0</ele>
  <time>2026-09-02T20:50:16Z</time>
  <course>0.0</course>
  <speed>0.0</speed>
  <fix>3d</fix>
</trkpt>
<trkpt lat="40.0713749" lon="-105.229789">
  <ele>1583.0</ele>
  <time>2026-09-02T20:50:16Z</time>
  <course>0.0</course>
  <speed>0.0</speed>
  <fix>3d</fix>
</trkpt>
<trkpt lat="40.0713749" lon="-105.229789">
  <ele>1583.0</ele>
  <time>2026-09-02T20:50:16Z</time>
  <course>0.0</course>
  <speed>0.0</speed>
  <fix>3d</fix>
</trkpt>
<trkpt lat="40.0713749" lon="-105.229789">
  <ele>1583.0</ele>
  <time>2026-09-02T20:50:16Z</time>
  <course>0.0</course>
  <speed>0.0</speed>
  <fix>3d</fix>
</trkpt>
<trkpt lat="40.0713749" lon="-105.229789">
  <ele>1583.0</ele>
  <time>2026-09-02T20:50:16Z</time>
  <course>0.0</course>
  <speed>0.0</speed>
  <fix>3d</fix>
</trkpt>
<trkpt lat="40.0713749" lon="-105.229789">
  <ele>1583.0</ele>
  <time>2026-09-02T20:50:16Z</time>
  <course>0.0</course>
  <speed>0.0</speed>
  <fix>3d</fix>
</trkpt>
<trkpt lat="40.0713749" lon="-105.229789">
  <ele>1583.0</ele>
  <time>2026-09-02T20:50:16Z</time>
  <course>0.0</course>
  <speed>0.0</speed>
  <fix>3d</fix>
</trkpt>
<trkpt lat="40.0713749" lon="-105.229789">
  <ele>1583.0</ele>
  <time>2026-09-02T20:50:16Z</time>
  <course>0.0</course>
  <speed>0.0</speed>
  <fix>3d</fix>
</trkpt>
<trkpt lat="40.0713749" lon="-105.229789">
  <ele>1583.0</ele>
  <time>2026-09-02T20:50:16Z</time>
  <course>0.0</course>
  <speed>0.0</speed>
  <fix>3d</fix>
</trkpt>
<trkpt lat="40.0713749" lon="-105.229789">
  <ele>1583.0</ele>
  <time>2026-09-02T20:50:16Z</time>
  <course>0.0</course>
  <speed>0.0</speed>
  <fix>3d</fix>
</trkpt>
<trkpt lat="40.0713749" lon="-105.229789">
  <ele>1583.0</ele>
  <time>2026-09-02T20:50:16Z</time>
  <course>0.0</course>
  <speed>0.0</speed>
  <fix>3d</fix>
</trkpt>
<trkpt lat="40.0713749" lon="-105.229789">
  <ele>1583.0</ele>
  <time>2026-09-02T20:50:16Z</time>
  <course>0.0</course>
  <speed>0.0</speed>
  <fix>3d</fix>
</trkpt>
<trkpt lat="40.0713749" lon="-105.229789">
  <ele>1583.0</ele>
  <time>2026-09-02T20:50:16Z</time>
  <course>0.0</course>
  <speed>0.0</speed>
  <fix>3d</fix>
</trkpt>
<trkpt lat="40.0713749" lon="-105.229789">
  <ele>1583.0</ele>
  <time>2026-09-02T20:50:16Z</time>
  <course>0.0</course>
  <speed>0.0</speed>
  <fix>3d</fix>
</trkpt>
<trkpt lat="40.0713749" lon="-105.229789">
  <ele>1583.0</ele>
  <time>2026-09-02T20:50:16Z</time>
  <course>0.0</course>
  <speed>0.0</speed>
  <fix>3d</fix>
</trkpt>
<trkpt lat="40.0713749" lon="-105.229789">
  <ele>1583.0</ele>
  <time>2026-09-02T20:50:16Z</time>
  <course>0.0</course>
  <speed>0.0</speed>
  <fix>3d</fix>
</trkpt>
<trkpt lat="40.0713749" lon="-105.229789">
  <ele>1583.0</ele>
  <time>2026-09-02T20:50:16Z</time>
  <course>0.0</course>
  <speed>0.0</speed>
  <fix>3d</fix>
</trkpt>
<trkpt lat="40.0713749" lon="-105.229789">
  <ele>1583.0</ele>
  <time>2026-09-02T20:50:16Z</time>
  <course>0.0</course>
  <speed>0.0</speed>
  <fix>3d</fix>
</trkpt>
<trkpt lat="40.0713749" lon="-105.229789">
  <ele>1583.0</ele>
  <time>2026-09-02T20:50:16Z</time>
  <course>0.0</course>
  <speed>0.0</speed>
  <fix>3d</fix>
</trkpt>
<trkpt lat="40.0713749" lon="-105.229789">
  <ele>1583.0</ele>
  <time>2026-09-02T20:50:16Z</time>
  <course>0.0</course>
  <speed>0.0</speed>
  <fix>3d</fix>
</trkpt>
<trkpt lat="40.0713749" lon="-105.229789">
  <ele>1583.0</ele>
  <time>2026-09-02T20:50:16Z</time>
  <course>0.0</course>
  <speed>0.0</speed>
  <fix>3d</fix>
</trkpt>
<trkpt lat="40.0713749" lon="-105.229789">
  <ele>1583.0</ele>
  <time>2026-09-02T20:50:16Z</time>
  <course>0.0</course>
  <speed>0.0</speed>
  <fix>3d</fix>
</trkpt>
<trkpt lat="40.0713749" lon="-105.229789">
  <ele>1583.0</ele>
  <time>2026-09-02T20:50:16Z</time>
  <course>0.0</course>
  <speed>0.0</speed>
  <fix>3d</fix>
</trkpt>
<trkpt lat="40.0713749" lon="-105.229789">
  <ele>1583.0</ele>
  <time>2026-09-02T20:50:16Z</time>
  <course>0.0</course>
  <speed>0.0</speed>
  <fix>3d</fix>
</trkpt>
<trkpt lat="40.0713749" lon="-105.229789">
  <ele>1583.0</ele>
  <time>2026-09-02T20:50:16Z</time>
  <course>0.0</course>
  <speed>0.0</speed>
  <fix>3d</fix>
</trkpt>
<trkpt lat="40.0713749" lon="-105.229789">
  <ele>1583.0</ele>
  <time>2026-09-02T20:50:16Z</time>
  <course>0.0</course>
  <speed>0.0</speed>
  <fix>3d</fix>
</trkpt>
<trkpt lat="40.0713749" lon="-105.229789">
  <ele>1583.0</ele>
  <time>2026-09-02T20:50:16Z</time>
  <course>0.0</course>
  <speed>0.0</speed>
  <fix>3d</fix>
</trkpt>
<trkpt lat="40.0713749" lon="-105.229789">
  <ele>1583.0</ele>
  <time>2026-09-02T20:50:16Z</time>
  <course>0.0</course>
  <speed>0.0</speed>
  <fix>3d</fix>
</trkpt>
<trkpt lat="40.0713749" lon="-105.229789">
  <ele>1583.0</ele>
  <time>2026-09-02T20:50:16Z</time>
  <course>0.0</course>
  <speed>0.0</speed>
  <fix>3d</fix>
</trkpt>
<trkpt lat="40.0713749" lon="-105.229789">
  <ele>1583.0</ele>
  <time>2026-09-02T20:50:16Z</time>
  <course>0.0</course>
  <speed>0.0</speed>
  <fix>3d</fix>
</trkpt>
<trkpt lat="40.0713749" lon="-105.229789">
  <ele>1583.0</ele>
  <time>2026-09-02T20:50:16Z</time>
  <course>0.0</course>
  <speed>0.0</speed>
  <fix>3d</fix>
</trkpt>
<trkpt lat="40.0713749" lon="-105.229789">
  <ele>1583.0</ele>
  <time>2026-09-02T20:50:16Z</time>
  <course>0.0</course>
  <speed>0.0</speed>
  <fix>3d</fix>
</trkpt>
<trkpt lat="40.0713749" lon="-105.229789">
  <ele>1583.0</ele>
  <time>2026-09-02T20:50:16Z</time>
  <course>0.0</course>
  <speed>0.0</speed>
  <fix>3d</fix>
</trkpt>
<trkpt lat="40.0713749" lon="-105.229789">
  <ele>1583.0</ele>
  <time>2026-09-02T20:50:16Z</time>
  <course>0.0</course>
  <speed>0.0</speed>
  <fix>3d</fix>
</trkpt>
<trkpt lat="40.0713749" lon="-105.229789">
  <ele>1583.0</ele>
  <time>2026-09-02T20:50:16Z</time>
  <course>0.0</course>
  <speed>0.0</speed>
  <fix>3d</fix>
</trkpt>
<trkpt lat="40.0713749" lon="-105.229789">
  <ele>1583.0</ele>
  <time>2026-09-02T20:50:16Z</time>
  <course>0.0</course>
  <speed>0.0</speed>
  <fix>3d</fix>
</trkpt>
<trkpt lat="40.0713749" lon="-105.229789">
  <ele>1583.0</ele>
  <time>2026-09-02T20:50:16Z</time>
  <course>0.0</course>
  <speed>0.0</speed>
  <fix>3d</fix>
</trkpt>
<trkpt lat="40.0713749" lon="-105.229789">
  <ele>1583.0</ele>
  <time>2026-09-02T20:50:16Z</time>
  <course>0.0</course>
  <speed>0.0</speed>
  <fix>3d</fix>
</trkpt>
<trkpt lat="40.0713749" lon="-105.229789">
  <ele>1583.0</ele>
  <time>2026-09-02T20:50:16Z</time>
  <course>0.0</course>
  <speed>0.0</speed>
  <fix>3d</fix>
</trkpt>
<trkpt lat="40.0713749" lon="-105.229789">
  <ele>1583.0</ele>
  <time>2026-09-02T20:50:16Z</time>
  <course>0.0</course>
  <speed>0.0</speed>
  <fix>3d</fix>
</trkpt>
<trkpt lat="40.0713749" lon="-105.229789">
  <ele>1583.0</ele>
  <time>2026-09-02T20:50:16Z</time>
  <course>0.0</course>
  <speed>0.0</speed>
  <fix>3d</fix>
</trkpt>
<trkpt lat="40.0713749" lon="-105.229789">
  <ele>1583.0</ele>
  <time>2026-09-02T20:50:16Z</time>
  <course>0.0</course>
  <speed>0.0</speed>
  <fix>3d</fix>
</trkpt>
<trkpt lat="40.0713749" lon="-105.229789">
  <ele>1583.0</ele>
  <time>2026-09-02T20:50:16Z</time>
  <course>0.0</course>
  <speed>0.0</speed>
  <fix>3d</fix>
</trkpt>
<trkpt lat="40.0713749" lon="-105.229789">
  <ele>1583.0</ele>
  <time>2026-09-02T20:50:17Z</time>
  <course>0.0</course>
  <speed>0.0</speed>
  <fix>3d</fix>
</trkpt>
<trkpt lat="40.0713749" lon="-105.229789">
  <ele>1583.0</ele>
  <time>2026-09-02T20:50:17Z</time>
  <course>0.0</course>
  <speed>0.0</speed>
  <fix>3d</fix>
</trkpt>
<trkpt lat="40.0713749" lon="-105.229789">
  <ele>1583.0</ele>
  <time>2026-09-02T20:50:17Z</time>
  <course>0.0</course>
  <speed>0.0</speed>
  <fix>3d</fix>
</trkpt>
<trkpt lat="40.0713749" lon="-105.229789">
  <ele>1583.0</ele>
  <time>2026-09-02T20:50:17Z</time>
  <course>0.0</course>
  <speed>0.0</speed>
  <fix>3d</fix>
</trkpt>
<trkpt lat="40.0713749" lon="-105.229789">
  <ele>1583.0</ele>
  <time>2026-09-02T20:50:17Z</time>
  <course>0.0</course>
  <speed>0.0</speed>
  <fix>3d</fix>
</trkpt>
<trkpt lat="40.0713749" lon="-105.229789">
  <ele>1583.0</ele>
  <time>2026-09-02T20:50:17Z</time>
  <course>0.0</course>
  <speed>0.0</speed>
  <fix>3d</fix>
</trkpt>
<trkpt lat="40.0713749" lon="-105.229789">
  <ele>1583.0</ele>
  <time>2026-09-02T20:50:17Z</time>
  <course>0.0</course>
  <speed>0.0</speed>
  <fix>3d</fix>
</trkpt>
<trkpt lat="40.0713749" lon="-105.229789">
  <ele>1583.0</ele>
  <time>2026-09-02T20:50:17Z</time>
  <course>0.0</course>
  <speed>0.0</speed>
  <fix>3d</fix>
</trkpt>
<trkpt lat="40.0713749" lon="-105.229789">
  <ele>1583.0</ele>
  <time>2026-09-02T20:50:17Z</time>
  <course>0.0</course>
  <speed>0.0</speed>
  <fix>3d</fix>
</trkpt>
<trkpt lat="40.0713749" lon="-105.229789">
  <ele>1583.0</ele>
  <time>2026-09-02T20:50:17Z</time>
  <course>0.0</course>
  <speed>0.0</speed>
  <fix>3d</fix>
</trkpt>
<trkpt lat="40.0713749" lon="-105.229789">
  <ele>1583.0</ele>
  <time>2026-09-02T20:50:17Z</time>
  <course>0.0</course>
  <speed>0.0</speed>
  <fix>3d</fix>
</trkpt>
<trkpt lat="40.0713749" lon="-105.229789">
  <ele>1583.0</ele>
  <time>2026-09-02T20:50:17Z</time>
  <course>0.0</course>
  <speed>0.0</speed>
  <fix>3d</fix>
</trkpt>
<trkpt lat="40.0713749" lon="-105.229789">
  <ele>1583.0</ele>
  <time>2026-09-02T20:50:17Z</time>
  <course>0.0</course>
  <speed>0.0</speed>
  <fix>3d</fix>
</trkpt>
<trkpt lat="40.0713749" lon="-105.229789">
  <ele>1583.0</ele>
  <time>2026-09-02T20:50:17Z</time>
  <course>0.0</course>
  <speed>0.0</speed>
  <fix>3d</fix>
</trkpt>
<trkpt lat="40.0713749" lon="-105.229789">
  <ele>1583.0</ele>
  <time>2026-09-02T20:50:17Z</time>
  <course>0.0</course>
  <speed>0.0</speed>
  <fix>3d</fix>
</trkpt>
<trkpt lat="40.0713749" lon="-105.229789">
  <ele>1583.0</ele>
  <time>2026-09-02T20:50:17Z</time>
  <course>0.0</course>
  <speed>0.0</speed>
  <fix>3d</fix>
</trkpt>
<trkpt lat="40.0713749" lon="-105.229789">
  <ele>1583.0</ele>
  <time>2026-09-02T20:50:17Z</time>
  <course>0.0</course>
  <speed>0.0</speed>
  <fix>3d</fix>
</trkpt>
<trkpt lat="40.0713749" lon="-105.229789">
  <ele>1583.0</ele>
  <time>2026-09-02T20:50:17Z</time>
  <course>0.0</course>
  <speed>0.0</speed>
  <fix>3d</fix>
</trkpt>
<trkpt lat="40.0713749" lon="-105.229789">
  <ele>1583.0</ele>
  <time>2026-09-02T20:50:17Z</time>
  <course>0.0</course>
  <speed>0.0</speed>
  <fix>3d</fix>
</trkpt>
<trkpt lat="40.0713749" lon="-105.229789">
  <ele>1583.0</ele>
  <time>2026-09-02T20:50:17Z</time>
  <course>0.0</course>
  <speed>0.0</speed>
  <fix>3d</fix>
</trkpt>
<trkpt lat="40.0713749" lon="-105.229789">
  <ele>1583.0</ele>
  <time>2026-09-02T20:50:17Z</time>
  <course>0.0</course>
  <speed>0.0</speed>
  <fix>3d</fix>
</trkpt>
<trkpt lat="40.0713749" lon="-105.229789">
  <ele>1583.0</ele>
  <time>2026-09-02T20:50:17Z</time>
  <course>0.0</course>
  <speed>0.0</speed>
  <fix>3d</fix>
</trkpt>
<trkpt lat="40.0713749" lon="-105.229789">
  <ele>1583.0</ele>
  <time>2026-09-02T20:50:17Z</time>
  <course>0.0</course>
  <speed>0.0</speed>
  <fix>3d</fix>
</trkpt>
<trkpt lat="40.0713749" lon="-105.229789">
  <ele>1583.0</ele>
  <time>2026-09-02T20:50:17Z</time>
  <course>0.0</course>
  <speed>0.0</speed>
  <fix>3d</fix>
</trkpt>
<trkpt lat="40.0713749" lon="-105.229789">
  <ele>1583.0</ele>
  <time>2026-09-02T20:50:17Z</time>
  <course>0.0</course>
  <speed>0.0</speed>
  <fix>3d</fix>
</trkpt>
<trkpt lat="40.0713749" lon="-105.229789">
  <ele>1583.0</ele>
  <time>2026-09-02T20:50:17Z</time>
  <course>0.0</course>
  <speed>0.0</speed>
  <fix>3d</fix>
</trkpt>
<trkpt lat="40.0713749" lon="-105.229789">
  <ele>1583.0</ele>
  <time>2026-09-02T20:50:17Z</time>
  <course>0.0</course>
  <speed>0.0</speed>
  <fix>3d</fix>
</trkpt>
<trkpt lat="40.0713749" lon="-105.229789">
  <ele>1583.0</ele>
  <time>2026-09-02T20:50:17Z</time>
  <course>0.0</course>
  <speed>0.0</speed>
  <fix>3d</fix>
</trkpt>
<trkpt lat="40.0713749" lon="-105.229789">
  <ele>1583.0</ele>
  <time>2026-09-02T20:50:17Z</time>
  <course>0.0</course>
  <speed>0.0</speed>
  <fix>3d</fix>
</trkpt>
<trkpt lat="40.0713749" lon="-105.229789">
  <ele>1583.0</ele>
  <time>2026-09-02T20:50:17Z</time>
  <course>0.0</course>
  <speed>0.0</speed>
  <fix>3d</fix>
</trkpt>
<trkpt lat="40.0713749" lon="-105.229789">
  <ele>1583.0</ele>
  <time>2026-09-02T20:50:17Z</time>
  <course>0.0</course>
  <speed>0.0</speed>
  <fix>3d</fix>
</trkpt>
<trkpt lat="40.0713749" lon="-105.229789">
  <ele>1583.0</ele>
  <time>2026-09-02T20:50:17Z</time>
  <course>0.0</course>
  <speed>0.0</speed>
  <fix>3d</fix>
</trkpt>
<trkpt lat="40.0713749" lon="-105.229789">
  <ele>1583.0</ele>
  <time>2026-09-02T20:50:17Z</time>
  <course>0.0</course>
  <speed>0.0</speed>
  <fix>3d</fix>
</trkpt>
<trkpt lat="40.0713749" lon="-105.229789">
  <ele>1583.0</ele>
  <time>2026-09-02T20:50:17Z</time>
  <course>0.0</course>
  <speed>0.0</speed>
  <fix>3d</fix>
</trkpt>
<trkpt lat="40.0713749" lon="-105.229789">
  <ele>1583.0</ele>
  <time>2026-09-02T20:50:17Z</time>
  <course>0.0</course>
  <speed>0.0</speed>
  <fix>3d</fix>
</trkpt>
<trkpt lat="40.0713749" lon="-105.229789">
  <ele>1583.0</ele>
  <time>2026-09-02T20:50:17Z</time>
  <course>0.0</course>
  <speed>0.0</speed>
  <fix>3d</fix>
</trkpt>
<trkpt lat="40.0713749" lon="-105.229789">
  <ele>1583.0</ele>
  <time>2026-09-02T20:50:17Z</time>
  <course>0.0</course>
  <speed>0.0</speed>
  <fix>3d</fix>
</trkpt>
<trkpt lat="40.0713749" lon="-105.229789">
  <ele>1583.0</ele>
  <time>2026-09-02T20:50:17Z</time>
  <course>0.0</course>
  <speed>0.0</speed>
  <fix>3d</fix>
</trkpt>
<trkpt lat="40.0713749" lon="-105.229789">
  <ele>1583.0</ele>
  <time>2026-09-02T20:50:17Z</time>
  <course>0.0</course>
  <speed>0.0</speed>
  <fix>3d</fix>
</trkpt>
<trkpt lat="40.0713749" lon="-105.229789">
  <ele>1583.0</ele>
  <time>2026-09-02T20:50:17Z</time>
  <course>0.0</course>
  <speed>0.0</speed>
  <fix>3d</fix>
</trkpt>
<trkpt lat="40.0713749" lon="-105.229789">
  <ele>1583.0</ele>
  <time>2026-09-02T20:50:17Z</time>
  <course>0.0</course>
  <speed>0.0</speed>
  <fix>3d</fix>
</trkpt>
<trkpt lat="40.0713749" lon="-105.229789">
  <ele>1583.0</ele>
  <time>2026-09-02T20:50:17Z</time>
  <course>0.0</course>
  <speed>0.0</speed>
  <fix>3d</fix>
</trkpt>
<trkpt lat="40.0713749" lon="-105.229789">
  <ele>1583.0</ele>
  <time>2026-09-02T20:50:17Z</time>
  <course>0.0</course>
  <speed>0.0</speed>
  <fix>3d</fix>
</trkpt>
<trkpt lat="40.0713749" lon="-105.229789">
  <ele>1583.0</ele>
  <time>2026-09-02T20:50:17Z</time>
  <course>0.0</course>
  <speed>0.0</speed>
  <fix>3d</fix>
</trkpt>
<trkpt lat="40.0713749" lon="-105.229789">
  <ele>1583.0</ele>
  <time>2026-09-02T20:50:17Z</time>
  <course>0.0</course>
  <speed>0.0</speed>
  <fix>3d</fix>
</trkpt>
<trkpt lat="40.0713749" lon="-105.229789">
  <ele>1583.0</ele>
  <time>2026-09-02T20:50:17Z</time>
  <course>0.0</course>
  <speed>0.0</speed>
  <fix>3d</fix>
</trkpt>
<trkpt lat="40.0713749" lon="-105.229789">
  <ele>1583.0</ele>
  <time>2026-09-02T20:50:17Z</time>
  <course>0.0</course>
  <speed>0.0</speed>
  <fix>3d</fix>
</trkpt>
<trkpt lat="40.0713749" lon="-105.229789">
  <ele>1583.0</ele>
  <time>2026-09-02T20:50:17Z</time>
  <course>0.0</course>
  <speed>0.0</speed>
  <fix>3d</fix>
</trkpt>
<trkpt lat="40.0713749" lon="-105.229789">
  <ele>1583.0</ele>
  <time>2026-09-02T20:50:17Z</time>
  <course>0.0</course>
  <speed>0.0</speed>
  <fix>3d</fix>
</trkpt>
<trkpt lat="40.0713749" lon="-105.229789">
  <ele>1583.0</ele>
  <time>2026-09-02T20:50:17Z</time>
  <course>0.0</course>
  <speed>0.0</speed>
  <fix>3d</fix>
</trkpt>
<trkpt lat="40.0713749" lon="-105.229789">
  <ele>1583.0</ele>
  <time>2026-09-02T20:50:17Z</time>
  <course>0.0</course>
  <speed>0.0</speed>
  <fix>3d</fix>
</trkpt>
<trkpt lat="40.0713749" lon="-105.229789">
  <ele>1583.0</ele>
  <time>2026-09-02T20:50:17Z</time>
  <course>0.0</course>
  <speed>0.0</speed>
  <fix>3d</fix>
</trkpt>
<trkpt lat="40.0713749" lon="-105.229789">
  <ele>1583.0</ele>
  <time>2026-09-02T20:50:17Z</time>
  <course>0.0</course>
  <speed>0.0</speed>
  <fix>3d</fix>
</trkpt>
<trkpt lat="40.0713749" lon="-105.229789">
  <ele>1583.0</ele>
  <time>2026-09-02T20:50:17Z</time>
  <course>0.0</course>
  <speed>0.0</speed>
  <fix>3d</fix>
</trkpt>
<trkpt lat="40.0713749" lon="-105.229789">
  <ele>1583.0</ele>
  <time>2026-09-02T20:50:17Z</time>
  <course>0.0</course>
  <speed>0.0</speed>
  <fix>3d</fix>
</trkpt>
<trkpt lat="40.0713749" lon="-105.229789">
  <ele>1583.0</ele>
  <time>2026-09-02T20:50:17Z</time>
  <course>0.0</course>
  <speed>0.0</speed>
  <fix>3d</fix>
</trkpt>
<trkpt lat="40.0713749" lon="-105.229789">
  <ele>1583.0</ele>
  <time>2026-09-02T20:50:17Z</time>
  <course>0.0</course>
  <speed>0.0</speed>
  <fix>3d</fix>
</trkpt>
<trkpt lat="40.0713749" lon="-105.229789">
  <ele>1583.0</ele>
  <time>2026-09-02T20:50:17Z</time>
  <course>0.0</course>
  <speed>0.0</speed>
  <fix>3d</fix>
</trkpt>
<trkpt lat="40.0713749" lon="-105.229789">
  <ele>1583.0</ele>
  <time>2026-09-02T20:50:17Z</time>
  <course>0.0</course>
  <speed>0.0</speed>
  <fix>3d</fix>
</trkpt>
<trkpt lat="40.0713749" lon="-105.229789">
  <ele>1583.0</ele>
  <time>2026-09-02T20:50:17Z</time>
  <course>0.0</course>
  <speed>0.0</speed>
  <fix>3d</fix>
</trkpt>
<trkpt lat="40.0713749" lon="-105.229789">
  <ele>1583.0</ele>
  <time>2026-09-02T20:50:17Z</time>
  <course>0.0</course>
  <speed>0.0</speed>
  <fix>3d</fix>
</trkpt>
<trkpt lat="40.0713749" lon="-105.229789">
  <ele>1583.0</ele>
  <time>2026-09-02T20:50:17Z</time>
  <course>0.0</course>
  <speed>0.0</speed>
  <fix>3d</fix>
</trkpt>
<trkpt lat="40.0713749" lon="-105.229789">
  <ele>1583.0</ele>
  <time>2026-09-02T20:50:17Z</time>
  <course>0.0</course>
  <speed>0.0</speed>
  <fix>3d</fix>
</trkpt>
<trkpt lat="40.0713749" lon="-105.229789">
  <ele>1583.0</ele>
  <time>2026-09-02T20:50:17Z</time>
  <course>0.0</course>
  <speed>0.0</speed>
  <fix>3d</fix>
</trkpt>
<trkpt lat="40.0713749" lon="-105.229789">
  <ele>1583.0</ele>
  <time>2026-09-02T20:50:17Z</time>
  <course>0.0</course>
  <speed>0.0</speed>
  <fix>3d</fix>
</trkpt>
<trkpt lat="40.0713749" lon="-105.229789">
  <ele>1583.0</ele>
  <time>2026-09-02T20:50:17Z</time>
  <course>0.0</course>
  <speed>0.0</speed>
  <fix>3d</fix>
</trkpt>
<trkpt lat="40.0713749" lon="-105.229789">
  <ele>1583.0</ele>
  <time>2026-09-02T20:50:17Z</time>
  <course>0.0</course>
  <speed>0.0</speed>
  <fix>3d</fix>
</trkpt>
<trkpt lat="40.0713749" lon="-105.229789">
  <ele>1583.0</ele>
  <time>2026-09-02T20:50:17Z</time>
  <course>0.0</course>
  <speed>0.0</speed>
  <fix>3d</fix>
</trkpt>
<trkpt lat="40.0713749" lon="-105.229789">
  <ele>1583.0</ele>
  <time>2026-09-02T20:50:17Z</time>
  <course>0.0</course>
  <speed>0.0</speed>
  <fix>3d</fix>
</trkpt>
<trkpt lat="40.0713749" lon="-105.229789">
  <ele>1583.0</ele>
  <time>2026-09-02T20:50:17Z</time>
  <course>0.0</course>
  <speed>0.0</speed>
  <fix>3d</fix>
</trkpt>
<trkpt lat="40.0713749" lon="-105.229789">
  <ele>1583.0</ele>
  <time>2026-09-02T20:50:17Z</time>
  <course>0.0</course>
  <speed>0.0</speed>
  <fix>3d</fix>
</trkpt>
<trkpt lat="40.0713749" lon="-105.229789">
  <ele>1583.0</ele>
  <time>2026-09-02T20:50:17Z</time>
  <course>0.0</course>
  <speed>0.0</speed>
  <fix>3d</fix>
</trkpt>
<trkpt lat="40.0713749" lon="-105.229789">
  <ele>1583.0</ele>
  <time>2026-09-02T20:50:17Z</time>
  <course>0.0</course>
  <speed>0.0</speed>
  <fix>3d</fix>
</trkpt>
<trkpt lat="40.0713749" lon="-105.229789">
  <ele>1583.0</ele>
  <time>2026-09-02T20:50:17Z</time>
  <course>0.0</course>
  <speed>0.0</speed>
  <fix>3d</fix>
</trkpt>
<trkpt lat="40.0713749" lon="-105.229789">
  <ele>1583.0</ele>
  <time>2026-09-02T20:50:17Z</time>
  <course>0.0</course>
  <speed>0.0</speed>
  <fix>3d</fix>
</trkpt>
<trkpt lat="40.0713749" lon="-105.229789">
  <ele>1583.0</ele>
  <time>2026-09-02T20:50:17Z</time>
  <course>0.0</course>
  <speed>0.0</speed>
  <fix>3d</fix>
</trkpt>
<trkpt lat="40.0713749" lon="-105.229789">
  <ele>1583.0</ele>
  <time>2026-09-02T20:50:17Z</time>
  <course>0.0</course>
  <speed>0.0</speed>
  <fix>3d</fix>
</trkpt>
<trkpt lat="40.0713749" lon="-105.229789">
  <ele>1583.0</ele>
  <time>2026-09-02T20:50:17Z</time>
  <course>0.0</course>
  <speed>0.0</speed>
  <fix>3d</fix>
</trkpt>
<trkpt lat="40.0713749" lon="-105.229789">
  <ele>1583.0</ele>
  <time>2026-09-02T20:50:17Z</time>
  <course>0.0</course>
  <speed>0.0</speed>
  <fix>3d</fix>
</trkpt>
<trkpt lat="40.0713749" lon="-105.229789">
  <ele>1583.0</ele>
  <time>2026-09-02T20:50:17Z</time>
  <course>0.0</course>
  <speed>0.0</speed>
  <fix>3d</fix>
</trkpt>
<trkpt lat="40.0713749" lon="-105.229789">
  <ele>1583.0</ele>
  <time>2026-09-02T20:50:17Z</time>
  <course>0.0</course>
  <speed>0.0</speed>
  <fix>3d</fix>
</trkpt>
<trkpt lat="40.0713749" lon="-105.229789">
  <ele>1583.0</ele>
  <time>2026-09-02T20:50:17Z</time>
  <course>0.0</course>
  <speed>0.0</speed>
  <fix>3d</fix>
</trkpt>
<trkpt lat="40.0713749" lon="-105.229789">
  <ele>1583.0</ele>
  <time>2026-09-02T20:50:17Z</time>
  <course>0.0</course>
  <speed>0.0</speed>
  <fix>3d</fix>
</trkpt>
<trkpt lat="40.0713749" lon="-105.229789">
  <ele>1583.0</ele>
  <time>2026-09-02T20:50:17Z</time>
  <course>0.0</course>
  <speed>0.0</speed>
  <fix>3d</fix>
</trkpt>
<trkpt lat="40.0713749" lon="-105.229789">
  <ele>1583.0</ele>
  <time>2026-09-02T20:50:17Z</time>
  <course>0.0</course>
  <speed>0.0</speed>
  <fix>3d</fix>
</trkpt>
<trkpt lat="40.0713749" lon="-105.229789">
  <ele>1583.0</ele>
  <time>2026-09-02T20:50:17Z</time>
  <course>0.0</course>
  <speed>0.0</speed>
  <fix>3d</fix>
</trkpt>
<trkpt lat="40.0713749" lon="-105.229789">
  <ele>1583.0</ele>
  <time>2026-09-02T20:50:17Z</time>
  <course>0.0</course>
  <speed>0.0</speed>
  <fix>3d</fix>
</trkpt>
<trkpt lat="40.0713749" lon="-105.229789">
  <ele>1583.0</ele>
  <time>2026-09-02T20:50:17Z</time>
  <course>0.0</course>
  <speed>0.0</speed>
  <fix>3d</fix>
</trkpt>
<trkpt lat="40.0713749" lon="-105.229789">
  <ele>1583.0</ele>
  <time>2026-09-02T20:50:17Z</time>
  <course>0.0</course>
  <speed>0.0</speed>
  <fix>3d</fix>
</trkpt>
<trkpt lat="40.0713749" lon="-105.229789">
  <ele>1583.0</ele>
  <time>2026-09-02T20:50:17Z</time>
  <course>0.0</course>
  <speed>0.0</speed>
  <fix>3d</fix>
</trkpt>
<trkpt lat="40.0713749" lon="-105.229789">
  <ele>1583.0</ele>
  <time>2026-09-02T20:50:17Z</time>
  <course>0.0</course>
  <speed>0.0</speed>
  <fix>3d</fix>
</trkpt>
<trkpt lat="40.0713749" lon="-105.229789">
  <ele>1583.0</ele>
  <time>2026-09-02T20:50:17Z</time>
  <course>0.0</course>
  <speed>0.0</speed>
  <fix>3d</fix>
</trkpt>
<trkpt lat="40.0713749" lon="-105.229789">
  <ele>1583.0</ele>
  <time>2026-09-02T20:50:17Z</time>
  <course>0.0</course>
  <speed>0.0</speed>
  <fix>3d</fix>
</trkpt>
<trkpt lat="40.0713749" lon="-105.229789">
  <ele>1583.0</ele>
  <time>2026-09-02T20:50:17Z</time>
  <course>0.0</course>
  <speed>0.0</speed>
  <fix>3d</fix>
</trkpt>
<trkpt lat="40.0713749" lon="-105.229789">
  <ele>1583.0</ele>
  <time>2026-09-02T20:50:17Z</time>
  <course>0.0</course>
  <speed>0.0</speed>
  <fix>3d</fix>
</trkpt>
<trkpt lat="40.0713749" lon="-105.229789">
  <ele>1583.0</ele>
  <time>2026-09-02T20:50:17Z</time>
  <course>0.0</course>
  <speed>0.0</speed>
  <fix>3d</fix>
</trkpt>
<trkpt lat="40.0713749" lon="-105.229789">
  <ele>1583.0</ele>
  <time>2026-09-02T20:50:17Z</time>
  <course>0.0</course>
  <speed>0.0</speed>
  <fix>3d</fix>
</trkpt>
<trkpt lat="40.0713749" lon="-105.229789">
  <ele>1583.0</ele>
  <time>2026-09-02T20:50:17Z</time>
  <course>0.0</course>
  <speed>0.0</speed>
  <fix>3d</fix>
</trkpt>
<trkpt lat="40.0713749" lon="-105.229789">
  <ele>1583.0</ele>
  <time>2026-09-02T20:50:17Z</time>
  <course>0.0</course>
  <speed>0.0</speed>
  <fix>3d</fix>
</trkpt>
<trkpt lat="40.0713749" lon="-105.229789">
  <ele>1583.0</ele>
  <time>2026-09-02T20:50:17Z</time>
  <course>0.0</course>
  <speed>0.0</speed>
  <fix>3d</fix>
</trkpt>
<trkpt lat="40.0713749" lon="-105.229789">
  <ele>1583.0</ele>
  <time>2026-09-02T20:50:17Z</time>
  <course>0.0</course>
  <speed>0.0</speed>
  <fix>3d</fix>
</trkpt>
<trkpt lat="40.0713749" lon="-105.229789">
  <ele>1583.0</ele>
  <time>2026-09-02T20:50:17Z</time>
  <course>0.0</course>
  <speed>0.0</speed>
  <fix>3d</fix>
</trkpt>
<trkpt lat="40.0713749" lon="-105.229789">
  <ele>1583.0</ele>
  <time>2026-09-02T20:50:17Z</time>
  <course>0.0</course>
  <speed>0.0</speed>
  <fix>3d</fix>
</trkpt>
<trkpt lat="40.0713749" lon="-105.229789">
  <ele>1583.0</ele>
  <time>2026-09-02T20:50:17Z</time>
  <course>0.0</course>
  <speed>0.0</speed>
  <fix>3d</fix>
</trkpt>
<trkpt lat="40.0713749" lon="-105.229789">
  <ele>1583.0</ele>
  <time>2026-09-02T20:50:17Z</time>
  <course>0.0</course>
  <speed>0.0</speed>
  <fix>3d</fix>
</trkpt>
<trkpt lat="40.0713749" lon="-105.229789">
  <ele>1583.0</ele>
  <time>2026-09-02T20:50:17Z</time>
  <course>0.0</course>
  <speed>0.0</speed>
  <fix>3d</fix>
</trkpt>
<trkpt lat="40.0713749" lon="-105.229789">
  <ele>1583.0</ele>
  <time>2026-09-02T20:50:17Z</time>
  <course>0.0</course>
  <speed>0.0</speed>
  <fix>3d</fix>
</trkpt>
<trkpt lat="40.0713749" lon="-105.229789">
  <ele>1583.0</ele>
  <time>2026-09-02T20:50:17Z</time>
  <course>0.0</course>
  <speed>0.0</speed>
  <fix>3d</fix>
</trkpt>
<trkpt lat="40.0713749" lon="-105.229789">
  <ele>1583.0</ele>
  <time>2026-09-02T20:50:17Z</time>
  <course>0.0</course>
  <speed>0.0</speed>
  <fix>3d</fix>
</trkpt>
<trkpt lat="40.0713749" lon="-105.229789">
  <ele>1583.0</ele>
  <time>2026-09-02T20:50:17Z</time>
  <course>0.0</course>
  <speed>0.0</speed>
  <fix>3d</fix>
</trkpt>
<trkpt lat="40.0713749" lon="-105.229789">
  <ele>1583.0</ele>
  <time>2026-09-02T20:50:17Z</time>
  <course>0.0</course>
  <speed>0.0</speed>
  <fix>3d</fix>
</trkpt>
<trkpt lat="40.0713749" lon="-105.229789">
  <ele>1583.0</ele>
  <time>2026-09-02T20:50:17Z</time>
  <course>0.0</course>
  <speed>0.0</speed>
  <fix>3d</fix>
</trkpt>
<trkpt lat="40.0713749" lon="-105.229789">
  <ele>1583.0</ele>
  <time>2026-09-02T20:50:17Z</time>
  <course>0.0</course>
  <speed>0.0</speed>
  <fix>3d</fix>
</trkpt>
<trkpt lat="40.0713749" lon="-105.229789">
  <ele>1583.0</ele>
  <time>2026-09-02T20:50:17Z</time>
  <course>0.0</course>
  <speed>0.0</speed>
  <fix>3d</fix>
</trkpt>
<trkpt lat="40.0713749" lon="-105.229789">
  <ele>1583.0</ele>
  <time>2026-09-02T20:50:17Z</time>
  <course>0.0</course>
  <speed>0.0</speed>
  <fix>3d</fix>
</trkpt>
<trkpt lat="40.0713749" lon="-105.229789">
  <ele>1583.0</ele>
  <time>2026-09-02T20:50:17Z</time>
  <course>0.0</course>
  <speed>0.0</speed>
  <fix>3d</fix>
</trkpt>
<trkpt lat="40.0713749" lon="-105.229789">
  <ele>1583.0</ele>
  <time>2026-09-02T20:50:17Z</time>
  <course>0.0</course>
  <speed>0.0</speed>
  <fix>3d</fix>
</trkpt>
<trkpt lat="40.0713749" lon="-105.229789">
  <ele>1583.0</ele>
  <time>2026-09-02T20:50:17Z</time>
  <course>0.0</course>
  <speed>0.0</speed>
  <fix>3d</fix>
</trkpt>
<trkpt lat="40.0713749" lon="-105.229789">
  <ele>1583.0</ele>
  <time>2026-09-02T20:50:17Z</time>
  <course>0.0</course>
  <speed>0.0</speed>
  <fix>3d</fix>
</trkpt>
<trkpt lat="40.0713749" lon="-105.229789">
  <ele>1583.0</ele>
  <time>2026-09-02T20:50:17Z</time>
  <course>0.0</course>
  <speed>0.0</speed>
  <fix>3d</fix>
</trkpt>
<trkpt lat="40.0713749" lon="-105.229789">
  <ele>1583.0</ele>
  <time>2026-09-02T20:50:17Z</time>
  <course>0.0</course>
  <speed>0.0</speed>
  <fix>3d</fix>
</trkpt>
<trkpt lat="40.0713749" lon="-105.229789">
  <ele>1583.0</ele>
  <time>2026-09-02T20:50:17Z</time>
  <course>0.0</course>
  <speed>0.0</speed>
  <fix>3d</fix>
</trkpt>
<trkpt lat="40.0713749" lon="-105.229789">
  <ele>1583.0</ele>
  <time>2026-09-02T20:50:17Z</time>
  <course>0.0</course>
  <speed>0.0</speed>
  <fix>3d</fix>
</trkpt>
<trkpt lat="40.0713749" lon="-105.229789">
  <ele>1583.0</ele>
  <time>2026-09-02T20:50:17Z</time>
  <course>0.0</course>
  <speed>0.0</speed>
  <fix>3d</fix>
</trkpt>
<trkpt lat="40.0713749" lon="-105.229789">
  <ele>1583.0</ele>
  <time>2026-09-02T20:50:17Z</time>
  <course>0.0</course>
  <speed>0.0</speed>
  <fix>3d</fix>
</trkpt>
<trkpt lat="40.0713749" lon="-105.229789">
  <ele>1583.0</ele>
  <time>2026-09-02T20:50:17Z</time>
  <course>0.0</course>
  <speed>0.0</speed>
  <fix>3d</fix>
</trkpt>
<trkpt lat="40.0713749" lon="-105.229789">
  <ele>1583.0</ele>
  <time>2026-09-02T20:50:17Z</time>
  <course>0.0</course>
  <speed>0.0</speed>
  <fix>3d</fix>
</trkpt>
<trkpt lat="40.0713749" lon="-105.229789">
  <ele>1583.0</ele>
  <time>2026-09-02T20:50:17Z</time>
  <course>0.0</course>
  <speed>0.0</speed>
  <fix>3d</fix>
</trkpt>
<trkpt lat="40.0713749" lon="-105.229789">
  <ele>1583.0</ele>
  <time>2026-09-02T20:50:17Z</time>
  <course>0.0</course>
  <speed>0.0</speed>
  <fix>3d</fix>
</trkpt>
<trkpt lat="40.0713749" lon="-105.229789">
  <ele>1583.0</ele>
  <time>2026-09-02T20:50:17Z</time>
  <course>0.0</course>
  <speed>0.0</speed>
  <fix>3d</fix>
</trkpt>
<trkpt lat="40.0713749" lon="-105.229789">
  <ele>1583.0</ele>
  <time>2026-09-02T20:50:17Z</time>
  <course>0.0</course>
  <speed>0.0</speed>
  <fix>3d</fix>
</trkpt>
<trkpt lat="40.0713749" lon="-105.229789">
  <ele>1583.0</ele>
  <time>2026-09-02T20:50:17Z</time>
  <course>0.0</course>
  <speed>0.0</speed>
  <fix>3d</fix>
</trkpt>
<trkpt lat="40.0713749" lon="-105.229789">
  <ele>1583.0</ele>
  <time>2026-09-02T20:50:17Z</time>
  <course>0.0</course>
  <speed>0.0</speed>
  <fix>3d</fix>
</trkpt>
<trkpt lat="40.0713749" lon="-105.229789">
  <ele>1583.0</ele>
  <time>2026-09-02T20:50:17Z</time>
  <course>0.0</course>
  <speed>0.0</speed>
  <fix>3d</fix>
</trkpt>
<trkpt lat="40.0713749" lon="-105.229789">
  <ele>1583.0</ele>
  <time>2026-09-02T20:50:17Z</time>
  <course>0.0</course>
  <speed>0.0</speed>
  <fix>3d</fix>
</trkpt>
<trkpt lat="40.0713749" lon="-105.229789">
  <ele>1583.0</ele>
  <time>2026-09-02T20:50:17Z</time>
  <course>0.0</course>
  <speed>0.0</speed>
  <fix>3d</fix>
</trkpt>
<trkpt lat="40.0713749" lon="-105.229789">
  <ele>1583.0</ele>
  <time>2026-09-02T20:50:17Z</time>
  <course>0.0</course>
  <speed>0.0</speed>
  <fix>3d</fix>
</trkpt>
<trkpt lat="40.0713749" lon="-105.229789">
  <ele>1583.0</ele>
  <time>2026-09-02T20:50:17Z</time>
  <course>0.0</course>
  <speed>0.0</speed>
  <fix>3d</fix>
</trkpt>
<trkpt lat="40.0713749" lon="-105.229789">
  <ele>1583.0</ele>
  <time>2026-09-02T20:50:17Z</time>
  <course>0.0</course>
  <speed>0.0</speed>
  <fix>3d</fix>
</trkpt>
<trkpt lat="40.0713749" lon="-105.229789">
  <ele>1583.0</ele>
  <time>2026-09-02T20:50:17Z</time>
  <course>0.0</course>
  <speed>0.0</speed>
  <fix>3d</fix>
</trkpt>
<trkpt lat="40.0713749" lon="-105.229789">
  <ele>1583.0</ele>
  <time>2026-09-02T20:50:17Z</time>
  <course>0.0</course>
  <speed>0.0</speed>
  <fix>3d</fix>
</trkpt>
<trkpt lat="40.0713749" lon="-105.229789">
  <ele>1583.0</ele>
  <time>2026-09-02T20:50:17Z</time>
  <course>0.0</course>
  <speed>0.0</speed>
  <fix>3d</fix>
</trkpt>
<trkpt lat="40.0713749" lon="-105.229789">
  <ele>1583.0</ele>
  <time>2026-09-02T20:50:17Z</time>
  <course>0.0</course>
  <speed>0.0</speed>
  <fix>3d</fix>
</trkpt>
<trkpt lat="40.0713749" lon="-105.229789">
  <ele>1583.0</ele>
  <time>2026-09-02T20:50:17Z</time>
  <course>0.0</course>
  <speed>0.0</speed>
  <fix>3d</fix>
</trkpt>
<trkpt lat="40.0713749" lon="-105.229789">
  <ele>1583.0</ele>
  <time>2026-09-02T20:50:17Z</time>
  <course>0.0</course>
  <speed>0.0</speed>
  <fix>3d</fix>
</trkpt>
<trkpt lat="40.0713749" lon="-105.229789">
  <ele>1583.0</ele>
  <time>2026-09-02T20:50:17Z</time>
  <course>0.0</course>
  <speed>0.0</speed>
  <fix>3d</fix>
</trkpt>
<trkpt lat="40.0713749" lon="-105.229789">
  <ele>1583.0</ele>
  <time>2026-09-02T20:50:17Z</time>
  <course>0.0</course>
  <speed>0.0</speed>
  <fix>3d</fix>
</trkpt>
<trkpt lat="40.0713749" lon="-105.229789">
  <ele>1583.0</ele>
  <time>2026-09-02T20:50:17Z</time>
  <course>0.0</course>
  <speed>0.0</speed>
  <fix>3d</fix>
</trkpt>
<trkpt lat="40.0713749" lon="-105.229789">
  <ele>1583.0</ele>
  <time>2026-09-02T20:50:17Z</time>
  <course>0.0</course>
  <speed>0.0</speed>
  <fix>3d</fix>
</trkpt>
<trkpt lat="40.0713749" lon="-105.229789">
  <ele>1583.0</ele>
  <time>2026-09-02T20:50:17Z</time>
  <course>0.0</course>
  <speed>0.0</speed>
  <fix>3d</fix>
</trkpt>
<trkpt lat="40.0713749" lon="-105.229789">
  <ele>1583.0</ele>
  <time>2026-09-02T20:50:17Z</time>
  <course>0.0</course>
  <speed>0.0</speed>
  <fix>3d</fix>
</trkpt>
<trkpt lat="40.0713749" lon="-105.229789">
  <ele>1583.0</ele>
  <time>2026-09-02T20:50:17Z</time>
  <course>0.0</course>
  <speed>0.0</speed>
  <fix>3d</fix>
</trkpt>
<trkpt lat="40.0713749" lon="-105.229789">
  <ele>1583.0</ele>
  <time>2026-09-02T20:50:17Z</time>
  <course>0.0</course>
  <speed>0.0</speed>
  <fix>3d</fix>
</trkpt>
<trkpt lat="40.0713749" lon="-105.229789">
  <ele>1583.0</ele>
  <time>2026-09-02T20:50:17Z</time>
  <course>0.0</course>
  <speed>0.0</speed>
  <fix>3d</fix>
</trkpt>
<trkpt lat="40.0713749" lon="-105.229789">
  <ele>1583.0</ele>
  <time>2026-09-02T20:50:17Z</time>
  <course>0.0</course>
  <speed>0.0</speed>
  <fix>3d</fix>
</trkpt>
<trkpt lat="40.0713749" lon="-105.229789">
  <ele>1583.0</ele>
  <time>2026-09-02T20:50:17Z</time>
  <course>0.0</course>
  <speed>0.0</speed>
  <fix>3d</fix>
</trkpt>
<trkpt lat="40.0713749" lon="-105.229789">
  <ele>1583.0</ele>
  <time>2026-09-02T20:50:17Z</time>
  <course>0.0</course>
  <speed>0.0</speed>
  <fix>3d</fix>
</trkpt>
<trkpt lat="40.0713749" lon="-105.229789">
  <ele>1583.0</ele>
  <time>2026-09-02T20:50:17Z</time>
  <course>0.0</course>
  <speed>0.0</speed>
  <fix>3d</fix>
</trkpt>
<trkpt lat="40.0713749" lon="-105.229789">
  <ele>1583.0</ele>
  <time>2026-09-02T20:50:17Z</time>
  <course>0.0</course>
  <speed>0.0</speed>
  <fix>3d</fix>
</trkpt>
<trkpt lat="40.0713749" lon="-105.229789">
  <ele>1583.0</ele>
  <time>2026-09-02T20:50:17Z</time>
  <course>0.0</course>
  <speed>0.0</speed>
  <fix>3d</fix>
</trkpt>
<trkpt lat="40.0713749" lon="-105.229789">
  <ele>1583.0</ele>
  <time>2026-09-02T20:50:17Z</time>
  <course>0.0</course>
  <speed>0.0</speed>
  <fix>3d</fix>
</trkpt>
<trkpt lat="40.0713749" lon="-105.229789">
  <ele>1583.0</ele>
  <time>2026-09-02T20:50:17Z</time>
  <course>0.0</course>
  <speed>0.0</speed>
  <fix>3d</fix>
</trkpt>
<trkpt lat="40.0713749" lon="-105.229789">
  <ele>1583.0</ele>
  <time>2026-09-02T20:50:17Z</time>
  <course>0.0</course>
  <speed>0.0</speed>
  <fix>3d</fix>
</trkpt>
<trkpt lat="40.0713749" lon="-105.229789">
  <ele>1583.0</ele>
  <time>2026-09-02T20:50:17Z</time>
  <course>0.0</course>
  <speed>0.0</speed>
  <fix>3d</fix>
</trkpt>
<trkpt lat="40.0713749" lon="-105.229789">
  <ele>1583.0</ele>
  <time>2026-09-02T20:50:17Z</time>
  <course>0.0</course>
  <speed>0.0</speed>
  <fix>3d</fix>
</trkpt>
<trkpt lat="40.0713749" lon="-105.229789">
  <ele>1583.0</ele>
  <time>2026-09-02T20:50:17Z</time>
  <course>0.0</course>
  <speed>0.0</speed>
  <fix>3d</fix>
</trkpt>
<trkpt lat="40.0713749" lon="-105.229789">
  <ele>1583.0</ele>
  <time>2026-09-02T20:50:17Z</time>
  <course>0.0</course>
  <speed>0.0</speed>
  <fix>3d</fix>
</trkpt>
<trkpt lat="40.0713749" lon="-105.229789">
  <ele>1583.0</ele>
  <time>2026-09-02T20:50:17Z</time>
  <course>0.0</course>
  <speed>0.0</speed>
  <fix>3d</fix>
</trkpt>
<trkpt lat="40.0713749" lon="-105.229789">
  <ele>1583.0</ele>
  <time>2026-09-02T20:50:17Z</time>
  <course>0.0</course>
  <speed>0.0</speed>
  <fix>3d</fix>
</trkpt>
<trkpt lat="40.0713749" lon="-105.229789">
  <ele>1583.0</ele>
  <time>2026-09-02T20:50:17Z</time>
  <course>0.0</course>
  <speed>0.0</speed>
  <fix>3d</fix>
</trkpt>
<trkpt lat="40.0713749" lon="-105.229789">
  <ele>1583.0</ele>
  <time>2026-09-02T20:50:17Z</time>
  <course>0.0</course>
  <speed>0.0</speed>
  <fix>3d</fix>
</trkpt>
<trkpt lat="40.0713749" lon="-105.229789">
  <ele>1583.0</ele>
  <time>2026-09-02T20:50:17Z</time>
  <course>0.0</course>
  <speed>0.0</speed>
  <fix>3d</fix>
</trkpt>
<trkpt lat="40.0713749" lon="-105.229789">
  <ele>1583.0</ele>
  <time>2026-09-02T20:50:17Z</time>
  <course>0.0</course>
  <speed>0.0</speed>
  <fix>3d</fix>
</trkpt>
<trkpt lat="40.0713749" lon="-105.229789">
  <ele>1583.0</ele>
  <time>2026-09-02T20:50:17Z</time>
  <course>0.0</course>
  <speed>0.0</speed>
  <fix>3d</fix>
</trkpt>
<trkpt lat="40.0713749" lon="-105.229789">
  <ele>1583.0</ele>
  <time>2026-09-02T20:50:17Z</time>
  <course>0.0</course>
  <speed>0.0</speed>
  <fix>3d</fix>
</trkpt>
<trkpt lat="40.0713749" lon="-105.229789">
  <ele>1583.0</ele>
  <time>2026-09-02T20:50:17Z</time>
  <course>0.0</course>
  <speed>0.0</speed>
  <fix>3d</fix>
</trkpt>
<trkpt lat="40.0713749" lon="-105.229789">
  <ele>1583.0</ele>
  <time>2026-09-02T20:50:17Z</time>
  <course>0.0</course>
  <speed>0.0</speed>
  <fix>3d</fix>
</trkpt>
<trkpt lat="40.0713749" lon="-105.229789">
  <ele>1583.0</ele>
  <time>2026-09-02T20:50:17Z</time>
  <course>0.0</course>
  <speed>0.0</speed>
  <fix>3d</fix>
</trkpt>
<trkpt lat="40.0713749" lon="-105.229789">
  <ele>1583.0</ele>
  <time>2026-09-02T20:50:17Z</time>
  <course>0.0</course>
  <speed>0.0</speed>
  <fix>3d</fix>
</trkpt>
<trkpt lat="40.0713749" lon="-105.229789">
  <ele>1583.0</ele>
  <time>2026-09-02T20:50:17Z</time>
  <course>0.0</course>
  <speed>0.0</speed>
  <fix>3d</fix>
</trkpt>
<trkpt lat="40.0713749" lon="-105.229789">
  <ele>1583.0</ele>
  <time>2026-09-02T20:50:17Z</time>
  <course>0.0</course>
  <speed>0.0</speed>
  <fix>3d</fix>
</trkpt>
<trkpt lat="40.0713749" lon="-105.229789">
  <ele>1583.0</ele>
  <time>2026-09-02T20:50:17Z</time>
  <course>0.0</course>
  <speed>0.0</speed>
  <fix>3d</fix>
</trkpt>
<trkpt lat="40.0713749" lon="-105.229789">
  <ele>1583.0</ele>
  <time>2026-09-02T20:50:17Z</time>
  <course>0.0</course>
  <speed>0.0</speed>
  <fix>3d</fix>
</trkpt>
<trkpt lat="40.0713749" lon="-105.229789">
  <ele>1583.0</ele>
  <time>2026-09-02T20:50:17Z</time>
  <course>0.0</course>
  <speed>0.0</speed>
  <fix>3d</fix>
</trkpt>
<trkpt lat="40.0713749" lon="-105.229789">
  <ele>1583.0</ele>
  <time>2026-09-02T20:50:17Z</time>
  <course>0.0</course>
  <speed>0.0</speed>
  <fix>3d</fix>
</trkpt>
<trkpt lat="40.0713749" lon="-105.229789">
  <ele>1583.0</ele>
  <time>2026-09-02T20:50:17Z</time>
  <course>0.0</course>
  <speed>0.0</speed>
  <fix>3d</fix>
</trkpt>
<trkpt lat="40.0713749" lon="-105.229789">
  <ele>1583.0</ele>
  <time>2026-09-02T20:50:17Z</time>
  <course>0.0</course>
  <speed>0.0</speed>
  <fix>3d</fix>
</trkpt>
<trkpt lat="40.0713749" lon="-105.229789">
  <ele>1583.0</ele>
  <time>2026-09-02T20:50:17Z</time>
  <course>0.0</course>
  <speed>0.0</speed>
  <fix>3d</fix>
</trkpt>
<trkpt lat="40.0713749" lon="-105.229789">
  <ele>1583.0</ele>
  <time>2026-09-02T20:50:17Z</time>
  <course>0.0</course>
  <speed>0.0</speed>
  <fix>3d</fix>
</trkpt>
<trkpt lat="40.0713749" lon="-105.229789">
  <ele>1583.0</ele>
  <time>2026-09-02T20:50:17Z</time>
  <course>0.0</course>
  <speed>0.0</speed>
  <fix>3d</fix>
</trkpt>
<trkpt lat="40.0713749" lon="-105.229789">
  <ele>1583.0</ele>
  <time>2026-09-02T20:50:17Z</time>
  <course>0.0</course>
  <speed>0.0</speed>
  <fix>3d</fix>
</trkpt>
<trkpt lat="40.0713749" lon="-105.229789">
  <ele>1583.0</ele>
  <time>2026-09-02T20:50:17Z</time>
  <course>0.0</course>
  <speed>0.0</speed>
  <fix>3d</fix>
</trkpt>
<trkpt lat="40.0713749" lon="-105.229789">
  <ele>1583.0</ele>
  <time>2026-09-02T20:50:17Z</time>
  <course>0.0</course>
  <speed>0.0</speed>
  <fix>3d</fix>
</trkpt>
<trkpt lat="40.0713749" lon="-105.229789">
  <ele>1583.0</ele>
  <time>2026-09-02T20:50:17Z</time>
  <course>0.0</course>
  <speed>0.0</speed>
  <fix>3d</fix>
</trkpt>
<trkpt lat="40.0713749" lon="-105.229789">
  <ele>1583.0</ele>
  <time>2026-09-02T20:50:17Z</time>
  <course>0.0</course>
  <speed>0.0</speed>
  <fix>3d</fix>
</trkpt>
<trkpt lat="40.0713749" lon="-105.229789">
  <ele>1583.0</ele>
  <time>2026-09-02T20:50:17Z</time>
  <course>0.0</course>
  <speed>0.0</speed>
  <fix>3d</fix>
</trkpt>
<trkpt lat="40.0713749" lon="-105.229789">
  <ele>1583.0</ele>
  <time>2026-09-02T20:50:17Z</time>
  <course>0.0</course>
  <speed>0.0</speed>
  <fix>3d</fix>
</trkpt>
<trkpt lat="40.0713749" lon="-105.229789">
  <ele>1583.0</ele>
  <time>2026-09-02T20:50:17Z</time>
  <course>0.0</course>
  <speed>0.0</speed>
  <fix>3d</fix>
</trkpt>
<trkpt lat="40.0713749" lon="-105.229789">
  <ele>1583.0</ele>
  <time>2026-09-02T20:50:17Z</time>
  <course>0.0</course>
  <speed>0.0</speed>
  <fix>3d</fix>
</trkpt>
<trkpt lat="40.0713749" lon="-105.229789">
  <ele>1583.0</ele>
  <time>2026-09-02T20:50:17Z</time>
  <course>0.0</course>
  <speed>0.0</speed>
  <fix>3d</fix>
</trkpt>
<trkpt lat="40.0713749" lon="-105.229789">
  <ele>1583.0</ele>
  <time>2026-09-02T20:50:17Z</time>
  <course>0.0</course>
  <speed>0.0</speed>
  <fix>3d</fix>
</trkpt>
<trkpt lat="40.0713749" lon="-105.229789">
  <ele>1583.0</ele>
  <time>2026-09-02T20:50:17Z</time>
  <course>0.0</course>
  <speed>0.0</speed>
  <fix>3d</fix>
</trkpt>
<trkpt lat="40.0713749" lon="-105.229789">
  <ele>1583.0</ele>
  <time>2026-09-02T20:50:17Z</time>
  <course>0.0</course>
  <speed>0.0</speed>
  <fix>3d</fix>
</trkpt>
<trkpt lat="40.0713749" lon="-105.229789">
  <ele>1583.0</ele>
  <time>2026-09-02T20:50:17Z</time>
  <course>0.0</course>
  <speed>0.0</speed>
  <fix>3d</fix>
</trkpt>
<trkpt lat="40.0713749" lon="-105.229789">
  <ele>1583.0</ele>
  <time>2026-09-02T20:50:17Z</time>
  <course>0.0</course>
  <speed>0.0</speed>
  <fix>3d</fix>
</trkpt>
<trkpt lat="40.0713749" lon="-105.229789">
  <ele>1583.0</ele>
  <time>2026-09-02T20:50:17Z</time>
  <course>0.0</course>
  <speed>0.0</speed>
  <fix>3d</fix>
</trkpt>
<trkpt lat="40.0713749" lon="-105.229789">
  <ele>1583.0</ele>
  <time>2026-09-02T20:50:17Z</time>
  <course>0.0</course>
  <speed>0.0</speed>
  <fix>3d</fix>
</trkpt>
<trkpt lat="40.0713749" lon="-105.229789">
  <ele>1583.0</ele>
  <time>2026-09-02T20:50:17Z</time>
  <course>0.0</course>
  <speed>0.0</speed>
  <fix>3d</fix>
</trkpt>
<trkpt lat="40.0713749" lon="-105.229789">
  <ele>1583.0</ele>
  <time>2026-09-02T20:50:17Z</time>
  <course>0.0</course>
  <speed>0.0</speed>
  <fix>3d</fix>
</trkpt>
<trkpt lat="40.0713749" lon="-105.229789">
  <ele>1583.0</ele>
  <time>2026-09-02T20:50:17Z</time>
  <course>0.0</course>
  <speed>0.0</speed>
  <fix>3d</fix>
</trkpt>
<trkpt lat="40.0713749" lon="-105.229789">
  <ele>1583.0</ele>
  <time>2026-09-02T20:50:17Z</time>
  <course>0.0</course>
  <speed>0.0</speed>
  <fix>3d</fix>
</trkpt>
<trkpt lat="40.0713749" lon="-105.229789">
  <ele>1583.0</ele>
  <time>2026-09-02T20:50:17Z</time>
  <course>0.0</course>
  <speed>0.0</speed>
  <fix>3d</fix>
</trkpt>
<trkpt lat="40.0713749" lon="-105.229789">
  <ele>1583.0</ele>
  <time>2026-09-02T20:50:17Z</time>
  <course>0.0</course>
  <speed>0.0</speed>
  <fix>3d</fix>
</trkpt>
<trkpt lat="40.0713749" lon="-105.229789">
  <ele>1583.0</ele>
  <time>2026-09-02T20:50:17Z</time>
  <course>0.0</course>
  <speed>0.0</speed>
  <fix>3d</fix>
</trkpt>
<trkpt lat="40.0713749" lon="-105.229789">
  <ele>1583.0</ele>
  <time>2026-09-02T20:50:17Z</time>
  <course>0.0</course>
  <speed>0.0</speed>
  <fix>3d</fix>
</trkpt>
<trkpt lat="40.0713749" lon="-105.229789">
  <ele>1583.0</ele>
  <time>2026-09-02T20:50:17Z</time>
  <course>0.0</course>
  <speed>0.0</speed>
  <fix>3d</fix>
</trkpt>
<trkpt lat="40.0713749" lon="-105.229789">
  <ele>1583.0</ele>
  <time>2026-09-02T20:50:17Z</time>
  <course>0.0</course>
  <speed>0.0</speed>
  <fix>3d</fix>
</trkpt>
<trkpt lat="40.0713749" lon="-105.229789">
  <ele>1583.0</ele>
  <time>2026-09-02T20:50:17Z</time>
  <course>0.0</course>
  <speed>0.0</speed>
  <fix>3d</fix>
</trkpt>
<trkpt lat="40.0713749" lon="-105.229789">
  <ele>1583.0</ele>
  <time>2026-09-02T20:50:17Z</time>
  <course>0.0</course>
  <speed>0.0</speed>
  <fix>3d</fix>
</trkpt>
<trkpt lat="40.0713749" lon="-105.229789">
  <ele>1583.0</ele>
  <time>2026-09-02T20:50:17Z</time>
  <course>0.0</course>
  <speed>0.0</speed>
  <fix>3d</fix>
</trkpt>
<trkpt lat="40.0713749" lon="-105.229789">
  <ele>1583.0</ele>
  <time>2026-09-02T20:50:17Z</time>
  <course>0.0</course>
  <speed>0.0</speed>
  <fix>3d</fix>
</trkpt>
<trkpt lat="40.0713749" lon="-105.229789">
  <ele>1583.0</ele>
  <time>2026-09-02T20:50:17Z</time>
  <course>0.0</course>
  <speed>0.0</speed>
  <fix>3d</fix>
</trkpt>
<trkpt lat="40.0713749" lon="-105.229789">
  <ele>1583.0</ele>
  <time>2026-09-02T20:50:17Z</time>
  <course>0.0</course>
  <speed>0.0</speed>
  <fix>3d</fix>
</trkpt>
<trkpt lat="40.0713749" lon="-105.229789">
  <ele>1583.0</ele>
  <time>2026-09-02T20:50:17Z</time>
  <course>0.0</course>
  <speed>0.0</speed>
  <fix>3d</fix>
</trkpt>
<trkpt lat="40.0713749" lon="-105.229789">
  <ele>1583.0</ele>
  <time>2026-09-02T20:50:17Z</time>
  <course>0.0</course>
  <speed>0.0</speed>
  <fix>3d</fix>
</trkpt>
<trkpt lat="40.0713749" lon="-105.229789">
  <ele>1583.0</ele>
  <time>2026-09-02T20:50:17Z</time>
  <course>0.0</course>
  <speed>0.0</speed>
  <fix>3d</fix>
</trkpt>
<trkpt lat="40.0713749" lon="-105.229789">
  <ele>1583.0</ele>
  <time>2026-09-02T20:50:17Z</time>
  <course>0.0</course>
  <speed>0.0</speed>
  <fix>3d</fix>
</trkpt>
<trkpt lat="40.0713749" lon="-105.229789">
  <ele>1583.0</ele>
  <time>2026-09-02T20:50:17Z</time>
  <course>0.0</course>
  <speed>0.0</speed>
  <fix>3d</fix>
</trkpt>
<trkpt lat="40.0713749" lon="-105.229789">
  <ele>1583.0</ele>
  <time>2026-09-02T20:50:17Z</time>
  <course>0.0</course>
  <speed>0.0</speed>
  <fix>3d</fix>
</trkpt>
<trkpt lat="40.0713749" lon="-105.229789">
  <ele>1583.0</ele>
  <time>2026-09-02T20:50:17Z</time>
  <course>0.0</course>
  <speed>0.0</speed>
  <fix>3d</fix>
</trkpt>
<trkpt lat="40.0713749" lon="-105.229789">
  <ele>1583.0</ele>
  <time>2026-09-02T20:50:17Z</time>
  <course>0.0</course>
  <speed>0.0</speed>
  <fix>3d</fix>
</trkpt>
<trkpt lat="40.0713749" lon="-105.229789">
  <ele>1583.0</ele>
  <time>2026-09-02T20:50:17Z</time>
  <course>0.0</course>
  <speed>0.0</speed>
  <fix>3d</fix>
</trkpt>
<trkpt lat="40.0713749" lon="-105.229789">
  <ele>1583.0</ele>
  <time>2026-09-02T20:50:17Z</time>
  <course>0.0</course>
  <speed>0.0</speed>
  <fix>3d</fix>
</trkpt>
<trkpt lat="40.0713749" lon="-105.229789">
  <ele>1583.0</ele>
  <time>2026-09-02T20:50:17Z</time>
  <course>0.0</course>
  <speed>0.0</speed>
  <fix>3d</fix>
</trkpt>
<trkpt lat="40.0713749" lon="-105.229789">
  <ele>1583.0</ele>
  <time>2026-09-02T20:50:17Z</time>
  <course>0.0</course>
  <speed>0.0</speed>
  <fix>3d</fix>
</trkpt>
<trkpt lat="40.0713749" lon="-105.229789">
  <ele>1583.0</ele>
  <time>2026-09-02T20:50:17Z</time>
  <course>0.0</course>
  <speed>0.0</speed>
  <fix>3d</fix>
</trkpt>
<trkpt lat="40.0713749" lon="-105.229789">
  <ele>1583.0</ele>
  <time>2026-09-02T20:50:17Z</time>
  <course>0.0</course>
  <speed>0.0</speed>
  <fix>3d</fix>
</trkpt>
<trkpt lat="40.0713749" lon="-105.229789">
  <ele>1583.0</ele>
  <time>2026-09-02T20:50:17Z</time>
  <course>0.0</course>
  <speed>0.0</speed>
  <fix>3d</fix>
</trkpt>
<trkpt lat="40.0713749" lon="-105.229789">
  <ele>1583.0</ele>
  <time>2026-09-02T20:50:17Z</time>
  <course>0.0</course>
  <speed>0.0</speed>
  <fix>3d</fix>
</trkpt>
<trkpt lat="40.0713749" lon="-105.229789">
  <ele>1583.0</ele>
  <time>2026-09-02T20:50:17Z</time>
  <course>0.0</course>
  <speed>0.0</speed>
  <fix>3d</fix>
</trkpt>
<trkpt lat="40.0713749" lon="-105.229789">
  <ele>1583.0</ele>
  <time>2026-09-02T20:50:17Z</time>
  <course>0.0</course>
  <speed>0.0</speed>
  <fix>3d</fix>
</trkpt>
<trkpt lat="40.0713749" lon="-105.229789">
  <ele>1583.0</ele>
  <time>2026-09-02T20:50:17Z</time>
  <course>0.0</course>
  <speed>0.0</speed>
  <fix>3d</fix>
</trkpt>
<trkpt lat="40.0713749" lon="-105.229789">
  <ele>1583.0</ele>
  <time>2026-09-02T20:50:17Z</time>
  <course>0.0</course>
  <speed>0.0</speed>
  <fix>3d</fix>
</trkpt>
<trkpt lat="40.0713749" lon="-105.229789">
  <ele>1583.0</ele>
  <time>2026-09-02T20:50:17Z</time>
  <course>0.0</course>
  <speed>0.0</speed>
  <fix>3d</fix>
</trkpt>
<trkpt lat="40.0713749" lon="-105.229789">
  <ele>1583.0</ele>
  <time>2026-09-02T20:50:17Z</time>
  <course>0.0</course>
  <speed>0.0</speed>
  <fix>3d</fix>
</trkpt>
<trkpt lat="40.0713749" lon="-105.229789">
  <ele>1583.0</ele>
  <time>2026-09-02T20:50:17Z</time>
  <course>0.0</course>
  <speed>0.0</speed>
  <fix>3d</fix>
</trkpt>
<trkpt lat="40.0713749" lon="-105.229789">
  <ele>1583.0</ele>
  <time>2026-09-02T20:50:17Z</time>
  <course>0.0</course>
  <speed>0.0</speed>
  <fix>3d</fix>
</trkpt>
<trkpt lat="40.0713749" lon="-105.229789">
  <ele>1583.0</ele>
  <time>2026-09-02T20:50:17Z</time>
  <course>0.0</course>
  <speed>0.0</speed>
  <fix>3d</fix>
</trkpt>
<trkpt lat="40.0713749" lon="-105.229789">
  <ele>1583.0</ele>
  <time>2026-09-02T20:50:17Z</time>
  <course>0.0</course>
  <speed>0.0</speed>
  <fix>3d</fix>
</trkpt>
<trkpt lat="40.0713749" lon="-105.229789">
  <ele>1583.0</ele>
  <time>2026-09-02T20:50:17Z</time>
  <course>0.0</course>
  <speed>0.0</speed>
  <fix>3d</fix>
</trkpt>
<trkpt lat="40.0713749" lon="-105.229789">
  <ele>1583.0</ele>
  <time>2026-09-02T20:50:17Z</time>
  <course>0.0</course>
  <speed>0.0</speed>
  <fix>3d</fix>
</trkpt>
<trkpt lat="40.0713749" lon="-105.229789">
  <ele>1583.0</ele>
  <time>2026-09-02T20:50:17Z</time>
  <course>0.0</course>
  <speed>0.0</speed>
  <fix>3d</fix>
</trkpt>
<trkpt lat="40.0713749" lon="-105.229789">
  <ele>1583.0</ele>
  <time>2026-09-02T20:50:17Z</time>
  <course>0.0</course>
  <speed>0.0</speed>
  <fix>3d</fix>
</trkpt>
<trkpt lat="40.0713749" lon="-105.229789">
  <ele>1583.0</ele>
  <time>2026-09-02T20:50:17Z</time>
  <course>0.0</course>
  <speed>0.0</speed>
  <fix>3d</fix>
</trkpt>
<trkpt lat="40.0713749" lon="-105.229789">
  <ele>1583.0</ele>
  <time>2026-09-02T20:50:17Z</time>
  <course>0.0</course>
  <speed>0.0</speed>
  <fix>3d</fix>
</trkpt>
<trkpt lat="40.0713749" lon="-105.229789">
  <ele>1583.0</ele>
  <time>2026-09-02T20:50:17Z</time>
  <course>0.0</course>
  <speed>0.0</speed>
  <fix>3d</fix>
</trkpt>
<trkpt lat="40.0713749" lon="-105.229789">
  <ele>1583.0</ele>
  <time>2026-09-02T20:50:17Z</time>
  <course>0.0</course>
  <speed>0.0</speed>
  <fix>3d</fix>
</trkpt>
<trkpt lat="40.0713749" lon="-105.229789">
  <ele>1583.0</ele>
  <time>2026-09-02T20:50:17Z</time>
  <course>0.0</course>
  <speed>0.0</speed>
  <fix>3d</fix>
</trkpt>
<trkpt lat="40.0713749" lon="-105.229789">
  <ele>1583.0</ele>
  <time>2026-09-02T20:50:17Z</time>
  <course>0.0</course>
  <speed>0.0</speed>
  <fix>3d</fix>
</trkpt>
<trkpt lat="40.0713749" lon="-105.229789">
  <ele>1583.0</ele>
  <time>2026-09-02T20:50:17Z</time>
  <course>0.0</course>
  <speed>0.0</speed>
  <fix>3d</fix>
</trkpt>
<trkpt lat="40.0713749" lon="-105.229789">
  <ele>1583.0</ele>
  <time>2026-09-02T20:50:17Z</time>
  <course>0.0</course>
  <speed>0.0</speed>
  <fix>3d</fix>
</trkpt>
<trkpt lat="40.0713749" lon="-105.229789">
  <ele>1583.0</ele>
  <time>2026-09-02T20:50:17Z</time>
  <course>0.0</course>
  <speed>0.0</speed>
  <fix>3d</fix>
</trkpt>
<trkpt lat="40.0713749" lon="-105.229789">
  <ele>1583.0</ele>
  <time>2026-09-02T20:50:17Z</time>
  <course>0.0</course>
  <speed>0.0</speed>
  <fix>3d</fix>
</trkpt>
<trkpt lat="40.0713749" lon="-105.229789">
  <ele>1583.0</ele>
  <time>2026-09-02T20:50:17Z</time>
  <course>0.0</course>
  <speed>0.0</speed>
  <fix>3d</fix>
</trkpt>
<trkpt lat="40.0713749" lon="-105.229789">
  <ele>1583.0</ele>
  <time>2026-09-02T20:50:17Z</time>
  <course>0.0</course>
  <speed>0.0</speed>
  <fix>3d</fix>
</trkpt>
<trkpt lat="40.0713749" lon="-105.229789">
  <ele>1583.0</ele>
  <time>2026-09-02T20:50:17Z</time>
  <course>0.0</course>
  <speed>0.0</speed>
  <fix>3d</fix>
</trkpt>
<trkpt lat="40.0713749" lon="-105.229789">
  <ele>1583.0</ele>
  <time>2026-09-02T20:50:17Z</time>
  <course>0.0</course>
  <speed>0.0</speed>
  <fix>3d</fix>
</trkpt>
<trkpt lat="40.0713749" lon="-105.229789">
  <ele>1583.0</ele>
  <time>2026-09-02T20:50:17Z</time>
  <course>0.0</course>
  <speed>0.0</speed>
  <fix>3d</fix>
</trkpt>
<trkpt lat="40.0713749" lon="-105.229789">
  <ele>1583.0</ele>
  <time>2026-09-02T20:50:17Z</time>
  <course>0.0</course>
  <speed>0.0</speed>
  <fix>3d</fix>
</trkpt>
<trkpt lat="40.0713749" lon="-105.229789">
  <ele>1583.0</ele>
  <time>2026-09-02T20:50:17Z</time>
  <course>0.0</course>
  <speed>0.0</speed>
  <fix>3d</fix>
</trkpt>
<trkpt lat="40.0713749" lon="-105.229789">
  <ele>1583.0</ele>
  <time>2026-09-02T20:50:17Z</time>
  <course>0.0</course>
  <speed>0.0</speed>
  <fix>3d</fix>
</trkpt>
<trkpt lat="40.0713749" lon="-105.229789">
  <ele>1583.0</ele>
  <time>2026-09-02T20:50:17Z</time>
  <course>0.0</course>
  <speed>0.0</speed>
  <fix>3d</fix>
</trkpt>
<trkpt lat="40.0713749" lon="-105.229789">
  <ele>1583.0</ele>
  <time>2026-09-02T20:50:17Z</time>
  <course>0.0</course>
  <speed>0.0</speed>
  <fix>3d</fix>
</trkpt>
<trkpt lat="40.0713749" lon="-105.229789">
  <ele>1583.0</ele>
  <time>2026-09-02T20:50:17Z</time>
  <course>0.0</course>
  <speed>0.0</speed>
  <fix>3d</fix>
</trkpt>
<trkpt lat="40.0713749" lon="-105.229789">
  <ele>1583.0</ele>
  <time>2026-09-02T20:50:17Z</time>
  <course>0.0</course>
  <speed>0.0</speed>
  <fix>3d</fix>
</trkpt>
<trkpt lat="40.0713749" lon="-105.229789">
  <ele>1583.0</ele>
  <time>2026-09-02T20:50:17Z</time>
  <course>0.0</course>
  <speed>0.0</speed>
  <fix>3d</fix>
</trkpt>
<trkpt lat="40.0713749" lon="-105.229789">
  <ele>1583.0</ele>
  <time>2026-09-02T20:50:17Z</time>
  <course>0.0</course>
  <speed>0.0</speed>
  <fix>3d</fix>
</trkpt>
<trkpt lat="40.0713749" lon="-105.229789">
  <ele>1583.0</ele>
  <time>2026-09-02T20:50:17Z</time>
  <course>0.0</course>
  <speed>0.0</speed>
  <fix>3d</fix>
</trkpt>
<trkpt lat="40.0713749" lon="-105.229789">
  <ele>1583.0</ele>
  <time>2026-09-02T20:50:17Z</time>
  <course>0.0</course>
  <speed>0.0</speed>
  <fix>3d</fix>
</trkpt>
<trkpt lat="40.0713749" lon="-105.229789">
  <ele>1583.0</ele>
  <time>2026-09-02T20:50:17Z</time>
  <course>0.0</course>
  <speed>0.0</speed>
  <fix>3d</fix>
</trkpt>
<trkpt lat="40.0713749" lon="-105.229789">
  <ele>1583.0</ele>
  <time>2026-09-02T20:50:17Z</time>
  <course>0.0</course>
  <speed>0.0</speed>
  <fix>3d</fix>
</trkpt>
<trkpt lat="40.0713749" lon="-105.229789">
  <ele>1583.0</ele>
  <time>2026-09-02T20:50:17Z</time>
  <course>0.0</course>
  <speed>0.0</speed>
  <fix>3d</fix>
</trkpt>
<trkpt lat="40.0713749" lon="-105.229789">
  <ele>1583.0</ele>
  <time>2026-09-02T20:50:17Z</time>
  <course>0.0</course>
  <speed>0.0</speed>
  <fix>3d</fix>
</trkpt>
<trkpt lat="40.0713749" lon="-105.229789">
  <ele>1583.0</ele>
  <time>2026-09-02T20:50:17Z</time>
  <course>0.0</course>
  <speed>0.0</speed>
  <fix>3d</fix>
</trkpt>
<trkpt lat="40.0713749" lon="-105.229789">
  <ele>1583.0</ele>
  <time>2026-09-02T20:50:17Z</time>
  <course>0.0</course>
  <speed>0.0</speed>
  <fix>3d</fix>
</trkpt>
<trkpt lat="40.0713749" lon="-105.229789">
  <ele>1583.0</ele>
  <time>2026-09-02T20:50:17Z</time>
  <course>0.0</course>
  <speed>0.0</speed>
  <fix>3d</fix>
</trkpt>
<trkpt lat="40.0713749" lon="-105.229789">
  <ele>1583.0</ele>
  <time>2026-09-02T20:50:17Z</time>
  <course>0.0</course>
  <speed>0.0</speed>
  <fix>3d</fix>
</trkpt>
<trkpt lat="40.0713749" lon="-105.229789">
  <ele>1583.0</ele>
  <time>2026-09-02T20:50:17Z</time>
  <course>0.0</course>
  <speed>0.0</speed>
  <fix>3d</fix>
</trkpt>
<trkpt lat="40.0713749" lon="-105.229789">
  <ele>1583.0</ele>
  <time>2026-09-02T20:50:17Z</time>
  <course>0.0</course>
  <speed>0.0</speed>
  <fix>3d</fix>
</trkpt>
<trkpt lat="40.0713749" lon="-105.229789">
  <ele>1583.0</ele>
  <time>2026-09-02T20:50:17Z</time>
  <course>0.0</course>
  <speed>0.0</speed>
  <fix>3d</fix>
</trkpt>
<trkpt lat="40.0713749" lon="-105.229789">
  <ele>1583.0</ele>
  <time>2026-09-02T20:50:17Z</time>
  <course>0.0</course>
  <speed>0.0</speed>
  <fix>3d</fix>
</trkpt>
<trkpt lat="40.0713749" lon="-105.229789">
  <ele>1583.0</ele>
  <time>2026-09-02T20:50:17Z</time>
  <course>0.0</course>
  <speed>0.0</speed>
  <fix>3d</fix>
</trkpt>
<trkpt lat="40.0713749" lon="-105.229789">
  <ele>1583.0</ele>
  <time>2026-09-02T20:50:17Z</time>
  <course>0.0</course>
  <speed>0.0</speed>
  <fix>3d</fix>
</trkpt>
<trkpt lat="40.0713749" lon="-105.229789">
  <ele>1583.0</ele>
  <time>2026-09-02T20:50:17Z</time>
  <course>0.0</course>
  <speed>0.0</speed>
  <fix>3d</fix>
</trkpt>
<trkpt lat="40.0713749" lon="-105.229789">
  <ele>1583.0</ele>
  <time>2026-09-02T20:50:17Z</time>
  <course>0.0</course>
  <speed>0.0</speed>
  <fix>3d</fix>
</trkpt>
<trkpt lat="40.0713749" lon="-105.229789">
  <ele>1583.0</ele>
  <time>2026-09-02T20:50:17Z</time>
  <course>0.0</course>
  <speed>0.0</speed>
  <fix>3d</fix>
</trkpt>
<trkpt lat="40.0713749" lon="-105.229789">
  <ele>1583.0</ele>
  <time>2026-09-02T20:50:17Z</time>
  <course>0.0</course>
  <speed>0.0</speed>
  <fix>3d</fix>
</trkpt>
<trkpt lat="40.0713749" lon="-105.229789">
  <ele>1583.0</ele>
  <time>2026-09-02T20:50:17Z</time>
  <course>0.0</course>
  <speed>0.0</speed>
  <fix>3d</fix>
</trkpt>
<trkpt lat="40.0713749" lon="-105.229789">
  <ele>1583.0</ele>
  <time>2026-09-02T20:50:17Z</time>
  <course>0.0</course>
  <speed>0.0</speed>
  <fix>3d</fix>
</trkpt>
<trkpt lat="40.0713749" lon="-105.229789">
  <ele>1583.0</ele>
  <time>2026-09-02T20:50:17Z</time>
  <course>0.0</course>
  <speed>0.0</speed>
  <fix>3d</fix>
</trkpt>
<trkpt lat="40.0713749" lon="-105.229789">
  <ele>1583.0</ele>
  <time>2026-09-02T20:50:17Z</time>
  <course>0.0</course>
  <speed>0.0</speed>
  <fix>3d</fix>
</trkpt>
<trkpt lat="40.0713749" lon="-105.229789">
  <ele>1583.0</ele>
  <time>2026-09-02T20:50:17Z</time>
  <course>0.0</course>
  <speed>0.0</speed>
  <fix>3d</fix>
</trkpt>
<trkpt lat="40.0713749" lon="-105.229789">
  <ele>1583.0</ele>
  <time>2026-09-02T20:50:17Z</time>
  <course>0.0</course>
  <speed>0.0</speed>
  <fix>3d</fix>
</trkpt>
<trkpt lat="40.0713749" lon="-105.229789">
  <ele>1583.0</ele>
  <time>2026-09-02T20:50:17Z</time>
  <course>0.0</course>
  <speed>0.0</speed>
  <fix>3d</fix>
</trkpt>
<trkpt lat="40.0713749" lon="-105.229789">
  <ele>1583.0</ele>
  <time>2026-09-02T20:50:17Z</time>
  <course>0.0</course>
  <speed>0.0</speed>
  <fix>3d</fix>
</trkpt>
<trkpt lat="40.0713749" lon="-105.229789">
  <ele>1583.0</ele>
  <time>2026-09-02T20:50:17Z</time>
  <course>0.0</course>
  <speed>0.0</speed>
  <fix>3d</fix>
</trkpt>
<trkpt lat="40.0713749" lon="-105.229789">
  <ele>1583.0</ele>
  <time>2026-09-02T20:50:17Z</time>
  <course>0.0</course>
  <speed>0.0</speed>
  <fix>3d</fix>
</trkpt>
<trkpt lat="40.0713749" lon="-105.229789">
  <ele>1583.0</ele>
  <time>2026-09-02T20:50:17Z</time>
  <course>0.0</course>
  <speed>0.0</speed>
  <fix>3d</fix>
</trkpt>
<trkpt lat="40.0713749" lon="-105.229789">
  <ele>1583.0</ele>
  <time>2026-09-02T20:50:17Z</time>
  <course>0.0</course>
  <speed>0.0</speed>
  <fix>3d</fix>
</trkpt>
<trkpt lat="40.0713749" lon="-105.229789">
  <ele>1583.0</ele>
  <time>2026-09-02T20:50:17Z</time>
  <course>0.0</course>
  <speed>0.0</speed>
  <fix>3d</fix>
</trkpt>
<trkpt lat="40.0713749" lon="-105.229789">
  <ele>1583.0</ele>
  <time>2026-09-02T20:50:17Z</time>
  <course>0.0</course>
  <speed>0.0</speed>
  <fix>3d</fix>
</trkpt>
<trkpt lat="40.0713749" lon="-105.229789">
  <ele>1583.0</ele>
  <time>2026-09-02T20:50:17Z</time>
  <course>0.0</course>
  <speed>0.0</speed>
  <fix>3d</fix>
</trkpt>
<trkpt lat="40.0713749" lon="-105.229789">
  <ele>1583.0</ele>
  <time>2026-09-02T20:50:17Z</time>
  <course>0.0</course>
  <speed>0.0</speed>
  <fix>3d</fix>
</trkpt>
<trkpt lat="40.0713749" lon="-105.229789">
  <ele>1583.0</ele>
  <time>2026-09-02T20:50:17Z</time>
  <course>0.0</course>
  <speed>0.0</speed>
  <fix>3d</fix>
</trkpt>
<trkpt lat="40.0713749" lon="-105.229789">
  <ele>1583.0</ele>
  <time>2026-09-02T20:50:17Z</time>
  <course>0.0</course>
  <speed>0.0</speed>
  <fix>3d</fix>
</trkpt>
<trkpt lat="40.0713749" lon="-105.229789">
  <ele>1583.0</ele>
  <time>2026-09-02T20:50:17Z</time>
  <course>0.0</course>
  <speed>0.0</speed>
  <fix>3d</fix>
</trkpt>
<trkpt lat="40.0713749" lon="-105.229789">
  <ele>1583.0</ele>
  <time>2026-09-02T20:50:17Z</time>
  <course>0.0</course>
  <speed>0.0</speed>
  <fix>3d</fix>
</trkpt>
<trkpt lat="40.0713749" lon="-105.229789">
  <ele>1583.0</ele>
  <time>2026-09-02T20:50:17Z</time>
  <course>0.0</course>
  <speed>0.0</speed>
  <fix>3d</fix>
</trkpt>
<trkpt lat="40.0713749" lon="-105.229789">
  <ele>1583.0</ele>
  <time>2026-09-02T20:50:17Z</time>
  <course>0.0</course>
  <speed>0.0</speed>
  <fix>3d</fix>
</trkpt>
<trkpt lat="40.0713749" lon="-105.229789">
  <ele>1583.0</ele>
  <time>2026-09-02T20:50:17Z</time>
  <course>0.0</course>
  <speed>0.0</speed>
  <fix>3d</fix>
</trkpt>
<trkpt lat="40.0713749" lon="-105.229789">
  <ele>1583.0</ele>
  <time>2026-09-02T20:50:17Z</time>
  <course>0.0</course>
  <speed>0.0</speed>
  <fix>3d</fix>
</trkpt>
<trkpt lat="40.0713749" lon="-105.229789">
  <ele>1583.0</ele>
  <time>2026-09-02T20:50:17Z</time>
  <course>0.0</course>
  <speed>0.0</speed>
  <fix>3d</fix>
</trkpt>
<trkpt lat="40.0713749" lon="-105.229789">
  <ele>1583.0</ele>
  <time>2026-09-02T20:50:17Z</time>
  <course>0.0</course>
  <speed>0.0</speed>
  <fix>3d</fix>
</trkpt>
<trkpt lat="40.0713749" lon="-105.229789">
  <ele>1583.0</ele>
  <time>2026-09-02T20:50:17Z</time>
  <course>0.0</course>
  <speed>0.0</speed>
  <fix>3d</fix>
</trkpt>
<trkpt lat="40.0713749" lon="-105.229789">
  <ele>1583.0</ele>
  <time>2026-09-02T20:50:17Z</time>
  <course>0.0</course>
  <speed>0.0</speed>
  <fix>3d</fix>
</trkpt>
<trkpt lat="40.0713749" lon="-105.229789">
  <ele>1583.0</ele>
  <time>2026-09-02T20:50:17Z</time>
  <course>0.0</course>
  <speed>0.0</speed>
  <fix>3d</fix>
</trkpt>
<trkpt lat="40.0713749" lon="-105.229789">
  <ele>1583.0</ele>
  <time>2026-09-02T20:50:17Z</time>
  <course>0.0</course>
  <speed>0.0</speed>
  <fix>3d</fix>
</trkpt>
<trkpt lat="40.0713749" lon="-105.229789">
  <ele>1583.0</ele>
  <time>2026-09-02T20:50:17Z</time>
  <course>0.0</course>
  <speed>0.0</speed>
  <fix>3d</fix>
</trkpt>
<trkpt lat="40.0713749" lon="-105.229789">
  <ele>1583.0</ele>
  <time>2026-09-02T20:50:17Z</time>
  <course>0.0</course>
  <speed>0.0</speed>
  <fix>3d</fix>
</trkpt>
<trkpt lat="40.0713749" lon="-105.229789">
  <ele>1583.0</ele>
  <time>2026-09-02T20:50:17Z</time>
  <course>0.0</course>
  <speed>0.0</speed>
  <fix>3d</fix>
</trkpt>
<trkpt lat="40.0713749" lon="-105.229789">
  <ele>1583.0</ele>
  <time>2026-09-02T20:50:17Z</time>
  <course>0.0</course>
  <speed>0.0</speed>
  <fix>3d</fix>
</trkpt>
<trkpt lat="40.0713749" lon="-105.229789">
  <ele>1583.0</ele>
  <time>2026-09-02T20:50:17Z</time>
  <course>0.0</course>
  <speed>0.0</speed>
  <fix>3d</fix>
</trkpt>
<trkpt lat="40.0713749" lon="-105.229789">
  <ele>1583.0</ele>
  <time>2026-09-02T20:50:17Z</time>
  <course>0.0</course>
  <speed>0.0</speed>
  <fix>3d</fix>
</trkpt>
<trkpt lat="40.0713749" lon="-105.229789">
  <ele>1583.0</ele>
  <time>2026-09-02T20:50:17Z</time>
  <course>0.0</course>
  <speed>0.0</speed>
  <fix>3d</fix>
</trkpt>
<trkpt lat="40.0713749" lon="-105.229789">
  <ele>1583.0</ele>
  <time>2026-09-02T20:50:17Z</time>
  <course>0.0</course>
  <speed>0.0</speed>
  <fix>3d</fix>
</trkpt>
<trkpt lat="40.0713749" lon="-105.229789">
  <ele>1583.0</ele>
  <time>2026-09-02T20:50:17Z</time>
  <course>0.0</course>
  <speed>0.0</speed>
  <fix>3d</fix>
</trkpt>
<trkpt lat="40.0713749" lon="-105.229789">
  <ele>1583.0</ele>
  <time>2026-09-02T20:50:17Z</time>
  <course>0.0</course>
  <speed>0.0</speed>
  <fix>3d</fix>
</trkpt>
<trkpt lat="40.0713749" lon="-105.229789">
  <ele>1583.0</ele>
  <time>2026-09-02T20:50:17Z</time>
  <course>0.0</course>
  <speed>0.0</speed>
  <fix>3d</fix>
</trkpt>
<trkpt lat="40.0713749" lon="-105.229789">
  <ele>1583.0</ele>
  <time>2026-09-02T20:50:17Z</time>
  <course>0.0</course>
  <speed>0.0</speed>
  <fix>3d</fix>
</trkpt>
<trkpt lat="40.0713749" lon="-105.229789">
  <ele>1583.0</ele>
  <time>2026-09-02T20:50:17Z</time>
  <course>0.0</course>
  <speed>0.0</speed>
  <fix>3d</fix>
</trkpt>
<trkpt lat="40.0713749" lon="-105.229789">
  <ele>1583.0</ele>
  <time>2026-09-02T20:50:17Z</time>
  <course>0.0</course>
  <speed>0.0</speed>
  <fix>3d</fix>
</trkpt>
<trkpt lat="40.0713749" lon="-105.229789">
  <ele>1583.0</ele>
  <time>2026-09-02T20:50:17Z</time>
  <course>0.0</course>
  <speed>0.0</speed>
  <fix>3d</fix>
</trkpt>
<trkpt lat="40.0713749" lon="-105.229789">
  <ele>1583.0</ele>
  <time>2026-09-02T20:50:17Z</time>
  <course>0.0</course>
  <speed>0.0</speed>
  <fix>3d</fix>
</trkpt>
<trkpt lat="40.0713749" lon="-105.229789">
  <ele>1583.0</ele>
  <time>2026-09-02T20:50:17Z</time>
  <course>0.0</course>
  <speed>0.0</speed>
  <fix>3d</fix>
</trkpt>
<trkpt lat="40.0713749" lon="-105.229789">
  <ele>1583.0</ele>
  <time>2026-09-02T20:50:17Z</time>
  <course>0.0</course>
  <speed>0.0</speed>
  <fix>3d</fix>
</trkpt>
<trkpt lat="40.0713749" lon="-105.229789">
  <ele>1583.0</ele>
  <time>2026-09-02T20:50:17Z</time>
  <course>0.0</course>
  <speed>0.0</speed>
  <fix>3d</fix>
</trkpt>
<trkpt lat="40.0713749" lon="-105.229789">
  <ele>1583.0</ele>
  <time>2026-09-02T20:50:17Z</time>
  <course>0.0</course>
  <speed>0.0</speed>
  <fix>3d</fix>
</trkpt>
<trkpt lat="40.0713749" lon="-105.229789">
  <ele>1583.0</ele>
  <time>2026-09-02T20:50:17Z</time>
  <course>0.0</course>
  <speed>0.0</speed>
  <fix>3d</fix>
</trkpt>
<trkpt lat="40.0713749" lon="-105.229789">
  <ele>1583.0</ele>
  <time>2026-09-02T20:50:17Z</time>
  <course>0.0</course>
  <speed>0.0</speed>
  <fix>3d</fix>
</trkpt>
<trkpt lat="40.0713749" lon="-105.229789">
  <ele>1583.0</ele>
  <time>2026-09-02T20:50:17Z</time>
  <course>0.0</course>
  <speed>0.0</speed>
  <fix>3d</fix>
</trkpt>
<trkpt lat="40.0713749" lon="-105.229789">
  <ele>1583.0</ele>
  <time>2026-09-02T20:50:17Z</time>
  <course>0.0</course>
  <speed>0.0</speed>
  <fix>3d</fix>
</trkpt>
<trkpt lat="40.0713749" lon="-105.229789">
  <ele>1583.0</ele>
  <time>2026-09-02T20:50:17Z</time>
  <course>0.0</course>
  <speed>0.0</speed>
  <fix>3d</fix>
</trkpt>
<trkpt lat="40.0713749" lon="-105.229789">
  <ele>1583.0</ele>
  <time>2026-09-02T20:50:17Z</time>
  <course>0.0</course>
  <speed>0.0</speed>
  <fix>3d</fix>
</trkpt>
<trkpt lat="40.0713749" lon="-105.229789">
  <ele>1583.0</ele>
  <time>2026-09-02T20:50:17Z</time>
  <course>0.0</course>
  <speed>0.0</speed>
  <fix>3d</fix>
</trkpt>
<trkpt lat="40.0713749" lon="-105.229789">
  <ele>1583.0</ele>
  <time>2026-09-02T20:50:17Z</time>
  <course>0.0</course>
  <speed>0.0</speed>
  <fix>3d</fix>
</trkpt>
<trkpt lat="40.0713749" lon="-105.229789">
  <ele>1583.0</ele>
  <time>2026-09-02T20:50:17Z</time>
  <course>0.0</course>
  <speed>0.0</speed>
  <fix>3d</fix>
</trkpt>
<trkpt lat="40.0713749" lon="-105.229789">
  <ele>1583.0</ele>
  <time>2026-09-02T20:50:17Z</time>
  <course>0.0</course>
  <speed>0.0</speed>
  <fix>3d</fix>
</trkpt>
<trkpt lat="40.0713749" lon="-105.229789">
  <ele>1583.0</ele>
  <time>2026-09-02T20:50:17Z</time>
  <course>0.0</course>
  <speed>0.0</speed>
  <fix>3d</fix>
</trkpt>
<trkpt lat="40.0713749" lon="-105.229789">
  <ele>1583.0</ele>
  <time>2026-09-02T20:50:17Z</time>
  <course>0.0</course>
  <speed>0.0</speed>
  <fix>3d</fix>
</trkpt>
<trkpt lat="40.0713749" lon="-105.229789">
  <ele>1583.0</ele>
  <time>2026-09-02T20:50:17Z</time>
  <course>0.0</course>
  <speed>0.0</speed>
  <fix>3d</fix>
</trkpt>
<trkpt lat="40.0713749" lon="-105.229789">
  <ele>1583.0</ele>
  <time>2026-09-02T20:50:17Z</time>
  <course>0.0</course>
  <speed>0.0</speed>
  <fix>3d</fix>
</trkpt>
<trkpt lat="40.0713749" lon="-105.229789">
  <ele>1583.0</ele>
  <time>2026-09-02T20:50:17Z</time>
  <course>0.0</course>
  <speed>0.0</speed>
  <fix>3d</fix>
</trkpt>
<trkpt lat="40.0713749" lon="-105.229789">
  <ele>1583.0</ele>
  <time>2026-09-02T20:50:17Z</time>
  <course>0.0</course>
  <speed>0.0</speed>
  <fix>3d</fix>
</trkpt>
<trkpt lat="40.0713749" lon="-105.229789">
  <ele>1583.0</ele>
  <time>2026-09-02T20:50:17Z</time>
  <course>0.0</course>
  <speed>0.0</speed>
  <fix>3d</fix>
</trkpt>
<trkpt lat="40.0713749" lon="-105.229789">
  <ele>1583.0</ele>
  <time>2026-09-02T20:50:17Z</time>
  <course>0.0</course>
  <speed>0.0</speed>
  <fix>3d</fix>
</trkpt>
<trkpt lat="40.0713749" lon="-105.229789">
  <ele>1583.0</ele>
  <time>2026-09-02T20:50:17Z</time>
  <course>0.0</course>
  <speed>0.0</speed>
  <fix>3d</fix>
</trkpt>
<trkpt lat="40.0713749" lon="-105.229789">
  <ele>1583.0</ele>
  <time>2026-09-02T20:50:17Z</time>
  <course>0.0</course>
  <speed>0.0</speed>
  <fix>3d</fix>
</trkpt>
<trkpt lat="40.0713749" lon="-105.229789">
  <ele>1583.0</ele>
  <time>2026-09-02T20:50:17Z</time>
  <course>0.0</course>
  <speed>0.0</speed>
  <fix>3d</fix>
</trkpt>
<trkpt lat="40.0713749" lon="-105.229789">
  <ele>1583.0</ele>
  <time>2026-09-02T20:50:17Z</time>
  <course>0.0</course>
  <speed>0.0</speed>
  <fix>3d</fix>
</trkpt>
<trkpt lat="40.0713749" lon="-105.229789">
  <ele>1583.0</ele>
  <time>2026-09-02T20:50:17Z</time>
  <course>0.0</course>
  <speed>0.0</speed>
  <fix>3d</fix>
</trkpt>
<trkpt lat="40.0713749" lon="-105.229789">
  <ele>1583.0</ele>
  <time>2026-09-02T20:50:17Z</time>
  <course>0.0</course>
  <speed>0.0</speed>
  <fix>3d</fix>
</trkpt>
<trkpt lat="40.0713749" lon="-105.229789">
  <ele>1583.0</ele>
  <time>2026-09-02T20:50:17Z</time>
  <course>0.0</course>
  <speed>0.0</speed>
  <fix>3d</fix>
</trkpt>
<trkpt lat="40.0713749" lon="-105.229789">
  <ele>1583.0</ele>
  <time>2026-09-02T20:50:17Z</time>
  <course>0.0</course>
  <speed>0.0</speed>
  <fix>3d</fix>
</trkpt>
<trkpt lat="40.0713749" lon="-105.229789">
  <ele>1583.0</ele>
  <time>2026-09-02T20:50:17Z</time>
  <course>0.0</course>
  <speed>0.0</speed>
  <fix>3d</fix>
</trkpt>
<trkpt lat="40.0713749" lon="-105.229789">
  <ele>1583.0</ele>
  <time>2026-09-02T20:50:17Z</time>
  <course>0.0</course>
  <speed>0.0</speed>
  <fix>3d</fix>
</trkpt>
<trkpt lat="40.0713749" lon="-105.229789">
  <ele>1583.0</ele>
  <time>2026-09-02T20:50:17Z</time>
  <course>0.0</course>
  <speed>0.0</speed>
  <fix>3d</fix>
</trkpt>
<trkpt lat="40.0713749" lon="-105.229789">
  <ele>1583.0</ele>
  <time>2026-09-02T20:50:17Z</time>
  <course>0.0</course>
  <speed>0.0</speed>
  <fix>3d</fix>
</trkpt>
<trkpt lat="40.0713749" lon="-105.229789">
  <ele>1583.0</ele>
  <time>2026-09-02T20:50:17Z</time>
  <course>0.0</course>
  <speed>0.0</speed>
  <fix>3d</fix>
</trkpt>
<trkpt lat="40.0713749" lon="-105.229789">
  <ele>1583.0</ele>
  <time>2026-09-02T20:50:17Z</time>
  <course>0.0</course>
  <speed>0.0</speed>
  <fix>3d</fix>
</trkpt>
<trkpt lat="40.0713749" lon="-105.229789">
  <ele>1583.0</ele>
  <time>2026-09-02T20:50:17Z</time>
  <course>0.0</course>
  <speed>0.0</speed>
  <fix>3d</fix>
</trkpt>
<trkpt lat="40.0713749" lon="-105.229789">
  <ele>1583.0</ele>
  <time>2026-09-02T20:50:17Z</time>
  <course>0.0</course>
  <speed>0.0</speed>
  <fix>3d</fix>
</trkpt>
<trkpt lat="40.0713749" lon="-105.229789">
  <ele>1583.0</ele>
  <time>2026-09-02T20:50:17Z</time>
  <course>0.0</course>
  <speed>0.0</speed>
  <fix>3d</fix>
</trkpt>
<trkpt lat="40.0713749" lon="-105.229789">
  <ele>1583.0</ele>
  <time>2026-09-02T20:50:17Z</time>
  <course>0.0</course>
  <speed>0.0</speed>
  <fix>3d</fix>
</trkpt>
<trkpt lat="40.0713749" lon="-105.229789">
  <ele>1583.0</ele>
  <time>2026-09-02T20:50:17Z</time>
  <course>0.0</course>
  <speed>0.0</speed>
  <fix>3d</fix>
</trkpt>
<trkpt lat="40.0713749" lon="-105.229789">
  <ele>1583.0</ele>
  <time>2026-09-02T20:50:17Z</time>
  <course>0.0</course>
  <speed>0.0</speed>
  <fix>3d</fix>
</trkpt>
<trkpt lat="40.0713749" lon="-105.229789">
  <ele>1583.0</ele>
  <time>2026-09-02T20:50:17Z</time>
  <course>0.0</course>
  <speed>0.0</speed>
  <fix>3d</fix>
</trkpt>
<trkpt lat="40.0713749" lon="-105.229789">
  <ele>1583.0</ele>
  <time>2026-09-02T20:50:17Z</time>
  <course>0.0</course>
  <speed>0.0</speed>
  <fix>3d</fix>
</trkpt>
<trkpt lat="40.0713749" lon="-105.229789">
  <ele>1583.0</ele>
  <time>2026-09-02T20:50:17Z</time>
  <course>0.0</course>
  <speed>0.0</speed>
  <fix>3d</fix>
</trkpt>
<trkpt lat="40.0713749" lon="-105.229789">
  <ele>1583.0</ele>
  <time>2026-09-02T20:50:17Z</time>
  <course>0.0</course>
  <speed>0.0</speed>
  <fix>3d</fix>
</trkpt>
<trkpt lat="40.0713749" lon="-105.229789">
  <ele>1583.0</ele>
  <time>2026-09-02T20:50:17Z</time>
  <course>0.0</course>
  <speed>0.0</speed>
  <fix>3d</fix>
</trkpt>
<trkpt lat="40.0713749" lon="-105.229789">
  <ele>1583.0</ele>
  <time>2026-09-02T20:50:17Z</time>
  <course>0.0</course>
  <speed>0.0</speed>
  <fix>3d</fix>
</trkpt>
<trkpt lat="40.0713749" lon="-105.229789">
  <ele>1583.0</ele>
  <time>2026-09-02T20:50:17Z</time>
  <course>0.0</course>
  <speed>0.0</speed>
  <fix>3d</fix>
</trkpt>
<trkpt lat="40.0713749" lon="-105.229789">
  <ele>1583.0</ele>
  <time>2026-09-02T20:50:17Z</time>
  <course>0.0</course>
  <speed>0.0</speed>
  <fix>3d</fix>
</trkpt>
<trkpt lat="40.0713749" lon="-105.229789">
  <ele>1583.0</ele>
  <time>2026-09-02T20:50:17Z</time>
  <course>0.0</course>
  <speed>0.0</speed>
  <fix>3d</fix>
</trkpt>
<trkpt lat="40.0713749" lon="-105.229789">
  <ele>1583.0</ele>
  <time>2026-09-02T20:50:17Z</time>
  <course>0.0</course>
  <speed>0.0</speed>
  <fix>3d</fix>
</trkpt>
<trkpt lat="40.0713749" lon="-105.229789">
  <ele>1583.0</ele>
  <time>2026-09-02T20:50:17Z</time>
  <course>0.0</course>
  <speed>0.0</speed>
  <fix>3d</fix>
</trkpt>
<trkpt lat="40.0713749" lon="-105.229789">
  <ele>1583.0</ele>
  <time>2026-09-02T20:50:17Z</time>
  <course>0.0</course>
  <speed>0.0</speed>
  <fix>3d</fix>
</trkpt>
<trkpt lat="40.0713749" lon="-105.229789">
  <ele>1583.0</ele>
  <time>2026-09-02T20:50:17Z</time>
  <course>0.0</course>
  <speed>0.0</speed>
  <fix>3d</fix>
</trkpt>
<trkpt lat="40.0713749" lon="-105.229789">
  <ele>1583.0</ele>
  <time>2026-09-02T20:50:17Z</time>
  <course>0.0</course>
  <speed>0.0</speed>
  <fix>3d</fix>
</trkpt>
<trkpt lat="40.0713749" lon="-105.229789">
  <ele>1583.0</ele>
  <time>2026-09-02T20:50:17Z</time>
  <course>0.0</course>
  <speed>0.0</speed>
  <fix>3d</fix>
</trkpt>
<trkpt lat="40.0713749" lon="-105.229789">
  <ele>1583.0</ele>
  <time>2026-09-02T20:50:17Z</time>
  <course>0.0</course>
  <speed>0.0</speed>
  <fix>3d</fix>
</trkpt>
<trkpt lat="40.0713749" lon="-105.229789">
  <ele>1583.0</ele>
  <time>2026-09-02T20:50:17Z</time>
  <course>0.0</course>
  <speed>0.0</speed>
  <fix>3d</fix>
</trkpt>
<trkpt lat="40.0713749" lon="-105.229789">
  <ele>1583.0</ele>
  <time>2026-09-02T20:50:17Z</time>
  <course>0.0</course>
  <speed>0.0</speed>
  <fix>3d</fix>
</trkpt>
<trkpt lat="40.0713749" lon="-105.229789">
  <ele>1583.0</ele>
  <time>2026-09-02T20:50:17Z</time>
  <course>0.0</course>
  <speed>0.0</speed>
  <fix>3d</fix>
</trkpt>
<trkpt lat="40.0713749" lon="-105.229789">
  <ele>1583.0</ele>
  <time>2026-09-02T20:50:17Z</time>
  <course>0.0</course>
  <speed>0.0</speed>
  <fix>3d</fix>
</trkpt>
<trkpt lat="40.0713749" lon="-105.229789">
  <ele>1583.0</ele>
  <time>2026-09-02T20:50:17Z</time>
  <course>0.0</course>
  <speed>0.0</speed>
  <fix>3d</fix>
</trkpt>
<trkpt lat="40.0713749" lon="-105.229789">
  <ele>1583.0</ele>
  <time>2026-09-02T20:50:17Z</time>
  <course>0.0</course>
  <speed>0.0</speed>
  <fix>3d</fix>
</trkpt>
<trkpt lat="40.0713749" lon="-105.229789">
  <ele>1583.0</ele>
  <time>2026-09-02T20:50:17Z</time>
  <course>0.0</course>
  <speed>0.0</speed>
  <fix>3d</fix>
</trkpt>
<trkpt lat="40.0713749" lon="-105.229789">
  <ele>1583.0</ele>
  <time>2026-09-02T20:50:17Z</time>
  <course>0.0</course>
  <speed>0.0</speed>
  <fix>3d</fix>
</trkpt>
<trkpt lat="40.0713749" lon="-105.229789">
  <ele>1583.0</ele>
  <time>2026-09-02T20:50:17Z</time>
  <course>0.0</course>
  <speed>0.0</speed>
  <fix>3d</fix>
</trkpt>
<trkpt lat="40.0713749" lon="-105.229789">
  <ele>1583.0</ele>
  <time>2026-09-02T20:50:17Z</time>
  <course>0.0</course>
  <speed>0.0</speed>
  <fix>3d</fix>
</trkpt>
<trkpt lat="40.0713749" lon="-105.229789">
  <ele>1583.0</ele>
  <time>2026-09-02T20:50:17Z</time>
  <course>0.0</course>
  <speed>0.0</speed>
  <fix>3d</fix>
</trkpt>
<trkpt lat="40.0713749" lon="-105.229789">
  <ele>1583.0</ele>
  <time>2026-09-02T20:50:17Z</time>
  <course>0.0</course>
  <speed>0.0</speed>
  <fix>3d</fix>
</trkpt>
<trkpt lat="40.0713749" lon="-105.229789">
  <ele>1583.0</ele>
  <time>2026-09-02T20:50:17Z</time>
  <course>0.0</course>
  <speed>0.0</speed>
  <fix>3d</fix>
</trkpt>
<trkpt lat="40.0713749" lon="-105.229789">
  <ele>1583.0</ele>
  <time>2026-09-02T20:50:17Z</time>
  <course>0.0</course>
  <speed>0.0</speed>
  <fix>3d</fix>
</trkpt>
<trkpt lat="40.0713749" lon="-105.229789">
  <ele>1583.0</ele>
  <time>2026-09-02T20:50:17Z</time>
  <course>0.0</course>
  <speed>0.0</speed>
  <fix>3d</fix>
</trkpt>
<trkpt lat="40.0713749" lon="-105.229789">
  <ele>1583.0</ele>
  <time>2026-09-02T20:50:17Z</time>
  <course>0.0</course>
  <speed>0.0</speed>
  <fix>3d</fix>
</trkpt>
<trkpt lat="40.0713749" lon="-105.229789">
  <ele>1583.0</ele>
  <time>2026-09-02T20:50:17Z</time>
  <course>0.0</course>
  <speed>0.0</speed>
  <fix>3d</fix>
</trkpt>
<trkpt lat="40.0713749" lon="-105.229789">
  <ele>1583.0</ele>
  <time>2026-09-02T20:50:17Z</time>
  <course>0.0</course>
  <speed>0.0</speed>
  <fix>3d</fix>
</trkpt>
<trkpt lat="40.0713749" lon="-105.229789">
  <ele>1583.0</ele>
  <time>2026-09-02T20:50:17Z</time>
  <course>0.0</course>
  <speed>0.0</speed>
  <fix>3d</fix>
</trkpt>
<trkpt lat="40.0713749" lon="-105.229789">
  <ele>1583.0</ele>
  <time>2026-09-02T20:50:17Z</time>
  <course>0.0</course>
  <speed>0.0</speed>
  <fix>3d</fix>
</trkpt>
<trkpt lat="40.0713749" lon="-105.229789">
  <ele>1583.0</ele>
  <time>2026-09-02T20:50:17Z</time>
  <course>0.0</course>
  <speed>0.0</speed>
  <fix>3d</fix>
</trkpt>
<trkpt lat="40.0713749" lon="-105.229789">
  <ele>1583.0</ele>
  <time>2026-09-02T20:50:17Z</time>
  <course>0.0</course>
  <speed>0.0</speed>
  <fix>3d</fix>
</trkpt>
<trkpt lat="40.0713749" lon="-105.229789">
  <ele>1583.0</ele>
  <time>2026-09-02T20:50:17Z</time>
  <course>0.0</course>
  <speed>0.0</speed>
  <fix>3d</fix>
</trkpt>
<trkpt lat="40.0713749" lon="-105.229789">
  <ele>1583.0</ele>
  <time>2026-09-02T20:50:17Z</time>
  <course>0.0</course>
  <speed>0.0</speed>
  <fix>3d</fix>
</trkpt>
<trkpt lat="40.0713749" lon="-105.229789">
  <ele>1583.0</ele>
  <time>2026-09-02T20:50:17Z</time>
  <course>0.0</course>
  <speed>0.0</speed>
  <fix>3d</fix>
</trkpt>
<trkpt lat="40.0713749" lon="-105.229789">
  <ele>1583.0</ele>
  <time>2026-09-02T20:50:17Z</time>
  <course>0.0</course>
  <speed>0.0</speed>
  <fix>3d</fix>
</trkpt>
<trkpt lat="40.0713749" lon="-105.229789">
  <ele>1583.0</ele>
  <time>2026-09-02T20:50:17Z</time>
  <course>0.0</course>
  <speed>0.0</speed>
  <fix>3d</fix>
</trkpt>
<trkpt lat="40.0713749" lon="-105.229789">
  <ele>1583.0</ele>
  <time>2026-09-02T20:50:17Z</time>
  <course>0.0</course>
  <speed>0.0</speed>
  <fix>3d</fix>
</trkpt>
<trkpt lat="40.0713749" lon="-105.229789">
  <ele>1583.0</ele>
  <time>2026-09-02T20:50:17Z</time>
  <course>0.0</course>
  <speed>0.0</speed>
  <fix>3d</fix>
</trkpt>
<trkpt lat="40.0713749" lon="-105.229789">
  <ele>1583.0</ele>
  <time>2026-09-02T20:50:17Z</time>
  <course>0.0</course>
  <speed>0.0</speed>
  <fix>3d</fix>
</trkpt>
<trkpt lat="40.0713749" lon="-105.229789">
  <ele>1583.0</ele>
  <time>2026-09-02T20:50:17Z</time>
  <course>0.0</course>
  <speed>0.0</speed>
  <fix>3d</fix>
</trkpt>
<trkpt lat="40.0713749" lon="-105.229789">
  <ele>1583.0</ele>
  <time>2026-09-02T20:50:17Z</time>
  <course>0.0</course>
  <speed>0.0</speed>
  <fix>3d</fix>
</trkpt>
<trkpt lat="40.0713749" lon="-105.229789">
  <ele>1583.0</ele>
  <time>2026-09-02T20:50:17Z</time>
  <course>0.0</course>
  <speed>0.0</speed>
  <fix>3d</fix>
</trkpt>
<trkpt lat="40.0713749" lon="-105.229789">
  <ele>1583.0</ele>
  <time>2026-09-02T20:50:17Z</time>
  <course>0.0</course>
  <speed>0.0</speed>
  <fix>3d</fix>
</trkpt>
<trkpt lat="40.0713749" lon="-105.229789">
  <ele>1583.0</ele>
  <time>2026-09-02T20:50:17Z</time>
  <course>0.0</course>
  <speed>0.0</speed>
  <fix>3d</fix>
</trkpt>
<trkpt lat="40.0713749" lon="-105.229789">
  <ele>1583.0</ele>
  <time>2026-09-02T20:50:17Z</time>
  <course>0.0</course>
  <speed>0.0</speed>
  <fix>3d</fix>
</trkpt>
<trkpt lat="40.0713749" lon="-105.229789">
  <ele>1583.0</ele>
  <time>2026-09-02T20:50:17Z</time>
  <course>0.0</course>
  <speed>0.0</speed>
  <fix>3d</fix>
</trkpt>
<trkpt lat="40.0713749" lon="-105.229789">
  <ele>1583.0</ele>
  <time>2026-09-02T20:50:17Z</time>
  <course>0.0</course>
  <speed>0.0</speed>
  <fix>3d</fix>
</trkpt>
<trkpt lat="40.0713749" lon="-105.229789">
  <ele>1583.0</ele>
  <time>2026-09-02T20:50:17Z</time>
  <course>0.0</course>
  <speed>0.0</speed>
  <fix>3d</fix>
</trkpt>
<trkpt lat="40.0713749" lon="-105.229789">
  <ele>1583.0</ele>
  <time>2026-09-02T20:50:17Z</time>
  <course>0.0</course>
  <speed>0.0</speed>
  <fix>3d</fix>
</trkpt>
<trkpt lat="40.0713749" lon="-105.229789">
  <ele>1583.0</ele>
  <time>2026-09-02T20:50:17Z</time>
  <course>0.0</course>
  <speed>0.0</speed>
  <fix>3d</fix>
</trkpt>
<trkpt lat="40.0713749" lon="-105.229789">
  <ele>1583.0</ele>
  <time>2026-09-02T20:50:17Z</time>
  <course>0.0</course>
  <speed>0.0</speed>
  <fix>3d</fix>
</trkpt>
<trkpt lat="40.0713749" lon="-105.229789">
  <ele>1583.0</ele>
  <time>2026-09-02T20:50:17Z</time>
  <course>0.0</course>
  <speed>0.0</speed>
  <fix>3d</fix>
</trkpt>
<trkpt lat="40.0713749" lon="-105.229789">
  <ele>1583.0</ele>
  <time>2026-09-02T20:50:17Z</time>
  <course>0.0</course>
  <speed>0.0</speed>
  <fix>3d</fix>
</trkpt>
<trkpt lat="40.0713749" lon="-105.229789">
  <ele>1583.0</ele>
  <time>2026-09-02T20:50:17Z</time>
  <course>0.0</course>
  <speed>0.0</speed>
  <fix>3d</fix>
</trkpt>
<trkpt lat="40.0713749" lon="-105.229789">
  <ele>1583.0</ele>
  <time>2026-09-02T20:50:17Z</time>
  <course>0.0</course>
  <speed>0.0</speed>
  <fix>3d</fix>
</trkpt>
<trkpt lat="40.0713749" lon="-105.229789">
  <ele>1583.0</ele>
  <time>2026-09-02T20:50:17Z</time>
  <course>0.0</course>
  <speed>0.0</speed>
  <fix>3d</fix>
</trkpt>
<trkpt lat="40.0713749" lon="-105.229789">
  <ele>1583.0</ele>
  <time>2026-09-02T20:50:17Z</time>
  <course>0.0</course>
  <speed>0.0</speed>
  <fix>3d</fix>
</trkpt>
<trkpt lat="40.0713749" lon="-105.229789">
  <ele>1583.0</ele>
  <time>2026-09-02T20:50:17Z</time>
  <course>0.0</course>
  <speed>0.0</speed>
  <fix>3d</fix>
</trkpt>
<trkpt lat="40.0713749" lon="-105.229789">
  <ele>1583.0</ele>
  <time>2026-09-02T20:50:17Z</time>
  <course>0.0</course>
  <speed>0.0</speed>
  <fix>3d</fix>
</trkpt>
<trkpt lat="40.0713749" lon="-105.229789">
  <ele>1583.0</ele>
  <time>2026-09-02T20:50:17Z</time>
  <course>0.0</course>
  <speed>0.0</speed>
  <fix>3d</fix>
</trkpt>
<trkpt lat="40.0713749" lon="-105.229789">
  <ele>1583.0</ele>
  <time>2026-09-02T20:50:17Z</time>
  <course>0.0</course>
  <speed>0.0</speed>
  <fix>3d</fix>
</trkpt>
<trkpt lat="40.0713749" lon="-105.229789">
  <ele>1583.0</ele>
  <time>2026-09-02T20:50:17Z</time>
  <course>0.0</course>
  <speed>0.0</speed>
  <fix>3d</fix>
</trkpt>
<trkpt lat="40.0713749" lon="-105.229789">
  <ele>1583.0</ele>
  <time>2026-09-02T20:50:17Z</time>
  <course>0.0</course>
  <speed>0.0</speed>
  <fix>3d</fix>
</trkpt>
<trkpt lat="40.0713749" lon="-105.229789">
  <ele>1583.0</ele>
  <time>2026-09-02T20:50:17Z</time>
  <course>0.0</course>
  <speed>0.0</speed>
  <fix>3d</fix>
</trkpt>
<trkpt lat="40.0713749" lon="-105.229789">
  <ele>1583.0</ele>
  <time>2026-09-02T20:50:17Z</time>
  <course>0.0</course>
  <speed>0.0</speed>
  <fix>3d</fix>
</trkpt>
<trkpt lat="40.0713749" lon="-105.229789">
  <ele>1583.0</ele>
  <time>2026-09-02T20:50:17Z</time>
  <course>0.0</course>
  <speed>0.0</speed>
  <fix>3d</fix>
</trkpt>
<trkpt lat="40.0713749" lon="-105.229789">
  <ele>1583.0</ele>
  <time>2026-09-02T20:50:17Z</time>
  <course>0.0</course>
  <speed>0.0</speed>
  <fix>3d</fix>
</trkpt>
<trkpt lat="40.0713749" lon="-105.229789">
  <ele>1583.0</ele>
  <time>2026-09-02T20:50:17Z</time>
  <course>0.0</course>
  <speed>0.0</speed>
  <fix>3d</fix>
</trkpt>
<trkpt lat="40.0713749" lon="-105.229789">
  <ele>1583.0</ele>
  <time>2026-09-02T20:50:17Z</time>
  <course>0.0</course>
  <speed>0.0</speed>
  <fix>3d</fix>
</trkpt>
<trkpt lat="40.0713749" lon="-105.229789">
  <ele>1583.0</ele>
  <time>2026-09-02T20:50:17Z</time>
  <course>0.0</course>
  <speed>0.0</speed>
  <fix>3d</fix>
</trkpt>
<trkpt lat="40.0713749" lon="-105.229789">
  <ele>1583.0</ele>
  <time>2026-09-02T20:50:17Z</time>
  <course>0.0</course>
  <speed>0.0</speed>
  <fix>3d</fix>
</trkpt>
<trkpt lat="40.0713749" lon="-105.229789">
  <ele>1583.0</ele>
  <time>2026-09-02T20:50:17Z</time>
  <course>0.0</course>
  <speed>0.0</speed>
  <fix>3d</fix>
</trkpt>
<trkpt lat="40.0713749" lon="-105.229789">
  <ele>1583.0</ele>
  <time>2026-09-02T20:50:17Z</time>
  <course>0.0</course>
  <speed>0.0</speed>
  <fix>3d</fix>
</trkpt>
<trkpt lat="40.0713749" lon="-105.229789">
  <ele>1583.0</ele>
  <time>2026-09-02T20:50:17Z</time>
  <course>0.0</course>
  <speed>0.0</speed>
  <fix>3d</fix>
</trkpt>
<trkpt lat="40.0713749" lon="-105.229789">
  <ele>1583.0</ele>
  <time>2026-09-02T20:50:17Z</time>
  <course>0.0</course>
  <speed>0.0</speed>
  <fix>3d</fix>
</trkpt>
<trkpt lat="40.0713749" lon="-105.229789">
  <ele>1583.0</ele>
  <time>2026-09-02T20:50:17Z</time>
  <course>0.0</course>
  <speed>0.0</speed>
  <fix>3d</fix>
</trkpt>
<trkpt lat="40.0713749" lon="-105.229789">
  <ele>1583.0</ele>
  <time>2026-09-02T20:50:17Z</time>
  <course>0.0</course>
  <speed>0.0</speed>
  <fix>3d</fix>
</trkpt>
<trkpt lat="40.0713749" lon="-105.229789">
  <ele>1583.0</ele>
  <time>2026-09-02T20:50:17Z</time>
  <course>0.0</course>
  <speed>0.0</speed>
  <fix>3d</fix>
</trkpt>
<trkpt lat="40.0713749" lon="-105.229789">
  <ele>1583.0</ele>
  <time>2026-09-02T20:50:17Z</time>
  <course>0.0</course>
  <speed>0.0</speed>
  <fix>3d</fix>
</trkpt>
<trkpt lat="40.0713749" lon="-105.229789">
  <ele>1583.0</ele>
  <time>2026-09-02T20:50:17Z</time>
  <course>0.0</course>
  <speed>0.0</speed>
  <fix>3d</fix>
</trkpt>
<trkpt lat="40.0713749" lon="-105.229789">
  <ele>1583.0</ele>
  <time>2026-09-02T20:50:17Z</time>
  <course>0.0</course>
  <speed>0.0</speed>
  <fix>3d</fix>
</trkpt>
<trkpt lat="40.0713749" lon="-105.229789">
  <ele>1583.0</ele>
  <time>2026-09-02T20:50:17Z</time>
  <course>0.0</course>
  <speed>0.0</speed>
  <fix>3d</fix>
</trkpt>
<trkpt lat="40.0713749" lon="-105.229789">
  <ele>1583.0</ele>
  <time>2026-09-02T20:50:17Z</time>
  <course>0.0</course>
  <speed>0.0</speed>
  <fix>3d</fix>
</trkpt>
<trkpt lat="40.0713749" lon="-105.229789">
  <ele>1583.0</ele>
  <time>2026-09-02T20:50:17Z</time>
  <course>0.0</course>
  <speed>0.0</speed>
  <fix>3d</fix>
</trkpt>
<trkpt lat="40.0713749" lon="-105.229789">
  <ele>1583.0</ele>
  <time>2026-09-02T20:50:17Z</time>
  <course>0.0</course>
  <speed>0.0</speed>
  <fix>3d</fix>
</trkpt>
<trkpt lat="40.0713749" lon="-105.229789">
  <ele>1583.0</ele>
  <time>2026-09-02T20:50:17Z</time>
  <course>0.0</course>
  <speed>0.0</speed>
  <fix>3d</fix>
</trkpt>
<trkpt lat="40.0713749" lon="-105.229789">
  <ele>1583.0</ele>
  <time>2026-09-02T20:50:17Z</time>
  <course>0.0</course>
  <speed>0.0</speed>
  <fix>3d</fix>
</trkpt>
<trkpt lat="40.0713749" lon="-105.229789">
  <ele>1583.0</ele>
  <time>2026-09-02T20:50:17Z</time>
  <course>0.0</course>
  <speed>0.0</speed>
  <fix>3d</fix>
</trkpt>
<trkpt lat="40.0713749" lon="-105.229789">
  <ele>1583.0</ele>
  <time>2026-09-02T20:50:17Z</time>
  <course>0.0</course>
  <speed>0.0</speed>
  <fix>3d</fix>
</trkpt>
<trkpt lat="40.0713749" lon="-105.229789">
  <ele>1583.0</ele>
  <time>2026-09-02T20:50:17Z</time>
  <course>0.0</course>
  <speed>0.0</speed>
  <fix>3d</fix>
</trkpt>
<trkpt lat="40.0713749" lon="-105.229789">
  <ele>1583.0</ele>
  <time>2026-09-02T20:50:17Z</time>
  <course>0.0</course>
  <speed>0.0</speed>
  <fix>3d</fix>
</trkpt>
<trkpt lat="40.0713749" lon="-105.229789">
  <ele>1583.0</ele>
  <time>2026-09-02T20:50:17Z</time>
  <course>0.0</course>
  <speed>0.0</speed>
  <fix>3d</fix>
</trkpt>
<trkpt lat="40.0713749" lon="-105.229789">
  <ele>1583.0</ele>
  <time>2026-09-02T20:50:17Z</time>
  <course>0.0</course>
  <speed>0.0</speed>
  <fix>3d</fix>
</trkpt>
<trkpt lat="40.0713749" lon="-105.229789">
  <ele>1583.0</ele>
  <time>2026-09-02T20:50:17Z</time>
  <course>0.0</course>
  <speed>0.0</speed>
  <fix>3d</fix>
</trkpt>
<trkpt lat="40.0713749" lon="-105.229789">
  <ele>1583.0</ele>
  <time>2026-09-02T20:50:17Z</time>
  <course>0.0</course>
  <speed>0.0</speed>
  <fix>3d</fix>
</trkpt>
<trkpt lat="40.0713749" lon="-105.229789">
  <ele>1583.0</ele>
  <time>2026-09-02T20:50:17Z</time>
  <course>0.0</course>
  <speed>0.0</speed>
  <fix>3d</fix>
</trkpt>
<trkpt lat="40.0713749" lon="-105.229789">
  <ele>1583.0</ele>
  <time>2026-09-02T20:50:17Z</time>
  <course>0.0</course>
  <speed>0.0</speed>
  <fix>3d</fix>
</trkpt>
<trkpt lat="40.0713749" lon="-105.229789">
  <ele>1583.0</ele>
  <time>2026-09-02T20:50:17Z</time>
  <course>0.0</course>
  <speed>0.0</speed>
  <fix>3d</fix>
</trkpt>
<trkpt lat="40.0713749" lon="-105.229789">
  <ele>1583.0</ele>
  <time>2026-09-02T20:50:17Z</time>
  <course>0.0</course>
  <speed>0.0</speed>
  <fix>3d</fix>
</trkpt>
<trkpt lat="40.0713749" lon="-105.229789">
  <ele>1583.0</ele>
  <time>2026-09-02T20:50:17Z</time>
  <course>0.0</course>
  <speed>0.0</speed>
  <fix>3d</fix>
</trkpt>
<trkpt lat="40.0713749" lon="-105.229789">
  <ele>1583.0</ele>
  <time>2026-09-02T20:50:17Z</time>
  <course>0.0</course>
  <speed>0.0</speed>
  <fix>3d</fix>
</trkpt>
<trkpt lat="40.0713749" lon="-105.229789">
  <ele>1583.0</ele>
  <time>2026-09-02T20:50:17Z</time>
  <course>0.0</course>
  <speed>0.0</speed>
  <fix>3d</fix>
</trkpt>
<trkpt lat="40.0713749" lon="-105.229789">
  <ele>1583.0</ele>
  <time>2026-09-02T20:50:17Z</time>
  <course>0.0</course>
  <speed>0.0</speed>
  <fix>3d</fix>
</trkpt>
<trkpt lat="40.0713749" lon="-105.229789">
  <ele>1583.0</ele>
  <time>2026-09-02T20:50:17Z</time>
  <course>0.0</course>
  <speed>0.0</speed>
  <fix>3d</fix>
</trkpt>
<trkpt lat="40.0713749" lon="-105.229789">
  <ele>1583.0</ele>
  <time>2026-09-02T20:50:17Z</time>
  <course>0.0</course>
  <speed>0.0</speed>
  <fix>3d</fix>
</trkpt>
<trkpt lat="40.0713749" lon="-105.229789">
  <ele>1583.0</ele>
  <time>2026-09-02T20:50:17Z</time>
  <course>0.0</course>
  <speed>0.0</speed>
  <fix>3d</fix>
</trkpt>
<trkpt lat="40.0713749" lon="-105.229789">
  <ele>1583.0</ele>
  <time>2026-09-02T20:50:17Z</time>
  <course>0.0</course>
  <speed>0.0</speed>
  <fix>3d</fix>
</trkpt>
<trkpt lat="40.0713749" lon="-105.229789">
  <ele>1583.0</ele>
  <time>2026-09-02T20:50:17Z</time>
  <course>0.0</course>
  <speed>0.0</speed>
  <fix>3d</fix>
</trkpt>
<trkpt lat="40.0713749" lon="-105.229789">
  <ele>1583.0</ele>
  <time>2026-09-02T20:50:17Z</time>
  <course>0.0</course>
  <speed>0.0</speed>
  <fix>3d</fix>
</trkpt>
<trkpt lat="40.0713749" lon="-105.229789">
  <ele>1583.0</ele>
  <time>2026-09-02T20:50:17Z</time>
  <course>0.0</course>
  <speed>0.0</speed>
  <fix>3d</fix>
</trkpt>
<trkpt lat="40.0713749" lon="-105.229789">
  <ele>1583.0</ele>
  <time>2026-09-02T20:50:17Z</time>
  <course>0.0</course>
  <speed>0.0</speed>
  <fix>3d</fix>
</trkpt>
<trkpt lat="40.0713749" lon="-105.229789">
  <ele>1583.0</ele>
  <time>2026-09-02T20:50:17Z</time>
  <course>0.0</course>
  <speed>0.0</speed>
  <fix>3d</fix>
</trkpt>
<trkpt lat="40.0713749" lon="-105.229789">
  <ele>1583.0</ele>
  <time>2026-09-02T20:50:17Z</time>
  <course>0.0</course>
  <speed>0.0</speed>
  <fix>3d</fix>
</trkpt>
<trkpt lat="40.0713749" lon="-105.229789">
  <ele>1583.0</ele>
  <time>2026-09-02T20:50:17Z</time>
  <course>0.0</course>
  <speed>0.0</speed>
  <fix>3d</fix>
</trkpt>
<trkpt lat="40.0713749" lon="-105.229789">
  <ele>1583.0</ele>
  <time>2026-09-02T20:50:17Z</time>
  <course>0.0</course>
  <speed>0.0</speed>
  <fix>3d</fix>
</trkpt>
<trkpt lat="40.0713749" lon="-105.229789">
  <ele>1583.0</ele>
  <time>2026-09-02T20:50:17Z</time>
  <course>0.0</course>
  <speed>0.0</speed>
  <fix>3d</fix>
</trkpt>
<trkpt lat="40.0713749" lon="-105.229789">
  <ele>1583.0</ele>
  <time>2026-09-02T20:50:17Z</time>
  <course>0.0</course>
  <speed>0.0</speed>
  <fix>3d</fix>
</trkpt>
<trkpt lat="40.0713749" lon="-105.229789">
  <ele>1583.0</ele>
  <time>2026-09-02T20:50:17Z</time>
  <course>0.0</course>
  <speed>0.0</speed>
  <fix>3d</fix>
</trkpt>
<trkpt lat="40.0713749" lon="-105.229789">
  <ele>1583.0</ele>
  <time>2026-09-02T20:50:17Z</time>
  <course>0.0</course>
  <speed>0.0</speed>
  <fix>3d</fix>
</trkpt>
<trkpt lat="40.0713749" lon="-105.229789">
  <ele>1583.0</ele>
  <time>2026-09-02T20:50:17Z</time>
  <course>0.0</course>
  <speed>0.0</speed>
  <fix>3d</fix>
</trkpt>
<trkpt lat="40.0713749" lon="-105.229789">
  <ele>1583.0</ele>
  <time>2026-09-02T20:50:17Z</time>
  <course>0.0</course>
  <speed>0.0</speed>
  <fix>3d</fix>
</trkpt>
<trkpt lat="40.0713749" lon="-105.229789">
  <ele>1583.0</ele>
  <time>2026-09-02T20:50:17Z</time>
  <course>0.0</course>
  <speed>0.0</speed>
  <fix>3d</fix>
</trkpt>
<trkpt lat="40.0713749" lon="-105.229789">
  <ele>1583.0</ele>
  <time>2026-09-02T20:50:17Z</time>
  <course>0.0</course>
  <speed>0.0</speed>
  <fix>3d</fix>
</trkpt>
<trkpt lat="40.0713749" lon="-105.229789">
  <ele>1583.0</ele>
  <time>2026-09-02T20:50:17Z</time>
  <course>0.0</course>
  <speed>0.0</speed>
  <fix>3d</fix>
</trkpt>
<trkpt lat="40.0713749" lon="-105.229789">
  <ele>1583.0</ele>
  <time>2026-09-02T20:50:17Z</time>
  <course>0.0</course>
  <speed>0.0</speed>
  <fix>3d</fix>
</trkpt>
<trkpt lat="40.0713749" lon="-105.229789">
  <ele>1583.0</ele>
  <time>2026-09-02T20:50:17Z</time>
  <course>0.0</course>
  <speed>0.0</speed>
  <fix>3d</fix>
</trkpt>
<trkpt lat="40.0713749" lon="-105.229789">
  <ele>1583.0</ele>
  <time>2026-09-02T20:50:17Z</time>
  <course>0.0</course>
  <speed>0.0</speed>
  <fix>3d</fix>
</trkpt>
<trkpt lat="40.0713749" lon="-105.229789">
  <ele>1583.0</ele>
  <time>2026-09-02T20:50:17Z</time>
  <course>0.0</course>
  <speed>0.0</speed>
  <fix>3d</fix>
</trkpt>
<trkpt lat="40.0713749" lon="-105.229789">
  <ele>1583.0</ele>
  <time>2026-09-02T20:50:17Z</time>
  <course>0.0</course>
  <speed>0.0</speed>
  <fix>3d</fix>
</trkpt>
<trkpt lat="40.0713749" lon="-105.229789">
  <ele>1583.0</ele>
  <time>2026-09-02T20:50:17Z</time>
  <course>0.0</course>
  <speed>0.0</speed>
  <fix>3d</fix>
</trkpt>
<trkpt lat="40.0713749" lon="-105.229789">
  <ele>1583.0</ele>
  <time>2026-09-02T20:50:17Z</time>
  <course>0.0</course>
  <speed>0.0</speed>
  <fix>3d</fix>
</trkpt>
<trkpt lat="40.0713749" lon="-105.229789">
  <ele>1583.0</ele>
  <time>2026-09-02T20:50:17Z</time>
  <course>0.0</course>
  <speed>0.0</speed>
  <fix>3d</fix>
</trkpt>
<trkpt lat="40.0713749" lon="-105.229789">
  <ele>1583.0</ele>
  <time>2026-09-02T20:50:17Z</time>
  <course>0.0</course>
  <speed>0.0</speed>
  <fix>3d</fix>
</trkpt>
<trkpt lat="40.0713749" lon="-105.229789">
  <ele>1583.0</ele>
  <time>2026-09-02T20:50:17Z</time>
  <course>0.0</course>
  <speed>0.0</speed>
  <fix>3d</fix>
</trkpt>
<trkpt lat="40.0713749" lon="-105.229789">
  <ele>1583.0</ele>
  <time>2026-09-02T20:50:17Z</time>
  <course>0.0</course>
  <speed>0.0</speed>
  <fix>3d</fix>
</trkpt>
<trkpt lat="40.0713749" lon="-105.229789">
  <ele>1583.0</ele>
  <time>2026-09-02T20:50:17Z</time>
  <course>0.0</course>
  <speed>0.0</speed>
  <fix>3d</fix>
</trkpt>
<trkpt lat="40.0713749" lon="-105.229789">
  <ele>1583.0</ele>
  <time>2026-09-02T20:50:17Z</time>
  <course>0.0</course>
  <speed>0.0</speed>
  <fix>3d</fix>
</trkpt>
<trkpt lat="40.0713749" lon="-105.229789">
  <ele>1583.0</ele>
  <time>2026-09-02T20:50:17Z</time>
  <course>0.0</course>
  <speed>0.0</speed>
  <fix>3d</fix>
</trkpt>
<trkpt lat="40.0713749" lon="-105.229789">
  <ele>1583.0</ele>
  <time>2026-09-02T20:50:17Z</time>
  <course>0.0</course>
  <speed>0.0</speed>
  <fix>3d</fix>
</trkpt>
<trkpt lat="40.0713749" lon="-105.229789">
  <ele>1583.0</ele>
  <time>2026-09-02T20:50:17Z</time>
  <course>0.0</course>
  <speed>0.0</speed>
  <fix>3d</fix>
</trkpt>
<trkpt lat="40.0713749" lon="-105.229789">
  <ele>1583.0</ele>
  <time>2026-09-02T20:50:17Z</time>
  <course>0.0</course>
  <speed>0.0</speed>
  <fix>3d</fix>
</trkpt>
<trkpt lat="40.0713749" lon="-105.229789">
  <ele>1583.0</ele>
  <time>2026-09-02T20:50:17Z</time>
  <course>0.0</course>
  <speed>0.0</speed>
  <fix>3d</fix>
</trkpt>
<trkpt lat="40.0713749" lon="-105.229789">
  <ele>1583.0</ele>
  <time>2026-09-02T20:50:17Z</time>
  <course>0.0</course>
  <speed>0.0</speed>
  <fix>3d</fix>
</trkpt>
<trkpt lat="40.0713749" lon="-105.229789">
  <ele>1583.0</ele>
  <time>2026-09-02T20:50:17Z</time>
  <course>0.0</course>
  <speed>0.0</speed>
  <fix>3d</fix>
</trkpt>
<trkpt lat="40.0713749" lon="-105.229789">
  <ele>1583.0</ele>
  <time>2026-09-02T20:50:17Z</time>
  <course>0.0</course>
  <speed>0.0</speed>
  <fix>3d</fix>
</trkpt>
<trkpt lat="40.0713749" lon="-105.229789">
  <ele>1583.0</ele>
  <time>2026-09-02T20:50:17Z</time>
  <course>0.0</course>
  <speed>0.0</speed>
  <fix>3d</fix>
</trkpt>
<trkpt lat="40.0713749" lon="-105.229789">
  <ele>1583.0</ele>
  <time>2026-09-02T20:50:17Z</time>
  <course>0.0</course>
  <speed>0.0</speed>
  <fix>3d</fix>
</trkpt>
<trkpt lat="40.0713749" lon="-105.229789">
  <ele>1583.0</ele>
  <time>2026-09-02T20:50:17Z</time>
  <course>0.0</course>
  <speed>0.0</speed>
  <fix>3d</fix>
</trkpt>
<trkpt lat="40.0713749" lon="-105.229789">
  <ele>1583.0</ele>
  <time>2026-09-02T20:50:17Z</time>
  <course>0.0</course>
  <speed>0.0</speed>
  <fix>3d</fix>
</trkpt>
<trkpt lat="40.0713749" lon="-105.229789">
  <ele>1583.0</ele>
  <time>2026-09-02T20:50:17Z</time>
  <course>0.0</course>
  <speed>0.0</speed>
  <fix>3d</fix>
</trkpt>
<trkpt lat="40.0713749" lon="-105.229789">
  <ele>1583.0</ele>
  <time>2026-09-02T20:50:17Z</time>
  <course>0.0</course>
  <speed>0.0</speed>
  <fix>3d</fix>
</trkpt>
<trkpt lat="40.0713749" lon="-105.229789">
  <ele>1583.0</ele>
  <time>2026-09-02T20:50:17Z</time>
  <course>0.0</course>
  <speed>0.0</speed>
  <fix>3d</fix>
</trkpt>
<trkpt lat="40.0713749" lon="-105.229789">
  <ele>1583.0</ele>
  <time>2026-09-02T20:50:17Z</time>
  <course>0.0</course>
  <speed>0.0</speed>
  <fix>3d</fix>
</trkpt>
<trkpt lat="40.0713749" lon="-105.229789">
  <ele>1583.0</ele>
  <time>2026-09-02T20:50:17Z</time>
  <course>0.0</course>
  <speed>0.0</speed>
  <fix>3d</fix>
</trkpt>
<trkpt lat="40.0713749" lon="-105.229789">
  <ele>1583.0</ele>
  <time>2026-09-02T20:50:17Z</time>
  <course>0.0</course>
  <speed>0.0</speed>
  <fix>3d</fix>
</trkpt>
<trkpt lat="40.0713749" lon="-105.229789">
  <ele>1583.0</ele>
  <time>2026-09-02T20:50:17Z</time>
  <course>0.0</course>
  <speed>0.0</speed>
  <fix>3d</fix>
</trkpt>
<trkpt lat="40.0713749" lon="-105.229789">
  <ele>1583.0</ele>
  <time>2026-09-02T20:50:17Z</time>
  <course>0.0</course>
  <speed>0.0</speed>
  <fix>3d</fix>
</trkpt>
<trkpt lat="40.0713749" lon="-105.229789">
  <ele>1583.0</ele>
  <time>2026-09-02T20:50:17Z</time>
  <course>0.0</course>
  <speed>0.0</speed>
  <fix>3d</fix>
</trkpt>
<trkpt lat="40.0713749" lon="-105.229789">
  <ele>1583.0</ele>
  <time>2026-09-02T20:50:17Z</time>
  <course>0.0</course>
  <speed>0.0</speed>
  <fix>3d</fix>
</trkpt>
<trkpt lat="40.0713749" lon="-105.229789">
  <ele>1583.0</ele>
  <time>2026-09-02T20:50:17Z</time>
  <course>0.0</course>
  <speed>0.0</speed>
  <fix>3d</fix>
</trkpt>
<trkpt lat="40.0713749" lon="-105.229789">
  <ele>1583.0</ele>
  <time>2026-09-02T20:50:17Z</time>
  <course>0.0</course>
  <speed>0.0</speed>
  <fix>3d</fix>
</trkpt>
<trkpt lat="40.0713749" lon="-105.229789">
  <ele>1583.0</ele>
  <time>2026-09-02T20:50:17Z</time>
  <course>0.0</course>
  <speed>0.0</speed>
  <fix>3d</fix>
</trkpt>
<trkpt lat="40.0713749" lon="-105.229789">
  <ele>1583.0</ele>
  <time>2026-09-02T20:50:17Z</time>
  <course>0.0</course>
  <speed>0.0</speed>
  <fix>3d</fix>
</trkpt>
<trkpt lat="40.0713749" lon="-105.229789">
  <ele>1583.0</ele>
  <time>2026-09-02T20:50:17Z</time>
  <course>0.0</course>
  <speed>0.0</speed>
  <fix>3d</fix>
</trkpt>
<trkpt lat="40.0713749" lon="-105.229789">
  <ele>1583.0</ele>
  <time>2026-09-02T20:50:17Z</time>
  <course>0.0</course>
  <speed>0.0</speed>
  <fix>3d</fix>
</trkpt>
<trkpt lat="40.0713749" lon="-105.229789">
  <ele>1583.0</ele>
  <time>2026-09-02T20:50:17Z</time>
  <course>0.0</course>
  <speed>0.0</speed>
  <fix>3d</fix>
</trkpt>
<trkpt lat="40.0713749" lon="-105.229789">
  <ele>1583.0</ele>
  <time>2026-09-02T20:50:17Z</time>
  <course>0.0</course>
  <speed>0.0</speed>
  <fix>3d</fix>
</trkpt>
<trkpt lat="40.0713749" lon="-105.229789">
  <ele>1583.0</ele>
  <time>2026-09-02T20:50:17Z</time>
  <course>0.0</course>
  <speed>0.0</speed>
  <fix>3d</fix>
</trkpt>
<trkpt lat="40.0713749" lon="-105.229789">
  <ele>1583.0</ele>
  <time>2026-09-02T20:50:17Z</time>
  <course>0.0</course>
  <speed>0.0</speed>
  <fix>3d</fix>
</trkpt>
<trkpt lat="40.0713749" lon="-105.229789">
  <ele>1583.0</ele>
  <time>2026-09-02T20:50:17Z</time>
  <course>0.0</course>
  <speed>0.0</speed>
  <fix>3d</fix>
</trkpt>
<trkpt lat="40.0713749" lon="-105.229789">
  <ele>1583.0</ele>
  <time>2026-09-02T20:50:17Z</time>
  <course>0.0</course>
  <speed>0.0</speed>
  <fix>3d</fix>
</trkpt>
<trkpt lat="40.0713749" lon="-105.229789">
  <ele>1583.0</ele>
  <time>2026-09-02T20:50:17Z</time>
  <course>0.0</course>
  <speed>0.0</speed>
  <fix>3d</fix>
</trkpt>
<trkpt lat="40.0713749" lon="-105.229789">
  <ele>1583.0</ele>
  <time>2026-09-02T20:50:17Z</time>
  <course>0.0</course>
  <speed>0.0</speed>
  <fix>3d</fix>
</trkpt>
<trkpt lat="40.0713749" lon="-105.229789">
  <ele>1583.0</ele>
  <time>2026-09-02T20:50:17Z</time>
  <course>0.0</course>
  <speed>0.0</speed>
  <fix>3d</fix>
</trkpt>
<trkpt lat="40.0713749" lon="-105.229789">
  <ele>1583.0</ele>
  <time>2026-09-02T20:50:17Z</time>
  <course>0.0</course>
  <speed>0.0</speed>
  <fix>3d</fix>
</trkpt>
<trkpt lat="40.0713749" lon="-105.229789">
  <ele>1583.0</ele>
  <time>2026-09-02T20:50:17Z</time>
  <course>0.0</course>
  <speed>0.0</speed>
  <fix>3d</fix>
</trkpt>
<trkpt lat="40.0713749" lon="-105.229789">
  <ele>1583.0</ele>
  <time>2026-09-02T20:50:17Z</time>
  <course>0.0</course>
  <speed>0.0</speed>
  <fix>3d</fix>
</trkpt>
<trkpt lat="40.0713749" lon="-105.229789">
  <ele>1583.0</ele>
  <time>2026-09-02T20:50:17Z</time>
  <course>0.0</course>
  <speed>0.0</speed>
  <fix>3d</fix>
</trkpt>
<trkpt lat="40.0713749" lon="-105.229789">
  <ele>1583.0</ele>
  <time>2026-09-02T20:50:17Z</time>
  <course>0.0</course>
  <speed>0.0</speed>
  <fix>3d</fix>
</trkpt>
<trkpt lat="40.0713749" lon="-105.229789">
  <ele>1583.0</ele>
  <time>2026-09-02T20:50:17Z</time>
  <course>0.0</course>
  <speed>0.0</speed>
  <fix>3d</fix>
</trkpt>
<trkpt lat="40.0713749" lon="-105.229789">
  <ele>1583.0</ele>
  <time>2026-09-02T20:50:17Z</time>
  <course>0.0</course>
  <speed>0.0</speed>
  <fix>3d</fix>
</trkpt>
<trkpt lat="40.0713749" lon="-105.229789">
  <ele>1583.0</ele>
  <time>2026-09-02T20:50:17Z</time>
  <course>0.0</course>
  <speed>0.0</speed>
  <fix>3d</fix>
</trkpt>
<trkpt lat="40.0713749" lon="-105.229789">
  <ele>1583.0</ele>
  <time>2026-09-02T20:50:17Z</time>
  <course>0.0</course>
  <speed>0.0</speed>
  <fix>3d</fix>
</trkpt>
<trkpt lat="40.0713749" lon="-105.229789">
  <ele>1583.0</ele>
  <time>2026-09-02T20:50:17Z</time>
  <course>0.0</course>
  <speed>0.0</speed>
  <fix>3d</fix>
</trkpt>
<trkpt lat="40.0713749" lon="-105.229789">
  <ele>1583.0</ele>
  <time>2026-09-02T20:50:17Z</time>
  <course>0.0</course>
  <speed>0.0</speed>
  <fix>3d</fix>
</trkpt>
<trkpt lat="40.0713749" lon="-105.229789">
  <ele>1583.0</ele>
  <time>2026-09-02T20:50:17Z</time>
  <course>0.0</course>
  <speed>0.0</speed>
  <fix>3d</fix>
</trkpt>
<trkpt lat="40.0713749" lon="-105.229789">
  <ele>1583.0</ele>
  <time>2026-09-02T20:50:17Z</time>
  <course>0.0</course>
  <speed>0.0</speed>
  <fix>3d</fix>
</trkpt>
<trkpt lat="40.0713749" lon="-105.229789">
  <ele>1583.0</ele>
  <time>2026-09-02T20:50:17Z</time>
  <course>0.0</course>
  <speed>0.0</speed>
  <fix>3d</fix>
</trkpt>
<trkpt lat="40.0713749" lon="-105.229789">
  <ele>1583.0</ele>
  <time>2026-09-02T20:50:17Z</time>
  <course>0.0</course>
  <speed>0.0</speed>
  <fix>3d</fix>
</trkpt>
<trkpt lat="40.0713749" lon="-105.229789">
  <ele>1583.0</ele>
  <time>2026-09-02T20:50:17Z</time>
  <course>0.0</course>
  <speed>0.0</speed>
  <fix>3d</fix>
</trkpt>
<trkpt lat="40.0713749" lon="-105.229789">
  <ele>1583.0</ele>
  <time>2026-09-02T20:50:17Z</time>
  <course>0.0</course>
  <speed>0.0</speed>
  <fix>3d</fix>
</trkpt>
<trkpt lat="40.0713749" lon="-105.229789">
  <ele>1583.0</ele>
  <time>2026-09-02T20:50:17Z</time>
  <course>0.0</course>
  <speed>0.0</speed>
  <fix>3d</fix>
</trkpt>
<trkpt lat="40.0713749" lon="-105.229789">
  <ele>1583.0</ele>
  <time>2026-09-02T20:50:17Z</time>
  <course>0.0</course>
  <speed>0.0</speed>
  <fix>3d</fix>
</trkpt>
<trkpt lat="40.0713749" lon="-105.229789">
  <ele>1583.0</ele>
  <time>2026-09-02T20:50:17Z</time>
  <course>0.0</course>
  <speed>0.0</speed>
  <fix>3d</fix>
</trkpt>
<trkpt lat="40.0713749" lon="-105.229789">
  <ele>1583.0</ele>
  <time>2026-09-02T20:50:17Z</time>
  <course>0.0</course>
  <speed>0.0</speed>
  <fix>3d</fix>
</trkpt>
<trkpt lat="40.0713749" lon="-105.229789">
  <ele>1583.0</ele>
  <time>2026-09-02T20:50:17Z</time>
  <course>0.0</course>
  <speed>0.0</speed>
  <fix>3d</fix>
</trkpt>
<trkpt lat="40.0713749" lon="-105.229789">
  <ele>1583.0</ele>
  <time>2026-09-02T20:50:17Z</time>
  <course>0.0</course>
  <speed>0.0</speed>
  <fix>3d</fix>
</trkpt>
<trkpt lat="40.0713749" lon="-105.229789">
  <ele>1583.0</ele>
  <time>2026-09-02T20:50:17Z</time>
  <course>0.0</course>
  <speed>0.0</speed>
  <fix>3d</fix>
</trkpt>
<trkpt lat="40.0713749" lon="-105.229789">
  <ele>1583.0</ele>
  <time>2026-09-02T20:50:17Z</time>
  <course>0.0</course>
  <speed>0.0</speed>
  <fix>3d</fix>
</trkpt>
<trkpt lat="40.0713749" lon="-105.229789">
  <ele>1583.0</ele>
  <time>2026-09-02T20:50:17Z</time>
  <course>0.0</course>
  <speed>0.0</speed>
  <fix>3d</fix>
</trkpt>
<trkpt lat="40.0713749" lon="-105.229789">
  <ele>1583.0</ele>
  <time>2026-09-02T20:50:17Z</time>
  <course>0.0</course>
  <speed>0.0</speed>
  <fix>3d</fix>
</trkpt>
<trkpt lat="40.0713749" lon="-105.229789">
  <ele>1583.0</ele>
  <time>2026-09-02T20:50:17Z</time>
  <course>0.0</course>
  <speed>0.0</speed>
  <fix>3d</fix>
</trkpt>
<trkpt lat="40.0713749" lon="-105.229789">
  <ele>1583.0</ele>
  <time>2026-09-02T20:50:17Z</time>
  <course>0.0</course>
  <speed>0.0</speed>
  <fix>3d</fix>
</trkpt>
<trkpt lat="40.0713749" lon="-105.229789">
  <ele>1583.0</ele>
  <time>2026-09-02T20:50:17Z</time>
  <course>0.0</course>
  <speed>0.0</speed>
  <fix>3d</fix>
</trkpt>
<trkpt lat="40.0713749" lon="-105.229789">
  <ele>1583.0</ele>
  <time>2026-09-02T20:50:17Z</time>
  <course>0.0</course>
  <speed>0.0</speed>
  <fix>3d</fix>
</trkpt>
<trkpt lat="40.0713749" lon="-105.229789">
  <ele>1583.0</ele>
  <time>2026-09-02T20:50:17Z</time>
  <course>0.0</course>
  <speed>0.0</speed>
  <fix>3d</fix>
</trkpt>
<trkpt lat="40.0713749" lon="-105.229789">
  <ele>1583.0</ele>
  <time>2026-09-02T20:50:17Z</time>
  <course>0.0</course>
  <speed>0.0</speed>
  <fix>3d</fix>
</trkpt>
<trkpt lat="40.0713749" lon="-105.229789">
  <ele>1583.0</ele>
  <time>2026-09-02T20:50:17Z</time>
  <course>0.0</course>
  <speed>0.0</speed>
  <fix>3d</fix>
</trkpt>
<trkpt lat="40.0713749" lon="-105.229789">
  <ele>1583.0</ele>
  <time>2026-09-02T20:50:17Z</time>
  <course>0.0</course>
  <speed>0.0</speed>
  <fix>3d</fix>
</trkpt>
<trkpt lat="40.0713749" lon="-105.229789">
  <ele>1583.0</ele>
  <time>2026-09-02T20:50:17Z</time>
  <course>0.0</course>
  <speed>0.0</speed>
  <fix>3d</fix>
</trkpt>
<trkpt lat="40.0713749" lon="-105.229789">
  <ele>1583.0</ele>
  <time>2026-09-02T20:50:17Z</time>
  <course>0.0</course>
  <speed>0.0</speed>
  <fix>3d</fix>
</trkpt>
<trkpt lat="40.0713749" lon="-105.229789">
  <ele>1583.0</ele>
  <time>2026-09-02T20:50:17Z</time>
  <course>0.0</course>
  <speed>0.0</speed>
  <fix>3d</fix>
</trkpt>
<trkpt lat="40.0713749" lon="-105.229789">
  <ele>1583.0</ele>
  <time>2026-09-02T20:50:17Z</time>
  <course>0.0</course>
  <speed>0.0</speed>
  <fix>3d</fix>
</trkpt>
<trkpt lat="40.0713749" lon="-105.229789">
  <ele>1583.0</ele>
  <time>2026-09-02T20:50:17Z</time>
  <course>0.0</course>
  <speed>0.0</speed>
  <fix>3d</fix>
</trkpt>
<trkpt lat="40.0713749" lon="-105.229789">
  <ele>1583.0</ele>
  <time>2026-09-02T20:50:17Z</time>
  <course>0.0</course>
  <speed>0.0</speed>
  <fix>3d</fix>
</trkpt>
<trkpt lat="40.0713749" lon="-105.229789">
  <ele>1583.0</ele>
  <time>2026-09-02T20:50:17Z</time>
  <course>0.0</course>
  <speed>0.0</speed>
  <fix>3d</fix>
</trkpt>
<trkpt lat="40.0713749" lon="-105.229789">
  <ele>1583.0</ele>
  <time>2026-09-02T20:50:17Z</time>
  <course>0.0</course>
  <speed>0.0</speed>
  <fix>3d</fix>
</trkpt>
<trkpt lat="40.0713749" lon="-105.229789">
  <ele>1583.0</ele>
  <time>2026-09-02T20:50:17Z</time>
  <course>0.0</course>
  <speed>0.0</speed>
  <fix>3d</fix>
</trkpt>
<trkpt lat="40.0713749" lon="-105.229789">
  <ele>1583.0</ele>
  <time>2026-09-02T20:50:17Z</time>
  <course>0.0</course>
  <speed>0.0</speed>
  <fix>3d</fix>
</trkpt>
<trkpt lat="40.0713749" lon="-105.229789">
  <ele>1583.0</ele>
  <time>2026-09-02T20:50:17Z</time>
  <course>0.0</course>
  <speed>0.0</speed>
  <fix>3d</fix>
</trkpt>
<trkpt lat="40.0713749" lon="-105.229789">
  <ele>1583.0</ele>
  <time>2026-09-02T20:50:18Z</time>
  <course>0.0</course>
  <speed>0.0</speed>
  <fix>3d</fix>
</trkpt>
<trkpt lat="40.0713749" lon="-105.229789">
  <ele>1583.0</ele>
  <time>2026-09-02T20:50:18Z</time>
  <course>0.0</course>
  <speed>0.0</speed>
  <fix>3d</fix>
</trkpt>
<trkpt lat="40.0713749" lon="-105.229789">
  <ele>1583.0</ele>
  <time>2026-09-02T20:50:18Z</time>
  <course>0.0</course>
  <speed>0.0</speed>
  <fix>3d</fix>
</trkpt>
<trkpt lat="40.0713749" lon="-105.229789">
  <ele>1583.0</ele>
  <time>2026-09-02T20:50:18Z</time>
  <course>0.0</course>
  <speed>0.0</speed>
  <fix>3d</fix>
</trkpt>
<trkpt lat="40.0713749" lon="-105.229789">
  <ele>1583.0</ele>
  <time>2026-09-02T20:50:18Z</time>
  <course>0.0</course>
  <speed>0.0</speed>
  <fix>3d</fix>
</trkpt>
<trkpt lat="40.0713749" lon="-105.229789">
  <ele>1583.0</ele>
  <time>2026-09-02T20:50:18Z</time>
  <course>0.0</course>
  <speed>0.0</speed>
  <fix>3d</fix>
</trkpt>
<trkpt lat="40.0713749" lon="-105.229789">
  <ele>1583.0</ele>
  <time>2026-09-02T20:50:18Z</time>
  <course>0.0</course>
  <speed>0.0</speed>
  <fix>3d</fix>
</trkpt>
<trkpt lat="40.0713749" lon="-105.229789">
  <ele>1583.0</ele>
  <time>2026-09-02T20:50:18Z</time>
  <course>0.0</course>
  <speed>0.0</speed>
  <fix>3d</fix>
</trkpt>
<trkpt lat="40.0713749" lon="-105.229789">
  <ele>1583.0</ele>
  <time>2026-09-02T20:50:18Z</time>
  <course>0.0</course>
  <speed>0.0</speed>
  <fix>3d</fix>
</trkpt>
<trkpt lat="40.0713749" lon="-105.229789">
  <ele>1583.0</ele>
  <time>2026-09-02T20:50:18Z</time>
  <course>0.0</course>
  <speed>0.0</speed>
  <fix>3d</fix>
</trkpt>
<trkpt lat="40.0713749" lon="-105.229789">
  <ele>1583.0</ele>
  <time>2026-09-02T20:50:18Z</time>
  <course>0.0</course>
  <speed>0.0</speed>
  <fix>3d</fix>
</trkpt>
<trkpt lat="40.0713749" lon="-105.229789">
  <ele>1583.0</ele>
  <time>2026-09-02T20:50:18Z</time>
  <course>0.0</course>
  <speed>0.0</speed>
  <fix>3d</fix>
</trkpt>
<trkpt lat="40.0713749" lon="-105.229789">
  <ele>1583.0</ele>
  <time>2026-09-02T20:50:18Z</time>
  <course>0.0</course>
  <speed>0.0</speed>
  <fix>3d</fix>
</trkpt>
<trkpt lat="40.0713749" lon="-105.229789">
  <ele>1583.0</ele>
  <time>2026-09-02T20:50:18Z</time>
  <course>0.0</course>
  <speed>0.0</speed>
  <fix>3d</fix>
</trkpt>
<trkpt lat="40.0713749" lon="-105.229789">
  <ele>1583.0</ele>
  <time>2026-09-02T20:50:18Z</time>
  <course>0.0</course>
  <speed>0.0</speed>
  <fix>3d</fix>
</trkpt>
<trkpt lat="40.0713749" lon="-105.229789">
  <ele>1583.0</ele>
  <time>2026-09-02T20:50:18Z</time>
  <course>0.0</course>
  <speed>0.0</speed>
  <fix>3d</fix>
</trkpt>
<trkpt lat="40.0713749" lon="-105.229789">
  <ele>1583.0</ele>
  <time>2026-09-02T20:50:18Z</time>
  <course>0.0</course>
  <speed>0.0</speed>
  <fix>3d</fix>
</trkpt>
<trkpt lat="40.0713749" lon="-105.229789">
  <ele>1583.0</ele>
  <time>2026-09-02T20:50:18Z</time>
  <course>0.0</course>
  <speed>0.0</speed>
  <fix>3d</fix>
</trkpt>
<trkpt lat="40.0713749" lon="-105.229789">
  <ele>1583.0</ele>
  <time>2026-09-02T20:50:18Z</time>
  <course>0.0</course>
  <speed>0.0</speed>
  <fix>3d</fix>
</trkpt>
<trkpt lat="40.0713749" lon="-105.229789">
  <ele>1583.0</ele>
  <time>2026-09-02T20:50:18Z</time>
  <course>0.0</course>
  <speed>0.0</speed>
  <fix>3d</fix>
</trkpt>
<trkpt lat="40.0713749" lon="-105.229789">
  <ele>1583.0</ele>
  <time>2026-09-02T20:50:18Z</time>
  <course>0.0</course>
  <speed>0.0</speed>
  <fix>3d</fix>
</trkpt>
<trkpt lat="40.0713749" lon="-105.229789">
  <ele>1583.0</ele>
  <time>2026-09-02T20:50:18Z</time>
  <course>0.0</course>
  <speed>0.0</speed>
  <fix>3d</fix>
</trkpt>
<trkpt lat="40.0713749" lon="-105.229789">
  <ele>1583.0</ele>
  <time>2026-09-02T20:50:18Z</time>
  <course>0.0</course>
  <speed>0.0</speed>
  <fix>3d</fix>
</trkpt>
<trkpt lat="40.0713749" lon="-105.229789">
  <ele>1583.0</ele>
  <time>2026-09-02T20:50:18Z</time>
  <course>0.0</course>
  <speed>0.0</speed>
  <fix>3d</fix>
</trkpt>
<trkpt lat="40.0713749" lon="-105.229789">
  <ele>1583.0</ele>
  <time>2026-09-02T20:50:18Z</time>
  <course>0.0</course>
  <speed>0.0</speed>
  <fix>3d</fix>
</trkpt>
<trkpt lat="40.0713749" lon="-105.229789">
  <ele>1583.0</ele>
  <time>2026-09-02T20:50:18Z</time>
  <course>0.0</course>
  <speed>0.0</speed>
  <fix>3d</fix>
</trkpt>
<trkpt lat="40.0713749" lon="-105.229789">
  <ele>1583.0</ele>
  <time>2026-09-02T20:50:18Z</time>
  <course>0.0</course>
  <speed>0.0</speed>
  <fix>3d</fix>
</trkpt>
<trkpt lat="40.0713749" lon="-105.229789">
  <ele>1583.0</ele>
  <time>2026-09-02T20:50:18Z</time>
  <course>0.0</course>
  <speed>0.0</speed>
  <fix>3d</fix>
</trkpt>
<trkpt lat="40.0713749" lon="-105.229789">
  <ele>1583.0</ele>
  <time>2026-09-02T20:50:18Z</time>
  <course>0.0</course>
  <speed>0.0</speed>
  <fix>3d</fix>
</trkpt>
<trkpt lat="40.0713749" lon="-105.229789">
  <ele>1583.0</ele>
  <time>2026-09-02T20:50:18Z</time>
  <course>0.0</course>
  <speed>0.0</speed>
  <fix>3d</fix>
</trkpt>
<trkpt lat="40.0713749" lon="-105.229789">
  <ele>1583.0</ele>
  <time>2026-09-02T20:50:18Z</time>
  <course>0.0</course>
  <speed>0.0</speed>
  <fix>3d</fix>
</trkpt>
<trkpt lat="40.0713749" lon="-105.229789">
  <ele>1583.0</ele>
  <time>2026-09-02T20:50:18Z</time>
  <course>0.0</course>
  <speed>0.0</speed>
  <fix>3d</fix>
</trkpt>
<trkpt lat="40.0713749" lon="-105.229789">
  <ele>1583.0</ele>
  <time>2026-09-02T20:50:18Z</time>
  <course>0.0</course>
  <speed>0.0</speed>
  <fix>3d</fix>
</trkpt>
<trkpt lat="40.0713749" lon="-105.229789">
  <ele>1583.0</ele>
  <time>2026-09-02T20:50:18Z</time>
  <course>0.0</course>
  <speed>0.0</speed>
  <fix>3d</fix>
</trkpt>
<trkpt lat="40.0713749" lon="-105.229789">
  <ele>1583.0</ele>
  <time>2026-09-02T20:50:18Z</time>
  <course>0.0</course>
  <speed>0.0</speed>
  <fix>3d</fix>
</trkpt>
<trkpt lat="40.0713749" lon="-105.229789">
  <ele>1583.0</ele>
  <time>2026-09-02T20:50:18Z</time>
  <course>0.0</course>
  <speed>0.0</speed>
  <fix>3d</fix>
</trkpt>
<trkpt lat="40.0713749" lon="-105.229789">
  <ele>1583.0</ele>
  <time>2026-09-02T20:50:18Z</time>
  <course>0.0</course>
  <speed>0.0</speed>
  <fix>3d</fix>
</trkpt>
<trkpt lat="40.0713749" lon="-105.229789">
  <ele>1583.0</ele>
  <time>2026-09-02T20:50:18Z</time>
  <course>0.0</course>
  <speed>0.0</speed>
  <fix>3d</fix>
</trkpt>
<trkpt lat="40.0713749" lon="-105.229789">
  <ele>1583.0</ele>
  <time>2026-09-02T20:50:18Z</time>
  <course>0.0</course>
  <speed>0.0</speed>
  <fix>3d</fix>
</trkpt>
<trkpt lat="40.0713749" lon="-105.229789">
  <ele>1583.0</ele>
  <time>2026-09-02T20:50:18Z</time>
  <course>0.0</course>
  <speed>0.0</speed>
  <fix>3d</fix>
</trkpt>
<trkpt lat="40.0713749" lon="-105.229789">
  <ele>1583.0</ele>
  <time>2026-09-02T20:50:18Z</time>
  <course>0.0</course>
  <speed>0.0</speed>
  <fix>3d</fix>
</trkpt>
<trkpt lat="40.0713749" lon="-105.229789">
  <ele>1583.0</ele>
  <time>2026-09-02T20:50:18Z</time>
  <course>0.0</course>
  <speed>0.0</speed>
  <fix>3d</fix>
</trkpt>
<trkpt lat="40.0713749" lon="-105.229789">
  <ele>1583.0</ele>
  <time>2026-09-02T20:50:18Z</time>
  <course>0.0</course>
  <speed>0.0</speed>
  <fix>3d</fix>
</trkpt>
<trkpt lat="40.0713749" lon="-105.229789">
  <ele>1583.0</ele>
  <time>2026-09-02T20:50:18Z</time>
  <course>0.0</course>
  <speed>0.0</speed>
  <fix>3d</fix>
</trkpt>
<trkpt lat="40.0713749" lon="-105.229789">
  <ele>1583.0</ele>
  <time>2026-09-02T20:50:18Z</time>
  <course>0.0</course>
  <speed>0.0</speed>
  <fix>3d</fix>
</trkpt>
<trkpt lat="40.0713749" lon="-105.229789">
  <ele>1583.0</ele>
  <time>2026-09-02T20:50:18Z</time>
  <course>0.0</course>
  <speed>0.0</speed>
  <fix>3d</fix>
</trkpt>
<trkpt lat="40.0713749" lon="-105.229789">
  <ele>1583.0</ele>
  <time>2026-09-02T20:50:18Z</time>
  <course>0.0</course>
  <speed>0.0</speed>
  <fix>3d</fix>
</trkpt>
<trkpt lat="40.0713749" lon="-105.229789">
  <ele>1583.0</ele>
  <time>2026-09-02T20:50:18Z</time>
  <course>0.0</course>
  <speed>0.0</speed>
  <fix>3d</fix>
</trkpt>
<trkpt lat="40.0713749" lon="-105.229789">
  <ele>1583.0</ele>
  <time>2026-09-02T20:50:18Z</time>
  <course>0.0</course>
  <speed>0.0</speed>
  <fix>3d</fix>
</trkpt>
<trkpt lat="40.0713749" lon="-105.229789">
  <ele>1583.0</ele>
  <time>2026-09-02T20:50:18Z</time>
  <course>0.0</course>
  <speed>0.0</speed>
  <fix>3d</fix>
</trkpt>
<trkpt lat="40.0713749" lon="-105.229789">
  <ele>1583.0</ele>
  <time>2026-09-02T20:50:18Z</time>
  <course>0.0</course>
  <speed>0.0</speed>
  <fix>3d</fix>
</trkpt>
<trkpt lat="40.0713749" lon="-105.229789">
  <ele>1583.0</ele>
  <time>2026-09-02T20:50:18Z</time>
  <course>0.0</course>
  <speed>0.0</speed>
  <fix>3d</fix>
</trkpt>
<trkpt lat="40.0713749" lon="-105.229789">
  <ele>1583.0</ele>
  <time>2026-09-02T20:50:18Z</time>
  <course>0.0</course>
  <speed>0.0</speed>
  <fix>3d</fix>
</trkpt>
<trkpt lat="40.0713749" lon="-105.229789">
  <ele>1583.0</ele>
  <time>2026-09-02T20:50:18Z</time>
  <course>0.0</course>
  <speed>0.0</speed>
  <fix>3d</fix>
</trkpt>
<trkpt lat="40.0713749" lon="-105.229789">
  <ele>1583.0</ele>
  <time>2026-09-02T20:50:18Z</time>
  <course>0.0</course>
  <speed>0.0</speed>
  <fix>3d</fix>
</trkpt>
<trkpt lat="40.0713749" lon="-105.229789">
  <ele>1583.0</ele>
  <time>2026-09-02T20:50:18Z</time>
  <course>0.0</course>
  <speed>0.0</speed>
  <fix>3d</fix>
</trkpt>
<trkpt lat="40.0713749" lon="-105.229789">
  <ele>1583.0</ele>
  <time>2026-09-02T20:50:18Z</time>
  <course>0.0</course>
  <speed>0.0</speed>
  <fix>3d</fix>
</trkpt>
<trkpt lat="40.0713749" lon="-105.229789">
  <ele>1583.0</ele>
  <time>2026-09-02T20:50:18Z</time>
  <course>0.0</course>
  <speed>0.0</speed>
  <fix>3d</fix>
</trkpt>
<trkpt lat="40.0713749" lon="-105.229789">
  <ele>1583.0</ele>
  <time>2026-09-02T20:50:18Z</time>
  <course>0.0</course>
  <speed>0.0</speed>
  <fix>3d</fix>
</trkpt>
<trkpt lat="40.0713749" lon="-105.229789">
  <ele>1583.0</ele>
  <time>2026-09-02T20:50:18Z</time>
  <course>0.0</course>
  <speed>0.0</speed>
  <fix>3d</fix>
</trkpt>
<trkpt lat="40.0713749" lon="-105.229789">
  <ele>1583.0</ele>
  <time>2026-09-02T20:50:18Z</time>
  <course>0.0</course>
  <speed>0.0</speed>
  <fix>3d</fix>
</trkpt>
<trkpt lat="40.0713749" lon="-105.229789">
  <ele>1583.0</ele>
  <time>2026-09-02T20:50:18Z</time>
  <course>0.0</course>
  <speed>0.0</speed>
  <fix>3d</fix>
</trkpt>
<trkpt lat="40.0713749" lon="-105.229789">
  <ele>1583.0</ele>
  <time>2026-09-02T20:50:18Z</time>
  <course>0.0</course>
  <speed>0.0</speed>
  <fix>3d</fix>
</trkpt>
<trkpt lat="40.0713749" lon="-105.229789">
  <ele>1583.0</ele>
  <time>2026-09-02T20:50:18Z</time>
  <course>0.0</course>
  <speed>0.0</speed>
  <fix>3d</fix>
</trkpt>
<trkpt lat="40.0713749" lon="-105.229789">
  <ele>1583.0</ele>
  <time>2026-09-02T20:50:18Z</time>
  <course>0.0</course>
  <speed>0.0</speed>
  <fix>3d</fix>
</trkpt>
<trkpt lat="40.0713749" lon="-105.229789">
  <ele>1583.0</ele>
  <time>2026-09-02T20:50:18Z</time>
  <course>0.0</course>
  <speed>0.0</speed>
  <fix>3d</fix>
</trkpt>
<trkpt lat="40.0713749" lon="-105.229789">
  <ele>1583.0</ele>
  <time>2026-09-02T20:50:18Z</time>
  <course>0.0</course>
  <speed>0.0</speed>
  <fix>3d</fix>
</trkpt>
<trkpt lat="40.0713749" lon="-105.229789">
  <ele>1583.0</ele>
  <time>2026-09-02T20:50:18Z</time>
  <course>0.0</course>
  <speed>0.0</speed>
  <fix>3d</fix>
</trkpt>
<trkpt lat="40.0713749" lon="-105.229789">
  <ele>1583.0</ele>
  <time>2026-09-02T20:50:18Z</time>
  <course>0.0</course>
  <speed>0.0</speed>
  <fix>3d</fix>
</trkpt>
<trkpt lat="40.0713749" lon="-105.229789">
  <ele>1583.0</ele>
  <time>2026-09-02T20:50:18Z</time>
  <course>0.0</course>
  <speed>0.0</speed>
  <fix>3d</fix>
</trkpt>
<trkpt lat="40.0713749" lon="-105.229789">
  <ele>1583.0</ele>
  <time>2026-09-02T20:50:18Z</time>
  <course>0.0</course>
  <speed>0.0</speed>
  <fix>3d</fix>
</trkpt>
<trkpt lat="40.0713749" lon="-105.229789">
  <ele>1583.0</ele>
  <time>2026-09-02T20:50:18Z</time>
  <course>0.0</course>
  <speed>0.0</speed>
  <fix>3d</fix>
</trkpt>
<trkpt lat="40.0713749" lon="-105.229789">
  <ele>1583.0</ele>
  <time>2026-09-02T20:50:18Z</time>
  <course>0.0</course>
  <speed>0.0</speed>
  <fix>3d</fix>
</trkpt>
<trkpt lat="40.0713749" lon="-105.229789">
  <ele>1583.0</ele>
  <time>2026-09-02T20:50:18Z</time>
  <course>0.0</course>
  <speed>0.0</speed>
  <fix>3d</fix>
</trkpt>
<trkpt lat="40.0713749" lon="-105.229789">
  <ele>1583.0</ele>
  <time>2026-09-02T20:50:18Z</time>
  <course>0.0</course>
  <speed>0.0</speed>
  <fix>3d</fix>
</trkpt>
<trkpt lat="40.0713749" lon="-105.229789">
  <ele>1583.0</ele>
  <time>2026-09-02T20:50:18Z</time>
  <course>0.0</course>
  <speed>0.0</speed>
  <fix>3d</fix>
</trkpt>
<trkpt lat="40.0713749" lon="-105.229789">
  <ele>1583.0</ele>
  <time>2026-09-02T20:50:18Z</time>
  <course>0.0</course>
  <speed>0.0</speed>
  <fix>3d</fix>
</trkpt>
<trkpt lat="40.0713749" lon="-105.229789">
  <ele>1583.0</ele>
  <time>2026-09-02T20:50:18Z</time>
  <course>0.0</course>
  <speed>0.0</speed>
  <fix>3d</fix>
</trkpt>
<trkpt lat="40.0713749" lon="-105.229789">
  <ele>1583.0</ele>
  <time>2026-09-02T20:50:18Z</time>
  <course>0.0</course>
  <speed>0.0</speed>
  <fix>3d</fix>
</trkpt>
<trkpt lat="40.0713749" lon="-105.229789">
  <ele>1583.0</ele>
  <time>2026-09-02T20:50:18Z</time>
  <course>0.0</course>
  <speed>0.0</speed>
  <fix>3d</fix>
</trkpt>
<trkpt lat="40.0713749" lon="-105.229789">
  <ele>1583.0</ele>
  <time>2026-09-02T20:50:18Z</time>
  <course>0.0</course>
  <speed>0.0</speed>
  <fix>3d</fix>
</trkpt>
<trkpt lat="40.0713749" lon="-105.229789">
  <ele>1583.0</ele>
  <time>2026-09-02T20:50:18Z</time>
  <course>0.0</course>
  <speed>0.0</speed>
  <fix>3d</fix>
</trkpt>
<trkpt lat="40.0713749" lon="-105.229789">
  <ele>1583.0</ele>
  <time>2026-09-02T20:50:18Z</time>
  <course>0.0</course>
  <speed>0.0</speed>
  <fix>3d</fix>
</trkpt>
<trkpt lat="40.0713749" lon="-105.229789">
  <ele>1583.0</ele>
  <time>2026-09-02T20:50:18Z</time>
  <course>0.0</course>
  <speed>0.0</speed>
  <fix>3d</fix>
</trkpt>
<trkpt lat="40.0713749" lon="-105.229789">
  <ele>1583.0</ele>
  <time>2026-09-02T20:50:18Z</time>
  <course>0.0</course>
  <speed>0.0</speed>
  <fix>3d</fix>
</trkpt>
<trkpt lat="40.0713749" lon="-105.229789">
  <ele>1583.0</ele>
  <time>2026-09-02T20:50:18Z</time>
  <course>0.0</course>
  <speed>0.0</speed>
  <fix>3d</fix>
</trkpt>
<trkpt lat="40.0713749" lon="-105.229789">
  <ele>1583.0</ele>
  <time>2026-09-02T20:50:18Z</time>
  <course>0.0</course>
  <speed>0.0</speed>
  <fix>3d</fix>
</trkpt>
<trkpt lat="40.0713749" lon="-105.229789">
  <ele>1583.0</ele>
  <time>2026-09-02T20:50:18Z</time>
  <course>0.0</course>
  <speed>0.0</speed>
  <fix>3d</fix>
</trkpt>
<trkpt lat="40.0713749" lon="-105.229789">
  <ele>1583.0</ele>
  <time>2026-09-02T20:50:18Z</time>
  <course>0.0</course>
  <speed>0.0</speed>
  <fix>3d</fix>
</trkpt>
<trkpt lat="40.0713749" lon="-105.229789">
  <ele>1583.0</ele>
  <time>2026-09-02T20:50:18Z</time>
  <course>0.0</course>
  <speed>0.0</speed>
  <fix>3d</fix>
</trkpt>
<trkpt lat="40.0713749" lon="-105.229789">
  <ele>1583.0</ele>
  <time>2026-09-02T20:50:18Z</time>
  <course>0.0</course>
  <speed>0.0</speed>
  <fix>3d</fix>
</trkpt>
<trkpt lat="40.0713749" lon="-105.229789">
  <ele>1583.0</ele>
  <time>2026-09-02T20:50:18Z</time>
  <course>0.0</course>
  <speed>0.0</speed>
  <fix>3d</fix>
</trkpt>
<trkpt lat="40.0713749" lon="-105.229789">
  <ele>1583.0</ele>
  <time>2026-09-02T20:50:18Z</time>
  <course>0.0</course>
  <speed>0.0</speed>
  <fix>3d</fix>
</trkpt>
<trkpt lat="40.0713749" lon="-105.229789">
  <ele>1583.0</ele>
  <time>2026-09-02T20:50:18Z</time>
  <course>0.0</course>
  <speed>0.0</speed>
  <fix>3d</fix>
</trkpt>
<trkpt lat="40.0713749" lon="-105.229789">
  <ele>1583.0</ele>
  <time>2026-09-02T20:50:18Z</time>
  <course>0.0</course>
  <speed>0.0</speed>
  <fix>3d</fix>
</trkpt>
<trkpt lat="40.0713749" lon="-105.229789">
  <ele>1583.0</ele>
  <time>2026-09-02T20:50:18Z</time>
  <course>0.0</course>
  <speed>0.0</speed>
  <fix>3d</fix>
</trkpt>
<trkpt lat="40.0713749" lon="-105.229789">
  <ele>1583.0</ele>
  <time>2026-09-02T20:50:18Z</time>
  <course>0.0</course>
  <speed>0.0</speed>
  <fix>3d</fix>
</trkpt>
<trkpt lat="40.0713749" lon="-105.229789">
  <ele>1583.0</ele>
  <time>2026-09-02T20:50:18Z</time>
  <course>0.0</course>
  <speed>0.0</speed>
  <fix>3d</fix>
</trkpt>
<trkpt lat="40.0713749" lon="-105.229789">
  <ele>1583.0</ele>
  <time>2026-09-02T20:50:18Z</time>
  <course>0.0</course>
  <speed>0.0</speed>
  <fix>3d</fix>
</trkpt>
<trkpt lat="40.0713749" lon="-105.229789">
  <ele>1583.0</ele>
  <time>2026-09-02T20:50:18Z</time>
  <course>0.0</course>
  <speed>0.0</speed>
  <fix>3d</fix>
</trkpt>
<trkpt lat="40.0713749" lon="-105.229789">
  <ele>1583.0</ele>
  <time>2026-09-02T20:50:18Z</time>
  <course>0.0</course>
  <speed>0.0</speed>
  <fix>3d</fix>
</trkpt>
<trkpt lat="40.0713749" lon="-105.229789">
  <ele>1583.0</ele>
  <time>2026-09-02T20:50:18Z</time>
  <course>0.0</course>
  <speed>0.0</speed>
  <fix>3d</fix>
</trkpt>
<trkpt lat="40.0713749" lon="-105.229789">
  <ele>1583.0</ele>
  <time>2026-09-02T20:50:18Z</time>
  <course>0.0</course>
  <speed>0.0</speed>
  <fix>3d</fix>
</trkpt>
<trkpt lat="40.0713749" lon="-105.229789">
  <ele>1583.0</ele>
  <time>2026-09-02T20:50:18Z</time>
  <course>0.0</course>
  <speed>0.0</speed>
  <fix>3d</fix>
</trkpt>
<trkpt lat="40.0713749" lon="-105.229789">
  <ele>1583.0</ele>
  <time>2026-09-02T20:50:18Z</time>
  <course>0.0</course>
  <speed>0.0</speed>
  <fix>3d</fix>
</trkpt>
<trkpt lat="40.0713749" lon="-105.229789">
  <ele>1583.0</ele>
  <time>2026-09-02T20:50:18Z</time>
  <course>0.0</course>
  <speed>0.0</speed>
  <fix>3d</fix>
</trkpt>
<trkpt lat="40.0713749" lon="-105.229789">
  <ele>1583.0</ele>
  <time>2026-09-02T20:50:18Z</time>
  <course>0.0</course>
  <speed>0.0</speed>
  <fix>3d</fix>
</trkpt>
<trkpt lat="40.0713749" lon="-105.229789">
  <ele>1583.0</ele>
  <time>2026-09-02T20:50:18Z</time>
  <course>0.0</course>
  <speed>0.0</speed>
  <fix>3d</fix>
</trkpt>
<trkpt lat="40.0713749" lon="-105.229789">
  <ele>1583.0</ele>
  <time>2026-09-02T20:50:18Z</time>
  <course>0.0</course>
  <speed>0.0</speed>
  <fix>3d</fix>
</trkpt>
<trkpt lat="40.0713749" lon="-105.229789">
  <ele>1583.0</ele>
  <time>2026-09-02T20:50:18Z</time>
  <course>0.0</course>
  <speed>0.0</speed>
  <fix>3d</fix>
</trkpt>
<trkpt lat="40.0713749" lon="-105.229789">
  <ele>1583.0</ele>
  <time>2026-09-02T20:50:18Z</time>
  <course>0.0</course>
  <speed>0.0</speed>
  <fix>3d</fix>
</trkpt>
<trkpt lat="40.0713749" lon="-105.229789">
  <ele>1583.0</ele>
  <time>2026-09-02T20:50:18Z</time>
  <course>0.0</course>
  <speed>0.0</speed>
  <fix>3d</fix>
</trkpt>
<trkpt lat="40.0713749" lon="-105.229789">
  <ele>1583.0</ele>
  <time>2026-09-02T20:50:18Z</time>
  <course>0.0</course>
  <speed>0.0</speed>
  <fix>3d</fix>
</trkpt>
<trkpt lat="40.0713749" lon="-105.229789">
  <ele>1583.0</ele>
  <time>2026-09-02T20:50:18Z</time>
  <course>0.0</course>
  <speed>0.0</speed>
  <fix>3d</fix>
</trkpt>
<trkpt lat="40.0713749" lon="-105.229789">
  <ele>1583.0</ele>
  <time>2026-09-02T20:50:18Z</time>
  <course>0.0</course>
  <speed>0.0</speed>
  <fix>3d</fix>
</trkpt>
<trkpt lat="40.0713749" lon="-105.229789">
  <ele>1583.0</ele>
  <time>2026-09-02T20:50:18Z</time>
  <course>0.0</course>
  <speed>0.0</speed>
  <fix>3d</fix>
</trkpt>
<trkpt lat="40.0713749" lon="-105.229789">
  <ele>1583.0</ele>
  <time>2026-09-02T20:50:18Z</time>
  <course>0.0</course>
  <speed>0.0</speed>
  <fix>3d</fix>
</trkpt>
<trkpt lat="40.0713749" lon="-105.229789">
  <ele>1583.0</ele>
  <time>2026-09-02T20:50:18Z</time>
  <course>0.0</course>
  <speed>0.0</speed>
  <fix>3d</fix>
</trkpt>
<trkpt lat="40.0713749" lon="-105.229789">
  <ele>1583.0</ele>
  <time>2026-09-02T20:50:18Z</time>
  <course>0.0</course>
  <speed>0.0</speed>
  <fix>3d</fix>
</trkpt>
<trkpt lat="40.0713749" lon="-105.229789">
  <ele>1583.0</ele>
  <time>2026-09-02T20:50:18Z</time>
  <course>0.0</course>
  <speed>0.0</speed>
  <fix>3d</fix>
</trkpt>
<trkpt lat="40.0713749" lon="-105.229789">
  <ele>1583.0</ele>
  <time>2026-09-02T20:50:18Z</time>
  <course>0.0</course>
  <speed>0.0</speed>
  <fix>3d</fix>
</trkpt>
<trkpt lat="40.0713749" lon="-105.229789">
  <ele>1583.0</ele>
  <time>2026-09-02T20:50:18Z</time>
  <course>0.0</course>
  <speed>0.0</speed>
  <fix>3d</fix>
</trkpt>
<trkpt lat="40.0713749" lon="-105.229789">
  <ele>1583.0</ele>
  <time>2026-09-02T20:50:18Z</time>
  <course>0.0</course>
  <speed>0.0</speed>
  <fix>3d</fix>
</trkpt>
<trkpt lat="40.0713749" lon="-105.229789">
  <ele>1583.0</ele>
  <time>2026-09-02T20:50:18Z</time>
  <course>0.0</course>
  <speed>0.0</speed>
  <fix>3d</fix>
</trkpt>
<trkpt lat="40.0713749" lon="-105.229789">
  <ele>1583.0</ele>
  <time>2026-09-02T20:50:18Z</time>
  <course>0.0</course>
  <speed>0.0</speed>
  <fix>3d</fix>
</trkpt>
<trkpt lat="40.0713749" lon="-105.229789">
  <ele>1583.0</ele>
  <time>2026-09-02T20:50:18Z</time>
  <course>0.0</course>
  <speed>0.0</speed>
  <fix>3d</fix>
</trkpt>
<trkpt lat="40.0713749" lon="-105.229789">
  <ele>1583.0</ele>
  <time>2026-09-02T20:50:18Z</time>
  <course>0.0</course>
  <speed>0.0</speed>
  <fix>3d</fix>
</trkpt>
<trkpt lat="40.0713749" lon="-105.229789">
  <ele>1583.0</ele>
  <time>2026-09-02T20:50:18Z</time>
  <course>0.0</course>
  <speed>0.0</speed>
  <fix>3d</fix>
</trkpt>
<trkpt lat="40.0713749" lon="-105.229789">
  <ele>1583.0</ele>
  <time>2026-09-02T20:50:18Z</time>
  <course>0.0</course>
  <speed>0.0</speed>
  <fix>3d</fix>
</trkpt>
<trkpt lat="40.0713749" lon="-105.229789">
  <ele>1583.0</ele>
  <time>2026-09-02T20:50:18Z</time>
  <course>0.0</course>
  <speed>0.0</speed>
  <fix>3d</fix>
</trkpt>
<trkpt lat="40.0713749" lon="-105.229789">
  <ele>1583.0</ele>
  <time>2026-09-02T20:50:18Z</time>
  <course>0.0</course>
  <speed>0.0</speed>
  <fix>3d</fix>
</trkpt>
<trkpt lat="40.0713749" lon="-105.229789">
  <ele>1583.0</ele>
  <time>2026-09-02T20:50:18Z</time>
  <course>0.0</course>
  <speed>0.0</speed>
  <fix>3d</fix>
</trkpt>
<trkpt lat="40.0713749" lon="-105.229789">
  <ele>1583.0</ele>
  <time>2026-09-02T20:50:18Z</time>
  <course>0.0</course>
  <speed>0.0</speed>
  <fix>3d</fix>
</trkpt>
<trkpt lat="40.0713749" lon="-105.229789">
  <ele>1583.0</ele>
  <time>2026-09-02T20:50:18Z</time>
  <course>0.0</course>
  <speed>0.0</speed>
  <fix>3d</fix>
</trkpt>
<trkpt lat="40.0713749" lon="-105.229789">
  <ele>1583.0</ele>
  <time>2026-09-02T20:50:18Z</time>
  <course>0.0</course>
  <speed>0.0</speed>
  <fix>3d</fix>
</trkpt>
<trkpt lat="40.0713749" lon="-105.229789">
  <ele>1583.0</ele>
  <time>2026-09-02T20:50:18Z</time>
  <course>0.0</course>
  <speed>0.0</speed>
  <fix>3d</fix>
</trkpt>
<trkpt lat="40.0713749" lon="-105.229789">
  <ele>1583.0</ele>
  <time>2026-09-02T20:50:18Z</time>
  <course>0.0</course>
  <speed>0.0</speed>
  <fix>3d</fix>
</trkpt>
<trkpt lat="40.0713749" lon="-105.229789">
  <ele>1583.0</ele>
  <time>2026-09-02T20:50:18Z</time>
  <course>0.0</course>
  <speed>0.0</speed>
  <fix>3d</fix>
</trkpt>
<trkpt lat="40.0713749" lon="-105.229789">
  <ele>1583.0</ele>
  <time>2026-09-02T20:50:18Z</time>
  <course>0.0</course>
  <speed>0.0</speed>
  <fix>3d</fix>
</trkpt>
<trkpt lat="40.0713749" lon="-105.229789">
  <ele>1583.0</ele>
  <time>2026-09-02T20:50:18Z</time>
  <course>0.0</course>
  <speed>0.0</speed>
  <fix>3d</fix>
</trkpt>
<trkpt lat="40.0713749" lon="-105.229789">
  <ele>1583.0</ele>
  <time>2026-09-02T20:50:18Z</time>
  <course>0.0</course>
  <speed>0.0</speed>
  <fix>3d</fix>
</trkpt>
<trkpt lat="40.0713749" lon="-105.229789">
  <ele>1583.0</ele>
  <time>2026-09-02T20:50:18Z</time>
  <course>0.0</course>
  <speed>0.0</speed>
  <fix>3d</fix>
</trkpt>
<trkpt lat="40.0713749" lon="-105.229789">
  <ele>1583.0</ele>
  <time>2026-09-02T20:50:18Z</time>
  <course>0.0</course>
  <speed>0.0</speed>
  <fix>3d</fix>
</trkpt>
<trkpt lat="40.0713749" lon="-105.229789">
  <ele>1583.0</ele>
  <time>2026-09-02T20:50:18Z</time>
  <course>0.0</course>
  <speed>0.0</speed>
  <fix>3d</fix>
</trkpt>
<trkpt lat="40.0713749" lon="-105.229789">
  <ele>1583.0</ele>
  <time>2026-09-02T20:50:18Z</time>
  <course>0.0</course>
  <speed>0.0</speed>
  <fix>3d</fix>
</trkpt>
<trkpt lat="40.0713749" lon="-105.229789">
  <ele>1583.0</ele>
  <time>2026-09-02T20:50:18Z</time>
  <course>0.0</course>
  <speed>0.0</speed>
  <fix>3d</fix>
</trkpt>
<trkpt lat="40.0713749" lon="-105.229789">
  <ele>1583.0</ele>
  <time>2026-09-02T20:50:18Z</time>
  <course>0.0</course>
  <speed>0.0</speed>
  <fix>3d</fix>
</trkpt>
<trkpt lat="40.0713749" lon="-105.229789">
  <ele>1583.0</ele>
  <time>2026-09-02T20:50:18Z</time>
  <course>0.0</course>
  <speed>0.0</speed>
  <fix>3d</fix>
</trkpt>
<trkpt lat="40.0713749" lon="-105.229789">
  <ele>1583.0</ele>
  <time>2026-09-02T20:50:18Z</time>
  <course>0.0</course>
  <speed>0.0</speed>
  <fix>3d</fix>
</trkpt>
<trkpt lat="40.0713749" lon="-105.229789">
  <ele>1583.0</ele>
  <time>2026-09-02T20:50:18Z</time>
  <course>0.0</course>
  <speed>0.0</speed>
  <fix>3d</fix>
</trkpt>
<trkpt lat="40.0713749" lon="-105.229789">
  <ele>1583.0</ele>
  <time>2026-09-02T20:50:18Z</time>
  <course>0.0</course>
  <speed>0.0</speed>
  <fix>3d</fix>
</trkpt>
<trkpt lat="40.0713749" lon="-105.229789">
  <ele>1583.0</ele>
  <time>2026-09-02T20:50:18Z</time>
  <course>0.0</course>
  <speed>0.0</speed>
  <fix>3d</fix>
</trkpt>
<trkpt lat="40.0713749" lon="-105.229789">
  <ele>1583.0</ele>
  <time>2026-09-02T20:50:18Z</time>
  <course>0.0</course>
  <speed>0.0</speed>
  <fix>3d</fix>
</trkpt>
<trkpt lat="40.0713749" lon="-105.229789">
  <ele>1583.0</ele>
  <time>2026-09-02T20:50:18Z</time>
  <course>0.0</course>
  <speed>0.0</speed>
  <fix>3d</fix>
</trkpt>
<trkpt lat="40.0713749" lon="-105.229789">
  <ele>1583.0</ele>
  <time>2026-09-02T20:50:18Z</time>
  <course>0.0</course>
  <speed>0.0</speed>
  <fix>3d</fix>
</trkpt>
<trkpt lat="40.0713749" lon="-105.229789">
  <ele>1583.0</ele>
  <time>2026-09-02T20:50:18Z</time>
  <course>0.0</course>
  <speed>0.0</speed>
  <fix>3d</fix>
</trkpt>
<trkpt lat="40.0713749" lon="-105.229789">
  <ele>1583.0</ele>
  <time>2026-09-02T20:50:18Z</time>
  <course>0.0</course>
  <speed>0.0</speed>
  <fix>3d</fix>
</trkpt>
<trkpt lat="40.0713749" lon="-105.229789">
  <ele>1583.0</ele>
  <time>2026-09-02T20:50:18Z</time>
  <course>0.0</course>
  <speed>0.0</speed>
  <fix>3d</fix>
</trkpt>
<trkpt lat="40.0713749" lon="-105.229789">
  <ele>1583.0</ele>
  <time>2026-09-02T20:50:18Z</time>
  <course>0.0</course>
  <speed>0.0</speed>
  <fix>3d</fix>
</trkpt>
<trkpt lat="40.0713749" lon="-105.229789">
  <ele>1583.0</ele>
  <time>2026-09-02T20:50:18Z</time>
  <course>0.0</course>
  <speed>0.0</speed>
  <fix>3d</fix>
</trkpt>
<trkpt lat="40.0713749" lon="-105.229789">
  <ele>1583.0</ele>
  <time>2026-09-02T20:50:18Z</time>
  <course>0.0</course>
  <speed>0.0</speed>
  <fix>3d</fix>
</trkpt>
<trkpt lat="40.0713749" lon="-105.229789">
  <ele>1583.0</ele>
  <time>2026-09-02T20:50:18Z</time>
  <course>0.0</course>
  <speed>0.0</speed>
  <fix>3d</fix>
</trkpt>
<trkpt lat="40.0713749" lon="-105.229789">
  <ele>1583.0</ele>
  <time>2026-09-02T20:50:18Z</time>
  <course>0.0</course>
  <speed>0.0</speed>
  <fix>3d</fix>
</trkpt>
<trkpt lat="40.0713749" lon="-105.229789">
  <ele>1583.0</ele>
  <time>2026-09-02T20:50:18Z</time>
  <course>0.0</course>
  <speed>0.0</speed>
  <fix>3d</fix>
</trkpt>
<trkpt lat="40.0713749" lon="-105.229789">
  <ele>1583.0</ele>
  <time>2026-09-02T20:50:18Z</time>
  <course>0.0</course>
  <speed>0.0</speed>
  <fix>3d</fix>
</trkpt>
<trkpt lat="40.0713749" lon="-105.229789">
  <ele>1583.0</ele>
  <time>2026-09-02T20:50:18Z</time>
  <course>0.0</course>
  <speed>0.0</speed>
  <fix>3d</fix>
</trkpt>
<trkpt lat="40.0713749" lon="-105.229789">
  <ele>1583.0</ele>
  <time>2026-09-02T20:50:18Z</time>
  <course>0.0</course>
  <speed>0.0</speed>
  <fix>3d</fix>
</trkpt>
<trkpt lat="40.0713749" lon="-105.229789">
  <ele>1583.0</ele>
  <time>2026-09-02T20:50:18Z</time>
  <course>0.0</course>
  <speed>0.0</speed>
  <fix>3d</fix>
</trkpt>
<trkpt lat="40.0713749" lon="-105.229789">
  <ele>1583.0</ele>
  <time>2026-09-02T20:50:18Z</time>
  <course>0.0</course>
  <speed>0.0</speed>
  <fix>3d</fix>
</trkpt>
<trkpt lat="40.0713749" lon="-105.229789">
  <ele>1583.0</ele>
  <time>2026-09-02T20:50:18Z</time>
  <course>0.0</course>
  <speed>0.0</speed>
  <fix>3d</fix>
</trkpt>
<trkpt lat="40.0713749" lon="-105.229789">
  <ele>1583.0</ele>
  <time>2026-09-02T20:50:18Z</time>
  <course>0.0</course>
  <speed>0.0</speed>
  <fix>3d</fix>
</trkpt>
<trkpt lat="40.0713749" lon="-105.229789">
  <ele>1583.0</ele>
  <time>2026-09-02T20:50:18Z</time>
  <course>0.0</course>
  <speed>0.0</speed>
  <fix>3d</fix>
</trkpt>
<trkpt lat="40.0713749" lon="-105.229789">
  <ele>1583.0</ele>
  <time>2026-09-02T20:50:18Z</time>
  <course>0.0</course>
  <speed>0.0</speed>
  <fix>3d</fix>
</trkpt>
<trkpt lat="40.0713749" lon="-105.229789">
  <ele>1583.0</ele>
  <time>2026-09-02T20:50:18Z</time>
  <course>0.0</course>
  <speed>0.0</speed>
  <fix>3d</fix>
</trkpt>
<trkpt lat="40.0713749" lon="-105.229789">
  <ele>1583.0</ele>
  <time>2026-09-02T20:50:18Z</time>
  <course>0.0</course>
  <speed>0.0</speed>
  <fix>3d</fix>
</trkpt>
<trkpt lat="40.0713749" lon="-105.229789">
  <ele>1583.0</ele>
  <time>2026-09-02T20:50:18Z</time>
  <course>0.0</course>
  <speed>0.0</speed>
  <fix>3d</fix>
</trkpt>
<trkpt lat="40.0713749" lon="-105.229789">
  <ele>1583.0</ele>
  <time>2026-09-02T20:50:18Z</time>
  <course>0.0</course>
  <speed>0.0</speed>
  <fix>3d</fix>
</trkpt>
<trkpt lat="40.0713749" lon="-105.229789">
  <ele>1583.0</ele>
  <time>2026-09-02T20:50:18Z</time>
  <course>0.0</course>
  <speed>0.0</speed>
  <fix>3d</fix>
</trkpt>
<trkpt lat="40.0713749" lon="-105.229789">
  <ele>1583.0</ele>
  <time>2026-09-02T20:50:18Z</time>
  <course>0.0</course>
  <speed>0.0</speed>
  <fix>3d</fix>
</trkpt>
<trkpt lat="40.0713749" lon="-105.229789">
  <ele>1583.0</ele>
  <time>2026-09-02T20:50:18Z</time>
  <course>0.0</course>
  <speed>0.0</speed>
  <fix>3d</fix>
</trkpt>
<trkpt lat="40.0713749" lon="-105.229789">
  <ele>1583.0</ele>
  <time>2026-09-02T20:50:18Z</time>
  <course>0.0</course>
  <speed>0.0</speed>
  <fix>3d</fix>
</trkpt>
<trkpt lat="40.0713749" lon="-105.229789">
  <ele>1583.0</ele>
  <time>2026-09-02T20:50:18Z</time>
  <course>0.0</course>
  <speed>0.0</speed>
  <fix>3d</fix>
</trkpt>
<trkpt lat="40.0713749" lon="-105.229789">
  <ele>1583.0</ele>
  <time>2026-09-02T20:50:18Z</time>
  <course>0.0</course>
  <speed>0.0</speed>
  <fix>3d</fix>
</trkpt>
<trkpt lat="40.0713749" lon="-105.229789">
  <ele>1583.0</ele>
  <time>2026-09-02T20:50:18Z</time>
  <course>0.0</course>
  <speed>0.0</speed>
  <fix>3d</fix>
</trkpt>
<trkpt lat="40.0713749" lon="-105.229789">
  <ele>1583.0</ele>
  <time>2026-09-02T20:50:18Z</time>
  <course>0.0</course>
  <speed>0.0</speed>
  <fix>3d</fix>
</trkpt>
<trkpt lat="40.0713749" lon="-105.229789">
  <ele>1583.0</ele>
  <time>2026-09-02T20:50:18Z</time>
  <course>0.0</course>
  <speed>0.0</speed>
  <fix>3d</fix>
</trkpt>
<trkpt lat="40.0713749" lon="-105.229789">
  <ele>1583.0</ele>
  <time>2026-09-02T20:50:18Z</time>
  <course>0.0</course>
  <speed>0.0</speed>
  <fix>3d</fix>
</trkpt>
<trkpt lat="40.0713749" lon="-105.229789">
  <ele>1583.0</ele>
  <time>2026-09-02T20:50:18Z</time>
  <course>0.0</course>
  <speed>0.0</speed>
  <fix>3d</fix>
</trkpt>
<trkpt lat="40.0713749" lon="-105.229789">
  <ele>1583.0</ele>
  <time>2026-09-02T20:50:18Z</time>
  <course>0.0</course>
  <speed>0.0</speed>
  <fix>3d</fix>
</trkpt>
<trkpt lat="40.0713749" lon="-105.229789">
  <ele>1583.0</ele>
  <time>2026-09-02T20:50:18Z</time>
  <course>0.0</course>
  <speed>0.0</speed>
  <fix>3d</fix>
</trkpt>
<trkpt lat="40.0713749" lon="-105.229789">
  <ele>1583.0</ele>
  <time>2026-09-02T20:50:18Z</time>
  <course>0.0</course>
  <speed>0.0</speed>
  <fix>3d</fix>
</trkpt>
<trkpt lat="40.0713749" lon="-105.229789">
  <ele>1583.0</ele>
  <time>2026-09-02T20:50:18Z</time>
  <course>0.0</course>
  <speed>0.0</speed>
  <fix>3d</fix>
</trkpt>
<trkpt lat="40.0713749" lon="-105.229789">
  <ele>1583.0</ele>
  <time>2026-09-02T20:50:18Z</time>
  <course>0.0</course>
  <speed>0.0</speed>
  <fix>3d</fix>
</trkpt>
<trkpt lat="40.0713749" lon="-105.229789">
  <ele>1583.0</ele>
  <time>2026-09-02T20:50:18Z</time>
  <course>0.0</course>
  <speed>0.0</speed>
  <fix>3d</fix>
</trkpt>
<trkpt lat="40.0713749" lon="-105.229789">
  <ele>1583.0</ele>
  <time>2026-09-02T20:50:18Z</time>
  <course>0.0</course>
  <speed>0.0</speed>
  <fix>3d</fix>
</trkpt>
<trkpt lat="40.0713749" lon="-105.229789">
  <ele>1583.0</ele>
  <time>2026-09-02T20:50:18Z</time>
  <course>0.0</course>
  <speed>0.0</speed>
  <fix>3d</fix>
</trkpt>
<trkpt lat="40.0713749" lon="-105.229789">
  <ele>1583.0</ele>
  <time>2026-09-02T20:50:18Z</time>
  <course>0.0</course>
  <speed>0.0</speed>
  <fix>3d</fix>
</trkpt>
<trkpt lat="40.0713749" lon="-105.229789">
  <ele>1583.0</ele>
  <time>2026-09-02T20:50:18Z</time>
  <course>0.0</course>
  <speed>0.0</speed>
  <fix>3d</fix>
</trkpt>
<trkpt lat="40.0713749" lon="-105.229789">
  <ele>1583.0</ele>
  <time>2026-09-02T20:50:18Z</time>
  <course>0.0</course>
  <speed>0.0</speed>
  <fix>3d</fix>
</trkpt>
<trkpt lat="40.0713749" lon="-105.229789">
  <ele>1583.0</ele>
  <time>2026-09-02T20:50:18Z</time>
  <course>0.0</course>
  <speed>0.0</speed>
  <fix>3d</fix>
</trkpt>
<trkpt lat="40.0713749" lon="-105.229789">
  <ele>1583.0</ele>
  <time>2026-09-02T20:50:18Z</time>
  <course>0.0</course>
  <speed>0.0</speed>
  <fix>3d</fix>
</trkpt>
<trkpt lat="40.0713749" lon="-105.229789">
  <ele>1583.0</ele>
  <time>2026-09-02T20:50:18Z</time>
  <course>0.0</course>
  <speed>0.0</speed>
  <fix>3d</fix>
</trkpt>
<trkpt lat="40.0713749" lon="-105.229789">
  <ele>1583.0</ele>
  <time>2026-09-02T20:50:18Z</time>
  <course>0.0</course>
  <speed>0.0</speed>
  <fix>3d</fix>
</trkpt>
<trkpt lat="40.0713749" lon="-105.229789">
  <ele>1583.0</ele>
  <time>2026-09-02T20:50:18Z</time>
  <course>0.0</course>
  <speed>0.0</speed>
  <fix>3d</fix>
</trkpt>
<trkpt lat="40.0713749" lon="-105.229789">
  <ele>1583.0</ele>
  <time>2026-09-02T20:50:18Z</time>
  <course>0.0</course>
  <speed>0.0</speed>
  <fix>3d</fix>
</trkpt>
<trkpt lat="40.0713749" lon="-105.229789">
  <ele>1583.0</ele>
  <time>2026-09-02T20:50:18Z</time>
  <course>0.0</course>
  <speed>0.0</speed>
  <fix>3d</fix>
</trkpt>
<trkpt lat="40.0713749" lon="-105.229789">
  <ele>1583.0</ele>
  <time>2026-09-02T20:50:18Z</time>
  <course>0.0</course>
  <speed>0.0</speed>
  <fix>3d</fix>
</trkpt>
<trkpt lat="40.0713749" lon="-105.229789">
  <ele>1583.0</ele>
  <time>2026-09-02T20:50:18Z</time>
  <course>0.0</course>
  <speed>0.0</speed>
  <fix>3d</fix>
</trkpt>
<trkpt lat="40.0713749" lon="-105.229789">
  <ele>1583.0</ele>
  <time>2026-09-02T20:50:18Z</time>
  <course>0.0</course>
  <speed>0.0</speed>
  <fix>3d</fix>
</trkpt>
<trkpt lat="40.0713749" lon="-105.229789">
  <ele>1583.0</ele>
  <time>2026-09-02T20:50:18Z</time>
  <course>0.0</course>
  <speed>0.0</speed>
  <fix>3d</fix>
</trkpt>
<trkpt lat="40.0713749" lon="-105.229789">
  <ele>1583.0</ele>
  <time>2026-09-02T20:50:18Z</time>
  <course>0.0</course>
  <speed>0.0</speed>
  <fix>3d</fix>
</trkpt>
<trkpt lat="40.0713749" lon="-105.229789">
  <ele>1583.0</ele>
  <time>2026-09-02T20:50:18Z</time>
  <course>0.0</course>
  <speed>0.0</speed>
  <fix>3d</fix>
</trkpt>
<trkpt lat="40.0713749" lon="-105.229789">
  <ele>1583.0</ele>
  <time>2026-09-02T20:50:18Z</time>
  <course>0.0</course>
  <speed>0.0</speed>
  <fix>3d</fix>
</trkpt>
<trkpt lat="40.0713749" lon="-105.229789">
  <ele>1583.0</ele>
  <time>2026-09-02T20:50:18Z</time>
  <course>0.0</course>
  <speed>0.0</speed>
  <fix>3d</fix>
</trkpt>
<trkpt lat="40.0713749" lon="-105.229789">
  <ele>1583.0</ele>
  <time>2026-09-02T20:50:18Z</time>
  <course>0.0</course>
  <speed>0.0</speed>
  <fix>3d</fix>
</trkpt>
<trkpt lat="40.0713749" lon="-105.229789">
  <ele>1583.0</ele>
  <time>2026-09-02T20:50:18Z</time>
  <course>0.0</course>
  <speed>0.0</speed>
  <fix>3d</fix>
</trkpt>
<trkpt lat="40.0713749" lon="-105.229789">
  <ele>1583.0</ele>
  <time>2026-09-02T20:50:18Z</time>
  <course>0.0</course>
  <speed>0.0</speed>
  <fix>3d</fix>
</trkpt>
<trkpt lat="40.0713749" lon="-105.229789">
  <ele>1583.0</ele>
  <time>2026-09-02T20:50:18Z</time>
  <course>0.0</course>
  <speed>0.0</speed>
  <fix>3d</fix>
</trkpt>
<trkpt lat="40.0713749" lon="-105.229789">
  <ele>1583.0</ele>
  <time>2026-09-02T20:50:18Z</time>
  <course>0.0</course>
  <speed>0.0</speed>
  <fix>3d</fix>
</trkpt>
<trkpt lat="40.0713749" lon="-105.229789">
  <ele>1583.0</ele>
  <time>2026-09-02T20:50:18Z</time>
  <course>0.0</course>
  <speed>0.0</speed>
  <fix>3d</fix>
</trkpt>
<trkpt lat="40.0713749" lon="-105.229789">
  <ele>1583.0</ele>
  <time>2026-09-02T20:50:18Z</time>
  <course>0.0</course>
  <speed>0.0</speed>
  <fix>3d</fix>
</trkpt>
<trkpt lat="40.0713749" lon="-105.229789">
  <ele>1583.0</ele>
  <time>2026-09-02T20:50:18Z</time>
  <course>0.0</course>
  <speed>0.0</speed>
  <fix>3d</fix>
</trkpt>
<trkpt lat="40.0713749" lon="-105.229789">
  <ele>1583.0</ele>
  <time>2026-09-02T20:50:18Z</time>
  <course>0.0</course>
  <speed>0.0</speed>
  <fix>3d</fix>
</trkpt>
<trkpt lat="40.0713749" lon="-105.229789">
  <ele>1583.0</ele>
  <time>2026-09-02T20:50:18Z</time>
  <course>0.0</course>
  <speed>0.0</speed>
  <fix>3d</fix>
</trkpt>
<trkpt lat="40.0713749" lon="-105.229789">
  <ele>1583.0</ele>
  <time>2026-09-02T20:50:18Z</time>
  <course>0.0</course>
  <speed>0.0</speed>
  <fix>3d</fix>
</trkpt>
<trkpt lat="40.0713749" lon="-105.229789">
  <ele>1583.0</ele>
  <time>2026-09-02T20:50:18Z</time>
  <course>0.0</course>
  <speed>0.0</speed>
  <fix>3d</fix>
</trkpt>
<trkpt lat="40.0713749" lon="-105.229789">
  <ele>1583.0</ele>
  <time>2026-09-02T20:50:18Z</time>
  <course>0.0</course>
  <speed>0.0</speed>
  <fix>3d</fix>
</trkpt>
<trkpt lat="40.0713749" lon="-105.229789">
  <ele>1583.0</ele>
  <time>2026-09-02T20:50:18Z</time>
  <course>0.0</course>
  <speed>0.0</speed>
  <fix>3d</fix>
</trkpt>
<trkpt lat="40.0713749" lon="-105.229789">
  <ele>1583.0</ele>
  <time>2026-09-02T20:50:18Z</time>
  <course>0.0</course>
  <speed>0.0</speed>
  <fix>3d</fix>
</trkpt>
<trkpt lat="40.0713749" lon="-105.229789">
  <ele>1583.0</ele>
  <time>2026-09-02T20:50:18Z</time>
  <course>0.0</course>
  <speed>0.0</speed>
  <fix>3d</fix>
</trkpt>
<trkpt lat="40.0713749" lon="-105.229789">
  <ele>1583.0</ele>
  <time>2026-09-02T20:50:18Z</time>
  <course>0.0</course>
  <speed>0.0</speed>
  <fix>3d</fix>
</trkpt>
<trkpt lat="40.0713749" lon="-105.229789">
  <ele>1583.0</ele>
  <time>2026-09-02T20:50:18Z</time>
  <course>0.0</course>
  <speed>0.0</speed>
  <fix>3d</fix>
</trkpt>
<trkpt lat="40.0713749" lon="-105.229789">
  <ele>1583.0</ele>
  <time>2026-09-02T20:50:18Z</time>
  <course>0.0</course>
  <speed>0.0</speed>
  <fix>3d</fix>
</trkpt>
<trkpt lat="40.0713749" lon="-105.229789">
  <ele>1583.0</ele>
  <time>2026-09-02T20:50:18Z</time>
  <course>0.0</course>
  <speed>0.0</speed>
  <fix>3d</fix>
</trkpt>
<trkpt lat="40.0713749" lon="-105.229789">
  <ele>1583.0</ele>
  <time>2026-09-02T20:50:18Z</time>
  <course>0.0</course>
  <speed>0.0</speed>
  <fix>3d</fix>
</trkpt>
<trkpt lat="40.0713749" lon="-105.229789">
  <ele>1583.0</ele>
  <time>2026-09-02T20:50:18Z</time>
  <course>0.0</course>
  <speed>0.0</speed>
  <fix>3d</fix>
</trkpt>
<trkpt lat="40.0713749" lon="-105.229789">
  <ele>1583.0</ele>
  <time>2026-09-02T20:50:18Z</time>
  <course>0.0</course>
  <speed>0.0</speed>
  <fix>3d</fix>
</trkpt>
<trkpt lat="40.0713749" lon="-105.229789">
  <ele>1583.0</ele>
  <time>2026-09-02T20:50:18Z</time>
  <course>0.0</course>
  <speed>0.0</speed>
  <fix>3d</fix>
</trkpt>
<trkpt lat="40.0713749" lon="-105.229789">
  <ele>1583.0</ele>
  <time>2026-09-02T20:50:18Z</time>
  <course>0.0</course>
  <speed>0.0</speed>
  <fix>3d</fix>
</trkpt>
<trkpt lat="40.0713749" lon="-105.229789">
  <ele>1583.0</ele>
  <time>2026-09-02T20:50:18Z</time>
  <course>0.0</course>
  <speed>0.0</speed>
  <fix>3d</fix>
</trkpt>
<trkpt lat="40.0713749" lon="-105.229789">
  <ele>1583.0</ele>
  <time>2026-09-02T20:50:18Z</time>
  <course>0.0</course>
  <speed>0.0</speed>
  <fix>3d</fix>
</trkpt>
<trkpt lat="40.0713749" lon="-105.229789">
  <ele>1583.0</ele>
  <time>2026-09-02T20:50:18Z</time>
  <course>0.0</course>
  <speed>0.0</speed>
  <fix>3d</fix>
</trkpt>
<trkpt lat="40.0713749" lon="-105.229789">
  <ele>1583.0</ele>
  <time>2026-09-02T20:50:18Z</time>
  <course>0.0</course>
  <speed>0.0</speed>
  <fix>3d</fix>
</trkpt>
<trkpt lat="40.0713749" lon="-105.229789">
  <ele>1583.0</ele>
  <time>2026-09-02T20:50:18Z</time>
  <course>0.0</course>
  <speed>0.0</speed>
  <fix>3d</fix>
</trkpt>
<trkpt lat="40.0713749" lon="-105.229789">
  <ele>1583.0</ele>
  <time>2026-09-02T20:50:18Z</time>
  <course>0.0</course>
  <speed>0.0</speed>
  <fix>3d</fix>
</trkpt>
<trkpt lat="40.0713749" lon="-105.229789">
  <ele>1583.0</ele>
  <time>2026-09-02T20:50:18Z</time>
  <course>0.0</course>
  <speed>0.0</speed>
  <fix>3d</fix>
</trkpt>
<trkpt lat="40.0713749" lon="-105.229789">
  <ele>1583.0</ele>
  <time>2026-09-02T20:50:18Z</time>
  <course>0.0</course>
  <speed>0.0</speed>
  <fix>3d</fix>
</trkpt>
<trkpt lat="40.0713749" lon="-105.229789">
  <ele>1583.0</ele>
  <time>2026-09-02T20:50:18Z</time>
  <course>0.0</course>
  <speed>0.0</speed>
  <fix>3d</fix>
</trkpt>
<trkpt lat="40.0713749" lon="-105.229789">
  <ele>1583.0</ele>
  <time>2026-09-02T20:50:18Z</time>
  <course>0.0</course>
  <speed>0.0</speed>
  <fix>3d</fix>
</trkpt>
<trkpt lat="40.0713749" lon="-105.229789">
  <ele>1583.0</ele>
  <time>2026-09-02T20:50:18Z</time>
  <course>0.0</course>
  <speed>0.0</speed>
  <fix>3d</fix>
</trkpt>
<trkpt lat="40.0713749" lon="-105.229789">
  <ele>1583.0</ele>
  <time>2026-09-02T20:50:18Z</time>
  <course>0.0</course>
  <speed>0.0</speed>
  <fix>3d</fix>
</trkpt>
<trkpt lat="40.0713749" lon="-105.229789">
  <ele>1583.0</ele>
  <time>2026-09-02T20:50:18Z</time>
  <course>0.0</course>
  <speed>0.0</speed>
  <fix>3d</fix>
</trkpt>
<trkpt lat="40.0713749" lon="-105.229789">
  <ele>1583.0</ele>
  <time>2026-09-02T20:50:18Z</time>
  <course>0.0</course>
  <speed>0.0</speed>
  <fix>3d</fix>
</trkpt>
<trkpt lat="40.0713749" lon="-105.229789">
  <ele>1583.0</ele>
  <time>2026-09-02T20:50:18Z</time>
  <course>0.0</course>
  <speed>0.0</speed>
  <fix>3d</fix>
</trkpt>
<trkpt lat="40.0713749" lon="-105.229789">
  <ele>1583.0</ele>
  <time>2026-09-02T20:50:18Z</time>
  <course>0.0</course>
  <speed>0.0</speed>
  <fix>3d</fix>
</trkpt>
<trkpt lat="40.0713749" lon="-105.229789">
  <ele>1583.0</ele>
  <time>2026-09-02T20:50:18Z</time>
  <course>0.0</course>
  <speed>0.0</speed>
  <fix>3d</fix>
</trkpt>
<trkpt lat="40.0713749" lon="-105.229789">
  <ele>1583.0</ele>
  <time>2026-09-02T20:50:18Z</time>
  <course>0.0</course>
  <speed>0.0</speed>
  <fix>3d</fix>
</trkpt>
<trkpt lat="40.0713749" lon="-105.229789">
  <ele>1583.0</ele>
  <time>2026-09-02T20:50:18Z</time>
  <course>0.0</course>
  <speed>0.0</speed>
  <fix>3d</fix>
</trkpt>
<trkpt lat="40.0713749" lon="-105.229789">
  <ele>1583.0</ele>
  <time>2026-09-02T20:50:18Z</time>
  <course>0.0</course>
  <speed>0.0</speed>
  <fix>3d</fix>
</trkpt>
<trkpt lat="40.0713749" lon="-105.229789">
  <ele>1583.0</ele>
  <time>2026-09-02T20:50:18Z</time>
  <course>0.0</course>
  <speed>0.0</speed>
  <fix>3d</fix>
</trkpt>
<trkpt lat="40.0713749" lon="-105.229789">
  <ele>1583.0</ele>
  <time>2026-09-02T20:50:18Z</time>
  <course>0.0</course>
  <speed>0.0</speed>
  <fix>3d</fix>
</trkpt>
<trkpt lat="40.0713749" lon="-105.229789">
  <ele>1583.0</ele>
  <time>2026-09-02T20:50:18Z</time>
  <course>0.0</course>
  <speed>0.0</speed>
  <fix>3d</fix>
</trkpt>
<trkpt lat="40.0713749" lon="-105.229789">
  <ele>1583.0</ele>
  <time>2026-09-02T20:50:18Z</time>
  <course>0.0</course>
  <speed>0.0</speed>
  <fix>3d</fix>
</trkpt>
<trkpt lat="40.0713749" lon="-105.229789">
  <ele>1583.0</ele>
  <time>2026-09-02T20:50:18Z</time>
  <course>0.0</course>
  <speed>0.0</speed>
  <fix>3d</fix>
</trkpt>
<trkpt lat="40.0713749" lon="-105.229789">
  <ele>1583.0</ele>
  <time>2026-09-02T20:50:18Z</time>
  <course>0.0</course>
  <speed>0.0</speed>
  <fix>3d</fix>
</trkpt>
<trkpt lat="40.0713749" lon="-105.229789">
  <ele>1583.0</ele>
  <time>2026-09-02T20:50:18Z</time>
  <course>0.0</course>
  <speed>0.0</speed>
  <fix>3d</fix>
</trkpt>
<trkpt lat="40.0713749" lon="-105.229789">
  <ele>1583.0</ele>
  <time>2026-09-02T20:50:18Z</time>
  <course>0.0</course>
  <speed>0.0</speed>
  <fix>3d</fix>
</trkpt>
<trkpt lat="40.0713749" lon="-105.229789">
  <ele>1583.0</ele>
  <time>2026-09-02T20:50:18Z</time>
  <course>0.0</course>
  <speed>0.0</speed>
  <fix>3d</fix>
</trkpt>
<trkpt lat="40.0713749" lon="-105.229789">
  <ele>1583.0</ele>
  <time>2026-09-02T20:50:18Z</time>
  <course>0.0</course>
  <speed>0.0</speed>
  <fix>3d</fix>
</trkpt>
<trkpt lat="40.0713749" lon="-105.229789">
  <ele>1583.0</ele>
  <time>2026-09-02T20:50:18Z</time>
  <course>0.0</course>
  <speed>0.0</speed>
  <fix>3d</fix>
</trkpt>
<trkpt lat="40.0713749" lon="-105.229789">
  <ele>1583.0</ele>
  <time>2026-09-02T20:50:18Z</time>
  <course>0.0</course>
  <speed>0.0</speed>
  <fix>3d</fix>
</trkpt>
<trkpt lat="40.0713749" lon="-105.229789">
  <ele>1583.0</ele>
  <time>2026-09-02T20:50:18Z</time>
  <course>0.0</course>
  <speed>0.0</speed>
  <fix>3d</fix>
</trkpt>
<trkpt lat="40.0713749" lon="-105.229789">
  <ele>1583.0</ele>
  <time>2026-09-02T20:50:18Z</time>
  <course>0.0</course>
  <speed>0.0</speed>
  <fix>3d</fix>
</trkpt>
<trkpt lat="40.0713749" lon="-105.229789">
  <ele>1583.0</ele>
  <time>2026-09-02T20:50:18Z</time>
  <course>0.0</course>
  <speed>0.0</speed>
  <fix>3d</fix>
</trkpt>
<trkpt lat="40.0713749" lon="-105.229789">
  <ele>1583.0</ele>
  <time>2026-09-02T20:50:18Z</time>
  <course>0.0</course>
  <speed>0.0</speed>
  <fix>3d</fix>
</trkpt>
<trkpt lat="40.0713749" lon="-105.229789">
  <ele>1583.0</ele>
  <time>2026-09-02T20:50:18Z</time>
  <course>0.0</course>
  <speed>0.0</speed>
  <fix>3d</fix>
</trkpt>
<trkpt lat="40.0713749" lon="-105.229789">
  <ele>1583.0</ele>
  <time>2026-09-02T20:50:18Z</time>
  <course>0.0</course>
  <speed>0.0</speed>
  <fix>3d</fix>
</trkpt>
<trkpt lat="40.0713749" lon="-105.229789">
  <ele>1583.0</ele>
  <time>2026-09-02T20:50:18Z</time>
  <course>0.0</course>
  <speed>0.0</speed>
  <fix>3d</fix>
</trkpt>
<trkpt lat="40.0713749" lon="-105.229789">
  <ele>1583.0</ele>
  <time>2026-09-02T20:50:18Z</time>
  <course>0.0</course>
  <speed>0.0</speed>
  <fix>3d</fix>
</trkpt>
<trkpt lat="40.0713749" lon="-105.229789">
  <ele>1583.0</ele>
  <time>2026-09-02T20:50:18Z</time>
  <course>0.0</course>
  <speed>0.0</speed>
  <fix>3d</fix>
</trkpt>
<trkpt lat="40.0713749" lon="-105.229789">
  <ele>1583.0</ele>
  <time>2026-09-02T20:50:18Z</time>
  <course>0.0</course>
  <speed>0.0</speed>
  <fix>3d</fix>
</trkpt>
<trkpt lat="40.0713749" lon="-105.229789">
  <ele>1583.0</ele>
  <time>2026-09-02T20:50:18Z</time>
  <course>0.0</course>
  <speed>0.0</speed>
  <fix>3d</fix>
</trkpt>
<trkpt lat="40.0713749" lon="-105.229789">
  <ele>1583.0</ele>
  <time>2026-09-02T20:50:18Z</time>
  <course>0.0</course>
  <speed>0.0</speed>
  <fix>3d</fix>
</trkpt>
<trkpt lat="40.0713749" lon="-105.229789">
  <ele>1583.0</ele>
  <time>2026-09-02T20:50:18Z</time>
  <course>0.0</course>
  <speed>0.0</speed>
  <fix>3d</fix>
</trkpt>
<trkpt lat="40.0713749" lon="-105.229789">
  <ele>1583.0</ele>
  <time>2026-09-02T20:50:18Z</time>
  <course>0.0</course>
  <speed>0.0</speed>
  <fix>3d</fix>
</trkpt>
<trkpt lat="40.0713749" lon="-105.229789">
  <ele>1583.0</ele>
  <time>2026-09-02T20:50:18Z</time>
  <course>0.0</course>
  <speed>0.0</speed>
  <fix>3d</fix>
</trkpt>
<trkpt lat="40.0713749" lon="-105.229789">
  <ele>1583.0</ele>
  <time>2026-09-02T20:50:18Z</time>
  <course>0.0</course>
  <speed>0.0</speed>
  <fix>3d</fix>
</trkpt>
<trkpt lat="40.0713749" lon="-105.229789">
  <ele>1583.0</ele>
  <time>2026-09-02T20:50:18Z</time>
  <course>0.0</course>
  <speed>0.0</speed>
  <fix>3d</fix>
</trkpt>
<trkpt lat="40.0713749" lon="-105.229789">
  <ele>1583.0</ele>
  <time>2026-09-02T20:50:18Z</time>
  <course>0.0</course>
  <speed>0.0</speed>
  <fix>3d</fix>
</trkpt>
<trkpt lat="40.0713749" lon="-105.229789">
  <ele>1583.0</ele>
  <time>2026-09-02T20:50:18Z</time>
  <course>0.0</course>
  <speed>0.0</speed>
  <fix>3d</fix>
</trkpt>
<trkpt lat="40.0713749" lon="-105.229789">
  <ele>1583.0</ele>
  <time>2026-09-02T20:50:18Z</time>
  <course>0.0</course>
  <speed>0.0</speed>
  <fix>3d</fix>
</trkpt>
<trkpt lat="40.0713749" lon="-105.229789">
  <ele>1583.0</ele>
  <time>2026-09-02T20:50:18Z</time>
  <course>0.0</course>
  <speed>0.0</speed>
  <fix>3d</fix>
</trkpt>
<trkpt lat="40.0713749" lon="-105.229789">
  <ele>1583.0</ele>
  <time>2026-09-02T20:50:18Z</time>
  <course>0.0</course>
  <speed>0.0</speed>
  <fix>3d</fix>
</trkpt>
<trkpt lat="40.0713749" lon="-105.229789">
  <ele>1583.0</ele>
  <time>2026-09-02T20:50:18Z</time>
  <course>0.0</course>
  <speed>0.0</speed>
  <fix>3d</fix>
</trkpt>
<trkpt lat="40.0713749" lon="-105.229789">
  <ele>1583.0</ele>
  <time>2026-09-02T20:50:18Z</time>
  <course>0.0</course>
  <speed>0.0</speed>
  <fix>3d</fix>
</trkpt>
<trkpt lat="40.0713749" lon="-105.229789">
  <ele>1583.0</ele>
  <time>2026-09-02T20:50:18Z</time>
  <course>0.0</course>
  <speed>0.0</speed>
  <fix>3d</fix>
</trkpt>
<trkpt lat="40.0713749" lon="-105.229789">
  <ele>1583.0</ele>
  <time>2026-09-02T20:50:18Z</time>
  <course>0.0</course>
  <speed>0.0</speed>
  <fix>3d</fix>
</trkpt>
<trkpt lat="40.0713749" lon="-105.229789">
  <ele>1583.0</ele>
  <time>2026-09-02T20:50:18Z</time>
  <course>0.0</course>
  <speed>0.0</speed>
  <fix>3d</fix>
</trkpt>
<trkpt lat="40.0713749" lon="-105.229789">
  <ele>1583.0</ele>
  <time>2026-09-02T20:50:18Z</time>
  <course>0.0</course>
  <speed>0.0</speed>
  <fix>3d</fix>
</trkpt>
<trkpt lat="40.0713749" lon="-105.229789">
  <ele>1583.0</ele>
  <time>2026-09-02T20:50:18Z</time>
  <course>0.0</course>
  <speed>0.0</speed>
  <fix>3d</fix>
</trkpt>
<trkpt lat="40.0713749" lon="-105.229789">
  <ele>1583.0</ele>
  <time>2026-09-02T20:50:18Z</time>
  <course>0.0</course>
  <speed>0.0</speed>
  <fix>3d</fix>
</trkpt>
<trkpt lat="40.0713749" lon="-105.229789">
  <ele>1583.0</ele>
  <time>2026-09-02T20:50:18Z</time>
  <course>0.0</course>
  <speed>0.0</speed>
  <fix>3d</fix>
</trkpt>
<trkpt lat="40.0713749" lon="-105.229789">
  <ele>1583.0</ele>
  <time>2026-09-02T20:50:18Z</time>
  <course>0.0</course>
  <speed>0.0</speed>
  <fix>3d</fix>
</trkpt>
<trkpt lat="40.0713749" lon="-105.229789">
  <ele>1583.0</ele>
  <time>2026-09-02T20:50:18Z</time>
  <course>0.0</course>
  <speed>0.0</speed>
  <fix>3d</fix>
</trkpt>
<trkpt lat="40.0713749" lon="-105.229789">
  <ele>1583.0</ele>
  <time>2026-09-02T20:50:18Z</time>
  <course>0.0</course>
  <speed>0.0</speed>
  <fix>3d</fix>
</trkpt>
<trkpt lat="40.0713749" lon="-105.229789">
  <ele>1583.0</ele>
  <time>2026-09-02T20:50:18Z</time>
  <course>0.0</course>
  <speed>0.0</speed>
  <fix>3d</fix>
</trkpt>
<trkpt lat="40.0713749" lon="-105.229789">
  <ele>1583.0</ele>
  <time>2026-09-02T20:50:18Z</time>
  <course>0.0</course>
  <speed>0.0</speed>
  <fix>3d</fix>
</trkpt>
<trkpt lat="40.0713749" lon="-105.229789">
  <ele>1583.0</ele>
  <time>2026-09-02T20:50:18Z</time>
  <course>0.0</course>
  <speed>0.0</speed>
  <fix>3d</fix>
</trkpt>
<trkpt lat="40.0713749" lon="-105.229789">
  <ele>1583.0</ele>
  <time>2026-09-02T20:50:18Z</time>
  <course>0.0</course>
  <speed>0.0</speed>
  <fix>3d</fix>
</trkpt>
<trkpt lat="40.0713749" lon="-105.229789">
  <ele>1583.0</ele>
  <time>2026-09-02T20:50:18Z</time>
  <course>0.0</course>
  <speed>0.0</speed>
  <fix>3d</fix>
</trkpt>
<trkpt lat="40.0713749" lon="-105.229789">
  <ele>1583.0</ele>
  <time>2026-09-02T20:50:18Z</time>
  <course>0.0</course>
  <speed>0.0</speed>
  <fix>3d</fix>
</trkpt>
<trkpt lat="40.0713749" lon="-105.229789">
  <ele>1583.0</ele>
  <time>2026-09-02T20:50:18Z</time>
  <course>0.0</course>
  <speed>0.0</speed>
  <fix>3d</fix>
</trkpt>
<trkpt lat="40.0713749" lon="-105.229789">
  <ele>1583.0</ele>
  <time>2026-09-02T20:50:18Z</time>
  <course>0.0</course>
  <speed>0.0</speed>
  <fix>3d</fix>
</trkpt>
<trkpt lat="40.0713749" lon="-105.229789">
  <ele>1583.0</ele>
  <time>2026-09-02T20:50:18Z</time>
  <course>0.0</course>
  <speed>0.0</speed>
  <fix>3d</fix>
</trkpt>
<trkpt lat="40.0713749" lon="-105.229789">
  <ele>1583.0</ele>
  <time>2026-09-02T20:50:18Z</time>
  <course>0.0</course>
  <speed>0.0</speed>
  <fix>3d</fix>
</trkpt>
<trkpt lat="40.0713749" lon="-105.229789">
  <ele>1583.0</ele>
  <time>2026-09-02T20:50:18Z</time>
  <course>0.0</course>
  <speed>0.0</speed>
  <fix>3d</fix>
</trkpt>
<trkpt lat="40.0713749" lon="-105.229789">
  <ele>1583.0</ele>
  <time>2026-09-02T20:50:18Z</time>
  <course>0.0</course>
  <speed>0.0</speed>
  <fix>3d</fix>
</trkpt>
<trkpt lat="40.0713749" lon="-105.229789">
  <ele>1583.0</ele>
  <time>2026-09-02T20:50:18Z</time>
  <course>0.0</course>
  <speed>0.0</speed>
  <fix>3d</fix>
</trkpt>
<trkpt lat="40.0713749" lon="-105.229789">
  <ele>1583.0</ele>
  <time>2026-09-02T20:50:18Z</time>
  <course>0.0</course>
  <speed>0.0</speed>
  <fix>3d</fix>
</trkpt>
<trkpt lat="40.0713749" lon="-105.229789">
  <ele>1583.0</ele>
  <time>2026-09-02T20:50:18Z</time>
  <course>0.0</course>
  <speed>0.0</speed>
  <fix>3d</fix>
</trkpt>
<trkpt lat="40.0713749" lon="-105.229789">
  <ele>1583.0</ele>
  <time>2026-09-02T20:50:18Z</time>
  <course>0.0</course>
  <speed>0.0</speed>
  <fix>3d</fix>
</trkpt>
<trkpt lat="40.0713749" lon="-105.229789">
  <ele>1583.0</ele>
  <time>2026-09-02T20:50:18Z</time>
  <course>0.0</course>
  <speed>0.0</speed>
  <fix>3d</fix>
</trkpt>
<trkpt lat="40.0713749" lon="-105.229789">
  <ele>1583.0</ele>
  <time>2026-09-02T20:50:18Z</time>
  <course>0.0</course>
  <speed>0.0</speed>
  <fix>3d</fix>
</trkpt>
<trkpt lat="40.0713749" lon="-105.229789">
  <ele>1583.0</ele>
  <time>2026-09-02T20:50:18Z</time>
  <course>0.0</course>
  <speed>0.0</speed>
  <fix>3d</fix>
</trkpt>
<trkpt lat="40.0713749" lon="-105.229789">
  <ele>1583.0</ele>
  <time>2026-09-02T20:50:18Z</time>
  <course>0.0</course>
  <speed>0.0</speed>
  <fix>3d</fix>
</trkpt>
<trkpt lat="40.0713749" lon="-105.229789">
  <ele>1583.0</ele>
  <time>2026-09-02T20:50:18Z</time>
  <course>0.0</course>
  <speed>0.0</speed>
  <fix>3d</fix>
</trkpt>
<trkpt lat="40.0713749" lon="-105.229789">
  <ele>1583.0</ele>
  <time>2026-09-02T20:50:18Z</time>
  <course>0.0</course>
  <speed>0.0</speed>
  <fix>3d</fix>
</trkpt>
<trkpt lat="40.0713749" lon="-105.229789">
  <ele>1583.0</ele>
  <time>2026-09-02T20:50:18Z</time>
  <course>0.0</course>
  <speed>0.0</speed>
  <fix>3d</fix>
</trkpt>
<trkpt lat="40.0713749" lon="-105.229789">
  <ele>1583.0</ele>
  <time>2026-09-02T20:50:18Z</time>
  <course>0.0</course>
  <speed>0.0</speed>
  <fix>3d</fix>
</trkpt>
<trkpt lat="40.0713749" lon="-105.229789">
  <ele>1583.0</ele>
  <time>2026-09-02T20:50:18Z</time>
  <course>0.0</course>
  <speed>0.0</speed>
  <fix>3d</fix>
</trkpt>
<trkpt lat="40.0713749" lon="-105.229789">
  <ele>1583.0</ele>
  <time>2026-09-02T20:50:18Z</time>
  <course>0.0</course>
  <speed>0.0</speed>
  <fix>3d</fix>
</trkpt>
<trkpt lat="40.0713749" lon="-105.229789">
  <ele>1583.0</ele>
  <time>2026-09-02T20:50:18Z</time>
  <course>0.0</course>
  <speed>0.0</speed>
  <fix>3d</fix>
</trkpt>
<trkpt lat="40.0713749" lon="-105.229789">
  <ele>1583.0</ele>
  <time>2026-09-02T20:50:18Z</time>
  <course>0.0</course>
  <speed>0.0</speed>
  <fix>3d</fix>
</trkpt>
<trkpt lat="40.0713749" lon="-105.229789">
  <ele>1583.0</ele>
  <time>2026-09-02T20:50:18Z</time>
  <course>0.0</course>
  <speed>0.0</speed>
  <fix>3d</fix>
</trkpt>
<trkpt lat="40.0713749" lon="-105.229789">
  <ele>1583.0</ele>
  <time>2026-09-02T20:50:18Z</time>
  <course>0.0</course>
  <speed>0.0</speed>
  <fix>3d</fix>
</trkpt>
<trkpt lat="40.0713749" lon="-105.229789">
  <ele>1583.0</ele>
  <time>2026-09-02T20:50:18Z</time>
  <course>0.0</course>
  <speed>0.0</speed>
  <fix>3d</fix>
</trkpt>
<trkpt lat="40.0713749" lon="-105.229789">
  <ele>1583.0</ele>
  <time>2026-09-02T20:50:18Z</time>
  <course>0.0</course>
  <speed>0.0</speed>
  <fix>3d</fix>
</trkpt>
<trkpt lat="40.0713749" lon="-105.229789">
  <ele>1583.0</ele>
  <time>2026-09-02T20:50:18Z</time>
  <course>0.0</course>
  <speed>0.0</speed>
  <fix>3d</fix>
</trkpt>
<trkpt lat="40.0713749" lon="-105.229789">
  <ele>1583.0</ele>
  <time>2026-09-02T20:50:18Z</time>
  <course>0.0</course>
  <speed>0.0</speed>
  <fix>3d</fix>
</trkpt>
<trkpt lat="40.0713749" lon="-105.229789">
  <ele>1583.0</ele>
  <time>2026-09-02T20:50:18Z</time>
  <course>0.0</course>
  <speed>0.0</speed>
  <fix>3d</fix>
</trkpt>
<trkpt lat="40.0713749" lon="-105.229789">
  <ele>1583.0</ele>
  <time>2026-09-02T20:50:18Z</time>
  <course>0.0</course>
  <speed>0.0</speed>
  <fix>3d</fix>
</trkpt>
<trkpt lat="40.0713749" lon="-105.229789">
  <ele>1583.0</ele>
  <time>2026-09-02T20:50:18Z</time>
  <course>0.0</course>
  <speed>0.0</speed>
  <fix>3d</fix>
</trkpt>
<trkpt lat="40.0713749" lon="-105.229789">
  <ele>1583.0</ele>
  <time>2026-09-02T20:50:18Z</time>
  <course>0.0</course>
  <speed>0.0</speed>
  <fix>3d</fix>
</trkpt>
<trkpt lat="40.0713749" lon="-105.229789">
  <ele>1583.0</ele>
  <time>2026-09-02T20:50:18Z</time>
  <course>0.0</course>
  <speed>0.0</speed>
  <fix>3d</fix>
</trkpt>
<trkpt lat="40.0713749" lon="-105.229789">
  <ele>1583.0</ele>
  <time>2026-09-02T20:50:18Z</time>
  <course>0.0</course>
  <speed>0.0</speed>
  <fix>3d</fix>
</trkpt>
<trkpt lat="40.0713749" lon="-105.229789">
  <ele>1583.0</ele>
  <time>2026-09-02T20:50:18Z</time>
  <course>0.0</course>
  <speed>0.0</speed>
  <fix>3d</fix>
</trkpt>
<trkpt lat="40.0713749" lon="-105.229789">
  <ele>1583.0</ele>
  <time>2026-09-02T20:50:18Z</time>
  <course>0.0</course>
  <speed>0.0</speed>
  <fix>3d</fix>
</trkpt>
<trkpt lat="40.0713749" lon="-105.229789">
  <ele>1583.0</ele>
  <time>2026-09-02T20:50:18Z</time>
  <course>0.0</course>
  <speed>0.0</speed>
  <fix>3d</fix>
</trkpt>
<trkpt lat="40.0713749" lon="-105.229789">
  <ele>1583.0</ele>
  <time>2026-09-02T20:50:18Z</time>
  <course>0.0</course>
  <speed>0.0</speed>
  <fix>3d</fix>
</trkpt>
<trkpt lat="40.0713749" lon="-105.229789">
  <ele>1583.0</ele>
  <time>2026-09-02T20:50:18Z</time>
  <course>0.0</course>
  <speed>0.0</speed>
  <fix>3d</fix>
</trkpt>
<trkpt lat="40.0713749" lon="-105.229789">
  <ele>1583.0</ele>
  <time>2026-09-02T20:50:18Z</time>
  <course>0.0</course>
  <speed>0.0</speed>
  <fix>3d</fix>
</trkpt>
<trkpt lat="40.0713749" lon="-105.229789">
  <ele>1583.0</ele>
  <time>2026-09-02T20:50:18Z</time>
  <course>0.0</course>
  <speed>0.0</speed>
  <fix>3d</fix>
</trkpt>
<trkpt lat="40.0713749" lon="-105.229789">
  <ele>1583.0</ele>
  <time>2026-09-02T20:50:18Z</time>
  <course>0.0</course>
  <speed>0.0</speed>
  <fix>3d</fix>
</trkpt>
<trkpt lat="40.0713749" lon="-105.229789">
  <ele>1583.0</ele>
  <time>2026-09-02T20:50:18Z</time>
  <course>0.0</course>
  <speed>0.0</speed>
  <fix>3d</fix>
</trkpt>
<trkpt lat="40.0713749" lon="-105.229789">
  <ele>1583.0</ele>
  <time>2026-09-02T20:50:18Z</time>
  <course>0.0</course>
  <speed>0.0</speed>
  <fix>3d</fix>
</trkpt>
<trkpt lat="40.0713749" lon="-105.229789">
  <ele>1583.0</ele>
  <time>2026-09-02T20:50:18Z</time>
  <course>0.0</course>
  <speed>0.0</speed>
  <fix>3d</fix>
</trkpt>
<trkpt lat="40.0713749" lon="-105.229789">
  <ele>1583.0</ele>
  <time>2026-09-02T20:50:18Z</time>
  <course>0.0</course>
  <speed>0.0</speed>
  <fix>3d</fix>
</trkpt>
<trkpt lat="40.0713749" lon="-105.229789">
  <ele>1583.0</ele>
  <time>2026-09-02T20:50:18Z</time>
  <course>0.0</course>
  <speed>0.0</speed>
  <fix>3d</fix>
</trkpt>
<trkpt lat="40.0713749" lon="-105.229789">
  <ele>1583.0</ele>
  <time>2026-09-02T20:50:18Z</time>
  <course>0.0</course>
  <speed>0.0</speed>
  <fix>3d</fix>
</trkpt>
<trkpt lat="40.0713749" lon="-105.229789">
  <ele>1583.0</ele>
  <time>2026-09-02T20:50:18Z</time>
  <course>0.0</course>
  <speed>0.0</speed>
  <fix>3d</fix>
</trkpt>
<trkpt lat="40.0713749" lon="-105.229789">
  <ele>1583.0</ele>
  <time>2026-09-02T20:50:18Z</time>
  <course>0.0</course>
  <speed>0.0</speed>
  <fix>3d</fix>
</trkpt>
<trkpt lat="40.0713749" lon="-105.229789">
  <ele>1583.0</ele>
  <time>2026-09-02T20:50:18Z</time>
  <course>0.0</course>
  <speed>0.0</speed>
  <fix>3d</fix>
</trkpt>
<trkpt lat="40.0713749" lon="-105.229789">
  <ele>1583.0</ele>
  <time>2026-09-02T20:50:18Z</time>
  <course>0.0</course>
  <speed>0.0</speed>
  <fix>3d</fix>
</trkpt>
<trkpt lat="40.0713749" lon="-105.229789">
  <ele>1583.0</ele>
  <time>2026-09-02T20:50:18Z</time>
  <course>0.0</course>
  <speed>0.0</speed>
  <fix>3d</fix>
</trkpt>
<trkpt lat="40.0713749" lon="-105.229789">
  <ele>1583.0</ele>
  <time>2026-09-02T20:50:18Z</time>
  <course>0.0</course>
  <speed>0.0</speed>
  <fix>3d</fix>
</trkpt>
<trkpt lat="40.0713749" lon="-105.229789">
  <ele>1583.0</ele>
  <time>2026-09-02T20:50:18Z</time>
  <course>0.0</course>
  <speed>0.0</speed>
  <fix>3d</fix>
</trkpt>
<trkpt lat="40.0713749" lon="-105.229789">
  <ele>1583.0</ele>
  <time>2026-09-02T20:50:18Z</time>
  <course>0.0</course>
  <speed>0.0</speed>
  <fix>3d</fix>
</trkpt>
<trkpt lat="40.0713749" lon="-105.229789">
  <ele>1583.0</ele>
  <time>2026-09-02T20:50:18Z</time>
  <course>0.0</course>
  <speed>0.0</speed>
  <fix>3d</fix>
</trkpt>
<trkpt lat="40.0713749" lon="-105.229789">
  <ele>1583.0</ele>
  <time>2026-09-02T20:50:18Z</time>
  <course>0.0</course>
  <speed>0.0</speed>
  <fix>3d</fix>
</trkpt>
<trkpt lat="40.0713749" lon="-105.229789">
  <ele>1583.0</ele>
  <time>2026-09-02T20:50:18Z</time>
  <course>0.0</course>
  <speed>0.0</speed>
  <fix>3d</fix>
</trkpt>
<trkpt lat="40.0713749" lon="-105.229789">
  <ele>1583.0</ele>
  <time>2026-09-02T20:50:18Z</time>
  <course>0.0</course>
  <speed>0.0</speed>
  <fix>3d</fix>
</trkpt>
<trkpt lat="40.0713749" lon="-105.229789">
  <ele>1583.0</ele>
  <time>2026-09-02T20:50:18Z</time>
  <course>0.0</course>
  <speed>0.0</speed>
  <fix>3d</fix>
</trkpt>
<trkpt lat="40.0713749" lon="-105.229789">
  <ele>1583.0</ele>
  <time>2026-09-02T20:50:18Z</time>
  <course>0.0</course>
  <speed>0.0</speed>
  <fix>3d</fix>
</trkpt>
<trkpt lat="40.0713749" lon="-105.229789">
  <ele>1583.0</ele>
  <time>2026-09-02T20:50:18Z</time>
  <course>0.0</course>
  <speed>0.0</speed>
  <fix>3d</fix>
</trkpt>
<trkpt lat="40.0713749" lon="-105.229789">
  <ele>1583.0</ele>
  <time>2026-09-02T20:50:18Z</time>
  <course>0.0</course>
  <speed>0.0</speed>
  <fix>3d</fix>
</trkpt>
<trkpt lat="40.0713749" lon="-105.229789">
  <ele>1583.0</ele>
  <time>2026-09-02T20:50:18Z</time>
  <course>0.0</course>
  <speed>0.0</speed>
  <fix>3d</fix>
</trkpt>
<trkpt lat="40.0713749" lon="-105.229789">
  <ele>1583.0</ele>
  <time>2026-09-02T20:50:18Z</time>
  <course>0.0</course>
  <speed>0.0</speed>
  <fix>3d</fix>
</trkpt>
<trkpt lat="40.0713749" lon="-105.229789">
  <ele>1583.0</ele>
  <time>2026-09-02T20:50:18Z</time>
  <course>0.0</course>
  <speed>0.0</speed>
  <fix>3d</fix>
</trkpt>
<trkpt lat="40.0713749" lon="-105.229789">
  <ele>1583.0</ele>
  <time>2026-09-02T20:50:18Z</time>
  <course>0.0</course>
  <speed>0.0</speed>
  <fix>3d</fix>
</trkpt>
<trkpt lat="40.0713749" lon="-105.229789">
  <ele>1583.0</ele>
  <time>2026-09-02T20:50:18Z</time>
  <course>0.0</course>
  <speed>0.0</speed>
  <fix>3d</fix>
</trkpt>
<trkpt lat="40.0713749" lon="-105.229789">
  <ele>1583.0</ele>
  <time>2026-09-02T20:50:18Z</time>
  <course>0.0</course>
  <speed>0.0</speed>
  <fix>3d</fix>
</trkpt>
<trkpt lat="40.0713749" lon="-105.229789">
  <ele>1583.0</ele>
  <time>2026-09-02T20:50:18Z</time>
  <course>0.0</course>
  <speed>0.0</speed>
  <fix>3d</fix>
</trkpt>
<trkpt lat="40.0713749" lon="-105.229789">
  <ele>1583.0</ele>
  <time>2026-09-02T20:50:18Z</time>
  <course>0.0</course>
  <speed>0.0</speed>
  <fix>3d</fix>
</trkpt>
<trkpt lat="40.0713749" lon="-105.229789">
  <ele>1583.0</ele>
  <time>2026-09-02T20:50:18Z</time>
  <course>0.0</course>
  <speed>0.0</speed>
  <fix>3d</fix>
</trkpt>
<trkpt lat="40.0713749" lon="-105.229789">
  <ele>1583.0</ele>
  <time>2026-09-02T20:50:18Z</time>
  <course>0.0</course>
  <speed>0.0</speed>
  <fix>3d</fix>
</trkpt>
<trkpt lat="40.0713749" lon="-105.229789">
  <ele>1583.0</ele>
  <time>2026-09-02T20:50:18Z</time>
  <course>0.0</course>
  <speed>0.0</speed>
  <fix>3d</fix>
</trkpt>
<trkpt lat="40.0713749" lon="-105.229789">
  <ele>1583.0</ele>
  <time>2026-09-02T20:50:18Z</time>
  <course>0.0</course>
  <speed>0.0</speed>
  <fix>3d</fix>
</trkpt>
<trkpt lat="40.0713749" lon="-105.229789">
  <ele>1583.0</ele>
  <time>2026-09-02T20:50:18Z</time>
  <course>0.0</course>
  <speed>0.0</speed>
  <fix>3d</fix>
</trkpt>
<trkpt lat="40.0713749" lon="-105.229789">
  <ele>1583.0</ele>
  <time>2026-09-02T20:50:18Z</time>
  <course>0.0</course>
  <speed>0.0</speed>
  <fix>3d</fix>
</trkpt>
<trkpt lat="40.0713749" lon="-105.229789">
  <ele>1583.0</ele>
  <time>2026-09-02T20:50:18Z</time>
  <course>0.0</course>
  <speed>0.0</speed>
  <fix>3d</fix>
</trkpt>
<trkpt lat="40.0713749" lon="-105.229789">
  <ele>1583.0</ele>
  <time>2026-09-02T20:50:18Z</time>
  <course>0.0</course>
  <speed>0.0</speed>
  <fix>3d</fix>
</trkpt>
<trkpt lat="40.0713749" lon="-105.229789">
  <ele>1583.0</ele>
  <time>2026-09-02T20:50:18Z</time>
  <course>0.0</course>
  <speed>0.0</speed>
  <fix>3d</fix>
</trkpt>
<trkpt lat="40.0713749" lon="-105.229789">
  <ele>1583.0</ele>
  <time>2026-09-02T20:50:18Z</time>
  <course>0.0</course>
  <speed>0.0</speed>
  <fix>3d</fix>
</trkpt>
<trkpt lat="40.0713749" lon="-105.229789">
  <ele>1583.0</ele>
  <time>2026-09-02T20:50:18Z</time>
  <course>0.0</course>
  <speed>0.0</speed>
  <fix>3d</fix>
</trkpt>
<trkpt lat="40.0713749" lon="-105.229789">
  <ele>1583.0</ele>
  <time>2026-09-02T20:50:18Z</time>
  <course>0.0</course>
  <speed>0.0</speed>
  <fix>3d</fix>
</trkpt>
<trkpt lat="40.0713749" lon="-105.229789">
  <ele>1583.0</ele>
  <time>2026-09-02T20:50:18Z</time>
  <course>0.0</course>
  <speed>0.0</speed>
  <fix>3d</fix>
</trkpt>
<trkpt lat="40.0713749" lon="-105.229789">
  <ele>1583.0</ele>
  <time>2026-09-02T20:50:18Z</time>
  <course>0.0</course>
  <speed>0.0</speed>
  <fix>3d</fix>
</trkpt>
<trkpt lat="40.0713749" lon="-105.229789">
  <ele>1583.0</ele>
  <time>2026-09-02T20:50:18Z</time>
  <course>0.0</course>
  <speed>0.0</speed>
  <fix>3d</fix>
</trkpt>
<trkpt lat="40.0713749" lon="-105.229789">
  <ele>1583.0</ele>
  <time>2026-09-02T20:50:18Z</time>
  <course>0.0</course>
  <speed>0.0</speed>
  <fix>3d</fix>
</trkpt>
<trkpt lat="40.0713749" lon="-105.229789">
  <ele>1583.0</ele>
  <time>2026-09-02T20:50:18Z</time>
  <course>0.0</course>
  <speed>0.0</speed>
  <fix>3d</fix>
</trkpt>
<trkpt lat="40.0713749" lon="-105.229789">
  <ele>1583.0</ele>
  <time>2026-09-02T20:50:18Z</time>
  <course>0.0</course>
  <speed>0.0</speed>
  <fix>3d</fix>
</trkpt>
<trkpt lat="40.0713749" lon="-105.229789">
  <ele>1583.0</ele>
  <time>2026-09-02T20:50:18Z</time>
  <course>0.0</course>
  <speed>0.0</speed>
  <fix>3d</fix>
</trkpt>
<trkpt lat="40.0713749" lon="-105.229789">
  <ele>1583.0</ele>
  <time>2026-09-02T20:50:18Z</time>
  <course>0.0</course>
  <speed>0.0</speed>
  <fix>3d</fix>
</trkpt>
<trkpt lat="40.0713749" lon="-105.229789">
  <ele>1583.0</ele>
  <time>2026-09-02T20:50:18Z</time>
  <course>0.0</course>
  <speed>0.0</speed>
  <fix>3d</fix>
</trkpt>
<trkpt lat="40.0713749" lon="-105.229789">
  <ele>1583.0</ele>
  <time>2026-09-02T20:50:18Z</time>
  <course>0.0</course>
  <speed>0.0</speed>
  <fix>3d</fix>
</trkpt>
<trkpt lat="40.0713749" lon="-105.229789">
  <ele>1583.0</ele>
  <time>2026-09-02T20:50:18Z</time>
  <course>0.0</course>
  <speed>0.0</speed>
  <fix>3d</fix>
</trkpt>
<trkpt lat="40.0713749" lon="-105.229789">
  <ele>1583.0</ele>
  <time>2026-09-02T20:50:18Z</time>
  <course>0.0</course>
  <speed>0.0</speed>
  <fix>3d</fix>
</trkpt>
<trkpt lat="40.0713749" lon="-105.229789">
  <ele>1583.0</ele>
  <time>2026-09-02T20:50:18Z</time>
  <course>0.0</course>
  <speed>0.0</speed>
  <fix>3d</fix>
</trkpt>
<trkpt lat="40.0713749" lon="-105.229789">
  <ele>1583.0</ele>
  <time>2026-09-02T20:50:18Z</time>
  <course>0.0</course>
  <speed>0.0</speed>
  <fix>3d</fix>
</trkpt>
<trkpt lat="40.0713749" lon="-105.229789">
  <ele>1583.0</ele>
  <time>2026-09-02T20:50:18Z</time>
  <course>0.0</course>
  <speed>0.0</speed>
  <fix>3d</fix>
</trkpt>
<trkpt lat="40.0713749" lon="-105.229789">
  <ele>1583.0</ele>
  <time>2026-09-02T20:50:18Z</time>
  <course>0.0</course>
  <speed>0.0</speed>
  <fix>3d</fix>
</trkpt>
<trkpt lat="40.0713749" lon="-105.229789">
  <ele>1583.0</ele>
  <time>2026-09-02T20:50:18Z</time>
  <course>0.0</course>
  <speed>0.0</speed>
  <fix>3d</fix>
</trkpt>
<trkpt lat="40.0713749" lon="-105.229789">
  <ele>1583.0</ele>
  <time>2026-09-02T20:50:18Z</time>
  <course>0.0</course>
  <speed>0.0</speed>
  <fix>3d</fix>
</trkpt>
<trkpt lat="40.0713749" lon="-105.229789">
  <ele>1583.0</ele>
  <time>2026-09-02T20:50:18Z</time>
  <course>0.0</course>
  <speed>0.0</speed>
  <fix>3d</fix>
</trkpt>
<trkpt lat="40.0713749" lon="-105.229789">
  <ele>1583.0</ele>
  <time>2026-09-02T20:50:18Z</time>
  <course>0.0</course>
  <speed>0.0</speed>
  <fix>3d</fix>
</trkpt>
<trkpt lat="40.0713749" lon="-105.229789">
  <ele>1583.0</ele>
  <time>2026-09-02T20:50:18Z</time>
  <course>0.0</course>
  <speed>0.0</speed>
  <fix>3d</fix>
</trkpt>
<trkpt lat="40.0713749" lon="-105.229789">
  <ele>1583.0</ele>
  <time>2026-09-02T20:50:18Z</time>
  <course>0.0</course>
  <speed>0.0</speed>
  <fix>3d</fix>
</trkpt>
<trkpt lat="40.0713749" lon="-105.229789">
  <ele>1583.0</ele>
  <time>2026-09-02T20:50:18Z</time>
  <course>0.0</course>
  <speed>0.0</speed>
  <fix>3d</fix>
</trkpt>
<trkpt lat="40.0713749" lon="-105.229789">
  <ele>1583.0</ele>
  <time>2026-09-02T20:50:18Z</time>
  <course>0.0</course>
  <speed>0.0</speed>
  <fix>3d</fix>
</trkpt>
<trkpt lat="40.0713749" lon="-105.229789">
  <ele>1583.0</ele>
  <time>2026-09-02T20:50:18Z</time>
  <course>0.0</course>
  <speed>0.0</speed>
  <fix>3d</fix>
</trkpt>
<trkpt lat="40.0713749" lon="-105.229789">
  <ele>1583.0</ele>
  <time>2026-09-02T20:50:18Z</time>
  <course>0.0</course>
  <speed>0.0</speed>
  <fix>3d</fix>
</trkpt>
<trkpt lat="40.0713749" lon="-105.229789">
  <ele>1583.0</ele>
  <time>2026-09-02T20:50:18Z</time>
  <course>0.0</course>
  <speed>0.0</speed>
  <fix>3d</fix>
</trkpt>
<trkpt lat="40.0713749" lon="-105.229789">
  <ele>1583.0</ele>
  <time>2026-09-02T20:50:18Z</time>
  <course>0.0</course>
  <speed>0.0</speed>
  <fix>3d</fix>
</trkpt>
<trkpt lat="40.0713749" lon="-105.229789">
  <ele>1583.0</ele>
  <time>2026-09-02T20:50:18Z</time>
  <course>0.0</course>
  <speed>0.0</speed>
  <fix>3d</fix>
</trkpt>
<trkpt lat="40.0713749" lon="-105.229789">
  <ele>1583.0</ele>
  <time>2026-09-02T20:50:18Z</time>
  <course>0.0</course>
  <speed>0.0</speed>
  <fix>3d</fix>
</trkpt>
<trkpt lat="40.0713749" lon="-105.229789">
  <ele>1583.0</ele>
  <time>2026-09-02T20:50:18Z</time>
  <course>0.0</course>
  <speed>0.0</speed>
  <fix>3d</fix>
</trkpt>
<trkpt lat="40.0713749" lon="-105.229789">
  <ele>1583.0</ele>
  <time>2026-09-02T20:50:18Z</time>
  <course>0.0</course>
  <speed>0.0</speed>
  <fix>3d</fix>
</trkpt>
<trkpt lat="40.0713749" lon="-105.229789">
  <ele>1583.0</ele>
  <time>2026-09-02T20:50:18Z</time>
  <course>0.0</course>
  <speed>0.0</speed>
  <fix>3d</fix>
</trkpt>
<trkpt lat="40.0713749" lon="-105.229789">
  <ele>1583.0</ele>
  <time>2026-09-02T20:50:18Z</time>
  <course>0.0</course>
  <speed>0.0</speed>
  <fix>3d</fix>
</trkpt>
<trkpt lat="40.0713749" lon="-105.229789">
  <ele>1583.0</ele>
  <time>2026-09-02T20:50:18Z</time>
  <course>0.0</course>
  <speed>0.0</speed>
  <fix>3d</fix>
</trkpt>
<trkpt lat="40.0713749" lon="-105.229789">
  <ele>1583.0</ele>
  <time>2026-09-02T20:50:18Z</time>
  <course>0.0</course>
  <speed>0.0</speed>
  <fix>3d</fix>
</trkpt>
<trkpt lat="40.0713749" lon="-105.229789">
  <ele>1583.0</ele>
  <time>2026-09-02T20:50:18Z</time>
  <course>0.0</course>
  <speed>0.0</speed>
  <fix>3d</fix>
</trkpt>
<trkpt lat="40.0713749" lon="-105.229789">
  <ele>1583.0</ele>
  <time>2026-09-02T20:50:18Z</time>
  <course>0.0</course>
  <speed>0.0</speed>
  <fix>3d</fix>
</trkpt>
<trkpt lat="40.0713749" lon="-105.229789">
  <ele>1583.0</ele>
  <time>2026-09-02T20:50:18Z</time>
  <course>0.0</course>
  <speed>0.0</speed>
  <fix>3d</fix>
</trkpt>
<trkpt lat="40.0713749" lon="-105.229789">
  <ele>1583.0</ele>
  <time>2026-09-02T20:50:18Z</time>
  <course>0.0</course>
  <speed>0.0</speed>
  <fix>3d</fix>
</trkpt>
<trkpt lat="40.0713749" lon="-105.229789">
  <ele>1583.0</ele>
  <time>2026-09-02T20:50:18Z</time>
  <course>0.0</course>
  <speed>0.0</speed>
  <fix>3d</fix>
</trkpt>
<trkpt lat="40.0713749" lon="-105.229789">
  <ele>1583.0</ele>
  <time>2026-09-02T20:50:18Z</time>
  <course>0.0</course>
  <speed>0.0</speed>
  <fix>3d</fix>
</trkpt>
<trkpt lat="40.0713749" lon="-105.229789">
  <ele>1583.0</ele>
  <time>2026-09-02T20:50:18Z</time>
  <course>0.0</course>
  <speed>0.0</speed>
  <fix>3d</fix>
</trkpt>
<trkpt lat="40.0713749" lon="-105.229789">
  <ele>1583.0</ele>
  <time>2026-09-02T20:50:18Z</time>
  <course>0.0</course>
  <speed>0.0</speed>
  <fix>3d</fix>
</trkpt>
<trkpt lat="40.0713749" lon="-105.229789">
  <ele>1583.0</ele>
  <time>2026-09-02T20:50:18Z</time>
  <course>0.0</course>
  <speed>0.0</speed>
  <fix>3d</fix>
</trkpt>
<trkpt lat="40.0713749" lon="-105.229789">
  <ele>1583.0</ele>
  <time>2026-09-02T20:50:18Z</time>
  <course>0.0</course>
  <speed>0.0</speed>
  <fix>3d</fix>
</trkpt>
<trkpt lat="40.0713749" lon="-105.229789">
  <ele>1583.0</ele>
  <time>2026-09-02T20:50:18Z</time>
  <course>0.0</course>
  <speed>0.0</speed>
  <fix>3d</fix>
</trkpt>
<trkpt lat="40.0713749" lon="-105.229789">
  <ele>1583.0</ele>
  <time>2026-09-02T20:50:18Z</time>
  <course>0.0</course>
  <speed>0.0</speed>
  <fix>3d</fix>
</trkpt>
<trkpt lat="40.0713749" lon="-105.229789">
  <ele>1583.0</ele>
  <time>2026-09-02T20:50:18Z</time>
  <course>0.0</course>
  <speed>0.0</speed>
  <fix>3d</fix>
</trkpt>
<trkpt lat="40.0713749" lon="-105.229789">
  <ele>1583.0</ele>
  <time>2026-09-02T20:50:18Z</time>
  <course>0.0</course>
  <speed>0.0</speed>
  <fix>3d</fix>
</trkpt>
<trkpt lat="40.0713749" lon="-105.229789">
  <ele>1583.0</ele>
  <time>2026-09-02T20:50:18Z</time>
  <course>0.0</course>
  <speed>0.0</speed>
  <fix>3d</fix>
</trkpt>
<trkpt lat="40.0713749" lon="-105.229789">
  <ele>1583.0</ele>
  <time>2026-09-02T20:50:18Z</time>
  <course>0.0</course>
  <speed>0.0</speed>
  <fix>3d</fix>
</trkpt>
<trkpt lat="40.0713749" lon="-105.229789">
  <ele>1583.0</ele>
  <time>2026-09-02T20:50:18Z</time>
  <course>0.0</course>
  <speed>0.0</speed>
  <fix>3d</fix>
</trkpt>
<trkpt lat="40.0713749" lon="-105.229789">
  <ele>1583.0</ele>
  <time>2026-09-02T20:50:18Z</time>
  <course>0.0</course>
  <speed>0.0</speed>
  <fix>3d</fix>
</trkpt>
<trkpt lat="40.0713749" lon="-105.229789">
  <ele>1583.0</ele>
  <time>2026-09-02T20:50:18Z</time>
  <course>0.0</course>
  <speed>0.0</speed>
  <fix>3d</fix>
</trkpt>
<trkpt lat="40.0713749" lon="-105.229789">
  <ele>1583.0</ele>
  <time>2026-09-02T20:50:18Z</time>
  <course>0.0</course>
  <speed>0.0</speed>
  <fix>3d</fix>
</trkpt>
<trkpt lat="40.0713749" lon="-105.229789">
  <ele>1583.0</ele>
  <time>2026-09-02T20:50:18Z</time>
  <course>0.0</course>
  <speed>0.0</speed>
  <fix>3d</fix>
</trkpt>
<trkpt lat="40.0713749" lon="-105.229789">
  <ele>1583.0</ele>
  <time>2026-09-02T20:50:18Z</time>
  <course>0.0</course>
  <speed>0.0</speed>
  <fix>3d</fix>
</trkpt>
<trkpt lat="40.0713749" lon="-105.229789">
  <ele>1583.0</ele>
  <time>2026-09-02T20:50:18Z</time>
  <course>0.0</course>
  <speed>0.0</speed>
  <fix>3d</fix>
</trkpt>
<trkpt lat="40.0713749" lon="-105.229789">
  <ele>1583.0</ele>
  <time>2026-09-02T20:50:18Z</time>
  <course>0.0</course>
  <speed>0.0</speed>
  <fix>3d</fix>
</trkpt>
<trkpt lat="40.0713749" lon="-105.229789">
  <ele>1583.0</ele>
  <time>2026-09-02T20:50:18Z</time>
  <course>0.0</course>
  <speed>0.0</speed>
  <fix>3d</fix>
</trkpt>
<trkpt lat="40.0713749" lon="-105.229789">
  <ele>1583.0</ele>
  <time>2026-09-02T20:50:18Z</time>
  <course>0.0</course>
  <speed>0.0</speed>
  <fix>3d</fix>
</trkpt>
<trkpt lat="40.0713749" lon="-105.229789">
  <ele>1583.0</ele>
  <time>2026-09-02T20:50:18Z</time>
  <course>0.0</course>
  <speed>0.0</speed>
  <fix>3d</fix>
</trkpt>
<trkpt lat="40.0713749" lon="-105.229789">
  <ele>1583.0</ele>
  <time>2026-09-02T20:50:18Z</time>
  <course>0.0</course>
  <speed>0.0</speed>
  <fix>3d</fix>
</trkpt>
<trkpt lat="40.0713749" lon="-105.229789">
  <ele>1583.0</ele>
  <time>2026-09-02T20:50:18Z</time>
  <course>0.0</course>
  <speed>0.0</speed>
  <fix>3d</fix>
</trkpt>
<trkpt lat="40.0713749" lon="-105.229789">
  <ele>1583.0</ele>
  <time>2026-09-02T20:50:18Z</time>
  <course>0.0</course>
  <speed>0.0</speed>
  <fix>3d</fix>
</trkpt>
<trkpt lat="40.0713749" lon="-105.229789">
  <ele>1583.0</ele>
  <time>2026-09-02T20:50:18Z</time>
  <course>0.0</course>
  <speed>0.0</speed>
  <fix>3d</fix>
</trkpt>
<trkpt lat="40.0713749" lon="-105.229789">
  <ele>1583.0</ele>
  <time>2026-09-02T20:50:18Z</time>
  <course>0.0</course>
  <speed>0.0</speed>
  <fix>3d</fix>
</trkpt>
<trkpt lat="40.0713749" lon="-105.229789">
  <ele>1583.0</ele>
  <time>2026-09-02T20:50:18Z</time>
  <course>0.0</course>
  <speed>0.0</speed>
  <fix>3d</fix>
</trkpt>
<trkpt lat="40.0713749" lon="-105.229789">
  <ele>1583.0</ele>
  <time>2026-09-02T20:50:18Z</time>
  <course>0.0</course>
  <speed>0.0</speed>
  <fix>3d</fix>
</trkpt>
<trkpt lat="40.0713749" lon="-105.229789">
  <ele>1583.0</ele>
  <time>2026-09-02T20:50:18Z</time>
  <course>0.0</course>
  <speed>0.0</speed>
  <fix>3d</fix>
</trkpt>
<trkpt lat="40.0713749" lon="-105.229789">
  <ele>1583.0</ele>
  <time>2026-09-02T20:50:18Z</time>
  <course>0.0</course>
  <speed>0.0</speed>
  <fix>3d</fix>
</trkpt>
<trkpt lat="40.0713749" lon="-105.229789">
  <ele>1583.0</ele>
  <time>2026-09-02T20:50:18Z</time>
  <course>0.0</course>
  <speed>0.0</speed>
  <fix>3d</fix>
</trkpt>
<trkpt lat="40.0713749" lon="-105.229789">
  <ele>1583.0</ele>
  <time>2026-09-02T20:50:18Z</time>
  <course>0.0</course>
  <speed>0.0</speed>
  <fix>3d</fix>
</trkpt>
<trkpt lat="40.0713749" lon="-105.229789">
  <ele>1583.0</ele>
  <time>2026-09-02T20:50:18Z</time>
  <course>0.0</course>
  <speed>0.0</speed>
  <fix>3d</fix>
</trkpt>
<trkpt lat="40.0713749" lon="-105.229789">
  <ele>1583.0</ele>
  <time>2026-09-02T20:50:18Z</time>
  <course>0.0</course>
  <speed>0.0</speed>
  <fix>3d</fix>
</trkpt>
<trkpt lat="40.0713749" lon="-105.229789">
  <ele>1583.0</ele>
  <time>2026-09-02T20:50:18Z</time>
  <course>0.0</course>
  <speed>0.0</speed>
  <fix>3d</fix>
</trkpt>
<trkpt lat="40.0713749" lon="-105.229789">
  <ele>1583.0</ele>
  <time>2026-09-02T20:50:18Z</time>
  <course>0.0</course>
  <speed>0.0</speed>
  <fix>3d</fix>
</trkpt>
<trkpt lat="40.0713749" lon="-105.229789">
  <ele>1583.0</ele>
  <time>2026-09-02T20:50:18Z</time>
  <course>0.0</course>
  <speed>0.0</speed>
  <fix>3d</fix>
</trkpt>
<trkpt lat="40.0713749" lon="-105.229789">
  <ele>1583.0</ele>
  <time>2026-09-02T20:50:18Z</time>
  <course>0.0</course>
  <speed>0.0</speed>
  <fix>3d</fix>
</trkpt>
<trkpt lat="40.0713749" lon="-105.229789">
  <ele>1583.0</ele>
  <time>2026-09-02T20:50:18Z</time>
  <course>0.0</course>
  <speed>0.0</speed>
  <fix>3d</fix>
</trkpt>
<trkpt lat="40.0713749" lon="-105.229789">
  <ele>1583.0</ele>
  <time>2026-09-02T20:50:18Z</time>
  <course>0.0</course>
  <speed>0.0</speed>
  <fix>3d</fix>
</trkpt>
<trkpt lat="40.0713749" lon="-105.229789">
  <ele>1583.0</ele>
  <time>2026-09-02T20:50:18Z</time>
  <course>0.0</course>
  <speed>0.0</speed>
  <fix>3d</fix>
</trkpt>
<trkpt lat="40.0713749" lon="-105.229789">
  <ele>1583.0</ele>
  <time>2026-09-02T20:50:18Z</time>
  <course>0.0</course>
  <speed>0.0</speed>
  <fix>3d</fix>
</trkpt>
<trkpt lat="40.0713749" lon="-105.229789">
  <ele>1583.0</ele>
  <time>2026-09-02T20:50:18Z</time>
  <course>0.0</course>
  <speed>0.0</speed>
  <fix>3d</fix>
</trkpt>
<trkpt lat="40.0713749" lon="-105.229789">
  <ele>1583.0</ele>
  <time>2026-09-02T20:50:18Z</time>
  <course>0.0</course>
  <speed>0.0</speed>
  <fix>3d</fix>
</trkpt>
<trkpt lat="40.0713749" lon="-105.229789">
  <ele>1583.0</ele>
  <time>2026-09-02T20:50:18Z</time>
  <course>0.0</course>
  <speed>0.0</speed>
  <fix>3d</fix>
</trkpt>
<trkpt lat="40.0713749" lon="-105.229789">
  <ele>1583.0</ele>
  <time>2026-09-02T20:50:18Z</time>
  <course>0.0</course>
  <speed>0.0</speed>
  <fix>3d</fix>
</trkpt>
<trkpt lat="40.0713749" lon="-105.229789">
  <ele>1583.0</ele>
  <time>2026-09-02T20:50:18Z</time>
  <course>0.0</course>
  <speed>0.0</speed>
  <fix>3d</fix>
</trkpt>
<trkpt lat="40.0713749" lon="-105.229789">
  <ele>1583.0</ele>
  <time>2026-09-02T20:50:18Z</time>
  <course>0.0</course>
  <speed>0.0</speed>
  <fix>3d</fix>
</trkpt>
<trkpt lat="40.0713749" lon="-105.229789">
  <ele>1583.0</ele>
  <time>2026-09-02T20:50:18Z</time>
  <course>0.0</course>
  <speed>0.0</speed>
  <fix>3d</fix>
</trkpt>
<trkpt lat="40.0713749" lon="-105.229789">
  <ele>1583.0</ele>
  <time>2026-09-02T20:50:18Z</time>
  <course>0.0</course>
  <speed>0.0</speed>
  <fix>3d</fix>
</trkpt>
<trkpt lat="40.0713749" lon="-105.229789">
  <ele>1583.0</ele>
  <time>2026-09-02T20:50:18Z</time>
  <course>0.0</course>
  <speed>0.0</speed>
  <fix>3d</fix>
</trkpt>
<trkpt lat="40.0713749" lon="-105.229789">
  <ele>1583.0</ele>
  <time>2026-09-02T20:50:18Z</time>
  <course>0.0</course>
  <speed>0.0</speed>
  <fix>3d</fix>
</trkpt>
<trkpt lat="40.0713749" lon="-105.229789">
  <ele>1583.0</ele>
  <time>2026-09-02T20:50:18Z</time>
  <course>0.0</course>
  <speed>0.0</speed>
  <fix>3d</fix>
</trkpt>
<trkpt lat="40.0713749" lon="-105.229789">
  <ele>1583.0</ele>
  <time>2026-09-02T20:50:18Z</time>
  <course>0.0</course>
  <speed>0.0</speed>
  <fix>3d</fix>
</trkpt>
<trkpt lat="40.0713749" lon="-105.229789">
  <ele>1583.0</ele>
  <time>2026-09-02T20:50:18Z</time>
  <course>0.0</course>
  <speed>0.0</speed>
  <fix>3d</fix>
</trkpt>
<trkpt lat="40.0713749" lon="-105.229789">
  <ele>1583.0</ele>
  <time>2026-09-02T20:50:18Z</time>
  <course>0.0</course>
  <speed>0.0</speed>
  <fix>3d</fix>
</trkpt>
<trkpt lat="40.0713749" lon="-105.229789">
  <ele>1583.0</ele>
  <time>2026-09-02T20:50:18Z</time>
  <course>0.0</course>
  <speed>0.0</speed>
  <fix>3d</fix>
</trkpt>
<trkpt lat="40.0713749" lon="-105.229789">
  <ele>1583.0</ele>
  <time>2026-09-02T20:50:18Z</time>
  <course>0.0</course>
  <speed>0.0</speed>
  <fix>3d</fix>
</trkpt>
<trkpt lat="40.0713749" lon="-105.229789">
  <ele>1583.0</ele>
  <time>2026-09-02T20:50:18Z</time>
  <course>0.0</course>
  <speed>0.0</speed>
  <fix>3d</fix>
</trkpt>
<trkpt lat="40.0713749" lon="-105.229789">
  <ele>1583.0</ele>
  <time>2026-09-02T20:50:18Z</time>
  <course>0.0</course>
  <speed>0.0</speed>
  <fix>3d</fix>
</trkpt>
<trkpt lat="40.0713749" lon="-105.229789">
  <ele>1583.0</ele>
  <time>2026-09-02T20:50:18Z</time>
  <course>0.0</course>
  <speed>0.0</speed>
  <fix>3d</fix>
</trkpt>
<trkpt lat="40.0713749" lon="-105.229789">
  <ele>1583.0</ele>
  <time>2026-09-02T20:50:18Z</time>
  <course>0.0</course>
  <speed>0.0</speed>
  <fix>3d</fix>
</trkpt>
<trkpt lat="40.0713749" lon="-105.229789">
  <ele>1583.0</ele>
  <time>2026-09-02T20:50:18Z</time>
  <course>0.0</course>
  <speed>0.0</speed>
  <fix>3d</fix>
</trkpt>
<trkpt lat="40.0713749" lon="-105.229789">
  <ele>1583.0</ele>
  <time>2026-09-02T20:50:18Z</time>
  <course>0.0</course>
  <speed>0.0</speed>
  <fix>3d</fix>
</trkpt>
<trkpt lat="40.0713749" lon="-105.229789">
  <ele>1583.0</ele>
  <time>2026-09-02T20:50:18Z</time>
  <course>0.0</course>
  <speed>0.0</speed>
  <fix>3d</fix>
</trkpt>
<trkpt lat="40.0713749" lon="-105.229789">
  <ele>1583.0</ele>
  <time>2026-09-02T20:50:18Z</time>
  <course>0.0</course>
  <speed>0.0</speed>
  <fix>3d</fix>
</trkpt>
<trkpt lat="40.0713749" lon="-105.229789">
  <ele>1583.0</ele>
  <time>2026-09-02T20:50:18Z</time>
  <course>0.0</course>
  <speed>0.0</speed>
  <fix>3d</fix>
</trkpt>
<trkpt lat="40.0713749" lon="-105.229789">
  <ele>1583.0</ele>
  <time>2026-09-02T20:50:18Z</time>
  <course>0.0</course>
  <speed>0.0</speed>
  <fix>3d</fix>
</trkpt>
<trkpt lat="40.0713749" lon="-105.229789">
  <ele>1583.0</ele>
  <time>2026-09-02T20:50:18Z</time>
  <course>0.0</course>
  <speed>0.0</speed>
  <fix>3d</fix>
</trkpt>
<trkpt lat="40.0713749" lon="-105.229789">
  <ele>1583.0</ele>
  <time>2026-09-02T20:50:18Z</time>
  <course>0.0</course>
  <speed>0.0</speed>
  <fix>3d</fix>
</trkpt>
<trkpt lat="40.0713749" lon="-105.229789">
  <ele>1583.0</ele>
  <time>2026-09-02T20:50:18Z</time>
  <course>0.0</course>
  <speed>0.0</speed>
  <fix>3d</fix>
</trkpt>
<trkpt lat="40.0713749" lon="-105.229789">
  <ele>1583.0</ele>
  <time>2026-09-02T20:50:18Z</time>
  <course>0.0</course>
  <speed>0.0</speed>
  <fix>3d</fix>
</trkpt>
<trkpt lat="40.0713749" lon="-105.229789">
  <ele>1583.0</ele>
  <time>2026-09-02T20:50:18Z</time>
  <course>0.0</course>
  <speed>0.0</speed>
  <fix>3d</fix>
</trkpt>
<trkpt lat="40.0713749" lon="-105.229789">
  <ele>1583.0</ele>
  <time>2026-09-02T20:50:18Z</time>
  <course>0.0</course>
  <speed>0.0</speed>
  <fix>3d</fix>
</trkpt>
<trkpt lat="40.0713749" lon="-105.229789">
  <ele>1583.0</ele>
  <time>2026-09-02T20:50:18Z</time>
  <course>0.0</course>
  <speed>0.0</speed>
  <fix>3d</fix>
</trkpt>
<trkpt lat="40.0713749" lon="-105.229789">
  <ele>1583.0</ele>
  <time>2026-09-02T20:50:18Z</time>
  <course>0.0</course>
  <speed>0.0</speed>
  <fix>3d</fix>
</trkpt>
<trkpt lat="40.0713749" lon="-105.229789">
  <ele>1583.0</ele>
  <time>2026-09-02T20:50:18Z</time>
  <course>0.0</course>
  <speed>0.0</speed>
  <fix>3d</fix>
</trkpt>
<trkpt lat="40.0713749" lon="-105.229789">
  <ele>1583.0</ele>
  <time>2026-09-02T20:50:18Z</time>
  <course>0.0</course>
  <speed>0.0</speed>
  <fix>3d</fix>
</trkpt>
<trkpt lat="40.0713749" lon="-105.229789">
  <ele>1583.0</ele>
  <time>2026-09-02T20:50:18Z</time>
  <course>0.0</course>
  <speed>0.0</speed>
  <fix>3d</fix>
</trkpt>
<trkpt lat="40.0713749" lon="-105.229789">
  <ele>1583.0</ele>
  <time>2026-09-02T20:50:18Z</time>
  <course>0.0</course>
  <speed>0.0</speed>
  <fix>3d</fix>
</trkpt>
<trkpt lat="40.0713749" lon="-105.229789">
  <ele>1583.0</ele>
  <time>2026-09-02T20:50:18Z</time>
  <course>0.0</course>
  <speed>0.0</speed>
  <fix>3d</fix>
</trkpt>
<trkpt lat="40.0713749" lon="-105.229789">
  <ele>1583.0</ele>
  <time>2026-09-02T20:50:18Z</time>
  <course>0.0</course>
  <speed>0.0</speed>
  <fix>3d</fix>
</trkpt>
<trkpt lat="40.0713749" lon="-105.229789">
  <ele>1583.0</ele>
  <time>2026-09-02T20:50:18Z</time>
  <course>0.0</course>
  <speed>0.0</speed>
  <fix>3d</fix>
</trkpt>
<trkpt lat="40.0713749" lon="-105.229789">
  <ele>1583.0</ele>
  <time>2026-09-02T20:50:18Z</time>
  <course>0.0</course>
  <speed>0.0</speed>
  <fix>3d</fix>
</trkpt>
<trkpt lat="40.0713749" lon="-105.229789">
  <ele>1583.0</ele>
  <time>2026-09-02T20:50:18Z</time>
  <course>0.0</course>
  <speed>0.0</speed>
  <fix>3d</fix>
</trkpt>
<trkpt lat="40.0713749" lon="-105.229789">
  <ele>1583.0</ele>
  <time>2026-09-02T20:50:18Z</time>
  <course>0.0</course>
  <speed>0.0</speed>
  <fix>3d</fix>
</trkpt>
<trkpt lat="40.0713749" lon="-105.229789">
  <ele>1583.0</ele>
  <time>2026-09-02T20:50:18Z</time>
  <course>0.0</course>
  <speed>0.0</speed>
  <fix>3d</fix>
</trkpt>
<trkpt lat="40.0713749" lon="-105.229789">
  <ele>1583.0</ele>
  <time>2026-09-02T20:50:18Z</time>
  <course>0.0</course>
  <speed>0.0</speed>
  <fix>3d</fix>
</trkpt>
<trkpt lat="40.0713749" lon="-105.229789">
  <ele>1583.0</ele>
  <time>2026-09-02T20:50:18Z</time>
  <course>0.0</course>
  <speed>0.0</speed>
  <fix>3d</fix>
</trkpt>
<trkpt lat="40.0713749" lon="-105.229789">
  <ele>1583.0</ele>
  <time>2026-09-02T20:50:18Z</time>
  <course>0.0</course>
  <speed>0.0</speed>
  <fix>3d</fix>
</trkpt>
<trkpt lat="40.0713749" lon="-105.229789">
  <ele>1583.0</ele>
  <time>2026-09-02T20:50:18Z</time>
  <course>0.0</course>
  <speed>0.0</speed>
  <fix>3d</fix>
</trkpt>
<trkpt lat="40.0713749" lon="-105.229789">
  <ele>1583.0</ele>
  <time>2026-09-02T20:50:18Z</time>
  <course>0.0</course>
  <speed>0.0</speed>
  <fix>3d</fix>
</trkpt>
<trkpt lat="40.0713749" lon="-105.229789">
  <ele>1583.0</ele>
  <time>2026-09-02T20:50:18Z</time>
  <course>0.0</course>
  <speed>0.0</speed>
  <fix>3d</fix>
</trkpt>
<trkpt lat="40.0713749" lon="-105.229789">
  <ele>1583.0</ele>
  <time>2026-09-02T20:50:18Z</time>
  <course>0.0</course>
  <speed>0.0</speed>
  <fix>3d</fix>
</trkpt>
<trkpt lat="40.0713749" lon="-105.229789">
  <ele>1583.0</ele>
  <time>2026-09-02T20:50:18Z</time>
  <course>0.0</course>
  <speed>0.0</speed>
  <fix>3d</fix>
</trkpt>
<trkpt lat="40.0713749" lon="-105.229789">
  <ele>1583.0</ele>
  <time>2026-09-02T20:50:18Z</time>
  <course>0.0</course>
  <speed>0.0</speed>
  <fix>3d</fix>
</trkpt>
<trkpt lat="40.0713749" lon="-105.229789">
  <ele>1583.0</ele>
  <time>2026-09-02T20:50:18Z</time>
  <course>0.0</course>
  <speed>0.0</speed>
  <fix>3d</fix>
</trkpt>
<trkpt lat="40.0713749" lon="-105.229789">
  <ele>1583.0</ele>
  <time>2026-09-02T20:50:18Z</time>
  <course>0.0</course>
  <speed>0.0</speed>
  <fix>3d</fix>
</trkpt>
<trkpt lat="40.0713749" lon="-105.229789">
  <ele>1583.0</ele>
  <time>2026-09-02T20:50:18Z</time>
  <course>0.0</course>
  <speed>0.0</speed>
  <fix>3d</fix>
</trkpt>
<trkpt lat="40.0713749" lon="-105.229789">
  <ele>1583.0</ele>
  <time>2026-09-02T20:50:18Z</time>
  <course>0.0</course>
  <speed>0.0</speed>
  <fix>3d</fix>
</trkpt>
<trkpt lat="40.0713749" lon="-105.229789">
  <ele>1583.0</ele>
  <time>2026-09-02T20:50:18Z</time>
  <course>0.0</course>
  <speed>0.0</speed>
  <fix>3d</fix>
</trkpt>
<trkpt lat="40.0713749" lon="-105.229789">
  <ele>1583.0</ele>
  <time>2026-09-02T20:50:18Z</time>
  <course>0.0</course>
  <speed>0.0</speed>
  <fix>3d</fix>
</trkpt>
<trkpt lat="40.0713749" lon="-105.229789">
  <ele>1583.0</ele>
  <time>2026-09-02T20:50:18Z</time>
  <course>0.0</course>
  <speed>0.0</speed>
  <fix>3d</fix>
</trkpt>
<trkpt lat="40.0713749" lon="-105.229789">
  <ele>1583.0</ele>
  <time>2026-09-02T20:50:18Z</time>
  <course>0.0</course>
  <speed>0.0</speed>
  <fix>3d</fix>
</trkpt>
<trkpt lat="40.0713749" lon="-105.229789">
  <ele>1583.0</ele>
  <time>2026-09-02T20:50:18Z</time>
  <course>0.0</course>
  <speed>0.0</speed>
  <fix>3d</fix>
</trkpt>
<trkpt lat="40.0713749" lon="-105.229789">
  <ele>1583.0</ele>
  <time>2026-09-02T20:50:18Z</time>
  <course>0.0</course>
  <speed>0.0</speed>
  <fix>3d</fix>
</trkpt>
<trkpt lat="40.0713749" lon="-105.229789">
  <ele>1583.0</ele>
  <time>2026-09-02T20:50:18Z</time>
  <course>0.0</course>
  <speed>0.0</speed>
  <fix>3d</fix>
</trkpt>
<trkpt lat="40.0713749" lon="-105.229789">
  <ele>1583.0</ele>
  <time>2026-09-02T20:50:18Z</time>
  <course>0.0</course>
  <speed>0.0</speed>
  <fix>3d</fix>
</trkpt>
<trkpt lat="40.0713749" lon="-105.229789">
  <ele>1583.0</ele>
  <time>2026-09-02T20:50:18Z</time>
  <course>0.0</course>
  <speed>0.0</speed>
  <fix>3d</fix>
</trkpt>
<trkpt lat="40.0713749" lon="-105.229789">
  <ele>1583.0</ele>
  <time>2026-09-02T20:50:18Z</time>
  <course>0.0</course>
  <speed>0.0</speed>
  <fix>3d</fix>
</trkpt>
<trkpt lat="40.0713749" lon="-105.229789">
  <ele>1583.0</ele>
  <time>2026-09-02T20:50:18Z</time>
  <course>0.0</course>
  <speed>0.0</speed>
  <fix>3d</fix>
</trkpt>
<trkpt lat="40.0713749" lon="-105.229789">
  <ele>1583.0</ele>
  <time>2026-09-02T20:50:18Z</time>
  <course>0.0</course>
  <speed>0.0</speed>
  <fix>3d</fix>
</trkpt>
<trkpt lat="40.0713749" lon="-105.229789">
  <ele>1583.0</ele>
  <time>2026-09-02T20:50:18Z</time>
  <course>0.0</course>
  <speed>0.0</speed>
  <fix>3d</fix>
</trkpt>
<trkpt lat="40.0713749" lon="-105.229789">
  <ele>1583.0</ele>
  <time>2026-09-02T20:50:18Z</time>
  <course>0.0</course>
  <speed>0.0</speed>
  <fix>3d</fix>
</trkpt>
<trkpt lat="40.0713749" lon="-105.229789">
  <ele>1583.0</ele>
  <time>2026-09-02T20:50:18Z</time>
  <course>0.0</course>
  <speed>0.0</speed>
  <fix>3d</fix>
</trkpt>
<trkpt lat="40.0713749" lon="-105.229789">
  <ele>1583.0</ele>
  <time>2026-09-02T20:50:18Z</time>
  <course>0.0</course>
  <speed>0.0</speed>
  <fix>3d</fix>
</trkpt>
<trkpt lat="40.0713749" lon="-105.229789">
  <ele>1583.0</ele>
  <time>2026-09-02T20:50:18Z</time>
  <course>0.0</course>
  <speed>0.0</speed>
  <fix>3d</fix>
</trkpt>
<trkpt lat="40.0713749" lon="-105.229789">
  <ele>1583.0</ele>
  <time>2026-09-02T20:50:18Z</time>
  <course>0.0</course>
  <speed>0.0</speed>
  <fix>3d</fix>
</trkpt>
<trkpt lat="40.0713749" lon="-105.229789">
  <ele>1583.0</ele>
  <time>2026-09-02T20:50:18Z</time>
  <course>0.0</course>
  <speed>0.0</speed>
  <fix>3d</fix>
</trkpt>
<trkpt lat="40.0713749" lon="-105.229789">
  <ele>1583.0</ele>
  <time>2026-09-02T20:50:18Z</time>
  <course>0.0</course>
  <speed>0.0</speed>
  <fix>3d</fix>
</trkpt>
<trkpt lat="40.0713749" lon="-105.229789">
  <ele>1583.0</ele>
  <time>2026-09-02T20:50:18Z</time>
  <course>0.0</course>
  <speed>0.0</speed>
  <fix>3d</fix>
</trkpt>
<trkpt lat="40.0713749" lon="-105.229789">
  <ele>1583.0</ele>
  <time>2026-09-02T20:50:18Z</time>
  <course>0.0</course>
  <speed>0.0</speed>
  <fix>3d</fix>
</trkpt>
<trkpt lat="40.0713749" lon="-105.229789">
  <ele>1583.0</ele>
  <time>2026-09-02T20:50:18Z</time>
  <course>0.0</course>
  <speed>0.0</speed>
  <fix>3d</fix>
</trkpt>
<trkpt lat="40.0713749" lon="-105.229789">
  <ele>1583.0</ele>
  <time>2026-09-02T20:50:18Z</time>
  <course>0.0</course>
  <speed>0.0</speed>
  <fix>3d</fix>
</trkpt>
<trkpt lat="40.0713749" lon="-105.229789">
  <ele>1583.0</ele>
  <time>2026-09-02T20:50:18Z</time>
  <course>0.0</course>
  <speed>0.0</speed>
  <fix>3d</fix>
</trkpt>
<trkpt lat="40.0713749" lon="-105.229789">
  <ele>1583.0</ele>
  <time>2026-09-02T20:50:18Z</time>
  <course>0.0</course>
  <speed>0.0</speed>
  <fix>3d</fix>
</trkpt>
<trkpt lat="40.0713749" lon="-105.229789">
  <ele>1583.0</ele>
  <time>2026-09-02T20:50:18Z</time>
  <course>0.0</course>
  <speed>0.0</speed>
  <fix>3d</fix>
</trkpt>
<trkpt lat="40.0713749" lon="-105.229789">
  <ele>1583.0</ele>
  <time>2026-09-02T20:50:18Z</time>
  <course>0.0</course>
  <speed>0.0</speed>
  <fix>3d</fix>
</trkpt>
<trkpt lat="40.0713749" lon="-105.229789">
  <ele>1583.0</ele>
  <time>2026-09-02T20:50:18Z</time>
  <course>0.0</course>
  <speed>0.0</speed>
  <fix>3d</fix>
</trkpt>
<trkpt lat="40.0713749" lon="-105.229789">
  <ele>1583.0</ele>
  <time>2026-09-02T20:50:18Z</time>
  <course>0.0</course>
  <speed>0.0</speed>
  <fix>3d</fix>
</trkpt>
<trkpt lat="40.0713749" lon="-105.229789">
  <ele>1583.0</ele>
  <time>2026-09-02T20:50:18Z</time>
  <course>0.0</course>
  <speed>0.0</speed>
  <fix>3d</fix>
</trkpt>
<trkpt lat="40.0713749" lon="-105.229789">
  <ele>1583.0</ele>
  <time>2026-09-02T20:50:18Z</time>
  <course>0.0</course>
  <speed>0.0</speed>
  <fix>3d</fix>
</trkpt>
<trkpt lat="40.0713749" lon="-105.229789">
  <ele>1583.0</ele>
  <time>2026-09-02T20:50:18Z</time>
  <course>0.0</course>
  <speed>0.0</speed>
  <fix>3d</fix>
</trkpt>
<trkpt lat="40.0713749" lon="-105.229789">
  <ele>1583.0</ele>
  <time>2026-09-02T20:50:18Z</time>
  <course>0.0</course>
  <speed>0.0</speed>
  <fix>3d</fix>
</trkpt>
<trkpt lat="40.0713749" lon="-105.229789">
  <ele>1583.0</ele>
  <time>2026-09-02T20:50:18Z</time>
  <course>0.0</course>
  <speed>0.0</speed>
  <fix>3d</fix>
</trkpt>
<trkpt lat="40.0713749" lon="-105.229789">
  <ele>1583.0</ele>
  <time>2026-09-02T20:50:18Z</time>
  <course>0.0</course>
  <speed>0.0</speed>
  <fix>3d</fix>
</trkpt>
<trkpt lat="40.0713749" lon="-105.229789">
  <ele>1583.0</ele>
  <time>2026-09-02T20:50:18Z</time>
  <course>0.0</course>
  <speed>0.0</speed>
  <fix>3d</fix>
</trkpt>
<trkpt lat="40.0713749" lon="-105.229789">
  <ele>1583.0</ele>
  <time>2026-09-02T20:50:18Z</time>
  <course>0.0</course>
  <speed>0.0</speed>
  <fix>3d</fix>
</trkpt>
<trkpt lat="40.0713749" lon="-105.229789">
  <ele>1583.0</ele>
  <time>2026-09-02T20:50:18Z</time>
  <course>0.0</course>
  <speed>0.0</speed>
  <fix>3d</fix>
</trkpt>
<trkpt lat="40.0713749" lon="-105.229789">
  <ele>1583.0</ele>
  <time>2026-09-02T20:50:18Z</time>
  <course>0.0</course>
  <speed>0.0</speed>
  <fix>3d</fix>
</trkpt>
<trkpt lat="40.0713749" lon="-105.229789">
  <ele>1583.0</ele>
  <time>2026-09-02T20:50:18Z</time>
  <course>0.0</course>
  <speed>0.0</speed>
  <fix>3d</fix>
</trkpt>
<trkpt lat="40.0713749" lon="-105.229789">
  <ele>1583.0</ele>
  <time>2026-09-02T20:50:18Z</time>
  <course>0.0</course>
  <speed>0.0</speed>
  <fix>3d</fix>
</trkpt>
<trkpt lat="40.0713749" lon="-105.229789">
  <ele>1583.0</ele>
  <time>2026-09-02T20:50:18Z</time>
  <course>0.0</course>
  <speed>0.0</speed>
  <fix>3d</fix>
</trkpt>
<trkpt lat="40.0713749" lon="-105.229789">
  <ele>1583.0</ele>
  <time>2026-09-02T20:50:18Z</time>
  <course>0.0</course>
  <speed>0.0</speed>
  <fix>3d</fix>
</trkpt>
<trkpt lat="40.0713749" lon="-105.229789">
  <ele>1583.0</ele>
  <time>2026-09-02T20:50:18Z</time>
  <course>0.0</course>
  <speed>0.0</speed>
  <fix>3d</fix>
</trkpt>
<trkpt lat="40.0713749" lon="-105.229789">
  <ele>1583.0</ele>
  <time>2026-09-02T20:50:18Z</time>
  <course>0.0</course>
  <speed>0.0</speed>
  <fix>3d</fix>
</trkpt>
<trkpt lat="40.0713749" lon="-105.229789">
  <ele>1583.0</ele>
  <time>2026-09-02T20:50:18Z</time>
  <course>0.0</course>
  <speed>0.0</speed>
  <fix>3d</fix>
</trkpt>
<trkpt lat="40.0713749" lon="-105.229789">
  <ele>1583.0</ele>
  <time>2026-09-02T20:50:18Z</time>
  <course>0.0</course>
  <speed>0.0</speed>
  <fix>3d</fix>
</trkpt>
<trkpt lat="40.0713749" lon="-105.229789">
  <ele>1583.0</ele>
  <time>2026-09-02T20:50:18Z</time>
  <course>0.0</course>
  <speed>0.0</speed>
  <fix>3d</fix>
</trkpt>
<trkpt lat="40.0713749" lon="-105.229789">
  <ele>1583.0</ele>
  <time>2026-09-02T20:50:18Z</time>
  <course>0.0</course>
  <speed>0.0</speed>
  <fix>3d</fix>
</trkpt>
<trkpt lat="40.0713749" lon="-105.229789">
  <ele>1583.0</ele>
  <time>2026-09-02T20:50:18Z</time>
  <course>0.0</course>
  <speed>0.0</speed>
  <fix>3d</fix>
</trkpt>
<trkpt lat="40.0713749" lon="-105.229789">
  <ele>1583.0</ele>
  <time>2026-09-02T20:50:18Z</time>
  <course>0.0</course>
  <speed>0.0</speed>
  <fix>3d</fix>
</trkpt>
<trkpt lat="40.0713749" lon="-105.229789">
  <ele>1583.0</ele>
  <time>2026-09-02T20:50:18Z</time>
  <course>0.0</course>
  <speed>0.0</speed>
  <fix>3d</fix>
</trkpt>
<trkpt lat="40.0713749" lon="-105.229789">
  <ele>1583.0</ele>
  <time>2026-09-02T20:50:18Z</time>
  <course>0.0</course>
  <speed>0.0</speed>
  <fix>3d</fix>
</trkpt>
<trkpt lat="40.0713749" lon="-105.229789">
  <ele>1583.0</ele>
  <time>2026-09-02T20:50:18Z</time>
  <course>0.0</course>
  <speed>0.0</speed>
  <fix>3d</fix>
</trkpt>
<trkpt lat="40.0713749" lon="-105.229789">
  <ele>1583.0</ele>
  <time>2026-09-02T20:50:18Z</time>
  <course>0.0</course>
  <speed>0.0</speed>
  <fix>3d</fix>
</trkpt>
<trkpt lat="40.0713749" lon="-105.229789">
  <ele>1583.0</ele>
  <time>2026-09-02T20:50:18Z</time>
  <course>0.0</course>
  <speed>0.0</speed>
  <fix>3d</fix>
</trkpt>
<trkpt lat="40.0713749" lon="-105.229789">
  <ele>1583.0</ele>
  <time>2026-09-02T20:50:18Z</time>
  <course>0.0</course>
  <speed>0.0</speed>
  <fix>3d</fix>
</trkpt>
<trkpt lat="40.0713749" lon="-105.229789">
  <ele>1583.0</ele>
  <time>2026-09-02T20:50:18Z</time>
  <course>0.0</course>
  <speed>0.0</speed>
  <fix>3d</fix>
</trkpt>
<trkpt lat="40.0713749" lon="-105.229789">
  <ele>1583.0</ele>
  <time>2026-09-02T20:50:18Z</time>
  <course>0.0</course>
  <speed>0.0</speed>
  <fix>3d</fix>
</trkpt>
<trkpt lat="40.0713749" lon="-105.229789">
  <ele>1583.0</ele>
  <time>2026-09-02T20:50:18Z</time>
  <course>0.0</course>
  <speed>0.0</speed>
  <fix>3d</fix>
</trkpt>
<trkpt lat="40.0713749" lon="-105.229789">
  <ele>1583.0</ele>
  <time>2026-09-02T20:50:18Z</time>
  <course>0.0</course>
  <speed>0.0</speed>
  <fix>3d</fix>
</trkpt>
<trkpt lat="40.0713749" lon="-105.229789">
  <ele>1583.0</ele>
  <time>2026-09-02T20:50:18Z</time>
  <course>0.0</course>
  <speed>0.0</speed>
  <fix>3d</fix>
</trkpt>
<trkpt lat="40.0713749" lon="-105.229789">
  <ele>1583.0</ele>
  <time>2026-09-02T20:50:19Z</time>
  <course>0.0</course>
  <speed>0.0</speed>
  <fix>3d</fix>
</trkpt>
<trkpt lat="40.0713749" lon="-105.229789">
  <ele>1583.0</ele>
  <time>2026-09-02T20:50:19Z</time>
  <course>0.0</course>
  <speed>0.0</speed>
  <fix>3d</fix>
</trkpt>
<trkpt lat="40.0713749" lon="-105.229789">
  <ele>1583.0</ele>
  <time>2026-09-02T20:50:19Z</time>
  <course>0.0</course>
  <speed>0.0</speed>
  <fix>3d</fix>
</trkpt>
<trkpt lat="40.0713749" lon="-105.229789">
  <ele>1583.0</ele>
  <time>2026-09-02T20:50:19Z</time>
  <course>0.0</course>
  <speed>0.0</speed>
  <fix>3d</fix>
</trkpt>
<trkpt lat="40.0713749" lon="-105.229789">
  <ele>1583.0</ele>
  <time>2026-09-02T20:50:19Z</time>
  <course>0.0</course>
  <speed>0.0</speed>
  <fix>3d</fix>
</trkpt>
<trkpt lat="40.0713749" lon="-105.229789">
  <ele>1583.0</ele>
  <time>2026-09-02T20:50:19Z</time>
  <course>0.0</course>
  <speed>0.0</speed>
  <fix>3d</fix>
</trkpt>
<trkpt lat="40.0713749" lon="-105.229789">
  <ele>1583.0</ele>
  <time>2026-09-02T20:50:19Z</time>
  <course>0.0</course>
  <speed>0.0</speed>
  <fix>3d</fix>
</trkpt>
<trkpt lat="40.0713749" lon="-105.229789">
  <ele>1583.0</ele>
  <time>2026-09-02T20:50:19Z</time>
  <course>0.0</course>
  <speed>0.0</speed>
  <fix>3d</fix>
</trkpt>
<trkpt lat="40.0713749" lon="-105.229789">
  <ele>1583.0</ele>
  <time>2026-09-02T20:50:19Z</time>
  <course>0.0</course>
  <speed>0.0</speed>
  <fix>3d</fix>
</trkpt>
<trkpt lat="40.0713749" lon="-105.229789">
  <ele>1583.0</ele>
  <time>2026-09-02T20:50:19Z</time>
  <course>0.0</course>
  <speed>0.0</speed>
  <fix>3d</fix>
</trkpt>
<trkpt lat="40.0713749" lon="-105.229789">
  <ele>1583.0</ele>
  <time>2026-09-02T20:50:19Z</time>
  <course>0.0</course>
  <speed>0.0</speed>
  <fix>3d</fix>
</trkpt>
<trkpt lat="40.0713749" lon="-105.229789">
  <ele>1583.0</ele>
  <time>2026-09-02T20:50:19Z</time>
  <course>0.0</course>
  <speed>0.0</speed>
  <fix>3d</fix>
</trkpt>
<trkpt lat="40.0713749" lon="-105.229789">
  <ele>1583.0</ele>
  <time>2026-09-02T20:50:19Z</time>
  <course>0.0</course>
  <speed>0.0</speed>
  <fix>3d</fix>
</trkpt>
<trkpt lat="40.0713749" lon="-105.229789">
  <ele>1583.0</ele>
  <time>2026-09-02T20:50:19Z</time>
  <course>0.0</course>
  <speed>0.0</speed>
  <fix>3d</fix>
</trkpt>
<trkpt lat="40.0713749" lon="-105.229789">
  <ele>1583.0</ele>
  <time>2026-09-02T20:50:19Z</time>
  <course>0.0</course>
  <speed>0.0</speed>
  <fix>3d</fix>
</trkpt>
<trkpt lat="40.0713749" lon="-105.229789">
  <ele>1583.0</ele>
  <time>2026-09-02T20:50:19Z</time>
  <course>0.0</course>
  <speed>0.0</speed>
  <fix>3d</fix>
</trkpt>
<trkpt lat="40.0713749" lon="-105.229789">
  <ele>1583.0</ele>
  <time>2026-09-02T20:50:19Z</time>
  <course>0.0</course>
  <speed>0.0</speed>
  <fix>3d</fix>
</trkpt>
<trkpt lat="40.0713749" lon="-105.229789">
  <ele>1583.0</ele>
  <time>2026-09-02T20:50:19Z</time>
  <course>0.0</course>
  <speed>0.0</speed>
  <fix>3d</fix>
</trkpt>
<trkpt lat="40.0713749" lon="-105.229789">
  <ele>1583.0</ele>
  <time>2026-09-02T20:50:19Z</time>
  <course>0.0</course>
  <speed>0.0</speed>
  <fix>3d</fix>
</trkpt>
<trkpt lat="40.0713749" lon="-105.229789">
  <ele>1583.0</ele>
  <time>2026-09-02T20:50:19Z</time>
  <course>0.0</course>
  <speed>0.0</speed>
  <fix>3d</fix>
</trkpt>
<trkpt lat="40.0713749" lon="-105.229789">
  <ele>1583.0</ele>
  <time>2026-09-02T20:50:19Z</time>
  <course>0.0</course>
  <speed>0.0</speed>
  <fix>3d</fix>
</trkpt>
<trkpt lat="40.0713749" lon="-105.229789">
  <ele>1583.0</ele>
  <time>2026-09-02T20:50:19Z</time>
  <course>0.0</course>
  <speed>0.0</speed>
  <fix>3d</fix>
</trkpt>
<trkpt lat="40.0713749" lon="-105.229789">
  <ele>1583.0</ele>
  <time>2026-09-02T20:50:19Z</time>
  <course>0.0</course>
  <speed>0.0</speed>
  <fix>3d</fix>
</trkpt>
<trkpt lat="40.0713749" lon="-105.229789">
  <ele>1583.0</ele>
  <time>2026-09-02T20:50:19Z</time>
  <course>0.0</course>
  <speed>0.0</speed>
  <fix>3d</fix>
</trkpt>
<trkpt lat="40.0713749" lon="-105.229789">
  <ele>1583.0</ele>
  <time>2026-09-02T20:50:19Z</time>
  <course>0.0</course>
  <speed>0.0</speed>
  <fix>3d</fix>
</trkpt>
<trkpt lat="40.0713749" lon="-105.229789">
  <ele>1583.0</ele>
  <time>2026-09-02T20:50:19Z</time>
  <course>0.0</course>
  <speed>0.0</speed>
  <fix>3d</fix>
</trkpt>
<trkpt lat="40.0713749" lon="-105.229789">
  <ele>1583.0</ele>
  <time>2026-09-02T20:50:19Z</time>
  <course>0.0</course>
  <speed>0.0</speed>
  <fix>3d</fix>
</trkpt>
<trkpt lat="40.0713749" lon="-105.229789">
  <ele>1583.0</ele>
  <time>2026-09-02T20:50:19Z</time>
  <course>0.0</course>
  <speed>0.0</speed>
  <fix>3d</fix>
</trkpt>
<trkpt lat="40.0713749" lon="-105.229789">
  <ele>1583.0</ele>
  <time>2026-09-02T20:50:19Z</time>
  <course>0.0</course>
  <speed>0.0</speed>
  <fix>3d</fix>
</trkpt>
<trkpt lat="40.0713749" lon="-105.229789">
  <ele>1583.0</ele>
  <time>2026-09-02T20:50:19Z</time>
  <course>0.0</course>
  <speed>0.0</speed>
  <fix>3d</fix>
</trkpt>
<trkpt lat="40.0713749" lon="-105.229789">
  <ele>1583.0</ele>
  <time>2026-09-02T20:50:19Z</time>
  <course>0.0</course>
  <speed>0.0</speed>
  <fix>3d</fix>
</trkpt>
<trkpt lat="40.0713749" lon="-105.229789">
  <ele>1583.0</ele>
  <time>2026-09-02T20:50:19Z</time>
  <course>0.0</course>
  <speed>0.0</speed>
  <fix>3d</fix>
</trkpt>
<trkpt lat="40.0713749" lon="-105.229789">
  <ele>1583.0</ele>
  <time>2026-09-02T20:50:19Z</time>
  <course>0.0</course>
  <speed>0.0</speed>
  <fix>3d</fix>
</trkpt>
<trkpt lat="40.0713749" lon="-105.229789">
  <ele>1583.0</ele>
  <time>2026-09-02T20:50:19Z</time>
  <course>0.0</course>
  <speed>0.0</speed>
  <fix>3d</fix>
</trkpt>
<trkpt lat="40.0713749" lon="-105.229789">
  <ele>1583.0</ele>
  <time>2026-09-02T20:50:19Z</time>
  <course>0.0</course>
  <speed>0.0</speed>
  <fix>3d</fix>
</trkpt>
<trkpt lat="40.0713749" lon="-105.229789">
  <ele>1583.0</ele>
  <time>2026-09-02T20:50:19Z</time>
  <course>0.0</course>
  <speed>0.0</speed>
  <fix>3d</fix>
</trkpt>
<trkpt lat="40.0713749" lon="-105.229789">
  <ele>1583.0</ele>
  <time>2026-09-02T20:50:19Z</time>
  <course>0.0</course>
  <speed>0.0</speed>
  <fix>3d</fix>
</trkpt>
<trkpt lat="40.0713749" lon="-105.229789">
  <ele>1583.0</ele>
  <time>2026-09-02T20:50:19Z</time>
  <course>0.0</course>
  <speed>0.0</speed>
  <fix>3d</fix>
</trkpt>
<trkpt lat="40.0713749" lon="-105.229789">
  <ele>1583.0</ele>
  <time>2026-09-02T20:50:19Z</time>
  <course>0.0</course>
  <speed>0.0</speed>
  <fix>3d</fix>
</trkpt>
<trkpt lat="40.0713749" lon="-105.229789">
  <ele>1583.0</ele>
  <time>2026-09-02T20:50:19Z</time>
  <course>0.0</course>
  <speed>0.0</speed>
  <fix>3d</fix>
</trkpt>
<trkpt lat="40.0713749" lon="-105.229789">
  <ele>1583.0</ele>
  <time>2026-09-02T20:50:19Z</time>
  <course>0.0</course>
  <speed>0.0</speed>
  <fix>3d</fix>
</trkpt>
<trkpt lat="40.0713749" lon="-105.229789">
  <ele>1583.0</ele>
  <time>2026-09-02T20:50:19Z</time>
  <course>0.0</course>
  <speed>0.0</speed>
  <fix>3d</fix>
</trkpt>
<trkpt lat="40.0713749" lon="-105.229789">
  <ele>1583.0</ele>
  <time>2026-09-02T20:50:19Z</time>
  <course>0.0</course>
  <speed>0.0</speed>
  <fix>3d</fix>
</trkpt>
<trkpt lat="40.0713749" lon="-105.229789">
  <ele>1583.0</ele>
  <time>2026-09-02T20:50:19Z</time>
  <course>0.0</course>
  <speed>0.0</speed>
  <fix>3d</fix>
</trkpt>
<trkpt lat="40.0713749" lon="-105.229789">
  <ele>1583.0</ele>
  <time>2026-09-02T20:50:19Z</time>
  <course>0.0</course>
  <speed>0.0</speed>
  <fix>3d</fix>
</trkpt>
<trkpt lat="40.0713749" lon="-105.229789">
  <ele>1583.0</ele>
  <time>2026-09-02T20:50:19Z</time>
  <course>0.0</course>
  <speed>0.0</speed>
  <fix>3d</fix>
</trkpt>
<trkpt lat="40.0713749" lon="-105.229789">
  <ele>1583.0</ele>
  <time>2026-09-02T20:50:19Z</time>
  <course>0.0</course>
  <speed>0.0</speed>
  <fix>3d</fix>
</trkpt>
<trkpt lat="40.0713749" lon="-105.229789">
  <ele>1583.0</ele>
  <time>2026-09-02T20:50:19Z</time>
  <course>0.0</course>
  <speed>0.0</speed>
  <fix>3d</fix>
</trkpt>
<trkpt lat="40.0713749" lon="-105.229789">
  <ele>1583.0</ele>
  <time>2026-09-02T20:50:19Z</time>
  <course>0.0</course>
  <speed>0.0</speed>
  <fix>3d</fix>
</trkpt>
<trkpt lat="40.0713749" lon="-105.229789">
  <ele>1583.0</ele>
  <time>2026-09-02T20:50:19Z</time>
  <course>0.0</course>
  <speed>0.0</speed>
  <fix>3d</fix>
</trkpt>
<trkpt lat="40.0713749" lon="-105.229789">
  <ele>1583.0</ele>
  <time>2026-09-02T20:50:19Z</time>
  <course>0.0</course>
  <speed>0.0</speed>
  <fix>3d</fix>
</trkpt>
<trkpt lat="40.0713749" lon="-105.229789">
  <ele>1583.0</ele>
  <time>2026-09-02T20:50:19Z</time>
  <course>0.0</course>
  <speed>0.0</speed>
  <fix>3d</fix>
</trkpt>
<trkpt lat="40.0713749" lon="-105.229789">
  <ele>1583.0</ele>
  <time>2026-09-02T20:50:19Z</time>
  <course>0.0</course>
  <speed>0.0</speed>
  <fix>3d</fix>
</trkpt>
<trkpt lat="40.0713749" lon="-105.229789">
  <ele>1583.0</ele>
  <time>2026-09-02T20:50:19Z</time>
  <course>0.0</course>
  <speed>0.0</speed>
  <fix>3d</fix>
</trkpt>
<trkpt lat="40.0713749" lon="-105.229789">
  <ele>1583.0</ele>
  <time>2026-09-02T20:50:19Z</time>
  <course>0.0</course>
  <speed>0.0</speed>
  <fix>3d</fix>
</trkpt>
<trkpt lat="40.0713749" lon="-105.229789">
  <ele>1583.0</ele>
  <time>2026-09-02T20:50:19Z</time>
  <course>0.0</course>
  <speed>0.0</speed>
  <fix>3d</fix>
</trkpt>
<trkpt lat="40.0713749" lon="-105.229789">
  <ele>1583.0</ele>
  <time>2026-09-02T20:50:19Z</time>
  <course>0.0</course>
  <speed>0.0</speed>
  <fix>3d</fix>
</trkpt>
<trkpt lat="40.0713749" lon="-105.229789">
  <ele>1583.0</ele>
  <time>2026-09-02T20:50:19Z</time>
  <course>0.0</course>
  <speed>0.0</speed>
  <fix>3d</fix>
</trkpt>
<trkpt lat="40.0713749" lon="-105.229789">
  <ele>1583.0</ele>
  <time>2026-09-02T20:50:19Z</time>
  <course>0.0</course>
  <speed>0.0</speed>
  <fix>3d</fix>
</trkpt>
<trkpt lat="40.0713749" lon="-105.229789">
  <ele>1583.0</ele>
  <time>2026-09-02T20:50:19Z</time>
  <course>0.0</course>
  <speed>0.0</speed>
  <fix>3d</fix>
</trkpt>
<trkpt lat="40.0713749" lon="-105.229789">
  <ele>1583.0</ele>
  <time>2026-09-02T20:50:19Z</time>
  <course>0.0</course>
  <speed>0.0</speed>
  <fix>3d</fix>
</trkpt>
<trkpt lat="40.0713749" lon="-105.229789">
  <ele>1583.0</ele>
  <time>2026-09-02T20:50:19Z</time>
  <course>0.0</course>
  <speed>0.0</speed>
  <fix>3d</fix>
</trkpt>
<trkpt lat="40.0713749" lon="-105.229789">
  <ele>1583.0</ele>
  <time>2026-09-02T20:50:19Z</time>
  <course>0.0</course>
  <speed>0.0</speed>
  <fix>3d</fix>
</trkpt>
<trkpt lat="40.0713749" lon="-105.229789">
  <ele>1583.0</ele>
  <time>2026-09-02T20:50:19Z</time>
  <course>0.0</course>
  <speed>0.0</speed>
  <fix>3d</fix>
</trkpt>
<trkpt lat="40.0713749" lon="-105.229789">
  <ele>1583.0</ele>
  <time>2026-09-02T20:50:19Z</time>
  <course>0.0</course>
  <speed>0.0</speed>
  <fix>3d</fix>
</trkpt>
<trkpt lat="40.0713749" lon="-105.229789">
  <ele>1583.0</ele>
  <time>2026-09-02T20:50:19Z</time>
  <course>0.0</course>
  <speed>0.0</speed>
  <fix>3d</fix>
</trkpt>
<trkpt lat="40.0713749" lon="-105.229789">
  <ele>1583.0</ele>
  <time>2026-09-02T20:50:19Z</time>
  <course>0.0</course>
  <speed>0.0</speed>
  <fix>3d</fix>
</trkpt>
<trkpt lat="40.0713749" lon="-105.229789">
  <ele>1583.0</ele>
  <time>2026-09-02T20:50:19Z</time>
  <course>0.0</course>
  <speed>0.0</speed>
  <fix>3d</fix>
</trkpt>
<trkpt lat="40.0713749" lon="-105.229789">
  <ele>1583.0</ele>
  <time>2026-09-02T20:50:19Z</time>
  <course>0.0</course>
  <speed>0.0</speed>
  <fix>3d</fix>
</trkpt>
<trkpt lat="40.0713749" lon="-105.229789">
  <ele>1583.0</ele>
  <time>2026-09-02T20:50:19Z</time>
  <course>0.0</course>
  <speed>0.0</speed>
  <fix>3d</fix>
</trkpt>
<trkpt lat="40.0713749" lon="-105.229789">
  <ele>1583.0</ele>
  <time>2026-09-02T20:50:19Z</time>
  <course>0.0</course>
  <speed>0.0</speed>
  <fix>3d</fix>
</trkpt>
<trkpt lat="40.0713749" lon="-105.229789">
  <ele>1583.0</ele>
  <time>2026-09-02T20:50:19Z</time>
  <course>0.0</course>
  <speed>0.0</speed>
  <fix>3d</fix>
</trkpt>
<trkpt lat="40.0713749" lon="-105.229789">
  <ele>1583.0</ele>
  <time>2026-09-02T20:50:19Z</time>
  <course>0.0</course>
  <speed>0.0</speed>
  <fix>3d</fix>
</trkpt>
<trkpt lat="40.0713749" lon="-105.229789">
  <ele>1583.0</ele>
  <time>2026-09-02T20:50:19Z</time>
  <course>0.0</course>
  <speed>0.0</speed>
  <fix>3d</fix>
</trkpt>
<trkpt lat="40.0713749" lon="-105.229789">
  <ele>1583.0</ele>
  <time>2026-09-02T20:50:19Z</time>
  <course>0.0</course>
  <speed>0.0</speed>
  <fix>3d</fix>
</trkpt>
<trkpt lat="40.0713749" lon="-105.229789">
  <ele>1583.0</ele>
  <time>2026-09-02T20:50:19Z</time>
  <course>0.0</course>
  <speed>0.0</speed>
  <fix>3d</fix>
</trkpt>
<trkpt lat="40.0713749" lon="-105.229789">
  <ele>1583.0</ele>
  <time>2026-09-02T20:50:19Z</time>
  <course>0.0</course>
  <speed>0.0</speed>
  <fix>3d</fix>
</trkpt>
<trkpt lat="40.0713749" lon="-105.229789">
  <ele>1583.0</ele>
  <time>2026-09-02T20:50:19Z</time>
  <course>0.0</course>
  <speed>0.0</speed>
  <fix>3d</fix>
</trkpt>
<trkpt lat="40.0713749" lon="-105.229789">
  <ele>1583.0</ele>
  <time>2026-09-02T20:50:19Z</time>
  <course>0.0</course>
  <speed>0.0</speed>
  <fix>3d</fix>
</trkpt>
<trkpt lat="40.0713749" lon="-105.229789">
  <ele>1583.0</ele>
  <time>2026-09-02T20:50:19Z</time>
  <course>0.0</course>
  <speed>0.0</speed>
  <fix>3d</fix>
</trkpt>
<trkpt lat="40.0713749" lon="-105.229789">
  <ele>1583.0</ele>
  <time>2026-09-02T20:50:19Z</time>
  <course>0.0</course>
  <speed>0.0</speed>
  <fix>3d</fix>
</trkpt>
<trkpt lat="40.0713749" lon="-105.229789">
  <ele>1583.0</ele>
  <time>2026-09-02T20:50:19Z</time>
  <course>0.0</course>
  <speed>0.0</speed>
  <fix>3d</fix>
</trkpt>
<trkpt lat="40.0713749" lon="-105.229789">
  <ele>1583.0</ele>
  <time>2026-09-02T20:50:19Z</time>
  <course>0.0</course>
  <speed>0.0</speed>
  <fix>3d</fix>
</trkpt>
<trkpt lat="40.0713749" lon="-105.229789">
  <ele>1583.0</ele>
  <time>2026-09-02T20:50:19Z</time>
  <course>0.0</course>
  <speed>0.0</speed>
  <fix>3d</fix>
</trkpt>
<trkpt lat="40.0713749" lon="-105.229789">
  <ele>1583.0</ele>
  <time>2026-09-02T20:50:19Z</time>
  <course>0.0</course>
  <speed>0.0</speed>
  <fix>3d</fix>
</trkpt>
<trkpt lat="40.0713749" lon="-105.229789">
  <ele>1583.0</ele>
  <time>2026-09-02T20:50:19Z</time>
  <course>0.0</course>
  <speed>0.0</speed>
  <fix>3d</fix>
</trkpt>
<trkpt lat="40.0713749" lon="-105.229789">
  <ele>1583.0</ele>
  <time>2026-09-02T20:50:19Z</time>
  <course>0.0</course>
  <speed>0.0</speed>
  <fix>3d</fix>
</trkpt>
<trkpt lat="40.0713749" lon="-105.229789">
  <ele>1583.0</ele>
  <time>2026-09-02T20:50:19Z</time>
  <course>0.0</course>
  <speed>0.0</speed>
  <fix>3d</fix>
</trkpt>
<trkpt lat="40.0713749" lon="-105.229789">
  <ele>1583.0</ele>
  <time>2026-09-02T20:50:19Z</time>
  <course>0.0</course>
  <speed>0.0</speed>
  <fix>3d</fix>
</trkpt>
<trkpt lat="40.0713749" lon="-105.229789">
  <ele>1583.0</ele>
  <time>2026-09-02T20:50:19Z</time>
  <course>0.0</course>
  <speed>0.0</speed>
  <fix>3d</fix>
</trkpt>
<trkpt lat="40.0713749" lon="-105.229789">
  <ele>1583.0</ele>
  <time>2026-09-02T20:50:19Z</time>
  <course>0.0</course>
  <speed>0.0</speed>
  <fix>3d</fix>
</trkpt>
<trkpt lat="40.0713749" lon="-105.229789">
  <ele>1583.0</ele>
  <time>2026-09-02T20:50:19Z</time>
  <course>0.0</course>
  <speed>0.0</speed>
  <fix>3d</fix>
</trkpt>
<trkpt lat="40.0713749" lon="-105.229789">
  <ele>1583.0</ele>
  <time>2026-09-02T20:50:19Z</time>
  <course>0.0</course>
  <speed>0.0</speed>
  <fix>3d</fix>
</trkpt>
<trkpt lat="40.0713749" lon="-105.229789">
  <ele>1583.0</ele>
  <time>2026-09-02T20:50:19Z</time>
  <course>0.0</course>
  <speed>0.0</speed>
  <fix>3d</fix>
</trkpt>
<trkpt lat="40.0713749" lon="-105.229789">
  <ele>1583.0</ele>
  <time>2026-09-02T20:50:19Z</time>
  <course>0.0</course>
  <speed>0.0</speed>
  <fix>3d</fix>
</trkpt>
<trkpt lat="40.0713749" lon="-105.229789">
  <ele>1583.0</ele>
  <time>2026-09-02T20:50:19Z</time>
  <course>0.0</course>
  <speed>0.0</speed>
  <fix>3d</fix>
</trkpt>
<trkpt lat="40.0713749" lon="-105.229789">
  <ele>1583.0</ele>
  <time>2026-09-02T20:50:19Z</time>
  <course>0.0</course>
  <speed>0.0</speed>
  <fix>3d</fix>
</trkpt>
<trkpt lat="40.0713749" lon="-105.229789">
  <ele>1583.0</ele>
  <time>2026-09-02T20:50:19Z</time>
  <course>0.0</course>
  <speed>0.0</speed>
  <fix>3d</fix>
</trkpt>
<trkpt lat="40.0713749" lon="-105.229789">
  <ele>1583.0</ele>
  <time>2026-09-02T20:50:19Z</time>
  <course>0.0</course>
  <speed>0.0</speed>
  <fix>3d</fix>
</trkpt>
<trkpt lat="40.0713749" lon="-105.229789">
  <ele>1583.0</ele>
  <time>2026-09-02T20:50:19Z</time>
  <course>0.0</course>
  <speed>0.0</speed>
  <fix>3d</fix>
</trkpt>
<trkpt lat="40.0713749" lon="-105.229789">
  <ele>1583.0</ele>
  <time>2026-09-02T20:50:19Z</time>
  <course>0.0</course>
  <speed>0.0</speed>
  <fix>3d</fix>
</trkpt>
<trkpt lat="40.0713749" lon="-105.229789">
  <ele>1583.0</ele>
  <time>2026-09-02T20:50:19Z</time>
  <course>0.0</course>
  <speed>0.0</speed>
  <fix>3d</fix>
</trkpt>
<trkpt lat="40.0713749" lon="-105.229789">
  <ele>1583.0</ele>
  <time>2026-09-02T20:50:19Z</time>
  <course>0.0</course>
  <speed>0.0</speed>
  <fix>3d</fix>
</trkpt>
<trkpt lat="40.0713749" lon="-105.229789">
  <ele>1583.0</ele>
  <time>2026-09-02T20:50:19Z</time>
  <course>0.0</course>
  <speed>0.0</speed>
  <fix>3d</fix>
</trkpt>
<trkpt lat="40.0713749" lon="-105.229789">
  <ele>1583.0</ele>
  <time>2026-09-02T20:50:19Z</time>
  <course>0.0</course>
  <speed>0.0</speed>
  <fix>3d</fix>
</trkpt>
<trkpt lat="40.0713749" lon="-105.229789">
  <ele>1583.0</ele>
  <time>2026-09-02T20:50:19Z</time>
  <course>0.0</course>
  <speed>0.0</speed>
  <fix>3d</fix>
</trkpt>
<trkpt lat="40.0713749" lon="-105.229789">
  <ele>1583.0</ele>
  <time>2026-09-02T20:50:19Z</time>
  <course>0.0</course>
  <speed>0.0</speed>
  <fix>3d</fix>
</trkpt>
<trkpt lat="40.0713749" lon="-105.229789">
  <ele>1583.0</ele>
  <time>2026-09-02T20:50:19Z</time>
  <course>0.0</course>
  <speed>0.0</speed>
  <fix>3d</fix>
</trkpt>
<trkpt lat="40.0713749" lon="-105.229789">
  <ele>1583.0</ele>
  <time>2026-09-02T20:50:19Z</time>
  <course>0.0</course>
  <speed>0.0</speed>
  <fix>3d</fix>
</trkpt>
<trkpt lat="40.0713749" lon="-105.229789">
  <ele>1583.0</ele>
  <time>2026-09-02T20:50:19Z</time>
  <course>0.0</course>
  <speed>0.0</speed>
  <fix>3d</fix>
</trkpt>
<trkpt lat="40.0713749" lon="-105.229789">
  <ele>1583.0</ele>
  <time>2026-09-02T20:50:19Z</time>
  <course>0.0</course>
  <speed>0.0</speed>
  <fix>3d</fix>
</trkpt>
<trkpt lat="40.0713749" lon="-105.229789">
  <ele>1583.0</ele>
  <time>2026-09-02T20:50:19Z</time>
  <course>0.0</course>
  <speed>0.0</speed>
  <fix>3d</fix>
</trkpt>
<trkpt lat="40.0713749" lon="-105.229789">
  <ele>1583.0</ele>
  <time>2026-09-02T20:50:19Z</time>
  <course>0.0</course>
  <speed>0.0</speed>
  <fix>3d</fix>
</trkpt>
<trkpt lat="40.0713749" lon="-105.229789">
  <ele>1583.0</ele>
  <time>2026-09-02T20:50:19Z</time>
  <course>0.0</course>
  <speed>0.0</speed>
  <fix>3d</fix>
</trkpt>
<trkpt lat="40.0713749" lon="-105.229789">
  <ele>1583.0</ele>
  <time>2026-09-02T20:50:19Z</time>
  <course>0.0</course>
  <speed>0.0</speed>
  <fix>3d</fix>
</trkpt>
<trkpt lat="40.0713749" lon="-105.229789">
  <ele>1583.0</ele>
  <time>2026-09-02T20:50:19Z</time>
  <course>0.0</course>
  <speed>0.0</speed>
  <fix>3d</fix>
</trkpt>
<trkpt lat="40.0713749" lon="-105.229789">
  <ele>1583.0</ele>
  <time>2026-09-02T20:50:19Z</time>
  <course>0.0</course>
  <speed>0.0</speed>
  <fix>3d</fix>
</trkpt>
<trkpt lat="40.0713749" lon="-105.229789">
  <ele>1583.0</ele>
  <time>2026-09-02T20:50:19Z</time>
  <course>0.0</course>
  <speed>0.0</speed>
  <fix>3d</fix>
</trkpt>
<trkpt lat="40.0713749" lon="-105.229789">
  <ele>1583.0</ele>
  <time>2026-09-02T20:50:19Z</time>
  <course>0.0</course>
  <speed>0.0</speed>
  <fix>3d</fix>
</trkpt>
<trkpt lat="40.0713749" lon="-105.229789">
  <ele>1583.0</ele>
  <time>2026-09-02T20:50:19Z</time>
  <course>0.0</course>
  <speed>0.0</speed>
  <fix>3d</fix>
</trkpt>
<trkpt lat="40.0713749" lon="-105.229789">
  <ele>1583.0</ele>
  <time>2026-09-02T20:50:19Z</time>
  <course>0.0</course>
  <speed>0.0</speed>
  <fix>3d</fix>
</trkpt>
<trkpt lat="40.0713749" lon="-105.229789">
  <ele>1583.0</ele>
  <time>2026-09-02T20:50:19Z</time>
  <course>0.0</course>
  <speed>0.0</speed>
  <fix>3d</fix>
</trkpt>
<trkpt lat="40.0713749" lon="-105.229789">
  <ele>1583.0</ele>
  <time>2026-09-02T20:50:19Z</time>
  <course>0.0</course>
  <speed>0.0</speed>
  <fix>3d</fix>
</trkpt>
<trkpt lat="40.0713749" lon="-105.229789">
  <ele>1583.0</ele>
  <time>2026-09-02T20:50:19Z</time>
  <course>0.0</course>
  <speed>0.0</speed>
  <fix>3d</fix>
</trkpt>
<trkpt lat="40.0713749" lon="-105.229789">
  <ele>1583.0</ele>
  <time>2026-09-02T20:50:19Z</time>
  <course>0.0</course>
  <speed>0.0</speed>
  <fix>3d</fix>
</trkpt>
<trkpt lat="40.0713749" lon="-105.229789">
  <ele>1583.0</ele>
  <time>2026-09-02T20:50:19Z</time>
  <course>0.0</course>
  <speed>0.0</speed>
  <fix>3d</fix>
</trkpt>
<trkpt lat="40.0713749" lon="-105.229789">
  <ele>1583.0</ele>
  <time>2026-09-02T20:50:19Z</time>
  <course>0.0</course>
  <speed>0.0</speed>
  <fix>3d</fix>
</trkpt>
<trkpt lat="40.0713749" lon="-105.229789">
  <ele>1583.0</ele>
  <time>2026-09-02T20:50:19Z</time>
  <course>0.0</course>
  <speed>0.0</speed>
  <fix>3d</fix>
</trkpt>
<trkpt lat="40.0713749" lon="-105.229789">
  <ele>1583.0</ele>
  <time>2026-09-02T20:50:19Z</time>
  <course>0.0</course>
  <speed>0.0</speed>
  <fix>3d</fix>
</trkpt>
<trkpt lat="40.0713749" lon="-105.229789">
  <ele>1583.0</ele>
  <time>2026-09-02T20:50:19Z</time>
  <course>0.0</course>
  <speed>0.0</speed>
  <fix>3d</fix>
</trkpt>
<trkpt lat="40.0713749" lon="-105.229789">
  <ele>1583.0</ele>
  <time>2026-09-02T20:50:19Z</time>
  <course>0.0</course>
  <speed>0.0</speed>
  <fix>3d</fix>
</trkpt>
<trkpt lat="40.0713749" lon="-105.229789">
  <ele>1583.0</ele>
  <time>2026-09-02T20:50:19Z</time>
  <course>0.0</course>
  <speed>0.0</speed>
  <fix>3d</fix>
</trkpt>
<trkpt lat="40.0713749" lon="-105.229789">
  <ele>1583.0</ele>
  <time>2026-09-02T20:50:19Z</time>
  <course>0.0</course>
  <speed>0.0</speed>
  <fix>3d</fix>
</trkpt>
<trkpt lat="40.0713749" lon="-105.229789">
  <ele>1583.0</ele>
  <time>2026-09-02T20:50:19Z</time>
  <course>0.0</course>
  <speed>0.0</speed>
  <fix>3d</fix>
</trkpt>
<trkpt lat="40.0713749" lon="-105.229789">
  <ele>1583.0</ele>
  <time>2026-09-02T20:50:19Z</time>
  <course>0.0</course>
  <speed>0.0</speed>
  <fix>3d</fix>
</trkpt>
<trkpt lat="40.0713749" lon="-105.229789">
  <ele>1583.0</ele>
  <time>2026-09-02T20:50:19Z</time>
  <course>0.0</course>
  <speed>0.0</speed>
  <fix>3d</fix>
</trkpt>
<trkpt lat="40.0713749" lon="-105.229789">
  <ele>1583.0</ele>
  <time>2026-09-02T20:50:19Z</time>
  <course>0.0</course>
  <speed>0.0</speed>
  <fix>3d</fix>
</trkpt>
<trkpt lat="40.0713749" lon="-105.229789">
  <ele>1583.0</ele>
  <time>2026-09-02T20:50:19Z</time>
  <course>0.0</course>
  <speed>0.0</speed>
  <fix>3d</fix>
</trkpt>
<trkpt lat="40.0713749" lon="-105.229789">
  <ele>1583.0</ele>
  <time>2026-09-02T20:50:19Z</time>
  <course>0.0</course>
  <speed>0.0</speed>
  <fix>3d</fix>
</trkpt>
<trkpt lat="40.0713749" lon="-105.229789">
  <ele>1583.0</ele>
  <time>2026-09-02T20:50:19Z</time>
  <course>0.0</course>
  <speed>0.0</speed>
  <fix>3d</fix>
</trkpt>
<trkpt lat="40.0713749" lon="-105.229789">
  <ele>1583.0</ele>
  <time>2026-09-02T20:50:19Z</time>
  <course>0.0</course>
  <speed>0.0</speed>
  <fix>3d</fix>
</trkpt>
<trkpt lat="40.0713749" lon="-105.229789">
  <ele>1583.0</ele>
  <time>2026-09-02T20:50:19Z</time>
  <course>0.0</course>
  <speed>0.0</speed>
  <fix>3d</fix>
</trkpt>
<trkpt lat="40.0713749" lon="-105.229789">
  <ele>1583.0</ele>
  <time>2026-09-02T20:50:19Z</time>
  <course>0.0</course>
  <speed>0.0</speed>
  <fix>3d</fix>
</trkpt>
<trkpt lat="40.0713749" lon="-105.229789">
  <ele>1583.0</ele>
  <time>2026-09-02T20:50:19Z</time>
  <course>0.0</course>
  <speed>0.0</speed>
  <fix>3d</fix>
</trkpt>
<trkpt lat="40.0713749" lon="-105.229789">
  <ele>1583.0</ele>
  <time>2026-09-02T20:50:19Z</time>
  <course>0.0</course>
  <speed>0.0</speed>
  <fix>3d</fix>
</trkpt>
<trkpt lat="40.0713749" lon="-105.229789">
  <ele>1583.0</ele>
  <time>2026-09-02T20:50:19Z</time>
  <course>0.0</course>
  <speed>0.0</speed>
  <fix>3d</fix>
</trkpt>
<trkpt lat="40.0713749" lon="-105.229789">
  <ele>1583.0</ele>
  <time>2026-09-02T20:50:19Z</time>
  <course>0.0</course>
  <speed>0.0</speed>
  <fix>3d</fix>
</trkpt>
<trkpt lat="40.0713749" lon="-105.229789">
  <ele>1583.0</ele>
  <time>2026-09-02T20:50:19Z</time>
  <course>0.0</course>
  <speed>0.0</speed>
  <fix>3d</fix>
</trkpt>
<trkpt lat="40.0713749" lon="-105.229789">
  <ele>1583.0</ele>
  <time>2026-09-02T20:50:19Z</time>
  <course>0.0</course>
  <speed>0.0</speed>
  <fix>3d</fix>
</trkpt>
<trkpt lat="40.0713749" lon="-105.229789">
  <ele>1583.0</ele>
  <time>2026-09-02T20:50:19Z</time>
  <course>0.0</course>
  <speed>0.0</speed>
  <fix>3d</fix>
</trkpt>
<trkpt lat="40.0713749" lon="-105.229789">
  <ele>1583.0</ele>
  <time>2026-09-02T20:50:19Z</time>
  <course>0.0</course>
  <speed>0.0</speed>
  <fix>3d</fix>
</trkpt>
<trkpt lat="40.0713749" lon="-105.229789">
  <ele>1583.0</ele>
  <time>2026-09-02T20:50:19Z</time>
  <course>0.0</course>
  <speed>0.0</speed>
  <fix>3d</fix>
</trkpt>
<trkpt lat="40.0713749" lon="-105.229789">
  <ele>1583.0</ele>
  <time>2026-09-02T20:50:19Z</time>
  <course>0.0</course>
  <speed>0.0</speed>
  <fix>3d</fix>
</trkpt>
<trkpt lat="40.0713749" lon="-105.229789">
  <ele>1583.0</ele>
  <time>2026-09-02T20:50:19Z</time>
  <course>0.0</course>
  <speed>0.0</speed>
  <fix>3d</fix>
</trkpt>
<trkpt lat="40.0713749" lon="-105.229789">
  <ele>1583.0</ele>
  <time>2026-09-02T20:50:19Z</time>
  <course>0.0</course>
  <speed>0.0</speed>
  <fix>3d</fix>
</trkpt>
<trkpt lat="40.0713749" lon="-105.229789">
  <ele>1583.0</ele>
  <time>2026-09-02T20:50:19Z</time>
  <course>0.0</course>
  <speed>0.0</speed>
  <fix>3d</fix>
</trkpt>
<trkpt lat="40.0713749" lon="-105.229789">
  <ele>1583.0</ele>
  <time>2026-09-02T20:50:19Z</time>
  <course>0.0</course>
  <speed>0.0</speed>
  <fix>3d</fix>
</trkpt>
<trkpt lat="40.0713749" lon="-105.229789">
  <ele>1583.0</ele>
  <time>2026-09-02T20:50:19Z</time>
  <course>0.0</course>
  <speed>0.0</speed>
  <fix>3d</fix>
</trkpt>
<trkpt lat="40.0713749" lon="-105.229789">
  <ele>1583.0</ele>
  <time>2026-09-02T20:50:19Z</time>
  <course>0.0</course>
  <speed>0.0</speed>
  <fix>3d</fix>
</trkpt>
<trkpt lat="40.0713749" lon="-105.229789">
  <ele>1583.0</ele>
  <time>2026-09-02T20:50:19Z</time>
  <course>0.0</course>
  <speed>0.0</speed>
  <fix>3d</fix>
</trkpt>
<trkpt lat="40.0713749" lon="-105.229789">
  <ele>1583.0</ele>
  <time>2026-09-02T20:50:19Z</time>
  <course>0.0</course>
  <speed>0.0</speed>
  <fix>3d</fix>
</trkpt>
<trkpt lat="40.0713749" lon="-105.229789">
  <ele>1583.0</ele>
  <time>2026-09-02T20:50:19Z</time>
  <course>0.0</course>
  <speed>0.0</speed>
  <fix>3d</fix>
</trkpt>
<trkpt lat="40.0713749" lon="-105.229789">
  <ele>1583.0</ele>
  <time>2026-09-02T20:50:19Z</time>
  <course>0.0</course>
  <speed>0.0</speed>
  <fix>3d</fix>
</trkpt>
<trkpt lat="40.0713749" lon="-105.229789">
  <ele>1583.0</ele>
  <time>2026-09-02T20:50:19Z</time>
  <course>0.0</course>
  <speed>0.0</speed>
  <fix>3d</fix>
</trkpt>
<trkpt lat="40.0713749" lon="-105.229789">
  <ele>1583.0</ele>
  <time>2026-09-02T20:50:19Z</time>
  <course>0.0</course>
  <speed>0.0</speed>
  <fix>3d</fix>
</trkpt>
<trkpt lat="40.0713749" lon="-105.229789">
  <ele>1583.0</ele>
  <time>2026-09-02T20:50:19Z</time>
  <course>0.0</course>
  <speed>0.0</speed>
  <fix>3d</fix>
</trkpt>
<trkpt lat="40.0713749" lon="-105.229789">
  <ele>1583.0</ele>
  <time>2026-09-02T20:50:19Z</time>
  <course>0.0</course>
  <speed>0.0</speed>
  <fix>3d</fix>
</trkpt>
<trkpt lat="40.0713749" lon="-105.229789">
  <ele>1583.0</ele>
  <time>2026-09-02T20:50:19Z</time>
  <course>0.0</course>
  <speed>0.0</speed>
  <fix>3d</fix>
</trkpt>
<trkpt lat="40.0713749" lon="-105.229789">
  <ele>1583.0</ele>
  <time>2026-09-02T20:50:19Z</time>
  <course>0.0</course>
  <speed>0.0</speed>
  <fix>3d</fix>
</trkpt>
<trkpt lat="40.0713749" lon="-105.229789">
  <ele>1583.0</ele>
  <time>2026-09-02T20:50:19Z</time>
  <course>0.0</course>
  <speed>0.0</speed>
  <fix>3d</fix>
</trkpt>
<trkpt lat="40.0713749" lon="-105.229789">
  <ele>1583.0</ele>
  <time>2026-09-02T20:50:19Z</time>
  <course>0.0</course>
  <speed>0.0</speed>
  <fix>3d</fix>
</trkpt>
<trkpt lat="40.0713749" lon="-105.229789">
  <ele>1583.0</ele>
  <time>2026-09-02T20:50:19Z</time>
  <course>0.0</course>
  <speed>0.0</speed>
  <fix>3d</fix>
</trkpt>
<trkpt lat="40.0713749" lon="-105.229789">
  <ele>1583.0</ele>
  <time>2026-09-02T20:50:19Z</time>
  <course>0.0</course>
  <speed>0.0</speed>
  <fix>3d</fix>
</trkpt>
<trkpt lat="40.0713749" lon="-105.229789">
  <ele>1583.0</ele>
  <time>2026-09-02T20:50:19Z</time>
  <course>0.0</course>
  <speed>0.0</speed>
  <fix>3d</fix>
</trkpt>
<trkpt lat="40.0713749" lon="-105.229789">
  <ele>1583.0</ele>
  <time>2026-09-02T20:50:19Z</time>
  <course>0.0</course>
  <speed>0.0</speed>
  <fix>3d</fix>
</trkpt>
<trkpt lat="40.0713749" lon="-105.229789">
  <ele>1583.0</ele>
  <time>2026-09-02T20:50:19Z</time>
  <course>0.0</course>
  <speed>0.0</speed>
  <fix>3d</fix>
</trkpt>
<trkpt lat="40.0713749" lon="-105.229789">
  <ele>1583.0</ele>
  <time>2026-09-02T20:50:19Z</time>
  <course>0.0</course>
  <speed>0.0</speed>
  <fix>3d</fix>
</trkpt>
<trkpt lat="40.0713749" lon="-105.229789">
  <ele>1583.0</ele>
  <time>2026-09-02T20:50:19Z</time>
  <course>0.0</course>
  <speed>0.0</speed>
  <fix>3d</fix>
</trkpt>
<trkpt lat="40.0713749" lon="-105.229789">
  <ele>1583.0</ele>
  <time>2026-09-02T20:50:19Z</time>
  <course>0.0</course>
  <speed>0.0</speed>
  <fix>3d</fix>
</trkpt>
<trkpt lat="40.0713749" lon="-105.229789">
  <ele>1583.0</ele>
  <time>2026-09-02T20:50:19Z</time>
  <course>0.0</course>
  <speed>0.0</speed>
  <fix>3d</fix>
</trkpt>
<trkpt lat="40.0713749" lon="-105.229789">
  <ele>1583.0</ele>
  <time>2026-09-02T20:50:19Z</time>
  <course>0.0</course>
  <speed>0.0</speed>
  <fix>3d</fix>
</trkpt>
<trkpt lat="40.0713749" lon="-105.229789">
  <ele>1583.0</ele>
  <time>2026-09-02T20:50:19Z</time>
  <course>0.0</course>
  <speed>0.0</speed>
  <fix>3d</fix>
</trkpt>
<trkpt lat="40.0713749" lon="-105.229789">
  <ele>1583.0</ele>
  <time>2026-09-02T20:50:19Z</time>
  <course>0.0</course>
  <speed>0.0</speed>
  <fix>3d</fix>
</trkpt>
<trkpt lat="40.0713749" lon="-105.229789">
  <ele>1583.0</ele>
  <time>2026-09-02T20:50:19Z</time>
  <course>0.0</course>
  <speed>0.0</speed>
  <fix>3d</fix>
</trkpt>
<trkpt lat="40.0713749" lon="-105.229789">
  <ele>1583.0</ele>
  <time>2026-09-02T20:50:19Z</time>
  <course>0.0</course>
  <speed>0.0</speed>
  <fix>3d</fix>
</trkpt>
<trkpt lat="40.0713749" lon="-105.229789">
  <ele>1583.0</ele>
  <time>2026-09-02T20:50:19Z</time>
  <course>0.0</course>
  <speed>0.0</speed>
  <fix>3d</fix>
</trkpt>
<trkpt lat="40.0713749" lon="-105.229789">
  <ele>1583.0</ele>
  <time>2026-09-02T20:50:19Z</time>
  <course>0.0</course>
  <speed>0.0</speed>
  <fix>3d</fix>
</trkpt>
<trkpt lat="40.0713749" lon="-105.229789">
  <ele>1583.0</ele>
  <time>2026-09-02T20:50:19Z</time>
  <course>0.0</course>
  <speed>0.0</speed>
  <fix>3d</fix>
</trkpt>
<trkpt lat="40.0713749" lon="-105.229789">
  <ele>1583.0</ele>
  <time>2026-09-02T20:50:19Z</time>
  <course>0.0</course>
  <speed>0.0</speed>
  <fix>3d</fix>
</trkpt>
<trkpt lat="40.0713749" lon="-105.229789">
  <ele>1583.0</ele>
  <time>2026-09-02T20:50:19Z</time>
  <course>0.0</course>
  <speed>0.0</speed>
  <fix>3d</fix>
</trkpt>
<trkpt lat="40.0713749" lon="-105.229789">
  <ele>1583.0</ele>
  <time>2026-09-02T20:50:19Z</time>
  <course>0.0</course>
  <speed>0.0</speed>
  <fix>3d</fix>
</trkpt>
<trkpt lat="40.0713749" lon="-105.229789">
  <ele>1583.0</ele>
  <time>2026-09-02T20:50:19Z</time>
  <course>0.0</course>
  <speed>0.0</speed>
  <fix>3d</fix>
</trkpt>
<trkpt lat="40.0713749" lon="-105.229789">
  <ele>1583.0</ele>
  <time>2026-09-02T20:50:19Z</time>
  <course>0.0</course>
  <speed>0.0</speed>
  <fix>3d</fix>
</trkpt>
<trkpt lat="40.0713749" lon="-105.229789">
  <ele>1583.0</ele>
  <time>2026-09-02T20:50:19Z</time>
  <course>0.0</course>
  <speed>0.0</speed>
  <fix>3d</fix>
</trkpt>
<trkpt lat="40.0713749" lon="-105.229789">
  <ele>1583.0</ele>
  <time>2026-09-02T20:50:19Z</time>
  <course>0.0</course>
  <speed>0.0</speed>
  <fix>3d</fix>
</trkpt>
<trkpt lat="40.0713749" lon="-105.229789">
  <ele>1583.0</ele>
  <time>2026-09-02T20:50:19Z</time>
  <course>0.0</course>
  <speed>0.0</speed>
  <fix>3d</fix>
</trkpt>
<trkpt lat="40.0713749" lon="-105.229789">
  <ele>1583.0</ele>
  <time>2026-09-02T20:50:19Z</time>
  <course>0.0</course>
  <speed>0.0</speed>
  <fix>3d</fix>
</trkpt>
<trkpt lat="40.0713749" lon="-105.229789">
  <ele>1583.0</ele>
  <time>2026-09-02T20:50:19Z</time>
  <course>0.0</course>
  <speed>0.0</speed>
  <fix>3d</fix>
</trkpt>
<trkpt lat="40.0713749" lon="-105.229789">
  <ele>1583.0</ele>
  <time>2026-09-02T20:50:19Z</time>
  <course>0.0</course>
  <speed>0.0</speed>
  <fix>3d</fix>
</trkpt>
<trkpt lat="40.0713749" lon="-105.229789">
  <ele>1583.0</ele>
  <time>2026-09-02T20:50:19Z</time>
  <course>0.0</course>
  <speed>0.0</speed>
  <fix>3d</fix>
</trkpt>
<trkpt lat="40.0713749" lon="-105.229789">
  <ele>1583.0</ele>
  <time>2026-09-02T20:50:19Z</time>
  <course>0.0</course>
  <speed>0.0</speed>
  <fix>3d</fix>
</trkpt>
<trkpt lat="40.0713749" lon="-105.229789">
  <ele>1583.0</ele>
  <time>2026-09-02T20:50:19Z</time>
  <course>0.0</course>
  <speed>0.0</speed>
  <fix>3d</fix>
</trkpt>
<trkpt lat="40.0713749" lon="-105.229789">
  <ele>1583.0</ele>
  <time>2026-09-02T20:50:19Z</time>
  <course>0.0</course>
  <speed>0.0</speed>
  <fix>3d</fix>
</trkpt>
<trkpt lat="40.0713749" lon="-105.229789">
  <ele>1583.0</ele>
  <time>2026-09-02T20:50:19Z</time>
  <course>0.0</course>
  <speed>0.0</speed>
  <fix>3d</fix>
</trkpt>
<trkpt lat="40.0713749" lon="-105.229789">
  <ele>1583.0</ele>
  <time>2026-09-02T20:50:19Z</time>
  <course>0.0</course>
  <speed>0.0</speed>
  <fix>3d</fix>
</trkpt>
<trkpt lat="40.0713749" lon="-105.229789">
  <ele>1583.0</ele>
  <time>2026-09-02T20:50:19Z</time>
  <course>0.0</course>
  <speed>0.0</speed>
  <fix>3d</fix>
</trkpt>
<trkpt lat="40.0713749" lon="-105.229789">
  <ele>1583.0</ele>
  <time>2026-09-02T20:50:19Z</time>
  <course>0.0</course>
  <speed>0.0</speed>
  <fix>3d</fix>
</trkpt>
<trkpt lat="40.0713749" lon="-105.229789">
  <ele>1583.0</ele>
  <time>2026-09-02T20:50:19Z</time>
  <course>0.0</course>
  <speed>0.0</speed>
  <fix>3d</fix>
</trkpt>
<trkpt lat="40.0713749" lon="-105.229789">
  <ele>1583.0</ele>
  <time>2026-09-02T20:50:19Z</time>
  <course>0.0</course>
  <speed>0.0</speed>
  <fix>3d</fix>
</trkpt>
<trkpt lat="40.0713749" lon="-105.229789">
  <ele>1583.0</ele>
  <time>2026-09-02T20:50:19Z</time>
  <course>0.0</course>
  <speed>0.0</speed>
  <fix>3d</fix>
</trkpt>
<trkpt lat="40.0713749" lon="-105.229789">
  <ele>1583.0</ele>
  <time>2026-09-02T20:50:19Z</time>
  <course>0.0</course>
  <speed>0.0</speed>
  <fix>3d</fix>
</trkpt>
<trkpt lat="40.0713749" lon="-105.229789">
  <ele>1583.0</ele>
  <time>2026-09-02T20:50:19Z</time>
  <course>0.0</course>
  <speed>0.0</speed>
  <fix>3d</fix>
</trkpt>
<trkpt lat="40.0713749" lon="-105.229789">
  <ele>1583.0</ele>
  <time>2026-09-02T20:50:19Z</time>
  <course>0.0</course>
  <speed>0.0</speed>
  <fix>3d</fix>
</trkpt>
<trkpt lat="40.0713749" lon="-105.229789">
  <ele>1583.0</ele>
  <time>2026-09-02T20:50:19Z</time>
  <course>0.0</course>
  <speed>0.0</speed>
  <fix>3d</fix>
</trkpt>
<trkpt lat="40.0713749" lon="-105.229789">
  <ele>1583.0</ele>
  <time>2026-09-02T20:50:19Z</time>
  <course>0.0</course>
  <speed>0.0</speed>
  <fix>3d</fix>
</trkpt>
<trkpt lat="40.0713749" lon="-105.229789">
  <ele>1583.0</ele>
  <time>2026-09-02T20:50:19Z</time>
  <course>0.0</course>
  <speed>0.0</speed>
  <fix>3d</fix>
</trkpt>
<trkpt lat="40.0713749" lon="-105.229789">
  <ele>1583.0</ele>
  <time>2026-09-02T20:50:19Z</time>
  <course>0.0</course>
  <speed>0.0</speed>
  <fix>3d</fix>
</trkpt>
<trkpt lat="40.0713749" lon="-105.229789">
  <ele>1583.0</ele>
  <time>2026-09-02T20:50:19Z</time>
  <course>0.0</course>
  <speed>0.0</speed>
  <fix>3d</fix>
</trkpt>
<trkpt lat="40.0713749" lon="-105.229789">
  <ele>1583.0</ele>
  <time>2026-09-02T20:50:19Z</time>
  <course>0.0</course>
  <speed>0.0</speed>
  <fix>3d</fix>
</trkpt>
<trkpt lat="40.0713749" lon="-105.229789">
  <ele>1583.0</ele>
  <time>2026-09-02T20:50:19Z</time>
  <course>0.0</course>
  <speed>0.0</speed>
  <fix>3d</fix>
</trkpt>
<trkpt lat="40.0713749" lon="-105.229789">
  <ele>1583.0</ele>
  <time>2026-09-02T20:50:19Z</time>
  <course>0.0</course>
  <speed>0.0</speed>
  <fix>3d</fix>
</trkpt>
<trkpt lat="40.0713749" lon="-105.229789">
  <ele>1583.0</ele>
  <time>2026-09-02T20:50:19Z</time>
  <course>0.0</course>
  <speed>0.0</speed>
  <fix>3d</fix>
</trkpt>
<trkpt lat="40.0713749" lon="-105.229789">
  <ele>1583.0</ele>
  <time>2026-09-02T20:50:19Z</time>
  <course>0.0</course>
  <speed>0.0</speed>
  <fix>3d</fix>
</trkpt>
<trkpt lat="40.0713749" lon="-105.229789">
  <ele>1583.0</ele>
  <time>2026-09-02T20:50:19Z</time>
  <course>0.0</course>
  <speed>0.0</speed>
  <fix>3d</fix>
</trkpt>
<trkpt lat="40.0713749" lon="-105.229789">
  <ele>1583.0</ele>
  <time>2026-09-02T20:50:19Z</time>
  <course>0.0</course>
  <speed>0.0</speed>
  <fix>3d</fix>
</trkpt>
<trkpt lat="40.0713749" lon="-105.229789">
  <ele>1583.0</ele>
  <time>2026-09-02T20:50:19Z</time>
  <course>0.0</course>
  <speed>0.0</speed>
  <fix>3d</fix>
</trkpt>
<trkpt lat="40.0713749" lon="-105.229789">
  <ele>1583.0</ele>
  <time>2026-09-02T20:50:19Z</time>
  <course>0.0</course>
  <speed>0.0</speed>
  <fix>3d</fix>
</trkpt>
<trkpt lat="40.0713749" lon="-105.229789">
  <ele>1583.0</ele>
  <time>2026-09-02T20:50:19Z</time>
  <course>0.0</course>
  <speed>0.0</speed>
  <fix>3d</fix>
</trkpt>
<trkpt lat="40.0713749" lon="-105.229789">
  <ele>1583.0</ele>
  <time>2026-09-02T20:50:19Z</time>
  <course>0.0</course>
  <speed>0.0</speed>
  <fix>3d</fix>
</trkpt>
<trkpt lat="40.0713749" lon="-105.229789">
  <ele>1583.0</ele>
  <time>2026-09-02T20:50:19Z</time>
  <course>0.0</course>
  <speed>0.0</speed>
  <fix>3d</fix>
</trkpt>
<trkpt lat="40.0713749" lon="-105.229789">
  <ele>1583.0</ele>
  <time>2026-09-02T20:50:19Z</time>
  <course>0.0</course>
  <speed>0.0</speed>
  <fix>3d</fix>
</trkpt>
<trkpt lat="40.0713749" lon="-105.229789">
  <ele>1583.0</ele>
  <time>2026-09-02T20:50:19Z</time>
  <course>0.0</course>
  <speed>0.0</speed>
  <fix>3d</fix>
</trkpt>
<trkpt lat="40.0713749" lon="-105.229789">
  <ele>1583.0</ele>
  <time>2026-09-02T20:50:19Z</time>
  <course>0.0</course>
  <speed>0.0</speed>
  <fix>3d</fix>
</trkpt>
<trkpt lat="40.0713749" lon="-105.229789">
  <ele>1583.0</ele>
  <time>2026-09-02T20:50:19Z</time>
  <course>0.0</course>
  <speed>0.0</speed>
  <fix>3d</fix>
</trkpt>
<trkpt lat="40.0713749" lon="-105.229789">
  <ele>1583.0</ele>
  <time>2026-09-02T20:50:19Z</time>
  <course>0.0</course>
  <speed>0.0</speed>
  <fix>3d</fix>
</trkpt>
<trkpt lat="40.0713749" lon="-105.229789">
  <ele>1583.0</ele>
  <time>2026-09-02T20:50:19Z</time>
  <course>0.0</course>
  <speed>0.0</speed>
  <fix>3d</fix>
</trkpt>
<trkpt lat="40.0713749" lon="-105.229789">
  <ele>1583.0</ele>
  <time>2026-09-02T20:50:19Z</time>
  <course>0.0</course>
  <speed>0.0</speed>
  <fix>3d</fix>
</trkpt>
<trkpt lat="40.0713749" lon="-105.229789">
  <ele>1583.0</ele>
  <time>2026-09-02T20:50:19Z</time>
  <course>0.0</course>
  <speed>0.0</speed>
  <fix>3d</fix>
</trkpt>
<trkpt lat="40.0713749" lon="-105.229789">
  <ele>1583.0</ele>
  <time>2026-09-02T20:50:19Z</time>
  <course>0.0</course>
  <speed>0.0</speed>
  <fix>3d</fix>
</trkpt>
<trkpt lat="40.0713749" lon="-105.229789">
  <ele>1583.0</ele>
  <time>2026-09-02T20:50:19Z</time>
  <course>0.0</course>
  <speed>0.0</speed>
  <fix>3d</fix>
</trkpt>
<trkpt lat="40.0713749" lon="-105.229789">
  <ele>1583.0</ele>
  <time>2026-09-02T20:50:19Z</time>
  <course>0.0</course>
  <speed>0.0</speed>
  <fix>3d</fix>
</trkpt>
<trkpt lat="40.0713749" lon="-105.229789">
  <ele>1583.0</ele>
  <time>2026-09-02T20:50:19Z</time>
  <course>0.0</course>
  <speed>0.0</speed>
  <fix>3d</fix>
</trkpt>
<trkpt lat="40.0713749" lon="-105.229789">
  <ele>1583.0</ele>
  <time>2026-09-02T20:50:19Z</time>
  <course>0.0</course>
  <speed>0.0</speed>
  <fix>3d</fix>
</trkpt>
<trkpt lat="40.0713749" lon="-105.229789">
  <ele>1583.0</ele>
  <time>2026-09-02T20:50:19Z</time>
  <course>0.0</course>
  <speed>0.0</speed>
  <fix>3d</fix>
</trkpt>
<trkpt lat="40.0713749" lon="-105.229789">
  <ele>1583.0</ele>
  <time>2026-09-02T20:50:19Z</time>
  <course>0.0</course>
  <speed>0.0</speed>
  <fix>3d</fix>
</trkpt>
<trkpt lat="40.0713749" lon="-105.229789">
  <ele>1583.0</ele>
  <time>2026-09-02T20:50:19Z</time>
  <course>0.0</course>
  <speed>0.0</speed>
  <fix>3d</fix>
</trkpt>
<trkpt lat="40.0713749" lon="-105.229789">
  <ele>1583.0</ele>
  <time>2026-09-02T20:50:19Z</time>
  <course>0.0</course>
  <speed>0.0</speed>
  <fix>3d</fix>
</trkpt>
<trkpt lat="40.0713749" lon="-105.229789">
  <ele>1583.0</ele>
  <time>2026-09-02T20:50:19Z</time>
  <course>0.0</course>
  <speed>0.0</speed>
  <fix>3d</fix>
</trkpt>
<trkpt lat="40.0713749" lon="-105.229789">
  <ele>1583.0</ele>
  <time>2026-09-02T20:50:19Z</time>
  <course>0.0</course>
  <speed>0.0</speed>
  <fix>3d</fix>
</trkpt>
<trkpt lat="40.0713749" lon="-105.229789">
  <ele>1583.0</ele>
  <time>2026-09-02T20:50:19Z</time>
  <course>0.0</course>
  <speed>0.0</speed>
  <fix>3d</fix>
</trkpt>
<trkpt lat="40.0713749" lon="-105.229789">
  <ele>1583.0</ele>
  <time>2026-09-02T20:50:19Z</time>
  <course>0.0</course>
  <speed>0.0</speed>
  <fix>3d</fix>
</trkpt>
<trkpt lat="40.0713749" lon="-105.229789">
  <ele>1583.0</ele>
  <time>2026-09-02T20:50:19Z</time>
  <course>0.0</course>
  <speed>0.0</speed>
  <fix>3d</fix>
</trkpt>
<trkpt lat="40.0713749" lon="-105.229789">
  <ele>1583.0</ele>
  <time>2026-09-02T20:50:19Z</time>
  <course>0.0</course>
  <speed>0.0</speed>
  <fix>3d</fix>
</trkpt>
<trkpt lat="40.0713749" lon="-105.229789">
  <ele>1583.0</ele>
  <time>2026-09-02T20:50:19Z</time>
  <course>0.0</course>
  <speed>0.0</speed>
  <fix>3d</fix>
</trkpt>
<trkpt lat="40.0713749" lon="-105.229789">
  <ele>1583.0</ele>
  <time>2026-09-02T20:50:19Z</time>
  <course>0.0</course>
  <speed>0.0</speed>
  <fix>3d</fix>
</trkpt>
<trkpt lat="40.0713749" lon="-105.229789">
  <ele>1583.0</ele>
  <time>2026-09-02T20:50:19Z</time>
  <course>0.0</course>
  <speed>0.0</speed>
  <fix>3d</fix>
</trkpt>
<trkpt lat="40.0713749" lon="-105.229789">
  <ele>1583.0</ele>
  <time>2026-09-02T20:50:19Z</time>
  <course>0.0</course>
  <speed>0.0</speed>
  <fix>3d</fix>
</trkpt>
<trkpt lat="40.0713749" lon="-105.229789">
  <ele>1583.0</ele>
  <time>2026-09-02T20:50:19Z</time>
  <course>0.0</course>
  <speed>0.0</speed>
  <fix>3d</fix>
</trkpt>
<trkpt lat="40.0713749" lon="-105.229789">
  <ele>1583.0</ele>
  <time>2026-09-02T20:50:19Z</time>
  <course>0.0</course>
  <speed>0.0</speed>
  <fix>3d</fix>
</trkpt>
<trkpt lat="40.0713749" lon="-105.229789">
  <ele>1583.0</ele>
  <time>2026-09-02T20:50:19Z</time>
  <course>0.0</course>
  <speed>0.0</speed>
  <fix>3d</fix>
</trkpt>
<trkpt lat="40.0713749" lon="-105.229789">
  <ele>1583.0</ele>
  <time>2026-09-02T20:50:19Z</time>
  <course>0.0</course>
  <speed>0.0</speed>
  <fix>3d</fix>
</trkpt>
<trkpt lat="40.0713749" lon="-105.229789">
  <ele>1583.0</ele>
  <time>2026-09-02T20:50:19Z</time>
  <course>0.0</course>
  <speed>0.0</speed>
  <fix>3d</fix>
</trkpt>
<trkpt lat="40.0713749" lon="-105.229789">
  <ele>1583.0</ele>
  <time>2026-09-02T20:50:19Z</time>
  <course>0.0</course>
  <speed>0.0</speed>
  <fix>3d</fix>
</trkpt>
<trkpt lat="40.0713749" lon="-105.229789">
  <ele>1583.0</ele>
  <time>2026-09-02T20:50:19Z</time>
  <course>0.0</course>
  <speed>0.0</speed>
  <fix>3d</fix>
</trkpt>
<trkpt lat="40.0713749" lon="-105.229789">
  <ele>1583.0</ele>
  <time>2026-09-02T20:50:19Z</time>
  <course>0.0</course>
  <speed>0.0</speed>
  <fix>3d</fix>
</trkpt>
<trkpt lat="40.0713749" lon="-105.229789">
  <ele>1583.0</ele>
  <time>2026-09-02T20:50:19Z</time>
  <course>0.0</course>
  <speed>0.0</speed>
  <fix>3d</fix>
</trkpt>
<trkpt lat="40.0713749" lon="-105.229789">
  <ele>1583.0</ele>
  <time>2026-09-02T20:50:19Z</time>
  <course>0.0</course>
  <speed>0.0</speed>
  <fix>3d</fix>
</trkpt>
<trkpt lat="40.0713749" lon="-105.229789">
  <ele>1583.0</ele>
  <time>2026-09-02T20:50:19Z</time>
  <course>0.0</course>
  <speed>0.0</speed>
  <fix>3d</fix>
</trkpt>
<trkpt lat="40.0713749" lon="-105.229789">
  <ele>1583.0</ele>
  <time>2026-09-02T20:50:19Z</time>
  <course>0.0</course>
  <speed>0.0</speed>
  <fix>3d</fix>
</trkpt>
<trkpt lat="40.0713749" lon="-105.229789">
  <ele>1583.0</ele>
  <time>2026-09-02T20:50:19Z</time>
  <course>0.0</course>
  <speed>0.0</speed>
  <fix>3d</fix>
</trkpt>
<trkpt lat="40.0713749" lon="-105.229789">
  <ele>1583.0</ele>
  <time>2026-09-02T20:50:19Z</time>
  <course>0.0</course>
  <speed>0.0</speed>
  <fix>3d</fix>
</trkpt>
<trkpt lat="40.0713749" lon="-105.229789">
  <ele>1583.0</ele>
  <time>2026-09-02T20:50:19Z</time>
  <course>0.0</course>
  <speed>0.0</speed>
  <fix>3d</fix>
</trkpt>
<trkpt lat="40.0713749" lon="-105.229789">
  <ele>1583.0</ele>
  <time>2026-09-02T20:50:19Z</time>
  <course>0.0</course>
  <speed>0.0</speed>
  <fix>3d</fix>
</trkpt>
<trkpt lat="40.0713749" lon="-105.229789">
  <ele>1583.0</ele>
  <time>2026-09-02T20:50:19Z</time>
  <course>0.0</course>
  <speed>0.0</speed>
  <fix>3d</fix>
</trkpt>
<trkpt lat="40.0713749" lon="-105.229789">
  <ele>1583.0</ele>
  <time>2026-09-02T20:50:19Z</time>
  <course>0.0</course>
  <speed>0.0</speed>
  <fix>3d</fix>
</trkpt>
<trkpt lat="40.0713749" lon="-105.229789">
  <ele>1583.0</ele>
  <time>2026-09-02T20:50:19Z</time>
  <course>0.0</course>
  <speed>0.0</speed>
  <fix>3d</fix>
</trkpt>
<trkpt lat="40.0713749" lon="-105.229789">
  <ele>1583.0</ele>
  <time>2026-09-02T20:50:19Z</time>
  <course>0.0</course>
  <speed>0.0</speed>
  <fix>3d</fix>
</trkpt>
<trkpt lat="40.0713749" lon="-105.229789">
  <ele>1583.0</ele>
  <time>2026-09-02T20:50:19Z</time>
  <course>0.0</course>
  <speed>0.0</speed>
  <fix>3d</fix>
</trkpt>
<trkpt lat="40.0713749" lon="-105.229789">
  <ele>1583.0</ele>
  <time>2026-09-02T20:50:19Z</time>
  <course>0.0</course>
  <speed>0.0</speed>
  <fix>3d</fix>
</trkpt>
<trkpt lat="40.0713749" lon="-105.229789">
  <ele>1583.0</ele>
  <time>2026-09-02T20:50:19Z</time>
  <course>0.0</course>
  <speed>0.0</speed>
  <fix>3d</fix>
</trkpt>
<trkpt lat="40.0713749" lon="-105.229789">
  <ele>1583.0</ele>
  <time>2026-09-02T20:50:19Z</time>
  <course>0.0</course>
  <speed>0.0</speed>
  <fix>3d</fix>
</trkpt>
<trkpt lat="40.0713749" lon="-105.229789">
  <ele>1583.0</ele>
  <time>2026-09-02T20:50:19Z</time>
  <course>0.0</course>
  <speed>0.0</speed>
  <fix>3d</fix>
</trkpt>
<trkpt lat="40.0713749" lon="-105.229789">
  <ele>1583.0</ele>
  <time>2026-09-02T20:50:19Z</time>
  <course>0.0</course>
  <speed>0.0</speed>
  <fix>3d</fix>
</trkpt>
<trkpt lat="40.0713749" lon="-105.229789">
  <ele>1583.0</ele>
  <time>2026-09-02T20:50:19Z</time>
  <course>0.0</course>
  <speed>0.0</speed>
  <fix>3d</fix>
</trkpt>
<trkpt lat="40.0713749" lon="-105.229789">
  <ele>1583.0</ele>
  <time>2026-09-02T20:50:19Z</time>
  <course>0.0</course>
  <speed>0.0</speed>
  <fix>3d</fix>
</trkpt>
<trkpt lat="40.0713749" lon="-105.229789">
  <ele>1583.0</ele>
  <time>2026-09-02T20:50:19Z</time>
  <course>0.0</course>
  <speed>0.0</speed>
  <fix>3d</fix>
</trkpt>
<trkpt lat="40.0713749" lon="-105.229789">
  <ele>1583.0</ele>
  <time>2026-09-02T20:50:19Z</time>
  <course>0.0</course>
  <speed>0.0</speed>
  <fix>3d</fix>
</trkpt>
<trkpt lat="40.0713749" lon="-105.229789">
  <ele>1583.0</ele>
  <time>2026-09-02T20:50:19Z</time>
  <course>0.0</course>
  <speed>0.0</speed>
  <fix>3d</fix>
</trkpt>
<trkpt lat="40.0713749" lon="-105.229789">
  <ele>1583.0</ele>
  <time>2026-09-02T20:50:19Z</time>
  <course>0.0</course>
  <speed>0.0</speed>
  <fix>3d</fix>
</trkpt>
<trkpt lat="40.0713749" lon="-105.229789">
  <ele>1583.0</ele>
  <time>2026-09-02T20:50:19Z</time>
  <course>0.0</course>
  <speed>0.0</speed>
  <fix>3d</fix>
</trkpt>
<trkpt lat="40.0713749" lon="-105.229789">
  <ele>1583.0</ele>
  <time>2026-09-02T20:50:19Z</time>
  <course>0.0</course>
  <speed>0.0</speed>
  <fix>3d</fix>
</trkpt>
<trkpt lat="40.0713749" lon="-105.229789">
  <ele>1583.0</ele>
  <time>2026-09-02T20:50:19Z</time>
  <course>0.0</course>
  <speed>0.0</speed>
  <fix>3d</fix>
</trkpt>
<trkpt lat="40.0713749" lon="-105.229789">
  <ele>1583.0</ele>
  <time>2026-09-02T20:50:19Z</time>
  <course>0.0</course>
  <speed>0.0</speed>
  <fix>3d</fix>
</trkpt>
<trkpt lat="40.0713749" lon="-105.229789">
  <ele>1583.0</ele>
  <time>2026-09-02T20:50:19Z</time>
  <course>0.0</course>
  <speed>0.0</speed>
  <fix>3d</fix>
</trkpt>
<trkpt lat="40.0713749" lon="-105.229789">
  <ele>1583.0</ele>
  <time>2026-09-02T20:50:19Z</time>
  <course>0.0</course>
  <speed>0.0</speed>
  <fix>3d</fix>
</trkpt>
<trkpt lat="40.0713749" lon="-105.229789">
  <ele>1583.0</ele>
  <time>2026-09-02T20:50:19Z</time>
  <course>0.0</course>
  <speed>0.0</speed>
  <fix>3d</fix>
</trkpt>
<trkpt lat="40.0713749" lon="-105.229789">
  <ele>1583.0</ele>
  <time>2026-09-02T20:50:19Z</time>
  <course>0.0</course>
  <speed>0.0</speed>
  <fix>3d</fix>
</trkpt>
<trkpt lat="40.0713749" lon="-105.229789">
  <ele>1583.0</ele>
  <time>2026-09-02T20:50:19Z</time>
  <course>0.0</course>
  <speed>0.0</speed>
  <fix>3d</fix>
</trkpt>
<trkpt lat="40.0713749" lon="-105.229789">
  <ele>1583.0</ele>
  <time>2026-09-02T20:50:19Z</time>
  <course>0.0</course>
  <speed>0.0</speed>
  <fix>3d</fix>
</trkpt>
<trkpt lat="40.0713749" lon="-105.229789">
  <ele>1583.0</ele>
  <time>2026-09-02T20:50:19Z</time>
  <course>0.0</course>
  <speed>0.0</speed>
  <fix>3d</fix>
</trkpt>
<trkpt lat="40.0713749" lon="-105.229789">
  <ele>1583.0</ele>
  <time>2026-09-02T20:50:19Z</time>
  <course>0.0</course>
  <speed>0.0</speed>
  <fix>3d</fix>
</trkpt>
<trkpt lat="40.0713749" lon="-105.229789">
  <ele>1583.0</ele>
  <time>2026-09-02T20:50:19Z</time>
  <course>0.0</course>
  <speed>0.0</speed>
  <fix>3d</fix>
</trkpt>
<trkpt lat="40.0713749" lon="-105.229789">
  <ele>1583.0</ele>
  <time>2026-09-02T20:50:19Z</time>
  <course>0.0</course>
  <speed>0.0</speed>
  <fix>3d</fix>
</trkpt>
<trkpt lat="40.0713749" lon="-105.229789">
  <ele>1583.0</ele>
  <time>2026-09-02T20:50:19Z</time>
  <course>0.0</course>
  <speed>0.0</speed>
  <fix>3d</fix>
</trkpt>
<trkpt lat="40.0713749" lon="-105.229789">
  <ele>1583.0</ele>
  <time>2026-09-02T20:50:19Z</time>
  <course>0.0</course>
  <speed>0.0</speed>
  <fix>3d</fix>
</trkpt>
<trkpt lat="40.0713749" lon="-105.229789">
  <ele>1583.0</ele>
  <time>2026-09-02T20:50:19Z</time>
  <course>0.0</course>
  <speed>0.0</speed>
  <fix>3d</fix>
</trkpt>
<trkpt lat="40.0713749" lon="-105.229789">
  <ele>1583.0</ele>
  <time>2026-09-02T20:50:19Z</time>
  <course>0.0</course>
  <speed>0.0</speed>
  <fix>3d</fix>
</trkpt>
<trkpt lat="40.0713749" lon="-105.229789">
  <ele>1583.0</ele>
  <time>2026-09-02T20:50:19Z</time>
  <course>0.0</course>
  <speed>0.0</speed>
  <fix>3d</fix>
</trkpt>
<trkpt lat="40.0713749" lon="-105.229789">
  <ele>1583.0</ele>
  <time>2026-09-02T20:50:19Z</time>
  <course>0.0</course>
  <speed>0.0</speed>
  <fix>3d</fix>
</trkpt>
<trkpt lat="40.0713749" lon="-105.229789">
  <ele>1583.0</ele>
  <time>2026-09-02T20:50:19Z</time>
  <course>0.0</course>
  <speed>0.0</speed>
  <fix>3d</fix>
</trkpt>
<trkpt lat="40.0713749" lon="-105.229789">
  <ele>1583.0</ele>
  <time>2026-09-02T20:50:19Z</time>
  <course>0.0</course>
  <speed>0.0</speed>
  <fix>3d</fix>
</trkpt>
<trkpt lat="40.0713749" lon="-105.229789">
  <ele>1583.0</ele>
  <time>2026-09-02T20:50:19Z</time>
  <course>0.0</course>
  <speed>0.0</speed>
  <fix>3d</fix>
</trkpt>
<trkpt lat="40.0713749" lon="-105.229789">
  <ele>1583.0</ele>
  <time>2026-09-02T20:50:19Z</time>
  <course>0.0</course>
  <speed>0.0</speed>
  <fix>3d</fix>
</trkpt>
<trkpt lat="40.0713749" lon="-105.229789">
  <ele>1583.0</ele>
  <time>2026-09-02T20:50:19Z</time>
  <course>0.0</course>
  <speed>0.0</speed>
  <fix>3d</fix>
</trkpt>
<trkpt lat="40.0713749" lon="-105.229789">
  <ele>1583.0</ele>
  <time>2026-09-02T20:50:19Z</time>
  <course>0.0</course>
  <speed>0.0</speed>
  <fix>3d</fix>
</trkpt>
<trkpt lat="40.0713749" lon="-105.229789">
  <ele>1583.0</ele>
  <time>2026-09-02T20:50:19Z</time>
  <course>0.0</course>
  <speed>0.0</speed>
  <fix>3d</fix>
</trkpt>
<trkpt lat="40.0713749" lon="-105.229789">
  <ele>1583.0</ele>
  <time>2026-09-02T20:50:19Z</time>
  <course>0.0</course>
  <speed>0.0</speed>
  <fix>3d</fix>
</trkpt>
<trkpt lat="40.0713749" lon="-105.229789">
  <ele>1583.0</ele>
  <time>2026-09-02T20:50:19Z</time>
  <course>0.0</course>
  <speed>0.0</speed>
  <fix>3d</fix>
</trkpt>
<trkpt lat="40.0713749" lon="-105.229789">
  <ele>1583.0</ele>
  <time>2026-09-02T20:50:19Z</time>
  <course>0.0</course>
  <speed>0.0</speed>
  <fix>3d</fix>
</trkpt>
<trkpt lat="40.0713749" lon="-105.229789">
  <ele>1583.0</ele>
  <time>2026-09-02T20:50:19Z</time>
  <course>0.0</course>
  <speed>0.0</speed>
  <fix>3d</fix>
</trkpt>
<trkpt lat="40.0713749" lon="-105.229789">
  <ele>1583.0</ele>
  <time>2026-09-02T20:50:19Z</time>
  <course>0.0</course>
  <speed>0.0</speed>
  <fix>3d</fix>
</trkpt>
<trkpt lat="40.0713749" lon="-105.229789">
  <ele>1583.0</ele>
  <time>2026-09-02T20:50:19Z</time>
  <course>0.0</course>
  <speed>0.0</speed>
  <fix>3d</fix>
</trkpt>
<trkpt lat="40.0713749" lon="-105.229789">
  <ele>1583.0</ele>
  <time>2026-09-02T20:50:19Z</time>
  <course>0.0</course>
  <speed>0.0</speed>
  <fix>3d</fix>
</trkpt>
<trkpt lat="40.0713749" lon="-105.229789">
  <ele>1583.0</ele>
  <time>2026-09-02T20:50:19Z</time>
  <course>0.0</course>
  <speed>0.0</speed>
  <fix>3d</fix>
</trkpt>
<trkpt lat="40.0713749" lon="-105.229789">
  <ele>1583.0</ele>
  <time>2026-09-02T20:50:19Z</time>
  <course>0.0</course>
  <speed>0.0</speed>
  <fix>3d</fix>
</trkpt>
<trkpt lat="40.0713749" lon="-105.229789">
  <ele>1583.0</ele>
  <time>2026-09-02T20:50:19Z</time>
  <course>0.0</course>
  <speed>0.0</speed>
  <fix>3d</fix>
</trkpt>
<trkpt lat="40.0713749" lon="-105.229789">
  <ele>1583.0</ele>
  <time>2026-09-02T20:50:19Z</time>
  <course>0.0</course>
  <speed>0.0</speed>
  <fix>3d</fix>
</trkpt>
<trkpt lat="40.0713749" lon="-105.229789">
  <ele>1583.0</ele>
  <time>2026-09-02T20:50:19Z</time>
  <course>0.0</course>
  <speed>0.0</speed>
  <fix>3d</fix>
</trkpt>
<trkpt lat="40.0713749" lon="-105.229789">
  <ele>1583.0</ele>
  <time>2026-09-02T20:50:19Z</time>
  <course>0.0</course>
  <speed>0.0</speed>
  <fix>3d</fix>
</trkpt>
<trkpt lat="40.0713749" lon="-105.229789">
  <ele>1583.0</ele>
  <time>2026-09-02T20:50:19Z</time>
  <course>0.0</course>
  <speed>0.0</speed>
  <fix>3d</fix>
</trkpt>
<trkpt lat="40.0713749" lon="-105.229789">
  <ele>1583.0</ele>
  <time>2026-09-02T20:50:19Z</time>
  <course>0.0</course>
  <speed>0.0</speed>
  <fix>3d</fix>
</trkpt>
<trkpt lat="40.0713749" lon="-105.229789">
  <ele>1583.0</ele>
  <time>2026-09-02T20:50:19Z</time>
  <course>0.0</course>
  <speed>0.0</speed>
  <fix>3d</fix>
</trkpt>
<trkpt lat="40.0713749" lon="-105.229789">
  <ele>1583.0</ele>
  <time>2026-09-02T20:50:19Z</time>
  <course>0.0</course>
  <speed>0.0</speed>
  <fix>3d</fix>
</trkpt>
<trkpt lat="40.0713749" lon="-105.229789">
  <ele>1583.0</ele>
  <time>2026-09-02T20:50:19Z</time>
  <course>0.0</course>
  <speed>0.0</speed>
  <fix>3d</fix>
</trkpt>
<trkpt lat="40.0713749" lon="-105.229789">
  <ele>1583.0</ele>
  <time>2026-09-02T20:50:19Z</time>
  <course>0.0</course>
  <speed>0.0</speed>
  <fix>3d</fix>
</trkpt>
<trkpt lat="40.0713749" lon="-105.229789">
  <ele>1583.0</ele>
  <time>2026-09-02T20:50:19Z</time>
  <course>0.0</course>
  <speed>0.0</speed>
  <fix>3d</fix>
</trkpt>
<trkpt lat="40.0713749" lon="-105.229789">
  <ele>1583.0</ele>
  <time>2026-09-02T20:50:19Z</time>
  <course>0.0</course>
  <speed>0.0</speed>
  <fix>3d</fix>
</trkpt>
<trkpt lat="40.0713749" lon="-105.229789">
  <ele>1583.0</ele>
  <time>2026-09-02T20:50:19Z</time>
  <course>0.0</course>
  <speed>0.0</speed>
  <fix>3d</fix>
</trkpt>
<trkpt lat="40.0713749" lon="-105.229789">
  <ele>1583.0</ele>
  <time>2026-09-02T20:50:19Z</time>
  <course>0.0</course>
  <speed>0.0</speed>
  <fix>3d</fix>
</trkpt>
<trkpt lat="40.0713749" lon="-105.229789">
  <ele>1583.0</ele>
  <time>2026-09-02T20:50:19Z</time>
  <course>0.0</course>
  <speed>0.0</speed>
  <fix>3d</fix>
</trkpt>
<trkpt lat="40.0713749" lon="-105.229789">
  <ele>1583.0</ele>
  <time>2026-09-02T20:50:19Z</time>
  <course>0.0</course>
  <speed>0.0</speed>
  <fix>3d</fix>
</trkpt>
<trkpt lat="40.0713749" lon="-105.229789">
  <ele>1583.0</ele>
  <time>2026-09-02T20:50:19Z</time>
  <course>0.0</course>
  <speed>0.0</speed>
  <fix>3d</fix>
</trkpt>
<trkpt lat="40.0713749" lon="-105.229789">
  <ele>1583.0</ele>
  <time>2026-09-02T20:50:19Z</time>
  <course>0.0</course>
  <speed>0.0</speed>
  <fix>3d</fix>
</trkpt>
<trkpt lat="40.0713749" lon="-105.229789">
  <ele>1583.0</ele>
  <time>2026-09-02T20:50:19Z</time>
  <course>0.0</course>
  <speed>0.0</speed>
  <fix>3d</fix>
</trkpt>
<trkpt lat="40.0713749" lon="-105.229789">
  <ele>1583.0</ele>
  <time>2026-09-02T20:50:19Z</time>
  <course>0.0</course>
  <speed>0.0</speed>
  <fix>3d</fix>
</trkpt>
<trkpt lat="40.0713749" lon="-105.229789">
  <ele>1583.0</ele>
  <time>2026-09-02T20:50:19Z</time>
  <course>0.0</course>
  <speed>0.0</speed>
  <fix>3d</fix>
</trkpt>
<trkpt lat="40.0713749" lon="-105.229789">
  <ele>1583.0</ele>
  <time>2026-09-02T20:50:19Z</time>
  <course>0.0</course>
  <speed>0.0</speed>
  <fix>3d</fix>
</trkpt>
<trkpt lat="40.0713749" lon="-105.229789">
  <ele>1583.0</ele>
  <time>2026-09-02T20:50:19Z</time>
  <course>0.0</course>
  <speed>0.0</speed>
  <fix>3d</fix>
</trkpt>
<trkpt lat="40.0713749" lon="-105.229789">
  <ele>1583.0</ele>
  <time>2026-09-02T20:50:19Z</time>
  <course>0.0</course>
  <speed>0.0</speed>
  <fix>3d</fix>
</trkpt>
<trkpt lat="40.0713749" lon="-105.229789">
  <ele>1583.0</ele>
  <time>2026-09-02T20:50:19Z</time>
  <course>0.0</course>
  <speed>0.0</speed>
  <fix>3d</fix>
</trkpt>
<trkpt lat="40.0713749" lon="-105.229789">
  <ele>1583.0</ele>
  <time>2026-09-02T20:50:19Z</time>
  <course>0.0</course>
  <speed>0.0</speed>
  <fix>3d</fix>
</trkpt>
<trkpt lat="40.0713749" lon="-105.229789">
  <ele>1583.0</ele>
  <time>2026-09-02T20:50:19Z</time>
  <course>0.0</course>
  <speed>0.0</speed>
  <fix>3d</fix>
</trkpt>
<trkpt lat="40.0713749" lon="-105.229789">
  <ele>1583.0</ele>
  <time>2026-09-02T20:50:19Z</time>
  <course>0.0</course>
  <speed>0.0</speed>
  <fix>3d</fix>
</trkpt>
<trkpt lat="40.0713749" lon="-105.229789">
  <ele>1583.0</ele>
  <time>2026-09-02T20:50:19Z</time>
  <course>0.0</course>
  <speed>0.0</speed>
  <fix>3d</fix>
</trkpt>
<trkpt lat="40.0713749" lon="-105.229789">
  <ele>1583.0</ele>
  <time>2026-09-02T20:50:19Z</time>
  <course>0.0</course>
  <speed>0.0</speed>
  <fix>3d</fix>
</trkpt>
<trkpt lat="40.0713749" lon="-105.229789">
  <ele>1583.0</ele>
  <time>2026-09-02T20:50:19Z</time>
  <course>0.0</course>
  <speed>0.0</speed>
  <fix>3d</fix>
</trkpt>
<trkpt lat="40.0713749" lon="-105.229789">
  <ele>1583.0</ele>
  <time>2026-09-02T20:50:19Z</time>
  <course>0.0</course>
  <speed>0.0</speed>
  <fix>3d</fix>
</trkpt>
<trkpt lat="40.0713749" lon="-105.229789">
  <ele>1583.0</ele>
  <time>2026-09-02T20:50:19Z</time>
  <course>0.0</course>
  <speed>0.0</speed>
  <fix>3d</fix>
</trkpt>
<trkpt lat="40.0713749" lon="-105.229789">
  <ele>1583.0</ele>
  <time>2026-09-02T20:50:19Z</time>
  <course>0.0</course>
  <speed>0.0</speed>
  <fix>3d</fix>
</trkpt>
<trkpt lat="40.0713749" lon="-105.229789">
  <ele>1583.0</ele>
  <time>2026-09-02T20:50:19Z</time>
  <course>0.0</course>
  <speed>0.0</speed>
  <fix>3d</fix>
</trkpt>
<trkpt lat="40.0713749" lon="-105.229789">
  <ele>1583.0</ele>
  <time>2026-09-02T20:50:19Z</time>
  <course>0.0</course>
  <speed>0.0</speed>
  <fix>3d</fix>
</trkpt>
<trkpt lat="40.0713749" lon="-105.229789">
  <ele>1583.0</ele>
  <time>2026-09-02T20:50:19Z</time>
  <course>0.0</course>
  <speed>0.0</speed>
  <fix>3d</fix>
</trkpt>
<trkpt lat="40.0713749" lon="-105.229789">
  <ele>1583.0</ele>
  <time>2026-09-02T20:50:19Z</time>
  <course>0.0</course>
  <speed>0.0</speed>
  <fix>3d</fix>
</trkpt>
<trkpt lat="40.0713749" lon="-105.229789">
  <ele>1583.0</ele>
  <time>2026-09-02T20:50:19Z</time>
  <course>0.0</course>
  <speed>0.0</speed>
  <fix>3d</fix>
</trkpt>
<trkpt lat="40.0713749" lon="-105.229789">
  <ele>1583.0</ele>
  <time>2026-09-02T20:50:19Z</time>
  <course>0.0</course>
  <speed>0.0</speed>
  <fix>3d</fix>
</trkpt>
<trkpt lat="40.0713749" lon="-105.229789">
  <ele>1583.0</ele>
  <time>2026-09-02T20:50:19Z</time>
  <course>0.0</course>
  <speed>0.0</speed>
  <fix>3d</fix>
</trkpt>
<trkpt lat="40.0713749" lon="-105.229789">
  <ele>1583.0</ele>
  <time>2026-09-02T20:50:19Z</time>
  <course>0.0</course>
  <speed>0.0</speed>
  <fix>3d</fix>
</trkpt>
<trkpt lat="40.0713749" lon="-105.229789">
  <ele>1583.0</ele>
  <time>2026-09-02T20:50:19Z</time>
  <course>0.0</course>
  <speed>0.0</speed>
  <fix>3d</fix>
</trkpt>
<trkpt lat="40.0713749" lon="-105.229789">
  <ele>1583.0</ele>
  <time>2026-09-02T20:50:19Z</time>
  <course>0.0</course>
  <speed>0.0</speed>
  <fix>3d</fix>
</trkpt>
<trkpt lat="40.0713749" lon="-105.229789">
  <ele>1583.0</ele>
  <time>2026-09-02T20:50:19Z</time>
  <course>0.0</course>
  <speed>0.0</speed>
  <fix>3d</fix>
</trkpt>
<trkpt lat="40.0713749" lon="-105.229789">
  <ele>1583.0</ele>
  <time>2026-09-02T20:50:19Z</time>
  <course>0.0</course>
  <speed>0.0</speed>
  <fix>3d</fix>
</trkpt>
<trkpt lat="40.0713749" lon="-105.229789">
  <ele>1583.0</ele>
  <time>2026-09-02T20:50:19Z</time>
  <course>0.0</course>
  <speed>0.0</speed>
  <fix>3d</fix>
</trkpt>
<trkpt lat="40.0713749" lon="-105.229789">
  <ele>1583.0</ele>
  <time>2026-09-02T20:50:19Z</time>
  <course>0.0</course>
  <speed>0.0</speed>
  <fix>3d</fix>
</trkpt>
<trkpt lat="40.0713749" lon="-105.229789">
  <ele>1583.0</ele>
  <time>2026-09-02T20:50:19Z</time>
  <course>0.0</course>
  <speed>0.0</speed>
  <fix>3d</fix>
</trkpt>
<trkpt lat="40.0713749" lon="-105.229789">
  <ele>1583.0</ele>
  <time>2026-09-02T20:50:19Z</time>
  <course>0.0</course>
  <speed>0.0</speed>
  <fix>3d</fix>
</trkpt>
<trkpt lat="40.0713749" lon="-105.229789">
  <ele>1583.0</ele>
  <time>2026-09-02T20:50:19Z</time>
  <course>0.0</course>
  <speed>0.0</speed>
  <fix>3d</fix>
</trkpt>
<trkpt lat="40.0713749" lon="-105.229789">
  <ele>1583.0</ele>
  <time>2026-09-02T20:50:19Z</time>
  <course>0.0</course>
  <speed>0.0</speed>
  <fix>3d</fix>
</trkpt>
<trkpt lat="40.0713749" lon="-105.229789">
  <ele>1583.0</ele>
  <time>2026-09-02T20:50:19Z</time>
  <course>0.0</course>
  <speed>0.0</speed>
  <fix>3d</fix>
</trkpt>
<trkpt lat="40.0713749" lon="-105.229789">
  <ele>1583.0</ele>
  <time>2026-09-02T20:50:19Z</time>
  <course>0.0</course>
  <speed>0.0</speed>
  <fix>3d</fix>
</trkpt>
<trkpt lat="40.0713749" lon="-105.229789">
  <ele>1583.0</ele>
  <time>2026-09-02T20:50:19Z</time>
  <course>0.0</course>
  <speed>0.0</speed>
  <fix>3d</fix>
</trkpt>
<trkpt lat="40.0713749" lon="-105.229789">
  <ele>1583.0</ele>
  <time>2026-09-02T20:50:19Z</time>
  <course>0.0</course>
  <speed>0.0</speed>
  <fix>3d</fix>
</trkpt>
<trkpt lat="40.0713749" lon="-105.229789">
  <ele>1583.0</ele>
  <time>2026-09-02T20:50:19Z</time>
  <course>0.0</course>
  <speed>0.0</speed>
  <fix>3d</fix>
</trkpt>
<trkpt lat="40.0713749" lon="-105.229789">
  <ele>1583.0</ele>
  <time>2026-09-02T20:50:19Z</time>
  <course>0.0</course>
  <speed>0.0</speed>
  <fix>3d</fix>
</trkpt>
<trkpt lat="40.0713749" lon="-105.229789">
  <ele>1583.0</ele>
  <time>2026-09-02T20:50:19Z</time>
  <course>0.0</course>
  <speed>0.0</speed>
  <fix>3d</fix>
</trkpt>
<trkpt lat="40.0713749" lon="-105.229789">
  <ele>1583.0</ele>
  <time>2026-09-02T20:50:19Z</time>
  <course>0.0</course>
  <speed>0.0</speed>
  <fix>3d</fix>
</trkpt>
<trkpt lat="40.0713749" lon="-105.229789">
  <ele>1583.0</ele>
  <time>2026-09-02T20:50:19Z</time>
  <course>0.0</course>
  <speed>0.0</speed>
  <fix>3d</fix>
</trkpt>
<trkpt lat="40.0713749" lon="-105.229789">
  <ele>1583.0</ele>
  <time>2026-09-02T20:50:19Z</time>
  <course>0.0</course>
  <speed>0.0</speed>
  <fix>3d</fix>
</trkpt>
<trkpt lat="40.0713749" lon="-105.229789">
  <ele>1583.0</ele>
  <time>2026-09-02T20:50:19Z</time>
  <course>0.0</course>
  <speed>0.0</speed>
  <fix>3d</fix>
</trkpt>
<trkpt lat="40.0713749" lon="-105.229789">
  <ele>1583.0</ele>
  <time>2026-09-02T20:50:19Z</time>
  <course>0.0</course>
  <speed>0.0</speed>
  <fix>3d</fix>
</trkpt>
<trkpt lat="40.0713749" lon="-105.229789">
  <ele>1583.0</ele>
  <time>2026-09-02T20:50:19Z</time>
  <course>0.0</course>
  <speed>0.0</speed>
  <fix>3d</fix>
</trkpt>
<trkpt lat="40.0713749" lon="-105.229789">
  <ele>1583.0</ele>
  <time>2026-09-02T20:50:19Z</time>
  <course>0.0</course>
  <speed>0.0</speed>
  <fix>3d</fix>
</trkpt>
<trkpt lat="40.0713749" lon="-105.229789">
  <ele>1583.0</ele>
  <time>2026-09-02T20:50:19Z</time>
  <course>0.0</course>
  <speed>0.0</speed>
  <fix>3d</fix>
</trkpt>
<trkpt lat="40.0713749" lon="-105.229789">
  <ele>1583.0</ele>
  <time>2026-09-02T20:50:19Z</time>
  <course>0.0</course>
  <speed>0.0</speed>
  <fix>3d</fix>
</trkpt>
<trkpt lat="40.0713749" lon="-105.229789">
  <ele>1583.0</ele>
  <time>2026-09-02T20:50:19Z</time>
  <course>0.0</course>
  <speed>0.0</speed>
  <fix>3d</fix>
</trkpt>
<trkpt lat="40.0713749" lon="-105.229789">
  <ele>1583.0</ele>
  <time>2026-09-02T20:50:20Z</time>
  <course>0.0</course>
  <speed>0.0</speed>
  <fix>3d</fix>
</trkpt>
<trkpt lat="40.0713749" lon="-105.229789">
  <ele>1583.0</ele>
  <time>2026-09-02T20:50:20Z</time>
  <course>0.0</course>
  <speed>0.0</speed>
  <fix>3d</fix>
</trkpt>
<trkpt lat="40.0713749" lon="-105.229789">
  <ele>1583.0</ele>
  <time>2026-09-02T20:50:20Z</time>
  <course>0.0</course>
  <speed>0.0</speed>
  <fix>3d</fix>
</trkpt>
<trkpt lat="40.0713749" lon="-105.229789">
  <ele>1583.0</ele>
  <time>2026-09-02T20:50:20Z</time>
  <course>0.0</course>
  <speed>0.0</speed>
  <fix>3d</fix>
</trkpt>
<trkpt lat="40.0713749" lon="-105.229789">
  <ele>1583.0</ele>
  <time>2026-09-02T20:50:20Z</time>
  <course>0.0</course>
  <speed>0.0</speed>
  <fix>3d</fix>
</trkpt>
<trkpt lat="40.0713749" lon="-105.229789">
  <ele>1583.0</ele>
  <time>2026-09-02T20:50:20Z</time>
  <course>0.0</course>
  <speed>0.0</speed>
  <fix>3d</fix>
</trkpt>
<trkpt lat="40.0713749" lon="-105.229789">
  <ele>1583.0</ele>
  <time>2026-09-02T20:50:20Z</time>
  <course>0.0</course>
  <speed>0.0</speed>
  <fix>3d</fix>
</trkpt>
<trkpt lat="40.0713749" lon="-105.229789">
  <ele>1583.0</ele>
  <time>2026-09-02T20:50:20Z</time>
  <course>0.0</course>
  <speed>0.0</speed>
  <fix>3d</fix>
</trkpt>
<trkpt lat="40.0713749" lon="-105.229789">
  <ele>1583.0</ele>
  <time>2026-09-02T20:50:20Z</time>
  <course>0.0</course>
  <speed>0.0</speed>
  <fix>3d</fix>
</trkpt>
<trkpt lat="40.0713749" lon="-105.229789">
  <ele>1583.0</ele>
  <time>2026-09-02T20:50:20Z</time>
  <course>0.0</course>
  <speed>0.0</speed>
  <fix>3d</fix>
</trkpt>
<trkpt lat="40.0713749" lon="-105.229789">
  <ele>1583.0</ele>
  <time>2026-09-02T20:50:20Z</time>
  <course>0.0</course>
  <speed>0.0</speed>
  <fix>3d</fix>
</trkpt>
<trkpt lat="40.0713749" lon="-105.229789">
  <ele>1583.0</ele>
  <time>2026-09-02T20:50:20Z</time>
  <course>0.0</course>
  <speed>0.0</speed>
  <fix>3d</fix>
</trkpt>
<trkpt lat="40.0713749" lon="-105.229789">
  <ele>1583.0</ele>
  <time>2026-09-02T20:50:20Z</time>
  <course>0.0</course>
  <speed>0.0</speed>
  <fix>3d</fix>
</trkpt>
<trkpt lat="40.0713749" lon="-105.229789">
  <ele>1583.0</ele>
  <time>2026-09-02T20:50:20Z</time>
  <course>0.0</course>
  <speed>0.0</speed>
  <fix>3d</fix>
</trkpt>
<trkpt lat="40.0713749" lon="-105.229789">
  <ele>1583.0</ele>
  <time>2026-09-02T20:50:20Z</time>
  <course>0.0</course>
  <speed>0.0</speed>
  <fix>3d</fix>
</trkpt>
<trkpt lat="40.0713749" lon="-105.229789">
  <ele>1583.0</ele>
  <time>2026-09-02T20:50:20Z</time>
  <course>0.0</course>
  <speed>0.0</speed>
  <fix>3d</fix>
</trkpt>
<trkpt lat="40.0713749" lon="-105.229789">
  <ele>1583.0</ele>
  <time>2026-09-02T20:50:20Z</time>
  <course>0.0</course>
  <speed>0.0</speed>
  <fix>3d</fix>
</trkpt>
<trkpt lat="40.0713749" lon="-105.229789">
  <ele>1583.0</ele>
  <time>2026-09-02T20:50:20Z</time>
  <course>0.0</course>
  <speed>0.0</speed>
  <fix>3d</fix>
</trkpt>
<trkpt lat="40.0713749" lon="-105.229789">
  <ele>1583.0</ele>
  <time>2026-09-02T20:50:20Z</time>
  <course>0.0</course>
  <speed>0.0</speed>
  <fix>3d</fix>
</trkpt>
<trkpt lat="40.0713749" lon="-105.229789">
  <ele>1583.0</ele>
  <time>2026-09-02T20:50:20Z</time>
  <course>0.0</course>
  <speed>0.0</speed>
  <fix>3d</fix>
</trkpt>
<trkpt lat="40.0713749" lon="-105.229789">
  <ele>1583.0</ele>
  <time>2026-09-02T20:50:20Z</time>
  <course>0.0</course>
  <speed>0.0</speed>
  <fix>3d</fix>
</trkpt>
<trkpt lat="40.0713749" lon="-105.229789">
  <ele>1583.0</ele>
  <time>2026-09-02T20:50:20Z</time>
  <course>0.0</course>
  <speed>0.0</speed>
  <fix>3d</fix>
</trkpt>
<trkpt lat="40.0713749" lon="-105.229789">
  <ele>1583.0</ele>
  <time>2026-09-02T20:50:20Z</time>
  <course>0.0</course>
  <speed>0.0</speed>
  <fix>3d</fix>
</trkpt>
<trkpt lat="40.0713749" lon="-105.229789">
  <ele>1583.0</ele>
  <time>2026-09-02T20:50:20Z</time>
  <course>0.0</course>
  <speed>0.0</speed>
  <fix>3d</fix>
</trkpt>
<trkpt lat="40.0713749" lon="-105.229789">
  <ele>1583.0</ele>
  <time>2026-09-02T20:50:20Z</time>
  <course>0.0</course>
  <speed>0.0</speed>
  <fix>3d</fix>
</trkpt>
<trkpt lat="40.0713749" lon="-105.229789">
  <ele>1583.0</ele>
  <time>2026-09-02T20:50:20Z</time>
  <course>0.0</course>
  <speed>0.0</speed>
  <fix>3d</fix>
</trkpt>
<trkpt lat="40.0713749" lon="-105.229789">
  <ele>1583.0</ele>
  <time>2026-09-02T20:50:20Z</time>
  <course>0.0</course>
  <speed>0.0</speed>
  <fix>3d</fix>
</trkpt>
<trkpt lat="40.0713749" lon="-105.229789">
  <ele>1583.0</ele>
  <time>2026-09-02T20:50:20Z</time>
  <course>0.0</course>
  <speed>0.0</speed>
  <fix>3d</fix>
</trkpt>
<trkpt lat="40.0713749" lon="-105.229789">
  <ele>1583.0</ele>
  <time>2026-09-02T20:50:20Z</time>
  <course>0.0</course>
  <speed>0.0</speed>
  <fix>3d</fix>
</trkpt>
<trkpt lat="40.0713749" lon="-105.229789">
  <ele>1583.0</ele>
  <time>2026-09-02T20:50:20Z</time>
  <course>0.0</course>
  <speed>0.0</speed>
  <fix>3d</fix>
</trkpt>
<trkpt lat="40.0713749" lon="-105.229789">
  <ele>1583.0</ele>
  <time>2026-09-02T20:50:20Z</time>
  <course>0.0</course>
  <speed>0.0</speed>
  <fix>3d</fix>
</trkpt>
<trkpt lat="40.0713749" lon="-105.229789">
  <ele>1583.0</ele>
  <time>2026-09-02T20:50:20Z</time>
  <course>0.0</course>
  <speed>0.0</speed>
  <fix>3d</fix>
</trkpt>
<trkpt lat="40.0713749" lon="-105.229789">
  <ele>1583.0</ele>
  <time>2026-09-02T20:50:20Z</time>
  <course>0.0</course>
  <speed>0.0</speed>
  <fix>3d</fix>
</trkpt>
<trkpt lat="40.0713749" lon="-105.229789">
  <ele>1583.0</ele>
  <time>2026-09-02T20:50:20Z</time>
  <course>0.0</course>
  <speed>0.0</speed>
  <fix>3d</fix>
</trkpt>
<trkpt lat="40.0713749" lon="-105.229789">
  <ele>1583.0</ele>
  <time>2026-09-02T20:50:20Z</time>
  <course>0.0</course>
  <speed>0.0</speed>
  <fix>3d</fix>
</trkpt>
<trkpt lat="40.0713749" lon="-105.229789">
  <ele>1583.0</ele>
  <time>2026-09-02T20:50:20Z</time>
  <course>0.0</course>
  <speed>0.0</speed>
  <fix>3d</fix>
</trkpt>
<trkpt lat="40.0713749" lon="-105.229789">
  <ele>1583.0</ele>
  <time>2026-09-02T20:50:20Z</time>
  <course>0.0</course>
  <speed>0.0</speed>
  <fix>3d</fix>
</trkpt>
<trkpt lat="40.0713749" lon="-105.229789">
  <ele>1583.0</ele>
  <time>2026-09-02T20:50:20Z</time>
  <course>0.0</course>
  <speed>0.0</speed>
  <fix>3d</fix>
</trkpt>
<trkpt lat="40.0713749" lon="-105.229789">
  <ele>1583.0</ele>
  <time>2026-09-02T20:50:20Z</time>
  <course>0.0</course>
  <speed>0.0</speed>
  <fix>3d</fix>
</trkpt>
<trkpt lat="40.0713749" lon="-105.229789">
  <ele>1583.0</ele>
  <time>2026-09-02T20:50:20Z</time>
  <course>0.0</course>
  <speed>0.0</speed>
  <fix>3d</fix>
</trkpt>
<trkpt lat="40.0713749" lon="-105.229789">
  <ele>1583.0</ele>
  <time>2026-09-02T20:50:20Z</time>
  <course>0.0</course>
  <speed>0.0</speed>
  <fix>3d</fix>
</trkpt>
<trkpt lat="40.0713749" lon="-105.229789">
  <ele>1583.0</ele>
  <time>2026-09-02T20:50:20Z</time>
  <course>0.0</course>
  <speed>0.0</speed>
  <fix>3d</fix>
</trkpt>
<trkpt lat="40.0713749" lon="-105.229789">
  <ele>1583.0</ele>
  <time>2026-09-02T20:50:20Z</time>
  <course>0.0</course>
  <speed>0.0</speed>
  <fix>3d</fix>
</trkpt>
<trkpt lat="40.0713749" lon="-105.229789">
  <ele>1583.0</ele>
  <time>2026-09-02T20:50:20Z</time>
  <course>0.0</course>
  <speed>0.0</speed>
  <fix>3d</fix>
</trkpt>
<trkpt lat="40.0713749" lon="-105.229789">
  <ele>1583.0</ele>
  <time>2026-09-02T20:50:20Z</time>
  <course>0.0</course>
  <speed>0.0</speed>
  <fix>3d</fix>
</trkpt>
<trkpt lat="40.0713749" lon="-105.229789">
  <ele>1583.0</ele>
  <time>2026-09-02T20:50:20Z</time>
  <course>0.0</course>
  <speed>0.0</speed>
  <fix>3d</fix>
</trkpt>
<trkpt lat="40.0713749" lon="-105.229789">
  <ele>1583.0</ele>
  <time>2026-09-02T20:50:20Z</time>
  <course>0.0</course>
  <speed>0.0</speed>
  <fix>3d</fix>
</trkpt>
<trkpt lat="40.0713749" lon="-105.229789">
  <ele>1583.0</ele>
  <time>2026-09-02T20:50:20Z</time>
  <course>0.0</course>
  <speed>0.0</speed>
  <fix>3d</fix>
</trkpt>
<trkpt lat="40.0713749" lon="-105.229789">
  <ele>1583.0</ele>
  <time>2026-09-02T20:50:20Z</time>
  <course>0.0</course>
  <speed>0.0</speed>
  <fix>3d</fix>
</trkpt>
<trkpt lat="40.0713749" lon="-105.229789">
  <ele>1583.0</ele>
  <time>2026-09-02T20:50:20Z</time>
  <course>0.0</course>
  <speed>0.0</speed>
  <fix>3d</fix>
</trkpt>
<trkpt lat="40.0713749" lon="-105.229789">
  <ele>1583.0</ele>
  <time>2026-09-02T20:50:20Z</time>
  <course>0.0</course>
  <speed>0.0</speed>
  <fix>3d</fix>
</trkpt>
<trkpt lat="40.0713749" lon="-105.229789">
  <ele>1583.0</ele>
  <time>2026-09-02T20:50:20Z</time>
  <course>0.0</course>
  <speed>0.0</speed>
  <fix>3d</fix>
</trkpt>
<trkpt lat="40.0713749" lon="-105.229789">
  <ele>1583.0</ele>
  <time>2026-09-02T20:50:20Z</time>
  <course>0.0</course>
  <speed>0.0</speed>
  <fix>3d</fix>
</trkpt>
<trkpt lat="40.0713749" lon="-105.229789">
  <ele>1583.0</ele>
  <time>2026-09-02T20:50:20Z</time>
  <course>0.0</course>
  <speed>0.0</speed>
  <fix>3d</fix>
</trkpt>
<trkpt lat="40.0713749" lon="-105.229789">
  <ele>1583.0</ele>
  <time>2026-09-02T20:50:20Z</time>
  <course>0.0</course>
  <speed>0.0</speed>
  <fix>3d</fix>
</trkpt>
<trkpt lat="40.0713749" lon="-105.229789">
  <ele>1583.0</ele>
  <time>2026-09-02T20:50:20Z</time>
  <course>0.0</course>
  <speed>0.0</speed>
  <fix>3d</fix>
</trkpt>
<trkpt lat="40.0713749" lon="-105.229789">
  <ele>1583.0</ele>
  <time>2026-09-02T20:50:20Z</time>
  <course>0.0</course>
  <speed>0.0</speed>
  <fix>3d</fix>
</trkpt>
<trkpt lat="40.0713749" lon="-105.229789">
  <ele>1583.0</ele>
  <time>2026-09-02T20:50:20Z</time>
  <course>0.0</course>
  <speed>0.0</speed>
  <fix>3d</fix>
</trkpt>
<trkpt lat="40.0713749" lon="-105.229789">
  <ele>1583.0</ele>
  <time>2026-09-02T20:50:20Z</time>
  <course>0.0</course>
  <speed>0.0</speed>
  <fix>3d</fix>
</trkpt>
<trkpt lat="40.0713749" lon="-105.229789">
  <ele>1583.0</ele>
  <time>2026-09-02T20:50:20Z</time>
  <course>0.0</course>
  <speed>0.0</speed>
  <fix>3d</fix>
</trkpt>
<trkpt lat="40.0713749" lon="-105.229789">
  <ele>1583.0</ele>
  <time>2026-09-02T20:50:20Z</time>
  <course>0.0</course>
  <speed>0.0</speed>
  <fix>3d</fix>
</trkpt>
<trkpt lat="40.0713749" lon="-105.229789">
  <ele>1583.0</ele>
  <time>2026-09-02T20:50:20Z</time>
  <course>0.0</course>
  <speed>0.0</speed>
  <fix>3d</fix>
</trkpt>
<trkpt lat="40.0713749" lon="-105.229789">
  <ele>1583.0</ele>
  <time>2026-09-02T20:50:20Z</time>
  <course>0.0</course>
  <speed>0.0</speed>
  <fix>3d</fix>
</trkpt>
<trkpt lat="40.0713749" lon="-105.229789">
  <ele>1583.0</ele>
  <time>2026-09-02T20:50:20Z</time>
  <course>0.0</course>
  <speed>0.0</speed>
  <fix>3d</fix>
</trkpt>
<trkpt lat="40.0713749" lon="-105.229789">
  <ele>1583.0</ele>
  <time>2026-09-02T20:50:20Z</time>
  <course>0.0</course>
  <speed>0.0</speed>
  <fix>3d</fix>
</trkpt>
<trkpt lat="40.0713749" lon="-105.229789">
  <ele>1583.0</ele>
  <time>2026-09-02T20:50:20Z</time>
  <course>0.0</course>
  <speed>0.0</speed>
  <fix>3d</fix>
</trkpt>
<trkpt lat="40.0713749" lon="-105.229789">
  <ele>1583.0</ele>
  <time>2026-09-02T20:50:20Z</time>
  <course>0.0</course>
  <speed>0.0</speed>
  <fix>3d</fix>
</trkpt>
<trkpt lat="40.0713749" lon="-105.229789">
  <ele>1583.0</ele>
  <time>2026-09-02T20:50:20Z</time>
  <course>0.0</course>
  <speed>0.0</speed>
  <fix>3d</fix>
</trkpt>
<trkpt lat="40.0713749" lon="-105.229789">
  <ele>1583.0</ele>
  <time>2026-09-02T20:50:20Z</time>
  <course>0.0</course>
  <speed>0.0</speed>
  <fix>3d</fix>
</trkpt>
<trkpt lat="40.0713749" lon="-105.229789">
  <ele>1583.0</ele>
  <time>2026-09-02T20:50:20Z</time>
  <course>0.0</course>
  <speed>0.0</speed>
  <fix>3d</fix>
</trkpt>
<trkpt lat="40.0713749" lon="-105.229789">
  <ele>1583.0</ele>
  <time>2026-09-02T20:50:20Z</time>
  <course>0.0</course>
  <speed>0.0</speed>
  <fix>3d</fix>
</trkpt>
<trkpt lat="40.0713749" lon="-105.229789">
  <ele>1583.0</ele>
  <time>2026-09-02T20:50:20Z</time>
  <course>0.0</course>
  <speed>0.0</speed>
  <fix>3d</fix>
</trkpt>
<trkpt lat="40.0713749" lon="-105.229789">
  <ele>1583.0</ele>
  <time>2026-09-02T20:50:20Z</time>
  <course>0.0</course>
  <speed>0.0</speed>
  <fix>3d</fix>
</trkpt>
<trkpt lat="40.0713749" lon="-105.229789">
  <ele>1583.0</ele>
  <time>2026-09-02T20:50:20Z</time>
  <course>0.0</course>
  <speed>0.0</speed>
  <fix>3d</fix>
</trkpt>
<trkpt lat="40.0713749" lon="-105.229789">
  <ele>1583.0</ele>
  <time>2026-09-02T20:50:20Z</time>
  <course>0.0</course>
  <speed>0.0</speed>
  <fix>3d</fix>
</trkpt>
<trkpt lat="40.0713749" lon="-105.229789">
  <ele>1583.0</ele>
  <time>2026-09-02T20:50:20Z</time>
  <course>0.0</course>
  <speed>0.0</speed>
  <fix>3d</fix>
</trkpt>
<trkpt lat="40.0713749" lon="-105.229789">
  <ele>1583.0</ele>
  <time>2026-09-02T20:50:20Z</time>
  <course>0.0</course>
  <speed>0.0</speed>
  <fix>3d</fix>
</trkpt>
<trkpt lat="40.0713749" lon="-105.229789">
  <ele>1583.0</ele>
  <time>2026-09-02T20:50:20Z</time>
  <course>0.0</course>
  <speed>0.0</speed>
  <fix>3d</fix>
</trkpt>
<trkpt lat="40.0713749" lon="-105.229789">
  <ele>1583.0</ele>
  <time>2026-09-02T20:50:20Z</time>
  <course>0.0</course>
  <speed>0.0</speed>
  <fix>3d</fix>
</trkpt>
<trkpt lat="40.0713749" lon="-105.229789">
  <ele>1583.0</ele>
  <time>2026-09-02T20:50:20Z</time>
  <course>0.0</course>
  <speed>0.0</speed>
  <fix>3d</fix>
</trkpt>
<trkpt lat="40.0713749" lon="-105.229789">
  <ele>1583.0</ele>
  <time>2026-09-02T20:50:20Z</time>
  <course>0.0</course>
  <speed>0.0</speed>
  <fix>3d</fix>
</trkpt>
<trkpt lat="40.0713749" lon="-105.229789">
  <ele>1583.0</ele>
  <time>2026-09-02T20:50:20Z</time>
  <course>0.0</course>
  <speed>0.0</speed>
  <fix>3d</fix>
</trkpt>
<trkpt lat="40.0713749" lon="-105.229789">
  <ele>1583.0</ele>
  <time>2026-09-02T20:50:20Z</time>
  <course>0.0</course>
  <speed>0.0</speed>
  <fix>3d</fix>
</trkpt>
<trkpt lat="40.0713749" lon="-105.229789">
  <ele>1583.0</ele>
  <time>2026-09-02T20:50:20Z</time>
  <course>0.0</course>
  <speed>0.0</speed>
  <fix>3d</fix>
</trkpt>
<trkpt lat="40.0713749" lon="-105.229789">
  <ele>1583.0</ele>
  <time>2026-09-02T20:50:20Z</time>
  <course>0.0</course>
  <speed>0.0</speed>
  <fix>3d</fix>
</trkpt>
<trkpt lat="40.0713749" lon="-105.229789">
  <ele>1583.0</ele>
  <time>2026-09-02T20:50:20Z</time>
  <course>0.0</course>
  <speed>0.0</speed>
  <fix>3d</fix>
</trkpt>
<trkpt lat="40.0713749" lon="-105.229789">
  <ele>1583.0</ele>
  <time>2026-09-02T20:50:20Z</time>
  <course>0.0</course>
  <speed>0.0</speed>
  <fix>3d</fix>
</trkpt>
<trkpt lat="40.0713749" lon="-105.229789">
  <ele>1583.0</ele>
  <time>2026-09-02T20:50:20Z</time>
  <course>0.0</course>
  <speed>0.0</speed>
  <fix>3d</fix>
</trkpt>
<trkpt lat="40.0713749" lon="-105.229789">
  <ele>1583.0</ele>
  <time>2026-09-02T20:50:20Z</time>
  <course>0.0</course>
  <speed>0.0</speed>
  <fix>3d</fix>
</trkpt>
<trkpt lat="40.0713749" lon="-105.229789">
  <ele>1583.0</ele>
  <time>2026-09-02T20:50:20Z</time>
  <course>0.0</course>
  <speed>0.0</speed>
  <fix>3d</fix>
</trkpt>
<trkpt lat="40.0713749" lon="-105.229789">
  <ele>1583.0</ele>
  <time>2026-09-02T20:50:20Z</time>
  <course>0.0</course>
  <speed>0.0</speed>
  <fix>3d</fix>
</trkpt>
<trkpt lat="40.0713749" lon="-105.229789">
  <ele>1583.0</ele>
  <time>2026-09-02T20:50:20Z</time>
  <course>0.0</course>
  <speed>0.0</speed>
  <fix>3d</fix>
</trkpt>
<trkpt lat="40.0713749" lon="-105.229789">
  <ele>1583.0</ele>
  <time>2026-09-02T20:50:20Z</time>
  <course>0.0</course>
  <speed>0.0</speed>
  <fix>3d</fix>
</trkpt>
<trkpt lat="40.0713749" lon="-105.229789">
  <ele>1583.0</ele>
  <time>2026-09-02T20:50:20Z</time>
  <course>0.0</course>
  <speed>0.0</speed>
  <fix>3d</fix>
</trkpt>
<trkpt lat="40.0713749" lon="-105.229789">
  <ele>1583.0</ele>
  <time>2026-09-02T20:50:20Z</time>
  <course>0.0</course>
  <speed>0.0</speed>
  <fix>3d</fix>
</trkpt>
<trkpt lat="40.0713749" lon="-105.229789">
  <ele>1583.0</ele>
  <time>2026-09-02T20:50:20Z</time>
  <course>0.0</course>
  <speed>0.0</speed>
  <fix>3d</fix>
</trkpt>
<trkpt lat="40.0713749" lon="-105.229789">
  <ele>1583.0</ele>
  <time>2026-09-02T20:50:20Z</time>
  <course>0.0</course>
  <speed>0.0</speed>
  <fix>3d</fix>
</trkpt>
<trkpt lat="40.0713749" lon="-105.229789">
  <ele>1583.0</ele>
  <time>2026-09-02T20:50:20Z</time>
  <course>0.0</course>
  <speed>0.0</speed>
  <fix>3d</fix>
</trkpt>
<trkpt lat="40.0713749" lon="-105.229789">
  <ele>1583.0</ele>
  <time>2026-09-02T20:50:20Z</time>
  <course>0.0</course>
  <speed>0.0</speed>
  <fix>3d</fix>
</trkpt>
<trkpt lat="40.0713749" lon="-105.229789">
  <ele>1583.0</ele>
  <time>2026-09-02T20:50:20Z</time>
  <course>0.0</course>
  <speed>0.0</speed>
  <fix>3d</fix>
</trkpt>
<trkpt lat="40.0713749" lon="-105.229789">
  <ele>1583.0</ele>
  <time>2026-09-02T20:50:20Z</time>
  <course>0.0</course>
  <speed>0.0</speed>
  <fix>3d</fix>
</trkpt>
<trkpt lat="40.0713749" lon="-105.229789">
  <ele>1583.0</ele>
  <time>2026-09-02T20:50:20Z</time>
  <course>0.0</course>
  <speed>0.0</speed>
  <fix>3d</fix>
</trkpt>
<trkpt lat="40.0713749" lon="-105.229789">
  <ele>1583.0</ele>
  <time>2026-09-02T20:50:20Z</time>
  <course>0.0</course>
  <speed>0.0</speed>
  <fix>3d</fix>
</trkpt>
<trkpt lat="40.0713749" lon="-105.229789">
  <ele>1583.0</ele>
  <time>2026-09-02T20:50:20Z</time>
  <course>0.0</course>
  <speed>0.0</speed>
  <fix>3d</fix>
</trkpt>
<trkpt lat="40.0713749" lon="-105.229789">
  <ele>1583.0</ele>
  <time>2026-09-02T20:50:20Z</time>
  <course>0.0</course>
  <speed>0.0</speed>
  <fix>3d</fix>
</trkpt>
<trkpt lat="40.0713749" lon="-105.229789">
  <ele>1583.0</ele>
  <time>2026-09-02T20:50:20Z</time>
  <course>0.0</course>
  <speed>0.0</speed>
  <fix>3d</fix>
</trkpt>
<trkpt lat="40.0713749" lon="-105.229789">
  <ele>1583.0</ele>
  <time>2026-09-02T20:50:20Z</time>
  <course>0.0</course>
  <speed>0.0</speed>
  <fix>3d</fix>
</trkpt>
<trkpt lat="40.0713749" lon="-105.229789">
  <ele>1583.0</ele>
  <time>2026-09-02T20:50:20Z</time>
  <course>0.0</course>
  <speed>0.0</speed>
  <fix>3d</fix>
</trkpt>
<trkpt lat="40.0713749" lon="-105.229789">
  <ele>1583.0</ele>
  <time>2026-09-02T20:50:20Z</time>
  <course>0.0</course>
  <speed>0.0</speed>
  <fix>3d</fix>
</trkpt>
<trkpt lat="40.0713749" lon="-105.229789">
  <ele>1583.0</ele>
  <time>2026-09-02T20:50:20Z</time>
  <course>0.0</course>
  <speed>0.0</speed>
  <fix>3d</fix>
</trkpt>
<trkpt lat="40.0713749" lon="-105.229789">
  <ele>1583.0</ele>
  <time>2026-09-02T20:50:20Z</time>
  <course>0.0</course>
  <speed>0.0</speed>
  <fix>3d</fix>
</trkpt>
<trkpt lat="40.0713749" lon="-105.229789">
  <ele>1583.0</ele>
  <time>2026-09-02T20:50:20Z</time>
  <course>0.0</course>
  <speed>0.0</speed>
  <fix>3d</fix>
</trkpt>
<trkpt lat="40.0713749" lon="-105.229789">
  <ele>1583.0</ele>
  <time>2026-09-02T20:50:20Z</time>
  <course>0.0</course>
  <speed>0.0</speed>
  <fix>3d</fix>
</trkpt>
<trkpt lat="40.0713749" lon="-105.229789">
  <ele>1583.0</ele>
  <time>2026-09-02T20:50:20Z</time>
  <course>0.0</course>
  <speed>0.0</speed>
  <fix>3d</fix>
</trkpt>
<trkpt lat="40.0713749" lon="-105.229789">
  <ele>1583.0</ele>
  <time>2026-09-02T20:50:20Z</time>
  <course>0.0</course>
  <speed>0.0</speed>
  <fix>3d</fix>
</trkpt>
<trkpt lat="40.0713749" lon="-105.229789">
  <ele>1583.0</ele>
  <time>2026-09-02T20:50:20Z</time>
  <course>0.0</course>
  <speed>0.0</speed>
  <fix>3d</fix>
</trkpt>
<trkpt lat="40.0713749" lon="-105.229789">
  <ele>1583.0</ele>
  <time>2026-09-02T20:50:20Z</time>
  <course>0.0</course>
  <speed>0.0</speed>
  <fix>3d</fix>
</trkpt>
<trkpt lat="40.0713749" lon="-105.229789">
  <ele>1583.0</ele>
  <time>2026-09-02T20:50:20Z</time>
  <course>0.0</course>
  <speed>0.0</speed>
  <fix>3d</fix>
</trkpt>
<trkpt lat="40.0713749" lon="-105.229789">
  <ele>1583.0</ele>
  <time>2026-09-02T20:50:20Z</time>
  <course>0.0</course>
  <speed>0.0</speed>
  <fix>3d</fix>
</trkpt>
<trkpt lat="40.0713749" lon="-105.229789">
  <ele>1583.0</ele>
  <time>2026-09-02T20:50:20Z</time>
  <course>0.0</course>
  <speed>0.0</speed>
  <fix>3d</fix>
</trkpt>
<trkpt lat="40.0713749" lon="-105.229789">
  <ele>1583.0</ele>
  <time>2026-09-02T20:50:20Z</time>
  <course>0.0</course>
  <speed>0.0</speed>
  <fix>3d</fix>
</trkpt>
<trkpt lat="40.0713749" lon="-105.229789">
  <ele>1583.0</ele>
  <time>2026-09-02T20:50:20Z</time>
  <course>0.0</course>
  <speed>0.0</speed>
  <fix>3d</fix>
</trkpt>
<trkpt lat="40.0713749" lon="-105.229789">
  <ele>1583.0</ele>
  <time>2026-09-02T20:50:20Z</time>
  <course>0.0</course>
  <speed>0.0</speed>
  <fix>3d</fix>
</trkpt>
<trkpt lat="40.0713749" lon="-105.229789">
  <ele>1583.0</ele>
  <time>2026-09-02T20:50:20Z</time>
  <course>0.0</course>
  <speed>0.0</speed>
  <fix>3d</fix>
</trkpt>
<trkpt lat="40.0713749" lon="-105.229789">
  <ele>1583.0</ele>
  <time>2026-09-02T20:50:20Z</time>
  <course>0.0</course>
  <speed>0.0</speed>
  <fix>3d</fix>
</trkpt>
<trkpt lat="40.0713749" lon="-105.229789">
  <ele>1583.0</ele>
  <time>2026-09-02T20:50:20Z</time>
  <course>0.0</course>
  <speed>0.0</speed>
  <fix>3d</fix>
</trkpt>
<trkpt lat="40.0713749" lon="-105.229789">
  <ele>1583.0</ele>
  <time>2026-09-02T20:50:20Z</time>
  <course>0.0</course>
  <speed>0.0</speed>
  <fix>3d</fix>
</trkpt>
<trkpt lat="40.0713749" lon="-105.229789">
  <ele>1583.0</ele>
  <time>2026-09-02T20:50:20Z</time>
  <course>0.0</course>
  <speed>0.0</speed>
  <fix>3d</fix>
</trkpt>
<trkpt lat="40.0713749" lon="-105.229789">
  <ele>1583.0</ele>
  <time>2026-09-02T20:50:20Z</time>
  <course>0.0</course>
  <speed>0.0</speed>
  <fix>3d</fix>
</trkpt>
<trkpt lat="40.0713749" lon="-105.229789">
  <ele>1583.0</ele>
  <time>2026-09-02T20:50:20Z</time>
  <course>0.0</course>
  <speed>0.0</speed>
  <fix>3d</fix>
</trkpt>
<trkpt lat="40.0713749" lon="-105.229789">
  <ele>1583.0</ele>
  <time>2026-09-02T20:50:20Z</time>
  <course>0.0</course>
  <speed>0.0</speed>
  <fix>3d</fix>
</trkpt>
<trkpt lat="40.0713749" lon="-105.229789">
  <ele>1583.0</ele>
  <time>2026-09-02T20:50:20Z</time>
  <course>0.0</course>
  <speed>0.0</speed>
  <fix>3d</fix>
</trkpt>
<trkpt lat="40.0713749" lon="-105.229789">
  <ele>1583.0</ele>
  <time>2026-09-02T20:50:20Z</time>
  <course>0.0</course>
  <speed>0.0</speed>
  <fix>3d</fix>
</trkpt>
<trkpt lat="40.0713749" lon="-105.229789">
  <ele>1583.0</ele>
  <time>2026-09-02T20:50:20Z</time>
  <course>0.0</course>
  <speed>0.0</speed>
  <fix>3d</fix>
</trkpt>
<trkpt lat="40.0713749" lon="-105.229789">
  <ele>1583.0</ele>
  <time>2026-09-02T20:50:20Z</time>
  <course>0.0</course>
  <speed>0.0</speed>
  <fix>3d</fix>
</trkpt>
<trkpt lat="40.0713749" lon="-105.229789">
  <ele>1583.0</ele>
  <time>2026-09-02T20:50:20Z</time>
  <course>0.0</course>
  <speed>0.0</speed>
  <fix>3d</fix>
</trkpt>
<trkpt lat="40.0713749" lon="-105.229789">
  <ele>1583.0</ele>
  <time>2026-09-02T20:50:20Z</time>
  <course>0.0</course>
  <speed>0.0</speed>
  <fix>3d</fix>
</trkpt>
<trkpt lat="40.0713749" lon="-105.229789">
  <ele>1583.0</ele>
  <time>2026-09-02T20:50:20Z</time>
  <course>0.0</course>
  <speed>0.0</speed>
  <fix>3d</fix>
</trkpt>
<trkpt lat="40.0713749" lon="-105.229789">
  <ele>1583.0</ele>
  <time>2026-09-02T20:50:20Z</time>
  <course>0.0</course>
  <speed>0.0</speed>
  <fix>3d</fix>
</trkpt>
<trkpt lat="40.0713749" lon="-105.229789">
  <ele>1583.0</ele>
  <time>2026-09-02T20:50:20Z</time>
  <course>0.0</course>
  <speed>0.0</speed>
  <fix>3d</fix>
</trkpt>
<trkpt lat="40.0713749" lon="-105.229789">
  <ele>1583.0</ele>
  <time>2026-09-02T20:50:20Z</time>
  <course>0.0</course>
  <speed>0.0</speed>
  <fix>3d</fix>
</trkpt>
<trkpt lat="40.0713749" lon="-105.229789">
  <ele>1583.0</ele>
  <time>2026-09-02T20:50:20Z</time>
  <course>0.0</course>
  <speed>0.0</speed>
  <fix>3d</fix>
</trkpt>
<trkpt lat="40.0713749" lon="-105.229789">
  <ele>1583.0</ele>
  <time>2026-09-02T20:50:20Z</time>
  <course>0.0</course>
  <speed>0.0</speed>
  <fix>3d</fix>
</trkpt>
<trkpt lat="40.0713749" lon="-105.229789">
  <ele>1583.0</ele>
  <time>2026-09-02T20:50:20Z</time>
  <course>0.0</course>
  <speed>0.0</speed>
  <fix>3d</fix>
</trkpt>
<trkpt lat="40.0713749" lon="-105.229789">
  <ele>1583.0</ele>
  <time>2026-09-02T20:50:20Z</time>
  <course>0.0</course>
  <speed>0.0</speed>
  <fix>3d</fix>
</trkpt>
<trkpt lat="40.0713749" lon="-105.229789">
  <ele>1583.0</ele>
  <time>2026-09-02T20:50:20Z</time>
  <course>0.0</course>
  <speed>0.0</speed>
  <fix>3d</fix>
</trkpt>
<trkpt lat="40.0713749" lon="-105.229789">
  <ele>1583.0</ele>
  <time>2026-09-02T20:50:20Z</time>
  <course>0.0</course>
  <speed>0.0</speed>
  <fix>3d</fix>
</trkpt>
<trkpt lat="40.0713749" lon="-105.229789">
  <ele>1583.0</ele>
  <time>2026-09-02T20:50:20Z</time>
  <course>0.0</course>
  <speed>0.0</speed>
  <fix>3d</fix>
</trkpt>
<trkpt lat="40.0713749" lon="-105.229789">
  <ele>1583.0</ele>
  <time>2026-09-02T20:50:20Z</time>
  <course>0.0</course>
  <speed>0.0</speed>
  <fix>3d</fix>
</trkpt>
<trkpt lat="40.0713749" lon="-105.229789">
  <ele>1583.0</ele>
  <time>2026-09-02T20:50:20Z</time>
  <course>0.0</course>
  <speed>0.0</speed>
  <fix>3d</fix>
</trkpt>
<trkpt lat="40.0713749" lon="-105.229789">
  <ele>1583.0</ele>
  <time>2026-09-02T20:50:20Z</time>
  <course>0.0</course>
  <speed>0.0</speed>
  <fix>3d</fix>
</trkpt>
<trkpt lat="40.0713749" lon="-105.229789">
  <ele>1583.0</ele>
  <time>2026-09-02T20:50:20Z</time>
  <course>0.0</course>
  <speed>0.0</speed>
  <fix>3d</fix>
</trkpt>
<trkpt lat="40.0713749" lon="-105.229789">
  <ele>1583.0</ele>
  <time>2026-09-02T20:50:20Z</time>
  <course>0.0</course>
  <speed>0.0</speed>
  <fix>3d</fix>
</trkpt>
<trkpt lat="40.0713749" lon="-105.229789">
  <ele>1583.0</ele>
  <time>2026-09-02T20:50:20Z</time>
  <course>0.0</course>
  <speed>0.0</speed>
  <fix>3d</fix>
</trkpt>
<trkpt lat="40.0713749" lon="-105.229789">
  <ele>1583.0</ele>
  <time>2026-09-02T20:50:20Z</time>
  <course>0.0</course>
  <speed>0.0</speed>
  <fix>3d</fix>
</trkpt>
<trkpt lat="40.0713749" lon="-105.229789">
  <ele>1583.0</ele>
  <time>2026-09-02T20:50:20Z</time>
  <course>0.0</course>
  <speed>0.0</speed>
  <fix>3d</fix>
</trkpt>
<trkpt lat="40.0713749" lon="-105.229789">
  <ele>1583.0</ele>
  <time>2026-09-02T20:50:20Z</time>
  <course>0.0</course>
  <speed>0.0</speed>
  <fix>3d</fix>
</trkpt>
<trkpt lat="40.0713749" lon="-105.229789">
  <ele>1583.0</ele>
  <time>2026-09-02T20:50:20Z</time>
  <course>0.0</course>
  <speed>0.0</speed>
  <fix>3d</fix>
</trkpt>
<trkpt lat="40.0713749" lon="-105.229789">
  <ele>1583.0</ele>
  <time>2026-09-02T20:50:20Z</time>
  <course>0.0</course>
  <speed>0.0</speed>
  <fix>3d</fix>
</trkpt>
<trkpt lat="40.0713749" lon="-105.229789">
  <ele>1583.0</ele>
  <time>2026-09-02T20:50:20Z</time>
  <course>0.0</course>
  <speed>0.0</speed>
  <fix>3d</fix>
</trkpt>
<trkpt lat="40.0713749" lon="-105.229789">
  <ele>1583.0</ele>
  <time>2026-09-02T20:50:20Z</time>
  <course>0.0</course>
  <speed>0.0</speed>
  <fix>3d</fix>
</trkpt>
<trkpt lat="40.0713749" lon="-105.229789">
  <ele>1583.0</ele>
  <time>2026-09-02T20:50:20Z</time>
  <course>0.0</course>
  <speed>0.0</speed>
  <fix>3d</fix>
</trkpt>
<trkpt lat="40.0713749" lon="-105.229789">
  <ele>1583.0</ele>
  <time>2026-09-02T20:50:20Z</time>
  <course>0.0</course>
  <speed>0.0</speed>
  <fix>3d</fix>
</trkpt>
<trkpt lat="40.0713749" lon="-105.229789">
  <ele>1583.0</ele>
  <time>2026-09-02T20:50:20Z</time>
  <course>0.0</course>
  <speed>0.0</speed>
  <fix>3d</fix>
</trkpt>
<trkpt lat="40.0713749" lon="-105.229789">
  <ele>1583.0</ele>
  <time>2026-09-02T20:50:20Z</time>
  <course>0.0</course>
  <speed>0.0</speed>
  <fix>3d</fix>
</trkpt>
<trkpt lat="40.0713749" lon="-105.229789">
  <ele>1583.0</ele>
  <time>2026-09-02T20:50:20Z</time>
  <course>0.0</course>
  <speed>0.0</speed>
  <fix>3d</fix>
</trkpt>
<trkpt lat="40.0713749" lon="-105.229789">
  <ele>1583.0</ele>
  <time>2026-09-02T20:50:20Z</time>
  <course>0.0</course>
  <speed>0.0</speed>
  <fix>3d</fix>
</trkpt>
<trkpt lat="40.0713749" lon="-105.229789">
  <ele>1583.0</ele>
  <time>2026-09-02T20:50:20Z</time>
  <course>0.0</course>
  <speed>0.0</speed>
  <fix>3d</fix>
</trkpt>
<trkpt lat="40.0713749" lon="-105.229789">
  <ele>1583.0</ele>
  <time>2026-09-02T20:50:20Z</time>
  <course>0.0</course>
  <speed>0.0</speed>
  <fix>3d</fix>
</trkpt>
<trkpt lat="40.0713749" lon="-105.229789">
  <ele>1583.0</ele>
  <time>2026-09-02T20:50:20Z</time>
  <course>0.0</course>
  <speed>0.0</speed>
  <fix>3d</fix>
</trkpt>
<trkpt lat="40.0713749" lon="-105.229789">
  <ele>1583.0</ele>
  <time>2026-09-02T20:50:20Z</time>
  <course>0.0</course>
  <speed>0.0</speed>
  <fix>3d</fix>
</trkpt>
<trkpt lat="40.0713749" lon="-105.229789">
  <ele>1583.0</ele>
  <time>2026-09-02T20:50:20Z</time>
  <course>0.0</course>
  <speed>0.0</speed>
  <fix>3d</fix>
</trkpt>
<trkpt lat="40.0713749" lon="-105.229789">
  <ele>1583.0</ele>
  <time>2026-09-02T20:50:20Z</time>
  <course>0.0</course>
  <speed>0.0</speed>
  <fix>3d</fix>
</trkpt>
<trkpt lat="40.0713749" lon="-105.229789">
  <ele>1583.0</ele>
  <time>2026-09-02T20:50:20Z</time>
  <course>0.0</course>
  <speed>0.0</speed>
  <fix>3d</fix>
</trkpt>
<trkpt lat="40.0713749" lon="-105.229789">
  <ele>1583.0</ele>
  <time>2026-09-02T20:50:20Z</time>
  <course>0.0</course>
  <speed>0.0</speed>
  <fix>3d</fix>
</trkpt>
<trkpt lat="40.0713749" lon="-105.229789">
  <ele>1583.0</ele>
  <time>2026-09-02T20:50:20Z</time>
  <course>0.0</course>
  <speed>0.0</speed>
  <fix>3d</fix>
</trkpt>
<trkpt lat="40.0713749" lon="-105.229789">
  <ele>1583.0</ele>
  <time>2026-09-02T20:50:20Z</time>
  <course>0.0</course>
  <speed>0.0</speed>
  <fix>3d</fix>
</trkpt>
<trkpt lat="40.0713749" lon="-105.229789">
  <ele>1583.0</ele>
  <time>2026-09-02T20:50:20Z</time>
  <course>0.0</course>
  <speed>0.0</speed>
  <fix>3d</fix>
</trkpt>
<trkpt lat="40.0713749" lon="-105.229789">
  <ele>1583.0</ele>
  <time>2026-09-02T20:50:20Z</time>
  <course>0.0</course>
  <speed>0.0</speed>
  <fix>3d</fix>
</trkpt>
<trkpt lat="40.0713749" lon="-105.229789">
  <ele>1583.0</ele>
  <time>2026-09-02T20:50:20Z</time>
  <course>0.0</course>
  <speed>0.0</speed>
  <fix>3d</fix>
</trkpt>
<trkpt lat="40.0713749" lon="-105.229789">
  <ele>1583.0</ele>
  <time>2026-09-02T20:50:20Z</time>
  <course>0.0</course>
  <speed>0.0</speed>
  <fix>3d</fix>
</trkpt>
<trkpt lat="40.0713749" lon="-105.229789">
  <ele>1583.0</ele>
  <time>2026-09-02T20:50:20Z</time>
  <course>0.0</course>
  <speed>0.0</speed>
  <fix>3d</fix>
</trkpt>
<trkpt lat="40.0713749" lon="-105.229789">
  <ele>1583.0</ele>
  <time>2026-09-02T20:50:20Z</time>
  <course>0.0</course>
  <speed>0.0</speed>
  <fix>3d</fix>
</trkpt>
<trkpt lat="40.0713749" lon="-105.229789">
  <ele>1583.0</ele>
  <time>2026-09-02T20:50:20Z</time>
  <course>0.0</course>
  <speed>0.0</speed>
  <fix>3d</fix>
</trkpt>
<trkpt lat="40.0713749" lon="-105.229789">
  <ele>1583.0</ele>
  <time>2026-09-02T20:50:20Z</time>
  <course>0.0</course>
  <speed>0.0</speed>
  <fix>3d</fix>
</trkpt>
<trkpt lat="40.0713749" lon="-105.229789">
  <ele>1583.0</ele>
  <time>2026-09-02T20:50:20Z</time>
  <course>0.0</course>
  <speed>0.0</speed>
  <fix>3d</fix>
</trkpt>
<trkpt lat="40.0713749" lon="-105.229789">
  <ele>1583.0</ele>
  <time>2026-09-02T20:50:20Z</time>
  <course>0.0</course>
  <speed>0.0</speed>
  <fix>3d</fix>
</trkpt>
<trkpt lat="40.0713749" lon="-105.229789">
  <ele>1583.0</ele>
  <time>2026-09-02T20:50:20Z</time>
  <course>0.0</course>
  <speed>0.0</speed>
  <fix>3d</fix>
</trkpt>
<trkpt lat="40.0713749" lon="-105.229789">
  <ele>1583.0</ele>
  <time>2026-09-02T20:50:20Z</time>
  <course>0.0</course>
  <speed>0.0</speed>
  <fix>3d</fix>
</trkpt>
<trkpt lat="40.0713749" lon="-105.229789">
  <ele>1583.0</ele>
  <time>2026-09-02T20:50:20Z</time>
  <course>0.0</course>
  <speed>0.0</speed>
  <fix>3d</fix>
</trkpt>
<trkpt lat="40.0713749" lon="-105.229789">
  <ele>1583.0</ele>
  <time>2026-09-02T20:50:20Z</time>
  <course>0.0</course>
  <speed>0.0</speed>
  <fix>3d</fix>
</trkpt>
<trkpt lat="40.0713749" lon="-105.229789">
  <ele>1583.0</ele>
  <time>2026-09-02T20:50:20Z</time>
  <course>0.0</course>
  <speed>0.0</speed>
  <fix>3d</fix>
</trkpt>
<trkpt lat="40.0713749" lon="-105.229789">
  <ele>1583.0</ele>
  <time>2026-09-02T20:50:20Z</time>
  <course>0.0</course>
  <speed>0.0</speed>
  <fix>3d</fix>
</trkpt>
<trkpt lat="40.0713749" lon="-105.229789">
  <ele>1583.0</ele>
  <time>2026-09-02T20:50:20Z</time>
  <course>0.0</course>
  <speed>0.0</speed>
  <fix>3d</fix>
</trkpt>
<trkpt lat="40.0713749" lon="-105.229789">
  <ele>1583.0</ele>
  <time>2026-09-02T20:50:20Z</time>
  <course>0.0</course>
  <speed>0.0</speed>
  <fix>3d</fix>
</trkpt>
<trkpt lat="40.0713749" lon="-105.229789">
  <ele>1583.0</ele>
  <time>2026-09-02T20:50:20Z</time>
  <course>0.0</course>
  <speed>0.0</speed>
  <fix>3d</fix>
</trkpt>
<trkpt lat="40.0713749" lon="-105.229789">
  <ele>1583.0</ele>
  <time>2026-09-02T20:50:20Z</time>
  <course>0.0</course>
  <speed>0.0</speed>
  <fix>3d</fix>
</trkpt>
<trkpt lat="40.0713749" lon="-105.229789">
  <ele>1583.0</ele>
  <time>2026-09-02T20:50:20Z</time>
  <course>0.0</course>
  <speed>0.0</speed>
  <fix>3d</fix>
</trkpt>
<trkpt lat="40.0713749" lon="-105.229789">
  <ele>1583.0</ele>
  <time>2026-09-02T20:50:20Z</time>
  <course>0.0</course>
  <speed>0.0</speed>
  <fix>3d</fix>
</trkpt>
<trkpt lat="40.0713749" lon="-105.229789">
  <ele>1583.0</ele>
  <time>2026-09-02T20:50:20Z</time>
  <course>0.0</course>
  <speed>0.0</speed>
  <fix>3d</fix>
</trkpt>
<trkpt lat="40.0713749" lon="-105.229789">
  <ele>1583.0</ele>
  <time>2026-09-02T20:50:20Z</time>
  <course>0.0</course>
  <speed>0.0</speed>
  <fix>3d</fix>
</trkpt>
<trkpt lat="40.0713749" lon="-105.229789">
  <ele>1583.0</ele>
  <time>2026-09-02T20:50:20Z</time>
  <course>0.0</course>
  <speed>0.0</speed>
  <fix>3d</fix>
</trkpt>
<trkpt lat="40.0713749" lon="-105.229789">
  <ele>1583.0</ele>
  <time>2026-09-02T20:50:20Z</time>
  <course>0.0</course>
  <speed>0.0</speed>
  <fix>3d</fix>
</trkpt>
<trkpt lat="40.0713749" lon="-105.229789">
  <ele>1583.0</ele>
  <time>2026-09-02T20:50:20Z</time>
  <course>0.0</course>
  <speed>0.0</speed>
  <fix>3d</fix>
</trkpt>
<trkpt lat="40.0713749" lon="-105.229789">
  <ele>1583.0</ele>
  <time>2026-09-02T20:50:20Z</time>
  <course>0.0</course>
  <speed>0.0</speed>
  <fix>3d</fix>
</trkpt>
<trkpt lat="40.0713749" lon="-105.229789">
  <ele>1583.0</ele>
  <time>2026-09-02T20:50:20Z</time>
  <course>0.0</course>
  <speed>0.0</speed>
  <fix>3d</fix>
</trkpt>
<trkpt lat="40.0713749" lon="-105.229789">
  <ele>1583.0</ele>
  <time>2026-09-02T20:50:20Z</time>
  <course>0.0</course>
  <speed>0.0</speed>
  <fix>3d</fix>
</trkpt>
<trkpt lat="40.0713749" lon="-105.229789">
  <ele>1583.0</ele>
  <time>2026-09-02T20:50:20Z</time>
  <course>0.0</course>
  <speed>0.0</speed>
  <fix>3d</fix>
</trkpt>
<trkpt lat="40.0713749" lon="-105.229789">
  <ele>1583.0</ele>
  <time>2026-09-02T20:50:20Z</time>
  <course>0.0</course>
  <speed>0.0</speed>
  <fix>3d</fix>
</trkpt>
<trkpt lat="40.0713749" lon="-105.229789">
  <ele>1583.0</ele>
  <time>2026-09-02T20:50:20Z</time>
  <course>0.0</course>
  <speed>0.0</speed>
  <fix>3d</fix>
</trkpt>
<trkpt lat="40.0713749" lon="-105.229789">
  <ele>1583.0</ele>
  <time>2026-09-02T20:50:20Z</time>
  <course>0.0</course>
  <speed>0.0</speed>
  <fix>3d</fix>
</trkpt>
<trkpt lat="40.0713749" lon="-105.229789">
  <ele>1583.0</ele>
  <time>2026-09-02T20:50:20Z</time>
  <course>0.0</course>
  <speed>0.0</speed>
  <fix>3d</fix>
</trkpt>
<trkpt lat="40.0713749" lon="-105.229789">
  <ele>1583.0</ele>
  <time>2026-09-02T20:50:20Z</time>
  <course>0.0</course>
  <speed>0.0</speed>
  <fix>3d</fix>
</trkpt>
<trkpt lat="40.0713749" lon="-105.229789">
  <ele>1583.0</ele>
  <time>2026-09-02T20:50:20Z</time>
  <course>0.0</course>
  <speed>0.0</speed>
  <fix>3d</fix>
</trkpt>
<trkpt lat="40.0713749" lon="-105.229789">
  <ele>1583.0</ele>
  <time>2026-09-02T20:50:20Z</time>
  <course>0.0</course>
  <speed>0.0</speed>
  <fix>3d</fix>
</trkpt>
<trkpt lat="40.0713749" lon="-105.229789">
  <ele>1583.0</ele>
  <time>2026-09-02T20:50:20Z</time>
  <course>0.0</course>
  <speed>0.0</speed>
  <fix>3d</fix>
</trkpt>
<trkpt lat="40.0713749" lon="-105.229789">
  <ele>1583.0</ele>
  <time>2026-09-02T20:50:20Z</time>
  <course>0.0</course>
  <speed>0.0</speed>
  <fix>3d</fix>
</trkpt>
<trkpt lat="40.0713749" lon="-105.229789">
  <ele>1583.0</ele>
  <time>2026-09-02T20:50:20Z</time>
  <course>0.0</course>
  <speed>0.0</speed>
  <fix>3d</fix>
</trkpt>
<trkpt lat="40.0713749" lon="-105.229789">
  <ele>1583.0</ele>
  <time>2026-09-02T20:50:20Z</time>
  <course>0.0</course>
  <speed>0.0</speed>
  <fix>3d</fix>
</trkpt>
<trkpt lat="40.0713749" lon="-105.229789">
  <ele>1583.0</ele>
  <time>2026-09-02T20:50:20Z</time>
  <course>0.0</course>
  <speed>0.0</speed>
  <fix>3d</fix>
</trkpt>
<trkpt lat="40.0713749" lon="-105.229789">
  <ele>1583.0</ele>
  <time>2026-09-02T20:50:20Z</time>
  <course>0.0</course>
  <speed>0.0</speed>
  <fix>3d</fix>
</trkpt>
<trkpt lat="40.0713749" lon="-105.229789">
  <ele>1583.0</ele>
  <time>2026-09-02T20:50:20Z</time>
  <course>0.0</course>
  <speed>0.0</speed>
  <fix>3d</fix>
</trkpt>
<trkpt lat="40.0713749" lon="-105.229789">
  <ele>1583.0</ele>
  <time>2026-09-02T20:50:20Z</time>
  <course>0.0</course>
  <speed>0.0</speed>
  <fix>3d</fix>
</trkpt>
<trkpt lat="40.0713749" lon="-105.229789">
  <ele>1583.0</ele>
  <time>2026-09-02T20:50:20Z</time>
  <course>0.0</course>
  <speed>0.0</speed>
  <fix>3d</fix>
</trkpt>
<trkpt lat="40.0713749" lon="-105.229789">
  <ele>1583.0</ele>
  <time>2026-09-02T20:50:20Z</time>
  <course>0.0</course>
  <speed>0.0</speed>
  <fix>3d</fix>
</trkpt>
<trkpt lat="40.0713749" lon="-105.229789">
  <ele>1583.0</ele>
  <time>2026-09-02T20:50:20Z</time>
  <course>0.0</course>
  <speed>0.0</speed>
  <fix>3d</fix>
</trkpt>
<trkpt lat="40.0713749" lon="-105.229789">
  <ele>1583.0</ele>
  <time>2026-09-02T20:50:20Z</time>
  <course>0.0</course>
  <speed>0.0</speed>
  <fix>3d</fix>
</trkpt>
<trkpt lat="40.0713749" lon="-105.229789">
  <ele>1583.0</ele>
  <time>2026-09-02T20:50:20Z</time>
  <course>0.0</course>
  <speed>0.0</speed>
  <fix>3d</fix>
</trkpt>
<trkpt lat="40.0713749" lon="-105.229789">
  <ele>1583.0</ele>
  <time>2026-09-02T20:50:20Z</time>
  <course>0.0</course>
  <speed>0.0</speed>
  <fix>3d</fix>
</trkpt>
<trkpt lat="40.0713749" lon="-105.229789">
  <ele>1583.0</ele>
  <time>2026-09-02T20:50:20Z</time>
  <course>0.0</course>
  <speed>0.0</speed>
  <fix>3d</fix>
</trkpt>
<trkpt lat="40.0713749" lon="-105.229789">
  <ele>1583.0</ele>
  <time>2026-09-02T20:50:20Z</time>
  <course>0.0</course>
  <speed>0.0</speed>
  <fix>3d</fix>
</trkpt>
<trkpt lat="40.0713749" lon="-105.229789">
  <ele>1583.0</ele>
  <time>2026-09-02T20:50:20Z</time>
  <course>0.0</course>
  <speed>0.0</speed>
  <fix>3d</fix>
</trkpt>
<trkpt lat="40.0713749" lon="-105.229789">
  <ele>1583.0</ele>
  <time>2026-09-02T20:50:20Z</time>
  <course>0.0</course>
  <speed>0.0</speed>
  <fix>3d</fix>
</trkpt>
<trkpt lat="40.0713749" lon="-105.229789">
  <ele>1583.0</ele>
  <time>2026-09-02T20:50:20Z</time>
  <course>0.0</course>
  <speed>0.0</speed>
  <fix>3d</fix>
</trkpt>
<trkpt lat="40.0713749" lon="-105.229789">
  <ele>1583.0</ele>
  <time>2026-09-02T20:50:20Z</time>
  <course>0.0</course>
  <speed>0.0</speed>
  <fix>3d</fix>
</trkpt>
<trkpt lat="40.0713749" lon="-105.229789">
  <ele>1583.0</ele>
  <time>2026-09-02T20:50:20Z</time>
  <course>0.0</course>
  <speed>0.0</speed>
  <fix>3d</fix>
</trkpt>
<trkpt lat="40.0713749" lon="-105.229789">
  <ele>1583.0</ele>
  <time>2026-09-02T20:50:20Z</time>
  <course>0.0</course>
  <speed>0.0</speed>
  <fix>3d</fix>
</trkpt>
<trkpt lat="40.0713749" lon="-105.229789">
  <ele>1583.0</ele>
  <time>2026-09-02T20:50:20Z</time>
  <course>0.0</course>
  <speed>0.0</speed>
  <fix>3d</fix>
</trkpt>
<trkpt lat="40.0713749" lon="-105.229789">
  <ele>1583.0</ele>
  <time>2026-09-02T20:50:20Z</time>
  <course>0.0</course>
  <speed>0.0</speed>
  <fix>3d</fix>
</trkpt>
<trkpt lat="40.0713749" lon="-105.229789">
  <ele>1583.0</ele>
  <time>2026-09-02T20:50:20Z</time>
  <course>0.0</course>
  <speed>0.0</speed>
  <fix>3d</fix>
</trkpt>
<trkpt lat="40.0713749" lon="-105.229789">
  <ele>1583.0</ele>
  <time>2026-09-02T20:50:20Z</time>
  <course>0.0</course>
  <speed>0.0</speed>
  <fix>3d</fix>
</trkpt>
<trkpt lat="40.0713749" lon="-105.229789">
  <ele>1583.0</ele>
  <time>2026-09-02T20:50:20Z</time>
  <course>0.0</course>
  <speed>0.0</speed>
  <fix>3d</fix>
</trkpt>
<trkpt lat="40.0713749" lon="-105.229789">
  <ele>1583.0</ele>
  <time>2026-09-02T20:50:20Z</time>
  <course>0.0</course>
  <speed>0.0</speed>
  <fix>3d</fix>
</trkpt>
<trkpt lat="40.0713749" lon="-105.229789">
  <ele>1583.0</ele>
  <time>2026-09-02T20:50:20Z</time>
  <course>0.0</course>
  <speed>0.0</speed>
  <fix>3d</fix>
</trkpt>
<trkpt lat="40.0713749" lon="-105.229789">
  <ele>1583.0</ele>
  <time>2026-09-02T20:50:20Z</time>
  <course>0.0</course>
  <speed>0.0</speed>
  <fix>3d</fix>
</trkpt>
<trkpt lat="40.0713749" lon="-105.229789">
  <ele>1583.0</ele>
  <time>2026-09-02T20:50:20Z</time>
  <course>0.0</course>
  <speed>0.0</speed>
  <fix>3d</fix>
</trkpt>
<trkpt lat="40.0713749" lon="-105.229789">
  <ele>1583.0</ele>
  <time>2026-09-02T20:50:20Z</time>
  <course>0.0</course>
  <speed>0.0</speed>
  <fix>3d</fix>
</trkpt>
<trkpt lat="40.0713749" lon="-105.229789">
  <ele>1583.0</ele>
  <time>2026-09-02T20:50:20Z</time>
  <course>0.0</course>
  <speed>0.0</speed>
  <fix>3d</fix>
</trkpt>
<trkpt lat="40.0713749" lon="-105.229789">
  <ele>1583.0</ele>
  <time>2026-09-02T20:50:20Z</time>
  <course>0.0</course>
  <speed>0.0</speed>
  <fix>3d</fix>
</trkpt>
<trkpt lat="40.0713749" lon="-105.229789">
  <ele>1583.0</ele>
  <time>2026-09-02T20:50:20Z</time>
  <course>0.0</course>
  <speed>0.0</speed>
  <fix>3d</fix>
</trkpt>
<trkpt lat="40.0713749" lon="-105.229789">
  <ele>1583.0</ele>
  <time>2026-09-02T20:50:20Z</time>
  <course>0.0</course>
  <speed>0.0</speed>
  <fix>3d</fix>
</trkpt>
<trkpt lat="40.0713749" lon="-105.229789">
  <ele>1583.0</ele>
  <time>2026-09-02T20:50:20Z</time>
  <course>0.0</course>
  <speed>0.0</speed>
  <fix>3d</fix>
</trkpt>
<trkpt lat="40.0713749" lon="-105.229789">
  <ele>1583.0</ele>
  <time>2026-09-02T20:50:20Z</time>
  <course>0.0</course>
  <speed>0.0</speed>
  <fix>3d</fix>
</trkpt>
<trkpt lat="40.0713749" lon="-105.229789">
  <ele>1583.0</ele>
  <time>2026-09-02T20:50:20Z</time>
  <course>0.0</course>
  <speed>0.0</speed>
  <fix>3d</fix>
</trkpt>
<trkpt lat="40.0713749" lon="-105.229789">
  <ele>1583.0</ele>
  <time>2026-09-02T20:50:20Z</time>
  <course>0.0</course>
  <speed>0.0</speed>
  <fix>3d</fix>
</trkpt>
<trkpt lat="40.0713749" lon="-105.229789">
  <ele>1583.0</ele>
  <time>2026-09-02T20:50:20Z</time>
  <course>0.0</course>
  <speed>0.0</speed>
  <fix>3d</fix>
</trkpt>
<trkpt lat="40.0713749" lon="-105.229789">
  <ele>1583.0</ele>
  <time>2026-09-02T20:50:20Z</time>
  <course>0.0</course>
  <speed>0.0</speed>
  <fix>3d</fix>
</trkpt>
<trkpt lat="40.0713749" lon="-105.229789">
  <ele>1583.0</ele>
  <time>2026-09-02T20:50:20Z</time>
  <course>0.0</course>
  <speed>0.0</speed>
  <fix>3d</fix>
</trkpt>
<trkpt lat="40.0713749" lon="-105.229789">
  <ele>1583.0</ele>
  <time>2026-09-02T20:50:20Z</time>
  <course>0.0</course>
  <speed>0.0</speed>
  <fix>3d</fix>
</trkpt>
<trkpt lat="40.0713749" lon="-105.229789">
  <ele>1583.0</ele>
  <time>2026-09-02T20:50:20Z</time>
  <course>0.0</course>
  <speed>0.0</speed>
  <fix>3d</fix>
</trkpt>
<trkpt lat="40.0713749" lon="-105.229789">
  <ele>1583.0</ele>
  <time>2026-09-02T20:50:20Z</time>
  <course>0.0</course>
  <speed>0.0</speed>
  <fix>3d</fix>
</trkpt>
<trkpt lat="40.0713749" lon="-105.229789">
  <ele>1583.0</ele>
  <time>2026-09-02T20:50:20Z</time>
  <course>0.0</course>
  <speed>0.0</speed>
  <fix>3d</fix>
</trkpt>
<trkpt lat="40.0713749" lon="-105.229789">
  <ele>1583.0</ele>
  <time>2026-09-02T20:50:20Z</time>
  <course>0.0</course>
  <speed>0.0</speed>
  <fix>3d</fix>
</trkpt>
<trkpt lat="40.0713749" lon="-105.229789">
  <ele>1583.0</ele>
  <time>2026-09-02T20:50:20Z</time>
  <course>0.0</course>
  <speed>0.0</speed>
  <fix>3d</fix>
</trkpt>
<trkpt lat="40.0713749" lon="-105.229789">
  <ele>1583.0</ele>
  <time>2026-09-02T20:50:20Z</time>
  <course>0.0</course>
  <speed>0.0</speed>
  <fix>3d</fix>
</trkpt>
<trkpt lat="40.0713749" lon="-105.229789">
  <ele>1583.0</ele>
  <time>2026-09-02T20:50:20Z</time>
  <course>0.0</course>
  <speed>0.0</speed>
  <fix>3d</fix>
</trkpt>
<trkpt lat="40.0713749" lon="-105.229789">
  <ele>1583.0</ele>
  <time>2026-09-02T20:50:20Z</time>
  <course>0.0</course>
  <speed>0.0</speed>
  <fix>3d</fix>
</trkpt>
<trkpt lat="40.0713749" lon="-105.229789">
  <ele>1583.0</ele>
  <time>2026-09-02T20:50:20Z</time>
  <course>0.0</course>
  <speed>0.0</speed>
  <fix>3d</fix>
</trkpt>
<trkpt lat="40.0713749" lon="-105.229789">
  <ele>1583.0</ele>
  <time>2026-09-02T20:50:20Z</time>
  <course>0.0</course>
  <speed>0.0</speed>
  <fix>3d</fix>
</trkpt>
<trkpt lat="40.0713749" lon="-105.229789">
  <ele>1583.0</ele>
  <time>2026-09-02T20:50:20Z</time>
  <course>0.0</course>
  <speed>0.0</speed>
  <fix>3d</fix>
</trkpt>
<trkpt lat="40.0713749" lon="-105.229789">
  <ele>1583.0</ele>
  <time>2026-09-02T20:50:20Z</time>
  <course>0.0</course>
  <speed>0.0</speed>
  <fix>3d</fix>
</trkpt>
<trkpt lat="40.0713749" lon="-105.229789">
  <ele>1583.0</ele>
  <time>2026-09-02T20:50:20Z</time>
  <course>0.0</course>
  <speed>0.0</speed>
  <fix>3d</fix>
</trkpt>
<trkpt lat="40.0713749" lon="-105.229789">
  <ele>1583.0</ele>
  <time>2026-09-02T20:50:20Z</time>
  <course>0.0</course>
  <speed>0.0</speed>
  <fix>3d</fix>
</trkpt>
<trkpt lat="40.0713749" lon="-105.229789">
  <ele>1583.0</ele>
  <time>2026-09-02T20:50:20Z</time>
  <course>0.0</course>
  <speed>0.0</speed>
  <fix>3d</fix>
</trkpt>
<trkpt lat="40.0713749" lon="-105.229789">
  <ele>1583.0</ele>
  <time>2026-09-02T20:50:20Z</time>
  <course>0.0</course>
  <speed>0.0</speed>
  <fix>3d</fix>
</trkpt>
<trkpt lat="40.0713749" lon="-105.229789">
  <ele>1583.0</ele>
  <time>2026-09-02T20:50:20Z</time>
  <course>0.0</course>
  <speed>0.0</speed>
  <fix>3d</fix>
</trkpt>
<trkpt lat="40.0713749" lon="-105.229789">
  <ele>1583.0</ele>
  <time>2026-09-02T20:50:20Z</time>
  <course>0.0</course>
  <speed>0.0</speed>
  <fix>3d</fix>
</trkpt>
<trkpt lat="40.0713749" lon="-105.229789">
  <ele>1583.0</ele>
  <time>2026-09-02T20:50:20Z</time>
  <course>0.0</course>
  <speed>0.0</speed>
  <fix>3d</fix>
</trkpt>
<trkpt lat="40.0713749" lon="-105.229789">
  <ele>1583.0</ele>
  <time>2026-09-02T20:50:20Z</time>
  <course>0.0</course>
  <speed>0.0</speed>
  <fix>3d</fix>
</trkpt>
<trkpt lat="40.0713749" lon="-105.229789">
  <ele>1583.0</ele>
  <time>2026-09-02T20:50:20Z</time>
  <course>0.0</course>
  <speed>0.0</speed>
  <fix>3d</fix>
</trkpt>
<trkpt lat="40.0713749" lon="-105.229789">
  <ele>1583.0</ele>
  <time>2026-09-02T20:50:20Z</time>
  <course>0.0</course>
  <speed>0.0</speed>
  <fix>3d</fix>
</trkpt>
<trkpt lat="40.0713749" lon="-105.229789">
  <ele>1583.0</ele>
  <time>2026-09-02T20:50:20Z</time>
  <course>0.0</course>
  <speed>0.0</speed>
  <fix>3d</fix>
</trkpt>
<trkpt lat="40.0713749" lon="-105.229789">
  <ele>1583.0</ele>
  <time>2026-09-02T20:50:20Z</time>
  <course>0.0</course>
  <speed>0.0</speed>
  <fix>3d</fix>
</trkpt>
<trkpt lat="40.0713749" lon="-105.229789">
  <ele>1583.0</ele>
  <time>2026-09-02T20:50:20Z</time>
  <course>0.0</course>
  <speed>0.0</speed>
  <fix>3d</fix>
</trkpt>
<trkpt lat="40.0713749" lon="-105.229789">
  <ele>1583.0</ele>
  <time>2026-09-02T20:50:20Z</time>
  <course>0.0</course>
  <speed>0.0</speed>
  <fix>3d</fix>
</trkpt>
<trkpt lat="40.0713749" lon="-105.229789">
  <ele>1583.0</ele>
  <time>2026-09-02T20:50:20Z</time>
  <course>0.0</course>
  <speed>0.0</speed>
  <fix>3d</fix>
</trkpt>
<trkpt lat="40.0713749" lon="-105.229789">
  <ele>1583.0</ele>
  <time>2026-09-02T20:50:20Z</time>
  <course>0.0</course>
  <speed>0.0</speed>
  <fix>3d</fix>
</trkpt>
<trkpt lat="40.0713749" lon="-105.229789">
  <ele>1583.0</ele>
  <time>2026-09-02T20:50:20Z</time>
  <course>0.0</course>
  <speed>0.0</speed>
  <fix>3d</fix>
</trkpt>
<trkpt lat="40.0713749" lon="-105.229789">
  <ele>1583.0</ele>
  <time>2026-09-02T20:50:20Z</time>
  <course>0.0</course>
  <speed>0.0</speed>
  <fix>3d</fix>
</trkpt>
<trkpt lat="40.0713749" lon="-105.229789">
  <ele>1583.0</ele>
  <time>2026-09-02T20:50:20Z</time>
  <course>0.0</course>
  <speed>0.0</speed>
  <fix>3d</fix>
</trkpt>
<trkpt lat="40.0713749" lon="-105.229789">
  <ele>1583.0</ele>
  <time>2026-09-02T20:50:20Z</time>
  <course>0.0</course>
  <speed>0.0</speed>
  <fix>3d</fix>
</trkpt>
<trkpt lat="40.0713749" lon="-105.229789">
  <ele>1583.0</ele>
  <time>2026-09-02T20:50:20Z</time>
  <course>0.0</course>
  <speed>0.0</speed>
  <fix>3d</fix>
</trkpt>
<trkpt lat="40.0713749" lon="-105.229789">
  <ele>1583.0</ele>
  <time>2026-09-02T20:50:20Z</time>
  <course>0.0</course>
  <speed>0.0</speed>
  <fix>3d</fix>
</trkpt>
<trkpt lat="40.0713749" lon="-105.229789">
  <ele>1583.0</ele>
  <time>2026-09-02T20:50:20Z</time>
  <course>0.0</course>
  <speed>0.0</speed>
  <fix>3d</fix>
</trkpt>
<trkpt lat="40.0713749" lon="-105.229789">
  <ele>1583.0</ele>
  <time>2026-09-02T20:50:20Z</time>
  <course>0.0</course>
  <speed>0.0</speed>
  <fix>3d</fix>
</trkpt>
<trkpt lat="40.0713749" lon="-105.229789">
  <ele>1583.0</ele>
  <time>2026-09-02T20:50:20Z</time>
  <course>0.0</course>
  <speed>0.0</speed>
  <fix>3d</fix>
</trkpt>
<trkpt lat="40.0713749" lon="-105.229789">
  <ele>1583.0</ele>
  <time>2026-09-02T20:50:20Z</time>
  <course>0.0</course>
  <speed>0.0</speed>
  <fix>3d</fix>
</trkpt>
<trkpt lat="40.0713749" lon="-105.229789">
  <ele>1583.0</ele>
  <time>2026-09-02T20:50:20Z</time>
  <course>0.0</course>
  <speed>0.0</speed>
  <fix>3d</fix>
</trkpt>
<trkpt lat="40.0713749" lon="-105.229789">
  <ele>1583.0</ele>
  <time>2026-09-02T20:50:20Z</time>
  <course>0.0</course>
  <speed>0.0</speed>
  <fix>3d</fix>
</trkpt>
<trkpt lat="40.0713749" lon="-105.229789">
  <ele>1583.0</ele>
  <time>2026-09-02T20:50:20Z</time>
  <course>0.0</course>
  <speed>0.0</speed>
  <fix>3d</fix>
</trkpt>
<trkpt lat="40.0713749" lon="-105.229789">
  <ele>1583.0</ele>
  <time>2026-09-02T20:50:20Z</time>
  <course>0.0</course>
  <speed>0.0</speed>
  <fix>3d</fix>
</trkpt>
<trkpt lat="40.0713749" lon="-105.229789">
  <ele>1583.0</ele>
  <time>2026-09-02T20:50:21Z</time>
  <course>0.0</course>
  <speed>0.0</speed>
  <fix>3d</fix>
</trkpt>
<trkpt lat="40.0713749" lon="-105.229789">
  <ele>1583.0</ele>
  <time>2026-09-02T20:50:21Z</time>
  <course>0.0</course>
  <speed>0.0</speed>
  <fix>3d</fix>
</trkpt>
<trkpt lat="40.0713749" lon="-105.229789">
  <ele>1583.0</ele>
  <time>2026-09-02T20:50:21Z</time>
  <course>0.0</course>
  <speed>0.0</speed>
  <fix>3d</fix>
</trkpt>
<trkpt lat="40.0713749" lon="-105.229789">
  <ele>1583.0</ele>
  <time>2026-09-02T20:50:21Z</time>
  <course>0.0</course>
  <speed>0.0</speed>
  <fix>3d</fix>
</trkpt>
<trkpt lat="40.0713749" lon="-105.229789">
  <ele>1583.0</ele>
  <time>2026-09-02T20:50:21Z</time>
  <course>0.0</course>
  <speed>0.0</speed>
  <fix>3d</fix>
</trkpt>
<trkpt lat="40.0713749" lon="-105.229789">
  <ele>1583.0</ele>
  <time>2026-09-02T20:50:21Z</time>
  <course>0.0</course>
  <speed>0.0</speed>
  <fix>3d</fix>
</trkpt>
<trkpt lat="40.0713749" lon="-105.229789">
  <ele>1583.0</ele>
  <time>2026-09-02T20:50:21Z</time>
  <course>0.0</course>
  <speed>0.0</speed>
  <fix>3d</fix>
</trkpt>
<trkpt lat="40.0713749" lon="-105.229789">
  <ele>1583.0</ele>
  <time>2026-09-02T20:50:21Z</time>
  <course>0.0</course>
  <speed>0.0</speed>
  <fix>3d</fix>
</trkpt>
<trkpt lat="40.0713749" lon="-105.229789">
  <ele>1583.0</ele>
  <time>2026-09-02T20:50:21Z</time>
  <course>0.0</course>
  <speed>0.0</speed>
  <fix>3d</fix>
</trkpt>
<trkpt lat="40.0713749" lon="-105.229789">
  <ele>1583.0</ele>
  <time>2026-09-02T20:50:21Z</time>
  <course>0.0</course>
  <speed>0.0</speed>
  <fix>3d</fix>
</trkpt>
<trkpt lat="40.0713749" lon="-105.229789">
  <ele>1583.0</ele>
  <time>2026-09-02T20:50:21Z</time>
  <course>0.0</course>
  <speed>0.0</speed>
  <fix>3d</fix>
</trkpt>
<trkpt lat="40.0713749" lon="-105.229789">
  <ele>1583.0</ele>
  <time>2026-09-02T20:50:21Z</time>
  <course>0.0</course>
  <speed>0.0</speed>
  <fix>3d</fix>
</trkpt>
<trkpt lat="40.0713749" lon="-105.229789">
  <ele>1583.0</ele>
  <time>2026-09-02T20:50:21Z</time>
  <course>0.0</course>
  <speed>0.0</speed>
  <fix>3d</fix>
</trkpt>
<trkpt lat="40.0713749" lon="-105.229789">
  <ele>1583.0</ele>
  <time>2026-09-02T20:50:21Z</time>
  <course>0.0</course>
  <speed>0.0</speed>
  <fix>3d</fix>
</trkpt>
<trkpt lat="40.0713749" lon="-105.229789">
  <ele>1583.0</ele>
  <time>2026-09-02T20:50:21Z</time>
  <course>0.0</course>
  <speed>0.0</speed>
  <fix>3d</fix>
</trkpt>
<trkpt lat="40.0713749" lon="-105.229789">
  <ele>1583.0</ele>
  <time>2026-09-02T20:50:21Z</time>
  <course>0.0</course>
  <speed>0.0</speed>
  <fix>3d</fix>
</trkpt>
<trkpt lat="40.0713749" lon="-105.229789">
  <ele>1583.0</ele>
  <time>2026-09-02T20:50:21Z</time>
  <course>0.0</course>
  <speed>0.0</speed>
  <fix>3d</fix>
</trkpt>
<trkpt lat="40.0713749" lon="-105.229789">
  <ele>1583.0</ele>
  <time>2026-09-02T20:50:21Z</time>
  <course>0.0</course>
  <speed>0.0</speed>
  <fix>3d</fix>
</trkpt>
<trkpt lat="40.0713749" lon="-105.229789">
  <ele>1583.0</ele>
  <time>2026-09-02T20:50:21Z</time>
  <course>0.0</course>
  <speed>0.0</speed>
  <fix>3d</fix>
</trkpt>
<trkpt lat="40.0713749" lon="-105.229789">
  <ele>1583.0</ele>
  <time>2026-09-02T20:50:21Z</time>
  <course>0.0</course>
  <speed>0.0</speed>
  <fix>3d</fix>
</trkpt>
<trkpt lat="40.0713749" lon="-105.229789">
  <ele>1583.0</ele>
  <time>2026-09-02T20:50:21Z</time>
  <course>0.0</course>
  <speed>0.0</speed>
  <fix>3d</fix>
</trkpt>
<trkpt lat="40.0713749" lon="-105.229789">
  <ele>1583.0</ele>
  <time>2026-09-02T20:50:21Z</time>
  <course>0.0</course>
  <speed>0.0</speed>
  <fix>3d</fix>
</trkpt>
<trkpt lat="40.0713749" lon="-105.229789">
  <ele>1583.0</ele>
  <time>2026-09-02T20:50:21Z</time>
  <course>0.0</course>
  <speed>0.0</speed>
  <fix>3d</fix>
</trkpt>
<trkpt lat="40.0713749" lon="-105.229789">
  <ele>1583.0</ele>
  <time>2026-09-02T20:50:21Z</time>
  <course>0.0</course>
  <speed>0.0</speed>
  <fix>3d</fix>
</trkpt>
<trkpt lat="40.0713749" lon="-105.229789">
  <ele>1583.0</ele>
  <time>2026-09-02T20:50:21Z</time>
  <course>0.0</course>
  <speed>0.0</speed>
  <fix>3d</fix>
</trkpt>
<trkpt lat="40.0713749" lon="-105.229789">
  <ele>1583.0</ele>
  <time>2026-09-02T20:50:21Z</time>
  <course>0.0</course>
  <speed>0.0</speed>
  <fix>3d</fix>
</trkpt>
<trkpt lat="40.0713749" lon="-105.229789">
  <ele>1583.0</ele>
  <time>2026-09-02T20:50:21Z</time>
  <course>0.0</course>
  <speed>0.0</speed>
  <fix>3d</fix>
</trkpt>
<trkpt lat="40.0713749" lon="-105.229789">
  <ele>1583.0</ele>
  <time>2026-09-02T20:50:21Z</time>
  <course>0.0</course>
  <speed>0.0</speed>
  <fix>3d</fix>
</trkpt>
<trkpt lat="40.0713749" lon="-105.229789">
  <ele>1583.0</ele>
  <time>2026-09-02T20:50:21Z</time>
  <course>0.0</course>
  <speed>0.0</speed>
  <fix>3d</fix>
</trkpt>
<trkpt lat="40.0713749" lon="-105.229789">
  <ele>1583.0</ele>
  <time>2026-09-02T20:50:21Z</time>
  <course>0.0</course>
  <speed>0.0</speed>
  <fix>3d</fix>
</trkpt>
<trkpt lat="40.0713749" lon="-105.229789">
  <ele>1583.0</ele>
  <time>2026-09-02T20:50:21Z</time>
  <course>0.0</course>
  <speed>0.0</speed>
  <fix>3d</fix>
</trkpt>
<trkpt lat="40.0713749" lon="-105.229789">
  <ele>1583.0</ele>
  <time>2026-09-02T20:50:21Z</time>
  <course>0.0</course>
  <speed>0.0</speed>
  <fix>3d</fix>
</trkpt>
<trkpt lat="40.0713749" lon="-105.229789">
  <ele>1583.0</ele>
  <time>2026-09-02T20:50:21Z</time>
  <course>0.0</course>
  <speed>0.0</speed>
  <fix>3d</fix>
</trkpt>
<trkpt lat="40.0713749" lon="-105.229789">
  <ele>1583.0</ele>
  <time>2026-09-02T20:50:21Z</time>
  <course>0.0</course>
  <speed>0.0</speed>
  <fix>3d</fix>
</trkpt>
<trkpt lat="40.0713749" lon="-105.229789">
  <ele>1583.0</ele>
  <time>2026-09-02T20:50:21Z</time>
  <course>0.0</course>
  <speed>0.0</speed>
  <fix>3d</fix>
</trkpt>
<trkpt lat="40.0713749" lon="-105.229789">
  <ele>1583.0</ele>
  <time>2026-09-02T20:50:21Z</time>
  <course>0.0</course>
  <speed>0.0</speed>
  <fix>3d</fix>
</trkpt>
<trkpt lat="40.0713749" lon="-105.229789">
  <ele>1583.0</ele>
  <time>2026-09-02T20:50:21Z</time>
  <course>0.0</course>
  <speed>0.0</speed>
  <fix>3d</fix>
</trkpt>
<trkpt lat="40.0713749" lon="-105.229789">
  <ele>1583.0</ele>
  <time>2026-09-02T20:50:21Z</time>
  <course>0.0</course>
  <speed>0.0</speed>
  <fix>3d</fix>
</trkpt>
<trkpt lat="40.0713749" lon="-105.229789">
  <ele>1583.0</ele>
  <time>2026-09-02T20:50:21Z</time>
  <course>0.0</course>
  <speed>0.0</speed>
  <fix>3d</fix>
</trkpt>
<trkpt lat="40.0713749" lon="-105.229789">
  <ele>1583.0</ele>
  <time>2026-09-02T20:50:21Z</time>
  <course>0.0</course>
  <speed>0.0</speed>
  <fix>3d</fix>
</trkpt>
<trkpt lat="40.0713749" lon="-105.229789">
  <ele>1583.0</ele>
  <time>2026-09-02T20:50:21Z</time>
  <course>0.0</course>
  <speed>0.0</speed>
  <fix>3d</fix>
</trkpt>
<trkpt lat="40.0713749" lon="-105.229789">
  <ele>1583.0</ele>
  <time>2026-09-02T20:50:21Z</time>
  <course>0.0</course>
  <speed>0.0</speed>
  <fix>3d</fix>
</trkpt>
<trkpt lat="40.0713749" lon="-105.229789">
  <ele>1583.0</ele>
  <time>2026-09-02T20:50:21Z</time>
  <course>0.0</course>
  <speed>0.0</speed>
  <fix>3d</fix>
</trkpt>
<trkpt lat="40.0713749" lon="-105.229789">
  <ele>1583.0</ele>
  <time>2026-09-02T20:50:21Z</time>
  <course>0.0</course>
  <speed>0.0</speed>
  <fix>3d</fix>
</trkpt>
<trkpt lat="40.0713749" lon="-105.229789">
  <ele>1583.0</ele>
  <time>2026-09-02T20:50:21Z</time>
  <course>0.0</course>
  <speed>0.0</speed>
  <fix>3d</fix>
</trkpt>
<trkpt lat="40.0713749" lon="-105.229789">
  <ele>1583.0</ele>
  <time>2026-09-02T20:50:21Z</time>
  <course>0.0</course>
  <speed>0.0</speed>
  <fix>3d</fix>
</trkpt>
<trkpt lat="40.0713749" lon="-105.229789">
  <ele>1583.0</ele>
  <time>2026-09-02T20:50:21Z</time>
  <course>0.0</course>
  <speed>0.0</speed>
  <fix>3d</fix>
</trkpt>
<trkpt lat="40.0713749" lon="-105.229789">
  <ele>1583.0</ele>
  <time>2026-09-02T20:50:21Z</time>
  <course>0.0</course>
  <speed>0.0</speed>
  <fix>3d</fix>
</trkpt>
<trkpt lat="40.0713749" lon="-105.229789">
  <ele>1583.0</ele>
  <time>2026-09-02T20:50:21Z</time>
  <course>0.0</course>
  <speed>0.0</speed>
  <fix>3d</fix>
</trkpt>
<trkpt lat="40.0713749" lon="-105.229789">
  <ele>1583.0</ele>
  <time>2026-09-02T20:50:21Z</time>
  <course>0.0</course>
  <speed>0.0</speed>
  <fix>3d</fix>
</trkpt>
<trkpt lat="40.0713749" lon="-105.229789">
  <ele>1583.0</ele>
  <time>2026-09-02T20:50:21Z</time>
  <course>0.0</course>
  <speed>0.0</speed>
  <fix>3d</fix>
</trkpt>
<trkpt lat="40.0713749" lon="-105.229789">
  <ele>1583.0</ele>
  <time>2026-09-02T20:50:21Z</time>
  <course>0.0</course>
  <speed>0.0</speed>
  <fix>3d</fix>
</trkpt>
<trkpt lat="40.0713749" lon="-105.229789">
  <ele>1583.0</ele>
  <time>2026-09-02T20:50:21Z</time>
  <course>0.0</course>
  <speed>0.0</speed>
  <fix>3d</fix>
</trkpt>
<trkpt lat="40.0713749" lon="-105.229789">
  <ele>1583.0</ele>
  <time>2026-09-02T20:50:21Z</time>
  <course>0.0</course>
  <speed>0.0</speed>
  <fix>3d</fix>
</trkpt>
<trkpt lat="40.0713749" lon="-105.229789">
  <ele>1583.0</ele>
  <time>2026-09-02T20:50:21Z</time>
  <course>0.0</course>
  <speed>0.0</speed>
  <fix>3d</fix>
</trkpt>
<trkpt lat="40.0713749" lon="-105.229789">
  <ele>1583.0</ele>
  <time>2026-09-02T20:50:21Z</time>
  <course>0.0</course>
  <speed>0.0</speed>
  <fix>3d</fix>
</trkpt>
<trkpt lat="40.0713749" lon="-105.229789">
  <ele>1583.0</ele>
  <time>2026-09-02T20:50:21Z</time>
  <course>0.0</course>
  <speed>0.0</speed>
  <fix>3d</fix>
</trkpt>
<trkpt lat="40.0713749" lon="-105.229789">
  <ele>1583.0</ele>
  <time>2026-09-02T20:50:21Z</time>
  <course>0.0</course>
  <speed>0.0</speed>
  <fix>3d</fix>
</trkpt>
<trkpt lat="40.0713749" lon="-105.229789">
  <ele>1583.0</ele>
  <time>2026-09-02T20:50:21Z</time>
  <course>0.0</course>
  <speed>0.0</speed>
  <fix>3d</fix>
</trkpt>
<trkpt lat="40.0713749" lon="-105.229789">
  <ele>1583.0</ele>
  <time>2026-09-02T20:50:21Z</time>
  <course>0.0</course>
  <speed>0.0</speed>
  <fix>3d</fix>
</trkpt>
<trkpt lat="40.0713749" lon="-105.229789">
  <ele>1583.0</ele>
  <time>2026-09-02T20:50:21Z</time>
  <course>0.0</course>
  <speed>0.0</speed>
  <fix>3d</fix>
</trkpt>
<trkpt lat="40.0713749" lon="-105.229789">
  <ele>1583.0</ele>
  <time>2026-09-02T20:50:21Z</time>
  <course>0.0</course>
  <speed>0.0</speed>
  <fix>3d</fix>
</trkpt>
<trkpt lat="40.0713749" lon="-105.229789">
  <ele>1583.0</ele>
  <time>2026-09-02T20:50:21Z</time>
  <course>0.0</course>
  <speed>0.0</speed>
  <fix>3d</fix>
</trkpt>
<trkpt lat="40.0713749" lon="-105.229789">
  <ele>1583.0</ele>
  <time>2026-09-02T20:50:21Z</time>
  <course>0.0</course>
  <speed>0.0</speed>
  <fix>3d</fix>
</trkpt>
<trkpt lat="40.0713749" lon="-105.229789">
  <ele>1583.0</ele>
  <time>2026-09-02T20:50:21Z</time>
  <course>0.0</course>
  <speed>0.0</speed>
  <fix>3d</fix>
</trkpt>
<trkpt lat="40.0713749" lon="-105.229789">
  <ele>1583.0</ele>
  <time>2026-09-02T20:50:21Z</time>
  <course>0.0</course>
  <speed>0.0</speed>
  <fix>3d</fix>
</trkpt>
<trkpt lat="40.0713749" lon="-105.229789">
  <ele>1583.0</ele>
  <time>2026-09-02T20:50:21Z</time>
  <course>0.0</course>
  <speed>0.0</speed>
  <fix>3d</fix>
</trkpt>
<trkpt lat="40.0713749" lon="-105.229789">
  <ele>1583.0</ele>
  <time>2026-09-02T20:50:21Z</time>
  <course>0.0</course>
  <speed>0.0</speed>
  <fix>3d</fix>
</trkpt>
<trkpt lat="40.0713749" lon="-105.229789">
  <ele>1583.0</ele>
  <time>2026-09-02T20:50:21Z</time>
  <course>0.0</course>
  <speed>0.0</speed>
  <fix>3d</fix>
</trkpt>
<trkpt lat="40.0713749" lon="-105.229789">
  <ele>1583.0</ele>
  <time>2026-09-02T20:50:21Z</time>
  <course>0.0</course>
  <speed>0.0</speed>
  <fix>3d</fix>
</trkpt>
<trkpt lat="40.0713749" lon="-105.229789">
  <ele>1583.0</ele>
  <time>2026-09-02T20:50:21Z</time>
  <course>0.0</course>
  <speed>0.0</speed>
  <fix>3d</fix>
</trkpt>
<trkpt lat="40.0713749" lon="-105.229789">
  <ele>1583.0</ele>
  <time>2026-09-02T20:50:21Z</time>
  <course>0.0</course>
  <speed>0.0</speed>
  <fix>3d</fix>
</trkpt>
<trkpt lat="40.0713749" lon="-105.229789">
  <ele>1583.0</ele>
  <time>2026-09-02T20:50:21Z</time>
  <course>0.0</course>
  <speed>0.0</speed>
  <fix>3d</fix>
</trkpt>
<trkpt lat="40.0713749" lon="-105.229789">
  <ele>1583.0</ele>
  <time>2026-09-02T20:50:21Z</time>
  <course>0.0</course>
  <speed>0.0</speed>
  <fix>3d</fix>
</trkpt>
<trkpt lat="40.0713749" lon="-105.229789">
  <ele>1583.0</ele>
  <time>2026-09-02T20:50:21Z</time>
  <course>0.0</course>
  <speed>0.0</speed>
  <fix>3d</fix>
</trkpt>
<trkpt lat="40.0713749" lon="-105.229789">
  <ele>1583.0</ele>
  <time>2026-09-02T20:50:21Z</time>
  <course>0.0</course>
  <speed>0.0</speed>
  <fix>3d</fix>
</trkpt>
<trkpt lat="40.0713749" lon="-105.229789">
  <ele>1583.0</ele>
  <time>2026-09-02T20:50:21Z</time>
  <course>0.0</course>
  <speed>0.0</speed>
  <fix>3d</fix>
</trkpt>
<trkpt lat="40.0713749" lon="-105.229789">
  <ele>1583.0</ele>
  <time>2026-09-02T20:50:21Z</time>
  <course>0.0</course>
  <speed>0.0</speed>
  <fix>3d</fix>
</trkpt>
<trkpt lat="40.0713749" lon="-105.229789">
  <ele>1583.0</ele>
  <time>2026-09-02T20:50:21Z</time>
  <course>0.0</course>
  <speed>0.0</speed>
  <fix>3d</fix>
</trkpt>
<trkpt lat="40.0713749" lon="-105.229789">
  <ele>1583.0</ele>
  <time>2026-09-02T20:50:21Z</time>
  <course>0.0</course>
  <speed>0.0</speed>
  <fix>3d</fix>
</trkpt>
<trkpt lat="40.0713749" lon="-105.229789">
  <ele>1583.0</ele>
  <time>2026-09-02T20:50:21Z</time>
  <course>0.0</course>
  <speed>0.0</speed>
  <fix>3d</fix>
</trkpt>
<trkpt lat="40.0713749" lon="-105.229789">
  <ele>1583.0</ele>
  <time>2026-09-02T20:50:21Z</time>
  <course>0.0</course>
  <speed>0.0</speed>
  <fix>3d</fix>
</trkpt>
<trkpt lat="40.0713749" lon="-105.229789">
  <ele>1583.0</ele>
  <time>2026-09-02T20:50:21Z</time>
  <course>0.0</course>
  <speed>0.0</speed>
  <fix>3d</fix>
</trkpt>
<trkpt lat="40.0713749" lon="-105.229789">
  <ele>1583.0</ele>
  <time>2026-09-02T20:50:21Z</time>
  <course>0.0</course>
  <speed>0.0</speed>
  <fix>3d</fix>
</trkpt>
<trkpt lat="40.0713749" lon="-105.229789">
  <ele>1583.0</ele>
  <time>2026-09-02T20:50:21Z</time>
  <course>0.0</course>
  <speed>0.0</speed>
  <fix>3d</fix>
</trkpt>
<trkpt lat="40.0713749" lon="-105.229789">
  <ele>1583.0</ele>
  <time>2026-09-02T20:50:21Z</time>
  <course>0.0</course>
  <speed>0.0</speed>
  <fix>3d</fix>
</trkpt>
<trkpt lat="40.0713749" lon="-105.229789">
  <ele>1583.0</ele>
  <time>2026-09-02T20:50:21Z</time>
  <course>0.0</course>
  <speed>0.0</speed>
  <fix>3d</fix>
</trkpt>
<trkpt lat="40.0713749" lon="-105.229789">
  <ele>1583.0</ele>
  <time>2026-09-02T20:50:21Z</time>
  <course>0.0</course>
  <speed>0.0</speed>
  <fix>3d</fix>
</trkpt>
<trkpt lat="40.0713749" lon="-105.229789">
  <ele>1583.0</ele>
  <time>2026-09-02T20:50:21Z</time>
  <course>0.0</course>
  <speed>0.0</speed>
  <fix>3d</fix>
</trkpt>
<trkpt lat="40.0713749" lon="-105.229789">
  <ele>1583.0</ele>
  <time>2026-09-02T20:50:21Z</time>
  <course>0.0</course>
  <speed>0.0</speed>
  <fix>3d</fix>
</trkpt>
<trkpt lat="40.0713749" lon="-105.229789">
  <ele>1583.0</ele>
  <time>2026-09-02T20:50:21Z</time>
  <course>0.0</course>
  <speed>0.0</speed>
  <fix>3d</fix>
</trkpt>
<trkpt lat="40.0713749" lon="-105.229789">
  <ele>1583.0</ele>
  <time>2026-09-02T20:50:21Z</time>
  <course>0.0</course>
  <speed>0.0</speed>
  <fix>3d</fix>
</trkpt>
<trkpt lat="40.0713749" lon="-105.229789">
  <ele>1583.0</ele>
  <time>2026-09-02T20:50:21Z</time>
  <course>0.0</course>
  <speed>0.0</speed>
  <fix>3d</fix>
</trkpt>
<trkpt lat="40.0713749" lon="-105.229789">
  <ele>1583.0</ele>
  <time>2026-09-02T20:50:21Z</time>
  <course>0.0</course>
  <speed>0.0</speed>
  <fix>3d</fix>
</trkpt>
<trkpt lat="40.0713749" lon="-105.229789">
  <ele>1583.0</ele>
  <time>2026-09-02T20:50:21Z</time>
  <course>0.0</course>
  <speed>0.0</speed>
  <fix>3d</fix>
</trkpt>
<trkpt lat="40.0713749" lon="-105.229789">
  <ele>1583.0</ele>
  <time>2026-09-02T20:50:21Z</time>
  <course>0.0</course>
  <speed>0.0</speed>
  <fix>3d</fix>
</trkpt>
<trkpt lat="40.0713749" lon="-105.229789">
  <ele>1583.0</ele>
  <time>2026-09-02T20:50:21Z</time>
  <course>0.0</course>
  <speed>0.0</speed>
  <fix>3d</fix>
</trkpt>
<trkpt lat="40.0713749" lon="-105.229789">
  <ele>1583.0</ele>
  <time>2026-09-02T20:50:21Z</time>
  <course>0.0</course>
  <speed>0.0</speed>
  <fix>3d</fix>
</trkpt>
<trkpt lat="40.0713749" lon="-105.229789">
  <ele>1583.0</ele>
  <time>2026-09-02T20:50:21Z</time>
  <course>0.0</course>
  <speed>0.0</speed>
  <fix>3d</fix>
</trkpt>
<trkpt lat="40.0713749" lon="-105.229789">
  <ele>1583.0</ele>
  <time>2026-09-02T20:50:21Z</time>
  <course>0.0</course>
  <speed>0.0</speed>
  <fix>3d</fix>
</trkpt>
<trkpt lat="40.0713749" lon="-105.229789">
  <ele>1583.0</ele>
  <time>2026-09-02T20:50:21Z</time>
  <course>0.0</course>
  <speed>0.0</speed>
  <fix>3d</fix>
</trkpt>
<trkpt lat="40.0713749" lon="-105.229789">
  <ele>1583.0</ele>
  <time>2026-09-02T20:50:21Z</time>
  <course>0.0</course>
  <speed>0.0</speed>
  <fix>3d</fix>
</trkpt>
<trkpt lat="40.0713749" lon="-105.229789">
  <ele>1583.0</ele>
  <time>2026-09-02T20:50:21Z</time>
  <course>0.0</course>
  <speed>0.0</speed>
  <fix>3d</fix>
</trkpt>
<trkpt lat="40.0713749" lon="-105.229789">
  <ele>1583.0</ele>
  <time>2026-09-02T20:50:21Z</time>
  <course>0.0</course>
  <speed>0.0</speed>
  <fix>3d</fix>
</trkpt>
<trkpt lat="40.0713749" lon="-105.229789">
  <ele>1583.0</ele>
  <time>2026-09-02T20:50:21Z</time>
  <course>0.0</course>
  <speed>0.0</speed>
  <fix>3d</fix>
</trkpt>
<trkpt lat="40.0713749" lon="-105.229789">
  <ele>1583.0</ele>
  <time>2026-09-02T20:50:21Z</time>
  <course>0.0</course>
  <speed>0.0</speed>
  <fix>3d</fix>
</trkpt>
<trkpt lat="40.0713749" lon="-105.229789">
  <ele>1583.0</ele>
  <time>2026-09-02T20:50:21Z</time>
  <course>0.0</course>
  <speed>0.0</speed>
  <fix>3d</fix>
</trkpt>
<trkpt lat="40.0713749" lon="-105.229789">
  <ele>1583.0</ele>
  <time>2026-09-02T20:50:21Z</time>
  <course>0.0</course>
  <speed>0.0</speed>
  <fix>3d</fix>
</trkpt>
<trkpt lat="40.0713749" lon="-105.229789">
  <ele>1583.0</ele>
  <time>2026-09-02T20:50:21Z</time>
  <course>0.0</course>
  <speed>0.0</speed>
  <fix>3d</fix>
</trkpt>
<trkpt lat="40.0713749" lon="-105.229789">
  <ele>1583.0</ele>
  <time>2026-09-02T20:50:21Z</time>
  <course>0.0</course>
  <speed>0.0</speed>
  <fix>3d</fix>
</trkpt>
<trkpt lat="40.0713749" lon="-105.229789">
  <ele>1583.0</ele>
  <time>2026-09-02T20:50:21Z</time>
  <course>0.0</course>
  <speed>0.0</speed>
  <fix>3d</fix>
</trkpt>
<trkpt lat="40.0713749" lon="-105.229789">
  <ele>1583.0</ele>
  <time>2026-09-02T20:50:21Z</time>
  <course>0.0</course>
  <speed>0.0</speed>
  <fix>3d</fix>
</trkpt>
<trkpt lat="40.0713749" lon="-105.229789">
  <ele>1583.0</ele>
  <time>2026-09-02T20:50:21Z</time>
  <course>0.0</course>
  <speed>0.0</speed>
  <fix>3d</fix>
</trkpt>
<trkpt lat="40.0713749" lon="-105.229789">
  <ele>1583.0</ele>
  <time>2026-09-02T20:50:21Z</time>
  <course>0.0</course>
  <speed>0.0</speed>
  <fix>3d</fix>
</trkpt>
<trkpt lat="40.0713749" lon="-105.229789">
  <ele>1583.0</ele>
  <time>2026-09-02T20:50:21Z</time>
  <course>0.0</course>
  <speed>0.0</speed>
  <fix>3d</fix>
</trkpt>
<trkpt lat="40.0713749" lon="-105.229789">
  <ele>1583.0</ele>
  <time>2026-09-02T20:50:21Z</time>
  <course>0.0</course>
  <speed>0.0</speed>
  <fix>3d</fix>
</trkpt>
<trkpt lat="40.0713749" lon="-105.229789">
  <ele>1583.0</ele>
  <time>2026-09-02T20:50:21Z</time>
  <course>0.0</course>
  <speed>0.0</speed>
  <fix>3d</fix>
</trkpt>
<trkpt lat="40.0713749" lon="-105.229789">
  <ele>1583.0</ele>
  <time>2026-09-02T20:50:21Z</time>
  <course>0.0</course>
  <speed>0.0</speed>
  <fix>3d</fix>
</trkpt>
<trkpt lat="40.0713749" lon="-105.229789">
  <ele>1583.0</ele>
  <time>2026-09-02T20:50:21Z</time>
  <course>0.0</course>
  <speed>0.0</speed>
  <fix>3d</fix>
</trkpt>
<trkpt lat="40.0713749" lon="-105.229789">
  <ele>1583.0</ele>
  <time>2026-09-02T20:50:21Z</time>
  <course>0.0</course>
  <speed>0.0</speed>
  <fix>3d</fix>
</trkpt>
<trkpt lat="40.0713749" lon="-105.229789">
  <ele>1583.0</ele>
  <time>2026-09-02T20:50:21Z</time>
  <course>0.0</course>
  <speed>0.0</speed>
  <fix>3d</fix>
</trkpt>
<trkpt lat="40.0713749" lon="-105.229789">
  <ele>1583.0</ele>
  <time>2026-09-02T20:50:21Z</time>
  <course>0.0</course>
  <speed>0.0</speed>
  <fix>3d</fix>
</trkpt>
<trkpt lat="40.0713749" lon="-105.229789">
  <ele>1583.0</ele>
  <time>2026-09-02T20:50:21Z</time>
  <course>0.0</course>
  <speed>0.0</speed>
  <fix>3d</fix>
</trkpt>
<trkpt lat="40.0713749" lon="-105.229789">
  <ele>1583.0</ele>
  <time>2026-09-02T20:50:21Z</time>
  <course>0.0</course>
  <speed>0.0</speed>
  <fix>3d</fix>
</trkpt>
<trkpt lat="40.0713749" lon="-105.229789">
  <ele>1583.0</ele>
  <time>2026-09-02T20:50:21Z</time>
  <course>0.0</course>
  <speed>0.0</speed>
  <fix>3d</fix>
</trkpt>
<trkpt lat="40.0713749" lon="-105.229789">
  <ele>1583.0</ele>
  <time>2026-09-02T20:50:21Z</time>
  <course>0.0</course>
  <speed>0.0</speed>
  <fix>3d</fix>
</trkpt>
<trkpt lat="40.0713749" lon="-105.229789">
  <ele>1583.0</ele>
  <time>2026-09-02T20:50:21Z</time>
  <course>0.0</course>
  <speed>0.0</speed>
  <fix>3d</fix>
</trkpt>
<trkpt lat="40.0713749" lon="-105.229789">
  <ele>1583.0</ele>
  <time>2026-09-02T20:50:21Z</time>
  <course>0.0</course>
  <speed>0.0</speed>
  <fix>3d</fix>
</trkpt>
<trkpt lat="40.0713749" lon="-105.229789">
  <ele>1583.0</ele>
  <time>2026-09-02T20:50:21Z</time>
  <course>0.0</course>
  <speed>0.0</speed>
  <fix>3d</fix>
</trkpt>
<trkpt lat="40.0713749" lon="-105.229789">
  <ele>1583.0</ele>
  <time>2026-09-02T20:50:21Z</time>
  <course>0.0</course>
  <speed>0.0</speed>
  <fix>3d</fix>
</trkpt>
<trkpt lat="40.0713749" lon="-105.229789">
  <ele>1583.0</ele>
  <time>2026-09-02T20:50:21Z</time>
  <course>0.0</course>
  <speed>0.0</speed>
  <fix>3d</fix>
</trkpt>
<trkpt lat="40.0713749" lon="-105.229789">
  <ele>1583.0</ele>
  <time>2026-09-02T20:50:21Z</time>
  <course>0.0</course>
  <speed>0.0</speed>
  <fix>3d</fix>
</trkpt>
<trkpt lat="40.0713749" lon="-105.229789">
  <ele>1583.0</ele>
  <time>2026-09-02T20:50:21Z</time>
  <course>0.0</course>
  <speed>0.0</speed>
  <fix>3d</fix>
</trkpt>
<trkpt lat="40.0713749" lon="-105.229789">
  <ele>1583.0</ele>
  <time>2026-09-02T20:50:21Z</time>
  <course>0.0</course>
  <speed>0.0</speed>
  <fix>3d</fix>
</trkpt>
<trkpt lat="40.0713749" lon="-105.229789">
  <ele>1583.0</ele>
  <time>2026-09-02T20:50:21Z</time>
  <course>0.0</course>
  <speed>0.0</speed>
  <fix>3d</fix>
</trkpt>
<trkpt lat="40.0713749" lon="-105.229789">
  <ele>1583.0</ele>
  <time>2026-09-02T20:50:21Z</time>
  <course>0.0</course>
  <speed>0.0</speed>
  <fix>3d</fix>
</trkpt>
<trkpt lat="40.0713749" lon="-105.229789">
  <ele>1583.0</ele>
  <time>2026-09-02T20:50:21Z</time>
  <course>0.0</course>
  <speed>0.0</speed>
  <fix>3d</fix>
</trkpt>
<trkpt lat="40.0713749" lon="-105.229789">
  <ele>1583.0</ele>
  <time>2026-09-02T20:50:21Z</time>
  <course>0.0</course>
  <speed>0.0</speed>
  <fix>3d</fix>
</trkpt>
<trkpt lat="40.0713749" lon="-105.229789">
  <ele>1583.0</ele>
  <time>2026-09-02T20:50:21Z</time>
  <course>0.0</course>
  <speed>0.0</speed>
  <fix>3d</fix>
</trkpt>
<trkpt lat="40.0713749" lon="-105.229789">
  <ele>1583.0</ele>
  <time>2026-09-02T20:50:21Z</time>
  <course>0.0</course>
  <speed>0.0</speed>
  <fix>3d</fix>
</trkpt>
<trkpt lat="40.0713749" lon="-105.229789">
  <ele>1583.0</ele>
  <time>2026-09-02T20:50:21Z</time>
  <course>0.0</course>
  <speed>0.0</speed>
  <fix>3d</fix>
</trkpt>
<trkpt lat="40.0713749" lon="-105.229789">
  <ele>1583.0</ele>
  <time>2026-09-02T20:50:21Z</time>
  <course>0.0</course>
  <speed>0.0</speed>
  <fix>3d</fix>
</trkpt>
<trkpt lat="40.0713749" lon="-105.229789">
  <ele>1583.0</ele>
  <time>2026-09-02T20:50:21Z</time>
  <course>0.0</course>
  <speed>0.0</speed>
  <fix>3d</fix>
</trkpt>
<trkpt lat="40.0713749" lon="-105.229789">
  <ele>1583.0</ele>
  <time>2026-09-02T20:50:21Z</time>
  <course>0.0</course>
  <speed>0.0</speed>
  <fix>3d</fix>
</trkpt>
<trkpt lat="40.0713749" lon="-105.229789">
  <ele>1583.0</ele>
  <time>2026-09-02T20:50:21Z</time>
  <course>0.0</course>
  <speed>0.0</speed>
  <fix>3d</fix>
</trkpt>
<trkpt lat="40.0713749" lon="-105.229789">
  <ele>1583.0</ele>
  <time>2026-09-02T20:50:21Z</time>
  <course>0.0</course>
  <speed>0.0</speed>
  <fix>3d</fix>
</trkpt>
<trkpt lat="40.0713749" lon="-105.229789">
  <ele>1583.0</ele>
  <time>2026-09-02T20:50:21Z</time>
  <course>0.0</course>
  <speed>0.0</speed>
  <fix>3d</fix>
</trkpt>
<trkpt lat="40.0713749" lon="-105.229789">
  <ele>1583.0</ele>
  <time>2026-09-02T20:50:21Z</time>
  <course>0.0</course>
  <speed>0.0</speed>
  <fix>3d</fix>
</trkpt>
<trkpt lat="40.0713749" lon="-105.229789">
  <ele>1583.0</ele>
  <time>2026-09-02T20:50:21Z</time>
  <course>0.0</course>
  <speed>0.0</speed>
  <fix>3d</fix>
</trkpt>
<trkpt lat="40.0713749" lon="-105.229789">
  <ele>1583.0</ele>
  <time>2026-09-02T20:50:21Z</time>
  <course>0.0</course>
  <speed>0.0</speed>
  <fix>3d</fix>
</trkpt>
<trkpt lat="40.0713749" lon="-105.229789">
  <ele>1583.0</ele>
  <time>2026-09-02T20:50:21Z</time>
  <course>0.0</course>
  <speed>0.0</speed>
  <fix>3d</fix>
</trkpt>
<trkpt lat="40.0713749" lon="-105.229789">
  <ele>1583.0</ele>
  <time>2026-09-02T20:50:21Z</time>
  <course>0.0</course>
  <speed>0.0</speed>
  <fix>3d</fix>
</trkpt>
<trkpt lat="40.0713749" lon="-105.229789">
  <ele>1583.0</ele>
  <time>2026-09-02T20:50:21Z</time>
  <course>0.0</course>
  <speed>0.0</speed>
  <fix>3d</fix>
</trkpt>
<trkpt lat="40.0713749" lon="-105.229789">
  <ele>1583.0</ele>
  <time>2026-09-02T20:50:21Z</time>
  <course>0.0</course>
  <speed>0.0</speed>
  <fix>3d</fix>
</trkpt>
<trkpt lat="40.0713749" lon="-105.229789">
  <ele>1583.0</ele>
  <time>2026-09-02T20:50:21Z</time>
  <course>0.0</course>
  <speed>0.0</speed>
  <fix>3d</fix>
</trkpt>
<trkpt lat="40.0713749" lon="-105.229789">
  <ele>1583.0</ele>
  <time>2026-09-02T20:50:21Z</time>
  <course>0.0</course>
  <speed>0.0</speed>
  <fix>3d</fix>
</trkpt>
<trkpt lat="40.0713749" lon="-105.229789">
  <ele>1583.0</ele>
  <time>2026-09-02T20:50:21Z</time>
  <course>0.0</course>
  <speed>0.0</speed>
  <fix>3d</fix>
</trkpt>
<trkpt lat="40.0713749" lon="-105.229789">
  <ele>1583.0</ele>
  <time>2026-09-02T20:50:21Z</time>
  <course>0.0</course>
  <speed>0.0</speed>
  <fix>3d</fix>
</trkpt>
<trkpt lat="40.0713749" lon="-105.229789">
  <ele>1583.0</ele>
  <time>2026-09-02T20:50:21Z</time>
  <course>0.0</course>
  <speed>0.0</speed>
  <fix>3d</fix>
</trkpt>
<trkpt lat="40.0713749" lon="-105.229789">
  <ele>1583.0</ele>
  <time>2026-09-02T20:50:21Z</time>
  <course>0.0</course>
  <speed>0.0</speed>
  <fix>3d</fix>
</trkpt>
<trkpt lat="40.0713749" lon="-105.229789">
  <ele>1583.0</ele>
  <time>2026-09-02T20:50:21Z</time>
  <course>0.0</course>
  <speed>0.0</speed>
  <fix>3d</fix>
</trkpt>
<trkpt lat="40.0713749" lon="-105.229789">
  <ele>1583.0</ele>
  <time>2026-09-02T20:50:21Z</time>
  <course>0.0</course>
  <speed>0.0</speed>
  <fix>3d</fix>
</trkpt>
<trkpt lat="40.0713749" lon="-105.229789">
  <ele>1583.0</ele>
  <time>2026-09-02T20:50:21Z</time>
  <course>0.0</course>
  <speed>0.0</speed>
  <fix>3d</fix>
</trkpt>
<trkpt lat="40.0713749" lon="-105.229789">
  <ele>1583.0</ele>
  <time>2026-09-02T20:50:21Z</time>
  <course>0.0</course>
  <speed>0.0</speed>
  <fix>3d</fix>
</trkpt>
<trkpt lat="40.0713749" lon="-105.229789">
  <ele>1583.0</ele>
  <time>2026-09-02T20:50:21Z</time>
  <course>0.0</course>
  <speed>0.0</speed>
  <fix>3d</fix>
</trkpt>
<trkpt lat="40.0713749" lon="-105.229789">
  <ele>1583.0</ele>
  <time>2026-09-02T20:50:21Z</time>
  <course>0.0</course>
  <speed>0.0</speed>
  <fix>3d</fix>
</trkpt>
<trkpt lat="40.0713749" lon="-105.229789">
  <ele>1583.0</ele>
  <time>2026-09-02T20:50:21Z</time>
  <course>0.0</course>
  <speed>0.0</speed>
  <fix>3d</fix>
</trkpt>
<trkpt lat="40.0713749" lon="-105.229789">
  <ele>1583.0</ele>
  <time>2026-09-02T20:50:21Z</time>
  <course>0.0</course>
  <speed>0.0</speed>
  <fix>3d</fix>
</trkpt>
<trkpt lat="40.0713749" lon="-105.229789">
  <ele>1583.0</ele>
  <time>2026-09-02T20:50:21Z</time>
  <course>0.0</course>
  <speed>0.0</speed>
  <fix>3d</fix>
</trkpt>
<trkpt lat="40.0713749" lon="-105.229789">
  <ele>1583.0</ele>
  <time>2026-09-02T20:50:21Z</time>
  <course>0.0</course>
  <speed>0.0</speed>
  <fix>3d</fix>
</trkpt>
<trkpt lat="40.0713749" lon="-105.229789">
  <ele>1583.0</ele>
  <time>2026-09-02T20:50:21Z</time>
  <course>0.0</course>
  <speed>0.0</speed>
  <fix>3d</fix>
</trkpt>
<trkpt lat="40.0713749" lon="-105.229789">
  <ele>1583.0</ele>
  <time>2026-09-02T20:50:21Z</time>
  <course>0.0</course>
  <speed>0.0</speed>
  <fix>3d</fix>
</trkpt>
<trkpt lat="40.0713749" lon="-105.229789">
  <ele>1583.0</ele>
  <time>2026-09-02T20:50:21Z</time>
  <course>0.0</course>
  <speed>0.0</speed>
  <fix>3d</fix>
</trkpt>
<trkpt lat="40.0713749" lon="-105.229789">
  <ele>1583.0</ele>
  <time>2026-09-02T20:50:21Z</time>
  <course>0.0</course>
  <speed>0.0</speed>
  <fix>3d</fix>
</trkpt>
<trkpt lat="40.0713749" lon="-105.229789">
  <ele>1583.0</ele>
  <time>2026-09-02T20:50:21Z</time>
  <course>0.0</course>
  <speed>0.0</speed>
  <fix>3d</fix>
</trkpt>
<trkpt lat="40.0713749" lon="-105.229789">
  <ele>1583.0</ele>
  <time>2026-09-02T20:50:21Z</time>
  <course>0.0</course>
  <speed>0.0</speed>
  <fix>3d</fix>
</trkpt>
<trkpt lat="40.0713749" lon="-105.229789">
  <ele>1583.0</ele>
  <time>2026-09-02T20:50:21Z</time>
  <course>0.0</course>
  <speed>0.0</speed>
  <fix>3d</fix>
</trkpt>
<trkpt lat="40.0713749" lon="-105.229789">
  <ele>1583.0</ele>
  <time>2026-09-02T20:50:21Z</time>
  <course>0.0</course>
  <speed>0.0</speed>
  <fix>3d</fix>
</trkpt>
<trkpt lat="40.0713749" lon="-105.229789">
  <ele>1583.0</ele>
  <time>2026-09-02T20:50:21Z</time>
  <course>0.0</course>
  <speed>0.0</speed>
  <fix>3d</fix>
</trkpt>
<trkpt lat="40.0713749" lon="-105.229789">
  <ele>1583.0</ele>
  <time>2026-09-02T20:50:21Z</time>
  <course>7.19</course>
  <speed>0.0</speed>
  <fix>3d</fix>
</trkpt>
<trkpt lat="40.0713749" lon="-105.229789">
  <ele>1583.0</ele>
  <time>2026-09-02T20:50:21Z</time>
  <course>0.0</course>
  <speed>0.0</speed>
  <fix>3d</fix>
</trkpt>
<trkpt lat="40.0713749" lon="-105.229789">
  <ele>1583.0</ele>
  <time>2026-09-02T20:50:21Z</time>
  <course>19.19</course>
  <speed>0.0</speed>
  <fix>3d</fix>
</trkpt>
<trkpt lat="40.0713749" lon="-105.229789">
  <ele>1583.0</ele>
  <time>2026-09-02T20:50:21Z</time>
  <course>0.0</course>
  <speed>0.0</speed>
  <fix>3d</fix>
</trkpt>
<trkpt lat="40.0713749" lon="-105.229789">
  <ele>1583.0</ele>
  <time>2026-09-02T20:50:21Z</time>
  <course>31.18</course>
  <speed>0.0</speed>
  <fix>3d</fix>
</trkpt>
<trkpt lat="40.0713749" lon="-105.229789">
  <ele>1583.0</ele>
  <time>2026-09-02T20:50:21Z</time>
  <course>0.0</course>
  <speed>0.0</speed>
  <fix>3d</fix>
</trkpt>
<trkpt lat="40.0713749" lon="-105.229789">
  <ele>1583.0</ele>
  <time>2026-09-02T20:50:21Z</time>
  <course>40.88</course>
  <speed>0.0</speed>
  <fix>3d</fix>
</trkpt>
<trkpt lat="40.0713749" lon="-105.229789">
  <ele>1583.0</ele>
  <time>2026-09-02T20:50:21Z</time>
  <course>0.0</course>
  <speed>0.0</speed>
  <fix>3d</fix>
</trkpt>
<trkpt lat="40.0713749" lon="-105.229789">
  <ele>1583.0</ele>
  <time>2026-09-02T20:50:21Z</time>
  <course>52.87</course>
  <speed>0.0</speed>
  <fix>3d</fix>
</trkpt>
<trkpt lat="40.0713749" lon="-105.229789">
  <ele>1583.0</ele>
  <time>2026-09-02T20:50:21Z</time>
  <course>0.0</course>
  <speed>0.0</speed>
  <fix>3d</fix>
</trkpt>
<trkpt lat="40.0713749" lon="-105.229789">
  <ele>1583.0</ele>
  <time>2026-09-02T20:50:21Z</time>
  <course>64.87</course>
  <speed>0.0</speed>
  <fix>3d</fix>
</trkpt>
<trkpt lat="40.0713749" lon="-105.229789">
  <ele>1583.0</ele>
  <time>2026-09-02T20:50:21Z</time>
  <course>0.0</course>
  <speed>0.0</speed>
  <fix>3d</fix>
</trkpt>
<trkpt lat="40.0713749" lon="-105.229789">
  <ele>1583.0</ele>
  <time>2026-09-02T20:50:21Z</time>
  <course>76.86</course>
  <speed>0.0</speed>
  <fix>3d</fix>
</trkpt>
<trkpt lat="40.0713749" lon="-105.229789">
  <ele>1583.0</ele>
  <time>2026-09-02T20:50:21Z</time>
  <course>0.0</course>
  <speed>0.0</speed>
  <fix>3d</fix>
</trkpt>
<trkpt lat="40.0713749" lon="-105.229789">
  <ele>1583.0</ele>
  <time>2026-09-02T20:50:21Z</time>
  <course>88.86</course>
  <speed>0.0</speed>
  <fix>3d</fix>
</trkpt>
<trkpt lat="40.0713749" lon="-105.229789">
  <ele>1583.0</ele>
  <time>2026-09-02T20:50:21Z</time>
  <course>0.0</course>
  <speed>0.0</speed>
  <fix>3d</fix>
</trkpt>
<trkpt lat="40.0713749" lon="-105.229789">
  <ele>1583.0</ele>
  <time>2026-09-02T20:50:21Z</time>
  <course>100.85</course>
  <speed>0.0</speed>
  <fix>3d</fix>
</trkpt>
<trkpt lat="40.0713749" lon="-105.229789">
  <ele>1583.0</ele>
  <time>2026-09-02T20:50:21Z</time>
  <course>0.0</course>
  <speed>0.0</speed>
  <fix>3d</fix>
</trkpt>
<trkpt lat="40.0713749" lon="-105.229789">
  <ele>1583.0</ele>
  <time>2026-09-02T20:50:21Z</time>
  <course>112.85</course>
  <speed>0.0</speed>
  <fix>3d</fix>
</trkpt>
<trkpt lat="40.0713749" lon="-105.229789">
  <ele>1583.0</ele>
  <time>2026-09-02T20:50:21Z</time>
  <course>0.0</course>
  <speed>0.0</speed>
  <fix>3d</fix>
</trkpt>
<trkpt lat="40.0713749" lon="-105.229789">
  <ele>1583.0</ele>
  <time>2026-09-02T20:50:21Z</time>
  <course>124.85</course>
  <speed>0.0</speed>
  <fix>3d</fix>
</trkpt>
<trkpt lat="40.0713749" lon="-105.229789">
  <ele>1583.0</ele>
  <time>2026-09-02T20:50:21Z</time>
  <course>0.0</course>
  <speed>0.0</speed>
  <fix>3d</fix>
</trkpt>
<trkpt lat="40.0713749" lon="-105.229789">
  <ele>1583.0</ele>
  <time>2026-09-02T20:50:21Z</time>
  <course>136.84</course>
  <speed>0.0</speed>
  <fix>3d</fix>
</trkpt>
<trkpt lat="40.0713749" lon="-105.229789">
  <ele>1583.0</ele>
  <time>2026-09-02T20:50:21Z</time>
  <course>0.0</course>
  <speed>0.0</speed>
  <fix>3d</fix>
</trkpt>
<trkpt lat="40.0713749" lon="-105.229789">
  <ele>1583.0</ele>
  <time>2026-09-02T20:50:21Z</time>
  <course>148.84</course>
  <speed>0.0</speed>
  <fix>3d</fix>
</trkpt>
<trkpt lat="40.0713749" lon="-105.229789">
  <ele>1583.0</ele>
  <time>2026-09-02T20:50:21Z</time>
  <course>0.0</course>
  <speed>0.0</speed>
  <fix>3d</fix>
</trkpt>
<trkpt lat="40.0713749" lon="-105.229789">
  <ele>1583.0</ele>
  <time>2026-09-02T20:50:21Z</time>
  <course>163.23</course>
  <speed>0.0</speed>
  <fix>3d</fix>
</trkpt>
<trkpt lat="40.0713749" lon="-105.229789">
  <ele>1583.0</ele>
  <time>2026-09-02T20:50:21Z</time>
  <course>0.0</course>
  <speed>0.0</speed>
  <fix>3d</fix>
</trkpt>
<trkpt lat="40.0713749" lon="-105.229789">
  <ele>1583.0</ele>
  <time>2026-09-02T20:50:21Z</time>
  <course>175.23</course>
  <speed>0.0</speed>
  <fix>3d</fix>
</trkpt>
<trkpt lat="40.0713749" lon="-105.229789">
  <ele>1583.0</ele>
  <time>2026-09-02T20:50:21Z</time>
  <course>0.0</course>
  <speed>0.0</speed>
  <fix>3d</fix>
</trkpt>
<trkpt lat="40.0713749" lon="-105.229789">
  <ele>1583.0</ele>
  <time>2026-09-02T20:50:21Z</time>
  <course>187.23</course>
  <speed>0.0</speed>
  <fix>3d</fix>
</trkpt>
<trkpt lat="40.0713749" lon="-105.229789">
  <ele>1583.0</ele>
  <time>2026-09-02T20:50:21Z</time>
  <course>0.0</course>
  <speed>0.0</speed>
  <fix>3d</fix>
</trkpt>
<trkpt lat="40.0713749" lon="-105.229789">
  <ele>1583.0</ele>
  <time>2026-09-02T20:50:21Z</time>
  <course>199.23</course>
  <speed>0.0</speed>
  <fix>3d</fix>
</trkpt>
<trkpt lat="40.0713749" lon="-105.229789">
  <ele>1583.0</ele>
  <time>2026-09-02T20:50:21Z</time>
  <course>0.0</course>
  <speed>0.0</speed>
  <fix>3d</fix>
</trkpt>
<trkpt lat="40.0713749" lon="-105.229789">
  <ele>1583.0</ele>
  <time>2026-09-02T20:50:21Z</time>
  <course>211.22</course>
  <speed>0.0</speed>
  <fix>3d</fix>
</trkpt>
<trkpt lat="40.0713749" lon="-105.229789">
  <ele>1583.0</ele>
  <time>2026-09-02T20:50:21Z</time>
  <course>0.0</course>
  <speed>0.0</speed>
  <fix>3d</fix>
</trkpt>
<trkpt lat="40.0713749" lon="-105.229789">
  <ele>1583.0</ele>
  <time>2026-09-02T20:50:21Z</time>
  <course>223.22</course>
  <speed>0.0</speed>
  <fix>3d</fix>
</trkpt>
<trkpt lat="40.0713749" lon="-105.229789">
  <ele>1583.0</ele>
  <time>2026-09-02T20:50:21Z</time>
  <course>0.0</course>
  <speed>0.0</speed>
  <fix>3d</fix>
</trkpt>
<trkpt lat="40.0713749" lon="-105.229789">
  <ele>1583.0</ele>
  <time>2026-09-02T20:50:21Z</time>
  <course>235.21</course>
  <speed>0.0</speed>
  <fix>3d</fix>
</trkpt>
<trkpt lat="40.0713749" lon="-105.229789">
  <ele>1583.0</ele>
  <time>2026-09-02T20:50:21Z</time>
  <course>0.0</course>
  <speed>0.0</speed>
  <fix>3d</fix>
</trkpt>
<trkpt lat="40.0713749" lon="-105.229789">
  <ele>1583.0</ele>
  <time>2026-09-02T20:50:21Z</time>
  <course>247.21</course>
  <speed>0.0</speed>
  <fix>3d</fix>
</trkpt>
<trkpt lat="40.0713749" lon="-105.229789">
  <ele>1583.0</ele>
  <time>2026-09-02T20:50:21Z</time>
  <course>0.0</course>
  <speed>0.0</speed>
  <fix>3d</fix>
</trkpt>
<trkpt lat="40.0713749" lon="-105.229789">
  <ele>1583.0</ele>
  <time>2026-09-02T20:50:21Z</time>
  <course>259.21</course>
  <speed>0.0</speed>
  <fix>3d</fix>
</trkpt>
<trkpt lat="40.0713749" lon="-105.229789">
  <ele>1583.0</ele>
  <time>2026-09-02T20:50:21Z</time>
  <course>0.0</course>
  <speed>0.0</speed>
  <fix>3d</fix>
</trkpt>
<trkpt lat="40.0713749" lon="-105.229789">
  <ele>1583.0</ele>
  <time>2026-09-02T20:50:21Z</time>
  <course>271.2</course>
  <speed>0.0</speed>
  <fix>3d</fix>
</trkpt>
<trkpt lat="40.0713749" lon="-105.229789">
  <ele>1583.0</ele>
  <time>2026-09-02T20:50:21Z</time>
  <course>0.0</course>
  <speed>0.0</speed>
  <fix>3d</fix>
</trkpt>
<trkpt lat="40.0713749" lon="-105.229789">
  <ele>1583.0</ele>
  <time>2026-09-02T20:50:21Z</time>
  <course>283.3</course>
  <speed>0.0</speed>
  <fix>3d</fix>
</trkpt>
<trkpt lat="40.0713749" lon="-105.229789">
  <ele>1583.0</ele>
  <time>2026-09-02T20:50:21Z</time>
  <course>0.0</course>
  <speed>0.0</speed>
  <fix>3d</fix>
</trkpt>
<trkpt lat="40.0713749" lon="-105.229789">
  <ele>1583.0</ele>
  <time>2026-09-02T20:50:21Z</time>
  <course>292.89</course>
  <speed>0.0</speed>
  <fix>3d</fix>
</trkpt>
<trkpt lat="40.0713749" lon="-105.229789">
  <ele>1583.0</ele>
  <time>2026-09-02T20:50:21Z</time>
  <course>0.0</course>
  <speed>0.0</speed>
  <fix>3d</fix>
</trkpt>
<trkpt lat="40.0713749" lon="-105.229789">
  <ele>1583.0</ele>
  <time>2026-09-02T20:50:21Z</time>
  <course>304.89</course>
  <speed>0.0</speed>
  <fix>3d</fix>
</trkpt>
<trkpt lat="40.0713749" lon="-105.229789">
  <ele>1583.0</ele>
  <time>2026-09-02T20:50:21Z</time>
  <course>0.0</course>
  <speed>0.0</speed>
  <fix>3d</fix>
</trkpt>
<trkpt lat="40.0713749" lon="-105.229789">
  <ele>1583.0</ele>
  <time>2026-09-02T20:50:21Z</time>
  <course>316.88</course>
  <speed>0.0</speed>
  <fix>3d</fix>
</trkpt>
<trkpt lat="40.0713749" lon="-105.229789">
  <ele>1583.0</ele>
  <time>2026-09-02T20:50:21Z</time>
  <course>0.0</course>
  <speed>0.0</speed>
  <fix>3d</fix>
</trkpt>
<trkpt lat="40.0713749" lon="-105.229789">
  <ele>1583.0</ele>
  <time>2026-09-02T20:50:21Z</time>
  <course>328.88</course>
  <speed>0.0</speed>
  <fix>3d</fix>
</trkpt>
<trkpt lat="40.0713749" lon="-105.229789">
  <ele>1583.0</ele>
  <time>2026-09-02T20:50:21Z</time>
  <course>0.0</course>
  <speed>0.0</speed>
  <fix>3d</fix>
</trkpt>
<trkpt lat="40.0713749" lon="-105.229789">
  <ele>1583.0</ele>
  <time>2026-09-02T20:50:21Z</time>
  <course>340.87</course>
  <speed>0.0</speed>
  <fix>3d</fix>
</trkpt>
<trkpt lat="40.0713749" lon="-105.229789">
  <ele>1583.0</ele>
  <time>2026-09-02T20:50:21Z</time>
  <course>0.0</course>
  <speed>0.0</speed>
  <fix>3d</fix>
</trkpt>
<trkpt lat="40.0713749" lon="-105.229789">
  <ele>1583.0</ele>
  <time>2026-09-02T20:50:21Z</time>
  <course>352.87</course>
  <speed>0.0</speed>
  <fix>3d</fix>
</trkpt>
<trkpt lat="40.0713749" lon="-105.229789">
  <ele>1583.0</ele>
  <time>2026-09-02T20:50:21Z</time>
  <course>0.0</course>
  <speed>0.0</speed>
  <fix>3d</fix>
</trkpt>
<trkpt lat="40.0713749" lon="-105.229789">
  <ele>1583.0</ele>
  <time>2026-09-02T20:50:21Z</time>
  <course>4.85</course>
  <speed>0.0</speed>
  <fix>3d</fix>
</trkpt>
<trkpt lat="40.0713749" lon="-105.229789">
  <ele>1583.0</ele>
  <time>2026-09-02T20:50:21Z</time>
  <course>0.0</course>
  <speed>0.0</speed>
  <fix>3d</fix>
</trkpt>
<trkpt lat="40.0713749" lon="-105.229789">
  <ele>1583.0</ele>
  <time>2026-09-02T20:50:21Z</time>
  <course>16.85</course>
  <speed>0.0</speed>
  <fix>3d</fix>
</trkpt>
<trkpt lat="40.0713749" lon="-105.229789">
  <ele>1583.0</ele>
  <time>2026-09-02T20:50:21Z</time>
  <course>0.0</course>
  <speed>0.0</speed>
  <fix>3d</fix>
</trkpt>
<trkpt lat="40.0713749" lon="-105.229789">
  <ele>1583.0</ele>
  <time>2026-09-02T20:50:21Z</time>
  <course>28.84</course>
  <speed>0.0</speed>
  <fix>3d</fix>
</trkpt>
<trkpt lat="40.0713749" lon="-105.229789">
  <ele>1583.0</ele>
  <time>2026-09-02T20:50:21Z</time>
  <course>0.0</course>
  <speed>0.0</speed>
  <fix>3d</fix>
</trkpt>
<trkpt lat="40.0713749" lon="-105.229789">
  <ele>1583.0</ele>
  <time>2026-09-02T20:50:21Z</time>
  <course>43.24</course>
  <speed>0.0</speed>
  <fix>3d</fix>
</trkpt>
<trkpt lat="40.0713749" lon="-105.229789">
  <ele>1583.0</ele>
  <time>2026-09-02T20:50:21Z</time>
  <course>0.0</course>
  <speed>0.0</speed>
  <fix>3d</fix>
</trkpt>
<trkpt lat="40.0713749" lon="-105.229789">
  <ele>1583.0</ele>
  <time>2026-09-02T20:50:21Z</time>
  <course>55.23</course>
  <speed>0.0</speed>
  <fix>3d</fix>
</trkpt>
<trkpt lat="40.0713749" lon="-105.229789">
  <ele>1583.0</ele>
  <time>2026-09-02T20:50:21Z</time>
  <course>0.0</course>
  <speed>0.0</speed>
  <fix>3d</fix>
</trkpt>
<trkpt lat="40.0713749" lon="-105.229789">
  <ele>1583.0</ele>
  <time>2026-09-02T20:50:21Z</time>
  <course>67.23</course>
  <speed>0.0</speed>
  <fix>3d</fix>
</trkpt>
<trkpt lat="40.0713749" lon="-105.229789">
  <ele>1583.0</ele>
  <time>2026-09-02T20:50:21Z</time>
  <course>0.0</course>
  <speed>0.0</speed>
  <fix>3d</fix>
</trkpt>
<trkpt lat="40.0713749" lon="-105.229789">
  <ele>1583.0</ele>
  <time>2026-09-02T20:50:21Z</time>
  <course>79.22</course>
  <speed>0.0</speed>
  <fix>3d</fix>
</trkpt>
<trkpt lat="40.0713749" lon="-105.229789">
  <ele>1583.0</ele>
  <time>2026-09-02T20:50:21Z</time>
  <course>0.0</course>
  <speed>0.0</speed>
  <fix>3d</fix>
</trkpt>
<trkpt lat="40.0713749" lon="-105.229789">
  <ele>1583.0</ele>
  <time>2026-09-02T20:50:21Z</time>
  <course>91.22</course>
  <speed>0.0</speed>
  <fix>3d</fix>
</trkpt>
<trkpt lat="40.0713749" lon="-105.229789">
  <ele>1583.0</ele>
  <time>2026-09-02T20:50:21Z</time>
  <course>0.0</course>
  <speed>0.0</speed>
  <fix>3d</fix>
</trkpt>
<trkpt lat="40.0713749" lon="-105.229789">
  <ele>1583.0</ele>
  <time>2026-09-02T20:50:21Z</time>
  <course>103.21</course>
  <speed>0.0</speed>
  <fix>3d</fix>
</trkpt>
<trkpt lat="40.0713749" lon="-105.229789">
  <ele>1583.0</ele>
  <time>2026-09-02T20:50:21Z</time>
  <course>0.0</course>
  <speed>0.0</speed>
  <fix>3d</fix>
</trkpt>
<trkpt lat="40.0713749" lon="-105.229789">
  <ele>1583.0</ele>
  <time>2026-09-02T20:50:21Z</time>
  <course>115.21</course>
  <speed>0.0</speed>
  <fix>3d</fix>
</trkpt>
<trkpt lat="40.0713749" lon="-105.229789">
  <ele>1583.0</ele>
  <time>2026-09-02T20:50:21Z</time>
  <course>0.0</course>
  <speed>0.0</speed>
  <fix>3d</fix>
</trkpt>
<trkpt lat="40.0713749" lon="-105.229789">
  <ele>1583.0</ele>
  <time>2026-09-02T20:50:21Z</time>
  <course>127.21</course>
  <speed>0.0</speed>
  <fix>3d</fix>
</trkpt>
<trkpt lat="40.0713749" lon="-105.229789">
  <ele>1583.0</ele>
  <time>2026-09-02T20:50:21Z</time>
  <course>0.0</course>
  <speed>0.0</speed>
  <fix>3d</fix>
</trkpt>
<trkpt lat="40.0713749" lon="-105.229789">
  <ele>1583.0</ele>
  <time>2026-09-02T20:50:21Z</time>
  <course>139.2</course>
  <speed>0.0</speed>
  <fix>3d</fix>
</trkpt>
<trkpt lat="40.0713749" lon="-105.229789">
  <ele>1583.0</ele>
  <time>2026-09-02T20:50:21Z</time>
  <course>0.0</course>
  <speed>0.0</speed>
  <fix>3d</fix>
</trkpt>
<trkpt lat="40.0713749" lon="-105.229789">
  <ele>1583.0</ele>
  <time>2026-09-02T20:50:21Z</time>
  <course>151.2</course>
  <speed>0.0</speed>
  <fix>3d</fix>
</trkpt>
<trkpt lat="40.0713749" lon="-105.229789">
  <ele>1583.0</ele>
  <time>2026-09-02T20:50:21Z</time>
  <course>0.0</course>
  <speed>0.0</speed>
  <fix>3d</fix>
</trkpt>
<trkpt lat="40.0713749" lon="-105.229789">
  <ele>1583.0</ele>
  <time>2026-09-02T20:50:21Z</time>
  <course>163.19</course>
  <speed>0.0</speed>
  <fix>3d</fix>
</trkpt>
<trkpt lat="40.0713749" lon="-105.229789">
  <ele>1583.0</ele>
  <time>2026-09-02T20:50:21Z</time>
  <course>0.0</course>
  <speed>0.0</speed>
  <fix>3d</fix>
</trkpt>
<trkpt lat="40.0713749" lon="-105.229789">
  <ele>1583.0</ele>
  <time>2026-09-02T20:50:21Z</time>
  <course>172.89</course>
  <speed>0.0</speed>
  <fix>3d</fix>
</trkpt>
<trkpt lat="40.0713749" lon="-105.229789">
  <ele>1583.0</ele>
  <time>2026-09-02T20:50:21Z</time>
  <course>0.0</course>
  <speed>0.0</speed>
  <fix>3d</fix>
</trkpt>
<trkpt lat="40.0713749" lon="-105.229789">
  <ele>1583.0</ele>
  <time>2026-09-02T20:50:21Z</time>
  <course>184.89</course>
  <speed>0.0</speed>
  <fix>3d</fix>
</trkpt>
<trkpt lat="40.0713749" lon="-105.229789">
  <ele>1583.0</ele>
  <time>2026-09-02T20:50:21Z</time>
  <course>0.0</course>
  <speed>0.0</speed>
  <fix>3d</fix>
</trkpt>
<trkpt lat="40.0713749" lon="-105.229789">
  <ele>1583.0</ele>
  <time>2026-09-02T20:50:21Z</time>
  <course>196.89</course>
  <speed>0.0</speed>
  <fix>3d</fix>
</trkpt>
<trkpt lat="40.0713749" lon="-105.229789">
  <ele>1583.0</ele>
  <time>2026-09-02T20:50:21Z</time>
  <course>0.0</course>
  <speed>0.0</speed>
  <fix>3d</fix>
</trkpt>
<trkpt lat="40.0713749" lon="-105.229789">
  <ele>1583.0</ele>
  <time>2026-09-02T20:50:21Z</time>
  <course>208.89</course>
  <speed>0.0</speed>
  <fix>3d</fix>
</trkpt>
<trkpt lat="40.0713749" lon="-105.229789">
  <ele>1583.0</ele>
  <time>2026-09-02T20:50:21Z</time>
  <course>0.0</course>
  <speed>0.0</speed>
  <fix>3d</fix>
</trkpt>
<trkpt lat="40.0713749" lon="-105.229789">
  <ele>1583.0</ele>
  <time>2026-09-02T20:50:21Z</time>
  <course>220.88</course>
  <speed>0.0</speed>
  <fix>3d</fix>
</trkpt>
<trkpt lat="40.0713749" lon="-105.229789">
  <ele>1583.0</ele>
  <time>2026-09-02T20:50:21Z</time>
  <course>0.0</course>
  <speed>0.0</speed>
  <fix>3d</fix>
</trkpt>
<trkpt lat="40.0713749" lon="-105.229789">
  <ele>1583.0</ele>
  <time>2026-09-02T20:50:21Z</time>
  <course>232.88</course>
  <speed>0.0</speed>
  <fix>3d</fix>
</trkpt>
<trkpt lat="40.0713749" lon="-105.229789">
  <ele>1583.0</ele>
  <time>2026-09-02T20:50:21Z</time>
  <course>0.0</course>
  <speed>0.0</speed>
  <fix>3d</fix>
</trkpt>
<trkpt lat="40.0713749" lon="-105.229789">
  <ele>1583.0</ele>
  <time>2026-09-02T20:50:21Z</time>
  <course>244.87</course>
  <speed>0.0</speed>
  <fix>3d</fix>
</trkpt>
<trkpt lat="40.0713749" lon="-105.229789">
  <ele>1583.0</ele>
  <time>2026-09-02T20:50:21Z</time>
  <course>0.0</course>
  <speed>0.0</speed>
  <fix>3d</fix>
</trkpt>
<trkpt lat="40.0713749" lon="-105.229789">
  <ele>1583.0</ele>
  <time>2026-09-02T20:50:21Z</time>
  <course>256.87</course>
  <speed>0.0</speed>
  <fix>3d</fix>
</trkpt>
<trkpt lat="40.0713749" lon="-105.229789">
  <ele>1583.0</ele>
  <time>2026-09-02T20:50:21Z</time>
  <course>0.0</course>
  <speed>0.0</speed>
  <fix>3d</fix>
</trkpt>
<trkpt lat="40.0713749" lon="-105.229789">
  <ele>1583.0</ele>
  <time>2026-09-02T20:50:21Z</time>
  <course>268.86</course>
  <speed>0.0</speed>
  <fix>3d</fix>
</trkpt>
<trkpt lat="40.0713749" lon="-105.229789">
  <ele>1583.0</ele>
  <time>2026-09-02T20:50:21Z</time>
  <course>0.0</course>
  <speed>0.0</speed>
  <fix>3d</fix>
</trkpt>
<trkpt lat="40.0713749" lon="-105.229789">
  <ele>1583.0</ele>
  <time>2026-09-02T20:50:21Z</time>
  <course>280.86</course>
  <speed>0.0</speed>
  <fix>3d</fix>
</trkpt>
<trkpt lat="40.0713749" lon="-105.229789">
  <ele>1583.0</ele>
  <time>2026-09-02T20:50:21Z</time>
  <course>0.0</course>
  <speed>0.0</speed>
  <fix>3d</fix>
</trkpt>
<trkpt lat="40.0713749" lon="-105.229789">
  <ele>1583.0</ele>
  <time>2026-09-02T20:50:21Z</time>
  <course>295.25</course>
  <speed>0.0</speed>
  <fix>3d</fix>
</trkpt>
<trkpt lat="40.0713749" lon="-105.229789">
  <ele>1583.0</ele>
  <time>2026-09-02T20:50:21Z</time>
  <course>0.0</course>
  <speed>0.0</speed>
  <fix>3d</fix>
</trkpt>
<trkpt lat="40.0713749" lon="-105.229789">
  <ele>1583.0</ele>
  <time>2026-09-02T20:50:21Z</time>
  <course>307.25</course>
  <speed>0.0</speed>
  <fix>3d</fix>
</trkpt>
<trkpt lat="40.0713749" lon="-105.229789">
  <ele>1583.0</ele>
  <time>2026-09-02T20:50:21Z</time>
  <course>0.0</course>
  <speed>0.0</speed>
  <fix>3d</fix>
</trkpt>
<trkpt lat="40.0713749" lon="-105.229789">
  <ele>1583.0</ele>
  <time>2026-09-02T20:50:21Z</time>
  <course>319.24</course>
  <speed>0.0</speed>
  <fix>3d</fix>
</trkpt>
<trkpt lat="40.0713749" lon="-105.229789">
  <ele>1583.0</ele>
  <time>2026-09-02T20:50:21Z</time>
  <course>0.0</course>
  <speed>0.0</speed>
  <fix>3d</fix>
</trkpt>
<trkpt lat="40.0713749" lon="-105.229789">
  <ele>1583.0</ele>
  <time>2026-09-02T20:50:21Z</time>
  <course>331.24</course>
  <speed>0.0</speed>
  <fix>3d</fix>
</trkpt>
<trkpt lat="40.0713749" lon="-105.229789">
  <ele>1583.0</ele>
  <time>2026-09-02T20:50:21Z</time>
  <course>0.0</course>
  <speed>0.0</speed>
  <fix>3d</fix>
</trkpt>
<trkpt lat="40.0713749" lon="-105.229789">
  <ele>1583.0</ele>
  <time>2026-09-02T20:50:21Z</time>
  <course>343.23</course>
  <speed>0.0</speed>
  <fix>3d</fix>
</trkpt>
<trkpt lat="40.0713749" lon="-105.229789">
  <ele>1583.0</ele>
  <time>2026-09-02T20:50:21Z</time>
  <course>0.0</course>
  <speed>0.0</speed>
  <fix>3d</fix>
</trkpt>
<trkpt lat="40.0713749" lon="-105.229789">
  <ele>1583.0</ele>
  <time>2026-09-02T20:50:21Z</time>
  <course>355.23</course>
  <speed>0.0</speed>
  <fix>3d</fix>
</trkpt>
<trkpt lat="40.0713749" lon="-105.229789">
  <ele>1583.0</ele>
  <time>2026-09-02T20:50:21Z</time>
  <course>0.0</course>
  <speed>0.0</speed>
  <fix>3d</fix>
</trkpt>
<trkpt lat="40.0713749" lon="-105.229789">
  <ele>1583.0</ele>
  <time>2026-09-02T20:50:21Z</time>
  <course>7.21</course>
  <speed>0.0</speed>
  <fix>3d</fix>
</trkpt>
<trkpt lat="40.0713749" lon="-105.229789">
  <ele>1583.0</ele>
  <time>2026-09-02T20:50:21Z</time>
  <course>0.0</course>
  <speed>0.0</speed>
  <fix>3d</fix>
</trkpt>
<trkpt lat="40.0713749" lon="-105.229789">
  <ele>1583.0</ele>
  <time>2026-09-02T20:50:21Z</time>
  <course>19.21</course>
  <speed>0.0</speed>
  <fix>3d</fix>
</trkpt>
<trkpt lat="40.0713749" lon="-105.229789">
  <ele>1583.0</ele>
  <time>2026-09-02T20:50:21Z</time>
  <course>0.0</course>
  <speed>0.0</speed>
  <fix>3d</fix>
</trkpt>
<trkpt lat="40.0713749" lon="-105.229789">
  <ele>1583.0</ele>
  <time>2026-09-02T20:50:21Z</time>
  <course>31.2</course>
  <speed>0.0</speed>
  <fix>3d</fix>
</trkpt>
<trkpt lat="40.0713749" lon="-105.229789">
  <ele>1583.0</ele>
  <time>2026-09-02T20:50:21Z</time>
  <course>0.0</course>
  <speed>0.0</speed>
  <fix>3d</fix>
</trkpt>
<trkpt lat="40.0713749" lon="-105.229789">
  <ele>1583.0</ele>
  <time>2026-09-02T20:50:21Z</time>
  <course>43.2</course>
  <speed>0.0</speed>
  <fix>3d</fix>
</trkpt>
<trkpt lat="40.0713749" lon="-105.229789">
  <ele>1583.0</ele>
  <time>2026-09-02T20:50:21Z</time>
  <course>0.0</course>
  <speed>0.0</speed>
  <fix>3d</fix>
</trkpt>
<trkpt lat="40.0713749" lon="-105.229789">
  <ele>1583.0</ele>
  <time>2026-09-02T20:50:21Z</time>
  <course>55.19</course>
  <speed>0.0</speed>
  <fix>3d</fix>
</trkpt>
<trkpt lat="40.0713749" lon="-105.229789">
  <ele>1583.0</ele>
  <time>2026-09-02T20:50:21Z</time>
  <course>0.0</course>
  <speed>0.0</speed>
  <fix>3d</fix>
</trkpt>
<trkpt lat="40.0713749" lon="-105.229789">
  <ele>1583.0</ele>
  <time>2026-09-02T20:50:21Z</time>
  <course>64.89</course>
  <speed>0.0</speed>
  <fix>3d</fix>
</trkpt>
<trkpt lat="40.0713749" lon="-105.229789">
  <ele>1583.0</ele>
  <time>2026-09-02T20:50:21Z</time>
  <course>0.0</course>
  <speed>0.0</speed>
  <fix>3d</fix>
</trkpt>
<trkpt lat="40.0713749" lon="-105.229789">
  <ele>1583.0</ele>
  <time>2026-09-02T20:50:21Z</time>
  <course>76.89</course>
  <speed>0.0</speed>
  <fix>3d</fix>
</trkpt>
<trkpt lat="40.0713749" lon="-105.229789">
  <ele>1583.0</ele>
  <time>2026-09-02T20:50:21Z</time>
  <course>0.0</course>
  <speed>0.0</speed>
  <fix>3d</fix>
</trkpt>
<trkpt lat="40.0713749" lon="-105.229789">
  <ele>1583.0</ele>
  <time>2026-09-02T20:50:21Z</time>
  <course>88.88</course>
  <speed>0.0</speed>
  <fix>3d</fix>
</trkpt>
<trkpt lat="40.0713749" lon="-105.229789">
  <ele>1583.0</ele>
  <time>2026-09-02T20:50:21Z</time>
  <course>0.0</course>
  <speed>0.0</speed>
  <fix>3d</fix>
</trkpt>
<trkpt lat="40.0713749" lon="-105.229789">
  <ele>1583.0</ele>
  <time>2026-09-02T20:50:21Z</time>
  <course>100.88</course>
  <speed>0.0</speed>
  <fix>3d</fix>
</trkpt>
<trkpt lat="40.0713749" lon="-105.229789">
  <ele>1583.0</ele>
  <time>2026-09-02T20:50:21Z</time>
  <course>0.0</course>
  <speed>0.0</speed>
  <fix>3d</fix>
</trkpt>
<trkpt lat="40.0713749" lon="-105.229789">
  <ele>1583.0</ele>
  <time>2026-09-02T20:50:21Z</time>
  <course>112.87</course>
  <speed>0.0</speed>
  <fix>3d</fix>
</trkpt>
<trkpt lat="40.0713749" lon="-105.229789">
  <ele>1583.0</ele>
  <time>2026-09-02T20:50:21Z</time>
  <course>0.0</course>
  <speed>0.0</speed>
  <fix>3d</fix>
</trkpt>
<trkpt lat="40.0713749" lon="-105.229789">
  <ele>1583.0</ele>
  <time>2026-09-02T20:50:21Z</time>
  <course>124.87</course>
  <speed>0.0</speed>
  <fix>3d</fix>
</trkpt>
<trkpt lat="40.0713749" lon="-105.229789">
  <ele>1583.0</ele>
  <time>2026-09-02T20:50:21Z</time>
  <course>0.0</course>
  <speed>0.0</speed>
  <fix>3d</fix>
</trkpt>
<trkpt lat="40.0713749" lon="-105.229789">
  <ele>1583.0</ele>
  <time>2026-09-02T20:50:21Z</time>
  <course>136.86</course>
  <speed>0.0</speed>
  <fix>3d</fix>
</trkpt>
<trkpt lat="40.0713749" lon="-105.229789">
  <ele>1583.0</ele>
  <time>2026-09-02T20:50:21Z</time>
  <course>0.0</course>
  <speed>0.0</speed>
  <fix>3d</fix>
</trkpt>
<trkpt lat="40.0713749" lon="-105.229789">
  <ele>1583.0</ele>
  <time>2026-09-02T20:50:21Z</time>
  <course>148.86</course>
  <speed>0.0</speed>
  <fix>3d</fix>
</trkpt>
<trkpt lat="40.0713749" lon="-105.229789">
  <ele>1583.0</ele>
  <time>2026-09-02T20:50:21Z</time>
  <course>0.0</course>
  <speed>0.0</speed>
  <fix>3d</fix>
</trkpt>
<trkpt lat="40.0713749" lon="-105.229789">
  <ele>1583.0</ele>
  <time>2026-09-02T20:50:21Z</time>
  <course>160.85</course>
  <speed>0.0</speed>
  <fix>3d</fix>
</trkpt>
<trkpt lat="40.0713749" lon="-105.229789">
  <ele>1583.0</ele>
  <time>2026-09-02T20:50:21Z</time>
  <course>0.0</course>
  <speed>0.0</speed>
  <fix>3d</fix>
</trkpt>
<trkpt lat="40.0713749" lon="-105.229789">
  <ele>1583.0</ele>
  <time>2026-09-02T20:50:21Z</time>
  <course>172.85</course>
  <speed>0.0</speed>
  <fix>3d</fix>
</trkpt>
<trkpt lat="40.0713749" lon="-105.229789">
  <ele>1583.0</ele>
  <time>2026-09-02T20:50:21Z</time>
  <course>0.0</course>
  <speed>0.0</speed>
  <fix>3d</fix>
</trkpt>
<trkpt lat="40.0713749" lon="-105.229789">
  <ele>1583.0</ele>
  <time>2026-09-02T20:50:21Z</time>
  <course>187.25</course>
  <speed>0.0</speed>
  <fix>3d</fix>
</trkpt>
<trkpt lat="40.0713749" lon="-105.229789">
  <ele>1583.0</ele>
  <time>2026-09-02T20:50:21Z</time>
  <course>0.0</course>
  <speed>0.0</speed>
  <fix>3d</fix>
</trkpt>
<trkpt lat="40.0713749" lon="-105.229789">
  <ele>1583.0</ele>
  <time>2026-09-02T20:50:21Z</time>
  <course>199.25</course>
  <speed>0.0</speed>
  <fix>3d</fix>
</trkpt>
<trkpt lat="40.0713749" lon="-105.229789">
  <ele>1583.0</ele>
  <time>2026-09-02T20:50:21Z</time>
  <course>0.0</course>
  <speed>0.0</speed>
  <fix>3d</fix>
</trkpt>
<trkpt lat="40.0713749" lon="-105.229789">
  <ele>1583.0</ele>
  <time>2026-09-02T20:50:21Z</time>
  <course>211.25</course>
  <speed>0.0</speed>
  <fix>3d</fix>
</trkpt>
<trkpt lat="40.0713749" lon="-105.229789">
  <ele>1583.0</ele>
  <time>2026-09-02T20:50:21Z</time>
  <course>0.0</course>
  <speed>0.0</speed>
  <fix>3d</fix>
</trkpt>
<trkpt lat="40.0713749" lon="-105.229789">
  <ele>1583.0</ele>
  <time>2026-09-02T20:50:21Z</time>
  <course>223.24</course>
  <speed>0.0</speed>
  <fix>3d</fix>
</trkpt>
<trkpt lat="40.0713749" lon="-105.229789">
  <ele>1583.0</ele>
  <time>2026-09-02T20:50:21Z</time>
  <course>0.0</course>
  <speed>0.0</speed>
  <fix>3d</fix>
</trkpt>
<trkpt lat="40.0713749" lon="-105.229789">
  <ele>1583.0</ele>
  <time>2026-09-02T20:50:21Z</time>
  <course>235.24</course>
  <speed>0.0</speed>
  <fix>3d</fix>
</trkpt>
<trkpt lat="40.0713749" lon="-105.229789">
  <ele>1583.0</ele>
  <time>2026-09-02T20:50:21Z</time>
  <course>0.0</course>
  <speed>0.0</speed>
  <fix>3d</fix>
</trkpt>
<trkpt lat="40.0713749" lon="-105.229789">
  <ele>1583.0</ele>
  <time>2026-09-02T20:50:21Z</time>
  <course>247.23</course>
  <speed>0.0</speed>
  <fix>3d</fix>
</trkpt>
<trkpt lat="40.0713749" lon="-105.229789">
  <ele>1583.0</ele>
  <time>2026-09-02T20:50:21Z</time>
  <course>0.0</course>
  <speed>0.0</speed>
  <fix>3d</fix>
</trkpt>
<trkpt lat="40.0713749" lon="-105.229789">
  <ele>1583.0</ele>
  <time>2026-09-02T20:50:21Z</time>
  <course>259.23</course>
  <speed>0.0</speed>
  <fix>3d</fix>
</trkpt>
<trkpt lat="40.0713749" lon="-105.229789">
  <ele>1583.0</ele>
  <time>2026-09-02T20:50:21Z</time>
  <course>0.0</course>
  <speed>0.0</speed>
  <fix>3d</fix>
</trkpt>
<trkpt lat="40.0713749" lon="-105.229789">
  <ele>1583.0</ele>
  <time>2026-09-02T20:50:21Z</time>
  <course>271.22</course>
  <speed>0.0</speed>
  <fix>3d</fix>
</trkpt>
<trkpt lat="40.0713749" lon="-105.229789">
  <ele>1583.0</ele>
  <time>2026-09-02T20:50:21Z</time>
  <course>0.0</course>
  <speed>0.0</speed>
  <fix>3d</fix>
</trkpt>
<trkpt lat="40.0713749" lon="-105.229789">
  <ele>1583.0</ele>
  <time>2026-09-02T20:50:21Z</time>
  <course>283.22</course>
  <speed>0.0</speed>
  <fix>3d</fix>
</trkpt>
<trkpt lat="40.0713749" lon="-105.229789">
  <ele>1583.0</ele>
  <time>2026-09-02T20:50:21Z</time>
  <course>0.0</course>
  <speed>0.0</speed>
  <fix>3d</fix>
</trkpt>
<trkpt lat="40.0713749" lon="-105.229789">
  <ele>1583.0</ele>
  <time>2026-09-02T20:50:21Z</time>
  <course>295.21</course>
  <speed>0.0</speed>
  <fix>3d</fix>
</trkpt>
<trkpt lat="40.0713749" lon="-105.229789">
  <ele>1583.0</ele>
  <time>2026-09-02T20:50:21Z</time>
  <course>0.0</course>
  <speed>0.0</speed>
  <fix>3d</fix>
</trkpt>
<trkpt lat="40.0713749" lon="-105.229789">
  <ele>1583.0</ele>
  <time>2026-09-02T20:50:21Z</time>
  <course>307.21</course>
  <speed>0.0</speed>
  <fix>3d</fix>
</trkpt>
<trkpt lat="40.0713749" lon="-105.229789">
  <ele>1583.0</ele>
  <time>2026-09-02T20:50:21Z</time>
  <course>0.0</course>
  <speed>0.0</speed>
  <fix>3d</fix>
</trkpt>
<trkpt lat="40.0713749" lon="-105.229789">
  <ele>1583.0</ele>
  <time>2026-09-02T20:50:21Z</time>
  <course>316.9</course>
  <speed>0.0</speed>
  <fix>3d</fix>
</trkpt>
<trkpt lat="40.0713749" lon="-105.229789">
  <ele>1583.0</ele>
  <time>2026-09-02T20:50:21Z</time>
  <course>0.0</course>
  <speed>0.0</speed>
  <fix>3d</fix>
</trkpt>
<trkpt lat="40.0713749" lon="-105.229789">
  <ele>1583.0</ele>
  <time>2026-09-02T20:50:21Z</time>
  <course>328.9</course>
  <speed>0.0</speed>
  <fix>3d</fix>
</trkpt>
<trkpt lat="40.0713749" lon="-105.229789">
  <ele>1583.0</ele>
  <time>2026-09-02T20:50:21Z</time>
  <course>0.0</course>
  <speed>0.0</speed>
  <fix>3d</fix>
</trkpt>
<trkpt lat="40.0713749" lon="-105.229789">
  <ele>1583.0</ele>
  <time>2026-09-02T20:50:21Z</time>
  <course>340.89</course>
  <speed>0.0</speed>
  <fix>3d</fix>
</trkpt>
<trkpt lat="40.0713749" lon="-105.229789">
  <ele>1583.0</ele>
  <time>2026-09-02T20:50:21Z</time>
  <course>0.0</course>
  <speed>0.0</speed>
  <fix>3d</fix>
</trkpt>
<trkpt lat="40.0713749" lon="-105.229789">
  <ele>1583.0</ele>
  <time>2026-09-02T20:50:21Z</time>
  <course>352.89</course>
  <speed>0.0</speed>
  <fix>3d</fix>
</trkpt>
<trkpt lat="40.0713749" lon="-105.229789">
  <ele>1583.0</ele>
  <time>2026-09-02T20:50:21Z</time>
  <course>0.0</course>
  <speed>0.0</speed>
  <fix>3d</fix>
</trkpt>
<trkpt lat="40.0713749" lon="-105.229789">
  <ele>1583.0</ele>
  <time>2026-09-02T20:50:21Z</time>
  <course>4.87</course>
  <speed>0.0</speed>
  <fix>3d</fix>
</trkpt>
<trkpt lat="40.0713749" lon="-105.229789">
  <ele>1583.0</ele>
  <time>2026-09-02T20:50:21Z</time>
  <course>0.0</course>
  <speed>0.0</speed>
  <fix>3d</fix>
</trkpt>
<trkpt lat="40.0713749" lon="-105.229789">
  <ele>1583.0</ele>
  <time>2026-09-02T20:50:21Z</time>
  <course>16.87</course>
  <speed>0.0</speed>
  <fix>3d</fix>
</trkpt>
<trkpt lat="40.0713749" lon="-105.229789">
  <ele>1583.0</ele>
  <time>2026-09-02T20:50:21Z</time>
  <course>0.0</course>
  <speed>0.0</speed>
  <fix>3d</fix>
</trkpt>
<trkpt lat="40.0713749" lon="-105.229789">
  <ele>1583.0</ele>
  <time>2026-09-02T20:50:21Z</time>
  <course>28.87</course>
  <speed>0.0</speed>
  <fix>3d</fix>
</trkpt>
<trkpt lat="40.0713749" lon="-105.229789">
  <ele>1583.0</ele>
  <time>2026-09-02T20:50:21Z</time>
  <course>0.0</course>
  <speed>0.0</speed>
  <fix>3d</fix>
</trkpt>
<trkpt lat="40.0713749" lon="-105.229789">
  <ele>1583.0</ele>
  <time>2026-09-02T20:50:21Z</time>
  <course>40.86</course>
  <speed>0.0</speed>
  <fix>3d</fix>
</trkpt>
<trkpt lat="40.0713749" lon="-105.229789">
  <ele>1583.0</ele>
  <time>2026-09-02T20:50:21Z</time>
  <course>0.0</course>
  <speed>0.0</speed>
  <fix>3d</fix>
</trkpt>
<trkpt lat="40.0713749" lon="-105.229789">
  <ele>1583.0</ele>
  <time>2026-09-02T20:50:21Z</time>
  <course>52.86</course>
  <speed>0.0</speed>
  <fix>3d</fix>
</trkpt>
<trkpt lat="40.0713749" lon="-105.229789">
  <ele>1583.0</ele>
  <time>2026-09-02T20:50:21Z</time>
  <course>0.0</course>
  <speed>0.0</speed>
  <fix>3d</fix>
</trkpt>
<trkpt lat="40.0713749" lon="-105.229789">
  <ele>1583.0</ele>
  <time>2026-09-02T20:50:21Z</time>
  <course>64.85</course>
  <speed>0.0</speed>
  <fix>3d</fix>
</trkpt>
<trkpt lat="40.0713749" lon="-105.229789">
  <ele>1583.0</ele>
  <time>2026-09-02T20:50:21Z</time>
  <course>0.0</course>
  <speed>0.0</speed>
  <fix>3d</fix>
</trkpt>
<trkpt lat="40.0713749" lon="-105.229789">
  <ele>1583.0</ele>
  <time>2026-09-02T20:50:21Z</time>
  <course>79.25</course>
  <speed>0.0</speed>
  <fix>3d</fix>
</trkpt>
<trkpt lat="40.0713749" lon="-105.229789">
  <ele>1583.0</ele>
  <time>2026-09-02T20:50:21Z</time>
  <course>0.0</course>
  <speed>0.0</speed>
  <fix>3d</fix>
</trkpt>
<trkpt lat="40.0713749" lon="-105.229789">
  <ele>1583.0</ele>
  <time>2026-09-02T20:50:21Z</time>
  <course>91.24</course>
  <speed>0.0</speed>
  <fix>3d</fix>
</trkpt>
<trkpt lat="40.0713749" lon="-105.229789">
  <ele>1583.0</ele>
  <time>2026-09-02T20:50:21Z</time>
  <course>0.0</course>
  <speed>0.0</speed>
  <fix>3d</fix>
</trkpt>
<trkpt lat="40.0713749" lon="-105.229789">
  <ele>1583.0</ele>
  <time>2026-09-02T20:50:21Z</time>
  <course>103.24</course>
  <speed>0.0</speed>
  <fix>3d</fix>
</trkpt>
<trkpt lat="40.0713749" lon="-105.229789">
  <ele>1583.0</ele>
  <time>2026-09-02T20:50:21Z</time>
  <course>0.0</course>
  <speed>0.0</speed>
  <fix>3d</fix>
</trkpt>
<trkpt lat="40.0713749" lon="-105.229789">
  <ele>1583.0</ele>
  <time>2026-09-02T20:50:21Z</time>
  <course>115.23</course>
  <speed>0.0</speed>
  <fix>3d</fix>
</trkpt>
<trkpt lat="40.0713749" lon="-105.229789">
  <ele>1583.0</ele>
  <time>2026-09-02T20:50:21Z</time>
  <course>0.0</course>
  <speed>0.0</speed>
  <fix>3d</fix>
</trkpt>
<trkpt lat="40.0713749" lon="-105.229789">
  <ele>1583.0</ele>
  <time>2026-09-02T20:50:21Z</time>
  <course>127.23</course>
  <speed>0.0</speed>
  <fix>3d</fix>
</trkpt>
<trkpt lat="40.0713749" lon="-105.229789">
  <ele>1583.0</ele>
  <time>2026-09-02T20:50:21Z</time>
  <course>0.0</course>
  <speed>0.0</speed>
  <fix>3d</fix>
</trkpt>
<trkpt lat="40.0713749" lon="-105.229789">
  <ele>1583.0</ele>
  <time>2026-09-02T20:50:21Z</time>
  <course>139.22</course>
  <speed>0.0</speed>
  <fix>3d</fix>
</trkpt>
<trkpt lat="40.0713749" lon="-105.229789">
  <ele>1583.0</ele>
  <time>2026-09-02T20:50:21Z</time>
  <course>0.0</course>
  <speed>0.0</speed>
  <fix>3d</fix>
</trkpt>
<trkpt lat="40.0713749" lon="-105.229789">
  <ele>1583.0</ele>
  <time>2026-09-02T20:50:21Z</time>
  <course>151.22</course>
  <speed>0.0</speed>
  <fix>3d</fix>
</trkpt>
<trkpt lat="40.0713749" lon="-105.229789">
  <ele>1583.0</ele>
  <time>2026-09-02T20:50:21Z</time>
  <course>0.0</course>
  <speed>0.0</speed>
  <fix>3d</fix>
</trkpt>
<trkpt lat="40.0713749" lon="-105.229789">
  <ele>1583.0</ele>
  <time>2026-09-02T20:50:21Z</time>
  <course>163.21</course>
  <speed>0.0</speed>
  <fix>3d</fix>
</trkpt>
<trkpt lat="40.0713749" lon="-105.229789">
  <ele>1583.0</ele>
  <time>2026-09-02T20:50:21Z</time>
  <course>0.0</course>
  <speed>0.0</speed>
  <fix>3d</fix>
</trkpt>
<trkpt lat="40.0713749" lon="-105.229789">
  <ele>1583.0</ele>
  <time>2026-09-02T20:50:21Z</time>
  <course>175.21</course>
  <speed>0.0</speed>
  <fix>3d</fix>
</trkpt>
<trkpt lat="40.0713749" lon="-105.229789">
  <ele>1583.0</ele>
  <time>2026-09-02T20:50:21Z</time>
  <course>0.0</course>
  <speed>0.0</speed>
  <fix>3d</fix>
</trkpt>
<trkpt lat="40.0713749" lon="-105.229789">
  <ele>1583.0</ele>
  <time>2026-09-02T20:50:21Z</time>
  <course>187.22</course>
  <speed>0.0</speed>
  <fix>3d</fix>
</trkpt>
<trkpt lat="40.0713749" lon="-105.229789">
  <ele>1583.0</ele>
  <time>2026-09-02T20:50:21Z</time>
  <course>0.0</course>
  <speed>0.0</speed>
  <fix>3d</fix>
</trkpt>
<trkpt lat="40.0713749" lon="-105.229789">
  <ele>1583.0</ele>
  <time>2026-09-02T20:50:21Z</time>
  <course>199.21</course>
  <speed>0.0</speed>
  <fix>3d</fix>
</trkpt>
<trkpt lat="40.0713749" lon="-105.229789">
  <ele>1583.0</ele>
  <time>2026-09-02T20:50:21Z</time>
  <course>0.0</course>
  <speed>0.0</speed>
  <fix>3d</fix>
</trkpt>
<trkpt lat="40.0713749" lon="-105.229789">
  <ele>1583.0</ele>
  <time>2026-09-02T20:50:21Z</time>
  <course>208.91</course>
  <speed>0.0</speed>
  <fix>3d</fix>
</trkpt>
<trkpt lat="40.0713749" lon="-105.229789">
  <ele>1583.0</ele>
  <time>2026-09-02T20:50:21Z</time>
  <course>0.0</course>
  <speed>0.0</speed>
  <fix>3d</fix>
</trkpt>
<trkpt lat="40.0713749" lon="-105.229789">
  <ele>1583.0</ele>
  <time>2026-09-02T20:50:21Z</time>
  <course>220.9</course>
  <speed>0.0</speed>
  <fix>3d</fix>
</trkpt>
<trkpt lat="40.0713749" lon="-105.229789">
  <ele>1583.0</ele>
  <time>2026-09-02T20:50:21Z</time>
  <course>0.0</course>
  <speed>0.0</speed>
  <fix>3d</fix>
</trkpt>
<trkpt lat="40.0713749" lon="-105.229789">
  <ele>1583.0</ele>
  <time>2026-09-02T20:50:21Z</time>
  <course>232.9</course>
  <speed>0.0</speed>
  <fix>3d</fix>
</trkpt>
<trkpt lat="40.0713749" lon="-105.229789">
  <ele>1583.0</ele>
  <time>2026-09-02T20:50:21Z</time>
  <course>0.0</course>
  <speed>0.0</speed>
  <fix>3d</fix>
</trkpt>
<trkpt lat="40.0713749" lon="-105.229789">
  <ele>1583.0</ele>
  <time>2026-09-02T20:50:21Z</time>
  <course>244.89</course>
  <speed>0.0</speed>
  <fix>3d</fix>
</trkpt>
<trkpt lat="40.0713749" lon="-105.229789">
  <ele>1583.0</ele>
  <time>2026-09-02T20:50:21Z</time>
  <course>0.0</course>
  <speed>0.0</speed>
  <fix>3d</fix>
</trkpt>
<trkpt lat="40.0713749" lon="-105.229789">
  <ele>1583.0</ele>
  <time>2026-09-02T20:50:21Z</time>
  <course>256.89</course>
  <speed>0.0</speed>
  <fix>3d</fix>
</trkpt>
<trkpt lat="40.0713749" lon="-105.229789">
  <ele>1583.0</ele>
  <time>2026-09-02T20:50:21Z</time>
  <course>0.0</course>
  <speed>0.0</speed>
  <fix>3d</fix>
</trkpt>
<trkpt lat="40.0713749" lon="-105.229789">
  <ele>1583.0</ele>
  <time>2026-09-02T20:50:21Z</time>
  <course>268.88</course>
  <speed>0.0</speed>
  <fix>3d</fix>
</trkpt>
<trkpt lat="40.0713749" lon="-105.229789">
  <ele>1583.0</ele>
  <time>2026-09-02T20:50:21Z</time>
  <course>0.0</course>
  <speed>0.0</speed>
  <fix>3d</fix>
</trkpt>
<trkpt lat="40.0713749" lon="-105.229789">
  <ele>1583.0</ele>
  <time>2026-09-02T20:50:21Z</time>
  <course>280.88</course>
  <speed>0.0</speed>
  <fix>3d</fix>
</trkpt>
<trkpt lat="40.0713749" lon="-105.229789">
  <ele>1583.0</ele>
  <time>2026-09-02T20:50:21Z</time>
  <course>0.0</course>
  <speed>0.0</speed>
  <fix>3d</fix>
</trkpt>
<trkpt lat="40.0713749" lon="-105.229789">
  <ele>1583.0</ele>
  <time>2026-09-02T20:50:21Z</time>
  <course>292.87</course>
  <speed>0.0</speed>
  <fix>3d</fix>
</trkpt>
<trkpt lat="40.0713749" lon="-105.229789">
  <ele>1583.0</ele>
  <time>2026-09-02T20:50:21Z</time>
  <course>0.0</course>
  <speed>0.0</speed>
  <fix>3d</fix>
</trkpt>
<trkpt lat="40.0713749" lon="-105.229789">
  <ele>1583.0</ele>
  <time>2026-09-02T20:50:21Z</time>
  <course>304.87</course>
  <speed>0.0</speed>
  <fix>3d</fix>
</trkpt>
<trkpt lat="40.0713749" lon="-105.229789">
  <ele>1583.0</ele>
  <time>2026-09-02T20:50:21Z</time>
  <course>0.0</course>
  <speed>0.0</speed>
  <fix>3d</fix>
</trkpt>
<trkpt lat="40.0713749" lon="-105.229789">
  <ele>1583.0</ele>
  <time>2026-09-02T20:50:21Z</time>
  <course>316.86</course>
  <speed>0.0</speed>
  <fix>3d</fix>
</trkpt>
<trkpt lat="40.0713749" lon="-105.229789">
  <ele>1583.0</ele>
  <time>2026-09-02T20:50:21Z</time>
  <course>0.0</course>
  <speed>0.0</speed>
  <fix>3d</fix>
</trkpt>
<trkpt lat="40.0713749" lon="-105.229789">
  <ele>1583.0</ele>
  <time>2026-09-02T20:50:21Z</time>
  <course>331.26</course>
  <speed>0.0</speed>
  <fix>3d</fix>
</trkpt>
<trkpt lat="40.0713749" lon="-105.229789">
  <ele>1583.0</ele>
  <time>2026-09-02T20:50:21Z</time>
  <course>0.0</course>
  <speed>0.0</speed>
  <fix>3d</fix>
</trkpt>
<trkpt lat="40.0713749" lon="-105.229789">
  <ele>1583.0</ele>
  <time>2026-09-02T20:50:21Z</time>
  <course>343.25</course>
  <speed>0.0</speed>
  <fix>3d</fix>
</trkpt>
<trkpt lat="40.0713749" lon="-105.229789">
  <ele>1583.0</ele>
  <time>2026-09-02T20:50:21Z</time>
  <course>0.0</course>
  <speed>0.0</speed>
  <fix>3d</fix>
</trkpt>
<trkpt lat="40.0713749" lon="-105.229789">
  <ele>1583.0</ele>
  <time>2026-09-02T20:50:21Z</time>
  <course>355.25</course>
  <speed>0.0</speed>
  <fix>3d</fix>
</trkpt>
<trkpt lat="40.0713749" lon="-105.229789">
  <ele>1583.0</ele>
  <time>2026-09-02T20:50:21Z</time>
  <course>0.0</course>
  <speed>0.0</speed>
  <fix>3d</fix>
</trkpt>
<trkpt lat="40.0713749" lon="-105.229789">
  <ele>1583.0</ele>
  <time>2026-09-02T20:50:21Z</time>
  <course>7.23</course>
  <speed>0.0</speed>
  <fix>3d</fix>
</trkpt>
<trkpt lat="40.0713749" lon="-105.229789">
  <ele>1583.0</ele>
  <time>2026-09-02T20:50:21Z</time>
  <course>0.0</course>
  <speed>0.0</speed>
  <fix>3d</fix>
</trkpt>
<trkpt lat="40.0713749" lon="-105.229789">
  <ele>1583.0</ele>
  <time>2026-09-02T20:50:21Z</time>
  <course>19.23</course>
  <speed>0.0</speed>
  <fix>3d</fix>
</trkpt>
<trkpt lat="40.0713749" lon="-105.229789">
  <ele>1583.0</ele>
  <time>2026-09-02T20:50:21Z</time>
  <course>0.0</course>
  <speed>0.0</speed>
  <fix>3d</fix>
</trkpt>
<trkpt lat="40.0713749" lon="-105.229789">
  <ele>1583.0</ele>
  <time>2026-09-02T20:50:21Z</time>
  <course>31.23</course>
  <speed>0.0</speed>
  <fix>3d</fix>
</trkpt>
<trkpt lat="40.0713749" lon="-105.229789">
  <ele>1583.0</ele>
  <time>2026-09-02T20:50:21Z</time>
  <course>0.0</course>
  <speed>0.0</speed>
  <fix>3d</fix>
</trkpt>
<trkpt lat="40.0713749" lon="-105.229789">
  <ele>1583.0</ele>
  <time>2026-09-02T20:50:21Z</time>
  <course>43.22</course>
  <speed>0.0</speed>
  <fix>3d</fix>
</trkpt>
<trkpt lat="40.0713749" lon="-105.229789">
  <ele>1583.0</ele>
  <time>2026-09-02T20:50:21Z</time>
  <course>0.0</course>
  <speed>0.0</speed>
  <fix>3d</fix>
</trkpt>
<trkpt lat="40.0713749" lon="-105.229789">
  <ele>1583.0</ele>
  <time>2026-09-02T20:50:21Z</time>
  <course>55.22</course>
  <speed>0.0</speed>
  <fix>3d</fix>
</trkpt>
<trkpt lat="40.0713749" lon="-105.229789">
  <ele>1583.0</ele>
  <time>2026-09-02T20:50:21Z</time>
  <course>0.0</course>
  <speed>0.0</speed>
  <fix>3d</fix>
</trkpt>
<trkpt lat="40.0713749" lon="-105.229789">
  <ele>1583.0</ele>
  <time>2026-09-02T20:50:21Z</time>
  <course>67.21</course>
  <speed>0.0</speed>
  <fix>3d</fix>
</trkpt>
<trkpt lat="40.0713749" lon="-105.229789">
  <ele>1583.0</ele>
  <time>2026-09-02T20:50:21Z</time>
  <course>0.0</course>
  <speed>0.0</speed>
  <fix>3d</fix>
</trkpt>
<trkpt lat="40.0713749" lon="-105.229789">
  <ele>1583.0</ele>
  <time>2026-09-02T20:50:21Z</time>
  <course>79.21</course>
  <speed>0.0</speed>
  <fix>3d</fix>
</trkpt>
<trkpt lat="40.0713749" lon="-105.229789">
  <ele>1583.0</ele>
  <time>2026-09-02T20:50:21Z</time>
  <course>0.0</course>
  <speed>0.0</speed>
  <fix>3d</fix>
</trkpt>
<trkpt lat="40.0713749" lon="-105.229789">
  <ele>1583.0</ele>
  <time>2026-09-02T20:50:21Z</time>
  <course>91.2</course>
  <speed>0.0</speed>
  <fix>3d</fix>
</trkpt>
<trkpt lat="40.0713749" lon="-105.229789">
  <ele>1583.0</ele>
  <time>2026-09-02T20:50:21Z</time>
  <course>0.0</course>
  <speed>0.0</speed>
  <fix>3d</fix>
</trkpt>
<trkpt lat="40.0713749" lon="-105.229789">
  <ele>1583.0</ele>
  <time>2026-09-02T20:50:21Z</time>
  <course>100.9</course>
  <speed>0.0</speed>
  <fix>3d</fix>
</trkpt>
<trkpt lat="40.0713749" lon="-105.229789">
  <ele>1583.0</ele>
  <time>2026-09-02T20:50:21Z</time>
  <course>0.0</course>
  <speed>0.0</speed>
  <fix>3d</fix>
</trkpt>
<trkpt lat="40.0713749" lon="-105.229789">
  <ele>1583.0</ele>
  <time>2026-09-02T20:50:21Z</time>
  <course>112.89</course>
  <speed>0.0</speed>
  <fix>3d</fix>
</trkpt>
<trkpt lat="40.0713749" lon="-105.229789">
  <ele>1583.0</ele>
  <time>2026-09-02T20:50:21Z</time>
  <course>0.0</course>
  <speed>0.0</speed>
  <fix>3d</fix>
</trkpt>
<trkpt lat="40.0713749" lon="-105.229789">
  <ele>1583.0</ele>
  <time>2026-09-02T20:50:21Z</time>
  <course>124.89</course>
  <speed>0.0</speed>
  <fix>3d</fix>
</trkpt>
<trkpt lat="40.0713749" lon="-105.229789">
  <ele>1583.0</ele>
  <time>2026-09-02T20:50:21Z</time>
  <course>0.0</course>
  <speed>0.0</speed>
  <fix>3d</fix>
</trkpt>
<trkpt lat="40.0713749" lon="-105.229789">
  <ele>1583.0</ele>
  <time>2026-09-02T20:50:21Z</time>
  <course>136.88</course>
  <speed>0.0</speed>
  <fix>3d</fix>
</trkpt>
<trkpt lat="40.0713749" lon="-105.229789">
  <ele>1583.0</ele>
  <time>2026-09-02T20:50:21Z</time>
  <course>0.0</course>
  <speed>0.0</speed>
  <fix>3d</fix>
</trkpt>
<trkpt lat="40.0713749" lon="-105.229789">
  <ele>1583.0</ele>
  <time>2026-09-02T20:50:21Z</time>
  <course>148.88</course>
  <speed>0.0</speed>
  <fix>3d</fix>
</trkpt>
<trkpt lat="40.0713749" lon="-105.229789">
  <ele>1583.0</ele>
  <time>2026-09-02T20:50:21Z</time>
  <course>0.0</course>
  <speed>0.0</speed>
  <fix>3d</fix>
</trkpt>
<trkpt lat="40.0713749" lon="-105.229789">
  <ele>1583.0</ele>
  <time>2026-09-02T20:50:21Z</time>
  <course>160.88</course>
  <speed>0.0</speed>
  <fix>3d</fix>
</trkpt>
<trkpt lat="40.0713749" lon="-105.229789">
  <ele>1583.0</ele>
  <time>2026-09-02T20:50:21Z</time>
  <course>0.0</course>
  <speed>0.0</speed>
  <fix>3d</fix>
</trkpt>
<trkpt lat="40.0713749" lon="-105.229789">
  <ele>1583.0</ele>
  <time>2026-09-02T20:50:21Z</time>
  <course>172.87</course>
  <speed>0.0</speed>
  <fix>3d</fix>
</trkpt>
<trkpt lat="40.0713749" lon="-105.229789">
  <ele>1583.0</ele>
  <time>2026-09-02T20:50:21Z</time>
  <course>0.0</course>
  <speed>0.0</speed>
  <fix>3d</fix>
</trkpt>
<trkpt lat="40.0713749" lon="-105.229789">
  <ele>1583.0</ele>
  <time>2026-09-02T20:50:21Z</time>
  <course>177.67</course>
  <speed>0.0</speed>
  <fix>3d</fix>
</trkpt>
<trkpt lat="40.0713749" lon="-105.229789">
  <ele>1583.0</ele>
  <time>2026-09-02T20:50:21Z</time>
  <course>0.0</course>
  <speed>0.0</speed>
  <fix>3d</fix>
</trkpt>
<trkpt lat="40.0713749" lon="-105.229789">
  <ele>1583.0</ele>
  <time>2026-09-02T20:50:21Z</time>
  <course>177.67</course>
  <speed>0.0</speed>
  <fix>3d</fix>
</trkpt>
<trkpt lat="40.0713749" lon="-105.229789">
  <ele>1583.0</ele>
  <time>2026-09-02T20:50:21Z</time>
  <course>0.0</course>
  <speed>0.0</speed>
  <fix>3d</fix>
</trkpt>
<trkpt lat="40.0713749" lon="-105.229789">
  <ele>1583.0</ele>
  <time>2026-09-02T20:50:21Z</time>
  <course>177.67</course>
  <speed>0.0</speed>
  <fix>3d</fix>
</trkpt>
<trkpt lat="40.0713749" lon="-105.229789">
  <ele>1583.0</ele>
  <time>2026-09-02T20:50:21Z</time>
  <course>0.0</course>
  <speed>0.0</speed>
  <fix>3d</fix>
</trkpt>
<trkpt lat="40.0713749" lon="-105.229789">
  <ele>1583.0</ele>
  <time>2026-09-02T20:50:21Z</time>
  <course>177.6</course>
  <speed>0.0</speed>
  <fix>3d</fix>
</trkpt>
<trkpt lat="40.0713749" lon="-105.229789">
  <ele>1583.0</ele>
  <time>2026-09-02T20:50:21Z</time>
  <course>0.0</course>
  <speed>0.0</speed>
  <fix>3d</fix>
</trkpt>
<trkpt lat="40.0713749" lon="-105.229789">
  <ele>1583.0</ele>
  <time>2026-09-02T20:50:21Z</time>
  <course>177.23</course>
  <speed>0.0</speed>
  <fix>3d</fix>
</trkpt>
<trkpt lat="40.0713749" lon="-105.229789">
  <ele>1583.0</ele>
  <time>2026-09-02T20:50:21Z</time>
  <course>0.0</course>
  <speed>0.0</speed>
  <fix>3d</fix>
</trkpt>
<trkpt lat="40.0713749" lon="-105.229789">
  <ele>1583.0</ele>
  <time>2026-09-02T20:50:21Z</time>
  <course>176.79</course>
  <speed>0.0</speed>
  <fix>3d</fix>
</trkpt>
<trkpt lat="40.0713749" lon="-105.229789">
  <ele>1583.0</ele>
  <time>2026-09-02T20:50:21Z</time>
  <course>0.0</course>
  <speed>0.0</speed>
  <fix>3d</fix>
</trkpt>
<trkpt lat="40.0713749" lon="-105.229789">
  <ele>1583.0</ele>
  <time>2026-09-02T20:50:21Z</time>
  <course>176.29</course>
  <speed>0.0</speed>
  <fix>3d</fix>
</trkpt>
<trkpt lat="40.0713749" lon="-105.229789">
  <ele>1583.0</ele>
  <time>2026-09-02T20:50:21Z</time>
  <course>0.0</course>
  <speed>0.0</speed>
  <fix>3d</fix>
</trkpt>
<trkpt lat="40.0713749" lon="-105.229789">
  <ele>1583.0</ele>
  <time>2026-09-02T20:50:21Z</time>
  <course>175.72</course>
  <speed>0.0</speed>
  <fix>3d</fix>
</trkpt>
<trkpt lat="40.0713749" lon="-105.229789">
  <ele>1583.0</ele>
  <time>2026-09-02T20:50:21Z</time>
  <course>0.0</course>
  <speed>0.0</speed>
  <fix>3d</fix>
</trkpt>
<trkpt lat="40.0713749" lon="-105.229789">
  <ele>1583.0</ele>
  <time>2026-09-02T20:50:21Z</time>
  <course>175.05</course>
  <speed>0.0</speed>
  <fix>3d</fix>
</trkpt>
<trkpt lat="40.0713749" lon="-105.229789">
  <ele>1583.0</ele>
  <time>2026-09-02T20:50:21Z</time>
  <course>0.0</course>
  <speed>0.0</speed>
  <fix>3d</fix>
</trkpt>
<trkpt lat="40.0713749" lon="-105.229789">
  <ele>1583.0</ele>
  <time>2026-09-02T20:50:21Z</time>
  <course>174.28</course>
  <speed>0.0</speed>
  <fix>3d</fix>
</trkpt>
<trkpt lat="40.0713749" lon="-105.229789">
  <ele>1583.0</ele>
  <time>2026-09-02T20:50:21Z</time>
  <course>0.0</course>
  <speed>0.0</speed>
  <fix>3d</fix>
</trkpt>
<trkpt lat="40.0713749" lon="-105.229789">
  <ele>1583.0</ele>
  <time>2026-09-02T20:50:21Z</time>
  <course>173.38</course>
  <speed>0.0</speed>
  <fix>3d</fix>
</trkpt>
<trkpt lat="40.0713749" lon="-105.229789">
  <ele>1583.0</ele>
  <time>2026-09-02T20:50:21Z</time>
  <course>0.0</course>
  <speed>0.0</speed>
  <fix>3d</fix>
</trkpt>
<trkpt lat="40.0713749" lon="-105.229789">
  <ele>1583.0</ele>
  <time>2026-09-02T20:50:21Z</time>
  <course>172.35</course>
  <speed>0.0</speed>
  <fix>3d</fix>
</trkpt>
<trkpt lat="40.0713749" lon="-105.229789">
  <ele>1583.0</ele>
  <time>2026-09-02T20:50:21Z</time>
  <course>0.0</course>
  <speed>0.0</speed>
  <fix>3d</fix>
</trkpt>
<trkpt lat="40.0713749" lon="-105.229789">
  <ele>1583.0</ele>
  <time>2026-09-02T20:50:21Z</time>
  <course>171.16</course>
  <speed>0.0</speed>
  <fix>3d</fix>
</trkpt>
<trkpt lat="40.0713749" lon="-105.229789">
  <ele>1583.0</ele>
  <time>2026-09-02T20:50:21Z</time>
  <course>0.0</course>
  <speed>0.0</speed>
  <fix>3d</fix>
</trkpt>
<trkpt lat="40.0713749" lon="-105.229789">
  <ele>1583.0</ele>
  <time>2026-09-02T20:50:21Z</time>
  <course>169.78</course>
  <speed>0.0</speed>
  <fix>3d</fix>
</trkpt>
<trkpt lat="40.0713749" lon="-105.229789">
  <ele>1583.0</ele>
  <time>2026-09-02T20:50:21Z</time>
  <course>0.0</course>
  <speed>0.0</speed>
  <fix>3d</fix>
</trkpt>
<trkpt lat="40.0713749" lon="-105.229789">
  <ele>1583.0</ele>
  <time>2026-09-02T20:50:21Z</time>
  <course>168.53</course>
  <speed>0.0</speed>
  <fix>3d</fix>
</trkpt>
<trkpt lat="40.0713749" lon="-105.229789">
  <ele>1583.0</ele>
  <time>2026-09-02T20:50:21Z</time>
  <course>0.0</course>
  <speed>0.0</speed>
  <fix>3d</fix>
</trkpt>
<trkpt lat="40.0713749" lon="-105.229789">
  <ele>1583.0</ele>
  <time>2026-09-02T20:50:21Z</time>
  <course>166.75</course>
  <speed>0.0</speed>
  <fix>3d</fix>
</trkpt>
<trkpt lat="40.0713749" lon="-105.229789">
  <ele>1583.0</ele>
  <time>2026-09-02T20:50:21Z</time>
  <course>0.0</course>
  <speed>0.0</speed>
  <fix>3d</fix>
</trkpt>
<trkpt lat="40.0713749" lon="-105.229789">
  <ele>1583.0</ele>
  <time>2026-09-02T20:50:21Z</time>
  <course>164.7</course>
  <speed>0.0</speed>
  <fix>3d</fix>
</trkpt>
<trkpt lat="40.0713749" lon="-105.229789">
  <ele>1583.0</ele>
  <time>2026-09-02T20:50:21Z</time>
  <course>0.0</course>
  <speed>0.0</speed>
  <fix>3d</fix>
</trkpt>
<trkpt lat="40.0713749" lon="-105.229789">
  <ele>1583.0</ele>
  <time>2026-09-02T20:50:21Z</time>
  <course>162.34</course>
  <speed>0.0</speed>
  <fix>3d</fix>
</trkpt>
<trkpt lat="40.0713749" lon="-105.229789">
  <ele>1583.0</ele>
  <time>2026-09-02T20:50:21Z</time>
  <course>0.0</course>
  <speed>0.0</speed>
  <fix>3d</fix>
</trkpt>
<trkpt lat="40.0713749" lon="-105.229789">
  <ele>1583.0</ele>
  <time>2026-09-02T20:50:21Z</time>
  <course>159.64</course>
  <speed>0.0</speed>
  <fix>3d</fix>
</trkpt>
<trkpt lat="40.0713749" lon="-105.229789">
  <ele>1583.0</ele>
  <time>2026-09-02T20:50:21Z</time>
  <course>0.0</course>
  <speed>0.0</speed>
  <fix>3d</fix>
</trkpt>
<trkpt lat="40.0713749" lon="-105.229789">
  <ele>1583.0</ele>
  <time>2026-09-02T20:50:21Z</time>
  <course>156.54</course>
  <speed>0.0</speed>
  <fix>3d</fix>
</trkpt>
<trkpt lat="40.0713749" lon="-105.229789">
  <ele>1583.0</ele>
  <time>2026-09-02T20:50:21Z</time>
  <course>0.0</course>
  <speed>0.0</speed>
  <fix>3d</fix>
</trkpt>
<trkpt lat="40.0713749" lon="-105.229789">
  <ele>1583.0</ele>
  <time>2026-09-02T20:50:21Z</time>
  <course>153.0</course>
  <speed>0.0</speed>
  <fix>3d</fix>
</trkpt>
<trkpt lat="40.0713749" lon="-105.229789">
  <ele>1583.0</ele>
  <time>2026-09-02T20:50:21Z</time>
  <course>0.0</course>
  <speed>0.0</speed>
  <fix>3d</fix>
</trkpt>
<trkpt lat="40.0713749" lon="-105.229789">
  <ele>1583.0</ele>
  <time>2026-09-02T20:50:21Z</time>
  <course>153.0</course>
  <speed>0.0</speed>
  <fix>3d</fix>
</trkpt>
<trkpt lat="40.0713749" lon="-105.229789">
  <ele>1583.0</ele>
  <time>2026-09-02T20:50:21Z</time>
  <course>0.0</course>
  <speed>0.0</speed>
  <fix>3d</fix>
</trkpt>
<trkpt lat="40.0713749" lon="-105.229789">
  <ele>1583.0</ele>
  <time>2026-09-02T20:50:21Z</time>
  <course>153.0</course>
  <speed>0.0</speed>
  <fix>3d</fix>
</trkpt>
<trkpt lat="40.0713749" lon="-105.229789">
  <ele>1583.0</ele>
  <time>2026-09-02T20:50:21Z</time>
  <course>0.0</course>
  <speed>0.0</speed>
  <fix>3d</fix>
</trkpt>
<trkpt lat="40.0713749" lon="-105.229789">
  <ele>1583.0</ele>
  <time>2026-09-02T20:50:21Z</time>
  <course>153.0</course>
  <speed>0.0</speed>
  <fix>3d</fix>
</trkpt>
<trkpt lat="40.0713749" lon="-105.229789">
  <ele>1583.0</ele>
  <time>2026-09-02T20:50:21Z</time>
  <course>0.0</course>
  <speed>0.0</speed>
  <fix>3d</fix>
</trkpt>
<trkpt lat="40.0713749" lon="-105.229789">
  <ele>1583.0</ele>
  <time>2026-09-02T20:50:21Z</time>
  <course>153.0</course>
  <speed>0.0</speed>
  <fix>3d</fix>
</trkpt>
<trkpt lat="40.0713749" lon="-105.229789">
  <ele>1583.0</ele>
  <time>2026-09-02T20:50:21Z</time>
  <course>0.0</course>
  <speed>0.0</speed>
  <fix>3d</fix>
</trkpt>
<trkpt lat="40.0713749" lon="-105.229789">
  <ele>1583.0</ele>
  <time>2026-09-02T20:50:21Z</time>
  <course>153.0</course>
  <speed>0.0</speed>
  <fix>3d</fix>
</trkpt>
<trkpt lat="40.0713749" lon="-105.229789">
  <ele>1583.0</ele>
  <time>2026-09-02T20:50:21Z</time>
  <course>0.0</course>
  <speed>0.0</speed>
  <fix>3d</fix>
</trkpt>
<trkpt lat="40.0713749" lon="-105.229789">
  <ele>1583.0</ele>
  <time>2026-09-02T20:50:21Z</time>
  <course>153.0</course>
  <speed>0.0</speed>
  <fix>3d</fix>
</trkpt>
<trkpt lat="40.0713749" lon="-105.229789">
  <ele>1583.0</ele>
  <time>2026-09-02T20:50:21Z</time>
  <course>0.0</course>
  <speed>0.0</speed>
  <fix>3d</fix>
</trkpt>
<trkpt lat="40.0713749" lon="-105.229789">
  <ele>1583.0</ele>
  <time>2026-09-02T20:50:21Z</time>
  <course>153.0</course>
  <speed>0.0</speed>
  <fix>3d</fix>
</trkpt>
<trkpt lat="40.0713749" lon="-105.229789">
  <ele>1583.0</ele>
  <time>2026-09-02T20:50:21Z</time>
  <course>0.0</course>
  <speed>0.0</speed>
  <fix>3d</fix>
</trkpt>
<trkpt lat="40.0713749" lon="-105.229789">
  <ele>1583.0</ele>
  <time>2026-09-02T20:50:21Z</time>
  <course>152.23</course>
  <speed>0.0</speed>
  <fix>3d</fix>
</trkpt>
<trkpt lat="40.0713749" lon="-105.229789">
  <ele>1583.0</ele>
  <time>2026-09-02T20:50:21Z</time>
  <course>0.0</course>
  <speed>0.0</speed>
  <fix>3d</fix>
</trkpt>
<trkpt lat="40.0713749" lon="-105.229789">
  <ele>1583.0</ele>
  <time>2026-09-02T20:50:21Z</time>
  <course>148.1</course>
  <speed>0.0</speed>
  <fix>3d</fix>
</trkpt>
<trkpt lat="40.0713749" lon="-105.229789">
  <ele>1583.0</ele>
  <time>2026-09-02T20:50:21Z</time>
  <course>0.0</course>
  <speed>0.0</speed>
  <fix>3d</fix>
</trkpt>
<trkpt lat="40.0713749" lon="-105.229789">
  <ele>1583.0</ele>
  <time>2026-09-02T20:50:21Z</time>
  <course>143.43</course>
  <speed>0.0</speed>
  <fix>3d</fix>
</trkpt>
<trkpt lat="40.0713749" lon="-105.229789">
  <ele>1583.0</ele>
  <time>2026-09-02T20:50:21Z</time>
  <course>0.0</course>
  <speed>0.0</speed>
  <fix>3d</fix>
</trkpt>
<trkpt lat="40.0713749" lon="-105.229789">
  <ele>1583.0</ele>
  <time>2026-09-02T20:50:21Z</time>
  <course>138.17</course>
  <speed>0.0</speed>
  <fix>3d</fix>
</trkpt>
<trkpt lat="40.0713749" lon="-105.229789">
  <ele>1583.0</ele>
  <time>2026-09-02T20:50:21Z</time>
  <course>0.0</course>
  <speed>0.0</speed>
  <fix>3d</fix>
</trkpt>
<trkpt lat="40.0713749" lon="-105.229789">
  <ele>1583.0</ele>
  <time>2026-09-02T20:50:21Z</time>
  <course>132.32</course>
  <speed>0.0</speed>
  <fix>3d</fix>
</trkpt>
<trkpt lat="40.0713749" lon="-105.229789">
  <ele>1583.0</ele>
  <time>2026-09-02T20:50:21Z</time>
  <course>0.0</course>
  <speed>0.0</speed>
  <fix>3d</fix>
</trkpt>
<trkpt lat="40.0713749" lon="-105.229789">
  <ele>1583.0</ele>
  <time>2026-09-02T20:50:21Z</time>
  <course>125.87</course>
  <speed>0.0</speed>
  <fix>3d</fix>
</trkpt>
<trkpt lat="40.0713749" lon="-105.229789">
  <ele>1583.0</ele>
  <time>2026-09-02T20:50:21Z</time>
  <course>0.0</course>
  <speed>0.0</speed>
  <fix>3d</fix>
</trkpt>
<trkpt lat="40.0713749" lon="-105.229789">
  <ele>1583.0</ele>
  <time>2026-09-02T20:50:21Z</time>
  <course>120.24</course>
  <speed>0.0</speed>
  <fix>3d</fix>
</trkpt>
<trkpt lat="40.0713749" lon="-105.229789">
  <ele>1583.0</ele>
  <time>2026-09-02T20:50:21Z</time>
  <course>0.0</course>
  <speed>0.0</speed>
  <fix>3d</fix>
</trkpt>
<trkpt lat="40.0713749" lon="-105.229789">
  <ele>1583.0</ele>
  <time>2026-09-02T20:50:21Z</time>
  <course>112.79</course>
  <speed>0.0</speed>
  <fix>3d</fix>
</trkpt>
<trkpt lat="40.0713749" lon="-105.229789">
  <ele>1583.0</ele>
  <time>2026-09-02T20:50:21Z</time>
  <course>0.0</course>
  <speed>0.0</speed>
  <fix>3d</fix>
</trkpt>
<trkpt lat="40.0713749" lon="-105.229789">
  <ele>1583.0</ele>
  <time>2026-09-02T20:50:21Z</time>
  <course>104.92</course>
  <speed>0.0</speed>
  <fix>3d</fix>
</trkpt>
<trkpt lat="40.0713749" lon="-105.229789">
  <ele>1583.0</ele>
  <time>2026-09-02T20:50:21Z</time>
  <course>0.0</course>
  <speed>0.0</speed>
  <fix>3d</fix>
</trkpt>
<trkpt lat="40.0713749" lon="-105.229789">
  <ele>1583.0</ele>
  <time>2026-09-02T20:50:21Z</time>
  <course>96.75</course>
  <speed>0.0</speed>
  <fix>3d</fix>
</trkpt>
<trkpt lat="40.0713749" lon="-105.229789">
  <ele>1583.0</ele>
  <time>2026-09-02T20:50:21Z</time>
  <course>0.0</course>
  <speed>0.0</speed>
  <fix>3d</fix>
</trkpt>
<trkpt lat="40.0713749" lon="-105.229789">
  <ele>1583.0</ele>
  <time>2026-09-02T20:50:21Z</time>
  <course>88.44</course>
  <speed>0.0</speed>
  <fix>3d</fix>
</trkpt>
<trkpt lat="40.0713749" lon="-105.229789">
  <ele>1583.0</ele>
  <time>2026-09-02T20:50:21Z</time>
  <course>0.0</course>
  <speed>0.0</speed>
  <fix>3d</fix>
</trkpt>
<trkpt lat="40.0713749" lon="-105.229789">
  <ele>1583.0</ele>
  <time>2026-09-02T20:50:21Z</time>
  <course>80.17</course>
  <speed>0.0</speed>
  <fix>3d</fix>
</trkpt>
<trkpt lat="40.0713749" lon="-105.229789">
  <ele>1583.0</ele>
  <time>2026-09-02T20:50:21Z</time>
  <course>0.0</course>
  <speed>0.0</speed>
  <fix>3d</fix>
</trkpt>
<trkpt lat="40.0713749" lon="-105.229789">
  <ele>1583.0</ele>
  <time>2026-09-02T20:50:21Z</time>
  <course>72.09</course>
  <speed>0.0</speed>
  <fix>3d</fix>
</trkpt>
<trkpt lat="40.0713749" lon="-105.229789">
  <ele>1583.0</ele>
  <time>2026-09-02T20:50:21Z</time>
  <course>0.0</course>
  <speed>0.0</speed>
  <fix>3d</fix>
</trkpt>
<trkpt lat="40.0713749" lon="-105.229789">
  <ele>1583.0</ele>
  <time>2026-09-02T20:50:21Z</time>
  <course>64.36</course>
  <speed>0.0</speed>
  <fix>3d</fix>
</trkpt>
<trkpt lat="40.0713749" lon="-105.229789">
  <ele>1583.0</ele>
  <time>2026-09-02T20:50:21Z</time>
  <course>0.0</course>
  <speed>0.0</speed>
  <fix>3d</fix>
</trkpt>
<trkpt lat="40.0713749" lon="-105.229789">
  <ele>1583.0</ele>
  <time>2026-09-02T20:50:21Z</time>
  <course>57.1</course>
  <speed>0.0</speed>
  <fix>3d</fix>
</trkpt>
<trkpt lat="40.0713749" lon="-105.229789">
  <ele>1583.0</ele>
  <time>2026-09-02T20:50:21Z</time>
  <course>0.0</course>
  <speed>0.0</speed>
  <fix>3d</fix>
</trkpt>
<trkpt lat="40.0713749" lon="-105.229789">
  <ele>1583.0</ele>
  <time>2026-09-02T20:50:21Z</time>
  <course>50.39</course>
  <speed>0.0</speed>
  <fix>3d</fix>
</trkpt>
<trkpt lat="40.0713749" lon="-105.229789">
  <ele>1583.0</ele>
  <time>2026-09-02T20:50:21Z</time>
  <course>0.0</course>
  <speed>0.0</speed>
  <fix>3d</fix>
</trkpt>
<trkpt lat="40.0713749" lon="-105.229789">
  <ele>1583.0</ele>
  <time>2026-09-02T20:50:21Z</time>
  <course>43.12</course>
  <speed>0.0</speed>
  <fix>3d</fix>
</trkpt>
<trkpt lat="40.0713749" lon="-105.229789">
  <ele>1583.0</ele>
  <time>2026-09-02T20:50:21Z</time>
  <course>0.0</course>
  <speed>0.0</speed>
  <fix>3d</fix>
</trkpt>
<trkpt lat="40.0713749" lon="-105.229789">
  <ele>1583.0</ele>
  <time>2026-09-02T20:50:21Z</time>
  <course>37.73</course>
  <speed>0.0</speed>
  <fix>3d</fix>
</trkpt>
<trkpt lat="40.0713749" lon="-105.229789">
  <ele>1583.0</ele>
  <time>2026-09-02T20:50:21Z</time>
  <course>0.0</course>
  <speed>0.0</speed>
  <fix>3d</fix>
</trkpt>
<trkpt lat="40.0713749" lon="-105.229789">
  <ele>1583.0</ele>
  <time>2026-09-02T20:50:21Z</time>
  <course>32.92</course>
  <speed>0.0</speed>
  <fix>3d</fix>
</trkpt>
<trkpt lat="40.0713749" lon="-105.229789">
  <ele>1583.0</ele>
  <time>2026-09-02T20:50:21Z</time>
  <course>0.0</course>
  <speed>0.0</speed>
  <fix>3d</fix>
</trkpt>
<trkpt lat="40.0713749" lon="-105.229789">
  <ele>1583.0</ele>
  <time>2026-09-02T20:50:21Z</time>
  <course>28.66</course>
  <speed>0.0</speed>
  <fix>3d</fix>
</trkpt>
<trkpt lat="40.0713749" lon="-105.229789">
  <ele>1583.0</ele>
  <time>2026-09-02T20:50:21Z</time>
  <course>0.0</course>
  <speed>0.0</speed>
  <fix>3d</fix>
</trkpt>
<trkpt lat="40.0713749" lon="-105.229789">
  <ele>1583.0</ele>
  <time>2026-09-02T20:50:21Z</time>
  <course>24.91</course>
  <speed>0.0</speed>
  <fix>3d</fix>
</trkpt>
<trkpt lat="40.0713749" lon="-105.229789">
  <ele>1583.0</ele>
  <time>2026-09-02T20:50:21Z</time>
  <course>0.0</course>
  <speed>0.0</speed>
  <fix>3d</fix>
</trkpt>
<trkpt lat="40.0713749" lon="-105.229789">
  <ele>1583.0</ele>
  <time>2026-09-02T20:50:21Z</time>
  <course>21.62</course>
  <speed>0.0</speed>
  <fix>3d</fix>
</trkpt>
<trkpt lat="40.0713749" lon="-105.229789">
  <ele>1583.0</ele>
  <time>2026-09-02T20:50:21Z</time>
  <course>0.0</course>
  <speed>0.0</speed>
  <fix>3d</fix>
</trkpt>
<trkpt lat="40.0713749" lon="-105.229789">
  <ele>1583.0</ele>
  <time>2026-09-02T20:50:21Z</time>
  <course>18.75</course>
  <speed>0.0</speed>
  <fix>3d</fix>
</trkpt>
<trkpt lat="40.0713749" lon="-105.229789">
  <ele>1583.0</ele>
  <time>2026-09-02T20:50:21Z</time>
  <course>0.0</course>
  <speed>0.0</speed>
  <fix>3d</fix>
</trkpt>
<trkpt lat="40.0713749" lon="-105.229789">
  <ele>1583.0</ele>
  <time>2026-09-02T20:50:21Z</time>
  <course>16.25</course>
  <speed>0.0</speed>
  <fix>3d</fix>
</trkpt>
<trkpt lat="40.0713749" lon="-105.229789">
  <ele>1583.0</ele>
  <time>2026-09-02T20:50:21Z</time>
  <course>0.0</course>
  <speed>0.0</speed>
  <fix>3d</fix>
</trkpt>
<trkpt lat="40.0713749" lon="-105.229789">
  <ele>1583.0</ele>
  <time>2026-09-02T20:50:21Z</time>
  <course>14.07</course>
  <speed>0.0</speed>
  <fix>3d</fix>
</trkpt>
<trkpt lat="40.0713749" lon="-105.229789">
  <ele>1583.0</ele>
  <time>2026-09-02T20:50:21Z</time>
  <course>0.0</course>
  <speed>0.0</speed>
  <fix>3d</fix>
</trkpt>
<trkpt lat="40.0713749" lon="-105.229789">
  <ele>1583.0</ele>
  <time>2026-09-02T20:50:21Z</time>
  <course>12.18</course>
  <speed>0.0</speed>
  <fix>3d</fix>
</trkpt>
<trkpt lat="40.0713749" lon="-105.229789">
  <ele>1583.0</ele>
  <time>2026-09-02T20:50:21Z</time>
  <course>0.0</course>
  <speed>0.0</speed>
  <fix>3d</fix>
</trkpt>
<trkpt lat="40.0713749" lon="-105.229789">
  <ele>1583.0</ele>
  <time>2026-09-02T20:50:21Z</time>
  <course>10.55</course>
  <speed>0.0</speed>
  <fix>3d</fix>
</trkpt>
<trkpt lat="40.0713749" lon="-105.229789">
  <ele>1583.0</ele>
  <time>2026-09-02T20:50:21Z</time>
  <course>0.0</course>
  <speed>0.0</speed>
  <fix>3d</fix>
</trkpt>
<trkpt lat="40.0713749" lon="-105.229789">
  <ele>1583.0</ele>
  <time>2026-09-02T20:50:21Z</time>
  <course>9.38</course>
  <speed>0.0</speed>
  <fix>3d</fix>
</trkpt>
<trkpt lat="40.0713749" lon="-105.229789">
  <ele>1583.0</ele>
  <time>2026-09-02T20:50:21Z</time>
  <course>0.0</course>
  <speed>0.0</speed>
  <fix>3d</fix>
</trkpt>
<trkpt lat="40.0713749" lon="-105.229789">
  <ele>1583.0</ele>
  <time>2026-09-02T20:50:21Z</time>
  <course>8.12</course>
  <speed>0.0</speed>
  <fix>3d</fix>
</trkpt>
<trkpt lat="40.0713749" lon="-105.229789">
  <ele>1583.0</ele>
  <time>2026-09-02T20:50:21Z</time>
  <course>0.0</course>
  <speed>0.0</speed>
  <fix>3d</fix>
</trkpt>
<trkpt lat="40.0713749" lon="-105.229789">
  <ele>1583.0</ele>
  <time>2026-09-02T20:50:21Z</time>
  <course>7.02</course>
  <speed>0.0</speed>
  <fix>3d</fix>
</trkpt>
<trkpt lat="40.0713749" lon="-105.229789">
  <ele>1583.0</ele>
  <time>2026-09-02T20:50:21Z</time>
  <course>0.0</course>
  <speed>0.0</speed>
  <fix>3d</fix>
</trkpt>
<trkpt lat="40.0713749" lon="-105.229789">
  <ele>1583.0</ele>
  <time>2026-09-02T20:50:21Z</time>
  <course>6.07</course>
  <speed>0.0</speed>
  <fix>3d</fix>
</trkpt>
<trkpt lat="40.0713749" lon="-105.229789">
  <ele>1583.0</ele>
  <time>2026-09-02T20:50:21Z</time>
  <course>0.0</course>
  <speed>0.0</speed>
  <fix>3d</fix>
</trkpt>
<trkpt lat="40.0713749" lon="-105.229789">
  <ele>1583.0</ele>
  <time>2026-09-02T20:50:21Z</time>
  <course>5.25</course>
  <speed>0.0</speed>
  <fix>3d</fix>
</trkpt>
<trkpt lat="40.0713749" lon="-105.229789">
  <ele>1583.0</ele>
  <time>2026-09-02T20:50:21Z</time>
  <course>0.0</course>
  <speed>0.0</speed>
  <fix>3d</fix>
</trkpt>
<trkpt lat="40.0713749" lon="-105.229789">
  <ele>1583.0</ele>
  <time>2026-09-02T20:50:21Z</time>
  <course>4.54</course>
  <speed>0.0</speed>
  <fix>3d</fix>
</trkpt>
<trkpt lat="40.0713749" lon="-105.229789">
  <ele>1583.0</ele>
  <time>2026-09-02T20:50:21Z</time>
  <course>0.0</course>
  <speed>0.0</speed>
  <fix>3d</fix>
</trkpt>
<trkpt lat="40.0713749" lon="-105.229789">
  <ele>1583.0</ele>
  <time>2026-09-02T20:50:21Z</time>
  <course>3.92</course>
  <speed>0.0</speed>
  <fix>3d</fix>
</trkpt>
<trkpt lat="40.0713749" lon="-105.229789">
  <ele>1583.0</ele>
  <time>2026-09-02T20:50:21Z</time>
  <course>0.0</course>
  <speed>0.0</speed>
  <fix>3d</fix>
</trkpt>
<trkpt lat="40.0713749" lon="-105.229789">
  <ele>1583.0</ele>
  <time>2026-09-02T20:50:21Z</time>
  <course>3.39</course>
  <speed>0.0</speed>
  <fix>3d</fix>
</trkpt>
<trkpt lat="40.0713749" lon="-105.229789">
  <ele>1583.0</ele>
  <time>2026-09-02T20:50:21Z</time>
  <course>0.0</course>
  <speed>0.0</speed>
  <fix>3d</fix>
</trkpt>
<trkpt lat="40.0713749" lon="-105.229789">
  <ele>1583.0</ele>
  <time>2026-09-02T20:50:21Z</time>
  <course>2.93</course>
  <speed>0.0</speed>
  <fix>3d</fix>
</trkpt>
<trkpt lat="40.0713749" lon="-105.229789">
  <ele>1583.0</ele>
  <time>2026-09-02T20:50:21Z</time>
  <course>0.0</course>
  <speed>0.0</speed>
  <fix>3d</fix>
</trkpt>
<trkpt lat="40.0713749" lon="-105.229789">
  <ele>1583.0</ele>
  <time>2026-09-02T20:50:21Z</time>
  <course>2.54</course>
  <speed>0.0</speed>
  <fix>3d</fix>
</trkpt>
<trkpt lat="40.0713749" lon="-105.229789">
  <ele>1583.0</ele>
  <time>2026-09-02T20:50:21Z</time>
  <course>0.0</course>
  <speed>0.0</speed>
  <fix>3d</fix>
</trkpt>
<trkpt lat="40.0713749" lon="-105.229789">
  <ele>1583.0</ele>
  <time>2026-09-02T20:50:21Z</time>
  <course>2.13</course>
  <speed>0.0</speed>
  <fix>3d</fix>
</trkpt>
<trkpt lat="40.0713749" lon="-105.229789">
  <ele>1583.0</ele>
  <time>2026-09-02T20:50:21Z</time>
  <course>0.0</course>
  <speed>0.0</speed>
  <fix>3d</fix>
</trkpt>
<trkpt lat="40.0713749" lon="-105.229789">
  <ele>1583.0</ele>
  <time>2026-09-02T20:50:21Z</time>
  <course>0.0</course>
  <speed>0.0</speed>
  <fix>3d</fix>
</trkpt>
<trkpt lat="40.0713749" lon="-105.229789">
  <ele>1583.0</ele>
  <time>2026-09-02T20:50:21Z</time>
  <course>0.0</course>
  <speed>0.0</speed>
  <fix>3d</fix>
</trkpt>
<trkpt lat="40.0713749" lon="-105.229789">
  <ele>1583.0</ele>
  <time>2026-09-02T20:50:21Z</time>
  <course>0.0</course>
  <speed>0.0</speed>
  <fix>3d</fix>
</trkpt>
<trkpt lat="40.0713749" lon="-105.229789">
  <ele>1583.0</ele>
  <time>2026-09-02T20:50:21Z</time>
  <course>0.0</course>
  <speed>0.0</speed>
  <fix>3d</fix>
</trkpt>
<trkpt lat="40.0713749" lon="-105.229789">
  <ele>1583.0</ele>
  <time>2026-09-02T20:50:21Z</time>
  <course>0.0</course>
  <speed>0.0</speed>
  <fix>3d</fix>
</trkpt>
<trkpt lat="40.0713749" lon="-105.229789">
  <ele>1583.0</ele>
  <time>2026-09-02T20:50:21Z</time>
  <course>0.0</course>
  <speed>0.0</speed>
  <fix>3d</fix>
</trkpt>
<trkpt lat="40.0713749" lon="-105.229789">
  <ele>1583.0</ele>
  <time>2026-09-02T20:50:21Z</time>
  <course>0.0</course>
  <speed>0.0</speed>
  <fix>3d</fix>
</trkpt>
<trkpt lat="40.0713749" lon="-105.229789">
  <ele>1583.0</ele>
  <time>2026-09-02T20:50:21Z</time>
  <course>0.0</course>
  <speed>0.0</speed>
  <fix>3d</fix>
</trkpt>
<trkpt lat="40.0713749" lon="-105.229789">
  <ele>1583.0</ele>
  <time>2026-09-02T20:50:21Z</time>
  <course>0.0</course>
  <speed>0.0</speed>
  <fix>3d</fix>
</trkpt>
<trkpt lat="40.0713749" lon="-105.229789">
  <ele>1583.0</ele>
  <time>2026-09-02T20:50:21Z</time>
  <course>0.0</course>
  <speed>0.0</speed>
  <fix>3d</fix>
</trkpt>
<trkpt lat="40.0713749" lon="-105.229789">
  <ele>1583.0</ele>
  <time>2026-09-02T20:50:21Z</time>
  <course>0.0</course>
  <speed>0.0</speed>
  <fix>3d</fix>
</trkpt>
<trkpt lat="40.0713749" lon="-105.229789">
  <ele>1583.0</ele>
  <time>2026-09-02T20:50:21Z</time>
  <course>0.0</course>
  <speed>0.0</speed>
  <fix>3d</fix>
</trkpt>
<trkpt lat="40.0713749" lon="-105.229789">
  <ele>1583.0</ele>
  <time>2026-09-02T20:50:21Z</time>
  <course>0.0</course>
  <speed>0.0</speed>
  <fix>3d</fix>
</trkpt>
<trkpt lat="40.0713749" lon="-105.229789">
  <ele>1583.0</ele>
  <time>2026-09-02T20:50:21Z</time>
  <course>0.0</course>
  <speed>0.0</speed>
  <fix>3d</fix>
</trkpt>
<trkpt lat="40.0713749" lon="-105.229789">
  <ele>1583.0</ele>
  <time>2026-09-02T20:50:21Z</time>
  <course>0.0</course>
  <speed>0.0</speed>
  <fix>3d</fix>
</trkpt>
<trkpt lat="40.0713749" lon="-105.229789">
  <ele>1583.0</ele>
  <time>2026-09-02T20:50:21Z</time>
  <course>0.0</course>
  <speed>0.0</speed>
  <fix>3d</fix>
</trkpt>
<trkpt lat="40.0713749" lon="-105.229789">
  <ele>1583.0</ele>
  <time>2026-09-02T20:50:21Z</time>
  <course>0.0</course>
  <speed>0.0</speed>
  <fix>3d</fix>
</trkpt>
<trkpt lat="40.0713749" lon="-105.229789">
  <ele>1583.0</ele>
  <time>2026-09-02T20:50:21Z</time>
  <course>0.0</course>
  <speed>0.0</speed>
  <fix>3d</fix>
</trkpt>
<trkpt lat="40.0713749" lon="-105.229789">
  <ele>1583.0</ele>
  <time>2026-09-02T20:50:21Z</time>
  <course>0.0</course>
  <speed>0.0</speed>
  <fix>3d</fix>
</trkpt>
<trkpt lat="40.0713749" lon="-105.229789">
  <ele>1583.0</ele>
  <time>2026-09-02T20:50:21Z</time>
  <course>0.0</course>
  <speed>0.0</speed>
  <fix>3d</fix>
</trkpt>
<trkpt lat="40.0713749" lon="-105.229789">
  <ele>1583.0</ele>
  <time>2026-09-02T20:50:21Z</time>
  <course>0.0</course>
  <speed>0.0</speed>
  <fix>3d</fix>
</trkpt>
<trkpt lat="40.0713749" lon="-105.229789">
  <ele>1583.0</ele>
  <time>2026-09-02T20:50:21Z</time>
  <course>0.0</course>
  <speed>0.0</speed>
  <fix>3d</fix>
</trkpt>
<trkpt lat="40.0713749" lon="-105.229789">
  <ele>1583.0</ele>
  <time>2026-09-02T20:50:21Z</time>
  <course>0.0</course>
  <speed>0.0</speed>
  <fix>3d</fix>
</trkpt>
<trkpt lat="40.0713749" lon="-105.229789">
  <ele>1583.0</ele>
  <time>2026-09-02T20:50:21Z</time>
  <course>0.0</course>
  <speed>0.0</speed>
  <fix>3d</fix>
</trkpt>
<trkpt lat="40.0713749" lon="-105.229789">
  <ele>1583.0</ele>
  <time>2026-09-02T20:50:21Z</time>
  <course>0.0</course>
  <speed>0.0</speed>
  <fix>3d</fix>
</trkpt>
<trkpt lat="40.0713749" lon="-105.229789">
  <ele>1583.0</ele>
  <time>2026-09-02T20:50:21Z</time>
  <course>0.0</course>
  <speed>0.0</speed>
  <fix>3d</fix>
</trkpt>
<trkpt lat="40.0713749" lon="-105.229789">
  <ele>1583.0</ele>
  <time>2026-09-02T20:50:21Z</time>
  <course>0.0</course>
  <speed>0.0</speed>
  <fix>3d</fix>
</trkpt>
<trkpt lat="40.0713749" lon="-105.229789">
  <ele>1583.0</ele>
  <time>2026-09-02T20:50:21Z</time>
  <course>0.0</course>
  <speed>0.0</speed>
  <fix>3d</fix>
</trkpt>
<trkpt lat="40.0713749" lon="-105.229789">
  <ele>1583.0</ele>
  <time>2026-09-02T20:50:21Z</time>
  <course>0.0</course>
  <speed>0.0</speed>
  <fix>3d</fix>
</trkpt>
<trkpt lat="40.0713749" lon="-105.229789">
  <ele>1583.0</ele>
  <time>2026-09-02T20:50:21Z</time>
  <course>0.0</course>
  <speed>0.0</speed>
  <fix>3d</fix>
</trkpt>
<trkpt lat="40.0713749" lon="-105.229789">
  <ele>1583.0</ele>
  <time>2026-09-02T20:50:21Z</time>
  <course>0.0</course>
  <speed>0.0</speed>
  <fix>3d</fix>
</trkpt>
<trkpt lat="40.0713749" lon="-105.229789">
  <ele>1583.0</ele>
  <time>2026-09-02T20:50:21Z</time>
  <course>0.0</course>
  <speed>0.0</speed>
  <fix>3d</fix>
</trkpt>
<trkpt lat="40.0713749" lon="-105.229789">
  <ele>1583.0</ele>
  <time>2026-09-02T20:50:21Z</time>
  <course>0.0</course>
  <speed>0.0</speed>
  <fix>3d</fix>
</trkpt>
<trkpt lat="40.0713749" lon="-105.229789">
  <ele>1583.0</ele>
  <time>2026-09-02T20:50:21Z</time>
  <course>0.0</course>
  <speed>0.0</speed>
  <fix>3d</fix>
</trkpt>
<trkpt lat="40.0713749" lon="-105.229789">
  <ele>1583.0</ele>
  <time>2026-09-02T20:50:21Z</time>
  <course>0.0</course>
  <speed>0.0</speed>
  <fix>3d</fix>
</trkpt>
<trkpt lat="40.0713749" lon="-105.229789">
  <ele>1583.0</ele>
  <time>2026-09-02T20:50:21Z</time>
  <course>0.0</course>
  <speed>0.0</speed>
  <fix>3d</fix>
</trkpt>
<trkpt lat="40.0713749" lon="-105.229789">
  <ele>1583.0</ele>
  <time>2026-09-02T20:50:21Z</time>
  <course>0.0</course>
  <speed>0.0</speed>
  <fix>3d</fix>
</trkpt>
<trkpt lat="40.0713749" lon="-105.229789">
  <ele>1583.0</ele>
  <time>2026-09-02T20:50:21Z</time>
  <course>0.0</course>
  <speed>0.0</speed>
  <fix>3d</fix>
</trkpt>
<trkpt lat="40.0713749" lon="-105.229789">
  <ele>1583.0</ele>
  <time>2026-09-02T20:50:21Z</time>
  <course>0.0</course>
  <speed>0.0</speed>
  <fix>3d</fix>
</trkpt>
<trkpt lat="40.0713749" lon="-105.229789">
  <ele>1583.0</ele>
  <time>2026-09-02T20:50:21Z</time>
  <course>0.0</course>
  <speed>0.0</speed>
  <fix>3d</fix>
</trkpt>
<trkpt lat="40.0713749" lon="-105.229789">
  <ele>1583.0</ele>
  <time>2026-09-02T20:50:21Z</time>
  <course>0.0</course>
  <speed>0.0</speed>
  <fix>3d</fix>
</trkpt>
<trkpt lat="40.0713749" lon="-105.229789">
  <ele>1583.0</ele>
  <time>2026-09-02T20:50:21Z</time>
  <course>0.0</course>
  <speed>0.0</speed>
  <fix>3d</fix>
</trkpt>
<trkpt lat="40.0713749" lon="-105.229789">
  <ele>1583.0</ele>
  <time>2026-09-02T20:50:21Z</time>
  <course>0.0</course>
  <speed>0.0</speed>
  <fix>3d</fix>
</trkpt>
<trkpt lat="40.0713749" lon="-105.229789">
  <ele>1583.0</ele>
  <time>2026-09-02T20:50:21Z</time>
  <course>0.0</course>
  <speed>0.0</speed>
  <fix>3d</fix>
</trkpt>
<trkpt lat="40.0713749" lon="-105.229789">
  <ele>1583.0</ele>
  <time>2026-09-02T20:50:21Z</time>
  <course>0.0</course>
  <speed>0.0</speed>
  <fix>3d</fix>
</trkpt>
<trkpt lat="40.0713749" lon="-105.229789">
  <ele>1583.0</ele>
  <time>2026-09-02T20:50:21Z</time>
  <course>0.0</course>
  <speed>0.0</speed>
  <fix>3d</fix>
</trkpt>
<trkpt lat="40.0713749" lon="-105.229789">
  <ele>1583.0</ele>
  <time>2026-09-02T20:50:21Z</time>
  <course>0.0</course>
  <speed>0.0</speed>
  <fix>3d</fix>
</trkpt>
<trkpt lat="40.0713749" lon="-105.229789">
  <ele>1583.0</ele>
  <time>2026-09-02T20:50:21Z</time>
  <course>0.0</course>
  <speed>0.0</speed>
  <fix>3d</fix>
</trkpt>
<trkpt lat="40.0713749" lon="-105.229789">
  <ele>1583.0</ele>
  <time>2026-09-02T20:50:21Z</time>
  <course>0.0</course>
  <speed>0.0</speed>
  <fix>3d</fix>
</trkpt>
<trkpt lat="40.0713749" lon="-105.229789">
  <ele>1583.0</ele>
  <time>2026-09-02T20:50:21Z</time>
  <course>0.0</course>
  <speed>0.0</speed>
  <fix>3d</fix>
</trkpt>
<trkpt lat="40.0713749" lon="-105.229789">
  <ele>1583.0</ele>
  <time>2026-09-02T20:50:21Z</time>
  <course>0.0</course>
  <speed>0.0</speed>
  <fix>3d</fix>
</trkpt>
<trkpt lat="40.0713749" lon="-105.229789">
  <ele>1583.0</ele>
  <time>2026-09-02T20:50:21Z</time>
  <course>0.0</course>
  <speed>0.0</speed>
  <fix>3d</fix>
</trkpt>
<trkpt lat="40.0713749" lon="-105.229789">
  <ele>1583.0</ele>
  <time>2026-09-02T20:50:21Z</time>
  <course>0.0</course>
  <speed>0.0</speed>
  <fix>3d</fix>
</trkpt>
<trkpt lat="40.0713749" lon="-105.229789">
  <ele>1583.0</ele>
  <time>2026-09-02T20:50:21Z</time>
  <course>0.0</course>
  <speed>0.0</speed>
  <fix>3d</fix>
</trkpt>
<trkpt lat="40.0713749" lon="-105.229789">
  <ele>1583.0</ele>
  <time>2026-09-02T20:50:21Z</time>
  <course>0.0</course>
  <speed>0.0</speed>
  <fix>3d</fix>
</trkpt>
<trkpt lat="40.0713749" lon="-105.229789">
  <ele>1583.0</ele>
  <time>2026-09-02T20:50:21Z</time>
  <course>0.0</course>
  <speed>0.0</speed>
  <fix>3d</fix>
</trkpt>
<trkpt lat="40.0713749" lon="-105.229789">
  <ele>1583.0</ele>
  <time>2026-09-02T20:50:21Z</time>
  <course>0.0</course>
  <speed>0.0</speed>
  <fix>3d</fix>
</trkpt>
<trkpt lat="40.0713749" lon="-105.229789">
  <ele>1583.0</ele>
  <time>2026-09-02T20:50:21Z</time>
  <course>0.0</course>
  <speed>0.0</speed>
  <fix>3d</fix>
</trkpt>
<trkpt lat="40.0713749" lon="-105.229789">
  <ele>1583.0</ele>
  <time>2026-09-02T20:50:21Z</time>
  <course>0.0</course>
  <speed>0.0</speed>
  <fix>3d</fix>
</trkpt>
<trkpt lat="40.0713749" lon="-105.229789">
  <ele>1583.0</ele>
  <time>2026-09-02T20:50:21Z</time>
  <course>0.0</course>
  <speed>0.0</speed>
  <fix>3d</fix>
</trkpt>
<trkpt lat="40.0713749" lon="-105.229789">
  <ele>1583.0</ele>
  <time>2026-09-02T20:50:21Z</time>
  <course>0.0</course>
  <speed>0.0</speed>
  <fix>3d</fix>
</trkpt>
<trkpt lat="40.0713749" lon="-105.229789">
  <ele>1583.0</ele>
  <time>2026-09-02T20:50:21Z</time>
  <course>0.0</course>
  <speed>0.0</speed>
  <fix>3d</fix>
</trkpt>
<trkpt lat="40.0713749" lon="-105.229789">
  <ele>1583.0</ele>
  <time>2026-09-02T20:50:21Z</time>
  <course>0.0</course>
  <speed>0.0</speed>
  <fix>3d</fix>
</trkpt>
<trkpt lat="40.0713749" lon="-105.229789">
  <ele>1583.0</ele>
  <time>2026-09-02T20:50:21Z</time>
  <course>0.0</course>
  <speed>0.0</speed>
  <fix>3d</fix>
</trkpt>
<trkpt lat="40.0713749" lon="-105.229789">
  <ele>1583.0</ele>
  <time>2026-09-02T20:50:21Z</time>
  <course>0.0</course>
  <speed>0.0</speed>
  <fix>3d</fix>
</trkpt>
<trkpt lat="40.0713749" lon="-105.229789">
  <ele>1583.0</ele>
  <time>2026-09-02T20:50:21Z</time>
  <course>0.0</course>
  <speed>0.0</speed>
  <fix>3d</fix>
</trkpt>
<trkpt lat="40.0713749" lon="-105.229789">
  <ele>1583.0</ele>
  <time>2026-09-02T20:50:21Z</time>
  <course>0.0</course>
  <speed>0.0</speed>
  <fix>3d</fix>
</trkpt>
<trkpt lat="40.0713749" lon="-105.229789">
  <ele>1583.0</ele>
  <time>2026-09-02T20:50:21Z</time>
  <course>0.0</course>
  <speed>0.0</speed>
  <fix>3d</fix>
</trkpt>
<trkpt lat="40.0713749" lon="-105.229789">
  <ele>1583.0</ele>
  <time>2026-09-02T20:50:21Z</time>
  <course>0.0</course>
  <speed>0.0</speed>
  <fix>3d</fix>
</trkpt>
<trkpt lat="40.0713749" lon="-105.229789">
  <ele>1583.0</ele>
  <time>2026-09-02T20:50:21Z</time>
  <course>0.0</course>
  <speed>0.0</speed>
  <fix>3d</fix>
</trkpt>
<trkpt lat="40.0713749" lon="-105.229789">
  <ele>1583.0</ele>
  <time>2026-09-02T20:50:21Z</time>
  <course>0.0</course>
  <speed>0.0</speed>
  <fix>3d</fix>
</trkpt>
<trkpt lat="40.0713749" lon="-105.229789">
  <ele>1583.0</ele>
  <time>2026-09-02T20:50:21Z</time>
  <course>0.0</course>
  <speed>0.0</speed>
  <fix>3d</fix>
</trkpt>
<trkpt lat="40.0713749" lon="-105.229789">
  <ele>1583.0</ele>
  <time>2026-09-02T20:50:21Z</time>
  <course>0.0</course>
  <speed>0.0</speed>
  <fix>3d</fix>
</trkpt>
<trkpt lat="40.0713749" lon="-105.229789">
  <ele>1583.0</ele>
  <time>2026-09-02T20:50:21Z</time>
  <course>0.0</course>
  <speed>0.0</speed>
  <fix>3d</fix>
</trkpt>
<trkpt lat="40.0713749" lon="-105.229789">
  <ele>1583.0</ele>
  <time>2026-09-02T20:50:21Z</time>
  <course>0.0</course>
  <speed>0.0</speed>
  <fix>3d</fix>
</trkpt>
<trkpt lat="40.0713749" lon="-105.229789">
  <ele>1583.0</ele>
  <time>2026-09-02T20:50:21Z</time>
  <course>0.0</course>
  <speed>0.0</speed>
  <fix>3d</fix>
</trkpt>
<trkpt lat="40.0713749" lon="-105.229789">
  <ele>1583.0</ele>
  <time>2026-09-02T20:50:21Z</time>
  <course>0.0</course>
  <speed>0.0</speed>
  <fix>3d</fix>
</trkpt>
<trkpt lat="40.0713749" lon="-105.229789">
  <ele>1583.0</ele>
  <time>2026-09-02T20:50:21Z</time>
  <course>0.0</course>
  <speed>0.0</speed>
  <fix>3d</fix>
</trkpt>
<trkpt lat="40.0713749" lon="-105.229789">
  <ele>1583.0</ele>
  <time>2026-09-02T20:50:21Z</time>
  <course>0.0</course>
  <speed>0.0</speed>
  <fix>3d</fix>
</trkpt>
<trkpt lat="40.0713749" lon="-105.229789">
  <ele>1583.0</ele>
  <time>2026-09-02T20:50:21Z</time>
  <course>0.0</course>
  <speed>0.0</speed>
  <fix>3d</fix>
</trkpt>
<trkpt lat="40.0713749" lon="-105.229789">
  <ele>1583.0</ele>
  <time>2026-09-02T20:50:22Z</time>
  <course>0.0</course>
  <speed>0.0</speed>
  <fix>3d</fix>
</trkpt>
<trkpt lat="40.0713749" lon="-105.229789">
  <ele>1583.0</ele>
  <time>2026-09-02T20:50:22Z</time>
  <course>0.0</course>
  <speed>0.0</speed>
  <fix>3d</fix>
</trkpt>
<trkpt lat="40.0713749" lon="-105.229789">
  <ele>1583.0</ele>
  <time>2026-09-02T20:50:22Z</time>
  <course>0.0</course>
  <speed>0.0</speed>
  <fix>3d</fix>
</trkpt>
<trkpt lat="40.0713749" lon="-105.229789">
  <ele>1583.0</ele>
  <time>2026-09-02T20:50:22Z</time>
  <course>0.0</course>
  <speed>0.0</speed>
  <fix>3d</fix>
</trkpt>
<trkpt lat="40.0713749" lon="-105.229789">
  <ele>1583.0</ele>
  <time>2026-09-02T20:50:22Z</time>
  <course>0.0</course>
  <speed>0.0</speed>
  <fix>3d</fix>
</trkpt>
<trkpt lat="40.0713749" lon="-105.229789">
  <ele>1583.0</ele>
  <time>2026-09-02T20:50:22Z</time>
  <course>0.0</course>
  <speed>0.0</speed>
  <fix>3d</fix>
</trkpt>
<trkpt lat="40.0713749" lon="-105.229789">
  <ele>1583.0</ele>
  <time>2026-09-02T20:50:22Z</time>
  <course>0.0</course>
  <speed>0.0</speed>
  <fix>3d</fix>
</trkpt>
<trkpt lat="40.0713749" lon="-105.229789">
  <ele>1583.0</ele>
  <time>2026-09-02T20:50:22Z</time>
  <course>0.0</course>
  <speed>0.0</speed>
  <fix>3d</fix>
</trkpt>
<trkpt lat="40.0713749" lon="-105.229789">
  <ele>1583.0</ele>
  <time>2026-09-02T20:50:22Z</time>
  <course>0.0</course>
  <speed>0.0</speed>
  <fix>3d</fix>
</trkpt>
<trkpt lat="40.0713749" lon="-105.229789">
  <ele>1583.0</ele>
  <time>2026-09-02T20:50:22Z</time>
  <course>0.0</course>
  <speed>0.0</speed>
  <fix>3d</fix>
</trkpt>
<trkpt lat="40.0713749" lon="-105.229789">
  <ele>1583.0</ele>
  <time>2026-09-02T20:50:22Z</time>
  <course>0.0</course>
  <speed>0.0</speed>
  <fix>3d</fix>
</trkpt>
<trkpt lat="40.0713749" lon="-105.229789">
  <ele>1583.0</ele>
  <time>2026-09-02T20:50:22Z</time>
  <course>0.0</course>
  <speed>0.0</speed>
  <fix>3d</fix>
</trkpt>
<trkpt lat="40.0713749" lon="-105.229789">
  <ele>1583.0</ele>
  <time>2026-09-02T20:50:22Z</time>
  <course>0.0</course>
  <speed>0.0</speed>
  <fix>3d</fix>
</trkpt>
<trkpt lat="40.0713749" lon="-105.229789">
  <ele>1583.0</ele>
  <time>2026-09-02T20:50:22Z</time>
  <course>0.0</course>
  <speed>0.0</speed>
  <fix>3d</fix>
</trkpt>
<trkpt lat="40.0713749" lon="-105.229789">
  <ele>1583.0</ele>
  <time>2026-09-02T20:50:22Z</time>
  <course>0.0</course>
  <speed>0.0</speed>
  <fix>3d</fix>
</trkpt>
<trkpt lat="40.0713749" lon="-105.229789">
  <ele>1583.0</ele>
  <time>2026-09-02T20:50:22Z</time>
  <course>0.0</course>
  <speed>0.0</speed>
  <fix>3d</fix>
</trkpt>
<trkpt lat="40.0713749" lon="-105.229789">
  <ele>1583.0</ele>
  <time>2026-09-02T20:50:22Z</time>
  <course>0.0</course>
  <speed>0.0</speed>
  <fix>3d</fix>
</trkpt>
<trkpt lat="40.0713749" lon="-105.229789">
  <ele>1583.0</ele>
  <time>2026-09-02T20:50:22Z</time>
  <course>0.0</course>
  <speed>0.0</speed>
  <fix>3d</fix>
</trkpt>
<trkpt lat="40.0713749" lon="-105.229789">
  <ele>1583.0</ele>
  <time>2026-09-02T20:50:22Z</time>
  <course>0.0</course>
  <speed>0.0</speed>
  <fix>3d</fix>
</trkpt>
<trkpt lat="40.0713749" lon="-105.229789">
  <ele>1583.0</ele>
  <time>2026-09-02T20:50:22Z</time>
  <course>0.0</course>
  <speed>0.0</speed>
  <fix>3d</fix>
</trkpt>
<trkpt lat="40.0713749" lon="-105.229789">
  <ele>1583.0</ele>
  <time>2026-09-02T20:50:22Z</time>
  <course>0.0</course>
  <speed>0.0</speed>
  <fix>3d</fix>
</trkpt>
<trkpt lat="40.0713749" lon="-105.229789">
  <ele>1583.0</ele>
  <time>2026-09-02T20:50:22Z</time>
  <course>0.0</course>
  <speed>0.0</speed>
  <fix>3d</fix>
</trkpt>
<trkpt lat="40.0713749" lon="-105.229789">
  <ele>1583.0</ele>
  <time>2026-09-02T20:50:22Z</time>
  <course>0.0</course>
  <speed>0.0</speed>
  <fix>3d</fix>
</trkpt>
<trkpt lat="40.0713749" lon="-105.229789">
  <ele>1583.0</ele>
  <time>2026-09-02T20:50:22Z</time>
  <course>0.0</course>
  <speed>0.0</speed>
  <fix>3d</fix>
</trkpt>
<trkpt lat="40.0713749" lon="-105.229789">
  <ele>1583.0</ele>
  <time>2026-09-02T20:50:22Z</time>
  <course>0.0</course>
  <speed>0.0</speed>
  <fix>3d</fix>
</trkpt>
<trkpt lat="40.0713749" lon="-105.229789">
  <ele>1583.0</ele>
  <time>2026-09-02T20:50:22Z</time>
  <course>0.0</course>
  <speed>0.0</speed>
  <fix>3d</fix>
</trkpt>
<trkpt lat="40.0713749" lon="-105.229789">
  <ele>1583.0</ele>
  <time>2026-09-02T20:50:22Z</time>
  <course>0.0</course>
  <speed>0.0</speed>
  <fix>3d</fix>
</trkpt>
<trkpt lat="40.0713749" lon="-105.229789">
  <ele>1583.0</ele>
  <time>2026-09-02T20:50:22Z</time>
  <course>0.0</course>
  <speed>0.0</speed>
  <fix>3d</fix>
</trkpt>
<trkpt lat="40.0713749" lon="-105.229789">
  <ele>1583.0</ele>
  <time>2026-09-02T20:50:22Z</time>
  <course>0.0</course>
  <speed>0.0</speed>
  <fix>3d</fix>
</trkpt>
<trkpt lat="40.0713749" lon="-105.229789">
  <ele>1583.0</ele>
  <time>2026-09-02T20:50:22Z</time>
  <course>0.0</course>
  <speed>0.0</speed>
  <fix>3d</fix>
</trkpt>
<trkpt lat="40.0713749" lon="-105.229789">
  <ele>1583.0</ele>
  <time>2026-09-02T20:50:22Z</time>
  <course>0.0</course>
  <speed>0.0</speed>
  <fix>3d</fix>
</trkpt>
<trkpt lat="40.0713749" lon="-105.229789">
  <ele>1583.0</ele>
  <time>2026-09-02T20:50:22Z</time>
  <course>0.0</course>
  <speed>0.0</speed>
  <fix>3d</fix>
</trkpt>
<trkpt lat="40.0713749" lon="-105.229789">
  <ele>1583.0</ele>
  <time>2026-09-02T20:50:22Z</time>
  <course>0.0</course>
  <speed>0.0</speed>
  <fix>3d</fix>
</trkpt>
<trkpt lat="40.0713749" lon="-105.229789">
  <ele>1583.0</ele>
  <time>2026-09-02T20:50:22Z</time>
  <course>0.0</course>
  <speed>0.0</speed>
  <fix>3d</fix>
</trkpt>
<trkpt lat="40.0713749" lon="-105.229789">
  <ele>1583.0</ele>
  <time>2026-09-02T20:50:22Z</time>
  <course>0.0</course>
  <speed>0.0</speed>
  <fix>3d</fix>
</trkpt>
<trkpt lat="40.0713749" lon="-105.229789">
  <ele>1583.0</ele>
  <time>2026-09-02T20:50:22Z</time>
  <course>0.0</course>
  <speed>0.0</speed>
  <fix>3d</fix>
</trkpt>
<trkpt lat="40.0713749" lon="-105.229789">
  <ele>1583.0</ele>
  <time>2026-09-02T20:50:22Z</time>
  <course>0.0</course>
  <speed>0.0</speed>
  <fix>3d</fix>
</trkpt>
<trkpt lat="40.0713749" lon="-105.229789">
  <ele>1583.0</ele>
  <time>2026-09-02T20:50:22Z</time>
  <course>0.0</course>
  <speed>0.0</speed>
  <fix>3d</fix>
</trkpt>
<trkpt lat="40.0713749" lon="-105.229789">
  <ele>1583.0</ele>
  <time>2026-09-02T20:50:22Z</time>
  <course>0.0</course>
  <speed>0.0</speed>
  <fix>3d</fix>
</trkpt>
<trkpt lat="40.0713749" lon="-105.229789">
  <ele>1583.0</ele>
  <time>2026-09-02T20:50:22Z</time>
  <course>0.0</course>
  <speed>0.0</speed>
  <fix>3d</fix>
</trkpt>
<trkpt lat="40.0713749" lon="-105.229789">
  <ele>1583.0</ele>
  <time>2026-09-02T20:50:22Z</time>
  <course>0.0</course>
  <speed>0.0</speed>
  <fix>3d</fix>
</trkpt>
<trkpt lat="40.0713749" lon="-105.229789">
  <ele>1583.0</ele>
  <time>2026-09-02T20:50:22Z</time>
  <course>0.0</course>
  <speed>0.0</speed>
  <fix>3d</fix>
</trkpt>
<trkpt lat="40.0713749" lon="-105.229789">
  <ele>1583.0</ele>
  <time>2026-09-02T20:50:22Z</time>
  <course>0.0</course>
  <speed>0.0</speed>
  <fix>3d</fix>
</trkpt>
<trkpt lat="40.0713749" lon="-105.229789">
  <ele>1583.0</ele>
  <time>2026-09-02T20:50:22Z</time>
  <course>0.0</course>
  <speed>0.0</speed>
  <fix>3d</fix>
</trkpt>
<trkpt lat="40.0713749" lon="-105.229789">
  <ele>1583.0</ele>
  <time>2026-09-02T20:50:22Z</time>
  <course>0.0</course>
  <speed>0.0</speed>
  <fix>3d</fix>
</trkpt>
<trkpt lat="40.0713749" lon="-105.229789">
  <ele>1583.0</ele>
  <time>2026-09-02T20:50:22Z</time>
  <course>0.0</course>
  <speed>0.0</speed>
  <fix>3d</fix>
</trkpt>
<trkpt lat="40.0713749" lon="-105.229789">
  <ele>1583.0</ele>
  <time>2026-09-02T20:50:22Z</time>
  <course>0.0</course>
  <speed>0.0</speed>
  <fix>3d</fix>
</trkpt>
<trkpt lat="40.0713749" lon="-105.229789">
  <ele>1583.0</ele>
  <time>2026-09-02T20:50:22Z</time>
  <course>0.0</course>
  <speed>0.0</speed>
  <fix>3d</fix>
</trkpt>
<trkpt lat="40.0713749" lon="-105.229789">
  <ele>1583.0</ele>
  <time>2026-09-02T20:50:22Z</time>
  <course>0.0</course>
  <speed>0.0</speed>
  <fix>3d</fix>
</trkpt>
<trkpt lat="40.0713749" lon="-105.229789">
  <ele>1583.0</ele>
  <time>2026-09-02T20:50:22Z</time>
  <course>0.0</course>
  <speed>0.0</speed>
  <fix>3d</fix>
</trkpt>
<trkpt lat="40.0713749" lon="-105.229789">
  <ele>1583.0</ele>
  <time>2026-09-02T20:50:22Z</time>
  <course>0.0</course>
  <speed>0.0</speed>
  <fix>3d</fix>
</trkpt>
<trkpt lat="40.0713749" lon="-105.229789">
  <ele>1583.0</ele>
  <time>2026-09-02T20:50:22Z</time>
  <course>0.0</course>
  <speed>0.0</speed>
  <fix>3d</fix>
</trkpt>
<trkpt lat="40.0713749" lon="-105.229789">
  <ele>1583.0</ele>
  <time>2026-09-02T20:50:22Z</time>
  <course>0.0</course>
  <speed>0.0</speed>
  <fix>3d</fix>
</trkpt>
<trkpt lat="40.0713749" lon="-105.229789">
  <ele>1583.0</ele>
  <time>2026-09-02T20:50:22Z</time>
  <course>0.0</course>
  <speed>0.0</speed>
  <fix>3d</fix>
</trkpt>
<trkpt lat="40.0713749" lon="-105.229789">
  <ele>1583.0</ele>
  <time>2026-09-02T20:50:22Z</time>
  <course>0.0</course>
  <speed>0.0</speed>
  <fix>3d</fix>
</trkpt>
<trkpt lat="40.0713749" lon="-105.229789">
  <ele>1583.0</ele>
  <time>2026-09-02T20:50:22Z</time>
  <course>0.0</course>
  <speed>0.0</speed>
  <fix>3d</fix>
</trkpt>
<trkpt lat="40.0713749" lon="-105.229789">
  <ele>1583.0</ele>
  <time>2026-09-02T20:50:22Z</time>
  <course>0.0</course>
  <speed>0.0</speed>
  <fix>3d</fix>
</trkpt>
<trkpt lat="40.0713749" lon="-105.229789">
  <ele>1583.0</ele>
  <time>2026-09-02T20:50:22Z</time>
  <course>0.0</course>
  <speed>0.0</speed>
  <fix>3d</fix>
</trkpt>
<trkpt lat="40.0713749" lon="-105.229789">
  <ele>1583.0</ele>
  <time>2026-09-02T20:50:22Z</time>
  <course>0.0</course>
  <speed>0.0</speed>
  <fix>3d</fix>
</trkpt>
<trkpt lat="40.0713749" lon="-105.229789">
  <ele>1583.0</ele>
  <time>2026-09-02T20:50:22Z</time>
  <course>0.0</course>
  <speed>0.0</speed>
  <fix>3d</fix>
</trkpt>
<trkpt lat="40.0713749" lon="-105.229789">
  <ele>1583.0</ele>
  <time>2026-09-02T20:50:22Z</time>
  <course>0.0</course>
  <speed>0.0</speed>
  <fix>3d</fix>
</trkpt>
<trkpt lat="40.0713749" lon="-105.229789">
  <ele>1583.0</ele>
  <time>2026-09-02T20:50:22Z</time>
  <course>0.0</course>
  <speed>0.0</speed>
  <fix>3d</fix>
</trkpt>
<trkpt lat="40.0713749" lon="-105.229789">
  <ele>1583.0</ele>
  <time>2026-09-02T20:50:22Z</time>
  <course>0.0</course>
  <speed>0.0</speed>
  <fix>3d</fix>
</trkpt>
<trkpt lat="40.0713749" lon="-105.229789">
  <ele>1583.0</ele>
  <time>2026-09-02T20:50:22Z</time>
  <course>0.0</course>
  <speed>0.0</speed>
  <fix>3d</fix>
</trkpt>
<trkpt lat="40.0713749" lon="-105.229789">
  <ele>1583.0</ele>
  <time>2026-09-02T20:50:22Z</time>
  <course>0.0</course>
  <speed>0.0</speed>
  <fix>3d</fix>
</trkpt>
<trkpt lat="40.0713749" lon="-105.229789">
  <ele>1583.0</ele>
  <time>2026-09-02T20:50:22Z</time>
  <course>0.0</course>
  <speed>0.0</speed>
  <fix>3d</fix>
</trkpt>
<trkpt lat="40.0713749" lon="-105.229789">
  <ele>1583.0</ele>
  <time>2026-09-02T20:50:22Z</time>
  <course>0.0</course>
  <speed>0.0</speed>
  <fix>3d</fix>
</trkpt>
<trkpt lat="40.0713749" lon="-105.229789">
  <ele>1583.0</ele>
  <time>2026-09-02T20:50:22Z</time>
  <course>0.0</course>
  <speed>0.0</speed>
  <fix>3d</fix>
</trkpt>
<trkpt lat="40.0713749" lon="-105.229789">
  <ele>1583.0</ele>
  <time>2026-09-02T20:50:22Z</time>
  <course>0.0</course>
  <speed>0.0</speed>
  <fix>3d</fix>
</trkpt>
<trkpt lat="40.0713749" lon="-105.229789">
  <ele>1583.0</ele>
  <time>2026-09-02T20:50:22Z</time>
  <course>0.0</course>
  <speed>0.0</speed>
  <fix>3d</fix>
</trkpt>
<trkpt lat="40.0713749" lon="-105.229789">
  <ele>1583.0</ele>
  <time>2026-09-02T20:50:22Z</time>
  <course>0.0</course>
  <speed>0.0</speed>
  <fix>3d</fix>
</trkpt>
<trkpt lat="40.0713749" lon="-105.229789">
  <ele>1583.0</ele>
  <time>2026-09-02T20:50:22Z</time>
  <course>0.0</course>
  <speed>0.0</speed>
  <fix>3d</fix>
</trkpt>
<trkpt lat="40.0713749" lon="-105.229789">
  <ele>1583.0</ele>
  <time>2026-09-02T20:50:22Z</time>
  <course>0.0</course>
  <speed>0.0</speed>
  <fix>3d</fix>
</trkpt>
<trkpt lat="40.0713749" lon="-105.229789">
  <ele>1583.0</ele>
  <time>2026-09-02T20:50:22Z</time>
  <course>0.0</course>
  <speed>0.0</speed>
  <fix>3d</fix>
</trkpt>
<trkpt lat="40.0713749" lon="-105.229789">
  <ele>1583.0</ele>
  <time>2026-09-02T20:50:22Z</time>
  <course>0.0</course>
  <speed>0.0</speed>
  <fix>3d</fix>
</trkpt>
<trkpt lat="40.0713749" lon="-105.229789">
  <ele>1583.0</ele>
  <time>2026-09-02T20:50:22Z</time>
  <course>0.0</course>
  <speed>0.0</speed>
  <fix>3d</fix>
</trkpt>
<trkpt lat="40.0713749" lon="-105.229789">
  <ele>1583.0</ele>
  <time>2026-09-02T20:50:22Z</time>
  <course>0.0</course>
  <speed>0.0</speed>
  <fix>3d</fix>
</trkpt>
<trkpt lat="40.0713749" lon="-105.229789">
  <ele>1583.0</ele>
  <time>2026-09-02T20:50:22Z</time>
  <course>0.0</course>
  <speed>0.0</speed>
  <fix>3d</fix>
</trkpt>
<trkpt lat="40.0713749" lon="-105.229789">
  <ele>1583.0</ele>
  <time>2026-09-02T20:50:22Z</time>
  <course>0.0</course>
  <speed>0.0</speed>
  <fix>3d</fix>
</trkpt>
<trkpt lat="40.0713749" lon="-105.229789">
  <ele>1583.0</ele>
  <time>2026-09-02T20:50:22Z</time>
  <course>0.0</course>
  <speed>0.0</speed>
  <fix>3d</fix>
</trkpt>
<trkpt lat="40.0713749" lon="-105.229789">
  <ele>1583.0</ele>
  <time>2026-09-02T20:50:22Z</time>
  <course>0.0</course>
  <speed>0.0</speed>
  <fix>3d</fix>
</trkpt>
<trkpt lat="40.0713749" lon="-105.229789">
  <ele>1583.0</ele>
  <time>2026-09-02T20:50:22Z</time>
  <course>0.0</course>
  <speed>0.0</speed>
  <fix>3d</fix>
</trkpt>
<trkpt lat="40.0713749" lon="-105.229789">
  <ele>1583.0</ele>
  <time>2026-09-02T20:50:22Z</time>
  <course>0.0</course>
  <speed>0.0</speed>
  <fix>3d</fix>
</trkpt>
<trkpt lat="40.0713749" lon="-105.229789">
  <ele>1583.0</ele>
  <time>2026-09-02T20:50:22Z</time>
  <course>0.0</course>
  <speed>0.0</speed>
  <fix>3d</fix>
</trkpt>
<trkpt lat="40.0713749" lon="-105.229789">
  <ele>1583.0</ele>
  <time>2026-09-02T20:50:22Z</time>
  <course>0.0</course>
  <speed>0.0</speed>
  <fix>3d</fix>
</trkpt>
<trkpt lat="40.0713749" lon="-105.229789">
  <ele>1583.0</ele>
  <time>2026-09-02T20:50:22Z</time>
  <course>0.0</course>
  <speed>0.0</speed>
  <fix>3d</fix>
</trkpt>
<trkpt lat="40.0713749" lon="-105.229789">
  <ele>1583.0</ele>
  <time>2026-09-02T20:50:22Z</time>
  <course>0.0</course>
  <speed>0.0</speed>
  <fix>3d</fix>
</trkpt>
<trkpt lat="40.0713749" lon="-105.229789">
  <ele>1583.0</ele>
  <time>2026-09-02T20:50:22Z</time>
  <course>0.0</course>
  <speed>0.0</speed>
  <fix>3d</fix>
</trkpt>
<trkpt lat="40.0713749" lon="-105.229789">
  <ele>1583.0</ele>
  <time>2026-09-02T20:50:22Z</time>
  <course>0.0</course>
  <speed>0.0</speed>
  <fix>3d</fix>
</trkpt>
<trkpt lat="40.0713749" lon="-105.229789">
  <ele>1583.0</ele>
  <time>2026-09-02T20:50:22Z</time>
  <course>0.0</course>
  <speed>0.0</speed>
  <fix>3d</fix>
</trkpt>
<trkpt lat="40.0713749" lon="-105.229789">
  <ele>1583.0</ele>
  <time>2026-09-02T20:50:22Z</time>
  <course>0.0</course>
  <speed>0.0</speed>
  <fix>3d</fix>
</trkpt>
<trkpt lat="40.0713749" lon="-105.229789">
  <ele>1583.0</ele>
  <time>2026-09-02T20:50:22Z</time>
  <course>0.0</course>
  <speed>0.0</speed>
  <fix>3d</fix>
</trkpt>
<trkpt lat="40.0713749" lon="-105.229789">
  <ele>1583.0</ele>
  <time>2026-09-02T20:50:22Z</time>
  <course>0.0</course>
  <speed>0.0</speed>
  <fix>3d</fix>
</trkpt>
<trkpt lat="40.0713749" lon="-105.229789">
  <ele>1583.0</ele>
  <time>2026-09-02T20:50:22Z</time>
  <course>0.0</course>
  <speed>0.0</speed>
  <fix>3d</fix>
</trkpt>
<trkpt lat="40.0713749" lon="-105.229789">
  <ele>1583.0</ele>
  <time>2026-09-02T20:50:22Z</time>
  <course>0.0</course>
  <speed>0.0</speed>
  <fix>3d</fix>
</trkpt>
<trkpt lat="40.0713749" lon="-105.229789">
  <ele>1583.0</ele>
  <time>2026-09-02T20:50:22Z</time>
  <course>0.0</course>
  <speed>0.0</speed>
  <fix>3d</fix>
</trkpt>
<trkpt lat="40.0713749" lon="-105.229789">
  <ele>1583.0</ele>
  <time>2026-09-02T20:50:22Z</time>
  <course>0.0</course>
  <speed>0.0</speed>
  <fix>3d</fix>
</trkpt>
<trkpt lat="40.0713749" lon="-105.229789">
  <ele>1583.0</ele>
  <time>2026-09-02T20:50:22Z</time>
  <course>0.0</course>
  <speed>0.0</speed>
  <fix>3d</fix>
</trkpt>
<trkpt lat="40.0713749" lon="-105.229789">
  <ele>1583.0</ele>
  <time>2026-09-02T20:50:22Z</time>
  <course>0.0</course>
  <speed>0.0</speed>
  <fix>3d</fix>
</trkpt>
<trkpt lat="40.0713749" lon="-105.229789">
  <ele>1583.0</ele>
  <time>2026-09-02T20:50:22Z</time>
  <course>0.0</course>
  <speed>0.0</speed>
  <fix>3d</fix>
</trkpt>
<trkpt lat="40.0713749" lon="-105.229789">
  <ele>1583.0</ele>
  <time>2026-09-02T20:50:22Z</time>
  <course>0.0</course>
  <speed>0.0</speed>
  <fix>3d</fix>
</trkpt>
<trkpt lat="40.0713749" lon="-105.229789">
  <ele>1583.0</ele>
  <time>2026-09-02T20:50:22Z</time>
  <course>0.0</course>
  <speed>0.0</speed>
  <fix>3d</fix>
</trkpt>
<trkpt lat="40.0713749" lon="-105.229789">
  <ele>1583.0</ele>
  <time>2026-09-02T20:50:22Z</time>
  <course>0.0</course>
  <speed>0.0</speed>
  <fix>3d</fix>
</trkpt>
<trkpt lat="40.0713749" lon="-105.229789">
  <ele>1583.0</ele>
  <time>2026-09-02T20:50:22Z</time>
  <course>0.0</course>
  <speed>0.0</speed>
  <fix>3d</fix>
</trkpt>
<trkpt lat="40.0713749" lon="-105.229789">
  <ele>1583.0</ele>
  <time>2026-09-02T20:50:22Z</time>
  <course>0.0</course>
  <speed>0.0</speed>
  <fix>3d</fix>
</trkpt>
<trkpt lat="40.0713749" lon="-105.229789">
  <ele>1583.0</ele>
  <time>2026-09-02T20:50:22Z</time>
  <course>0.0</course>
  <speed>0.0</speed>
  <fix>3d</fix>
</trkpt>
<trkpt lat="40.0713749" lon="-105.229789">
  <ele>1583.0</ele>
  <time>2026-09-02T20:50:22Z</time>
  <course>0.0</course>
  <speed>0.0</speed>
  <fix>3d</fix>
</trkpt>
<trkpt lat="40.0713749" lon="-105.229789">
  <ele>1583.0</ele>
  <time>2026-09-02T20:50:22Z</time>
  <course>0.0</course>
  <speed>0.0</speed>
  <fix>3d</fix>
</trkpt>
<trkpt lat="40.0713749" lon="-105.229789">
  <ele>1583.0</ele>
  <time>2026-09-02T20:50:22Z</time>
  <course>0.0</course>
  <speed>0.0</speed>
  <fix>3d</fix>
</trkpt>
<trkpt lat="40.0713749" lon="-105.229789">
  <ele>1583.0</ele>
  <time>2026-09-02T20:50:22Z</time>
  <course>0.0</course>
  <speed>0.0</speed>
  <fix>3d</fix>
</trkpt>
<trkpt lat="40.0713749" lon="-105.229789">
  <ele>1583.0</ele>
  <time>2026-09-02T20:50:22Z</time>
  <course>0.0</course>
  <speed>0.0</speed>
  <fix>3d</fix>
</trkpt>
<trkpt lat="40.0713749" lon="-105.229789">
  <ele>1583.0</ele>
  <time>2026-09-02T20:50:22Z</time>
  <course>0.0</course>
  <speed>0.0</speed>
  <fix>3d</fix>
</trkpt>
<trkpt lat="40.0713749" lon="-105.229789">
  <ele>1583.0</ele>
  <time>2026-09-02T20:50:22Z</time>
  <course>0.0</course>
  <speed>0.0</speed>
  <fix>3d</fix>
</trkpt>
<trkpt lat="40.0713749" lon="-105.229789">
  <ele>1583.0</ele>
  <time>2026-09-02T20:50:22Z</time>
  <course>0.0</course>
  <speed>0.0</speed>
  <fix>3d</fix>
</trkpt>
<trkpt lat="40.0713749" lon="-105.229789">
  <ele>1583.0</ele>
  <time>2026-09-02T20:50:22Z</time>
  <course>0.0</course>
  <speed>0.0</speed>
  <fix>3d</fix>
</trkpt>
<trkpt lat="40.0713749" lon="-105.229789">
  <ele>1583.0</ele>
  <time>2026-09-02T20:50:22Z</time>
  <course>0.0</course>
  <speed>0.0</speed>
  <fix>3d</fix>
</trkpt>
<trkpt lat="40.0713749" lon="-105.229789">
  <ele>1583.0</ele>
  <time>2026-09-02T20:50:22Z</time>
  <course>0.0</course>
  <speed>0.0</speed>
  <fix>3d</fix>
</trkpt>
<trkpt lat="40.0713749" lon="-105.229789">
  <ele>1583.0</ele>
  <time>2026-09-02T20:50:22Z</time>
  <course>0.0</course>
  <speed>0.0</speed>
  <fix>3d</fix>
</trkpt>
<trkpt lat="40.0713749" lon="-105.229789">
  <ele>1583.0</ele>
  <time>2026-09-02T20:50:22Z</time>
  <course>0.0</course>
  <speed>0.0</speed>
  <fix>3d</fix>
</trkpt>
<trkpt lat="40.0713749" lon="-105.229789">
  <ele>1583.0</ele>
  <time>2026-09-02T20:50:22Z</time>
  <course>0.0</course>
  <speed>0.0</speed>
  <fix>3d</fix>
</trkpt>
<trkpt lat="40.0713749" lon="-105.229789">
  <ele>1583.0</ele>
  <time>2026-09-02T20:50:22Z</time>
  <course>0.0</course>
  <speed>0.0</speed>
  <fix>3d</fix>
</trkpt>
<trkpt lat="40.0713749" lon="-105.229789">
  <ele>1583.0</ele>
  <time>2026-09-02T20:50:22Z</time>
  <course>0.0</course>
  <speed>0.0</speed>
  <fix>3d</fix>
</trkpt>
<trkpt lat="40.0713749" lon="-105.229789">
  <ele>1583.0</ele>
  <time>2026-09-02T20:50:22Z</time>
  <course>0.0</course>
  <speed>0.0</speed>
  <fix>3d</fix>
</trkpt>
<trkpt lat="40.0713749" lon="-105.229789">
  <ele>1583.0</ele>
  <time>2026-09-02T20:50:22Z</time>
  <course>0.0</course>
  <speed>0.0</speed>
  <fix>3d</fix>
</trkpt>
<trkpt lat="40.0713749" lon="-105.229789">
  <ele>1583.0</ele>
  <time>2026-09-02T20:50:22Z</time>
  <course>0.0</course>
  <speed>0.0</speed>
  <fix>3d</fix>
</trkpt>
<trkpt lat="40.0713749" lon="-105.229789">
  <ele>1583.0</ele>
  <time>2026-09-02T20:50:22Z</time>
  <course>0.0</course>
  <speed>0.0</speed>
  <fix>3d</fix>
</trkpt>
<trkpt lat="40.0713749" lon="-105.229789">
  <ele>1583.0</ele>
  <time>2026-09-02T20:50:22Z</time>
  <course>0.0</course>
  <speed>0.0</speed>
  <fix>3d</fix>
</trkpt>
<trkpt lat="40.0713749" lon="-105.229789">
  <ele>1583.0</ele>
  <time>2026-09-02T20:50:22Z</time>
  <course>0.0</course>
  <speed>0.0</speed>
  <fix>3d</fix>
</trkpt>
<trkpt lat="40.0713749" lon="-105.229789">
  <ele>1583.0</ele>
  <time>2026-09-02T20:50:22Z</time>
  <course>0.0</course>
  <speed>0.0</speed>
  <fix>3d</fix>
</trkpt>
<trkpt lat="40.0713749" lon="-105.229789">
  <ele>1583.0</ele>
  <time>2026-09-02T20:50:22Z</time>
  <course>0.0</course>
  <speed>0.0</speed>
  <fix>3d</fix>
</trkpt>
<trkpt lat="40.0713749" lon="-105.229789">
  <ele>1583.0</ele>
  <time>2026-09-02T20:50:22Z</time>
  <course>0.0</course>
  <speed>0.0</speed>
  <fix>3d</fix>
</trkpt>
<trkpt lat="40.0713749" lon="-105.229789">
  <ele>1583.0</ele>
  <time>2026-09-02T20:50:22Z</time>
  <course>0.0</course>
  <speed>0.0</speed>
  <fix>3d</fix>
</trkpt>
<trkpt lat="40.0713749" lon="-105.229789">
  <ele>1583.0</ele>
  <time>2026-09-02T20:50:22Z</time>
  <course>0.0</course>
  <speed>0.0</speed>
  <fix>3d</fix>
</trkpt>
<trkpt lat="40.0713749" lon="-105.229789">
  <ele>1583.0</ele>
  <time>2026-09-02T20:50:22Z</time>
  <course>0.0</course>
  <speed>0.0</speed>
  <fix>3d</fix>
</trkpt>
<trkpt lat="40.0713749" lon="-105.229789">
  <ele>1583.0</ele>
  <time>2026-09-02T20:50:22Z</time>
  <course>0.0</course>
  <speed>0.0</speed>
  <fix>3d</fix>
</trkpt>
<trkpt lat="40.0713749" lon="-105.229789">
  <ele>1583.0</ele>
  <time>2026-09-02T20:50:22Z</time>
  <course>0.0</course>
  <speed>0.0</speed>
  <fix>3d</fix>
</trkpt>
<trkpt lat="40.0713749" lon="-105.229789">
  <ele>1583.0</ele>
  <time>2026-09-02T20:50:22Z</time>
  <course>0.0</course>
  <speed>0.0</speed>
  <fix>3d</fix>
</trkpt>
<trkpt lat="40.0713749" lon="-105.229789">
  <ele>1583.0</ele>
  <time>2026-09-02T20:50:22Z</time>
  <course>0.0</course>
  <speed>0.0</speed>
  <fix>3d</fix>
</trkpt>
<trkpt lat="40.0713749" lon="-105.229789">
  <ele>1583.0</ele>
  <time>2026-09-02T20:50:22Z</time>
  <course>0.0</course>
  <speed>0.0</speed>
  <fix>3d</fix>
</trkpt>
<trkpt lat="40.0713749" lon="-105.229789">
  <ele>1583.0</ele>
  <time>2026-09-02T20:50:22Z</time>
  <course>0.0</course>
  <speed>0.0</speed>
  <fix>3d</fix>
</trkpt>
<trkpt lat="40.0713749" lon="-105.229789">
  <ele>1583.0</ele>
  <time>2026-09-02T20:50:22Z</time>
  <course>0.0</course>
  <speed>0.0</speed>
  <fix>3d</fix>
</trkpt>
<trkpt lat="40.0713749" lon="-105.229789">
  <ele>1583.0</ele>
  <time>2026-09-02T20:50:22Z</time>
  <course>0.0</course>
  <speed>0.0</speed>
  <fix>3d</fix>
</trkpt>
<trkpt lat="40.0713749" lon="-105.229789">
  <ele>1583.0</ele>
  <time>2026-09-02T20:50:22Z</time>
  <course>0.0</course>
  <speed>0.0</speed>
  <fix>3d</fix>
</trkpt>
<trkpt lat="40.0713749" lon="-105.229789">
  <ele>1583.0</ele>
  <time>2026-09-02T20:50:22Z</time>
  <course>0.0</course>
  <speed>0.0</speed>
  <fix>3d</fix>
</trkpt>
<trkpt lat="40.0713749" lon="-105.229789">
  <ele>1583.0</ele>
  <time>2026-09-02T20:50:22Z</time>
  <course>0.0</course>
  <speed>0.0</speed>
  <fix>3d</fix>
</trkpt>
<trkpt lat="40.0713749" lon="-105.229789">
  <ele>1583.0</ele>
  <time>2026-09-02T20:50:22Z</time>
  <course>0.0</course>
  <speed>0.0</speed>
  <fix>3d</fix>
</trkpt>
<trkpt lat="40.0713749" lon="-105.229789">
  <ele>1583.0</ele>
  <time>2026-09-02T20:50:22Z</time>
  <course>0.0</course>
  <speed>0.0</speed>
  <fix>3d</fix>
</trkpt>
<trkpt lat="40.0713749" lon="-105.229789">
  <ele>1583.0</ele>
  <time>2026-09-02T20:50:22Z</time>
  <course>0.0</course>
  <speed>0.0</speed>
  <fix>3d</fix>
</trkpt>
<trkpt lat="40.0713749" lon="-105.229789">
  <ele>1583.0</ele>
  <time>2026-09-02T20:50:22Z</time>
  <course>0.0</course>
  <speed>0.0</speed>
  <fix>3d</fix>
</trkpt>
<trkpt lat="40.0713749" lon="-105.229789">
  <ele>1583.0</ele>
  <time>2026-09-02T20:50:22Z</time>
  <course>0.0</course>
  <speed>0.0</speed>
  <fix>3d</fix>
</trkpt>
<trkpt lat="40.0713749" lon="-105.229789">
  <ele>1583.0</ele>
  <time>2026-09-02T20:50:22Z</time>
  <course>0.0</course>
  <speed>0.0</speed>
  <fix>3d</fix>
</trkpt>
<trkpt lat="40.0713749" lon="-105.229789">
  <ele>1583.0</ele>
  <time>2026-09-02T20:50:22Z</time>
  <course>0.0</course>
  <speed>0.0</speed>
  <fix>3d</fix>
</trkpt>
<trkpt lat="40.0713749" lon="-105.229789">
  <ele>1583.0</ele>
  <time>2026-09-02T20:50:22Z</time>
  <course>0.0</course>
  <speed>0.0</speed>
  <fix>3d</fix>
</trkpt>
<trkpt lat="40.0713749" lon="-105.229789">
  <ele>1583.0</ele>
  <time>2026-09-02T20:50:22Z</time>
  <course>0.0</course>
  <speed>0.0</speed>
  <fix>3d</fix>
</trkpt>
<trkpt lat="40.0713749" lon="-105.229789">
  <ele>1583.0</ele>
  <time>2026-09-02T20:50:22Z</time>
  <course>0.0</course>
  <speed>0.0</speed>
  <fix>3d</fix>
</trkpt>
<trkpt lat="40.0713749" lon="-105.229789">
  <ele>1583.0</ele>
  <time>2026-09-02T20:50:22Z</time>
  <course>0.0</course>
  <speed>0.0</speed>
  <fix>3d</fix>
</trkpt>
<trkpt lat="40.0713749" lon="-105.229789">
  <ele>1583.0</ele>
  <time>2026-09-02T20:50:22Z</time>
  <course>0.0</course>
  <speed>0.0</speed>
  <fix>3d</fix>
</trkpt>
<trkpt lat="40.0713749" lon="-105.229789">
  <ele>1583.0</ele>
  <time>2026-09-02T20:50:22Z</time>
  <course>0.0</course>
  <speed>0.0</speed>
  <fix>3d</fix>
</trkpt>
<trkpt lat="40.0713749" lon="-105.229789">
  <ele>1583.0</ele>
  <time>2026-09-02T20:50:22Z</time>
  <course>0.0</course>
  <speed>0.0</speed>
  <fix>3d</fix>
</trkpt>
<trkpt lat="40.0713749" lon="-105.229789">
  <ele>1583.0</ele>
  <time>2026-09-02T20:50:22Z</time>
  <course>0.0</course>
  <speed>0.0</speed>
  <fix>3d</fix>
</trkpt>
<trkpt lat="40.0713749" lon="-105.229789">
  <ele>1583.0</ele>
  <time>2026-09-02T20:50:22Z</time>
  <course>0.0</course>
  <speed>0.0</speed>
  <fix>3d</fix>
</trkpt>
<trkpt lat="40.0713749" lon="-105.229789">
  <ele>1583.0</ele>
  <time>2026-09-02T20:50:22Z</time>
  <course>0.0</course>
  <speed>0.0</speed>
  <fix>3d</fix>
</trkpt>
<trkpt lat="40.0713749" lon="-105.229789">
  <ele>1583.0</ele>
  <time>2026-09-02T20:50:22Z</time>
  <course>0.0</course>
  <speed>0.0</speed>
  <fix>3d</fix>
</trkpt>
<trkpt lat="40.0713749" lon="-105.229789">
  <ele>1583.0</ele>
  <time>2026-09-02T20:50:22Z</time>
  <course>0.0</course>
  <speed>0.0</speed>
  <fix>3d</fix>
</trkpt>
<trkpt lat="40.0713749" lon="-105.229789">
  <ele>1583.0</ele>
  <time>2026-09-02T20:50:22Z</time>
  <course>0.0</course>
  <speed>0.0</speed>
  <fix>3d</fix>
</trkpt>
<trkpt lat="40.0713749" lon="-105.229789">
  <ele>1583.0</ele>
  <time>2026-09-02T20:50:22Z</time>
  <course>0.0</course>
  <speed>0.0</speed>
  <fix>3d</fix>
</trkpt>
<trkpt lat="40.0713749" lon="-105.229789">
  <ele>1583.0</ele>
  <time>2026-09-02T20:50:22Z</time>
  <course>0.0</course>
  <speed>0.0</speed>
  <fix>3d</fix>
</trkpt>
<trkpt lat="40.0713749" lon="-105.229789">
  <ele>1583.0</ele>
  <time>2026-09-02T20:50:22Z</time>
  <course>0.0</course>
  <speed>0.0</speed>
  <fix>3d</fix>
</trkpt>
<trkpt lat="40.0713749" lon="-105.229789">
  <ele>1583.0</ele>
  <time>2026-09-02T20:50:22Z</time>
  <course>0.0</course>
  <speed>0.0</speed>
  <fix>3d</fix>
</trkpt>
<trkpt lat="40.0713749" lon="-105.229789">
  <ele>1583.0</ele>
  <time>2026-09-02T20:50:22Z</time>
  <course>0.0</course>
  <speed>0.0</speed>
  <fix>3d</fix>
</trkpt>
<trkpt lat="40.0713749" lon="-105.229789">
  <ele>1583.0</ele>
  <time>2026-09-02T20:50:22Z</time>
  <course>0.0</course>
  <speed>0.0</speed>
  <fix>3d</fix>
</trkpt>
<trkpt lat="40.0713749" lon="-105.229789">
  <ele>1583.0</ele>
  <time>2026-09-02T20:50:22Z</time>
  <course>0.0</course>
  <speed>0.0</speed>
  <fix>3d</fix>
</trkpt>
<trkpt lat="40.0713749" lon="-105.229789">
  <ele>1583.0</ele>
  <time>2026-09-02T20:50:22Z</time>
  <course>0.0</course>
  <speed>0.0</speed>
  <fix>3d</fix>
</trkpt>
<trkpt lat="40.0713749" lon="-105.229789">
  <ele>1583.0</ele>
  <time>2026-09-02T20:50:22Z</time>
  <course>0.0</course>
  <speed>0.0</speed>
  <fix>3d</fix>
</trkpt>
<trkpt lat="40.0713749" lon="-105.229789">
  <ele>1583.0</ele>
  <time>2026-09-02T20:50:22Z</time>
  <course>0.0</course>
  <speed>0.0</speed>
  <fix>3d</fix>
</trkpt>
<trkpt lat="40.0713749" lon="-105.229789">
  <ele>1583.0</ele>
  <time>2026-09-02T20:50:22Z</time>
  <course>0.0</course>
  <speed>0.0</speed>
  <fix>3d</fix>
</trkpt>
<trkpt lat="40.0713749" lon="-105.229789">
  <ele>1583.0</ele>
  <time>2026-09-02T20:50:22Z</time>
  <course>0.0</course>
  <speed>0.0</speed>
  <fix>3d</fix>
</trkpt>
<trkpt lat="40.0713749" lon="-105.229789">
  <ele>1583.0</ele>
  <time>2026-09-02T20:50:22Z</time>
  <course>0.0</course>
  <speed>0.0</speed>
  <fix>3d</fix>
</trkpt>
<trkpt lat="40.0713749" lon="-105.229789">
  <ele>1583.0</ele>
  <time>2026-09-02T20:50:22Z</time>
  <course>0.0</course>
  <speed>0.0</speed>
  <fix>3d</fix>
</trkpt>
<trkpt lat="40.0713749" lon="-105.229789">
  <ele>1583.0</ele>
  <time>2026-09-02T20:50:22Z</time>
  <course>0.0</course>
  <speed>0.0</speed>
  <fix>3d</fix>
</trkpt>
<trkpt lat="40.0713749" lon="-105.229789">
  <ele>1583.0</ele>
  <time>2026-09-02T20:50:22Z</time>
  <course>0.0</course>
  <speed>0.0</speed>
  <fix>3d</fix>
</trkpt>
<trkpt lat="40.0713749" lon="-105.229789">
  <ele>1583.0</ele>
  <time>2026-09-02T20:50:22Z</time>
  <course>0.0</course>
  <speed>0.0</speed>
  <fix>3d</fix>
</trkpt>
<trkpt lat="40.0713749" lon="-105.229789">
  <ele>1583.0</ele>
  <time>2026-09-02T20:50:22Z</time>
  <course>0.0</course>
  <speed>0.0</speed>
  <fix>3d</fix>
</trkpt>
<trkpt lat="40.0713749" lon="-105.229789">
  <ele>1583.0</ele>
  <time>2026-09-02T20:50:22Z</time>
  <course>0.0</course>
  <speed>0.0</speed>
  <fix>3d</fix>
</trkpt>
<trkpt lat="40.0713749" lon="-105.229789">
  <ele>1583.0</ele>
  <time>2026-09-02T20:50:22Z</time>
  <course>0.0</course>
  <speed>0.0</speed>
  <fix>3d</fix>
</trkpt>
<trkpt lat="40.0713749" lon="-105.229789">
  <ele>1583.0</ele>
  <time>2026-09-02T20:50:22Z</time>
  <course>0.0</course>
  <speed>0.0</speed>
  <fix>3d</fix>
</trkpt>
<trkpt lat="40.0713749" lon="-105.229789">
  <ele>1583.0</ele>
  <time>2026-09-02T20:50:22Z</time>
  <course>0.0</course>
  <speed>0.0</speed>
  <fix>3d</fix>
</trkpt>
<trkpt lat="40.0713749" lon="-105.229789">
  <ele>1583.0</ele>
  <time>2026-09-02T20:50:22Z</time>
  <course>0.0</course>
  <speed>0.0</speed>
  <fix>3d</fix>
</trkpt>
<trkpt lat="40.0713749" lon="-105.229789">
  <ele>1583.0</ele>
  <time>2026-09-02T20:50:22Z</time>
  <course>0.0</course>
  <speed>0.0</speed>
  <fix>3d</fix>
</trkpt>
<trkpt lat="40.0713749" lon="-105.229789">
  <ele>1583.0</ele>
  <time>2026-09-02T20:50:22Z</time>
  <course>0.0</course>
  <speed>0.0</speed>
  <fix>3d</fix>
</trkpt>
<trkpt lat="40.0713749" lon="-105.229789">
  <ele>1583.0</ele>
  <time>2026-09-02T20:50:22Z</time>
  <course>0.0</course>
  <speed>0.0</speed>
  <fix>3d</fix>
</trkpt>
<trkpt lat="40.0713749" lon="-105.229789">
  <ele>1583.0</ele>
  <time>2026-09-02T20:50:22Z</time>
  <course>0.0</course>
  <speed>0.0</speed>
  <fix>3d</fix>
</trkpt>
<trkpt lat="40.0713749" lon="-105.229789">
  <ele>1583.0</ele>
  <time>2026-09-02T20:50:22Z</time>
  <course>0.0</course>
  <speed>0.0</speed>
  <fix>3d</fix>
</trkpt>
<trkpt lat="40.0713749" lon="-105.229789">
  <ele>1583.0</ele>
  <time>2026-09-02T20:50:22Z</time>
  <course>0.0</course>
  <speed>0.0</speed>
  <fix>3d</fix>
</trkpt>
<trkpt lat="40.0713749" lon="-105.229789">
  <ele>1583.0</ele>
  <time>2026-09-02T20:50:22Z</time>
  <course>0.0</course>
  <speed>0.0</speed>
  <fix>3d</fix>
</trkpt>
<trkpt lat="40.0713749" lon="-105.229789">
  <ele>1583.0</ele>
  <time>2026-09-02T20:50:22Z</time>
  <course>0.0</course>
  <speed>0.0</speed>
  <fix>3d</fix>
</trkpt>
<trkpt lat="40.0713749" lon="-105.229789">
  <ele>1583.0</ele>
  <time>2026-09-02T20:50:22Z</time>
  <course>0.0</course>
  <speed>0.0</speed>
  <fix>3d</fix>
</trkpt>
<trkpt lat="40.0713749" lon="-105.229789">
  <ele>1583.0</ele>
  <time>2026-09-02T20:50:22Z</time>
  <course>0.0</course>
  <speed>0.0</speed>
  <fix>3d</fix>
</trkpt>
<trkpt lat="40.0713749" lon="-105.229789">
  <ele>1583.0</ele>
  <time>2026-09-02T20:50:22Z</time>
  <course>0.0</course>
  <speed>0.0</speed>
  <fix>3d</fix>
</trkpt>
<trkpt lat="40.0713749" lon="-105.229789">
  <ele>1583.0</ele>
  <time>2026-09-02T20:50:22Z</time>
  <course>0.0</course>
  <speed>0.0</speed>
  <fix>3d</fix>
</trkpt>
<trkpt lat="40.0713749" lon="-105.229789">
  <ele>1583.0</ele>
  <time>2026-09-02T20:50:22Z</time>
  <course>0.0</course>
  <speed>0.0</speed>
  <fix>3d</fix>
</trkpt>
<trkpt lat="40.0713749" lon="-105.229789">
  <ele>1583.0</ele>
  <time>2026-09-02T20:50:22Z</time>
  <course>0.0</course>
  <speed>0.0</speed>
  <fix>3d</fix>
</trkpt>
<trkpt lat="40.0713749" lon="-105.229789">
  <ele>1583.0</ele>
  <time>2026-09-02T20:50:22Z</time>
  <course>0.0</course>
  <speed>0.0</speed>
  <fix>3d</fix>
</trkpt>
<trkpt lat="40.0713749" lon="-105.229789">
  <ele>1583.0</ele>
  <time>2026-09-02T20:50:22Z</time>
  <course>0.0</course>
  <speed>0.0</speed>
  <fix>3d</fix>
</trkpt>
<trkpt lat="40.0713749" lon="-105.229789">
  <ele>1583.0</ele>
  <time>2026-09-02T20:50:22Z</time>
  <course>0.0</course>
  <speed>0.0</speed>
  <fix>3d</fix>
</trkpt>
<trkpt lat="40.0713749" lon="-105.229789">
  <ele>1583.0</ele>
  <time>2026-09-02T20:50:22Z</time>
  <course>0.0</course>
  <speed>0.0</speed>
  <fix>3d</fix>
</trkpt>
<trkpt lat="40.0713749" lon="-105.229789">
  <ele>1583.0</ele>
  <time>2026-09-02T20:50:22Z</time>
  <course>0.0</course>
  <speed>0.0</speed>
  <fix>3d</fix>
</trkpt>
<trkpt lat="40.0713749" lon="-105.229789">
  <ele>1583.0</ele>
  <time>2026-09-02T20:50:22Z</time>
  <course>0.0</course>
  <speed>0.0</speed>
  <fix>3d</fix>
</trkpt>
<trkpt lat="40.0713749" lon="-105.229789">
  <ele>1583.0</ele>
  <time>2026-09-02T20:50:22Z</time>
  <course>0.0</course>
  <speed>0.0</speed>
  <fix>3d</fix>
</trkpt>
<trkpt lat="40.0713749" lon="-105.229789">
  <ele>1583.0</ele>
  <time>2026-09-02T20:50:22Z</time>
  <course>0.0</course>
  <speed>0.0</speed>
  <fix>3d</fix>
</trkpt>
<trkpt lat="40.0713749" lon="-105.229789">
  <ele>1583.0</ele>
  <time>2026-09-02T20:50:22Z</time>
  <course>0.0</course>
  <speed>0.0</speed>
  <fix>3d</fix>
</trkpt>
<trkpt lat="40.0713749" lon="-105.229789">
  <ele>1583.0</ele>
  <time>2026-09-02T20:50:22Z</time>
  <course>0.0</course>
  <speed>0.0</speed>
  <fix>3d</fix>
</trkpt>
<trkpt lat="40.0713749" lon="-105.229789">
  <ele>1583.0</ele>
  <time>2026-09-02T20:50:22Z</time>
  <course>0.0</course>
  <speed>0.0</speed>
  <fix>3d</fix>
</trkpt>
<trkpt lat="40.0713749" lon="-105.229789">
  <ele>1583.0</ele>
  <time>2026-09-02T20:50:22Z</time>
  <course>0.0</course>
  <speed>0.0</speed>
  <fix>3d</fix>
</trkpt>
<trkpt lat="40.0713749" lon="-105.229789">
  <ele>1583.0</ele>
  <time>2026-09-02T20:50:22Z</time>
  <course>0.0</course>
  <speed>0.0</speed>
  <fix>3d</fix>
</trkpt>
<trkpt lat="40.0713749" lon="-105.229789">
  <ele>1583.0</ele>
  <time>2026-09-02T20:50:22Z</time>
  <course>0.0</course>
  <speed>0.0</speed>
  <fix>3d</fix>
</trkpt>
<trkpt lat="40.0713749" lon="-105.229789">
  <ele>1583.0</ele>
  <time>2026-09-02T20:50:22Z</time>
  <course>0.0</course>
  <speed>0.0</speed>
  <fix>3d</fix>
</trkpt>
<trkpt lat="40.0713749" lon="-105.229789">
  <ele>1583.0</ele>
  <time>2026-09-02T20:50:22Z</time>
  <course>0.0</course>
  <speed>0.0</speed>
  <fix>3d</fix>
</trkpt>
<trkpt lat="40.0713749" lon="-105.229789">
  <ele>1583.0</ele>
  <time>2026-09-02T20:50:22Z</time>
  <course>0.0</course>
  <speed>0.0</speed>
  <fix>3d</fix>
</trkpt>
<trkpt lat="40.0713749" lon="-105.229789">
  <ele>1583.0</ele>
  <time>2026-09-02T20:50:22Z</time>
  <course>0.0</course>
  <speed>0.0</speed>
  <fix>3d</fix>
</trkpt>
<trkpt lat="40.0713749" lon="-105.229789">
  <ele>1583.0</ele>
  <time>2026-09-02T20:50:22Z</time>
  <course>0.0</course>
  <speed>0.0</speed>
  <fix>3d</fix>
</trkpt>
<trkpt lat="40.0713749" lon="-105.229789">
  <ele>1583.0</ele>
  <time>2026-09-02T20:50:22Z</time>
  <course>0.0</course>
  <speed>0.0</speed>
  <fix>3d</fix>
</trkpt>
<trkpt lat="40.0713749" lon="-105.229789">
  <ele>1583.0</ele>
  <time>2026-09-02T20:50:22Z</time>
  <course>0.0</course>
  <speed>0.0</speed>
  <fix>3d</fix>
</trkpt>
<trkpt lat="40.0713749" lon="-105.229789">
  <ele>1583.0</ele>
  <time>2026-09-02T20:50:22Z</time>
  <course>0.0</course>
  <speed>0.0</speed>
  <fix>3d</fix>
</trkpt>
<trkpt lat="40.0713749" lon="-105.229789">
  <ele>1583.0</ele>
  <time>2026-09-02T20:50:22Z</time>
  <course>0.0</course>
  <speed>0.0</speed>
  <fix>3d</fix>
</trkpt>
<trkpt lat="40.0713749" lon="-105.229789">
  <ele>1583.0</ele>
  <time>2026-09-02T20:50:22Z</time>
  <course>0.0</course>
  <speed>0.0</speed>
  <fix>3d</fix>
</trkpt>
<trkpt lat="40.0713749" lon="-105.229789">
  <ele>1583.0</ele>
  <time>2026-09-02T20:50:22Z</time>
  <course>0.0</course>
  <speed>0.0</speed>
  <fix>3d</fix>
</trkpt>
<trkpt lat="40.0713749" lon="-105.229789">
  <ele>1583.0</ele>
  <time>2026-09-02T20:50:22Z</time>
  <course>0.0</course>
  <speed>0.0</speed>
  <fix>3d</fix>
</trkpt>
<trkpt lat="40.0713749" lon="-105.229789">
  <ele>1583.0</ele>
  <time>2026-09-02T20:50:22Z</time>
  <course>0.0</course>
  <speed>0.0</speed>
  <fix>3d</fix>
</trkpt>
<trkpt lat="40.0713749" lon="-105.229789">
  <ele>1583.0</ele>
  <time>2026-09-02T20:50:22Z</time>
  <course>0.0</course>
  <speed>0.0</speed>
  <fix>3d</fix>
</trkpt>
<trkpt lat="40.0713749" lon="-105.229789">
  <ele>1583.0</ele>
  <time>2026-09-02T20:50:22Z</time>
  <course>0.0</course>
  <speed>0.0</speed>
  <fix>3d</fix>
</trkpt>
<trkpt lat="40.0713749" lon="-105.229789">
  <ele>1583.0</ele>
  <time>2026-09-02T20:50:22Z</time>
  <course>0.0</course>
  <speed>0.0</speed>
  <fix>3d</fix>
</trkpt>
<trkpt lat="40.0713749" lon="-105.229789">
  <ele>1583.0</ele>
  <time>2026-09-02T20:50:22Z</time>
  <course>0.0</course>
  <speed>0.0</speed>
  <fix>3d</fix>
</trkpt>
<trkpt lat="40.0713749" lon="-105.229789">
  <ele>1583.0</ele>
  <time>2026-09-02T20:50:22Z</time>
  <course>0.0</course>
  <speed>0.0</speed>
  <fix>3d</fix>
</trkpt>
<trkpt lat="40.0713749" lon="-105.229789">
  <ele>1583.0</ele>
  <time>2026-09-02T20:50:22Z</time>
  <course>0.0</course>
  <speed>0.0</speed>
  <fix>3d</fix>
</trkpt>
<trkpt lat="40.0713749" lon="-105.229789">
  <ele>1583.0</ele>
  <time>2026-09-02T20:50:22Z</time>
  <course>0.0</course>
  <speed>0.0</speed>
  <fix>3d</fix>
</trkpt>
<trkpt lat="40.0713749" lon="-105.229789">
  <ele>1583.0</ele>
  <time>2026-09-02T20:50:22Z</time>
  <course>0.0</course>
  <speed>0.0</speed>
  <fix>3d</fix>
</trkpt>
<trkpt lat="40.0713749" lon="-105.229789">
  <ele>1583.0</ele>
  <time>2026-09-02T20:50:22Z</time>
  <course>0.0</course>
  <speed>0.0</speed>
  <fix>3d</fix>
</trkpt>
<trkpt lat="40.0713749" lon="-105.229789">
  <ele>1583.0</ele>
  <time>2026-09-02T20:50:22Z</time>
  <course>0.0</course>
  <speed>0.0</speed>
  <fix>3d</fix>
</trkpt>
<trkpt lat="40.0713749" lon="-105.229789">
  <ele>1583.0</ele>
  <time>2026-09-02T20:50:22Z</time>
  <course>0.0</course>
  <speed>0.0</speed>
  <fix>3d</fix>
</trkpt>
<trkpt lat="40.0713749" lon="-105.229789">
  <ele>1583.0</ele>
  <time>2026-09-02T20:50:22Z</time>
  <course>0.0</course>
  <speed>0.0</speed>
  <fix>3d</fix>
</trkpt>
<trkpt lat="40.0713749" lon="-105.229789">
  <ele>1583.0</ele>
  <time>2026-09-02T20:50:22Z</time>
  <course>0.0</course>
  <speed>0.0</speed>
  <fix>3d</fix>
</trkpt>
<trkpt lat="40.0713749" lon="-105.229789">
  <ele>1583.0</ele>
  <time>2026-09-02T20:50:22Z</time>
  <course>0.0</course>
  <speed>0.0</speed>
  <fix>3d</fix>
</trkpt>
<trkpt lat="40.0713749" lon="-105.229789">
  <ele>1583.0</ele>
  <time>2026-09-02T20:50:22Z</time>
  <course>0.0</course>
  <speed>0.0</speed>
  <fix>3d</fix>
</trkpt>
<trkpt lat="40.0713749" lon="-105.229789">
  <ele>1583.0</ele>
  <time>2026-09-02T20:50:22Z</time>
  <course>0.0</course>
  <speed>0.0</speed>
  <fix>3d</fix>
</trkpt>
<trkpt lat="40.0713749" lon="-105.229789">
  <ele>1583.0</ele>
  <time>2026-09-02T20:50:22Z</time>
  <course>0.0</course>
  <speed>0.0</speed>
  <fix>3d</fix>
</trkpt>
<trkpt lat="40.0713749" lon="-105.229789">
  <ele>1583.0</ele>
  <time>2026-09-02T20:50:22Z</time>
  <course>0.0</course>
  <speed>0.0</speed>
  <fix>3d</fix>
</trkpt>
<trkpt lat="40.0713749" lon="-105.229789">
  <ele>1583.0</ele>
  <time>2026-09-02T20:50:22Z</time>
  <course>0.0</course>
  <speed>0.0</speed>
  <fix>3d</fix>
</trkpt>
<trkpt lat="40.0713749" lon="-105.229789">
  <ele>1583.0</ele>
  <time>2026-09-02T20:50:22Z</time>
  <course>0.0</course>
  <speed>0.0</speed>
  <fix>3d</fix>
</trkpt>
<trkpt lat="40.0713749" lon="-105.229789">
  <ele>1583.0</ele>
  <time>2026-09-02T20:50:22Z</time>
  <course>0.0</course>
  <speed>0.0</speed>
  <fix>3d</fix>
</trkpt>
<trkpt lat="40.0713749" lon="-105.229789">
  <ele>1583.0</ele>
  <time>2026-09-02T20:50:22Z</time>
  <course>0.0</course>
  <speed>0.0</speed>
  <fix>3d</fix>
</trkpt>
<trkpt lat="40.0713749" lon="-105.229789">
  <ele>1583.0</ele>
  <time>2026-09-02T20:50:22Z</time>
  <course>0.0</course>
  <speed>0.0</speed>
  <fix>3d</fix>
</trkpt>
<trkpt lat="40.0713749" lon="-105.229789">
  <ele>1583.0</ele>
  <time>2026-09-02T20:50:22Z</time>
  <course>0.0</course>
  <speed>0.0</speed>
  <fix>3d</fix>
</trkpt>
<trkpt lat="40.0713749" lon="-105.229789">
  <ele>1583.0</ele>
  <time>2026-09-02T20:50:22Z</time>
  <course>0.0</course>
  <speed>0.0</speed>
  <fix>3d</fix>
</trkpt>
<trkpt lat="40.0713749" lon="-105.229789">
  <ele>1583.0</ele>
  <time>2026-09-02T20:50:22Z</time>
  <course>0.0</course>
  <speed>0.0</speed>
  <fix>3d</fix>
</trkpt>
<trkpt lat="40.0713749" lon="-105.229789">
  <ele>1583.0</ele>
  <time>2026-09-02T20:50:22Z</time>
  <course>0.0</course>
  <speed>0.0</speed>
  <fix>3d</fix>
</trkpt>
<trkpt lat="40.0713749" lon="-105.229789">
  <ele>1583.0</ele>
  <time>2026-09-02T20:50:22Z</time>
  <course>0.0</course>
  <speed>0.0</speed>
  <fix>3d</fix>
</trkpt>
<trkpt lat="40.0713749" lon="-105.229789">
  <ele>1583.0</ele>
  <time>2026-09-02T20:50:22Z</time>
  <course>0.0</course>
  <speed>0.0</speed>
  <fix>3d</fix>
</trkpt>
<trkpt lat="40.0713749" lon="-105.229789">
  <ele>1583.0</ele>
  <time>2026-09-02T20:50:22Z</time>
  <course>0.0</course>
  <speed>0.0</speed>
  <fix>3d</fix>
</trkpt>
<trkpt lat="40.0713749" lon="-105.229789">
  <ele>1583.0</ele>
  <time>2026-09-02T20:50:22Z</time>
  <course>0.0</course>
  <speed>0.0</speed>
  <fix>3d</fix>
</trkpt>
<trkpt lat="40.0713749" lon="-105.229789">
  <ele>1583.0</ele>
  <time>2026-09-02T20:50:22Z</time>
  <course>0.0</course>
  <speed>0.0</speed>
  <fix>3d</fix>
</trkpt>
<trkpt lat="40.0713749" lon="-105.229789">
  <ele>1583.0</ele>
  <time>2026-09-02T20:50:22Z</time>
  <course>0.0</course>
  <speed>0.0</speed>
  <fix>3d</fix>
</trkpt>
<trkpt lat="40.0713749" lon="-105.229789">
  <ele>1583.0</ele>
  <time>2026-09-02T20:50:22Z</time>
  <course>0.0</course>
  <speed>0.0</speed>
  <fix>3d</fix>
</trkpt>
<trkpt lat="40.0713749" lon="-105.229789">
  <ele>1583.0</ele>
  <time>2026-09-02T20:50:22Z</time>
  <course>0.0</course>
  <speed>0.0</speed>
  <fix>3d</fix>
</trkpt>
<trkpt lat="40.0713749" lon="-105.229789">
  <ele>1583.0</ele>
  <time>2026-09-02T20:50:22Z</time>
  <course>0.0</course>
  <speed>0.0</speed>
  <fix>3d</fix>
</trkpt>
<trkpt lat="40.0713749" lon="-105.229789">
  <ele>1583.0</ele>
  <time>2026-09-02T20:50:22Z</time>
  <course>0.0</course>
  <speed>0.0</speed>
  <fix>3d</fix>
</trkpt>
<trkpt lat="40.0713749" lon="-105.229789">
  <ele>1583.0</ele>
  <time>2026-09-02T20:50:22Z</time>
  <course>0.0</course>
  <speed>0.0</speed>
  <fix>3d</fix>
</trkpt>
<trkpt lat="40.0713749" lon="-105.229789">
  <ele>1583.0</ele>
  <time>2026-09-02T20:50:22Z</time>
  <course>0.0</course>
  <speed>0.0</speed>
  <fix>3d</fix>
</trkpt>
<trkpt lat="40.0713749" lon="-105.229789">
  <ele>1583.0</ele>
  <time>2026-09-02T20:50:22Z</time>
  <course>0.0</course>
  <speed>0.0</speed>
  <fix>3d</fix>
</trkpt>
<trkpt lat="40.0713749" lon="-105.229789">
  <ele>1583.0</ele>
  <time>2026-09-02T20:50:22Z</time>
  <course>0.0</course>
  <speed>0.0</speed>
  <fix>3d</fix>
</trkpt>
<trkpt lat="40.0713749" lon="-105.229789">
  <ele>1583.0</ele>
  <time>2026-09-02T20:50:22Z</time>
  <course>0.0</course>
  <speed>0.0</speed>
  <fix>3d</fix>
</trkpt>
<trkpt lat="40.0713749" lon="-105.229789">
  <ele>1583.0</ele>
  <time>2026-09-02T20:50:22Z</time>
  <course>0.0</course>
  <speed>0.0</speed>
  <fix>3d</fix>
</trkpt>
<trkpt lat="40.0713749" lon="-105.229789">
  <ele>1583.0</ele>
  <time>2026-09-02T20:50:22Z</time>
  <course>0.0</course>
  <speed>0.0</speed>
  <fix>3d</fix>
</trkpt>
<trkpt lat="40.0713749" lon="-105.229789">
  <ele>1583.0</ele>
  <time>2026-09-02T20:50:22Z</time>
  <course>0.0</course>
  <speed>0.0</speed>
  <fix>3d</fix>
</trkpt>
<trkpt lat="40.0713749" lon="-105.229789">
  <ele>1583.0</ele>
  <time>2026-09-02T20:50:22Z</time>
  <course>0.0</course>
  <speed>0.0</speed>
  <fix>3d</fix>
</trkpt>
<trkpt lat="40.0713749" lon="-105.229789">
  <ele>1583.0</ele>
  <time>2026-09-02T20:50:22Z</time>
  <course>0.0</course>
  <speed>0.0</speed>
  <fix>3d</fix>
</trkpt>
<trkpt lat="40.0713749" lon="-105.229789">
  <ele>1583.0</ele>
  <time>2026-09-02T20:50:22Z</time>
  <course>0.0</course>
  <speed>0.0</speed>
  <fix>3d</fix>
</trkpt>
<trkpt lat="40.0713749" lon="-105.229789">
  <ele>1583.0</ele>
  <time>2026-09-02T20:50:22Z</time>
  <course>0.0</course>
  <speed>0.0</speed>
  <fix>3d</fix>
</trkpt>
<trkpt lat="40.0713749" lon="-105.229789">
  <ele>1583.0</ele>
  <time>2026-09-02T20:50:22Z</time>
  <course>0.0</course>
  <speed>0.0</speed>
  <fix>3d</fix>
</trkpt>
<trkpt lat="40.0713749" lon="-105.229789">
  <ele>1583.0</ele>
  <time>2026-09-02T20:50:22Z</time>
  <course>0.0</course>
  <speed>0.0</speed>
  <fix>3d</fix>
</trkpt>
<trkpt lat="40.0713749" lon="-105.229789">
  <ele>1583.0</ele>
  <time>2026-09-02T20:50:22Z</time>
  <course>0.0</course>
  <speed>0.0</speed>
  <fix>3d</fix>
</trkpt>
<trkpt lat="40.0713749" lon="-105.229789">
  <ele>1583.0</ele>
  <time>2026-09-02T20:50:22Z</time>
  <course>0.0</course>
  <speed>0.0</speed>
  <fix>3d</fix>
</trkpt>
<trkpt lat="40.0713749" lon="-105.229789">
  <ele>1583.0</ele>
  <time>2026-09-02T20:50:22Z</time>
  <course>0.0</course>
  <speed>0.0</speed>
  <fix>3d</fix>
</trkpt>
<trkpt lat="40.0713749" lon="-105.229789">
  <ele>1583.0</ele>
  <time>2026-09-02T20:50:22Z</time>
  <course>0.0</course>
  <speed>0.0</speed>
  <fix>3d</fix>
</trkpt>
<trkpt lat="40.0713749" lon="-105.229789">
  <ele>1583.0</ele>
  <time>2026-09-02T20:50:22Z</time>
  <course>0.0</course>
  <speed>0.0</speed>
  <fix>3d</fix>
</trkpt>
<trkpt lat="40.0713749" lon="-105.229789">
  <ele>1583.0</ele>
  <time>2026-09-02T20:50:22Z</time>
  <course>0.0</course>
  <speed>0.0</speed>
  <fix>3d</fix>
</trkpt>
<trkpt lat="40.0713749" lon="-105.229789">
  <ele>1583.0</ele>
  <time>2026-09-02T20:50:22Z</time>
  <course>0.0</course>
  <speed>0.0</speed>
  <fix>3d</fix>
</trkpt>
<trkpt lat="40.0713749" lon="-105.229789">
  <ele>1583.0</ele>
  <time>2026-09-02T20:50:22Z</time>
  <course>0.0</course>
  <speed>0.0</speed>
  <fix>3d</fix>
</trkpt>
<trkpt lat="40.0713749" lon="-105.229789">
  <ele>1583.0</ele>
  <time>2026-09-02T20:50:22Z</time>
  <course>0.0</course>
  <speed>0.0</speed>
  <fix>3d</fix>
</trkpt>
<trkpt lat="40.0713749" lon="-105.229789">
  <ele>1583.0</ele>
  <time>2026-09-02T20:50:22Z</time>
  <course>0.0</course>
  <speed>0.0</speed>
  <fix>3d</fix>
</trkpt>
<trkpt lat="40.0713749" lon="-105.229789">
  <ele>1583.0</ele>
  <time>2026-09-02T20:50:22Z</time>
  <course>0.0</course>
  <speed>0.0</speed>
  <fix>3d</fix>
</trkpt>
<trkpt lat="40.0713749" lon="-105.229789">
  <ele>1583.0</ele>
  <time>2026-09-02T20:50:22Z</time>
  <course>0.0</course>
  <speed>0.0</speed>
  <fix>3d</fix>
</trkpt>
<trkpt lat="40.0713749" lon="-105.229789">
  <ele>1583.0</ele>
  <time>2026-09-02T20:50:22Z</time>
  <course>0.0</course>
  <speed>0.0</speed>
  <fix>3d</fix>
</trkpt>
<trkpt lat="40.0713749" lon="-105.229789">
  <ele>1583.0</ele>
  <time>2026-09-02T20:50:22Z</time>
  <course>0.0</course>
  <speed>0.0</speed>
  <fix>3d</fix>
</trkpt>
<trkpt lat="40.0713749" lon="-105.229789">
  <ele>1583.0</ele>
  <time>2026-09-02T20:50:22Z</time>
  <course>0.0</course>
  <speed>0.0</speed>
  <fix>3d</fix>
</trkpt>
<trkpt lat="40.0713749" lon="-105.229789">
  <ele>1583.0</ele>
  <time>2026-09-02T20:50:22Z</time>
  <course>0.0</course>
  <speed>0.0</speed>
  <fix>3d</fix>
</trkpt>
<trkpt lat="40.0713749" lon="-105.229789">
  <ele>1583.0</ele>
  <time>2026-09-02T20:50:22Z</time>
  <course>0.0</course>
  <speed>0.0</speed>
  <fix>3d</fix>
</trkpt>
<trkpt lat="40.0713749" lon="-105.229789">
  <ele>1583.0</ele>
  <time>2026-09-02T20:50:22Z</time>
  <course>0.0</course>
  <speed>0.0</speed>
  <fix>3d</fix>
</trkpt>
<trkpt lat="40.0713749" lon="-105.229789">
  <ele>1583.0</ele>
  <time>2026-09-02T20:50:22Z</time>
  <course>0.0</course>
  <speed>0.0</speed>
  <fix>3d</fix>
</trkpt>
<trkpt lat="40.0713749" lon="-105.229789">
  <ele>1583.0</ele>
  <time>2026-09-02T20:50:22Z</time>
  <course>0.0</course>
  <speed>0.0</speed>
  <fix>3d</fix>
</trkpt>
<trkpt lat="40.0713749" lon="-105.229789">
  <ele>1583.0</ele>
  <time>2026-09-02T20:50:22Z</time>
  <course>0.0</course>
  <speed>0.0</speed>
  <fix>3d</fix>
</trkpt>
<trkpt lat="40.0713749" lon="-105.229789">
  <ele>1583.0</ele>
  <time>2026-09-02T20:50:22Z</time>
  <course>0.0</course>
  <speed>0.0</speed>
  <fix>3d</fix>
</trkpt>
<trkpt lat="40.0713749" lon="-105.229789">
  <ele>1583.0</ele>
  <time>2026-09-02T20:50:22Z</time>
  <course>0.0</course>
  <speed>0.0</speed>
  <fix>3d</fix>
</trkpt>
<trkpt lat="40.0713749" lon="-105.229789">
  <ele>1583.0</ele>
  <time>2026-09-02T20:50:22Z</time>
  <course>0.0</course>
  <speed>0.0</speed>
  <fix>3d</fix>
</trkpt>
<trkpt lat="40.0713749" lon="-105.229789">
  <ele>1583.0</ele>
  <time>2026-09-02T20:50:22Z</time>
  <course>0.0</course>
  <speed>0.0</speed>
  <fix>3d</fix>
</trkpt>
<trkpt lat="40.0713749" lon="-105.229789">
  <ele>1583.0</ele>
  <time>2026-09-02T20:50:22Z</time>
  <course>0.0</course>
  <speed>0.0</speed>
  <fix>3d</fix>
</trkpt>
<trkpt lat="40.0713749" lon="-105.229789">
  <ele>1583.0</ele>
  <time>2026-09-02T20:50:22Z</time>
  <course>0.0</course>
  <speed>0.0</speed>
  <fix>3d</fix>
</trkpt>
<trkpt lat="40.0713749" lon="-105.229789">
  <ele>1583.0</ele>
  <time>2026-09-02T20:50:22Z</time>
  <course>0.0</course>
  <speed>0.0</speed>
  <fix>3d</fix>
</trkpt>
<trkpt lat="40.0713749" lon="-105.229789">
  <ele>1583.0</ele>
  <time>2026-09-02T20:50:22Z</time>
  <course>0.0</course>
  <speed>0.0</speed>
  <fix>3d</fix>
</trkpt>
<trkpt lat="40.0713749" lon="-105.229789">
  <ele>1583.0</ele>
  <time>2026-09-02T20:50:22Z</time>
  <course>0.0</course>
  <speed>0.0</speed>
  <fix>3d</fix>
</trkpt>
<trkpt lat="40.0713749" lon="-105.229789">
  <ele>1583.0</ele>
  <time>2026-09-02T20:50:22Z</time>
  <course>0.0</course>
  <speed>0.0</speed>
  <fix>3d</fix>
</trkpt>
<trkpt lat="40.0713749" lon="-105.229789">
  <ele>1583.0</ele>
  <time>2026-09-02T20:50:22Z</time>
  <course>0.0</course>
  <speed>0.0</speed>
  <fix>3d</fix>
</trkpt>
<trkpt lat="40.0713749" lon="-105.229789">
  <ele>1583.0</ele>
  <time>2026-09-02T20:50:22Z</time>
  <course>0.0</course>
  <speed>0.0</speed>
  <fix>3d</fix>
</trkpt>
<trkpt lat="40.0713749" lon="-105.229789">
  <ele>1583.0</ele>
  <time>2026-09-02T20:50:22Z</time>
  <course>0.0</course>
  <speed>0.0</speed>
  <fix>3d</fix>
</trkpt>
<trkpt lat="40.0713749" lon="-105.229789">
  <ele>1583.0</ele>
  <time>2026-09-02T20:50:22Z</time>
  <course>0.0</course>
  <speed>0.0</speed>
  <fix>3d</fix>
</trkpt>
<trkpt lat="40.0713749" lon="-105.229789">
  <ele>1583.0</ele>
  <time>2026-09-02T20:50:22Z</time>
  <course>0.0</course>
  <speed>0.0</speed>
  <fix>3d</fix>
</trkpt>
<trkpt lat="40.0713749" lon="-105.229789">
  <ele>1583.0</ele>
  <time>2026-09-02T20:50:22Z</time>
  <course>0.0</course>
  <speed>0.0</speed>
  <fix>3d</fix>
</trkpt>
<trkpt lat="40.0713749" lon="-105.229789">
  <ele>1583.0</ele>
  <time>2026-09-02T20:50:22Z</time>
  <course>0.0</course>
  <speed>0.0</speed>
  <fix>3d</fix>
</trkpt>
<trkpt lat="40.0713749" lon="-105.229789">
  <ele>1583.0</ele>
  <time>2026-09-02T20:50:22Z</time>
  <course>0.0</course>
  <speed>0.0</speed>
  <fix>3d</fix>
</trkpt>
<trkpt lat="40.0713749" lon="-105.229789">
  <ele>1583.0</ele>
  <time>2026-09-02T20:50:22Z</time>
  <course>0.0</course>
  <speed>0.0</speed>
  <fix>3d</fix>
</trkpt>
<trkpt lat="40.0713749" lon="-105.229789">
  <ele>1583.0</ele>
  <time>2026-09-02T20:50:22Z</time>
  <course>0.0</course>
  <speed>0.0</speed>
  <fix>3d</fix>
</trkpt>
<trkpt lat="40.0713749" lon="-105.229789">
  <ele>1583.0</ele>
  <time>2026-09-02T20:50:22Z</time>
  <course>0.0</course>
  <speed>0.0</speed>
  <fix>3d</fix>
</trkpt>
<trkpt lat="40.0713749" lon="-105.229789">
  <ele>1583.0</ele>
  <time>2026-09-02T20:50:22Z</time>
  <course>0.0</course>
  <speed>0.0</speed>
  <fix>3d</fix>
</trkpt>
<trkpt lat="40.0713749" lon="-105.229789">
  <ele>1583.0</ele>
  <time>2026-09-02T20:50:22Z</time>
  <course>0.0</course>
  <speed>0.0</speed>
  <fix>3d</fix>
</trkpt>
<trkpt lat="40.0713749" lon="-105.229789">
  <ele>1583.0</ele>
  <time>2026-09-02T20:50:22Z</time>
  <course>0.0</course>
  <speed>0.0</speed>
  <fix>3d</fix>
</trkpt>
<trkpt lat="40.0713749" lon="-105.229789">
  <ele>1583.0</ele>
  <time>2026-09-02T20:50:22Z</time>
  <course>0.0</course>
  <speed>0.0</speed>
  <fix>3d</fix>
</trkpt>
<trkpt lat="40.0713749" lon="-105.229789">
  <ele>1583.0</ele>
  <time>2026-09-02T20:50:22Z</time>
  <course>0.0</course>
  <speed>0.0</speed>
  <fix>3d</fix>
</trkpt>
<trkpt lat="40.0713749" lon="-105.229789">
  <ele>1583.0</ele>
  <time>2026-09-02T20:50:22Z</time>
  <course>0.0</course>
  <speed>0.0</speed>
  <fix>3d</fix>
</trkpt>
<trkpt lat="40.0713749" lon="-105.229789">
  <ele>1583.0</ele>
  <time>2026-09-02T20:50:22Z</time>
  <course>0.0</course>
  <speed>0.0</speed>
  <fix>3d</fix>
</trkpt>
<trkpt lat="40.0713749" lon="-105.229789">
  <ele>1583.0</ele>
  <time>2026-09-02T20:50:22Z</time>
  <course>0.0</course>
  <speed>0.0</speed>
  <fix>3d</fix>
</trkpt>
<trkpt lat="40.0713749" lon="-105.229789">
  <ele>1583.0</ele>
  <time>2026-09-02T20:50:22Z</time>
  <course>0.0</course>
  <speed>0.0</speed>
  <fix>3d</fix>
</trkpt>
<trkpt lat="40.0713749" lon="-105.229789">
  <ele>1583.0</ele>
  <time>2026-09-02T20:50:22Z</time>
  <course>0.0</course>
  <speed>0.0</speed>
  <fix>3d</fix>
</trkpt>
<trkpt lat="40.0713749" lon="-105.229789">
  <ele>1583.0</ele>
  <time>2026-09-02T20:50:22Z</time>
  <course>0.0</course>
  <speed>0.0</speed>
  <fix>3d</fix>
</trkpt>
<trkpt lat="40.0713749" lon="-105.229789">
  <ele>1583.0</ele>
  <time>2026-09-02T20:50:22Z</time>
  <course>0.0</course>
  <speed>0.0</speed>
  <fix>3d</fix>
</trkpt>
<trkpt lat="40.0713749" lon="-105.229789">
  <ele>1583.0</ele>
  <time>2026-09-02T20:50:22Z</time>
  <course>0.0</course>
  <speed>0.0</speed>
  <fix>3d</fix>
</trkpt>
<trkpt lat="40.0713749" lon="-105.229789">
  <ele>1583.0</ele>
  <time>2026-09-02T20:50:22Z</time>
  <course>0.0</course>
  <speed>0.0</speed>
  <fix>3d</fix>
</trkpt>
<trkpt lat="40.0713749" lon="-105.229789">
  <ele>1583.0</ele>
  <time>2026-09-02T20:50:22Z</time>
  <course>0.0</course>
  <speed>0.0</speed>
  <fix>3d</fix>
</trkpt>
<trkpt lat="40.0713749" lon="-105.229789">
  <ele>1583.0</ele>
  <time>2026-09-02T20:50:22Z</time>
  <course>0.0</course>
  <speed>0.0</speed>
  <fix>3d</fix>
</trkpt>
<trkpt lat="40.0713749" lon="-105.229789">
  <ele>1583.0</ele>
  <time>2026-09-02T20:50:22Z</time>
  <course>0.0</course>
  <speed>0.0</speed>
  <fix>3d</fix>
</trkpt>
<trkpt lat="40.0713749" lon="-105.229789">
  <ele>1583.0</ele>
  <time>2026-09-02T20:50:22Z</time>
  <course>0.0</course>
  <speed>0.0</speed>
  <fix>3d</fix>
</trkpt>
<trkpt lat="40.0713749" lon="-105.229789">
  <ele>1583.0</ele>
  <time>2026-09-02T20:50:22Z</time>
  <course>0.0</course>
  <speed>0.0</speed>
  <fix>3d</fix>
</trkpt>
<trkpt lat="40.0713749" lon="-105.229789">
  <ele>1583.0</ele>
  <time>2026-09-02T20:50:22Z</time>
  <course>0.0</course>
  <speed>0.0</speed>
  <fix>3d</fix>
</trkpt>
<trkpt lat="40.0713749" lon="-105.229789">
  <ele>1583.0</ele>
  <time>2026-09-02T20:50:22Z</time>
  <course>0.0</course>
  <speed>0.0</speed>
  <fix>3d</fix>
</trkpt>
<trkpt lat="40.0713749" lon="-105.229789">
  <ele>1583.0</ele>
  <time>2026-09-02T20:50:22Z</time>
  <course>0.0</course>
  <speed>0.0</speed>
  <fix>3d</fix>
</trkpt>
<trkpt lat="40.0713749" lon="-105.229789">
  <ele>1583.0</ele>
  <time>2026-09-02T20:50:22Z</time>
  <course>0.0</course>
  <speed>0.0</speed>
  <fix>3d</fix>
</trkpt>
<trkpt lat="40.0713749" lon="-105.229789">
  <ele>1583.0</ele>
  <time>2026-09-02T20:50:22Z</time>
  <course>0.0</course>
  <speed>0.0</speed>
  <fix>3d</fix>
</trkpt>
<trkpt lat="40.0713749" lon="-105.229789">
  <ele>1583.0</ele>
  <time>2026-09-02T20:50:22Z</time>
  <course>0.0</course>
  <speed>0.0</speed>
  <fix>3d</fix>
</trkpt>
<trkpt lat="40.0713749" lon="-105.229789">
  <ele>1583.0</ele>
  <time>2026-09-02T20:50:22Z</time>
  <course>0.0</course>
  <speed>0.0</speed>
  <fix>3d</fix>
</trkpt>
<trkpt lat="40.0713749" lon="-105.229789">
  <ele>1583.0</ele>
  <time>2026-09-02T20:50:22Z</time>
  <course>0.0</course>
  <speed>0.0</speed>
  <fix>3d</fix>
</trkpt>
<trkpt lat="40.0713749" lon="-105.229789">
  <ele>1583.0</ele>
  <time>2026-09-02T20:50:22Z</time>
  <course>0.0</course>
  <speed>0.0</speed>
  <fix>3d</fix>
</trkpt>
<trkpt lat="40.0713749" lon="-105.229789">
  <ele>1583.0</ele>
  <time>2026-09-02T20:50:22Z</time>
  <course>0.0</course>
  <speed>0.0</speed>
  <fix>3d</fix>
</trkpt>
<trkpt lat="40.0713749" lon="-105.229789">
  <ele>1583.0</ele>
  <time>2026-09-02T20:50:22Z</time>
  <course>0.0</course>
  <speed>0.0</speed>
  <fix>3d</fix>
</trkpt>
<trkpt lat="40.0713749" lon="-105.229789">
  <ele>1583.0</ele>
  <time>2026-09-02T20:50:22Z</time>
  <course>350.41</course>
  <speed>0.0</speed>
  <fix>3d</fix>
</trkpt>
<trkpt lat="40.0713749" lon="-105.229789">
  <ele>1583.0</ele>
  <time>2026-09-02T20:50:22Z</time>
  <course>0.0</course>
  <speed>0.0</speed>
  <fix>3d</fix>
</trkpt>
<trkpt lat="40.0713749" lon="-105.229789">
  <ele>1583.0</ele>
  <time>2026-09-02T20:50:22Z</time>
  <course>338.41</course>
  <speed>0.0</speed>
  <fix>3d</fix>
</trkpt>
<trkpt lat="40.0713749" lon="-105.229789">
  <ele>1583.0</ele>
  <time>2026-09-02T20:50:22Z</time>
  <course>0.0</course>
  <speed>0.0</speed>
  <fix>3d</fix>
</trkpt>
<trkpt lat="40.0713749" lon="-105.229789">
  <ele>1583.0</ele>
  <time>2026-09-02T20:50:22Z</time>
  <course>328.72</course>
  <speed>0.0</speed>
  <fix>3d</fix>
</trkpt>
<trkpt lat="40.0713749" lon="-105.229789">
  <ele>1583.0</ele>
  <time>2026-09-02T20:50:22Z</time>
  <course>0.0</course>
  <speed>0.0</speed>
  <fix>3d</fix>
</trkpt>
<trkpt lat="40.0713749" lon="-105.229789">
  <ele>1583.0</ele>
  <time>2026-09-02T20:50:22Z</time>
  <course>316.72</course>
  <speed>0.0</speed>
  <fix>3d</fix>
</trkpt>
<trkpt lat="40.0713749" lon="-105.229789">
  <ele>1583.0</ele>
  <time>2026-09-02T20:50:22Z</time>
  <course>0.0</course>
  <speed>0.0</speed>
  <fix>3d</fix>
</trkpt>
<trkpt lat="40.0713749" lon="-105.229789">
  <ele>1583.0</ele>
  <time>2026-09-02T20:50:22Z</time>
  <course>304.73</course>
  <speed>0.0</speed>
  <fix>3d</fix>
</trkpt>
<trkpt lat="40.0713749" lon="-105.229789">
  <ele>1583.0</ele>
  <time>2026-09-02T20:50:22Z</time>
  <course>0.0</course>
  <speed>0.0</speed>
  <fix>3d</fix>
</trkpt>
<trkpt lat="40.0713749" lon="-105.229789">
  <ele>1583.0</ele>
  <time>2026-09-02T20:50:22Z</time>
  <course>292.73</course>
  <speed>0.0</speed>
  <fix>3d</fix>
</trkpt>
<trkpt lat="40.0713749" lon="-105.229789">
  <ele>1583.0</ele>
  <time>2026-09-02T20:50:22Z</time>
  <course>0.0</course>
  <speed>0.0</speed>
  <fix>3d</fix>
</trkpt>
<trkpt lat="40.0713749" lon="-105.229789">
  <ele>1583.0</ele>
  <time>2026-09-02T20:50:22Z</time>
  <course>280.74</course>
  <speed>0.0</speed>
  <fix>3d</fix>
</trkpt>
<trkpt lat="40.0713749" lon="-105.229789">
  <ele>1583.0</ele>
  <time>2026-09-02T20:50:22Z</time>
  <course>0.0</course>
  <speed>0.0</speed>
  <fix>3d</fix>
</trkpt>
<trkpt lat="40.0713749" lon="-105.229789">
  <ele>1583.0</ele>
  <time>2026-09-02T20:50:22Z</time>
  <course>268.74</course>
  <speed>0.0</speed>
  <fix>3d</fix>
</trkpt>
<trkpt lat="40.0713749" lon="-105.229789">
  <ele>1583.0</ele>
  <time>2026-09-02T20:50:22Z</time>
  <course>0.0</course>
  <speed>0.0</speed>
  <fix>3d</fix>
</trkpt>
<trkpt lat="40.0713749" lon="-105.229789">
  <ele>1583.0</ele>
  <time>2026-09-02T20:50:22Z</time>
  <course>256.75</course>
  <speed>0.0</speed>
  <fix>3d</fix>
</trkpt>
<trkpt lat="40.0713749" lon="-105.229789">
  <ele>1583.0</ele>
  <time>2026-09-02T20:50:22Z</time>
  <course>0.0</course>
  <speed>0.0</speed>
  <fix>3d</fix>
</trkpt>
<trkpt lat="40.0713749" lon="-105.229789">
  <ele>1583.0</ele>
  <time>2026-09-02T20:50:22Z</time>
  <course>244.75</course>
  <speed>0.0</speed>
  <fix>3d</fix>
</trkpt>
<trkpt lat="40.0713749" lon="-105.229789">
  <ele>1583.0</ele>
  <time>2026-09-02T20:50:22Z</time>
  <course>0.0</course>
  <speed>0.0</speed>
  <fix>3d</fix>
</trkpt>
<trkpt lat="40.0713749" lon="-105.229789">
  <ele>1583.0</ele>
  <time>2026-09-02T20:50:22Z</time>
  <course>232.76</course>
  <speed>0.0</speed>
  <fix>3d</fix>
</trkpt>
<trkpt lat="40.0713749" lon="-105.229789">
  <ele>1583.0</ele>
  <time>2026-09-02T20:50:22Z</time>
  <course>0.0</course>
  <speed>0.0</speed>
  <fix>3d</fix>
</trkpt>
<trkpt lat="40.0713749" lon="-105.229789">
  <ele>1583.0</ele>
  <time>2026-09-02T20:50:22Z</time>
  <course>220.76</course>
  <speed>0.0</speed>
  <fix>3d</fix>
</trkpt>
<trkpt lat="40.0713749" lon="-105.229789">
  <ele>1583.0</ele>
  <time>2026-09-02T20:50:22Z</time>
  <course>0.0</course>
  <speed>0.0</speed>
  <fix>3d</fix>
</trkpt>
<trkpt lat="40.0713749" lon="-105.229789">
  <ele>1583.0</ele>
  <time>2026-09-02T20:50:22Z</time>
  <course>206.36</course>
  <speed>0.0</speed>
  <fix>3d</fix>
</trkpt>
<trkpt lat="40.0713749" lon="-105.229789">
  <ele>1583.0</ele>
  <time>2026-09-02T20:50:22Z</time>
  <course>0.0</course>
  <speed>0.0</speed>
  <fix>3d</fix>
</trkpt>
<trkpt lat="40.0713749" lon="-105.229789">
  <ele>1583.0</ele>
  <time>2026-09-02T20:50:22Z</time>
  <course>194.37</course>
  <speed>0.0</speed>
  <fix>3d</fix>
</trkpt>
<trkpt lat="40.0713749" lon="-105.229789">
  <ele>1583.0</ele>
  <time>2026-09-02T20:50:22Z</time>
  <course>0.0</course>
  <speed>0.0</speed>
  <fix>3d</fix>
</trkpt>
<trkpt lat="40.0713749" lon="-105.229789">
  <ele>1583.0</ele>
  <time>2026-09-02T20:50:22Z</time>
  <course>182.37</course>
  <speed>0.0</speed>
  <fix>3d</fix>
</trkpt>
<trkpt lat="40.0713749" lon="-105.229789">
  <ele>1583.0</ele>
  <time>2026-09-02T20:50:22Z</time>
  <course>0.0</course>
  <speed>0.0</speed>
  <fix>3d</fix>
</trkpt>
<trkpt lat="40.0713749" lon="-105.229789">
  <ele>1583.0</ele>
  <time>2026-09-02T20:50:22Z</time>
  <course>170.37</course>
  <speed>0.0</speed>
  <fix>3d</fix>
</trkpt>
<trkpt lat="40.0713749" lon="-105.229789">
  <ele>1583.0</ele>
  <time>2026-09-02T20:50:22Z</time>
  <course>0.0</course>
  <speed>0.0</speed>
  <fix>3d</fix>
</trkpt>
<trkpt lat="40.0713749" lon="-105.229789">
  <ele>1583.0</ele>
  <time>2026-09-02T20:50:22Z</time>
  <course>158.37</course>
  <speed>0.0</speed>
  <fix>3d</fix>
</trkpt>
<trkpt lat="40.0713749" lon="-105.229789">
  <ele>1583.0</ele>
  <time>2026-09-02T20:50:22Z</time>
  <course>0.0</course>
  <speed>0.0</speed>
  <fix>3d</fix>
</trkpt>
<trkpt lat="40.0713749" lon="-105.229789">
  <ele>1583.0</ele>
  <time>2026-09-02T20:50:22Z</time>
  <course>146.38</course>
  <speed>0.0</speed>
  <fix>3d</fix>
</trkpt>
<trkpt lat="40.0713749" lon="-105.229789">
  <ele>1583.0</ele>
  <time>2026-09-02T20:50:22Z</time>
  <course>0.0</course>
  <speed>0.0</speed>
  <fix>3d</fix>
</trkpt>
<trkpt lat="40.0713749" lon="-105.229789">
  <ele>1583.0</ele>
  <time>2026-09-02T20:50:22Z</time>
  <course>134.38</course>
  <speed>0.0</speed>
  <fix>3d</fix>
</trkpt>
<trkpt lat="40.0713749" lon="-105.229789">
  <ele>1583.0</ele>
  <time>2026-09-02T20:50:22Z</time>
  <course>0.0</course>
  <speed>0.0</speed>
  <fix>3d</fix>
</trkpt>
<trkpt lat="40.0713749" lon="-105.229789">
  <ele>1583.0</ele>
  <time>2026-09-02T20:50:22Z</time>
  <course>122.39</course>
  <speed>0.0</speed>
  <fix>3d</fix>
</trkpt>
<trkpt lat="40.0713749" lon="-105.229789">
  <ele>1583.0</ele>
  <time>2026-09-02T20:50:22Z</time>
  <course>0.0</course>
  <speed>0.0</speed>
  <fix>3d</fix>
</trkpt>
<trkpt lat="40.0713749" lon="-105.229789">
  <ele>1583.0</ele>
  <time>2026-09-02T20:50:22Z</time>
  <course>110.39</course>
  <speed>0.0</speed>
  <fix>3d</fix>
</trkpt>
<trkpt lat="40.0713749" lon="-105.229789">
  <ele>1583.0</ele>
  <time>2026-09-02T20:50:22Z</time>
  <course>0.0</course>
  <speed>0.0</speed>
  <fix>3d</fix>
</trkpt>
<trkpt lat="40.0713749" lon="-105.229789">
  <ele>1583.0</ele>
  <time>2026-09-02T20:50:22Z</time>
  <course>98.4</course>
  <speed>0.0</speed>
  <fix>3d</fix>
</trkpt>
<trkpt lat="40.0713749" lon="-105.229789">
  <ele>1583.0</ele>
  <time>2026-09-02T20:50:22Z</time>
  <course>0.0</course>
  <speed>0.0</speed>
  <fix>3d</fix>
</trkpt>
<trkpt lat="40.0713749" lon="-105.229789">
  <ele>1583.0</ele>
  <time>2026-09-02T20:50:22Z</time>
  <course>86.4</course>
  <speed>0.0</speed>
  <fix>3d</fix>
</trkpt>
<trkpt lat="40.0713749" lon="-105.229789">
  <ele>1583.0</ele>
  <time>2026-09-02T20:50:22Z</time>
  <course>0.0</course>
  <speed>0.0</speed>
  <fix>3d</fix>
</trkpt>
<trkpt lat="40.0713749" lon="-105.229789">
  <ele>1583.0</ele>
  <time>2026-09-02T20:50:22Z</time>
  <course>76.7</course>
  <speed>0.0</speed>
  <fix>3d</fix>
</trkpt>
<trkpt lat="40.0713749" lon="-105.229789">
  <ele>1583.0</ele>
  <time>2026-09-02T20:50:22Z</time>
  <course>0.0</course>
  <speed>0.0</speed>
  <fix>3d</fix>
</trkpt>
<trkpt lat="40.0713749" lon="-105.229789">
  <ele>1583.0</ele>
  <time>2026-09-02T20:50:22Z</time>
  <course>64.71</course>
  <speed>0.0</speed>
  <fix>3d</fix>
</trkpt>
<trkpt lat="40.0713749" lon="-105.229789">
  <ele>1583.0</ele>
  <time>2026-09-02T20:50:22Z</time>
  <course>0.0</course>
  <speed>0.0</speed>
  <fix>3d</fix>
</trkpt>
<trkpt lat="40.0713749" lon="-105.229789">
  <ele>1583.0</ele>
  <time>2026-09-02T20:50:22Z</time>
  <course>52.71</course>
  <speed>0.0</speed>
  <fix>3d</fix>
</trkpt>
<trkpt lat="40.0713749" lon="-105.229789">
  <ele>1583.0</ele>
  <time>2026-09-02T20:50:22Z</time>
  <course>0.0</course>
  <speed>0.0</speed>
  <fix>3d</fix>
</trkpt>
<trkpt lat="40.0713749" lon="-105.229789">
  <ele>1583.0</ele>
  <time>2026-09-02T20:50:22Z</time>
  <course>40.72</course>
  <speed>0.0</speed>
  <fix>3d</fix>
</trkpt>
<trkpt lat="40.0713749" lon="-105.229789">
  <ele>1583.0</ele>
  <time>2026-09-02T20:50:22Z</time>
  <course>0.0</course>
  <speed>0.0</speed>
  <fix>3d</fix>
</trkpt>
<trkpt lat="40.0713749" lon="-105.229789">
  <ele>1583.0</ele>
  <time>2026-09-02T20:50:22Z</time>
  <course>28.72</course>
  <speed>0.0</speed>
  <fix>3d</fix>
</trkpt>
<trkpt lat="40.0713749" lon="-105.229789">
  <ele>1583.0</ele>
  <time>2026-09-02T20:50:22Z</time>
  <course>0.0</course>
  <speed>0.0</speed>
  <fix>3d</fix>
</trkpt>
<trkpt lat="40.0713749" lon="-105.229789">
  <ele>1583.0</ele>
  <time>2026-09-02T20:50:22Z</time>
  <course>16.73</course>
  <speed>0.0</speed>
  <fix>3d</fix>
</trkpt>
<trkpt lat="40.0713749" lon="-105.229789">
  <ele>1583.0</ele>
  <time>2026-09-02T20:50:22Z</time>
  <course>0.0</course>
  <speed>0.0</speed>
  <fix>3d</fix>
</trkpt>
<trkpt lat="40.0713749" lon="-105.229789">
  <ele>1583.0</ele>
  <time>2026-09-02T20:50:22Z</time>
  <course>4.73</course>
  <speed>0.0</speed>
  <fix>3d</fix>
</trkpt>
<trkpt lat="40.0713749" lon="-105.229789">
  <ele>1583.0</ele>
  <time>2026-09-02T20:50:22Z</time>
  <course>0.0</course>
  <speed>0.0</speed>
  <fix>3d</fix>
</trkpt>
<trkpt lat="40.0713749" lon="-105.229789">
  <ele>1583.0</ele>
  <time>2026-09-02T20:50:22Z</time>
  <course>352.75</course>
  <speed>0.0</speed>
  <fix>3d</fix>
</trkpt>
<trkpt lat="40.0713749" lon="-105.229789">
  <ele>1583.0</ele>
  <time>2026-09-02T20:50:22Z</time>
  <course>0.0</course>
  <speed>0.0</speed>
  <fix>3d</fix>
</trkpt>
<trkpt lat="40.0713749" lon="-105.229789">
  <ele>1583.0</ele>
  <time>2026-09-02T20:50:22Z</time>
  <course>340.75</course>
  <speed>0.0</speed>
  <fix>3d</fix>
</trkpt>
<trkpt lat="40.0713749" lon="-105.229789">
  <ele>1583.0</ele>
  <time>2026-09-02T20:50:22Z</time>
  <course>0.0</course>
  <speed>0.0</speed>
  <fix>3d</fix>
</trkpt>
<trkpt lat="40.0713749" lon="-105.229789">
  <ele>1583.0</ele>
  <time>2026-09-02T20:50:22Z</time>
  <course>328.76</course>
  <speed>0.0</speed>
  <fix>3d</fix>
</trkpt>
<trkpt lat="40.0713749" lon="-105.229789">
  <ele>1583.0</ele>
  <time>2026-09-02T20:50:22Z</time>
  <course>0.0</course>
  <speed>0.0</speed>
  <fix>3d</fix>
</trkpt>
<trkpt lat="40.0713749" lon="-105.229789">
  <ele>1583.0</ele>
  <time>2026-09-02T20:50:22Z</time>
  <course>314.36</course>
  <speed>0.0</speed>
  <fix>3d</fix>
</trkpt>
<trkpt lat="40.0713749" lon="-105.229789">
  <ele>1583.0</ele>
  <time>2026-09-02T20:50:22Z</time>
  <course>0.0</course>
  <speed>0.0</speed>
  <fix>3d</fix>
</trkpt>
<trkpt lat="40.0713749" lon="-105.229789">
  <ele>1583.0</ele>
  <time>2026-09-02T20:50:22Z</time>
  <course>302.37</course>
  <speed>0.0</speed>
  <fix>3d</fix>
</trkpt>
<trkpt lat="40.0713749" lon="-105.229789">
  <ele>1583.0</ele>
  <time>2026-09-02T20:50:22Z</time>
  <course>0.0</course>
  <speed>0.0</speed>
  <fix>3d</fix>
</trkpt>
<trkpt lat="40.0713749" lon="-105.229789">
  <ele>1583.0</ele>
  <time>2026-09-02T20:50:22Z</time>
  <course>290.37</course>
  <speed>0.0</speed>
  <fix>3d</fix>
</trkpt>
<trkpt lat="40.0713749" lon="-105.229789">
  <ele>1583.0</ele>
  <time>2026-09-02T20:50:22Z</time>
  <course>0.0</course>
  <speed>0.0</speed>
  <fix>3d</fix>
</trkpt>
<trkpt lat="40.0713749" lon="-105.229789">
  <ele>1583.0</ele>
  <time>2026-09-02T20:50:22Z</time>
  <course>278.38</course>
  <speed>0.0</speed>
  <fix>3d</fix>
</trkpt>
<trkpt lat="40.0713749" lon="-105.229789">
  <ele>1583.0</ele>
  <time>2026-09-02T20:50:22Z</time>
  <course>0.0</course>
  <speed>0.0</speed>
  <fix>3d</fix>
</trkpt>
<trkpt lat="40.0713749" lon="-105.229789">
  <ele>1583.0</ele>
  <time>2026-09-02T20:50:22Z</time>
  <course>266.38</course>
  <speed>0.0</speed>
  <fix>3d</fix>
</trkpt>
<trkpt lat="40.0713749" lon="-105.229789">
  <ele>1583.0</ele>
  <time>2026-09-02T20:50:22Z</time>
  <course>0.0</course>
  <speed>0.0</speed>
  <fix>3d</fix>
</trkpt>
<trkpt lat="40.0713749" lon="-105.229789">
  <ele>1583.0</ele>
  <time>2026-09-02T20:50:22Z</time>
  <course>254.39</course>
  <speed>0.0</speed>
  <fix>3d</fix>
</trkpt>
<trkpt lat="40.0713749" lon="-105.229789">
  <ele>1583.0</ele>
  <time>2026-09-02T20:50:22Z</time>
  <course>0.0</course>
  <speed>0.0</speed>
  <fix>3d</fix>
</trkpt>
<trkpt lat="40.0713749" lon="-105.229789">
  <ele>1583.0</ele>
  <time>2026-09-02T20:50:22Z</time>
  <course>242.39</course>
  <speed>0.0</speed>
  <fix>3d</fix>
</trkpt>
<trkpt lat="40.0713749" lon="-105.229789">
  <ele>1583.0</ele>
  <time>2026-09-02T20:50:22Z</time>
  <course>0.0</course>
  <speed>0.0</speed>
  <fix>3d</fix>
</trkpt>
<trkpt lat="40.0713749" lon="-105.229789">
  <ele>1583.0</ele>
  <time>2026-09-02T20:50:22Z</time>
  <course>230.4</course>
  <speed>0.0</speed>
  <fix>3d</fix>
</trkpt>
<trkpt lat="40.0713749" lon="-105.229789">
  <ele>1583.0</ele>
  <time>2026-09-02T20:50:22Z</time>
  <course>0.0</course>
  <speed>0.0</speed>
  <fix>3d</fix>
</trkpt>
<trkpt lat="40.0713749" lon="-105.229789">
  <ele>1583.0</ele>
  <time>2026-09-02T20:50:22Z</time>
  <course>218.4</course>
  <speed>0.0</speed>
  <fix>3d</fix>
</trkpt>
<trkpt lat="40.0713749" lon="-105.229789">
  <ele>1583.0</ele>
  <time>2026-09-02T20:50:22Z</time>
  <course>0.0</course>
  <speed>0.0</speed>
  <fix>3d</fix>
</trkpt>
<trkpt lat="40.0713749" lon="-105.229789">
  <ele>1583.0</ele>
  <time>2026-09-02T20:50:22Z</time>
  <course>206.4</course>
  <speed>0.0</speed>
  <fix>3d</fix>
</trkpt>
<trkpt lat="40.0713749" lon="-105.229789">
  <ele>1583.0</ele>
  <time>2026-09-02T20:50:22Z</time>
  <course>0.0</course>
  <speed>0.0</speed>
  <fix>3d</fix>
</trkpt>
<trkpt lat="40.0713749" lon="-105.229789">
  <ele>1583.0</ele>
  <time>2026-09-02T20:50:22Z</time>
  <course>194.41</course>
  <speed>0.0</speed>
  <fix>3d</fix>
</trkpt>
<trkpt lat="40.0713749" lon="-105.229789">
  <ele>1583.0</ele>
  <time>2026-09-02T20:50:22Z</time>
  <course>0.0</course>
  <speed>0.0</speed>
  <fix>3d</fix>
</trkpt>
<trkpt lat="40.0713749" lon="-105.229789">
  <ele>1583.0</ele>
  <time>2026-09-02T20:50:22Z</time>
  <course>184.71</course>
  <speed>0.0</speed>
  <fix>3d</fix>
</trkpt>
<trkpt lat="40.0713749" lon="-105.229789">
  <ele>1583.0</ele>
  <time>2026-09-02T20:50:22Z</time>
  <course>0.0</course>
  <speed>0.0</speed>
  <fix>3d</fix>
</trkpt>
<trkpt lat="40.0713749" lon="-105.229789">
  <ele>1583.0</ele>
  <time>2026-09-02T20:50:22Z</time>
  <course>172.71</course>
  <speed>0.0</speed>
  <fix>3d</fix>
</trkpt>
<trkpt lat="40.0713749" lon="-105.229789">
  <ele>1583.0</ele>
  <time>2026-09-02T20:50:22Z</time>
  <course>0.0</course>
  <speed>0.0</speed>
  <fix>3d</fix>
</trkpt>
<trkpt lat="40.0713749" lon="-105.229789">
  <ele>1583.0</ele>
  <time>2026-09-02T20:50:22Z</time>
  <course>160.71</course>
  <speed>0.0</speed>
  <fix>3d</fix>
</trkpt>
<trkpt lat="40.0713749" lon="-105.229789">
  <ele>1583.0</ele>
  <time>2026-09-02T20:50:22Z</time>
  <course>0.0</course>
  <speed>0.0</speed>
  <fix>3d</fix>
</trkpt>
<trkpt lat="40.0713749" lon="-105.229789">
  <ele>1583.0</ele>
  <time>2026-09-02T20:50:22Z</time>
  <course>148.71</course>
  <speed>0.0</speed>
  <fix>3d</fix>
</trkpt>
<trkpt lat="40.0713749" lon="-105.229789">
  <ele>1583.0</ele>
  <time>2026-09-02T20:50:22Z</time>
  <course>0.0</course>
  <speed>0.0</speed>
  <fix>3d</fix>
</trkpt>
<trkpt lat="40.0713749" lon="-105.229789">
  <ele>1583.0</ele>
  <time>2026-09-02T20:50:22Z</time>
  <course>136.72</course>
  <speed>0.0</speed>
  <fix>3d</fix>
</trkpt>
<trkpt lat="40.0713749" lon="-105.229789">
  <ele>1583.0</ele>
  <time>2026-09-02T20:50:22Z</time>
  <course>0.0</course>
  <speed>0.0</speed>
  <fix>3d</fix>
</trkpt>
<trkpt lat="40.0713749" lon="-105.229789">
  <ele>1583.0</ele>
  <time>2026-09-02T20:50:22Z</time>
  <course>124.72</course>
  <speed>0.0</speed>
  <fix>3d</fix>
</trkpt>
<trkpt lat="40.0713749" lon="-105.229789">
  <ele>1583.0</ele>
  <time>2026-09-02T20:50:22Z</time>
  <course>0.0</course>
  <speed>0.0</speed>
  <fix>3d</fix>
</trkpt>
<trkpt lat="40.0713749" lon="-105.229789">
  <ele>1583.0</ele>
  <time>2026-09-02T20:50:22Z</time>
  <course>112.73</course>
  <speed>0.0</speed>
  <fix>3d</fix>
</trkpt>
<trkpt lat="40.0713749" lon="-105.229789">
  <ele>1583.0</ele>
  <time>2026-09-02T20:50:22Z</time>
  <course>0.0</course>
  <speed>0.0</speed>
  <fix>3d</fix>
</trkpt>
<trkpt lat="40.0713749" lon="-105.229789">
  <ele>1583.0</ele>
  <time>2026-09-02T20:50:22Z</time>
  <course>100.73</course>
  <speed>0.0</speed>
  <fix>3d</fix>
</trkpt>
<trkpt lat="40.0713749" lon="-105.229789">
  <ele>1583.0</ele>
  <time>2026-09-02T20:50:22Z</time>
  <course>0.0</course>
  <speed>0.0</speed>
  <fix>3d</fix>
</trkpt>
<trkpt lat="40.0713749" lon="-105.229789">
  <ele>1583.0</ele>
  <time>2026-09-02T20:50:22Z</time>
  <course>88.74</course>
  <speed>0.0</speed>
  <fix>3d</fix>
</trkpt>
<trkpt lat="40.0713749" lon="-105.229789">
  <ele>1583.0</ele>
  <time>2026-09-02T20:50:22Z</time>
  <course>0.0</course>
  <speed>0.0</speed>
  <fix>3d</fix>
</trkpt>
<trkpt lat="40.0713749" lon="-105.229789">
  <ele>1583.0</ele>
  <time>2026-09-02T20:50:22Z</time>
  <course>76.74</course>
  <speed>0.0</speed>
  <fix>3d</fix>
</trkpt>
<trkpt lat="40.0713749" lon="-105.229789">
  <ele>1583.0</ele>
  <time>2026-09-02T20:50:22Z</time>
  <course>0.0</course>
  <speed>0.0</speed>
  <fix>3d</fix>
</trkpt>
<trkpt lat="40.0713749" lon="-105.229789">
  <ele>1583.0</ele>
  <time>2026-09-02T20:50:22Z</time>
  <course>62.35</course>
  <speed>0.0</speed>
  <fix>3d</fix>
</trkpt>
<trkpt lat="40.0713749" lon="-105.229789">
  <ele>1583.0</ele>
  <time>2026-09-02T20:50:22Z</time>
  <course>0.0</course>
  <speed>0.0</speed>
  <fix>3d</fix>
</trkpt>
<trkpt lat="40.0713749" lon="-105.229789">
  <ele>1583.0</ele>
  <time>2026-09-02T20:50:22Z</time>
  <course>50.35</course>
  <speed>0.0</speed>
  <fix>3d</fix>
</trkpt>
<trkpt lat="40.0713749" lon="-105.229789">
  <ele>1583.0</ele>
  <time>2026-09-02T20:50:22Z</time>
  <course>0.0</course>
  <speed>0.0</speed>
  <fix>3d</fix>
</trkpt>
<trkpt lat="40.0713749" lon="-105.229789">
  <ele>1583.0</ele>
  <time>2026-09-02T20:50:22Z</time>
  <course>38.36</course>
  <speed>0.0</speed>
  <fix>3d</fix>
</trkpt>
<trkpt lat="40.0713749" lon="-105.229789">
  <ele>1583.0</ele>
  <time>2026-09-02T20:50:22Z</time>
  <course>0.0</course>
  <speed>0.0</speed>
  <fix>3d</fix>
</trkpt>
<trkpt lat="40.0713749" lon="-105.229789">
  <ele>1583.0</ele>
  <time>2026-09-02T20:50:22Z</time>
  <course>26.36</course>
  <speed>0.0</speed>
  <fix>3d</fix>
</trkpt>
<trkpt lat="40.0713749" lon="-105.229789">
  <ele>1583.0</ele>
  <time>2026-09-02T20:50:22Z</time>
  <course>0.0</course>
  <speed>0.0</speed>
  <fix>3d</fix>
</trkpt>
<trkpt lat="40.0713749" lon="-105.229789">
  <ele>1583.0</ele>
  <time>2026-09-02T20:50:22Z</time>
  <course>14.37</course>
  <speed>0.0</speed>
  <fix>3d</fix>
</trkpt>
<trkpt lat="40.0713749" lon="-105.229789">
  <ele>1583.0</ele>
  <time>2026-09-02T20:50:22Z</time>
  <course>0.0</course>
  <speed>0.0</speed>
  <fix>3d</fix>
</trkpt>
<trkpt lat="40.0713749" lon="-105.229789">
  <ele>1583.0</ele>
  <time>2026-09-02T20:50:22Z</time>
  <course>2.37</course>
  <speed>0.0</speed>
  <fix>3d</fix>
</trkpt>
<trkpt lat="40.0713749" lon="-105.229789">
  <ele>1583.0</ele>
  <time>2026-09-02T20:50:22Z</time>
  <course>0.0</course>
  <speed>0.0</speed>
  <fix>3d</fix>
</trkpt>
<trkpt lat="40.0713749" lon="-105.229789">
  <ele>1583.0</ele>
  <time>2026-09-02T20:50:22Z</time>
  <course>350.39</course>
  <speed>0.0</speed>
  <fix>3d</fix>
</trkpt>
<trkpt lat="40.0713749" lon="-105.229789">
  <ele>1583.0</ele>
  <time>2026-09-02T20:50:22Z</time>
  <course>0.0</course>
  <speed>0.0</speed>
  <fix>3d</fix>
</trkpt>
<trkpt lat="40.0713749" lon="-105.229789">
  <ele>1583.0</ele>
  <time>2026-09-02T20:50:22Z</time>
  <course>338.39</course>
  <speed>0.0</speed>
  <fix>3d</fix>
</trkpt>
<trkpt lat="40.0713749" lon="-105.229789">
  <ele>1583.0</ele>
  <time>2026-09-02T20:50:22Z</time>
  <course>0.0</course>
  <speed>0.0</speed>
  <fix>3d</fix>
</trkpt>
<trkpt lat="40.0713749" lon="-105.229789">
  <ele>1583.0</ele>
  <time>2026-09-02T20:50:22Z</time>
  <course>326.4</course>
  <speed>0.0</speed>
  <fix>3d</fix>
</trkpt>
<trkpt lat="40.0713749" lon="-105.229789">
  <ele>1583.0</ele>
  <time>2026-09-02T20:50:22Z</time>
  <course>0.0</course>
  <speed>0.0</speed>
  <fix>3d</fix>
</trkpt>
<trkpt lat="40.0713749" lon="-105.229789">
  <ele>1583.0</ele>
  <time>2026-09-02T20:50:22Z</time>
  <course>314.4</course>
  <speed>0.0</speed>
  <fix>3d</fix>
</trkpt>
<trkpt lat="40.0713749" lon="-105.229789">
  <ele>1583.0</ele>
  <time>2026-09-02T20:50:22Z</time>
  <course>0.0</course>
  <speed>0.0</speed>
  <fix>3d</fix>
</trkpt>
<trkpt lat="40.0713749" lon="-105.229789">
  <ele>1583.0</ele>
  <time>2026-09-02T20:50:22Z</time>
  <course>302.41</course>
  <speed>0.0</speed>
  <fix>3d</fix>
</trkpt>
<trkpt lat="40.0713749" lon="-105.229789">
  <ele>1583.0</ele>
  <time>2026-09-02T20:50:22Z</time>
  <course>0.0</course>
  <speed>0.0</speed>
  <fix>3d</fix>
</trkpt>
<trkpt lat="40.0713749" lon="-105.229789">
  <ele>1583.0</ele>
  <time>2026-09-02T20:50:22Z</time>
  <course>292.71</course>
  <speed>0.0</speed>
  <fix>3d</fix>
</trkpt>
<trkpt lat="40.0713749" lon="-105.229789">
  <ele>1583.0</ele>
  <time>2026-09-02T20:50:22Z</time>
  <course>0.0</course>
  <speed>0.0</speed>
  <fix>3d</fix>
</trkpt>
<trkpt lat="40.0713749" lon="-105.229789">
  <ele>1583.0</ele>
  <time>2026-09-02T20:50:22Z</time>
  <course>280.72</course>
  <speed>0.0</speed>
  <fix>3d</fix>
</trkpt>
<trkpt lat="40.0713749" lon="-105.229789">
  <ele>1583.0</ele>
  <time>2026-09-02T20:50:22Z</time>
  <course>0.0</course>
  <speed>0.0</speed>
  <fix>3d</fix>
</trkpt>
<trkpt lat="40.0713749" lon="-105.229789">
  <ele>1583.0</ele>
  <time>2026-09-02T20:50:22Z</time>
  <course>268.72</course>
  <speed>0.0</speed>
  <fix>3d</fix>
</trkpt>
<trkpt lat="40.0713749" lon="-105.229789">
  <ele>1583.0</ele>
  <time>2026-09-02T20:50:22Z</time>
  <course>0.0</course>
  <speed>0.0</speed>
  <fix>3d</fix>
</trkpt>
<trkpt lat="40.0713749" lon="-105.229789">
  <ele>1583.0</ele>
  <time>2026-09-02T20:50:22Z</time>
  <course>256.73</course>
  <speed>0.0</speed>
  <fix>3d</fix>
</trkpt>
<trkpt lat="40.0713749" lon="-105.229789">
  <ele>1583.0</ele>
  <time>2026-09-02T20:50:22Z</time>
  <course>0.0</course>
  <speed>0.0</speed>
  <fix>3d</fix>
</trkpt>
<trkpt lat="40.0713749" lon="-105.229789">
  <ele>1583.0</ele>
  <time>2026-09-02T20:50:22Z</time>
  <course>244.73</course>
  <speed>0.0</speed>
  <fix>3d</fix>
</trkpt>
<trkpt lat="40.0713749" lon="-105.229789">
  <ele>1583.0</ele>
  <time>2026-09-02T20:50:22Z</time>
  <course>0.0</course>
  <speed>0.0</speed>
  <fix>3d</fix>
</trkpt>
<trkpt lat="40.0713749" lon="-105.229789">
  <ele>1583.0</ele>
  <time>2026-09-02T20:50:22Z</time>
  <course>232.73</course>
  <speed>0.0</speed>
  <fix>3d</fix>
</trkpt>
<trkpt lat="40.0713749" lon="-105.229789">
  <ele>1583.0</ele>
  <time>2026-09-02T20:50:22Z</time>
  <course>0.0</course>
  <speed>0.0</speed>
  <fix>3d</fix>
</trkpt>
<trkpt lat="40.0713749" lon="-105.229789">
  <ele>1583.0</ele>
  <time>2026-09-02T20:50:22Z</time>
  <course>220.74</course>
  <speed>0.0</speed>
  <fix>3d</fix>
</trkpt>
<trkpt lat="40.0713749" lon="-105.229789">
  <ele>1583.0</ele>
  <time>2026-09-02T20:50:22Z</time>
  <course>0.0</course>
  <speed>0.0</speed>
  <fix>3d</fix>
</trkpt>
<trkpt lat="40.0713749" lon="-105.229789">
  <ele>1583.0</ele>
  <time>2026-09-02T20:50:22Z</time>
  <course>208.74</course>
  <speed>0.0</speed>
  <fix>3d</fix>
</trkpt>
<trkpt lat="40.0713749" lon="-105.229789">
  <ele>1583.0</ele>
  <time>2026-09-02T20:50:22Z</time>
  <course>0.0</course>
  <speed>0.0</speed>
  <fix>3d</fix>
</trkpt>
<trkpt lat="40.0713749" lon="-105.229789">
  <ele>1583.0</ele>
  <time>2026-09-02T20:50:22Z</time>
  <course>196.75</course>
  <speed>0.0</speed>
  <fix>3d</fix>
</trkpt>
<trkpt lat="40.0713749" lon="-105.229789">
  <ele>1583.0</ele>
  <time>2026-09-02T20:50:22Z</time>
  <course>0.0</course>
  <speed>0.0</speed>
  <fix>3d</fix>
</trkpt>
<trkpt lat="40.0713749" lon="-105.229789">
  <ele>1583.0</ele>
  <time>2026-09-02T20:50:22Z</time>
  <course>182.35</course>
  <speed>0.0</speed>
  <fix>3d</fix>
</trkpt>
<trkpt lat="40.0713749" lon="-105.229789">
  <ele>1583.0</ele>
  <time>2026-09-02T20:50:22Z</time>
  <course>0.0</course>
  <speed>0.0</speed>
  <fix>3d</fix>
</trkpt>
<trkpt lat="40.0713749" lon="-105.229789">
  <ele>1583.0</ele>
  <time>2026-09-02T20:50:22Z</time>
  <course>170.35</course>
  <speed>0.0</speed>
  <fix>3d</fix>
</trkpt>
<trkpt lat="40.0713749" lon="-105.229789">
  <ele>1583.0</ele>
  <time>2026-09-02T20:50:22Z</time>
  <course>0.0</course>
  <speed>0.0</speed>
  <fix>3d</fix>
</trkpt>
<trkpt lat="40.0713749" lon="-105.229789">
  <ele>1583.0</ele>
  <time>2026-09-02T20:50:22Z</time>
  <course>158.35</course>
  <speed>0.0</speed>
  <fix>3d</fix>
</trkpt>
<trkpt lat="40.0713749" lon="-105.229789">
  <ele>1583.0</ele>
  <time>2026-09-02T20:50:22Z</time>
  <course>0.0</course>
  <speed>0.0</speed>
  <fix>3d</fix>
</trkpt>
<trkpt lat="40.0713749" lon="-105.229789">
  <ele>1583.0</ele>
  <time>2026-09-02T20:50:22Z</time>
  <course>146.35</course>
  <speed>0.0</speed>
  <fix>3d</fix>
</trkpt>
<trkpt lat="40.0713749" lon="-105.229789">
  <ele>1583.0</ele>
  <time>2026-09-02T20:50:22Z</time>
  <course>0.0</course>
  <speed>0.0</speed>
  <fix>3d</fix>
</trkpt>
<trkpt lat="40.0713749" lon="-105.229789">
  <ele>1583.0</ele>
  <time>2026-09-02T20:50:22Z</time>
  <course>134.36</course>
  <speed>0.0</speed>
  <fix>3d</fix>
</trkpt>
<trkpt lat="40.0713749" lon="-105.229789">
  <ele>1583.0</ele>
  <time>2026-09-02T20:50:22Z</time>
  <course>0.0</course>
  <speed>0.0</speed>
  <fix>3d</fix>
</trkpt>
<trkpt lat="40.0713749" lon="-105.229789">
  <ele>1583.0</ele>
  <time>2026-09-02T20:50:22Z</time>
  <course>122.36</course>
  <speed>0.0</speed>
  <fix>3d</fix>
</trkpt>
<trkpt lat="40.0713749" lon="-105.229789">
  <ele>1583.0</ele>
  <time>2026-09-02T20:50:22Z</time>
  <course>0.0</course>
  <speed>0.0</speed>
  <fix>3d</fix>
</trkpt>
<trkpt lat="40.0713749" lon="-105.229789">
  <ele>1583.0</ele>
  <time>2026-09-02T20:50:22Z</time>
  <course>110.37</course>
  <speed>0.0</speed>
  <fix>3d</fix>
</trkpt>
<trkpt lat="40.0713749" lon="-105.229789">
  <ele>1583.0</ele>
  <time>2026-09-02T20:50:22Z</time>
  <course>0.0</course>
  <speed>0.0</speed>
  <fix>3d</fix>
</trkpt>
<trkpt lat="40.0713749" lon="-105.229789">
  <ele>1583.0</ele>
  <time>2026-09-02T20:50:22Z</time>
  <course>98.37</course>
  <speed>0.0</speed>
  <fix>3d</fix>
</trkpt>
<trkpt lat="40.0713749" lon="-105.229789">
  <ele>1583.0</ele>
  <time>2026-09-02T20:50:22Z</time>
  <course>0.0</course>
  <speed>0.0</speed>
  <fix>3d</fix>
</trkpt>
<trkpt lat="40.0713749" lon="-105.229789">
  <ele>1583.0</ele>
  <time>2026-09-02T20:50:22Z</time>
  <course>86.38</course>
  <speed>0.0</speed>
  <fix>3d</fix>
</trkpt>
<trkpt lat="40.0713749" lon="-105.229789">
  <ele>1583.0</ele>
  <time>2026-09-02T20:50:22Z</time>
  <course>0.0</course>
  <speed>0.0</speed>
  <fix>3d</fix>
</trkpt>
<trkpt lat="40.0713749" lon="-105.229789">
  <ele>1583.0</ele>
  <time>2026-09-02T20:50:22Z</time>
  <course>74.38</course>
  <speed>0.0</speed>
  <fix>3d</fix>
</trkpt>
<trkpt lat="40.0713749" lon="-105.229789">
  <ele>1583.0</ele>
  <time>2026-09-02T20:50:22Z</time>
  <course>0.0</course>
  <speed>0.0</speed>
  <fix>3d</fix>
</trkpt>
<trkpt lat="40.0713749" lon="-105.229789">
  <ele>1583.0</ele>
  <time>2026-09-02T20:50:22Z</time>
  <course>62.39</course>
  <speed>0.0</speed>
  <fix>3d</fix>
</trkpt>
<trkpt lat="40.0713749" lon="-105.229789">
  <ele>1583.0</ele>
  <time>2026-09-02T20:50:22Z</time>
  <course>0.0</course>
  <speed>0.0</speed>
  <fix>3d</fix>
</trkpt>
<trkpt lat="40.0713749" lon="-105.229789">
  <ele>1583.0</ele>
  <time>2026-09-02T20:50:22Z</time>
  <course>50.29</course>
  <speed>0.0</speed>
  <fix>3d</fix>
</trkpt>
<trkpt lat="40.0713749" lon="-105.229789">
  <ele>1583.0</ele>
  <time>2026-09-02T20:50:22Z</time>
  <course>0.0</course>
  <speed>0.0</speed>
  <fix>3d</fix>
</trkpt>
<trkpt lat="40.0713749" lon="-105.229789">
  <ele>1583.0</ele>
  <time>2026-09-02T20:50:22Z</time>
  <course>40.7</course>
  <speed>0.0</speed>
  <fix>3d</fix>
</trkpt>
<trkpt lat="40.0713749" lon="-105.229789">
  <ele>1583.0</ele>
  <time>2026-09-02T20:50:22Z</time>
  <course>0.0</course>
  <speed>0.0</speed>
  <fix>3d</fix>
</trkpt>
<trkpt lat="40.0713749" lon="-105.229789">
  <ele>1583.0</ele>
  <time>2026-09-02T20:50:22Z</time>
  <course>28.7</course>
  <speed>0.0</speed>
  <fix>3d</fix>
</trkpt>
<trkpt lat="40.0713749" lon="-105.229789">
  <ele>1583.0</ele>
  <time>2026-09-02T20:50:22Z</time>
  <course>0.0</course>
  <speed>0.0</speed>
  <fix>3d</fix>
</trkpt>
<trkpt lat="40.0713749" lon="-105.229789">
  <ele>1583.0</ele>
  <time>2026-09-02T20:50:22Z</time>
  <course>16.71</course>
  <speed>0.0</speed>
  <fix>3d</fix>
</trkpt>
<trkpt lat="40.0713749" lon="-105.229789">
  <ele>1583.0</ele>
  <time>2026-09-02T20:50:22Z</time>
  <course>0.0</course>
  <speed>0.0</speed>
  <fix>3d</fix>
</trkpt>
<trkpt lat="40.0713749" lon="-105.229789">
  <ele>1583.0</ele>
  <time>2026-09-02T20:50:22Z</time>
  <course>4.71</course>
  <speed>0.0</speed>
  <fix>3d</fix>
</trkpt>
<trkpt lat="40.0713749" lon="-105.229789">
  <ele>1583.0</ele>
  <time>2026-09-02T20:50:22Z</time>
  <course>0.0</course>
  <speed>0.0</speed>
  <fix>3d</fix>
</trkpt>
<trkpt lat="40.0713749" lon="-105.229789">
  <ele>1583.0</ele>
  <time>2026-09-02T20:50:22Z</time>
  <course>352.73</course>
  <speed>0.0</speed>
  <fix>3d</fix>
</trkpt>
<trkpt lat="40.0713749" lon="-105.229789">
  <ele>1583.0</ele>
  <time>2026-09-02T20:50:22Z</time>
  <course>0.0</course>
  <speed>0.0</speed>
  <fix>3d</fix>
</trkpt>
<trkpt lat="40.0713749" lon="-105.229789">
  <ele>1583.0</ele>
  <time>2026-09-02T20:50:22Z</time>
  <course>340.73</course>
  <speed>0.0</speed>
  <fix>3d</fix>
</trkpt>
<trkpt lat="40.0713749" lon="-105.229789">
  <ele>1583.0</ele>
  <time>2026-09-02T20:50:22Z</time>
  <course>0.0</course>
  <speed>0.0</speed>
  <fix>3d</fix>
</trkpt>
<trkpt lat="40.0713749" lon="-105.229789">
  <ele>1583.0</ele>
  <time>2026-09-02T20:50:22Z</time>
  <course>328.74</course>
  <speed>0.0</speed>
  <fix>3d</fix>
</trkpt>
<trkpt lat="40.0713749" lon="-105.229789">
  <ele>1583.0</ele>
  <time>2026-09-02T20:50:22Z</time>
  <course>0.0</course>
  <speed>0.0</speed>
  <fix>3d</fix>
</trkpt>
<trkpt lat="40.0713749" lon="-105.229789">
  <ele>1583.0</ele>
  <time>2026-09-02T20:50:22Z</time>
  <course>316.74</course>
  <speed>0.0</speed>
  <fix>3d</fix>
</trkpt>
<trkpt lat="40.0713749" lon="-105.229789">
  <ele>1583.0</ele>
  <time>2026-09-02T20:50:22Z</time>
  <course>0.0</course>
  <speed>0.0</speed>
  <fix>3d</fix>
</trkpt>
<trkpt lat="40.0713749" lon="-105.229789">
  <ele>1583.0</ele>
  <time>2026-09-02T20:50:22Z</time>
  <course>304.75</course>
  <speed>0.0</speed>
  <fix>3d</fix>
</trkpt>
<trkpt lat="40.0713749" lon="-105.229789">
  <ele>1583.0</ele>
  <time>2026-09-02T20:50:22Z</time>
  <course>0.0</course>
  <speed>0.0</speed>
  <fix>3d</fix>
</trkpt>
<trkpt lat="40.0713749" lon="-105.229789">
  <ele>1583.0</ele>
  <time>2026-09-02T20:50:22Z</time>
  <course>290.35</course>
  <speed>0.0</speed>
  <fix>3d</fix>
</trkpt>
<trkpt lat="40.0713749" lon="-105.229789">
  <ele>1583.0</ele>
  <time>2026-09-02T20:50:22Z</time>
  <course>0.0</course>
  <speed>0.0</speed>
  <fix>3d</fix>
</trkpt>
<trkpt lat="40.0713749" lon="-105.229789">
  <ele>1583.0</ele>
  <time>2026-09-02T20:50:22Z</time>
  <course>278.36</course>
  <speed>0.0</speed>
  <fix>3d</fix>
</trkpt>
<trkpt lat="40.0713749" lon="-105.229789">
  <ele>1583.0</ele>
  <time>2026-09-02T20:50:22Z</time>
  <course>0.0</course>
  <speed>0.0</speed>
  <fix>3d</fix>
</trkpt>
<trkpt lat="40.0713749" lon="-105.229789">
  <ele>1583.0</ele>
  <time>2026-09-02T20:50:22Z</time>
  <course>266.36</course>
  <speed>0.0</speed>
  <fix>3d</fix>
</trkpt>
<trkpt lat="40.0713749" lon="-105.229789">
  <ele>1583.0</ele>
  <time>2026-09-02T20:50:22Z</time>
  <course>0.0</course>
  <speed>0.0</speed>
  <fix>3d</fix>
</trkpt>
<trkpt lat="40.0713749" lon="-105.229789">
  <ele>1583.0</ele>
  <time>2026-09-02T20:50:22Z</time>
  <course>254.37</course>
  <speed>0.0</speed>
  <fix>3d</fix>
</trkpt>
<trkpt lat="40.0713749" lon="-105.229789">
  <ele>1583.0</ele>
  <time>2026-09-02T20:50:22Z</time>
  <course>0.0</course>
  <speed>0.0</speed>
  <fix>3d</fix>
</trkpt>
<trkpt lat="40.0713749" lon="-105.229789">
  <ele>1583.0</ele>
  <time>2026-09-02T20:50:22Z</time>
  <course>242.37</course>
  <speed>0.0</speed>
  <fix>3d</fix>
</trkpt>
<trkpt lat="40.0713749" lon="-105.229789">
  <ele>1583.0</ele>
  <time>2026-09-02T20:50:22Z</time>
  <course>0.0</course>
  <speed>0.0</speed>
  <fix>3d</fix>
</trkpt>
<trkpt lat="40.0713749" lon="-105.229789">
  <ele>1583.0</ele>
  <time>2026-09-02T20:50:22Z</time>
  <course>230.37</course>
  <speed>0.0</speed>
  <fix>3d</fix>
</trkpt>
<trkpt lat="40.0713749" lon="-105.229789">
  <ele>1583.0</ele>
  <time>2026-09-02T20:50:22Z</time>
  <course>0.0</course>
  <speed>0.0</speed>
  <fix>3d</fix>
</trkpt>
<trkpt lat="40.0713749" lon="-105.229789">
  <ele>1583.0</ele>
  <time>2026-09-02T20:50:22Z</time>
  <course>218.38</course>
  <speed>0.0</speed>
  <fix>3d</fix>
</trkpt>
<trkpt lat="40.0713749" lon="-105.229789">
  <ele>1583.0</ele>
  <time>2026-09-02T20:50:22Z</time>
  <course>0.0</course>
  <speed>0.0</speed>
  <fix>3d</fix>
</trkpt>
<trkpt lat="40.0713749" lon="-105.229789">
  <ele>1583.0</ele>
  <time>2026-09-02T20:50:22Z</time>
  <course>206.38</course>
  <speed>0.0</speed>
  <fix>3d</fix>
</trkpt>
<trkpt lat="40.0713749" lon="-105.229789">
  <ele>1583.0</ele>
  <time>2026-09-02T20:50:22Z</time>
  <course>0.0</course>
  <speed>0.0</speed>
  <fix>3d</fix>
</trkpt>
<trkpt lat="40.0713749" lon="-105.229789">
  <ele>1583.0</ele>
  <time>2026-09-02T20:50:22Z</time>
  <course>194.39</course>
  <speed>0.0</speed>
  <fix>3d</fix>
</trkpt>
<trkpt lat="40.0713749" lon="-105.229789">
  <ele>1583.0</ele>
  <time>2026-09-02T20:50:22Z</time>
  <course>0.0</course>
  <speed>0.0</speed>
  <fix>3d</fix>
</trkpt>
<trkpt lat="40.0713749" lon="-105.229789">
  <ele>1583.0</ele>
  <time>2026-09-02T20:50:22Z</time>
  <course>182.39</course>
  <speed>0.0</speed>
  <fix>3d</fix>
</trkpt>
<trkpt lat="40.0713749" lon="-105.229789">
  <ele>1583.0</ele>
  <time>2026-09-02T20:50:22Z</time>
  <course>0.0</course>
  <speed>0.0</speed>
  <fix>3d</fix>
</trkpt>
<trkpt lat="40.0713749" lon="-105.229789">
  <ele>1583.0</ele>
  <time>2026-09-02T20:50:22Z</time>
  <course>170.39</course>
  <speed>0.0</speed>
  <fix>3d</fix>
</trkpt>
<trkpt lat="40.0713749" lon="-105.229789">
  <ele>1583.0</ele>
  <time>2026-09-02T20:50:22Z</time>
  <course>0.0</course>
  <speed>0.0</speed>
  <fix>3d</fix>
</trkpt>
<trkpt lat="40.0713749" lon="-105.229789">
  <ele>1583.0</ele>
  <time>2026-09-02T20:50:22Z</time>
  <course>160.69</course>
  <speed>0.0</speed>
  <fix>3d</fix>
</trkpt>
<trkpt lat="40.0713749" lon="-105.229789">
  <ele>1583.0</ele>
  <time>2026-09-02T20:50:22Z</time>
  <course>0.0</course>
  <speed>0.0</speed>
  <fix>3d</fix>
</trkpt>
<trkpt lat="40.0713749" lon="-105.229789">
  <ele>1583.0</ele>
  <time>2026-09-02T20:50:22Z</time>
  <course>148.69</course>
  <speed>0.0</speed>
  <fix>3d</fix>
</trkpt>
<trkpt lat="40.0713749" lon="-105.229789">
  <ele>1583.0</ele>
  <time>2026-09-02T20:50:22Z</time>
  <course>0.0</course>
  <speed>0.0</speed>
  <fix>3d</fix>
</trkpt>
<trkpt lat="40.0713749" lon="-105.229789">
  <ele>1583.0</ele>
  <time>2026-09-02T20:50:22Z</time>
  <course>136.7</course>
  <speed>0.0</speed>
  <fix>3d</fix>
</trkpt>
<trkpt lat="40.0713749" lon="-105.229789">
  <ele>1583.0</ele>
  <time>2026-09-02T20:50:22Z</time>
  <course>0.0</course>
  <speed>0.0</speed>
  <fix>3d</fix>
</trkpt>
<trkpt lat="40.0713749" lon="-105.229789">
  <ele>1583.0</ele>
  <time>2026-09-02T20:50:22Z</time>
  <course>124.7</course>
  <speed>0.0</speed>
  <fix>3d</fix>
</trkpt>
<trkpt lat="40.0713749" lon="-105.229789">
  <ele>1583.0</ele>
  <time>2026-09-02T20:50:22Z</time>
  <course>0.0</course>
  <speed>0.0</speed>
  <fix>3d</fix>
</trkpt>
<trkpt lat="40.0713749" lon="-105.229789">
  <ele>1583.0</ele>
  <time>2026-09-02T20:50:22Z</time>
  <course>112.71</course>
  <speed>0.0</speed>
  <fix>3d</fix>
</trkpt>
<trkpt lat="40.0713749" lon="-105.229789">
  <ele>1583.0</ele>
  <time>2026-09-02T20:50:22Z</time>
  <course>0.0</course>
  <speed>0.0</speed>
  <fix>3d</fix>
</trkpt>
<trkpt lat="40.0713749" lon="-105.229789">
  <ele>1583.0</ele>
  <time>2026-09-02T20:50:22Z</time>
  <course>100.71</course>
  <speed>0.0</speed>
  <fix>3d</fix>
</trkpt>
<trkpt lat="40.0713749" lon="-105.229789">
  <ele>1583.0</ele>
  <time>2026-09-02T20:50:22Z</time>
  <course>0.0</course>
  <speed>0.0</speed>
  <fix>3d</fix>
</trkpt>
<trkpt lat="40.0713749" lon="-105.229789">
  <ele>1583.0</ele>
  <time>2026-09-02T20:50:22Z</time>
  <course>88.72</course>
  <speed>0.0</speed>
  <fix>3d</fix>
</trkpt>
<trkpt lat="40.0713749" lon="-105.229789">
  <ele>1583.0</ele>
  <time>2026-09-02T20:50:22Z</time>
  <course>0.0</course>
  <speed>0.0</speed>
  <fix>3d</fix>
</trkpt>
<trkpt lat="40.0713749" lon="-105.229789">
  <ele>1583.0</ele>
  <time>2026-09-02T20:50:22Z</time>
  <course>76.72</course>
  <speed>0.0</speed>
  <fix>3d</fix>
</trkpt>
<trkpt lat="40.0713749" lon="-105.229789">
  <ele>1583.0</ele>
  <time>2026-09-02T20:50:22Z</time>
  <course>0.0</course>
  <speed>0.0</speed>
  <fix>3d</fix>
</trkpt>
<trkpt lat="40.0713749" lon="-105.229789">
  <ele>1583.0</ele>
  <time>2026-09-02T20:50:22Z</time>
  <course>64.73</course>
  <speed>0.0</speed>
  <fix>3d</fix>
</trkpt>
<trkpt lat="40.0713749" lon="-105.229789">
  <ele>1583.0</ele>
  <time>2026-09-02T20:50:22Z</time>
  <course>0.0</course>
  <speed>0.0</speed>
  <fix>3d</fix>
</trkpt>
<trkpt lat="40.0713749" lon="-105.229789">
  <ele>1583.0</ele>
  <time>2026-09-02T20:50:22Z</time>
  <course>52.73</course>
  <speed>0.0</speed>
  <fix>3d</fix>
</trkpt>
<trkpt lat="40.0713749" lon="-105.229789">
  <ele>1583.0</ele>
  <time>2026-09-02T20:50:22Z</time>
  <course>0.0</course>
  <speed>0.0</speed>
  <fix>3d</fix>
</trkpt>
<trkpt lat="40.0713749" lon="-105.229789">
  <ele>1583.0</ele>
  <time>2026-09-02T20:50:22Z</time>
  <course>38.34</course>
  <speed>0.0</speed>
  <fix>3d</fix>
</trkpt>
<trkpt lat="40.0713749" lon="-105.229789">
  <ele>1583.0</ele>
  <time>2026-09-02T20:50:22Z</time>
  <course>0.0</course>
  <speed>0.0</speed>
  <fix>3d</fix>
</trkpt>
<trkpt lat="40.0713749" lon="-105.229789">
  <ele>1583.0</ele>
  <time>2026-09-02T20:50:22Z</time>
  <course>26.34</course>
  <speed>0.0</speed>
  <fix>3d</fix>
</trkpt>
<trkpt lat="40.0713749" lon="-105.229789">
  <ele>1583.0</ele>
  <time>2026-09-02T20:50:22Z</time>
  <course>0.0</course>
  <speed>0.0</speed>
  <fix>3d</fix>
</trkpt>
<trkpt lat="40.0713749" lon="-105.229789">
  <ele>1583.0</ele>
  <time>2026-09-02T20:50:22Z</time>
  <course>14.35</course>
  <speed>0.0</speed>
  <fix>3d</fix>
</trkpt>
<trkpt lat="40.0713749" lon="-105.229789">
  <ele>1583.0</ele>
  <time>2026-09-02T20:50:22Z</time>
  <course>0.0</course>
  <speed>0.0</speed>
  <fix>3d</fix>
</trkpt>
<trkpt lat="40.0713749" lon="-105.229789">
  <ele>1583.0</ele>
  <time>2026-09-02T20:50:22Z</time>
  <course>2.35</course>
  <speed>0.0</speed>
  <fix>3d</fix>
</trkpt>
<trkpt lat="40.0713749" lon="-105.229789">
  <ele>1583.0</ele>
  <time>2026-09-02T20:50:22Z</time>
  <course>0.0</course>
  <speed>0.0</speed>
  <fix>3d</fix>
</trkpt>
<trkpt lat="40.0713749" lon="-105.229789">
  <ele>1583.0</ele>
  <time>2026-09-02T20:50:22Z</time>
  <course>350.37</course>
  <speed>0.0</speed>
  <fix>3d</fix>
</trkpt>
<trkpt lat="40.0713749" lon="-105.229789">
  <ele>1583.0</ele>
  <time>2026-09-02T20:50:22Z</time>
  <course>0.0</course>
  <speed>0.0</speed>
  <fix>3d</fix>
</trkpt>
<trkpt lat="40.0713749" lon="-105.229789">
  <ele>1583.0</ele>
  <time>2026-09-02T20:50:22Z</time>
  <course>338.37</course>
  <speed>0.0</speed>
  <fix>3d</fix>
</trkpt>
<trkpt lat="40.0713749" lon="-105.229789">
  <ele>1583.0</ele>
  <time>2026-09-02T20:50:22Z</time>
  <course>0.0</course>
  <speed>0.0</speed>
  <fix>3d</fix>
</trkpt>
<trkpt lat="40.0713749" lon="-105.229789">
  <ele>1583.0</ele>
  <time>2026-09-02T20:50:22Z</time>
  <course>326.38</course>
  <speed>0.0</speed>
  <fix>3d</fix>
</trkpt>
<trkpt lat="40.0713749" lon="-105.229789">
  <ele>1583.0</ele>
  <time>2026-09-02T20:50:22Z</time>
  <course>0.0</course>
  <speed>0.0</speed>
  <fix>3d</fix>
</trkpt>
<trkpt lat="40.0713749" lon="-105.229789">
  <ele>1583.0</ele>
  <time>2026-09-02T20:50:22Z</time>
  <course>314.38</course>
  <speed>0.0</speed>
  <fix>3d</fix>
</trkpt>
<trkpt lat="40.0713749" lon="-105.229789">
  <ele>1583.0</ele>
  <time>2026-09-02T20:50:22Z</time>
  <course>0.0</course>
  <speed>0.0</speed>
  <fix>3d</fix>
</trkpt>
<trkpt lat="40.0713749" lon="-105.229789">
  <ele>1583.0</ele>
  <time>2026-09-02T20:50:22Z</time>
  <course>302.39</course>
  <speed>0.0</speed>
  <fix>3d</fix>
</trkpt>
<trkpt lat="40.0713749" lon="-105.229789">
  <ele>1583.0</ele>
  <time>2026-09-02T20:50:22Z</time>
  <course>0.0</course>
  <speed>0.0</speed>
  <fix>3d</fix>
</trkpt>
<trkpt lat="40.0713749" lon="-105.229789">
  <ele>1583.0</ele>
  <time>2026-09-02T20:50:22Z</time>
  <course>290.39</course>
  <speed>0.0</speed>
  <fix>3d</fix>
</trkpt>
<trkpt lat="40.0713749" lon="-105.229789">
  <ele>1583.0</ele>
  <time>2026-09-02T20:50:22Z</time>
  <course>0.0</course>
  <speed>0.0</speed>
  <fix>3d</fix>
</trkpt>
<trkpt lat="40.0713749" lon="-105.229789">
  <ele>1583.0</ele>
  <time>2026-09-02T20:50:22Z</time>
  <course>278.4</course>
  <speed>0.0</speed>
  <fix>3d</fix>
</trkpt>
<trkpt lat="40.0713749" lon="-105.229789">
  <ele>1583.0</ele>
  <time>2026-09-02T20:50:22Z</time>
  <course>0.0</course>
  <speed>0.0</speed>
  <fix>3d</fix>
</trkpt>
<trkpt lat="40.0713749" lon="-105.229789">
  <ele>1583.0</ele>
  <time>2026-09-02T20:50:22Z</time>
  <course>268.7</course>
  <speed>0.0</speed>
  <fix>3d</fix>
</trkpt>
<trkpt lat="40.0713749" lon="-105.229789">
  <ele>1583.0</ele>
  <time>2026-09-02T20:50:22Z</time>
  <course>0.0</course>
  <speed>0.0</speed>
  <fix>3d</fix>
</trkpt>
<trkpt lat="40.0713749" lon="-105.229789">
  <ele>1583.0</ele>
  <time>2026-09-02T20:50:22Z</time>
  <course>256.7</course>
  <speed>0.0</speed>
  <fix>3d</fix>
</trkpt>
<trkpt lat="40.0713749" lon="-105.229789">
  <ele>1583.0</ele>
  <time>2026-09-02T20:50:22Z</time>
  <course>0.0</course>
  <speed>0.0</speed>
  <fix>3d</fix>
</trkpt>
<trkpt lat="40.0713749" lon="-105.229789">
  <ele>1583.0</ele>
  <time>2026-09-02T20:50:22Z</time>
  <course>244.71</course>
  <speed>0.0</speed>
  <fix>3d</fix>
</trkpt>
<trkpt lat="40.0713749" lon="-105.229789">
  <ele>1583.0</ele>
  <time>2026-09-02T20:50:22Z</time>
  <course>0.0</course>
  <speed>0.0</speed>
  <fix>3d</fix>
</trkpt>
<trkpt lat="40.0713749" lon="-105.229789">
  <ele>1583.0</ele>
  <time>2026-09-02T20:50:22Z</time>
  <course>232.71</course>
  <speed>0.0</speed>
  <fix>3d</fix>
</trkpt>
<trkpt lat="40.0713749" lon="-105.229789">
  <ele>1583.0</ele>
  <time>2026-09-02T20:50:22Z</time>
  <course>0.0</course>
  <speed>0.0</speed>
  <fix>3d</fix>
</trkpt>
<trkpt lat="40.0713749" lon="-105.229789">
  <ele>1583.0</ele>
  <time>2026-09-02T20:50:22Z</time>
  <course>220.72</course>
  <speed>0.0</speed>
  <fix>3d</fix>
</trkpt>
<trkpt lat="40.0713749" lon="-105.229789">
  <ele>1583.0</ele>
  <time>2026-09-02T20:50:23Z</time>
  <course>0.0</course>
  <speed>0.0</speed>
  <fix>3d</fix>
</trkpt>
<trkpt lat="40.0713749" lon="-105.229789">
  <ele>1583.0</ele>
  <time>2026-09-02T20:50:23Z</time>
  <course>208.72</course>
  <speed>0.0</speed>
  <fix>3d</fix>
</trkpt>
<trkpt lat="40.0713749" lon="-105.229789">
  <ele>1583.0</ele>
  <time>2026-09-02T20:50:23Z</time>
  <course>0.0</course>
  <speed>0.0</speed>
  <fix>3d</fix>
</trkpt>
<trkpt lat="40.0713749" lon="-105.229789">
  <ele>1583.0</ele>
  <time>2026-09-02T20:50:23Z</time>
  <course>196.73</course>
  <speed>0.0</speed>
  <fix>3d</fix>
</trkpt>
<trkpt lat="40.0713749" lon="-105.229789">
  <ele>1583.0</ele>
  <time>2026-09-02T20:50:23Z</time>
  <course>0.0</course>
  <speed>0.0</speed>
  <fix>3d</fix>
</trkpt>
<trkpt lat="40.0713749" lon="-105.229789">
  <ele>1583.0</ele>
  <time>2026-09-02T20:50:23Z</time>
  <course>184.73</course>
  <speed>0.0</speed>
  <fix>3d</fix>
</trkpt>
<trkpt lat="40.0713749" lon="-105.229789">
  <ele>1583.0</ele>
  <time>2026-09-02T20:50:23Z</time>
  <course>0.0</course>
  <speed>0.0</speed>
  <fix>3d</fix>
</trkpt>
<trkpt lat="40.0713749" lon="-105.229789">
  <ele>1583.0</ele>
  <time>2026-09-02T20:50:23Z</time>
  <course>172.72</course>
  <speed>0.0</speed>
  <fix>3d</fix>
</trkpt>
<trkpt lat="40.0713749" lon="-105.229789">
  <ele>1583.0</ele>
  <time>2026-09-02T20:50:23Z</time>
  <course>0.0</course>
  <speed>0.0</speed>
  <fix>3d</fix>
</trkpt>
<trkpt lat="40.0713749" lon="-105.229789">
  <ele>1583.0</ele>
  <time>2026-09-02T20:50:23Z</time>
  <course>160.73</course>
  <speed>0.0</speed>
  <fix>3d</fix>
</trkpt>
<trkpt lat="40.0713749" lon="-105.229789">
  <ele>1583.0</ele>
  <time>2026-09-02T20:50:23Z</time>
  <course>0.0</course>
  <speed>0.0</speed>
  <fix>3d</fix>
</trkpt>
<trkpt lat="40.0713749" lon="-105.229789">
  <ele>1583.0</ele>
  <time>2026-09-02T20:50:23Z</time>
  <course>146.33</course>
  <speed>0.0</speed>
  <fix>3d</fix>
</trkpt>
<trkpt lat="40.0713749" lon="-105.229789">
  <ele>1583.0</ele>
  <time>2026-09-02T20:50:23Z</time>
  <course>0.0</course>
  <speed>0.0</speed>
  <fix>3d</fix>
</trkpt>
<trkpt lat="40.0713749" lon="-105.229789">
  <ele>1583.0</ele>
  <time>2026-09-02T20:50:23Z</time>
  <course>134.34</course>
  <speed>0.0</speed>
  <fix>3d</fix>
</trkpt>
<trkpt lat="40.0713749" lon="-105.229789">
  <ele>1583.0</ele>
  <time>2026-09-02T20:50:23Z</time>
  <course>0.0</course>
  <speed>0.0</speed>
  <fix>3d</fix>
</trkpt>
<trkpt lat="40.0713749" lon="-105.229789">
  <ele>1583.0</ele>
  <time>2026-09-02T20:50:23Z</time>
  <course>122.34</course>
  <speed>0.0</speed>
  <fix>3d</fix>
</trkpt>
<trkpt lat="40.0713749" lon="-105.229789">
  <ele>1583.0</ele>
  <time>2026-09-02T20:50:23Z</time>
  <course>0.0</course>
  <speed>0.0</speed>
  <fix>3d</fix>
</trkpt>
<trkpt lat="40.0713749" lon="-105.229789">
  <ele>1583.0</ele>
  <time>2026-09-02T20:50:23Z</time>
  <course>110.35</course>
  <speed>0.0</speed>
  <fix>3d</fix>
</trkpt>
<trkpt lat="40.0713749" lon="-105.229789">
  <ele>1583.0</ele>
  <time>2026-09-02T20:50:23Z</time>
  <course>0.0</course>
  <speed>0.0</speed>
  <fix>3d</fix>
</trkpt>
<trkpt lat="40.0713749" lon="-105.229789">
  <ele>1583.0</ele>
  <time>2026-09-02T20:50:23Z</time>
  <course>98.35</course>
  <speed>0.0</speed>
  <fix>3d</fix>
</trkpt>
<trkpt lat="40.0713749" lon="-105.229789">
  <ele>1583.0</ele>
  <time>2026-09-02T20:50:23Z</time>
  <course>0.0</course>
  <speed>0.0</speed>
  <fix>3d</fix>
</trkpt>
<trkpt lat="40.0713749" lon="-105.229789">
  <ele>1583.0</ele>
  <time>2026-09-02T20:50:23Z</time>
  <course>86.36</course>
  <speed>0.0</speed>
  <fix>3d</fix>
</trkpt>
<trkpt lat="40.0713749" lon="-105.229789">
  <ele>1583.0</ele>
  <time>2026-09-02T20:50:23Z</time>
  <course>0.0</course>
  <speed>0.0</speed>
  <fix>3d</fix>
</trkpt>
<trkpt lat="40.0713749" lon="-105.229789">
  <ele>1583.0</ele>
  <time>2026-09-02T20:50:23Z</time>
  <course>74.36</course>
  <speed>0.0</speed>
  <fix>3d</fix>
</trkpt>
<trkpt lat="40.0713749" lon="-105.229789">
  <ele>1583.0</ele>
  <time>2026-09-02T20:50:23Z</time>
  <course>0.0</course>
  <speed>0.0</speed>
  <fix>3d</fix>
</trkpt>
<trkpt lat="40.0713749" lon="-105.229789">
  <ele>1583.0</ele>
  <time>2026-09-02T20:50:23Z</time>
  <course>62.37</course>
  <speed>0.0</speed>
  <fix>3d</fix>
</trkpt>
<trkpt lat="40.0713749" lon="-105.229789">
  <ele>1583.0</ele>
  <time>2026-09-02T20:50:23Z</time>
  <course>0.0</course>
  <speed>0.0</speed>
  <fix>3d</fix>
</trkpt>
<trkpt lat="40.0713749" lon="-105.229789">
  <ele>1583.0</ele>
  <time>2026-09-02T20:50:23Z</time>
  <course>50.37</course>
  <speed>0.0</speed>
  <fix>3d</fix>
</trkpt>
<trkpt lat="40.0713749" lon="-105.229789">
  <ele>1583.0</ele>
  <time>2026-09-02T20:50:23Z</time>
  <course>0.0</course>
  <speed>0.0</speed>
  <fix>3d</fix>
</trkpt>
<trkpt lat="40.0713749" lon="-105.229789">
  <ele>1583.0</ele>
  <time>2026-09-02T20:50:23Z</time>
  <course>38.38</course>
  <speed>0.0</speed>
  <fix>3d</fix>
</trkpt>
<trkpt lat="40.0713749" lon="-105.229789">
  <ele>1583.0</ele>
  <time>2026-09-02T20:50:23Z</time>
  <course>0.0</course>
  <speed>0.0</speed>
  <fix>3d</fix>
</trkpt>
<trkpt lat="40.0713749" lon="-105.229789">
  <ele>1583.0</ele>
  <time>2026-09-02T20:50:23Z</time>
  <course>26.38</course>
  <speed>0.0</speed>
  <fix>3d</fix>
</trkpt>
<trkpt lat="40.0713749" lon="-105.229789">
  <ele>1583.0</ele>
  <time>2026-09-02T20:50:23Z</time>
  <course>0.0</course>
  <speed>0.0</speed>
  <fix>3d</fix>
</trkpt>
<trkpt lat="40.0713749" lon="-105.229789">
  <ele>1583.0</ele>
  <time>2026-09-02T20:50:23Z</time>
  <course>16.69</course>
  <speed>0.0</speed>
  <fix>3d</fix>
</trkpt>
<trkpt lat="40.0713749" lon="-105.229789">
  <ele>1583.0</ele>
  <time>2026-09-02T20:50:23Z</time>
  <course>0.0</course>
  <speed>0.0</speed>
  <fix>3d</fix>
</trkpt>
<trkpt lat="40.0713749" lon="-105.229789">
  <ele>1583.0</ele>
  <time>2026-09-02T20:50:23Z</time>
  <course>4.69</course>
  <speed>0.0</speed>
  <fix>3d</fix>
</trkpt>
<trkpt lat="40.0713749" lon="-105.229789">
  <ele>1583.0</ele>
  <time>2026-09-02T20:50:23Z</time>
  <course>0.0</course>
  <speed>0.0</speed>
  <fix>3d</fix>
</trkpt>
<trkpt lat="40.0713749" lon="-105.229789">
  <ele>1583.0</ele>
  <time>2026-09-02T20:50:23Z</time>
  <course>352.71</course>
  <speed>0.0</speed>
  <fix>3d</fix>
</trkpt>
<trkpt lat="40.0713749" lon="-105.229789">
  <ele>1583.0</ele>
  <time>2026-09-02T20:50:23Z</time>
  <course>0.0</course>
  <speed>0.0</speed>
  <fix>3d</fix>
</trkpt>
<trkpt lat="40.0713749" lon="-105.229789">
  <ele>1583.0</ele>
  <time>2026-09-02T20:50:23Z</time>
  <course>340.71</course>
  <speed>0.0</speed>
  <fix>3d</fix>
</trkpt>
<trkpt lat="40.0713749" lon="-105.229789">
  <ele>1583.0</ele>
  <time>2026-09-02T20:50:23Z</time>
  <course>0.0</course>
  <speed>0.0</speed>
  <fix>3d</fix>
</trkpt>
<trkpt lat="40.0713749" lon="-105.229789">
  <ele>1583.0</ele>
  <time>2026-09-02T20:50:23Z</time>
  <course>328.71</course>
  <speed>0.0</speed>
  <fix>3d</fix>
</trkpt>
<trkpt lat="40.0713749" lon="-105.229789">
  <ele>1583.0</ele>
  <time>2026-09-02T20:50:23Z</time>
  <course>0.0</course>
  <speed>0.0</speed>
  <fix>3d</fix>
</trkpt>
<trkpt lat="40.0713749" lon="-105.229789">
  <ele>1583.0</ele>
  <time>2026-09-02T20:50:23Z</time>
  <course>316.72</course>
  <speed>0.0</speed>
  <fix>3d</fix>
</trkpt>
<trkpt lat="40.0713749" lon="-105.229789">
  <ele>1583.0</ele>
  <time>2026-09-02T20:50:23Z</time>
  <course>0.0</course>
  <speed>0.0</speed>
  <fix>3d</fix>
</trkpt>
<trkpt lat="40.0713749" lon="-105.229789">
  <ele>1583.0</ele>
  <time>2026-09-02T20:50:23Z</time>
  <course>304.72</course>
  <speed>0.0</speed>
  <fix>3d</fix>
</trkpt>
<trkpt lat="40.0713749" lon="-105.229789">
  <ele>1583.0</ele>
  <time>2026-09-02T20:50:23Z</time>
  <course>0.0</course>
  <speed>0.0</speed>
  <fix>3d</fix>
</trkpt>
<trkpt lat="40.0713749" lon="-105.229789">
  <ele>1583.0</ele>
  <time>2026-09-02T20:50:23Z</time>
  <course>292.73</course>
  <speed>0.0</speed>
  <fix>3d</fix>
</trkpt>
<trkpt lat="40.0713749" lon="-105.229789">
  <ele>1583.0</ele>
  <time>2026-09-02T20:50:23Z</time>
  <course>0.0</course>
  <speed>0.0</speed>
  <fix>3d</fix>
</trkpt>
<trkpt lat="40.0713749" lon="-105.229789">
  <ele>1583.0</ele>
  <time>2026-09-02T20:50:23Z</time>
  <course>280.73</course>
  <speed>0.0</speed>
  <fix>3d</fix>
</trkpt>
<trkpt lat="40.0713749" lon="-105.229789">
  <ele>1583.0</ele>
  <time>2026-09-02T20:50:23Z</time>
  <course>0.0</course>
  <speed>0.0</speed>
  <fix>3d</fix>
</trkpt>
<trkpt lat="40.0713749" lon="-105.229789">
  <ele>1583.0</ele>
  <time>2026-09-02T20:50:23Z</time>
  <course>268.74</course>
  <speed>0.0</speed>
  <fix>3d</fix>
</trkpt>
<trkpt lat="40.0713749" lon="-105.229789">
  <ele>1583.0</ele>
  <time>2026-09-02T20:50:23Z</time>
  <course>0.0</course>
  <speed>0.0</speed>
  <fix>3d</fix>
</trkpt>
<trkpt lat="40.0713749" lon="-105.229789">
  <ele>1583.0</ele>
  <time>2026-09-02T20:50:23Z</time>
  <course>254.34</course>
  <speed>0.0</speed>
  <fix>3d</fix>
</trkpt>
<trkpt lat="40.0713749" lon="-105.229789">
  <ele>1583.0</ele>
  <time>2026-09-02T20:50:23Z</time>
  <course>0.0</course>
  <speed>0.0</speed>
  <fix>3d</fix>
</trkpt>
<trkpt lat="40.0713749" lon="-105.229789">
  <ele>1583.0</ele>
  <time>2026-09-02T20:50:23Z</time>
  <course>242.35</course>
  <speed>0.0</speed>
  <fix>3d</fix>
</trkpt>
<trkpt lat="40.0713749" lon="-105.229789">
  <ele>1583.0</ele>
  <time>2026-09-02T20:50:23Z</time>
  <course>0.0</course>
  <speed>0.0</speed>
  <fix>3d</fix>
</trkpt>
<trkpt lat="40.0713749" lon="-105.229789">
  <ele>1583.0</ele>
  <time>2026-09-02T20:50:23Z</time>
  <course>230.35</course>
  <speed>0.0</speed>
  <fix>3d</fix>
</trkpt>
<trkpt lat="40.0713749" lon="-105.229789">
  <ele>1583.0</ele>
  <time>2026-09-02T20:50:23Z</time>
  <course>0.0</course>
  <speed>0.0</speed>
  <fix>3d</fix>
</trkpt>
<trkpt lat="40.0713749" lon="-105.229789">
  <ele>1583.0</ele>
  <time>2026-09-02T20:50:23Z</time>
  <course>218.36</course>
  <speed>0.0</speed>
  <fix>3d</fix>
</trkpt>
<trkpt lat="40.0713749" lon="-105.229789">
  <ele>1583.0</ele>
  <time>2026-09-02T20:50:23Z</time>
  <course>0.0</course>
  <speed>0.0</speed>
  <fix>3d</fix>
</trkpt>
<trkpt lat="40.0713749" lon="-105.229789">
  <ele>1583.0</ele>
  <time>2026-09-02T20:50:23Z</time>
  <course>206.36</course>
  <speed>0.0</speed>
  <fix>3d</fix>
</trkpt>
<trkpt lat="40.0713749" lon="-105.229789">
  <ele>1583.0</ele>
  <time>2026-09-02T20:50:23Z</time>
  <course>0.0</course>
  <speed>0.0</speed>
  <fix>3d</fix>
</trkpt>
<trkpt lat="40.0713749" lon="-105.229789">
  <ele>1583.0</ele>
  <time>2026-09-02T20:50:23Z</time>
  <course>194.37</course>
  <speed>0.0</speed>
  <fix>3d</fix>
</trkpt>
<trkpt lat="40.0713749" lon="-105.229789">
  <ele>1583.0</ele>
  <time>2026-09-02T20:50:23Z</time>
  <course>0.0</course>
  <speed>0.0</speed>
  <fix>3d</fix>
</trkpt>
<trkpt lat="40.0713749" lon="-105.229789">
  <ele>1583.0</ele>
  <time>2026-09-02T20:50:23Z</time>
  <course>182.37</course>
  <speed>0.0</speed>
  <fix>3d</fix>
</trkpt>
<trkpt lat="40.0713749" lon="-105.229789">
  <ele>1583.0</ele>
  <time>2026-09-02T20:50:23Z</time>
  <course>0.0</course>
  <speed>0.0</speed>
  <fix>3d</fix>
</trkpt>
<trkpt lat="40.0713749" lon="-105.229789">
  <ele>1583.0</ele>
  <time>2026-09-02T20:50:23Z</time>
  <course>170.36</course>
  <speed>0.0</speed>
  <fix>3d</fix>
</trkpt>
<trkpt lat="40.0713749" lon="-105.229789">
  <ele>1583.0</ele>
  <time>2026-09-02T20:50:23Z</time>
  <course>0.0</course>
  <speed>0.0</speed>
  <fix>3d</fix>
</trkpt>
<trkpt lat="40.0713749" lon="-105.229789">
  <ele>1583.0</ele>
  <time>2026-09-02T20:50:23Z</time>
  <course>158.37</course>
  <speed>0.0</speed>
  <fix>3d</fix>
</trkpt>
<trkpt lat="40.0713749" lon="-105.229789">
  <ele>1583.0</ele>
  <time>2026-09-02T20:50:23Z</time>
  <course>0.0</course>
  <speed>0.0</speed>
  <fix>3d</fix>
</trkpt>
<trkpt lat="40.0713749" lon="-105.229789">
  <ele>1583.0</ele>
  <time>2026-09-02T20:50:23Z</time>
  <course>146.37</course>
  <speed>0.0</speed>
  <fix>3d</fix>
</trkpt>
<trkpt lat="40.0713749" lon="-105.229789">
  <ele>1583.0</ele>
  <time>2026-09-02T20:50:23Z</time>
  <course>0.0</course>
  <speed>0.0</speed>
  <fix>3d</fix>
</trkpt>
<trkpt lat="40.0713749" lon="-105.229789">
  <ele>1583.0</ele>
  <time>2026-09-02T20:50:23Z</time>
  <course>134.38</course>
  <speed>0.0</speed>
  <fix>3d</fix>
</trkpt>
<trkpt lat="40.0713749" lon="-105.229789">
  <ele>1583.0</ele>
  <time>2026-09-02T20:50:23Z</time>
  <course>0.0</course>
  <speed>0.0</speed>
  <fix>3d</fix>
</trkpt>
<trkpt lat="40.0713749" lon="-105.229789">
  <ele>1583.0</ele>
  <time>2026-09-02T20:50:23Z</time>
  <course>124.68</course>
  <speed>0.0</speed>
  <fix>3d</fix>
</trkpt>
<trkpt lat="40.0713749" lon="-105.229789">
  <ele>1583.0</ele>
  <time>2026-09-02T20:50:23Z</time>
  <course>0.0</course>
  <speed>0.0</speed>
  <fix>3d</fix>
</trkpt>
<trkpt lat="40.0713749" lon="-105.229789">
  <ele>1583.0</ele>
  <time>2026-09-02T20:50:23Z</time>
  <course>112.69</course>
  <speed>0.0</speed>
  <fix>3d</fix>
</trkpt>
<trkpt lat="40.0713749" lon="-105.229789">
  <ele>1583.0</ele>
  <time>2026-09-02T20:50:23Z</time>
  <course>0.0</course>
  <speed>0.0</speed>
  <fix>3d</fix>
</trkpt>
<trkpt lat="40.0713749" lon="-105.229789">
  <ele>1583.0</ele>
  <time>2026-09-02T20:50:23Z</time>
  <course>100.69</course>
  <speed>0.0</speed>
  <fix>3d</fix>
</trkpt>
<trkpt lat="40.0713749" lon="-105.229789">
  <ele>1583.0</ele>
  <time>2026-09-02T20:50:23Z</time>
  <course>0.0</course>
  <speed>0.0</speed>
  <fix>3d</fix>
</trkpt>
<trkpt lat="40.0713749" lon="-105.229789">
  <ele>1583.0</ele>
  <time>2026-09-02T20:50:23Z</time>
  <course>88.7</course>
  <speed>0.0</speed>
  <fix>3d</fix>
</trkpt>
<trkpt lat="40.0713749" lon="-105.229789">
  <ele>1583.0</ele>
  <time>2026-09-02T20:50:23Z</time>
  <course>0.0</course>
  <speed>0.0</speed>
  <fix>3d</fix>
</trkpt>
<trkpt lat="40.0713749" lon="-105.229789">
  <ele>1583.0</ele>
  <time>2026-09-02T20:50:23Z</time>
  <course>76.7</course>
  <speed>0.0</speed>
  <fix>3d</fix>
</trkpt>
<trkpt lat="40.0713749" lon="-105.229789">
  <ele>1583.0</ele>
  <time>2026-09-02T20:50:23Z</time>
  <course>0.0</course>
  <speed>0.0</speed>
  <fix>3d</fix>
</trkpt>
<trkpt lat="40.0713749" lon="-105.229789">
  <ele>1583.0</ele>
  <time>2026-09-02T20:50:23Z</time>
  <course>64.71</course>
  <speed>0.0</speed>
  <fix>3d</fix>
</trkpt>
<trkpt lat="40.0713749" lon="-105.229789">
  <ele>1583.0</ele>
  <time>2026-09-02T20:50:23Z</time>
  <course>0.0</course>
  <speed>0.0</speed>
  <fix>3d</fix>
</trkpt>
<trkpt lat="40.0713749" lon="-105.229789">
  <ele>1583.0</ele>
  <time>2026-09-02T20:50:23Z</time>
  <course>52.71</course>
  <speed>0.0</speed>
  <fix>3d</fix>
</trkpt>
<trkpt lat="40.0713749" lon="-105.229789">
  <ele>1583.0</ele>
  <time>2026-09-02T20:50:23Z</time>
  <course>0.0</course>
  <speed>0.0</speed>
  <fix>3d</fix>
</trkpt>
<trkpt lat="40.0713749" lon="-105.229789">
  <ele>1583.0</ele>
  <time>2026-09-02T20:50:23Z</time>
  <course>40.72</course>
  <speed>0.0</speed>
  <fix>3d</fix>
</trkpt>
<trkpt lat="40.0713749" lon="-105.229789">
  <ele>1583.0</ele>
  <time>2026-09-02T20:50:23Z</time>
  <course>0.0</course>
  <speed>0.0</speed>
  <fix>3d</fix>
</trkpt>
<trkpt lat="40.0713749" lon="-105.229789">
  <ele>1583.0</ele>
  <time>2026-09-02T20:50:23Z</time>
  <course>28.72</course>
  <speed>0.0</speed>
  <fix>3d</fix>
</trkpt>
<trkpt lat="40.0713749" lon="-105.229789">
  <ele>1583.0</ele>
  <time>2026-09-02T20:50:23Z</time>
  <course>0.0</course>
  <speed>0.0</speed>
  <fix>3d</fix>
</trkpt>
<trkpt lat="40.0713749" lon="-105.229789">
  <ele>1583.0</ele>
  <time>2026-09-02T20:50:23Z</time>
  <course>16.73</course>
  <speed>0.0</speed>
  <fix>3d</fix>
</trkpt>
<trkpt lat="40.0713749" lon="-105.229789">
  <ele>1583.0</ele>
  <time>2026-09-02T20:50:23Z</time>
  <course>0.0</course>
  <speed>0.0</speed>
  <fix>3d</fix>
</trkpt>
<trkpt lat="40.0713749" lon="-105.229789">
  <ele>1583.0</ele>
  <time>2026-09-02T20:50:23Z</time>
  <course>2.33</course>
  <speed>0.0</speed>
  <fix>3d</fix>
</trkpt>
<trkpt lat="40.0713749" lon="-105.229789">
  <ele>1583.0</ele>
  <time>2026-09-02T20:50:23Z</time>
  <course>0.0</course>
  <speed>0.0</speed>
  <fix>3d</fix>
</trkpt>
<trkpt lat="40.0713749" lon="-105.229789">
  <ele>1583.0</ele>
  <time>2026-09-02T20:50:23Z</time>
  <course>350.35</course>
  <speed>0.0</speed>
  <fix>3d</fix>
</trkpt>
<trkpt lat="40.0713749" lon="-105.229789">
  <ele>1583.0</ele>
  <time>2026-09-02T20:50:23Z</time>
  <course>0.0</course>
  <speed>0.0</speed>
  <fix>3d</fix>
</trkpt>
<trkpt lat="40.0713749" lon="-105.229789">
  <ele>1583.0</ele>
  <time>2026-09-02T20:50:23Z</time>
  <course>338.35</course>
  <speed>0.0</speed>
  <fix>3d</fix>
</trkpt>
<trkpt lat="40.0713749" lon="-105.229789">
  <ele>1583.0</ele>
  <time>2026-09-02T20:50:23Z</time>
  <course>0.0</course>
  <speed>0.0</speed>
  <fix>3d</fix>
</trkpt>
<trkpt lat="40.0713749" lon="-105.229789">
  <ele>1583.0</ele>
  <time>2026-09-02T20:50:23Z</time>
  <course>326.36</course>
  <speed>0.0</speed>
  <fix>3d</fix>
</trkpt>
<trkpt lat="40.0713749" lon="-105.229789">
  <ele>1583.0</ele>
  <time>2026-09-02T20:50:23Z</time>
  <course>0.0</course>
  <speed>0.0</speed>
  <fix>3d</fix>
</trkpt>
<trkpt lat="40.0713749" lon="-105.229789">
  <ele>1583.0</ele>
  <time>2026-09-02T20:50:23Z</time>
  <course>314.36</course>
  <speed>0.0</speed>
  <fix>3d</fix>
</trkpt>
<trkpt lat="40.0713749" lon="-105.229789">
  <ele>1583.0</ele>
  <time>2026-09-02T20:50:23Z</time>
  <course>0.0</course>
  <speed>0.0</speed>
  <fix>3d</fix>
</trkpt>
<trkpt lat="40.0713749" lon="-105.229789">
  <ele>1583.0</ele>
  <time>2026-09-02T20:50:23Z</time>
  <course>302.36</course>
  <speed>0.0</speed>
  <fix>3d</fix>
</trkpt>
<trkpt lat="40.0713749" lon="-105.229789">
  <ele>1583.0</ele>
  <time>2026-09-02T20:50:23Z</time>
  <course>0.0</course>
  <speed>0.0</speed>
  <fix>3d</fix>
</trkpt>
<trkpt lat="40.0713749" lon="-105.229789">
  <ele>1583.0</ele>
  <time>2026-09-02T20:50:23Z</time>
  <course>290.37</course>
  <speed>0.0</speed>
  <fix>3d</fix>
</trkpt>
<trkpt lat="40.0713749" lon="-105.229789">
  <ele>1583.0</ele>
  <time>2026-09-02T20:50:23Z</time>
  <course>0.0</course>
  <speed>0.0</speed>
  <fix>3d</fix>
</trkpt>
<trkpt lat="40.0713749" lon="-105.229789">
  <ele>1583.0</ele>
  <time>2026-09-02T20:50:23Z</time>
  <course>278.37</course>
  <speed>0.0</speed>
  <fix>3d</fix>
</trkpt>
<trkpt lat="40.0713749" lon="-105.229789">
  <ele>1583.0</ele>
  <time>2026-09-02T20:50:23Z</time>
  <course>0.0</course>
  <speed>0.0</speed>
  <fix>3d</fix>
</trkpt>
<trkpt lat="40.0713749" lon="-105.229789">
  <ele>1583.0</ele>
  <time>2026-09-02T20:50:23Z</time>
  <course>266.38</course>
  <speed>0.0</speed>
  <fix>3d</fix>
</trkpt>
<trkpt lat="40.0713749" lon="-105.229789">
  <ele>1583.0</ele>
  <time>2026-09-02T20:50:23Z</time>
  <course>0.0</course>
  <speed>0.0</speed>
  <fix>3d</fix>
</trkpt>
<trkpt lat="40.0713749" lon="-105.229789">
  <ele>1583.0</ele>
  <time>2026-09-02T20:50:23Z</time>
  <course>254.38</course>
  <speed>0.0</speed>
  <fix>3d</fix>
</trkpt>
<trkpt lat="40.0713749" lon="-105.229789">
  <ele>1583.0</ele>
  <time>2026-09-02T20:50:23Z</time>
  <course>0.0</course>
  <speed>0.0</speed>
  <fix>3d</fix>
</trkpt>
<trkpt lat="40.0713749" lon="-105.229789">
  <ele>1583.0</ele>
  <time>2026-09-02T20:50:23Z</time>
  <course>242.39</course>
  <speed>0.0</speed>
  <fix>3d</fix>
</trkpt>
<trkpt lat="40.0713749" lon="-105.229789">
  <ele>1583.0</ele>
  <time>2026-09-02T20:50:23Z</time>
  <course>0.0</course>
  <speed>0.0</speed>
  <fix>3d</fix>
</trkpt>
<trkpt lat="40.0713749" lon="-105.229789">
  <ele>1583.0</ele>
  <time>2026-09-02T20:50:23Z</time>
  <course>232.69</course>
  <speed>0.0</speed>
  <fix>3d</fix>
</trkpt>
<trkpt lat="40.0713749" lon="-105.229789">
  <ele>1583.0</ele>
  <time>2026-09-02T20:50:23Z</time>
  <course>0.0</course>
  <speed>0.0</speed>
  <fix>3d</fix>
</trkpt>
<trkpt lat="40.0713749" lon="-105.229789">
  <ele>1583.0</ele>
  <time>2026-09-02T20:50:23Z</time>
  <course>220.7</course>
  <speed>0.0</speed>
  <fix>3d</fix>
</trkpt>
<trkpt lat="40.0713749" lon="-105.229789">
  <ele>1583.0</ele>
  <time>2026-09-02T20:50:23Z</time>
  <course>0.0</course>
  <speed>0.0</speed>
  <fix>3d</fix>
</trkpt>
<trkpt lat="40.0713749" lon="-105.229789">
  <ele>1583.0</ele>
  <time>2026-09-02T20:50:23Z</time>
  <course>208.7</course>
  <speed>0.0</speed>
  <fix>3d</fix>
</trkpt>
<trkpt lat="40.0713749" lon="-105.229789">
  <ele>1583.0</ele>
  <time>2026-09-02T20:50:23Z</time>
  <course>0.0</course>
  <speed>0.0</speed>
  <fix>3d</fix>
</trkpt>
<trkpt lat="40.0713749" lon="-105.229789">
  <ele>1583.0</ele>
  <time>2026-09-02T20:50:23Z</time>
  <course>196.7</course>
  <speed>0.0</speed>
  <fix>3d</fix>
</trkpt>
<trkpt lat="40.0713749" lon="-105.229789">
  <ele>1583.0</ele>
  <time>2026-09-02T20:50:23Z</time>
  <course>0.0</course>
  <speed>0.0</speed>
  <fix>3d</fix>
</trkpt>
<trkpt lat="40.0713749" lon="-105.229789">
  <ele>1583.0</ele>
  <time>2026-09-02T20:50:23Z</time>
  <course>184.71</course>
  <speed>0.0</speed>
  <fix>3d</fix>
</trkpt>
<trkpt lat="40.0713749" lon="-105.229789">
  <ele>1583.0</ele>
  <time>2026-09-02T20:50:23Z</time>
  <course>0.0</course>
  <speed>0.0</speed>
  <fix>3d</fix>
</trkpt>
<trkpt lat="40.0713749" lon="-105.229789">
  <ele>1583.0</ele>
  <time>2026-09-02T20:50:23Z</time>
  <course>172.7</course>
  <speed>0.0</speed>
  <fix>3d</fix>
</trkpt>
<trkpt lat="40.0713749" lon="-105.229789">
  <ele>1583.0</ele>
  <time>2026-09-02T20:50:23Z</time>
  <course>0.0</course>
  <speed>0.0</speed>
  <fix>3d</fix>
</trkpt>
<trkpt lat="40.0713749" lon="-105.229789">
  <ele>1583.0</ele>
  <time>2026-09-02T20:50:23Z</time>
  <course>160.71</course>
  <speed>0.0</speed>
  <fix>3d</fix>
</trkpt>
<trkpt lat="40.0713749" lon="-105.229789">
  <ele>1583.0</ele>
  <time>2026-09-02T20:50:23Z</time>
  <course>0.0</course>
  <speed>0.0</speed>
  <fix>3d</fix>
</trkpt>
<trkpt lat="40.0713749" lon="-105.229789">
  <ele>1583.0</ele>
  <time>2026-09-02T20:50:23Z</time>
  <course>148.71</course>
  <speed>0.0</speed>
  <fix>3d</fix>
</trkpt>
<trkpt lat="40.0713749" lon="-105.229789">
  <ele>1583.0</ele>
  <time>2026-09-02T20:50:23Z</time>
  <course>0.0</course>
  <speed>0.0</speed>
  <fix>3d</fix>
</trkpt>
<trkpt lat="40.0713749" lon="-105.229789">
  <ele>1583.0</ele>
  <time>2026-09-02T20:50:23Z</time>
  <course>136.72</course>
  <speed>0.0</speed>
  <fix>3d</fix>
</trkpt>
<trkpt lat="40.0713749" lon="-105.229789">
  <ele>1583.0</ele>
  <time>2026-09-02T20:50:23Z</time>
  <course>0.0</course>
  <speed>0.0</speed>
  <fix>3d</fix>
</trkpt>
<trkpt lat="40.0713749" lon="-105.229789">
  <ele>1583.0</ele>
  <time>2026-09-02T20:50:23Z</time>
  <course>122.32</course>
  <speed>0.0</speed>
  <fix>3d</fix>
</trkpt>
<trkpt lat="40.0713749" lon="-105.229789">
  <ele>1583.0</ele>
  <time>2026-09-02T20:50:23Z</time>
  <course>0.0</course>
  <speed>0.0</speed>
  <fix>3d</fix>
</trkpt>
<trkpt lat="40.0713749" lon="-105.229789">
  <ele>1583.0</ele>
  <time>2026-09-02T20:50:23Z</time>
  <course>110.33</course>
  <speed>0.0</speed>
  <fix>3d</fix>
</trkpt>
<trkpt lat="40.0713749" lon="-105.229789">
  <ele>1583.0</ele>
  <time>2026-09-02T20:50:23Z</time>
  <course>0.0</course>
  <speed>0.0</speed>
  <fix>3d</fix>
</trkpt>
<trkpt lat="40.0713749" lon="-105.229789">
  <ele>1583.0</ele>
  <time>2026-09-02T20:50:23Z</time>
  <course>98.33</course>
  <speed>0.0</speed>
  <fix>3d</fix>
</trkpt>
<trkpt lat="40.0713749" lon="-105.229789">
  <ele>1583.0</ele>
  <time>2026-09-02T20:50:23Z</time>
  <course>0.0</course>
  <speed>0.0</speed>
  <fix>3d</fix>
</trkpt>
<trkpt lat="40.0713749" lon="-105.229789">
  <ele>1583.0</ele>
  <time>2026-09-02T20:50:23Z</time>
  <course>86.34</course>
  <speed>0.0</speed>
  <fix>3d</fix>
</trkpt>
<trkpt lat="40.0713749" lon="-105.229789">
  <ele>1583.0</ele>
  <time>2026-09-02T20:50:23Z</time>
  <course>0.0</course>
  <speed>0.0</speed>
  <fix>3d</fix>
</trkpt>
<trkpt lat="40.0713749" lon="-105.229789">
  <ele>1583.0</ele>
  <time>2026-09-02T20:50:23Z</time>
  <course>74.34</course>
  <speed>0.0</speed>
  <fix>3d</fix>
</trkpt>
<trkpt lat="40.0713749" lon="-105.229789">
  <ele>1583.0</ele>
  <time>2026-09-02T20:50:23Z</time>
  <course>0.0</course>
  <speed>0.0</speed>
  <fix>3d</fix>
</trkpt>
<trkpt lat="40.0713749" lon="-105.229789">
  <ele>1583.0</ele>
  <time>2026-09-02T20:50:23Z</time>
  <course>62.35</course>
  <speed>0.0</speed>
  <fix>3d</fix>
</trkpt>
<trkpt lat="40.0713749" lon="-105.229789">
  <ele>1583.0</ele>
  <time>2026-09-02T20:50:23Z</time>
  <course>0.0</course>
  <speed>0.0</speed>
  <fix>3d</fix>
</trkpt>
<trkpt lat="40.0713749" lon="-105.229789">
  <ele>1583.0</ele>
  <time>2026-09-02T20:50:23Z</time>
  <course>50.35</course>
  <speed>0.0</speed>
  <fix>3d</fix>
</trkpt>
<trkpt lat="40.0713749" lon="-105.229789">
  <ele>1583.0</ele>
  <time>2026-09-02T20:50:23Z</time>
  <course>0.0</course>
  <speed>0.0</speed>
  <fix>3d</fix>
</trkpt>
<trkpt lat="40.0713749" lon="-105.229789">
  <ele>1583.0</ele>
  <time>2026-09-02T20:50:23Z</time>
  <course>38.36</course>
  <speed>0.0</speed>
  <fix>3d</fix>
</trkpt>
<trkpt lat="40.0713749" lon="-105.229789">
  <ele>1583.0</ele>
  <time>2026-09-02T20:50:23Z</time>
  <course>0.0</course>
  <speed>0.0</speed>
  <fix>3d</fix>
</trkpt>
<trkpt lat="40.0713749" lon="-105.229789">
  <ele>1583.0</ele>
  <time>2026-09-02T20:50:23Z</time>
  <course>26.36</course>
  <speed>0.0</speed>
  <fix>3d</fix>
</trkpt>
<trkpt lat="40.0713749" lon="-105.229789">
  <ele>1583.0</ele>
  <time>2026-09-02T20:50:23Z</time>
  <course>0.0</course>
  <speed>0.0</speed>
  <fix>3d</fix>
</trkpt>
<trkpt lat="40.0713749" lon="-105.229789">
  <ele>1583.0</ele>
  <time>2026-09-02T20:50:23Z</time>
  <course>23.96</course>
  <speed>0.0</speed>
  <fix>3d</fix>
</trkpt>
<trkpt lat="40.0713749" lon="-105.229789">
  <ele>1583.0</ele>
  <time>2026-09-02T20:50:23Z</time>
  <course>0.0</course>
  <speed>0.0</speed>
  <fix>3d</fix>
</trkpt>
<trkpt lat="40.0713749" lon="-105.229789">
  <ele>1583.0</ele>
  <time>2026-09-02T20:50:23Z</time>
  <course>23.96</course>
  <speed>0.0</speed>
  <fix>3d</fix>
</trkpt>
<trkpt lat="40.0713749" lon="-105.229789">
  <ele>1583.0</ele>
  <time>2026-09-02T20:50:23Z</time>
  <course>0.0</course>
  <speed>0.0</speed>
  <fix>3d</fix>
</trkpt>
<trkpt lat="40.0713749" lon="-105.229789">
  <ele>1583.0</ele>
  <time>2026-09-02T20:50:23Z</time>
  <course>23.96</course>
  <speed>0.0</speed>
  <fix>3d</fix>
</trkpt>
<trkpt lat="40.0713749" lon="-105.229789">
  <ele>1583.0</ele>
  <time>2026-09-02T20:50:23Z</time>
  <course>0.0</course>
  <speed>0.0</speed>
  <fix>3d</fix>
</trkpt>
<trkpt lat="40.0713749" lon="-105.229789">
  <ele>1583.0</ele>
  <time>2026-09-02T20:50:23Z</time>
  <course>23.96</course>
  <speed>0.0</speed>
  <fix>3d</fix>
</trkpt>
<trkpt lat="40.0713749" lon="-105.229789">
  <ele>1583.0</ele>
  <time>2026-09-02T20:50:23Z</time>
  <course>0.0</course>
  <speed>0.0</speed>
  <fix>3d</fix>
</trkpt>
<trkpt lat="40.0713749" lon="-105.229789">
  <ele>1583.0</ele>
  <time>2026-09-02T20:50:23Z</time>
  <course>23.96</course>
  <speed>0.0</speed>
  <fix>3d</fix>
</trkpt>
<trkpt lat="40.0713749" lon="-105.229789">
  <ele>1583.0</ele>
  <time>2026-09-02T20:50:23Z</time>
  <course>0.0</course>
  <speed>0.0</speed>
  <fix>3d</fix>
</trkpt>
<trkpt lat="40.0713749" lon="-105.229789">
  <ele>1583.0</ele>
  <time>2026-09-02T20:50:23Z</time>
  <course>23.96</course>
  <speed>0.0</speed>
  <fix>3d</fix>
</trkpt>
<trkpt lat="40.0713749" lon="-105.229789">
  <ele>1583.0</ele>
  <time>2026-09-02T20:50:23Z</time>
  <course>0.0</course>
  <speed>0.0</speed>
  <fix>3d</fix>
</trkpt>
<trkpt lat="40.0713749" lon="-105.229789">
  <ele>1583.0</ele>
  <time>2026-09-02T20:50:23Z</time>
  <course>23.96</course>
  <speed>0.0</speed>
  <fix>3d</fix>
</trkpt>
<trkpt lat="40.0713749" lon="-105.229789">
  <ele>1583.0</ele>
  <time>2026-09-02T20:50:23Z</time>
  <course>0.0</course>
  <speed>0.0</speed>
  <fix>3d</fix>
</trkpt>
<trkpt lat="40.0713749" lon="-105.229789">
  <ele>1583.0</ele>
  <time>2026-09-02T20:50:23Z</time>
  <course>22.01</course>
  <speed>0.0</speed>
  <fix>3d</fix>
</trkpt>
<trkpt lat="40.0713749" lon="-105.229789">
  <ele>1583.0</ele>
  <time>2026-09-02T20:50:23Z</time>
  <course>0.0</course>
  <speed>0.0</speed>
  <fix>3d</fix>
</trkpt>
<trkpt lat="40.0713749" lon="-105.229789">
  <ele>1583.0</ele>
  <time>2026-09-02T20:50:23Z</time>
  <course>19.09</course>
  <speed>0.0</speed>
  <fix>3d</fix>
</trkpt>
<trkpt lat="40.0713749" lon="-105.229789">
  <ele>1583.0</ele>
  <time>2026-09-02T20:50:23Z</time>
  <course>0.0</course>
  <speed>0.0</speed>
  <fix>3d</fix>
</trkpt>
<trkpt lat="40.0713749" lon="-105.229789">
  <ele>1583.0</ele>
  <time>2026-09-02T20:50:23Z</time>
  <course>16.54</course>
  <speed>0.0</speed>
  <fix>3d</fix>
</trkpt>
<trkpt lat="40.0713749" lon="-105.229789">
  <ele>1583.0</ele>
  <time>2026-09-02T20:50:23Z</time>
  <course>0.0</course>
  <speed>0.0</speed>
  <fix>3d</fix>
</trkpt>
<trkpt lat="40.0713749" lon="-105.229789">
  <ele>1583.0</ele>
  <time>2026-09-02T20:50:23Z</time>
  <course>14.33</course>
  <speed>0.0</speed>
  <fix>3d</fix>
</trkpt>
<trkpt lat="40.0713749" lon="-105.229789">
  <ele>1583.0</ele>
  <time>2026-09-02T20:50:23Z</time>
  <course>0.0</course>
  <speed>0.0</speed>
  <fix>3d</fix>
</trkpt>
<trkpt lat="40.0713749" lon="-105.229789">
  <ele>1583.0</ele>
  <time>2026-09-02T20:50:23Z</time>
  <course>12.41</course>
  <speed>0.0</speed>
  <fix>3d</fix>
</trkpt>
<trkpt lat="40.0713749" lon="-105.229789">
  <ele>1583.0</ele>
  <time>2026-09-02T20:50:23Z</time>
  <course>0.0</course>
  <speed>0.0</speed>
  <fix>3d</fix>
</trkpt>
<trkpt lat="40.0713749" lon="-105.229789">
  <ele>1583.0</ele>
  <time>2026-09-02T20:50:23Z</time>
  <course>10.43</course>
  <speed>0.0</speed>
  <fix>3d</fix>
</trkpt>
<trkpt lat="40.0713749" lon="-105.229789">
  <ele>1583.0</ele>
  <time>2026-09-02T20:50:23Z</time>
  <course>0.0</course>
  <speed>0.0</speed>
  <fix>3d</fix>
</trkpt>
<trkpt lat="40.0713749" lon="-105.229789">
  <ele>1583.0</ele>
  <time>2026-09-02T20:50:23Z</time>
  <course>9.02</course>
  <speed>0.0</speed>
  <fix>3d</fix>
</trkpt>
<trkpt lat="40.0713749" lon="-105.229789">
  <ele>1583.0</ele>
  <time>2026-09-02T20:50:23Z</time>
  <course>0.0</course>
  <speed>0.0</speed>
  <fix>3d</fix>
</trkpt>
<trkpt lat="40.0713749" lon="-105.229789">
  <ele>1583.0</ele>
  <time>2026-09-02T20:50:23Z</time>
  <course>7.81</course>
  <speed>0.0</speed>
  <fix>3d</fix>
</trkpt>
<trkpt lat="40.0713749" lon="-105.229789">
  <ele>1583.0</ele>
  <time>2026-09-02T20:50:23Z</time>
  <course>0.0</course>
  <speed>0.0</speed>
  <fix>3d</fix>
</trkpt>
<trkpt lat="40.0713749" lon="-105.229789">
  <ele>1583.0</ele>
  <time>2026-09-02T20:50:23Z</time>
  <course>6.75</course>
  <speed>0.0</speed>
  <fix>3d</fix>
</trkpt>
<trkpt lat="40.0713749" lon="-105.229789">
  <ele>1583.0</ele>
  <time>2026-09-02T20:50:23Z</time>
  <course>0.0</course>
  <speed>0.0</speed>
  <fix>3d</fix>
</trkpt>
<trkpt lat="40.0713749" lon="-105.229789">
  <ele>1583.0</ele>
  <time>2026-09-02T20:50:23Z</time>
  <course>5.84</course>
  <speed>0.0</speed>
  <fix>3d</fix>
</trkpt>
<trkpt lat="40.0713749" lon="-105.229789">
  <ele>1583.0</ele>
  <time>2026-09-02T20:50:23Z</time>
  <course>0.0</course>
  <speed>0.0</speed>
  <fix>3d</fix>
</trkpt>
<trkpt lat="40.0713749" lon="-105.229789">
  <ele>1583.0</ele>
  <time>2026-09-02T20:50:23Z</time>
  <course>5.05</course>
  <speed>0.0</speed>
  <fix>3d</fix>
</trkpt>
<trkpt lat="40.0713749" lon="-105.229789">
  <ele>1583.0</ele>
  <time>2026-09-02T20:50:23Z</time>
  <course>0.0</course>
  <speed>0.0</speed>
  <fix>3d</fix>
</trkpt>
<trkpt lat="40.0713749" lon="-105.229789">
  <ele>1583.0</ele>
  <time>2026-09-02T20:50:23Z</time>
  <course>4.37</course>
  <speed>0.0</speed>
  <fix>3d</fix>
</trkpt>
<trkpt lat="40.0713749" lon="-105.229789">
  <ele>1583.0</ele>
  <time>2026-09-02T20:50:23Z</time>
  <course>0.0</course>
  <speed>0.0</speed>
  <fix>3d</fix>
</trkpt>
<trkpt lat="40.0713749" lon="-105.229789">
  <ele>1583.0</ele>
  <time>2026-09-02T20:50:23Z</time>
  <course>3.78</course>
  <speed>0.0</speed>
  <fix>3d</fix>
</trkpt>
<trkpt lat="40.0713749" lon="-105.229789">
  <ele>1583.0</ele>
  <time>2026-09-02T20:50:23Z</time>
  <course>0.0</course>
  <speed>0.0</speed>
  <fix>3d</fix>
</trkpt>
<trkpt lat="40.0713749" lon="-105.229789">
  <ele>1583.0</ele>
  <time>2026-09-02T20:50:23Z</time>
  <course>3.26</course>
  <speed>0.0</speed>
  <fix>3d</fix>
</trkpt>
<trkpt lat="40.0713749" lon="-105.229789">
  <ele>1583.0</ele>
  <time>2026-09-02T20:50:23Z</time>
  <course>0.0</course>
  <speed>0.0</speed>
  <fix>3d</fix>
</trkpt>
<trkpt lat="40.0713749" lon="-105.229789">
  <ele>1583.0</ele>
  <time>2026-09-02T20:50:23Z</time>
  <course>2.82</course>
  <speed>0.0</speed>
  <fix>3d</fix>
</trkpt>
<trkpt lat="40.0713749" lon="-105.229789">
  <ele>1583.0</ele>
  <time>2026-09-02T20:50:23Z</time>
  <course>0.0</course>
  <speed>0.0</speed>
  <fix>3d</fix>
</trkpt>
<trkpt lat="40.0713749" lon="-105.229789">
  <ele>1583.0</ele>
  <time>2026-09-02T20:50:23Z</time>
  <course>2.44</course>
  <speed>0.0</speed>
  <fix>3d</fix>
</trkpt>
<trkpt lat="40.0713749" lon="-105.229789">
  <ele>1583.0</ele>
  <time>2026-09-02T20:50:23Z</time>
  <course>0.0</course>
  <speed>0.0</speed>
  <fix>3d</fix>
</trkpt>
<trkpt lat="40.0713749" lon="-105.229789">
  <ele>1583.0</ele>
  <time>2026-09-02T20:50:23Z</time>
  <course>2.17</course>
  <speed>0.0</speed>
  <fix>3d</fix>
</trkpt>
<trkpt lat="40.0713749" lon="-105.229789">
  <ele>1583.0</ele>
  <time>2026-09-02T20:50:23Z</time>
  <course>0.0</course>
  <speed>0.0</speed>
  <fix>3d</fix>
</trkpt>
<trkpt lat="40.0713749" lon="-105.229789">
  <ele>1583.0</ele>
  <time>2026-09-02T20:50:23Z</time>
  <course>0.0</course>
  <speed>0.0</speed>
  <fix>3d</fix>
</trkpt>
<trkpt lat="40.0713749" lon="-105.229789">
  <ele>1583.0</ele>
  <time>2026-09-02T20:50:23Z</time>
  <course>0.0</course>
  <speed>0.0</speed>
  <fix>3d</fix>
</trkpt>
<trkpt lat="40.0713749" lon="-105.229789">
  <ele>1583.0</ele>
  <time>2026-09-02T20:50:23Z</time>
  <course>0.0</course>
  <speed>0.0</speed>
  <fix>3d</fix>
</trkpt>
<trkpt lat="40.0713749" lon="-105.229789">
  <ele>1583.0</ele>
  <time>2026-09-02T20:50:23Z</time>
  <course>0.0</course>
  <speed>0.0</speed>
  <fix>3d</fix>
</trkpt>
<trkpt lat="40.0713749" lon="-105.229789">
  <ele>1583.0</ele>
  <time>2026-09-02T20:50:23Z</time>
  <course>0.0</course>
  <speed>0.0</speed>
  <fix>3d</fix>
</trkpt>
<trkpt lat="40.0713749" lon="-105.229789">
  <ele>1583.0</ele>
  <time>2026-09-02T20:50:23Z</time>
  <course>0.0</course>
  <speed>0.0</speed>
  <fix>3d</fix>
</trkpt>
<trkpt lat="40.0713749" lon="-105.229789">
  <ele>1583.0</ele>
  <time>2026-09-02T20:50:23Z</time>
  <course>0.0</course>
  <speed>0.0</speed>
  <fix>3d</fix>
</trkpt>
<trkpt lat="40.0713749" lon="-105.229789">
  <ele>1583.0</ele>
  <time>2026-09-02T20:50:23Z</time>
  <course>0.0</course>
  <speed>0.0</speed>
  <fix>3d</fix>
</trkpt>
<trkpt lat="40.0713749" lon="-105.229789">
  <ele>1583.0</ele>
  <time>2026-09-02T20:50:23Z</time>
  <course>0.0</course>
  <speed>0.0</speed>
  <fix>3d</fix>
</trkpt>
<trkpt lat="40.0713749" lon="-105.229789">
  <ele>1583.0</ele>
  <time>2026-09-02T20:50:23Z</time>
  <course>0.0</course>
  <speed>0.0</speed>
  <fix>3d</fix>
</trkpt>
<trkpt lat="40.0713749" lon="-105.229789">
  <ele>1583.0</ele>
  <time>2026-09-02T20:50:23Z</time>
  <course>0.0</course>
  <speed>0.0</speed>
  <fix>3d</fix>
</trkpt>
<trkpt lat="40.0713749" lon="-105.229789">
  <ele>1583.0</ele>
  <time>2026-09-02T20:50:23Z</time>
  <course>0.0</course>
  <speed>0.0</speed>
  <fix>3d</fix>
</trkpt>
<trkpt lat="40.0713749" lon="-105.229789">
  <ele>1583.0</ele>
  <time>2026-09-02T20:50:23Z</time>
  <course>0.0</course>
  <speed>0.0</speed>
  <fix>3d</fix>
</trkpt>
<trkpt lat="40.0713749" lon="-105.229789">
  <ele>1583.0</ele>
  <time>2026-09-02T20:50:23Z</time>
  <course>0.0</course>
  <speed>0.0</speed>
  <fix>3d</fix>
</trkpt>
<trkpt lat="40.0713749" lon="-105.229789">
  <ele>1583.0</ele>
  <time>2026-09-02T20:50:23Z</time>
  <course>0.0</course>
  <speed>0.0</speed>
  <fix>3d</fix>
</trkpt>
<trkpt lat="40.0713749" lon="-105.229789">
  <ele>1583.0</ele>
  <time>2026-09-02T20:50:23Z</time>
  <course>0.0</course>
  <speed>0.0</speed>
  <fix>3d</fix>
</trkpt>
<trkpt lat="40.0713749" lon="-105.229789">
  <ele>1583.0</ele>
  <time>2026-09-02T20:50:23Z</time>
  <course>0.0</course>
  <speed>0.0</speed>
  <fix>3d</fix>
</trkpt>
<trkpt lat="40.0713749" lon="-105.229789">
  <ele>1583.0</ele>
  <time>2026-09-02T20:50:23Z</time>
  <course>0.0</course>
  <speed>0.0</speed>
  <fix>3d</fix>
</trkpt>
<trkpt lat="40.0713749" lon="-105.229789">
  <ele>1583.0</ele>
  <time>2026-09-02T20:50:23Z</time>
  <course>0.0</course>
  <speed>0.0</speed>
  <fix>3d</fix>
</trkpt>
<trkpt lat="40.0713749" lon="-105.229789">
  <ele>1583.0</ele>
  <time>2026-09-02T20:50:23Z</time>
  <course>0.0</course>
  <speed>0.0</speed>
  <fix>3d</fix>
</trkpt>
<trkpt lat="40.0713749" lon="-105.229789">
  <ele>1583.0</ele>
  <time>2026-09-02T20:50:23Z</time>
  <course>0.0</course>
  <speed>0.0</speed>
  <fix>3d</fix>
</trkpt>
<trkpt lat="40.0713749" lon="-105.229789">
  <ele>1583.0</ele>
  <time>2026-09-02T20:50:23Z</time>
  <course>0.0</course>
  <speed>0.0</speed>
  <fix>3d</fix>
</trkpt>
<trkpt lat="40.0713749" lon="-105.229789">
  <ele>1583.0</ele>
  <time>2026-09-02T20:50:23Z</time>
  <course>0.0</course>
  <speed>0.0</speed>
  <fix>3d</fix>
</trkpt>
<trkpt lat="40.0713749" lon="-105.229789">
  <ele>1583.0</ele>
  <time>2026-09-02T20:50:23Z</time>
  <course>0.0</course>
  <speed>0.0</speed>
  <fix>3d</fix>
</trkpt>
<trkpt lat="40.0713749" lon="-105.229789">
  <ele>1583.0</ele>
  <time>2026-09-02T20:50:23Z</time>
  <course>0.0</course>
  <speed>0.0</speed>
  <fix>3d</fix>
</trkpt>
<trkpt lat="40.0713749" lon="-105.229789">
  <ele>1583.0</ele>
  <time>2026-09-02T20:50:23Z</time>
  <course>0.0</course>
  <speed>0.0</speed>
  <fix>3d</fix>
</trkpt>
<trkpt lat="40.0713749" lon="-105.229789">
  <ele>1583.0</ele>
  <time>2026-09-02T20:50:23Z</time>
  <course>0.0</course>
  <speed>0.0</speed>
  <fix>3d</fix>
</trkpt>
<trkpt lat="40.0713749" lon="-105.229789">
  <ele>1583.0</ele>
  <time>2026-09-02T20:50:23Z</time>
  <course>0.0</course>
  <speed>0.0</speed>
  <fix>3d</fix>
</trkpt>
<trkpt lat="40.0713749" lon="-105.229789">
  <ele>1583.0</ele>
  <time>2026-09-02T20:50:23Z</time>
  <course>0.0</course>
  <speed>0.0</speed>
  <fix>3d</fix>
</trkpt>
<trkpt lat="40.0713749" lon="-105.229789">
  <ele>1583.0</ele>
  <time>2026-09-02T20:50:23Z</time>
  <course>0.0</course>
  <speed>0.0</speed>
  <fix>3d</fix>
</trkpt>
<trkpt lat="40.0713749" lon="-105.229789">
  <ele>1583.0</ele>
  <time>2026-09-02T20:50:23Z</time>
  <course>0.0</course>
  <speed>0.0</speed>
  <fix>3d</fix>
</trkpt>
<trkpt lat="40.0713749" lon="-105.229789">
  <ele>1583.0</ele>
  <time>2026-09-02T20:50:23Z</time>
  <course>0.0</course>
  <speed>0.0</speed>
  <fix>3d</fix>
</trkpt>
<trkpt lat="40.0713749" lon="-105.229789">
  <ele>1583.0</ele>
  <time>2026-09-02T20:50:23Z</time>
  <course>0.0</course>
  <speed>0.0</speed>
  <fix>3d</fix>
</trkpt>
<trkpt lat="40.0713749" lon="-105.229789">
  <ele>1583.0</ele>
  <time>2026-09-02T20:50:23Z</time>
  <course>0.0</course>
  <speed>0.0</speed>
  <fix>3d</fix>
</trkpt>
<trkpt lat="40.0713749" lon="-105.229789">
  <ele>1583.0</ele>
  <time>2026-09-02T20:50:23Z</time>
  <course>0.0</course>
  <speed>0.0</speed>
  <fix>3d</fix>
</trkpt>
<trkpt lat="40.0713749" lon="-105.229789">
  <ele>1583.0</ele>
  <time>2026-09-02T20:50:23Z</time>
  <course>0.0</course>
  <speed>0.0</speed>
  <fix>3d</fix>
</trkpt>
<trkpt lat="40.0713749" lon="-105.229789">
  <ele>1583.0</ele>
  <time>2026-09-02T20:50:23Z</time>
  <course>0.0</course>
  <speed>0.0</speed>
  <fix>3d</fix>
</trkpt>
<trkpt lat="40.0713749" lon="-105.229789">
  <ele>1583.0</ele>
  <time>2026-09-02T20:50:23Z</time>
  <course>0.0</course>
  <speed>0.0</speed>
  <fix>3d</fix>
</trkpt>
<trkpt lat="40.0713749" lon="-105.229789">
  <ele>1583.0</ele>
  <time>2026-09-02T20:50:23Z</time>
  <course>0.0</course>
  <speed>0.0</speed>
  <fix>3d</fix>
</trkpt>
<trkpt lat="40.0713749" lon="-105.229789">
  <ele>1583.0</ele>
  <time>2026-09-02T20:50:23Z</time>
  <course>0.0</course>
  <speed>0.0</speed>
  <fix>3d</fix>
</trkpt>
<trkpt lat="40.0713749" lon="-105.229789">
  <ele>1583.0</ele>
  <time>2026-09-02T20:50:23Z</time>
  <course>352.71</course>
  <speed>0.0</speed>
  <fix>3d</fix>
</trkpt>
<trkpt lat="40.0713749" lon="-105.229789">
  <ele>1583.0</ele>
  <time>2026-09-02T20:50:23Z</time>
  <course>0.0</course>
  <speed>0.0</speed>
  <fix>3d</fix>
</trkpt>
<trkpt lat="40.0713749" lon="-105.229789">
  <ele>1583.0</ele>
  <time>2026-09-02T20:50:23Z</time>
  <course>340.71</course>
  <speed>0.0</speed>
  <fix>3d</fix>
</trkpt>
<trkpt lat="40.0713749" lon="-105.229789">
  <ele>1583.0</ele>
  <time>2026-09-02T20:50:23Z</time>
  <course>0.0</course>
  <speed>0.0</speed>
  <fix>3d</fix>
</trkpt>
<trkpt lat="40.0713749" lon="-105.229789">
  <ele>1583.0</ele>
  <time>2026-09-02T20:50:23Z</time>
  <course>328.72</course>
  <speed>0.0</speed>
  <fix>3d</fix>
</trkpt>
<trkpt lat="40.0713749" lon="-105.229789">
  <ele>1583.0</ele>
  <time>2026-09-02T20:50:23Z</time>
  <course>0.0</course>
  <speed>0.0</speed>
  <fix>3d</fix>
</trkpt>
<trkpt lat="40.0713749" lon="-105.229789">
  <ele>1583.0</ele>
  <time>2026-09-02T20:50:23Z</time>
  <course>316.72</course>
  <speed>0.0</speed>
  <fix>3d</fix>
</trkpt>
<trkpt lat="40.0713749" lon="-105.229789">
  <ele>1583.0</ele>
  <time>2026-09-02T20:50:23Z</time>
  <course>0.0</course>
  <speed>0.0</speed>
  <fix>3d</fix>
</trkpt>
<trkpt lat="40.0713749" lon="-105.229789">
  <ele>1583.0</ele>
  <time>2026-09-02T20:50:23Z</time>
  <course>304.73</course>
  <speed>0.0</speed>
  <fix>3d</fix>
</trkpt>
<trkpt lat="40.0713749" lon="-105.229789">
  <ele>1583.0</ele>
  <time>2026-09-02T20:50:23Z</time>
  <course>0.0</course>
  <speed>0.0</speed>
  <fix>3d</fix>
</trkpt>
<trkpt lat="40.0713749" lon="-105.229789">
  <ele>1583.0</ele>
  <time>2026-09-02T20:50:23Z</time>
  <course>292.73</course>
  <speed>0.0</speed>
  <fix>3d</fix>
</trkpt>
<trkpt lat="40.0713749" lon="-105.229789">
  <ele>1583.0</ele>
  <time>2026-09-02T20:50:23Z</time>
  <course>0.0</course>
  <speed>0.0</speed>
  <fix>3d</fix>
</trkpt>
<trkpt lat="40.0713749" lon="-105.229789">
  <ele>1583.0</ele>
  <time>2026-09-02T20:50:23Z</time>
  <course>280.74</course>
  <speed>0.0</speed>
  <fix>3d</fix>
</trkpt>
<trkpt lat="40.0713749" lon="-105.229789">
  <ele>1583.0</ele>
  <time>2026-09-02T20:50:23Z</time>
  <course>0.0</course>
  <speed>0.0</speed>
  <fix>3d</fix>
</trkpt>
<trkpt lat="40.0713749" lon="-105.229789">
  <ele>1583.0</ele>
  <time>2026-09-02T20:50:23Z</time>
  <course>268.74</course>
  <speed>0.0</speed>
  <fix>3d</fix>
</trkpt>
<trkpt lat="40.0713749" lon="-105.229789">
  <ele>1583.0</ele>
  <time>2026-09-02T20:50:23Z</time>
  <course>0.0</course>
  <speed>0.0</speed>
  <fix>3d</fix>
</trkpt>
<trkpt lat="40.0713749" lon="-105.229789">
  <ele>1583.0</ele>
  <time>2026-09-02T20:50:23Z</time>
  <course>256.75</course>
  <speed>0.0</speed>
  <fix>3d</fix>
</trkpt>
<trkpt lat="40.0713749" lon="-105.229789">
  <ele>1583.0</ele>
  <time>2026-09-02T20:50:23Z</time>
  <course>0.0</course>
  <speed>0.0</speed>
  <fix>3d</fix>
</trkpt>
<trkpt lat="40.0713749" lon="-105.229789">
  <ele>1583.0</ele>
  <time>2026-09-02T20:50:23Z</time>
  <course>244.75</course>
  <speed>0.0</speed>
  <fix>3d</fix>
</trkpt>
<trkpt lat="40.0713749" lon="-105.229789">
  <ele>1583.0</ele>
  <time>2026-09-02T20:50:23Z</time>
  <course>0.0</course>
  <speed>0.0</speed>
  <fix>3d</fix>
</trkpt>
<trkpt lat="40.0713749" lon="-105.229789">
  <ele>1583.0</ele>
  <time>2026-09-02T20:50:23Z</time>
  <course>230.36</course>
  <speed>0.0</speed>
  <fix>3d</fix>
</trkpt>
<trkpt lat="40.0713749" lon="-105.229789">
  <ele>1583.0</ele>
  <time>2026-09-02T20:50:23Z</time>
  <course>0.0</course>
  <speed>0.0</speed>
  <fix>3d</fix>
</trkpt>
<trkpt lat="40.0713749" lon="-105.229789">
  <ele>1583.0</ele>
  <time>2026-09-02T20:50:23Z</time>
  <course>218.36</course>
  <speed>0.0</speed>
  <fix>3d</fix>
</trkpt>
<trkpt lat="40.0713749" lon="-105.229789">
  <ele>1583.0</ele>
  <time>2026-09-02T20:50:23Z</time>
  <course>0.0</course>
  <speed>0.0</speed>
  <fix>3d</fix>
</trkpt>
<trkpt lat="40.0713749" lon="-105.229789">
  <ele>1583.0</ele>
  <time>2026-09-02T20:50:23Z</time>
  <course>206.36</course>
  <speed>0.0</speed>
  <fix>3d</fix>
</trkpt>
<trkpt lat="40.0713749" lon="-105.229789">
  <ele>1583.0</ele>
  <time>2026-09-02T20:50:23Z</time>
  <course>0.0</course>
  <speed>0.0</speed>
  <fix>3d</fix>
</trkpt>
<trkpt lat="40.0713749" lon="-105.229789">
  <ele>1583.0</ele>
  <time>2026-09-02T20:50:23Z</time>
  <course>194.37</course>
  <speed>0.0</speed>
  <fix>3d</fix>
</trkpt>
<trkpt lat="40.0713749" lon="-105.229789">
  <ele>1583.0</ele>
  <time>2026-09-02T20:50:23Z</time>
  <course>0.0</course>
  <speed>0.0</speed>
  <fix>3d</fix>
</trkpt>
<trkpt lat="40.0713749" lon="-105.229789">
  <ele>1583.0</ele>
  <time>2026-09-02T20:50:23Z</time>
  <course>182.37</course>
  <speed>0.0</speed>
  <fix>3d</fix>
</trkpt>
<trkpt lat="40.0713749" lon="-105.229789">
  <ele>1583.0</ele>
  <time>2026-09-02T20:50:23Z</time>
  <course>0.0</course>
  <speed>0.0</speed>
  <fix>3d</fix>
</trkpt>
<trkpt lat="40.0713749" lon="-105.229789">
  <ele>1583.0</ele>
  <time>2026-09-02T20:50:23Z</time>
  <course>170.37</course>
  <speed>0.0</speed>
  <fix>3d</fix>
</trkpt>
<trkpt lat="40.0713749" lon="-105.229789">
  <ele>1583.0</ele>
  <time>2026-09-02T20:50:23Z</time>
  <course>0.0</course>
  <speed>0.0</speed>
  <fix>3d</fix>
</trkpt>
<trkpt lat="40.0713749" lon="-105.229789">
  <ele>1583.0</ele>
  <time>2026-09-02T20:50:23Z</time>
  <course>158.37</course>
  <speed>0.0</speed>
  <fix>3d</fix>
</trkpt>
<trkpt lat="40.0713749" lon="-105.229789">
  <ele>1583.0</ele>
  <time>2026-09-02T20:50:23Z</time>
  <course>0.0</course>
  <speed>0.0</speed>
  <fix>3d</fix>
</trkpt>
<trkpt lat="40.0713749" lon="-105.229789">
  <ele>1583.0</ele>
  <time>2026-09-02T20:50:23Z</time>
  <course>146.38</course>
  <speed>0.0</speed>
  <fix>3d</fix>
</trkpt>
<trkpt lat="40.0713749" lon="-105.229789">
  <ele>1583.0</ele>
  <time>2026-09-02T20:50:23Z</time>
  <course>0.0</course>
  <speed>0.0</speed>
  <fix>3d</fix>
</trkpt>
<trkpt lat="40.0713749" lon="-105.229789">
  <ele>1583.0</ele>
  <time>2026-09-02T20:50:23Z</time>
  <course>134.38</course>
  <speed>0.0</speed>
  <fix>3d</fix>
</trkpt>
<trkpt lat="40.0713749" lon="-105.229789">
  <ele>1583.0</ele>
  <time>2026-09-02T20:50:23Z</time>
  <course>0.0</course>
  <speed>0.0</speed>
  <fix>3d</fix>
</trkpt>
<trkpt lat="40.0713749" lon="-105.229789">
  <ele>1583.0</ele>
  <time>2026-09-02T20:50:23Z</time>
  <course>122.39</course>
  <speed>0.0</speed>
  <fix>3d</fix>
</trkpt>
<trkpt lat="40.0713749" lon="-105.229789">
  <ele>1583.0</ele>
  <time>2026-09-02T20:50:23Z</time>
  <course>0.0</course>
  <speed>0.0</speed>
  <fix>3d</fix>
</trkpt>
<trkpt lat="40.0713749" lon="-105.229789">
  <ele>1583.0</ele>
  <time>2026-09-02T20:50:23Z</time>
  <course>110.39</course>
  <speed>0.0</speed>
  <fix>3d</fix>
</trkpt>
<trkpt lat="40.0713749" lon="-105.229789">
  <ele>1583.0</ele>
  <time>2026-09-02T20:50:23Z</time>
  <course>0.0</course>
  <speed>0.0</speed>
  <fix>3d</fix>
</trkpt>
<trkpt lat="40.0713749" lon="-105.229789">
  <ele>1583.0</ele>
  <time>2026-09-02T20:50:23Z</time>
  <course>100.69</course>
  <speed>0.0</speed>
  <fix>3d</fix>
</trkpt>
<trkpt lat="40.0713749" lon="-105.229789">
  <ele>1583.0</ele>
  <time>2026-09-02T20:50:23Z</time>
  <course>0.0</course>
  <speed>0.0</speed>
  <fix>3d</fix>
</trkpt>
<trkpt lat="40.0713749" lon="-105.229789">
  <ele>1583.0</ele>
  <time>2026-09-02T20:50:23Z</time>
  <course>88.7</course>
  <speed>0.0</speed>
  <fix>3d</fix>
</trkpt>
<trkpt lat="40.0713749" lon="-105.229789">
  <ele>1583.0</ele>
  <time>2026-09-02T20:50:23Z</time>
  <course>0.0</course>
  <speed>0.0</speed>
  <fix>3d</fix>
</trkpt>
<trkpt lat="40.0713749" lon="-105.229789">
  <ele>1583.0</ele>
  <time>2026-09-02T20:50:23Z</time>
  <course>76.7</course>
  <speed>0.0</speed>
  <fix>3d</fix>
</trkpt>
<trkpt lat="40.0713749" lon="-105.229789">
  <ele>1583.0</ele>
  <time>2026-09-02T20:50:23Z</time>
  <course>0.0</course>
  <speed>0.0</speed>
  <fix>3d</fix>
</trkpt>
<trkpt lat="40.0713749" lon="-105.229789">
  <ele>1583.0</ele>
  <time>2026-09-02T20:50:23Z</time>
  <course>64.71</course>
  <speed>0.0</speed>
  <fix>3d</fix>
</trkpt>
<trkpt lat="40.0713749" lon="-105.229789">
  <ele>1583.0</ele>
  <time>2026-09-02T20:50:23Z</time>
  <course>0.0</course>
  <speed>0.0</speed>
  <fix>3d</fix>
</trkpt>
<trkpt lat="40.0713749" lon="-105.229789">
  <ele>1583.0</ele>
  <time>2026-09-02T20:50:23Z</time>
  <course>52.71</course>
  <speed>0.0</speed>
  <fix>3d</fix>
</trkpt>
<trkpt lat="40.0713749" lon="-105.229789">
  <ele>1583.0</ele>
  <time>2026-09-02T20:50:23Z</time>
  <course>0.0</course>
  <speed>0.0</speed>
  <fix>3d</fix>
</trkpt>
<trkpt lat="40.0713749" lon="-105.229789">
  <ele>1583.0</ele>
  <time>2026-09-02T20:50:23Z</time>
  <course>40.72</course>
  <speed>0.0</speed>
  <fix>3d</fix>
</trkpt>
<trkpt lat="40.0713749" lon="-105.229789">
  <ele>1583.0</ele>
  <time>2026-09-02T20:50:23Z</time>
  <course>0.0</course>
  <speed>0.0</speed>
  <fix>3d</fix>
</trkpt>
<trkpt lat="40.0713749" lon="-105.229789">
  <ele>1583.0</ele>
  <time>2026-09-02T20:50:23Z</time>
  <course>28.72</course>
  <speed>0.0</speed>
  <fix>3d</fix>
</trkpt>
<trkpt lat="40.0713749" lon="-105.229789">
  <ele>1583.0</ele>
  <time>2026-09-02T20:50:23Z</time>
  <course>0.0</course>
  <speed>0.0</speed>
  <fix>3d</fix>
</trkpt>
<trkpt lat="40.0713749" lon="-105.229789">
  <ele>1583.0</ele>
  <time>2026-09-02T20:50:23Z</time>
  <course>16.73</course>
  <speed>0.0</speed>
  <fix>3d</fix>
</trkpt>
<trkpt lat="40.0713749" lon="-105.229789">
  <ele>1583.0</ele>
  <time>2026-09-02T20:50:23Z</time>
  <course>0.0</course>
  <speed>0.0</speed>
  <fix>3d</fix>
</trkpt>
<trkpt lat="40.0713749" lon="-105.229789">
  <ele>1583.0</ele>
  <time>2026-09-02T20:50:23Z</time>
  <course>4.73</course>
  <speed>0.0</speed>
  <fix>3d</fix>
</trkpt>
<trkpt lat="40.0713749" lon="-105.229789">
  <ele>1583.0</ele>
  <time>2026-09-02T20:50:23Z</time>
  <course>0.0</course>
  <speed>0.0</speed>
  <fix>3d</fix>
</trkpt>
<trkpt lat="40.0713749" lon="-105.229789">
  <ele>1583.0</ele>
  <time>2026-09-02T20:50:23Z</time>
  <course>352.75</course>
  <speed>0.0</speed>
  <fix>3d</fix>
</trkpt>
<trkpt lat="40.0713749" lon="-105.229789">
  <ele>1583.0</ele>
  <time>2026-09-02T20:50:23Z</time>
  <course>0.0</course>
  <speed>0.0</speed>
  <fix>3d</fix>
</trkpt>
<trkpt lat="40.0713749" lon="-105.229789">
  <ele>1583.0</ele>
  <time>2026-09-02T20:50:23Z</time>
  <course>338.35</course>
  <speed>0.0</speed>
  <fix>3d</fix>
</trkpt>
<trkpt lat="40.0713749" lon="-105.229789">
  <ele>1583.0</ele>
  <time>2026-09-02T20:50:23Z</time>
  <course>0.0</course>
  <speed>0.0</speed>
  <fix>3d</fix>
</trkpt>
<trkpt lat="40.0713749" lon="-105.229789">
  <ele>1583.0</ele>
  <time>2026-09-02T20:50:23Z</time>
  <course>326.36</course>
  <speed>0.0</speed>
  <fix>3d</fix>
</trkpt>
<trkpt lat="40.0713749" lon="-105.229789">
  <ele>1583.0</ele>
  <time>2026-09-02T20:50:23Z</time>
  <course>0.0</course>
  <speed>0.0</speed>
  <fix>3d</fix>
</trkpt>
<trkpt lat="40.0713749" lon="-105.229789">
  <ele>1583.0</ele>
  <time>2026-09-02T20:50:23Z</time>
  <course>314.36</course>
  <speed>0.0</speed>
  <fix>3d</fix>
</trkpt>
<trkpt lat="40.0713749" lon="-105.229789">
  <ele>1583.0</ele>
  <time>2026-09-02T20:50:23Z</time>
  <course>0.0</course>
  <speed>0.0</speed>
  <fix>3d</fix>
</trkpt>
<trkpt lat="40.0713749" lon="-105.229789">
  <ele>1583.0</ele>
  <time>2026-09-02T20:50:23Z</time>
  <course>302.37</course>
  <speed>0.0</speed>
  <fix>3d</fix>
</trkpt>
<trkpt lat="40.0713749" lon="-105.229789">
  <ele>1583.0</ele>
  <time>2026-09-02T20:50:23Z</time>
  <course>0.0</course>
  <speed>0.0</speed>
  <fix>3d</fix>
</trkpt>
<trkpt lat="40.0713749" lon="-105.229789">
  <ele>1583.0</ele>
  <time>2026-09-02T20:50:23Z</time>
  <course>290.37</course>
  <speed>0.0</speed>
  <fix>3d</fix>
</trkpt>
<trkpt lat="40.0713749" lon="-105.229789">
  <ele>1583.0</ele>
  <time>2026-09-02T20:50:23Z</time>
  <course>0.0</course>
  <speed>0.0</speed>
  <fix>3d</fix>
</trkpt>
<trkpt lat="40.0713749" lon="-105.229789">
  <ele>1583.0</ele>
  <time>2026-09-02T20:50:23Z</time>
  <course>278.38</course>
  <speed>0.0</speed>
  <fix>3d</fix>
</trkpt>
<trkpt lat="40.0713749" lon="-105.229789">
  <ele>1583.0</ele>
  <time>2026-09-02T20:50:23Z</time>
  <course>0.0</course>
  <speed>0.0</speed>
  <fix>3d</fix>
</trkpt>
<trkpt lat="40.0713749" lon="-105.229789">
  <ele>1583.0</ele>
  <time>2026-09-02T20:50:23Z</time>
  <course>266.38</course>
  <speed>0.0</speed>
  <fix>3d</fix>
</trkpt>
<trkpt lat="40.0713749" lon="-105.229789">
  <ele>1583.0</ele>
  <time>2026-09-02T20:50:23Z</time>
  <course>0.0</course>
  <speed>0.0</speed>
  <fix>3d</fix>
</trkpt>
<trkpt lat="40.0713749" lon="-105.229789">
  <ele>1583.0</ele>
  <time>2026-09-02T20:50:23Z</time>
  <course>254.39</course>
  <speed>0.0</speed>
  <fix>3d</fix>
</trkpt>
<trkpt lat="40.0713749" lon="-105.229789">
  <ele>1583.0</ele>
  <time>2026-09-02T20:50:23Z</time>
  <course>0.0</course>
  <speed>0.0</speed>
  <fix>3d</fix>
</trkpt>
<trkpt lat="40.0713749" lon="-105.229789">
  <ele>1583.0</ele>
  <time>2026-09-02T20:50:23Z</time>
  <course>242.39</course>
  <speed>0.0</speed>
  <fix>3d</fix>
</trkpt>
<trkpt lat="40.0713749" lon="-105.229789">
  <ele>1583.0</ele>
  <time>2026-09-02T20:50:23Z</time>
  <course>0.0</course>
  <speed>0.0</speed>
  <fix>3d</fix>
</trkpt>
<trkpt lat="40.0713749" lon="-105.229789">
  <ele>1583.0</ele>
  <time>2026-09-02T20:50:23Z</time>
  <course>230.4</course>
  <speed>0.0</speed>
  <fix>3d</fix>
</trkpt>
<trkpt lat="40.0713749" lon="-105.229789">
  <ele>1583.0</ele>
  <time>2026-09-02T20:50:23Z</time>
  <course>0.0</course>
  <speed>0.0</speed>
  <fix>3d</fix>
</trkpt>
<trkpt lat="40.0713749" lon="-105.229789">
  <ele>1583.0</ele>
  <time>2026-09-02T20:50:23Z</time>
  <course>218.4</course>
  <speed>0.0</speed>
  <fix>3d</fix>
</trkpt>
<trkpt lat="40.0713749" lon="-105.229789">
  <ele>1583.0</ele>
  <time>2026-09-02T20:50:23Z</time>
  <course>0.0</course>
  <speed>0.0</speed>
  <fix>3d</fix>
</trkpt>
<trkpt lat="40.0713749" lon="-105.229789">
  <ele>1583.0</ele>
  <time>2026-09-02T20:50:23Z</time>
  <course>208.7</course>
  <speed>0.0</speed>
  <fix>3d</fix>
</trkpt>
<trkpt lat="40.0713749" lon="-105.229789">
  <ele>1583.0</ele>
  <time>2026-09-02T20:50:23Z</time>
  <course>0.0</course>
  <speed>0.0</speed>
  <fix>3d</fix>
</trkpt>
<trkpt lat="40.0713749" lon="-105.229789">
  <ele>1583.0</ele>
  <time>2026-09-02T20:50:23Z</time>
  <course>196.71</course>
  <speed>0.0</speed>
  <fix>3d</fix>
</trkpt>
<trkpt lat="40.0713749" lon="-105.229789">
  <ele>1583.0</ele>
  <time>2026-09-02T20:50:23Z</time>
  <course>0.0</course>
  <speed>0.0</speed>
  <fix>3d</fix>
</trkpt>
<trkpt lat="40.0713749" lon="-105.229789">
  <ele>1583.0</ele>
  <time>2026-09-02T20:50:23Z</time>
  <course>184.71</course>
  <speed>0.0</speed>
  <fix>3d</fix>
</trkpt>
<trkpt lat="40.0713749" lon="-105.229789">
  <ele>1583.0</ele>
  <time>2026-09-02T20:50:23Z</time>
  <course>0.0</course>
  <speed>0.0</speed>
  <fix>3d</fix>
</trkpt>
<trkpt lat="40.0713749" lon="-105.229789">
  <ele>1583.0</ele>
  <time>2026-09-02T20:50:23Z</time>
  <course>172.71</course>
  <speed>0.0</speed>
  <fix>3d</fix>
</trkpt>
<trkpt lat="40.0713749" lon="-105.229789">
  <ele>1583.0</ele>
  <time>2026-09-02T20:50:23Z</time>
  <course>0.0</course>
  <speed>0.0</speed>
  <fix>3d</fix>
</trkpt>
<trkpt lat="40.0713749" lon="-105.229789">
  <ele>1583.0</ele>
  <time>2026-09-02T20:50:23Z</time>
  <course>160.71</course>
  <speed>0.0</speed>
  <fix>3d</fix>
</trkpt>
<trkpt lat="40.0713749" lon="-105.229789">
  <ele>1583.0</ele>
  <time>2026-09-02T20:50:23Z</time>
  <course>0.0</course>
  <speed>0.0</speed>
  <fix>3d</fix>
</trkpt>
<trkpt lat="40.0713749" lon="-105.229789">
  <ele>1583.0</ele>
  <time>2026-09-02T20:50:23Z</time>
  <course>148.71</course>
  <speed>0.0</speed>
  <fix>3d</fix>
</trkpt>
<trkpt lat="40.0713749" lon="-105.229789">
  <ele>1583.0</ele>
  <time>2026-09-02T20:50:23Z</time>
  <course>0.0</course>
  <speed>0.0</speed>
  <fix>3d</fix>
</trkpt>
<trkpt lat="40.0713749" lon="-105.229789">
  <ele>1583.0</ele>
  <time>2026-09-02T20:50:23Z</time>
  <course>136.72</course>
  <speed>0.0</speed>
  <fix>3d</fix>
</trkpt>
<trkpt lat="40.0713749" lon="-105.229789">
  <ele>1583.0</ele>
  <time>2026-09-02T20:50:23Z</time>
  <course>0.0</course>
  <speed>0.0</speed>
  <fix>3d</fix>
</trkpt>
<trkpt lat="40.0713749" lon="-105.229789">
  <ele>1583.0</ele>
  <time>2026-09-02T20:50:23Z</time>
  <course>124.72</course>
  <speed>0.0</speed>
  <fix>3d</fix>
</trkpt>
<trkpt lat="40.0713749" lon="-105.229789">
  <ele>1583.0</ele>
  <time>2026-09-02T20:50:23Z</time>
  <course>0.0</course>
  <speed>0.0</speed>
  <fix>3d</fix>
</trkpt>
<trkpt lat="40.0713749" lon="-105.229789">
  <ele>1583.0</ele>
  <time>2026-09-02T20:50:23Z</time>
  <course>112.73</course>
  <speed>0.0</speed>
  <fix>3d</fix>
</trkpt>
<trkpt lat="40.0713749" lon="-105.229789">
  <ele>1583.0</ele>
  <time>2026-09-02T20:50:23Z</time>
  <course>0.0</course>
  <speed>0.0</speed>
  <fix>3d</fix>
</trkpt>
<trkpt lat="40.0713749" lon="-105.229789">
  <ele>1583.0</ele>
  <time>2026-09-02T20:50:23Z</time>
  <course>100.73</course>
  <speed>0.0</speed>
  <fix>3d</fix>
</trkpt>
<trkpt lat="40.0713749" lon="-105.229789">
  <ele>1583.0</ele>
  <time>2026-09-02T20:50:23Z</time>
  <course>0.0</course>
  <speed>0.0</speed>
  <fix>3d</fix>
</trkpt>
<trkpt lat="40.0713749" lon="-105.229789">
  <ele>1583.0</ele>
  <time>2026-09-02T20:50:23Z</time>
  <course>86.34</course>
  <speed>0.0</speed>
  <fix>3d</fix>
</trkpt>
<trkpt lat="40.0713749" lon="-105.229789">
  <ele>1583.0</ele>
  <time>2026-09-02T20:50:23Z</time>
  <course>0.0</course>
  <speed>0.0</speed>
  <fix>3d</fix>
</trkpt>
<trkpt lat="40.0713749" lon="-105.229789">
  <ele>1583.0</ele>
  <time>2026-09-02T20:50:23Z</time>
  <course>74.34</course>
  <speed>0.0</speed>
  <fix>3d</fix>
</trkpt>
<trkpt lat="40.0713749" lon="-105.229789">
  <ele>1583.0</ele>
  <time>2026-09-02T20:50:23Z</time>
  <course>0.0</course>
  <speed>0.0</speed>
  <fix>3d</fix>
</trkpt>
<trkpt lat="40.0713749" lon="-105.229789">
  <ele>1583.0</ele>
  <time>2026-09-02T20:50:23Z</time>
  <course>62.35</course>
  <speed>0.0</speed>
  <fix>3d</fix>
</trkpt>
<trkpt lat="40.0713749" lon="-105.229789">
  <ele>1583.0</ele>
  <time>2026-09-02T20:50:23Z</time>
  <course>0.0</course>
  <speed>0.0</speed>
  <fix>3d</fix>
</trkpt>
<trkpt lat="40.0713749" lon="-105.229789">
  <ele>1583.0</ele>
  <time>2026-09-02T20:50:23Z</time>
  <course>50.35</course>
  <speed>0.0</speed>
  <fix>3d</fix>
</trkpt>
<trkpt lat="40.0713749" lon="-105.229789">
  <ele>1583.0</ele>
  <time>2026-09-02T20:50:23Z</time>
  <course>0.0</course>
  <speed>0.0</speed>
  <fix>3d</fix>
</trkpt>
<trkpt lat="40.0713749" lon="-105.229789">
  <ele>1583.0</ele>
  <time>2026-09-02T20:50:23Z</time>
  <course>38.36</course>
  <speed>0.0</speed>
  <fix>3d</fix>
</trkpt>
<trkpt lat="40.0713749" lon="-105.229789">
  <ele>1583.0</ele>
  <time>2026-09-02T20:50:23Z</time>
  <course>0.0</course>
  <speed>0.0</speed>
  <fix>3d</fix>
</trkpt>
<trkpt lat="40.0713749" lon="-105.229789">
  <ele>1583.0</ele>
  <time>2026-09-02T20:50:23Z</time>
  <course>26.36</course>
  <speed>0.0</speed>
  <fix>3d</fix>
</trkpt>
<trkpt lat="40.0713749" lon="-105.229789">
  <ele>1583.0</ele>
  <time>2026-09-02T20:50:23Z</time>
  <course>0.0</course>
  <speed>0.0</speed>
  <fix>3d</fix>
</trkpt>
<trkpt lat="40.0713749" lon="-105.229789">
  <ele>1583.0</ele>
  <time>2026-09-02T20:50:23Z</time>
  <course>14.37</course>
  <speed>0.0</speed>
  <fix>3d</fix>
</trkpt>
<trkpt lat="40.0713749" lon="-105.229789">
  <ele>1583.0</ele>
  <time>2026-09-02T20:50:23Z</time>
  <course>0.0</course>
  <speed>0.0</speed>
  <fix>3d</fix>
</trkpt>
<trkpt lat="40.0713749" lon="-105.229789">
  <ele>1583.0</ele>
  <time>2026-09-02T20:50:23Z</time>
  <course>2.37</course>
  <speed>0.0</speed>
  <fix>3d</fix>
</trkpt>
<trkpt lat="40.0713749" lon="-105.229789">
  <ele>1583.0</ele>
  <time>2026-09-02T20:50:23Z</time>
  <course>0.0</course>
  <speed>0.0</speed>
  <fix>3d</fix>
</trkpt>
<trkpt lat="40.0713749" lon="-105.229789">
  <ele>1583.0</ele>
  <time>2026-09-02T20:50:23Z</time>
  <course>350.39</course>
  <speed>0.0</speed>
  <fix>3d</fix>
</trkpt>
<trkpt lat="40.0713749" lon="-105.229789">
  <ele>1583.0</ele>
  <time>2026-09-02T20:50:23Z</time>
  <course>0.0</course>
  <speed>0.0</speed>
  <fix>3d</fix>
</trkpt>
<trkpt lat="40.0713749" lon="-105.229789">
  <ele>1583.0</ele>
  <time>2026-09-02T20:50:23Z</time>
  <course>338.39</course>
  <speed>0.0</speed>
  <fix>3d</fix>
</trkpt>
<trkpt lat="40.0713749" lon="-105.229789">
  <ele>1583.0</ele>
  <time>2026-09-02T20:50:23Z</time>
  <course>0.0</course>
  <speed>0.0</speed>
  <fix>3d</fix>
</trkpt>
<trkpt lat="40.0713749" lon="-105.229789">
  <ele>1583.0</ele>
  <time>2026-09-02T20:50:23Z</time>
  <course>326.3</course>
  <speed>0.0</speed>
  <fix>3d</fix>
</trkpt>
<trkpt lat="40.0713749" lon="-105.229789">
  <ele>1583.0</ele>
  <time>2026-09-02T20:50:23Z</time>
  <course>0.0</course>
  <speed>0.0</speed>
  <fix>3d</fix>
</trkpt>
<trkpt lat="40.0713749" lon="-105.229789">
  <ele>1583.0</ele>
  <time>2026-09-02T20:50:23Z</time>
  <course>316.7</course>
  <speed>0.0</speed>
  <fix>3d</fix>
</trkpt>
<trkpt lat="40.0713749" lon="-105.229789">
  <ele>1583.0</ele>
  <time>2026-09-02T20:50:23Z</time>
  <course>0.0</course>
  <speed>0.0</speed>
  <fix>3d</fix>
</trkpt>
<trkpt lat="40.0713749" lon="-105.229789">
  <ele>1583.0</ele>
  <time>2026-09-02T20:50:23Z</time>
  <course>304.71</course>
  <speed>0.0</speed>
  <fix>3d</fix>
</trkpt>
<trkpt lat="40.0713749" lon="-105.229789">
  <ele>1583.0</ele>
  <time>2026-09-02T20:50:23Z</time>
  <course>0.0</course>
  <speed>0.0</speed>
  <fix>3d</fix>
</trkpt>
<trkpt lat="40.0713749" lon="-105.229789">
  <ele>1583.0</ele>
  <time>2026-09-02T20:50:23Z</time>
  <course>292.71</course>
  <speed>0.0</speed>
  <fix>3d</fix>
</trkpt>
<trkpt lat="40.0713749" lon="-105.229789">
  <ele>1583.0</ele>
  <time>2026-09-02T20:50:23Z</time>
  <course>0.0</course>
  <speed>0.0</speed>
  <fix>3d</fix>
</trkpt>
<trkpt lat="40.0713749" lon="-105.229789">
  <ele>1583.0</ele>
  <time>2026-09-02T20:50:23Z</time>
  <course>280.72</course>
  <speed>0.0</speed>
  <fix>3d</fix>
</trkpt>
<trkpt lat="40.0713749" lon="-105.229789">
  <ele>1583.0</ele>
  <time>2026-09-02T20:50:23Z</time>
  <course>0.0</course>
  <speed>0.0</speed>
  <fix>3d</fix>
</trkpt>
<trkpt lat="40.0713749" lon="-105.229789">
  <ele>1583.0</ele>
  <time>2026-09-02T20:50:23Z</time>
  <course>268.72</course>
  <speed>0.0</speed>
  <fix>3d</fix>
</trkpt>
<trkpt lat="40.0713749" lon="-105.229789">
  <ele>1583.0</ele>
  <time>2026-09-02T20:50:23Z</time>
  <course>0.0</course>
  <speed>0.0</speed>
  <fix>3d</fix>
</trkpt>
<trkpt lat="40.0713749" lon="-105.229789">
  <ele>1583.0</ele>
  <time>2026-09-02T20:50:23Z</time>
  <course>256.73</course>
  <speed>0.0</speed>
  <fix>3d</fix>
</trkpt>
<trkpt lat="40.0713749" lon="-105.229789">
  <ele>1583.0</ele>
  <time>2026-09-02T20:50:23Z</time>
  <course>0.0</course>
  <speed>0.0</speed>
  <fix>3d</fix>
</trkpt>
<trkpt lat="40.0713749" lon="-105.229789">
  <ele>1583.0</ele>
  <time>2026-09-02T20:50:23Z</time>
  <course>244.73</course>
  <speed>0.0</speed>
  <fix>3d</fix>
</trkpt>
<trkpt lat="40.0713749" lon="-105.229789">
  <ele>1583.0</ele>
  <time>2026-09-02T20:50:23Z</time>
  <course>0.0</course>
  <speed>0.0</speed>
  <fix>3d</fix>
</trkpt>
<trkpt lat="40.0713749" lon="-105.229789">
  <ele>1583.0</ele>
  <time>2026-09-02T20:50:23Z</time>
  <course>232.73</course>
  <speed>0.0</speed>
  <fix>3d</fix>
</trkpt>
<trkpt lat="40.0713749" lon="-105.229789">
  <ele>1583.0</ele>
  <time>2026-09-02T20:50:23Z</time>
  <course>0.0</course>
  <speed>0.0</speed>
  <fix>3d</fix>
</trkpt>
<trkpt lat="40.0713749" lon="-105.229789">
  <ele>1583.0</ele>
  <time>2026-09-02T20:50:23Z</time>
  <course>220.74</course>
  <speed>0.0</speed>
  <fix>3d</fix>
</trkpt>
<trkpt lat="40.0713749" lon="-105.229789">
  <ele>1583.0</ele>
  <time>2026-09-02T20:50:23Z</time>
  <course>0.0</course>
  <speed>0.0</speed>
  <fix>3d</fix>
</trkpt>
<trkpt lat="40.0713749" lon="-105.229789">
  <ele>1583.0</ele>
  <time>2026-09-02T20:50:23Z</time>
  <course>206.34</course>
  <speed>0.0</speed>
  <fix>3d</fix>
</trkpt>
<trkpt lat="40.0713749" lon="-105.229789">
  <ele>1583.0</ele>
  <time>2026-09-02T20:50:23Z</time>
  <course>0.0</course>
  <speed>0.0</speed>
  <fix>3d</fix>
</trkpt>
<trkpt lat="40.0713749" lon="-105.229789">
  <ele>1583.0</ele>
  <time>2026-09-02T20:50:23Z</time>
  <course>194.35</course>
  <speed>0.0</speed>
  <fix>3d</fix>
</trkpt>
<trkpt lat="40.0713749" lon="-105.229789">
  <ele>1583.0</ele>
  <time>2026-09-02T20:50:23Z</time>
  <course>0.0</course>
  <speed>0.0</speed>
  <fix>3d</fix>
</trkpt>
<trkpt lat="40.0713749" lon="-105.229789">
  <ele>1583.0</ele>
  <time>2026-09-02T20:50:23Z</time>
  <course>182.35</course>
  <speed>0.0</speed>
  <fix>3d</fix>
</trkpt>
<trkpt lat="40.0713749" lon="-105.229789">
  <ele>1583.0</ele>
  <time>2026-09-02T20:50:23Z</time>
  <course>0.0</course>
  <speed>0.0</speed>
  <fix>3d</fix>
</trkpt>
<trkpt lat="40.0713749" lon="-105.229789">
  <ele>1583.0</ele>
  <time>2026-09-02T20:50:23Z</time>
  <course>170.35</course>
  <speed>0.0</speed>
  <fix>3d</fix>
</trkpt>
<trkpt lat="40.0713749" lon="-105.229789">
  <ele>1583.0</ele>
  <time>2026-09-02T20:50:23Z</time>
  <course>0.0</course>
  <speed>0.0</speed>
  <fix>3d</fix>
</trkpt>
<trkpt lat="40.0713749" lon="-105.229789">
  <ele>1583.0</ele>
  <time>2026-09-02T20:50:23Z</time>
  <course>158.35</course>
  <speed>0.0</speed>
  <fix>3d</fix>
</trkpt>
<trkpt lat="40.0713749" lon="-105.229789">
  <ele>1583.0</ele>
  <time>2026-09-02T20:50:23Z</time>
  <course>0.0</course>
  <speed>0.0</speed>
  <fix>3d</fix>
</trkpt>
<trkpt lat="40.0713749" lon="-105.229789">
  <ele>1583.0</ele>
  <time>2026-09-02T20:50:23Z</time>
  <course>146.35</course>
  <speed>0.0</speed>
  <fix>3d</fix>
</trkpt>
<trkpt lat="40.0713749" lon="-105.229789">
  <ele>1583.0</ele>
  <time>2026-09-02T20:50:23Z</time>
  <course>0.0</course>
  <speed>0.0</speed>
  <fix>3d</fix>
</trkpt>
<trkpt lat="40.0713749" lon="-105.229789">
  <ele>1583.0</ele>
  <time>2026-09-02T20:50:23Z</time>
  <course>134.36</course>
  <speed>0.0</speed>
  <fix>3d</fix>
</trkpt>
<trkpt lat="40.0713749" lon="-105.229789">
  <ele>1583.0</ele>
  <time>2026-09-02T20:50:23Z</time>
  <course>0.0</course>
  <speed>0.0</speed>
  <fix>3d</fix>
</trkpt>
<trkpt lat="40.0713749" lon="-105.229789">
  <ele>1583.0</ele>
  <time>2026-09-02T20:50:23Z</time>
  <course>122.36</course>
  <speed>0.0</speed>
  <fix>3d</fix>
</trkpt>
<trkpt lat="40.0713749" lon="-105.229789">
  <ele>1583.0</ele>
  <time>2026-09-02T20:50:23Z</time>
  <course>0.0</course>
  <speed>0.0</speed>
  <fix>3d</fix>
</trkpt>
<trkpt lat="40.0713749" lon="-105.229789">
  <ele>1583.0</ele>
  <time>2026-09-02T20:50:23Z</time>
  <course>110.37</course>
  <speed>0.0</speed>
  <fix>3d</fix>
</trkpt>
<trkpt lat="40.0713749" lon="-105.229789">
  <ele>1583.0</ele>
  <time>2026-09-02T20:50:23Z</time>
  <course>0.0</course>
  <speed>0.0</speed>
  <fix>3d</fix>
</trkpt>
<trkpt lat="40.0713749" lon="-105.229789">
  <ele>1583.0</ele>
  <time>2026-09-02T20:50:23Z</time>
  <course>98.37</course>
  <speed>0.0</speed>
  <fix>3d</fix>
</trkpt>
<trkpt lat="40.0713749" lon="-105.229789">
  <ele>1583.0</ele>
  <time>2026-09-02T20:50:23Z</time>
  <course>0.0</course>
  <speed>0.0</speed>
  <fix>3d</fix>
</trkpt>
<trkpt lat="40.0713749" lon="-105.229789">
  <ele>1583.0</ele>
  <time>2026-09-02T20:50:23Z</time>
  <course>86.38</course>
  <speed>0.0</speed>
  <fix>3d</fix>
</trkpt>
<trkpt lat="40.0713749" lon="-105.229789">
  <ele>1583.0</ele>
  <time>2026-09-02T20:50:23Z</time>
  <course>0.0</course>
  <speed>0.0</speed>
  <fix>3d</fix>
</trkpt>
<trkpt lat="40.0713749" lon="-105.229789">
  <ele>1583.0</ele>
  <time>2026-09-02T20:50:23Z</time>
  <course>74.28</course>
  <speed>0.0</speed>
  <fix>3d</fix>
</trkpt>
<trkpt lat="40.0713749" lon="-105.229789">
  <ele>1583.0</ele>
  <time>2026-09-02T20:50:23Z</time>
  <course>0.0</course>
  <speed>0.0</speed>
  <fix>3d</fix>
</trkpt>
<trkpt lat="40.0713749" lon="-105.229789">
  <ele>1583.0</ele>
  <time>2026-09-02T20:50:23Z</time>
  <course>64.69</course>
  <speed>0.0</speed>
  <fix>3d</fix>
</trkpt>
<trkpt lat="40.0713749" lon="-105.229789">
  <ele>1583.0</ele>
  <time>2026-09-02T20:50:23Z</time>
  <course>0.0</course>
  <speed>0.0</speed>
  <fix>3d</fix>
</trkpt>
<trkpt lat="40.0713749" lon="-105.229789">
  <ele>1583.0</ele>
  <time>2026-09-02T20:50:23Z</time>
  <course>52.69</course>
  <speed>0.0</speed>
  <fix>3d</fix>
</trkpt>
<trkpt lat="40.0713749" lon="-105.229789">
  <ele>1583.0</ele>
  <time>2026-09-02T20:50:23Z</time>
  <course>0.0</course>
  <speed>0.0</speed>
  <fix>3d</fix>
</trkpt>
<trkpt lat="40.0713749" lon="-105.229789">
  <ele>1583.0</ele>
  <time>2026-09-02T20:50:23Z</time>
  <course>40.7</course>
  <speed>0.0</speed>
  <fix>3d</fix>
</trkpt>
<trkpt lat="40.0713749" lon="-105.229789">
  <ele>1583.0</ele>
  <time>2026-09-02T20:50:23Z</time>
  <course>0.0</course>
  <speed>0.0</speed>
  <fix>3d</fix>
</trkpt>
<trkpt lat="40.0713749" lon="-105.229789">
  <ele>1583.0</ele>
  <time>2026-09-02T20:50:23Z</time>
  <course>28.7</course>
  <speed>0.0</speed>
  <fix>3d</fix>
</trkpt>
<trkpt lat="40.0713749" lon="-105.229789">
  <ele>1583.0</ele>
  <time>2026-09-02T20:50:23Z</time>
  <course>0.0</course>
  <speed>0.0</speed>
  <fix>3d</fix>
</trkpt>
<trkpt lat="40.0713749" lon="-105.229789">
  <ele>1583.0</ele>
  <time>2026-09-02T20:50:23Z</time>
  <course>16.71</course>
  <speed>0.0</speed>
  <fix>3d</fix>
</trkpt>
<trkpt lat="40.0713749" lon="-105.229789">
  <ele>1583.0</ele>
  <time>2026-09-02T20:50:23Z</time>
  <course>0.0</course>
  <speed>0.0</speed>
  <fix>3d</fix>
</trkpt>
<trkpt lat="40.0713749" lon="-105.229789">
  <ele>1583.0</ele>
  <time>2026-09-02T20:50:23Z</time>
  <course>4.71</course>
  <speed>0.0</speed>
  <fix>3d</fix>
</trkpt>
<trkpt lat="40.0713749" lon="-105.229789">
  <ele>1583.0</ele>
  <time>2026-09-02T20:50:23Z</time>
  <course>0.0</course>
  <speed>0.0</speed>
  <fix>3d</fix>
</trkpt>
<trkpt lat="40.0713749" lon="-105.229789">
  <ele>1583.0</ele>
  <time>2026-09-02T20:50:23Z</time>
  <course>352.73</course>
  <speed>0.0</speed>
  <fix>3d</fix>
</trkpt>
<trkpt lat="40.0713749" lon="-105.229789">
  <ele>1583.0</ele>
  <time>2026-09-02T20:50:23Z</time>
  <course>0.0</course>
  <speed>0.0</speed>
  <fix>3d</fix>
</trkpt>
<trkpt lat="40.0713749" lon="-105.229789">
  <ele>1583.0</ele>
  <time>2026-09-02T20:50:23Z</time>
  <course>340.73</course>
  <speed>0.0</speed>
  <fix>3d</fix>
</trkpt>
<trkpt lat="40.0713749" lon="-105.229789">
  <ele>1583.0</ele>
  <time>2026-09-02T20:50:23Z</time>
  <course>0.0</course>
  <speed>0.0</speed>
  <fix>3d</fix>
</trkpt>
<trkpt lat="40.0713749" lon="-105.229789">
  <ele>1583.0</ele>
  <time>2026-09-02T20:50:23Z</time>
  <course>328.74</course>
  <speed>0.0</speed>
  <fix>3d</fix>
</trkpt>
<trkpt lat="40.0713749" lon="-105.229789">
  <ele>1583.0</ele>
  <time>2026-09-02T20:50:23Z</time>
  <course>0.0</course>
  <speed>0.0</speed>
  <fix>3d</fix>
</trkpt>
<trkpt lat="40.0713749" lon="-105.229789">
  <ele>1583.0</ele>
  <time>2026-09-02T20:50:23Z</time>
  <course>314.34</course>
  <speed>0.0</speed>
  <fix>3d</fix>
</trkpt>
<trkpt lat="40.0713749" lon="-105.229789">
  <ele>1583.0</ele>
  <time>2026-09-02T20:50:23Z</time>
  <course>0.0</course>
  <speed>0.0</speed>
  <fix>3d</fix>
</trkpt>
<trkpt lat="40.0713749" lon="-105.229789">
  <ele>1583.0</ele>
  <time>2026-09-02T20:50:23Z</time>
  <course>302.35</course>
  <speed>0.0</speed>
  <fix>3d</fix>
</trkpt>
<trkpt lat="40.0713749" lon="-105.229789">
  <ele>1583.0</ele>
  <time>2026-09-02T20:50:23Z</time>
  <course>0.0</course>
  <speed>0.0</speed>
  <fix>3d</fix>
</trkpt>
<trkpt lat="40.0713749" lon="-105.229789">
  <ele>1583.0</ele>
  <time>2026-09-02T20:50:23Z</time>
  <course>290.35</course>
  <speed>0.0</speed>
  <fix>3d</fix>
</trkpt>
<trkpt lat="40.0713749" lon="-105.229789">
  <ele>1583.0</ele>
  <time>2026-09-02T20:50:23Z</time>
  <course>0.0</course>
  <speed>0.0</speed>
  <fix>3d</fix>
</trkpt>
<trkpt lat="40.0713749" lon="-105.229789">
  <ele>1583.0</ele>
  <time>2026-09-02T20:50:23Z</time>
  <course>278.36</course>
  <speed>0.0</speed>
  <fix>3d</fix>
</trkpt>
<trkpt lat="40.0713749" lon="-105.229789">
  <ele>1583.0</ele>
  <time>2026-09-02T20:50:23Z</time>
  <course>0.0</course>
  <speed>0.0</speed>
  <fix>3d</fix>
</trkpt>
<trkpt lat="40.0713749" lon="-105.229789">
  <ele>1583.0</ele>
  <time>2026-09-02T20:50:23Z</time>
  <course>266.36</course>
  <speed>0.0</speed>
  <fix>3d</fix>
</trkpt>
<trkpt lat="40.0713749" lon="-105.229789">
  <ele>1583.0</ele>
  <time>2026-09-02T20:50:23Z</time>
  <course>0.0</course>
  <speed>0.0</speed>
  <fix>3d</fix>
</trkpt>
<trkpt lat="40.0713749" lon="-105.229789">
  <ele>1583.0</ele>
  <time>2026-09-02T20:50:23Z</time>
  <course>254.37</course>
  <speed>0.0</speed>
  <fix>3d</fix>
</trkpt>
<trkpt lat="40.0713749" lon="-105.229789">
  <ele>1583.0</ele>
  <time>2026-09-02T20:50:23Z</time>
  <course>0.0</course>
  <speed>0.0</speed>
  <fix>3d</fix>
</trkpt>
<trkpt lat="40.0713749" lon="-105.229789">
  <ele>1583.0</ele>
  <time>2026-09-02T20:50:23Z</time>
  <course>242.37</course>
  <speed>0.0</speed>
  <fix>3d</fix>
</trkpt>
<trkpt lat="40.0713749" lon="-105.229789">
  <ele>1583.0</ele>
  <time>2026-09-02T20:50:23Z</time>
  <course>0.0</course>
  <speed>0.0</speed>
  <fix>3d</fix>
</trkpt>
<trkpt lat="40.0713749" lon="-105.229789">
  <ele>1583.0</ele>
  <time>2026-09-02T20:50:23Z</time>
  <course>230.37</course>
  <speed>0.0</speed>
  <fix>3d</fix>
</trkpt>
<trkpt lat="40.0713749" lon="-105.229789">
  <ele>1583.0</ele>
  <time>2026-09-02T20:50:23Z</time>
  <course>0.0</course>
  <speed>0.0</speed>
  <fix>3d</fix>
</trkpt>
<trkpt lat="40.0713749" lon="-105.229789">
  <ele>1583.0</ele>
  <time>2026-09-02T20:50:23Z</time>
  <course>218.38</course>
  <speed>0.0</speed>
  <fix>3d</fix>
</trkpt>
<trkpt lat="40.0713749" lon="-105.229789">
  <ele>1583.0</ele>
  <time>2026-09-02T20:50:23Z</time>
  <course>0.0</course>
  <speed>0.0</speed>
  <fix>3d</fix>
</trkpt>
<trkpt lat="40.0713749" lon="-105.229789">
  <ele>1583.0</ele>
  <time>2026-09-02T20:50:23Z</time>
  <course>206.38</course>
  <speed>0.0</speed>
  <fix>3d</fix>
</trkpt>
<trkpt lat="40.0713749" lon="-105.229789">
  <ele>1583.0</ele>
  <time>2026-09-02T20:50:23Z</time>
  <course>0.0</course>
  <speed>0.0</speed>
  <fix>3d</fix>
</trkpt>
<trkpt lat="40.0713749" lon="-105.229789">
  <ele>1583.0</ele>
  <time>2026-09-02T20:50:23Z</time>
  <course>194.39</course>
  <speed>0.0</speed>
  <fix>3d</fix>
</trkpt>
<trkpt lat="40.0713749" lon="-105.229789">
  <ele>1583.0</ele>
  <time>2026-09-02T20:50:23Z</time>
  <course>0.0</course>
  <speed>0.0</speed>
  <fix>3d</fix>
</trkpt>
<trkpt lat="40.0713749" lon="-105.229789">
  <ele>1583.0</ele>
  <time>2026-09-02T20:50:23Z</time>
  <course>184.69</course>
  <speed>0.0</speed>
  <fix>3d</fix>
</trkpt>
<trkpt lat="40.0713749" lon="-105.229789">
  <ele>1583.0</ele>
  <time>2026-09-02T20:50:23Z</time>
  <course>0.0</course>
  <speed>0.0</speed>
  <fix>3d</fix>
</trkpt>
<trkpt lat="40.0713749" lon="-105.229789">
  <ele>1583.0</ele>
  <time>2026-09-02T20:50:23Z</time>
  <course>172.68</course>
  <speed>0.0</speed>
  <fix>3d</fix>
</trkpt>
<trkpt lat="40.0713749" lon="-105.229789">
  <ele>1583.0</ele>
  <time>2026-09-02T20:50:23Z</time>
  <course>0.0</course>
  <speed>0.0</speed>
  <fix>3d</fix>
</trkpt>
<trkpt lat="40.0713749" lon="-105.229789">
  <ele>1583.0</ele>
  <time>2026-09-02T20:50:23Z</time>
  <course>160.69</course>
  <speed>0.0</speed>
  <fix>3d</fix>
</trkpt>
<trkpt lat="40.0713749" lon="-105.229789">
  <ele>1583.0</ele>
  <time>2026-09-02T20:50:23Z</time>
  <course>0.0</course>
  <speed>0.0</speed>
  <fix>3d</fix>
</trkpt>
<trkpt lat="40.0713749" lon="-105.229789">
  <ele>1583.0</ele>
  <time>2026-09-02T20:50:23Z</time>
  <course>148.69</course>
  <speed>0.0</speed>
  <fix>3d</fix>
</trkpt>
<trkpt lat="40.0713749" lon="-105.229789">
  <ele>1583.0</ele>
  <time>2026-09-02T20:50:23Z</time>
  <course>0.0</course>
  <speed>0.0</speed>
  <fix>3d</fix>
</trkpt>
<trkpt lat="40.0713749" lon="-105.229789">
  <ele>1583.0</ele>
  <time>2026-09-02T20:50:23Z</time>
  <course>136.7</course>
  <speed>0.0</speed>
  <fix>3d</fix>
</trkpt>
<trkpt lat="40.0713749" lon="-105.229789">
  <ele>1583.0</ele>
  <time>2026-09-02T20:50:23Z</time>
  <course>0.0</course>
  <speed>0.0</speed>
  <fix>3d</fix>
</trkpt>
<trkpt lat="40.0713749" lon="-105.229789">
  <ele>1583.0</ele>
  <time>2026-09-02T20:50:23Z</time>
  <course>124.7</course>
  <speed>0.0</speed>
  <fix>3d</fix>
</trkpt>
<trkpt lat="40.0713749" lon="-105.229789">
  <ele>1583.0</ele>
  <time>2026-09-02T20:50:23Z</time>
  <course>0.0</course>
  <speed>0.0</speed>
  <fix>3d</fix>
</trkpt>
<trkpt lat="40.0713749" lon="-105.229789">
  <ele>1583.0</ele>
  <time>2026-09-02T20:50:23Z</time>
  <course>112.71</course>
  <speed>0.0</speed>
  <fix>3d</fix>
</trkpt>
<trkpt lat="40.0713749" lon="-105.229789">
  <ele>1583.0</ele>
  <time>2026-09-02T20:50:23Z</time>
  <course>0.0</course>
  <speed>0.0</speed>
  <fix>3d</fix>
</trkpt>
<trkpt lat="40.0713749" lon="-105.229789">
  <ele>1583.0</ele>
  <time>2026-09-02T20:50:23Z</time>
  <course>100.71</course>
  <speed>0.0</speed>
  <fix>3d</fix>
</trkpt>
<trkpt lat="40.0713749" lon="-105.229789">
  <ele>1583.0</ele>
  <time>2026-09-02T20:50:23Z</time>
  <course>0.0</course>
  <speed>0.0</speed>
  <fix>3d</fix>
</trkpt>
<trkpt lat="40.0713749" lon="-105.229789">
  <ele>1583.0</ele>
  <time>2026-09-02T20:50:23Z</time>
  <course>88.72</course>
  <speed>0.0</speed>
  <fix>3d</fix>
</trkpt>
<trkpt lat="40.0713749" lon="-105.229789">
  <ele>1583.0</ele>
  <time>2026-09-02T20:50:23Z</time>
  <course>0.0</course>
  <speed>0.0</speed>
  <fix>3d</fix>
</trkpt>
<trkpt lat="40.0713749" lon="-105.229789">
  <ele>1583.0</ele>
  <time>2026-09-02T20:50:23Z</time>
  <course>76.72</course>
  <speed>0.0</speed>
  <fix>3d</fix>
</trkpt>
<trkpt lat="40.0713749" lon="-105.229789">
  <ele>1583.0</ele>
  <time>2026-09-02T20:50:23Z</time>
  <course>0.0</course>
  <speed>0.0</speed>
  <fix>3d</fix>
</trkpt>
<trkpt lat="40.0713749" lon="-105.229789">
  <ele>1583.0</ele>
  <time>2026-09-02T20:50:23Z</time>
  <course>62.33</course>
  <speed>0.0</speed>
  <fix>3d</fix>
</trkpt>
<trkpt lat="40.0713749" lon="-105.229789">
  <ele>1583.0</ele>
  <time>2026-09-02T20:50:23Z</time>
  <course>0.0</course>
  <speed>0.0</speed>
  <fix>3d</fix>
</trkpt>
<trkpt lat="40.0713749" lon="-105.229789">
  <ele>1583.0</ele>
  <time>2026-09-02T20:50:23Z</time>
  <course>50.33</course>
  <speed>0.0</speed>
  <fix>3d</fix>
</trkpt>
<trkpt lat="40.0713749" lon="-105.229789">
  <ele>1583.0</ele>
  <time>2026-09-02T20:50:23Z</time>
  <course>0.0</course>
  <speed>0.0</speed>
  <fix>3d</fix>
</trkpt>
<trkpt lat="40.0713749" lon="-105.229789">
  <ele>1583.0</ele>
  <time>2026-09-02T20:50:23Z</time>
  <course>38.34</course>
  <speed>0.0</speed>
  <fix>3d</fix>
</trkpt>
<trkpt lat="40.0713749" lon="-105.229789">
  <ele>1583.0</ele>
  <time>2026-09-02T20:50:23Z</time>
  <course>0.0</course>
  <speed>0.0</speed>
  <fix>3d</fix>
</trkpt>
<trkpt lat="40.0713749" lon="-105.229789">
  <ele>1583.0</ele>
  <time>2026-09-02T20:50:23Z</time>
  <course>26.34</course>
  <speed>0.0</speed>
  <fix>3d</fix>
</trkpt>
<trkpt lat="40.0713749" lon="-105.229789">
  <ele>1583.0</ele>
  <time>2026-09-02T20:50:23Z</time>
  <course>0.0</course>
  <speed>0.0</speed>
  <fix>3d</fix>
</trkpt>
<trkpt lat="40.0713749" lon="-105.229789">
  <ele>1583.0</ele>
  <time>2026-09-02T20:50:23Z</time>
  <course>14.35</course>
  <speed>0.0</speed>
  <fix>3d</fix>
</trkpt>
<trkpt lat="40.0713749" lon="-105.229789">
  <ele>1583.0</ele>
  <time>2026-09-02T20:50:23Z</time>
  <course>0.0</course>
  <speed>0.0</speed>
  <fix>3d</fix>
</trkpt>
<trkpt lat="40.0713749" lon="-105.229789">
  <ele>1583.0</ele>
  <time>2026-09-02T20:50:23Z</time>
  <course>2.35</course>
  <speed>0.0</speed>
  <fix>3d</fix>
</trkpt>
<trkpt lat="40.0713749" lon="-105.229789">
  <ele>1583.0</ele>
  <time>2026-09-02T20:50:23Z</time>
  <course>0.0</course>
  <speed>0.0</speed>
  <fix>3d</fix>
</trkpt>
<trkpt lat="40.0713749" lon="-105.229789">
  <ele>1583.0</ele>
  <time>2026-09-02T20:50:23Z</time>
  <course>350.37</course>
  <speed>0.0</speed>
  <fix>3d</fix>
</trkpt>
<trkpt lat="40.0713749" lon="-105.229789">
  <ele>1583.0</ele>
  <time>2026-09-02T20:50:23Z</time>
  <course>0.0</course>
  <speed>0.0</speed>
  <fix>3d</fix>
</trkpt>
<trkpt lat="40.0713749" lon="-105.229789">
  <ele>1583.0</ele>
  <time>2026-09-02T20:50:23Z</time>
  <course>338.37</course>
  <speed>0.0</speed>
  <fix>3d</fix>
</trkpt>
<trkpt lat="40.0713749" lon="-105.229789">
  <ele>1583.0</ele>
  <time>2026-09-02T20:50:23Z</time>
  <course>0.0</course>
  <speed>0.0</speed>
  <fix>3d</fix>
</trkpt>
<trkpt lat="40.0713749" lon="-105.229789">
  <ele>1583.0</ele>
  <time>2026-09-02T20:50:23Z</time>
  <course>326.38</course>
  <speed>0.0</speed>
  <fix>3d</fix>
</trkpt>
<trkpt lat="40.0713749" lon="-105.229789">
  <ele>1583.0</ele>
  <time>2026-09-02T20:50:23Z</time>
  <course>0.0</course>
  <speed>0.0</speed>
  <fix>3d</fix>
</trkpt>
<trkpt lat="40.0713749" lon="-105.229789">
  <ele>1583.0</ele>
  <time>2026-09-02T20:50:23Z</time>
  <course>314.38</course>
  <speed>0.0</speed>
  <fix>3d</fix>
</trkpt>
<trkpt lat="40.0713749" lon="-105.229789">
  <ele>1583.0</ele>
  <time>2026-09-02T20:50:23Z</time>
  <course>0.0</course>
  <speed>0.0</speed>
  <fix>3d</fix>
</trkpt>
<trkpt lat="40.0713749" lon="-105.229789">
  <ele>1583.0</ele>
  <time>2026-09-02T20:50:23Z</time>
  <course>302.39</course>
  <speed>0.0</speed>
  <fix>3d</fix>
</trkpt>
<trkpt lat="40.0713749" lon="-105.229789">
  <ele>1583.0</ele>
  <time>2026-09-02T20:50:23Z</time>
  <course>0.0</course>
  <speed>0.0</speed>
  <fix>3d</fix>
</trkpt>
<trkpt lat="40.0713749" lon="-105.229789">
  <ele>1583.0</ele>
  <time>2026-09-02T20:50:23Z</time>
  <course>292.69</course>
  <speed>0.0</speed>
  <fix>3d</fix>
</trkpt>
<trkpt lat="40.0713749" lon="-105.229789">
  <ele>1583.0</ele>
  <time>2026-09-02T20:50:23Z</time>
  <course>0.0</course>
  <speed>0.0</speed>
  <fix>3d</fix>
</trkpt>
<trkpt lat="40.0713749" lon="-105.229789">
  <ele>1583.0</ele>
  <time>2026-09-02T20:50:23Z</time>
  <course>280.69</course>
  <speed>0.0</speed>
  <fix>3d</fix>
</trkpt>
<trkpt lat="40.0713749" lon="-105.229789">
  <ele>1583.0</ele>
  <time>2026-09-02T20:50:23Z</time>
  <course>0.0</course>
  <speed>0.0</speed>
  <fix>3d</fix>
</trkpt>
<trkpt lat="40.0713749" lon="-105.229789">
  <ele>1583.0</ele>
  <time>2026-09-02T20:50:23Z</time>
  <course>268.7</course>
  <speed>0.0</speed>
  <fix>3d</fix>
</trkpt>
<trkpt lat="40.0713749" lon="-105.229789">
  <ele>1583.0</ele>
  <time>2026-09-02T20:50:23Z</time>
  <course>0.0</course>
  <speed>0.0</speed>
  <fix>3d</fix>
</trkpt>
<trkpt lat="40.0713749" lon="-105.229789">
  <ele>1583.0</ele>
  <time>2026-09-02T20:50:23Z</time>
  <course>256.7</course>
  <speed>0.0</speed>
  <fix>3d</fix>
</trkpt>
<trkpt lat="40.0713749" lon="-105.229789">
  <ele>1583.0</ele>
  <time>2026-09-02T20:50:23Z</time>
  <course>0.0</course>
  <speed>0.0</speed>
  <fix>3d</fix>
</trkpt>
<trkpt lat="40.0713749" lon="-105.229789">
  <ele>1583.0</ele>
  <time>2026-09-02T20:50:23Z</time>
  <course>244.71</course>
  <speed>0.0</speed>
  <fix>3d</fix>
</trkpt>
<trkpt lat="40.0713749" lon="-105.229789">
  <ele>1583.0</ele>
  <time>2026-09-02T20:50:23Z</time>
  <course>0.0</course>
  <speed>0.0</speed>
  <fix>3d</fix>
</trkpt>
<trkpt lat="40.0713749" lon="-105.229789">
  <ele>1583.0</ele>
  <time>2026-09-02T20:50:23Z</time>
  <course>232.71</course>
  <speed>0.0</speed>
  <fix>3d</fix>
</trkpt>
<trkpt lat="40.0713749" lon="-105.229789">
  <ele>1583.0</ele>
  <time>2026-09-02T20:50:23Z</time>
  <course>0.0</course>
  <speed>0.0</speed>
  <fix>3d</fix>
</trkpt>
<trkpt lat="40.0713749" lon="-105.229789">
  <ele>1583.0</ele>
  <time>2026-09-02T20:50:23Z</time>
  <course>220.72</course>
  <speed>0.0</speed>
  <fix>3d</fix>
</trkpt>
<trkpt lat="40.0713749" lon="-105.229789">
  <ele>1583.0</ele>
  <time>2026-09-02T20:50:23Z</time>
  <course>0.0</course>
  <speed>0.0</speed>
  <fix>3d</fix>
</trkpt>
<trkpt lat="40.0713749" lon="-105.229789">
  <ele>1583.0</ele>
  <time>2026-09-02T20:50:23Z</time>
  <course>208.72</course>
  <speed>0.0</speed>
  <fix>3d</fix>
</trkpt>
<trkpt lat="40.0713749" lon="-105.229789">
  <ele>1583.0</ele>
  <time>2026-09-02T20:50:23Z</time>
  <course>0.0</course>
  <speed>0.0</speed>
  <fix>3d</fix>
</trkpt>
<trkpt lat="40.0713749" lon="-105.229789">
  <ele>1583.0</ele>
  <time>2026-09-02T20:50:23Z</time>
  <course>196.73</course>
  <speed>0.0</speed>
  <fix>3d</fix>
</trkpt>
<trkpt lat="40.0713749" lon="-105.229789">
  <ele>1583.0</ele>
  <time>2026-09-02T20:50:23Z</time>
  <course>0.0</course>
  <speed>0.0</speed>
  <fix>3d</fix>
</trkpt>
<trkpt lat="40.0713749" lon="-105.229789">
  <ele>1583.0</ele>
  <time>2026-09-02T20:50:23Z</time>
  <course>184.73</course>
  <speed>0.0</speed>
  <fix>3d</fix>
</trkpt>
<trkpt lat="40.0713749" lon="-105.229789">
  <ele>1583.0</ele>
  <time>2026-09-02T20:50:23Z</time>
  <course>0.0</course>
  <speed>0.0</speed>
  <fix>3d</fix>
</trkpt>
<trkpt lat="40.0713749" lon="-105.229789">
  <ele>1583.0</ele>
  <time>2026-09-02T20:50:23Z</time>
  <course>170.32</course>
  <speed>0.0</speed>
  <fix>3d</fix>
</trkpt>
<trkpt lat="40.0713749" lon="-105.229789">
  <ele>1583.0</ele>
  <time>2026-09-02T20:50:23Z</time>
  <course>0.0</course>
  <speed>0.0</speed>
  <fix>3d</fix>
</trkpt>
<trkpt lat="40.0713749" lon="-105.229789">
  <ele>1583.0</ele>
  <time>2026-09-02T20:50:23Z</time>
  <course>158.33</course>
  <speed>0.0</speed>
  <fix>3d</fix>
</trkpt>
<trkpt lat="40.0713749" lon="-105.229789">
  <ele>1583.0</ele>
  <time>2026-09-02T20:50:23Z</time>
  <course>0.0</course>
  <speed>0.0</speed>
  <fix>3d</fix>
</trkpt>
<trkpt lat="40.0713749" lon="-105.229789">
  <ele>1583.0</ele>
  <time>2026-09-02T20:50:23Z</time>
  <course>146.33</course>
  <speed>0.0</speed>
  <fix>3d</fix>
</trkpt>
<trkpt lat="40.0713749" lon="-105.229789">
  <ele>1583.0</ele>
  <time>2026-09-02T20:50:23Z</time>
  <course>0.0</course>
  <speed>0.0</speed>
  <fix>3d</fix>
</trkpt>
<trkpt lat="40.0713749" lon="-105.229789">
  <ele>1583.0</ele>
  <time>2026-09-02T20:50:23Z</time>
  <course>134.34</course>
  <speed>0.0</speed>
  <fix>3d</fix>
</trkpt>
<trkpt lat="40.0713749" lon="-105.229789">
  <ele>1583.0</ele>
  <time>2026-09-02T20:50:23Z</time>
  <course>0.0</course>
  <speed>0.0</speed>
  <fix>3d</fix>
</trkpt>
<trkpt lat="40.0713749" lon="-105.229789">
  <ele>1583.0</ele>
  <time>2026-09-02T20:50:23Z</time>
  <course>122.34</course>
  <speed>0.0</speed>
  <fix>3d</fix>
</trkpt>
<trkpt lat="40.0713749" lon="-105.229789">
  <ele>1583.0</ele>
  <time>2026-09-02T20:50:23Z</time>
  <course>0.0</course>
  <speed>0.0</speed>
  <fix>3d</fix>
</trkpt>
<trkpt lat="40.0713749" lon="-105.229789">
  <ele>1583.0</ele>
  <time>2026-09-02T20:50:23Z</time>
  <course>110.35</course>
  <speed>0.0</speed>
  <fix>3d</fix>
</trkpt>
<trkpt lat="40.0713749" lon="-105.229789">
  <ele>1583.0</ele>
  <time>2026-09-02T20:50:23Z</time>
  <course>0.0</course>
  <speed>0.0</speed>
  <fix>3d</fix>
</trkpt>
<trkpt lat="40.0713749" lon="-105.229789">
  <ele>1583.0</ele>
  <time>2026-09-02T20:50:23Z</time>
  <course>98.35</course>
  <speed>0.0</speed>
  <fix>3d</fix>
</trkpt>
<trkpt lat="40.0713749" lon="-105.229789">
  <ele>1583.0</ele>
  <time>2026-09-02T20:50:23Z</time>
  <course>0.0</course>
  <speed>0.0</speed>
  <fix>3d</fix>
</trkpt>
<trkpt lat="40.0713749" lon="-105.229789">
  <ele>1583.0</ele>
  <time>2026-09-02T20:50:23Z</time>
  <course>86.36</course>
  <speed>0.0</speed>
  <fix>3d</fix>
</trkpt>
<trkpt lat="40.0713749" lon="-105.229789">
  <ele>1583.0</ele>
  <time>2026-09-02T20:50:23Z</time>
  <course>0.0</course>
  <speed>0.0</speed>
  <fix>3d</fix>
</trkpt>
<trkpt lat="40.0713749" lon="-105.229789">
  <ele>1583.0</ele>
  <time>2026-09-02T20:50:23Z</time>
  <course>74.36</course>
  <speed>0.0</speed>
  <fix>3d</fix>
</trkpt>
<trkpt lat="40.0713749" lon="-105.229789">
  <ele>1583.0</ele>
  <time>2026-09-02T20:50:23Z</time>
  <course>0.0</course>
  <speed>0.0</speed>
  <fix>3d</fix>
</trkpt>
<trkpt lat="40.0713749" lon="-105.229789">
  <ele>1583.0</ele>
  <time>2026-09-02T20:50:23Z</time>
  <course>62.37</course>
  <speed>0.0</speed>
  <fix>3d</fix>
</trkpt>
<trkpt lat="40.0713749" lon="-105.229789">
  <ele>1583.0</ele>
  <time>2026-09-02T20:50:23Z</time>
  <course>0.0</course>
  <speed>0.0</speed>
  <fix>3d</fix>
</trkpt>
<trkpt lat="40.0713749" lon="-105.229789">
  <ele>1583.0</ele>
  <time>2026-09-02T20:50:23Z</time>
  <course>50.37</course>
  <speed>0.0</speed>
  <fix>3d</fix>
</trkpt>
<trkpt lat="40.0713749" lon="-105.229789">
  <ele>1583.0</ele>
  <time>2026-09-02T20:50:23Z</time>
  <course>0.0</course>
  <speed>0.0</speed>
  <fix>3d</fix>
</trkpt>
<trkpt lat="40.0713749" lon="-105.229789">
  <ele>1583.0</ele>
  <time>2026-09-02T20:50:23Z</time>
  <course>40.68</course>
  <speed>0.0</speed>
  <fix>3d</fix>
</trkpt>
<trkpt lat="40.0713749" lon="-105.229789">
  <ele>1583.0</ele>
  <time>2026-09-02T20:50:23Z</time>
  <course>0.0</course>
  <speed>0.0</speed>
  <fix>3d</fix>
</trkpt>
<trkpt lat="40.0713749" lon="-105.229789">
  <ele>1583.0</ele>
  <time>2026-09-02T20:50:23Z</time>
  <course>28.68</course>
  <speed>0.0</speed>
  <fix>3d</fix>
</trkpt>
<trkpt lat="40.0713749" lon="-105.229789">
  <ele>1583.0</ele>
  <time>2026-09-02T20:50:23Z</time>
  <course>0.0</course>
  <speed>0.0</speed>
  <fix>3d</fix>
</trkpt>
<trkpt lat="40.0713749" lon="-105.229789">
  <ele>1583.0</ele>
  <time>2026-09-02T20:50:23Z</time>
  <course>16.69</course>
  <speed>0.0</speed>
  <fix>3d</fix>
</trkpt>
<trkpt lat="40.0713749" lon="-105.229789">
  <ele>1583.0</ele>
  <time>2026-09-02T20:50:23Z</time>
  <course>0.0</course>
  <speed>0.0</speed>
  <fix>3d</fix>
</trkpt>
<trkpt lat="40.0713749" lon="-105.229789">
  <ele>1583.0</ele>
  <time>2026-09-02T20:50:23Z</time>
  <course>4.69</course>
  <speed>0.0</speed>
  <fix>3d</fix>
</trkpt>
<trkpt lat="40.0713749" lon="-105.229789">
  <ele>1583.0</ele>
  <time>2026-09-02T20:50:23Z</time>
  <course>0.0</course>
  <speed>0.0</speed>
  <fix>3d</fix>
</trkpt>
<trkpt lat="40.0713749" lon="-105.229789">
  <ele>1583.0</ele>
  <time>2026-09-02T20:50:23Z</time>
  <course>352.71</course>
  <speed>0.0</speed>
  <fix>3d</fix>
</trkpt>
<trkpt lat="40.0713749" lon="-105.229789">
  <ele>1583.0</ele>
  <time>2026-09-02T20:50:23Z</time>
  <course>0.0</course>
  <speed>0.0</speed>
  <fix>3d</fix>
</trkpt>
<trkpt lat="40.0713749" lon="-105.229789">
  <ele>1583.0</ele>
  <time>2026-09-02T20:50:23Z</time>
  <course>340.71</course>
  <speed>0.0</speed>
  <fix>3d</fix>
</trkpt>
<trkpt lat="40.0713749" lon="-105.229789">
  <ele>1583.0</ele>
  <time>2026-09-02T20:50:23Z</time>
  <course>0.0</course>
  <speed>0.0</speed>
  <fix>3d</fix>
</trkpt>
<trkpt lat="40.0713749" lon="-105.229789">
  <ele>1583.0</ele>
  <time>2026-09-02T20:50:23Z</time>
  <course>328.71</course>
  <speed>0.0</speed>
  <fix>3d</fix>
</trkpt>
<trkpt lat="40.0713749" lon="-105.229789">
  <ele>1583.0</ele>
  <time>2026-09-02T20:50:23Z</time>
  <course>0.0</course>
  <speed>0.0</speed>
  <fix>3d</fix>
</trkpt>
<trkpt lat="40.0713749" lon="-105.229789">
  <ele>1583.0</ele>
  <time>2026-09-02T20:50:23Z</time>
  <course>316.72</course>
  <speed>0.0</speed>
  <fix>3d</fix>
</trkpt>
<trkpt lat="40.0713749" lon="-105.229789">
  <ele>1583.0</ele>
  <time>2026-09-02T20:50:23Z</time>
  <course>0.0</course>
  <speed>0.0</speed>
  <fix>3d</fix>
</trkpt>
<trkpt lat="40.0713749" lon="-105.229789">
  <ele>1583.0</ele>
  <time>2026-09-02T20:50:23Z</time>
  <course>304.72</course>
  <speed>0.0</speed>
  <fix>3d</fix>
</trkpt>
<trkpt lat="40.0713749" lon="-105.229789">
  <ele>1583.0</ele>
  <time>2026-09-02T20:50:23Z</time>
  <course>0.0</course>
  <speed>0.0</speed>
  <fix>3d</fix>
</trkpt>
<trkpt lat="40.0713749" lon="-105.229789">
  <ele>1583.0</ele>
  <time>2026-09-02T20:50:23Z</time>
  <course>292.73</course>
  <speed>0.0</speed>
  <fix>3d</fix>
</trkpt>
<trkpt lat="40.0713749" lon="-105.229789">
  <ele>1583.0</ele>
  <time>2026-09-02T20:50:23Z</time>
  <course>0.0</course>
  <speed>0.0</speed>
  <fix>3d</fix>
</trkpt>
<trkpt lat="40.0713749" lon="-105.229789">
  <ele>1583.0</ele>
  <time>2026-09-02T20:50:23Z</time>
  <course>278.33</course>
  <speed>0.0</speed>
  <fix>3d</fix>
</trkpt>
<trkpt lat="40.0713749" lon="-105.229789">
  <ele>1583.0</ele>
  <time>2026-09-02T20:50:23Z</time>
  <course>0.0</course>
  <speed>0.0</speed>
  <fix>3d</fix>
</trkpt>
<trkpt lat="40.0713749" lon="-105.229789">
  <ele>1583.0</ele>
  <time>2026-09-02T20:50:23Z</time>
  <course>266.34</course>
  <speed>0.0</speed>
  <fix>3d</fix>
</trkpt>
<trkpt lat="40.0713749" lon="-105.229789">
  <ele>1583.0</ele>
  <time>2026-09-02T20:50:23Z</time>
  <course>0.0</course>
  <speed>0.0</speed>
  <fix>3d</fix>
</trkpt>
<trkpt lat="40.0713749" lon="-105.229789">
  <ele>1583.0</ele>
  <time>2026-09-02T20:50:23Z</time>
  <course>254.34</course>
  <speed>0.0</speed>
  <fix>3d</fix>
</trkpt>
<trkpt lat="40.0713749" lon="-105.229789">
  <ele>1583.0</ele>
  <time>2026-09-02T20:50:23Z</time>
  <course>0.0</course>
  <speed>0.0</speed>
  <fix>3d</fix>
</trkpt>
<trkpt lat="40.0713749" lon="-105.229789">
  <ele>1583.0</ele>
  <time>2026-09-02T20:50:23Z</time>
  <course>242.35</course>
  <speed>0.0</speed>
  <fix>3d</fix>
</trkpt>
<trkpt lat="40.0713749" lon="-105.229789">
  <ele>1583.0</ele>
  <time>2026-09-02T20:50:23Z</time>
  <course>0.0</course>
  <speed>0.0</speed>
  <fix>3d</fix>
</trkpt>
<trkpt lat="40.0713749" lon="-105.229789">
  <ele>1583.0</ele>
  <time>2026-09-02T20:50:23Z</time>
  <course>230.35</course>
  <speed>0.0</speed>
  <fix>3d</fix>
</trkpt>
<trkpt lat="40.0713749" lon="-105.229789">
  <ele>1583.0</ele>
  <time>2026-09-02T20:50:23Z</time>
  <course>0.0</course>
  <speed>0.0</speed>
  <fix>3d</fix>
</trkpt>
<trkpt lat="40.0713749" lon="-105.229789">
  <ele>1583.0</ele>
  <time>2026-09-02T20:50:23Z</time>
  <course>218.36</course>
  <speed>0.0</speed>
  <fix>3d</fix>
</trkpt>
<trkpt lat="40.0713749" lon="-105.229789">
  <ele>1583.0</ele>
  <time>2026-09-02T20:50:23Z</time>
  <course>0.0</course>
  <speed>0.0</speed>
  <fix>3d</fix>
</trkpt>
<trkpt lat="40.0713749" lon="-105.229789">
  <ele>1583.0</ele>
  <time>2026-09-02T20:50:23Z</time>
  <course>206.36</course>
  <speed>0.0</speed>
  <fix>3d</fix>
</trkpt>
<trkpt lat="40.0713749" lon="-105.229789">
  <ele>1583.0</ele>
  <time>2026-09-02T20:50:23Z</time>
  <course>0.0</course>
  <speed>0.0</speed>
  <fix>3d</fix>
</trkpt>
<trkpt lat="40.0713749" lon="-105.229789">
  <ele>1583.0</ele>
  <time>2026-09-02T20:50:23Z</time>
  <course>194.37</course>
  <speed>0.0</speed>
  <fix>3d</fix>
</trkpt>
<trkpt lat="40.0713749" lon="-105.229789">
  <ele>1583.0</ele>
  <time>2026-09-02T20:50:23Z</time>
  <course>0.0</course>
  <speed>0.0</speed>
  <fix>3d</fix>
</trkpt>
<trkpt lat="40.0713749" lon="-105.229789">
  <ele>1583.0</ele>
  <time>2026-09-02T20:50:23Z</time>
  <course>182.37</course>
  <speed>0.0</speed>
  <fix>3d</fix>
</trkpt>
<trkpt lat="40.0713749" lon="-105.229789">
  <ele>1583.0</ele>
  <time>2026-09-02T20:50:23Z</time>
  <course>0.0</course>
  <speed>0.0</speed>
  <fix>3d</fix>
</trkpt>
<trkpt lat="40.0713749" lon="-105.229789">
  <ele>1583.0</ele>
  <time>2026-09-02T20:50:23Z</time>
  <course>170.36</course>
  <speed>0.0</speed>
  <fix>3d</fix>
</trkpt>
<trkpt lat="40.0713749" lon="-105.229789">
  <ele>1583.0</ele>
  <time>2026-09-02T20:50:23Z</time>
  <course>0.0</course>
  <speed>0.0</speed>
  <fix>3d</fix>
</trkpt>
<trkpt lat="40.0713749" lon="-105.229789">
  <ele>1583.0</ele>
  <time>2026-09-02T20:50:23Z</time>
  <course>158.37</course>
  <speed>0.0</speed>
  <fix>3d</fix>
</trkpt>
<trkpt lat="40.0713749" lon="-105.229789">
  <ele>1583.0</ele>
  <time>2026-09-02T20:50:23Z</time>
  <course>0.0</course>
  <speed>0.0</speed>
  <fix>3d</fix>
</trkpt>
<trkpt lat="40.0713749" lon="-105.229789">
  <ele>1583.0</ele>
  <time>2026-09-02T20:50:23Z</time>
  <course>148.67</course>
  <speed>0.0</speed>
  <fix>3d</fix>
</trkpt>
<trkpt lat="40.0713749" lon="-105.229789">
  <ele>1583.0</ele>
  <time>2026-09-02T20:50:23Z</time>
  <course>0.0</course>
  <speed>0.0</speed>
  <fix>3d</fix>
</trkpt>
<trkpt lat="40.0713749" lon="-105.229789">
  <ele>1583.0</ele>
  <time>2026-09-02T20:50:23Z</time>
  <course>136.68</course>
  <speed>0.0</speed>
  <fix>3d</fix>
</trkpt>
<trkpt lat="40.0713749" lon="-105.229789">
  <ele>1583.0</ele>
  <time>2026-09-02T20:50:23Z</time>
  <course>0.0</course>
  <speed>0.0</speed>
  <fix>3d</fix>
</trkpt>
<trkpt lat="40.0713749" lon="-105.229789">
  <ele>1583.0</ele>
  <time>2026-09-02T20:50:23Z</time>
  <course>124.68</course>
  <speed>0.0</speed>
  <fix>3d</fix>
</trkpt>
<trkpt lat="40.0713749" lon="-105.229789">
  <ele>1583.0</ele>
  <time>2026-09-02T20:50:23Z</time>
  <course>0.0</course>
  <speed>0.0</speed>
  <fix>3d</fix>
</trkpt>
<trkpt lat="40.0713749" lon="-105.229789">
  <ele>1583.0</ele>
  <time>2026-09-02T20:50:23Z</time>
  <course>112.69</course>
  <speed>0.0</speed>
  <fix>3d</fix>
</trkpt>
<trkpt lat="40.0713749" lon="-105.229789">
  <ele>1583.0</ele>
  <time>2026-09-02T20:50:23Z</time>
  <course>0.0</course>
  <speed>0.0</speed>
  <fix>3d</fix>
</trkpt>
<trkpt lat="40.0713749" lon="-105.229789">
  <ele>1583.0</ele>
  <time>2026-09-02T20:50:23Z</time>
  <course>100.69</course>
  <speed>0.0</speed>
  <fix>3d</fix>
</trkpt>
<trkpt lat="40.0713749" lon="-105.229789">
  <ele>1583.0</ele>
  <time>2026-09-02T20:50:23Z</time>
  <course>0.0</course>
  <speed>0.0</speed>
  <fix>3d</fix>
</trkpt>
<trkpt lat="40.0713749" lon="-105.229789">
  <ele>1583.0</ele>
  <time>2026-09-02T20:50:23Z</time>
  <course>88.7</course>
  <speed>0.0</speed>
  <fix>3d</fix>
</trkpt>
<trkpt lat="40.0713749" lon="-105.229789">
  <ele>1583.0</ele>
  <time>2026-09-02T20:50:23Z</time>
  <course>0.0</course>
  <speed>0.0</speed>
  <fix>3d</fix>
</trkpt>
<trkpt lat="40.0713749" lon="-105.229789">
  <ele>1583.0</ele>
  <time>2026-09-02T20:50:23Z</time>
  <course>76.7</course>
  <speed>0.0</speed>
  <fix>3d</fix>
</trkpt>
<trkpt lat="40.0713749" lon="-105.229789">
  <ele>1583.0</ele>
  <time>2026-09-02T20:50:23Z</time>
  <course>0.0</course>
  <speed>0.0</speed>
  <fix>3d</fix>
</trkpt>
<trkpt lat="40.0713749" lon="-105.229789">
  <ele>1583.0</ele>
  <time>2026-09-02T20:50:23Z</time>
  <course>64.71</course>
  <speed>0.0</speed>
  <fix>3d</fix>
</trkpt>
<trkpt lat="40.0713749" lon="-105.229789">
  <ele>1583.0</ele>
  <time>2026-09-02T20:50:23Z</time>
  <course>0.0</course>
  <speed>0.0</speed>
  <fix>3d</fix>
</trkpt>
<trkpt lat="40.0713749" lon="-105.229789">
  <ele>1583.0</ele>
  <time>2026-09-02T20:50:23Z</time>
  <course>52.71</course>
  <speed>0.0</speed>
  <fix>3d</fix>
</trkpt>
<trkpt lat="40.0713749" lon="-105.229789">
  <ele>1583.0</ele>
  <time>2026-09-02T20:50:23Z</time>
  <course>0.0</course>
  <speed>0.0</speed>
  <fix>3d</fix>
</trkpt>
<trkpt lat="40.0713749" lon="-105.229789">
  <ele>1583.0</ele>
  <time>2026-09-02T20:50:23Z</time>
  <course>40.72</course>
  <speed>0.0</speed>
  <fix>3d</fix>
</trkpt>
<trkpt lat="40.0713749" lon="-105.229789">
  <ele>1583.0</ele>
  <time>2026-09-02T20:50:23Z</time>
  <course>0.0</course>
  <speed>0.0</speed>
  <fix>3d</fix>
</trkpt>
<trkpt lat="40.0713749" lon="-105.229789">
  <ele>1583.0</ele>
  <time>2026-09-02T20:50:23Z</time>
  <course>26.32</course>
  <speed>0.0</speed>
  <fix>3d</fix>
</trkpt>
<trkpt lat="40.0713749" lon="-105.229789">
  <ele>1583.0</ele>
  <time>2026-09-02T20:50:23Z</time>
  <course>0.0</course>
  <speed>0.0</speed>
  <fix>3d</fix>
</trkpt>
<trkpt lat="40.0713749" lon="-105.229789">
  <ele>1583.0</ele>
  <time>2026-09-02T20:50:23Z</time>
  <course>14.33</course>
  <speed>0.0</speed>
  <fix>3d</fix>
</trkpt>
<trkpt lat="40.0713749" lon="-105.229789">
  <ele>1583.0</ele>
  <time>2026-09-02T20:50:23Z</time>
  <course>0.0</course>
  <speed>0.0</speed>
  <fix>3d</fix>
</trkpt>
<trkpt lat="40.0713749" lon="-105.229789">
  <ele>1583.0</ele>
  <time>2026-09-02T20:50:23Z</time>
  <course>2.33</course>
  <speed>0.0</speed>
  <fix>3d</fix>
</trkpt>
<trkpt lat="40.0713749" lon="-105.229789">
  <ele>1583.0</ele>
  <time>2026-09-02T20:50:23Z</time>
  <course>0.0</course>
  <speed>0.0</speed>
  <fix>3d</fix>
</trkpt>
<trkpt lat="40.0713749" lon="-105.229789">
  <ele>1583.0</ele>
  <time>2026-09-02T20:50:23Z</time>
  <course>350.35</course>
  <speed>0.0</speed>
  <fix>3d</fix>
</trkpt>
<trkpt lat="40.0713749" lon="-105.229789">
  <ele>1583.0</ele>
  <time>2026-09-02T20:50:23Z</time>
  <course>0.0</course>
  <speed>0.0</speed>
  <fix>3d</fix>
</trkpt>
<trkpt lat="40.0713749" lon="-105.229789">
  <ele>1583.0</ele>
  <time>2026-09-02T20:50:23Z</time>
  <course>338.35</course>
  <speed>0.0</speed>
  <fix>3d</fix>
</trkpt>
<trkpt lat="40.0713749" lon="-105.229789">
  <ele>1583.0</ele>
  <time>2026-09-02T20:50:23Z</time>
  <course>0.0</course>
  <speed>0.0</speed>
  <fix>3d</fix>
</trkpt>
<trkpt lat="40.0713749" lon="-105.229789">
  <ele>1583.0</ele>
  <time>2026-09-02T20:50:23Z</time>
  <course>326.36</course>
  <speed>0.0</speed>
  <fix>3d</fix>
</trkpt>
<trkpt lat="40.0713749" lon="-105.229789">
  <ele>1583.0</ele>
  <time>2026-09-02T20:50:23Z</time>
  <course>0.0</course>
  <speed>0.0</speed>
  <fix>3d</fix>
</trkpt>
<trkpt lat="40.0713749" lon="-105.229789">
  <ele>1583.0</ele>
  <time>2026-09-02T20:50:23Z</time>
  <course>314.36</course>
  <speed>0.0</speed>
  <fix>3d</fix>
</trkpt>
<trkpt lat="40.0713749" lon="-105.229789">
  <ele>1583.0</ele>
  <time>2026-09-02T20:50:23Z</time>
  <course>0.0</course>
  <speed>0.0</speed>
  <fix>3d</fix>
</trkpt>
<trkpt lat="40.0713749" lon="-105.229789">
  <ele>1583.0</ele>
  <time>2026-09-02T20:50:23Z</time>
  <course>302.36</course>
  <speed>0.0</speed>
  <fix>3d</fix>
</trkpt>
<trkpt lat="40.0713749" lon="-105.229789">
  <ele>1583.0</ele>
  <time>2026-09-02T20:50:23Z</time>
  <course>0.0</course>
  <speed>0.0</speed>
  <fix>3d</fix>
</trkpt>
<trkpt lat="40.0713749" lon="-105.229789">
  <ele>1583.0</ele>
  <time>2026-09-02T20:50:23Z</time>
  <course>290.37</course>
  <speed>0.0</speed>
  <fix>3d</fix>
</trkpt>
<trkpt lat="40.0713749" lon="-105.229789">
  <ele>1583.0</ele>
  <time>2026-09-02T20:50:23Z</time>
  <course>0.0</course>
  <speed>0.0</speed>
  <fix>3d</fix>
</trkpt>
<trkpt lat="40.0713749" lon="-105.229789">
  <ele>1583.0</ele>
  <time>2026-09-02T20:50:23Z</time>
  <course>278.37</course>
  <speed>0.0</speed>
  <fix>3d</fix>
</trkpt>
<trkpt lat="40.0713749" lon="-105.229789">
  <ele>1583.0</ele>
  <time>2026-09-02T20:50:23Z</time>
  <course>0.0</course>
  <speed>0.0</speed>
  <fix>3d</fix>
</trkpt>
<trkpt lat="40.0713749" lon="-105.229789">
  <ele>1583.0</ele>
  <time>2026-09-02T20:50:24Z</time>
  <course>266.28</course>
  <speed>0.0</speed>
  <fix>3d</fix>
</trkpt>
<trkpt lat="40.0713749" lon="-105.229789">
  <ele>1583.0</ele>
  <time>2026-09-02T20:50:24Z</time>
  <course>0.0</course>
  <speed>0.0</speed>
  <fix>3d</fix>
</trkpt>
<trkpt lat="40.0713749" lon="-105.229789">
  <ele>1583.0</ele>
  <time>2026-09-02T20:50:24Z</time>
  <course>256.68</course>
  <speed>0.0</speed>
  <fix>3d</fix>
</trkpt>
<trkpt lat="40.0713749" lon="-105.229789">
  <ele>1583.0</ele>
  <time>2026-09-02T20:50:24Z</time>
  <course>0.0</course>
  <speed>0.0</speed>
  <fix>3d</fix>
</trkpt>
<trkpt lat="40.0713749" lon="-105.229789">
  <ele>1583.0</ele>
  <time>2026-09-02T20:50:24Z</time>
  <course>244.69</course>
  <speed>0.0</speed>
  <fix>3d</fix>
</trkpt>
<trkpt lat="40.0713749" lon="-105.229789">
  <ele>1583.0</ele>
  <time>2026-09-02T20:50:24Z</time>
  <course>0.0</course>
  <speed>0.0</speed>
  <fix>3d</fix>
</trkpt>
<trkpt lat="40.0713749" lon="-105.229789">
  <ele>1583.0</ele>
  <time>2026-09-02T20:50:24Z</time>
  <course>232.69</course>
  <speed>0.0</speed>
  <fix>3d</fix>
</trkpt>
<trkpt lat="40.0713749" lon="-105.229789">
  <ele>1583.0</ele>
  <time>2026-09-02T20:50:24Z</time>
  <course>0.0</course>
  <speed>0.0</speed>
  <fix>3d</fix>
</trkpt>
<trkpt lat="40.0713749" lon="-105.229789">
  <ele>1583.0</ele>
  <time>2026-09-02T20:50:24Z</time>
  <course>220.7</course>
  <speed>0.0</speed>
  <fix>3d</fix>
</trkpt>
<trkpt lat="40.0713749" lon="-105.229789">
  <ele>1583.0</ele>
  <time>2026-09-02T20:50:24Z</time>
  <course>0.0</course>
  <speed>0.0</speed>
  <fix>3d</fix>
</trkpt>
<trkpt lat="40.0713749" lon="-105.229789">
  <ele>1583.0</ele>
  <time>2026-09-02T20:50:24Z</time>
  <course>208.7</course>
  <speed>0.0</speed>
  <fix>3d</fix>
</trkpt>
<trkpt lat="40.0713749" lon="-105.229789">
  <ele>1583.0</ele>
  <time>2026-09-02T20:50:24Z</time>
  <course>0.0</course>
  <speed>0.0</speed>
  <fix>3d</fix>
</trkpt>
<trkpt lat="40.0713749" lon="-105.229789">
  <ele>1583.0</ele>
  <time>2026-09-02T20:50:24Z</time>
  <course>196.7</course>
  <speed>0.0</speed>
  <fix>3d</fix>
</trkpt>
<trkpt lat="40.0713749" lon="-105.229789">
  <ele>1583.0</ele>
  <time>2026-09-02T20:50:24Z</time>
  <course>0.0</course>
  <speed>0.0</speed>
  <fix>3d</fix>
</trkpt>
<trkpt lat="40.0713749" lon="-105.229789">
  <ele>1583.0</ele>
  <time>2026-09-02T20:50:24Z</time>
  <course>184.71</course>
  <speed>0.0</speed>
  <fix>3d</fix>
</trkpt>
<trkpt lat="40.0713749" lon="-105.229789">
  <ele>1583.0</ele>
  <time>2026-09-02T20:50:24Z</time>
  <course>0.0</course>
  <speed>0.0</speed>
  <fix>3d</fix>
</trkpt>
<trkpt lat="40.0713749" lon="-105.229789">
  <ele>1583.0</ele>
  <time>2026-09-02T20:50:24Z</time>
  <course>172.7</course>
  <speed>0.0</speed>
  <fix>3d</fix>
</trkpt>
<trkpt lat="40.0713749" lon="-105.229789">
  <ele>1583.0</ele>
  <time>2026-09-02T20:50:24Z</time>
  <course>0.0</course>
  <speed>0.0</speed>
  <fix>3d</fix>
</trkpt>
<trkpt lat="40.0713749" lon="-105.229789">
  <ele>1583.0</ele>
  <time>2026-09-02T20:50:24Z</time>
  <course>160.71</course>
  <speed>0.0</speed>
  <fix>3d</fix>
</trkpt>
<trkpt lat="40.0713749" lon="-105.229789">
  <ele>1583.0</ele>
  <time>2026-09-02T20:50:24Z</time>
  <course>0.0</course>
  <speed>0.0</speed>
  <fix>3d</fix>
</trkpt>
<trkpt lat="40.0713749" lon="-105.229789">
  <ele>1583.0</ele>
  <time>2026-09-02T20:50:24Z</time>
  <course>146.31</course>
  <speed>0.0</speed>
  <fix>3d</fix>
</trkpt>
<trkpt lat="40.0713749" lon="-105.229789">
  <ele>1583.0</ele>
  <time>2026-09-02T20:50:24Z</time>
  <course>0.0</course>
  <speed>0.0</speed>
  <fix>3d</fix>
</trkpt>
<trkpt lat="40.0713749" lon="-105.229789">
  <ele>1583.0</ele>
  <time>2026-09-02T20:50:24Z</time>
  <course>134.32</course>
  <speed>0.0</speed>
  <fix>3d</fix>
</trkpt>
<trkpt lat="40.0713749" lon="-105.229789">
  <ele>1583.0</ele>
  <time>2026-09-02T20:50:24Z</time>
  <course>0.0</course>
  <speed>0.0</speed>
  <fix>3d</fix>
</trkpt>
<trkpt lat="40.0713749" lon="-105.229789">
  <ele>1583.0</ele>
  <time>2026-09-02T20:50:24Z</time>
  <course>122.32</course>
  <speed>0.0</speed>
  <fix>3d</fix>
</trkpt>
<trkpt lat="40.0713749" lon="-105.229789">
  <ele>1583.0</ele>
  <time>2026-09-02T20:50:24Z</time>
  <course>0.0</course>
  <speed>0.0</speed>
  <fix>3d</fix>
</trkpt>
<trkpt lat="40.0713749" lon="-105.229789">
  <ele>1583.0</ele>
  <time>2026-09-02T20:50:24Z</time>
  <course>110.33</course>
  <speed>0.0</speed>
  <fix>3d</fix>
</trkpt>
<trkpt lat="40.0713749" lon="-105.229789">
  <ele>1583.0</ele>
  <time>2026-09-02T20:50:24Z</time>
  <course>0.0</course>
  <speed>0.0</speed>
  <fix>3d</fix>
</trkpt>
<trkpt lat="40.0713749" lon="-105.229789">
  <ele>1583.0</ele>
  <time>2026-09-02T20:50:24Z</time>
  <course>98.33</course>
  <speed>0.0</speed>
  <fix>3d</fix>
</trkpt>
<trkpt lat="40.0713749" lon="-105.229789">
  <ele>1583.0</ele>
  <time>2026-09-02T20:50:24Z</time>
  <course>0.0</course>
  <speed>0.0</speed>
  <fix>3d</fix>
</trkpt>
<trkpt lat="40.0713749" lon="-105.229789">
  <ele>1583.0</ele>
  <time>2026-09-02T20:50:24Z</time>
  <course>86.34</course>
  <speed>0.0</speed>
  <fix>3d</fix>
</trkpt>
<trkpt lat="40.0713749" lon="-105.229789">
  <ele>1583.0</ele>
  <time>2026-09-02T20:50:24Z</time>
  <course>0.0</course>
  <speed>0.0</speed>
  <fix>3d</fix>
</trkpt>
<trkpt lat="40.0713749" lon="-105.229789">
  <ele>1583.0</ele>
  <time>2026-09-02T20:50:24Z</time>
  <course>74.34</course>
  <speed>0.0</speed>
  <fix>3d</fix>
</trkpt>
<trkpt lat="40.0713749" lon="-105.229789">
  <ele>1583.0</ele>
  <time>2026-09-02T20:50:24Z</time>
  <course>0.0</course>
  <speed>0.0</speed>
  <fix>3d</fix>
</trkpt>
<trkpt lat="40.0713749" lon="-105.229789">
  <ele>1583.0</ele>
  <time>2026-09-02T20:50:24Z</time>
  <course>62.35</course>
  <speed>0.0</speed>
  <fix>3d</fix>
</trkpt>
<trkpt lat="40.0713749" lon="-105.229789">
  <ele>1583.0</ele>
  <time>2026-09-02T20:50:24Z</time>
  <course>0.0</course>
  <speed>0.0</speed>
  <fix>3d</fix>
</trkpt>
<trkpt lat="40.0713749" lon="-105.229789">
  <ele>1583.0</ele>
  <time>2026-09-02T20:50:24Z</time>
  <course>50.35</course>
  <speed>0.0</speed>
  <fix>3d</fix>
</trkpt>
<trkpt lat="40.0713749" lon="-105.229789">
  <ele>1583.0</ele>
  <time>2026-09-02T20:50:24Z</time>
  <course>0.0</course>
  <speed>0.0</speed>
  <fix>3d</fix>
</trkpt>
<trkpt lat="40.0713749" lon="-105.229789">
  <ele>1583.0</ele>
  <time>2026-09-02T20:50:24Z</time>
  <course>38.36</course>
  <speed>0.0</speed>
  <fix>3d</fix>
</trkpt>
<trkpt lat="40.0713749" lon="-105.229789">
  <ele>1583.0</ele>
  <time>2026-09-02T20:50:24Z</time>
  <course>0.0</course>
  <speed>0.0</speed>
  <fix>3d</fix>
</trkpt>
<trkpt lat="40.0713749" lon="-105.229789">
  <ele>1583.0</ele>
  <time>2026-09-02T20:50:24Z</time>
  <course>26.36</course>
  <speed>0.0</speed>
  <fix>3d</fix>
</trkpt>
<trkpt lat="40.0713749" lon="-105.229789">
  <ele>1583.0</ele>
  <time>2026-09-02T20:50:24Z</time>
  <course>0.0</course>
  <speed>0.0</speed>
  <fix>3d</fix>
</trkpt>
<trkpt lat="40.0713749" lon="-105.229789">
  <ele>1583.0</ele>
  <time>2026-09-02T20:50:24Z</time>
  <course>16.66</course>
  <speed>0.0</speed>
  <fix>3d</fix>
</trkpt>
<trkpt lat="40.0713749" lon="-105.229789">
  <ele>1583.0</ele>
  <time>2026-09-02T20:50:24Z</time>
  <course>0.0</course>
  <speed>0.0</speed>
  <fix>3d</fix>
</trkpt>
<trkpt lat="40.0713749" lon="-105.229789">
  <ele>1583.0</ele>
  <time>2026-09-02T20:50:24Z</time>
  <course>4.67</course>
  <speed>0.0</speed>
  <fix>3d</fix>
</trkpt>
<trkpt lat="40.0713749" lon="-105.229789">
  <ele>1583.0</ele>
  <time>2026-09-02T20:50:24Z</time>
  <course>0.0</course>
  <speed>0.0</speed>
  <fix>3d</fix>
</trkpt>
<trkpt lat="40.0713749" lon="-105.229789">
  <ele>1583.0</ele>
  <time>2026-09-02T20:50:24Z</time>
  <course>352.68</course>
  <speed>0.0</speed>
  <fix>3d</fix>
</trkpt>
<trkpt lat="40.0713749" lon="-105.229789">
  <ele>1583.0</ele>
  <time>2026-09-02T20:50:24Z</time>
  <course>0.0</course>
  <speed>0.0</speed>
  <fix>3d</fix>
</trkpt>
<trkpt lat="40.0713749" lon="-105.229789">
  <ele>1583.0</ele>
  <time>2026-09-02T20:50:24Z</time>
  <course>340.69</course>
  <speed>0.0</speed>
  <fix>3d</fix>
</trkpt>
<trkpt lat="40.0713749" lon="-105.229789">
  <ele>1583.0</ele>
  <time>2026-09-02T20:50:24Z</time>
  <course>0.0</course>
  <speed>0.0</speed>
  <fix>3d</fix>
</trkpt>
<trkpt lat="40.0713749" lon="-105.229789">
  <ele>1583.0</ele>
  <time>2026-09-02T20:50:24Z</time>
  <course>328.69</course>
  <speed>0.0</speed>
  <fix>3d</fix>
</trkpt>
<trkpt lat="40.0713749" lon="-105.229789">
  <ele>1583.0</ele>
  <time>2026-09-02T20:50:24Z</time>
  <course>0.0</course>
  <speed>0.0</speed>
  <fix>3d</fix>
</trkpt>
<trkpt lat="40.0713749" lon="-105.229789">
  <ele>1583.0</ele>
  <time>2026-09-02T20:50:24Z</time>
  <course>316.7</course>
  <speed>0.0</speed>
  <fix>3d</fix>
</trkpt>
<trkpt lat="40.0713749" lon="-105.229789">
  <ele>1583.0</ele>
  <time>2026-09-02T20:50:24Z</time>
  <course>0.0</course>
  <speed>0.0</speed>
  <fix>3d</fix>
</trkpt>
<trkpt lat="40.0713749" lon="-105.229789">
  <ele>1583.0</ele>
  <time>2026-09-02T20:50:24Z</time>
  <course>304.7</course>
  <speed>0.0</speed>
  <fix>3d</fix>
</trkpt>
<trkpt lat="40.0713749" lon="-105.229789">
  <ele>1583.0</ele>
  <time>2026-09-02T20:50:24Z</time>
  <course>0.0</course>
  <speed>0.0</speed>
  <fix>3d</fix>
</trkpt>
<trkpt lat="40.0713749" lon="-105.229789">
  <ele>1583.0</ele>
  <time>2026-09-02T20:50:24Z</time>
  <course>292.71</course>
  <speed>0.0</speed>
  <fix>3d</fix>
</trkpt>
<trkpt lat="40.0713749" lon="-105.229789">
  <ele>1583.0</ele>
  <time>2026-09-02T20:50:24Z</time>
  <course>0.0</course>
  <speed>0.0</speed>
  <fix>3d</fix>
</trkpt>
<trkpt lat="40.0713749" lon="-105.229789">
  <ele>1583.0</ele>
  <time>2026-09-02T20:50:24Z</time>
  <course>287.91</course>
  <speed>0.0</speed>
  <fix>3d</fix>
</trkpt>
<trkpt lat="40.0713749" lon="-105.229789">
  <ele>1583.0</ele>
  <time>2026-09-02T20:50:24Z</time>
  <course>0.0</course>
  <speed>0.0</speed>
  <fix>3d</fix>
</trkpt>
<trkpt lat="40.0713749" lon="-105.229789">
  <ele>1583.0</ele>
  <time>2026-09-02T20:50:24Z</time>
  <course>287.91</course>
  <speed>0.0</speed>
  <fix>3d</fix>
</trkpt>
<trkpt lat="40.0713749" lon="-105.229789">
  <ele>1583.0</ele>
  <time>2026-09-02T20:50:24Z</time>
  <course>0.0</course>
  <speed>0.0</speed>
  <fix>3d</fix>
</trkpt>
<trkpt lat="40.0713749" lon="-105.229789">
  <ele>1583.0</ele>
  <time>2026-09-02T20:50:24Z</time>
  <course>287.91</course>
  <speed>0.0</speed>
  <fix>3d</fix>
</trkpt>
<trkpt lat="40.0713749" lon="-105.229789">
  <ele>1583.0</ele>
  <time>2026-09-02T20:50:24Z</time>
  <course>0.0</course>
  <speed>0.0</speed>
  <fix>3d</fix>
</trkpt>
<trkpt lat="40.0713749" lon="-105.229789">
  <ele>1583.0</ele>
  <time>2026-09-02T20:50:24Z</time>
  <course>287.91</course>
  <speed>0.0</speed>
  <fix>3d</fix>
</trkpt>
<trkpt lat="40.0713749" lon="-105.229789">
  <ele>1583.0</ele>
  <time>2026-09-02T20:50:24Z</time>
  <course>0.0</course>
  <speed>0.0</speed>
  <fix>3d</fix>
</trkpt>
<trkpt lat="40.0713749" lon="-105.229789">
  <ele>1583.0</ele>
  <time>2026-09-02T20:50:24Z</time>
  <course>287.91</course>
  <speed>0.0</speed>
  <fix>3d</fix>
</trkpt>
<trkpt lat="40.0713749" lon="-105.229789">
  <ele>1583.0</ele>
  <time>2026-09-02T20:50:24Z</time>
  <course>0.0</course>
  <speed>0.0</speed>
  <fix>3d</fix>
</trkpt>
<trkpt lat="40.0713749" lon="-105.229789">
  <ele>1583.0</ele>
  <time>2026-09-02T20:50:24Z</time>
  <course>287.91</course>
  <speed>0.0</speed>
  <fix>3d</fix>
</trkpt>
<trkpt lat="40.0713749" lon="-105.229789">
  <ele>1583.0</ele>
  <time>2026-09-02T20:50:24Z</time>
  <course>0.0</course>
  <speed>0.0</speed>
  <fix>3d</fix>
</trkpt>
<trkpt lat="40.0713749" lon="-105.229789">
  <ele>1583.0</ele>
  <time>2026-09-02T20:50:24Z</time>
  <course>0.0</course>
  <speed>0.0</speed>
  <fix>3d</fix>
</trkpt>
<trkpt lat="40.0713749" lon="-105.229789">
  <ele>1583.0</ele>
  <time>2026-09-02T20:50:24Z</time>
  <course>0.0</course>
  <speed>0.0</speed>
  <fix>3d</fix>
</trkpt>
<trkpt lat="40.0713749" lon="-105.229789">
  <ele>1583.0</ele>
  <time>2026-09-02T20:50:24Z</time>
  <course>0.0</course>
  <speed>0.0</speed>
  <fix>3d</fix>
</trkpt>
<trkpt lat="40.0713749" lon="-105.229789">
  <ele>1583.0</ele>
  <time>2026-09-02T20:50:24Z</time>
  <course>0.0</course>
  <speed>0.0</speed>
  <fix>3d</fix>
</trkpt>
<trkpt lat="40.0713749" lon="-105.229789">
  <ele>1583.0</ele>
  <time>2026-09-02T20:50:24Z</time>
  <course>0.0</course>
  <speed>0.0</speed>
  <fix>3d</fix>
</trkpt>
<trkpt lat="40.0713749" lon="-105.229789">
  <ele>1583.0</ele>
  <time>2026-09-02T20:50:24Z</time>
  <course>0.0</course>
  <speed>0.0</speed>
  <fix>3d</fix>
</trkpt>
<trkpt lat="40.0713749" lon="-105.229789">
  <ele>1583.0</ele>
  <time>2026-09-02T20:50:24Z</time>
  <course>0.0</course>
  <speed>0.0</speed>
  <fix>3d</fix>
</trkpt>
<trkpt lat="40.0713749" lon="-105.229789">
  <ele>1583.0</ele>
  <time>2026-09-02T20:50:24Z</time>
  <course>0.0</course>
  <speed>0.0</speed>
  <fix>3d</fix>
</trkpt>
<trkpt lat="40.0713749" lon="-105.229789">
  <ele>1583.0</ele>
  <time>2026-09-02T20:50:24Z</time>
  <course>0.0</course>
  <speed>0.0</speed>
  <fix>3d</fix>
</trkpt>
<trkpt lat="40.0713749" lon="-105.229789">
  <ele>1583.0</ele>
  <time>2026-09-02T20:50:24Z</time>
  <course>0.0</course>
  <speed>0.0</speed>
  <fix>3d</fix>
</trkpt>
<trkpt lat="40.0713749" lon="-105.229789">
  <ele>1583.0</ele>
  <time>2026-09-02T20:50:24Z</time>
  <course>0.0</course>
  <speed>0.0</speed>
  <fix>3d</fix>
</trkpt>
<trkpt lat="40.0713749" lon="-105.229789">
  <ele>1583.0</ele>
  <time>2026-09-02T20:50:24Z</time>
  <course>0.0</course>
  <speed>0.0</speed>
  <fix>3d</fix>
</trkpt>
<trkpt lat="40.0713749" lon="-105.229789">
  <ele>1583.0</ele>
  <time>2026-09-02T20:50:24Z</time>
  <course>0.0</course>
  <speed>0.0</speed>
  <fix>3d</fix>
</trkpt>
<trkpt lat="40.0713749" lon="-105.229789">
  <ele>1583.0</ele>
  <time>2026-09-02T20:50:24Z</time>
  <course>0.0</course>
  <speed>0.0</speed>
  <fix>3d</fix>
</trkpt>
<trkpt lat="40.0713749" lon="-105.229789">
  <ele>1583.0</ele>
  <time>2026-09-02T20:50:24Z</time>
  <course>0.0</course>
  <speed>0.0</speed>
  <fix>3d</fix>
</trkpt>
<trkpt lat="40.0713749" lon="-105.229789">
  <ele>1583.0</ele>
  <time>2026-09-02T20:50:24Z</time>
  <course>0.0</course>
  <speed>0.0</speed>
  <fix>3d</fix>
</trkpt>
<trkpt lat="40.0713749" lon="-105.229789">
  <ele>1583.0</ele>
  <time>2026-09-02T20:50:24Z</time>
  <course>0.0</course>
  <speed>0.0</speed>
  <fix>3d</fix>
</trkpt>
<trkpt lat="40.0713749" lon="-105.229789">
  <ele>1583.0</ele>
  <time>2026-09-02T20:50:24Z</time>
  <course>0.0</course>
  <speed>0.0</speed>
  <fix>3d</fix>
</trkpt>
<trkpt lat="40.0713749" lon="-105.229789">
  <ele>1583.0</ele>
  <time>2026-09-02T20:50:24Z</time>
  <course>0.0</course>
  <speed>0.0</speed>
  <fix>3d</fix>
</trkpt>
<trkpt lat="40.0713749" lon="-105.229789">
  <ele>1583.0</ele>
  <time>2026-09-02T20:50:24Z</time>
  <course>0.0</course>
  <speed>0.0</speed>
  <fix>3d</fix>
</trkpt>
<trkpt lat="40.0713749" lon="-105.229789">
  <ele>1583.0</ele>
  <time>2026-09-02T20:50:24Z</time>
  <course>0.0</course>
  <speed>0.0</speed>
  <fix>3d</fix>
</trkpt>
<trkpt lat="40.0713749" lon="-105.229789">
  <ele>1583.0</ele>
  <time>2026-09-02T20:50:24Z</time>
  <course>0.0</course>
  <speed>0.0</speed>
  <fix>3d</fix>
</trkpt>
<trkpt lat="40.0713749" lon="-105.229789">
  <ele>1583.0</ele>
  <time>2026-09-02T20:50:24Z</time>
  <course>0.0</course>
  <speed>0.0</speed>
  <fix>3d</fix>
</trkpt>
<trkpt lat="40.0713749" lon="-105.229789">
  <ele>1583.0</ele>
  <time>2026-09-02T20:50:24Z</time>
  <course>0.0</course>
  <speed>0.0</speed>
  <fix>3d</fix>
</trkpt>
<trkpt lat="40.0713749" lon="-105.229789">
  <ele>1583.0</ele>
  <time>2026-09-02T20:50:24Z</time>
  <course>0.0</course>
  <speed>0.0</speed>
  <fix>3d</fix>
</trkpt>
<trkpt lat="40.0713749" lon="-105.229789">
  <ele>1583.0</ele>
  <time>2026-09-02T20:50:24Z</time>
  <course>0.0</course>
  <speed>0.0</speed>
  <fix>3d</fix>
</trkpt>
<trkpt lat="40.0713749" lon="-105.229789">
  <ele>1583.0</ele>
  <time>2026-09-02T20:50:24Z</time>
  <course>0.0</course>
  <speed>0.0</speed>
  <fix>3d</fix>
</trkpt>
<trkpt lat="40.0713749" lon="-105.229789">
  <ele>1583.0</ele>
  <time>2026-09-02T20:50:24Z</time>
  <course>0.0</course>
  <speed>0.0</speed>
  <fix>3d</fix>
</trkpt>
<trkpt lat="40.0713749" lon="-105.229789">
  <ele>1583.0</ele>
  <time>2026-09-02T20:50:24Z</time>
  <course>0.0</course>
  <speed>0.0</speed>
  <fix>3d</fix>
</trkpt>
<trkpt lat="40.0713749" lon="-105.229789">
  <ele>1583.0</ele>
  <time>2026-09-02T20:50:24Z</time>
  <course>0.0</course>
  <speed>0.0</speed>
  <fix>3d</fix>
</trkpt>
<trkpt lat="40.0713749" lon="-105.229789">
  <ele>1583.0</ele>
  <time>2026-09-02T20:50:24Z</time>
  <course>0.0</course>
  <speed>0.0</speed>
  <fix>3d</fix>
</trkpt>
<trkpt lat="40.0713749" lon="-105.229789">
  <ele>1583.0</ele>
  <time>2026-09-02T20:50:24Z</time>
  <course>0.0</course>
  <speed>0.0</speed>
  <fix>3d</fix>
</trkpt>
<trkpt lat="40.0713749" lon="-105.229789">
  <ele>1583.0</ele>
  <time>2026-09-02T20:50:24Z</time>
  <course>0.0</course>
  <speed>0.0</speed>
  <fix>3d</fix>
</trkpt>
<trkpt lat="40.0713749" lon="-105.229789">
  <ele>1583.0</ele>
  <time>2026-09-02T20:50:24Z</time>
  <course>0.0</course>
  <speed>0.0</speed>
  <fix>3d</fix>
</trkpt>
<trkpt lat="40.0713749" lon="-105.229789">
  <ele>1583.0</ele>
  <time>2026-09-02T20:50:24Z</time>
  <course>0.0</course>
  <speed>0.0</speed>
  <fix>3d</fix>
</trkpt>
<trkpt lat="40.0713749" lon="-105.229789">
  <ele>1583.0</ele>
  <time>2026-09-02T20:50:24Z</time>
  <course>0.0</course>
  <speed>0.0</speed>
  <fix>3d</fix>
</trkpt>
<trkpt lat="40.0713749" lon="-105.229789">
  <ele>1583.0</ele>
  <time>2026-09-02T20:50:24Z</time>
  <course>0.0</course>
  <speed>0.0</speed>
  <fix>3d</fix>
</trkpt>
<trkpt lat="40.0713749" lon="-105.229789">
  <ele>1583.0</ele>
  <time>2026-09-02T20:50:24Z</time>
  <course>0.0</course>
  <speed>0.0</speed>
  <fix>3d</fix>
</trkpt>
<trkpt lat="40.0713749" lon="-105.229789">
  <ele>1583.0</ele>
  <time>2026-09-02T20:50:24Z</time>
  <course>0.0</course>
  <speed>0.0</speed>
  <fix>3d</fix>
</trkpt>
<trkpt lat="40.0713749" lon="-105.229789">
  <ele>1583.0</ele>
  <time>2026-09-02T20:50:24Z</time>
  <course>0.0</course>
  <speed>0.0</speed>
  <fix>3d</fix>
</trkpt>
<trkpt lat="40.0713749" lon="-105.229789">
  <ele>1583.0</ele>
  <time>2026-09-02T20:50:24Z</time>
  <course>0.0</course>
  <speed>0.0</speed>
  <fix>3d</fix>
</trkpt>
<trkpt lat="40.0713749" lon="-105.229789">
  <ele>1583.0</ele>
  <time>2026-09-02T20:50:24Z</time>
  <course>0.0</course>
  <speed>0.0</speed>
  <fix>3d</fix>
</trkpt>
<trkpt lat="40.0713749" lon="-105.229789">
  <ele>1583.0</ele>
  <time>2026-09-02T20:50:24Z</time>
  <course>0.0</course>
  <speed>0.0</speed>
  <fix>3d</fix>
</trkpt>
<trkpt lat="40.0713749" lon="-105.229789">
  <ele>1583.0</ele>
  <time>2026-09-02T20:50:24Z</time>
  <course>0.0</course>
  <speed>0.0</speed>
  <fix>3d</fix>
</trkpt>
<trkpt lat="40.0713749" lon="-105.229789">
  <ele>1583.0</ele>
  <time>2026-09-02T20:50:24Z</time>
  <course>0.0</course>
  <speed>0.0</speed>
  <fix>3d</fix>
</trkpt>
<trkpt lat="40.0713749" lon="-105.229789">
  <ele>1583.0</ele>
  <time>2026-09-02T20:50:24Z</time>
  <course>0.0</course>
  <speed>0.0</speed>
  <fix>3d</fix>
</trkpt>
<trkpt lat="40.0713749" lon="-105.229789">
  <ele>1583.0</ele>
  <time>2026-09-02T20:50:24Z</time>
  <course>0.0</course>
  <speed>0.0</speed>
  <fix>3d</fix>
</trkpt>
<trkpt lat="40.0713749" lon="-105.229789">
  <ele>1583.0</ele>
  <time>2026-09-02T20:50:24Z</time>
  <course>0.0</course>
  <speed>0.0</speed>
  <fix>3d</fix>
</trkpt>
<trkpt lat="40.0713749" lon="-105.229789">
  <ele>1583.0</ele>
  <time>2026-09-02T20:50:24Z</time>
  <course>0.0</course>
  <speed>0.0</speed>
  <fix>3d</fix>
</trkpt>
<trkpt lat="40.0713749" lon="-105.229789">
  <ele>1583.0</ele>
  <time>2026-09-02T20:50:24Z</time>
  <course>0.0</course>
  <speed>0.0</speed>
  <fix>3d</fix>
</trkpt>
<trkpt lat="40.0713749" lon="-105.229789">
  <ele>1583.0</ele>
  <time>2026-09-02T20:50:24Z</time>
  <course>0.0</course>
  <speed>0.0</speed>
  <fix>3d</fix>
</trkpt>
<trkpt lat="40.0713749" lon="-105.229789">
  <ele>1583.0</ele>
  <time>2026-09-02T20:50:24Z</time>
  <course>0.0</course>
  <speed>0.0</speed>
  <fix>3d</fix>
</trkpt>
<trkpt lat="40.0713749" lon="-105.229789">
  <ele>1583.0</ele>
  <time>2026-09-02T20:50:24Z</time>
  <course>0.0</course>
  <speed>0.0</speed>
  <fix>3d</fix>
</trkpt>
<trkpt lat="40.0713749" lon="-105.229789">
  <ele>1583.0</ele>
  <time>2026-09-02T20:50:24Z</time>
  <course>0.0</course>
  <speed>0.0</speed>
  <fix>3d</fix>
</trkpt>
<trkpt lat="40.0713749" lon="-105.229789">
  <ele>1583.0</ele>
  <time>2026-09-02T20:50:24Z</time>
  <course>0.0</course>
  <speed>0.0</speed>
  <fix>3d</fix>
</trkpt>
<trkpt lat="40.0713749" lon="-105.229789">
  <ele>1583.0</ele>
  <time>2026-09-02T20:50:24Z</time>
  <course>0.0</course>
  <speed>0.0</speed>
  <fix>3d</fix>
</trkpt>
<trkpt lat="40.0713749" lon="-105.229789">
  <ele>1583.0</ele>
  <time>2026-09-02T20:50:24Z</time>
  <course>0.0</course>
  <speed>0.0</speed>
  <fix>3d</fix>
</trkpt>
<trkpt lat="40.0713749" lon="-105.229789">
  <ele>1583.0</ele>
  <time>2026-09-02T20:50:24Z</time>
  <course>0.0</course>
  <speed>0.0</speed>
  <fix>3d</fix>
</trkpt>
<trkpt lat="40.0713749" lon="-105.229789">
  <ele>1583.0</ele>
  <time>2026-09-02T20:50:24Z</time>
  <course>0.0</course>
  <speed>0.0</speed>
  <fix>3d</fix>
</trkpt>
<trkpt lat="40.0713749" lon="-105.229789">
  <ele>1583.0</ele>
  <time>2026-09-02T20:50:24Z</time>
  <course>0.0</course>
  <speed>0.0</speed>
  <fix>3d</fix>
</trkpt>
<trkpt lat="40.0713749" lon="-105.229789">
  <ele>1583.0</ele>
  <time>2026-09-02T20:50:24Z</time>
  <course>0.0</course>
  <speed>0.0</speed>
  <fix>3d</fix>
</trkpt>
<trkpt lat="40.0713749" lon="-105.229789">
  <ele>1583.0</ele>
  <time>2026-09-02T20:50:24Z</time>
  <course>0.0</course>
  <speed>0.0</speed>
  <fix>3d</fix>
</trkpt>
<trkpt lat="40.0713749" lon="-105.229789">
  <ele>1583.0</ele>
  <time>2026-09-02T20:50:24Z</time>
  <course>0.0</course>
  <speed>0.0</speed>
  <fix>3d</fix>
</trkpt>
<trkpt lat="40.0713749" lon="-105.229789">
  <ele>1583.0</ele>
  <time>2026-09-02T20:50:24Z</time>
  <course>0.0</course>
  <speed>0.0</speed>
  <fix>3d</fix>
</trkpt>
<trkpt lat="40.0713749" lon="-105.229789">
  <ele>1583.0</ele>
  <time>2026-09-02T20:50:24Z</time>
  <course>0.0</course>
  <speed>0.0</speed>
  <fix>3d</fix>
</trkpt>
<trkpt lat="40.0713749" lon="-105.229789">
  <ele>1583.0</ele>
  <time>2026-09-02T20:50:24Z</time>
  <course>0.0</course>
  <speed>0.0</speed>
  <fix>3d</fix>
</trkpt>
<trkpt lat="40.0713749" lon="-105.229789">
  <ele>1583.0</ele>
  <time>2026-09-02T20:50:24Z</time>
  <course>0.0</course>
  <speed>0.0</speed>
  <fix>3d</fix>
</trkpt>
<trkpt lat="40.0713749" lon="-105.229789">
  <ele>1583.0</ele>
  <time>2026-09-02T20:50:24Z</time>
  <course>0.0</course>
  <speed>0.0</speed>
  <fix>3d</fix>
</trkpt>
<trkpt lat="40.0713749" lon="-105.229789">
  <ele>1583.0</ele>
  <time>2026-09-02T20:50:24Z</time>
  <course>0.0</course>
  <speed>0.0</speed>
  <fix>3d</fix>
</trkpt>
<trkpt lat="40.0713749" lon="-105.229789">
  <ele>1583.0</ele>
  <time>2026-09-02T20:50:24Z</time>
  <course>0.0</course>
  <speed>0.0</speed>
  <fix>3d</fix>
</trkpt>
<trkpt lat="40.0713749" lon="-105.229789">
  <ele>1583.0</ele>
  <time>2026-09-02T20:50:24Z</time>
  <course>0.0</course>
  <speed>0.0</speed>
  <fix>3d</fix>
</trkpt>
<trkpt lat="40.0713749" lon="-105.229789">
  <ele>1583.0</ele>
  <time>2026-09-02T20:50:24Z</time>
  <course>0.0</course>
  <speed>0.0</speed>
  <fix>3d</fix>
</trkpt>
<trkpt lat="40.0713749" lon="-105.229789">
  <ele>1583.0</ele>
  <time>2026-09-02T20:50:24Z</time>
  <course>0.0</course>
  <speed>0.0</speed>
  <fix>3d</fix>
</trkpt>
<trkpt lat="40.0713749" lon="-105.229789">
  <ele>1583.0</ele>
  <time>2026-09-02T20:50:24Z</time>
  <course>0.0</course>
  <speed>0.0</speed>
  <fix>3d</fix>
</trkpt>
<trkpt lat="40.0713749" lon="-105.229789">
  <ele>1583.0</ele>
  <time>2026-09-02T20:50:24Z</time>
  <course>0.0</course>
  <speed>0.0</speed>
  <fix>3d</fix>
</trkpt>
<trkpt lat="40.0713749" lon="-105.229789">
  <ele>1583.0</ele>
  <time>2026-09-02T20:50:24Z</time>
  <course>0.0</course>
  <speed>0.0</speed>
  <fix>3d</fix>
</trkpt>
<trkpt lat="40.0713749" lon="-105.229789">
  <ele>1583.0</ele>
  <time>2026-09-02T20:50:24Z</time>
  <course>0.0</course>
  <speed>0.0</speed>
  <fix>3d</fix>
</trkpt>
<trkpt lat="40.0713749" lon="-105.229789">
  <ele>1583.0</ele>
  <time>2026-09-02T20:50:24Z</time>
  <course>0.0</course>
  <speed>0.0</speed>
  <fix>3d</fix>
</trkpt>
<trkpt lat="40.0713749" lon="-105.229789">
  <ele>1583.0</ele>
  <time>2026-09-02T20:50:24Z</time>
  <course>0.0</course>
  <speed>0.0</speed>
  <fix>3d</fix>
</trkpt>
<trkpt lat="40.0713749" lon="-105.229789">
  <ele>1583.0</ele>
  <time>2026-09-02T20:50:24Z</time>
  <course>0.0</course>
  <speed>0.0</speed>
  <fix>3d</fix>
</trkpt>
<trkpt lat="40.0713749" lon="-105.229789">
  <ele>1583.0</ele>
  <time>2026-09-02T20:50:24Z</time>
  <course>0.0</course>
  <speed>0.0</speed>
  <fix>3d</fix>
</trkpt>
<trkpt lat="40.0713749" lon="-105.229789">
  <ele>1583.0</ele>
  <time>2026-09-02T20:50:24Z</time>
  <course>0.0</course>
  <speed>0.0</speed>
  <fix>3d</fix>
</trkpt>
<trkpt lat="40.0713749" lon="-105.229789">
  <ele>1583.0</ele>
  <time>2026-09-02T20:50:24Z</time>
  <course>0.0</course>
  <speed>0.0</speed>
  <fix>3d</fix>
</trkpt>
<trkpt lat="40.0713749" lon="-105.229789">
  <ele>1583.0</ele>
  <time>2026-09-02T20:50:24Z</time>
  <course>0.0</course>
  <speed>0.0</speed>
  <fix>3d</fix>
</trkpt>
<trkpt lat="40.0713749" lon="-105.229789">
  <ele>1583.0</ele>
  <time>2026-09-02T20:50:24Z</time>
  <course>0.0</course>
  <speed>0.0</speed>
  <fix>3d</fix>
</trkpt>
<trkpt lat="40.0713749" lon="-105.229789">
  <ele>1583.0</ele>
  <time>2026-09-02T20:50:24Z</time>
  <course>0.0</course>
  <speed>0.0</speed>
  <fix>3d</fix>
</trkpt>
<trkpt lat="40.0713749" lon="-105.229789">
  <ele>1583.0</ele>
  <time>2026-09-02T20:50:24Z</time>
  <course>0.0</course>
  <speed>0.0</speed>
  <fix>3d</fix>
</trkpt>
<trkpt lat="40.0713749" lon="-105.229789">
  <ele>1583.0</ele>
  <time>2026-09-02T20:50:24Z</time>
  <course>0.0</course>
  <speed>0.0</speed>
  <fix>3d</fix>
</trkpt>
<trkpt lat="40.0713749" lon="-105.229789">
  <ele>1583.0</ele>
  <time>2026-09-02T20:50:24Z</time>
  <course>0.0</course>
  <speed>0.0</speed>
  <fix>3d</fix>
</trkpt>
<trkpt lat="40.0713749" lon="-105.229789">
  <ele>1583.0</ele>
  <time>2026-09-02T20:50:24Z</time>
  <course>0.0</course>
  <speed>0.0</speed>
  <fix>3d</fix>
</trkpt>
<trkpt lat="40.0713749" lon="-105.229789">
  <ele>1583.0</ele>
  <time>2026-09-02T20:50:24Z</time>
  <course>0.0</course>
  <speed>0.0</speed>
  <fix>3d</fix>
</trkpt>
<trkpt lat="40.0713749" lon="-105.229789">
  <ele>1583.0</ele>
  <time>2026-09-02T20:50:24Z</time>
  <course>0.0</course>
  <speed>0.0</speed>
  <fix>3d</fix>
</trkpt>
<trkpt lat="40.0713749" lon="-105.229789">
  <ele>1583.0</ele>
  <time>2026-09-02T20:50:24Z</time>
  <course>0.0</course>
  <speed>0.0</speed>
  <fix>3d</fix>
</trkpt>
<trkpt lat="40.0713749" lon="-105.229789">
  <ele>1583.0</ele>
  <time>2026-09-02T20:50:24Z</time>
  <course>0.0</course>
  <speed>0.0</speed>
  <fix>3d</fix>
</trkpt>
<trkpt lat="40.0713749" lon="-105.229789">
  <ele>1583.0</ele>
  <time>2026-09-02T20:50:24Z</time>
  <course>0.0</course>
  <speed>0.0</speed>
  <fix>3d</fix>
</trkpt>
<trkpt lat="40.0713749" lon="-105.229789">
  <ele>1583.0</ele>
  <time>2026-09-02T20:50:24Z</time>
  <course>0.0</course>
  <speed>0.0</speed>
  <fix>3d</fix>
</trkpt>
<trkpt lat="40.0713749" lon="-105.229789">
  <ele>1583.0</ele>
  <time>2026-09-02T20:50:24Z</time>
  <course>0.0</course>
  <speed>0.0</speed>
  <fix>3d</fix>
</trkpt>
<trkpt lat="40.0713749" lon="-105.229789">
  <ele>1583.0</ele>
  <time>2026-09-02T20:50:24Z</time>
  <course>0.0</course>
  <speed>0.0</speed>
  <fix>3d</fix>
</trkpt>
<trkpt lat="40.0713749" lon="-105.229789">
  <ele>1583.0</ele>
  <time>2026-09-02T20:50:24Z</time>
  <course>0.0</course>
  <speed>0.0</speed>
  <fix>3d</fix>
</trkpt>
<trkpt lat="40.0713749" lon="-105.229789">
  <ele>1583.0</ele>
  <time>2026-09-02T20:50:24Z</time>
  <course>0.0</course>
  <speed>0.0</speed>
  <fix>3d</fix>
</trkpt>
<trkpt lat="40.0713749" lon="-105.229789">
  <ele>1583.0</ele>
  <time>2026-09-02T20:50:24Z</time>
  <course>0.0</course>
  <speed>0.0</speed>
  <fix>3d</fix>
</trkpt>
<trkpt lat="40.0713749" lon="-105.229789">
  <ele>1583.0</ele>
  <time>2026-09-02T20:50:24Z</time>
  <course>0.0</course>
  <speed>0.0</speed>
  <fix>3d</fix>
</trkpt>
<trkpt lat="40.0713749" lon="-105.229789">
  <ele>1583.0</ele>
  <time>2026-09-02T20:50:24Z</time>
  <course>0.0</course>
  <speed>0.0</speed>
  <fix>3d</fix>
</trkpt>
<trkpt lat="40.0713749" lon="-105.229789">
  <ele>1583.0</ele>
  <time>2026-09-02T20:50:24Z</time>
  <course>0.0</course>
  <speed>0.0</speed>
  <fix>3d</fix>
</trkpt>
<trkpt lat="40.0713749" lon="-105.229789">
  <ele>1583.0</ele>
  <time>2026-09-02T20:50:24Z</time>
  <course>0.0</course>
  <speed>0.0</speed>
  <fix>3d</fix>
</trkpt>
<trkpt lat="40.0713749" lon="-105.229789">
  <ele>1583.0</ele>
  <time>2026-09-02T20:50:24Z</time>
  <course>0.0</course>
  <speed>0.0</speed>
  <fix>3d</fix>
</trkpt>
<trkpt lat="40.0713749" lon="-105.229789">
  <ele>1583.0</ele>
  <time>2026-09-02T20:50:24Z</time>
  <course>0.0</course>
  <speed>0.0</speed>
  <fix>3d</fix>
</trkpt>
<trkpt lat="40.0713749" lon="-105.229789">
  <ele>1583.0</ele>
  <time>2026-09-02T20:50:24Z</time>
  <course>0.0</course>
  <speed>0.0</speed>
  <fix>3d</fix>
</trkpt>
<trkpt lat="40.0713749" lon="-105.229789">
  <ele>1583.0</ele>
  <time>2026-09-02T20:50:24Z</time>
  <course>0.0</course>
  <speed>0.0</speed>
  <fix>3d</fix>
</trkpt>
<trkpt lat="40.0713749" lon="-105.229789">
  <ele>1583.0</ele>
  <time>2026-09-02T20:50:24Z</time>
  <course>0.0</course>
  <speed>0.0</speed>
  <fix>3d</fix>
</trkpt>
<trkpt lat="40.0713749" lon="-105.229789">
  <ele>1583.0</ele>
  <time>2026-09-02T20:50:24Z</time>
  <course>0.0</course>
  <speed>0.0</speed>
  <fix>3d</fix>
</trkpt>
<trkpt lat="40.0713749" lon="-105.229789">
  <ele>1583.0</ele>
  <time>2026-09-02T20:50:24Z</time>
  <course>0.0</course>
  <speed>0.0</speed>
  <fix>3d</fix>
</trkpt>
<trkpt lat="40.0713749" lon="-105.229789">
  <ele>1583.0</ele>
  <time>2026-09-02T20:50:24Z</time>
  <course>0.0</course>
  <speed>0.0</speed>
  <fix>3d</fix>
</trkpt>
<trkpt lat="40.0713749" lon="-105.229789">
  <ele>1583.0</ele>
  <time>2026-09-02T20:50:24Z</time>
  <course>0.0</course>
  <speed>0.0</speed>
  <fix>3d</fix>
</trkpt>
<trkpt lat="40.0713749" lon="-105.229789">
  <ele>1583.0</ele>
  <time>2026-09-02T20:50:24Z</time>
  <course>0.0</course>
  <speed>0.0</speed>
  <fix>3d</fix>
</trkpt>
<trkpt lat="40.0713749" lon="-105.229789">
  <ele>1583.0</ele>
  <time>2026-09-02T20:50:24Z</time>
  <course>0.0</course>
  <speed>0.0</speed>
  <fix>3d</fix>
</trkpt>
<trkpt lat="40.0713749" lon="-105.229789">
  <ele>1583.0</ele>
  <time>2026-09-02T20:50:24Z</time>
  <course>0.0</course>
  <speed>0.0</speed>
  <fix>3d</fix>
</trkpt>
<trkpt lat="40.0713749" lon="-105.229789">
  <ele>1583.0</ele>
  <time>2026-09-02T20:50:24Z</time>
  <course>0.0</course>
  <speed>0.0</speed>
  <fix>3d</fix>
</trkpt>
<trkpt lat="40.0713749" lon="-105.229789">
  <ele>1583.0</ele>
  <time>2026-09-02T20:50:24Z</time>
  <course>0.0</course>
  <speed>0.0</speed>
  <fix>3d</fix>
</trkpt>
<trkpt lat="40.0713749" lon="-105.229789">
  <ele>1583.0</ele>
  <time>2026-09-02T20:50:24Z</time>
  <course>0.0</course>
  <speed>0.0</speed>
  <fix>3d</fix>
</trkpt>
<trkpt lat="40.0713749" lon="-105.229789">
  <ele>1583.0</ele>
  <time>2026-09-02T20:50:24Z</time>
  <course>0.0</course>
  <speed>0.0</speed>
  <fix>3d</fix>
</trkpt>
<trkpt lat="40.0713749" lon="-105.229789">
  <ele>1583.0</ele>
  <time>2026-09-02T20:50:24Z</time>
  <course>0.0</course>
  <speed>0.0</speed>
  <fix>3d</fix>
</trkpt>
<trkpt lat="40.0713749" lon="-105.229789">
  <ele>1583.0</ele>
  <time>2026-09-02T20:50:24Z</time>
  <course>0.0</course>
  <speed>0.0</speed>
  <fix>3d</fix>
</trkpt>
<trkpt lat="40.0713749" lon="-105.229789">
  <ele>1583.0</ele>
  <time>2026-09-02T20:50:24Z</time>
  <course>0.0</course>
  <speed>0.0</speed>
  <fix>3d</fix>
</trkpt>
<trkpt lat="40.0713749" lon="-105.229789">
  <ele>1583.0</ele>
  <time>2026-09-02T20:50:24Z</time>
  <course>0.0</course>
  <speed>0.0</speed>
  <fix>3d</fix>
</trkpt>
<trkpt lat="40.0713749" lon="-105.229789">
  <ele>1583.0</ele>
  <time>2026-09-02T20:50:24Z</time>
  <course>0.0</course>
  <speed>0.0</speed>
  <fix>3d</fix>
</trkpt>
<trkpt lat="40.0713749" lon="-105.229789">
  <ele>1583.0</ele>
  <time>2026-09-02T20:50:24Z</time>
  <course>0.0</course>
  <speed>0.0</speed>
  <fix>3d</fix>
</trkpt>
<trkpt lat="40.0713749" lon="-105.229789">
  <ele>1583.0</ele>
  <time>2026-09-02T20:50:24Z</time>
  <course>0.0</course>
  <speed>0.0</speed>
  <fix>3d</fix>
</trkpt>
<trkpt lat="40.0713749" lon="-105.229789">
  <ele>1583.0</ele>
  <time>2026-09-02T20:50:24Z</time>
  <course>0.0</course>
  <speed>0.0</speed>
  <fix>3d</fix>
</trkpt>
<trkpt lat="40.0713749" lon="-105.229789">
  <ele>1583.0</ele>
  <time>2026-09-02T20:50:24Z</time>
  <course>0.0</course>
  <speed>0.0</speed>
  <fix>3d</fix>
</trkpt>
<trkpt lat="40.0713749" lon="-105.229789">
  <ele>1583.0</ele>
  <time>2026-09-02T20:50:24Z</time>
  <course>0.0</course>
  <speed>0.0</speed>
  <fix>3d</fix>
</trkpt>
<trkpt lat="40.0713749" lon="-105.229789">
  <ele>1583.0</ele>
  <time>2026-09-02T20:50:24Z</time>
  <course>0.0</course>
  <speed>0.0</speed>
  <fix>3d</fix>
</trkpt>
<trkpt lat="40.0713749" lon="-105.229789">
  <ele>1583.0</ele>
  <time>2026-09-02T20:50:24Z</time>
  <course>0.0</course>
  <speed>0.0</speed>
  <fix>3d</fix>
</trkpt>
<trkpt lat="40.0713749" lon="-105.229789">
  <ele>1583.0</ele>
  <time>2026-09-02T20:50:24Z</time>
  <course>0.0</course>
  <speed>0.0</speed>
  <fix>3d</fix>
</trkpt>
<trkpt lat="40.0713749" lon="-105.229789">
  <ele>1583.0</ele>
  <time>2026-09-02T20:50:24Z</time>
  <course>0.0</course>
  <speed>0.0</speed>
  <fix>3d</fix>
</trkpt>
<trkpt lat="40.0713749" lon="-105.229789">
  <ele>1583.0</ele>
  <time>2026-09-02T20:50:24Z</time>
  <course>0.0</course>
  <speed>0.0</speed>
  <fix>3d</fix>
</trkpt>
<trkpt lat="40.0713749" lon="-105.229789">
  <ele>1583.0</ele>
  <time>2026-09-02T20:50:24Z</time>
  <course>0.0</course>
  <speed>0.0</speed>
  <fix>3d</fix>
</trkpt>
<trkpt lat="40.0713749" lon="-105.229789">
  <ele>1583.0</ele>
  <time>2026-09-02T20:50:24Z</time>
  <course>0.0</course>
  <speed>0.0</speed>
  <fix>3d</fix>
</trkpt>
<trkpt lat="40.0713749" lon="-105.229789">
  <ele>1583.0</ele>
  <time>2026-09-02T20:50:24Z</time>
  <course>0.0</course>
  <speed>0.0</speed>
  <fix>3d</fix>
</trkpt>
<trkpt lat="40.0713749" lon="-105.229789">
  <ele>1583.0</ele>
  <time>2026-09-02T20:50:24Z</time>
  <course>0.0</course>
  <speed>0.0</speed>
  <fix>3d</fix>
</trkpt>
<trkpt lat="40.0713749" lon="-105.229789">
  <ele>1583.0</ele>
  <time>2026-09-02T20:50:24Z</time>
  <course>0.0</course>
  <speed>0.0</speed>
  <fix>3d</fix>
</trkpt>
<trkpt lat="40.0713749" lon="-105.229789">
  <ele>1583.0</ele>
  <time>2026-09-02T20:50:24Z</time>
  <course>0.0</course>
  <speed>0.0</speed>
  <fix>3d</fix>
</trkpt>
<trkpt lat="40.0713749" lon="-105.229789">
  <ele>1583.0</ele>
  <time>2026-09-02T20:50:24Z</time>
  <course>0.0</course>
  <speed>0.0</speed>
  <fix>3d</fix>
</trkpt>
<trkpt lat="40.0713749" lon="-105.229789">
  <ele>1583.0</ele>
  <time>2026-09-02T20:50:24Z</time>
  <course>0.0</course>
  <speed>0.0</speed>
  <fix>3d</fix>
</trkpt>
<trkpt lat="40.0713749" lon="-105.229789">
  <ele>1583.0</ele>
  <time>2026-09-02T20:50:24Z</time>
  <course>0.0</course>
  <speed>0.0</speed>
  <fix>3d</fix>
</trkpt>
<trkpt lat="40.0713749" lon="-105.229789">
  <ele>1583.0</ele>
  <time>2026-09-02T20:50:24Z</time>
  <course>0.0</course>
  <speed>0.0</speed>
  <fix>3d</fix>
</trkpt>
<trkpt lat="40.0713749" lon="-105.229789">
  <ele>1583.0</ele>
  <time>2026-09-02T20:50:24Z</time>
  <course>0.0</course>
  <speed>0.0</speed>
  <fix>3d</fix>
</trkpt>
<trkpt lat="40.0713749" lon="-105.229789">
  <ele>1583.0</ele>
  <time>2026-09-02T20:50:24Z</time>
  <course>0.0</course>
  <speed>0.0</speed>
  <fix>3d</fix>
</trkpt>
<trkpt lat="40.0713749" lon="-105.229789">
  <ele>1583.0</ele>
  <time>2026-09-02T20:50:24Z</time>
  <course>0.0</course>
  <speed>0.0</speed>
  <fix>3d</fix>
</trkpt>
<trkpt lat="40.0713749" lon="-105.229789">
  <ele>1583.0</ele>
  <time>2026-09-02T20:50:24Z</time>
  <course>0.0</course>
  <speed>0.0</speed>
  <fix>3d</fix>
</trkpt>
<trkpt lat="40.0713749" lon="-105.229789">
  <ele>1583.0</ele>
  <time>2026-09-02T20:50:24Z</time>
  <course>0.0</course>
  <speed>0.0</speed>
  <fix>3d</fix>
</trkpt>
<trkpt lat="40.0713749" lon="-105.229789">
  <ele>1583.0</ele>
  <time>2026-09-02T20:50:24Z</time>
  <course>0.0</course>
  <speed>0.0</speed>
  <fix>3d</fix>
</trkpt>
<trkpt lat="40.0713749" lon="-105.229789">
  <ele>1583.0</ele>
  <time>2026-09-02T20:50:24Z</time>
  <course>0.0</course>
  <speed>0.0</speed>
  <fix>3d</fix>
</trkpt>
<trkpt lat="40.0713749" lon="-105.229789">
  <ele>1583.0</ele>
  <time>2026-09-02T20:50:24Z</time>
  <course>0.0</course>
  <speed>0.0</speed>
  <fix>3d</fix>
</trkpt>
<trkpt lat="40.0713749" lon="-105.229789">
  <ele>1583.0</ele>
  <time>2026-09-02T20:50:24Z</time>
  <course>0.0</course>
  <speed>0.0</speed>
  <fix>3d</fix>
</trkpt>
<trkpt lat="40.0713749" lon="-105.229789">
  <ele>1583.0</ele>
  <time>2026-09-02T20:50:24Z</time>
  <course>0.0</course>
  <speed>0.0</speed>
  <fix>3d</fix>
</trkpt>
<trkpt lat="40.0713749" lon="-105.229789">
  <ele>1583.0</ele>
  <time>2026-09-02T20:50:24Z</time>
  <course>0.0</course>
  <speed>0.0</speed>
  <fix>3d</fix>
</trkpt>
<trkpt lat="40.0713749" lon="-105.229789">
  <ele>1583.0</ele>
  <time>2026-09-02T20:50:24Z</time>
  <course>0.0</course>
  <speed>0.0</speed>
  <fix>3d</fix>
</trkpt>
<trkpt lat="40.0713749" lon="-105.229789">
  <ele>1583.0</ele>
  <time>2026-09-02T20:50:24Z</time>
  <course>0.0</course>
  <speed>0.0</speed>
  <fix>3d</fix>
</trkpt>
<trkpt lat="40.0713749" lon="-105.229789">
  <ele>1583.0</ele>
  <time>2026-09-02T20:50:24Z</time>
  <course>0.0</course>
  <speed>0.0</speed>
  <fix>3d</fix>
</trkpt>
<trkpt lat="40.0713749" lon="-105.229789">
  <ele>1583.0</ele>
  <time>2026-09-02T20:50:24Z</time>
  <course>0.0</course>
  <speed>0.0</speed>
  <fix>3d</fix>
</trkpt>
<trkpt lat="40.0713749" lon="-105.229789">
  <ele>1583.0</ele>
  <time>2026-09-02T20:50:24Z</time>
  <course>0.0</course>
  <speed>0.0</speed>
  <fix>3d</fix>
</trkpt>
<trkpt lat="40.0713749" lon="-105.229789">
  <ele>1583.0</ele>
  <time>2026-09-02T20:50:24Z</time>
  <course>0.0</course>
  <speed>0.0</speed>
  <fix>3d</fix>
</trkpt>
<trkpt lat="40.0713749" lon="-105.229789">
  <ele>1583.0</ele>
  <time>2026-09-02T20:50:24Z</time>
  <course>0.0</course>
  <speed>0.0</speed>
  <fix>3d</fix>
</trkpt>
<trkpt lat="40.0713749" lon="-105.229789">
  <ele>1583.0</ele>
  <time>2026-09-02T20:50:24Z</time>
  <course>0.0</course>
  <speed>0.0</speed>
  <fix>3d</fix>
</trkpt>
<trkpt lat="40.0713749" lon="-105.229789">
  <ele>1583.0</ele>
  <time>2026-09-02T20:50:24Z</time>
  <course>0.0</course>
  <speed>0.0</speed>
  <fix>3d</fix>
</trkpt>
<trkpt lat="40.0713749" lon="-105.229789">
  <ele>1583.0</ele>
  <time>2026-09-02T20:50:24Z</time>
  <course>0.0</course>
  <speed>0.0</speed>
  <fix>3d</fix>
</trkpt>
<trkpt lat="40.0713749" lon="-105.229789">
  <ele>1583.0</ele>
  <time>2026-09-02T20:50:24Z</time>
  <course>0.0</course>
  <speed>0.0</speed>
  <fix>3d</fix>
</trkpt>
<trkpt lat="40.0713749" lon="-105.229789">
  <ele>1583.0</ele>
  <time>2026-09-02T20:50:24Z</time>
  <course>0.0</course>
  <speed>0.0</speed>
  <fix>3d</fix>
</trkpt>
<trkpt lat="40.0713749" lon="-105.229789">
  <ele>1583.0</ele>
  <time>2026-09-02T20:50:24Z</time>
  <course>0.0</course>
  <speed>0.0</speed>
  <fix>3d</fix>
</trkpt>
<trkpt lat="40.0713749" lon="-105.229789">
  <ele>1583.0</ele>
  <time>2026-09-02T20:50:24Z</time>
  <course>0.0</course>
  <speed>0.0</speed>
  <fix>3d</fix>
</trkpt>
<trkpt lat="40.0713749" lon="-105.229789">
  <ele>1583.0</ele>
  <time>2026-09-02T20:50:24Z</time>
  <course>0.0</course>
  <speed>0.0</speed>
  <fix>3d</fix>
</trkpt>
<trkpt lat="40.0713749" lon="-105.229789">
  <ele>1583.0</ele>
  <time>2026-09-02T20:50:24Z</time>
  <course>0.0</course>
  <speed>0.0</speed>
  <fix>3d</fix>
</trkpt>
<trkpt lat="40.0713749" lon="-105.229789">
  <ele>1583.0</ele>
  <time>2026-09-02T20:50:24Z</time>
  <course>0.0</course>
  <speed>0.0</speed>
  <fix>3d</fix>
</trkpt>
<trkpt lat="40.0713749" lon="-105.229789">
  <ele>1583.0</ele>
  <time>2026-09-02T20:50:24Z</time>
  <course>0.0</course>
  <speed>0.0</speed>
  <fix>3d</fix>
</trkpt>
<trkpt lat="40.0713749" lon="-105.229789">
  <ele>1583.0</ele>
  <time>2026-09-02T20:50:24Z</time>
  <course>0.0</course>
  <speed>0.0</speed>
  <fix>3d</fix>
</trkpt>
<trkpt lat="40.0713749" lon="-105.229789">
  <ele>1583.0</ele>
  <time>2026-09-02T20:50:24Z</time>
  <course>0.0</course>
  <speed>0.0</speed>
  <fix>3d</fix>
</trkpt>
<trkpt lat="40.0713749" lon="-105.229789">
  <ele>1583.0</ele>
  <time>2026-09-02T20:50:24Z</time>
  <course>0.0</course>
  <speed>0.0</speed>
  <fix>3d</fix>
</trkpt>
<trkpt lat="40.0713749" lon="-105.229789">
  <ele>1583.0</ele>
  <time>2026-09-02T20:50:24Z</time>
  <course>0.0</course>
  <speed>0.0</speed>
  <fix>3d</fix>
</trkpt>
<trkpt lat="40.0713749" lon="-105.229789">
  <ele>1583.0</ele>
  <time>2026-09-02T20:50:24Z</time>
  <course>0.0</course>
  <speed>0.0</speed>
  <fix>3d</fix>
</trkpt>
<trkpt lat="40.0713749" lon="-105.229789">
  <ele>1583.0</ele>
  <time>2026-09-02T20:50:24Z</time>
  <course>0.0</course>
  <speed>0.0</speed>
  <fix>3d</fix>
</trkpt>
<trkpt lat="40.0713749" lon="-105.229789">
  <ele>1583.0</ele>
  <time>2026-09-02T20:50:24Z</time>
  <course>0.0</course>
  <speed>0.0</speed>
  <fix>3d</fix>
</trkpt>
<trkpt lat="40.0713749" lon="-105.229789">
  <ele>1583.0</ele>
  <time>2026-09-02T20:50:24Z</time>
  <course>0.0</course>
  <speed>0.0</speed>
  <fix>3d</fix>
</trkpt>
<trkpt lat="40.0713749" lon="-105.229789">
  <ele>1583.0</ele>
  <time>2026-09-02T20:50:24Z</time>
  <course>0.0</course>
  <speed>0.0</speed>
  <fix>3d</fix>
</trkpt>
<trkpt lat="40.0713749" lon="-105.229789">
  <ele>1583.0</ele>
  <time>2026-09-02T20:50:24Z</time>
  <course>0.0</course>
  <speed>0.0</speed>
  <fix>3d</fix>
</trkpt>
<trkpt lat="40.0713749" lon="-105.229789">
  <ele>1583.0</ele>
  <time>2026-09-02T20:50:24Z</time>
  <course>0.0</course>
  <speed>0.0</speed>
  <fix>3d</fix>
</trkpt>
<trkpt lat="40.0713749" lon="-105.229789">
  <ele>1583.0</ele>
  <time>2026-09-02T20:50:24Z</time>
  <course>0.0</course>
  <speed>0.0</speed>
  <fix>3d</fix>
</trkpt>
<trkpt lat="40.0713749" lon="-105.229789">
  <ele>1583.0</ele>
  <time>2026-09-02T20:50:24Z</time>
  <course>0.0</course>
  <speed>0.0</speed>
  <fix>3d</fix>
</trkpt>
<trkpt lat="40.0713749" lon="-105.229789">
  <ele>1583.0</ele>
  <time>2026-09-02T20:50:24Z</time>
  <course>0.0</course>
  <speed>0.0</speed>
  <fix>3d</fix>
</trkpt>
<trkpt lat="40.0713749" lon="-105.229789">
  <ele>1583.0</ele>
  <time>2026-09-02T20:50:24Z</time>
  <course>0.0</course>
  <speed>0.0</speed>
  <fix>3d</fix>
</trkpt>
<trkpt lat="40.0713749" lon="-105.229789">
  <ele>1583.0</ele>
  <time>2026-09-02T20:50:24Z</time>
  <course>0.0</course>
  <speed>0.0</speed>
  <fix>3d</fix>
</trkpt>
<trkpt lat="40.0713749" lon="-105.229789">
  <ele>1583.0</ele>
  <time>2026-09-02T20:50:24Z</time>
  <course>0.0</course>
  <speed>0.0</speed>
  <fix>3d</fix>
</trkpt>
<trkpt lat="40.0713749" lon="-105.229789">
  <ele>1583.0</ele>
  <time>2026-09-02T20:50:24Z</time>
  <course>0.0</course>
  <speed>0.0</speed>
  <fix>3d</fix>
</trkpt>
<trkpt lat="40.0713749" lon="-105.229789">
  <ele>1583.0</ele>
  <time>2026-09-02T20:50:24Z</time>
  <course>0.0</course>
  <speed>0.0</speed>
  <fix>3d</fix>
</trkpt>
<trkpt lat="40.0713749" lon="-105.229789">
  <ele>1583.0</ele>
  <time>2026-09-02T20:50:24Z</time>
  <course>0.0</course>
  <speed>0.0</speed>
  <fix>3d</fix>
</trkpt>
<trkpt lat="40.0713749" lon="-105.229789">
  <ele>1583.0</ele>
  <time>2026-09-02T20:50:24Z</time>
  <course>0.0</course>
  <speed>0.0</speed>
  <fix>3d</fix>
</trkpt>
<trkpt lat="40.0713749" lon="-105.229789">
  <ele>1583.0</ele>
  <time>2026-09-02T20:50:24Z</time>
  <course>0.0</course>
  <speed>0.0</speed>
  <fix>3d</fix>
</trkpt>
<trkpt lat="40.0713749" lon="-105.229789">
  <ele>1583.0</ele>
  <time>2026-09-02T20:50:24Z</time>
  <course>0.0</course>
  <speed>0.0</speed>
  <fix>3d</fix>
</trkpt>
<trkpt lat="40.0713749" lon="-105.229789">
  <ele>1583.0</ele>
  <time>2026-09-02T20:50:24Z</time>
  <course>0.0</course>
  <speed>0.0</speed>
  <fix>3d</fix>
</trkpt>
<trkpt lat="40.0713749" lon="-105.229789">
  <ele>1583.0</ele>
  <time>2026-09-02T20:50:24Z</time>
  <course>0.0</course>
  <speed>0.0</speed>
  <fix>3d</fix>
</trkpt>
<trkpt lat="40.0713749" lon="-105.229789">
  <ele>1583.0</ele>
  <time>2026-09-02T20:50:24Z</time>
  <course>0.0</course>
  <speed>0.0</speed>
  <fix>3d</fix>
</trkpt>
<trkpt lat="40.0713749" lon="-105.229789">
  <ele>1583.0</ele>
  <time>2026-09-02T20:50:24Z</time>
  <course>0.0</course>
  <speed>0.0</speed>
  <fix>3d</fix>
</trkpt>
<trkpt lat="40.0713749" lon="-105.229789">
  <ele>1583.0</ele>
  <time>2026-09-02T20:50:24Z</time>
  <course>0.0</course>
  <speed>0.0</speed>
  <fix>3d</fix>
</trkpt>
<trkpt lat="40.0713749" lon="-105.229789">
  <ele>1583.0</ele>
  <time>2026-09-02T20:50:24Z</time>
  <course>0.0</course>
  <speed>0.0</speed>
  <fix>3d</fix>
</trkpt>
<trkpt lat="40.0713749" lon="-105.229789">
  <ele>1583.0</ele>
  <time>2026-09-02T20:50:24Z</time>
  <course>0.0</course>
  <speed>0.0</speed>
  <fix>3d</fix>
</trkpt>
<trkpt lat="40.0713749" lon="-105.229789">
  <ele>1583.0</ele>
  <time>2026-09-02T20:50:24Z</time>
  <course>0.0</course>
  <speed>0.0</speed>
  <fix>3d</fix>
</trkpt>
<trkpt lat="40.0713749" lon="-105.229789">
  <ele>1583.0</ele>
  <time>2026-09-02T20:50:24Z</time>
  <course>359.99</course>
  <speed>0.0</speed>
  <fix>3d</fix>
</trkpt>
<trkpt lat="40.0713749" lon="-105.229789">
  <ele>1583.0</ele>
  <time>2026-09-02T20:50:24Z</time>
  <course>0.0</course>
  <speed>0.0</speed>
  <fix>3d</fix>
</trkpt>
<trkpt lat="40.0713749" lon="-105.229789">
  <ele>1583.0</ele>
  <time>2026-09-02T20:50:24Z</time>
  <course>359.98</course>
  <speed>0.0</speed>
  <fix>3d</fix>
</trkpt>
<trkpt lat="40.0713749" lon="-105.229789">
  <ele>1583.0</ele>
  <time>2026-09-02T20:50:24Z</time>
  <course>0.0</course>
  <speed>0.0</speed>
  <fix>3d</fix>
</trkpt>
<trkpt lat="40.0713749" lon="-105.229789">
  <ele>1583.0</ele>
  <time>2026-09-02T20:50:24Z</time>
  <course>359.98</course>
  <speed>0.0</speed>
  <fix>3d</fix>
</trkpt>
<trkpt lat="40.0713749" lon="-105.229789">
  <ele>1583.0</ele>
  <time>2026-09-02T20:50:24Z</time>
  <course>0.0</course>
  <speed>0.0</speed>
  <fix>3d</fix>
</trkpt>
<trkpt lat="40.0713749" lon="-105.229789">
  <ele>1583.0</ele>
  <time>2026-09-02T20:50:24Z</time>
  <course>359.97</course>
  <speed>0.0</speed>
  <fix>3d</fix>
</trkpt>
<trkpt lat="40.0713749" lon="-105.229789">
  <ele>1583.0</ele>
  <time>2026-09-02T20:50:24Z</time>
  <course>0.0</course>
  <speed>0.0</speed>
  <fix>3d</fix>
</trkpt>
<trkpt lat="40.0713749" lon="-105.229789">
  <ele>1583.0</ele>
  <time>2026-09-02T20:50:24Z</time>
  <course>359.96</course>
  <speed>0.0</speed>
  <fix>3d</fix>
</trkpt>
<trkpt lat="40.0713749" lon="-105.229789">
  <ele>1583.0</ele>
  <time>2026-09-02T20:50:24Z</time>
  <course>0.0</course>
  <speed>0.0</speed>
  <fix>3d</fix>
</trkpt>
<trkpt lat="40.0713749" lon="-105.229789">
  <ele>1583.0</ele>
  <time>2026-09-02T20:50:24Z</time>
  <course>359.94</course>
  <speed>0.0</speed>
  <fix>3d</fix>
</trkpt>
<trkpt lat="40.0713749" lon="-105.229789">
  <ele>1583.0</ele>
  <time>2026-09-02T20:50:24Z</time>
  <course>0.0</course>
  <speed>0.0</speed>
  <fix>3d</fix>
</trkpt>
<trkpt lat="40.0713749" lon="-105.229789">
  <ele>1583.0</ele>
  <time>2026-09-02T20:50:24Z</time>
  <course>359.94</course>
  <speed>0.0</speed>
  <fix>3d</fix>
</trkpt>
<trkpt lat="40.0713749" lon="-105.229789">
  <ele>1583.0</ele>
  <time>2026-09-02T20:50:24Z</time>
  <course>0.0</course>
  <speed>0.0</speed>
  <fix>3d</fix>
</trkpt>
<trkpt lat="40.0713749" lon="-105.229789">
  <ele>1583.0</ele>
  <time>2026-09-02T20:50:24Z</time>
  <course>0.0</course>
  <speed>0.0</speed>
  <fix>3d</fix>
</trkpt>
<trkpt lat="40.0713749" lon="-105.229789">
  <ele>1583.0</ele>
  <time>2026-09-02T20:50:24Z</time>
  <course>0.0</course>
  <speed>0.0</speed>
  <fix>3d</fix>
</trkpt>
<trkpt lat="40.0713749" lon="-105.229789">
  <ele>1583.0</ele>
  <time>2026-09-02T20:50:24Z</time>
  <course>0.0</course>
  <speed>0.0</speed>
  <fix>3d</fix>
</trkpt>
<trkpt lat="40.0713749" lon="-105.229789">
  <ele>1583.0</ele>
  <time>2026-09-02T20:50:24Z</time>
  <course>0.0</course>
  <speed>0.0</speed>
  <fix>3d</fix>
</trkpt>
<trkpt lat="40.0713749" lon="-105.229789">
  <ele>1583.0</ele>
  <time>2026-09-02T20:50:24Z</time>
  <course>0.0</course>
  <speed>0.0</speed>
  <fix>3d</fix>
</trkpt>
<trkpt lat="40.0713749" lon="-105.229789">
  <ele>1583.0</ele>
  <time>2026-09-02T20:50:24Z</time>
  <course>0.0</course>
  <speed>0.0</speed>
  <fix>3d</fix>
</trkpt>
<trkpt lat="40.0713749" lon="-105.229789">
  <ele>1583.0</ele>
  <time>2026-09-02T20:50:24Z</time>
  <course>0.0</course>
  <speed>0.0</speed>
  <fix>3d</fix>
</trkpt>
<trkpt lat="40.0713749" lon="-105.229789">
  <ele>1583.0</ele>
  <time>2026-09-02T20:50:24Z</time>
  <course>0.0</course>
  <speed>0.0</speed>
  <fix>3d</fix>
</trkpt>
<trkpt lat="40.0713749" lon="-105.229789">
  <ele>1583.0</ele>
  <time>2026-09-02T20:50:24Z</time>
  <course>0.0</course>
  <speed>0.0</speed>
  <fix>3d</fix>
</trkpt>
<trkpt lat="40.0713749" lon="-105.229789">
  <ele>1583.0</ele>
  <time>2026-09-02T20:50:24Z</time>
  <course>0.0</course>
  <speed>0.0</speed>
  <fix>3d</fix>
</trkpt>
<trkpt lat="40.0713749" lon="-105.229789">
  <ele>1583.0</ele>
  <time>2026-09-02T20:50:24Z</time>
  <course>0.0</course>
  <speed>0.0</speed>
  <fix>3d</fix>
</trkpt>
<trkpt lat="40.0713749" lon="-105.229789">
  <ele>1583.0</ele>
  <time>2026-09-02T20:50:24Z</time>
  <course>0.0</course>
  <speed>0.0</speed>
  <fix>3d</fix>
</trkpt>
<trkpt lat="40.0713749" lon="-105.229789">
  <ele>1583.0</ele>
  <time>2026-09-02T20:50:24Z</time>
  <course>0.0</course>
  <speed>0.0</speed>
  <fix>3d</fix>
</trkpt>
<trkpt lat="40.0713749" lon="-105.229789">
  <ele>1583.0</ele>
  <time>2026-09-02T20:50:24Z</time>
  <course>0.0</course>
  <speed>0.0</speed>
  <fix>3d</fix>
</trkpt>
<trkpt lat="40.0713749" lon="-105.229789">
  <ele>1583.0</ele>
  <time>2026-09-02T20:50:24Z</time>
  <course>0.0</course>
  <speed>0.0</speed>
  <fix>3d</fix>
</trkpt>
<trkpt lat="40.0713749" lon="-105.229789">
  <ele>1583.0</ele>
  <time>2026-09-02T20:50:24Z</time>
  <course>0.0</course>
  <speed>0.0</speed>
  <fix>3d</fix>
</trkpt>
<trkpt lat="40.0713749" lon="-105.229789">
  <ele>1583.0</ele>
  <time>2026-09-02T20:50:24Z</time>
  <course>0.0</course>
  <speed>0.0</speed>
  <fix>3d</fix>
</trkpt>
<trkpt lat="40.0713749" lon="-105.229789">
  <ele>1583.0</ele>
  <time>2026-09-02T20:50:24Z</time>
  <course>0.0</course>
  <speed>0.0</speed>
  <fix>3d</fix>
</trkpt>
<trkpt lat="40.0713749" lon="-105.229789">
  <ele>1583.0</ele>
  <time>2026-09-02T20:50:24Z</time>
  <course>0.0</course>
  <speed>0.0</speed>
  <fix>3d</fix>
</trkpt>
<trkpt lat="40.0713749" lon="-105.229789">
  <ele>1583.0</ele>
  <time>2026-09-02T20:50:24Z</time>
  <course>0.0</course>
  <speed>0.0</speed>
  <fix>3d</fix>
</trkpt>
<trkpt lat="40.0713749" lon="-105.229789">
  <ele>1583.0</ele>
  <time>2026-09-02T20:50:24Z</time>
  <course>0.0</course>
  <speed>0.0</speed>
  <fix>3d</fix>
</trkpt>
<trkpt lat="40.0713749" lon="-105.229789">
  <ele>1583.0</ele>
  <time>2026-09-02T20:50:24Z</time>
  <course>0.0</course>
  <speed>0.0</speed>
  <fix>3d</fix>
</trkpt>
<trkpt lat="40.0713749" lon="-105.229789">
  <ele>1583.0</ele>
  <time>2026-09-02T20:50:24Z</time>
  <course>0.0</course>
  <speed>0.0</speed>
  <fix>3d</fix>
</trkpt>
<trkpt lat="40.0713749" lon="-105.229789">
  <ele>1583.0</ele>
  <time>2026-09-02T20:50:24Z</time>
  <course>0.0</course>
  <speed>0.0</speed>
  <fix>3d</fix>
</trkpt>
<trkpt lat="40.0713749" lon="-105.229789">
  <ele>1583.0</ele>
  <time>2026-09-02T20:50:24Z</time>
  <course>0.0</course>
  <speed>0.0</speed>
  <fix>3d</fix>
</trkpt>
<trkpt lat="40.0713749" lon="-105.229789">
  <ele>1583.0</ele>
  <time>2026-09-02T20:50:24Z</time>
  <course>0.0</course>
  <speed>0.0</speed>
  <fix>3d</fix>
</trkpt>
<trkpt lat="40.0713749" lon="-105.229789">
  <ele>1583.0</ele>
  <time>2026-09-02T20:50:24Z</time>
  <course>0.0</course>
  <speed>0.0</speed>
  <fix>3d</fix>
</trkpt>
<trkpt lat="40.0713749" lon="-105.229789">
  <ele>1583.0</ele>
  <time>2026-09-02T20:50:24Z</time>
  <course>0.0</course>
  <speed>0.0</speed>
  <fix>3d</fix>
</trkpt>
<trkpt lat="40.0713749" lon="-105.229789">
  <ele>1583.0</ele>
  <time>2026-09-02T20:50:24Z</time>
  <course>0.0</course>
  <speed>0.0</speed>
  <fix>3d</fix>
</trkpt>
<trkpt lat="40.0713749" lon="-105.229789">
  <ele>1583.0</ele>
  <time>2026-09-02T20:50:24Z</time>
  <course>0.0</course>
  <speed>0.0</speed>
  <fix>3d</fix>
</trkpt>
<trkpt lat="40.0713749" lon="-105.229789">
  <ele>1583.0</ele>
  <time>2026-09-02T20:50:24Z</time>
  <course>0.0</course>
  <speed>0.0</speed>
  <fix>3d</fix>
</trkpt>
<trkpt lat="40.0713749" lon="-105.229789">
  <ele>1583.0</ele>
  <time>2026-09-02T20:50:24Z</time>
  <course>0.0</course>
  <speed>0.0</speed>
  <fix>3d</fix>
</trkpt>
<trkpt lat="40.0713749" lon="-105.229789">
  <ele>1583.0</ele>
  <time>2026-09-02T20:50:24Z</time>
  <course>0.0</course>
  <speed>0.0</speed>
  <fix>3d</fix>
</trkpt>
<trkpt lat="40.0713749" lon="-105.229789">
  <ele>1583.0</ele>
  <time>2026-09-02T20:50:24Z</time>
  <course>0.0</course>
  <speed>0.0</speed>
  <fix>3d</fix>
</trkpt>
<trkpt lat="40.0713749" lon="-105.229789">
  <ele>1583.0</ele>
  <time>2026-09-02T20:50:24Z</time>
  <course>0.0</course>
  <speed>0.0</speed>
  <fix>3d</fix>
</trkpt>
<trkpt lat="40.0713749" lon="-105.229789">
  <ele>1583.0</ele>
  <time>2026-09-02T20:50:24Z</time>
  <course>0.0</course>
  <speed>0.0</speed>
  <fix>3d</fix>
</trkpt>
<trkpt lat="40.0713749" lon="-105.229789">
  <ele>1583.0</ele>
  <time>2026-09-02T20:50:24Z</time>
  <course>0.0</course>
  <speed>0.0</speed>
  <fix>3d</fix>
</trkpt>
<trkpt lat="40.0713749" lon="-105.229789">
  <ele>1583.0</ele>
  <time>2026-09-02T20:50:24Z</time>
  <course>0.0</course>
  <speed>0.0</speed>
  <fix>3d</fix>
</trkpt>
<trkpt lat="40.0713749" lon="-105.229789">
  <ele>1583.0</ele>
  <time>2026-09-02T20:50:24Z</time>
  <course>0.0</course>
  <speed>0.0</speed>
  <fix>3d</fix>
</trkpt>
<trkpt lat="40.0713749" lon="-105.229789">
  <ele>1583.0</ele>
  <time>2026-09-02T20:50:24Z</time>
  <course>0.0</course>
  <speed>0.0</speed>
  <fix>3d</fix>
</trkpt>
<trkpt lat="40.0713749" lon="-105.229789">
  <ele>1583.0</ele>
  <time>2026-09-02T20:50:24Z</time>
  <course>0.0</course>
  <speed>0.0</speed>
  <fix>3d</fix>
</trkpt>
<trkpt lat="40.0713749" lon="-105.229789">
  <ele>1583.0</ele>
  <time>2026-09-02T20:50:24Z</time>
  <course>0.0</course>
  <speed>0.0</speed>
  <fix>3d</fix>
</trkpt>
<trkpt lat="40.0713749" lon="-105.229789">
  <ele>1583.0</ele>
  <time>2026-09-02T20:50:24Z</time>
  <course>0.0</course>
  <speed>0.0</speed>
  <fix>3d</fix>
</trkpt>
<trkpt lat="40.0713749" lon="-105.229789">
  <ele>1583.0</ele>
  <time>2026-09-02T20:50:24Z</time>
  <course>0.0</course>
  <speed>0.0</speed>
  <fix>3d</fix>
</trkpt>
<trkpt lat="40.0713749" lon="-105.229789">
  <ele>1583.0</ele>
  <time>2026-09-02T20:50:24Z</time>
  <course>0.0</course>
  <speed>0.0</speed>
  <fix>3d</fix>
</trkpt>
<trkpt lat="40.0713749" lon="-105.229789">
  <ele>1583.0</ele>
  <time>2026-09-02T20:50:24Z</time>
  <course>0.0</course>
  <speed>0.0</speed>
  <fix>3d</fix>
</trkpt>
<trkpt lat="40.0713749" lon="-105.229789">
  <ele>1583.0</ele>
  <time>2026-09-02T20:50:24Z</time>
  <course>0.0</course>
  <speed>0.0</speed>
  <fix>3d</fix>
</trkpt>
<trkpt lat="40.0713749" lon="-105.229789">
  <ele>1583.0</ele>
  <time>2026-09-02T20:50:24Z</time>
  <course>0.0</course>
  <speed>0.0</speed>
  <fix>3d</fix>
</trkpt>
<trkpt lat="40.0713749" lon="-105.229789">
  <ele>1583.0</ele>
  <time>2026-09-02T20:50:24Z</time>
  <course>0.0</course>
  <speed>0.0</speed>
  <fix>3d</fix>
</trkpt>
<trkpt lat="40.0713749" lon="-105.229789">
  <ele>1583.0</ele>
  <time>2026-09-02T20:50:24Z</time>
  <course>0.0</course>
  <speed>0.0</speed>
  <fix>3d</fix>
</trkpt>
<trkpt lat="40.0713749" lon="-105.229789">
  <ele>1583.0</ele>
  <time>2026-09-02T20:50:24Z</time>
  <course>0.0</course>
  <speed>0.0</speed>
  <fix>3d</fix>
</trkpt>
<trkpt lat="40.0713749" lon="-105.229789">
  <ele>1583.0</ele>
  <time>2026-09-02T20:50:24Z</time>
  <course>0.0</course>
  <speed>0.0</speed>
  <fix>3d</fix>
</trkpt>
<trkpt lat="40.0713749" lon="-105.229789">
  <ele>1583.0</ele>
  <time>2026-09-02T20:50:24Z</time>
  <course>0.0</course>
  <speed>0.0</speed>
  <fix>3d</fix>
</trkpt>
<trkpt lat="40.0713749" lon="-105.229789">
  <ele>1583.0</ele>
  <time>2026-09-02T20:50:24Z</time>
  <course>0.0</course>
  <speed>0.0</speed>
  <fix>3d</fix>
</trkpt>
<trkpt lat="40.0713749" lon="-105.229789">
  <ele>1583.0</ele>
  <time>2026-09-02T20:50:24Z</time>
  <course>0.0</course>
  <speed>0.0</speed>
  <fix>3d</fix>
</trkpt>
<trkpt lat="40.0713749" lon="-105.229789">
  <ele>1583.0</ele>
  <time>2026-09-02T20:50:24Z</time>
  <course>0.0</course>
  <speed>0.0</speed>
  <fix>3d</fix>
</trkpt>
<trkpt lat="40.0713749" lon="-105.229789">
  <ele>1583.0</ele>
  <time>2026-09-02T20:50:24Z</time>
  <course>0.0</course>
  <speed>0.0</speed>
  <fix>3d</fix>
</trkpt>
<trkpt lat="40.0713749" lon="-105.229789">
  <ele>1583.0</ele>
  <time>2026-09-02T20:50:24Z</time>
  <course>0.0</course>
  <speed>0.0</speed>
  <fix>3d</fix>
</trkpt>
<trkpt lat="40.0713749" lon="-105.229789">
  <ele>1583.0</ele>
  <time>2026-09-02T20:50:24Z</time>
  <course>0.0</course>
  <speed>0.0</speed>
  <fix>3d</fix>
</trkpt>
<trkpt lat="40.0713749" lon="-105.229789">
  <ele>1583.0</ele>
  <time>2026-09-02T20:50:24Z</time>
  <course>0.0</course>
  <speed>0.0</speed>
  <fix>3d</fix>
</trkpt>
<trkpt lat="40.0713749" lon="-105.229789">
  <ele>1583.0</ele>
  <time>2026-09-02T20:50:24Z</time>
  <course>0.0</course>
  <speed>0.0</speed>
  <fix>3d</fix>
</trkpt>
<trkpt lat="40.0713749" lon="-105.229789">
  <ele>1583.0</ele>
  <time>2026-09-02T20:50:24Z</time>
  <course>0.0</course>
  <speed>0.0</speed>
  <fix>3d</fix>
</trkpt>
<trkpt lat="40.0713749" lon="-105.229789">
  <ele>1583.0</ele>
  <time>2026-09-02T20:50:24Z</time>
  <course>0.0</course>
  <speed>0.0</speed>
  <fix>3d</fix>
</trkpt>
<trkpt lat="40.0713749" lon="-105.229789">
  <ele>1583.0</ele>
  <time>2026-09-02T20:50:24Z</time>
  <course>0.0</course>
  <speed>0.0</speed>
  <fix>3d</fix>
</trkpt>
<trkpt lat="40.0713749" lon="-105.229789">
  <ele>1583.0</ele>
  <time>2026-09-02T20:50:24Z</time>
  <course>0.0</course>
  <speed>0.0</speed>
  <fix>3d</fix>
</trkpt>
<trkpt lat="40.0713749" lon="-105.229789">
  <ele>1583.0</ele>
  <time>2026-09-02T20:50:24Z</time>
  <course>0.0</course>
  <speed>0.0</speed>
  <fix>3d</fix>
</trkpt>
<trkpt lat="40.0713749" lon="-105.229789">
  <ele>1583.0</ele>
  <time>2026-09-02T20:50:24Z</time>
  <course>0.0</course>
  <speed>0.0</speed>
  <fix>3d</fix>
</trkpt>
<trkpt lat="40.0713749" lon="-105.229789">
  <ele>1583.0</ele>
  <time>2026-09-02T20:50:24Z</time>
  <course>0.0</course>
  <speed>0.0</speed>
  <fix>3d</fix>
</trkpt>
<trkpt lat="40.0713749" lon="-105.229789">
  <ele>1583.0</ele>
  <time>2026-09-02T20:50:24Z</time>
  <course>0.0</course>
  <speed>0.0</speed>
  <fix>3d</fix>
</trkpt>
<trkpt lat="40.0713749" lon="-105.229789">
  <ele>1583.0</ele>
  <time>2026-09-02T20:50:24Z</time>
  <course>0.0</course>
  <speed>0.0</speed>
  <fix>3d</fix>
</trkpt>
<trkpt lat="40.0713749" lon="-105.229789">
  <ele>1583.0</ele>
  <time>2026-09-02T20:50:24Z</time>
  <course>0.0</course>
  <speed>0.0</speed>
  <fix>3d</fix>
</trkpt>
<trkpt lat="40.0713749" lon="-105.229789">
  <ele>1583.0</ele>
  <time>2026-09-02T20:50:24Z</time>
  <course>0.0</course>
  <speed>0.0</speed>
  <fix>3d</fix>
</trkpt>
<trkpt lat="40.0713749" lon="-105.229789">
  <ele>1583.0</ele>
  <time>2026-09-02T20:50:24Z</time>
  <course>0.0</course>
  <speed>0.0</speed>
  <fix>3d</fix>
</trkpt>
<trkpt lat="40.0713749" lon="-105.229789">
  <ele>1583.0</ele>
  <time>2026-09-02T20:50:24Z</time>
  <course>0.0</course>
  <speed>0.0</speed>
  <fix>3d</fix>
</trkpt>
<trkpt lat="40.0713749" lon="-105.229789">
  <ele>1583.0</ele>
  <time>2026-09-02T20:50:24Z</time>
  <course>0.0</course>
  <speed>0.0</speed>
  <fix>3d</fix>
</trkpt>
<trkpt lat="40.0713749" lon="-105.229789">
  <ele>1583.0</ele>
  <time>2026-09-02T20:50:24Z</time>
  <course>0.0</course>
  <speed>0.0</speed>
  <fix>3d</fix>
</trkpt>
<trkpt lat="40.0713749" lon="-105.229789">
  <ele>1583.0</ele>
  <time>2026-09-02T20:50:24Z</time>
  <course>0.0</course>
  <speed>0.0</speed>
  <fix>3d</fix>
</trkpt>
<trkpt lat="40.0713749" lon="-105.229789">
  <ele>1583.0</ele>
  <time>2026-09-02T20:50:24Z</time>
  <course>0.0</course>
  <speed>0.0</speed>
  <fix>3d</fix>
</trkpt>
<trkpt lat="40.0713749" lon="-105.229789">
  <ele>1583.0</ele>
  <time>2026-09-02T20:50:24Z</time>
  <course>0.0</course>
  <speed>0.0</speed>
  <fix>3d</fix>
</trkpt>
<trkpt lat="40.0713749" lon="-105.229789">
  <ele>1583.0</ele>
  <time>2026-09-02T20:50:24Z</time>
  <course>0.0</course>
  <speed>0.0</speed>
  <fix>3d</fix>
</trkpt>
<trkpt lat="40.0713749" lon="-105.229789">
  <ele>1583.0</ele>
  <time>2026-09-02T20:50:24Z</time>
  <course>0.0</course>
  <speed>0.0</speed>
  <fix>3d</fix>
</trkpt>
<trkpt lat="40.0713749" lon="-105.229789">
  <ele>1583.0</ele>
  <time>2026-09-02T20:50:24Z</time>
  <course>0.0</course>
  <speed>0.0</speed>
  <fix>3d</fix>
</trkpt>
<trkpt lat="40.0713749" lon="-105.229789">
  <ele>1583.0</ele>
  <time>2026-09-02T20:50:24Z</time>
  <course>0.0</course>
  <speed>0.0</speed>
  <fix>3d</fix>
</trkpt>
<trkpt lat="40.0713749" lon="-105.229789">
  <ele>1583.0</ele>
  <time>2026-09-02T20:50:24Z</time>
  <course>0.0</course>
  <speed>0.0</speed>
  <fix>3d</fix>
</trkpt>
<trkpt lat="40.0713749" lon="-105.229789">
  <ele>1583.0</ele>
  <time>2026-09-02T20:50:24Z</time>
  <course>0.0</course>
  <speed>0.0</speed>
  <fix>3d</fix>
</trkpt>
<trkpt lat="40.0713749" lon="-105.229789">
  <ele>1583.0</ele>
  <time>2026-09-02T20:50:24Z</time>
  <course>0.0</course>
  <speed>0.0</speed>
  <fix>3d</fix>
</trkpt>
<trkpt lat="40.0713749" lon="-105.229789">
  <ele>1583.0</ele>
  <time>2026-09-02T20:50:24Z</time>
  <course>0.0</course>
  <speed>0.0</speed>
  <fix>3d</fix>
</trkpt>
<trkpt lat="40.0713749" lon="-105.229789">
  <ele>1583.0</ele>
  <time>2026-09-02T20:50:24Z</time>
  <course>0.0</course>
  <speed>0.0</speed>
  <fix>3d</fix>
</trkpt>
<trkpt lat="40.0713749" lon="-105.229789">
  <ele>1583.0</ele>
  <time>2026-09-02T20:50:24Z</time>
  <course>0.0</course>
  <speed>0.0</speed>
  <fix>3d</fix>
</trkpt>
<trkpt lat="40.0713749" lon="-105.229789">
  <ele>1583.0</ele>
  <time>2026-09-02T20:50:24Z</time>
  <course>0.0</course>
  <speed>0.0</speed>
  <fix>3d</fix>
</trkpt>
<trkpt lat="40.0713749" lon="-105.229789">
  <ele>1583.0</ele>
  <time>2026-09-02T20:50:24Z</time>
  <course>0.0</course>
  <speed>0.0</speed>
  <fix>3d</fix>
</trkpt>
<trkpt lat="40.0713749" lon="-105.229789">
  <ele>1583.0</ele>
  <time>2026-09-02T20:50:24Z</time>
  <course>0.0</course>
  <speed>0.0</speed>
  <fix>3d</fix>
</trkpt>
<trkpt lat="40.0713749" lon="-105.229789">
  <ele>1583.0</ele>
  <time>2026-09-02T20:50:24Z</time>
  <course>0.0</course>
  <speed>0.0</speed>
  <fix>3d</fix>
</trkpt>
<trkpt lat="40.0713749" lon="-105.229789">
  <ele>1583.0</ele>
  <time>2026-09-02T20:50:24Z</time>
  <course>0.0</course>
  <speed>0.0</speed>
  <fix>3d</fix>
</trkpt>
<trkpt lat="40.0713749" lon="-105.229789">
  <ele>1583.0</ele>
  <time>2026-09-02T20:50:24Z</time>
  <course>0.0</course>
  <speed>0.0</speed>
  <fix>3d</fix>
</trkpt>
<trkpt lat="40.0713749" lon="-105.229789">
  <ele>1583.0</ele>
  <time>2026-09-02T20:50:24Z</time>
  <course>0.0</course>
  <speed>0.0</speed>
  <fix>3d</fix>
</trkpt>
<trkpt lat="40.0713749" lon="-105.229789">
  <ele>1583.0</ele>
  <time>2026-09-02T20:50:24Z</time>
  <course>0.0</course>
  <speed>0.0</speed>
  <fix>3d</fix>
</trkpt>
<trkpt lat="40.0713749" lon="-105.229789">
  <ele>1583.0</ele>
  <time>2026-09-02T20:50:24Z</time>
  <course>0.0</course>
  <speed>0.0</speed>
  <fix>3d</fix>
</trkpt>
<trkpt lat="40.0713749" lon="-105.229789">
  <ele>1583.0</ele>
  <time>2026-09-02T20:50:24Z</time>
  <course>0.0</course>
  <speed>0.0</speed>
  <fix>3d</fix>
</trkpt>
<trkpt lat="40.0713749" lon="-105.229789">
  <ele>1583.0</ele>
  <time>2026-09-02T20:50:24Z</time>
  <course>0.0</course>
  <speed>0.0</speed>
  <fix>3d</fix>
</trkpt>
<trkpt lat="40.0713749" lon="-105.229789">
  <ele>1583.0</ele>
  <time>2026-09-02T20:50:24Z</time>
  <course>0.0</course>
  <speed>0.0</speed>
  <fix>3d</fix>
</trkpt>
<trkpt lat="40.0713749" lon="-105.229789">
  <ele>1583.0</ele>
  <time>2026-09-02T20:50:24Z</time>
  <course>0.0</course>
  <speed>0.0</speed>
  <fix>3d</fix>
</trkpt>
<trkpt lat="40.0713749" lon="-105.229789">
  <ele>1583.0</ele>
  <time>2026-09-02T20:50:24Z</time>
  <course>0.0</course>
  <speed>0.0</speed>
  <fix>3d</fix>
</trkpt>
<trkpt lat="40.0713749" lon="-105.229789">
  <ele>1583.0</ele>
  <time>2026-09-02T20:50:24Z</time>
  <course>0.0</course>
  <speed>0.0</speed>
  <fix>3d</fix>
</trkpt>
<trkpt lat="40.0713749" lon="-105.229789">
  <ele>1583.0</ele>
  <time>2026-09-02T20:50:24Z</time>
  <course>0.0</course>
  <speed>0.0</speed>
  <fix>3d</fix>
</trkpt>
<trkpt lat="40.0713749" lon="-105.229789">
  <ele>1583.0</ele>
  <time>2026-09-02T20:50:24Z</time>
  <course>0.0</course>
  <speed>0.0</speed>
  <fix>3d</fix>
</trkpt>
<trkpt lat="40.0713749" lon="-105.229789">
  <ele>1583.0</ele>
  <time>2026-09-02T20:50:24Z</time>
  <course>0.0</course>
  <speed>0.0</speed>
  <fix>3d</fix>
</trkpt>
<trkpt lat="40.0713749" lon="-105.229789">
  <ele>1583.0</ele>
  <time>2026-09-02T20:50:24Z</time>
  <course>0.0</course>
  <speed>0.0</speed>
  <fix>3d</fix>
</trkpt>
<trkpt lat="40.0713749" lon="-105.229789">
  <ele>1583.0</ele>
  <time>2026-09-02T20:50:24Z</time>
  <course>0.0</course>
  <speed>0.0</speed>
  <fix>3d</fix>
</trkpt>
<trkpt lat="40.0713749" lon="-105.229789">
  <ele>1583.0</ele>
  <time>2026-09-02T20:50:24Z</time>
  <course>0.0</course>
  <speed>0.0</speed>
  <fix>3d</fix>
</trkpt>
<trkpt lat="40.0713749" lon="-105.229789">
  <ele>1583.0</ele>
  <time>2026-09-02T20:50:24Z</time>
  <course>0.0</course>
  <speed>0.0</speed>
  <fix>3d</fix>
</trkpt>
<trkpt lat="40.0713749" lon="-105.229789">
  <ele>1583.0</ele>
  <time>2026-09-02T20:50:24Z</time>
  <course>0.0</course>
  <speed>0.0</speed>
  <fix>3d</fix>
</trkpt>
<trkpt lat="40.0713749" lon="-105.229789">
  <ele>1583.0</ele>
  <time>2026-09-02T20:50:24Z</time>
  <course>0.0</course>
  <speed>0.0</speed>
  <fix>3d</fix>
</trkpt>
<trkpt lat="40.0713749" lon="-105.229789">
  <ele>1583.0</ele>
  <time>2026-09-02T20:50:24Z</time>
  <course>0.0</course>
  <speed>0.0</speed>
  <fix>3d</fix>
</trkpt>
<trkpt lat="40.0713749" lon="-105.229789">
  <ele>1583.0</ele>
  <time>2026-09-02T20:50:24Z</time>
  <course>0.0</course>
  <speed>0.0</speed>
  <fix>3d</fix>
</trkpt>
<trkpt lat="40.0713749" lon="-105.229789">
  <ele>1583.0</ele>
  <time>2026-09-02T20:50:24Z</time>
  <course>0.0</course>
  <speed>0.0</speed>
  <fix>3d</fix>
</trkpt>
<trkpt lat="40.0713749" lon="-105.229789">
  <ele>1583.0</ele>
  <time>2026-09-02T20:50:24Z</time>
  <course>0.0</course>
  <speed>0.0</speed>
  <fix>3d</fix>
</trkpt>
<trkpt lat="40.0713749" lon="-105.229789">
  <ele>1583.0</ele>
  <time>2026-09-02T20:50:24Z</time>
  <course>0.0</course>
  <speed>0.0</speed>
  <fix>3d</fix>
</trkpt>
<trkpt lat="40.0713749" lon="-105.229789">
  <ele>1583.0</ele>
  <time>2026-09-02T20:50:24Z</time>
  <course>0.0</course>
  <speed>0.0</speed>
  <fix>3d</fix>
</trkpt>
<trkpt lat="40.0713749" lon="-105.229789">
  <ele>1583.0</ele>
  <time>2026-09-02T20:50:24Z</time>
  <course>0.0</course>
  <speed>0.0</speed>
  <fix>3d</fix>
</trkpt>
<trkpt lat="40.0713749" lon="-105.229789">
  <ele>1583.0</ele>
  <time>2026-09-02T20:50:24Z</time>
  <course>0.0</course>
  <speed>0.0</speed>
  <fix>3d</fix>
</trkpt>
<trkpt lat="40.0713749" lon="-105.229789">
  <ele>1583.0</ele>
  <time>2026-09-02T20:50:24Z</time>
  <course>0.0</course>
  <speed>0.0</speed>
  <fix>3d</fix>
</trkpt>
<trkpt lat="40.0713749" lon="-105.229789">
  <ele>1583.0</ele>
  <time>2026-09-02T20:50:24Z</time>
  <course>0.0</course>
  <speed>0.0</speed>
  <fix>3d</fix>
</trkpt>
<trkpt lat="40.0713749" lon="-105.229789">
  <ele>1583.0</ele>
  <time>2026-09-02T20:50:24Z</time>
  <course>0.0</course>
  <speed>0.0</speed>
  <fix>3d</fix>
</trkpt>
<trkpt lat="40.0713749" lon="-105.229789">
  <ele>1583.0</ele>
  <time>2026-09-02T20:50:24Z</time>
  <course>0.0</course>
  <speed>0.0</speed>
  <fix>3d</fix>
</trkpt>
<trkpt lat="40.0713749" lon="-105.229789">
  <ele>1583.0</ele>
  <time>2026-09-02T20:50:24Z</time>
  <course>0.0</course>
  <speed>0.0</speed>
  <fix>3d</fix>
</trkpt>
<trkpt lat="40.0713749" lon="-105.229789">
  <ele>1583.0</ele>
  <time>2026-09-02T20:50:24Z</time>
  <course>0.0</course>
  <speed>0.0</speed>
  <fix>3d</fix>
</trkpt>
<trkpt lat="40.0713749" lon="-105.229789">
  <ele>1583.0</ele>
  <time>2026-09-02T20:50:24Z</time>
  <course>0.0</course>
  <speed>0.0</speed>
  <fix>3d</fix>
</trkpt>
<trkpt lat="40.0713749" lon="-105.229789">
  <ele>1583.0</ele>
  <time>2026-09-02T20:50:24Z</time>
  <course>0.0</course>
  <speed>0.0</speed>
  <fix>3d</fix>
</trkpt>
<trkpt lat="40.0713749" lon="-105.229789">
  <ele>1583.0</ele>
  <time>2026-09-02T20:50:24Z</time>
  <course>0.0</course>
  <speed>0.0</speed>
  <fix>3d</fix>
</trkpt>
<trkpt lat="40.0713749" lon="-105.229789">
  <ele>1583.0</ele>
  <time>2026-09-02T20:50:24Z</time>
  <course>0.0</course>
  <speed>0.0</speed>
  <fix>3d</fix>
</trkpt>
<trkpt lat="40.0713749" lon="-105.229789">
  <ele>1583.0</ele>
  <time>2026-09-02T20:50:24Z</time>
  <course>0.0</course>
  <speed>0.0</speed>
  <fix>3d</fix>
</trkpt>
<trkpt lat="40.0713749" lon="-105.229789">
  <ele>1583.0</ele>
  <time>2026-09-02T20:50:24Z</time>
  <course>0.0</course>
  <speed>0.0</speed>
  <fix>3d</fix>
</trkpt>
<trkpt lat="40.0713749" lon="-105.229789">
  <ele>1583.0</ele>
  <time>2026-09-02T20:50:24Z</time>
  <course>0.0</course>
  <speed>0.0</speed>
  <fix>3d</fix>
</trkpt>
<trkpt lat="40.0713749" lon="-105.229789">
  <ele>1583.0</ele>
  <time>2026-09-02T20:50:24Z</time>
  <course>0.0</course>
  <speed>0.0</speed>
  <fix>3d</fix>
</trkpt>
<trkpt lat="40.0713749" lon="-105.229789">
  <ele>1583.0</ele>
  <time>2026-09-02T20:50:24Z</time>
  <course>0.0</course>
  <speed>0.0</speed>
  <fix>3d</fix>
</trkpt>
<trkpt lat="40.0713749" lon="-105.229789">
  <ele>1583.0</ele>
  <time>2026-09-02T20:50:24Z</time>
  <course>0.0</course>
  <speed>0.0</speed>
  <fix>3d</fix>
</trkpt>
<trkpt lat="40.0713749" lon="-105.229789">
  <ele>1583.0</ele>
  <time>2026-09-02T20:50:24Z</time>
  <course>0.0</course>
  <speed>0.0</speed>
  <fix>3d</fix>
</trkpt>
<trkpt lat="40.0713749" lon="-105.229789">
  <ele>1583.0</ele>
  <time>2026-09-02T20:50:24Z</time>
  <course>0.0</course>
  <speed>0.0</speed>
  <fix>3d</fix>
</trkpt>
<trkpt lat="40.0713749" lon="-105.229789">
  <ele>1583.0</ele>
  <time>2026-09-02T20:50:24Z</time>
  <course>0.0</course>
  <speed>0.0</speed>
  <fix>3d</fix>
</trkpt>
<trkpt lat="40.0713749" lon="-105.229789">
  <ele>1583.0</ele>
  <time>2026-09-02T20:50:24Z</time>
  <course>0.0</course>
  <speed>0.0</speed>
  <fix>3d</fix>
</trkpt>
<trkpt lat="40.0713749" lon="-105.229789">
  <ele>1583.0</ele>
  <time>2026-09-02T20:50:24Z</time>
  <course>0.0</course>
  <speed>0.0</speed>
  <fix>3d</fix>
</trkpt>
<trkpt lat="40.0713749" lon="-105.229789">
  <ele>1583.0</ele>
  <time>2026-09-02T20:50:24Z</time>
  <course>0.0</course>
  <speed>0.0</speed>
  <fix>3d</fix>
</trkpt>
<trkpt lat="40.0713749" lon="-105.229789">
  <ele>1583.0</ele>
  <time>2026-09-02T20:50:24Z</time>
  <course>0.0</course>
  <speed>0.0</speed>
  <fix>3d</fix>
</trkpt>
<trkpt lat="40.0713749" lon="-105.229789">
  <ele>1583.0</ele>
  <time>2026-09-02T20:50:24Z</time>
  <course>0.0</course>
  <speed>0.0</speed>
  <fix>3d</fix>
</trkpt>
<trkpt lat="40.0713749" lon="-105.229789">
  <ele>1583.0</ele>
  <time>2026-09-02T20:50:24Z</time>
  <course>0.0</course>
  <speed>0.0</speed>
  <fix>3d</fix>
</trkpt>
<trkpt lat="40.0713749" lon="-105.229789">
  <ele>1583.0</ele>
  <time>2026-09-02T20:50:24Z</time>
  <course>0.0</course>
  <speed>0.0</speed>
  <fix>3d</fix>
</trkpt>
<trkpt lat="40.0713749" lon="-105.229789">
  <ele>1583.0</ele>
  <time>2026-09-02T20:50:24Z</time>
  <course>0.0</course>
  <speed>0.0</speed>
  <fix>3d</fix>
</trkpt>
<trkpt lat="40.0713749" lon="-105.229789">
  <ele>1583.0</ele>
  <time>2026-09-02T20:50:24Z</time>
  <course>0.0</course>
  <speed>0.0</speed>
  <fix>3d</fix>
</trkpt>
<trkpt lat="40.0713749" lon="-105.229789">
  <ele>1583.0</ele>
  <time>2026-09-02T20:50:24Z</time>
  <course>0.0</course>
  <speed>0.0</speed>
  <fix>3d</fix>
</trkpt>
<trkpt lat="40.0713749" lon="-105.229789">
  <ele>1583.0</ele>
  <time>2026-09-02T20:50:24Z</time>
  <course>0.0</course>
  <speed>0.0</speed>
  <fix>3d</fix>
</trkpt>
<trkpt lat="40.0713749" lon="-105.229789">
  <ele>1583.0</ele>
  <time>2026-09-02T20:50:24Z</time>
  <course>0.0</course>
  <speed>0.0</speed>
  <fix>3d</fix>
</trkpt>
<trkpt lat="40.0713749" lon="-105.229789">
  <ele>1583.0</ele>
  <time>2026-09-02T20:50:24Z</time>
  <course>0.0</course>
  <speed>0.0</speed>
  <fix>3d</fix>
</trkpt>
<trkpt lat="40.0713749" lon="-105.229789">
  <ele>1583.0</ele>
  <time>2026-09-02T20:50:24Z</time>
  <course>0.0</course>
  <speed>0.0</speed>
  <fix>3d</fix>
</trkpt>
<trkpt lat="40.0713749" lon="-105.229789">
  <ele>1583.0</ele>
  <time>2026-09-02T20:50:24Z</time>
  <course>0.0</course>
  <speed>0.0</speed>
  <fix>3d</fix>
</trkpt>
<trkpt lat="40.0713749" lon="-105.229789">
  <ele>1583.0</ele>
  <time>2026-09-02T20:50:24Z</time>
  <course>0.0</course>
  <speed>0.0</speed>
  <fix>3d</fix>
</trkpt>
<trkpt lat="40.0713749" lon="-105.229789">
  <ele>1583.0</ele>
  <time>2026-09-02T20:50:24Z</time>
  <course>0.0</course>
  <speed>0.0</speed>
  <fix>3d</fix>
</trkpt>
<trkpt lat="40.0713749" lon="-105.229789">
  <ele>1583.0</ele>
  <time>2026-09-02T20:50:24Z</time>
  <course>0.0</course>
  <speed>0.0</speed>
  <fix>3d</fix>
</trkpt>
<trkpt lat="40.0713749" lon="-105.229789">
  <ele>1583.0</ele>
  <time>2026-09-02T20:50:24Z</time>
  <course>0.0</course>
  <speed>0.0</speed>
  <fix>3d</fix>
</trkpt>
<trkpt lat="40.0713749" lon="-105.229789">
  <ele>1583.0</ele>
  <time>2026-09-02T20:50:24Z</time>
  <course>0.0</course>
  <speed>0.0</speed>
  <fix>3d</fix>
</trkpt>
<trkpt lat="40.0713749" lon="-105.229789">
  <ele>1583.0</ele>
  <time>2026-09-02T20:50:24Z</time>
  <course>0.0</course>
  <speed>0.0</speed>
  <fix>3d</fix>
</trkpt>
<trkpt lat="40.0713749" lon="-105.229789">
  <ele>1583.0</ele>
  <time>2026-09-02T20:50:24Z</time>
  <course>0.0</course>
  <speed>0.0</speed>
  <fix>3d</fix>
</trkpt>
<trkpt lat="40.0713749" lon="-105.229789">
  <ele>1583.0</ele>
  <time>2026-09-02T20:50:24Z</time>
  <course>0.0</course>
  <speed>0.0</speed>
  <fix>3d</fix>
</trkpt>
<trkpt lat="40.0713749" lon="-105.229789">
  <ele>1583.0</ele>
  <time>2026-09-02T20:50:24Z</time>
  <course>0.0</course>
  <speed>0.0</speed>
  <fix>3d</fix>
</trkpt>
<trkpt lat="40.0713749" lon="-105.229789">
  <ele>1583.0</ele>
  <time>2026-09-02T20:50:24Z</time>
  <course>0.0</course>
  <speed>0.0</speed>
  <fix>3d</fix>
</trkpt>
<trkpt lat="40.0713749" lon="-105.229789">
  <ele>1583.0</ele>
  <time>2026-09-02T20:50:24Z</time>
  <course>0.0</course>
  <speed>0.0</speed>
  <fix>3d</fix>
</trkpt>
<trkpt lat="40.0713749" lon="-105.229789">
  <ele>1583.0</ele>
  <time>2026-09-02T20:50:24Z</time>
  <course>0.0</course>
  <speed>0.0</speed>
  <fix>3d</fix>
</trkpt>
<trkpt lat="40.0713749" lon="-105.229789">
  <ele>1583.0</ele>
  <time>2026-09-02T20:50:24Z</time>
  <course>0.0</course>
  <speed>0.0</speed>
  <fix>3d</fix>
</trkpt>
<trkpt lat="40.0713749" lon="-105.229789">
  <ele>1583.0</ele>
  <time>2026-09-02T20:50:24Z</time>
  <course>0.0</course>
  <speed>0.0</speed>
  <fix>3d</fix>
</trkpt>
<trkpt lat="40.0713749" lon="-105.229789">
  <ele>1583.0</ele>
  <time>2026-09-02T20:50:24Z</time>
  <course>0.0</course>
  <speed>0.0</speed>
  <fix>3d</fix>
</trkpt>
<trkpt lat="40.0713749" lon="-105.229789">
  <ele>1583.0</ele>
  <time>2026-09-02T20:50:24Z</time>
  <course>0.0</course>
  <speed>0.0</speed>
  <fix>3d</fix>
</trkpt>
<trkpt lat="40.0713749" lon="-105.229789">
  <ele>1583.0</ele>
  <time>2026-09-02T20:50:24Z</time>
  <course>0.0</course>
  <speed>0.0</speed>
  <fix>3d</fix>
</trkpt>
<trkpt lat="40.0713749" lon="-105.229789">
  <ele>1583.0</ele>
  <time>2026-09-02T20:50:24Z</time>
  <course>0.0</course>
  <speed>0.0</speed>
  <fix>3d</fix>
</trkpt>
<trkpt lat="40.0713749" lon="-105.229789">
  <ele>1583.0</ele>
  <time>2026-09-02T20:50:24Z</time>
  <course>0.0</course>
  <speed>0.0</speed>
  <fix>3d</fix>
</trkpt>
<trkpt lat="40.0713749" lon="-105.229789">
  <ele>1583.0</ele>
  <time>2026-09-02T20:50:24Z</time>
  <course>0.0</course>
  <speed>0.0</speed>
  <fix>3d</fix>
</trkpt>
<trkpt lat="40.0713749" lon="-105.229789">
  <ele>1583.0</ele>
  <time>2026-09-02T20:50:24Z</time>
  <course>0.0</course>
  <speed>0.0</speed>
  <fix>3d</fix>
</trkpt>
<trkpt lat="40.0713749" lon="-105.229789">
  <ele>1583.0</ele>
  <time>2026-09-02T20:50:24Z</time>
  <course>0.0</course>
  <speed>0.0</speed>
  <fix>3d</fix>
</trkpt>
<trkpt lat="40.0713749" lon="-105.229789">
  <ele>1583.0</ele>
  <time>2026-09-02T20:50:24Z</time>
  <course>0.0</course>
  <speed>0.0</speed>
  <fix>3d</fix>
</trkpt>
<trkpt lat="40.0713749" lon="-105.229789">
  <ele>1583.0</ele>
  <time>2026-09-02T20:50:24Z</time>
  <course>0.0</course>
  <speed>0.0</speed>
  <fix>3d</fix>
</trkpt>
<trkpt lat="40.0713749" lon="-105.229789">
  <ele>1583.0</ele>
  <time>2026-09-02T20:50:24Z</time>
  <course>0.0</course>
  <speed>0.0</speed>
  <fix>3d</fix>
</trkpt>
<trkpt lat="40.0713749" lon="-105.229789">
  <ele>1583.0</ele>
  <time>2026-09-02T20:50:24Z</time>
  <course>0.0</course>
  <speed>0.0</speed>
  <fix>3d</fix>
</trkpt>
<trkpt lat="40.0713749" lon="-105.229789">
  <ele>1583.0</ele>
  <time>2026-09-02T20:50:24Z</time>
  <course>0.0</course>
  <speed>0.0</speed>
  <fix>3d</fix>
</trkpt>
<trkpt lat="40.0713749" lon="-105.229789">
  <ele>1583.0</ele>
  <time>2026-09-02T20:50:24Z</time>
  <course>0.0</course>
  <speed>0.0</speed>
  <fix>3d</fix>
</trkpt>
<trkpt lat="40.0713749" lon="-105.229789">
  <ele>1583.0</ele>
  <time>2026-09-02T20:50:24Z</time>
  <course>0.0</course>
  <speed>0.0</speed>
  <fix>3d</fix>
</trkpt>
<trkpt lat="40.0713749" lon="-105.229789">
  <ele>1583.0</ele>
  <time>2026-09-02T20:50:24Z</time>
  <course>0.0</course>
  <speed>0.0</speed>
  <fix>3d</fix>
</trkpt>
<trkpt lat="40.0713749" lon="-105.229789">
  <ele>1583.0</ele>
  <time>2026-09-02T20:50:24Z</time>
  <course>0.0</course>
  <speed>0.0</speed>
  <fix>3d</fix>
</trkpt>
<trkpt lat="40.0713749" lon="-105.229789">
  <ele>1583.0</ele>
  <time>2026-09-02T20:50:24Z</time>
  <course>0.0</course>
  <speed>0.0</speed>
  <fix>3d</fix>
</trkpt>
<trkpt lat="40.0713749" lon="-105.229789">
  <ele>1583.0</ele>
  <time>2026-09-02T20:50:24Z</time>
  <course>0.0</course>
  <speed>0.0</speed>
  <fix>3d</fix>
</trkpt>
<trkpt lat="40.0713749" lon="-105.229789">
  <ele>1583.0</ele>
  <time>2026-09-02T20:50:24Z</time>
  <course>0.0</course>
  <speed>0.0</speed>
  <fix>3d</fix>
</trkpt>
<trkpt lat="40.0713749" lon="-105.229789">
  <ele>1583.0</ele>
  <time>2026-09-02T20:50:24Z</time>
  <course>0.0</course>
  <speed>0.0</speed>
  <fix>3d</fix>
</trkpt>
<trkpt lat="40.0713749" lon="-105.229789">
  <ele>1583.0</ele>
  <time>2026-09-02T20:50:24Z</time>
  <course>0.0</course>
  <speed>0.0</speed>
  <fix>3d</fix>
</trkpt>
<trkpt lat="40.0713749" lon="-105.229789">
  <ele>1583.0</ele>
  <time>2026-09-02T20:50:24Z</time>
  <course>0.0</course>
  <speed>0.0</speed>
  <fix>3d</fix>
</trkpt>
<trkpt lat="40.0713749" lon="-105.229789">
  <ele>1583.0</ele>
  <time>2026-09-02T20:50:24Z</time>
  <course>0.0</course>
  <speed>0.0</speed>
  <fix>3d</fix>
</trkpt>
<trkpt lat="40.0713749" lon="-105.229789">
  <ele>1583.0</ele>
  <time>2026-09-02T20:50:24Z</time>
  <course>0.0</course>
  <speed>0.0</speed>
  <fix>3d</fix>
</trkpt>
<trkpt lat="40.0713749" lon="-105.229789">
  <ele>1583.0</ele>
  <time>2026-09-02T20:50:24Z</time>
  <course>359.99</course>
  <speed>0.0</speed>
  <fix>3d</fix>
</trkpt>
<trkpt lat="40.0713749" lon="-105.229789">
  <ele>1583.0</ele>
  <time>2026-09-02T20:50:24Z</time>
  <course>0.0</course>
  <speed>0.0</speed>
  <fix>3d</fix>
</trkpt>
<trkpt lat="40.0713749" lon="-105.229789">
  <ele>1583.0</ele>
  <time>2026-09-02T20:50:24Z</time>
  <course>359.98</course>
  <speed>0.0</speed>
  <fix>3d</fix>
</trkpt>
<trkpt lat="40.0713749" lon="-105.229789">
  <ele>1583.0</ele>
  <time>2026-09-02T20:50:24Z</time>
  <course>0.0</course>
  <speed>0.0</speed>
  <fix>3d</fix>
</trkpt>
<trkpt lat="40.0713749" lon="-105.229789">
  <ele>1583.0</ele>
  <time>2026-09-02T20:50:24Z</time>
  <course>359.97</course>
  <speed>0.0</speed>
  <fix>3d</fix>
</trkpt>
<trkpt lat="40.0713749" lon="-105.229789">
  <ele>1583.0</ele>
  <time>2026-09-02T20:50:24Z</time>
  <course>0.0</course>
  <speed>0.0</speed>
  <fix>3d</fix>
</trkpt>
<trkpt lat="40.0713749" lon="-105.229789">
  <ele>1583.0</ele>
  <time>2026-09-02T20:50:24Z</time>
  <course>359.96</course>
  <speed>0.0</speed>
  <fix>3d</fix>
</trkpt>
<trkpt lat="40.0713749" lon="-105.229789">
  <ele>1583.0</ele>
  <time>2026-09-02T20:50:24Z</time>
  <course>0.0</course>
  <speed>0.0</speed>
  <fix>3d</fix>
</trkpt>
<trkpt lat="40.0713749" lon="-105.229789">
  <ele>1583.0</ele>
  <time>2026-09-02T20:50:24Z</time>
  <course>359.94</course>
  <speed>0.0</speed>
  <fix>3d</fix>
</trkpt>
<trkpt lat="40.0713749" lon="-105.229789">
  <ele>1583.0</ele>
  <time>2026-09-02T20:50:24Z</time>
  <course>0.0</course>
  <speed>0.0</speed>
  <fix>3d</fix>
</trkpt>
<trkpt lat="40.0713749" lon="-105.229789">
  <ele>1583.0</ele>
  <time>2026-09-02T20:50:24Z</time>
  <course>359.94</course>
  <speed>0.0</speed>
  <fix>3d</fix>
</trkpt>
<trkpt lat="40.0713749" lon="-105.229789">
  <ele>1583.0</ele>
  <time>2026-09-02T20:50:24Z</time>
  <course>0.0</course>
  <speed>0.0</speed>
  <fix>3d</fix>
</trkpt>
<trkpt lat="40.0713749" lon="-105.229789">
  <ele>1583.0</ele>
  <time>2026-09-02T20:50:24Z</time>
  <course>359.92</course>
  <speed>0.0</speed>
  <fix>3d</fix>
</trkpt>
<trkpt lat="40.0713749" lon="-105.229789">
  <ele>1583.0</ele>
  <time>2026-09-02T20:50:24Z</time>
  <course>0.0</course>
  <speed>0.0</speed>
  <fix>3d</fix>
</trkpt>
<trkpt lat="40.0713749" lon="-105.229789">
  <ele>1583.0</ele>
  <time>2026-09-02T20:50:24Z</time>
  <course>359.9</course>
  <speed>0.0</speed>
  <fix>3d</fix>
</trkpt>
<trkpt lat="40.0713749" lon="-105.229789">
  <ele>1583.0</ele>
  <time>2026-09-02T20:50:24Z</time>
  <course>0.0</course>
  <speed>0.0</speed>
  <fix>3d</fix>
</trkpt>
<trkpt lat="40.0713749" lon="-105.229789">
  <ele>1583.0</ele>
  <time>2026-09-02T20:50:24Z</time>
  <course>359.89</course>
  <speed>0.0</speed>
  <fix>3d</fix>
</trkpt>
<trkpt lat="40.0713749" lon="-105.229789">
  <ele>1583.0</ele>
  <time>2026-09-02T20:50:24Z</time>
  <course>0.0</course>
  <speed>0.0</speed>
  <fix>3d</fix>
</trkpt>
<trkpt lat="40.0713749" lon="-105.229789">
  <ele>1583.0</ele>
  <time>2026-09-02T20:50:24Z</time>
  <course>359.88</course>
  <speed>0.0</speed>
  <fix>3d</fix>
</trkpt>
<trkpt lat="40.0713749" lon="-105.229789">
  <ele>1583.0</ele>
  <time>2026-09-02T20:50:24Z</time>
  <course>0.0</course>
  <speed>0.0</speed>
  <fix>3d</fix>
</trkpt>
<trkpt lat="40.0713749" lon="-105.229789">
  <ele>1583.0</ele>
  <time>2026-09-02T20:50:24Z</time>
  <course>359.87</course>
  <speed>0.0</speed>
  <fix>3d</fix>
</trkpt>
<trkpt lat="40.0713749" lon="-105.229789">
  <ele>1583.0</ele>
  <time>2026-09-02T20:50:24Z</time>
  <course>0.0</course>
  <speed>0.0</speed>
  <fix>3d</fix>
</trkpt>
<trkpt lat="40.0713749" lon="-105.229789">
  <ele>1583.0</ele>
  <time>2026-09-02T20:50:24Z</time>
  <course>359.86</course>
  <speed>0.0</speed>
  <fix>3d</fix>
</trkpt>
<trkpt lat="40.0713749" lon="-105.229789">
  <ele>1583.0</ele>
  <time>2026-09-02T20:50:24Z</time>
  <course>0.0</course>
  <speed>0.0</speed>
  <fix>3d</fix>
</trkpt>
<trkpt lat="40.0713749" lon="-105.229789">
  <ele>1583.0</ele>
  <time>2026-09-02T20:50:24Z</time>
  <course>359.83</course>
  <speed>0.0</speed>
  <fix>3d</fix>
</trkpt>
<trkpt lat="40.0713749" lon="-105.229789">
  <ele>1583.0</ele>
  <time>2026-09-02T20:50:24Z</time>
  <course>0.0</course>
  <speed>0.0</speed>
  <fix>3d</fix>
</trkpt>
<trkpt lat="40.0713749" lon="-105.229789">
  <ele>1583.0</ele>
  <time>2026-09-02T20:50:24Z</time>
  <course>359.82</course>
  <speed>0.0</speed>
  <fix>3d</fix>
</trkpt>
<trkpt lat="40.0713749" lon="-105.229789">
  <ele>1583.0</ele>
  <time>2026-09-02T20:50:24Z</time>
  <course>0.0</course>
  <speed>0.0</speed>
  <fix>3d</fix>
</trkpt>
<trkpt lat="40.0713749" lon="-105.229789">
  <ele>1583.0</ele>
  <time>2026-09-02T20:50:24Z</time>
  <course>0.0</course>
  <speed>0.0</speed>
  <fix>3d</fix>
</trkpt>
<trkpt lat="40.0713749" lon="-105.229789">
  <ele>1583.0</ele>
  <time>2026-09-02T20:50:24Z</time>
  <course>0.0</course>
  <speed>0.0</speed>
  <fix>3d</fix>
</trkpt>
<trkpt lat="40.0713749" lon="-105.229789">
  <ele>1583.0</ele>
  <time>2026-09-02T20:50:24Z</time>
  <course>0.0</course>
  <speed>0.0</speed>
  <fix>3d</fix>
</trkpt>
<trkpt lat="40.0713749" lon="-105.229789">
  <ele>1583.0</ele>
  <time>2026-09-02T20:50:24Z</time>
  <course>0.0</course>
  <speed>0.0</speed>
  <fix>3d</fix>
</trkpt>
<trkpt lat="40.0713749" lon="-105.229789">
  <ele>1583.0</ele>
  <time>2026-09-02T20:50:24Z</time>
  <course>0.0</course>
  <speed>0.0</speed>
  <fix>3d</fix>
</trkpt>
<trkpt lat="40.0713749" lon="-105.229789">
  <ele>1583.0</ele>
  <time>2026-09-02T20:50:24Z</time>
  <course>0.0</course>
  <speed>0.0</speed>
  <fix>3d</fix>
</trkpt>
<trkpt lat="40.0713749" lon="-105.229789">
  <ele>1583.0</ele>
  <time>2026-09-02T20:50:24Z</time>
  <course>0.0</course>
  <speed>0.0</speed>
  <fix>3d</fix>
</trkpt>
<trkpt lat="40.0713749" lon="-105.229789">
  <ele>1583.0</ele>
  <time>2026-09-02T20:50:24Z</time>
  <course>0.0</course>
  <speed>0.0</speed>
  <fix>3d</fix>
</trkpt>
<trkpt lat="40.0713749" lon="-105.229789">
  <ele>1583.0</ele>
  <time>2026-09-02T20:50:24Z</time>
  <course>0.0</course>
  <speed>0.0</speed>
  <fix>3d</fix>
</trkpt>
<trkpt lat="40.0713749" lon="-105.229789">
  <ele>1583.0</ele>
  <time>2026-09-02T20:50:24Z</time>
  <course>0.0</course>
  <speed>0.0</speed>
  <fix>3d</fix>
</trkpt>
<trkpt lat="40.0713749" lon="-105.229789">
  <ele>1583.0</ele>
  <time>2026-09-02T20:50:24Z</time>
  <course>0.0</course>
  <speed>0.0</speed>
  <fix>3d</fix>
</trkpt>
<trkpt lat="40.0713749" lon="-105.229789">
  <ele>1583.0</ele>
  <time>2026-09-02T20:50:24Z</time>
  <course>0.0</course>
  <speed>0.0</speed>
  <fix>3d</fix>
</trkpt>
<trkpt lat="40.0713749" lon="-105.229789">
  <ele>1583.0</ele>
  <time>2026-09-02T20:50:24Z</time>
  <course>0.0</course>
  <speed>0.0</speed>
  <fix>3d</fix>
</trkpt>
<trkpt lat="40.0713749" lon="-105.229789">
  <ele>1583.0</ele>
  <time>2026-09-02T20:50:24Z</time>
  <course>0.0</course>
  <speed>0.0</speed>
  <fix>3d</fix>
</trkpt>
<trkpt lat="40.0713749" lon="-105.229789">
  <ele>1583.0</ele>
  <time>2026-09-02T20:50:24Z</time>
  <course>0.0</course>
  <speed>0.0</speed>
  <fix>3d</fix>
</trkpt>
<trkpt lat="40.0713749" lon="-105.229789">
  <ele>1583.0</ele>
  <time>2026-09-02T20:50:24Z</time>
  <course>0.0</course>
  <speed>0.0</speed>
  <fix>3d</fix>
</trkpt>
<trkpt lat="40.0713749" lon="-105.229789">
  <ele>1583.0</ele>
  <time>2026-09-02T20:50:24Z</time>
  <course>0.0</course>
  <speed>0.0</speed>
  <fix>3d</fix>
</trkpt>
<trkpt lat="40.0713749" lon="-105.229789">
  <ele>1583.0</ele>
  <time>2026-09-02T20:50:24Z</time>
  <course>0.0</course>
  <speed>0.0</speed>
  <fix>3d</fix>
</trkpt>
<trkpt lat="40.0713749" lon="-105.229789">
  <ele>1583.0</ele>
  <time>2026-09-02T20:50:24Z</time>
  <course>0.0</course>
  <speed>0.0</speed>
  <fix>3d</fix>
</trkpt>
<trkpt lat="40.0713749" lon="-105.229789">
  <ele>1583.0</ele>
  <time>2026-09-02T20:50:24Z</time>
  <course>0.0</course>
  <speed>0.0</speed>
  <fix>3d</fix>
</trkpt>
<trkpt lat="40.0713749" lon="-105.229789">
  <ele>1583.0</ele>
  <time>2026-09-02T20:50:24Z</time>
  <course>0.0</course>
  <speed>0.0</speed>
  <fix>3d</fix>
</trkpt>
<trkpt lat="40.0713749" lon="-105.229789">
  <ele>1583.0</ele>
  <time>2026-09-02T20:50:24Z</time>
  <course>0.0</course>
  <speed>0.0</speed>
  <fix>3d</fix>
</trkpt>
<trkpt lat="40.0713749" lon="-105.229789">
  <ele>1583.0</ele>
  <time>2026-09-02T20:50:24Z</time>
  <course>0.0</course>
  <speed>0.0</speed>
  <fix>3d</fix>
</trkpt>
<trkpt lat="40.0713749" lon="-105.229789">
  <ele>1583.0</ele>
  <time>2026-09-02T20:50:24Z</time>
  <course>0.0</course>
  <speed>0.0</speed>
  <fix>3d</fix>
</trkpt>
<trkpt lat="40.0713749" lon="-105.229789">
  <ele>1583.0</ele>
  <time>2026-09-02T20:50:24Z</time>
  <course>0.0</course>
  <speed>0.0</speed>
  <fix>3d</fix>
</trkpt>
<trkpt lat="40.0713749" lon="-105.229789">
  <ele>1583.0</ele>
  <time>2026-09-02T20:50:24Z</time>
  <course>0.0</course>
  <speed>0.0</speed>
  <fix>3d</fix>
</trkpt>
<trkpt lat="40.0713749" lon="-105.229789">
  <ele>1583.0</ele>
  <time>2026-09-02T20:50:24Z</time>
  <course>0.0</course>
  <speed>0.0</speed>
  <fix>3d</fix>
</trkpt>
<trkpt lat="40.0713749" lon="-105.229789">
  <ele>1583.0</ele>
  <time>2026-09-02T20:50:24Z</time>
  <course>0.0</course>
  <speed>0.0</speed>
  <fix>3d</fix>
</trkpt>
<trkpt lat="40.0713749" lon="-105.229789">
  <ele>1583.0</ele>
  <time>2026-09-02T20:50:24Z</time>
  <course>0.0</course>
  <speed>0.0</speed>
  <fix>3d</fix>
</trkpt>
<trkpt lat="40.0713749" lon="-105.229789">
  <ele>1583.0</ele>
  <time>2026-09-02T20:50:24Z</time>
  <course>0.0</course>
  <speed>0.0</speed>
  <fix>3d</fix>
</trkpt>
<trkpt lat="40.0713749" lon="-105.229789">
  <ele>1583.0</ele>
  <time>2026-09-02T20:50:24Z</time>
  <course>0.0</course>
  <speed>0.0</speed>
  <fix>3d</fix>
</trkpt>
<trkpt lat="40.0713749" lon="-105.229789">
  <ele>1583.0</ele>
  <time>2026-09-02T20:50:24Z</time>
  <course>0.0</course>
  <speed>0.0</speed>
  <fix>3d</fix>
</trkpt>
<trkpt lat="40.0713749" lon="-105.229789">
  <ele>1583.0</ele>
  <time>2026-09-02T20:50:24Z</time>
  <course>0.0</course>
  <speed>0.0</speed>
  <fix>3d</fix>
</trkpt>
<trkpt lat="40.0713749" lon="-105.229789">
  <ele>1583.0</ele>
  <time>2026-09-02T20:50:24Z</time>
  <course>0.0</course>
  <speed>0.0</speed>
  <fix>3d</fix>
</trkpt>
<trkpt lat="40.0713749" lon="-105.229789">
  <ele>1583.0</ele>
  <time>2026-09-02T20:50:24Z</time>
  <course>0.0</course>
  <speed>0.0</speed>
  <fix>3d</fix>
</trkpt>
<trkpt lat="40.0713749" lon="-105.229789">
  <ele>1583.0</ele>
  <time>2026-09-02T20:50:24Z</time>
  <course>0.0</course>
  <speed>0.0</speed>
  <fix>3d</fix>
</trkpt>
<trkpt lat="40.0713749" lon="-105.229789">
  <ele>1583.0</ele>
  <time>2026-09-02T20:50:24Z</time>
  <course>0.0</course>
  <speed>0.0</speed>
  <fix>3d</fix>
</trkpt>
<trkpt lat="40.0713749" lon="-105.229789">
  <ele>1583.0</ele>
  <time>2026-09-02T20:50:24Z</time>
  <course>0.0</course>
  <speed>0.0</speed>
  <fix>3d</fix>
</trkpt>
<trkpt lat="40.0713749" lon="-105.229789">
  <ele>1583.0</ele>
  <time>2026-09-02T20:50:24Z</time>
  <course>0.0</course>
  <speed>0.0</speed>
  <fix>3d</fix>
</trkpt>
<trkpt lat="40.0713749" lon="-105.229789">
  <ele>1583.0</ele>
  <time>2026-09-02T20:50:24Z</time>
  <course>0.0</course>
  <speed>0.0</speed>
  <fix>3d</fix>
</trkpt>
<trkpt lat="40.0713749" lon="-105.229789">
  <ele>1583.0</ele>
  <time>2026-09-02T20:50:24Z</time>
  <course>0.0</course>
  <speed>0.0</speed>
  <fix>3d</fix>
</trkpt>
<trkpt lat="40.0713749" lon="-105.229789">
  <ele>1583.0</ele>
  <time>2026-09-02T20:50:24Z</time>
  <course>0.0</course>
  <speed>0.0</speed>
  <fix>3d</fix>
</trkpt>
<trkpt lat="40.0713749" lon="-105.229789">
  <ele>1583.0</ele>
  <time>2026-09-02T20:50:24Z</time>
  <course>0.0</course>
  <speed>0.0</speed>
  <fix>3d</fix>
</trkpt>
<trkpt lat="40.0713749" lon="-105.229789">
  <ele>1583.0</ele>
  <time>2026-09-02T20:50:24Z</time>
  <course>0.0</course>
  <speed>0.0</speed>
  <fix>3d</fix>
</trkpt>
<trkpt lat="40.0713749" lon="-105.229789">
  <ele>1583.0</ele>
  <time>2026-09-02T20:50:24Z</time>
  <course>0.0</course>
  <speed>0.0</speed>
  <fix>3d</fix>
</trkpt>
<trkpt lat="40.0713749" lon="-105.229789">
  <ele>1583.0</ele>
  <time>2026-09-02T20:50:24Z</time>
  <course>0.0</course>
  <speed>0.0</speed>
  <fix>3d</fix>
</trkpt>
<trkpt lat="40.0713749" lon="-105.229789">
  <ele>1583.0</ele>
  <time>2026-09-02T20:50:24Z</time>
  <course>0.0</course>
  <speed>0.0</speed>
  <fix>3d</fix>
</trkpt>
<trkpt lat="40.0713749" lon="-105.229789">
  <ele>1583.0</ele>
  <time>2026-09-02T20:50:24Z</time>
  <course>0.0</course>
  <speed>0.0</speed>
  <fix>3d</fix>
</trkpt>
<trkpt lat="40.0713749" lon="-105.229789">
  <ele>1583.0</ele>
  <time>2026-09-02T20:50:24Z</time>
  <course>0.0</course>
  <speed>0.0</speed>
  <fix>3d</fix>
</trkpt>
<trkpt lat="40.0713749" lon="-105.229789">
  <ele>1583.0</ele>
  <time>2026-09-02T20:50:24Z</time>
  <course>0.0</course>
  <speed>0.0</speed>
  <fix>3d</fix>
</trkpt>
<trkpt lat="40.0713749" lon="-105.229789">
  <ele>1583.0</ele>
  <time>2026-09-02T20:50:24Z</time>
  <course>0.0</course>
  <speed>0.0</speed>
  <fix>3d</fix>
</trkpt>
<trkpt lat="40.0713749" lon="-105.229789">
  <ele>1583.0</ele>
  <time>2026-09-02T20:50:24Z</time>
  <course>0.0</course>
  <speed>0.0</speed>
  <fix>3d</fix>
</trkpt>
<trkpt lat="40.0713749" lon="-105.229789">
  <ele>1583.0</ele>
  <time>2026-09-02T20:50:24Z</time>
  <course>0.0</course>
  <speed>0.0</speed>
  <fix>3d</fix>
</trkpt>
<trkpt lat="40.0713749" lon="-105.229789">
  <ele>1583.0</ele>
  <time>2026-09-02T20:50:24Z</time>
  <course>0.0</course>
  <speed>0.0</speed>
  <fix>3d</fix>
</trkpt>
<trkpt lat="40.0713749" lon="-105.229789">
  <ele>1583.0</ele>
  <time>2026-09-02T20:50:24Z</time>
  <course>0.0</course>
  <speed>0.0</speed>
  <fix>3d</fix>
</trkpt>
<trkpt lat="40.0713749" lon="-105.229789">
  <ele>1583.0</ele>
  <time>2026-09-02T20:50:24Z</time>
  <course>0.0</course>
  <speed>0.0</speed>
  <fix>3d</fix>
</trkpt>
<trkpt lat="40.0713749" lon="-105.229789">
  <ele>1583.0</ele>
  <time>2026-09-02T20:50:24Z</time>
  <course>0.0</course>
  <speed>0.0</speed>
  <fix>3d</fix>
</trkpt>
<trkpt lat="40.0713749" lon="-105.229789">
  <ele>1583.0</ele>
  <time>2026-09-02T20:50:24Z</time>
  <course>0.0</course>
  <speed>0.0</speed>
  <fix>3d</fix>
</trkpt>
<trkpt lat="40.0713749" lon="-105.229789">
  <ele>1583.0</ele>
  <time>2026-09-02T20:50:24Z</time>
  <course>0.0</course>
  <speed>0.0</speed>
  <fix>3d</fix>
</trkpt>
<trkpt lat="40.0713749" lon="-105.229789">
  <ele>1583.0</ele>
  <time>2026-09-02T20:50:24Z</time>
  <course>0.0</course>
  <speed>0.0</speed>
  <fix>3d</fix>
</trkpt>
<trkpt lat="40.0713749" lon="-105.229789">
  <ele>1583.0</ele>
  <time>2026-09-02T20:50:24Z</time>
  <course>0.0</course>
  <speed>0.0</speed>
  <fix>3d</fix>
</trkpt>
<trkpt lat="40.0713749" lon="-105.229789">
  <ele>1583.0</ele>
  <time>2026-09-02T20:50:24Z</time>
  <course>0.0</course>
  <speed>0.0</speed>
  <fix>3d</fix>
</trkpt>
<trkpt lat="40.0713749" lon="-105.229789">
  <ele>1583.0</ele>
  <time>2026-09-02T20:50:24Z</time>
  <course>0.0</course>
  <speed>0.0</speed>
  <fix>3d</fix>
</trkpt>
<trkpt lat="40.0713749" lon="-105.229789">
  <ele>1583.0</ele>
  <time>2026-09-02T20:50:24Z</time>
  <course>0.0</course>
  <speed>0.0</speed>
  <fix>3d</fix>
</trkpt>
<trkpt lat="40.0713749" lon="-105.229789">
  <ele>1583.0</ele>
  <time>2026-09-02T20:50:24Z</time>
  <course>0.0</course>
  <speed>0.0</speed>
  <fix>3d</fix>
</trkpt>
<trkpt lat="40.0713749" lon="-105.229789">
  <ele>1583.0</ele>
  <time>2026-09-02T20:50:24Z</time>
  <course>0.0</course>
  <speed>0.0</speed>
  <fix>3d</fix>
</trkpt>
<trkpt lat="40.0713749" lon="-105.229789">
  <ele>1583.0</ele>
  <time>2026-09-02T20:50:24Z</time>
  <course>0.0</course>
  <speed>0.0</speed>
  <fix>3d</fix>
</trkpt>
<trkpt lat="40.0713749" lon="-105.229789">
  <ele>1583.0</ele>
  <time>2026-09-02T20:50:24Z</time>
  <course>0.0</course>
  <speed>0.0</speed>
  <fix>3d</fix>
</trkpt>
<trkpt lat="40.0713749" lon="-105.229789">
  <ele>1583.0</ele>
  <time>2026-09-02T20:50:24Z</time>
  <course>359.98</course>
  <speed>0.0</speed>
  <fix>3d</fix>
</trkpt>
<trkpt lat="40.0713749" lon="-105.229789">
  <ele>1583.0</ele>
  <time>2026-09-02T20:50:24Z</time>
  <course>0.0</course>
  <speed>0.0</speed>
  <fix>3d</fix>
</trkpt>
<trkpt lat="40.0713749" lon="-105.229789">
  <ele>1583.0</ele>
  <time>2026-09-02T20:50:24Z</time>
  <course>359.97</course>
  <speed>0.0</speed>
  <fix>3d</fix>
</trkpt>
<trkpt lat="40.0713749" lon="-105.229789">
  <ele>1583.0</ele>
  <time>2026-09-02T20:50:24Z</time>
  <course>0.0</course>
  <speed>0.0</speed>
  <fix>3d</fix>
</trkpt>
<trkpt lat="40.0713749" lon="-105.229789">
  <ele>1583.0</ele>
  <time>2026-09-02T20:50:24Z</time>
  <course>359.95</course>
  <speed>0.0</speed>
  <fix>3d</fix>
</trkpt>
<trkpt lat="40.0713749" lon="-105.229789">
  <ele>1583.0</ele>
  <time>2026-09-02T20:50:24Z</time>
  <course>0.0</course>
  <speed>0.0</speed>
  <fix>3d</fix>
</trkpt>
<trkpt lat="40.0713749" lon="-105.229789">
  <ele>1583.0</ele>
  <time>2026-09-02T20:50:24Z</time>
  <course>359.94</course>
  <speed>0.0</speed>
  <fix>3d</fix>
</trkpt>
<trkpt lat="40.0713749" lon="-105.229789">
  <ele>1583.0</ele>
  <time>2026-09-02T20:50:24Z</time>
  <course>0.0</course>
  <speed>0.0</speed>
  <fix>3d</fix>
</trkpt>
<trkpt lat="40.0713749" lon="-105.229789">
  <ele>1583.0</ele>
  <time>2026-09-02T20:50:24Z</time>
  <course>359.92</course>
  <speed>0.0</speed>
  <fix>3d</fix>
</trkpt>
<trkpt lat="40.0713749" lon="-105.229789">
  <ele>1583.0</ele>
  <time>2026-09-02T20:50:24Z</time>
  <course>0.0</course>
  <speed>0.0</speed>
  <fix>3d</fix>
</trkpt>
<trkpt lat="40.0713749" lon="-105.229789">
  <ele>1583.0</ele>
  <time>2026-09-02T20:50:24Z</time>
  <course>359.9</course>
  <speed>0.0</speed>
  <fix>3d</fix>
</trkpt>
<trkpt lat="40.0713749" lon="-105.229789">
  <ele>1583.0</ele>
  <time>2026-09-02T20:50:24Z</time>
  <course>0.0</course>
  <speed>0.0</speed>
  <fix>3d</fix>
</trkpt>
<trkpt lat="40.0713749" lon="-105.229789">
  <ele>1583.0</ele>
  <time>2026-09-02T20:50:24Z</time>
  <course>359.88</course>
  <speed>0.0</speed>
  <fix>3d</fix>
</trkpt>
<trkpt lat="40.0713749" lon="-105.229789">
  <ele>1583.0</ele>
  <time>2026-09-02T20:50:24Z</time>
  <course>0.0</course>
  <speed>0.0</speed>
  <fix>3d</fix>
</trkpt>
<trkpt lat="40.0713749" lon="-105.229789">
  <ele>1583.0</ele>
  <time>2026-09-02T20:50:24Z</time>
  <course>359.86</course>
  <speed>0.0</speed>
  <fix>3d</fix>
</trkpt>
<trkpt lat="40.0713749" lon="-105.229789">
  <ele>1583.0</ele>
  <time>2026-09-02T20:50:24Z</time>
  <course>0.0</course>
  <speed>0.0</speed>
  <fix>3d</fix>
</trkpt>
<trkpt lat="40.0713749" lon="-105.229789">
  <ele>1583.0</ele>
  <time>2026-09-02T20:50:24Z</time>
  <course>359.85</course>
  <speed>0.0</speed>
  <fix>3d</fix>
</trkpt>
<trkpt lat="40.0713749" lon="-105.229789">
  <ele>1583.0</ele>
  <time>2026-09-02T20:50:24Z</time>
  <course>0.0</course>
  <speed>0.0</speed>
  <fix>3d</fix>
</trkpt>
<trkpt lat="40.0713749" lon="-105.229789">
  <ele>1583.0</ele>
  <time>2026-09-02T20:50:24Z</time>
  <course>359.82</course>
  <speed>0.0</speed>
  <fix>3d</fix>
</trkpt>
<trkpt lat="40.0713749" lon="-105.229789">
  <ele>1583.0</ele>
  <time>2026-09-02T20:50:24Z</time>
  <course>0.0</course>
  <speed>0.0</speed>
  <fix>3d</fix>
</trkpt>
<trkpt lat="40.0713749" lon="-105.229789">
  <ele>1583.0</ele>
  <time>2026-09-02T20:50:24Z</time>
  <course>359.8</course>
  <speed>0.0</speed>
  <fix>3d</fix>
</trkpt>
<trkpt lat="40.0713749" lon="-105.229789">
  <ele>1583.0</ele>
  <time>2026-09-02T20:50:24Z</time>
  <course>0.0</course>
  <speed>0.0</speed>
  <fix>3d</fix>
</trkpt>
<trkpt lat="40.0713749" lon="-105.229789">
  <ele>1583.0</ele>
  <time>2026-09-02T20:50:24Z</time>
  <course>359.78</course>
  <speed>0.0</speed>
  <fix>3d</fix>
</trkpt>
<trkpt lat="40.0713749" lon="-105.229789">
  <ele>1583.0</ele>
  <time>2026-09-02T20:50:24Z</time>
  <course>0.0</course>
  <speed>0.0</speed>
  <fix>3d</fix>
</trkpt>
<trkpt lat="40.0713749" lon="-105.229789">
  <ele>1583.0</ele>
  <time>2026-09-02T20:50:24Z</time>
  <course>359.76</course>
  <speed>0.0</speed>
  <fix>3d</fix>
</trkpt>
<trkpt lat="40.0713749" lon="-105.229789">
  <ele>1583.0</ele>
  <time>2026-09-02T20:50:24Z</time>
  <course>0.0</course>
  <speed>0.0</speed>
  <fix>3d</fix>
</trkpt>
<trkpt lat="40.0713749" lon="-105.229789">
  <ele>1583.0</ele>
  <time>2026-09-02T20:50:24Z</time>
  <course>359.74</course>
  <speed>0.0</speed>
  <fix>3d</fix>
</trkpt>
<trkpt lat="40.0713749" lon="-105.229789">
  <ele>1583.0</ele>
  <time>2026-09-02T20:50:24Z</time>
  <course>0.0</course>
  <speed>0.0</speed>
  <fix>3d</fix>
</trkpt>
<trkpt lat="40.0713749" lon="-105.229789">
  <ele>1583.0</ele>
  <time>2026-09-02T20:50:24Z</time>
  <course>359.72</course>
  <speed>0.0</speed>
  <fix>3d</fix>
</trkpt>
<trkpt lat="40.0713749" lon="-105.229789">
  <ele>1583.0</ele>
  <time>2026-09-02T20:50:24Z</time>
  <course>0.0</course>
  <speed>0.0</speed>
  <fix>3d</fix>
</trkpt>
<trkpt lat="40.0713749" lon="-105.229789">
  <ele>1583.0</ele>
  <time>2026-09-02T20:50:24Z</time>
  <course>0.0</course>
  <speed>0.0</speed>
  <fix>3d</fix>
</trkpt>
<trkpt lat="40.0713749" lon="-105.229789">
  <ele>1583.0</ele>
  <time>2026-09-02T20:50:24Z</time>
  <course>0.0</course>
  <speed>0.0</speed>
  <fix>3d</fix>
</trkpt>
<trkpt lat="40.0713749" lon="-105.229789">
  <ele>1583.0</ele>
  <time>2026-09-02T20:50:24Z</time>
  <course>0.0</course>
  <speed>0.0</speed>
  <fix>3d</fix>
</trkpt>
<trkpt lat="40.0713749" lon="-105.229789">
  <ele>1583.0</ele>
  <time>2026-09-02T20:50:24Z</time>
  <course>0.0</course>
  <speed>0.0</speed>
  <fix>3d</fix>
</trkpt>
<trkpt lat="40.0713749" lon="-105.229789">
  <ele>1583.0</ele>
  <time>2026-09-02T20:50:24Z</time>
  <course>0.0</course>
  <speed>0.0</speed>
  <fix>3d</fix>
</trkpt>
<trkpt lat="40.0713749" lon="-105.229789">
  <ele>1583.0</ele>
  <time>2026-09-02T20:50:25Z</time>
  <course>0.0</course>
  <speed>0.0</speed>
  <fix>3d</fix>
</trkpt>
<trkpt lat="40.0713749" lon="-105.229789">
  <ele>1583.0</ele>
  <time>2026-09-02T20:50:25Z</time>
  <course>0.0</course>
  <speed>0.0</speed>
  <fix>3d</fix>
</trkpt>
<trkpt lat="40.0713749" lon="-105.229789">
  <ele>1583.0</ele>
  <time>2026-09-02T20:50:25Z</time>
  <course>0.0</course>
  <speed>0.0</speed>
  <fix>3d</fix>
</trkpt>
<trkpt lat="40.0713749" lon="-105.229789">
  <ele>1583.0</ele>
  <time>2026-09-02T20:50:25Z</time>
  <course>0.0</course>
  <speed>0.0</speed>
  <fix>3d</fix>
</trkpt>
<trkpt lat="40.0713749" lon="-105.229789">
  <ele>1583.0</ele>
  <time>2026-09-02T20:50:25Z</time>
  <course>0.0</course>
  <speed>0.0</speed>
  <fix>3d</fix>
</trkpt>
<trkpt lat="40.0713749" lon="-105.229789">
  <ele>1583.0</ele>
  <time>2026-09-02T20:50:25Z</time>
  <course>0.0</course>
  <speed>0.0</speed>
  <fix>3d</fix>
</trkpt>
<trkpt lat="40.0713749" lon="-105.229789">
  <ele>1583.0</ele>
  <time>2026-09-02T20:50:25Z</time>
  <course>0.0</course>
  <speed>0.0</speed>
  <fix>3d</fix>
</trkpt>
<trkpt lat="40.0713749" lon="-105.229789">
  <ele>1583.0</ele>
  <time>2026-09-02T20:50:25Z</time>
  <course>0.0</course>
  <speed>0.0</speed>
  <fix>3d</fix>
</trkpt>
<trkpt lat="40.0713749" lon="-105.229789">
  <ele>1583.0</ele>
  <time>2026-09-02T20:50:25Z</time>
  <course>0.0</course>
  <speed>0.0</speed>
  <fix>3d</fix>
</trkpt>
<trkpt lat="40.0713749" lon="-105.229789">
  <ele>1583.0</ele>
  <time>2026-09-02T20:50:25Z</time>
  <course>0.0</course>
  <speed>0.0</speed>
  <fix>3d</fix>
</trkpt>
<trkpt lat="40.0713749" lon="-105.229789">
  <ele>1583.0</ele>
  <time>2026-09-02T20:50:25Z</time>
  <course>0.0</course>
  <speed>0.0</speed>
  <fix>3d</fix>
</trkpt>
<trkpt lat="40.0713749" lon="-105.229789">
  <ele>1583.0</ele>
  <time>2026-09-02T20:50:25Z</time>
  <course>0.0</course>
  <speed>0.0</speed>
  <fix>3d</fix>
</trkpt>
<trkpt lat="40.0713749" lon="-105.229789">
  <ele>1583.0</ele>
  <time>2026-09-02T20:50:25Z</time>
  <course>0.0</course>
  <speed>0.0</speed>
  <fix>3d</fix>
</trkpt>
<trkpt lat="40.0713749" lon="-105.229789">
  <ele>1583.0</ele>
  <time>2026-09-02T20:50:25Z</time>
  <course>0.0</course>
  <speed>0.0</speed>
  <fix>3d</fix>
</trkpt>
<trkpt lat="40.0713749" lon="-105.229789">
  <ele>1583.0</ele>
  <time>2026-09-02T20:50:25Z</time>
  <course>0.0</course>
  <speed>0.0</speed>
  <fix>3d</fix>
</trkpt>
<trkpt lat="40.0713749" lon="-105.229789">
  <ele>1583.0</ele>
  <time>2026-09-02T20:50:25Z</time>
  <course>0.0</course>
  <speed>0.0</speed>
  <fix>3d</fix>
</trkpt>
<trkpt lat="40.0713749" lon="-105.229789">
  <ele>1583.0</ele>
  <time>2026-09-02T20:50:25Z</time>
  <course>0.0</course>
  <speed>0.0</speed>
  <fix>3d</fix>
</trkpt>
<trkpt lat="40.0713749" lon="-105.229789">
  <ele>1583.0</ele>
  <time>2026-09-02T20:50:25Z</time>
  <course>0.0</course>
  <speed>0.0</speed>
  <fix>3d</fix>
</trkpt>
<trkpt lat="40.0713749" lon="-105.229789">
  <ele>1583.0</ele>
  <time>2026-09-02T20:50:25Z</time>
  <course>0.0</course>
  <speed>0.0</speed>
  <fix>3d</fix>
</trkpt>
<trkpt lat="40.0713749" lon="-105.229789">
  <ele>1583.0</ele>
  <time>2026-09-02T20:50:25Z</time>
  <course>0.0</course>
  <speed>0.0</speed>
  <fix>3d</fix>
</trkpt>
<trkpt lat="40.0713749" lon="-105.229789">
  <ele>1583.0</ele>
  <time>2026-09-02T20:50:25Z</time>
  <course>0.0</course>
  <speed>0.0</speed>
  <fix>3d</fix>
</trkpt>
<trkpt lat="40.0713749" lon="-105.229789">
  <ele>1583.0</ele>
  <time>2026-09-02T20:50:25Z</time>
  <course>0.0</course>
  <speed>0.0</speed>
  <fix>3d</fix>
</trkpt>
<trkpt lat="40.0713749" lon="-105.229789">
  <ele>1583.0</ele>
  <time>2026-09-02T20:50:25Z</time>
  <course>0.0</course>
  <speed>0.0</speed>
  <fix>3d</fix>
</trkpt>
<trkpt lat="40.0713749" lon="-105.229789">
  <ele>1583.0</ele>
  <time>2026-09-02T20:50:25Z</time>
  <course>0.0</course>
  <speed>0.0</speed>
  <fix>3d</fix>
</trkpt>
<trkpt lat="40.0713749" lon="-105.229789">
  <ele>1583.0</ele>
  <time>2026-09-02T20:50:25Z</time>
  <course>0.0</course>
  <speed>0.0</speed>
  <fix>3d</fix>
</trkpt>
<trkpt lat="40.0713749" lon="-105.229789">
  <ele>1583.0</ele>
  <time>2026-09-02T20:50:25Z</time>
  <course>0.0</course>
  <speed>0.0</speed>
  <fix>3d</fix>
</trkpt>
<trkpt lat="40.0713749" lon="-105.229789">
  <ele>1583.0</ele>
  <time>2026-09-02T20:50:25Z</time>
  <course>0.0</course>
  <speed>0.0</speed>
  <fix>3d</fix>
</trkpt>
<trkpt lat="40.0713749" lon="-105.229789">
  <ele>1583.0</ele>
  <time>2026-09-02T20:50:25Z</time>
  <course>0.0</course>
  <speed>0.0</speed>
  <fix>3d</fix>
</trkpt>
<trkpt lat="40.0713749" lon="-105.229789">
  <ele>1583.0</ele>
  <time>2026-09-02T20:50:25Z</time>
  <course>0.0</course>
  <speed>0.0</speed>
  <fix>3d</fix>
</trkpt>
<trkpt lat="40.0713749" lon="-105.229789">
  <ele>1583.0</ele>
  <time>2026-09-02T20:50:25Z</time>
  <course>0.0</course>
  <speed>0.0</speed>
  <fix>3d</fix>
</trkpt>
<trkpt lat="40.0713749" lon="-105.229789">
  <ele>1583.0</ele>
  <time>2026-09-02T20:50:25Z</time>
  <course>0.0</course>
  <speed>0.0</speed>
  <fix>3d</fix>
</trkpt>
<trkpt lat="40.0713749" lon="-105.229789">
  <ele>1583.0</ele>
  <time>2026-09-02T20:50:25Z</time>
  <course>0.0</course>
  <speed>0.0</speed>
  <fix>3d</fix>
</trkpt>
<trkpt lat="40.0713749" lon="-105.229789">
  <ele>1583.0</ele>
  <time>2026-09-02T20:50:25Z</time>
  <course>0.0</course>
  <speed>0.0</speed>
  <fix>3d</fix>
</trkpt>
<trkpt lat="40.0713749" lon="-105.229789">
  <ele>1583.0</ele>
  <time>2026-09-02T20:50:25Z</time>
  <course>0.0</course>
  <speed>0.0</speed>
  <fix>3d</fix>
</trkpt>
<trkpt lat="40.0713749" lon="-105.229789">
  <ele>1583.0</ele>
  <time>2026-09-02T20:50:25Z</time>
  <course>0.0</course>
  <speed>0.0</speed>
  <fix>3d</fix>
</trkpt>
<trkpt lat="40.0713749" lon="-105.229789">
  <ele>1583.0</ele>
  <time>2026-09-02T20:50:25Z</time>
  <course>0.0</course>
  <speed>0.0</speed>
  <fix>3d</fix>
</trkpt>
<trkpt lat="40.0713749" lon="-105.229789">
  <ele>1583.0</ele>
  <time>2026-09-02T20:50:25Z</time>
  <course>0.0</course>
  <speed>0.0</speed>
  <fix>3d</fix>
</trkpt>
<trkpt lat="40.0713749" lon="-105.229789">
  <ele>1583.0</ele>
  <time>2026-09-02T20:50:25Z</time>
  <course>0.0</course>
  <speed>0.0</speed>
  <fix>3d</fix>
</trkpt>
<trkpt lat="40.0713749" lon="-105.229789">
  <ele>1583.0</ele>
  <time>2026-09-02T20:50:25Z</time>
  <course>0.0</course>
  <speed>0.0</speed>
  <fix>3d</fix>
</trkpt>
<trkpt lat="40.0713749" lon="-105.229789">
  <ele>1583.0</ele>
  <time>2026-09-02T20:50:25Z</time>
  <course>0.0</course>
  <speed>0.0</speed>
  <fix>3d</fix>
</trkpt>
<trkpt lat="40.0713749" lon="-105.229789">
  <ele>1583.0</ele>
  <time>2026-09-02T20:50:25Z</time>
  <course>0.0</course>
  <speed>0.0</speed>
  <fix>3d</fix>
</trkpt>
<trkpt lat="40.0713749" lon="-105.229789">
  <ele>1583.0</ele>
  <time>2026-09-02T20:50:25Z</time>
  <course>0.0</course>
  <speed>0.0</speed>
  <fix>3d</fix>
</trkpt>
<trkpt lat="40.0713749" lon="-105.229789">
  <ele>1583.0</ele>
  <time>2026-09-02T20:50:25Z</time>
  <course>0.0</course>
  <speed>0.0</speed>
  <fix>3d</fix>
</trkpt>
<trkpt lat="40.0713749" lon="-105.229789">
  <ele>1583.0</ele>
  <time>2026-09-02T20:50:25Z</time>
  <course>0.0</course>
  <speed>0.0</speed>
  <fix>3d</fix>
</trkpt>
<trkpt lat="40.0713749" lon="-105.229789">
  <ele>1583.0</ele>
  <time>2026-09-02T20:50:25Z</time>
  <course>0.0</course>
  <speed>0.0</speed>
  <fix>3d</fix>
</trkpt>
<trkpt lat="40.0713749" lon="-105.229789">
  <ele>1583.0</ele>
  <time>2026-09-02T20:50:25Z</time>
  <course>0.0</course>
  <speed>0.0</speed>
  <fix>3d</fix>
</trkpt>
<trkpt lat="40.0713749" lon="-105.229789">
  <ele>1583.0</ele>
  <time>2026-09-02T20:50:25Z</time>
  <course>0.0</course>
  <speed>0.0</speed>
  <fix>3d</fix>
</trkpt>
<trkpt lat="40.0713749" lon="-105.229789">
  <ele>1583.0</ele>
  <time>2026-09-02T20:50:25Z</time>
  <course>0.0</course>
  <speed>0.0</speed>
  <fix>3d</fix>
</trkpt>
<trkpt lat="40.0713749" lon="-105.229789">
  <ele>1583.0</ele>
  <time>2026-09-02T20:50:25Z</time>
  <course>0.0</course>
  <speed>0.0</speed>
  <fix>3d</fix>
</trkpt>
<trkpt lat="40.0713749" lon="-105.229789">
  <ele>1583.0</ele>
  <time>2026-09-02T20:50:25Z</time>
  <course>0.0</course>
  <speed>0.0</speed>
  <fix>3d</fix>
</trkpt>
<trkpt lat="40.0713749" lon="-105.229789">
  <ele>1583.0</ele>
  <time>2026-09-02T20:50:25Z</time>
  <course>0.0</course>
  <speed>0.0</speed>
  <fix>3d</fix>
</trkpt>
<trkpt lat="40.0713749" lon="-105.229789">
  <ele>1583.0</ele>
  <time>2026-09-02T20:50:25Z</time>
  <course>0.0</course>
  <speed>0.0</speed>
  <fix>3d</fix>
</trkpt>
<trkpt lat="40.0713749" lon="-105.229789">
  <ele>1583.0</ele>
  <time>2026-09-02T20:50:25Z</time>
  <course>0.0</course>
  <speed>0.0</speed>
  <fix>3d</fix>
</trkpt>
<trkpt lat="40.0713749" lon="-105.229789">
  <ele>1583.0</ele>
  <time>2026-09-02T20:50:25Z</time>
  <course>0.0</course>
  <speed>0.0</speed>
  <fix>3d</fix>
</trkpt>
<trkpt lat="40.0713749" lon="-105.229789">
  <ele>1583.0</ele>
  <time>2026-09-02T20:50:25Z</time>
  <course>0.0</course>
  <speed>0.0</speed>
  <fix>3d</fix>
</trkpt>
<trkpt lat="40.0713749" lon="-105.229789">
  <ele>1583.0</ele>
  <time>2026-09-02T20:50:25Z</time>
  <course>0.0</course>
  <speed>0.0</speed>
  <fix>3d</fix>
</trkpt>
<trkpt lat="40.0713749" lon="-105.229789">
  <ele>1583.0</ele>
  <time>2026-09-02T20:50:25Z</time>
  <course>0.0</course>
  <speed>0.0</speed>
  <fix>3d</fix>
</trkpt>
<trkpt lat="40.0713749" lon="-105.229789">
  <ele>1583.0</ele>
  <time>2026-09-02T20:50:25Z</time>
  <course>0.0</course>
  <speed>0.0</speed>
  <fix>3d</fix>
</trkpt>
<trkpt lat="40.0713749" lon="-105.229789">
  <ele>1583.0</ele>
  <time>2026-09-02T20:50:25Z</time>
  <course>0.0</course>
  <speed>0.0</speed>
  <fix>3d</fix>
</trkpt>
<trkpt lat="40.0713749" lon="-105.229789">
  <ele>1583.0</ele>
  <time>2026-09-02T20:50:25Z</time>
  <course>0.0</course>
  <speed>0.0</speed>
  <fix>3d</fix>
</trkpt>
<trkpt lat="40.0713749" lon="-105.229789">
  <ele>1583.0</ele>
  <time>2026-09-02T20:50:25Z</time>
  <course>0.0</course>
  <speed>0.0</speed>
  <fix>3d</fix>
</trkpt>
<trkpt lat="40.0713749" lon="-105.229789">
  <ele>1583.0</ele>
  <time>2026-09-02T20:50:25Z</time>
  <course>0.0</course>
  <speed>0.0</speed>
  <fix>3d</fix>
</trkpt>
<trkpt lat="40.0713749" lon="-105.229789">
  <ele>1583.0</ele>
  <time>2026-09-02T20:50:25Z</time>
  <course>0.0</course>
  <speed>0.0</speed>
  <fix>3d</fix>
</trkpt>
<trkpt lat="40.0713749" lon="-105.229789">
  <ele>1583.0</ele>
  <time>2026-09-02T20:50:25Z</time>
  <course>0.0</course>
  <speed>0.0</speed>
  <fix>3d</fix>
</trkpt>
<trkpt lat="40.0713749" lon="-105.229789">
  <ele>1583.0</ele>
  <time>2026-09-02T20:50:25Z</time>
  <course>0.0</course>
  <speed>0.0</speed>
  <fix>3d</fix>
</trkpt>
<trkpt lat="40.0713749" lon="-105.229789">
  <ele>1583.0</ele>
  <time>2026-09-02T20:50:25Z</time>
  <course>0.0</course>
  <speed>0.0</speed>
  <fix>3d</fix>
</trkpt>
<trkpt lat="40.0713749" lon="-105.229789">
  <ele>1583.0</ele>
  <time>2026-09-02T20:50:25Z</time>
  <course>0.0</course>
  <speed>0.0</speed>
  <fix>3d</fix>
</trkpt>
<trkpt lat="40.0713749" lon="-105.229789">
  <ele>1583.0</ele>
  <time>2026-09-02T20:50:25Z</time>
  <course>0.0</course>
  <speed>0.0</speed>
  <fix>3d</fix>
</trkpt>
<trkpt lat="40.0713749" lon="-105.229789">
  <ele>1583.0</ele>
  <time>2026-09-02T20:50:25Z</time>
  <course>0.0</course>
  <speed>0.0</speed>
  <fix>3d</fix>
</trkpt>
<trkpt lat="40.0713749" lon="-105.229789">
  <ele>1583.0</ele>
  <time>2026-09-02T20:50:25Z</time>
  <course>0.0</course>
  <speed>0.0</speed>
  <fix>3d</fix>
</trkpt>
<trkpt lat="40.0713749" lon="-105.229789">
  <ele>1583.0</ele>
  <time>2026-09-02T20:50:25Z</time>
  <course>0.0</course>
  <speed>0.0</speed>
  <fix>3d</fix>
</trkpt>
<trkpt lat="40.0713749" lon="-105.229789">
  <ele>1583.0</ele>
  <time>2026-09-02T20:50:25Z</time>
  <course>0.0</course>
  <speed>0.0</speed>
  <fix>3d</fix>
</trkpt>
<trkpt lat="40.0713749" lon="-105.229789">
  <ele>1583.0</ele>
  <time>2026-09-02T20:50:25Z</time>
  <course>0.0</course>
  <speed>0.0</speed>
  <fix>3d</fix>
</trkpt>
<trkpt lat="40.0713749" lon="-105.229789">
  <ele>1583.0</ele>
  <time>2026-09-02T20:50:25Z</time>
  <course>0.0</course>
  <speed>0.0</speed>
  <fix>3d</fix>
</trkpt>
<trkpt lat="40.0713749" lon="-105.229789">
  <ele>1583.0</ele>
  <time>2026-09-02T20:50:25Z</time>
  <course>0.0</course>
  <speed>0.0</speed>
  <fix>3d</fix>
</trkpt>
<trkpt lat="40.0713749" lon="-105.229789">
  <ele>1583.0</ele>
  <time>2026-09-02T20:50:25Z</time>
  <course>0.0</course>
  <speed>0.0</speed>
  <fix>3d</fix>
</trkpt>
<trkpt lat="40.0713749" lon="-105.229789">
  <ele>1583.0</ele>
  <time>2026-09-02T20:50:25Z</time>
  <course>0.0</course>
  <speed>0.0</speed>
  <fix>3d</fix>
</trkpt>
<trkpt lat="40.0713749" lon="-105.229789">
  <ele>1583.0</ele>
  <time>2026-09-02T20:50:25Z</time>
  <course>0.0</course>
  <speed>0.0</speed>
  <fix>3d</fix>
</trkpt>
<trkpt lat="40.0713749" lon="-105.229789">
  <ele>1583.0</ele>
  <time>2026-09-02T20:50:25Z</time>
  <course>0.0</course>
  <speed>0.0</speed>
  <fix>3d</fix>
</trkpt>
<trkpt lat="40.0713749" lon="-105.229789">
  <ele>1583.0</ele>
  <time>2026-09-02T20:50:25Z</time>
  <course>0.0</course>
  <speed>0.0</speed>
  <fix>3d</fix>
</trkpt>
<trkpt lat="40.0713749" lon="-105.229789">
  <ele>1583.0</ele>
  <time>2026-09-02T20:50:25Z</time>
  <course>0.0</course>
  <speed>0.0</speed>
  <fix>3d</fix>
</trkpt>
<trkpt lat="40.0713749" lon="-105.229789">
  <ele>1583.0</ele>
  <time>2026-09-02T20:50:25Z</time>
  <course>0.0</course>
  <speed>0.0</speed>
  <fix>3d</fix>
</trkpt>
<trkpt lat="40.0713749" lon="-105.229789">
  <ele>1583.0</ele>
  <time>2026-09-02T20:50:25Z</time>
  <course>0.0</course>
  <speed>0.0</speed>
  <fix>3d</fix>
</trkpt>
<trkpt lat="40.0713749" lon="-105.229789">
  <ele>1583.0</ele>
  <time>2026-09-02T20:50:25Z</time>
  <course>0.0</course>
  <speed>0.0</speed>
  <fix>3d</fix>
</trkpt>
<trkpt lat="40.0713749" lon="-105.229789">
  <ele>1583.0</ele>
  <time>2026-09-02T20:50:25Z</time>
  <course>0.0</course>
  <speed>0.0</speed>
  <fix>3d</fix>
</trkpt>
<trkpt lat="40.0713749" lon="-105.229789">
  <ele>1583.0</ele>
  <time>2026-09-02T20:50:25Z</time>
  <course>0.0</course>
  <speed>0.0</speed>
  <fix>3d</fix>
</trkpt>
<trkpt lat="40.0713749" lon="-105.229789">
  <ele>1583.0</ele>
  <time>2026-09-02T20:50:25Z</time>
  <course>0.0</course>
  <speed>0.0</speed>
  <fix>3d</fix>
</trkpt>
<trkpt lat="40.0713749" lon="-105.229789">
  <ele>1583.0</ele>
  <time>2026-09-02T20:50:25Z</time>
  <course>0.0</course>
  <speed>0.0</speed>
  <fix>3d</fix>
</trkpt>
<trkpt lat="40.0713749" lon="-105.229789">
  <ele>1583.0</ele>
  <time>2026-09-02T20:50:25Z</time>
  <course>0.0</course>
  <speed>0.0</speed>
  <fix>3d</fix>
</trkpt>
<trkpt lat="40.0713749" lon="-105.229789">
  <ele>1583.0</ele>
  <time>2026-09-02T20:50:25Z</time>
  <course>0.0</course>
  <speed>0.0</speed>
  <fix>3d</fix>
</trkpt>
<trkpt lat="40.0713749" lon="-105.229789">
  <ele>1583.0</ele>
  <time>2026-09-02T20:50:25Z</time>
  <course>0.0</course>
  <speed>0.0</speed>
  <fix>3d</fix>
</trkpt>
<trkpt lat="40.0713749" lon="-105.229789">
  <ele>1583.0</ele>
  <time>2026-09-02T20:50:25Z</time>
  <course>0.0</course>
  <speed>0.0</speed>
  <fix>3d</fix>
</trkpt>
<trkpt lat="40.0713749" lon="-105.229789">
  <ele>1583.0</ele>
  <time>2026-09-02T20:50:25Z</time>
  <course>0.0</course>
  <speed>0.0</speed>
  <fix>3d</fix>
</trkpt>
<trkpt lat="40.0713749" lon="-105.229789">
  <ele>1583.0</ele>
  <time>2026-09-02T20:50:25Z</time>
  <course>0.0</course>
  <speed>0.0</speed>
  <fix>3d</fix>
</trkpt>
<trkpt lat="40.0713749" lon="-105.229789">
  <ele>1583.0</ele>
  <time>2026-09-02T20:50:25Z</time>
  <course>0.0</course>
  <speed>0.0</speed>
  <fix>3d</fix>
</trkpt>
<trkpt lat="40.0713749" lon="-105.229789">
  <ele>1583.0</ele>
  <time>2026-09-02T20:50:25Z</time>
  <course>0.0</course>
  <speed>0.0</speed>
  <fix>3d</fix>
</trkpt>
<trkpt lat="40.0713749" lon="-105.229789">
  <ele>1583.0</ele>
  <time>2026-09-02T20:50:25Z</time>
  <course>0.0</course>
  <speed>0.0</speed>
  <fix>3d</fix>
</trkpt>
<trkpt lat="40.0713749" lon="-105.229789">
  <ele>1583.0</ele>
  <time>2026-09-02T20:50:25Z</time>
  <course>0.0</course>
  <speed>0.0</speed>
  <fix>3d</fix>
</trkpt>
<trkpt lat="40.0713749" lon="-105.229789">
  <ele>1583.0</ele>
  <time>2026-09-02T20:50:25Z</time>
  <course>0.0</course>
  <speed>0.0</speed>
  <fix>3d</fix>
</trkpt>
<trkpt lat="40.0713749" lon="-105.229789">
  <ele>1583.0</ele>
  <time>2026-09-02T20:50:25Z</time>
  <course>0.0</course>
  <speed>0.0</speed>
  <fix>3d</fix>
</trkpt>
<trkpt lat="40.0713749" lon="-105.229789">
  <ele>1583.0</ele>
  <time>2026-09-02T20:50:25Z</time>
  <course>0.0</course>
  <speed>0.0</speed>
  <fix>3d</fix>
</trkpt>
<trkpt lat="40.0713749" lon="-105.229789">
  <ele>1583.0</ele>
  <time>2026-09-02T20:50:25Z</time>
  <course>0.0</course>
  <speed>0.0</speed>
  <fix>3d</fix>
</trkpt>
<trkpt lat="40.0713749" lon="-105.229789">
  <ele>1583.0</ele>
  <time>2026-09-02T20:50:25Z</time>
  <course>0.0</course>
  <speed>0.0</speed>
  <fix>3d</fix>
</trkpt>
<trkpt lat="40.0713749" lon="-105.229789">
  <ele>1583.0</ele>
  <time>2026-09-02T20:50:25Z</time>
  <course>0.0</course>
  <speed>0.0</speed>
  <fix>3d</fix>
</trkpt>
<trkpt lat="40.0713749" lon="-105.229789">
  <ele>1583.0</ele>
  <time>2026-09-02T20:50:25Z</time>
  <course>0.0</course>
  <speed>0.0</speed>
  <fix>3d</fix>
</trkpt>
<trkpt lat="40.0713749" lon="-105.229789">
  <ele>1583.0</ele>
  <time>2026-09-02T20:50:25Z</time>
  <course>0.0</course>
  <speed>0.0</speed>
  <fix>3d</fix>
</trkpt>
<trkpt lat="40.0713749" lon="-105.229789">
  <ele>1583.0</ele>
  <time>2026-09-02T20:50:25Z</time>
  <course>0.0</course>
  <speed>0.0</speed>
  <fix>3d</fix>
</trkpt>
<trkpt lat="40.0713749" lon="-105.229789">
  <ele>1583.0</ele>
  <time>2026-09-02T20:50:25Z</time>
  <course>0.0</course>
  <speed>0.0</speed>
  <fix>3d</fix>
</trkpt>
<trkpt lat="40.0713749" lon="-105.229789">
  <ele>1583.0</ele>
  <time>2026-09-02T20:50:25Z</time>
  <course>0.0</course>
  <speed>0.0</speed>
  <fix>3d</fix>
</trkpt>
<trkpt lat="40.0713749" lon="-105.229789">
  <ele>1583.0</ele>
  <time>2026-09-02T20:50:25Z</time>
  <course>0.0</course>
  <speed>0.0</speed>
  <fix>3d</fix>
</trkpt>
<trkpt lat="40.0713749" lon="-105.229789">
  <ele>1583.0</ele>
  <time>2026-09-02T20:50:25Z</time>
  <course>0.0</course>
  <speed>0.0</speed>
  <fix>3d</fix>
</trkpt>
<trkpt lat="40.0713749" lon="-105.229789">
  <ele>1583.0</ele>
  <time>2026-09-02T20:50:25Z</time>
  <course>0.0</course>
  <speed>0.0</speed>
  <fix>3d</fix>
</trkpt>
<trkpt lat="40.0713749" lon="-105.229789">
  <ele>1583.0</ele>
  <time>2026-09-02T20:50:25Z</time>
  <course>0.0</course>
  <speed>0.0</speed>
  <fix>3d</fix>
</trkpt>
<trkpt lat="40.0713749" lon="-105.229789">
  <ele>1583.0</ele>
  <time>2026-09-02T20:50:25Z</time>
  <course>0.0</course>
  <speed>0.0</speed>
  <fix>3d</fix>
</trkpt>
<trkpt lat="40.0713749" lon="-105.229789">
  <ele>1583.0</ele>
  <time>2026-09-02T20:50:25Z</time>
  <course>0.0</course>
  <speed>0.0</speed>
  <fix>3d</fix>
</trkpt>
<trkpt lat="40.0713749" lon="-105.229789">
  <ele>1583.0</ele>
  <time>2026-09-02T20:50:25Z</time>
  <course>0.0</course>
  <speed>0.0</speed>
  <fix>3d</fix>
</trkpt>
<trkpt lat="40.0713749" lon="-105.229789">
  <ele>1583.0</ele>
  <time>2026-09-02T20:50:25Z</time>
  <course>0.0</course>
  <speed>0.0</speed>
  <fix>3d</fix>
</trkpt>
<trkpt lat="40.0713749" lon="-105.229789">
  <ele>1583.0</ele>
  <time>2026-09-02T20:50:25Z</time>
  <course>0.0</course>
  <speed>0.0</speed>
  <fix>3d</fix>
</trkpt>
<trkpt lat="40.0713749" lon="-105.229789">
  <ele>1583.0</ele>
  <time>2026-09-02T20:50:25Z</time>
  <course>0.0</course>
  <speed>0.0</speed>
  <fix>3d</fix>
</trkpt>
<trkpt lat="40.0713749" lon="-105.229789">
  <ele>1583.0</ele>
  <time>2026-09-02T20:50:25Z</time>
  <course>0.0</course>
  <speed>0.0</speed>
  <fix>3d</fix>
</trkpt>
<trkpt lat="40.0713749" lon="-105.229789">
  <ele>1583.0</ele>
  <time>2026-09-02T20:50:25Z</time>
  <course>0.0</course>
  <speed>0.0</speed>
  <fix>3d</fix>
</trkpt>
<trkpt lat="40.0713749" lon="-105.229789">
  <ele>1583.0</ele>
  <time>2026-09-02T20:50:25Z</time>
  <course>0.0</course>
  <speed>0.0</speed>
  <fix>3d</fix>
</trkpt>
<trkpt lat="40.0713749" lon="-105.229789">
  <ele>1583.0</ele>
  <time>2026-09-02T20:50:25Z</time>
  <course>0.0</course>
  <speed>0.0</speed>
  <fix>3d</fix>
</trkpt>
<trkpt lat="40.0713749" lon="-105.229789">
  <ele>1583.0</ele>
  <time>2026-09-02T20:50:25Z</time>
  <course>0.0</course>
  <speed>0.0</speed>
  <fix>3d</fix>
</trkpt>
<trkpt lat="40.0713749" lon="-105.229789">
  <ele>1583.0</ele>
  <time>2026-09-02T20:50:25Z</time>
  <course>0.0</course>
  <speed>0.0</speed>
  <fix>3d</fix>
</trkpt>
<trkpt lat="40.0713749" lon="-105.229789">
  <ele>1583.0</ele>
  <time>2026-09-02T20:50:25Z</time>
  <course>0.0</course>
  <speed>0.0</speed>
  <fix>3d</fix>
</trkpt>
<trkpt lat="40.0713749" lon="-105.229789">
  <ele>1583.0</ele>
  <time>2026-09-02T20:50:25Z</time>
  <course>0.0</course>
  <speed>0.0</speed>
  <fix>3d</fix>
</trkpt>
<trkpt lat="40.0713749" lon="-105.229789">
  <ele>1583.0</ele>
  <time>2026-09-02T20:50:25Z</time>
  <course>0.0</course>
  <speed>0.0</speed>
  <fix>3d</fix>
</trkpt>
<trkpt lat="40.0713749" lon="-105.229789">
  <ele>1583.0</ele>
  <time>2026-09-02T20:50:25Z</time>
  <course>0.0</course>
  <speed>0.0</speed>
  <fix>3d</fix>
</trkpt>
<trkpt lat="40.0713749" lon="-105.229789">
  <ele>1583.0</ele>
  <time>2026-09-02T20:50:25Z</time>
  <course>0.0</course>
  <speed>0.0</speed>
  <fix>3d</fix>
</trkpt>
<trkpt lat="40.0713749" lon="-105.229789">
  <ele>1583.0</ele>
  <time>2026-09-02T20:50:25Z</time>
  <course>0.0</course>
  <speed>0.0</speed>
  <fix>3d</fix>
</trkpt>
<trkpt lat="40.0713749" lon="-105.229789">
  <ele>1583.0</ele>
  <time>2026-09-02T20:50:25Z</time>
  <course>0.0</course>
  <speed>0.0</speed>
  <fix>3d</fix>
</trkpt>
<trkpt lat="40.0713749" lon="-105.229789">
  <ele>1583.0</ele>
  <time>2026-09-02T20:50:25Z</time>
  <course>0.0</course>
  <speed>0.0</speed>
  <fix>3d</fix>
</trkpt>
<trkpt lat="40.0713749" lon="-105.229789">
  <ele>1583.0</ele>
  <time>2026-09-02T20:50:25Z</time>
  <course>0.0</course>
  <speed>0.0</speed>
  <fix>3d</fix>
</trkpt>
<trkpt lat="40.0713749" lon="-105.229789">
  <ele>1583.0</ele>
  <time>2026-09-02T20:50:25Z</time>
  <course>0.0</course>
  <speed>0.0</speed>
  <fix>3d</fix>
</trkpt>
<trkpt lat="40.0713749" lon="-105.229789">
  <ele>1583.0</ele>
  <time>2026-09-02T20:50:25Z</time>
  <course>0.0</course>
  <speed>0.0</speed>
  <fix>3d</fix>
</trkpt>
<trkpt lat="40.0713749" lon="-105.229789">
  <ele>1583.0</ele>
  <time>2026-09-02T20:50:25Z</time>
  <course>0.0</course>
  <speed>0.0</speed>
  <fix>3d</fix>
</trkpt>
<trkpt lat="40.0713749" lon="-105.229789">
  <ele>1583.0</ele>
  <time>2026-09-02T20:50:25Z</time>
  <course>0.0</course>
  <speed>0.0</speed>
  <fix>3d</fix>
</trkpt>
<trkpt lat="40.0713749" lon="-105.229789">
  <ele>1583.0</ele>
  <time>2026-09-02T20:50:25Z</time>
  <course>0.0</course>
  <speed>0.0</speed>
  <fix>3d</fix>
</trkpt>
<trkpt lat="40.0713749" lon="-105.229789">
  <ele>1583.0</ele>
  <time>2026-09-02T20:50:25Z</time>
  <course>0.0</course>
  <speed>0.0</speed>
  <fix>3d</fix>
</trkpt>
<trkpt lat="40.0713749" lon="-105.229789">
  <ele>1583.0</ele>
  <time>2026-09-02T20:50:25Z</time>
  <course>0.0</course>
  <speed>0.0</speed>
  <fix>3d</fix>
</trkpt>
<trkpt lat="40.0713749" lon="-105.229789">
  <ele>1583.0</ele>
  <time>2026-09-02T20:50:25Z</time>
  <course>0.0</course>
  <speed>0.0</speed>
  <fix>3d</fix>
</trkpt>
<trkpt lat="40.0713749" lon="-105.229789">
  <ele>1583.0</ele>
  <time>2026-09-02T20:50:25Z</time>
  <course>0.0</course>
  <speed>0.0</speed>
  <fix>3d</fix>
</trkpt>
<trkpt lat="40.0713749" lon="-105.229789">
  <ele>1583.0</ele>
  <time>2026-09-02T20:50:25Z</time>
  <course>0.0</course>
  <speed>0.0</speed>
  <fix>3d</fix>
</trkpt>
<trkpt lat="40.0713749" lon="-105.229789">
  <ele>1583.0</ele>
  <time>2026-09-02T20:50:25Z</time>
  <course>0.0</course>
  <speed>0.0</speed>
  <fix>3d</fix>
</trkpt>
<trkpt lat="40.0713749" lon="-105.229789">
  <ele>1583.0</ele>
  <time>2026-09-02T20:50:25Z</time>
  <course>0.0</course>
  <speed>0.0</speed>
  <fix>3d</fix>
</trkpt>
<trkpt lat="40.0713749" lon="-105.229789">
  <ele>1583.0</ele>
  <time>2026-09-02T20:50:25Z</time>
  <course>0.0</course>
  <speed>0.0</speed>
  <fix>3d</fix>
</trkpt>
<trkpt lat="40.0713749" lon="-105.229789">
  <ele>1583.0</ele>
  <time>2026-09-02T20:50:25Z</time>
  <course>0.0</course>
  <speed>0.0</speed>
  <fix>3d</fix>
</trkpt>
<trkpt lat="40.0713749" lon="-105.229789">
  <ele>1583.0</ele>
  <time>2026-09-02T20:50:25Z</time>
  <course>0.0</course>
  <speed>0.0</speed>
  <fix>3d</fix>
</trkpt>
<trkpt lat="40.0713749" lon="-105.229789">
  <ele>1583.0</ele>
  <time>2026-09-02T20:50:25Z</time>
  <course>0.0</course>
  <speed>0.0</speed>
  <fix>3d</fix>
</trkpt>
<trkpt lat="40.0713749" lon="-105.229789">
  <ele>1583.0</ele>
  <time>2026-09-02T20:50:25Z</time>
  <course>0.0</course>
  <speed>0.0</speed>
  <fix>3d</fix>
</trkpt>
<trkpt lat="40.0713749" lon="-105.229789">
  <ele>1583.0</ele>
  <time>2026-09-02T20:50:25Z</time>
  <course>0.0</course>
  <speed>0.0</speed>
  <fix>3d</fix>
</trkpt>
<trkpt lat="40.0713749" lon="-105.229789">
  <ele>1583.0</ele>
  <time>2026-09-02T20:50:25Z</time>
  <course>0.0</course>
  <speed>0.0</speed>
  <fix>3d</fix>
</trkpt>
<trkpt lat="40.0713749" lon="-105.229789">
  <ele>1583.0</ele>
  <time>2026-09-02T20:50:25Z</time>
  <course>0.0</course>
  <speed>0.0</speed>
  <fix>3d</fix>
</trkpt>
<trkpt lat="40.0713749" lon="-105.229789">
  <ele>1583.0</ele>
  <time>2026-09-02T20:50:25Z</time>
  <course>0.0</course>
  <speed>0.0</speed>
  <fix>3d</fix>
</trkpt>
<trkpt lat="40.0713749" lon="-105.229789">
  <ele>1583.0</ele>
  <time>2026-09-02T20:50:25Z</time>
  <course>0.0</course>
  <speed>0.0</speed>
  <fix>3d</fix>
</trkpt>
<trkpt lat="40.0713749" lon="-105.229789">
  <ele>1583.0</ele>
  <time>2026-09-02T20:50:25Z</time>
  <course>0.0</course>
  <speed>0.0</speed>
  <fix>3d</fix>
</trkpt>
<trkpt lat="40.0713749" lon="-105.229789">
  <ele>1583.0</ele>
  <time>2026-09-02T20:50:25Z</time>
  <course>0.0</course>
  <speed>0.0</speed>
  <fix>3d</fix>
</trkpt>
<trkpt lat="40.0713749" lon="-105.229789">
  <ele>1583.0</ele>
  <time>2026-09-02T20:50:25Z</time>
  <course>0.0</course>
  <speed>0.0</speed>
  <fix>3d</fix>
</trkpt>
<trkpt lat="40.0713749" lon="-105.229789">
  <ele>1583.0</ele>
  <time>2026-09-02T20:50:25Z</time>
  <course>0.0</course>
  <speed>0.0</speed>
  <fix>3d</fix>
</trkpt>
<trkpt lat="40.0713749" lon="-105.229789">
  <ele>1583.0</ele>
  <time>2026-09-02T20:50:25Z</time>
  <course>0.0</course>
  <speed>0.0</speed>
  <fix>3d</fix>
</trkpt>
<trkpt lat="40.0713749" lon="-105.229789">
  <ele>1583.0</ele>
  <time>2026-09-02T20:50:25Z</time>
  <course>0.0</course>
  <speed>0.0</speed>
  <fix>3d</fix>
</trkpt>
<trkpt lat="40.0713749" lon="-105.229789">
  <ele>1583.0</ele>
  <time>2026-09-02T20:50:25Z</time>
  <course>0.0</course>
  <speed>0.0</speed>
  <fix>3d</fix>
</trkpt>
<trkpt lat="40.0713749" lon="-105.229789">
  <ele>1583.0</ele>
  <time>2026-09-02T20:50:25Z</time>
  <course>0.0</course>
  <speed>0.0</speed>
  <fix>3d</fix>
</trkpt>
<trkpt lat="40.0713749" lon="-105.229789">
  <ele>1583.0</ele>
  <time>2026-09-02T20:50:25Z</time>
  <course>0.0</course>
  <speed>0.0</speed>
  <fix>3d</fix>
</trkpt>
<trkpt lat="40.0713749" lon="-105.229789">
  <ele>1583.0</ele>
  <time>2026-09-02T20:50:25Z</time>
  <course>0.0</course>
  <speed>0.0</speed>
  <fix>3d</fix>
</trkpt>
<trkpt lat="40.0713749" lon="-105.229789">
  <ele>1583.0</ele>
  <time>2026-09-02T20:50:25Z</time>
  <course>0.0</course>
  <speed>0.0</speed>
  <fix>3d</fix>
</trkpt>
<trkpt lat="40.0713749" lon="-105.229789">
  <ele>1583.0</ele>
  <time>2026-09-02T20:50:25Z</time>
  <course>0.0</course>
  <speed>0.0</speed>
  <fix>3d</fix>
</trkpt>
<trkpt lat="40.0713749" lon="-105.229789">
  <ele>1583.0</ele>
  <time>2026-09-02T20:50:25Z</time>
  <course>0.0</course>
  <speed>0.0</speed>
  <fix>3d</fix>
</trkpt>
<trkpt lat="40.0713749" lon="-105.229789">
  <ele>1583.0</ele>
  <time>2026-09-02T20:50:25Z</time>
  <course>0.0</course>
  <speed>0.0</speed>
  <fix>3d</fix>
</trkpt>
<trkpt lat="40.0713749" lon="-105.229789">
  <ele>1583.0</ele>
  <time>2026-09-02T20:50:25Z</time>
  <course>0.0</course>
  <speed>0.0</speed>
  <fix>3d</fix>
</trkpt>
<trkpt lat="40.0713749" lon="-105.229789">
  <ele>1583.0</ele>
  <time>2026-09-02T20:50:25Z</time>
  <course>0.0</course>
  <speed>0.0</speed>
  <fix>3d</fix>
</trkpt>
<trkpt lat="40.0713749" lon="-105.229789">
  <ele>1583.0</ele>
  <time>2026-09-02T20:50:25Z</time>
  <course>0.0</course>
  <speed>0.0</speed>
  <fix>3d</fix>
</trkpt>
<trkpt lat="40.0713749" lon="-105.229789">
  <ele>1583.0</ele>
  <time>2026-09-02T20:50:25Z</time>
  <course>0.0</course>
  <speed>0.0</speed>
  <fix>3d</fix>
</trkpt>
<trkpt lat="40.0713749" lon="-105.229789">
  <ele>1583.0</ele>
  <time>2026-09-02T20:50:25Z</time>
  <course>0.0</course>
  <speed>0.0</speed>
  <fix>3d</fix>
</trkpt>
<trkpt lat="40.0713749" lon="-105.229789">
  <ele>1583.0</ele>
  <time>2026-09-02T20:50:25Z</time>
  <course>0.0</course>
  <speed>0.0</speed>
  <fix>3d</fix>
</trkpt>
<trkpt lat="40.0713749" lon="-105.229789">
  <ele>1583.0</ele>
  <time>2026-09-02T20:50:25Z</time>
  <course>0.0</course>
  <speed>0.0</speed>
  <fix>3d</fix>
</trkpt>
<trkpt lat="40.0713749" lon="-105.229789">
  <ele>1583.0</ele>
  <time>2026-09-02T20:50:25Z</time>
  <course>0.0</course>
  <speed>0.0</speed>
  <fix>3d</fix>
</trkpt>
<trkpt lat="40.0713749" lon="-105.229789">
  <ele>1583.0</ele>
  <time>2026-09-02T20:50:25Z</time>
  <course>0.0</course>
  <speed>0.0</speed>
  <fix>3d</fix>
</trkpt>
<trkpt lat="40.0713749" lon="-105.229789">
  <ele>1583.0</ele>
  <time>2026-09-02T20:50:25Z</time>
  <course>0.0</course>
  <speed>0.0</speed>
  <fix>3d</fix>
</trkpt>
<trkpt lat="40.0713749" lon="-105.229789">
  <ele>1583.0</ele>
  <time>2026-09-02T20:50:25Z</time>
  <course>0.0</course>
  <speed>0.0</speed>
  <fix>3d</fix>
</trkpt>
<trkpt lat="40.0713749" lon="-105.229789">
  <ele>1583.0</ele>
  <time>2026-09-02T20:50:25Z</time>
  <course>0.0</course>
  <speed>0.0</speed>
  <fix>3d</fix>
</trkpt>
<trkpt lat="40.0713749" lon="-105.229789">
  <ele>1583.0</ele>
  <time>2026-09-02T20:50:25Z</time>
  <course>0.0</course>
  <speed>0.0</speed>
  <fix>3d</fix>
</trkpt>
<trkpt lat="40.0713749" lon="-105.229789">
  <ele>1583.0</ele>
  <time>2026-09-02T20:50:25Z</time>
  <course>0.0</course>
  <speed>0.0</speed>
  <fix>3d</fix>
</trkpt>
<trkpt lat="40.0713749" lon="-105.229789">
  <ele>1583.0</ele>
  <time>2026-09-02T20:50:25Z</time>
  <course>0.0</course>
  <speed>0.0</speed>
  <fix>3d</fix>
</trkpt>
<trkpt lat="40.0713749" lon="-105.229789">
  <ele>1583.0</ele>
  <time>2026-09-02T20:50:25Z</time>
  <course>0.0</course>
  <speed>0.0</speed>
  <fix>3d</fix>
</trkpt>
<trkpt lat="40.0713749" lon="-105.229789">
  <ele>1583.0</ele>
  <time>2026-09-02T20:50:25Z</time>
  <course>0.0</course>
  <speed>0.0</speed>
  <fix>3d</fix>
</trkpt>
<trkpt lat="40.0713749" lon="-105.229789">
  <ele>1583.0</ele>
  <time>2026-09-02T20:50:25Z</time>
  <course>0.0</course>
  <speed>0.0</speed>
  <fix>3d</fix>
</trkpt>
<trkpt lat="40.0713749" lon="-105.229789">
  <ele>1583.0</ele>
  <time>2026-09-02T20:50:25Z</time>
  <course>0.0</course>
  <speed>0.0</speed>
  <fix>3d</fix>
</trkpt>
<trkpt lat="40.0713749" lon="-105.229789">
  <ele>1583.0</ele>
  <time>2026-09-02T20:50:25Z</time>
  <course>0.0</course>
  <speed>0.0</speed>
  <fix>3d</fix>
</trkpt>
<trkpt lat="40.0713749" lon="-105.229789">
  <ele>1583.0</ele>
  <time>2026-09-02T20:50:25Z</time>
  <course>0.0</course>
  <speed>0.0</speed>
  <fix>3d</fix>
</trkpt>
<trkpt lat="40.0713749" lon="-105.229789">
  <ele>1583.0</ele>
  <time>2026-09-02T20:50:25Z</time>
  <course>0.0</course>
  <speed>0.0</speed>
  <fix>3d</fix>
</trkpt>
<trkpt lat="40.0713749" lon="-105.229789">
  <ele>1583.0</ele>
  <time>2026-09-02T20:50:25Z</time>
  <course>0.0</course>
  <speed>0.0</speed>
  <fix>3d</fix>
</trkpt>
<trkpt lat="40.0713749" lon="-105.229789">
  <ele>1583.0</ele>
  <time>2026-09-02T20:50:25Z</time>
  <course>0.0</course>
  <speed>0.0</speed>
  <fix>3d</fix>
</trkpt>
<trkpt lat="40.0713749" lon="-105.229789">
  <ele>1583.0</ele>
  <time>2026-09-02T20:50:25Z</time>
  <course>0.0</course>
  <speed>0.0</speed>
  <fix>3d</fix>
</trkpt>
<trkpt lat="40.0713749" lon="-105.229789">
  <ele>1583.0</ele>
  <time>2026-09-02T20:50:25Z</time>
  <course>0.0</course>
  <speed>0.0</speed>
  <fix>3d</fix>
</trkpt>
<trkpt lat="40.0713749" lon="-105.229789">
  <ele>1583.0</ele>
  <time>2026-09-02T20:50:25Z</time>
  <course>0.0</course>
  <speed>0.0</speed>
  <fix>3d</fix>
</trkpt>
<trkpt lat="40.0713749" lon="-105.229789">
  <ele>1583.0</ele>
  <time>2026-09-02T20:50:25Z</time>
  <course>0.0</course>
  <speed>0.0</speed>
  <fix>3d</fix>
</trkpt>
<trkpt lat="40.0713749" lon="-105.229789">
  <ele>1583.0</ele>
  <time>2026-09-02T20:50:25Z</time>
  <course>0.0</course>
  <speed>0.0</speed>
  <fix>3d</fix>
</trkpt>
<trkpt lat="40.0713749" lon="-105.229789">
  <ele>1583.0</ele>
  <time>2026-09-02T20:50:25Z</time>
  <course>0.0</course>
  <speed>0.0</speed>
  <fix>3d</fix>
</trkpt>
<trkpt lat="40.0713749" lon="-105.229789">
  <ele>1583.0</ele>
  <time>2026-09-02T20:50:25Z</time>
  <course>0.0</course>
  <speed>0.0</speed>
  <fix>3d</fix>
</trkpt>
<trkpt lat="40.0713749" lon="-105.229789">
  <ele>1583.0</ele>
  <time>2026-09-02T20:50:25Z</time>
  <course>0.0</course>
  <speed>0.0</speed>
  <fix>3d</fix>
</trkpt>
<trkpt lat="40.0713749" lon="-105.229789">
  <ele>1583.0</ele>
  <time>2026-09-02T20:50:25Z</time>
  <course>0.0</course>
  <speed>0.0</speed>
  <fix>3d</fix>
</trkpt>
<trkpt lat="40.0713749" lon="-105.229789">
  <ele>1583.0</ele>
  <time>2026-09-02T20:50:25Z</time>
  <course>0.0</course>
  <speed>0.0</speed>
  <fix>3d</fix>
</trkpt>
<trkpt lat="40.0713749" lon="-105.229789">
  <ele>1583.0</ele>
  <time>2026-09-02T20:50:25Z</time>
  <course>0.0</course>
  <speed>0.0</speed>
  <fix>3d</fix>
</trkpt>
<trkpt lat="40.0713749" lon="-105.229789">
  <ele>1583.0</ele>
  <time>2026-09-02T20:50:25Z</time>
  <course>0.0</course>
  <speed>0.0</speed>
  <fix>3d</fix>
</trkpt>
<trkpt lat="40.0713749" lon="-105.229789">
  <ele>1583.0</ele>
  <time>2026-09-02T20:50:25Z</time>
  <course>0.0</course>
  <speed>0.0</speed>
  <fix>3d</fix>
</trkpt>
<trkpt lat="40.0713749" lon="-105.229789">
  <ele>1583.0</ele>
  <time>2026-09-02T20:50:25Z</time>
  <course>0.0</course>
  <speed>0.0</speed>
  <fix>3d</fix>
</trkpt>
<trkpt lat="40.0713749" lon="-105.229789">
  <ele>1583.0</ele>
  <time>2026-09-02T20:50:25Z</time>
  <course>0.0</course>
  <speed>0.0</speed>
  <fix>3d</fix>
</trkpt>
<trkpt lat="40.0713749" lon="-105.229789">
  <ele>1583.0</ele>
  <time>2026-09-02T20:50:25Z</time>
  <course>0.0</course>
  <speed>0.0</speed>
  <fix>3d</fix>
</trkpt>
<trkpt lat="40.0713749" lon="-105.229789">
  <ele>1583.0</ele>
  <time>2026-09-02T20:50:25Z</time>
  <course>0.0</course>
  <speed>0.0</speed>
  <fix>3d</fix>
</trkpt>
<trkpt lat="40.0713749" lon="-105.229789">
  <ele>1583.0</ele>
  <time>2026-09-02T20:50:25Z</time>
  <course>0.0</course>
  <speed>0.0</speed>
  <fix>3d</fix>
</trkpt>
<trkpt lat="40.0713749" lon="-105.229789">
  <ele>1583.0</ele>
  <time>2026-09-02T20:50:25Z</time>
  <course>0.0</course>
  <speed>0.0</speed>
  <fix>3d</fix>
</trkpt>
<trkpt lat="40.0713749" lon="-105.229789">
  <ele>1583.0</ele>
  <time>2026-09-02T20:50:26Z</time>
  <course>0.0</course>
  <speed>0.0</speed>
  <fix>3d</fix>
</trkpt>
<trkpt lat="40.0713749" lon="-105.229789">
  <ele>1583.0</ele>
  <time>2026-09-02T20:50:26Z</time>
  <course>0.0</course>
  <speed>0.0</speed>
  <fix>3d</fix>
</trkpt>
<trkpt lat="40.0713749" lon="-105.229789">
  <ele>1583.0</ele>
  <time>2026-09-02T20:50:26Z</time>
  <course>0.0</course>
  <speed>0.0</speed>
  <fix>3d</fix>
</trkpt>
<trkpt lat="40.0713749" lon="-105.229789">
  <ele>1583.0</ele>
  <time>2026-09-02T20:50:26Z</time>
  <course>0.0</course>
  <speed>0.0</speed>
  <fix>3d</fix>
</trkpt>
<trkpt lat="40.0713749" lon="-105.229789">
  <ele>1583.0</ele>
  <time>2026-09-02T20:50:26Z</time>
  <course>0.0</course>
  <speed>0.0</speed>
  <fix>3d</fix>
</trkpt>
<trkpt lat="40.0713749" lon="-105.229789">
  <ele>1583.0</ele>
  <time>2026-09-02T20:50:26Z</time>
  <course>0.0</course>
  <speed>0.0</speed>
  <fix>3d</fix>
</trkpt>
<trkpt lat="40.0713749" lon="-105.229789">
  <ele>1583.0</ele>
  <time>2026-09-02T20:50:26Z</time>
  <course>0.0</course>
  <speed>0.0</speed>
  <fix>3d</fix>
</trkpt>
<trkpt lat="40.0713749" lon="-105.229789">
  <ele>1583.0</ele>
  <time>2026-09-02T20:50:26Z</time>
  <course>0.0</course>
  <speed>0.0</speed>
  <fix>3d</fix>
</trkpt>
<trkpt lat="40.0713749" lon="-105.229789">
  <ele>1583.0</ele>
  <time>2026-09-02T20:50:26Z</time>
  <course>0.0</course>
  <speed>0.0</speed>
  <fix>3d</fix>
</trkpt>
<trkpt lat="40.0713749" lon="-105.229789">
  <ele>1583.0</ele>
  <time>2026-09-02T20:50:26Z</time>
  <course>0.0</course>
  <speed>0.0</speed>
  <fix>3d</fix>
</trkpt>
<trkpt lat="40.0713749" lon="-105.229789">
  <ele>1583.0</ele>
  <time>2026-09-02T20:50:26Z</time>
  <course>0.0</course>
  <speed>0.0</speed>
  <fix>3d</fix>
</trkpt>
<trkpt lat="40.0713749" lon="-105.229789">
  <ele>1583.0</ele>
  <time>2026-09-02T20:50:26Z</time>
  <course>0.0</course>
  <speed>0.0</speed>
  <fix>3d</fix>
</trkpt>
<trkpt lat="40.0713749" lon="-105.229789">
  <ele>1583.0</ele>
  <time>2026-09-02T20:50:26Z</time>
  <course>0.0</course>
  <speed>0.0</speed>
  <fix>3d</fix>
</trkpt>
<trkpt lat="40.0713749" lon="-105.229789">
  <ele>1583.0</ele>
  <time>2026-09-02T20:50:26Z</time>
  <course>0.0</course>
  <speed>0.0</speed>
  <fix>3d</fix>
</trkpt>
<trkpt lat="40.0713749" lon="-105.229789">
  <ele>1583.0</ele>
  <time>2026-09-02T20:50:26Z</time>
  <course>0.0</course>
  <speed>0.0</speed>
  <fix>3d</fix>
</trkpt>
<trkpt lat="40.0713749" lon="-105.229789">
  <ele>1583.0</ele>
  <time>2026-09-02T20:50:26Z</time>
  <course>0.0</course>
  <speed>0.0</speed>
  <fix>3d</fix>
</trkpt>
<trkpt lat="40.0713749" lon="-105.229789">
  <ele>1583.0</ele>
  <time>2026-09-02T20:50:26Z</time>
  <course>0.0</course>
  <speed>0.0</speed>
  <fix>3d</fix>
</trkpt>
<trkpt lat="40.0713749" lon="-105.229789">
  <ele>1583.0</ele>
  <time>2026-09-02T20:50:26Z</time>
  <course>0.0</course>
  <speed>0.0</speed>
  <fix>3d</fix>
</trkpt>
<trkpt lat="40.0713749" lon="-105.229789">
  <ele>1583.0</ele>
  <time>2026-09-02T20:50:26Z</time>
  <course>0.0</course>
  <speed>0.0</speed>
  <fix>3d</fix>
</trkpt>
<trkpt lat="40.0713749" lon="-105.229789">
  <ele>1583.0</ele>
  <time>2026-09-02T20:50:26Z</time>
  <course>0.0</course>
  <speed>0.0</speed>
  <fix>3d</fix>
</trkpt>
<trkpt lat="40.0713749" lon="-105.229789">
  <ele>1583.0</ele>
  <time>2026-09-02T20:50:26Z</time>
  <course>0.0</course>
  <speed>0.0</speed>
  <fix>3d</fix>
</trkpt>
<trkpt lat="40.0713749" lon="-105.229789">
  <ele>1583.0</ele>
  <time>2026-09-02T20:50:26Z</time>
  <course>0.0</course>
  <speed>0.0</speed>
  <fix>3d</fix>
</trkpt>
<trkpt lat="40.0713749" lon="-105.229789">
  <ele>1583.0</ele>
  <time>2026-09-02T20:50:26Z</time>
  <course>0.0</course>
  <speed>0.0</speed>
  <fix>3d</fix>
</trkpt>
<trkpt lat="40.0713749" lon="-105.229789">
  <ele>1583.0</ele>
  <time>2026-09-02T20:50:26Z</time>
  <course>0.0</course>
  <speed>0.0</speed>
  <fix>3d</fix>
</trkpt>
<trkpt lat="40.0713749" lon="-105.229789">
  <ele>1583.0</ele>
  <time>2026-09-02T20:50:26Z</time>
  <course>0.0</course>
  <speed>0.0</speed>
  <fix>3d</fix>
</trkpt>
<trkpt lat="40.0713749" lon="-105.229789">
  <ele>1583.0</ele>
  <time>2026-09-02T20:50:26Z</time>
  <course>0.0</course>
  <speed>0.0</speed>
  <fix>3d</fix>
</trkpt>
<trkpt lat="40.0713749" lon="-105.229789">
  <ele>1583.0</ele>
  <time>2026-09-02T20:50:26Z</time>
  <course>0.0</course>
  <speed>0.0</speed>
  <fix>3d</fix>
</trkpt>
<trkpt lat="40.0713749" lon="-105.229789">
  <ele>1583.0</ele>
  <time>2026-09-02T20:50:26Z</time>
  <course>0.0</course>
  <speed>0.0</speed>
  <fix>3d</fix>
</trkpt>
<trkpt lat="40.0713749" lon="-105.229789">
  <ele>1583.0</ele>
  <time>2026-09-02T20:50:26Z</time>
  <course>0.0</course>
  <speed>0.0</speed>
  <fix>3d</fix>
</trkpt>
<trkpt lat="40.0713749" lon="-105.229789">
  <ele>1583.0</ele>
  <time>2026-09-02T20:50:26Z</time>
  <course>0.0</course>
  <speed>0.0</speed>
  <fix>3d</fix>
</trkpt>
<trkpt lat="40.0713749" lon="-105.229789">
  <ele>1583.0</ele>
  <time>2026-09-02T20:50:26Z</time>
  <course>0.0</course>
  <speed>0.0</speed>
  <fix>3d</fix>
</trkpt>
<trkpt lat="40.0713749" lon="-105.229789">
  <ele>1583.0</ele>
  <time>2026-09-02T20:50:26Z</time>
  <course>0.0</course>
  <speed>0.0</speed>
  <fix>3d</fix>
</trkpt>
<trkpt lat="40.0713749" lon="-105.229789">
  <ele>1583.0</ele>
  <time>2026-09-02T20:50:26Z</time>
  <course>0.0</course>
  <speed>0.0</speed>
  <fix>3d</fix>
</trkpt>
<trkpt lat="40.0713749" lon="-105.229789">
  <ele>1583.0</ele>
  <time>2026-09-02T20:50:26Z</time>
  <course>0.0</course>
  <speed>0.0</speed>
  <fix>3d</fix>
</trkpt>
<trkpt lat="40.0713749" lon="-105.229789">
  <ele>1583.0</ele>
  <time>2026-09-02T20:50:26Z</time>
  <course>0.0</course>
  <speed>0.0</speed>
  <fix>3d</fix>
</trkpt>
<trkpt lat="40.0713749" lon="-105.229789">
  <ele>1583.0</ele>
  <time>2026-09-02T20:50:26Z</time>
  <course>0.0</course>
  <speed>0.0</speed>
  <fix>3d</fix>
</trkpt>
<trkpt lat="40.0713749" lon="-105.229789">
  <ele>1583.0</ele>
  <time>2026-09-02T20:50:26Z</time>
  <course>0.0</course>
  <speed>0.0</speed>
  <fix>3d</fix>
</trkpt>
<trkpt lat="40.0713749" lon="-105.229789">
  <ele>1583.0</ele>
  <time>2026-09-02T20:50:26Z</time>
  <course>0.0</course>
  <speed>0.0</speed>
  <fix>3d</fix>
</trkpt>
<trkpt lat="40.0713749" lon="-105.229789">
  <ele>1583.0</ele>
  <time>2026-09-02T20:50:26Z</time>
  <course>0.0</course>
  <speed>0.0</speed>
  <fix>3d</fix>
</trkpt>
<trkpt lat="40.0713749" lon="-105.229789">
  <ele>1583.0</ele>
  <time>2026-09-02T20:50:26Z</time>
  <course>0.0</course>
  <speed>0.0</speed>
  <fix>3d</fix>
</trkpt>
<trkpt lat="40.0713749" lon="-105.229789">
  <ele>1583.0</ele>
  <time>2026-09-02T20:50:26Z</time>
  <course>0.0</course>
  <speed>0.0</speed>
  <fix>3d</fix>
</trkpt>
<trkpt lat="40.0713749" lon="-105.229789">
  <ele>1583.0</ele>
  <time>2026-09-02T20:50:26Z</time>
  <course>0.0</course>
  <speed>0.0</speed>
  <fix>3d</fix>
</trkpt>
<trkpt lat="40.0713749" lon="-105.229789">
  <ele>1583.0</ele>
  <time>2026-09-02T20:50:26Z</time>
  <course>0.0</course>
  <speed>0.0</speed>
  <fix>3d</fix>
</trkpt>
<trkpt lat="40.0713749" lon="-105.229789">
  <ele>1583.0</ele>
  <time>2026-09-02T20:50:26Z</time>
  <course>0.0</course>
  <speed>0.0</speed>
  <fix>3d</fix>
</trkpt>
<trkpt lat="40.0713749" lon="-105.229789">
  <ele>1583.0</ele>
  <time>2026-09-02T20:50:26Z</time>
  <course>0.0</course>
  <speed>0.0</speed>
  <fix>3d</fix>
</trkpt>
<trkpt lat="40.0713749" lon="-105.229789">
  <ele>1583.0</ele>
  <time>2026-09-02T20:50:26Z</time>
  <course>0.0</course>
  <speed>0.0</speed>
  <fix>3d</fix>
</trkpt>
<trkpt lat="40.0713749" lon="-105.229789">
  <ele>1583.0</ele>
  <time>2026-09-02T20:50:26Z</time>
  <course>0.0</course>
  <speed>0.0</speed>
  <fix>3d</fix>
</trkpt>
<trkpt lat="40.0713749" lon="-105.229789">
  <ele>1583.0</ele>
  <time>2026-09-02T20:50:26Z</time>
  <course>0.0</course>
  <speed>0.0</speed>
  <fix>3d</fix>
</trkpt>
<trkpt lat="40.0713749" lon="-105.229789">
  <ele>1583.0</ele>
  <time>2026-09-02T20:50:26Z</time>
  <course>0.0</course>
  <speed>0.0</speed>
  <fix>3d</fix>
</trkpt>
<trkpt lat="40.0713749" lon="-105.229789">
  <ele>1583.0</ele>
  <time>2026-09-02T20:50:26Z</time>
  <course>0.0</course>
  <speed>0.0</speed>
  <fix>3d</fix>
</trkpt>
<trkpt lat="40.0713749" lon="-105.229789">
  <ele>1583.0</ele>
  <time>2026-09-02T20:50:26Z</time>
  <course>0.0</course>
  <speed>0.0</speed>
  <fix>3d</fix>
</trkpt>
<trkpt lat="40.0713749" lon="-105.229789">
  <ele>1583.0</ele>
  <time>2026-09-02T20:50:26Z</time>
  <course>0.0</course>
  <speed>0.0</speed>
  <fix>3d</fix>
</trkpt>
<trkpt lat="40.0713749" lon="-105.229789">
  <ele>1583.0</ele>
  <time>2026-09-02T20:50:26Z</time>
  <course>0.0</course>
  <speed>0.0</speed>
  <fix>3d</fix>
</trkpt>
<trkpt lat="40.0713749" lon="-105.229789">
  <ele>1583.0</ele>
  <time>2026-09-02T20:50:26Z</time>
  <course>0.0</course>
  <speed>0.0</speed>
  <fix>3d</fix>
</trkpt>
<trkpt lat="40.0713749" lon="-105.229789">
  <ele>1583.0</ele>
  <time>2026-09-02T20:50:26Z</time>
  <course>0.0</course>
  <speed>0.0</speed>
  <fix>3d</fix>
</trkpt>
<trkpt lat="40.0713749" lon="-105.229789">
  <ele>1583.0</ele>
  <time>2026-09-02T20:50:26Z</time>
  <course>0.0</course>
  <speed>0.0</speed>
  <fix>3d</fix>
</trkpt>
<trkpt lat="40.0713749" lon="-105.229789">
  <ele>1583.0</ele>
  <time>2026-09-02T20:50:26Z</time>
  <course>0.0</course>
  <speed>0.0</speed>
  <fix>3d</fix>
</trkpt>
<trkpt lat="40.0713749" lon="-105.229789">
  <ele>1583.0</ele>
  <time>2026-09-02T20:50:26Z</time>
  <course>0.0</course>
  <speed>0.0</speed>
  <fix>3d</fix>
</trkpt>
<trkpt lat="40.0713749" lon="-105.229789">
  <ele>1583.0</ele>
  <time>2026-09-02T20:50:26Z</time>
  <course>0.0</course>
  <speed>0.0</speed>
  <fix>3d</fix>
</trkpt>
<trkpt lat="40.0713749" lon="-105.229789">
  <ele>1583.0</ele>
  <time>2026-09-02T20:50:26Z</time>
  <course>0.0</course>
  <speed>0.0</speed>
  <fix>3d</fix>
</trkpt>
<trkpt lat="40.0713749" lon="-105.229789">
  <ele>1583.0</ele>
  <time>2026-09-02T20:50:26Z</time>
  <course>0.0</course>
  <speed>0.0</speed>
  <fix>3d</fix>
</trkpt>
<trkpt lat="40.0713749" lon="-105.229789">
  <ele>1583.0</ele>
  <time>2026-09-02T20:50:26Z</time>
  <course>0.0</course>
  <speed>0.0</speed>
  <fix>3d</fix>
</trkpt>
<trkpt lat="40.0713749" lon="-105.229789">
  <ele>1583.0</ele>
  <time>2026-09-02T20:50:26Z</time>
  <course>0.0</course>
  <speed>0.0</speed>
  <fix>3d</fix>
</trkpt>
<trkpt lat="40.0713749" lon="-105.229789">
  <ele>1583.0</ele>
  <time>2026-09-02T20:50:26Z</time>
  <course>0.0</course>
  <speed>0.0</speed>
  <fix>3d</fix>
</trkpt>
<trkpt lat="40.0713749" lon="-105.229789">
  <ele>1583.0</ele>
  <time>2026-09-02T20:50:26Z</time>
  <course>0.0</course>
  <speed>0.0</speed>
  <fix>3d</fix>
</trkpt>
<trkpt lat="40.0713749" lon="-105.229789">
  <ele>1583.0</ele>
  <time>2026-09-02T20:50:26Z</time>
  <course>0.0</course>
  <speed>0.0</speed>
  <fix>3d</fix>
</trkpt>
<trkpt lat="40.0713749" lon="-105.229789">
  <ele>1583.0</ele>
  <time>2026-09-02T20:50:26Z</time>
  <course>0.0</course>
  <speed>0.0</speed>
  <fix>3d</fix>
</trkpt>
<trkpt lat="40.0713749" lon="-105.229789">
  <ele>1583.0</ele>
  <time>2026-09-02T20:50:26Z</time>
  <course>0.0</course>
  <speed>0.0</speed>
  <fix>3d</fix>
</trkpt>
<trkpt lat="40.0713749" lon="-105.229789">
  <ele>1583.0</ele>
  <time>2026-09-02T20:50:26Z</time>
  <course>0.0</course>
  <speed>0.0</speed>
  <fix>3d</fix>
</trkpt>
<trkpt lat="40.0713749" lon="-105.229789">
  <ele>1583.0</ele>
  <time>2026-09-02T20:50:26Z</time>
  <course>0.0</course>
  <speed>0.0</speed>
  <fix>3d</fix>
</trkpt>
<trkpt lat="40.0713749" lon="-105.229789">
  <ele>1583.0</ele>
  <time>2026-09-02T20:50:26Z</time>
  <course>0.0</course>
  <speed>0.0</speed>
  <fix>3d</fix>
</trkpt>
<trkpt lat="40.0713749" lon="-105.229789">
  <ele>1583.0</ele>
  <time>2026-09-02T20:50:26Z</time>
  <course>0.0</course>
  <speed>0.0</speed>
  <fix>3d</fix>
</trkpt>
<trkpt lat="40.0713749" lon="-105.229789">
  <ele>1583.0</ele>
  <time>2026-09-02T20:50:26Z</time>
  <course>0.0</course>
  <speed>0.0</speed>
  <fix>3d</fix>
</trkpt>
<trkpt lat="40.0713749" lon="-105.229789">
  <ele>1583.0</ele>
  <time>2026-09-02T20:50:26Z</time>
  <course>0.0</course>
  <speed>0.0</speed>
  <fix>3d</fix>
</trkpt>
<trkpt lat="40.0713749" lon="-105.229789">
  <ele>1583.0</ele>
  <time>2026-09-02T20:50:26Z</time>
  <course>0.0</course>
  <speed>0.0</speed>
  <fix>3d</fix>
</trkpt>
<trkpt lat="40.0713749" lon="-105.229789">
  <ele>1583.0</ele>
  <time>2026-09-02T20:50:26Z</time>
  <course>0.0</course>
  <speed>0.0</speed>
  <fix>3d</fix>
</trkpt>
<trkpt lat="40.0713749" lon="-105.229789">
  <ele>1583.0</ele>
  <time>2026-09-02T20:50:26Z</time>
  <course>0.0</course>
  <speed>0.0</speed>
  <fix>3d</fix>
</trkpt>
<trkpt lat="40.0713749" lon="-105.229789">
  <ele>1583.0</ele>
  <time>2026-09-02T20:50:26Z</time>
  <course>0.0</course>
  <speed>0.0</speed>
  <fix>3d</fix>
</trkpt>
<trkpt lat="40.0713749" lon="-105.229789">
  <ele>1583.0</ele>
  <time>2026-09-02T20:50:26Z</time>
  <course>0.0</course>
  <speed>0.0</speed>
  <fix>3d</fix>
</trkpt>
<trkpt lat="40.0713749" lon="-105.229789">
  <ele>1583.0</ele>
  <time>2026-09-02T20:50:26Z</time>
  <course>0.0</course>
  <speed>0.0</speed>
  <fix>3d</fix>
</trkpt>
<trkpt lat="40.0713749" lon="-105.229789">
  <ele>1583.0</ele>
  <time>2026-09-02T20:50:26Z</time>
  <course>0.0</course>
  <speed>0.0</speed>
  <fix>3d</fix>
</trkpt>
<trkpt lat="40.0713749" lon="-105.229789">
  <ele>1583.0</ele>
  <time>2026-09-02T20:50:26Z</time>
  <course>0.0</course>
  <speed>0.0</speed>
  <fix>3d</fix>
</trkpt>
<trkpt lat="40.0713749" lon="-105.229789">
  <ele>1583.0</ele>
  <time>2026-09-02T20:50:26Z</time>
  <course>0.0</course>
  <speed>0.0</speed>
  <fix>3d</fix>
</trkpt>
<trkpt lat="40.0713749" lon="-105.229789">
  <ele>1583.0</ele>
  <time>2026-09-02T20:50:26Z</time>
  <course>0.0</course>
  <speed>0.0</speed>
  <fix>3d</fix>
</trkpt>
<trkpt lat="40.0713749" lon="-105.229789">
  <ele>1583.0</ele>
  <time>2026-09-02T20:50:26Z</time>
  <course>0.0</course>
  <speed>0.0</speed>
  <fix>3d</fix>
</trkpt>
<trkpt lat="40.0713749" lon="-105.229789">
  <ele>1583.0</ele>
  <time>2026-09-02T20:50:26Z</time>
  <course>0.0</course>
  <speed>0.0</speed>
  <fix>3d</fix>
</trkpt>
<trkpt lat="40.0713749" lon="-105.229789">
  <ele>1583.0</ele>
  <time>2026-09-02T20:50:26Z</time>
  <course>0.0</course>
  <speed>0.0</speed>
  <fix>3d</fix>
</trkpt>
<trkpt lat="40.0713749" lon="-105.229789">
  <ele>1583.0</ele>
  <time>2026-09-02T20:50:26Z</time>
  <course>0.0</course>
  <speed>0.0</speed>
  <fix>3d</fix>
</trkpt>
<trkpt lat="40.0713749" lon="-105.229789">
  <ele>1583.0</ele>
  <time>2026-09-02T20:50:26Z</time>
  <course>0.0</course>
  <speed>0.0</speed>
  <fix>3d</fix>
</trkpt>
<trkpt lat="40.0713749" lon="-105.229789">
  <ele>1583.0</ele>
  <time>2026-09-02T20:50:26Z</time>
  <course>0.0</course>
  <speed>0.0</speed>
  <fix>3d</fix>
</trkpt>
<trkpt lat="40.0713749" lon="-105.229789">
  <ele>1583.0</ele>
  <time>2026-09-02T20:50:26Z</time>
  <course>0.0</course>
  <speed>0.0</speed>
  <fix>3d</fix>
</trkpt>
<trkpt lat="40.0713749" lon="-105.229789">
  <ele>1583.0</ele>
  <time>2026-09-02T20:50:26Z</time>
  <course>0.0</course>
  <speed>0.0</speed>
  <fix>3d</fix>
</trkpt>
<trkpt lat="40.0713749" lon="-105.229789">
  <ele>1583.0</ele>
  <time>2026-09-02T20:50:26Z</time>
  <course>0.0</course>
  <speed>0.0</speed>
  <fix>3d</fix>
</trkpt>
<trkpt lat="40.0713749" lon="-105.229789">
  <ele>1583.0</ele>
  <time>2026-09-02T20:50:26Z</time>
  <course>0.0</course>
  <speed>0.0</speed>
  <fix>3d</fix>
</trkpt>
<trkpt lat="40.0713749" lon="-105.229789">
  <ele>1583.0</ele>
  <time>2026-09-02T20:50:26Z</time>
  <course>0.0</course>
  <speed>0.0</speed>
  <fix>3d</fix>
</trkpt>
<trkpt lat="40.0713749" lon="-105.229789">
  <ele>1583.0</ele>
  <time>2026-09-02T20:50:26Z</time>
  <course>0.0</course>
  <speed>0.0</speed>
  <fix>3d</fix>
</trkpt>
<trkpt lat="40.0713749" lon="-105.229789">
  <ele>1583.0</ele>
  <time>2026-09-02T20:50:26Z</time>
  <course>0.0</course>
  <speed>0.0</speed>
  <fix>3d</fix>
</trkpt>
<trkpt lat="40.0713749" lon="-105.229789">
  <ele>1583.0</ele>
  <time>2026-09-02T20:50:26Z</time>
  <course>0.0</course>
  <speed>0.0</speed>
  <fix>3d</fix>
</trkpt>
<trkpt lat="40.0713749" lon="-105.229789">
  <ele>1583.0</ele>
  <time>2026-09-02T20:50:26Z</time>
  <course>0.0</course>
  <speed>0.0</speed>
  <fix>3d</fix>
</trkpt>
<trkpt lat="40.0713749" lon="-105.229789">
  <ele>1583.0</ele>
  <time>2026-09-02T20:50:26Z</time>
  <course>0.0</course>
  <speed>0.0</speed>
  <fix>3d</fix>
</trkpt>
<trkpt lat="40.0713749" lon="-105.229789">
  <ele>1583.0</ele>
  <time>2026-09-02T20:50:26Z</time>
  <course>0.0</course>
  <speed>0.0</speed>
  <fix>3d</fix>
</trkpt>
<trkpt lat="40.0713749" lon="-105.229789">
  <ele>1583.0</ele>
  <time>2026-09-02T20:50:26Z</time>
  <course>0.0</course>
  <speed>0.0</speed>
  <fix>3d</fix>
</trkpt>
<trkpt lat="40.0713749" lon="-105.229789">
  <ele>1583.0</ele>
  <time>2026-09-02T20:50:26Z</time>
  <course>0.0</course>
  <speed>0.0</speed>
  <fix>3d</fix>
</trkpt>
<trkpt lat="40.0713749" lon="-105.229789">
  <ele>1583.0</ele>
  <time>2026-09-02T20:50:26Z</time>
  <course>0.0</course>
  <speed>0.0</speed>
  <fix>3d</fix>
</trkpt>
<trkpt lat="40.0713749" lon="-105.229789">
  <ele>1583.0</ele>
  <time>2026-09-02T20:50:26Z</time>
  <course>0.0</course>
  <speed>0.0</speed>
  <fix>3d</fix>
</trkpt>
<trkpt lat="40.0713749" lon="-105.229789">
  <ele>1583.0</ele>
  <time>2026-09-02T20:50:26Z</time>
  <course>0.0</course>
  <speed>0.0</speed>
  <fix>3d</fix>
</trkpt>
<trkpt lat="40.0713749" lon="-105.229789">
  <ele>1583.0</ele>
  <time>2026-09-02T20:50:26Z</time>
  <course>0.0</course>
  <speed>0.0</speed>
  <fix>3d</fix>
</trkpt>
<trkpt lat="40.0713749" lon="-105.229789">
  <ele>1583.0</ele>
  <time>2026-09-02T20:50:26Z</time>
  <course>0.0</course>
  <speed>0.0</speed>
  <fix>3d</fix>
</trkpt>
<trkpt lat="40.0713749" lon="-105.229789">
  <ele>1583.0</ele>
  <time>2026-09-02T20:50:26Z</time>
  <course>0.0</course>
  <speed>0.0</speed>
  <fix>3d</fix>
</trkpt>
<trkpt lat="40.0713749" lon="-105.229789">
  <ele>1583.0</ele>
  <time>2026-09-02T20:50:26Z</time>
  <course>0.0</course>
  <speed>0.0</speed>
  <fix>3d</fix>
</trkpt>
<trkpt lat="40.0713749" lon="-105.229789">
  <ele>1583.0</ele>
  <time>2026-09-02T20:50:26Z</time>
  <course>0.0</course>
  <speed>0.0</speed>
  <fix>3d</fix>
</trkpt>
<trkpt lat="40.0713749" lon="-105.229789">
  <ele>1583.0</ele>
  <time>2026-09-02T20:50:26Z</time>
  <course>0.0</course>
  <speed>0.0</speed>
  <fix>3d</fix>
</trkpt>
<trkpt lat="40.0713749" lon="-105.229789">
  <ele>1583.0</ele>
  <time>2026-09-02T20:50:26Z</time>
  <course>0.0</course>
  <speed>0.0</speed>
  <fix>3d</fix>
</trkpt>
<trkpt lat="40.0713749" lon="-105.229789">
  <ele>1583.0</ele>
  <time>2026-09-02T20:50:26Z</time>
  <course>0.0</course>
  <speed>0.0</speed>
  <fix>3d</fix>
</trkpt>
<trkpt lat="40.0713749" lon="-105.229789">
  <ele>1583.0</ele>
  <time>2026-09-02T20:50:26Z</time>
  <course>0.0</course>
  <speed>0.0</speed>
  <fix>3d</fix>
</trkpt>
<trkpt lat="40.0713749" lon="-105.229789">
  <ele>1583.0</ele>
  <time>2026-09-02T20:50:26Z</time>
  <course>0.0</course>
  <speed>0.0</speed>
  <fix>3d</fix>
</trkpt>
<trkpt lat="40.0713749" lon="-105.229789">
  <ele>1583.0</ele>
  <time>2026-09-02T20:50:26Z</time>
  <course>0.0</course>
  <speed>0.0</speed>
  <fix>3d</fix>
</trkpt>
<trkpt lat="40.0713749" lon="-105.229789">
  <ele>1583.0</ele>
  <time>2026-09-02T20:50:26Z</time>
  <course>0.0</course>
  <speed>0.0</speed>
  <fix>3d</fix>
</trkpt>
<trkpt lat="40.0713749" lon="-105.229789">
  <ele>1583.0</ele>
  <time>2026-09-02T20:50:26Z</time>
  <course>0.0</course>
  <speed>0.0</speed>
  <fix>3d</fix>
</trkpt>
<trkpt lat="40.0713749" lon="-105.229789">
  <ele>1583.0</ele>
  <time>2026-09-02T20:50:26Z</time>
  <course>0.0</course>
  <speed>0.0</speed>
  <fix>3d</fix>
</trkpt>
<trkpt lat="40.0713749" lon="-105.229789">
  <ele>1583.0</ele>
  <time>2026-09-02T20:50:26Z</time>
  <course>0.0</course>
  <speed>0.0</speed>
  <fix>3d</fix>
</trkpt>
<trkpt lat="40.0713749" lon="-105.229789">
  <ele>1583.0</ele>
  <time>2026-09-02T20:50:26Z</time>
  <course>0.0</course>
  <speed>0.0</speed>
  <fix>3d</fix>
</trkpt>
<trkpt lat="40.0713749" lon="-105.229789">
  <ele>1583.0</ele>
  <time>2026-09-02T20:50:26Z</time>
  <course>0.0</course>
  <speed>0.0</speed>
  <fix>3d</fix>
</trkpt>
<trkpt lat="40.0713749" lon="-105.229789">
  <ele>1583.0</ele>
  <time>2026-09-02T20:50:26Z</time>
  <course>0.0</course>
  <speed>0.0</speed>
  <fix>3d</fix>
</trkpt>
<trkpt lat="40.0713749" lon="-105.229789">
  <ele>1583.0</ele>
  <time>2026-09-02T20:50:26Z</time>
  <course>0.0</course>
  <speed>0.0</speed>
  <fix>3d</fix>
</trkpt>
<trkpt lat="40.0713749" lon="-105.229789">
  <ele>1583.0</ele>
  <time>2026-09-02T20:50:26Z</time>
  <course>0.0</course>
  <speed>0.0</speed>
  <fix>3d</fix>
</trkpt>
<trkpt lat="40.0713749" lon="-105.229789">
  <ele>1583.0</ele>
  <time>2026-09-02T20:50:26Z</time>
  <course>0.0</course>
  <speed>0.0</speed>
  <fix>3d</fix>
</trkpt>
<trkpt lat="40.0713749" lon="-105.229789">
  <ele>1583.0</ele>
  <time>2026-09-02T20:50:26Z</time>
  <course>0.0</course>
  <speed>0.0</speed>
  <fix>3d</fix>
</trkpt>
<trkpt lat="40.0713749" lon="-105.229789">
  <ele>1583.0</ele>
  <time>2026-09-02T20:50:26Z</time>
  <course>0.0</course>
  <speed>0.0</speed>
  <fix>3d</fix>
</trkpt>
<trkpt lat="40.0713749" lon="-105.229789">
  <ele>1583.0</ele>
  <time>2026-09-02T20:50:26Z</time>
  <course>0.0</course>
  <speed>0.0</speed>
  <fix>3d</fix>
</trkpt>
<trkpt lat="40.0713749" lon="-105.229789">
  <ele>1583.0</ele>
  <time>2026-09-02T20:50:26Z</time>
  <course>0.0</course>
  <speed>0.0</speed>
  <fix>3d</fix>
</trkpt>
<trkpt lat="40.0713749" lon="-105.229789">
  <ele>1583.0</ele>
  <time>2026-09-02T20:50:26Z</time>
  <course>0.0</course>
  <speed>0.0</speed>
  <fix>3d</fix>
</trkpt>
<trkpt lat="40.0713749" lon="-105.229789">
  <ele>1583.0</ele>
  <time>2026-09-02T20:50:26Z</time>
  <course>0.0</course>
  <speed>0.0</speed>
  <fix>3d</fix>
</trkpt>
<trkpt lat="40.0713749" lon="-105.229789">
  <ele>1583.0</ele>
  <time>2026-09-02T20:50:26Z</time>
  <course>0.0</course>
  <speed>0.0</speed>
  <fix>3d</fix>
</trkpt>
<trkpt lat="40.0713749" lon="-105.229789">
  <ele>1583.0</ele>
  <time>2026-09-02T20:50:26Z</time>
  <course>0.0</course>
  <speed>0.0</speed>
  <fix>3d</fix>
</trkpt>
<trkpt lat="40.0713749" lon="-105.229789">
  <ele>1583.0</ele>
  <time>2026-09-02T20:50:26Z</time>
  <course>0.0</course>
  <speed>0.0</speed>
  <fix>3d</fix>
</trkpt>
<trkpt lat="40.0713749" lon="-105.229789">
  <ele>1583.0</ele>
  <time>2026-09-02T20:50:26Z</time>
  <course>0.0</course>
  <speed>0.0</speed>
  <fix>3d</fix>
</trkpt>
<trkpt lat="40.0713749" lon="-105.229789">
  <ele>1583.0</ele>
  <time>2026-09-02T20:50:26Z</time>
  <course>0.0</course>
  <speed>0.0</speed>
  <fix>3d</fix>
</trkpt>
<trkpt lat="40.0713749" lon="-105.229789">
  <ele>1583.0</ele>
  <time>2026-09-02T20:50:26Z</time>
  <course>0.0</course>
  <speed>0.0</speed>
  <fix>3d</fix>
</trkpt>
<trkpt lat="40.0713749" lon="-105.229789">
  <ele>1583.0</ele>
  <time>2026-09-02T20:50:26Z</time>
  <course>0.0</course>
  <speed>0.0</speed>
  <fix>3d</fix>
</trkpt>
<trkpt lat="40.0713749" lon="-105.229789">
  <ele>1583.0</ele>
  <time>2026-09-02T20:50:26Z</time>
  <course>0.0</course>
  <speed>0.0</speed>
  <fix>3d</fix>
</trkpt>
<trkpt lat="40.0713749" lon="-105.229789">
  <ele>1583.0</ele>
  <time>2026-09-02T20:50:26Z</time>
  <course>0.0</course>
  <speed>0.0</speed>
  <fix>3d</fix>
</trkpt>
<trkpt lat="40.0713749" lon="-105.229789">
  <ele>1583.0</ele>
  <time>2026-09-02T20:50:26Z</time>
  <course>0.0</course>
  <speed>0.0</speed>
  <fix>3d</fix>
</trkpt>
<trkpt lat="40.0713749" lon="-105.229789">
  <ele>1583.0</ele>
  <time>2026-09-02T20:50:26Z</time>
  <course>0.0</course>
  <speed>0.0</speed>
  <fix>3d</fix>
</trkpt>
<trkpt lat="40.0713749" lon="-105.229789">
  <ele>1583.0</ele>
  <time>2026-09-02T20:50:26Z</time>
  <course>0.0</course>
  <speed>0.0</speed>
  <fix>3d</fix>
</trkpt>
<trkpt lat="40.0713749" lon="-105.229789">
  <ele>1583.0</ele>
  <time>2026-09-02T20:50:26Z</time>
  <course>0.0</course>
  <speed>0.0</speed>
  <fix>3d</fix>
</trkpt>
<trkpt lat="40.0713749" lon="-105.229789">
  <ele>1583.0</ele>
  <time>2026-09-02T20:50:26Z</time>
  <course>0.0</course>
  <speed>0.0</speed>
  <fix>3d</fix>
</trkpt>
<trkpt lat="40.0713749" lon="-105.229789">
  <ele>1583.0</ele>
  <time>2026-09-02T20:50:26Z</time>
  <course>0.0</course>
  <speed>0.0</speed>
  <fix>3d</fix>
</trkpt>
<trkpt lat="40.0713749" lon="-105.229789">
  <ele>1583.0</ele>
  <time>2026-09-02T20:50:26Z</time>
  <course>0.0</course>
  <speed>0.0</speed>
  <fix>3d</fix>
</trkpt>
<trkpt lat="40.0713749" lon="-105.229789">
  <ele>1583.0</ele>
  <time>2026-09-02T20:50:26Z</time>
  <course>0.0</course>
  <speed>0.0</speed>
  <fix>3d</fix>
</trkpt>
<trkpt lat="40.0713749" lon="-105.229789">
  <ele>1583.0</ele>
  <time>2026-09-02T20:50:26Z</time>
  <course>0.0</course>
  <speed>0.0</speed>
  <fix>3d</fix>
</trkpt>
<trkpt lat="40.0713749" lon="-105.229789">
  <ele>1583.0</ele>
  <time>2026-09-02T20:50:26Z</time>
  <course>0.0</course>
  <speed>0.0</speed>
  <fix>3d</fix>
</trkpt>
<trkpt lat="40.0713749" lon="-105.229789">
  <ele>1583.0</ele>
  <time>2026-09-02T20:50:26Z</time>
  <course>0.0</course>
  <speed>0.0</speed>
  <fix>3d</fix>
</trkpt>
<trkpt lat="40.0713749" lon="-105.229789">
  <ele>1583.0</ele>
  <time>2026-09-02T20:50:26Z</time>
  <course>0.0</course>
  <speed>0.0</speed>
  <fix>3d</fix>
</trkpt>
<trkpt lat="40.0713749" lon="-105.229789">
  <ele>1583.0</ele>
  <time>2026-09-02T20:50:26Z</time>
  <course>0.0</course>
  <speed>0.0</speed>
  <fix>3d</fix>
</trkpt>
<trkpt lat="40.0713749" lon="-105.229789">
  <ele>1583.0</ele>
  <time>2026-09-02T20:50:26Z</time>
  <course>0.0</course>
  <speed>0.0</speed>
  <fix>3d</fix>
</trkpt>
<trkpt lat="40.0713749" lon="-105.229789">
  <ele>1583.0</ele>
  <time>2026-09-02T20:50:26Z</time>
  <course>0.0</course>
  <speed>0.0</speed>
  <fix>3d</fix>
</trkpt>
<trkpt lat="40.0713749" lon="-105.229789">
  <ele>1583.0</ele>
  <time>2026-09-02T20:50:26Z</time>
  <course>0.0</course>
  <speed>0.0</speed>
  <fix>3d</fix>
</trkpt>
<trkpt lat="40.0713749" lon="-105.229789">
  <ele>1583.0</ele>
  <time>2026-09-02T20:50:26Z</time>
  <course>0.0</course>
  <speed>0.0</speed>
  <fix>3d</fix>
</trkpt>
<trkpt lat="40.0713749" lon="-105.229789">
  <ele>1583.0</ele>
  <time>2026-09-02T20:50:26Z</time>
  <course>0.0</course>
  <speed>0.0</speed>
  <fix>3d</fix>
</trkpt>
<trkpt lat="40.0713749" lon="-105.229789">
  <ele>1583.0</ele>
  <time>2026-09-02T20:50:26Z</time>
  <course>0.0</course>
  <speed>0.0</speed>
  <fix>3d</fix>
</trkpt>
<trkpt lat="40.0713749" lon="-105.229789">
  <ele>1583.0</ele>
  <time>2026-09-02T20:50:26Z</time>
  <course>0.0</course>
  <speed>0.0</speed>
  <fix>3d</fix>
</trkpt>
<trkpt lat="40.0713749" lon="-105.229789">
  <ele>1583.0</ele>
  <time>2026-09-02T20:50:26Z</time>
  <course>0.0</course>
  <speed>0.0</speed>
  <fix>3d</fix>
</trkpt>
<trkpt lat="40.0713749" lon="-105.229789">
  <ele>1583.0</ele>
  <time>2026-09-02T20:50:26Z</time>
  <course>0.0</course>
  <speed>0.0</speed>
  <fix>3d</fix>
</trkpt>
<trkpt lat="40.0713749" lon="-105.229789">
  <ele>1583.0</ele>
  <time>2026-09-02T20:50:26Z</time>
  <course>0.0</course>
  <speed>0.0</speed>
  <fix>3d</fix>
</trkpt>
<trkpt lat="40.0713749" lon="-105.229789">
  <ele>1583.0</ele>
  <time>2026-09-02T20:50:26Z</time>
  <course>0.0</course>
  <speed>0.0</speed>
  <fix>3d</fix>
</trkpt>
<trkpt lat="40.0713749" lon="-105.229789">
  <ele>1583.0</ele>
  <time>2026-09-02T20:50:26Z</time>
  <course>0.0</course>
  <speed>0.0</speed>
  <fix>3d</fix>
</trkpt>
<trkpt lat="40.0713749" lon="-105.229789">
  <ele>1583.0</ele>
  <time>2026-09-02T20:50:26Z</time>
  <course>0.0</course>
  <speed>0.0</speed>
  <fix>3d</fix>
</trkpt>
<trkpt lat="40.0713749" lon="-105.229789">
  <ele>1583.0</ele>
  <time>2026-09-02T20:50:26Z</time>
  <course>0.0</course>
  <speed>0.0</speed>
  <fix>3d</fix>
</trkpt>
<trkpt lat="40.0713749" lon="-105.229789">
  <ele>1583.0</ele>
  <time>2026-09-02T20:50:26Z</time>
  <course>0.0</course>
  <speed>0.0</speed>
  <fix>3d</fix>
</trkpt>
<trkpt lat="40.0713749" lon="-105.229789">
  <ele>1583.0</ele>
  <time>2026-09-02T20:50:26Z</time>
  <course>0.0</course>
  <speed>0.0</speed>
  <fix>3d</fix>
</trkpt>
<trkpt lat="40.0713749" lon="-105.229789">
  <ele>1583.0</ele>
  <time>2026-09-02T20:50:26Z</time>
  <course>0.0</course>
  <speed>0.0</speed>
  <fix>3d</fix>
</trkpt>
<trkpt lat="40.0713749" lon="-105.229789">
  <ele>1583.0</ele>
  <time>2026-09-02T20:50:26Z</time>
  <course>0.0</course>
  <speed>0.0</speed>
  <fix>3d</fix>
</trkpt>
<trkpt lat="40.0713749" lon="-105.229789">
  <ele>1583.0</ele>
  <time>2026-09-02T20:50:26Z</time>
  <course>0.0</course>
  <speed>0.0</speed>
  <fix>3d</fix>
</trkpt>
<trkpt lat="40.0713749" lon="-105.229789">
  <ele>1583.0</ele>
  <time>2026-09-02T20:50:26Z</time>
  <course>0.0</course>
  <speed>0.0</speed>
  <fix>3d</fix>
</trkpt>
<trkpt lat="40.0713749" lon="-105.229789">
  <ele>1583.0</ele>
  <time>2026-09-02T20:50:26Z</time>
  <course>0.0</course>
  <speed>0.0</speed>
  <fix>3d</fix>
</trkpt>
<trkpt lat="40.0713749" lon="-105.229789">
  <ele>1583.0</ele>
  <time>2026-09-02T20:50:26Z</time>
  <course>0.0</course>
  <speed>0.0</speed>
  <fix>3d</fix>
</trkpt>
<trkpt lat="40.0713749" lon="-105.229789">
  <ele>1583.0</ele>
  <time>2026-09-02T20:50:26Z</time>
  <course>0.0</course>
  <speed>0.0</speed>
  <fix>3d</fix>
</trkpt>
<trkpt lat="40.0713749" lon="-105.229789">
  <ele>1583.0</ele>
  <time>2026-09-02T20:50:26Z</time>
  <course>0.0</course>
  <speed>0.0</speed>
  <fix>3d</fix>
</trkpt>
<trkpt lat="40.0713749" lon="-105.229789">
  <ele>1583.0</ele>
  <time>2026-09-02T20:50:26Z</time>
  <course>0.0</course>
  <speed>0.0</speed>
  <fix>3d</fix>
</trkpt>
<trkpt lat="40.0713749" lon="-105.229789">
  <ele>1583.0</ele>
  <time>2026-09-02T20:50:26Z</time>
  <course>0.0</course>
  <speed>0.0</speed>
  <fix>3d</fix>
</trkpt>
<trkpt lat="40.0713749" lon="-105.229789">
  <ele>1583.0</ele>
  <time>2026-09-02T20:50:26Z</time>
  <course>0.0</course>
  <speed>0.0</speed>
  <fix>3d</fix>
</trkpt>
<trkpt lat="40.0713749" lon="-105.229789">
  <ele>1583.0</ele>
  <time>2026-09-02T20:50:26Z</time>
  <course>0.0</course>
  <speed>0.0</speed>
  <fix>3d</fix>
</trkpt>
<trkpt lat="40.0713749" lon="-105.229789">
  <ele>1583.0</ele>
  <time>2026-09-02T20:50:26Z</time>
  <course>0.0</course>
  <speed>0.0</speed>
  <fix>3d</fix>
</trkpt>
<trkpt lat="40.0713749" lon="-105.229789">
  <ele>1583.0</ele>
  <time>2026-09-02T20:50:26Z</time>
  <course>0.0</course>
  <speed>0.0</speed>
  <fix>3d</fix>
</trkpt>
<trkpt lat="40.0713749" lon="-105.229789">
  <ele>1583.0</ele>
  <time>2026-09-02T20:50:26Z</time>
  <course>0.0</course>
  <speed>0.0</speed>
  <fix>3d</fix>
</trkpt>
<trkpt lat="40.0713749" lon="-105.229789">
  <ele>1583.0</ele>
  <time>2026-09-02T20:50:26Z</time>
  <course>0.0</course>
  <speed>0.0</speed>
  <fix>3d</fix>
</trkpt>
<trkpt lat="40.0713749" lon="-105.229789">
  <ele>1583.0</ele>
  <time>2026-09-02T20:50:26Z</time>
  <course>0.0</course>
  <speed>0.0</speed>
  <fix>3d</fix>
</trkpt>
<trkpt lat="40.0713749" lon="-105.229789">
  <ele>1583.0</ele>
  <time>2026-09-02T20:50:26Z</time>
  <course>0.0</course>
  <speed>0.0</speed>
  <fix>3d</fix>
</trkpt>
<trkpt lat="40.0713749" lon="-105.229789">
  <ele>1583.0</ele>
  <time>2026-09-02T20:50:26Z</time>
  <course>0.0</course>
  <speed>0.0</speed>
  <fix>3d</fix>
</trkpt>
<trkpt lat="40.0713749" lon="-105.229789">
  <ele>1583.0</ele>
  <time>2026-09-02T20:50:26Z</time>
  <course>0.0</course>
  <speed>0.0</speed>
  <fix>3d</fix>
</trkpt>
<trkpt lat="40.0713749" lon="-105.229789">
  <ele>1583.0</ele>
  <time>2026-09-02T20:50:26Z</time>
  <course>0.0</course>
  <speed>0.0</speed>
  <fix>3d</fix>
</trkpt>
<trkpt lat="40.0713749" lon="-105.229789">
  <ele>1583.0</ele>
  <time>2026-09-02T20:50:26Z</time>
  <course>0.0</course>
  <speed>0.0</speed>
  <fix>3d</fix>
</trkpt>
<trkpt lat="40.0713749" lon="-105.229789">
  <ele>1583.0</ele>
  <time>2026-09-02T20:50:26Z</time>
  <course>0.0</course>
  <speed>0.0</speed>
  <fix>3d</fix>
</trkpt>
<trkpt lat="40.0713749" lon="-105.229789">
  <ele>1583.0</ele>
  <time>2026-09-02T20:50:26Z</time>
  <course>0.0</course>
  <speed>0.0</speed>
  <fix>3d</fix>
</trkpt>
<trkpt lat="40.0713749" lon="-105.229789">
  <ele>1583.0</ele>
  <time>2026-09-02T20:50:26Z</time>
  <course>0.0</course>
  <speed>0.0</speed>
  <fix>3d</fix>
</trkpt>
<trkpt lat="40.0713749" lon="-105.229789">
  <ele>1583.0</ele>
  <time>2026-09-02T20:50:26Z</time>
  <course>0.0</course>
  <speed>0.0</speed>
  <fix>3d</fix>
</trkpt>
<trkpt lat="40.0713749" lon="-105.229789">
  <ele>1583.0</ele>
  <time>2026-09-02T20:50:26Z</time>
  <course>0.0</course>
  <speed>0.0</speed>
  <fix>3d</fix>
</trkpt>
<trkpt lat="40.0713749" lon="-105.229789">
  <ele>1583.0</ele>
  <time>2026-09-02T20:50:26Z</time>
  <course>0.0</course>
  <speed>0.0</speed>
  <fix>3d</fix>
</trkpt>
<trkpt lat="40.0713749" lon="-105.229789">
  <ele>1583.0</ele>
  <time>2026-09-02T20:50:26Z</time>
  <course>0.0</course>
  <speed>0.0</speed>
  <fix>3d</fix>
</trkpt>
<trkpt lat="40.0713749" lon="-105.229789">
  <ele>1583.0</ele>
  <time>2026-09-02T20:50:26Z</time>
  <course>0.0</course>
  <speed>0.0</speed>
  <fix>3d</fix>
</trkpt>
<trkpt lat="40.0713749" lon="-105.229789">
  <ele>1583.0</ele>
  <time>2026-09-02T20:50:26Z</time>
  <course>0.0</course>
  <speed>0.0</speed>
  <fix>3d</fix>
</trkpt>
<trkpt lat="40.0713749" lon="-105.229789">
  <ele>1583.0</ele>
  <time>2026-09-02T20:50:26Z</time>
  <course>0.0</course>
  <speed>0.0</speed>
  <fix>3d</fix>
</trkpt>
<trkpt lat="40.0713749" lon="-105.229789">
  <ele>1583.0</ele>
  <time>2026-09-02T20:50:26Z</time>
  <course>0.0</course>
  <speed>0.0</speed>
  <fix>3d</fix>
</trkpt>
<trkpt lat="40.0713749" lon="-105.229789">
  <ele>1583.0</ele>
  <time>2026-09-02T20:50:26Z</time>
  <course>0.0</course>
  <speed>0.0</speed>
  <fix>3d</fix>
</trkpt>
<trkpt lat="40.0713749" lon="-105.229789">
  <ele>1583.0</ele>
  <time>2026-09-02T20:50:26Z</time>
  <course>0.0</course>
  <speed>0.0</speed>
  <fix>3d</fix>
</trkpt>
<trkpt lat="40.0713749" lon="-105.229789">
  <ele>1583.0</ele>
  <time>2026-09-02T20:50:26Z</time>
  <course>0.0</course>
  <speed>0.0</speed>
  <fix>3d</fix>
</trkpt>
<trkpt lat="40.0713749" lon="-105.229789">
  <ele>1583.0</ele>
  <time>2026-09-02T20:50:26Z</time>
  <course>0.0</course>
  <speed>0.0</speed>
  <fix>3d</fix>
</trkpt>
<trkpt lat="40.0713749" lon="-105.229789">
  <ele>1583.0</ele>
  <time>2026-09-02T20:50:26Z</time>
  <course>0.0</course>
  <speed>0.0</speed>
  <fix>3d</fix>
</trkpt>
<trkpt lat="40.0713749" lon="-105.229789">
  <ele>1583.0</ele>
  <time>2026-09-02T20:50:26Z</time>
  <course>0.0</course>
  <speed>0.0</speed>
  <fix>3d</fix>
</trkpt>
<trkpt lat="40.0713749" lon="-105.229789">
  <ele>1583.0</ele>
  <time>2026-09-02T20:50:26Z</time>
  <course>0.0</course>
  <speed>0.0</speed>
  <fix>3d</fix>
</trkpt>
<trkpt lat="40.0713749" lon="-105.229789">
  <ele>1583.0</ele>
  <time>2026-09-02T20:50:26Z</time>
  <course>0.0</course>
  <speed>0.0</speed>
  <fix>3d</fix>
</trkpt>
<trkpt lat="40.0713749" lon="-105.229789">
  <ele>1583.0</ele>
  <time>2026-09-02T20:50:26Z</time>
  <course>0.0</course>
  <speed>0.0</speed>
  <fix>3d</fix>
</trkpt>
<trkpt lat="40.0713749" lon="-105.229789">
  <ele>1583.0</ele>
  <time>2026-09-02T20:50:26Z</time>
  <course>0.0</course>
  <speed>0.0</speed>
  <fix>3d</fix>
</trkpt>
<trkpt lat="40.0713749" lon="-105.229789">
  <ele>1583.0</ele>
  <time>2026-09-02T20:50:26Z</time>
  <course>0.0</course>
  <speed>0.0</speed>
  <fix>3d</fix>
</trkpt>
<trkpt lat="40.0713749" lon="-105.229789">
  <ele>1583.0</ele>
  <time>2026-09-02T20:50:26Z</time>
  <course>0.0</course>
  <speed>0.0</speed>
  <fix>3d</fix>
</trkpt>
<trkpt lat="40.0713749" lon="-105.229789">
  <ele>1583.0</ele>
  <time>2026-09-02T20:50:26Z</time>
  <course>0.0</course>
  <speed>0.0</speed>
  <fix>3d</fix>
</trkpt>
<trkpt lat="40.0713749" lon="-105.229789">
  <ele>1583.0</ele>
  <time>2026-09-02T20:50:26Z</time>
  <course>0.0</course>
  <speed>0.0</speed>
  <fix>3d</fix>
</trkpt>
<trkpt lat="40.0713749" lon="-105.229789">
  <ele>1583.0</ele>
  <time>2026-09-02T20:50:26Z</time>
  <course>0.0</course>
  <speed>0.0</speed>
  <fix>3d</fix>
</trkpt>
<trkpt lat="40.0713749" lon="-105.229789">
  <ele>1583.0</ele>
  <time>2026-09-02T20:50:26Z</time>
  <course>0.0</course>
  <speed>0.0</speed>
  <fix>3d</fix>
</trkpt>
<trkpt lat="40.0713749" lon="-105.229789">
  <ele>1583.0</ele>
  <time>2026-09-02T20:50:26Z</time>
  <course>0.0</course>
  <speed>0.0</speed>
  <fix>3d</fix>
</trkpt>
<trkpt lat="40.0713749" lon="-105.229789">
  <ele>1583.0</ele>
  <time>2026-09-02T20:50:26Z</time>
  <course>0.0</course>
  <speed>0.0</speed>
  <fix>3d</fix>
</trkpt>
<trkpt lat="40.0713749" lon="-105.229789">
  <ele>1583.0</ele>
  <time>2026-09-02T20:50:26Z</time>
  <course>0.0</course>
  <speed>0.0</speed>
  <fix>3d</fix>
</trkpt>
<trkpt lat="40.0713749" lon="-105.229789">
  <ele>1583.0</ele>
  <time>2026-09-02T20:50:26Z</time>
  <course>0.0</course>
  <speed>0.0</speed>
  <fix>3d</fix>
</trkpt>
<trkpt lat="40.0713749" lon="-105.229789">
  <ele>1583.0</ele>
  <time>2026-09-02T20:50:26Z</time>
  <course>0.0</course>
  <speed>0.0</speed>
  <fix>3d</fix>
</trkpt>
<trkpt lat="40.0713749" lon="-105.229789">
  <ele>1583.0</ele>
  <time>2026-09-02T20:50:26Z</time>
  <course>0.0</course>
  <speed>0.0</speed>
  <fix>3d</fix>
</trkpt>
<trkpt lat="40.0713749" lon="-105.229789">
  <ele>1583.0</ele>
  <time>2026-09-02T20:50:26Z</time>
  <course>0.0</course>
  <speed>0.0</speed>
  <fix>3d</fix>
</trkpt>
<trkpt lat="40.0713749" lon="-105.229789">
  <ele>1583.0</ele>
  <time>2026-09-02T20:50:26Z</time>
  <course>0.0</course>
  <speed>0.0</speed>
  <fix>3d</fix>
</trkpt>
<trkpt lat="40.0713749" lon="-105.229789">
  <ele>1583.0</ele>
  <time>2026-09-02T20:50:26Z</time>
  <course>0.0</course>
  <speed>0.0</speed>
  <fix>3d</fix>
</trkpt>
<trkpt lat="40.0713749" lon="-105.229789">
  <ele>1583.0</ele>
  <time>2026-09-02T20:50:26Z</time>
  <course>0.0</course>
  <speed>0.0</speed>
  <fix>3d</fix>
</trkpt>
<trkpt lat="40.0713749" lon="-105.229789">
  <ele>1583.0</ele>
  <time>2026-09-02T20:50:26Z</time>
  <course>0.0</course>
  <speed>0.0</speed>
  <fix>3d</fix>
</trkpt>
<trkpt lat="40.0713749" lon="-105.229789">
  <ele>1583.0</ele>
  <time>2026-09-02T20:50:26Z</time>
  <course>0.0</course>
  <speed>0.0</speed>
  <fix>3d</fix>
</trkpt>
<trkpt lat="40.0713749" lon="-105.229789">
  <ele>1583.0</ele>
  <time>2026-09-02T20:50:26Z</time>
  <course>0.0</course>
  <speed>0.0</speed>
  <fix>3d</fix>
</trkpt>
<trkpt lat="40.0713749" lon="-105.229789">
  <ele>1583.0</ele>
  <time>2026-09-02T20:50:26Z</time>
  <course>0.0</course>
  <speed>0.0</speed>
  <fix>3d</fix>
</trkpt>
<trkpt lat="40.0713749" lon="-105.229789">
  <ele>1583.0</ele>
  <time>2026-09-02T20:50:26Z</time>
  <course>0.0</course>
  <speed>0.0</speed>
  <fix>3d</fix>
</trkpt>
<trkpt lat="40.0713749" lon="-105.229789">
  <ele>1583.0</ele>
  <time>2026-09-02T20:50:26Z</time>
  <course>0.0</course>
  <speed>0.0</speed>
  <fix>3d</fix>
</trkpt>
<trkpt lat="40.0713749" lon="-105.229789">
  <ele>1583.0</ele>
  <time>2026-09-02T20:50:26Z</time>
  <course>0.0</course>
  <speed>0.0</speed>
  <fix>3d</fix>
</trkpt>
<trkpt lat="40.0713749" lon="-105.229789">
  <ele>1583.0</ele>
  <time>2026-09-02T20:50:26Z</time>
  <course>0.0</course>
  <speed>0.0</speed>
  <fix>3d</fix>
</trkpt>
<trkpt lat="40.0713749" lon="-105.229789">
  <ele>1583.0</ele>
  <time>2026-09-02T20:50:26Z</time>
  <course>0.0</course>
  <speed>0.0</speed>
  <fix>3d</fix>
</trkpt>
<trkpt lat="40.0713749" lon="-105.229789">
  <ele>1583.0</ele>
  <time>2026-09-02T20:50:26Z</time>
  <course>0.0</course>
  <speed>0.0</speed>
  <fix>3d</fix>
</trkpt>
<trkpt lat="40.0713749" lon="-105.229789">
  <ele>1583.0</ele>
  <time>2026-09-02T20:50:26Z</time>
  <course>0.0</course>
  <speed>0.0</speed>
  <fix>3d</fix>
</trkpt>
<trkpt lat="40.0713749" lon="-105.229789">
  <ele>1583.0</ele>
  <time>2026-09-02T20:50:26Z</time>
  <course>0.0</course>
  <speed>0.0</speed>
  <fix>3d</fix>
</trkpt>
<trkpt lat="40.0713749" lon="-105.229789">
  <ele>1583.0</ele>
  <time>2026-09-02T20:50:26Z</time>
  <course>0.0</course>
  <speed>0.0</speed>
  <fix>3d</fix>
</trkpt>
<trkpt lat="40.0713749" lon="-105.229789">
  <ele>1583.0</ele>
  <time>2026-09-02T20:50:26Z</time>
  <course>0.0</course>
  <speed>0.0</speed>
  <fix>3d</fix>
</trkpt>
<trkpt lat="40.0713749" lon="-105.229789">
  <ele>1583.0</ele>
  <time>2026-09-02T20:50:26Z</time>
  <course>0.0</course>
  <speed>0.0</speed>
  <fix>3d</fix>
</trkpt>
<trkpt lat="40.0713749" lon="-105.229789">
  <ele>1583.0</ele>
  <time>2026-09-02T20:50:26Z</time>
  <course>0.0</course>
  <speed>0.0</speed>
  <fix>3d</fix>
</trkpt>
<trkpt lat="40.0713749" lon="-105.229789">
  <ele>1583.0</ele>
  <time>2026-09-02T20:50:26Z</time>
  <course>0.0</course>
  <speed>0.0</speed>
  <fix>3d</fix>
</trkpt>
<trkpt lat="40.0713749" lon="-105.229789">
  <ele>1583.0</ele>
  <time>2026-09-02T20:50:26Z</time>
  <course>0.0</course>
  <speed>0.0</speed>
  <fix>3d</fix>
</trkpt>
<trkpt lat="40.0713749" lon="-105.229789">
  <ele>1583.0</ele>
  <time>2026-09-02T20:50:26Z</time>
  <course>0.0</course>
  <speed>0.0</speed>
  <fix>3d</fix>
</trkpt>
<trkpt lat="40.0713749" lon="-105.229789">
  <ele>1583.0</ele>
  <time>2026-09-02T20:50:26Z</time>
  <course>0.0</course>
  <speed>0.0</speed>
  <fix>3d</fix>
</trkpt>
<trkpt lat="40.0713749" lon="-105.229789">
  <ele>1583.0</ele>
  <time>2026-09-02T20:50:26Z</time>
  <course>0.0</course>
  <speed>0.0</speed>
  <fix>3d</fix>
</trkpt>
<trkpt lat="40.0713749" lon="-105.229789">
  <ele>1583.0</ele>
  <time>2026-09-02T20:50:26Z</time>
  <course>0.0</course>
  <speed>0.0</speed>
  <fix>3d</fix>
</trkpt>
<trkpt lat="40.0713749" lon="-105.229789">
  <ele>1583.0</ele>
  <time>2026-09-02T20:50:26Z</time>
  <course>0.0</course>
  <speed>0.0</speed>
  <fix>3d</fix>
</trkpt>
<trkpt lat="40.0713749" lon="-105.229789">
  <ele>1583.0</ele>
  <time>2026-09-02T20:50:26Z</time>
  <course>0.0</course>
  <speed>0.0</speed>
  <fix>3d</fix>
</trkpt>
<trkpt lat="40.0713749" lon="-105.229789">
  <ele>1583.0</ele>
  <time>2026-09-02T20:50:26Z</time>
  <course>0.0</course>
  <speed>0.0</speed>
  <fix>3d</fix>
</trkpt>
<trkpt lat="40.0713749" lon="-105.229789">
  <ele>1583.0</ele>
  <time>2026-09-02T20:50:26Z</time>
  <course>0.0</course>
  <speed>0.0</speed>
  <fix>3d</fix>
</trkpt>
<trkpt lat="40.0713749" lon="-105.229789">
  <ele>1583.0</ele>
  <time>2026-09-02T20:50:26Z</time>
  <course>0.0</course>
  <speed>0.0</speed>
  <fix>3d</fix>
</trkpt>
<trkpt lat="40.0713749" lon="-105.229789">
  <ele>1583.0</ele>
  <time>2026-09-02T20:50:26Z</time>
  <course>0.0</course>
  <speed>0.0</speed>
  <fix>3d</fix>
</trkpt>
<trkpt lat="40.0713749" lon="-105.229789">
  <ele>1583.0</ele>
  <time>2026-09-02T20:50:26Z</time>
  <course>0.0</course>
  <speed>0.0</speed>
  <fix>3d</fix>
</trkpt>
<trkpt lat="40.0713749" lon="-105.229789">
  <ele>1583.0</ele>
  <time>2026-09-02T20:50:26Z</time>
  <course>0.0</course>
  <speed>0.0</speed>
  <fix>3d</fix>
</trkpt>
<trkpt lat="40.0713749" lon="-105.229789">
  <ele>1583.0</ele>
  <time>2026-09-02T20:50:26Z</time>
  <course>0.0</course>
  <speed>0.0</speed>
  <fix>3d</fix>
</trkpt>
<trkpt lat="40.0713749" lon="-105.229789">
  <ele>1583.0</ele>
  <time>2026-09-02T20:50:26Z</time>
  <course>0.0</course>
  <speed>0.0</speed>
  <fix>3d</fix>
</trkpt>
<trkpt lat="40.0713749" lon="-105.229789">
  <ele>1583.0</ele>
  <time>2026-09-02T20:50:26Z</time>
  <course>0.0</course>
  <speed>0.0</speed>
  <fix>3d</fix>
</trkpt>
<trkpt lat="40.0713749" lon="-105.229789">
  <ele>1583.0</ele>
  <time>2026-09-02T20:50:26Z</time>
  <course>0.0</course>
  <speed>0.0</speed>
  <fix>3d</fix>
</trkpt>
<trkpt lat="40.0713749" lon="-105.229789">
  <ele>1583.0</ele>
  <time>2026-09-02T20:50:26Z</time>
  <course>0.0</course>
  <speed>0.0</speed>
  <fix>3d</fix>
</trkpt>
<trkpt lat="40.0713749" lon="-105.229789">
  <ele>1583.0</ele>
  <time>2026-09-02T20:50:26Z</time>
  <course>0.0</course>
  <speed>0.0</speed>
  <fix>3d</fix>
</trkpt>
<trkpt lat="40.0713749" lon="-105.229789">
  <ele>1583.0</ele>
  <time>2026-09-02T20:50:26Z</time>
  <course>0.0</course>
  <speed>0.0</speed>
  <fix>3d</fix>
</trkpt>
<trkpt lat="40.0713749" lon="-105.229789">
  <ele>1583.0</ele>
  <time>2026-09-02T20:50:26Z</time>
  <course>0.0</course>
  <speed>0.0</speed>
  <fix>3d</fix>
</trkpt>
<trkpt lat="40.0713749" lon="-105.229789">
  <ele>1583.0</ele>
  <time>2026-09-02T20:50:26Z</time>
  <course>0.0</course>
  <speed>0.0</speed>
  <fix>3d</fix>
</trkpt>
<trkpt lat="40.0713749" lon="-105.229789">
  <ele>1583.0</ele>
  <time>2026-09-02T20:50:26Z</time>
  <course>0.0</course>
  <speed>0.0</speed>
  <fix>3d</fix>
</trkpt>
<trkpt lat="40.0713749" lon="-105.229789">
  <ele>1583.0</ele>
  <time>2026-09-02T20:50:26Z</time>
  <course>0.0</course>
  <speed>0.0</speed>
  <fix>3d</fix>
</trkpt>
<trkpt lat="40.0713749" lon="-105.229789">
  <ele>1583.0</ele>
  <time>2026-09-02T20:50:26Z</time>
  <course>0.0</course>
  <speed>0.0</speed>
  <fix>3d</fix>
</trkpt>
<trkpt lat="40.0713749" lon="-105.229789">
  <ele>1583.0</ele>
  <time>2026-09-02T20:50:26Z</time>
  <course>0.0</course>
  <speed>0.0</speed>
  <fix>3d</fix>
</trkpt>
<trkpt lat="40.0713749" lon="-105.229789">
  <ele>1583.0</ele>
  <time>2026-09-02T20:50:26Z</time>
  <course>0.0</course>
  <speed>0.0</speed>
  <fix>3d</fix>
</trkpt>
<trkpt lat="40.0713749" lon="-105.229789">
  <ele>1583.0</ele>
  <time>2026-09-02T20:50:26Z</time>
  <course>0.0</course>
  <speed>0.0</speed>
  <fix>3d</fix>
</trkpt>
<trkpt lat="40.0713749" lon="-105.229789">
  <ele>1583.0</ele>
  <time>2026-09-02T20:50:26Z</time>
  <course>0.0</course>
  <speed>0.0</speed>
  <fix>3d</fix>
</trkpt>
<trkpt lat="40.0713749" lon="-105.229789">
  <ele>1583.0</ele>
  <time>2026-09-02T20:50:26Z</time>
  <course>0.0</course>
  <speed>0.0</speed>
  <fix>3d</fix>
</trkpt>
<trkpt lat="40.0713749" lon="-105.229789">
  <ele>1583.0</ele>
  <time>2026-09-02T20:50:26Z</time>
  <course>0.0</course>
  <speed>0.0</speed>
  <fix>3d</fix>
</trkpt>
<trkpt lat="40.0713749" lon="-105.229789">
  <ele>1583.0</ele>
  <time>2026-09-02T20:50:26Z</time>
  <course>0.0</course>
  <speed>0.0</speed>
  <fix>3d</fix>
</trkpt>
<trkpt lat="40.0713749" lon="-105.229789">
  <ele>1583.0</ele>
  <time>2026-09-02T20:50:26Z</time>
  <course>0.0</course>
  <speed>0.0</speed>
  <fix>3d</fix>
</trkpt>
<trkpt lat="40.0713749" lon="-105.229789">
  <ele>1583.0</ele>
  <time>2026-09-02T20:50:26Z</time>
  <course>0.0</course>
  <speed>0.0</speed>
  <fix>3d</fix>
</trkpt>
<trkpt lat="40.0713749" lon="-105.229789">
  <ele>1583.0</ele>
  <time>2026-09-02T20:50:26Z</time>
  <course>0.0</course>
  <speed>0.0</speed>
  <fix>3d</fix>
</trkpt>
<trkpt lat="40.0713749" lon="-105.229789">
  <ele>1583.0</ele>
  <time>2026-09-02T20:50:26Z</time>
  <course>0.0</course>
  <speed>0.0</speed>
  <fix>3d</fix>
</trkpt>
<trkpt lat="40.0713749" lon="-105.229789">
  <ele>1583.0</ele>
  <time>2026-09-02T20:50:26Z</time>
  <course>0.0</course>
  <speed>0.0</speed>
  <fix>3d</fix>
</trkpt>
<trkpt lat="40.0713749" lon="-105.229789">
  <ele>1583.0</ele>
  <time>2026-09-02T20:50:26Z</time>
  <course>0.0</course>
  <speed>0.0</speed>
  <fix>3d</fix>
</trkpt>
<trkpt lat="40.0713749" lon="-105.229789">
  <ele>1583.0</ele>
  <time>2026-09-02T20:50:26Z</time>
  <course>0.0</course>
  <speed>0.0</speed>
  <fix>3d</fix>
</trkpt>
<trkpt lat="40.0713749" lon="-105.229789">
  <ele>1583.0</ele>
  <time>2026-09-02T20:50:26Z</time>
  <course>0.0</course>
  <speed>0.0</speed>
  <fix>3d</fix>
</trkpt>
<trkpt lat="40.0713749" lon="-105.229789">
  <ele>1583.0</ele>
  <time>2026-09-02T20:50:26Z</time>
  <course>0.0</course>
  <speed>0.0</speed>
  <fix>3d</fix>
</trkpt>
<trkpt lat="40.0713749" lon="-105.229789">
  <ele>1583.0</ele>
  <time>2026-09-02T20:50:26Z</time>
  <course>0.0</course>
  <speed>0.0</speed>
  <fix>3d</fix>
</trkpt>
<trkpt lat="40.0713749" lon="-105.229789">
  <ele>1583.0</ele>
  <time>2026-09-02T20:50:26Z</time>
  <course>0.0</course>
  <speed>0.0</speed>
  <fix>3d</fix>
</trkpt>
<trkpt lat="40.0713749" lon="-105.229789">
  <ele>1583.0</ele>
  <time>2026-09-02T20:50:26Z</time>
  <course>0.0</course>
  <speed>0.0</speed>
  <fix>3d</fix>
</trkpt>
<trkpt lat="40.0713749" lon="-105.229789">
  <ele>1583.0</ele>
  <time>2026-09-02T20:50:26Z</time>
  <course>0.0</course>
  <speed>0.0</speed>
  <fix>3d</fix>
</trkpt>
<trkpt lat="40.0713749" lon="-105.229789">
  <ele>1583.0</ele>
  <time>2026-09-02T20:50:26Z</time>
  <course>0.0</course>
  <speed>0.0</speed>
  <fix>3d</fix>
</trkpt>
<trkpt lat="40.0713749" lon="-105.229789">
  <ele>1583.0</ele>
  <time>2026-09-02T20:50:26Z</time>
  <course>0.0</course>
  <speed>0.0</speed>
  <fix>3d</fix>
</trkpt>
<trkpt lat="40.0713749" lon="-105.229789">
  <ele>1583.0</ele>
  <time>2026-09-02T20:50:26Z</time>
  <course>0.0</course>
  <speed>0.0</speed>
  <fix>3d</fix>
</trkpt>
<trkpt lat="40.0713749" lon="-105.229789">
  <ele>1583.0</ele>
  <time>2026-09-02T20:50:26Z</time>
  <course>0.0</course>
  <speed>0.0</speed>
  <fix>3d</fix>
</trkpt>
<trkpt lat="40.0713749" lon="-105.229789">
  <ele>1583.0</ele>
  <time>2026-09-02T20:50:26Z</time>
  <course>0.0</course>
  <speed>0.0</speed>
  <fix>3d</fix>
</trkpt>
<trkpt lat="40.0713749" lon="-105.229789">
  <ele>1583.0</ele>
  <time>2026-09-02T20:50:26Z</time>
  <course>0.0</course>
  <speed>0.0</speed>
  <fix>3d</fix>
</trkpt>
<trkpt lat="40.0713749" lon="-105.229789">
  <ele>1583.0</ele>
  <time>2026-09-02T20:50:26Z</time>
  <course>0.0</course>
  <speed>0.0</speed>
  <fix>3d</fix>
</trkpt>
<trkpt lat="40.0713749" lon="-105.229789">
  <ele>1583.0</ele>
  <time>2026-09-02T20:50:26Z</time>
  <course>0.0</course>
  <speed>0.0</speed>
  <fix>3d</fix>
</trkpt>
<trkpt lat="40.0713749" lon="-105.229789">
  <ele>1583.0</ele>
  <time>2026-09-02T20:50:26Z</time>
  <course>0.0</course>
  <speed>0.0</speed>
  <fix>3d</fix>
</trkpt>
<trkpt lat="40.0713749" lon="-105.229789">
  <ele>1583.0</ele>
  <time>2026-09-02T20:50:26Z</time>
  <course>0.0</course>
  <speed>0.0</speed>
  <fix>3d</fix>
</trkpt>
<trkpt lat="40.0713749" lon="-105.229789">
  <ele>1583.0</ele>
  <time>2026-09-02T20:50:26Z</time>
  <course>0.0</course>
  <speed>0.0</speed>
  <fix>3d</fix>
</trkpt>
<trkpt lat="40.0713749" lon="-105.229789">
  <ele>1583.0</ele>
  <time>2026-09-02T20:50:26Z</time>
  <course>0.0</course>
  <speed>0.0</speed>
  <fix>3d</fix>
</trkpt>
<trkpt lat="40.0713749" lon="-105.229789">
  <ele>1583.0</ele>
  <time>2026-09-02T20:50:26Z</time>
  <course>0.0</course>
  <speed>0.0</speed>
  <fix>3d</fix>
</trkpt>
<trkpt lat="40.0713749" lon="-105.229789">
  <ele>1583.0</ele>
  <time>2026-09-02T20:50:26Z</time>
  <course>0.0</course>
  <speed>0.0</speed>
  <fix>3d</fix>
</trkpt>
<trkpt lat="40.0713749" lon="-105.229789">
  <ele>1583.0</ele>
  <time>2026-09-02T20:50:26Z</time>
  <course>0.0</course>
  <speed>0.0</speed>
  <fix>3d</fix>
</trkpt>
<trkpt lat="40.0713749" lon="-105.229789">
  <ele>1583.0</ele>
  <time>2026-09-02T20:50:26Z</time>
  <course>0.0</course>
  <speed>0.0</speed>
  <fix>3d</fix>
</trkpt>
<trkpt lat="40.0713749" lon="-105.229789">
  <ele>1583.0</ele>
  <time>2026-09-02T20:50:26Z</time>
  <course>0.0</course>
  <speed>0.0</speed>
  <fix>3d</fix>
</trkpt>
<trkpt lat="40.0713749" lon="-105.229789">
  <ele>1583.0</ele>
  <time>2026-09-02T20:50:26Z</time>
  <course>0.0</course>
  <speed>0.0</speed>
  <fix>3d</fix>
</trkpt>
<trkpt lat="40.0713749" lon="-105.229789">
  <ele>1583.0</ele>
  <time>2026-09-02T20:50:26Z</time>
  <course>0.0</course>
  <speed>0.0</speed>
  <fix>3d</fix>
</trkpt>
<trkpt lat="40.0713749" lon="-105.229789">
  <ele>1583.0</ele>
  <time>2026-09-02T20:50:26Z</time>
  <course>0.0</course>
  <speed>0.0</speed>
  <fix>3d</fix>
</trkpt>
<trkpt lat="40.0713749" lon="-105.229789">
  <ele>1583.0</ele>
  <time>2026-09-02T20:50:26Z</time>
  <course>0.0</course>
  <speed>0.0</speed>
  <fix>3d</fix>
</trkpt>
<trkpt lat="40.0713749" lon="-105.229789">
  <ele>1583.0</ele>
  <time>2026-09-02T20:50:26Z</time>
  <course>0.0</course>
  <speed>0.0</speed>
  <fix>3d</fix>
</trkpt>
<trkpt lat="40.0713749" lon="-105.229789">
  <ele>1583.0</ele>
  <time>2026-09-02T20:50:26Z</time>
  <course>0.0</course>
  <speed>0.0</speed>
  <fix>3d</fix>
</trkpt>
<trkpt lat="40.0713749" lon="-105.229789">
  <ele>1583.0</ele>
  <time>2026-09-02T20:50:26Z</time>
  <course>0.0</course>
  <speed>0.0</speed>
  <fix>3d</fix>
</trkpt>
<trkpt lat="40.0713749" lon="-105.229789">
  <ele>1583.0</ele>
  <time>2026-09-02T20:50:26Z</time>
  <course>0.0</course>
  <speed>0.0</speed>
  <fix>3d</fix>
</trkpt>
<trkpt lat="40.0713749" lon="-105.229789">
  <ele>1583.0</ele>
  <time>2026-09-02T20:50:26Z</time>
  <course>0.0</course>
  <speed>0.0</speed>
  <fix>3d</fix>
</trkpt>
<trkpt lat="40.0713749" lon="-105.229789">
  <ele>1583.0</ele>
  <time>2026-09-02T20:50:26Z</time>
  <course>0.0</course>
  <speed>0.0</speed>
  <fix>3d</fix>
</trkpt>
<trkpt lat="40.0713749" lon="-105.229789">
  <ele>1583.0</ele>
  <time>2026-09-02T20:50:26Z</time>
  <course>0.0</course>
  <speed>0.0</speed>
  <fix>3d</fix>
</trkpt>
<trkpt lat="40.0713749" lon="-105.229789">
  <ele>1583.0</ele>
  <time>2026-09-02T20:50:26Z</time>
  <course>0.0</course>
  <speed>0.0</speed>
  <fix>3d</fix>
</trkpt>
<trkpt lat="40.0713749" lon="-105.229789">
  <ele>1583.0</ele>
  <time>2026-09-02T20:50:26Z</time>
  <course>0.0</course>
  <speed>0.0</speed>
  <fix>3d</fix>
</trkpt>
<trkpt lat="40.0713749" lon="-105.229789">
  <ele>1583.0</ele>
  <time>2026-09-02T20:50:26Z</time>
  <course>0.0</course>
  <speed>0.0</speed>
  <fix>3d</fix>
</trkpt>
<trkpt lat="40.0713749" lon="-105.229789">
  <ele>1583.0</ele>
  <time>2026-09-02T20:50:26Z</time>
  <course>0.0</course>
  <speed>0.0</speed>
  <fix>3d</fix>
</trkpt>
<trkpt lat="40.0713749" lon="-105.229789">
  <ele>1583.0</ele>
  <time>2026-09-02T20:50:26Z</time>
  <course>0.0</course>
  <speed>0.0</speed>
  <fix>3d</fix>
</trkpt>
<trkpt lat="40.0713749" lon="-105.229789">
  <ele>1583.0</ele>
  <time>2026-09-02T20:50:26Z</time>
  <course>0.0</course>
  <speed>0.0</speed>
  <fix>3d</fix>
</trkpt>
<trkpt lat="40.0713749" lon="-105.229789">
  <ele>1583.0</ele>
  <time>2026-09-02T20:50:26Z</time>
  <course>0.0</course>
  <speed>0.0</speed>
  <fix>3d</fix>
</trkpt>
<trkpt lat="40.0713749" lon="-105.229789">
  <ele>1583.0</ele>
  <time>2026-09-02T20:50:26Z</time>
  <course>0.0</course>
  <speed>0.0</speed>
  <fix>3d</fix>
</trkpt>
<trkpt lat="40.0713749" lon="-105.229789">
  <ele>1583.0</ele>
  <time>2026-09-02T20:50:26Z</time>
  <course>0.0</course>
  <speed>0.0</speed>
  <fix>3d</fix>
</trkpt>
<trkpt lat="40.0713749" lon="-105.229789">
  <ele>1583.0</ele>
  <time>2026-09-02T20:50:26Z</time>
  <course>0.0</course>
  <speed>0.0</speed>
  <fix>3d</fix>
</trkpt>
<trkpt lat="40.0713749" lon="-105.229789">
  <ele>1583.0</ele>
  <time>2026-09-02T20:50:26Z</time>
  <course>0.0</course>
  <speed>0.0</speed>
  <fix>3d</fix>
</trkpt>
<trkpt lat="40.0713749" lon="-105.229789">
  <ele>1583.0</ele>
  <time>2026-09-02T20:50:26Z</time>
  <course>0.0</course>
  <speed>0.0</speed>
  <fix>3d</fix>
</trkpt>
<trkpt lat="40.0713749" lon="-105.229789">
  <ele>1583.0</ele>
  <time>2026-09-02T20:50:26Z</time>
  <course>0.0</course>
  <speed>0.0</speed>
  <fix>3d</fix>
</trkpt>
<trkpt lat="40.0713749" lon="-105.229789">
  <ele>1583.0</ele>
  <time>2026-09-02T20:50:26Z</time>
  <course>0.0</course>
  <speed>0.0</speed>
  <fix>3d</fix>
</trkpt>
<trkpt lat="40.0713749" lon="-105.229789">
  <ele>1583.0</ele>
  <time>2026-09-02T20:50:26Z</time>
  <course>0.0</course>
  <speed>0.0</speed>
  <fix>3d</fix>
</trkpt>
<trkpt lat="40.0713749" lon="-105.229789">
  <ele>1583.0</ele>
  <time>2026-09-02T20:50:26Z</time>
  <course>0.0</course>
  <speed>0.0</speed>
  <fix>3d</fix>
</trkpt>
<trkpt lat="40.0713749" lon="-105.229789">
  <ele>1583.0</ele>
  <time>2026-09-02T20:50:26Z</time>
  <course>0.0</course>
  <speed>0.0</speed>
  <fix>3d</fix>
</trkpt>
<trkpt lat="40.0713749" lon="-105.229789">
  <ele>1583.0</ele>
  <time>2026-09-02T20:50:26Z</time>
  <course>0.0</course>
  <speed>0.0</speed>
  <fix>3d</fix>
</trkpt>
<trkpt lat="40.0713749" lon="-105.229789">
  <ele>1583.0</ele>
  <time>2026-09-02T20:50:26Z</time>
  <course>0.0</course>
  <speed>0.0</speed>
  <fix>3d</fix>
</trkpt>
<trkpt lat="40.0713749" lon="-105.229789">
  <ele>1583.0</ele>
  <time>2026-09-02T20:50:26Z</time>
  <course>0.0</course>
  <speed>0.0</speed>
  <fix>3d</fix>
</trkpt>
<trkpt lat="40.0713749" lon="-105.229789">
  <ele>1583.0</ele>
  <time>2026-09-02T20:50:26Z</time>
  <course>0.0</course>
  <speed>0.0</speed>
  <fix>3d</fix>
</trkpt>
<trkpt lat="40.0713749" lon="-105.229789">
  <ele>1583.0</ele>
  <time>2026-09-02T20:50:26Z</time>
  <course>0.0</course>
  <speed>0.0</speed>
  <fix>3d</fix>
</trkpt>
<trkpt lat="40.0713749" lon="-105.229789">
  <ele>1583.0</ele>
  <time>2026-09-02T20:50:26Z</time>
  <course>0.0</course>
  <speed>0.0</speed>
  <fix>3d</fix>
</trkpt>
<trkpt lat="40.0713749" lon="-105.229789">
  <ele>1583.0</ele>
  <time>2026-09-02T20:50:26Z</time>
  <course>0.0</course>
  <speed>0.0</speed>
  <fix>3d</fix>
</trkpt>
<trkpt lat="40.0713749" lon="-105.229789">
  <ele>1583.0</ele>
  <time>2026-09-02T20:50:26Z</time>
  <course>0.0</course>
  <speed>0.0</speed>
  <fix>3d</fix>
</trkpt>
<trkpt lat="40.0713749" lon="-105.229789">
  <ele>1583.0</ele>
  <time>2026-09-02T20:50:26Z</time>
  <course>0.0</course>
  <speed>0.0</speed>
  <fix>3d</fix>
</trkpt>
<trkpt lat="40.0713749" lon="-105.229789">
  <ele>1583.0</ele>
  <time>2026-09-02T20:50:26Z</time>
  <course>0.0</course>
  <speed>0.0</speed>
  <fix>3d</fix>
</trkpt>
<trkpt lat="40.0713749" lon="-105.229789">
  <ele>1583.0</ele>
  <time>2026-09-02T20:50:27Z</time>
  <course>0.0</course>
  <speed>0.0</speed>
  <fix>3d</fix>
</trkpt>
<trkpt lat="40.0713749" lon="-105.229789">
  <ele>1583.0</ele>
  <time>2026-09-02T20:50:27Z</time>
  <course>0.0</course>
  <speed>0.0</speed>
  <fix>3d</fix>
</trkpt>
<trkpt lat="40.0713749" lon="-105.229789">
  <ele>1583.0</ele>
  <time>2026-09-02T20:50:27Z</time>
  <course>0.0</course>
  <speed>0.0</speed>
  <fix>3d</fix>
</trkpt>
<trkpt lat="40.0713749" lon="-105.229789">
  <ele>1583.0</ele>
  <time>2026-09-02T20:50:27Z</time>
  <course>0.0</course>
  <speed>0.0</speed>
  <fix>3d</fix>
</trkpt>
<trkpt lat="40.0713749" lon="-105.229789">
  <ele>1583.0</ele>
  <time>2026-09-02T20:50:27Z</time>
  <course>0.0</course>
  <speed>0.0</speed>
  <fix>3d</fix>
</trkpt>
<trkpt lat="40.0713749" lon="-105.229789">
  <ele>1583.0</ele>
  <time>2026-09-02T20:50:27Z</time>
  <course>0.0</course>
  <speed>0.0</speed>
  <fix>3d</fix>
</trkpt>
<trkpt lat="40.0713749" lon="-105.229789">
  <ele>1583.0</ele>
  <time>2026-09-02T20:50:27Z</time>
  <course>0.0</course>
  <speed>0.0</speed>
  <fix>3d</fix>
</trkpt>
<trkpt lat="40.0713749" lon="-105.229789">
  <ele>1583.0</ele>
  <time>2026-09-02T20:50:27Z</time>
  <course>0.0</course>
  <speed>0.0</speed>
  <fix>3d</fix>
</trkpt>
<trkpt lat="40.0713749" lon="-105.229789">
  <ele>1583.0</ele>
  <time>2026-09-02T20:50:27Z</time>
  <course>0.0</course>
  <speed>0.0</speed>
  <fix>3d</fix>
</trkpt>
<trkpt lat="40.0713749" lon="-105.229789">
  <ele>1583.0</ele>
  <time>2026-09-02T20:50:27Z</time>
  <course>0.0</course>
  <speed>0.0</speed>
  <fix>3d</fix>
</trkpt>
<trkpt lat="40.0713749" lon="-105.229789">
  <ele>1583.0</ele>
  <time>2026-09-02T20:50:27Z</time>
  <course>0.0</course>
  <speed>0.0</speed>
  <fix>3d</fix>
</trkpt>
<trkpt lat="40.0713749" lon="-105.229789">
  <ele>1583.0</ele>
  <time>2026-09-02T20:50:27Z</time>
  <course>0.0</course>
  <speed>0.0</speed>
  <fix>3d</fix>
</trkpt>
<trkpt lat="40.0713749" lon="-105.229789">
  <ele>1583.0</ele>
  <time>2026-09-02T20:50:27Z</time>
  <course>0.0</course>
  <speed>0.0</speed>
  <fix>3d</fix>
</trkpt>
<trkpt lat="40.0713749" lon="-105.229789">
  <ele>1583.0</ele>
  <time>2026-09-02T20:50:27Z</time>
  <course>0.0</course>
  <speed>0.0</speed>
  <fix>3d</fix>
</trkpt>
<trkpt lat="40.0713749" lon="-105.229789">
  <ele>1583.0</ele>
  <time>2026-09-02T20:50:27Z</time>
  <course>0.0</course>
  <speed>0.0</speed>
  <fix>3d</fix>
</trkpt>
<trkpt lat="40.0713749" lon="-105.229789">
  <ele>1583.0</ele>
  <time>2026-09-02T20:50:27Z</time>
  <course>0.0</course>
  <speed>0.0</speed>
  <fix>3d</fix>
</trkpt>
<trkpt lat="40.0713749" lon="-105.229789">
  <ele>1583.0</ele>
  <time>2026-09-02T20:50:27Z</time>
  <course>0.0</course>
  <speed>0.0</speed>
  <fix>3d</fix>
</trkpt>
<trkpt lat="40.0713749" lon="-105.229789">
  <ele>1583.0</ele>
  <time>2026-09-02T20:50:27Z</time>
  <course>0.0</course>
  <speed>0.0</speed>
  <fix>3d</fix>
</trkpt>
<trkpt lat="40.0713749" lon="-105.229789">
  <ele>1583.0</ele>
  <time>2026-09-02T20:50:27Z</time>
  <course>0.0</course>
  <speed>0.0</speed>
  <fix>3d</fix>
</trkpt>
<trkpt lat="40.0713749" lon="-105.229789">
  <ele>1583.0</ele>
  <time>2026-09-02T20:50:27Z</time>
  <course>0.0</course>
  <speed>0.0</speed>
  <fix>3d</fix>
</trkpt>
<trkpt lat="40.0713749" lon="-105.229789">
  <ele>1583.0</ele>
  <time>2026-09-02T20:50:27Z</time>
  <course>0.0</course>
  <speed>0.0</speed>
  <fix>3d</fix>
</trkpt>
<trkpt lat="40.0713749" lon="-105.229789">
  <ele>1583.0</ele>
  <time>2026-09-02T20:50:27Z</time>
  <course>0.0</course>
  <speed>0.0</speed>
  <fix>3d</fix>
</trkpt>
<trkpt lat="40.0713749" lon="-105.229789">
  <ele>1583.0</ele>
  <time>2026-09-02T20:50:27Z</time>
  <course>0.0</course>
  <speed>0.0</speed>
  <fix>3d</fix>
</trkpt>
<trkpt lat="40.0713749" lon="-105.229789">
  <ele>1583.0</ele>
  <time>2026-09-02T20:50:27Z</time>
  <course>0.0</course>
  <speed>0.0</speed>
  <fix>3d</fix>
</trkpt>
<trkpt lat="40.0713749" lon="-105.229789">
  <ele>1583.0</ele>
  <time>2026-09-02T20:50:27Z</time>
  <course>0.0</course>
  <speed>0.0</speed>
  <fix>3d</fix>
</trkpt>
<trkpt lat="40.0713749" lon="-105.229789">
  <ele>1583.0</ele>
  <time>2026-09-02T20:50:27Z</time>
  <course>0.0</course>
  <speed>0.0</speed>
  <fix>3d</fix>
</trkpt>
<trkpt lat="40.0713749" lon="-105.229789">
  <ele>1583.0</ele>
  <time>2026-09-02T20:50:27Z</time>
  <course>0.0</course>
  <speed>0.0</speed>
  <fix>3d</fix>
</trkpt>
<trkpt lat="40.0713749" lon="-105.229789">
  <ele>1583.0</ele>
  <time>2026-09-02T20:50:27Z</time>
  <course>0.0</course>
  <speed>0.0</speed>
  <fix>3d</fix>
</trkpt>
<trkpt lat="40.0713749" lon="-105.229789">
  <ele>1583.0</ele>
  <time>2026-09-02T20:50:27Z</time>
  <course>0.0</course>
  <speed>0.0</speed>
  <fix>3d</fix>
</trkpt>
<trkpt lat="40.0713749" lon="-105.229789">
  <ele>1583.0</ele>
  <time>2026-09-02T20:50:27Z</time>
  <course>0.0</course>
  <speed>0.0</speed>
  <fix>3d</fix>
</trkpt>
<trkpt lat="40.0713749" lon="-105.229789">
  <ele>1583.0</ele>
  <time>2026-09-02T20:50:27Z</time>
  <course>0.0</course>
  <speed>0.0</speed>
  <fix>3d</fix>
</trkpt>
<trkpt lat="40.0713749" lon="-105.229789">
  <ele>1583.0</ele>
  <time>2026-09-02T20:50:27Z</time>
  <course>0.0</course>
  <speed>0.0</speed>
  <fix>3d</fix>
</trkpt>
<trkpt lat="40.0713749" lon="-105.229789">
  <ele>1583.0</ele>
  <time>2026-09-02T20:50:27Z</time>
  <course>0.0</course>
  <speed>0.0</speed>
  <fix>3d</fix>
</trkpt>
<trkpt lat="40.0713749" lon="-105.229789">
  <ele>1583.0</ele>
  <time>2026-09-02T20:50:27Z</time>
  <course>0.0</course>
  <speed>0.0</speed>
  <fix>3d</fix>
</trkpt>
<trkpt lat="40.0713749" lon="-105.229789">
  <ele>1583.0</ele>
  <time>2026-09-02T20:50:27Z</time>
  <course>0.0</course>
  <speed>0.0</speed>
  <fix>3d</fix>
</trkpt>
<trkpt lat="39.655741" lon="-104.1383097">
  <ele>1566.58</ele>
  <time>2026-09-02T20:50:27Z</time>
  <course>0.0</course>
  <speed>0.0</speed>
  <fix>3d</fix>
</trkpt>
<trkpt lat="40.0713749" lon="-105.229789">
  <ele>1583.0</ele>
  <time>2026-09-02T20:50:27Z</time>
  <course>0.0</course>
  <speed>0.0</speed>
  <fix>3d</fix>
</trkpt>
<trkpt lat="40.0713749" lon="-105.229789">
  <ele>1583.0</ele>
  <time>2026-09-02T20:50:27Z</time>
  <course>0.0</course>
  <speed>0.0</speed>
  <fix>3d</fix>
</trkpt>
<trkpt lat="40.0713749" lon="-105.229789">
  <ele>1583.0</ele>
  <time>2026-09-02T20:50:27Z</time>
  <course>0.0</course>
  <speed>0.0</speed>
  <fix>3d</fix>
</trkpt>
<trkpt lat="40.0713749" lon="-105.229789">
  <ele>1583.0</ele>
  <time>2026-09-02T20:50:27Z</time>
  <course>0.0</course>
  <speed>0.0</speed>
  <fix>3d</fix>
</trkpt>
<trkpt lat="40.0713749" lon="-105.229789">
  <ele>1583.0</ele>
  <time>2026-09-02T20:50:27Z</time>
  <course>0.0</course>
  <speed>0.0</speed>
  <fix>3d</fix>
</trkpt>
<trkpt lat="40.0713749" lon="-105.229789">
  <ele>1583.0</ele>
  <time>2026-09-02T20:50:27Z</time>
  <course>0.0</course>
  <speed>0.0</speed>
  <fix>3d</fix>
</trkpt>
<trkpt lat="40.0713749" lon="-105.229789">
  <ele>1583.0</ele>
  <time>2026-09-02T20:50:27Z</time>
  <course>0.0</course>
  <speed>0.0</speed>
  <fix>3d</fix>
</trkpt>
<trkpt lat="40.0713749" lon="-105.229789">
  <ele>1583.0</ele>
  <time>2026-09-02T20:50:27Z</time>
  <course>0.0</course>
  <speed>0.0</speed>
  <fix>3d</fix>
</trkpt>
<trkpt lat="40.0713749" lon="-105.229789">
  <ele>1583.0</ele>
  <time>2026-09-02T20:50:27Z</time>
  <course>0.0</course>
  <speed>0.0</speed>
  <fix>3d</fix>
</trkpt>
<trkpt lat="40.0713749" lon="-105.229789">
  <ele>1583.0</ele>
  <time>2026-09-02T20:50:27Z</time>
  <course>0.0</course>
  <speed>0.0</speed>
  <fix>3d</fix>
</trkpt>
<trkpt lat="40.0713749" lon="-105.229789">
  <ele>1583.0</ele>
  <time>2026-09-02T20:50:27Z</time>
  <course>0.0</course>
  <speed>0.0</speed>
  <fix>3d</fix>
</trkpt>
<trkpt lat="40.0713749" lon="-105.229789">
  <ele>1583.0</ele>
  <time>2026-09-02T20:50:27Z</time>
  <course>0.0</course>
  <speed>0.0</speed>
  <fix>3d</fix>
</trkpt>
<trkpt lat="40.0713749" lon="-105.229789">
  <ele>1583.0</ele>
  <time>2026-09-02T20:50:27Z</time>
  <course>0.0</course>
  <speed>0.0</speed>
  <fix>3d</fix>
</trkpt>
<trkpt lat="40.0713749" lon="-105.229789">
  <ele>1583.0</ele>
  <time>2026-09-02T20:50:27Z</time>
  <course>0.0</course>
  <speed>0.0</speed>
  <fix>3d</fix>
</trkpt>
<trkpt lat="40.0713749" lon="-105.229789">
  <ele>1583.0</ele>
  <time>2026-09-02T20:50:27Z</time>
  <course>0.0</course>
  <speed>0.0</speed>
  <fix>3d</fix>
</trkpt>
<trkpt lat="40.0713749" lon="-105.229789">
  <ele>1583.0</ele>
  <time>2026-09-02T20:50:27Z</time>
  <course>0.0</course>
  <speed>0.0</speed>
  <fix>3d</fix>
</trkpt>
<trkpt lat="40.0713749" lon="-105.229789">
  <ele>1583.0</ele>
  <time>2026-09-02T20:50:27Z</time>
  <course>0.0</course>
  <speed>0.0</speed>
  <fix>3d</fix>
</trkpt>
<trkpt lat="40.0713749" lon="-105.229789">
  <ele>1583.0</ele>
  <time>2026-09-02T20:50:27Z</time>
  <course>0.0</course>
  <speed>0.0</speed>
  <fix>3d</fix>
</trkpt>
<trkpt lat="40.0713749" lon="-105.229789">
  <ele>1583.0</ele>
  <time>2026-09-02T20:50:27Z</time>
  <course>0.0</course>
  <speed>0.0</speed>
  <fix>3d</fix>
</trkpt>
<trkpt lat="40.0713749" lon="-105.229789">
  <ele>1583.0</ele>
  <time>2026-09-02T20:50:27Z</time>
  <course>0.0</course>
  <speed>0.0</speed>
  <fix>3d</fix>
</trkpt>
<trkpt lat="40.0713749" lon="-105.229789">
  <ele>1583.0</ele>
  <time>2026-09-02T20:50:27Z</time>
  <course>0.0</course>
  <speed>0.0</speed>
  <fix>3d</fix>
</trkpt>
<trkpt lat="40.0713749" lon="-105.229789">
  <ele>1583.0</ele>
  <time>2026-09-02T20:50:27Z</time>
  <course>0.0</course>
  <speed>0.0</speed>
  <fix>3d</fix>
</trkpt>
<trkpt lat="40.0713749" lon="-105.229789">
  <ele>1583.0</ele>
  <time>2026-09-02T20:50:27Z</time>
  <course>0.0</course>
  <speed>0.0</speed>
  <fix>3d</fix>
</trkpt>
<trkpt lat="40.0713749" lon="-105.229789">
  <ele>1583.0</ele>
  <time>2026-09-02T20:50:27Z</time>
  <course>0.0</course>
  <speed>0.0</speed>
  <fix>3d</fix>
</trkpt>
<trkpt lat="40.0713749" lon="-105.229789">
  <ele>1583.0</ele>
  <time>2026-09-02T20:50:27Z</time>
  <course>0.0</course>
  <speed>0.0</speed>
  <fix>3d</fix>
</trkpt>
<trkpt lat="40.0713749" lon="-105.229789">
  <ele>1583.0</ele>
  <time>2026-09-02T20:50:27Z</time>
  <course>0.0</course>
  <speed>0.0</speed>
  <fix>3d</fix>
</trkpt>
<trkpt lat="40.0713749" lon="-105.229789">
  <ele>1583.0</ele>
  <time>2026-09-02T20:50:27Z</time>
  <course>0.0</course>
  <speed>0.0</speed>
  <fix>3d</fix>
</trkpt>
<trkpt lat="40.0713749" lon="-105.229789">
  <ele>1583.0</ele>
  <time>2026-09-02T20:50:27Z</time>
  <course>0.0</course>
  <speed>0.0</speed>
  <fix>3d</fix>
</trkpt>
<trkpt lat="40.0713749" lon="-105.229789">
  <ele>1583.0</ele>
  <time>2026-09-02T20:50:27Z</time>
  <course>0.0</course>
  <speed>0.0</speed>
  <fix>3d</fix>
</trkpt>
<trkpt lat="40.0713749" lon="-105.229789">
  <ele>1583.0</ele>
  <time>2026-09-02T20:50:27Z</time>
  <course>0.0</course>
  <speed>0.0</speed>
  <fix>3d</fix>
</trkpt>
<trkpt lat="40.0713749" lon="-105.229789">
  <ele>1583.0</ele>
  <time>2026-09-02T20:50:27Z</time>
  <course>0.0</course>
  <speed>0.0</speed>
  <fix>3d</fix>
</trkpt>
<trkpt lat="40.0713749" lon="-105.229789">
  <ele>1583.0</ele>
  <time>2026-09-02T20:50:27Z</time>
  <course>0.0</course>
  <speed>0.0</speed>
  <fix>3d</fix>
</trkpt>
<trkpt lat="40.0713749" lon="-105.229789">
  <ele>1583.0</ele>
  <time>2026-09-02T20:50:28Z</time>
  <course>0.0</course>
  <speed>0.0</speed>
  <fix>3d</fix>
</trkpt>
<trkpt lat="40.0713749" lon="-105.229789">
  <ele>1583.0</ele>
  <time>2026-09-02T20:50:28Z</time>
  <course>0.0</course>
  <speed>0.0</speed>
  <fix>3d</fix>
</trkpt>
<trkpt lat="40.0713749" lon="-105.229789">
  <ele>1583.0</ele>
  <time>2026-09-02T20:50:28Z</time>
  <course>0.0</course>
  <speed>0.0</speed>
  <fix>3d</fix>
</trkpt>
<trkpt lat="40.0713749" lon="-105.229789">
  <ele>1583.0</ele>
  <time>2026-09-02T20:50:28Z</time>
  <course>0.0</course>
  <speed>0.0</speed>
  <fix>3d</fix>
</trkpt>
<trkpt lat="40.0713749" lon="-105.229789">
  <ele>1583.0</ele>
  <time>2026-09-02T20:50:28Z</time>
  <course>0.0</course>
  <speed>0.0</speed>
  <fix>3d</fix>
</trkpt>
<trkpt lat="40.0713749" lon="-105.229789">
  <ele>1583.0</ele>
  <time>2026-09-02T20:50:28Z</time>
  <course>0.0</course>
  <speed>0.0</speed>
  <fix>3d</fix>
</trkpt>
<trkpt lat="40.0713749" lon="-105.229789">
  <ele>1583.0</ele>
  <time>2026-09-02T20:50:28Z</time>
  <course>0.0</course>
  <speed>0.0</speed>
  <fix>3d</fix>
</trkpt>
<trkpt lat="40.0713749" lon="-105.229789">
  <ele>1583.0</ele>
  <time>2026-09-02T20:50:28Z</time>
  <course>0.0</course>
  <speed>0.0</speed>
  <fix>3d</fix>
</trkpt>
<trkpt lat="40.0713749" lon="-105.229789">
  <ele>1583.0</ele>
  <time>2026-09-02T20:50:28Z</time>
  <course>0.0</course>
  <speed>0.0</speed>
  <fix>3d</fix>
</trkpt>
<trkpt lat="40.0713749" lon="-105.229789">
  <ele>1583.0</ele>
  <time>2026-09-02T20:50:28Z</time>
  <course>0.0</course>
  <speed>0.0</speed>
  <fix>3d</fix>
</trkpt>
<trkpt lat="40.0713749" lon="-105.229789">
  <ele>1583.0</ele>
  <time>2026-09-02T20:50:28Z</time>
  <course>0.0</course>
  <speed>0.0</speed>
  <fix>3d</fix>
</trkpt>
<trkpt lat="40.0713749" lon="-105.229789">
  <ele>1583.0</ele>
  <time>2026-09-02T20:50:28Z</time>
  <course>0.0</course>
  <speed>0.0</speed>
  <fix>3d</fix>
</trkpt>
<trkpt lat="40.0713749" lon="-105.229789">
  <ele>1583.0</ele>
  <time>2026-09-02T20:50:28Z</time>
  <course>0.0</course>
  <speed>0.0</speed>
  <fix>3d</fix>
</trkpt>
<trkpt lat="40.0713749" lon="-105.229789">
  <ele>1583.0</ele>
  <time>2026-09-02T20:50:28Z</time>
  <course>0.0</course>
  <speed>0.0</speed>
  <fix>3d</fix>
</trkpt>
<trkpt lat="40.0713749" lon="-105.229789">
  <ele>1583.0</ele>
  <time>2026-09-02T20:50:28Z</time>
  <course>0.0</course>
  <speed>0.0</speed>
  <fix>3d</fix>
</trkpt>
<trkpt lat="40.0713749" lon="-105.229789">
  <ele>1583.0</ele>
  <time>2026-09-02T20:50:28Z</time>
  <course>0.0</course>
  <speed>0.0</speed>
  <fix>3d</fix>
</trkpt>
<trkpt lat="40.0713749" lon="-105.229789">
  <ele>1583.0</ele>
  <time>2026-09-02T20:50:28Z</time>
  <course>0.0</course>
  <speed>0.0</speed>
  <fix>3d</fix>
</trkpt>
<trkpt lat="40.0713749" lon="-105.229789">
  <ele>1583.0</ele>
  <time>2026-09-02T20:50:28Z</time>
  <course>0.0</course>
  <speed>0.0</speed>
  <fix>3d</fix>
</trkpt>
<trkpt lat="40.0713749" lon="-105.229789">
  <ele>1583.0</ele>
  <time>2026-09-02T20:50:28Z</time>
  <course>0.0</course>
  <speed>0.0</speed>
  <fix>3d</fix>
</trkpt>
<trkpt lat="40.0713749" lon="-105.229789">
  <ele>1583.0</ele>
  <time>2026-09-02T20:50:28Z</time>
  <course>0.0</course>
  <speed>0.0</speed>
  <fix>3d</fix>
</trkpt>
<trkpt lat="40.0713749" lon="-105.229789">
  <ele>1583.0</ele>
  <time>2026-09-02T20:50:28Z</time>
  <course>0.0</course>
  <speed>0.0</speed>
  <fix>3d</fix>
</trkpt>
<trkpt lat="40.0713749" lon="-105.229789">
  <ele>1583.0</ele>
  <time>2026-09-02T20:50:28Z</time>
  <course>0.0</course>
  <speed>0.0</speed>
  <fix>3d</fix>
</trkpt>
<trkpt lat="40.0713749" lon="-105.229789">
  <ele>1583.0</ele>
  <time>2026-09-02T20:50:28Z</time>
  <course>0.0</course>
  <speed>0.0</speed>
  <fix>3d</fix>
</trkpt>
<trkpt lat="40.0713749" lon="-105.229789">
  <ele>1583.0</ele>
  <time>2026-09-02T20:50:28Z</time>
  <course>0.0</course>
  <speed>0.0</speed>
  <fix>3d</fix>
</trkpt>
<trkpt lat="40.0713749" lon="-105.229789">
  <ele>1583.0</ele>
  <time>2026-09-02T20:50:28Z</time>
  <course>0.0</course>
  <speed>0.0</speed>
  <fix>3d</fix>
</trkpt>
<trkpt lat="40.0713749" lon="-105.229789">
  <ele>1583.0</ele>
  <time>2026-09-02T20:50:28Z</time>
  <course>0.0</course>
  <speed>0.0</speed>
  <fix>3d</fix>
</trkpt>
<trkpt lat="40.0713749" lon="-105.229789">
  <ele>1583.0</ele>
  <time>2026-09-02T20:50:28Z</time>
  <course>0.0</course>
  <speed>0.0</speed>
  <fix>3d</fix>
</trkpt>
<trkpt lat="40.0713749" lon="-105.229789">
  <ele>1583.0</ele>
  <time>2026-09-02T20:50:28Z</time>
  <course>0.0</course>
  <speed>0.0</speed>
  <fix>3d</fix>
</trkpt>
<trkpt lat="40.0713749" lon="-105.229789">
  <ele>1583.0</ele>
  <time>2026-09-02T20:50:28Z</time>
  <course>0.0</course>
  <speed>0.0</speed>
  <fix>3d</fix>
</trkpt>
<trkpt lat="40.0713749" lon="-105.229789">
  <ele>1583.0</ele>
  <time>2026-09-02T20:50:28Z</time>
  <course>0.0</course>
  <speed>0.0</speed>
  <fix>3d</fix>
</trkpt>
<trkpt lat="40.0713749" lon="-105.229789">
  <ele>1583.0</ele>
  <time>2026-09-02T20:50:28Z</time>
  <course>0.0</course>
  <speed>0.0</speed>
  <fix>3d</fix>
</trkpt>
<trkpt lat="40.0713749" lon="-105.229789">
  <ele>1583.0</ele>
  <time>2026-09-02T20:50:28Z</time>
  <course>0.0</course>
  <speed>0.0</speed>
  <fix>3d</fix>
</trkpt>
<trkpt lat="40.0713749" lon="-105.229789">
  <ele>1583.0</ele>
  <time>2026-09-02T20:50:28Z</time>
  <course>0.0</course>
  <speed>0.0</speed>
  <fix>3d</fix>
</trkpt>
<trkpt lat="40.0713749" lon="-105.229789">
  <ele>1583.0</ele>
  <time>2026-09-02T20:50:28Z</time>
  <course>0.0</course>
  <speed>0.0</speed>
  <fix>3d</fix>
</trkpt>
<trkpt lat="40.0713749" lon="-105.229789">
  <ele>1583.0</ele>
  <time>2026-09-02T20:50:28Z</time>
  <course>0.0</course>
  <speed>0.0</speed>
  <fix>3d</fix>
</trkpt>
<trkpt lat="40.0713749" lon="-105.229789">
  <ele>1583.0</ele>
  <time>2026-09-02T20:50:28Z</time>
  <course>0.0</course>
  <speed>0.0</speed>
  <fix>3d</fix>
</trkpt>
<trkpt lat="40.0713749" lon="-105.229789">
  <ele>1583.0</ele>
  <time>2026-09-02T20:50:28Z</time>
  <course>0.0</course>
  <speed>0.0</speed>
  <fix>3d</fix>
</trkpt>
<trkpt lat="40.0713749" lon="-105.229789">
  <ele>1583.0</ele>
  <time>2026-09-02T20:50:28Z</time>
  <course>0.0</course>
  <speed>0.0</speed>
  <fix>3d</fix>
</trkpt>
<trkpt lat="40.0713749" lon="-105.229789">
  <ele>1583.0</ele>
  <time>2026-09-02T20:50:28Z</time>
  <course>0.0</course>
  <speed>0.0</speed>
  <fix>3d</fix>
</trkpt>
<trkpt lat="40.0713749" lon="-105.229789">
  <ele>1583.0</ele>
  <time>2026-09-02T20:50:28Z</time>
  <course>0.0</course>
  <speed>0.0</speed>
  <fix>3d</fix>
</trkpt>
<trkpt lat="40.0713749" lon="-105.229789">
  <ele>1583.0</ele>
  <time>2026-09-02T20:50:28Z</time>
  <course>0.0</course>
  <speed>0.0</speed>
  <fix>3d</fix>
</trkpt>
<trkpt lat="40.0713749" lon="-105.229789">
  <ele>1583.0</ele>
  <time>2026-09-02T20:50:28Z</time>
  <course>0.0</course>
  <speed>0.0</speed>
  <fix>3d</fix>
</trkpt>
<trkpt lat="40.0713749" lon="-105.229789">
  <ele>1583.0</ele>
  <time>2026-09-02T20:50:28Z</time>
  <course>0.0</course>
  <speed>0.0</speed>
  <fix>3d</fix>
</trkpt>
<trkpt lat="40.0713749" lon="-105.229789">
  <ele>1583.0</ele>
  <time>2026-09-02T20:50:28Z</time>
  <course>0.0</course>
  <speed>0.0</speed>
  <fix>3d</fix>
</trkpt>
<trkpt lat="40.0713749" lon="-105.229789">
  <ele>1583.0</ele>
  <time>2026-09-02T20:50:28Z</time>
  <course>0.0</course>
  <speed>0.0</speed>
  <fix>3d</fix>
</trkpt>
<trkpt lat="40.0713749" lon="-105.229789">
  <ele>1583.0</ele>
  <time>2026-09-02T20:50:28Z</time>
  <course>0.0</course>
  <speed>0.0</speed>
  <fix>3d</fix>
</trkpt>
<trkpt lat="40.0713749" lon="-105.229789">
  <ele>1583.0</ele>
  <time>2026-09-02T20:50:28Z</time>
  <course>0.0</course>
  <speed>0.0</speed>
  <fix>3d</fix>
</trkpt>
<trkpt lat="40.0713749" lon="-105.229789">
  <ele>1583.0</ele>
  <time>2026-09-02T20:50:28Z</time>
  <course>0.0</course>
  <speed>0.0</speed>
  <fix>3d</fix>
</trkpt>
<trkpt lat="40.0713749" lon="-105.229789">
  <ele>1583.0</ele>
  <time>2026-09-02T20:50:28Z</time>
  <course>0.0</course>
  <speed>0.0</speed>
  <fix>3d</fix>
</trkpt>
<trkpt lat="40.0713749" lon="-105.229789">
  <ele>1583.0</ele>
  <time>2026-09-02T20:50:28Z</time>
  <course>0.0</course>
  <speed>0.0</speed>
  <fix>3d</fix>
</trkpt>
<trkpt lat="39.655741" lon="-104.1383097">
  <ele>1566.58</ele>
  <time>2026-09-02T20:50:28Z</time>
  <course>0.0</course>
  <speed>0.0</speed>
  <fix>3d</fix>
</trkpt>
<trkpt lat="40.0713749" lon="-105.229789">
  <ele>1583.0</ele>
  <time>2026-09-02T20:50:28Z</time>
  <course>0.0</course>
  <speed>0.0</speed>
  <fix>3d</fix>
</trkpt>
<trkpt lat="40.0713749" lon="-105.229789">
  <ele>1583.0</ele>
  <time>2026-09-02T20:50:28Z</time>
  <course>0.0</course>
  <speed>0.0</speed>
  <fix>3d</fix>
</trkpt>
<trkpt lat="40.0713749" lon="-105.229789">
  <ele>1583.0</ele>
  <time>2026-09-02T20:50:28Z</time>
  <course>0.0</course>
  <speed>0.0</speed>
  <fix>3d</fix>
</trkpt>
<trkpt lat="40.0713749" lon="-105.229789">
  <ele>1583.0</ele>
  <time>2026-09-02T20:50:28Z</time>
  <course>0.0</course>
  <speed>0.0</speed>
  <fix>3d</fix>
</trkpt>
<trkpt lat="40.0713749" lon="-105.229789">
  <ele>1583.0</ele>
  <time>2026-09-02T20:50:28Z</time>
  <course>0.0</course>
  <speed>0.0</speed>
  <fix>3d</fix>
</trkpt>
<trkpt lat="40.0713749" lon="-105.229789">
  <ele>1583.0</ele>
  <time>2026-09-02T20:50:28Z</time>
  <course>0.0</course>
  <speed>0.0</speed>
  <fix>3d</fix>
</trkpt>
<trkpt lat="40.0713749" lon="-105.229789">
  <ele>1583.0</ele>
  <time>2026-09-02T20:50:28Z</time>
  <course>0.0</course>
  <speed>0.0</speed>
  <fix>3d</fix>
</trkpt>
<trkpt lat="40.0713749" lon="-105.229789">
  <ele>1583.0</ele>
  <time>2026-09-02T20:50:28Z</time>
  <course>0.0</course>
  <speed>0.0</speed>
  <fix>3d</fix>
</trkpt>
<trkpt lat="40.0713749" lon="-105.229789">
  <ele>1583.0</ele>
  <time>2026-09-02T20:50:28Z</time>
  <course>0.0</course>
  <speed>0.0</speed>
  <fix>3d</fix>
</trkpt>
<trkpt lat="40.0713749" lon="-105.229789">
  <ele>1583.0</ele>
  <time>2026-09-02T20:50:28Z</time>
  <course>0.0</course>
  <speed>0.0</speed>
  <fix>3d</fix>
</trkpt>
<trkpt lat="40.0713749" lon="-105.229789">
  <ele>1583.0</ele>
  <time>2026-09-02T20:50:28Z</time>
  <course>0.0</course>
  <speed>0.0</speed>
  <fix>3d</fix>
</trkpt>
<trkpt lat="40.0713749" lon="-105.229789">
  <ele>1583.0</ele>
  <time>2026-09-02T20:50:28Z</time>
  <course>0.0</course>
  <speed>0.0</speed>
  <fix>3d</fix>
</trkpt>
<trkpt lat="40.0713749" lon="-105.229789">
  <ele>1583.0</ele>
  <time>2026-09-02T20:50:28Z</time>
  <course>0.0</course>
  <speed>0.0</speed>
  <fix>3d</fix>
</trkpt>
<trkpt lat="40.0713749" lon="-105.229789">
  <ele>1583.0</ele>
  <time>2026-09-02T20:50:28Z</time>
  <course>0.0</course>
  <speed>0.0</speed>
  <fix>3d</fix>
</trkpt>
<trkpt lat="40.0713749" lon="-105.229789">
  <ele>1583.0</ele>
  <time>2026-09-02T20:50:28Z</time>
  <course>0.0</course>
  <speed>0.0</speed>
  <fix>3d</fix>
</trkpt>
<trkpt lat="40.0713749" lon="-105.229789">
  <ele>1583.0</ele>
  <time>2026-09-02T20:50:28Z</time>
  <course>0.0</course>
  <speed>0.0</speed>
  <fix>3d</fix>
</trkpt>
<trkpt lat="40.0713749" lon="-105.229789">
  <ele>1583.0</ele>
  <time>2026-09-02T20:50:28Z</time>
  <course>0.0</course>
  <speed>0.0</speed>
  <fix>3d</fix>
</trkpt>
<trkpt lat="40.0713749" lon="-105.229789">
  <ele>1583.0</ele>
  <time>2026-09-02T20:50:28Z</time>
  <course>0.0</course>
  <speed>0.0</speed>
  <fix>3d</fix>
</trkpt>
<trkpt lat="40.0713749" lon="-105.229789">
  <ele>1583.0</ele>
  <time>2026-09-02T20:50:28Z</time>
  <course>0.0</course>
  <speed>0.0</speed>
  <fix>3d</fix>
</trkpt>
<trkpt lat="40.0713749" lon="-105.229789">
  <ele>1583.0</ele>
  <time>2026-09-02T20:50:28Z</time>
  <course>0.0</course>
  <speed>0.0</speed>
  <fix>3d</fix>
</trkpt>
<trkpt lat="40.0713749" lon="-105.229789">
  <ele>1583.0</ele>
  <time>2026-09-02T20:50:28Z</time>
  <course>0.0</course>
  <speed>0.0</speed>
  <fix>3d</fix>
</trkpt>
<trkpt lat="40.0713749" lon="-105.229789">
  <ele>1583.0</ele>
  <time>2026-09-02T20:50:28Z</time>
  <course>0.0</course>
  <speed>0.0</speed>
  <fix>3d</fix>
</trkpt>
<trkpt lat="40.0713749" lon="-105.229789">
  <ele>1583.0</ele>
  <time>2026-09-02T20:50:28Z</time>
  <course>0.0</course>
  <speed>0.0</speed>
  <fix>3d</fix>
</trkpt>
<trkpt lat="40.0713749" lon="-105.229789">
  <ele>1583.0</ele>
  <time>2026-09-02T20:50:28Z</time>
  <course>0.0</course>
  <speed>0.0</speed>
  <fix>3d</fix>
</trkpt>
<trkpt lat="40.0713749" lon="-105.229789">
  <ele>1583.0</ele>
  <time>2026-09-02T20:50:28Z</time>
  <course>0.0</course>
  <speed>0.0</speed>
  <fix>3d</fix>
</trkpt>
<trkpt lat="40.0713749" lon="-105.229789">
  <ele>1583.0</ele>
  <time>2026-09-02T20:50:28Z</time>
  <course>0.0</course>
  <speed>0.0</speed>
  <fix>3d</fix>
</trkpt>
<trkpt lat="40.0713749" lon="-105.229789">
  <ele>1583.0</ele>
  <time>2026-09-02T20:50:28Z</time>
  <course>0.0</course>
  <speed>0.0</speed>
  <fix>3d</fix>
</trkpt>
<trkpt lat="40.0713749" lon="-105.229789">
  <ele>1583.0</ele>
  <time>2026-09-02T20:50:28Z</time>
  <course>0.0</course>
  <speed>0.0</speed>
  <fix>3d</fix>
</trkpt>
<trkpt lat="40.0713749" lon="-105.229789">
  <ele>1583.0</ele>
  <time>2026-09-02T20:50:28Z</time>
  <course>0.0</course>
  <speed>0.0</speed>
  <fix>3d</fix>
</trkpt>
<trkpt lat="40.0713749" lon="-105.229789">
  <ele>1583.0</ele>
  <time>2026-09-02T20:50:28Z</time>
  <course>0.0</course>
  <speed>0.0</speed>
  <fix>3d</fix>
</trkpt>
<trkpt lat="40.0713749" lon="-105.229789">
  <ele>1583.0</ele>
  <time>2026-09-02T20:50:29Z</time>
  <course>0.0</course>
  <speed>0.0</speed>
  <fix>3d</fix>
</trkpt>
<trkpt lat="40.0713749" lon="-105.229789">
  <ele>1583.0</ele>
  <time>2026-09-02T20:50:29Z</time>
  <course>0.0</course>
  <speed>0.0</speed>
  <fix>3d</fix>
</trkpt>
<trkpt lat="40.0713749" lon="-105.229789">
  <ele>1583.0</ele>
  <time>2026-09-02T20:50:29Z</time>
  <course>0.0</course>
  <speed>0.0</speed>
  <fix>3d</fix>
</trkpt>
<trkpt lat="40.0713749" lon="-105.229789">
  <ele>1583.0</ele>
  <time>2026-09-02T20:50:29Z</time>
  <course>0.0</course>
  <speed>0.0</speed>
  <fix>3d</fix>
</trkpt>
<trkpt lat="40.0713749" lon="-105.229789">
  <ele>1583.0</ele>
  <time>2026-09-02T20:50:29Z</time>
  <course>0.0</course>
  <speed>0.0</speed>
  <fix>3d</fix>
</trkpt>
<trkpt lat="40.0713749" lon="-105.229789">
  <ele>1583.0</ele>
  <time>2026-09-02T20:50:29Z</time>
  <course>0.0</course>
  <speed>0.0</speed>
  <fix>3d</fix>
</trkpt>
<trkpt lat="40.0713749" lon="-105.229789">
  <ele>1583.0</ele>
  <time>2026-09-02T20:50:29Z</time>
  <course>0.0</course>
  <speed>0.0</speed>
  <fix>3d</fix>
</trkpt>
<trkpt lat="40.0713749" lon="-105.229789">
  <ele>1583.0</ele>
  <time>2026-09-02T20:50:29Z</time>
  <course>0.0</course>
  <speed>0.0</speed>
  <fix>3d</fix>
</trkpt>
<trkpt lat="40.0713749" lon="-105.229789">
  <ele>1583.0</ele>
  <time>2026-09-02T20:50:29Z</time>
  <course>0.0</course>
  <speed>0.0</speed>
  <fix>3d</fix>
</trkpt>
<trkpt lat="40.0713749" lon="-105.229789">
  <ele>1583.0</ele>
  <time>2026-09-02T20:50:29Z</time>
  <course>0.0</course>
  <speed>0.0</speed>
  <fix>3d</fix>
</trkpt>
<trkpt lat="40.0713749" lon="-105.229789">
  <ele>1583.0</ele>
  <time>2026-09-02T20:50:29Z</time>
  <course>0.0</course>
  <speed>0.0</speed>
  <fix>3d</fix>
</trkpt>
<trkpt lat="40.0713749" lon="-105.229789">
  <ele>1583.0</ele>
  <time>2026-09-02T20:50:29Z</time>
  <course>0.0</course>
  <speed>0.0</speed>
  <fix>3d</fix>
</trkpt>
<trkpt lat="40.0713749" lon="-105.229789">
  <ele>1583.0</ele>
  <time>2026-09-02T20:50:29Z</time>
  <course>0.0</course>
  <speed>0.0</speed>
  <fix>3d</fix>
</trkpt>
<trkpt lat="40.0713749" lon="-105.229789">
  <ele>1583.0</ele>
  <time>2026-09-02T20:50:29Z</time>
  <course>0.0</course>
  <speed>0.0</speed>
  <fix>3d</fix>
</trkpt>
<trkpt lat="40.0713749" lon="-105.229789">
  <ele>1583.0</ele>
  <time>2026-09-02T20:50:29Z</time>
  <course>0.0</course>
  <speed>0.0</speed>
  <fix>3d</fix>
</trkpt>
<trkpt lat="40.0713749" lon="-105.229789">
  <ele>1583.0</ele>
  <time>2026-09-02T20:50:29Z</time>
  <course>0.0</course>
  <speed>0.0</speed>
  <fix>3d</fix>
</trkpt>
<trkpt lat="40.0713749" lon="-105.229789">
  <ele>1583.0</ele>
  <time>2026-09-02T20:50:29Z</time>
  <course>0.0</course>
  <speed>0.0</speed>
  <fix>3d</fix>
</trkpt>
<trkpt lat="40.0713749" lon="-105.229789">
  <ele>1583.0</ele>
  <time>2026-09-02T20:50:29Z</time>
  <course>0.0</course>
  <speed>0.0</speed>
  <fix>3d</fix>
</trkpt>
<trkpt lat="40.0713749" lon="-105.229789">
  <ele>1583.0</ele>
  <time>2026-09-02T20:50:29Z</time>
  <course>0.0</course>
  <speed>0.0</speed>
  <fix>3d</fix>
</trkpt>
<trkpt lat="40.0713749" lon="-105.229789">
  <ele>1583.0</ele>
  <time>2026-09-02T20:50:29Z</time>
  <course>0.0</course>
  <speed>0.0</speed>
  <fix>3d</fix>
</trkpt>
<trkpt lat="40.0713749" lon="-105.229789">
  <ele>1583.0</ele>
  <time>2026-09-02T20:50:29Z</time>
  <course>0.0</course>
  <speed>0.0</speed>
  <fix>3d</fix>
</trkpt>
<trkpt lat="40.0713749" lon="-105.229789">
  <ele>1583.0</ele>
  <time>2026-09-02T20:50:29Z</time>
  <course>0.0</course>
  <speed>0.0</speed>
  <fix>3d</fix>
</trkpt>
<trkpt lat="40.0713749" lon="-105.229789">
  <ele>1583.0</ele>
  <time>2026-09-02T20:50:29Z</time>
  <course>0.0</course>
  <speed>0.0</speed>
  <fix>3d</fix>
</trkpt>
<trkpt lat="40.0713749" lon="-105.229789">
  <ele>1583.0</ele>
  <time>2026-09-02T20:50:29Z</time>
  <course>0.0</course>
  <speed>0.0</speed>
  <fix>3d</fix>
</trkpt>
<trkpt lat="40.0713749" lon="-105.229789">
  <ele>1583.0</ele>
  <time>2026-09-02T20:50:29Z</time>
  <course>0.0</course>
  <speed>0.0</speed>
  <fix>3d</fix>
</trkpt>
<trkpt lat="40.0713749" lon="-105.229789">
  <ele>1583.0</ele>
  <time>2026-09-02T20:50:29Z</time>
  <course>0.0</course>
  <speed>0.0</speed>
  <fix>3d</fix>
</trkpt>
<trkpt lat="40.0713749" lon="-105.229789">
  <ele>1583.0</ele>
  <time>2026-09-02T20:50:29Z</time>
  <course>0.0</course>
  <speed>0.0</speed>
  <fix>3d</fix>
</trkpt>
<trkpt lat="40.0713749" lon="-105.229789">
  <ele>1583.0</ele>
  <time>2026-09-02T20:50:29Z</time>
  <course>0.0</course>
  <speed>0.0</speed>
  <fix>3d</fix>
</trkpt>
<trkpt lat="40.0713749" lon="-105.229789">
  <ele>1583.0</ele>
  <time>2026-09-02T20:50:29Z</time>
  <course>0.0</course>
  <speed>0.0</speed>
  <fix>3d</fix>
</trkpt>
<trkpt lat="40.0713749" lon="-105.229789">
  <ele>1583.0</ele>
  <time>2026-09-02T20:50:29Z</time>
  <course>0.0</course>
  <speed>0.0</speed>
  <fix>3d</fix>
</trkpt>
<trkpt lat="40.0713749" lon="-105.229789">
  <ele>1583.0</ele>
  <time>2026-09-02T20:50:29Z</time>
  <course>0.0</course>
  <speed>0.0</speed>
  <fix>3d</fix>
</trkpt>
<trkpt lat="40.0713749" lon="-105.229789">
  <ele>1583.0</ele>
  <time>2026-09-02T20:50:29Z</time>
  <course>0.0</course>
  <speed>0.0</speed>
  <fix>3d</fix>
</trkpt>
<trkpt lat="40.0713749" lon="-105.229789">
  <ele>1583.0</ele>
  <time>2026-09-02T20:50:29Z</time>
  <course>0.0</course>
  <speed>0.0</speed>
  <fix>3d</fix>
</trkpt>
<trkpt lat="40.0713749" lon="-105.229789">
  <ele>1583.0</ele>
  <time>2026-09-02T20:50:29Z</time>
  <course>0.0</course>
  <speed>0.0</speed>
  <fix>3d</fix>
</trkpt>
<trkpt lat="40.0713749" lon="-105.229789">
  <ele>1583.0</ele>
  <time>2026-09-02T20:50:29Z</time>
  <course>0.0</course>
  <speed>0.0</speed>
  <fix>3d</fix>
</trkpt>
<trkpt lat="40.0713749" lon="-105.229789">
  <ele>1583.0</ele>
  <time>2026-09-02T20:50:29Z</time>
  <course>0.0</course>
  <speed>0.0</speed>
  <fix>3d</fix>
</trkpt>
<trkpt lat="40.0713749" lon="-105.229789">
  <ele>1583.0</ele>
  <time>2026-09-02T20:50:29Z</time>
  <course>0.0</course>
  <speed>0.0</speed>
  <fix>3d</fix>
</trkpt>
<trkpt lat="40.0713749" lon="-105.229789">
  <ele>1583.0</ele>
  <time>2026-09-02T20:50:29Z</time>
  <course>0.0</course>
  <speed>0.0</speed>
  <fix>3d</fix>
</trkpt>
<trkpt lat="40.0713749" lon="-105.229789">
  <ele>1583.0</ele>
  <time>2026-09-02T20:50:29Z</time>
  <course>0.0</course>
  <speed>0.0</speed>
  <fix>3d</fix>
</trkpt>
<trkpt lat="40.0713749" lon="-105.229789">
  <ele>1583.0</ele>
  <time>2026-09-02T20:50:29Z</time>
  <course>0.0</course>
  <speed>0.0</speed>
  <fix>3d</fix>
</trkpt>
<trkpt lat="40.0713749" lon="-105.229789">
  <ele>1583.0</ele>
  <time>2026-09-02T20:50:29Z</time>
  <course>0.0</course>
  <speed>0.0</speed>
  <fix>3d</fix>
</trkpt>
<trkpt lat="40.0713749" lon="-105.229789">
  <ele>1583.0</ele>
  <time>2026-09-02T20:50:29Z</time>
  <course>0.0</course>
  <speed>0.0</speed>
  <fix>3d</fix>
</trkpt>
<trkpt lat="40.0713749" lon="-105.229789">
  <ele>1583.0</ele>
  <time>2026-09-02T20:50:29Z</time>
  <course>0.0</course>
  <speed>0.0</speed>
  <fix>3d</fix>
</trkpt>
<trkpt lat="40.0713749" lon="-105.229789">
  <ele>1583.0</ele>
  <time>2026-09-02T20:50:29Z</time>
  <course>0.0</course>
  <speed>0.0</speed>
  <fix>3d</fix>
</trkpt>
<trkpt lat="40.0713749" lon="-105.229789">
  <ele>1583.0</ele>
  <time>2026-09-02T20:50:29Z</time>
  <course>0.0</course>
  <speed>0.0</speed>
  <fix>3d</fix>
</trkpt>
<trkpt lat="40.0713749" lon="-105.229789">
  <ele>1583.0</ele>
  <time>2026-09-02T20:50:29Z</time>
  <course>0.0</course>
  <speed>0.0</speed>
  <fix>3d</fix>
</trkpt>
<trkpt lat="40.0713749" lon="-105.229789">
  <ele>1583.0</ele>
  <time>2026-09-02T20:50:29Z</time>
  <course>0.0</course>
  <speed>0.0</speed>
  <fix>3d</fix>
</trkpt>
<trkpt lat="40.0713749" lon="-105.229789">
  <ele>1583.0</ele>
  <time>2026-09-02T20:50:29Z</time>
  <course>0.0</course>
  <speed>0.0</speed>
  <fix>3d</fix>
</trkpt>
<trkpt lat="39.655741" lon="-104.1383097">
  <ele>1566.58</ele>
  <time>2026-09-02T20:50:29Z</time>
  <course>0.0</course>
  <speed>0.0</speed>
  <fix>3d</fix>
</trkpt>
<trkpt lat="40.0713749" lon="-105.229789">
  <ele>1583.0</ele>
  <time>2026-09-02T20:50:29Z</time>
  <course>0.0</course>
  <speed>0.0</speed>
  <fix>3d</fix>
</trkpt>
<trkpt lat="40.0713749" lon="-105.229789">
  <ele>1583.0</ele>
  <time>2026-09-02T20:50:29Z</time>
  <course>0.0</course>
  <speed>0.0</speed>
  <fix>3d</fix>
</trkpt>
<trkpt lat="40.0713749" lon="-105.229789">
  <ele>1583.0</ele>
  <time>2026-09-02T20:50:29Z</time>
  <course>0.0</course>
  <speed>0.0</speed>
  <fix>3d</fix>
</trkpt>
<trkpt lat="40.0713749" lon="-105.229789">
  <ele>1583.0</ele>
  <time>2026-09-02T20:50:29Z</time>
  <course>0.0</course>
  <speed>0.0</speed>
  <fix>3d</fix>
</trkpt>
<trkpt lat="40.0713749" lon="-105.229789">
  <ele>1583.0</ele>
  <time>2026-09-02T20:50:29Z</time>
  <course>0.0</course>
  <speed>0.0</speed>
  <fix>3d</fix>
</trkpt>
<trkpt lat="40.0713749" lon="-105.229789">
  <ele>1583.0</ele>
  <time>2026-09-02T20:50:29Z</time>
  <course>0.0</course>
  <speed>0.0</speed>
  <fix>3d</fix>
</trkpt>
<trkpt lat="40.0713749" lon="-105.229789">
  <ele>1583.0</ele>
  <time>2026-09-02T20:50:29Z</time>
  <course>0.0</course>
  <speed>0.0</speed>
  <fix>3d</fix>
</trkpt>
<trkpt lat="40.0713749" lon="-105.229789">
  <ele>1583.0</ele>
  <time>2026-09-02T20:50:29Z</time>
  <course>0.0</course>
  <speed>0.0</speed>
  <fix>3d</fix>
</trkpt>
<trkpt lat="40.0713749" lon="-105.229789">
  <ele>1583.0</ele>
  <time>2026-09-02T20:50:29Z</time>
  <course>0.0</course>
  <speed>0.0</speed>
  <fix>3d</fix>
</trkpt>
<trkpt lat="40.0713749" lon="-105.229789">
  <ele>1583.0</ele>
  <time>2026-09-02T20:50:29Z</time>
  <course>0.0</course>
  <speed>0.0</speed>
  <fix>3d</fix>
</trkpt>
<trkpt lat="40.0713749" lon="-105.229789">
  <ele>1583.0</ele>
  <time>2026-09-02T20:50:29Z</time>
  <course>0.0</course>
  <speed>0.0</speed>
  <fix>3d</fix>
</trkpt>
<trkpt lat="40.0713749" lon="-105.229789">
  <ele>1583.0</ele>
  <time>2026-09-02T20:50:29Z</time>
  <course>0.0</course>
  <speed>0.0</speed>
  <fix>3d</fix>
</trkpt>
<trkpt lat="40.0713749" lon="-105.229789">
  <ele>1583.0</ele>
  <time>2026-09-02T20:50:29Z</time>
  <course>0.0</course>
  <speed>0.0</speed>
  <fix>3d</fix>
</trkpt>
<trkpt lat="40.0713749" lon="-105.229789">
  <ele>1583.0</ele>
  <time>2026-09-02T20:50:29Z</time>
  <course>0.0</course>
  <speed>0.0</speed>
  <fix>3d</fix>
</trkpt>
<trkpt lat="40.0713749" lon="-105.229789">
  <ele>1583.0</ele>
  <time>2026-09-02T20:50:29Z</time>
  <course>0.0</course>
  <speed>0.0</speed>
  <fix>3d</fix>
</trkpt>
<trkpt lat="40.0713749" lon="-105.229789">
  <ele>1583.0</ele>
  <time>2026-09-02T20:50:29Z</time>
  <course>0.0</course>
  <speed>0.0</speed>
  <fix>3d</fix>
</trkpt>
<trkpt lat="40.0713749" lon="-105.229789">
  <ele>1583.0</ele>
  <time>2026-09-02T20:50:29Z</time>
  <course>0.0</course>
  <speed>0.0</speed>
  <fix>3d</fix>
</trkpt>
<trkpt lat="40.0713749" lon="-105.229789">
  <ele>1583.0</ele>
  <time>2026-09-02T20:50:29Z</time>
  <course>0.0</course>
  <speed>0.0</speed>
  <fix>3d</fix>
</trkpt>
<trkpt lat="40.0713749" lon="-105.229789">
  <ele>1583.0</ele>
  <time>2026-09-02T20:50:29Z</time>
  <course>0.0</course>
  <speed>0.0</speed>
  <fix>3d</fix>
</trkpt>
<trkpt lat="40.0713749" lon="-105.229789">
  <ele>1583.0</ele>
  <time>2026-09-02T20:50:29Z</time>
  <course>0.0</course>
  <speed>0.0</speed>
  <fix>3d</fix>
</trkpt>
<trkpt lat="40.0713749" lon="-105.229789">
  <ele>1583.0</ele>
  <time>2026-09-02T20:50:29Z</time>
  <course>0.0</course>
  <speed>0.0</speed>
  <fix>3d</fix>
</trkpt>
<trkpt lat="40.0713749" lon="-105.229789">
  <ele>1583.0</ele>
  <time>2026-09-02T20:50:29Z</time>
  <course>0.0</course>
  <speed>0.0</speed>
  <fix>3d</fix>
</trkpt>
<trkpt lat="40.0713749" lon="-105.229789">
  <ele>1583.0</ele>
  <time>2026-09-02T20:50:29Z</time>
  <course>0.0</course>
  <speed>0.0</speed>
  <fix>3d</fix>
</trkpt>
<trkpt lat="40.0713749" lon="-105.229789">
  <ele>1583.0</ele>
  <time>2026-09-02T20:50:29Z</time>
  <course>0.0</course>
  <speed>0.0</speed>
  <fix>3d</fix>
</trkpt>
<trkpt lat="40.0713749" lon="-105.229789">
  <ele>1583.0</ele>
  <time>2026-09-02T20:50:29Z</time>
  <course>0.0</course>
  <speed>0.0</speed>
  <fix>3d</fix>
</trkpt>
<trkpt lat="40.0713749" lon="-105.229789">
  <ele>1583.0</ele>
  <time>2026-09-02T20:50:29Z</time>
  <course>0.0</course>
  <speed>0.0</speed>
  <fix>3d</fix>
</trkpt>
<trkpt lat="40.0713749" lon="-105.229789">
  <ele>1583.0</ele>
  <time>2026-09-02T20:50:29Z</time>
  <course>0.0</course>
  <speed>0.0</speed>
  <fix>3d</fix>
</trkpt>
<trkpt lat="40.0713749" lon="-105.229789">
  <ele>1583.0</ele>
  <time>2026-09-02T20:50:29Z</time>
  <course>0.0</course>
  <speed>0.0</speed>
  <fix>3d</fix>
</trkpt>
<trkpt lat="40.0713749" lon="-105.229789">
  <ele>1583.0</ele>
  <time>2026-09-02T20:50:29Z</time>
  <course>0.0</course>
  <speed>0.0</speed>
  <fix>3d</fix>
</trkpt>
<trkpt lat="40.0713749" lon="-105.229789">
  <ele>1583.0</ele>
  <time>2026-09-02T20:50:29Z</time>
  <course>0.0</course>
  <speed>0.0</speed>
  <fix>3d</fix>
</trkpt>
<trkpt lat="40.0713749" lon="-105.229789">
  <ele>1583.0</ele>
  <time>2026-09-02T20:50:29Z</time>
  <course>0.0</course>
  <speed>0.0</speed>
  <fix>3d</fix>
</trkpt>
<trkpt lat="40.0713749" lon="-105.229789">
  <ele>1583.0</ele>
  <time>2026-09-02T20:50:29Z</time>
  <course>0.0</course>
  <speed>0.0</speed>
  <fix>3d</fix>
</trkpt>
<trkpt lat="40.0713749" lon="-105.229789">
  <ele>1583.0</ele>
  <time>2026-09-02T20:50:29Z</time>
  <course>0.0</course>
  <speed>0.0</speed>
  <fix>3d</fix>
</trkpt>
<trkpt lat="40.0713749" lon="-105.229789">
  <ele>1583.0</ele>
  <time>2026-09-02T20:50:29Z</time>
  <course>0.0</course>
  <speed>0.0</speed>
  <fix>3d</fix>
</trkpt>
<trkpt lat="40.0713749" lon="-105.229789">
  <ele>1583.0</ele>
  <time>2026-09-02T20:50:29Z</time>
  <course>0.0</course>
  <speed>0.0</speed>
  <fix>3d</fix>
</trkpt>
<trkpt lat="40.0713749" lon="-105.229789">
  <ele>1583.0</ele>
  <time>2026-09-02T20:50:29Z</time>
  <course>0.0</course>
  <speed>0.0</speed>
  <fix>3d</fix>
</trkpt>
<trkpt lat="40.0713749" lon="-105.229789">
  <ele>1583.0</ele>
  <time>2026-09-02T20:50:29Z</time>
  <course>0.0</course>
  <speed>0.0</speed>
  <fix>3d</fix>
</trkpt>
<trkpt lat="40.0713749" lon="-105.229789">
  <ele>1583.0</ele>
  <time>2026-09-02T20:50:29Z</time>
  <course>0.0</course>
  <speed>0.0</speed>
  <fix>3d</fix>
</trkpt>
<trkpt lat="40.0713749" lon="-105.229789">
  <ele>1583.0</ele>
  <time>2026-09-02T20:50:29Z</time>
  <course>0.0</course>
  <speed>0.0</speed>
  <fix>3d</fix>
</trkpt>
<trkpt lat="40.0713749" lon="-105.229789">
  <ele>1583.0</ele>
  <time>2026-09-02T20:50:29Z</time>
  <course>0.0</course>
  <speed>0.0</speed>
  <fix>3d</fix>
</trkpt>
<trkpt lat="40.0713749" lon="-105.229789">
  <ele>1583.0</ele>
  <time>2026-09-02T20:50:29Z</time>
  <course>0.0</course>
  <speed>0.0</speed>
  <fix>3d</fix>
</trkpt>
<trkpt lat="40.0713749" lon="-105.229789">
  <ele>1583.0</ele>
  <time>2026-09-02T20:50:29Z</time>
  <course>0.0</course>
  <speed>0.0</speed>
  <fix>3d</fix>
</trkpt>
<trkpt lat="40.0713749" lon="-105.229789">
  <ele>1583.0</ele>
  <time>2026-09-02T20:50:29Z</time>
  <course>0.0</course>
  <speed>0.0</speed>
  <fix>3d</fix>
</trkpt>
<trkpt lat="40.0713749" lon="-105.229789">
  <ele>1583.0</ele>
  <time>2026-09-02T20:50:29Z</time>
  <course>0.0</course>
  <speed>0.0</speed>
  <fix>3d</fix>
</trkpt>
<trkpt lat="40.0713749" lon="-105.229789">
  <ele>1583.0</ele>
  <time>2026-09-02T20:50:29Z</time>
  <course>0.0</course>
  <speed>0.0</speed>
  <fix>3d</fix>
</trkpt>
<trkpt lat="40.0713749" lon="-105.229789">
  <ele>1583.0</ele>
  <time>2026-09-02T20:50:29Z</time>
  <course>0.0</course>
  <speed>0.0</speed>
  <fix>3d</fix>
</trkpt>
<trkpt lat="40.0713749" lon="-105.229789">
  <ele>1583.0</ele>
  <time>2026-09-02T20:50:29Z</time>
  <course>0.0</course>
  <speed>0.0</speed>
  <fix>3d</fix>
</trkpt>
<trkpt lat="40.0713749" lon="-105.229789">
  <ele>1583.0</ele>
  <time>2026-09-02T20:50:29Z</time>
  <course>0.0</course>
  <speed>0.0</speed>
  <fix>3d</fix>
</trkpt>
<trkpt lat="40.0713749" lon="-105.229789">
  <ele>1583.0</ele>
  <time>2026-09-02T20:50:29Z</time>
  <course>0.0</course>
  <speed>0.0</speed>
  <fix>3d</fix>
</trkpt>
<trkpt lat="40.0713749" lon="-105.229789">
  <ele>1583.0</ele>
  <time>2026-09-02T20:50:29Z</time>
  <course>0.0</course>
  <speed>0.0</speed>
  <fix>3d</fix>
</trkpt>
<trkpt lat="40.0713749" lon="-105.229789">
  <ele>1583.0</ele>
  <time>2026-09-02T20:50:29Z</time>
  <course>0.0</course>
  <speed>0.0</speed>
  <fix>3d</fix>
</trkpt>
<trkpt lat="40.0713749" lon="-105.229789">
  <ele>1583.0</ele>
  <time>2026-09-02T20:50:29Z</time>
  <course>0.0</course>
  <speed>0.0</speed>
  <fix>3d</fix>
</trkpt>
<trkpt lat="40.0713749" lon="-105.229789">
  <ele>1583.0</ele>
  <time>2026-09-02T20:50:29Z</time>
  <course>0.0</course>
  <speed>0.0</speed>
  <fix>3d</fix>
</trkpt>
<trkpt lat="40.0713749" lon="-105.229789">
  <ele>1583.0</ele>
  <time>2026-09-02T20:50:29Z</time>
  <course>0.0</course>
  <speed>0.0</speed>
  <fix>3d</fix>
</trkpt>
<trkpt lat="40.0713749" lon="-105.229789">
  <ele>1583.0</ele>
  <time>2026-09-02T20:50:29Z</time>
  <course>0.0</course>
  <speed>0.0</speed>
  <fix>3d</fix>
</trkpt>
<trkpt lat="40.0713749" lon="-105.229789">
  <ele>1583.0</ele>
  <time>2026-09-02T20:50:29Z</time>
  <course>0.0</course>
  <speed>0.0</speed>
  <fix>3d</fix>
</trkpt>
<trkpt lat="40.0713749" lon="-105.229789">
  <ele>1583.0</ele>
  <time>2026-09-02T20:50:29Z</time>
  <course>0.0</course>
  <speed>0.0</speed>
  <fix>3d</fix>
</trkpt>
<trkpt lat="40.0713749" lon="-105.229789">
  <ele>1583.0</ele>
  <time>2026-09-02T20:50:29Z</time>
  <course>0.0</course>
  <speed>0.0</speed>
  <fix>3d</fix>
</trkpt>
<trkpt lat="40.0713749" lon="-105.229789">
  <ele>1583.0</ele>
  <time>2026-09-02T20:50:29Z</time>
  <course>0.0</course>
  <speed>0.0</speed>
  <fix>3d</fix>
</trkpt>
<trkpt lat="40.0713749" lon="-105.229789">
  <ele>1583.0</ele>
  <time>2026-09-02T20:50:29Z</time>
  <course>0.0</course>
  <speed>0.0</speed>
  <fix>3d</fix>
</trkpt>
<trkpt lat="40.0713749" lon="-105.229789">
  <ele>1583.0</ele>
  <time>2026-09-02T20:50:29Z</time>
  <course>0.0</course>
  <speed>0.0</speed>
  <fix>3d</fix>
</trkpt>
<trkpt lat="40.0713749" lon="-105.229789">
  <ele>1583.0</ele>
  <time>2026-09-02T20:50:29Z</time>
  <course>0.0</course>
  <speed>0.0</speed>
  <fix>3d</fix>
</trkpt>
<trkpt lat="40.0713749" lon="-105.229789">
  <ele>1583.0</ele>
  <time>2026-09-02T20:50:29Z</time>
  <course>0.0</course>
  <speed>0.0</speed>
  <fix>3d</fix>
</trkpt>
<trkpt lat="40.0713749" lon="-105.229789">
  <ele>1583.0</ele>
  <time>2026-09-02T20:50:29Z</time>
  <course>0.0</course>
  <speed>0.0</speed>
  <fix>3d</fix>
</trkpt>
<trkpt lat="40.0713749" lon="-105.229789">
  <ele>1583.0</ele>
  <time>2026-09-02T20:50:29Z</time>
  <course>0.0</course>
  <speed>0.0</speed>
  <fix>3d</fix>
</trkpt>
<trkpt lat="40.0713749" lon="-105.229789">
  <ele>1583.0</ele>
  <time>2026-09-02T20:50:29Z</time>
  <course>0.0</course>
  <speed>0.0</speed>
  <fix>3d</fix>
</trkpt>
<trkpt lat="40.0713749" lon="-105.229789">
  <ele>1583.0</ele>
  <time>2026-09-02T20:50:29Z</time>
  <course>0.0</course>
  <speed>0.0</speed>
  <fix>3d</fix>
</trkpt>
<trkpt lat="40.0713749" lon="-105.229789">
  <ele>1583.0</ele>
  <time>2026-09-02T20:50:29Z</time>
  <course>0.0</course>
  <speed>0.0</speed>
  <fix>3d</fix>
</trkpt>
<trkpt lat="40.0713749" lon="-105.229789">
  <ele>1583.0</ele>
  <time>2026-09-02T20:50:29Z</time>
  <course>0.0</course>
  <speed>0.0</speed>
  <fix>3d</fix>
</trkpt>
<trkpt lat="40.0713749" lon="-105.229789">
  <ele>1583.0</ele>
  <time>2026-09-02T20:50:29Z</time>
  <course>0.0</course>
  <speed>0.0</speed>
  <fix>3d</fix>
</trkpt>
<trkpt lat="40.0713749" lon="-105.229789">
  <ele>1583.0</ele>
  <time>2026-09-02T20:50:29Z</time>
  <course>0.0</course>
  <speed>0.0</speed>
  <fix>3d</fix>
</trkpt>
<trkpt lat="40.0713749" lon="-105.229789">
  <ele>1583.0</ele>
  <time>2026-09-02T20:50:29Z</time>
  <course>0.0</course>
  <speed>0.0</speed>
  <fix>3d</fix>
</trkpt>
<trkpt lat="40.0713749" lon="-105.229789">
  <ele>1583.0</ele>
  <time>2026-09-02T20:50:29Z</time>
  <course>0.0</course>
  <speed>0.0</speed>
  <fix>3d</fix>
</trkpt>
<trkpt lat="40.0713749" lon="-105.229789">
  <ele>1583.0</ele>
  <time>2026-09-02T20:50:29Z</time>
  <course>0.0</course>
  <speed>0.0</speed>
  <fix>3d</fix>
</trkpt>
<trkpt lat="40.0713749" lon="-105.229789">
  <ele>1583.0</ele>
  <time>2026-09-02T20:50:29Z</time>
  <course>0.0</course>
  <speed>0.0</speed>
  <fix>3d</fix>
</trkpt>
<trkpt lat="40.0713749" lon="-105.229789">
  <ele>1583.0</ele>
  <time>2026-09-02T20:50:29Z</time>
  <course>0.0</course>
  <speed>0.0</speed>
  <fix>3d</fix>
</trkpt>
<trkpt lat="40.0713749" lon="-105.229789">
  <ele>1583.0</ele>
  <time>2026-09-02T20:50:29Z</time>
  <course>0.0</course>
  <speed>0.0</speed>
  <fix>3d</fix>
</trkpt>
<trkpt lat="40.0713749" lon="-105.229789">
  <ele>1583.0</ele>
  <time>2026-09-02T20:50:29Z</time>
  <course>0.0</course>
  <speed>0.0</speed>
  <fix>3d</fix>
</trkpt>
<trkpt lat="40.0713749" lon="-105.229789">
  <ele>1583.0</ele>
  <time>2026-09-02T20:50:29Z</time>
  <course>0.0</course>
  <speed>0.0</speed>
  <fix>3d</fix>
</trkpt>
<trkpt lat="40.0713749" lon="-105.229789">
  <ele>1583.0</ele>
  <time>2026-09-02T20:50:29Z</time>
  <course>0.0</course>
  <speed>0.0</speed>
  <fix>3d</fix>
</trkpt>
<trkpt lat="40.0713749" lon="-105.229789">
  <ele>1583.0</ele>
  <time>2026-09-02T20:50:29Z</time>
  <course>0.0</course>
  <speed>0.0</speed>
  <fix>3d</fix>
</trkpt>
<trkpt lat="40.0713749" lon="-105.229789">
  <ele>1583.0</ele>
  <time>2026-09-02T20:50:29Z</time>
  <course>0.0</course>
  <speed>0.0</speed>
  <fix>3d</fix>
</trkpt>
<trkpt lat="40.0713749" lon="-105.229789">
  <ele>1583.0</ele>
  <time>2026-09-02T20:50:29Z</time>
  <course>0.0</course>
  <speed>0.0</speed>
  <fix>3d</fix>
</trkpt>
<trkpt lat="40.0713749" lon="-105.229789">
  <ele>1583.0</ele>
  <time>2026-09-02T20:50:29Z</time>
  <course>0.0</course>
  <speed>0.0</speed>
  <fix>3d</fix>
</trkpt>
<trkpt lat="40.0713749" lon="-105.229789">
  <ele>1583.0</ele>
  <time>2026-09-02T20:50:29Z</time>
  <course>0.0</course>
  <speed>0.0</speed>
  <fix>3d</fix>
</trkpt>
<trkpt lat="40.0713749" lon="-105.229789">
  <ele>1583.0</ele>
  <time>2026-09-02T20:50:29Z</time>
  <course>0.0</course>
  <speed>0.0</speed>
  <fix>3d</fix>
</trkpt>
<trkpt lat="40.0713749" lon="-105.229789">
  <ele>1583.0</ele>
  <time>2026-09-02T20:50:29Z</time>
  <course>0.0</course>
  <speed>0.0</speed>
  <fix>3d</fix>
</trkpt>
<trkpt lat="40.0713749" lon="-105.229789">
  <ele>1583.0</ele>
  <time>2026-09-02T20:50:29Z</time>
  <course>0.0</course>
  <speed>0.0</speed>
  <fix>3d</fix>
</trkpt>
<trkpt lat="40.0713749" lon="-105.229789">
  <ele>1583.0</ele>
  <time>2026-09-02T20:50:30Z</time>
  <course>0.0</course>
  <speed>0.0</speed>
  <fix>3d</fix>
</trkpt>
<trkpt lat="40.0713749" lon="-105.229789">
  <ele>1583.0</ele>
  <time>2026-09-02T20:50:30Z</time>
  <course>0.0</course>
  <speed>0.0</speed>
  <fix>3d</fix>
</trkpt>
<trkpt lat="40.0713749" lon="-105.229789">
  <ele>1583.0</ele>
  <time>2026-09-02T20:50:30Z</time>
  <course>0.0</course>
  <speed>0.0</speed>
  <fix>3d</fix>
</trkpt>
<trkpt lat="40.0713749" lon="-105.229789">
  <ele>1583.0</ele>
  <time>2026-09-02T20:50:30Z</time>
  <course>0.0</course>
  <speed>0.0</speed>
  <fix>3d</fix>
</trkpt>
<trkpt lat="40.0713749" lon="-105.229789">
  <ele>1583.0</ele>
  <time>2026-09-02T20:50:30Z</time>
  <course>0.0</course>
  <speed>0.0</speed>
  <fix>3d</fix>
</trkpt>
<trkpt lat="40.0713749" lon="-105.229789">
  <ele>1583.0</ele>
  <time>2026-09-02T20:50:30Z</time>
  <course>0.0</course>
  <speed>0.0</speed>
  <fix>3d</fix>
</trkpt>
<trkpt lat="40.0713749" lon="-105.229789">
  <ele>1583.0</ele>
  <time>2026-09-02T20:50:30Z</time>
  <course>0.0</course>
  <speed>0.0</speed>
  <fix>3d</fix>
</trkpt>
<trkpt lat="40.0713749" lon="-105.229789">
  <ele>1583.0</ele>
  <time>2026-09-02T20:50:30Z</time>
  <course>0.0</course>
  <speed>0.0</speed>
  <fix>3d</fix>
</trkpt>
<trkpt lat="40.0713749" lon="-105.229789">
  <ele>1583.0</ele>
  <time>2026-09-02T20:50:30Z</time>
  <course>0.0</course>
  <speed>0.0</speed>
  <fix>3d</fix>
</trkpt>
<trkpt lat="40.0713749" lon="-105.229789">
  <ele>1583.0</ele>
  <time>2026-09-02T20:50:30Z</time>
  <course>0.0</course>
  <speed>0.0</speed>
  <fix>3d</fix>
</trkpt>
<trkpt lat="40.0713749" lon="-105.229789">
  <ele>1583.0</ele>
  <time>2026-09-02T20:50:30Z</time>
  <course>0.0</course>
  <speed>0.0</speed>
  <fix>3d</fix>
</trkpt>
<trkpt lat="40.0713749" lon="-105.229789">
  <ele>1583.0</ele>
  <time>2026-09-02T20:50:30Z</time>
  <course>0.0</course>
  <speed>0.0</speed>
  <fix>3d</fix>
</trkpt>
<trkpt lat="40.0713749" lon="-105.229789">
  <ele>1583.0</ele>
  <time>2026-09-02T20:50:31Z</time>
  <course>0.0</course>
  <speed>0.0</speed>
  <fix>3d</fix>
</trkpt>
<trkpt lat="40.0713749" lon="-105.229789">
  <ele>1583.0</ele>
  <time>2026-09-02T20:50:31Z</time>
  <course>0.0</course>
  <speed>0.0</speed>
  <fix>3d</fix>
</trkpt>
<trkpt lat="40.0713749" lon="-105.229789">
  <ele>1583.0</ele>
  <time>2026-09-02T20:50:31Z</time>
  <course>0.0</course>
  <speed>0.0</speed>
  <fix>3d</fix>
</trkpt>
<trkpt lat="40.0713749" lon="-105.229789">
  <ele>1583.0</ele>
  <time>2026-09-02T20:50:31Z</time>
  <course>0.0</course>
  <speed>0.0</speed>
  <fix>3d</fix>
</trkpt>
<trkpt lat="40.0713749" lon="-105.229789">
  <ele>1583.0</ele>
  <time>2026-09-02T20:50:31Z</time>
  <course>0.0</course>
  <speed>0.0</speed>
  <fix>3d</fix>
</trkpt>
<trkpt lat="40.0713749" lon="-105.229789">
  <ele>1583.0</ele>
  <time>2026-09-02T20:50:31Z</time>
  <course>0.0</course>
  <speed>0.0</speed>
  <fix>3d</fix>
</trkpt>
<trkpt lat="40.0713749" lon="-105.229789">
  <ele>1583.0</ele>
  <time>2026-09-02T20:50:31Z</time>
  <course>0.0</course>
  <speed>0.0</speed>
  <fix>3d</fix>
</trkpt>
<trkpt lat="40.0713749" lon="-105.229789">
  <ele>1583.0</ele>
  <time>2026-09-02T20:50:31Z</time>
  <course>0.0</course>
  <speed>0.0</speed>
  <fix>3d</fix>
</trkpt>
<trkpt lat="40.0713749" lon="-105.229789">
  <ele>1583.0</ele>
  <time>2026-09-02T20:50:31Z</time>
  <course>0.0</course>
  <speed>0.0</speed>
  <fix>3d</fix>
</trkpt>
<trkpt lat="40.0713749" lon="-105.229789">
  <ele>1583.0</ele>
  <time>2026-09-02T20:50:31Z</time>
  <course>0.0</course>
  <speed>0.0</speed>
  <fix>3d</fix>
</trkpt>
<trkpt lat="40.0713749" lon="-105.229789">
  <ele>1583.0</ele>
  <time>2026-09-02T20:50:31Z</time>
  <course>0.0</course>
  <speed>0.0</speed>
  <fix>3d</fix>
</trkpt>
<trkpt lat="40.0713749" lon="-105.229789">
  <ele>1583.0</ele>
  <time>2026-09-02T20:50:31Z</time>
  <course>0.0</course>
  <speed>0.0</speed>
  <fix>3d</fix>
</trkpt>
<trkpt lat="40.0713749" lon="-105.229789">
  <ele>1583.0</ele>
  <time>2026-09-02T20:50:31Z</time>
  <course>0.0</course>
  <speed>0.0</speed>
  <fix>3d</fix>
</trkpt>
<trkpt lat="40.0713749" lon="-105.229789">
  <ele>1583.0</ele>
  <time>2026-09-02T20:50:31Z</time>
  <course>0.0</course>
  <speed>0.0</speed>
  <fix>3d</fix>
</trkpt>
<trkpt lat="40.0713749" lon="-105.229789">
  <ele>1583.0</ele>
  <time>2026-09-02T20:50:31Z</time>
  <course>0.0</course>
  <speed>0.0</speed>
  <fix>3d</fix>
</trkpt>
<trkpt lat="40.0713749" lon="-105.229789">
  <ele>1583.0</ele>
  <time>2026-09-02T20:50:31Z</time>
  <course>0.0</course>
  <speed>0.0</speed>
  <fix>3d</fix>
</trkpt>
<trkpt lat="40.0713749" lon="-105.229789">
  <ele>1583.0</ele>
  <time>2026-09-02T20:50:31Z</time>
  <course>0.0</course>
  <speed>0.0</speed>
  <fix>3d</fix>
</trkpt>
<trkpt lat="40.0713749" lon="-105.229789">
  <ele>1583.0</ele>
  <time>2026-09-02T20:50:31Z</time>
  <course>0.0</course>
  <speed>0.0</speed>
  <fix>3d</fix>
</trkpt>
<trkpt lat="40.0713749" lon="-105.229789">
  <ele>1583.0</ele>
  <time>2026-09-02T20:50:31Z</time>
  <course>0.0</course>
  <speed>0.0</speed>
  <fix>3d</fix>
</trkpt>
<trkpt lat="40.0713749" lon="-105.229789">
  <ele>1583.0</ele>
  <time>2026-09-02T20:50:31Z</time>
  <course>0.0</course>
  <speed>0.0</speed>
  <fix>3d</fix>
</trkpt>
<trkpt lat="40.0713749" lon="-105.229789">
  <ele>1583.0</ele>
  <time>2026-09-02T20:50:31Z</time>
  <course>0.0</course>
  <speed>0.0</speed>
  <fix>3d</fix>
</trkpt>
<trkpt lat="40.0713749" lon="-105.229789">
  <ele>1583.0</ele>
  <time>2026-09-02T20:50:31Z</time>
  <course>0.0</course>
  <speed>0.0</speed>
  <fix>3d</fix>
</trkpt>
<trkpt lat="40.0713749" lon="-105.229789">
  <ele>1583.0</ele>
  <time>2026-09-02T20:50:31Z</time>
  <course>0.0</course>
  <speed>0.0</speed>
  <fix>3d</fix>
</trkpt>
<trkpt lat="40.0713749" lon="-105.229789">
  <ele>1583.0</ele>
  <time>2026-09-02T20:50:31Z</time>
  <course>0.0</course>
  <speed>0.0</speed>
  <fix>3d</fix>
</trkpt>
<trkpt lat="40.0713749" lon="-105.229789">
  <ele>1583.0</ele>
  <time>2026-09-02T20:50:31Z</time>
  <course>0.0</course>
  <speed>0.0</speed>
  <fix>3d</fix>
</trkpt>
<trkpt lat="40.0713749" lon="-105.229789">
  <ele>1583.0</ele>
  <time>2026-09-02T20:50:31Z</time>
  <course>0.0</course>
  <speed>0.0</speed>
  <fix>3d</fix>
</trkpt>
<trkpt lat="40.0713749" lon="-105.229789">
  <ele>1583.0</ele>
  <time>2026-09-02T20:50:31Z</time>
  <course>0.0</course>
  <speed>0.0</speed>
  <fix>3d</fix>
</trkpt>
<trkpt lat="40.0713749" lon="-105.229789">
  <ele>1583.0</ele>
  <time>2026-09-02T20:50:31Z</time>
  <course>0.0</course>
  <speed>0.0</speed>
  <fix>3d</fix>
</trkpt>
<trkpt lat="40.0713749" lon="-105.229789">
  <ele>1583.0</ele>
  <time>2026-09-02T20:50:31Z</time>
  <course>0.0</course>
  <speed>0.0</speed>
  <fix>3d</fix>
</trkpt>
<trkpt lat="40.0713749" lon="-105.229789">
  <ele>1583.0</ele>
  <time>2026-09-02T20:50:31Z</time>
  <course>0.0</course>
  <speed>0.0</speed>
  <fix>3d</fix>
</trkpt>
<trkpt lat="40.0713749" lon="-105.229789">
  <ele>1583.0</ele>
  <time>2026-09-02T20:50:31Z</time>
  <course>0.0</course>
  <speed>0.0</speed>
  <fix>3d</fix>
</trkpt>
<trkpt lat="40.0713749" lon="-105.229789">
  <ele>1583.0</ele>
  <time>2026-09-02T20:50:31Z</time>
  <course>0.0</course>
  <speed>0.0</speed>
  <fix>3d</fix>
</trkpt>
<trkpt lat="40.0713749" lon="-105.229789">
  <ele>1583.0</ele>
  <time>2026-09-02T20:50:31Z</time>
  <course>0.0</course>
  <speed>0.0</speed>
  <fix>3d</fix>
</trkpt>
<trkpt lat="40.0713749" lon="-105.229789">
  <ele>1583.0</ele>
  <time>2026-09-02T20:50:31Z</time>
  <course>0.0</course>
  <speed>0.0</speed>
  <fix>3d</fix>
</trkpt>
<trkpt lat="40.0713749" lon="-105.229789">
  <ele>1583.0</ele>
  <time>2026-09-02T20:50:31Z</time>
  <course>0.0</course>
  <speed>0.0</speed>
  <fix>3d</fix>
</trkpt>
<trkpt lat="40.0713749" lon="-105.229789">
  <ele>1583.0</ele>
  <time>2026-09-02T20:50:31Z</time>
  <course>0.0</course>
  <speed>0.0</speed>
  <fix>3d</fix>
</trkpt>
<trkpt lat="40.0713749" lon="-105.229789">
  <ele>1583.0</ele>
  <time>2026-09-02T20:50:31Z</time>
  <course>0.0</course>
  <speed>0.0</speed>
  <fix>3d</fix>
</trkpt>
<trkpt lat="40.0713749" lon="-105.229789">
  <ele>1583.0</ele>
  <time>2026-09-02T20:50:31Z</time>
  <course>0.0</course>
  <speed>0.0</speed>
  <fix>3d</fix>
</trkpt>
<trkpt lat="40.0713749" lon="-105.229789">
  <ele>1583.0</ele>
  <time>2026-09-02T20:50:31Z</time>
  <course>0.0</course>
  <speed>0.0</speed>
  <fix>3d</fix>
</trkpt>
<trkpt lat="40.0713749" lon="-105.229789">
  <ele>1583.0</ele>
  <time>2026-09-02T20:50:31Z</time>
  <course>0.0</course>
  <speed>0.0</speed>
  <fix>3d</fix>
</trkpt>
<trkpt lat="40.0713749" lon="-105.229789">
  <ele>1583.0</ele>
  <time>2026-09-02T20:50:31Z</time>
  <course>0.0</course>
  <speed>0.0</speed>
  <fix>3d</fix>
</trkpt>
<trkpt lat="40.0713749" lon="-105.229789">
  <ele>1583.0</ele>
  <time>2026-09-02T20:50:31Z</time>
  <course>0.0</course>
  <speed>0.0</speed>
  <fix>3d</fix>
</trkpt>
<trkpt lat="40.0713749" lon="-105.229789">
  <ele>1583.0</ele>
  <time>2026-09-02T20:50:31Z</time>
  <course>0.0</course>
  <speed>0.0</speed>
  <fix>3d</fix>
</trkpt>
<trkpt lat="40.0713749" lon="-105.229789">
  <ele>1583.0</ele>
  <time>2026-09-02T20:50:31Z</time>
  <course>0.0</course>
  <speed>0.0</speed>
  <fix>3d</fix>
</trkpt>
<trkpt lat="40.0713749" lon="-105.229789">
  <ele>1583.0</ele>
  <time>2026-09-02T20:50:31Z</time>
  <course>0.0</course>
  <speed>0.0</speed>
  <fix>3d</fix>
</trkpt>
<trkpt lat="40.0713749" lon="-105.229789">
  <ele>1583.0</ele>
  <time>2026-09-02T20:50:31Z</time>
  <course>0.0</course>
  <speed>0.0</speed>
  <fix>3d</fix>
</trkpt>
<trkpt lat="40.0713749" lon="-105.229789">
  <ele>1583.0</ele>
  <time>2026-09-02T20:50:31Z</time>
  <course>0.0</course>
  <speed>0.0</speed>
  <fix>3d</fix>
</trkpt>
<trkpt lat="40.0713749" lon="-105.229789">
  <ele>1583.0</ele>
  <time>2026-09-02T20:50:31Z</time>
  <course>0.0</course>
  <speed>0.0</speed>
  <fix>3d</fix>
</trkpt>
<trkpt lat="40.0713749" lon="-105.229789">
  <ele>1583.0</ele>
  <time>2026-09-02T20:50:31Z</time>
  <course>0.0</course>
  <speed>0.0</speed>
  <fix>3d</fix>
</trkpt>
<trkpt lat="40.0713749" lon="-105.229789">
  <ele>1583.0</ele>
  <time>2026-09-02T20:50:31Z</time>
  <course>0.0</course>
  <speed>0.0</speed>
  <fix>3d</fix>
</trkpt>
<trkpt lat="40.0713749" lon="-105.229789">
  <ele>1583.0</ele>
  <time>2026-09-02T20:50:31Z</time>
  <course>0.0</course>
  <speed>0.0</speed>
  <fix>3d</fix>
</trkpt>
<trkpt lat="40.0713749" lon="-105.229789">
  <ele>1583.0</ele>
  <time>2026-09-02T20:50:31Z</time>
  <course>0.0</course>
  <speed>0.0</speed>
  <fix>3d</fix>
</trkpt>
<trkpt lat="40.0713749" lon="-105.229789">
  <ele>1583.0</ele>
  <time>2026-09-02T20:50:31Z</time>
  <course>0.0</course>
  <speed>0.0</speed>
  <fix>3d</fix>
</trkpt>
<trkpt lat="40.0713749" lon="-105.229789">
  <ele>1583.0</ele>
  <time>2026-09-02T20:50:31Z</time>
  <course>0.0</course>
  <speed>0.0</speed>
  <fix>3d</fix>
</trkpt>
<trkpt lat="40.0713749" lon="-105.229789">
  <ele>1583.0</ele>
  <time>2026-09-02T20:50:31Z</time>
  <course>0.0</course>
  <speed>0.0</speed>
  <fix>3d</fix>
</trkpt>
<trkpt lat="40.0713749" lon="-105.229789">
  <ele>1583.0</ele>
  <time>2026-09-02T20:50:31Z</time>
  <course>0.0</course>
  <speed>0.0</speed>
  <fix>3d</fix>
</trkpt>
<trkpt lat="40.0713749" lon="-105.229789">
  <ele>1583.0</ele>
  <time>2026-09-02T20:50:31Z</time>
  <course>0.0</course>
  <speed>0.0</speed>
  <fix>3d</fix>
</trkpt>
<trkpt lat="40.0713749" lon="-105.229789">
  <ele>1583.0</ele>
  <time>2026-09-02T20:50:31Z</time>
  <course>0.0</course>
  <speed>0.0</speed>
  <fix>3d</fix>
</trkpt>
<trkpt lat="40.0713749" lon="-105.229789">
  <ele>1583.0</ele>
  <time>2026-09-02T20:50:31Z</time>
  <course>0.0</course>
  <speed>0.0</speed>
  <fix>3d</fix>
</trkpt>
<trkpt lat="40.0713749" lon="-105.229789">
  <ele>1583.0</ele>
  <time>2026-09-02T20:50:31Z</time>
  <course>0.0</course>
  <speed>0.0</speed>
  <fix>3d</fix>
</trkpt>
<trkpt lat="40.0713749" lon="-105.229789">
  <ele>1583.0</ele>
  <time>2026-09-02T20:50:31Z</time>
  <course>0.0</course>
  <speed>0.0</speed>
  <fix>3d</fix>
</trkpt>
<trkpt lat="40.0713749" lon="-105.229789">
  <ele>1583.0</ele>
  <time>2026-09-02T20:50:31Z</time>
  <course>0.0</course>
  <speed>0.0</speed>
  <fix>3d</fix>
</trkpt>
<trkpt lat="40.0713749" lon="-105.229789">
  <ele>1583.0</ele>
  <time>2026-09-02T20:50:31Z</time>
  <course>0.0</course>
  <speed>0.0</speed>
  <fix>3d</fix>
</trkpt>
<trkpt lat="40.0713749" lon="-105.229789">
  <ele>1583.0</ele>
  <time>2026-09-02T20:50:31Z</time>
  <course>0.0</course>
  <speed>0.0</speed>
  <fix>3d</fix>
</trkpt>
<trkpt lat="40.0713749" lon="-105.229789">
  <ele>1583.0</ele>
  <time>2026-09-02T20:50:31Z</time>
  <course>0.0</course>
  <speed>0.0</speed>
  <fix>3d</fix>
</trkpt>
<trkpt lat="40.0713749" lon="-105.229789">
  <ele>1583.0</ele>
  <time>2026-09-02T20:50:31Z</time>
  <course>0.0</course>
  <speed>0.0</speed>
  <fix>3d</fix>
</trkpt>
<trkpt lat="40.0713749" lon="-105.229789">
  <ele>1583.0</ele>
  <time>2026-09-02T20:50:31Z</time>
  <course>0.0</course>
  <speed>0.0</speed>
  <fix>3d</fix>
</trkpt>
<trkpt lat="40.0713749" lon="-105.229789">
  <ele>1583.0</ele>
  <time>2026-09-02T20:50:31Z</time>
  <course>0.0</course>
  <speed>0.0</speed>
  <fix>3d</fix>
</trkpt>
<trkpt lat="40.0713749" lon="-105.229789">
  <ele>1583.0</ele>
  <time>2026-09-02T20:50:31Z</time>
  <course>0.0</course>
  <speed>0.0</speed>
  <fix>3d</fix>
</trkpt>
<trkpt lat="40.0713749" lon="-105.229789">
  <ele>1583.0</ele>
  <time>2026-09-02T20:50:31Z</time>
  <course>0.0</course>
  <speed>0.0</speed>
  <fix>3d</fix>
</trkpt>
<trkpt lat="40.0713749" lon="-105.229789">
  <ele>1583.0</ele>
  <time>2026-09-02T20:50:31Z</time>
  <course>0.0</course>
  <speed>0.0</speed>
  <fix>3d</fix>
</trkpt>
<trkpt lat="40.0713749" lon="-105.229789">
  <ele>1583.0</ele>
  <time>2026-09-02T20:50:31Z</time>
  <course>0.0</course>
  <speed>0.0</speed>
  <fix>3d</fix>
</trkpt>
<trkpt lat="40.0713749" lon="-105.229789">
  <ele>1583.0</ele>
  <time>2026-09-02T20:50:31Z</time>
  <course>0.0</course>
  <speed>0.0</speed>
  <fix>3d</fix>
</trkpt>
<trkpt lat="40.0713749" lon="-105.229789">
  <ele>1583.0</ele>
  <time>2026-09-02T20:50:31Z</time>
  <course>0.0</course>
  <speed>0.0</speed>
  <fix>3d</fix>
</trkpt>
<trkpt lat="40.0713749" lon="-105.229789">
  <ele>1583.0</ele>
  <time>2026-09-02T20:50:31Z</time>
  <course>0.0</course>
  <speed>0.0</speed>
  <fix>3d</fix>
</trkpt>
<trkpt lat="40.0713749" lon="-105.229789">
  <ele>1583.0</ele>
  <time>2026-09-02T20:50:31Z</time>
  <course>0.0</course>
  <speed>0.0</speed>
  <fix>3d</fix>
</trkpt>
<trkpt lat="40.0713749" lon="-105.229789">
  <ele>1583.0</ele>
  <time>2026-09-02T20:50:31Z</time>
  <course>0.0</course>
  <speed>0.0</speed>
  <fix>3d</fix>
</trkpt>
<trkpt lat="40.0713749" lon="-105.229789">
  <ele>1583.0</ele>
  <time>2026-09-02T20:50:31Z</time>
  <course>0.0</course>
  <speed>0.0</speed>
  <fix>3d</fix>
</trkpt>
<trkpt lat="40.0713749" lon="-105.229789">
  <ele>1583.0</ele>
  <time>2026-09-02T20:50:31Z</time>
  <course>0.0</course>
  <speed>0.0</speed>
  <fix>3d</fix>
</trkpt>
<trkpt lat="40.0713749" lon="-105.229789">
  <ele>1583.0</ele>
  <time>2026-09-02T20:50:31Z</time>
  <course>0.0</course>
  <speed>0.0</speed>
  <fix>3d</fix>
</trkpt>
<trkpt lat="40.0713749" lon="-105.229789">
  <ele>1583.0</ele>
  <time>2026-09-02T20:50:31Z</time>
  <course>0.0</course>
  <speed>0.0</speed>
  <fix>3d</fix>
</trkpt>
<trkpt lat="40.0713749" lon="-105.229789">
  <ele>1583.0</ele>
  <time>2026-09-02T20:50:31Z</time>
  <course>0.0</course>
  <speed>0.0</speed>
  <fix>3d</fix>
</trkpt>
<trkpt lat="40.0713749" lon="-105.229789">
  <ele>1583.0</ele>
  <time>2026-09-02T20:50:31Z</time>
  <course>0.0</course>
  <speed>0.0</speed>
  <fix>3d</fix>
</trkpt>
<trkpt lat="40.0713749" lon="-105.229789">
  <ele>1583.0</ele>
  <time>2026-09-02T20:50:31Z</time>
  <course>0.0</course>
  <speed>0.0</speed>
  <fix>3d</fix>
</trkpt>
<trkpt lat="40.0713749" lon="-105.229789">
  <ele>1583.0</ele>
  <time>2026-09-02T20:50:31Z</time>
  <course>0.0</course>
  <speed>0.0</speed>
  <fix>3d</fix>
</trkpt>
<trkpt lat="40.0713749" lon="-105.229789">
  <ele>1583.0</ele>
  <time>2026-09-02T20:50:31Z</time>
  <course>0.0</course>
  <speed>0.0</speed>
  <fix>3d</fix>
</trkpt>
<trkpt lat="40.0713749" lon="-105.229789">
  <ele>1583.0</ele>
  <time>2026-09-02T20:50:31Z</time>
  <course>0.0</course>
  <speed>0.0</speed>
  <fix>3d</fix>
</trkpt>
<trkpt lat="40.0713749" lon="-105.229789">
  <ele>1583.0</ele>
  <time>2026-09-02T20:50:31Z</time>
  <course>0.0</course>
  <speed>0.0</speed>
  <fix>3d</fix>
</trkpt>
<trkpt lat="40.0713749" lon="-105.229789">
  <ele>1583.0</ele>
  <time>2026-09-02T20:50:31Z</time>
  <course>0.0</course>
  <speed>0.0</speed>
  <fix>3d</fix>
</trkpt>
<trkpt lat="40.0713749" lon="-105.229789">
  <ele>1583.0</ele>
  <time>2026-09-02T20:50:31Z</time>
  <course>0.0</course>
  <speed>0.0</speed>
  <fix>3d</fix>
</trkpt>
<trkpt lat="40.0713749" lon="-105.229789">
  <ele>1583.0</ele>
  <time>2026-09-02T20:50:31Z</time>
  <course>0.0</course>
  <speed>0.0</speed>
  <fix>3d</fix>
</trkpt>
<trkpt lat="40.0713749" lon="-105.229789">
  <ele>1583.0</ele>
  <time>2026-09-02T20:50:31Z</time>
  <course>0.0</course>
  <speed>0.0</speed>
  <fix>3d</fix>
</trkpt>
<trkpt lat="40.0713749" lon="-105.229789">
  <ele>1583.0</ele>
  <time>2026-09-02T20:50:31Z</time>
  <course>0.0</course>
  <speed>0.0</speed>
  <fix>3d</fix>
</trkpt>
<trkpt lat="40.0713749" lon="-105.229789">
  <ele>1583.0</ele>
  <time>2026-09-02T20:50:31Z</time>
  <course>0.0</course>
  <speed>0.0</speed>
  <fix>3d</fix>
</trkpt>
<trkpt lat="40.0713749" lon="-105.229789">
  <ele>1583.0</ele>
  <time>2026-09-02T20:50:31Z</time>
  <course>0.0</course>
  <speed>0.0</speed>
  <fix>3d</fix>
</trkpt>
<trkpt lat="40.0713749" lon="-105.229789">
  <ele>1583.0</ele>
  <time>2026-09-02T20:50:31Z</time>
  <course>0.0</course>
  <speed>0.0</speed>
  <fix>3d</fix>
</trkpt>
<trkpt lat="40.0713749" lon="-105.229789">
  <ele>1583.0</ele>
  <time>2026-09-02T20:50:31Z</time>
  <course>0.0</course>
  <speed>0.0</speed>
  <fix>3d</fix>
</trkpt>
<trkpt lat="40.0713749" lon="-105.229789">
  <ele>1583.0</ele>
  <time>2026-09-02T20:50:31Z</time>
  <course>0.0</course>
  <speed>0.0</speed>
  <fix>3d</fix>
</trkpt>
<trkpt lat="40.0713749" lon="-105.229789">
  <ele>1583.0</ele>
  <time>2026-09-02T20:50:31Z</time>
  <course>0.0</course>
  <speed>0.0</speed>
  <fix>3d</fix>
</trkpt>
<trkpt lat="40.0713749" lon="-105.229789">
  <ele>1583.0</ele>
  <time>2026-09-02T20:50:31Z</time>
  <course>0.0</course>
  <speed>0.0</speed>
  <fix>3d</fix>
</trkpt>
<trkpt lat="40.0713749" lon="-105.229789">
  <ele>1583.0</ele>
  <time>2026-09-02T20:50:31Z</time>
  <course>0.0</course>
  <speed>0.0</speed>
  <fix>3d</fix>
</trkpt>
<trkpt lat="40.0713749" lon="-105.229789">
  <ele>1583.0</ele>
  <time>2026-09-02T20:50:31Z</time>
  <course>0.0</course>
  <speed>0.0</speed>
  <fix>3d</fix>
</trkpt>
<trkpt lat="40.0713749" lon="-105.229789">
  <ele>1583.0</ele>
  <time>2026-09-02T20:50:31Z</time>
  <course>0.0</course>
  <speed>0.0</speed>
  <fix>3d</fix>
</trkpt>
<trkpt lat="40.0713749" lon="-105.229789">
  <ele>1583.0</ele>
  <time>2026-09-02T20:50:31Z</time>
  <course>0.0</course>
  <speed>0.0</speed>
  <fix>3d</fix>
</trkpt>
<trkpt lat="40.0713749" lon="-105.229789">
  <ele>1583.0</ele>
  <time>2026-09-02T20:50:31Z</time>
  <course>0.0</course>
  <speed>0.0</speed>
  <fix>3d</fix>
</trkpt>
<trkpt lat="40.0713749" lon="-105.229789">
  <ele>1583.0</ele>
  <time>2026-09-02T20:50:31Z</time>
  <course>0.0</course>
  <speed>0.0</speed>
  <fix>3d</fix>
</trkpt>
<trkpt lat="40.0713749" lon="-105.229789">
  <ele>1583.0</ele>
  <time>2026-09-02T20:50:31Z</time>
  <course>0.0</course>
  <speed>0.0</speed>
  <fix>3d</fix>
</trkpt>
<trkpt lat="40.0713749" lon="-105.229789">
  <ele>1583.0</ele>
  <time>2026-09-02T20:50:31Z</time>
  <course>0.0</course>
  <speed>0.0</speed>
  <fix>3d</fix>
</trkpt>
<trkpt lat="40.0713749" lon="-105.229789">
  <ele>1583.0</ele>
  <time>2026-09-02T20:50:32Z</time>
  <course>0.0</course>
  <speed>0.0</speed>
  <fix>3d</fix>
</trkpt>
<trkpt lat="40.0713749" lon="-105.229789">
  <ele>1583.0</ele>
  <time>2026-09-02T20:50:32Z</time>
  <course>0.0</course>
  <speed>0.0</speed>
  <fix>3d</fix>
</trkpt>
<trkpt lat="40.0713749" lon="-105.229789">
  <ele>1583.0</ele>
  <time>2026-09-02T20:50:32Z</time>
  <course>0.0</course>
  <speed>0.0</speed>
  <fix>3d</fix>
</trkpt>
<trkpt lat="40.0713749" lon="-105.229789">
  <ele>1583.0</ele>
  <time>2026-09-02T20:50:32Z</time>
  <course>0.0</course>
  <speed>0.0</speed>
  <fix>3d</fix>
</trkpt>
<trkpt lat="40.0713749" lon="-105.229789">
  <ele>1583.0</ele>
  <time>2026-09-02T20:50:32Z</time>
  <course>0.0</course>
  <speed>0.0</speed>
  <fix>3d</fix>
</trkpt>
<trkpt lat="40.0713749" lon="-105.229789">
  <ele>1583.0</ele>
  <time>2026-09-02T20:50:32Z</time>
  <course>0.0</course>
  <speed>0.0</speed>
  <fix>3d</fix>
</trkpt>
<trkpt lat="40.0713749" lon="-105.229789">
  <ele>1583.0</ele>
  <time>2026-09-02T20:50:32Z</time>
  <course>0.0</course>
  <speed>0.0</speed>
  <fix>3d</fix>
</trkpt>
<trkpt lat="40.0713749" lon="-105.229789">
  <ele>1583.0</ele>
  <time>2026-09-02T20:50:32Z</time>
  <course>0.0</course>
  <speed>0.0</speed>
  <fix>3d</fix>
</trkpt>
<trkpt lat="40.0713749" lon="-105.229789">
  <ele>1583.0</ele>
  <time>2026-09-02T20:50:32Z</time>
  <course>0.0</course>
  <speed>0.0</speed>
  <fix>3d</fix>
</trkpt>
<trkpt lat="40.0713749" lon="-105.229789">
  <ele>1583.0</ele>
  <time>2026-09-02T20:50:32Z</time>
  <course>0.0</course>
  <speed>0.0</speed>
  <fix>3d</fix>
</trkpt>
<trkpt lat="40.0713749" lon="-105.229789">
  <ele>1583.0</ele>
  <time>2026-09-02T20:50:32Z</time>
  <course>0.0</course>
  <speed>0.0</speed>
  <fix>3d</fix>
</trkpt>
<trkpt lat="40.0713749" lon="-105.229789">
  <ele>1583.0</ele>
  <time>2026-09-02T20:50:32Z</time>
  <course>0.0</course>
  <speed>0.0</speed>
  <fix>3d</fix>
</trkpt>
<trkpt lat="40.0713749" lon="-105.229789">
  <ele>1583.0</ele>
  <time>2026-09-02T20:50:32Z</time>
  <course>0.0</course>
  <speed>0.0</speed>
  <fix>3d</fix>
</trkpt>
<trkpt lat="40.0713749" lon="-105.229789">
  <ele>1583.0</ele>
  <time>2026-09-02T20:50:32Z</time>
  <course>0.0</course>
  <speed>0.0</speed>
  <fix>3d</fix>
</trkpt>
<trkpt lat="40.0713749" lon="-105.229789">
  <ele>1583.0</ele>
  <time>2026-09-02T20:50:32Z</time>
  <course>0.0</course>
  <speed>0.0</speed>
  <fix>3d</fix>
</trkpt>
<trkpt lat="40.0713749" lon="-105.229789">
  <ele>1583.0</ele>
  <time>2026-09-02T20:50:32Z</time>
  <course>0.0</course>
  <speed>0.0</speed>
  <fix>3d</fix>
</trkpt>
<trkpt lat="40.0713749" lon="-105.229789">
  <ele>1583.0</ele>
  <time>2026-09-02T20:50:32Z</time>
  <course>0.0</course>
  <speed>0.0</speed>
  <fix>3d</fix>
</trkpt>
<trkpt lat="40.0713749" lon="-105.229789">
  <ele>1583.0</ele>
  <time>2026-09-02T20:50:32Z</time>
  <course>0.0</course>
  <speed>0.0</speed>
  <fix>3d</fix>
</trkpt>
<trkpt lat="40.0713749" lon="-105.229789">
  <ele>1583.0</ele>
  <time>2026-09-02T20:50:32Z</time>
  <course>0.0</course>
  <speed>0.0</speed>
  <fix>3d</fix>
</trkpt>
<trkpt lat="40.0713749" lon="-105.229789">
  <ele>1583.0</ele>
  <time>2026-09-02T20:50:32Z</time>
  <course>0.0</course>
  <speed>0.0</speed>
  <fix>3d</fix>
</trkpt>
<trkpt lat="40.0713749" lon="-105.229789">
  <ele>1583.0</ele>
  <time>2026-09-02T20:50:32Z</time>
  <course>0.0</course>
  <speed>0.0</speed>
  <fix>3d</fix>
</trkpt>
<trkpt lat="40.0713749" lon="-105.229789">
  <ele>1583.0</ele>
  <time>2026-09-02T20:50:32Z</time>
  <course>0.0</course>
  <speed>0.0</speed>
  <fix>3d</fix>
</trkpt>
<trkpt lat="40.0713749" lon="-105.229789">
  <ele>1583.0</ele>
  <time>2026-09-02T20:50:32Z</time>
  <course>0.0</course>
  <speed>0.0</speed>
  <fix>3d</fix>
</trkpt>
<trkpt lat="40.0713749" lon="-105.229789">
  <ele>1583.0</ele>
  <time>2026-09-02T20:50:32Z</time>
  <course>0.0</course>
  <speed>0.0</speed>
  <fix>3d</fix>
</trkpt>
<trkpt lat="40.0713749" lon="-105.229789">
  <ele>1583.0</ele>
  <time>2026-09-02T20:50:32Z</time>
  <course>0.0</course>
  <speed>0.0</speed>
  <fix>3d</fix>
</trkpt>
<trkpt lat="39.655741" lon="-104.1383097">
  <ele>1566.58</ele>
  <time>2026-09-02T20:50:32Z</time>
  <course>0.0</course>
  <speed>0.0</speed>
  <fix>3d</fix>
</trkpt>
<trkpt lat="40.0713749" lon="-105.229789">
  <ele>1583.0</ele>
  <time>2026-09-02T20:50:32Z</time>
  <course>0.0</course>
  <speed>0.0</speed>
  <fix>3d</fix>
</trkpt>
<trkpt lat="40.0713749" lon="-105.229789">
  <ele>1583.0</ele>
  <time>2026-09-02T20:50:32Z</time>
  <course>0.0</course>
  <speed>0.0</speed>
  <fix>3d</fix>
</trkpt>
<trkpt lat="40.0713749" lon="-105.229789">
  <ele>1583.0</ele>
  <time>2026-09-02T20:50:32Z</time>
  <course>0.0</course>
  <speed>0.0</speed>
  <fix>3d</fix>
</trkpt>
<trkpt lat="40.0713749" lon="-105.229789">
  <ele>1583.0</ele>
  <time>2026-09-02T20:50:32Z</time>
  <course>0.0</course>
  <speed>0.0</speed>
  <fix>3d</fix>
</trkpt>
<trkpt lat="40.0713749" lon="-105.229789">
  <ele>1583.0</ele>
  <time>2026-09-02T20:50:32Z</time>
  <course>0.0</course>
  <speed>0.0</speed>
  <fix>3d</fix>
</trkpt>
<trkpt lat="40.0713749" lon="-105.229789">
  <ele>1583.0</ele>
  <time>2026-09-02T20:50:32Z</time>
  <course>0.0</course>
  <speed>0.0</speed>
  <fix>3d</fix>
</trkpt>
<trkpt lat="40.0713749" lon="-105.229789">
  <ele>1583.0</ele>
  <time>2026-09-02T20:50:32Z</time>
  <course>0.0</course>
  <speed>0.0</speed>
  <fix>3d</fix>
</trkpt>
<trkpt lat="40.0713749" lon="-105.229789">
  <ele>1583.0</ele>
  <time>2026-09-02T20:50:32Z</time>
  <course>0.0</course>
  <speed>0.0</speed>
  <fix>3d</fix>
</trkpt>
<trkpt lat="40.0713749" lon="-105.229789">
  <ele>1583.0</ele>
  <time>2026-09-02T20:50:32Z</time>
  <course>0.0</course>
  <speed>0.0</speed>
  <fix>3d</fix>
</trkpt>
<trkpt lat="40.0713749" lon="-105.229789">
  <ele>1583.0</ele>
  <time>2026-09-02T20:50:32Z</time>
  <course>0.0</course>
  <speed>0.0</speed>
  <fix>3d</fix>
</trkpt>
<trkpt lat="40.0713749" lon="-105.229789">
  <ele>1583.0</ele>
  <time>2026-09-02T20:50:32Z</time>
  <course>0.0</course>
  <speed>0.0</speed>
  <fix>3d</fix>
</trkpt>
<trkpt lat="40.0713749" lon="-105.229789">
  <ele>1583.0</ele>
  <time>2026-09-02T20:50:32Z</time>
  <course>0.0</course>
  <speed>0.0</speed>
  <fix>3d</fix>
</trkpt>
<trkpt lat="40.0713749" lon="-105.229789">
  <ele>1583.0</ele>
  <time>2026-09-02T20:50:32Z</time>
  <course>0.0</course>
  <speed>0.0</speed>
  <fix>3d</fix>
</trkpt>
<trkpt lat="40.0713749" lon="-105.229789">
  <ele>1583.0</ele>
  <time>2026-09-02T20:50:32Z</time>
  <course>0.0</course>
  <speed>0.0</speed>
  <fix>3d</fix>
</trkpt>
<trkpt lat="40.0713749" lon="-105.229789">
  <ele>1583.0</ele>
  <time>2026-09-02T20:50:32Z</time>
  <course>0.0</course>
  <speed>0.0</speed>
  <fix>3d</fix>
</trkpt>
<trkpt lat="40.0713749" lon="-105.229789">
  <ele>1583.0</ele>
  <time>2026-09-02T20:50:32Z</time>
  <course>0.0</course>
  <speed>0.0</speed>
  <fix>3d</fix>
</trkpt>
<trkpt lat="40.0713749" lon="-105.229789">
  <ele>1583.0</ele>
  <time>2026-09-02T20:50:32Z</time>
  <course>0.0</course>
  <speed>0.0</speed>
  <fix>3d</fix>
</trkpt>
<trkpt lat="40.0713749" lon="-105.229789">
  <ele>1583.0</ele>
  <time>2026-09-02T20:50:32Z</time>
  <course>0.0</course>
  <speed>0.0</speed>
  <fix>3d</fix>
</trkpt>
<trkpt lat="40.0713749" lon="-105.229789">
  <ele>1583.0</ele>
  <time>2026-09-02T20:50:32Z</time>
  <course>0.0</course>
  <speed>0.0</speed>
  <fix>3d</fix>
</trkpt>
<trkpt lat="40.0713749" lon="-105.229789">
  <ele>1583.0</ele>
  <time>2026-09-02T20:50:32Z</time>
  <course>0.0</course>
  <speed>0.0</speed>
  <fix>3d</fix>
</trkpt>
<trkpt lat="40.0713749" lon="-105.229789">
  <ele>1583.0</ele>
  <time>2026-09-02T20:50:32Z</time>
  <course>0.0</course>
  <speed>0.0</speed>
  <fix>3d</fix>
</trkpt>
<trkpt lat="40.0713749" lon="-105.229789">
  <ele>1583.0</ele>
  <time>2026-09-02T20:50:32Z</time>
  <course>0.0</course>
  <speed>0.0</speed>
  <fix>3d</fix>
</trkpt>
<trkpt lat="40.0713749" lon="-105.229789">
  <ele>1583.0</ele>
  <time>2026-09-02T20:50:32Z</time>
  <course>0.0</course>
  <speed>0.0</speed>
  <fix>3d</fix>
</trkpt>
<trkpt lat="40.0713749" lon="-105.229789">
  <ele>1583.0</ele>
  <time>2026-09-02T20:50:32Z</time>
  <course>0.0</course>
  <speed>0.0</speed>
  <fix>3d</fix>
</trkpt>
<trkpt lat="40.0713749" lon="-105.229789">
  <ele>1583.0</ele>
  <time>2026-09-02T20:50:32Z</time>
  <course>0.0</course>
  <speed>0.0</speed>
  <fix>3d</fix>
</trkpt>
<trkpt lat="40.0713749" lon="-105.229789">
  <ele>1583.0</ele>
  <time>2026-09-02T20:50:32Z</time>
  <course>0.0</course>
  <speed>0.0</speed>
  <fix>3d</fix>
</trkpt>
<trkpt lat="40.0713749" lon="-105.229789">
  <ele>1583.0</ele>
  <time>2026-09-02T20:50:32Z</time>
  <course>0.0</course>
  <speed>0.0</speed>
  <fix>3d</fix>
</trkpt>
<trkpt lat="40.0713749" lon="-105.229789">
  <ele>1583.0</ele>
  <time>2026-09-02T20:50:32Z</time>
  <course>0.0</course>
  <speed>0.0</speed>
  <fix>3d</fix>
</trkpt>
<trkpt lat="40.0713749" lon="-105.229789">
  <ele>1583.0</ele>
  <time>2026-09-02T20:50:32Z</time>
  <course>0.0</course>
  <speed>0.0</speed>
  <fix>3d</fix>
</trkpt>
<trkpt lat="40.0713749" lon="-105.229789">
  <ele>1583.0</ele>
  <time>2026-09-02T20:50:32Z</time>
  <course>0.0</course>
  <speed>0.0</speed>
  <fix>3d</fix>
</trkpt>
<trkpt lat="40.0713749" lon="-105.229789">
  <ele>1583.0</ele>
  <time>2026-09-02T20:50:32Z</time>
  <course>0.0</course>
  <speed>0.0</speed>
  <fix>3d</fix>
</trkpt>
<trkpt lat="40.0713749" lon="-105.229789">
  <ele>1583.0</ele>
  <time>2026-09-02T20:50:32Z</time>
  <course>0.0</course>
  <speed>0.0</speed>
  <fix>3d</fix>
</trkpt>
<trkpt lat="40.0713749" lon="-105.229789">
  <ele>1583.0</ele>
  <time>2026-09-02T20:50:32Z</time>
  <course>0.0</course>
  <speed>0.0</speed>
  <fix>3d</fix>
</trkpt>
<trkpt lat="40.0713749" lon="-105.229789">
  <ele>1583.0</ele>
  <time>2026-09-02T20:50:32Z</time>
  <course>0.0</course>
  <speed>0.0</speed>
  <fix>3d</fix>
</trkpt>
<trkpt lat="40.0713749" lon="-105.229789">
  <ele>1583.0</ele>
  <time>2026-09-02T20:50:32Z</time>
  <course>0.0</course>
  <speed>0.0</speed>
  <fix>3d</fix>
</trkpt>
<trkpt lat="40.0713749" lon="-105.229789">
  <ele>1583.0</ele>
  <time>2026-09-02T20:50:32Z</time>
  <course>0.0</course>
  <speed>0.0</speed>
  <fix>3d</fix>
</trkpt>
<trkpt lat="40.0713749" lon="-105.229789">
  <ele>1583.0</ele>
  <time>2026-09-02T20:50:32Z</time>
  <course>0.0</course>
  <speed>0.0</speed>
  <fix>3d</fix>
</trkpt>
<trkpt lat="40.0713749" lon="-105.229789">
  <ele>1583.0</ele>
  <time>2026-09-02T20:50:32Z</time>
  <course>0.0</course>
  <speed>0.0</speed>
  <fix>3d</fix>
</trkpt>
<trkpt lat="40.0713749" lon="-105.229789">
  <ele>1583.0</ele>
  <time>2026-09-02T20:50:32Z</time>
  <course>0.0</course>
  <speed>0.0</speed>
  <fix>3d</fix>
</trkpt>
<trkpt lat="40.0713749" lon="-105.229789">
  <ele>1583.0</ele>
  <time>2026-09-02T20:50:32Z</time>
  <course>0.0</course>
  <speed>0.0</speed>
  <fix>3d</fix>
</trkpt>
<trkpt lat="40.0713749" lon="-105.229789">
  <ele>1583.0</ele>
  <time>2026-09-02T20:50:32Z</time>
  <course>0.0</course>
  <speed>0.0</speed>
  <fix>3d</fix>
</trkpt>
<trkpt lat="40.0713749" lon="-105.229789">
  <ele>1583.0</ele>
  <time>2026-09-02T20:50:32Z</time>
  <course>0.0</course>
  <speed>0.0</speed>
  <fix>3d</fix>
</trkpt>
<trkpt lat="40.0713749" lon="-105.229789">
  <ele>1583.0</ele>
  <time>2026-09-02T20:50:32Z</time>
  <course>0.0</course>
  <speed>0.0</speed>
  <fix>3d</fix>
</trkpt>
<trkpt lat="40.0713749" lon="-105.229789">
  <ele>1583.0</ele>
  <time>2026-09-02T20:50:32Z</time>
  <course>0.0</course>
  <speed>0.0</speed>
  <fix>3d</fix>
</trkpt>
<trkpt lat="40.0713749" lon="-105.229789">
  <ele>1583.0</ele>
  <time>2026-09-02T20:50:32Z</time>
  <course>0.0</course>
  <speed>0.0</speed>
  <fix>3d</fix>
</trkpt>
<trkpt lat="40.0713749" lon="-105.229789">
  <ele>1583.0</ele>
  <time>2026-09-02T20:50:32Z</time>
  <course>0.0</course>
  <speed>0.0</speed>
  <fix>3d</fix>
</trkpt>
<trkpt lat="40.0713749" lon="-105.229789">
  <ele>1583.0</ele>
  <time>2026-09-02T20:50:32Z</time>
  <course>0.0</course>
  <speed>0.0</speed>
  <fix>3d</fix>
</trkpt>
<trkpt lat="40.0713749" lon="-105.229789">
  <ele>1583.0</ele>
  <time>2026-09-02T20:50:32Z</time>
  <course>0.0</course>
  <speed>0.0</speed>
  <fix>3d</fix>
</trkpt>
<trkpt lat="40.0713749" lon="-105.229789">
  <ele>1583.0</ele>
  <time>2026-09-02T20:50:32Z</time>
  <course>0.0</course>
  <speed>0.0</speed>
  <fix>3d</fix>
</trkpt>
<trkpt lat="40.0713749" lon="-105.229789">
  <ele>1583.0</ele>
  <time>2026-09-02T20:50:32Z</time>
  <course>0.0</course>
  <speed>0.0</speed>
  <fix>3d</fix>
</trkpt>
<trkpt lat="40.0713749" lon="-105.229789">
  <ele>1583.0</ele>
  <time>2026-09-02T20:50:32Z</time>
  <course>0.0</course>
  <speed>0.0</speed>
  <fix>3d</fix>
</trkpt>
<trkpt lat="40.0713749" lon="-105.229789">
  <ele>1583.0</ele>
  <time>2026-09-02T20:50:32Z</time>
  <course>0.0</course>
  <speed>0.0</speed>
  <fix>3d</fix>
</trkpt>
<trkpt lat="40.0713749" lon="-105.229789">
  <ele>1583.0</ele>
  <time>2026-09-02T20:50:32Z</time>
  <course>0.0</course>
  <speed>0.0</speed>
  <fix>3d</fix>
</trkpt>
<trkpt lat="40.0713749" lon="-105.229789">
  <ele>1583.0</ele>
  <time>2026-09-02T20:50:32Z</time>
  <course>0.0</course>
  <speed>0.0</speed>
  <fix>3d</fix>
</trkpt>
<trkpt lat="40.0713749" lon="-105.229789">
  <ele>1583.0</ele>
  <time>2026-09-02T20:50:32Z</time>
  <course>0.0</course>
  <speed>0.0</speed>
  <fix>3d</fix>
</trkpt>
<trkpt lat="40.0713749" lon="-105.229789">
  <ele>1583.0</ele>
  <time>2026-09-02T20:50:32Z</time>
  <course>0.0</course>
  <speed>0.0</speed>
  <fix>3d</fix>
</trkpt>
<trkpt lat="40.0713749" lon="-105.229789">
  <ele>1583.0</ele>
  <time>2026-09-02T20:50:32Z</time>
  <course>0.0</course>
  <speed>0.0</speed>
  <fix>3d</fix>
</trkpt>
<trkpt lat="40.0713749" lon="-105.229789">
  <ele>1583.0</ele>
  <time>2026-09-02T20:50:32Z</time>
  <course>0.0</course>
  <speed>0.0</speed>
  <fix>3d</fix>
</trkpt>
<trkpt lat="40.0713749" lon="-105.229789">
  <ele>1583.0</ele>
  <time>2026-09-02T20:50:32Z</time>
  <course>0.0</course>
  <speed>0.0</speed>
  <fix>3d</fix>
</trkpt>
<trkpt lat="40.0713749" lon="-105.229789">
  <ele>1583.0</ele>
  <time>2026-09-02T20:50:32Z</time>
  <course>0.0</course>
  <speed>0.0</speed>
  <fix>3d</fix>
</trkpt>
<trkpt lat="40.0713749" lon="-105.229789">
  <ele>1583.0</ele>
  <time>2026-09-02T20:50:32Z</time>
  <course>0.0</course>
  <speed>0.0</speed>
  <fix>3d</fix>
</trkpt>
<trkpt lat="40.0713749" lon="-105.229789">
  <ele>1583.0</ele>
  <time>2026-09-02T20:50:32Z</time>
  <course>0.0</course>
  <speed>0.0</speed>
  <fix>3d</fix>
</trkpt>
<trkpt lat="40.0713749" lon="-105.229789">
  <ele>1583.0</ele>
  <time>2026-09-02T20:50:32Z</time>
  <course>0.0</course>
  <speed>0.0</speed>
  <fix>3d</fix>
</trkpt>
<trkpt lat="40.0713749" lon="-105.229789">
  <ele>1583.0</ele>
  <time>2026-09-02T20:50:32Z</time>
  <course>0.0</course>
  <speed>0.0</speed>
  <fix>3d</fix>
</trkpt>
<trkpt lat="40.0713749" lon="-105.229789">
  <ele>1583.0</ele>
  <time>2026-09-02T20:50:32Z</time>
  <course>0.0</course>
  <speed>0.0</speed>
  <fix>3d</fix>
</trkpt>
<trkpt lat="40.0713749" lon="-105.229789">
  <ele>1583.0</ele>
  <time>2026-09-02T20:50:32Z</time>
  <course>0.0</course>
  <speed>0.0</speed>
  <fix>3d</fix>
</trkpt>
<trkpt lat="40.0713749" lon="-105.229789">
  <ele>1583.0</ele>
  <time>2026-09-02T20:50:32Z</time>
  <course>0.0</course>
  <speed>0.0</speed>
  <fix>3d</fix>
</trkpt>
<trkpt lat="40.0713749" lon="-105.229789">
  <ele>1583.0</ele>
  <time>2026-09-02T20:50:32Z</time>
  <course>0.0</course>
  <speed>0.0</speed>
  <fix>3d</fix>
</trkpt>
<trkpt lat="40.0713749" lon="-105.229789">
  <ele>1583.0</ele>
  <time>2026-09-02T20:50:32Z</time>
  <course>0.0</course>
  <speed>0.0</speed>
  <fix>3d</fix>
</trkpt>
<trkpt lat="40.0713749" lon="-105.229789">
  <ele>1583.0</ele>
  <time>2026-09-02T20:50:32Z</time>
  <course>0.0</course>
  <speed>0.0</speed>
  <fix>3d</fix>
</trkpt>
<trkpt lat="40.0713749" lon="-105.229789">
  <ele>1583.0</ele>
  <time>2026-09-02T20:50:32Z</time>
  <course>0.0</course>
  <speed>0.0</speed>
  <fix>3d</fix>
</trkpt>
<trkpt lat="40.0713749" lon="-105.229789">
  <ele>1583.0</ele>
  <time>2026-09-02T20:50:32Z</time>
  <course>0.0</course>
  <speed>0.0</speed>
  <fix>3d</fix>
</trkpt>
<trkpt lat="40.0713749" lon="-105.229789">
  <ele>1583.0</ele>
  <time>2026-09-02T20:50:32Z</time>
  <course>0.0</course>
  <speed>0.0</speed>
  <fix>3d</fix>
</trkpt>
<trkpt lat="40.0713749" lon="-105.229789">
  <ele>1583.0</ele>
  <time>2026-09-02T20:50:32Z</time>
  <course>0.0</course>
  <speed>0.0</speed>
  <fix>3d</fix>
</trkpt>
<trkpt lat="40.0713749" lon="-105.229789">
  <ele>1583.0</ele>
  <time>2026-09-02T20:50:32Z</time>
  <course>0.0</course>
  <speed>0.0</speed>
  <fix>3d</fix>
</trkpt>
<trkpt lat="40.0713749" lon="-105.229789">
  <ele>1583.0</ele>
  <time>2026-09-02T20:50:32Z</time>
  <course>0.0</course>
  <speed>0.0</speed>
  <fix>3d</fix>
</trkpt>
<trkpt lat="40.0713749" lon="-105.229789">
  <ele>1583.0</ele>
  <time>2026-09-02T20:50:32Z</time>
  <course>0.0</course>
  <speed>0.0</speed>
  <fix>3d</fix>
</trkpt>
<trkpt lat="40.0713749" lon="-105.229789">
  <ele>1583.0</ele>
  <time>2026-09-02T20:50:32Z</time>
  <course>0.0</course>
  <speed>0.0</speed>
  <fix>3d</fix>
</trkpt>
<trkpt lat="40.0713749" lon="-105.229789">
  <ele>1583.0</ele>
  <time>2026-09-02T20:50:32Z</time>
  <course>0.0</course>
  <speed>0.0</speed>
  <fix>3d</fix>
</trkpt>
<trkpt lat="40.0713749" lon="-105.229789">
  <ele>1583.0</ele>
  <time>2026-09-02T20:50:32Z</time>
  <course>0.0</course>
  <speed>0.0</speed>
  <fix>3d</fix>
</trkpt>
<trkpt lat="40.0713749" lon="-105.229789">
  <ele>1583.0</ele>
  <time>2026-09-02T20:50:32Z</time>
  <course>0.0</course>
  <speed>0.0</speed>
  <fix>3d</fix>
</trkpt>
<trkpt lat="40.0713749" lon="-105.229789">
  <ele>1583.0</ele>
  <time>2026-09-02T20:50:32Z</time>
  <course>0.0</course>
  <speed>0.0</speed>
  <fix>3d</fix>
</trkpt>
<trkpt lat="40.0713749" lon="-105.229789">
  <ele>1583.0</ele>
  <time>2026-09-02T20:50:32Z</time>
  <course>0.0</course>
  <speed>0.0</speed>
  <fix>3d</fix>
</trkpt>
<trkpt lat="40.0713749" lon="-105.229789">
  <ele>1583.0</ele>
  <time>2026-09-02T20:50:32Z</time>
  <course>0.0</course>
  <speed>0.0</speed>
  <fix>3d</fix>
</trkpt>
<trkpt lat="40.0713749" lon="-105.229789">
  <ele>1583.0</ele>
  <time>2026-09-02T20:50:32Z</time>
  <course>0.0</course>
  <speed>0.0</speed>
  <fix>3d</fix>
</trkpt>
<trkpt lat="40.0713749" lon="-105.229789">
  <ele>1583.0</ele>
  <time>2026-09-02T20:50:32Z</time>
  <course>0.0</course>
  <speed>0.0</speed>
  <fix>3d</fix>
</trkpt>
<trkpt lat="40.0713749" lon="-105.229789">
  <ele>1583.0</ele>
  <time>2026-09-02T20:50:32Z</time>
  <course>0.0</course>
  <speed>0.0</speed>
  <fix>3d</fix>
</trkpt>
<trkpt lat="40.0713749" lon="-105.229789">
  <ele>1583.0</ele>
  <time>2026-09-02T20:50:32Z</time>
  <course>0.0</course>
  <speed>0.0</speed>
  <fix>3d</fix>
</trkpt>
<trkpt lat="40.0713749" lon="-105.229789">
  <ele>1583.0</ele>
  <time>2026-09-02T20:50:32Z</time>
  <course>0.0</course>
  <speed>0.0</speed>
  <fix>3d</fix>
</trkpt>
<trkpt lat="40.0713749" lon="-105.229789">
  <ele>1583.0</ele>
  <time>2026-09-02T20:50:32Z</time>
  <course>0.0</course>
  <speed>0.0</speed>
  <fix>3d</fix>
</trkpt>
<trkpt lat="40.0713749" lon="-105.229789">
  <ele>1583.0</ele>
  <time>2026-09-02T20:50:32Z</time>
  <course>0.0</course>
  <speed>0.0</speed>
  <fix>3d</fix>
</trkpt>
<trkpt lat="40.0713749" lon="-105.229789">
  <ele>1583.0</ele>
  <time>2026-09-02T20:50:32Z</time>
  <course>0.0</course>
  <speed>0.0</speed>
  <fix>3d</fix>
</trkpt>
<trkpt lat="40.0713749" lon="-105.229789">
  <ele>1583.0</ele>
  <time>2026-09-02T20:50:32Z</time>
  <course>0.0</course>
  <speed>0.0</speed>
  <fix>3d</fix>
</trkpt>
<trkpt lat="40.0713749" lon="-105.229789">
  <ele>1583.0</ele>
  <time>2026-09-02T20:50:32Z</time>
  <course>0.0</course>
  <speed>0.0</speed>
  <fix>3d</fix>
</trkpt>
<trkpt lat="40.0713749" lon="-105.229789">
  <ele>1583.0</ele>
  <time>2026-09-02T20:50:32Z</time>
  <course>0.0</course>
  <speed>0.0</speed>
  <fix>3d</fix>
</trkpt>
<trkpt lat="40.0713749" lon="-105.229789">
  <ele>1583.0</ele>
  <time>2026-09-02T20:50:32Z</time>
  <course>0.0</course>
  <speed>0.0</speed>
  <fix>3d</fix>
</trkpt>
<trkpt lat="40.0713749" lon="-105.229789">
  <ele>1583.0</ele>
  <time>2026-09-02T20:50:32Z</time>
  <course>0.0</course>
  <speed>0.0</speed>
  <fix>3d</fix>
</trkpt>
<trkpt lat="40.0713749" lon="-105.229789">
  <ele>1583.0</ele>
  <time>2026-09-02T20:50:32Z</time>
  <course>0.0</course>
  <speed>0.0</speed>
  <fix>3d</fix>
</trkpt>
<trkpt lat="40.0713749" lon="-105.229789">
  <ele>1583.0</ele>
  <time>2026-09-02T20:50:32Z</time>
  <course>0.0</course>
  <speed>0.0</speed>
  <fix>3d</fix>
</trkpt>
<trkpt lat="40.0713749" lon="-105.229789">
  <ele>1583.0</ele>
  <time>2026-09-02T20:50:32Z</time>
  <course>0.0</course>
  <speed>0.0</speed>
  <fix>3d</fix>
</trkpt>
<trkpt lat="40.0713749" lon="-105.229789">
  <ele>1583.0</ele>
  <time>2026-09-02T20:50:32Z</time>
  <course>0.0</course>
  <speed>0.0</speed>
  <fix>3d</fix>
</trkpt>
<trkpt lat="40.0713749" lon="-105.229789">
  <ele>1583.0</ele>
  <time>2026-09-02T20:50:32Z</time>
  <course>0.0</course>
  <speed>0.0</speed>
  <fix>3d</fix>
</trkpt>
<trkpt lat="40.0713749" lon="-105.229789">
  <ele>1583.0</ele>
  <time>2026-09-02T20:50:32Z</time>
  <course>0.0</course>
  <speed>0.0</speed>
  <fix>3d</fix>
</trkpt>
<trkpt lat="40.0713749" lon="-105.229789">
  <ele>1583.0</ele>
  <time>2026-09-02T20:50:32Z</time>
  <course>0.0</course>
  <speed>0.0</speed>
  <fix>3d</fix>
</trkpt>
<trkpt lat="40.0713749" lon="-105.229789">
  <ele>1583.0</ele>
  <time>2026-09-02T20:50:32Z</time>
  <course>0.0</course>
  <speed>0.0</speed>
  <fix>3d</fix>
</trkpt>
<trkpt lat="40.0713749" lon="-105.229789">
  <ele>1583.0</ele>
  <time>2026-09-02T20:50:32Z</time>
  <course>0.0</course>
  <speed>0.0</speed>
  <fix>3d</fix>
</trkpt>
<trkpt lat="40.0713749" lon="-105.229789">
  <ele>1583.0</ele>
  <time>2026-09-02T20:50:32Z</time>
  <course>0.0</course>
  <speed>0.0</speed>
  <fix>3d</fix>
</trkpt>
<trkpt lat="40.0713749" lon="-105.229789">
  <ele>1583.0</ele>
  <time>2026-09-02T20:50:32Z</time>
  <course>0.0</course>
  <speed>0.0</speed>
  <fix>3d</fix>
</trkpt>
<trkpt lat="40.0713749" lon="-105.229789">
  <ele>1583.0</ele>
  <time>2026-09-02T20:50:32Z</time>
  <course>0.0</course>
  <speed>0.0</speed>
  <fix>3d</fix>
</trkpt>
<trkpt lat="40.0713749" lon="-105.229789">
  <ele>1583.0</ele>
  <time>2026-09-02T20:50:32Z</time>
  <course>0.0</course>
  <speed>0.0</speed>
  <fix>3d</fix>
</trkpt>
<trkpt lat="40.0713749" lon="-105.229789">
  <ele>1583.0</ele>
  <time>2026-09-02T20:50:32Z</time>
  <course>0.0</course>
  <speed>0.0</speed>
  <fix>3d</fix>
</trkpt>
<trkpt lat="40.0713749" lon="-105.229789">
  <ele>1583.0</ele>
  <time>2026-09-02T20:50:32Z</time>
  <course>0.0</course>
  <speed>0.0</speed>
  <fix>3d</fix>
</trkpt>
<trkpt lat="40.0713749" lon="-105.229789">
  <ele>1583.0</ele>
  <time>2026-09-02T20:50:32Z</time>
  <course>0.0</course>
  <speed>0.0</speed>
  <fix>3d</fix>
</trkpt>
<trkpt lat="40.0713749" lon="-105.229789">
  <ele>1583.0</ele>
  <time>2026-09-02T20:50:32Z</time>
  <course>0.0</course>
  <speed>0.0</speed>
  <fix>3d</fix>
</trkpt>
<trkpt lat="40.0713749" lon="-105.229789">
  <ele>1583.0</ele>
  <time>2026-09-02T20:50:32Z</time>
  <course>0.0</course>
  <speed>0.0</speed>
  <fix>3d</fix>
</trkpt>
<trkpt lat="40.0713749" lon="-105.229789">
  <ele>1583.0</ele>
  <time>2026-09-02T20:50:32Z</time>
  <course>0.0</course>
  <speed>0.0</speed>
  <fix>3d</fix>
</trkpt>
<trkpt lat="40.0713749" lon="-105.229789">
  <ele>1583.0</ele>
  <time>2026-09-02T20:50:32Z</time>
  <course>0.0</course>
  <speed>0.0</speed>
  <fix>3d</fix>
</trkpt>
<trkpt lat="40.0713749" lon="-105.229789">
  <ele>1583.0</ele>
  <time>2026-09-02T20:50:32Z</time>
  <course>0.0</course>
  <speed>0.0</speed>
  <fix>3d</fix>
</trkpt>
<trkpt lat="40.0713749" lon="-105.229789">
  <ele>1583.0</ele>
  <time>2026-09-02T20:50:32Z</time>
  <course>0.0</course>
  <speed>0.0</speed>
  <fix>3d</fix>
</trkpt>
<trkpt lat="40.0713749" lon="-105.229789">
  <ele>1583.0</ele>
  <time>2026-09-02T20:50:32Z</time>
  <course>0.0</course>
  <speed>0.0</speed>
  <fix>3d</fix>
</trkpt>
<trkpt lat="40.0713749" lon="-105.229789">
  <ele>1583.0</ele>
  <time>2026-09-02T20:50:32Z</time>
  <course>0.0</course>
  <speed>0.0</speed>
  <fix>3d</fix>
</trkpt>
<trkpt lat="40.0713749" lon="-105.229789">
  <ele>1583.0</ele>
  <time>2026-09-02T20:50:32Z</time>
  <course>0.0</course>
  <speed>0.0</speed>
  <fix>3d</fix>
</trkpt>
<trkpt lat="40.0713749" lon="-105.229789">
  <ele>1583.0</ele>
  <time>2026-09-02T20:50:32Z</time>
  <course>0.0</course>
  <speed>0.0</speed>
  <fix>3d</fix>
</trkpt>
<trkpt lat="40.0713749" lon="-105.229789">
  <ele>1583.0</ele>
  <time>2026-09-02T20:50:32Z</time>
  <course>0.0</course>
  <speed>0.0</speed>
  <fix>3d</fix>
</trkpt>
<trkpt lat="40.0713749" lon="-105.229789">
  <ele>1583.0</ele>
  <time>2026-09-02T20:50:32Z</time>
  <course>0.0</course>
  <speed>0.0</speed>
  <fix>3d</fix>
</trkpt>
<trkpt lat="40.0713749" lon="-105.229789">
  <ele>1583.0</ele>
  <time>2026-09-02T20:50:32Z</time>
  <course>0.0</course>
  <speed>0.0</speed>
  <fix>3d</fix>
</trkpt>
<trkpt lat="40.0713749" lon="-105.229789">
  <ele>1583.0</ele>
  <time>2026-09-02T20:50:32Z</time>
  <course>0.0</course>
  <speed>0.0</speed>
  <fix>3d</fix>
</trkpt>
<trkpt lat="40.0713749" lon="-105.229789">
  <ele>1583.0</ele>
  <time>2026-09-02T20:50:32Z</time>
  <course>0.0</course>
  <speed>0.0</speed>
  <fix>3d</fix>
</trkpt>
<trkpt lat="40.0713749" lon="-105.229789">
  <ele>1583.0</ele>
  <time>2026-09-02T20:50:32Z</time>
  <course>0.0</course>
  <speed>0.0</speed>
  <fix>3d</fix>
</trkpt>
<trkpt lat="40.0713749" lon="-105.229789">
  <ele>1583.0</ele>
  <time>2026-09-02T20:50:32Z</time>
  <course>0.0</course>
  <speed>0.0</speed>
  <fix>3d</fix>
</trkpt>
<trkpt lat="40.0713749" lon="-105.229789">
  <ele>1583.0</ele>
  <time>2026-09-02T20:50:32Z</time>
  <course>0.0</course>
  <speed>0.0</speed>
  <fix>3d</fix>
</trkpt>
<trkpt lat="40.0713749" lon="-105.229789">
  <ele>1583.0</ele>
  <time>2026-09-02T20:50:32Z</time>
  <course>0.0</course>
  <speed>0.0</speed>
  <fix>3d</fix>
</trkpt>
<trkpt lat="40.0713749" lon="-105.229789">
  <ele>1583.0</ele>
  <time>2026-09-02T20:50:32Z</time>
  <course>0.0</course>
  <speed>0.0</speed>
  <fix>3d</fix>
</trkpt>
<trkpt lat="40.0713749" lon="-105.229789">
  <ele>1583.0</ele>
  <time>2026-09-02T20:50:32Z</time>
  <course>0.0</course>
  <speed>0.0</speed>
  <fix>3d</fix>
</trkpt>
<trkpt lat="40.0713749" lon="-105.229789">
  <ele>1583.0</ele>
  <time>2026-09-02T20:50:32Z</time>
  <course>0.0</course>
  <speed>0.0</speed>
  <fix>3d</fix>
</trkpt>
<trkpt lat="40.0713749" lon="-105.229789">
  <ele>1583.0</ele>
  <time>2026-09-02T20:50:32Z</time>
  <course>0.0</course>
  <speed>0.0</speed>
  <fix>3d</fix>
</trkpt>
<trkpt lat="40.0713749" lon="-105.229789">
  <ele>1583.0</ele>
  <time>2026-09-02T20:50:32Z</time>
  <course>0.0</course>
  <speed>0.0</speed>
  <fix>3d</fix>
</trkpt>
<trkpt lat="40.0713749" lon="-105.229789">
  <ele>1583.0</ele>
  <time>2026-09-02T20:50:32Z</time>
  <course>0.0</course>
  <speed>0.0</speed>
  <fix>3d</fix>
</trkpt>
<trkpt lat="40.0713749" lon="-105.229789">
  <ele>1583.0</ele>
  <time>2026-09-02T20:50:32Z</time>
  <course>0.0</course>
  <speed>0.0</speed>
  <fix>3d</fix>
</trkpt>
<trkpt lat="40.0713749" lon="-105.229789">
  <ele>1583.0</ele>
  <time>2026-09-02T20:50:32Z</time>
  <course>0.0</course>
  <speed>0.0</speed>
  <fix>3d</fix>
</trkpt>
<trkpt lat="40.0713749" lon="-105.229789">
  <ele>1583.0</ele>
  <time>2026-09-02T20:50:32Z</time>
  <course>0.0</course>
  <speed>0.0</speed>
  <fix>3d</fix>
</trkpt>
<trkpt lat="40.0713749" lon="-105.229789">
  <ele>1583.0</ele>
  <time>2026-09-02T20:50:32Z</time>
  <course>0.0</course>
  <speed>0.0</speed>
  <fix>3d</fix>
</trkpt>
<trkpt lat="40.0713749" lon="-105.229789">
  <ele>1583.0</ele>
  <time>2026-09-02T20:50:32Z</time>
  <course>0.0</course>
  <speed>0.0</speed>
  <fix>3d</fix>
</trkpt>
<trkpt lat="40.0713749" lon="-105.229789">
  <ele>1583.0</ele>
  <time>2026-09-02T20:50:32Z</time>
  <course>0.0</course>
  <speed>0.0</speed>
  <fix>3d</fix>
</trkpt>
<trkpt lat="40.0713749" lon="-105.229789">
  <ele>1583.0</ele>
  <time>2026-09-02T20:50:32Z</time>
  <course>0.0</course>
  <speed>0.0</speed>
  <fix>3d</fix>
</trkpt>
<trkpt lat="40.0713749" lon="-105.229789">
  <ele>1583.0</ele>
  <time>2026-09-02T20:50:32Z</time>
  <course>0.0</course>
  <speed>0.0</speed>
  <fix>3d</fix>
</trkpt>
<trkpt lat="40.0713749" lon="-105.229789">
  <ele>1583.0</ele>
  <time>2026-09-02T20:50:32Z</time>
  <course>0.0</course>
  <speed>0.0</speed>
  <fix>3d</fix>
</trkpt>
<trkpt lat="40.0713749" lon="-105.229789">
  <ele>1583.0</ele>
  <time>2026-09-02T20:50:32Z</time>
  <course>0.0</course>
  <speed>0.0</speed>
  <fix>3d</fix>
</trkpt>
<trkpt lat="40.0713749" lon="-105.229789">
  <ele>1583.0</ele>
  <time>2026-09-02T20:50:32Z</time>
  <course>0.0</course>
  <speed>0.0</speed>
  <fix>3d</fix>
</trkpt>
<trkpt lat="40.0713749" lon="-105.229789">
  <ele>1583.0</ele>
  <time>2026-09-02T20:50:32Z</time>
  <course>0.0</course>
  <speed>0.0</speed>
  <fix>3d</fix>
</trkpt>
<trkpt lat="40.0713749" lon="-105.229789">
  <ele>1583.0</ele>
  <time>2026-09-02T20:50:32Z</time>
  <course>0.0</course>
  <speed>0.0</speed>
  <fix>3d</fix>
</trkpt>
<trkpt lat="40.0713749" lon="-105.229789">
  <ele>1583.0</ele>
  <time>2026-09-02T20:50:32Z</time>
  <course>0.0</course>
  <speed>0.0</speed>
  <fix>3d</fix>
</trkpt>
<trkpt lat="40.0713749" lon="-105.229789">
  <ele>1583.0</ele>
  <time>2026-09-02T20:50:32Z</time>
  <course>0.0</course>
  <speed>0.0</speed>
  <fix>3d</fix>
</trkpt>
<trkpt lat="40.0713749" lon="-105.229789">
  <ele>1583.0</ele>
  <time>2026-09-02T20:50:32Z</time>
  <course>0.0</course>
  <speed>0.0</speed>
  <fix>3d</fix>
</trkpt>
<trkpt lat="40.0713749" lon="-105.229789">
  <ele>1583.0</ele>
  <time>2026-09-02T20:50:32Z</time>
  <course>0.0</course>
  <speed>0.0</speed>
  <fix>3d</fix>
</trkpt>
<trkpt lat="40.0713749" lon="-105.229789">
  <ele>1583.0</ele>
  <time>2026-09-02T20:50:32Z</time>
  <course>0.0</course>
  <speed>0.0</speed>
  <fix>3d</fix>
</trkpt>
<trkpt lat="40.0713749" lon="-105.229789">
  <ele>1583.0</ele>
  <time>2026-09-02T20:50:32Z</time>
  <course>0.0</course>
  <speed>0.0</speed>
  <fix>3d</fix>
</trkpt>
<trkpt lat="40.0713749" lon="-105.229789">
  <ele>1583.0</ele>
  <time>2026-09-02T20:50:32Z</time>
  <course>0.0</course>
  <speed>0.0</speed>
  <fix>3d</fix>
</trkpt>
<trkpt lat="40.0713749" lon="-105.229789">
  <ele>1583.0</ele>
  <time>2026-09-02T20:50:32Z</time>
  <course>0.0</course>
  <speed>0.0</speed>
  <fix>3d</fix>
</trkpt>
<trkpt lat="40.0713749" lon="-105.229789">
  <ele>1583.0</ele>
  <time>2026-09-02T20:50:32Z</time>
  <course>0.0</course>
  <speed>0.0</speed>
  <fix>3d</fix>
</trkpt>
<trkpt lat="40.0713749" lon="-105.229789">
  <ele>1583.0</ele>
  <time>2026-09-02T20:50:32Z</time>
  <course>0.0</course>
  <speed>0.0</speed>
  <fix>3d</fix>
</trkpt>
<trkpt lat="40.0713749" lon="-105.229789">
  <ele>1583.0</ele>
  <time>2026-09-02T20:50:32Z</time>
  <course>0.0</course>
  <speed>0.0</speed>
  <fix>3d</fix>
</trkpt>
<trkpt lat="40.0713749" lon="-105.229789">
  <ele>1583.0</ele>
  <time>2026-09-02T20:50:32Z</time>
  <course>0.0</course>
  <speed>0.0</speed>
  <fix>3d</fix>
</trkpt>
<trkpt lat="40.0713749" lon="-105.229789">
  <ele>1583.0</ele>
  <time>2026-09-02T20:50:32Z</time>
  <course>0.0</course>
  <speed>0.0</speed>
  <fix>3d</fix>
</trkpt>
<trkpt lat="40.0713749" lon="-105.229789">
  <ele>1583.0</ele>
  <time>2026-09-02T20:50:32Z</time>
  <course>0.0</course>
  <speed>0.0</speed>
  <fix>3d</fix>
</trkpt>
<trkpt lat="40.0713749" lon="-105.229789">
  <ele>1583.0</ele>
  <time>2026-09-02T20:50:32Z</time>
  <course>0.0</course>
  <speed>0.0</speed>
  <fix>3d</fix>
</trkpt>
<trkpt lat="40.0713749" lon="-105.229789">
  <ele>1583.0</ele>
  <time>2026-09-02T20:50:32Z</time>
  <course>0.0</course>
  <speed>0.0</speed>
  <fix>3d</fix>
</trkpt>
<trkpt lat="40.0713749" lon="-105.229789">
  <ele>1583.0</ele>
  <time>2026-09-02T20:50:32Z</time>
  <course>0.0</course>
  <speed>0.0</speed>
  <fix>3d</fix>
</trkpt>
<trkpt lat="40.0713749" lon="-105.229789">
  <ele>1583.0</ele>
  <time>2026-09-02T20:50:32Z</time>
  <course>0.0</course>
  <speed>0.0</speed>
  <fix>3d</fix>
</trkpt>
<trkpt lat="40.0713749" lon="-105.229789">
  <ele>1583.0</ele>
  <time>2026-09-02T20:50:32Z</time>
  <course>0.0</course>
  <speed>0.0</speed>
  <fix>3d</fix>
</trkpt>
<trkpt lat="40.0713749" lon="-105.229789">
  <ele>1583.0</ele>
  <time>2026-09-02T20:50:32Z</time>
  <course>0.0</course>
  <speed>0.0</speed>
  <fix>3d</fix>
</trkpt>
<trkpt lat="40.0713749" lon="-105.229789">
  <ele>1583.0</ele>
  <time>2026-09-02T20:50:32Z</time>
  <course>0.0</course>
  <speed>0.0</speed>
  <fix>3d</fix>
</trkpt>
<trkpt lat="40.0713749" lon="-105.229789">
  <ele>1583.0</ele>
  <time>2026-09-02T20:50:32Z</time>
  <course>0.0</course>
  <speed>0.0</speed>
  <fix>3d</fix>
</trkpt>
<trkpt lat="40.0713749" lon="-105.229789">
  <ele>1583.0</ele>
  <time>2026-09-02T20:50:32Z</time>
  <course>0.0</course>
  <speed>0.0</speed>
  <fix>3d</fix>
</trkpt>
<trkpt lat="40.0713749" lon="-105.229789">
  <ele>1583.0</ele>
  <time>2026-09-02T20:50:32Z</time>
  <course>0.0</course>
  <speed>0.0</speed>
  <fix>3d</fix>
</trkpt>
<trkpt lat="40.0713749" lon="-105.229789">
  <ele>1583.0</ele>
  <time>2026-09-02T20:50:32Z</time>
  <course>0.0</course>
  <speed>0.0</speed>
  <fix>3d</fix>
</trkpt>
<trkpt lat="40.0713749" lon="-105.229789">
  <ele>1583.0</ele>
  <time>2026-09-02T20:50:32Z</time>
  <course>0.0</course>
  <speed>0.0</speed>
  <fix>3d</fix>
</trkpt>
<trkpt lat="40.0713749" lon="-105.229789">
  <ele>1583.0</ele>
  <time>2026-09-02T20:50:32Z</time>
  <course>0.0</course>
  <speed>0.0</speed>
  <fix>3d</fix>
</trkpt>
<trkpt lat="40.0713749" lon="-105.229789">
  <ele>1583.0</ele>
  <time>2026-09-02T20:50:32Z</time>
  <course>0.0</course>
  <speed>0.0</speed>
  <fix>3d</fix>
</trkpt>
<trkpt lat="40.0713749" lon="-105.229789">
  <ele>1583.0</ele>
  <time>2026-09-02T20:50:32Z</time>
  <course>0.0</course>
  <speed>0.0</speed>
  <fix>3d</fix>
</trkpt>
<trkpt lat="40.0713749" lon="-105.229789">
  <ele>1583.0</ele>
  <time>2026-09-02T20:50:32Z</time>
  <course>0.0</course>
  <speed>0.0</speed>
  <fix>3d</fix>
</trkpt>
<trkpt lat="40.0713749" lon="-105.229789">
  <ele>1583.0</ele>
  <time>2026-09-02T20:50:32Z</time>
  <course>0.0</course>
  <speed>0.0</speed>
  <fix>3d</fix>
</trkpt>
<trkpt lat="40.0713749" lon="-105.229789">
  <ele>1583.0</ele>
  <time>2026-09-02T20:50:32Z</time>
  <course>0.0</course>
  <speed>0.0</speed>
  <fix>3d</fix>
</trkpt>
<trkpt lat="40.0713749" lon="-105.229789">
  <ele>1583.0</ele>
  <time>2026-09-02T20:50:32Z</time>
  <course>0.0</course>
  <speed>0.0</speed>
  <fix>3d</fix>
</trkpt>
<trkpt lat="40.0713749" lon="-105.229789">
  <ele>1583.0</ele>
  <time>2026-09-02T20:50:32Z</time>
  <course>0.0</course>
  <speed>0.0</speed>
  <fix>3d</fix>
</trkpt>
<trkpt lat="40.0713749" lon="-105.229789">
  <ele>1583.0</ele>
  <time>2026-09-02T20:50:32Z</time>
  <course>0.0</course>
  <speed>0.0</speed>
  <fix>3d</fix>
</trkpt>
<trkpt lat="40.0713749" lon="-105.229789">
  <ele>1583.0</ele>
  <time>2026-09-02T20:50:32Z</time>
  <course>0.0</course>
  <speed>0.0</speed>
  <fix>3d</fix>
</trkpt>
<trkpt lat="40.0713749" lon="-105.229789">
  <ele>1583.0</ele>
  <time>2026-09-02T20:50:32Z</time>
  <course>0.0</course>
  <speed>0.0</speed>
  <fix>3d</fix>
</trkpt>
<trkpt lat="40.0713749" lon="-105.229789">
  <ele>1583.0</ele>
  <time>2026-09-02T20:50:32Z</time>
  <course>0.0</course>
  <speed>0.0</speed>
  <fix>3d</fix>
</trkpt>
<trkpt lat="40.0713749" lon="-105.229789">
  <ele>1583.0</ele>
  <time>2026-09-02T20:50:32Z</time>
  <course>0.0</course>
  <speed>0.0</speed>
  <fix>3d</fix>
</trkpt>
<trkpt lat="40.0713749" lon="-105.229789">
  <ele>1583.0</ele>
  <time>2026-09-02T20:50:32Z</time>
  <course>0.0</course>
  <speed>0.0</speed>
  <fix>3d</fix>
</trkpt>
<trkpt lat="40.0713749" lon="-105.229789">
  <ele>1583.0</ele>
  <time>2026-09-02T20:50:32Z</time>
  <course>0.0</course>
  <speed>0.0</speed>
  <fix>3d</fix>
</trkpt>
<trkpt lat="40.0713749" lon="-105.229789">
  <ele>1583.0</ele>
  <time>2026-09-02T20:50:32Z</time>
  <course>0.0</course>
  <speed>0.0</speed>
  <fix>3d</fix>
</trkpt>
<trkpt lat="40.0713749" lon="-105.229789">
  <ele>1583.0</ele>
  <time>2026-09-02T20:50:32Z</time>
  <course>0.0</course>
  <speed>0.0</speed>
  <fix>3d</fix>
</trkpt>
<trkpt lat="40.0713749" lon="-105.229789">
  <ele>1583.0</ele>
  <time>2026-09-02T20:50:32Z</time>
  <course>0.0</course>
  <speed>0.0</speed>
  <fix>3d</fix>
</trkpt>
<trkpt lat="40.0713749" lon="-105.229789">
  <ele>1583.0</ele>
  <time>2026-09-02T20:50:32Z</time>
  <course>0.0</course>
  <speed>0.0</speed>
  <fix>3d</fix>
</trkpt>
<trkpt lat="40.0713749" lon="-105.229789">
  <ele>1583.0</ele>
  <time>2026-09-02T20:50:32Z</time>
  <course>0.0</course>
  <speed>0.0</speed>
  <fix>3d</fix>
</trkpt>
<trkpt lat="40.0713749" lon="-105.229789">
  <ele>1583.0</ele>
  <time>2026-09-02T20:50:32Z</time>
  <course>0.0</course>
  <speed>0.0</speed>
  <fix>3d</fix>
</trkpt>
<trkpt lat="40.0713749" lon="-105.229789">
  <ele>1583.0</ele>
  <time>2026-09-02T20:50:32Z</time>
  <course>0.0</course>
  <speed>0.0</speed>
  <fix>3d</fix>
</trkpt>
<trkpt lat="40.0713749" lon="-105.229789">
  <ele>1583.0</ele>
  <time>2026-09-02T20:50:32Z</time>
  <course>0.0</course>
  <speed>0.0</speed>
  <fix>3d</fix>
</trkpt>
<trkpt lat="40.0713749" lon="-105.229789">
  <ele>1583.0</ele>
  <time>2026-09-02T20:50:32Z</time>
  <course>0.0</course>
  <speed>0.0</speed>
  <fix>3d</fix>
</trkpt>
<trkpt lat="40.0713749" lon="-105.229789">
  <ele>1583.0</ele>
  <time>2026-09-02T20:50:32Z</time>
  <course>0.0</course>
  <speed>0.0</speed>
  <fix>3d</fix>
</trkpt>
<trkpt lat="40.0713749" lon="-105.229789">
  <ele>1583.0</ele>
  <time>2026-09-02T20:50:32Z</time>
  <course>0.0</course>
  <speed>0.0</speed>
  <fix>3d</fix>
</trkpt>
<trkpt lat="40.0713749" lon="-105.229789">
  <ele>1583.0</ele>
  <time>2026-09-02T20:50:32Z</time>
  <course>0.0</course>
  <speed>0.0</speed>
  <fix>3d</fix>
</trkpt>
<trkpt lat="40.0713749" lon="-105.229789">
  <ele>1583.0</ele>
  <time>2026-09-02T20:50:32Z</time>
  <course>0.0</course>
  <speed>0.0</speed>
  <fix>3d</fix>
</trkpt>
<trkpt lat="40.0713749" lon="-105.229789">
  <ele>1583.0</ele>
  <time>2026-09-02T20:50:32Z</time>
  <course>0.0</course>
  <speed>0.0</speed>
  <fix>3d</fix>
</trkpt>
<trkpt lat="40.0713749" lon="-105.229789">
  <ele>1583.0</ele>
  <time>2026-09-02T20:50:32Z</time>
  <course>0.0</course>
  <speed>0.0</speed>
  <fix>3d</fix>
</trkpt>
<trkpt lat="40.0713749" lon="-105.229789">
  <ele>1583.0</ele>
  <time>2026-09-02T20:50:32Z</time>
  <course>0.0</course>
  <speed>0.0</speed>
  <fix>3d</fix>
</trkpt>
<trkpt lat="40.0713749" lon="-105.229789">
  <ele>1583.0</ele>
  <time>2026-09-02T20:50:32Z</time>
  <course>0.0</course>
  <speed>0.0</speed>
  <fix>3d</fix>
</trkpt>
<trkpt lat="40.0713749" lon="-105.229789">
  <ele>1583.0</ele>
  <time>2026-09-02T20:50:32Z</time>
  <course>0.0</course>
  <speed>0.0</speed>
  <fix>3d</fix>
</trkpt>
<trkpt lat="40.0713749" lon="-105.229789">
  <ele>1583.0</ele>
  <time>2026-09-02T20:50:32Z</time>
  <course>0.0</course>
  <speed>0.0</speed>
  <fix>3d</fix>
</trkpt>
<trkpt lat="40.0713749" lon="-105.229789">
  <ele>1583.0</ele>
  <time>2026-09-02T20:50:32Z</time>
  <course>0.0</course>
  <speed>0.0</speed>
  <fix>3d</fix>
</trkpt>
<trkpt lat="40.0713749" lon="-105.229789">
  <ele>1583.0</ele>
  <time>2026-09-02T20:50:32Z</time>
  <course>0.0</course>
  <speed>0.0</speed>
  <fix>3d</fix>
</trkpt>
<trkpt lat="40.0713749" lon="-105.229789">
  <ele>1583.0</ele>
  <time>2026-09-02T20:50:32Z</time>
  <course>0.0</course>
  <speed>0.0</speed>
  <fix>3d</fix>
</trkpt>
<trkpt lat="40.0713749" lon="-105.229789">
  <ele>1583.0</ele>
  <time>2026-09-02T20:50:32Z</time>
  <course>0.0</course>
  <speed>0.0</speed>
  <fix>3d</fix>
</trkpt>
<trkpt lat="40.0713749" lon="-105.229789">
  <ele>1583.0</ele>
  <time>2026-09-02T20:50:32Z</time>
  <course>0.0</course>
  <speed>0.0</speed>
  <fix>3d</fix>
</trkpt>
<trkpt lat="40.0713749" lon="-105.229789">
  <ele>1583.0</ele>
  <time>2026-09-02T20:50:32Z</time>
  <course>0.0</course>
  <speed>0.0</speed>
  <fix>3d</fix>
</trkpt>
<trkpt lat="40.0713749" lon="-105.229789">
  <ele>1583.0</ele>
  <time>2026-09-02T20:50:32Z</time>
  <course>0.0</course>
  <speed>0.0</speed>
  <fix>3d</fix>
</trkpt>
<trkpt lat="40.0713749" lon="-105.229789">
  <ele>1583.0</ele>
  <time>2026-09-02T20:50:32Z</time>
  <course>0.0</course>
  <speed>0.0</speed>
  <fix>3d</fix>
</trkpt>
<trkpt lat="40.0713749" lon="-105.229789">
  <ele>1583.0</ele>
  <time>2026-09-02T20:50:32Z</time>
  <course>0.0</course>
  <speed>0.0</speed>
  <fix>3d</fix>
</trkpt>
<trkpt lat="40.0713749" lon="-105.229789">
  <ele>1583.0</ele>
  <time>2026-09-02T20:50:32Z</time>
  <course>0.0</course>
  <speed>0.0</speed>
  <fix>3d</fix>
</trkpt>
<trkpt lat="40.0713749" lon="-105.229789">
  <ele>1583.0</ele>
  <time>2026-09-02T20:50:32Z</time>
  <course>0.0</course>
  <speed>0.0</speed>
  <fix>3d</fix>
</trkpt>
<trkpt lat="40.0713749" lon="-105.229789">
  <ele>1583.0</ele>
  <time>2026-09-02T20:50:32Z</time>
  <course>0.0</course>
  <speed>0.0</speed>
  <fix>3d</fix>
</trkpt>
<trkpt lat="40.0713749" lon="-105.229789">
  <ele>1583.0</ele>
  <time>2026-09-02T20:50:32Z</time>
  <course>0.0</course>
  <speed>0.0</speed>
  <fix>3d</fix>
</trkpt>
<trkpt lat="40.0713749" lon="-105.229789">
  <ele>1583.0</ele>
  <time>2026-09-02T20:50:32Z</time>
  <course>0.0</course>
  <speed>0.0</speed>
  <fix>3d</fix>
</trkpt>
<trkpt lat="40.0713749" lon="-105.229789">
  <ele>1583.0</ele>
  <time>2026-09-02T20:50:32Z</time>
  <course>0.0</course>
  <speed>0.0</speed>
  <fix>3d</fix>
</trkpt>
<trkpt lat="40.0713749" lon="-105.229789">
  <ele>1583.0</ele>
  <time>2026-09-02T20:50:32Z</time>
  <course>0.0</course>
  <speed>0.0</speed>
  <fix>3d</fix>
</trkpt>
<trkpt lat="40.0713749" lon="-105.229789">
  <ele>1583.0</ele>
  <time>2026-09-02T20:50:32Z</time>
  <course>0.0</course>
  <speed>0.0</speed>
  <fix>3d</fix>
</trkpt>
<trkpt lat="40.0713749" lon="-105.229789">
  <ele>1583.0</ele>
  <time>2026-09-02T20:50:32Z</time>
  <course>0.0</course>
  <speed>0.0</speed>
  <fix>3d</fix>
</trkpt>
<trkpt lat="40.0713749" lon="-105.229789">
  <ele>1583.0</ele>
  <time>2026-09-02T20:50:32Z</time>
  <course>0.0</course>
  <speed>0.0</speed>
  <fix>3d</fix>
</trkpt>
<trkpt lat="40.0713749" lon="-105.229789">
  <ele>1583.0</ele>
  <time>2026-09-02T20:50:32Z</time>
  <course>0.0</course>
  <speed>0.0</speed>
  <fix>3d</fix>
</trkpt>
<trkpt lat="40.0713749" lon="-105.229789">
  <ele>1583.0</ele>
  <time>2026-09-02T20:50:32Z</time>
  <course>0.0</course>
  <speed>0.0</speed>
  <fix>3d</fix>
</trkpt>
<trkpt lat="40.0713749" lon="-105.229789">
  <ele>1583.0</ele>
  <time>2026-09-02T20:50:32Z</time>
  <course>0.0</course>
  <speed>0.0</speed>
  <fix>3d</fix>
</trkpt>
<trkpt lat="40.0713749" lon="-105.229789">
  <ele>1583.0</ele>
  <time>2026-09-02T20:50:32Z</time>
  <course>0.0</course>
  <speed>0.0</speed>
  <fix>3d</fix>
</trkpt>
<trkpt lat="40.0713749" lon="-105.229789">
  <ele>1583.0</ele>
  <time>2026-09-02T20:50:32Z</time>
  <course>0.0</course>
  <speed>0.0</speed>
  <fix>3d</fix>
</trkpt>
<trkpt lat="40.0713749" lon="-105.229789">
  <ele>1583.0</ele>
  <time>2026-09-02T20:50:32Z</time>
  <course>0.0</course>
  <speed>0.0</speed>
  <fix>3d</fix>
</trkpt>
<trkpt lat="40.0713749" lon="-105.229789">
  <ele>1583.0</ele>
  <time>2026-09-02T20:50:32Z</time>
  <course>0.0</course>
  <speed>0.0</speed>
  <fix>3d</fix>
</trkpt>
<trkpt lat="40.0713749" lon="-105.229789">
  <ele>1583.0</ele>
  <time>2026-09-02T20:50:32Z</time>
  <course>0.0</course>
  <speed>0.0</speed>
  <fix>3d</fix>
</trkpt>
<trkpt lat="40.0713749" lon="-105.229789">
  <ele>1583.0</ele>
  <time>2026-09-02T20:50:32Z</time>
  <course>0.0</course>
  <speed>0.0</speed>
  <fix>3d</fix>
</trkpt>
<trkpt lat="40.0713749" lon="-105.229789">
  <ele>1583.0</ele>
  <time>2026-09-02T20:50:32Z</time>
  <course>0.0</course>
  <speed>0.0</speed>
  <fix>3d</fix>
</trkpt>
<trkpt lat="40.0713749" lon="-105.229789">
  <ele>1583.0</ele>
  <time>2026-09-02T20:50:32Z</time>
  <course>0.0</course>
  <speed>0.0</speed>
  <fix>3d</fix>
</trkpt>
<trkpt lat="40.0713749" lon="-105.229789">
  <ele>1583.0</ele>
  <time>2026-09-02T20:50:32Z</time>
  <course>0.0</course>
  <speed>0.0</speed>
  <fix>3d</fix>
</trkpt>
<trkpt lat="40.0713749" lon="-105.229789">
  <ele>1583.0</ele>
  <time>2026-09-02T20:50:32Z</time>
  <course>0.0</course>
  <speed>0.0</speed>
  <fix>3d</fix>
</trkpt>
<trkpt lat="40.0713749" lon="-105.229789">
  <ele>1583.0</ele>
  <time>2026-09-02T20:50:32Z</time>
  <course>0.0</course>
  <speed>0.0</speed>
  <fix>3d</fix>
</trkpt>
<trkpt lat="40.0713749" lon="-105.229789">
  <ele>1583.0</ele>
  <time>2026-09-02T20:50:32Z</time>
  <course>0.0</course>
  <speed>0.0</speed>
  <fix>3d</fix>
</trkpt>
<trkpt lat="40.0713749" lon="-105.229789">
  <ele>1583.0</ele>
  <time>2026-09-02T20:50:32Z</time>
  <course>0.0</course>
  <speed>0.0</speed>
  <fix>3d</fix>
</trkpt>
<trkpt lat="40.0713749" lon="-105.229789">
  <ele>1583.0</ele>
  <time>2026-09-02T20:50:33Z</time>
  <course>0.0</course>
  <speed>0.0</speed>
  <fix>3d</fix>
</trkpt>
<trkpt lat="40.0713749" lon="-105.229789">
  <ele>1583.0</ele>
  <time>2026-09-02T20:50:33Z</time>
  <course>0.0</course>
  <speed>0.0</speed>
  <fix>3d</fix>
</trkpt>
<trkpt lat="40.0713749" lon="-105.229789">
  <ele>1583.0</ele>
  <time>2026-09-02T20:50:33Z</time>
  <course>0.0</course>
  <speed>0.0</speed>
  <fix>3d</fix>
</trkpt>
<trkpt lat="40.0713749" lon="-105.229789">
  <ele>1583.0</ele>
  <time>2026-09-02T20:50:33Z</time>
  <course>0.0</course>
  <speed>0.0</speed>
  <fix>3d</fix>
</trkpt>
<trkpt lat="40.0713749" lon="-105.229789">
  <ele>1583.0</ele>
  <time>2026-09-02T20:50:33Z</time>
  <course>0.0</course>
  <speed>0.0</speed>
  <fix>3d</fix>
</trkpt>
<trkpt lat="40.0713749" lon="-105.229789">
  <ele>1583.0</ele>
  <time>2026-09-02T20:50:33Z</time>
  <course>0.0</course>
  <speed>0.0</speed>
  <fix>3d</fix>
</trkpt>
<trkpt lat="40.0713749" lon="-105.229789">
  <ele>1583.0</ele>
  <time>2026-09-02T20:50:33Z</time>
  <course>0.0</course>
  <speed>0.0</speed>
  <fix>3d</fix>
</trkpt>
<trkpt lat="40.0713749" lon="-105.229789">
  <ele>1583.0</ele>
  <time>2026-09-02T20:50:33Z</time>
  <course>0.0</course>
  <speed>0.0</speed>
  <fix>3d</fix>
</trkpt>
<trkpt lat="40.0713749" lon="-105.229789">
  <ele>1583.0</ele>
  <time>2026-09-02T20:50:33Z</time>
  <course>0.0</course>
  <speed>0.0</speed>
  <fix>3d</fix>
</trkpt>
<trkpt lat="40.0713749" lon="-105.229789">
  <ele>1583.0</ele>
  <time>2026-09-02T20:50:33Z</time>
  <course>0.0</course>
  <speed>0.0</speed>
  <fix>3d</fix>
</trkpt>
<trkpt lat="40.0713749" lon="-105.229789">
  <ele>1583.0</ele>
  <time>2026-09-02T20:50:33Z</time>
  <course>0.0</course>
  <speed>0.0</speed>
  <fix>3d</fix>
</trkpt>
<trkpt lat="40.0713749" lon="-105.229789">
  <ele>1583.0</ele>
  <time>2026-09-02T20:50:33Z</time>
  <course>0.0</course>
  <speed>0.0</speed>
  <fix>3d</fix>
</trkpt>
<trkpt lat="40.0713749" lon="-105.229789">
  <ele>1583.0</ele>
  <time>2026-09-02T20:50:33Z</time>
  <course>0.0</course>
  <speed>0.0</speed>
  <fix>3d</fix>
</trkpt>
<trkpt lat="40.0713749" lon="-105.229789">
  <ele>1583.0</ele>
  <time>2026-09-02T20:50:33Z</time>
  <course>0.0</course>
  <speed>0.0</speed>
  <fix>3d</fix>
</trkpt>
<trkpt lat="40.0713749" lon="-105.229789">
  <ele>1583.0</ele>
  <time>2026-09-02T20:50:33Z</time>
  <course>0.0</course>
  <speed>0.0</speed>
  <fix>3d</fix>
</trkpt>
<trkpt lat="40.0713749" lon="-105.229789">
  <ele>1583.0</ele>
  <time>2026-09-02T20:50:33Z</time>
  <course>0.0</course>
  <speed>0.0</speed>
  <fix>3d</fix>
</trkpt>
<trkpt lat="40.0713749" lon="-105.229789">
  <ele>1583.0</ele>
  <time>2026-09-02T20:50:33Z</time>
  <course>0.0</course>
  <speed>0.0</speed>
  <fix>3d</fix>
</trkpt>
<trkpt lat="40.0713749" lon="-105.229789">
  <ele>1583.0</ele>
  <time>2026-09-02T20:50:33Z</time>
  <course>0.0</course>
  <speed>0.0</speed>
  <fix>3d</fix>
</trkpt>
<trkpt lat="40.0713749" lon="-105.229789">
  <ele>1583.0</ele>
  <time>2026-09-02T20:50:33Z</time>
  <course>0.0</course>
  <speed>0.0</speed>
  <fix>3d</fix>
</trkpt>
<trkpt lat="40.0713749" lon="-105.229789">
  <ele>1583.0</ele>
  <time>2026-09-02T20:50:33Z</time>
  <course>0.0</course>
  <speed>0.0</speed>
  <fix>3d</fix>
</trkpt>
<trkpt lat="40.0713749" lon="-105.229789">
  <ele>1583.0</ele>
  <time>2026-09-02T20:50:33Z</time>
  <course>0.0</course>
  <speed>0.0</speed>
  <fix>3d</fix>
</trkpt>
<trkpt lat="40.0713749" lon="-105.229789">
  <ele>1583.0</ele>
  <time>2026-09-02T20:50:33Z</time>
  <course>0.0</course>
  <speed>0.0</speed>
  <fix>3d</fix>
</trkpt>
<trkpt lat="40.0713749" lon="-105.229789">
  <ele>1583.0</ele>
  <time>2026-09-02T20:50:33Z</time>
  <course>0.0</course>
  <speed>0.0</speed>
  <fix>3d</fix>
</trkpt>
<trkpt lat="40.0713749" lon="-105.229789">
  <ele>1583.0</ele>
  <time>2026-09-02T20:50:33Z</time>
  <course>0.0</course>
  <speed>0.0</speed>
  <fix>3d</fix>
</trkpt>
<trkpt lat="40.0713749" lon="-105.229789">
  <ele>1583.0</ele>
  <time>2026-09-02T20:50:33Z</time>
  <course>0.0</course>
  <speed>0.0</speed>
  <fix>3d</fix>
</trkpt>
<trkpt lat="40.0713749" lon="-105.229789">
  <ele>1583.0</ele>
  <time>2026-09-02T20:50:33Z</time>
  <course>0.0</course>
  <speed>0.0</speed>
  <fix>3d</fix>
</trkpt>
<trkpt lat="40.0713749" lon="-105.229789">
  <ele>1583.0</ele>
  <time>2026-09-02T20:50:33Z</time>
  <course>0.0</course>
  <speed>0.0</speed>
  <fix>3d</fix>
</trkpt>
<trkpt lat="40.0713749" lon="-105.229789">
  <ele>1583.0</ele>
  <time>2026-09-02T20:50:33Z</time>
  <course>0.0</course>
  <speed>0.0</speed>
  <fix>3d</fix>
</trkpt>
<trkpt lat="40.0713749" lon="-105.229789">
  <ele>1583.0</ele>
  <time>2026-09-02T20:50:33Z</time>
  <course>0.0</course>
  <speed>0.0</speed>
  <fix>3d</fix>
</trkpt>
<trkpt lat="40.0713749" lon="-105.229789">
  <ele>1583.0</ele>
  <time>2026-09-02T20:50:33Z</time>
  <course>0.0</course>
  <speed>0.0</speed>
  <fix>3d</fix>
</trkpt>
<trkpt lat="40.0713749" lon="-105.229789">
  <ele>1583.0</ele>
  <time>2026-09-02T20:50:33Z</time>
  <course>0.0</course>
  <speed>0.0</speed>
  <fix>3d</fix>
</trkpt>
<trkpt lat="40.0713749" lon="-105.229789">
  <ele>1583.0</ele>
  <time>2026-09-02T20:50:33Z</time>
  <course>0.0</course>
  <speed>0.0</speed>
  <fix>3d</fix>
</trkpt>
<trkpt lat="40.0713749" lon="-105.229789">
  <ele>1583.0</ele>
  <time>2026-09-02T20:50:33Z</time>
  <course>0.0</course>
  <speed>0.0</speed>
  <fix>3d</fix>
</trkpt>
<trkpt lat="40.0713749" lon="-105.229789">
  <ele>1583.0</ele>
  <time>2026-09-02T20:50:33Z</time>
  <course>0.0</course>
  <speed>0.0</speed>
  <fix>3d</fix>
</trkpt>
<trkpt lat="40.0713749" lon="-105.229789">
  <ele>1583.0</ele>
  <time>2026-09-02T20:50:33Z</time>
  <course>0.0</course>
  <speed>0.0</speed>
  <fix>3d</fix>
</trkpt>
<trkpt lat="40.0713749" lon="-105.229789">
  <ele>1583.0</ele>
  <time>2026-09-02T20:50:33Z</time>
  <course>0.0</course>
  <speed>0.0</speed>
  <fix>3d</fix>
</trkpt>
<trkpt lat="40.0713749" lon="-105.229789">
  <ele>1583.0</ele>
  <time>2026-09-02T20:50:33Z</time>
  <course>0.0</course>
  <speed>0.0</speed>
  <fix>3d</fix>
</trkpt>
<trkpt lat="40.0713749" lon="-105.229789">
  <ele>1583.0</ele>
  <time>2026-09-02T20:50:33Z</time>
  <course>0.0</course>
  <speed>0.0</speed>
  <fix>3d</fix>
</trkpt>
<trkpt lat="40.0713749" lon="-105.229789">
  <ele>1583.0</ele>
  <time>2026-09-02T20:50:33Z</time>
  <course>0.0</course>
  <speed>0.0</speed>
  <fix>3d</fix>
</trkpt>
<trkpt lat="40.0713749" lon="-105.229789">
  <ele>1583.0</ele>
  <time>2026-09-02T20:50:33Z</time>
  <course>0.0</course>
  <speed>0.0</speed>
  <fix>3d</fix>
</trkpt>
<trkpt lat="40.0713749" lon="-105.229789">
  <ele>1583.0</ele>
  <time>2026-09-02T20:50:33Z</time>
  <course>0.0</course>
  <speed>0.0</speed>
  <fix>3d</fix>
</trkpt>
<trkpt lat="40.0713749" lon="-105.229789">
  <ele>1583.0</ele>
  <time>2026-09-02T20:50:33Z</time>
  <course>0.0</course>
  <speed>0.0</speed>
  <fix>3d</fix>
</trkpt>
<trkpt lat="40.0713749" lon="-105.229789">
  <ele>1583.0</ele>
  <time>2026-09-02T20:50:33Z</time>
  <course>0.0</course>
  <speed>0.0</speed>
  <fix>3d</fix>
</trkpt>
<trkpt lat="40.0713749" lon="-105.229789">
  <ele>1583.0</ele>
  <time>2026-09-02T20:50:33Z</time>
  <course>0.0</course>
  <speed>0.0</speed>
  <fix>3d</fix>
</trkpt>
<trkpt lat="40.0713749" lon="-105.229789">
  <ele>1583.0</ele>
  <time>2026-09-02T20:50:33Z</time>
  <course>0.0</course>
  <speed>0.0</speed>
  <fix>3d</fix>
</trkpt>
<trkpt lat="40.0713749" lon="-105.229789">
  <ele>1583.0</ele>
  <time>2026-09-02T20:50:33Z</time>
  <course>0.0</course>
  <speed>0.0</speed>
  <fix>3d</fix>
</trkpt>
<trkpt lat="40.0713749" lon="-105.229789">
  <ele>1583.0</ele>
  <time>2026-09-02T20:50:33Z</time>
  <course>0.0</course>
  <speed>0.0</speed>
  <fix>3d</fix>
</trkpt>
<trkpt lat="40.0713749" lon="-105.229789">
  <ele>1583.0</ele>
  <time>2026-09-02T20:50:33Z</time>
  <course>0.0</course>
  <speed>0.0</speed>
  <fix>3d</fix>
</trkpt>
<trkpt lat="40.0713749" lon="-105.229789">
  <ele>1583.0</ele>
  <time>2026-09-02T20:50:33Z</time>
  <course>0.0</course>
  <speed>0.0</speed>
  <fix>3d</fix>
</trkpt>
<trkpt lat="40.0713749" lon="-105.229789">
  <ele>1583.0</ele>
  <time>2026-09-02T20:50:33Z</time>
  <course>0.0</course>
  <speed>0.0</speed>
  <fix>3d</fix>
</trkpt>
<trkpt lat="40.0713749" lon="-105.229789">
  <ele>1583.0</ele>
  <time>2026-09-02T20:50:33Z</time>
  <course>0.0</course>
  <speed>0.0</speed>
  <fix>3d</fix>
</trkpt>
<trkpt lat="40.0713749" lon="-105.229789">
  <ele>1583.0</ele>
  <time>2026-09-02T20:50:33Z</time>
  <course>0.0</course>
  <speed>0.0</speed>
  <fix>3d</fix>
</trkpt>
<trkpt lat="40.0713749" lon="-105.229789">
  <ele>1583.0</ele>
  <time>2026-09-02T20:50:33Z</time>
  <course>0.0</course>
  <speed>0.0</speed>
  <fix>3d</fix>
</trkpt>
<trkpt lat="40.0713749" lon="-105.229789">
  <ele>1583.0</ele>
  <time>2026-09-02T20:50:33Z</time>
  <course>0.0</course>
  <speed>0.0</speed>
  <fix>3d</fix>
</trkpt>
<trkpt lat="40.0713749" lon="-105.229789">
  <ele>1583.0</ele>
  <time>2026-09-02T20:50:33Z</time>
  <course>0.0</course>
  <speed>0.0</speed>
  <fix>3d</fix>
</trkpt>
<trkpt lat="40.0713749" lon="-105.229789">
  <ele>1583.0</ele>
  <time>2026-09-02T20:50:33Z</time>
  <course>0.0</course>
  <speed>0.0</speed>
  <fix>3d</fix>
</trkpt>
<trkpt lat="40.0713749" lon="-105.229789">
  <ele>1583.0</ele>
  <time>2026-09-02T20:50:33Z</time>
  <course>0.0</course>
  <speed>0.0</speed>
  <fix>3d</fix>
</trkpt>
<trkpt lat="40.0713749" lon="-105.229789">
  <ele>1583.0</ele>
  <time>2026-09-02T20:50:33Z</time>
  <course>0.0</course>
  <speed>0.0</speed>
  <fix>3d</fix>
</trkpt>
<trkpt lat="40.0713749" lon="-105.229789">
  <ele>1583.0</ele>
  <time>2026-09-02T20:50:33Z</time>
  <course>0.0</course>
  <speed>0.0</speed>
  <fix>3d</fix>
</trkpt>
<trkpt lat="40.0713749" lon="-105.229789">
  <ele>1583.0</ele>
  <time>2026-09-02T20:50:33Z</time>
  <course>0.0</course>
  <speed>0.0</speed>
  <fix>3d</fix>
</trkpt>
<trkpt lat="40.0713749" lon="-105.229789">
  <ele>1583.0</ele>
  <time>2026-09-02T20:50:33Z</time>
  <course>0.0</course>
  <speed>0.0</speed>
  <fix>3d</fix>
</trkpt>
<trkpt lat="40.0713749" lon="-105.229789">
  <ele>1583.0</ele>
  <time>2026-09-02T20:50:33Z</time>
  <course>0.0</course>
  <speed>0.0</speed>
  <fix>3d</fix>
</trkpt>
<trkpt lat="40.0713749" lon="-105.229789">
  <ele>1583.0</ele>
  <time>2026-09-02T20:50:33Z</time>
  <course>0.0</course>
  <speed>0.0</speed>
  <fix>3d</fix>
</trkpt>
<trkpt lat="40.0713749" lon="-105.229789">
  <ele>1583.0</ele>
  <time>2026-09-02T20:50:33Z</time>
  <course>0.0</course>
  <speed>0.0</speed>
  <fix>3d</fix>
</trkpt>
<trkpt lat="40.0713749" lon="-105.229789">
  <ele>1583.0</ele>
  <time>2026-09-02T20:50:33Z</time>
  <course>0.0</course>
  <speed>0.0</speed>
  <fix>3d</fix>
</trkpt>
<trkpt lat="40.0713749" lon="-105.229789">
  <ele>1583.0</ele>
  <time>2026-09-02T20:50:33Z</time>
  <course>0.0</course>
  <speed>0.0</speed>
  <fix>3d</fix>
</trkpt>
<trkpt lat="40.0713749" lon="-105.229789">
  <ele>1583.0</ele>
  <time>2026-09-02T20:50:33Z</time>
  <course>0.0</course>
  <speed>0.0</speed>
  <fix>3d</fix>
</trkpt>
<trkpt lat="40.0713749" lon="-105.229789">
  <ele>1583.0</ele>
  <time>2026-09-02T20:50:33Z</time>
  <course>0.0</course>
  <speed>0.0</speed>
  <fix>3d</fix>
</trkpt>
<trkpt lat="40.0713749" lon="-105.229789">
  <ele>1583.0</ele>
  <time>2026-09-02T20:50:33Z</time>
  <course>0.0</course>
  <speed>0.0</speed>
  <fix>3d</fix>
</trkpt>
<trkpt lat="40.0713749" lon="-105.229789">
  <ele>1583.0</ele>
  <time>2026-09-02T20:50:33Z</time>
  <course>0.0</course>
  <speed>0.0</speed>
  <fix>3d</fix>
</trkpt>
<trkpt lat="40.0713749" lon="-105.229789">
  <ele>1583.0</ele>
  <time>2026-09-02T20:50:33Z</time>
  <course>0.0</course>
  <speed>0.0</speed>
  <fix>3d</fix>
</trkpt>
<trkpt lat="40.0713749" lon="-105.229789">
  <ele>1583.0</ele>
  <time>2026-09-02T20:50:33Z</time>
  <course>0.0</course>
  <speed>0.0</speed>
  <fix>3d</fix>
</trkpt>
<trkpt lat="40.0713749" lon="-105.229789">
  <ele>1583.0</ele>
  <time>2026-09-02T20:50:33Z</time>
  <course>0.0</course>
  <speed>0.0</speed>
  <fix>3d</fix>
</trkpt>
<trkpt lat="40.0713749" lon="-105.229789">
  <ele>1583.0</ele>
  <time>2026-09-02T20:50:33Z</time>
  <course>0.0</course>
  <speed>0.0</speed>
  <fix>3d</fix>
</trkpt>
<trkpt lat="40.0713749" lon="-105.229789">
  <ele>1583.0</ele>
  <time>2026-09-02T20:50:33Z</time>
  <course>0.0</course>
  <speed>0.0</speed>
  <fix>3d</fix>
</trkpt>
<trkpt lat="40.0713749" lon="-105.229789">
  <ele>1583.0</ele>
  <time>2026-09-02T20:50:33Z</time>
  <course>0.0</course>
  <speed>0.0</speed>
  <fix>3d</fix>
</trkpt>
<trkpt lat="40.0713749" lon="-105.229789">
  <ele>1583.0</ele>
  <time>2026-09-02T20:50:33Z</time>
  <course>0.0</course>
  <speed>0.0</speed>
  <fix>3d</fix>
</trkpt>
<trkpt lat="40.0713749" lon="-105.229789">
  <ele>1583.0</ele>
  <time>2026-09-02T20:50:33Z</time>
  <course>0.0</course>
  <speed>0.0</speed>
  <fix>3d</fix>
</trkpt>
<trkpt lat="40.0713749" lon="-105.229789">
  <ele>1583.0</ele>
  <time>2026-09-02T20:50:33Z</time>
  <course>0.0</course>
  <speed>0.0</speed>
  <fix>3d</fix>
</trkpt>
<trkpt lat="40.0713749" lon="-105.229789">
  <ele>1583.0</ele>
  <time>2026-09-02T20:50:33Z</time>
  <course>0.0</course>
  <speed>0.0</speed>
  <fix>3d</fix>
</trkpt>
<trkpt lat="40.0713749" lon="-105.229789">
  <ele>1583.0</ele>
  <time>2026-09-02T20:50:33Z</time>
  <course>0.0</course>
  <speed>0.0</speed>
  <fix>3d</fix>
</trkpt>
<trkpt lat="40.0713749" lon="-105.229789">
  <ele>1583.0</ele>
  <time>2026-09-02T20:50:33Z</time>
  <course>0.0</course>
  <speed>0.0</speed>
  <fix>3d</fix>
</trkpt>
<trkpt lat="40.0713749" lon="-105.229789">
  <ele>1583.0</ele>
  <time>2026-09-02T20:50:33Z</time>
  <course>0.0</course>
  <speed>0.0</speed>
  <fix>3d</fix>
</trkpt>
<trkpt lat="40.0713749" lon="-105.229789">
  <ele>1583.0</ele>
  <time>2026-09-02T20:50:33Z</time>
  <course>0.0</course>
  <speed>0.0</speed>
  <fix>3d</fix>
</trkpt>
<trkpt lat="40.0713749" lon="-105.229789">
  <ele>1583.0</ele>
  <time>2026-09-02T20:50:33Z</time>
  <course>0.0</course>
  <speed>0.0</speed>
  <fix>3d</fix>
</trkpt>
<trkpt lat="40.0713749" lon="-105.229789">
  <ele>1583.0</ele>
  <time>2026-09-02T20:50:33Z</time>
  <course>0.0</course>
  <speed>0.0</speed>
  <fix>3d</fix>
</trkpt>
<trkpt lat="40.0713749" lon="-105.229789">
  <ele>1583.0</ele>
  <time>2026-09-02T20:50:33Z</time>
  <course>0.0</course>
  <speed>0.0</speed>
  <fix>3d</fix>
</trkpt>
<trkpt lat="40.0713749" lon="-105.229789">
  <ele>1583.0</ele>
  <time>2026-09-02T20:50:33Z</time>
  <course>0.0</course>
  <speed>0.0</speed>
  <fix>3d</fix>
</trkpt>
<trkpt lat="39.655741" lon="-104.1383097">
  <ele>1566.58</ele>
  <time>2026-09-02T20:50:33Z</time>
  <course>0.0</course>
  <speed>0.0</speed>
  <fix>3d</fix>
</trkpt>
<trkpt lat="40.0713749" lon="-105.229789">
  <ele>1583.0</ele>
  <time>2026-09-02T20:50:33Z</time>
  <course>0.0</course>
  <speed>0.0</speed>
  <fix>3d</fix>
</trkpt>
<trkpt lat="40.0713749" lon="-105.229789">
  <ele>1583.0</ele>
  <time>2026-09-02T20:50:33Z</time>
  <course>0.0</course>
  <speed>0.0</speed>
  <fix>3d</fix>
</trkpt>
<trkpt lat="40.0713749" lon="-105.229789">
  <ele>1583.0</ele>
  <time>2026-09-02T20:50:33Z</time>
  <course>0.0</course>
  <speed>0.0</speed>
  <fix>3d</fix>
</trkpt>
<trkpt lat="40.0713749" lon="-105.229789">
  <ele>1583.0</ele>
  <time>2026-09-02T20:50:33Z</time>
  <course>0.0</course>
  <speed>0.0</speed>
  <fix>3d</fix>
</trkpt>
<trkpt lat="40.0713749" lon="-105.229789">
  <ele>1583.0</ele>
  <time>2026-09-02T20:50:33Z</time>
  <course>0.0</course>
  <speed>0.0</speed>
  <fix>3d</fix>
</trkpt>
<trkpt lat="40.0713749" lon="-105.229789">
  <ele>1583.0</ele>
  <time>2026-09-02T20:50:33Z</time>
  <course>0.0</course>
  <speed>0.0</speed>
  <fix>3d</fix>
</trkpt>
<trkpt lat="40.0713749" lon="-105.229789">
  <ele>1583.0</ele>
  <time>2026-09-02T20:50:33Z</time>
  <course>0.0</course>
  <speed>0.0</speed>
  <fix>3d</fix>
</trkpt>
<trkpt lat="40.0713749" lon="-105.229789">
  <ele>1583.0</ele>
  <time>2026-09-02T20:50:33Z</time>
  <course>0.0</course>
  <speed>0.0</speed>
  <fix>3d</fix>
</trkpt>
<trkpt lat="40.0713749" lon="-105.229789">
  <ele>1583.0</ele>
  <time>2026-09-02T20:50:33Z</time>
  <course>0.0</course>
  <speed>0.0</speed>
  <fix>3d</fix>
</trkpt>
<trkpt lat="40.0713749" lon="-105.229789">
  <ele>1583.0</ele>
  <time>2026-09-02T20:50:33Z</time>
  <course>0.0</course>
  <speed>0.0</speed>
  <fix>3d</fix>
</trkpt>
<trkpt lat="40.0713749" lon="-105.229789">
  <ele>1583.0</ele>
  <time>2026-09-02T20:50:33Z</time>
  <course>0.0</course>
  <speed>0.0</speed>
  <fix>3d</fix>
</trkpt>
<trkpt lat="40.0713749" lon="-105.229789">
  <ele>1583.0</ele>
  <time>2026-09-02T20:50:33Z</time>
  <course>0.0</course>
  <speed>0.0</speed>
  <fix>3d</fix>
</trkpt>
<trkpt lat="40.0713749" lon="-105.229789">
  <ele>1583.0</ele>
  <time>2026-09-02T20:50:33Z</time>
  <course>0.0</course>
  <speed>0.0</speed>
  <fix>3d</fix>
</trkpt>
<trkpt lat="40.0713749" lon="-105.229789">
  <ele>1583.0</ele>
  <time>2026-09-02T20:50:33Z</time>
  <course>0.0</course>
  <speed>0.0</speed>
  <fix>3d</fix>
</trkpt>
<trkpt lat="40.0713749" lon="-105.229789">
  <ele>1583.0</ele>
  <time>2026-09-02T20:50:33Z</time>
  <course>0.0</course>
  <speed>0.0</speed>
  <fix>3d</fix>
</trkpt>
<trkpt lat="40.0713749" lon="-105.229789">
  <ele>1583.0</ele>
  <time>2026-09-02T20:50:33Z</time>
  <course>0.0</course>
  <speed>0.0</speed>
  <fix>3d</fix>
</trkpt>
<trkpt lat="40.0713749" lon="-105.229789">
  <ele>1583.0</ele>
  <time>2026-09-02T20:50:33Z</time>
  <course>0.0</course>
  <speed>0.0</speed>
  <fix>3d</fix>
</trkpt>
<trkpt lat="40.0713749" lon="-105.229789">
  <ele>1583.0</ele>
  <time>2026-09-02T20:50:33Z</time>
  <course>0.0</course>
  <speed>0.0</speed>
  <fix>3d</fix>
</trkpt>
<trkpt lat="40.0713749" lon="-105.229789">
  <ele>1583.0</ele>
  <time>2026-09-02T20:50:33Z</time>
  <course>0.0</course>
  <speed>0.0</speed>
  <fix>3d</fix>
</trkpt>
<trkpt lat="40.0713749" lon="-105.229789">
  <ele>1583.0</ele>
  <time>2026-09-02T20:50:33Z</time>
  <course>0.0</course>
  <speed>0.0</speed>
  <fix>3d</fix>
</trkpt>
<trkpt lat="40.0713749" lon="-105.229789">
  <ele>1583.0</ele>
  <time>2026-09-02T20:50:33Z</time>
  <course>0.0</course>
  <speed>0.0</speed>
  <fix>3d</fix>
</trkpt>
<trkpt lat="40.0713749" lon="-105.229789">
  <ele>1583.0</ele>
  <time>2026-09-02T20:50:33Z</time>
  <course>0.0</course>
  <speed>0.0</speed>
  <fix>3d</fix>
</trkpt>
<trkpt lat="40.0713749" lon="-105.229789">
  <ele>1583.0</ele>
  <time>2026-09-02T20:50:33Z</time>
  <course>0.0</course>
  <speed>0.0</speed>
  <fix>3d</fix>
</trkpt>
<trkpt lat="40.0713749" lon="-105.229789">
  <ele>1583.0</ele>
  <time>2026-09-02T20:50:33Z</time>
  <course>0.0</course>
  <speed>0.0</speed>
  <fix>3d</fix>
</trkpt>
<trkpt lat="40.0713749" lon="-105.229789">
  <ele>1583.0</ele>
  <time>2026-09-02T20:50:33Z</time>
  <course>0.0</course>
  <speed>0.0</speed>
  <fix>3d</fix>
</trkpt>
<trkpt lat="40.0713749" lon="-105.229789">
  <ele>1583.0</ele>
  <time>2026-09-02T20:50:33Z</time>
  <course>0.0</course>
  <speed>0.0</speed>
  <fix>3d</fix>
</trkpt>
<trkpt lat="40.0713749" lon="-105.229789">
  <ele>1583.0</ele>
  <time>2026-09-02T20:50:33Z</time>
  <course>0.0</course>
  <speed>0.0</speed>
  <fix>3d</fix>
</trkpt>
<trkpt lat="40.0713749" lon="-105.229789">
  <ele>1583.0</ele>
  <time>2026-09-02T20:50:33Z</time>
  <course>0.0</course>
  <speed>0.0</speed>
  <fix>3d</fix>
</trkpt>
<trkpt lat="40.0713749" lon="-105.229789">
  <ele>1583.0</ele>
  <time>2026-09-02T20:50:33Z</time>
  <course>0.0</course>
  <speed>0.0</speed>
  <fix>3d</fix>
</trkpt>
<trkpt lat="40.0713749" lon="-105.229789">
  <ele>1583.0</ele>
  <time>2026-09-02T20:50:33Z</time>
  <course>0.0</course>
  <speed>0.0</speed>
  <fix>3d</fix>
</trkpt>
<trkpt lat="40.0713749" lon="-105.229789">
  <ele>1583.0</ele>
  <time>2026-09-02T20:50:33Z</time>
  <course>0.0</course>
  <speed>0.0</speed>
  <fix>3d</fix>
</trkpt>
<trkpt lat="40.0713749" lon="-105.229789">
  <ele>1583.0</ele>
  <time>2026-09-02T20:50:33Z</time>
  <course>0.0</course>
  <speed>0.0</speed>
  <fix>3d</fix>
</trkpt>
<trkpt lat="40.0713749" lon="-105.229789">
  <ele>1583.0</ele>
  <time>2026-09-02T20:50:33Z</time>
  <course>0.0</course>
  <speed>0.0</speed>
  <fix>3d</fix>
</trkpt>
<trkpt lat="40.0713749" lon="-105.229789">
  <ele>1583.0</ele>
  <time>2026-09-02T20:50:33Z</time>
  <course>0.0</course>
  <speed>0.0</speed>
  <fix>3d</fix>
</trkpt>
<trkpt lat="40.0713749" lon="-105.229789">
  <ele>1583.0</ele>
  <time>2026-09-02T20:50:33Z</time>
  <course>0.0</course>
  <speed>0.0</speed>
  <fix>3d</fix>
</trkpt>
<trkpt lat="40.0713749" lon="-105.229789">
  <ele>1583.0</ele>
  <time>2026-09-02T20:50:33Z</time>
  <course>0.0</course>
  <speed>0.0</speed>
  <fix>3d</fix>
</trkpt>
<trkpt lat="40.0713749" lon="-105.229789">
  <ele>1583.0</ele>
  <time>2026-09-02T20:50:33Z</time>
  <course>0.0</course>
  <speed>0.0</speed>
  <fix>3d</fix>
</trkpt>
<trkpt lat="40.0713749" lon="-105.229789">
  <ele>1583.0</ele>
  <time>2026-09-02T20:50:33Z</time>
  <course>0.0</course>
  <speed>0.0</speed>
  <fix>3d</fix>
</trkpt>
<trkpt lat="40.0713749" lon="-105.229789">
  <ele>1583.0</ele>
  <time>2026-09-02T20:50:33Z</time>
  <course>0.0</course>
  <speed>0.0</speed>
  <fix>3d</fix>
</trkpt>
<trkpt lat="40.0713749" lon="-105.229789">
  <ele>1583.0</ele>
  <time>2026-09-02T20:50:33Z</time>
  <course>0.0</course>
  <speed>0.0</speed>
  <fix>3d</fix>
</trkpt>
<trkpt lat="40.0713749" lon="-105.229789">
  <ele>1583.0</ele>
  <time>2026-09-02T20:50:33Z</time>
  <course>0.0</course>
  <speed>0.0</speed>
  <fix>3d</fix>
</trkpt>
<trkpt lat="40.0713749" lon="-105.229789">
  <ele>1583.0</ele>
  <time>2026-09-02T20:50:33Z</time>
  <course>0.0</course>
  <speed>0.0</speed>
  <fix>3d</fix>
</trkpt>
<trkpt lat="40.0713749" lon="-105.229789">
  <ele>1583.0</ele>
  <time>2026-09-02T20:50:33Z</time>
  <course>0.0</course>
  <speed>0.0</speed>
  <fix>3d</fix>
</trkpt>
<trkpt lat="40.0713749" lon="-105.229789">
  <ele>1583.0</ele>
  <time>2026-09-02T20:50:33Z</time>
  <course>0.0</course>
  <speed>0.0</speed>
  <fix>3d</fix>
</trkpt>
<trkpt lat="40.0713749" lon="-105.229789">
  <ele>1583.0</ele>
  <time>2026-09-02T20:50:33Z</time>
  <course>0.0</course>
  <speed>0.0</speed>
  <fix>3d</fix>
</trkpt>
<trkpt lat="40.0713749" lon="-105.229789">
  <ele>1583.0</ele>
  <time>2026-09-02T20:50:33Z</time>
  <course>0.0</course>
  <speed>0.0</speed>
  <fix>3d</fix>
</trkpt>
<trkpt lat="40.0713749" lon="-105.229789">
  <ele>1583.0</ele>
  <time>2026-09-02T20:50:33Z</time>
  <course>0.0</course>
  <speed>0.0</speed>
  <fix>3d</fix>
</trkpt>
<trkpt lat="40.0713749" lon="-105.229789">
  <ele>1583.0</ele>
  <time>2026-09-02T20:50:33Z</time>
  <course>0.0</course>
  <speed>0.0</speed>
  <fix>3d</fix>
</trkpt>
<trkpt lat="40.0713749" lon="-105.229789">
  <ele>1583.0</ele>
  <time>2026-09-02T20:50:33Z</time>
  <course>0.0</course>
  <speed>0.0</speed>
  <fix>3d</fix>
</trkpt>
<trkpt lat="40.0713749" lon="-105.229789">
  <ele>1583.0</ele>
  <time>2026-09-02T20:50:33Z</time>
  <course>0.0</course>
  <speed>0.0</speed>
  <fix>3d</fix>
</trkpt>
<trkpt lat="40.0713749" lon="-105.229789">
  <ele>1583.0</ele>
  <time>2026-09-02T20:50:33Z</time>
  <course>0.0</course>
  <speed>0.0</speed>
  <fix>3d</fix>
</trkpt>
<trkpt lat="40.0713749" lon="-105.229789">
  <ele>1583.0</ele>
  <time>2026-09-02T20:50:33Z</time>
  <course>0.0</course>
  <speed>0.0</speed>
  <fix>3d</fix>
</trkpt>
<trkpt lat="40.0713749" lon="-105.229789">
  <ele>1583.0</ele>
  <time>2026-09-02T20:50:33Z</time>
  <course>0.0</course>
  <speed>0.0</speed>
  <fix>3d</fix>
</trkpt>
<trkpt lat="40.0713749" lon="-105.229789">
  <ele>1583.0</ele>
  <time>2026-09-02T20:50:33Z</time>
  <course>0.0</course>
  <speed>0.0</speed>
  <fix>3d</fix>
</trkpt>
<trkpt lat="40.0713749" lon="-105.229789">
  <ele>1583.0</ele>
  <time>2026-09-02T20:50:33Z</time>
  <course>0.0</course>
  <speed>0.0</speed>
  <fix>3d</fix>
</trkpt>
<trkpt lat="40.0713749" lon="-105.229789">
  <ele>1583.0</ele>
  <time>2026-09-02T20:50:33Z</time>
  <course>0.0</course>
  <speed>0.0</speed>
  <fix>3d</fix>
</trkpt>
<trkpt lat="40.0713749" lon="-105.229789">
  <ele>1583.0</ele>
  <time>2026-09-02T20:50:33Z</time>
  <course>0.0</course>
  <speed>0.0</speed>
  <fix>3d</fix>
</trkpt>
<trkpt lat="40.0713749" lon="-105.229789">
  <ele>1583.0</ele>
  <time>2026-09-02T20:50:33Z</time>
  <course>0.0</course>
  <speed>0.0</speed>
  <fix>3d</fix>
</trkpt>
<trkpt lat="40.0713749" lon="-105.229789">
  <ele>1583.0</ele>
  <time>2026-09-02T20:50:33Z</time>
  <course>0.0</course>
  <speed>0.0</speed>
  <fix>3d</fix>
</trkpt>
<trkpt lat="40.0713749" lon="-105.229789">
  <ele>1583.0</ele>
  <time>2026-09-02T20:50:33Z</time>
  <course>0.0</course>
  <speed>0.0</speed>
  <fix>3d</fix>
</trkpt>
<trkpt lat="40.0713749" lon="-105.229789">
  <ele>1583.0</ele>
  <time>2026-09-02T20:50:33Z</time>
  <course>0.0</course>
  <speed>0.0</speed>
  <fix>3d</fix>
</trkpt>
<trkpt lat="40.0713749" lon="-105.229789">
  <ele>1583.0</ele>
  <time>2026-09-02T20:50:33Z</time>
  <course>0.0</course>
  <speed>0.0</speed>
  <fix>3d</fix>
</trkpt>
<trkpt lat="40.0713749" lon="-105.229789">
  <ele>1583.0</ele>
  <time>2026-09-02T20:50:33Z</time>
  <course>0.0</course>
  <speed>0.0</speed>
  <fix>3d</fix>
</trkpt>
<trkpt lat="40.0713749" lon="-105.229789">
  <ele>1583.0</ele>
  <time>2026-09-02T20:50:33Z</time>
  <course>0.0</course>
  <speed>0.0</speed>
  <fix>3d</fix>
</trkpt>
<trkpt lat="40.0713749" lon="-105.229789">
  <ele>1583.0</ele>
  <time>2026-09-02T20:50:33Z</time>
  <course>0.0</course>
  <speed>0.0</speed>
  <fix>3d</fix>
</trkpt>
<trkpt lat="40.0713749" lon="-105.229789">
  <ele>1583.0</ele>
  <time>2026-09-02T20:50:33Z</time>
  <course>0.0</course>
  <speed>0.0</speed>
  <fix>3d</fix>
</trkpt>
<trkpt lat="40.0713749" lon="-105.229789">
  <ele>1583.0</ele>
  <time>2026-09-02T20:50:33Z</time>
  <course>0.0</course>
  <speed>0.0</speed>
  <fix>3d</fix>
</trkpt>
<trkpt lat="40.0713749" lon="-105.229789">
  <ele>1583.0</ele>
  <time>2026-09-02T20:50:33Z</time>
  <course>0.0</course>
  <speed>0.0</speed>
  <fix>3d</fix>
</trkpt>
<trkpt lat="40.0713749" lon="-105.229789">
  <ele>1583.0</ele>
  <time>2026-09-02T20:50:33Z</time>
  <course>0.0</course>
  <speed>0.0</speed>
  <fix>3d</fix>
</trkpt>
<trkpt lat="40.0713749" lon="-105.229789">
  <ele>1583.0</ele>
  <time>2026-09-02T20:50:33Z</time>
  <course>0.0</course>
  <speed>0.0</speed>
  <fix>3d</fix>
</trkpt>
<trkpt lat="40.0713749" lon="-105.229789">
  <ele>1583.0</ele>
  <time>2026-09-02T20:50:33Z</time>
  <course>0.0</course>
  <speed>0.0</speed>
  <fix>3d</fix>
</trkpt>
<trkpt lat="40.0713749" lon="-105.229789">
  <ele>1583.0</ele>
  <time>2026-09-02T20:50:33Z</time>
  <course>0.0</course>
  <speed>0.0</speed>
  <fix>3d</fix>
</trkpt>
<trkpt lat="40.0713749" lon="-105.229789">
  <ele>1583.0</ele>
  <time>2026-09-02T20:50:33Z</time>
  <course>0.0</course>
  <speed>0.0</speed>
  <fix>3d</fix>
</trkpt>
<trkpt lat="40.0713749" lon="-105.229789">
  <ele>1583.0</ele>
  <time>2026-09-02T20:50:33Z</time>
  <course>0.0</course>
  <speed>0.0</speed>
  <fix>3d</fix>
</trkpt>
<trkpt lat="40.0713749" lon="-105.229789">
  <ele>1583.0</ele>
  <time>2026-09-02T20:50:33Z</time>
  <course>0.0</course>
  <speed>0.0</speed>
  <fix>3d</fix>
</trkpt>
<trkpt lat="40.0713749" lon="-105.229789">
  <ele>1583.0</ele>
  <time>2026-09-02T20:50:33Z</time>
  <course>0.0</course>
  <speed>0.0</speed>
  <fix>3d</fix>
</trkpt>
<trkpt lat="40.0713749" lon="-105.229789">
  <ele>1583.0</ele>
  <time>2026-09-02T20:50:33Z</time>
  <course>0.0</course>
  <speed>0.0</speed>
  <fix>3d</fix>
</trkpt>
<trkpt lat="40.0713749" lon="-105.229789">
  <ele>1583.0</ele>
  <time>2026-09-02T20:50:33Z</time>
  <course>0.0</course>
  <speed>0.0</speed>
  <fix>3d</fix>
</trkpt>
<trkpt lat="40.0713749" lon="-105.229789">
  <ele>1583.0</ele>
  <time>2026-09-02T20:50:33Z</time>
  <course>0.0</course>
  <speed>0.0</speed>
  <fix>3d</fix>
</trkpt>
<trkpt lat="40.0713749" lon="-105.229789">
  <ele>1583.0</ele>
  <time>2026-09-02T20:50:33Z</time>
  <course>0.0</course>
  <speed>0.0</speed>
  <fix>3d</fix>
</trkpt>
<trkpt lat="40.0713749" lon="-105.229789">
  <ele>1583.0</ele>
  <time>2026-09-02T20:50:33Z</time>
  <course>0.0</course>
  <speed>0.0</speed>
  <fix>3d</fix>
</trkpt>
<trkpt lat="40.0713749" lon="-105.229789">
  <ele>1583.0</ele>
  <time>2026-09-02T20:50:33Z</time>
  <course>0.0</course>
  <speed>0.0</speed>
  <fix>3d</fix>
</trkpt>
<trkpt lat="40.0713749" lon="-105.229789">
  <ele>1583.0</ele>
  <time>2026-09-02T20:50:33Z</time>
  <course>0.0</course>
  <speed>0.0</speed>
  <fix>3d</fix>
</trkpt>
<trkpt lat="40.0713749" lon="-105.229789">
  <ele>1583.0</ele>
  <time>2026-09-02T20:50:33Z</time>
  <course>0.0</course>
  <speed>0.0</speed>
  <fix>3d</fix>
</trkpt>
<trkpt lat="40.0713749" lon="-105.229789">
  <ele>1583.0</ele>
  <time>2026-09-02T20:50:33Z</time>
  <course>0.0</course>
  <speed>0.0</speed>
  <fix>3d</fix>
</trkpt>
<trkpt lat="40.0713749" lon="-105.229789">
  <ele>1583.0</ele>
  <time>2026-09-02T20:50:33Z</time>
  <course>0.0</course>
  <speed>0.0</speed>
  <fix>3d</fix>
</trkpt>
<trkpt lat="40.0713749" lon="-105.229789">
  <ele>1583.0</ele>
  <time>2026-09-02T20:50:33Z</time>
  <course>0.0</course>
  <speed>0.0</speed>
  <fix>3d</fix>
</trkpt>
<trkpt lat="40.0713749" lon="-105.229789">
  <ele>1583.0</ele>
  <time>2026-09-02T20:50:33Z</time>
  <course>0.0</course>
  <speed>0.0</speed>
  <fix>3d</fix>
</trkpt>
<trkpt lat="40.0713749" lon="-105.229789">
  <ele>1583.0</ele>
  <time>2026-09-02T20:50:33Z</time>
  <course>0.0</course>
  <speed>0.0</speed>
  <fix>3d</fix>
</trkpt>
<trkpt lat="40.0713749" lon="-105.229789">
  <ele>1583.0</ele>
  <time>2026-09-02T20:50:33Z</time>
  <course>0.0</course>
  <speed>0.0</speed>
  <fix>3d</fix>
</trkpt>
<trkpt lat="40.0713749" lon="-105.229789">
  <ele>1583.0</ele>
  <time>2026-09-02T20:50:33Z</time>
  <course>0.0</course>
  <speed>0.0</speed>
  <fix>3d</fix>
</trkpt>
<trkpt lat="40.0713749" lon="-105.229789">
  <ele>1583.0</ele>
  <time>2026-09-02T20:50:33Z</time>
  <course>0.0</course>
  <speed>0.0</speed>
  <fix>3d</fix>
</trkpt>
<trkpt lat="40.0713749" lon="-105.229789">
  <ele>1583.0</ele>
  <time>2026-09-02T20:50:33Z</time>
  <course>0.0</course>
  <speed>0.0</speed>
  <fix>3d</fix>
</trkpt>
<trkpt lat="40.0713749" lon="-105.229789">
  <ele>1583.0</ele>
  <time>2026-09-02T20:50:33Z</time>
  <course>0.0</course>
  <speed>0.0</speed>
  <fix>3d</fix>
</trkpt>
<trkpt lat="40.0713749" lon="-105.229789">
  <ele>1583.0</ele>
  <time>2026-09-02T20:50:33Z</time>
  <course>0.0</course>
  <speed>0.0</speed>
  <fix>3d</fix>
</trkpt>
<trkpt lat="40.0713749" lon="-105.229789">
  <ele>1583.0</ele>
  <time>2026-09-02T20:50:33Z</time>
  <course>0.0</course>
  <speed>0.0</speed>
  <fix>3d</fix>
</trkpt>
<trkpt lat="40.0713749" lon="-105.229789">
  <ele>1583.0</ele>
  <time>2026-09-02T20:50:33Z</time>
  <course>0.0</course>
  <speed>0.0</speed>
  <fix>3d</fix>
</trkpt>
<trkpt lat="40.0713749" lon="-105.229789">
  <ele>1583.0</ele>
  <time>2026-09-02T20:50:33Z</time>
  <course>0.0</course>
  <speed>0.0</speed>
  <fix>3d</fix>
</trkpt>
<trkpt lat="40.0713749" lon="-105.229789">
  <ele>1583.0</ele>
  <time>2026-09-02T20:50:33Z</time>
  <course>0.0</course>
  <speed>0.0</speed>
  <fix>3d</fix>
</trkpt>
<trkpt lat="40.0713749" lon="-105.229789">
  <ele>1583.0</ele>
  <time>2026-09-02T20:50:33Z</time>
  <course>0.0</course>
  <speed>0.0</speed>
  <fix>3d</fix>
</trkpt>
<trkpt lat="40.0713749" lon="-105.229789">
  <ele>1583.0</ele>
  <time>2026-09-02T20:50:33Z</time>
  <course>0.0</course>
  <speed>0.0</speed>
  <fix>3d</fix>
</trkpt>
<trkpt lat="40.0713749" lon="-105.229789">
  <ele>1583.0</ele>
  <time>2026-09-02T20:50:33Z</time>
  <course>0.0</course>
  <speed>0.0</speed>
  <fix>3d</fix>
</trkpt>
<trkpt lat="40.0713749" lon="-105.229789">
  <ele>1583.0</ele>
  <time>2026-09-02T20:50:33Z</time>
  <course>0.0</course>
  <speed>0.0</speed>
  <fix>3d</fix>
</trkpt>
<trkpt lat="40.0713749" lon="-105.229789">
  <ele>1583.0</ele>
  <time>2026-09-02T20:50:33Z</time>
  <course>0.0</course>
  <speed>0.0</speed>
  <fix>3d</fix>
</trkpt>
<trkpt lat="40.0713749" lon="-105.229789">
  <ele>1583.0</ele>
  <time>2026-09-02T20:50:33Z</time>
  <course>0.0</course>
  <speed>0.0</speed>
  <fix>3d</fix>
</trkpt>
<trkpt lat="40.0713749" lon="-105.229789">
  <ele>1583.0</ele>
  <time>2026-09-02T20:50:33Z</time>
  <course>0.0</course>
  <speed>0.0</speed>
  <fix>3d</fix>
</trkpt>
<trkpt lat="40.0713749" lon="-105.229789">
  <ele>1583.0</ele>
  <time>2026-09-02T20:50:33Z</time>
  <course>0.0</course>
  <speed>0.0</speed>
  <fix>3d</fix>
</trkpt>
<trkpt lat="40.0713749" lon="-105.229789">
  <ele>1583.0</ele>
  <time>2026-09-02T20:50:33Z</time>
  <course>0.0</course>
  <speed>0.0</speed>
  <fix>3d</fix>
</trkpt>
<trkpt lat="40.0713749" lon="-105.229789">
  <ele>1583.0</ele>
  <time>2026-09-02T20:50:33Z</time>
  <course>0.0</course>
  <speed>0.0</speed>
  <fix>3d</fix>
</trkpt>
<trkpt lat="40.0713749" lon="-105.229789">
  <ele>1583.0</ele>
  <time>2026-09-02T20:50:33Z</time>
  <course>0.0</course>
  <speed>0.0</speed>
  <fix>3d</fix>
</trkpt>
<trkpt lat="40.0713749" lon="-105.229789">
  <ele>1583.0</ele>
  <time>2026-09-02T20:50:33Z</time>
  <course>0.0</course>
  <speed>0.0</speed>
  <fix>3d</fix>
</trkpt>
<trkpt lat="40.0713749" lon="-105.229789">
  <ele>1583.0</ele>
  <time>2026-09-02T20:50:33Z</time>
  <course>0.0</course>
  <speed>0.0</speed>
  <fix>3d</fix>
</trkpt>
<trkpt lat="40.0713749" lon="-105.229789">
  <ele>1583.0</ele>
  <time>2026-09-02T20:50:33Z</time>
  <course>0.0</course>
  <speed>0.0</speed>
  <fix>3d</fix>
</trkpt>
<trkpt lat="40.0713749" lon="-105.229789">
  <ele>1583.0</ele>
  <time>2026-09-02T20:50:33Z</time>
  <course>0.0</course>
  <speed>0.0</speed>
  <fix>3d</fix>
</trkpt>
<trkpt lat="40.0713749" lon="-105.229789">
  <ele>1583.0</ele>
  <time>2026-09-02T20:50:33Z</time>
  <course>0.0</course>
  <speed>0.0</speed>
  <fix>3d</fix>
</trkpt>
<trkpt lat="40.0713749" lon="-105.229789">
  <ele>1583.0</ele>
  <time>2026-09-02T20:50:33Z</time>
  <course>0.0</course>
  <speed>0.0</speed>
  <fix>3d</fix>
</trkpt>
<trkpt lat="40.0713749" lon="-105.229789">
  <ele>1583.0</ele>
  <time>2026-09-02T20:50:33Z</time>
  <course>0.0</course>
  <speed>0.0</speed>
  <fix>3d</fix>
</trkpt>
<trkpt lat="40.0713749" lon="-105.229789">
  <ele>1583.0</ele>
  <time>2026-09-02T20:50:33Z</time>
  <course>0.0</course>
  <speed>0.0</speed>
  <fix>3d</fix>
</trkpt>
<trkpt lat="40.0713749" lon="-105.229789">
  <ele>1583.0</ele>
  <time>2026-09-02T20:50:33Z</time>
  <course>0.0</course>
  <speed>0.0</speed>
  <fix>3d</fix>
</trkpt>
<trkpt lat="40.0713749" lon="-105.229789">
  <ele>1583.0</ele>
  <time>2026-09-02T20:50:33Z</time>
  <course>0.0</course>
  <speed>0.0</speed>
  <fix>3d</fix>
</trkpt>
<trkpt lat="40.0713749" lon="-105.229789">
  <ele>1583.0</ele>
  <time>2026-09-02T20:50:33Z</time>
  <course>0.0</course>
  <speed>0.0</speed>
  <fix>3d</fix>
</trkpt>
<trkpt lat="40.0713749" lon="-105.229789">
  <ele>1583.0</ele>
  <time>2026-09-02T20:50:33Z</time>
  <course>0.0</course>
  <speed>0.0</speed>
  <fix>3d</fix>
</trkpt>
<trkpt lat="40.0713749" lon="-105.229789">
  <ele>1583.0</ele>
  <time>2026-09-02T20:50:33Z</time>
  <course>0.0</course>
  <speed>0.0</speed>
  <fix>3d</fix>
</trkpt>
<trkpt lat="40.0713749" lon="-105.229789">
  <ele>1583.0</ele>
  <time>2026-09-02T20:50:33Z</time>
  <course>0.0</course>
  <speed>0.0</speed>
  <fix>3d</fix>
</trkpt>
<trkpt lat="40.0713749" lon="-105.229789">
  <ele>1583.0</ele>
  <time>2026-09-02T20:50:33Z</time>
  <course>0.0</course>
  <speed>0.0</speed>
  <fix>3d</fix>
</trkpt>
<trkpt lat="40.0713749" lon="-105.229789">
  <ele>1583.0</ele>
  <time>2026-09-02T20:50:33Z</time>
  <course>0.0</course>
  <speed>0.0</speed>
  <fix>3d</fix>
</trkpt>
<trkpt lat="40.0713749" lon="-105.229789">
  <ele>1583.0</ele>
  <time>2026-09-02T20:50:33Z</time>
  <course>0.0</course>
  <speed>0.0</speed>
  <fix>3d</fix>
</trkpt>
<trkpt lat="40.0713749" lon="-105.229789">
  <ele>1583.0</ele>
  <time>2026-09-02T20:50:33Z</time>
  <course>0.0</course>
  <speed>0.0</speed>
  <fix>3d</fix>
</trkpt>
<trkpt lat="40.0713749" lon="-105.229789">
  <ele>1583.0</ele>
  <time>2026-09-02T20:50:33Z</time>
  <course>0.0</course>
  <speed>0.0</speed>
  <fix>3d</fix>
</trkpt>
<trkpt lat="40.0713749" lon="-105.229789">
  <ele>1583.0</ele>
  <time>2026-09-02T20:50:33Z</time>
  <course>0.0</course>
  <speed>0.0</speed>
  <fix>3d</fix>
</trkpt>
<trkpt lat="40.0713749" lon="-105.229789">
  <ele>1583.0</ele>
  <time>2026-09-02T20:50:33Z</time>
  <course>0.0</course>
  <speed>0.0</speed>
  <fix>3d</fix>
</trkpt>
<trkpt lat="40.0713749" lon="-105.229789">
  <ele>1583.0</ele>
  <time>2026-09-02T20:50:33Z</time>
  <course>0.0</course>
  <speed>0.0</speed>
  <fix>3d</fix>
</trkpt>
<trkpt lat="40.0713749" lon="-105.229789">
  <ele>1583.0</ele>
  <time>2026-09-02T20:50:33Z</time>
  <course>0.0</course>
  <speed>0.0</speed>
  <fix>3d</fix>
</trkpt>
<trkpt lat="40.0713749" lon="-105.229789">
  <ele>1583.0</ele>
  <time>2026-09-02T20:50:33Z</time>
  <course>0.0</course>
  <speed>0.0</speed>
  <fix>3d</fix>
</trkpt>
<trkpt lat="40.0713749" lon="-105.229789">
  <ele>1583.0</ele>
  <time>2026-09-02T20:50:33Z</time>
  <course>0.0</course>
  <speed>0.0</speed>
  <fix>3d</fix>
</trkpt>
<trkpt lat="40.0713749" lon="-105.229789">
  <ele>1583.0</ele>
  <time>2026-09-02T20:50:33Z</time>
  <course>0.0</course>
  <speed>0.0</speed>
  <fix>3d</fix>
</trkpt>
<trkpt lat="40.0713749" lon="-105.229789">
  <ele>1583.0</ele>
  <time>2026-09-02T20:50:33Z</time>
  <course>0.0</course>
  <speed>0.0</speed>
  <fix>3d</fix>
</trkpt>
<trkpt lat="40.0713749" lon="-105.229789">
  <ele>1583.0</ele>
  <time>2026-09-02T20:50:33Z</time>
  <course>0.0</course>
  <speed>0.0</speed>
  <fix>3d</fix>
</trkpt>
<trkpt lat="40.0713749" lon="-105.229789">
  <ele>1583.0</ele>
  <time>2026-09-02T20:50:33Z</time>
  <course>0.0</course>
  <speed>0.0</speed>
  <fix>3d</fix>
</trkpt>
<trkpt lat="40.0713749" lon="-105.229789">
  <ele>1583.0</ele>
  <time>2026-09-02T20:50:33Z</time>
  <course>0.0</course>
  <speed>0.0</speed>
  <fix>3d</fix>
</trkpt>
<trkpt lat="40.0713749" lon="-105.229789">
  <ele>1583.0</ele>
  <time>2026-09-02T20:50:33Z</time>
  <course>0.0</course>
  <speed>0.0</speed>
  <fix>3d</fix>
</trkpt>
<trkpt lat="40.0713749" lon="-105.229789">
  <ele>1583.0</ele>
  <time>2026-09-02T20:50:33Z</time>
  <course>0.0</course>
  <speed>0.0</speed>
  <fix>3d</fix>
</trkpt>
<trkpt lat="40.0713749" lon="-105.229789">
  <ele>1583.0</ele>
  <time>2026-09-02T20:50:33Z</time>
  <course>0.0</course>
  <speed>0.0</speed>
  <fix>3d</fix>
</trkpt>
<trkpt lat="40.0713749" lon="-105.229789">
  <ele>1583.0</ele>
  <time>2026-09-02T20:50:33Z</time>
  <course>0.0</course>
  <speed>0.0</speed>
  <fix>3d</fix>
</trkpt>
<trkpt lat="40.0713749" lon="-105.229789">
  <ele>1583.0</ele>
  <time>2026-09-02T20:50:33Z</time>
  <course>0.0</course>
  <speed>0.0</speed>
  <fix>3d</fix>
</trkpt>
<trkpt lat="40.0713749" lon="-105.229789">
  <ele>1583.0</ele>
  <time>2026-09-02T20:50:33Z</time>
  <course>0.0</course>
  <speed>0.0</speed>
  <fix>3d</fix>
</trkpt>
<trkpt lat="40.0713749" lon="-105.229789">
  <ele>1583.0</ele>
  <time>2026-09-02T20:50:33Z</time>
  <course>0.0</course>
  <speed>0.0</speed>
  <fix>3d</fix>
</trkpt>
<trkpt lat="40.0713749" lon="-105.229789">
  <ele>1583.0</ele>
  <time>2026-09-02T20:50:33Z</time>
  <course>0.0</course>
  <speed>0.0</speed>
  <fix>3d</fix>
</trkpt>
<trkpt lat="40.0713749" lon="-105.229789">
  <ele>1583.0</ele>
  <time>2026-09-02T20:50:33Z</time>
  <course>0.0</course>
  <speed>0.0</speed>
  <fix>3d</fix>
</trkpt>
<trkpt lat="40.0713749" lon="-105.229789">
  <ele>1583.0</ele>
  <time>2026-09-02T20:50:33Z</time>
  <course>0.0</course>
  <speed>0.0</speed>
  <fix>3d</fix>
</trkpt>
<trkpt lat="40.0713749" lon="-105.229789">
  <ele>1583.0</ele>
  <time>2026-09-02T20:50:33Z</time>
  <course>0.0</course>
  <speed>0.0</speed>
  <fix>3d</fix>
</trkpt>
<trkpt lat="40.0713749" lon="-105.229789">
  <ele>1583.0</ele>
  <time>2026-09-02T20:50:33Z</time>
  <course>0.0</course>
  <speed>0.0</speed>
  <fix>3d</fix>
</trkpt>
<trkpt lat="40.0713749" lon="-105.229789">
  <ele>1583.0</ele>
  <time>2026-09-02T20:50:33Z</time>
  <course>0.0</course>
  <speed>0.0</speed>
  <fix>3d</fix>
</trkpt>
<trkpt lat="40.0713749" lon="-105.229789">
  <ele>1583.0</ele>
  <time>2026-09-02T20:50:33Z</time>
  <course>0.0</course>
  <speed>0.0</speed>
  <fix>3d</fix>
</trkpt>
<trkpt lat="40.0713749" lon="-105.229789">
  <ele>1583.0</ele>
  <time>2026-09-02T20:50:33Z</time>
  <course>0.0</course>
  <speed>0.0</speed>
  <fix>3d</fix>
</trkpt>
<trkpt lat="40.0713749" lon="-105.229789">
  <ele>1583.0</ele>
  <time>2026-09-02T20:50:33Z</time>
  <course>0.0</course>
  <speed>0.0</speed>
  <fix>3d</fix>
</trkpt>
<trkpt lat="40.0713749" lon="-105.229789">
  <ele>1583.0</ele>
  <time>2026-09-02T20:50:33Z</time>
  <course>0.0</course>
  <speed>0.0</speed>
  <fix>3d</fix>
</trkpt>
<trkpt lat="40.0713749" lon="-105.229789">
  <ele>1583.0</ele>
  <time>2026-09-02T20:50:33Z</time>
  <course>0.0</course>
  <speed>0.0</speed>
  <fix>3d</fix>
</trkpt>
<trkpt lat="40.0713749" lon="-105.229789">
  <ele>1583.0</ele>
  <time>2026-09-02T20:50:33Z</time>
  <course>0.0</course>
  <speed>0.0</speed>
  <fix>3d</fix>
</trkpt>
<trkpt lat="40.0713749" lon="-105.229789">
  <ele>1583.0</ele>
  <time>2026-09-02T20:50:33Z</time>
  <course>0.0</course>
  <speed>0.0</speed>
  <fix>3d</fix>
</trkpt>
<trkpt lat="40.0713749" lon="-105.229789">
  <ele>1583.0</ele>
  <time>2026-09-02T20:50:33Z</time>
  <course>0.0</course>
  <speed>0.0</speed>
  <fix>3d</fix>
</trkpt>
<trkpt lat="40.0713749" lon="-105.229789">
  <ele>1583.0</ele>
  <time>2026-09-02T20:50:33Z</time>
  <course>0.0</course>
  <speed>0.0</speed>
  <fix>3d</fix>
</trkpt>
<trkpt lat="40.0713749" lon="-105.229789">
  <ele>1583.0</ele>
  <time>2026-09-02T20:50:33Z</time>
  <course>0.0</course>
  <speed>0.0</speed>
  <fix>3d</fix>
</trkpt>
<trkpt lat="40.0713749" lon="-105.229789">
  <ele>1583.0</ele>
  <time>2026-09-02T20:50:33Z</time>
  <course>0.0</course>
  <speed>0.0</speed>
  <fix>3d</fix>
</trkpt>
<trkpt lat="40.0713749" lon="-105.229789">
  <ele>1583.0</ele>
  <time>2026-09-02T20:50:33Z</time>
  <course>0.0</course>
  <speed>0.0</speed>
  <fix>3d</fix>
</trkpt>
<trkpt lat="40.0713749" lon="-105.229789">
  <ele>1583.0</ele>
  <time>2026-09-02T20:50:33Z</time>
  <course>0.0</course>
  <speed>0.0</speed>
  <fix>3d</fix>
</trkpt>
<trkpt lat="40.0713749" lon="-105.229789">
  <ele>1583.0</ele>
  <time>2026-09-02T20:50:33Z</time>
  <course>0.0</course>
  <speed>0.0</speed>
  <fix>3d</fix>
</trkpt>
<trkpt lat="40.0713749" lon="-105.229789">
  <ele>1583.0</ele>
  <time>2026-09-02T20:50:33Z</time>
  <course>0.0</course>
  <speed>0.0</speed>
  <fix>3d</fix>
</trkpt>
<trkpt lat="40.0713749" lon="-105.229789">
  <ele>1583.0</ele>
  <time>2026-09-02T20:50:33Z</time>
  <course>0.0</course>
  <speed>0.0</speed>
  <fix>3d</fix>
</trkpt>
<trkpt lat="40.0713749" lon="-105.229789">
  <ele>1583.0</ele>
  <time>2026-09-02T20:50:33Z</time>
  <course>0.0</course>
  <speed>0.0</speed>
  <fix>3d</fix>
</trkpt>
<trkpt lat="40.0713749" lon="-105.229789">
  <ele>1583.0</ele>
  <time>2026-09-02T20:50:33Z</time>
  <course>0.0</course>
  <speed>0.0</speed>
  <fix>3d</fix>
</trkpt>
<trkpt lat="40.0713749" lon="-105.229789">
  <ele>1583.0</ele>
  <time>2026-09-02T20:50:33Z</time>
  <course>0.0</course>
  <speed>0.0</speed>
  <fix>3d</fix>
</trkpt>
<trkpt lat="40.0713749" lon="-105.229789">
  <ele>1583.0</ele>
  <time>2026-09-02T20:50:33Z</time>
  <course>0.0</course>
  <speed>0.0</speed>
  <fix>3d</fix>
</trkpt>
<trkpt lat="40.0713749" lon="-105.229789">
  <ele>1583.0</ele>
  <time>2026-09-02T20:50:33Z</time>
  <course>0.0</course>
  <speed>0.0</speed>
  <fix>3d</fix>
</trkpt>
<trkpt lat="40.0713749" lon="-105.229789">
  <ele>1583.0</ele>
  <time>2026-09-02T20:50:33Z</time>
  <course>0.0</course>
  <speed>0.0</speed>
  <fix>3d</fix>
</trkpt>
<trkpt lat="40.0713749" lon="-105.229789">
  <ele>1583.0</ele>
  <time>2026-09-02T20:50:33Z</time>
  <course>0.0</course>
  <speed>0.0</speed>
  <fix>3d</fix>
</trkpt>
<trkpt lat="40.0713749" lon="-105.229789">
  <ele>1583.0</ele>
  <time>2026-09-02T20:50:33Z</time>
  <course>0.0</course>
  <speed>0.0</speed>
  <fix>3d</fix>
</trkpt>
<trkpt lat="40.0713749" lon="-105.229789">
  <ele>1583.0</ele>
  <time>2026-09-02T20:50:33Z</time>
  <course>0.0</course>
  <speed>0.0</speed>
  <fix>3d</fix>
</trkpt>
<trkpt lat="40.0713749" lon="-105.229789">
  <ele>1583.0</ele>
  <time>2026-09-02T20:50:33Z</time>
  <course>0.0</course>
  <speed>0.0</speed>
  <fix>3d</fix>
</trkpt>
<trkpt lat="40.0713749" lon="-105.229789">
  <ele>1583.0</ele>
  <time>2026-09-02T20:50:33Z</time>
  <course>0.0</course>
  <speed>0.0</speed>
  <fix>3d</fix>
</trkpt>
<trkpt lat="40.0713749" lon="-105.229789">
  <ele>1583.0</ele>
  <time>2026-09-02T20:50:33Z</time>
  <course>0.0</course>
  <speed>0.0</speed>
  <fix>3d</fix>
</trkpt>
<trkpt lat="40.0713749" lon="-105.229789">
  <ele>1583.0</ele>
  <time>2026-09-02T20:50:33Z</time>
  <course>0.0</course>
  <speed>0.0</speed>
  <fix>3d</fix>
</trkpt>
<trkpt lat="40.0713749" lon="-105.229789">
  <ele>1583.0</ele>
  <time>2026-09-02T20:50:33Z</time>
  <course>0.0</course>
  <speed>0.0</speed>
  <fix>3d</fix>
</trkpt>
<trkpt lat="40.0713749" lon="-105.229789">
  <ele>1583.0</ele>
  <time>2026-09-02T20:50:33Z</time>
  <course>0.0</course>
  <speed>0.0</speed>
  <fix>3d</fix>
</trkpt>
<trkpt lat="40.0713749" lon="-105.229789">
  <ele>1583.0</ele>
  <time>2026-09-02T20:50:33Z</time>
  <course>0.0</course>
  <speed>0.0</speed>
  <fix>3d</fix>
</trkpt>
<trkpt lat="40.0713749" lon="-105.229789">
  <ele>1583.0</ele>
  <time>2026-09-02T20:50:33Z</time>
  <course>0.0</course>
  <speed>0.0</speed>
  <fix>3d</fix>
</trkpt>
<trkpt lat="40.0713749" lon="-105.229789">
  <ele>1583.0</ele>
  <time>2026-09-02T20:50:33Z</time>
  <course>0.0</course>
  <speed>0.0</speed>
  <fix>3d</fix>
</trkpt>
<trkpt lat="40.0713749" lon="-105.229789">
  <ele>1583.0</ele>
  <time>2026-09-02T20:50:33Z</time>
  <course>0.0</course>
  <speed>0.0</speed>
  <fix>3d</fix>
</trkpt>
<trkpt lat="40.0713749" lon="-105.229789">
  <ele>1583.0</ele>
  <time>2026-09-02T20:50:33Z</time>
  <course>0.0</course>
  <speed>0.0</speed>
  <fix>3d</fix>
</trkpt>
<trkpt lat="40.0713749" lon="-105.229789">
  <ele>1583.0</ele>
  <time>2026-09-02T20:50:33Z</time>
  <course>0.0</course>
  <speed>0.0</speed>
  <fix>3d</fix>
</trkpt>
<trkpt lat="40.0713749" lon="-105.229789">
  <ele>1583.0</ele>
  <time>2026-09-02T20:50:33Z</time>
  <course>0.0</course>
  <speed>0.0</speed>
  <fix>3d</fix>
</trkpt>
<trkpt lat="40.0713749" lon="-105.229789">
  <ele>1583.0</ele>
  <time>2026-09-02T20:50:33Z</time>
  <course>0.0</course>
  <speed>0.0</speed>
  <fix>3d</fix>
</trkpt>
<trkpt lat="40.0713749" lon="-105.229789">
  <ele>1583.0</ele>
  <time>2026-09-02T20:50:33Z</time>
  <course>0.0</course>
  <speed>0.0</speed>
  <fix>3d</fix>
</trkpt>
<trkpt lat="40.0713749" lon="-105.229789">
  <ele>1583.0</ele>
  <time>2026-09-02T20:50:33Z</time>
  <course>0.0</course>
  <speed>0.0</speed>
  <fix>3d</fix>
</trkpt>
<trkpt lat="40.0713749" lon="-105.229789">
  <ele>1583.0</ele>
  <time>2026-09-02T20:50:33Z</time>
  <course>0.0</course>
  <speed>0.0</speed>
  <fix>3d</fix>
</trkpt>
<trkpt lat="40.0713749" lon="-105.229789">
  <ele>1583.0</ele>
  <time>2026-09-02T20:50:33Z</time>
  <course>0.0</course>
  <speed>0.0</speed>
  <fix>3d</fix>
</trkpt>
<trkpt lat="40.0713749" lon="-105.229789">
  <ele>1583.0</ele>
  <time>2026-09-02T20:50:33Z</time>
  <course>0.0</course>
  <speed>0.0</speed>
  <fix>3d</fix>
</trkpt>
<trkpt lat="40.0713749" lon="-105.229789">
  <ele>1583.0</ele>
  <time>2026-09-02T20:50:33Z</time>
  <course>0.0</course>
  <speed>0.0</speed>
  <fix>3d</fix>
</trkpt>
<trkpt lat="40.0713749" lon="-105.229789">
  <ele>1583.0</ele>
  <time>2026-09-02T20:50:33Z</time>
  <course>0.0</course>
  <speed>0.0</speed>
  <fix>3d</fix>
</trkpt>
<trkpt lat="40.0713749" lon="-105.229789">
  <ele>1583.0</ele>
  <time>2026-09-02T20:50:33Z</time>
  <course>0.0</course>
  <speed>0.0</speed>
  <fix>3d</fix>
</trkpt>
<trkpt lat="40.0713749" lon="-105.229789">
  <ele>1583.0</ele>
  <time>2026-09-02T20:50:33Z</time>
  <course>0.0</course>
  <speed>0.0</speed>
  <fix>3d</fix>
</trkpt>
<trkpt lat="40.0713749" lon="-105.229789">
  <ele>1583.0</ele>
  <time>2026-09-02T20:50:33Z</time>
  <course>0.0</course>
  <speed>0.0</speed>
  <fix>3d</fix>
</trkpt>
<trkpt lat="40.0713749" lon="-105.229789">
  <ele>1583.0</ele>
  <time>2026-09-02T20:50:33Z</time>
  <course>0.0</course>
  <speed>0.0</speed>
  <fix>3d</fix>
</trkpt>
<trkpt lat="40.0713749" lon="-105.229789">
  <ele>1583.0</ele>
  <time>2026-09-02T20:50:33Z</time>
  <course>0.0</course>
  <speed>0.0</speed>
  <fix>3d</fix>
</trkpt>
<trkpt lat="40.0713749" lon="-105.229789">
  <ele>1583.0</ele>
  <time>2026-09-02T20:50:33Z</time>
  <course>0.0</course>
  <speed>0.0</speed>
  <fix>3d</fix>
</trkpt>
<trkpt lat="40.0713749" lon="-105.229789">
  <ele>1583.0</ele>
  <time>2026-09-02T20:50:33Z</time>
  <course>0.0</course>
  <speed>0.0</speed>
  <fix>3d</fix>
</trkpt>
<trkpt lat="40.0713749" lon="-105.229789">
  <ele>1583.0</ele>
  <time>2026-09-02T20:50:33Z</time>
  <course>0.0</course>
  <speed>0.0</speed>
  <fix>3d</fix>
</trkpt>
<trkpt lat="40.0713749" lon="-105.229789">
  <ele>1583.0</ele>
  <time>2026-09-02T20:50:33Z</time>
  <course>0.0</course>
  <speed>0.0</speed>
  <fix>3d</fix>
</trkpt>
<trkpt lat="40.0713749" lon="-105.229789">
  <ele>1583.0</ele>
  <time>2026-09-02T20:50:33Z</time>
  <course>0.0</course>
  <speed>0.0</speed>
  <fix>3d</fix>
</trkpt>
<trkpt lat="40.0713749" lon="-105.229789">
  <ele>1583.0</ele>
  <time>2026-09-02T20:50:33Z</time>
  <course>0.0</course>
  <speed>0.0</speed>
  <fix>3d</fix>
</trkpt>
<trkpt lat="40.0713749" lon="-105.229789">
  <ele>1583.0</ele>
  <time>2026-09-02T20:50:33Z</time>
  <course>0.0</course>
  <speed>0.0</speed>
  <fix>3d</fix>
</trkpt>
<trkpt lat="40.0713749" lon="-105.229789">
  <ele>1583.0</ele>
  <time>2026-09-02T20:50:33Z</time>
  <course>0.0</course>
  <speed>0.0</speed>
  <fix>3d</fix>
</trkpt>
<trkpt lat="40.0713749" lon="-105.229789">
  <ele>1583.0</ele>
  <time>2026-09-02T20:50:33Z</time>
  <course>0.0</course>
  <speed>0.0</speed>
  <fix>3d</fix>
</trkpt>
<trkpt lat="40.0713749" lon="-105.229789">
  <ele>1583.0</ele>
  <time>2026-09-02T20:50:33Z</time>
  <course>0.0</course>
  <speed>0.0</speed>
  <fix>3d</fix>
</trkpt>
<trkpt lat="40.0713749" lon="-105.229789">
  <ele>1583.0</ele>
  <time>2026-09-02T20:50:33Z</time>
  <course>0.0</course>
  <speed>0.0</speed>
  <fix>3d</fix>
</trkpt>
<trkpt lat="40.0713749" lon="-105.229789">
  <ele>1583.0</ele>
  <time>2026-09-02T20:50:33Z</time>
  <course>0.0</course>
  <speed>0.0</speed>
  <fix>3d</fix>
</trkpt>
<trkpt lat="40.0713749" lon="-105.229789">
  <ele>1583.0</ele>
  <time>2026-09-02T20:50:33Z</time>
  <course>0.0</course>
  <speed>0.0</speed>
  <fix>3d</fix>
</trkpt>
<trkpt lat="40.0713749" lon="-105.229789">
  <ele>1583.0</ele>
  <time>2026-09-02T20:50:33Z</time>
  <course>0.0</course>
  <speed>0.0</speed>
  <fix>3d</fix>
</trkpt>
<trkpt lat="40.0713749" lon="-105.229789">
  <ele>1583.0</ele>
  <time>2026-09-02T20:50:33Z</time>
  <course>0.0</course>
  <speed>0.0</speed>
  <fix>3d</fix>
</trkpt>
<trkpt lat="40.0713749" lon="-105.229789">
  <ele>1583.0</ele>
  <time>2026-09-02T20:50:33Z</time>
  <course>0.0</course>
  <speed>0.0</speed>
  <fix>3d</fix>
</trkpt>
<trkpt lat="40.0713749" lon="-105.229789">
  <ele>1583.0</ele>
  <time>2026-09-02T20:50:33Z</time>
  <course>0.0</course>
  <speed>0.0</speed>
  <fix>3d</fix>
</trkpt>
<trkpt lat="40.0713749" lon="-105.229789">
  <ele>1583.0</ele>
  <time>2026-09-02T20:50:33Z</time>
  <course>0.0</course>
  <speed>0.0</speed>
  <fix>3d</fix>
</trkpt>
<trkpt lat="40.0713749" lon="-105.229789">
  <ele>1583.0</ele>
  <time>2026-09-02T20:50:33Z</time>
  <course>0.0</course>
  <speed>0.0</speed>
  <fix>3d</fix>
</trkpt>
<trkpt lat="40.0713749" lon="-105.229789">
  <ele>1583.0</ele>
  <time>2026-09-02T20:50:33Z</time>
  <course>0.0</course>
  <speed>0.0</speed>
  <fix>3d</fix>
</trkpt>
<trkpt lat="40.0713749" lon="-105.229789">
  <ele>1583.0</ele>
  <time>2026-09-02T20:50:33Z</time>
  <course>0.0</course>
  <speed>0.0</speed>
  <fix>3d</fix>
</trkpt>
<trkpt lat="40.0713749" lon="-105.229789">
  <ele>1583.0</ele>
  <time>2026-09-02T20:50:33Z</time>
  <course>0.0</course>
  <speed>0.0</speed>
  <fix>3d</fix>
</trkpt>
<trkpt lat="40.0713749" lon="-105.229789">
  <ele>1583.0</ele>
  <time>2026-09-02T20:50:33Z</time>
  <course>0.0</course>
  <speed>0.0</speed>
  <fix>3d</fix>
</trkpt>
<trkpt lat="40.0713749" lon="-105.229789">
  <ele>1583.0</ele>
  <time>2026-09-02T20:50:33Z</time>
  <course>0.0</course>
  <speed>0.0</speed>
  <fix>3d</fix>
</trkpt>
<trkpt lat="40.0713749" lon="-105.229789">
  <ele>1583.0</ele>
  <time>2026-09-02T20:50:33Z</time>
  <course>0.0</course>
  <speed>0.0</speed>
  <fix>3d</fix>
</trkpt>
<trkpt lat="40.0713749" lon="-105.229789">
  <ele>1583.0</ele>
  <time>2026-09-02T20:50:33Z</time>
  <course>0.0</course>
  <speed>0.0</speed>
  <fix>3d</fix>
</trkpt>
<trkpt lat="40.0713749" lon="-105.229789">
  <ele>1583.0</ele>
  <time>2026-09-02T20:50:33Z</time>
  <course>0.0</course>
  <speed>0.0</speed>
  <fix>3d</fix>
</trkpt>
<trkpt lat="40.0713749" lon="-105.229789">
  <ele>1583.0</ele>
  <time>2026-09-02T20:50:33Z</time>
  <course>0.0</course>
  <speed>0.0</speed>
  <fix>3d</fix>
</trkpt>
<trkpt lat="40.0713749" lon="-105.229789">
  <ele>1583.0</ele>
  <time>2026-09-02T20:50:33Z</time>
  <course>0.0</course>
  <speed>0.0</speed>
  <fix>3d</fix>
</trkpt>
<trkpt lat="40.0713749" lon="-105.229789">
  <ele>1583.0</ele>
  <time>2026-09-02T20:50:33Z</time>
  <course>0.0</course>
  <speed>0.0</speed>
  <fix>3d</fix>
</trkpt>
<trkpt lat="40.0713749" lon="-105.229789">
  <ele>1583.0</ele>
  <time>2026-09-02T20:50:33Z</time>
  <course>0.0</course>
  <speed>0.0</speed>
  <fix>3d</fix>
</trkpt>
<trkpt lat="40.0713749" lon="-105.229789">
  <ele>1583.0</ele>
  <time>2026-09-02T20:50:33Z</time>
  <course>0.0</course>
  <speed>0.0</speed>
  <fix>3d</fix>
</trkpt>
<trkpt lat="40.0713749" lon="-105.229789">
  <ele>1583.0</ele>
  <time>2026-09-02T20:50:33Z</time>
  <course>0.0</course>
  <speed>0.0</speed>
  <fix>3d</fix>
</trkpt>
<trkpt lat="40.0713749" lon="-105.229789">
  <ele>1583.0</ele>
  <time>2026-09-02T20:50:33Z</time>
  <course>0.0</course>
  <speed>0.0</speed>
  <fix>3d</fix>
</trkpt>
<trkpt lat="40.0713749" lon="-105.229789">
  <ele>1583.0</ele>
  <time>2026-09-02T20:50:33Z</time>
  <course>0.0</course>
  <speed>0.0</speed>
  <fix>3d</fix>
</trkpt>
<trkpt lat="40.0713749" lon="-105.229789">
  <ele>1583.0</ele>
  <time>2026-09-02T20:50:33Z</time>
  <course>0.0</course>
  <speed>0.0</speed>
  <fix>3d</fix>
</trkpt>
<trkpt lat="40.0713749" lon="-105.229789">
  <ele>1583.0</ele>
  <time>2026-09-02T20:50:33Z</time>
  <course>0.0</course>
  <speed>0.0</speed>
  <fix>3d</fix>
</trkpt>
<trkpt lat="40.0713749" lon="-105.229789">
  <ele>1583.0</ele>
  <time>2026-09-02T20:50:33Z</time>
  <course>0.0</course>
  <speed>0.0</speed>
  <fix>3d</fix>
</trkpt>
<trkpt lat="40.0713749" lon="-105.229789">
  <ele>1583.0</ele>
  <time>2026-09-02T20:50:33Z</time>
  <course>0.0</course>
  <speed>0.0</speed>
  <fix>3d</fix>
</trkpt>
<trkpt lat="40.0713749" lon="-105.229789">
  <ele>1583.0</ele>
  <time>2026-09-02T20:50:33Z</time>
  <course>0.0</course>
  <speed>0.0</speed>
  <fix>3d</fix>
</trkpt>
<trkpt lat="40.0713749" lon="-105.229789">
  <ele>1583.0</ele>
  <time>2026-09-02T20:50:33Z</time>
  <course>0.0</course>
  <speed>0.0</speed>
  <fix>3d</fix>
</trkpt>
<trkpt lat="40.0713749" lon="-105.229789">
  <ele>1583.0</ele>
  <time>2026-09-02T20:50:33Z</time>
  <course>0.0</course>
  <speed>0.0</speed>
  <fix>3d</fix>
</trkpt>
<trkpt lat="40.0713749" lon="-105.229789">
  <ele>1583.0</ele>
  <time>2026-09-02T20:50:33Z</time>
  <course>0.0</course>
  <speed>0.0</speed>
  <fix>3d</fix>
</trkpt>
<trkpt lat="40.0713749" lon="-105.229789">
  <ele>1583.0</ele>
  <time>2026-09-02T20:50:33Z</time>
  <course>0.0</course>
  <speed>0.0</speed>
  <fix>3d</fix>
</trkpt>
<trkpt lat="40.0713749" lon="-105.229789">
  <ele>1583.0</ele>
  <time>2026-09-02T20:50:33Z</time>
  <course>0.0</course>
  <speed>0.0</speed>
  <fix>3d</fix>
</trkpt>
<trkpt lat="40.0713749" lon="-105.229789">
  <ele>1583.0</ele>
  <time>2026-09-02T20:50:33Z</time>
  <course>0.0</course>
  <speed>0.0</speed>
  <fix>3d</fix>
</trkpt>
<trkpt lat="40.0713749" lon="-105.229789">
  <ele>1583.0</ele>
  <time>2026-09-02T20:50:33Z</time>
  <course>0.0</course>
  <speed>0.0</speed>
  <fix>3d</fix>
</trkpt>
<trkpt lat="40.0713749" lon="-105.229789">
  <ele>1583.0</ele>
  <time>2026-09-02T20:50:33Z</time>
  <course>0.0</course>
  <speed>0.0</speed>
  <fix>3d</fix>
</trkpt>
<trkpt lat="40.0713749" lon="-105.229789">
  <ele>1583.0</ele>
  <time>2026-09-02T20:50:33Z</time>
  <course>0.0</course>
  <speed>0.0</speed>
  <fix>3d</fix>
</trkpt>
<trkpt lat="40.0713749" lon="-105.229789">
  <ele>1583.0</ele>
  <time>2026-09-02T20:50:33Z</time>
  <course>0.0</course>
  <speed>0.0</speed>
  <fix>3d</fix>
</trkpt>
<trkpt lat="40.0713749" lon="-105.229789">
  <ele>1583.0</ele>
  <time>2026-09-02T20:50:33Z</time>
  <course>0.0</course>
  <speed>0.0</speed>
  <fix>3d</fix>
</trkpt>
<trkpt lat="40.0713749" lon="-105.229789">
  <ele>1583.0</ele>
  <time>2026-09-02T20:50:33Z</time>
  <course>0.0</course>
  <speed>0.0</speed>
  <fix>3d</fix>
</trkpt>
<trkpt lat="40.0713749" lon="-105.229789">
  <ele>1583.0</ele>
  <time>2026-09-02T20:50:33Z</time>
  <course>0.0</course>
  <speed>0.0</speed>
  <fix>3d</fix>
</trkpt>
<trkpt lat="40.0713749" lon="-105.229789">
  <ele>1583.0</ele>
  <time>2026-09-02T20:50:33Z</time>
  <course>0.0</course>
  <speed>0.0</speed>
  <fix>3d</fix>
</trkpt>
<trkpt lat="40.0713749" lon="-105.229789">
  <ele>1583.0</ele>
  <time>2026-09-02T20:50:33Z</time>
  <course>0.0</course>
  <speed>0.0</speed>
  <fix>3d</fix>
</trkpt>
<trkpt lat="40.0713749" lon="-105.229789">
  <ele>1583.0</ele>
  <time>2026-09-02T20:50:33Z</time>
  <course>0.0</course>
  <speed>0.0</speed>
  <fix>3d</fix>
</trkpt>
<trkpt lat="40.0713749" lon="-105.229789">
  <ele>1583.0</ele>
  <time>2026-09-02T20:50:33Z</time>
  <course>0.0</course>
  <speed>0.0</speed>
  <fix>3d</fix>
</trkpt>
<trkpt lat="40.0713749" lon="-105.229789">
  <ele>1583.0</ele>
  <time>2026-09-02T20:50:33Z</time>
  <course>0.0</course>
  <speed>0.0</speed>
  <fix>3d</fix>
</trkpt>
<trkpt lat="40.0713749" lon="-105.229789">
  <ele>1583.0</ele>
  <time>2026-09-02T20:50:33Z</time>
  <course>0.0</course>
  <speed>0.0</speed>
  <fix>3d</fix>
</trkpt>
<trkpt lat="40.0713749" lon="-105.229789">
  <ele>1583.0</ele>
  <time>2026-09-02T20:50:33Z</time>
  <course>0.0</course>
  <speed>0.0</speed>
  <fix>3d</fix>
</trkpt>
<trkpt lat="40.0713749" lon="-105.229789">
  <ele>1583.0</ele>
  <time>2026-09-02T20:50:33Z</time>
  <course>0.0</course>
  <speed>0.0</speed>
  <fix>3d</fix>
</trkpt>
<trkpt lat="40.0713749" lon="-105.229789">
  <ele>1583.0</ele>
  <time>2026-09-02T20:50:33Z</time>
  <course>0.0</course>
  <speed>0.0</speed>
  <fix>3d</fix>
</trkpt>
<trkpt lat="40.0713749" lon="-105.229789">
  <ele>1583.0</ele>
  <time>2026-09-02T20:50:33Z</time>
  <course>0.0</course>
  <speed>0.0</speed>
  <fix>3d</fix>
</trkpt>
<trkpt lat="40.0713749" lon="-105.229789">
  <ele>1583.0</ele>
  <time>2026-09-02T20:50:33Z</time>
  <course>0.0</course>
  <speed>0.0</speed>
  <fix>3d</fix>
</trkpt>
<trkpt lat="40.0713749" lon="-105.229789">
  <ele>1583.0</ele>
  <time>2026-09-02T20:50:33Z</time>
  <course>0.0</course>
  <speed>0.0</speed>
  <fix>3d</fix>
</trkpt>
<trkpt lat="40.0713749" lon="-105.229789">
  <ele>1583.0</ele>
  <time>2026-09-02T20:50:33Z</time>
  <course>0.0</course>
  <speed>0.0</speed>
  <fix>3d</fix>
</trkpt>
<trkpt lat="40.0713749" lon="-105.229789">
  <ele>1583.0</ele>
  <time>2026-09-02T20:50:33Z</time>
  <course>0.0</course>
  <speed>0.0</speed>
  <fix>3d</fix>
</trkpt>
<trkpt lat="40.0713749" lon="-105.229789">
  <ele>1583.0</ele>
  <time>2026-09-02T20:50:33Z</time>
  <course>0.0</course>
  <speed>0.0</speed>
  <fix>3d</fix>
</trkpt>
<trkpt lat="40.0713749" lon="-105.229789">
  <ele>1583.0</ele>
  <time>2026-09-02T20:50:33Z</time>
  <course>0.0</course>
  <speed>0.0</speed>
  <fix>3d</fix>
</trkpt>
<trkpt lat="40.0713749" lon="-105.229789">
  <ele>1583.0</ele>
  <time>2026-09-02T20:50:33Z</time>
  <course>0.0</course>
  <speed>0.0</speed>
  <fix>3d</fix>
</trkpt>
<trkpt lat="40.0713749" lon="-105.229789">
  <ele>1583.0</ele>
  <time>2026-09-02T20:50:33Z</time>
  <course>0.0</course>
  <speed>0.0</speed>
  <fix>3d</fix>
</trkpt>
<trkpt lat="40.0713749" lon="-105.229789">
  <ele>1583.0</ele>
  <time>2026-09-02T20:50:33Z</time>
  <course>0.0</course>
  <speed>0.0</speed>
  <fix>3d</fix>
</trkpt>
<trkpt lat="40.0713749" lon="-105.229789">
  <ele>1583.0</ele>
  <time>2026-09-02T20:50:33Z</time>
  <course>0.0</course>
  <speed>0.0</speed>
  <fix>3d</fix>
</trkpt>
<trkpt lat="40.0713749" lon="-105.229789">
  <ele>1583.0</ele>
  <time>2026-09-02T20:50:33Z</time>
  <course>0.0</course>
  <speed>0.0</speed>
  <fix>3d</fix>
</trkpt>
<trkpt lat="40.0713749" lon="-105.229789">
  <ele>1583.0</ele>
  <time>2026-09-02T20:50:33Z</time>
  <course>0.0</course>
  <speed>0.0</speed>
  <fix>3d</fix>
</trkpt>
<trkpt lat="40.0713749" lon="-105.229789">
  <ele>1583.0</ele>
  <time>2026-09-02T20:50:33Z</time>
  <course>0.0</course>
  <speed>0.0</speed>
  <fix>3d</fix>
</trkpt>
<trkpt lat="40.0713749" lon="-105.229789">
  <ele>1583.0</ele>
  <time>2026-09-02T20:50:33Z</time>
  <course>0.0</course>
  <speed>0.0</speed>
  <fix>3d</fix>
</trkpt>
<trkpt lat="40.0713749" lon="-105.229789">
  <ele>1583.0</ele>
  <time>2026-09-02T20:50:33Z</time>
  <course>0.0</course>
  <speed>0.0</speed>
  <fix>3d</fix>
</trkpt>
<trkpt lat="40.0713749" lon="-105.229789">
  <ele>1583.0</ele>
  <time>2026-09-02T20:50:33Z</time>
  <course>0.0</course>
  <speed>0.0</speed>
  <fix>3d</fix>
</trkpt>
<trkpt lat="40.0713749" lon="-105.229789">
  <ele>1583.0</ele>
  <time>2026-09-02T20:50:33Z</time>
  <course>0.0</course>
  <speed>0.0</speed>
  <fix>3d</fix>
</trkpt>
<trkpt lat="40.0713749" lon="-105.229789">
  <ele>1583.0</ele>
  <time>2026-09-02T20:50:33Z</time>
  <course>0.0</course>
  <speed>0.0</speed>
  <fix>3d</fix>
</trkpt>
<trkpt lat="40.0713749" lon="-105.229789">
  <ele>1583.0</ele>
  <time>2026-09-02T20:50:33Z</time>
  <course>0.0</course>
  <speed>0.0</speed>
  <fix>3d</fix>
</trkpt>
<trkpt lat="40.0713749" lon="-105.229789">
  <ele>1583.0</ele>
  <time>2026-09-02T20:50:33Z</time>
  <course>0.0</course>
  <speed>0.0</speed>
  <fix>3d</fix>
</trkpt>
<trkpt lat="40.0713749" lon="-105.229789">
  <ele>1583.0</ele>
  <time>2026-09-02T20:50:33Z</time>
  <course>0.0</course>
  <speed>0.0</speed>
  <fix>3d</fix>
</trkpt>
<trkpt lat="40.0713749" lon="-105.229789">
  <ele>1583.0</ele>
  <time>2026-09-02T20:50:33Z</time>
  <course>0.0</course>
  <speed>0.0</speed>
  <fix>3d</fix>
</trkpt>
<trkpt lat="40.0713749" lon="-105.229789">
  <ele>1583.0</ele>
  <time>2026-09-02T20:50:33Z</time>
  <course>0.0</course>
  <speed>0.0</speed>
  <fix>3d</fix>
</trkpt>
<trkpt lat="40.0713749" lon="-105.229789">
  <ele>1583.0</ele>
  <time>2026-09-02T20:50:33Z</time>
  <course>0.0</course>
  <speed>0.0</speed>
  <fix>3d</fix>
</trkpt>
<trkpt lat="40.0713749" lon="-105.229789">
  <ele>1583.0</ele>
  <time>2026-09-02T20:50:33Z</time>
  <course>0.0</course>
  <speed>0.0</speed>
  <fix>3d</fix>
</trkpt>
<trkpt lat="40.0713749" lon="-105.229789">
  <ele>1583.0</ele>
  <time>2026-09-02T20:50:34Z</time>
  <course>0.0</course>
  <speed>0.0</speed>
  <fix>3d</fix>
</trkpt>
<trkpt lat="40.0713749" lon="-105.229789">
  <ele>1583.0</ele>
  <time>2026-09-02T20:50:34Z</time>
  <course>0.0</course>
  <speed>0.0</speed>
  <fix>3d</fix>
</trkpt>
<trkpt lat="40.0713749" lon="-105.229789">
  <ele>1583.0</ele>
  <time>2026-09-02T20:50:34Z</time>
  <course>0.0</course>
  <speed>0.0</speed>
  <fix>3d</fix>
</trkpt>
<trkpt lat="40.0713749" lon="-105.229789">
  <ele>1583.0</ele>
  <time>2026-09-02T20:50:34Z</time>
  <course>0.0</course>
  <speed>0.0</speed>
  <fix>3d</fix>
</trkpt>
<trkpt lat="40.0713749" lon="-105.229789">
  <ele>1583.0</ele>
  <time>2026-09-02T20:50:34Z</time>
  <course>0.0</course>
  <speed>0.0</speed>
  <fix>3d</fix>
</trkpt>
<trkpt lat="40.0713749" lon="-105.229789">
  <ele>1583.0</ele>
  <time>2026-09-02T20:50:34Z</time>
  <course>0.0</course>
  <speed>0.0</speed>
  <fix>3d</fix>
</trkpt>
<trkpt lat="40.0713749" lon="-105.229789">
  <ele>1583.0</ele>
  <time>2026-09-02T20:50:34Z</time>
  <course>0.0</course>
  <speed>0.0</speed>
  <fix>3d</fix>
</trkpt>
<trkpt lat="40.0713749" lon="-105.229789">
  <ele>1583.0</ele>
  <time>2026-09-02T20:50:34Z</time>
  <course>0.0</course>
  <speed>0.0</speed>
  <fix>3d</fix>
</trkpt>
<trkpt lat="40.0713749" lon="-105.229789">
  <ele>1583.0</ele>
  <time>2026-09-02T20:50:34Z</time>
  <course>0.0</course>
  <speed>0.0</speed>
  <fix>3d</fix>
</trkpt>
<trkpt lat="40.0713749" lon="-105.229789">
  <ele>1583.0</ele>
  <time>2026-09-02T20:50:34Z</time>
  <course>0.0</course>
  <speed>0.0</speed>
  <fix>3d</fix>
</trkpt>
<trkpt lat="40.0713749" lon="-105.229789">
  <ele>1583.0</ele>
  <time>2026-09-02T20:50:34Z</time>
  <course>0.0</course>
  <speed>0.0</speed>
  <fix>3d</fix>
</trkpt>
<trkpt lat="40.0713749" lon="-105.229789">
  <ele>1583.0</ele>
  <time>2026-09-02T20:50:34Z</time>
  <course>0.0</course>
  <speed>0.0</speed>
  <fix>3d</fix>
</trkpt>
<trkpt lat="40.0713749" lon="-105.229789">
  <ele>1583.0</ele>
  <time>2026-09-02T20:50:34Z</time>
  <course>0.0</course>
  <speed>0.0</speed>
  <fix>3d</fix>
</trkpt>
<trkpt lat="40.0713749" lon="-105.229789">
  <ele>1583.0</ele>
  <time>2026-09-02T20:50:34Z</time>
  <course>0.0</course>
  <speed>0.0</speed>
  <fix>3d</fix>
</trkpt>
<trkpt lat="40.0713749" lon="-105.229789">
  <ele>1583.0</ele>
  <time>2026-09-02T20:50:34Z</time>
  <course>0.0</course>
  <speed>0.0</speed>
  <fix>3d</fix>
</trkpt>
<trkpt lat="40.0713749" lon="-105.229789">
  <ele>1583.0</ele>
  <time>2026-09-02T20:50:34Z</time>
  <course>0.0</course>
  <speed>0.0</speed>
  <fix>3d</fix>
</trkpt>
<trkpt lat="40.0713749" lon="-105.229789">
  <ele>1583.0</ele>
  <time>2026-09-02T20:50:34Z</time>
  <course>0.0</course>
  <speed>0.0</speed>
  <fix>3d</fix>
</trkpt>
<trkpt lat="40.0713749" lon="-105.229789">
  <ele>1583.0</ele>
  <time>2026-09-02T20:50:34Z</time>
  <course>0.0</course>
  <speed>0.0</speed>
  <fix>3d</fix>
</trkpt>
<trkpt lat="40.0713749" lon="-105.229789">
  <ele>1583.0</ele>
  <time>2026-09-02T20:50:34Z</time>
  <course>0.0</course>
  <speed>0.0</speed>
  <fix>3d</fix>
</trkpt>
<trkpt lat="40.0713749" lon="-105.229789">
  <ele>1583.0</ele>
  <time>2026-09-02T20:50:34Z</time>
  <course>0.0</course>
  <speed>0.0</speed>
  <fix>3d</fix>
</trkpt>
<trkpt lat="40.0713749" lon="-105.229789">
  <ele>1583.0</ele>
  <time>2026-09-02T20:50:34Z</time>
  <course>0.0</course>
  <speed>0.0</speed>
  <fix>3d</fix>
</trkpt>
<trkpt lat="40.0713749" lon="-105.229789">
  <ele>1583.0</ele>
  <time>2026-09-02T20:50:34Z</time>
  <course>0.0</course>
  <speed>0.0</speed>
  <fix>3d</fix>
</trkpt>
<trkpt lat="40.0713749" lon="-105.229789">
  <ele>1583.0</ele>
  <time>2026-09-02T20:50:34Z</time>
  <course>0.0</course>
  <speed>0.0</speed>
  <fix>3d</fix>
</trkpt>
<trkpt lat="40.0713749" lon="-105.229789">
  <ele>1583.0</ele>
  <time>2026-09-02T20:50:34Z</time>
  <course>0.0</course>
  <speed>0.0</speed>
  <fix>3d</fix>
</trkpt>
<trkpt lat="40.0713749" lon="-105.229789">
  <ele>1583.0</ele>
  <time>2026-09-02T20:50:34Z</time>
  <course>0.0</course>
  <speed>0.0</speed>
  <fix>3d</fix>
</trkpt>
<trkpt lat="40.0713749" lon="-105.229789">
  <ele>1583.0</ele>
  <time>2026-09-02T20:50:34Z</time>
  <course>0.0</course>
  <speed>0.0</speed>
  <fix>3d</fix>
</trkpt>
<trkpt lat="40.0713749" lon="-105.229789">
  <ele>1583.0</ele>
  <time>2026-09-02T20:50:34Z</time>
  <course>0.0</course>
  <speed>0.0</speed>
  <fix>3d</fix>
</trkpt>
<trkpt lat="40.0713749" lon="-105.229789">
  <ele>1583.0</ele>
  <time>2026-09-02T20:50:34Z</time>
  <course>0.0</course>
  <speed>0.0</speed>
  <fix>3d</fix>
</trkpt>
<trkpt lat="40.0713749" lon="-105.229789">
  <ele>1583.0</ele>
  <time>2026-09-02T20:50:34Z</time>
  <course>0.0</course>
  <speed>0.0</speed>
  <fix>3d</fix>
</trkpt>
<trkpt lat="40.0713749" lon="-105.229789">
  <ele>1583.0</ele>
  <time>2026-09-02T20:50:34Z</time>
  <course>0.0</course>
  <speed>0.0</speed>
  <fix>3d</fix>
</trkpt>
<trkpt lat="40.0713749" lon="-105.229789">
  <ele>1583.0</ele>
  <time>2026-09-02T20:50:34Z</time>
  <course>0.0</course>
  <speed>0.0</speed>
  <fix>3d</fix>
</trkpt>
<trkpt lat="40.0713749" lon="-105.229789">
  <ele>1583.0</ele>
  <time>2026-09-02T20:50:34Z</time>
  <course>0.0</course>
  <speed>0.0</speed>
  <fix>3d</fix>
</trkpt>
<trkpt lat="40.0713749" lon="-105.229789">
  <ele>1583.0</ele>
  <time>2026-09-02T20:50:34Z</time>
  <course>0.0</course>
  <speed>0.0</speed>
  <fix>3d</fix>
</trkpt>
<trkpt lat="40.0713749" lon="-105.229789">
  <ele>1583.0</ele>
  <time>2026-09-02T20:50:34Z</time>
  <course>0.0</course>
  <speed>0.0</speed>
  <fix>3d</fix>
</trkpt>
<trkpt lat="40.0713749" lon="-105.229789">
  <ele>1583.0</ele>
  <time>2026-09-02T20:50:34Z</time>
  <course>0.0</course>
  <speed>0.0</speed>
  <fix>3d</fix>
</trkpt>
<trkpt lat="40.0713749" lon="-105.229789">
  <ele>1583.0</ele>
  <time>2026-09-02T20:50:34Z</time>
  <course>0.0</course>
  <speed>0.0</speed>
  <fix>3d</fix>
</trkpt>
<trkpt lat="40.0713749" lon="-105.229789">
  <ele>1583.0</ele>
  <time>2026-09-02T20:50:34Z</time>
  <course>0.0</course>
  <speed>0.0</speed>
  <fix>3d</fix>
</trkpt>
<trkpt lat="40.0713749" lon="-105.229789">
  <ele>1583.0</ele>
  <time>2026-09-02T20:50:34Z</time>
  <course>0.0</course>
  <speed>0.0</speed>
  <fix>3d</fix>
</trkpt>
<trkpt lat="40.0713749" lon="-105.229789">
  <ele>1583.0</ele>
  <time>2026-09-02T20:50:34Z</time>
  <course>0.0</course>
  <speed>0.0</speed>
  <fix>3d</fix>
</trkpt>
<trkpt lat="40.0713749" lon="-105.229789">
  <ele>1583.0</ele>
  <time>2026-09-02T20:50:34Z</time>
  <course>0.0</course>
  <speed>0.0</speed>
  <fix>3d</fix>
</trkpt>
<trkpt lat="40.0713749" lon="-105.229789">
  <ele>1583.0</ele>
  <time>2026-09-02T20:50:34Z</time>
  <course>0.0</course>
  <speed>0.0</speed>
  <fix>3d</fix>
</trkpt>
<trkpt lat="40.0713749" lon="-105.229789">
  <ele>1583.0</ele>
  <time>2026-09-02T20:50:34Z</time>
  <course>0.0</course>
  <speed>0.0</speed>
  <fix>3d</fix>
</trkpt>
<trkpt lat="40.0713749" lon="-105.229789">
  <ele>1583.0</ele>
  <time>2026-09-02T20:50:34Z</time>
  <course>0.0</course>
  <speed>0.0</speed>
  <fix>3d</fix>
</trkpt>
<trkpt lat="40.0713749" lon="-105.229789">
  <ele>1583.0</ele>
  <time>2026-09-02T20:50:34Z</time>
  <course>0.0</course>
  <speed>0.0</speed>
  <fix>3d</fix>
</trkpt>
<trkpt lat="40.0713749" lon="-105.229789">
  <ele>1583.0</ele>
  <time>2026-09-02T20:50:34Z</time>
  <course>0.0</course>
  <speed>0.0</speed>
  <fix>3d</fix>
</trkpt>
<trkpt lat="40.0713749" lon="-105.229789">
  <ele>1583.0</ele>
  <time>2026-09-02T20:50:34Z</time>
  <course>0.0</course>
  <speed>0.0</speed>
  <fix>3d</fix>
</trkpt>
<trkpt lat="40.0713749" lon="-105.229789">
  <ele>1583.0</ele>
  <time>2026-09-02T20:50:34Z</time>
  <course>0.0</course>
  <speed>0.0</speed>
  <fix>3d</fix>
</trkpt>
<trkpt lat="40.0713749" lon="-105.229789">
  <ele>1583.0</ele>
  <time>2026-09-02T20:50:34Z</time>
  <course>0.0</course>
  <speed>0.0</speed>
  <fix>3d</fix>
</trkpt>
<trkpt lat="40.0713749" lon="-105.229789">
  <ele>1583.0</ele>
  <time>2026-09-02T20:50:34Z</time>
  <course>0.0</course>
  <speed>0.0</speed>
  <fix>3d</fix>
</trkpt>
<trkpt lat="40.0713749" lon="-105.229789">
  <ele>1583.0</ele>
  <time>2026-09-02T20:50:34Z</time>
  <course>0.0</course>
  <speed>0.0</speed>
  <fix>3d</fix>
</trkpt>
<trkpt lat="40.0713749" lon="-105.229789">
  <ele>1583.0</ele>
  <time>2026-09-02T20:50:34Z</time>
  <course>0.0</course>
  <speed>0.0</speed>
  <fix>3d</fix>
</trkpt>
<trkpt lat="40.0713749" lon="-105.229789">
  <ele>1583.0</ele>
  <time>2026-09-02T20:50:34Z</time>
  <course>0.0</course>
  <speed>0.0</speed>
  <fix>3d</fix>
</trkpt>
<trkpt lat="40.0713749" lon="-105.229789">
  <ele>1583.0</ele>
  <time>2026-09-02T20:50:34Z</time>
  <course>0.0</course>
  <speed>0.0</speed>
  <fix>3d</fix>
</trkpt>
<trkpt lat="40.0713749" lon="-105.229789">
  <ele>1583.0</ele>
  <time>2026-09-02T20:50:34Z</time>
  <course>0.0</course>
  <speed>0.0</speed>
  <fix>3d</fix>
</trkpt>
<trkpt lat="40.0713749" lon="-105.229789">
  <ele>1583.0</ele>
  <time>2026-09-02T20:50:34Z</time>
  <course>0.0</course>
  <speed>0.0</speed>
  <fix>3d</fix>
</trkpt>
<trkpt lat="40.0713749" lon="-105.229789">
  <ele>1583.0</ele>
  <time>2026-09-02T20:50:34Z</time>
  <course>0.0</course>
  <speed>0.0</speed>
  <fix>3d</fix>
</trkpt>
<trkpt lat="40.0713749" lon="-105.229789">
  <ele>1583.0</ele>
  <time>2026-09-02T20:50:34Z</time>
  <course>0.0</course>
  <speed>0.0</speed>
  <fix>3d</fix>
</trkpt>
<trkpt lat="40.0713749" lon="-105.229789">
  <ele>1583.0</ele>
  <time>2026-09-02T20:50:34Z</time>
  <course>0.0</course>
  <speed>0.0</speed>
  <fix>3d</fix>
</trkpt>
<trkpt lat="40.0713749" lon="-105.229789">
  <ele>1583.0</ele>
  <time>2026-09-02T20:50:34Z</time>
  <course>0.0</course>
  <speed>0.0</speed>
  <fix>3d</fix>
</trkpt>
<trkpt lat="40.0713749" lon="-105.229789">
  <ele>1583.0</ele>
  <time>2026-09-02T20:50:34Z</time>
  <course>0.0</course>
  <speed>0.0</speed>
  <fix>3d</fix>
</trkpt>
<trkpt lat="40.0713749" lon="-105.229789">
  <ele>1583.0</ele>
  <time>2026-09-02T20:50:34Z</time>
  <course>0.0</course>
  <speed>0.0</speed>
  <fix>3d</fix>
</trkpt>
<trkpt lat="40.0713749" lon="-105.229789">
  <ele>1583.0</ele>
  <time>2026-09-02T20:50:34Z</time>
  <course>0.0</course>
  <speed>0.0</speed>
  <fix>3d</fix>
</trkpt>
<trkpt lat="40.0713749" lon="-105.229789">
  <ele>1583.0</ele>
  <time>2026-09-02T20:50:34Z</time>
  <course>0.0</course>
  <speed>0.0</speed>
  <fix>3d</fix>
</trkpt>
<trkpt lat="40.0713749" lon="-105.229789">
  <ele>1583.0</ele>
  <time>2026-09-02T20:50:34Z</time>
  <course>0.0</course>
  <speed>0.0</speed>
  <fix>3d</fix>
</trkpt>
<trkpt lat="40.0713749" lon="-105.229789">
  <ele>1583.0</ele>
  <time>2026-09-02T20:50:34Z</time>
  <course>0.0</course>
  <speed>0.0</speed>
  <fix>3d</fix>
</trkpt>
<trkpt lat="40.0713749" lon="-105.229789">
  <ele>1583.0</ele>
  <time>2026-09-02T20:50:34Z</time>
  <course>0.0</course>
  <speed>0.0</speed>
  <fix>3d</fix>
</trkpt>
<trkpt lat="40.0713749" lon="-105.229789">
  <ele>1583.0</ele>
  <time>2026-09-02T20:50:34Z</time>
  <course>0.0</course>
  <speed>0.0</speed>
  <fix>3d</fix>
</trkpt>
<trkpt lat="40.0713749" lon="-105.229789">
  <ele>1583.0</ele>
  <time>2026-09-02T20:50:34Z</time>
  <course>0.0</course>
  <speed>0.0</speed>
  <fix>3d</fix>
</trkpt>
<trkpt lat="40.0713749" lon="-105.229789">
  <ele>1583.0</ele>
  <time>2026-09-02T20:50:34Z</time>
  <course>0.0</course>
  <speed>0.0</speed>
  <fix>3d</fix>
</trkpt>
<trkpt lat="40.0713749" lon="-105.229789">
  <ele>1583.0</ele>
  <time>2026-09-02T20:50:34Z</time>
  <course>0.0</course>
  <speed>0.0</speed>
  <fix>3d</fix>
</trkpt>
<trkpt lat="40.0713749" lon="-105.229789">
  <ele>1583.0</ele>
  <time>2026-09-02T20:50:34Z</time>
  <course>0.0</course>
  <speed>0.0</speed>
  <fix>3d</fix>
</trkpt>
<trkpt lat="40.0713749" lon="-105.229789">
  <ele>1583.0</ele>
  <time>2026-09-02T20:50:34Z</time>
  <course>0.0</course>
  <speed>0.0</speed>
  <fix>3d</fix>
</trkpt>
<trkpt lat="40.0713749" lon="-105.229789">
  <ele>1583.0</ele>
  <time>2026-09-02T20:50:34Z</time>
  <course>0.0</course>
  <speed>0.0</speed>
  <fix>3d</fix>
</trkpt>
<trkpt lat="40.0713749" lon="-105.229789">
  <ele>1583.0</ele>
  <time>2026-09-02T20:50:34Z</time>
  <course>0.0</course>
  <speed>0.0</speed>
  <fix>3d</fix>
</trkpt>
<trkpt lat="40.0713749" lon="-105.229789">
  <ele>1583.0</ele>
  <time>2026-09-02T20:50:34Z</time>
  <course>0.0</course>
  <speed>0.0</speed>
  <fix>3d</fix>
</trkpt>
<trkpt lat="40.0713749" lon="-105.229789">
  <ele>1583.0</ele>
  <time>2026-09-02T20:50:34Z</time>
  <course>0.0</course>
  <speed>0.0</speed>
  <fix>3d</fix>
</trkpt>
<trkpt lat="40.0713749" lon="-105.229789">
  <ele>1583.0</ele>
  <time>2026-09-02T20:50:34Z</time>
  <course>0.0</course>
  <speed>0.0</speed>
  <fix>3d</fix>
</trkpt>
<trkpt lat="40.0713749" lon="-105.229789">
  <ele>1583.0</ele>
  <time>2026-09-02T20:50:34Z</time>
  <course>0.0</course>
  <speed>0.0</speed>
  <fix>3d</fix>
</trkpt>
<trkpt lat="40.0713749" lon="-105.229789">
  <ele>1583.0</ele>
  <time>2026-09-02T20:50:34Z</time>
  <course>0.0</course>
  <speed>0.0</speed>
  <fix>3d</fix>
</trkpt>
<trkpt lat="40.0713749" lon="-105.229789">
  <ele>1583.0</ele>
  <time>2026-09-02T20:50:34Z</time>
  <course>0.0</course>
  <speed>0.0</speed>
  <fix>3d</fix>
</trkpt>
<trkpt lat="40.0713749" lon="-105.229789">
  <ele>1583.0</ele>
  <time>2026-09-02T20:50:34Z</time>
  <course>0.0</course>
  <speed>0.0</speed>
  <fix>3d</fix>
</trkpt>
<trkpt lat="40.0713749" lon="-105.229789">
  <ele>1583.0</ele>
  <time>2026-09-02T20:50:34Z</time>
  <course>0.0</course>
  <speed>0.0</speed>
  <fix>3d</fix>
</trkpt>
<trkpt lat="40.0713749" lon="-105.229789">
  <ele>1583.0</ele>
  <time>2026-09-02T20:50:34Z</time>
  <course>0.0</course>
  <speed>0.0</speed>
  <fix>3d</fix>
</trkpt>
<trkpt lat="40.0713749" lon="-105.229789">
  <ele>1583.0</ele>
  <time>2026-09-02T20:50:34Z</time>
  <course>0.0</course>
  <speed>0.0</speed>
  <fix>3d</fix>
</trkpt>
<trkpt lat="40.0713749" lon="-105.229789">
  <ele>1583.0</ele>
  <time>2026-09-02T20:50:34Z</time>
  <course>0.0</course>
  <speed>0.0</speed>
  <fix>3d</fix>
</trkpt>
<trkpt lat="40.0713749" lon="-105.229789">
  <ele>1583.0</ele>
  <time>2026-09-02T20:50:34Z</time>
  <course>0.0</course>
  <speed>0.0</speed>
  <fix>3d</fix>
</trkpt>
<trkpt lat="40.0713749" lon="-105.229789">
  <ele>1583.0</ele>
  <time>2026-09-02T20:50:34Z</time>
  <course>0.0</course>
  <speed>0.0</speed>
  <fix>3d</fix>
</trkpt>
<trkpt lat="40.0713749" lon="-105.229789">
  <ele>1583.0</ele>
  <time>2026-09-02T20:50:34Z</time>
  <course>0.0</course>
  <speed>0.0</speed>
  <fix>3d</fix>
</trkpt>
<trkpt lat="40.0713749" lon="-105.229789">
  <ele>1583.0</ele>
  <time>2026-09-02T20:50:34Z</time>
  <course>0.0</course>
  <speed>0.0</speed>
  <fix>3d</fix>
</trkpt>
<trkpt lat="40.0713749" lon="-105.229789">
  <ele>1583.0</ele>
  <time>2026-09-02T20:50:34Z</time>
  <course>0.0</course>
  <speed>0.0</speed>
  <fix>3d</fix>
</trkpt>
<trkpt lat="40.0713749" lon="-105.229789">
  <ele>1583.0</ele>
  <time>2026-09-02T20:50:34Z</time>
  <course>0.0</course>
  <speed>0.0</speed>
  <fix>3d</fix>
</trkpt>
<trkpt lat="40.0713749" lon="-105.229789">
  <ele>1583.0</ele>
  <time>2026-09-02T20:50:34Z</time>
  <course>0.0</course>
  <speed>0.0</speed>
  <fix>3d</fix>
</trkpt>
<trkpt lat="40.0713749" lon="-105.229789">
  <ele>1583.0</ele>
  <time>2026-09-02T20:50:34Z</time>
  <course>0.0</course>
  <speed>0.0</speed>
  <fix>3d</fix>
</trkpt>
<trkpt lat="40.0713749" lon="-105.229789">
  <ele>1583.0</ele>
  <time>2026-09-02T20:50:34Z</time>
  <course>0.0</course>
  <speed>0.0</speed>
  <fix>3d</fix>
</trkpt>
<trkpt lat="40.0713749" lon="-105.229789">
  <ele>1583.0</ele>
  <time>2026-09-02T20:50:34Z</time>
  <course>0.0</course>
  <speed>0.0</speed>
  <fix>3d</fix>
</trkpt>
<trkpt lat="40.0713749" lon="-105.229789">
  <ele>1583.0</ele>
  <time>2026-09-02T20:50:34Z</time>
  <course>0.0</course>
  <speed>0.0</speed>
  <fix>3d</fix>
</trkpt>
<trkpt lat="40.0713749" lon="-105.229789">
  <ele>1583.0</ele>
  <time>2026-09-02T20:50:34Z</time>
  <course>0.0</course>
  <speed>0.0</speed>
  <fix>3d</fix>
</trkpt>
<trkpt lat="40.0713749" lon="-105.229789">
  <ele>1583.0</ele>
  <time>2026-09-02T20:50:34Z</time>
  <course>0.0</course>
  <speed>0.0</speed>
  <fix>3d</fix>
</trkpt>
<trkpt lat="40.0713749" lon="-105.229789">
  <ele>1583.0</ele>
  <time>2026-09-02T20:50:34Z</time>
  <course>0.0</course>
  <speed>0.0</speed>
  <fix>3d</fix>
</trkpt>
<trkpt lat="40.0713749" lon="-105.229789">
  <ele>1583.0</ele>
  <time>2026-09-02T20:50:34Z</time>
  <course>0.0</course>
  <speed>0.0</speed>
  <fix>3d</fix>
</trkpt>
<trkpt lat="40.0713749" lon="-105.229789">
  <ele>1583.0</ele>
  <time>2026-09-02T20:50:34Z</time>
  <course>0.0</course>
  <speed>0.0</speed>
  <fix>3d</fix>
</trkpt>
<trkpt lat="40.0713749" lon="-105.229789">
  <ele>1583.0</ele>
  <time>2026-09-02T20:50:34Z</time>
  <course>0.0</course>
  <speed>0.0</speed>
  <fix>3d</fix>
</trkpt>
<trkpt lat="40.0713749" lon="-105.229789">
  <ele>1583.0</ele>
  <time>2026-09-02T20:50:34Z</time>
  <course>0.0</course>
  <speed>0.0</speed>
  <fix>3d</fix>
</trkpt>
<trkpt lat="40.0713749" lon="-105.229789">
  <ele>1583.0</ele>
  <time>2026-09-02T20:50:34Z</time>
  <course>0.0</course>
  <speed>0.0</speed>
  <fix>3d</fix>
</trkpt>
<trkpt lat="40.0713749" lon="-105.229789">
  <ele>1583.0</ele>
  <time>2026-09-02T20:50:34Z</time>
  <course>0.0</course>
  <speed>0.0</speed>
  <fix>3d</fix>
</trkpt>
<trkpt lat="40.0713749" lon="-105.229789">
  <ele>1583.0</ele>
  <time>2026-09-02T20:50:34Z</time>
  <course>0.0</course>
  <speed>0.0</speed>
  <fix>3d</fix>
</trkpt>
<trkpt lat="40.0713749" lon="-105.229789">
  <ele>1583.0</ele>
  <time>2026-09-02T20:50:34Z</time>
  <course>0.0</course>
  <speed>0.0</speed>
  <fix>3d</fix>
</trkpt>
<trkpt lat="40.0713749" lon="-105.229789">
  <ele>1583.0</ele>
  <time>2026-09-02T20:50:34Z</time>
  <course>0.0</course>
  <speed>0.0</speed>
  <fix>3d</fix>
</trkpt>
<trkpt lat="40.0713749" lon="-105.229789">
  <ele>1583.0</ele>
  <time>2026-09-02T20:50:34Z</time>
  <course>0.0</course>
  <speed>0.0</speed>
  <fix>3d</fix>
</trkpt>
<trkpt lat="40.0713749" lon="-105.229789">
  <ele>1583.0</ele>
  <time>2026-09-02T20:50:34Z</time>
  <course>0.0</course>
  <speed>0.0</speed>
  <fix>3d</fix>
</trkpt>
<trkpt lat="40.0713749" lon="-105.229789">
  <ele>1583.0</ele>
  <time>2026-09-02T20:50:34Z</time>
  <course>0.0</course>
  <speed>0.0</speed>
  <fix>3d</fix>
</trkpt>
<trkpt lat="40.0713749" lon="-105.229789">
  <ele>1583.0</ele>
  <time>2026-09-02T20:50:34Z</time>
  <course>0.0</course>
  <speed>0.0</speed>
  <fix>3d</fix>
</trkpt>
<trkpt lat="40.0713749" lon="-105.229789">
  <ele>1583.0</ele>
  <time>2026-09-02T20:50:34Z</time>
  <course>0.0</course>
  <speed>0.0</speed>
  <fix>3d</fix>
</trkpt>
<trkpt lat="40.0713749" lon="-105.229789">
  <ele>1583.0</ele>
  <time>2026-09-02T20:50:34Z</time>
  <course>0.0</course>
  <speed>0.0</speed>
  <fix>3d</fix>
</trkpt>
<trkpt lat="39.655741" lon="-104.1383097">
  <ele>1566.58</ele>
  <time>2026-09-02T20:50:34Z</time>
  <course>0.0</course>
  <speed>0.0</speed>
  <fix>3d</fix>
</trkpt>
<trkpt lat="40.0713749" lon="-105.229789">
  <ele>1583.0</ele>
  <time>2026-09-02T20:50:34Z</time>
  <course>0.0</course>
  <speed>0.0</speed>
  <fix>3d</fix>
</trkpt>
<trkpt lat="40.0713749" lon="-105.229789">
  <ele>1583.0</ele>
  <time>2026-09-02T20:50:34Z</time>
  <course>0.0</course>
  <speed>0.0</speed>
  <fix>3d</fix>
</trkpt>
<trkpt lat="40.0713749" lon="-105.229789">
  <ele>1583.0</ele>
  <time>2026-09-02T20:50:34Z</time>
  <course>0.0</course>
  <speed>0.0</speed>
  <fix>3d</fix>
</trkpt>
<trkpt lat="40.0713749" lon="-105.229789">
  <ele>1583.0</ele>
  <time>2026-09-02T20:50:34Z</time>
  <course>0.0</course>
  <speed>0.0</speed>
  <fix>3d</fix>
</trkpt>
<trkpt lat="40.0713749" lon="-105.229789">
  <ele>1583.0</ele>
  <time>2026-09-02T20:50:34Z</time>
  <course>0.0</course>
  <speed>0.0</speed>
  <fix>3d</fix>
</trkpt>
<trkpt lat="40.0713749" lon="-105.229789">
  <ele>1583.0</ele>
  <time>2026-09-02T20:50:34Z</time>
  <course>0.0</course>
  <speed>0.0</speed>
  <fix>3d</fix>
</trkpt>
<trkpt lat="40.0713749" lon="-105.229789">
  <ele>1583.0</ele>
  <time>2026-09-02T20:50:34Z</time>
  <course>0.0</course>
  <speed>0.0</speed>
  <fix>3d</fix>
</trkpt>
<trkpt lat="40.0713749" lon="-105.229789">
  <ele>1583.0</ele>
  <time>2026-09-02T20:50:34Z</time>
  <course>0.0</course>
  <speed>0.0</speed>
  <fix>3d</fix>
</trkpt>
<trkpt lat="40.0713749" lon="-105.229789">
  <ele>1583.0</ele>
  <time>2026-09-02T20:50:34Z</time>
  <course>0.0</course>
  <speed>0.0</speed>
  <fix>3d</fix>
</trkpt>
<trkpt lat="40.0713749" lon="-105.229789">
  <ele>1583.0</ele>
  <time>2026-09-02T20:50:34Z</time>
  <course>0.0</course>
  <speed>0.0</speed>
  <fix>3d</fix>
</trkpt>
<trkpt lat="40.0713749" lon="-105.229789">
  <ele>1583.0</ele>
  <time>2026-09-02T20:50:34Z</time>
  <course>0.0</course>
  <speed>0.0</speed>
  <fix>3d</fix>
</trkpt>
<trkpt lat="40.0713749" lon="-105.229789">
  <ele>1583.0</ele>
  <time>2026-09-02T20:50:34Z</time>
  <course>0.0</course>
  <speed>0.0</speed>
  <fix>3d</fix>
</trkpt>
<trkpt lat="40.0713749" lon="-105.229789">
  <ele>1583.0</ele>
  <time>2026-09-02T20:50:34Z</time>
  <course>0.0</course>
  <speed>0.0</speed>
  <fix>3d</fix>
</trkpt>
<trkpt lat="40.0713749" lon="-105.229789">
  <ele>1583.0</ele>
  <time>2026-09-02T20:50:34Z</time>
  <course>0.0</course>
  <speed>0.0</speed>
  <fix>3d</fix>
</trkpt>
<trkpt lat="40.0713749" lon="-105.229789">
  <ele>1583.0</ele>
  <time>2026-09-02T20:50:34Z</time>
  <course>0.0</course>
  <speed>0.0</speed>
  <fix>3d</fix>
</trkpt>
<trkpt lat="40.0713749" lon="-105.229789">
  <ele>1583.0</ele>
  <time>2026-09-02T20:50:34Z</time>
  <course>0.0</course>
  <speed>0.0</speed>
  <fix>3d</fix>
</trkpt>
<trkpt lat="40.0713749" lon="-105.229789">
  <ele>1583.0</ele>
  <time>2026-09-02T20:50:34Z</time>
  <course>0.0</course>
  <speed>0.0</speed>
  <fix>3d</fix>
</trkpt>
<trkpt lat="40.0713749" lon="-105.229789">
  <ele>1583.0</ele>
  <time>2026-09-02T20:50:34Z</time>
  <course>0.0</course>
  <speed>0.0</speed>
  <fix>3d</fix>
</trkpt>
<trkpt lat="40.0713749" lon="-105.229789">
  <ele>1583.0</ele>
  <time>2026-09-02T20:50:34Z</time>
  <course>0.0</course>
  <speed>0.0</speed>
  <fix>3d</fix>
</trkpt>
<trkpt lat="40.0713749" lon="-105.229789">
  <ele>1583.0</ele>
  <time>2026-09-02T20:50:34Z</time>
  <course>0.0</course>
  <speed>0.0</speed>
  <fix>3d</fix>
</trkpt>
<trkpt lat="40.0713749" lon="-105.229789">
  <ele>1583.0</ele>
  <time>2026-09-02T20:50:34Z</time>
  <course>0.0</course>
  <speed>0.0</speed>
  <fix>3d</fix>
</trkpt>
<trkpt lat="40.0713749" lon="-105.229789">
  <ele>1583.0</ele>
  <time>2026-09-02T20:50:34Z</time>
  <course>0.0</course>
  <speed>0.0</speed>
  <fix>3d</fix>
</trkpt>
<trkpt lat="40.0713749" lon="-105.229789">
  <ele>1583.0</ele>
  <time>2026-09-02T20:50:34Z</time>
  <course>0.0</course>
  <speed>0.0</speed>
  <fix>3d</fix>
</trkpt>
<trkpt lat="40.0713749" lon="-105.229789">
  <ele>1583.0</ele>
  <time>2026-09-02T20:50:34Z</time>
  <course>0.0</course>
  <speed>0.0</speed>
  <fix>3d</fix>
</trkpt>
<trkpt lat="40.0713749" lon="-105.229789">
  <ele>1583.0</ele>
  <time>2026-09-02T20:50:34Z</time>
  <course>0.0</course>
  <speed>0.0</speed>
  <fix>3d</fix>
</trkpt>
<trkpt lat="40.0713749" lon="-105.229789">
  <ele>1583.0</ele>
  <time>2026-09-02T20:50:34Z</time>
  <course>0.0</course>
  <speed>0.0</speed>
  <fix>3d</fix>
</trkpt>
<trkpt lat="40.0713749" lon="-105.229789">
  <ele>1583.0</ele>
  <time>2026-09-02T20:50:34Z</time>
  <course>0.0</course>
  <speed>0.0</speed>
  <fix>3d</fix>
</trkpt>
<trkpt lat="40.0713749" lon="-105.229789">
  <ele>1583.0</ele>
  <time>2026-09-02T20:50:34Z</time>
  <course>0.0</course>
  <speed>0.0</speed>
  <fix>3d</fix>
</trkpt>
<trkpt lat="40.0713749" lon="-105.229789">
  <ele>1583.0</ele>
  <time>2026-09-02T20:50:34Z</time>
  <course>0.0</course>
  <speed>0.0</speed>
  <fix>3d</fix>
</trkpt>
<trkpt lat="40.0713749" lon="-105.229789">
  <ele>1583.0</ele>
  <time>2026-09-02T20:50:34Z</time>
  <course>0.0</course>
  <speed>0.0</speed>
  <fix>3d</fix>
</trkpt>
<trkpt lat="40.0713749" lon="-105.229789">
  <ele>1583.0</ele>
  <time>2026-09-02T20:50:34Z</time>
  <course>0.0</course>
  <speed>0.0</speed>
  <fix>3d</fix>
</trkpt>
<trkpt lat="40.0713749" lon="-105.229789">
  <ele>1583.0</ele>
  <time>2026-09-02T20:50:34Z</time>
  <course>0.0</course>
  <speed>0.0</speed>
  <fix>3d</fix>
</trkpt>
<trkpt lat="40.0713749" lon="-105.229789">
  <ele>1583.0</ele>
  <time>2026-09-02T20:50:34Z</time>
  <course>0.0</course>
  <speed>0.0</speed>
  <fix>3d</fix>
</trkpt>
<trkpt lat="40.0713749" lon="-105.229789">
  <ele>1583.0</ele>
  <time>2026-09-02T20:50:34Z</time>
  <course>0.0</course>
  <speed>0.0</speed>
  <fix>3d</fix>
</trkpt>
<trkpt lat="40.0713749" lon="-105.229789">
  <ele>1583.0</ele>
  <time>2026-09-02T20:50:34Z</time>
  <course>0.0</course>
  <speed>0.0</speed>
  <fix>3d</fix>
</trkpt>
<trkpt lat="40.0713749" lon="-105.229789">
  <ele>1583.0</ele>
  <time>2026-09-02T20:50:34Z</time>
  <course>0.0</course>
  <speed>0.0</speed>
  <fix>3d</fix>
</trkpt>
<trkpt lat="40.0713749" lon="-105.229789">
  <ele>1583.0</ele>
  <time>2026-09-02T20:50:34Z</time>
  <course>0.0</course>
  <speed>0.0</speed>
  <fix>3d</fix>
</trkpt>
<trkpt lat="40.0713749" lon="-105.229789">
  <ele>1583.0</ele>
  <time>2026-09-02T20:50:34Z</time>
  <course>0.0</course>
  <speed>0.0</speed>
  <fix>3d</fix>
</trkpt>
<trkpt lat="40.0713749" lon="-105.229789">
  <ele>1583.0</ele>
  <time>2026-09-02T20:50:34Z</time>
  <course>0.0</course>
  <speed>0.0</speed>
  <fix>3d</fix>
</trkpt>
<trkpt lat="40.0713749" lon="-105.229789">
  <ele>1583.0</ele>
  <time>2026-09-02T20:50:34Z</time>
  <course>0.0</course>
  <speed>0.0</speed>
  <fix>3d</fix>
</trkpt>
<trkpt lat="40.0713749" lon="-105.229789">
  <ele>1583.0</ele>
  <time>2026-09-02T20:50:34Z</time>
  <course>0.0</course>
  <speed>0.0</speed>
  <fix>3d</fix>
</trkpt>
<trkpt lat="40.0713749" lon="-105.229789">
  <ele>1583.0</ele>
  <time>2026-09-02T20:50:34Z</time>
  <course>0.0</course>
  <speed>0.0</speed>
  <fix>3d</fix>
</trkpt>
<trkpt lat="40.0713749" lon="-105.229789">
  <ele>1583.0</ele>
  <time>2026-09-02T20:50:34Z</time>
  <course>0.0</course>
  <speed>0.0</speed>
  <fix>3d</fix>
</trkpt>
<trkpt lat="40.0713749" lon="-105.229789">
  <ele>1583.0</ele>
  <time>2026-09-02T20:50:34Z</time>
  <course>0.0</course>
  <speed>0.0</speed>
  <fix>3d</fix>
</trkpt>
<trkpt lat="40.0713749" lon="-105.229789">
  <ele>1583.0</ele>
  <time>2026-09-02T20:50:34Z</time>
  <course>0.0</course>
  <speed>0.0</speed>
  <fix>3d</fix>
</trkpt>
<trkpt lat="40.0713749" lon="-105.229789">
  <ele>1583.0</ele>
  <time>2026-09-02T20:50:34Z</time>
  <course>0.0</course>
  <speed>0.0</speed>
  <fix>3d</fix>
</trkpt>
<trkpt lat="40.0713749" lon="-105.229789">
  <ele>1583.0</ele>
  <time>2026-09-02T20:50:34Z</time>
  <course>0.0</course>
  <speed>0.0</speed>
  <fix>3d</fix>
</trkpt>
<trkpt lat="40.0713749" lon="-105.229789">
  <ele>1583.0</ele>
  <time>2026-09-02T20:50:34Z</time>
  <course>0.0</course>
  <speed>0.0</speed>
  <fix>3d</fix>
</trkpt>
<trkpt lat="40.0713749" lon="-105.229789">
  <ele>1583.0</ele>
  <time>2026-09-02T20:50:34Z</time>
  <course>0.0</course>
  <speed>0.0</speed>
  <fix>3d</fix>
</trkpt>
<trkpt lat="40.0713749" lon="-105.229789">
  <ele>1583.0</ele>
  <time>2026-09-02T20:50:34Z</time>
  <course>0.0</course>
  <speed>0.0</speed>
  <fix>3d</fix>
</trkpt>
<trkpt lat="40.0713749" lon="-105.229789">
  <ele>1583.0</ele>
  <time>2026-09-02T20:50:34Z</time>
  <course>0.0</course>
  <speed>0.0</speed>
  <fix>3d</fix>
</trkpt>
<trkpt lat="40.0713749" lon="-105.229789">
  <ele>1583.0</ele>
  <time>2026-09-02T20:50:34Z</time>
  <course>0.0</course>
  <speed>0.0</speed>
  <fix>3d</fix>
</trkpt>
<trkpt lat="40.0713749" lon="-105.229789">
  <ele>1583.0</ele>
  <time>2026-09-02T20:50:34Z</time>
  <course>0.0</course>
  <speed>0.0</speed>
  <fix>3d</fix>
</trkpt>
<trkpt lat="40.0713749" lon="-105.229789">
  <ele>1583.0</ele>
  <time>2026-09-02T20:50:34Z</time>
  <course>0.0</course>
  <speed>0.0</speed>
  <fix>3d</fix>
</trkpt>
<trkpt lat="40.0713749" lon="-105.229789">
  <ele>1583.0</ele>
  <time>2026-09-02T20:50:34Z</time>
  <course>0.0</course>
  <speed>0.0</speed>
  <fix>3d</fix>
</trkpt>
<trkpt lat="40.0713749" lon="-105.229789">
  <ele>1583.0</ele>
  <time>2026-09-02T20:50:34Z</time>
  <course>0.0</course>
  <speed>0.0</speed>
  <fix>3d</fix>
</trkpt>
<trkpt lat="40.0713749" lon="-105.229789">
  <ele>1583.0</ele>
  <time>2026-09-02T20:50:34Z</time>
  <course>0.0</course>
  <speed>0.0</speed>
  <fix>3d</fix>
</trkpt>
<trkpt lat="40.0713749" lon="-105.229789">
  <ele>1583.0</ele>
  <time>2026-09-02T20:50:34Z</time>
  <course>0.0</course>
  <speed>0.0</speed>
  <fix>3d</fix>
</trkpt>
<trkpt lat="40.0713749" lon="-105.229789">
  <ele>1583.0</ele>
  <time>2026-09-02T20:50:34Z</time>
  <course>0.0</course>
  <speed>0.0</speed>
  <fix>3d</fix>
</trkpt>
<trkpt lat="40.0713749" lon="-105.229789">
  <ele>1583.0</ele>
  <time>2026-09-02T20:50:34Z</time>
  <course>0.0</course>
  <speed>0.0</speed>
  <fix>3d</fix>
</trkpt>
<trkpt lat="40.0713749" lon="-105.229789">
  <ele>1583.0</ele>
  <time>2026-09-02T20:50:34Z</time>
  <course>0.0</course>
  <speed>0.0</speed>
  <fix>3d</fix>
</trkpt>
<trkpt lat="40.0713749" lon="-105.229789">
  <ele>1583.0</ele>
  <time>2026-09-02T20:50:34Z</time>
  <course>0.0</course>
  <speed>0.0</speed>
  <fix>3d</fix>
</trkpt>
<trkpt lat="40.0713749" lon="-105.229789">
  <ele>1583.0</ele>
  <time>2026-09-02T20:50:34Z</time>
  <course>0.0</course>
  <speed>0.0</speed>
  <fix>3d</fix>
</trkpt>
<trkpt lat="40.0713749" lon="-105.229789">
  <ele>1583.0</ele>
  <time>2026-09-02T20:50:34Z</time>
  <course>0.0</course>
  <speed>0.0</speed>
  <fix>3d</fix>
</trkpt>
<trkpt lat="40.0713749" lon="-105.229789">
  <ele>1583.0</ele>
  <time>2026-09-02T20:50:34Z</time>
  <course>0.0</course>
  <speed>0.0</speed>
  <fix>3d</fix>
</trkpt>
<trkpt lat="40.0713749" lon="-105.229789">
  <ele>1583.0</ele>
  <time>2026-09-02T20:50:34Z</time>
  <course>0.0</course>
  <speed>0.0</speed>
  <fix>3d</fix>
</trkpt>
<trkpt lat="40.0713749" lon="-105.229789">
  <ele>1583.0</ele>
  <time>2026-09-02T20:50:34Z</time>
  <course>0.0</course>
  <speed>0.0</speed>
  <fix>3d</fix>
</trkpt>
<trkpt lat="40.0713749" lon="-105.229789">
  <ele>1583.0</ele>
  <time>2026-09-02T20:50:34Z</time>
  <course>0.0</course>
  <speed>0.0</speed>
  <fix>3d</fix>
</trkpt>
<trkpt lat="40.0713749" lon="-105.229789">
  <ele>1583.0</ele>
  <time>2026-09-02T20:50:34Z</time>
  <course>0.0</course>
  <speed>0.0</speed>
  <fix>3d</fix>
</trkpt>
<trkpt lat="40.0713749" lon="-105.229789">
  <ele>1583.0</ele>
  <time>2026-09-02T20:50:34Z</time>
  <course>0.0</course>
  <speed>0.0</speed>
  <fix>3d</fix>
</trkpt>
<trkpt lat="40.0713749" lon="-105.229789">
  <ele>1583.0</ele>
  <time>2026-09-02T20:50:34Z</time>
  <course>0.0</course>
  <speed>0.0</speed>
  <fix>3d</fix>
</trkpt>
<trkpt lat="40.0713749" lon="-105.229789">
  <ele>1583.0</ele>
  <time>2026-09-02T20:50:34Z</time>
  <course>0.0</course>
  <speed>0.0</speed>
  <fix>3d</fix>
</trkpt>
<trkpt lat="40.0713749" lon="-105.229789">
  <ele>1583.0</ele>
  <time>2026-09-02T20:50:34Z</time>
  <course>0.0</course>
  <speed>0.0</speed>
  <fix>3d</fix>
</trkpt>
<trkpt lat="40.0713749" lon="-105.229789">
  <ele>1583.0</ele>
  <time>2026-09-02T20:50:34Z</time>
  <course>0.0</course>
  <speed>0.0</speed>
  <fix>3d</fix>
</trkpt>
<trkpt lat="40.0713749" lon="-105.229789">
  <ele>1583.0</ele>
  <time>2026-09-02T20:50:34Z</time>
  <course>0.0</course>
  <speed>0.0</speed>
  <fix>3d</fix>
</trkpt>
<trkpt lat="40.0713749" lon="-105.229789">
  <ele>1583.0</ele>
  <time>2026-09-02T20:50:34Z</time>
  <course>0.0</course>
  <speed>0.0</speed>
  <fix>3d</fix>
</trkpt>
<trkpt lat="40.0713749" lon="-105.229789">
  <ele>1583.0</ele>
  <time>2026-09-02T20:50:34Z</time>
  <course>0.0</course>
  <speed>0.0</speed>
  <fix>3d</fix>
</trkpt>
<trkpt lat="40.0713749" lon="-105.229789">
  <ele>1583.0</ele>
  <time>2026-09-02T20:50:34Z</time>
  <course>0.0</course>
  <speed>0.0</speed>
  <fix>3d</fix>
</trkpt>
<trkpt lat="40.0713749" lon="-105.229789">
  <ele>1583.0</ele>
  <time>2026-09-02T20:50:34Z</time>
  <course>0.0</course>
  <speed>0.0</speed>
  <fix>3d</fix>
</trkpt>
<trkpt lat="40.0713749" lon="-105.229789">
  <ele>1583.0</ele>
  <time>2026-09-02T20:50:34Z</time>
  <course>0.0</course>
  <speed>0.0</speed>
  <fix>3d</fix>
</trkpt>
<trkpt lat="40.0713749" lon="-105.229789">
  <ele>1583.0</ele>
  <time>2026-09-02T20:50:34Z</time>
  <course>0.0</course>
  <speed>0.0</speed>
  <fix>3d</fix>
</trkpt>
<trkpt lat="40.0713749" lon="-105.229789">
  <ele>1583.0</ele>
  <time>2026-09-02T20:50:34Z</time>
  <course>0.0</course>
  <speed>0.0</speed>
  <fix>3d</fix>
</trkpt>
<trkpt lat="40.0713749" lon="-105.229789">
  <ele>1583.0</ele>
  <time>2026-09-02T20:50:34Z</time>
  <course>0.0</course>
  <speed>0.0</speed>
  <fix>3d</fix>
</trkpt>
<trkpt lat="40.0713749" lon="-105.229789">
  <ele>1583.0</ele>
  <time>2026-09-02T20:50:34Z</time>
  <course>0.0</course>
  <speed>0.0</speed>
  <fix>3d</fix>
</trkpt>
<trkpt lat="40.0713749" lon="-105.229789">
  <ele>1583.0</ele>
  <time>2026-09-02T20:50:34Z</time>
  <course>0.0</course>
  <speed>0.0</speed>
  <fix>3d</fix>
</trkpt>
<trkpt lat="40.0713749" lon="-105.229789">
  <ele>1583.0</ele>
  <time>2026-09-02T20:50:34Z</time>
  <course>0.0</course>
  <speed>0.0</speed>
  <fix>3d</fix>
</trkpt>
<trkpt lat="40.0713749" lon="-105.229789">
  <ele>1583.0</ele>
  <time>2026-09-02T20:50:34Z</time>
  <course>0.0</course>
  <speed>0.0</speed>
  <fix>3d</fix>
</trkpt>
<trkpt lat="40.0713749" lon="-105.229789">
  <ele>1583.0</ele>
  <time>2026-09-02T20:50:34Z</time>
  <course>0.0</course>
  <speed>0.0</speed>
  <fix>3d</fix>
</trkpt>
<trkpt lat="40.0713749" lon="-105.229789">
  <ele>1583.0</ele>
  <time>2026-09-02T20:50:34Z</time>
  <course>0.0</course>
  <speed>0.0</speed>
  <fix>3d</fix>
</trkpt>
<trkpt lat="40.0713749" lon="-105.229789">
  <ele>1583.0</ele>
  <time>2026-09-02T20:50:34Z</time>
  <course>0.0</course>
  <speed>0.0</speed>
  <fix>3d</fix>
</trkpt>
<trkpt lat="40.0713749" lon="-105.229789">
  <ele>1583.0</ele>
  <time>2026-09-02T20:50:34Z</time>
  <course>0.0</course>
  <speed>0.0</speed>
  <fix>3d</fix>
</trkpt>
<trkpt lat="40.0713749" lon="-105.229789">
  <ele>1583.0</ele>
  <time>2026-09-02T20:50:34Z</time>
  <course>0.0</course>
  <speed>0.0</speed>
  <fix>3d</fix>
</trkpt>
<trkpt lat="40.0713749" lon="-105.229789">
  <ele>1583.0</ele>
  <time>2026-09-02T20:50:34Z</time>
  <course>0.0</course>
  <speed>0.0</speed>
  <fix>3d</fix>
</trkpt>
<trkpt lat="40.0713749" lon="-105.229789">
  <ele>1583.0</ele>
  <time>2026-09-02T20:50:34Z</time>
  <course>0.0</course>
  <speed>0.0</speed>
  <fix>3d</fix>
</trkpt>
<trkpt lat="40.0713749" lon="-105.229789">
  <ele>1583.0</ele>
  <time>2026-09-02T20:50:34Z</time>
  <course>0.0</course>
  <speed>0.0</speed>
  <fix>3d</fix>
</trkpt>
<trkpt lat="40.0713749" lon="-105.229789">
  <ele>1583.0</ele>
  <time>2026-09-02T20:50:34Z</time>
  <course>0.0</course>
  <speed>0.0</speed>
  <fix>3d</fix>
</trkpt>
<trkpt lat="40.0713749" lon="-105.229789">
  <ele>1583.0</ele>
  <time>2026-09-02T20:50:34Z</time>
  <course>0.0</course>
  <speed>0.0</speed>
  <fix>3d</fix>
</trkpt>
<trkpt lat="40.0713749" lon="-105.229789">
  <ele>1583.0</ele>
  <time>2026-09-02T20:50:34Z</time>
  <course>0.0</course>
  <speed>0.0</speed>
  <fix>3d</fix>
</trkpt>
<trkpt lat="40.0713749" lon="-105.229789">
  <ele>1583.0</ele>
  <time>2026-09-02T20:50:34Z</time>
  <course>0.0</course>
  <speed>0.0</speed>
  <fix>3d</fix>
</trkpt>
<trkpt lat="40.0713749" lon="-105.229789">
  <ele>1583.0</ele>
  <time>2026-09-02T20:50:34Z</time>
  <course>0.0</course>
  <speed>0.0</speed>
  <fix>3d</fix>
</trkpt>
<trkpt lat="40.0713749" lon="-105.229789">
  <ele>1583.0</ele>
  <time>2026-09-02T20:50:34Z</time>
  <course>0.0</course>
  <speed>0.0</speed>
  <fix>3d</fix>
</trkpt>
<trkpt lat="40.0713749" lon="-105.229789">
  <ele>1583.0</ele>
  <time>2026-09-02T20:50:34Z</time>
  <course>0.0</course>
  <speed>0.0</speed>
  <fix>3d</fix>
</trkpt>
<trkpt lat="40.0713749" lon="-105.229789">
  <ele>1583.0</ele>
  <time>2026-09-02T20:50:34Z</time>
  <course>0.0</course>
  <speed>0.0</speed>
  <fix>3d</fix>
</trkpt>
<trkpt lat="40.0713749" lon="-105.229789">
  <ele>1583.0</ele>
  <time>2026-09-02T20:50:34Z</time>
  <course>0.0</course>
  <speed>0.0</speed>
  <fix>3d</fix>
</trkpt>
<trkpt lat="40.0713749" lon="-105.229789">
  <ele>1583.0</ele>
  <time>2026-09-02T20:50:34Z</time>
  <course>0.0</course>
  <speed>0.0</speed>
  <fix>3d</fix>
</trkpt>
<trkpt lat="40.0713749" lon="-105.229789">
  <ele>1583.0</ele>
  <time>2026-09-02T20:50:34Z</time>
  <course>0.0</course>
  <speed>0.0</speed>
  <fix>3d</fix>
</trkpt>
<trkpt lat="40.0713749" lon="-105.229789">
  <ele>1583.0</ele>
  <time>2026-09-02T20:50:34Z</time>
  <course>0.0</course>
  <speed>0.0</speed>
  <fix>3d</fix>
</trkpt>
<trkpt lat="40.0713749" lon="-105.229789">
  <ele>1583.0</ele>
  <time>2026-09-02T20:50:34Z</time>
  <course>0.0</course>
  <speed>0.0</speed>
  <fix>3d</fix>
</trkpt>
<trkpt lat="40.0713749" lon="-105.229789">
  <ele>1583.0</ele>
  <time>2026-09-02T20:50:34Z</time>
  <course>0.0</course>
  <speed>0.0</speed>
  <fix>3d</fix>
</trkpt>
<trkpt lat="40.0713749" lon="-105.229789">
  <ele>1583.0</ele>
  <time>2026-09-02T20:50:34Z</time>
  <course>0.0</course>
  <speed>0.0</speed>
  <fix>3d</fix>
</trkpt>
<trkpt lat="40.0713749" lon="-105.229789">
  <ele>1583.0</ele>
  <time>2026-09-02T20:50:34Z</time>
  <course>0.0</course>
  <speed>0.0</speed>
  <fix>3d</fix>
</trkpt>
<trkpt lat="40.0713749" lon="-105.229789">
  <ele>1583.0</ele>
  <time>2026-09-02T20:50:34Z</time>
  <course>0.0</course>
  <speed>0.0</speed>
  <fix>3d</fix>
</trkpt>
<trkpt lat="40.0713749" lon="-105.229789">
  <ele>1583.0</ele>
  <time>2026-09-02T20:50:34Z</time>
  <course>0.0</course>
  <speed>0.0</speed>
  <fix>3d</fix>
</trkpt>
<trkpt lat="40.0713749" lon="-105.229789">
  <ele>1583.0</ele>
  <time>2026-09-02T20:50:34Z</time>
  <course>0.0</course>
  <speed>0.0</speed>
  <fix>3d</fix>
</trkpt>
<trkpt lat="40.0713749" lon="-105.229789">
  <ele>1583.0</ele>
  <time>2026-09-02T20:50:34Z</time>
  <course>0.0</course>
  <speed>0.0</speed>
  <fix>3d</fix>
</trkpt>
<trkpt lat="40.0713749" lon="-105.229789">
  <ele>1583.0</ele>
  <time>2026-09-02T20:50:34Z</time>
  <course>0.0</course>
  <speed>0.0</speed>
  <fix>3d</fix>
</trkpt>
<trkpt lat="40.0713749" lon="-105.229789">
  <ele>1583.0</ele>
  <time>2026-09-02T20:50:34Z</time>
  <course>0.0</course>
  <speed>0.0</speed>
  <fix>3d</fix>
</trkpt>
<trkpt lat="40.0713749" lon="-105.229789">
  <ele>1583.0</ele>
  <time>2026-09-02T20:50:34Z</time>
  <course>0.0</course>
  <speed>0.0</speed>
  <fix>3d</fix>
</trkpt>
<trkpt lat="40.0713749" lon="-105.229789">
  <ele>1583.0</ele>
  <time>2026-09-02T20:50:34Z</time>
  <course>0.0</course>
  <speed>0.0</speed>
  <fix>3d</fix>
</trkpt>
<trkpt lat="40.0713749" lon="-105.229789">
  <ele>1583.0</ele>
  <time>2026-09-02T20:50:34Z</time>
  <course>0.0</course>
  <speed>0.0</speed>
  <fix>3d</fix>
</trkpt>
<trkpt lat="40.0713749" lon="-105.229789">
  <ele>1583.0</ele>
  <time>2026-09-02T20:50:34Z</time>
  <course>0.0</course>
  <speed>0.0</speed>
  <fix>3d</fix>
</trkpt>
<trkpt lat="40.0713749" lon="-105.229789">
  <ele>1583.0</ele>
  <time>2026-09-02T20:50:34Z</time>
  <course>0.0</course>
  <speed>0.0</speed>
  <fix>3d</fix>
</trkpt>
<trkpt lat="40.0713749" lon="-105.229789">
  <ele>1583.0</ele>
  <time>2026-09-02T20:50:34Z</time>
  <course>0.0</course>
  <speed>0.0</speed>
  <fix>3d</fix>
</trkpt>
<trkpt lat="40.0713749" lon="-105.229789">
  <ele>1583.0</ele>
  <time>2026-09-02T20:50:34Z</time>
  <course>0.0</course>
  <speed>0.0</speed>
  <fix>3d</fix>
</trkpt>
<trkpt lat="40.0713749" lon="-105.229789">
  <ele>1583.0</ele>
  <time>2026-09-02T20:50:34Z</time>
  <course>0.0</course>
  <speed>0.0</speed>
  <fix>3d</fix>
</trkpt>
<trkpt lat="40.0713749" lon="-105.229789">
  <ele>1583.0</ele>
  <time>2026-09-02T20:50:34Z</time>
  <course>0.0</course>
  <speed>0.0</speed>
  <fix>3d</fix>
</trkpt>
<trkpt lat="40.0713749" lon="-105.229789">
  <ele>1583.0</ele>
  <time>2026-09-02T20:50:34Z</time>
  <course>0.0</course>
  <speed>0.0</speed>
  <fix>3d</fix>
</trkpt>
<trkpt lat="40.0713749" lon="-105.229789">
  <ele>1583.0</ele>
  <time>2026-09-02T20:50:34Z</time>
  <course>0.0</course>
  <speed>0.0</speed>
  <fix>3d</fix>
</trkpt>
<trkpt lat="40.0713749" lon="-105.229789">
  <ele>1583.0</ele>
  <time>2026-09-02T20:50:34Z</time>
  <course>0.0</course>
  <speed>0.0</speed>
  <fix>3d</fix>
</trkpt>
<trkpt lat="40.0713749" lon="-105.229789">
  <ele>1583.0</ele>
  <time>2026-09-02T20:50:34Z</time>
  <course>0.0</course>
  <speed>0.0</speed>
  <fix>3d</fix>
</trkpt>
<trkpt lat="40.0713749" lon="-105.229789">
  <ele>1583.0</ele>
  <time>2026-09-02T20:50:34Z</time>
  <course>0.0</course>
  <speed>0.0</speed>
  <fix>3d</fix>
</trkpt>
<trkpt lat="40.0713749" lon="-105.229789">
  <ele>1583.0</ele>
  <time>2026-09-02T20:50:34Z</time>
  <course>0.0</course>
  <speed>0.0</speed>
  <fix>3d</fix>
</trkpt>
<trkpt lat="40.0713749" lon="-105.229789">
  <ele>1583.0</ele>
  <time>2026-09-02T20:50:34Z</time>
  <course>0.0</course>
  <speed>0.0</speed>
  <fix>3d</fix>
</trkpt>
<trkpt lat="40.0713749" lon="-105.229789">
  <ele>1583.0</ele>
  <time>2026-09-02T20:50:34Z</time>
  <course>0.0</course>
  <speed>0.0</speed>
  <fix>3d</fix>
</trkpt>
<trkpt lat="40.0713749" lon="-105.229789">
  <ele>1583.0</ele>
  <time>2026-09-02T20:50:34Z</time>
  <course>0.0</course>
  <speed>0.0</speed>
  <fix>3d</fix>
</trkpt>
<trkpt lat="40.0713749" lon="-105.229789">
  <ele>1583.0</ele>
  <time>2026-09-02T20:50:34Z</time>
  <course>0.0</course>
  <speed>0.0</speed>
  <fix>3d</fix>
</trkpt>
<trkpt lat="40.0713749" lon="-105.229789">
  <ele>1583.0</ele>
  <time>2026-09-02T20:50:34Z</time>
  <course>0.0</course>
  <speed>0.0</speed>
  <fix>3d</fix>
</trkpt>
<trkpt lat="40.0713749" lon="-105.229789">
  <ele>1583.0</ele>
  <time>2026-09-02T20:50:34Z</time>
  <course>0.0</course>
  <speed>0.0</speed>
  <fix>3d</fix>
</trkpt>
<trkpt lat="40.0713749" lon="-105.229789">
  <ele>1583.0</ele>
  <time>2026-09-02T20:50:34Z</time>
  <course>0.0</course>
  <speed>0.0</speed>
  <fix>3d</fix>
</trkpt>
<trkpt lat="40.0713749" lon="-105.229789">
  <ele>1583.0</ele>
  <time>2026-09-02T20:50:34Z</time>
  <course>0.0</course>
  <speed>0.0</speed>
  <fix>3d</fix>
</trkpt>
<trkpt lat="40.0713749" lon="-105.229789">
  <ele>1583.0</ele>
  <time>2026-09-02T20:50:34Z</time>
  <course>0.0</course>
  <speed>0.0</speed>
  <fix>3d</fix>
</trkpt>
<trkpt lat="40.0713749" lon="-105.229789">
  <ele>1583.0</ele>
  <time>2026-09-02T20:50:34Z</time>
  <course>0.0</course>
  <speed>0.0</speed>
  <fix>3d</fix>
</trkpt>
<trkpt lat="40.0713749" lon="-105.229789">
  <ele>1583.0</ele>
  <time>2026-09-02T20:50:34Z</time>
  <course>0.0</course>
  <speed>0.0</speed>
  <fix>3d</fix>
</trkpt>
<trkpt lat="40.0713749" lon="-105.229789">
  <ele>1583.0</ele>
  <time>2026-09-02T20:50:34Z</time>
  <course>0.0</course>
  <speed>0.0</speed>
  <fix>3d</fix>
</trkpt>
<trkpt lat="40.0713749" lon="-105.229789">
  <ele>1583.0</ele>
  <time>2026-09-02T20:50:34Z</time>
  <course>0.0</course>
  <speed>0.0</speed>
  <fix>3d</fix>
</trkpt>
<trkpt lat="40.0713749" lon="-105.229789">
  <ele>1583.0</ele>
  <time>2026-09-02T20:50:34Z</time>
  <course>0.0</course>
  <speed>0.0</speed>
  <fix>3d</fix>
</trkpt>
<trkpt lat="40.0713749" lon="-105.229789">
  <ele>1583.0</ele>
  <time>2026-09-02T20:50:34Z</time>
  <course>0.0</course>
  <speed>0.0</speed>
  <fix>3d</fix>
</trkpt>
<trkpt lat="40.0713749" lon="-105.229789">
  <ele>1583.0</ele>
  <time>2026-09-02T20:50:34Z</time>
  <course>0.0</course>
  <speed>0.0</speed>
  <fix>3d</fix>
</trkpt>
<trkpt lat="40.0713749" lon="-105.229789">
  <ele>1583.0</ele>
  <time>2026-09-02T20:50:34Z</time>
  <course>0.0</course>
  <speed>0.0</speed>
  <fix>3d</fix>
</trkpt>
<trkpt lat="40.0713749" lon="-105.229789">
  <ele>1583.0</ele>
  <time>2026-09-02T20:50:34Z</time>
  <course>0.0</course>
  <speed>0.0</speed>
  <fix>3d</fix>
</trkpt>
<trkpt lat="40.0713749" lon="-105.229789">
  <ele>1583.0</ele>
  <time>2026-09-02T20:50:34Z</time>
  <course>0.0</course>
  <speed>0.0</speed>
  <fix>3d</fix>
</trkpt>
<trkpt lat="40.0713749" lon="-105.229789">
  <ele>1583.0</ele>
  <time>2026-09-02T20:50:34Z</time>
  <course>0.0</course>
  <speed>0.0</speed>
  <fix>3d</fix>
</trkpt>
<trkpt lat="40.0713749" lon="-105.229789">
  <ele>1583.0</ele>
  <time>2026-09-02T20:50:34Z</time>
  <course>0.0</course>
  <speed>0.0</speed>
  <fix>3d</fix>
</trkpt>
<trkpt lat="40.0713749" lon="-105.229789">
  <ele>1583.0</ele>
  <time>2026-09-02T20:50:34Z</time>
  <course>0.0</course>
  <speed>0.0</speed>
  <fix>3d</fix>
</trkpt>
<trkpt lat="40.0713749" lon="-105.229789">
  <ele>1583.0</ele>
  <time>2026-09-02T20:50:34Z</time>
  <course>0.0</course>
  <speed>0.0</speed>
  <fix>3d</fix>
</trkpt>
<trkpt lat="40.0713749" lon="-105.229789">
  <ele>1583.0</ele>
  <time>2026-09-02T20:50:34Z</time>
  <course>0.0</course>
  <speed>0.0</speed>
  <fix>3d</fix>
</trkpt>
<trkpt lat="40.0713749" lon="-105.229789">
  <ele>1583.0</ele>
  <time>2026-09-02T20:50:34Z</time>
  <course>0.0</course>
  <speed>0.0</speed>
  <fix>3d</fix>
</trkpt>
<trkpt lat="40.0713749" lon="-105.229789">
  <ele>1583.0</ele>
  <time>2026-09-02T20:50:34Z</time>
  <course>0.0</course>
  <speed>0.0</speed>
  <fix>3d</fix>
</trkpt>
<trkpt lat="40.0713749" lon="-105.229789">
  <ele>1583.0</ele>
  <time>2026-09-02T20:50:34Z</time>
  <course>0.0</course>
  <speed>0.0</speed>
  <fix>3d</fix>
</trkpt>
<trkpt lat="40.0713749" lon="-105.229789">
  <ele>1583.0</ele>
  <time>2026-09-02T20:50:34Z</time>
  <course>0.0</course>
  <speed>0.0</speed>
  <fix>3d</fix>
</trkpt>
<trkpt lat="40.0713749" lon="-105.229789">
  <ele>1583.0</ele>
  <time>2026-09-02T20:50:34Z</time>
  <course>0.0</course>
  <speed>0.0</speed>
  <fix>3d</fix>
</trkpt>
<trkpt lat="40.0713749" lon="-105.229789">
  <ele>1583.0</ele>
  <time>2026-09-02T20:50:34Z</time>
  <course>0.0</course>
  <speed>0.0</speed>
  <fix>3d</fix>
</trkpt>
<trkpt lat="40.0713749" lon="-105.229789">
  <ele>1583.0</ele>
  <time>2026-09-02T20:50:34Z</time>
  <course>0.0</course>
  <speed>0.0</speed>
  <fix>3d</fix>
</trkpt>
<trkpt lat="40.0713749" lon="-105.229789">
  <ele>1583.0</ele>
  <time>2026-09-02T20:50:34Z</time>
  <course>0.0</course>
  <speed>0.0</speed>
  <fix>3d</fix>
</trkpt>
<trkpt lat="40.0713749" lon="-105.229789">
  <ele>1583.0</ele>
  <time>2026-09-02T20:50:34Z</time>
  <course>0.0</course>
  <speed>0.0</speed>
  <fix>3d</fix>
</trkpt>
<trkpt lat="40.0713749" lon="-105.229789">
  <ele>1583.0</ele>
  <time>2026-09-02T20:50:34Z</time>
  <course>0.0</course>
  <speed>0.0</speed>
  <fix>3d</fix>
</trkpt>
<trkpt lat="40.0713749" lon="-105.229789">
  <ele>1583.0</ele>
  <time>2026-09-02T20:50:34Z</time>
  <course>0.0</course>
  <speed>0.0</speed>
  <fix>3d</fix>
</trkpt>
<trkpt lat="40.0713749" lon="-105.229789">
  <ele>1583.0</ele>
  <time>2026-09-02T20:50:34Z</time>
  <course>0.0</course>
  <speed>0.0</speed>
  <fix>3d</fix>
</trkpt>
<trkpt lat="40.0713749" lon="-105.229789">
  <ele>1583.0</ele>
  <time>2026-09-02T20:50:34Z</time>
  <course>0.0</course>
  <speed>0.0</speed>
  <fix>3d</fix>
</trkpt>
<trkpt lat="40.0713749" lon="-105.229789">
  <ele>1583.0</ele>
  <time>2026-09-02T20:50:34Z</time>
  <course>0.0</course>
  <speed>0.0</speed>
  <fix>3d</fix>
</trkpt>
<trkpt lat="40.0713749" lon="-105.229789">
  <ele>1583.0</ele>
  <time>2026-09-02T20:50:34Z</time>
  <course>0.0</course>
  <speed>0.0</speed>
  <fix>3d</fix>
</trkpt>
<trkpt lat="40.0713749" lon="-105.229789">
  <ele>1583.0</ele>
  <time>2026-09-02T20:50:34Z</time>
  <course>0.0</course>
  <speed>0.0</speed>
  <fix>3d</fix>
</trkpt>
<trkpt lat="40.0713749" lon="-105.229789">
  <ele>1583.0</ele>
  <time>2026-09-02T20:50:34Z</time>
  <course>0.0</course>
  <speed>0.0</speed>
  <fix>3d</fix>
</trkpt>
<trkpt lat="40.0713749" lon="-105.229789">
  <ele>1583.0</ele>
  <time>2026-09-02T20:50:34Z</time>
  <course>0.0</course>
  <speed>0.0</speed>
  <fix>3d</fix>
</trkpt>
<trkpt lat="40.0713749" lon="-105.229789">
  <ele>1583.0</ele>
  <time>2026-09-02T20:50:34Z</time>
  <course>0.0</course>
  <speed>0.0</speed>
  <fix>3d</fix>
</trkpt>
<trkpt lat="40.0713749" lon="-105.229789">
  <ele>1583.0</ele>
  <time>2026-09-02T20:50:34Z</time>
  <course>0.0</course>
  <speed>0.0</speed>
  <fix>3d</fix>
</trkpt>
<trkpt lat="40.0713749" lon="-105.229789">
  <ele>1583.0</ele>
  <time>2026-09-02T20:50:34Z</time>
  <course>0.0</course>
  <speed>0.0</speed>
  <fix>3d</fix>
</trkpt>
<trkpt lat="40.0713749" lon="-105.229789">
  <ele>1583.0</ele>
  <time>2026-09-02T20:50:34Z</time>
  <course>0.0</course>
  <speed>0.0</speed>
  <fix>3d</fix>
</trkpt>
<trkpt lat="40.0713749" lon="-105.229789">
  <ele>1583.0</ele>
  <time>2026-09-02T20:50:34Z</time>
  <course>0.0</course>
  <speed>0.0</speed>
  <fix>3d</fix>
</trkpt>
<trkpt lat="40.0713749" lon="-105.229789">
  <ele>1583.0</ele>
  <time>2026-09-02T20:50:34Z</time>
  <course>0.0</course>
  <speed>0.0</speed>
  <fix>3d</fix>
</trkpt>
<trkpt lat="40.0713749" lon="-105.229789">
  <ele>1583.0</ele>
  <time>2026-09-02T20:50:34Z</time>
  <course>0.0</course>
  <speed>0.0</speed>
  <fix>3d</fix>
</trkpt>
<trkpt lat="40.0713749" lon="-105.229789">
  <ele>1583.0</ele>
  <time>2026-09-02T20:50:34Z</time>
  <course>0.0</course>
  <speed>0.0</speed>
  <fix>3d</fix>
</trkpt>
<trkpt lat="40.0713749" lon="-105.229789">
  <ele>1583.0</ele>
  <time>2026-09-02T20:50:34Z</time>
  <course>0.0</course>
  <speed>0.0</speed>
  <fix>3d</fix>
</trkpt>
<trkpt lat="40.0713749" lon="-105.229789">
  <ele>1583.0</ele>
  <time>2026-09-02T20:50:34Z</time>
  <course>0.0</course>
  <speed>0.0</speed>
  <fix>3d</fix>
</trkpt>
<trkpt lat="40.0713749" lon="-105.229789">
  <ele>1583.0</ele>
  <time>2026-09-02T20:50:34Z</time>
  <course>0.0</course>
  <speed>0.0</speed>
  <fix>3d</fix>
</trkpt>
<trkpt lat="40.0713749" lon="-105.229789">
  <ele>1583.0</ele>
  <time>2026-09-02T20:50:34Z</time>
  <course>0.0</course>
  <speed>0.0</speed>
  <fix>3d</fix>
</trkpt>
<trkpt lat="40.0713749" lon="-105.229789">
  <ele>1583.0</ele>
  <time>2026-09-02T20:50:34Z</time>
  <course>0.0</course>
  <speed>0.0</speed>
  <fix>3d</fix>
</trkpt>
<trkpt lat="40.0713749" lon="-105.229789">
  <ele>1583.0</ele>
  <time>2026-09-02T20:50:34Z</time>
  <course>0.0</course>
  <speed>0.0</speed>
  <fix>3d</fix>
</trkpt>
<trkpt lat="40.0713749" lon="-105.229789">
  <ele>1583.0</ele>
  <time>2026-09-02T20:50:34Z</time>
  <course>0.0</course>
  <speed>0.0</speed>
  <fix>3d</fix>
</trkpt>
<trkpt lat="40.0713749" lon="-105.229789">
  <ele>1583.0</ele>
  <time>2026-09-02T20:50:34Z</time>
  <course>0.0</course>
  <speed>0.0</speed>
  <fix>3d</fix>
</trkpt>
<trkpt lat="40.0713749" lon="-105.229789">
  <ele>1583.0</ele>
  <time>2026-09-02T20:50:34Z</time>
  <course>0.0</course>
  <speed>0.0</speed>
  <fix>3d</fix>
</trkpt>
<trkpt lat="40.0713749" lon="-105.229789">
  <ele>1583.0</ele>
  <time>2026-09-02T20:50:34Z</time>
  <course>0.0</course>
  <speed>0.0</speed>
  <fix>3d</fix>
</trkpt>
<trkpt lat="40.0713749" lon="-105.229789">
  <ele>1583.0</ele>
  <time>2026-09-02T20:50:34Z</time>
  <course>0.0</course>
  <speed>0.0</speed>
  <fix>3d</fix>
</trkpt>
<trkpt lat="40.0713749" lon="-105.229789">
  <ele>1583.0</ele>
  <time>2026-09-02T20:50:34Z</time>
  <course>0.0</course>
  <speed>0.0</speed>
  <fix>3d</fix>
</trkpt>
<trkpt lat="40.0713749" lon="-105.229789">
  <ele>1583.0</ele>
  <time>2026-09-02T20:50:34Z</time>
  <course>0.0</course>
  <speed>0.0</speed>
  <fix>3d</fix>
</trkpt>
<trkpt lat="40.0713749" lon="-105.229789">
  <ele>1583.0</ele>
  <time>2026-09-02T20:50:34Z</time>
  <course>0.0</course>
  <speed>0.0</speed>
  <fix>3d</fix>
</trkpt>
<trkpt lat="40.0713749" lon="-105.229789">
  <ele>1583.0</ele>
  <time>2026-09-02T20:50:34Z</time>
  <course>0.0</course>
  <speed>0.0</speed>
  <fix>3d</fix>
</trkpt>
<trkpt lat="40.0713749" lon="-105.229789">
  <ele>1583.0</ele>
  <time>2026-09-02T20:50:34Z</time>
  <course>0.0</course>
  <speed>0.0</speed>
  <fix>3d</fix>
</trkpt>
<trkpt lat="40.0713749" lon="-105.229789">
  <ele>1583.0</ele>
  <time>2026-09-02T20:50:34Z</time>
  <course>0.0</course>
  <speed>0.0</speed>
  <fix>3d</fix>
</trkpt>
<trkpt lat="40.0713749" lon="-105.229789">
  <ele>1583.0</ele>
  <time>2026-09-02T20:50:34Z</time>
  <course>0.0</course>
  <speed>0.0</speed>
  <fix>3d</fix>
</trkpt>
<trkpt lat="40.0713749" lon="-105.229789">
  <ele>1583.0</ele>
  <time>2026-09-02T20:50:34Z</time>
  <course>0.0</course>
  <speed>0.0</speed>
  <fix>3d</fix>
</trkpt>
<trkpt lat="40.0713749" lon="-105.229789">
  <ele>1583.0</ele>
  <time>2026-09-02T20:50:34Z</time>
  <course>0.0</course>
  <speed>0.0</speed>
  <fix>3d</fix>
</trkpt>
<trkpt lat="40.0713749" lon="-105.229789">
  <ele>1583.0</ele>
  <time>2026-09-02T20:50:34Z</time>
  <course>0.0</course>
  <speed>0.0</speed>
  <fix>3d</fix>
</trkpt>
<trkpt lat="40.0713749" lon="-105.229789">
  <ele>1583.0</ele>
  <time>2026-09-02T20:50:34Z</time>
  <course>0.0</course>
  <speed>0.0</speed>
  <fix>3d</fix>
</trkpt>
<trkpt lat="40.0713749" lon="-105.229789">
  <ele>1583.0</ele>
  <time>2026-09-02T20:50:34Z</time>
  <course>0.0</course>
  <speed>0.0</speed>
  <fix>3d</fix>
</trkpt>
<trkpt lat="40.0713749" lon="-105.229789">
  <ele>1583.0</ele>
  <time>2026-09-02T20:50:34Z</time>
  <course>0.0</course>
  <speed>0.0</speed>
  <fix>3d</fix>
</trkpt>
<trkpt lat="40.0713749" lon="-105.229789">
  <ele>1583.0</ele>
  <time>2026-09-02T20:50:34Z</time>
  <course>0.0</course>
  <speed>0.0</speed>
  <fix>3d</fix>
</trkpt>
<trkpt lat="40.0713749" lon="-105.229789">
  <ele>1583.0</ele>
  <time>2026-09-02T20:50:34Z</time>
  <course>0.0</course>
  <speed>0.0</speed>
  <fix>3d</fix>
</trkpt>
<trkpt lat="40.0713749" lon="-105.229789">
  <ele>1583.0</ele>
  <time>2026-09-02T20:50:34Z</time>
  <course>0.0</course>
  <speed>0.0</speed>
  <fix>3d</fix>
</trkpt>
<trkpt lat="40.0713749" lon="-105.229789">
  <ele>1583.0</ele>
  <time>2026-09-02T20:50:34Z</time>
  <course>0.0</course>
  <speed>0.0</speed>
  <fix>3d</fix>
</trkpt>
<trkpt lat="40.0713749" lon="-105.229789">
  <ele>1583.0</ele>
  <time>2026-09-02T20:50:34Z</time>
  <course>0.0</course>
  <speed>0.0</speed>
  <fix>3d</fix>
</trkpt>
<trkpt lat="40.0713749" lon="-105.229789">
  <ele>1583.0</ele>
  <time>2026-09-02T20:50:34Z</time>
  <course>0.0</course>
  <speed>0.0</speed>
  <fix>3d</fix>
</trkpt>
<trkpt lat="40.0713749" lon="-105.229789">
  <ele>1583.0</ele>
  <time>2026-09-02T20:50:34Z</time>
  <course>0.0</course>
  <speed>0.0</speed>
  <fix>3d</fix>
</trkpt>
<trkpt lat="40.0713749" lon="-105.229789">
  <ele>1583.0</ele>
  <time>2026-09-02T20:50:34Z</time>
  <course>0.0</course>
  <speed>0.0</speed>
  <fix>3d</fix>
</trkpt>
<trkpt lat="40.0713749" lon="-105.229789">
  <ele>1583.0</ele>
  <time>2026-09-02T20:50:34Z</time>
  <course>0.0</course>
  <speed>0.0</speed>
  <fix>3d</fix>
</trkpt>
<trkpt lat="40.0713749" lon="-105.229789">
  <ele>1583.0</ele>
  <time>2026-09-02T20:50:34Z</time>
  <course>0.0</course>
  <speed>0.0</speed>
  <fix>3d</fix>
</trkpt>
<trkpt lat="40.0713749" lon="-105.229789">
  <ele>1583.0</ele>
  <time>2026-09-02T20:50:34Z</time>
  <course>0.0</course>
  <speed>0.0</speed>
  <fix>3d</fix>
</trkpt>
<trkpt lat="40.0713749" lon="-105.229789">
  <ele>1583.0</ele>
  <time>2026-09-02T20:50:34Z</time>
  <course>0.0</course>
  <speed>0.0</speed>
  <fix>3d</fix>
</trkpt>
<trkpt lat="40.0713749" lon="-105.229789">
  <ele>1583.0</ele>
  <time>2026-09-02T20:50:34Z</time>
  <course>0.0</course>
  <speed>0.0</speed>
  <fix>3d</fix>
</trkpt>
<trkpt lat="40.0713749" lon="-105.229789">
  <ele>1583.0</ele>
  <time>2026-09-02T20:50:34Z</time>
  <course>0.0</course>
  <speed>0.0</speed>
  <fix>3d</fix>
</trkpt>
<trkpt lat="40.0713749" lon="-105.229789">
  <ele>1583.0</ele>
  <time>2026-09-02T20:50:34Z</time>
  <course>0.0</course>
  <speed>0.0</speed>
  <fix>3d</fix>
</trkpt>
<trkpt lat="40.0713749" lon="-105.229789">
  <ele>1583.0</ele>
  <time>2026-09-02T20:50:34Z</time>
  <course>0.0</course>
  <speed>0.0</speed>
  <fix>3d</fix>
</trkpt>
<trkpt lat="40.0713749" lon="-105.229789">
  <ele>1583.0</ele>
  <time>2026-09-02T20:50:34Z</time>
  <course>0.0</course>
  <speed>0.0</speed>
  <fix>3d</fix>
</trkpt>
<trkpt lat="40.0713749" lon="-105.229789">
  <ele>1583.0</ele>
  <time>2026-09-02T20:50:34Z</time>
  <course>0.0</course>
  <speed>0.0</speed>
  <fix>3d</fix>
</trkpt>
<trkpt lat="40.0713749" lon="-105.229789">
  <ele>1583.0</ele>
  <time>2026-09-02T20:50:34Z</time>
  <course>0.0</course>
  <speed>0.0</speed>
  <fix>3d</fix>
</trkpt>
<trkpt lat="40.0713749" lon="-105.229789">
  <ele>1583.0</ele>
  <time>2026-09-02T20:50:34Z</time>
  <course>0.0</course>
  <speed>0.0</speed>
  <fix>3d</fix>
</trkpt>
<trkpt lat="40.0713749" lon="-105.229789">
  <ele>1583.0</ele>
  <time>2026-09-02T20:50:34Z</time>
  <course>0.0</course>
  <speed>0.0</speed>
  <fix>3d</fix>
</trkpt>
<trkpt lat="40.0713749" lon="-105.229789">
  <ele>1583.0</ele>
  <time>2026-09-02T20:50:34Z</time>
  <course>0.0</course>
  <speed>0.0</speed>
  <fix>3d</fix>
</trkpt>
<trkpt lat="40.0713749" lon="-105.229789">
  <ele>1583.0</ele>
  <time>2026-09-02T20:50:34Z</time>
  <course>0.0</course>
  <speed>0.0</speed>
  <fix>3d</fix>
</trkpt>
<trkpt lat="40.0713749" lon="-105.229789">
  <ele>1583.0</ele>
  <time>2026-09-02T20:50:34Z</time>
  <course>0.0</course>
  <speed>0.0</speed>
  <fix>3d</fix>
</trkpt>
<trkpt lat="40.0713749" lon="-105.229789">
  <ele>1583.0</ele>
  <time>2026-09-02T20:50:34Z</time>
  <course>0.0</course>
  <speed>0.0</speed>
  <fix>3d</fix>
</trkpt>
<trkpt lat="40.0713749" lon="-105.229789">
  <ele>1583.0</ele>
  <time>2026-09-02T20:50:34Z</time>
  <course>0.0</course>
  <speed>0.0</speed>
  <fix>3d</fix>
</trkpt>
<trkpt lat="40.0713749" lon="-105.229789">
  <ele>1583.0</ele>
  <time>2026-09-02T20:50:34Z</time>
  <course>0.0</course>
  <speed>0.0</speed>
  <fix>3d</fix>
</trkpt>
<trkpt lat="40.0713749" lon="-105.229789">
  <ele>1583.0</ele>
  <time>2026-09-02T20:50:34Z</time>
  <course>0.0</course>
  <speed>0.0</speed>
  <fix>3d</fix>
</trkpt>
<trkpt lat="40.0713749" lon="-105.229789">
  <ele>1583.0</ele>
  <time>2026-09-02T20:50:34Z</time>
  <course>0.0</course>
  <speed>0.0</speed>
  <fix>3d</fix>
</trkpt>
<trkpt lat="40.0713749" lon="-105.229789">
  <ele>1583.0</ele>
  <time>2026-09-02T20:50:34Z</time>
  <course>0.0</course>
  <speed>0.0</speed>
  <fix>3d</fix>
</trkpt>
<trkpt lat="40.0713749" lon="-105.229789">
  <ele>1583.0</ele>
  <time>2026-09-02T20:50:34Z</time>
  <course>0.0</course>
  <speed>0.0</speed>
  <fix>3d</fix>
</trkpt>
<trkpt lat="40.0713749" lon="-105.229789">
  <ele>1583.0</ele>
  <time>2026-09-02T20:50:34Z</time>
  <course>0.0</course>
  <speed>0.0</speed>
  <fix>3d</fix>
</trkpt>
<trkpt lat="40.0713749" lon="-105.229789">
  <ele>1583.0</ele>
  <time>2026-09-02T20:50:34Z</time>
  <course>0.0</course>
  <speed>0.0</speed>
  <fix>3d</fix>
</trkpt>
<trkpt lat="40.0713749" lon="-105.229789">
  <ele>1583.0</ele>
  <time>2026-09-02T20:50:34Z</time>
  <course>0.0</course>
  <speed>0.0</speed>
  <fix>3d</fix>
</trkpt>
<trkpt lat="40.0713749" lon="-105.229789">
  <ele>1583.0</ele>
  <time>2026-09-02T20:50:34Z</time>
  <course>0.0</course>
  <speed>0.0</speed>
  <fix>3d</fix>
</trkpt>
<trkpt lat="40.0713749" lon="-105.229789">
  <ele>1583.0</ele>
  <time>2026-09-02T20:50:34Z</time>
  <course>0.0</course>
  <speed>0.0</speed>
  <fix>3d</fix>
</trkpt>
<trkpt lat="40.0713749" lon="-105.229789">
  <ele>1583.0</ele>
  <time>2026-09-02T20:50:34Z</time>
  <course>0.0</course>
  <speed>0.0</speed>
  <fix>3d</fix>
</trkpt>
<trkpt lat="40.0713749" lon="-105.229789">
  <ele>1583.0</ele>
  <time>2026-09-02T20:50:34Z</time>
  <course>0.0</course>
  <speed>0.0</speed>
  <fix>3d</fix>
</trkpt>
<trkpt lat="40.0713749" lon="-105.229789">
  <ele>1583.0</ele>
  <time>2026-09-02T20:50:34Z</time>
  <course>0.0</course>
  <speed>0.0</speed>
  <fix>3d</fix>
</trkpt>
<trkpt lat="40.0713749" lon="-105.229789">
  <ele>1583.0</ele>
  <time>2026-09-02T20:50:34Z</time>
  <course>0.0</course>
  <speed>0.0</speed>
  <fix>3d</fix>
</trkpt>
<trkpt lat="40.0713749" lon="-105.229789">
  <ele>1583.0</ele>
  <time>2026-09-02T20:50:34Z</time>
  <course>0.0</course>
  <speed>0.0</speed>
  <fix>3d</fix>
</trkpt>
<trkpt lat="40.0713749" lon="-105.229789">
  <ele>1583.0</ele>
  <time>2026-09-02T20:50:34Z</time>
  <course>0.0</course>
  <speed>0.0</speed>
  <fix>3d</fix>
</trkpt>
<trkpt lat="40.0713749" lon="-105.229789">
  <ele>1583.0</ele>
  <time>2026-09-02T20:50:34Z</time>
  <course>0.0</course>
  <speed>0.0</speed>
  <fix>3d</fix>
</trkpt>
<trkpt lat="40.0713749" lon="-105.229789">
  <ele>1583.0</ele>
  <time>2026-09-02T20:50:34Z</time>
  <course>0.0</course>
  <speed>0.0</speed>
  <fix>3d</fix>
</trkpt>
<trkpt lat="40.0713749" lon="-105.229789">
  <ele>1583.0</ele>
  <time>2026-09-02T20:50:34Z</time>
  <course>0.0</course>
  <speed>0.0</speed>
  <fix>3d</fix>
</trkpt>
<trkpt lat="40.0713749" lon="-105.229789">
  <ele>1583.0</ele>
  <time>2026-09-02T20:50:34Z</time>
  <course>0.0</course>
  <speed>0.0</speed>
  <fix>3d</fix>
</trkpt>
<trkpt lat="40.0713749" lon="-105.229789">
  <ele>1583.0</ele>
  <time>2026-09-02T20:50:34Z</time>
  <course>0.0</course>
  <speed>0.0</speed>
  <fix>3d</fix>
</trkpt>
<trkpt lat="40.0713749" lon="-105.229789">
  <ele>1583.0</ele>
  <time>2026-09-02T20:50:34Z</time>
  <course>0.0</course>
  <speed>0.0</speed>
  <fix>3d</fix>
</trkpt>
<trkpt lat="40.0713749" lon="-105.229789">
  <ele>1583.0</ele>
  <time>2026-09-02T20:50:34Z</time>
  <course>0.0</course>
  <speed>0.0</speed>
  <fix>3d</fix>
</trkpt>
<trkpt lat="40.0713749" lon="-105.229789">
  <ele>1583.0</ele>
  <time>2026-09-02T20:50:34Z</time>
  <course>0.0</course>
  <speed>0.0</speed>
  <fix>3d</fix>
</trkpt>
<trkpt lat="40.0713749" lon="-105.229789">
  <ele>1583.0</ele>
  <time>2026-09-02T20:50:34Z</time>
  <course>0.0</course>
  <speed>0.0</speed>
  <fix>3d</fix>
</trkpt>
<trkpt lat="40.0713749" lon="-105.229789">
  <ele>1583.0</ele>
  <time>2026-09-02T20:50:34Z</time>
  <course>0.0</course>
  <speed>0.0</speed>
  <fix>3d</fix>
</trkpt>
<trkpt lat="40.0713749" lon="-105.229789">
  <ele>1583.0</ele>
  <time>2026-09-02T20:50:34Z</time>
  <course>0.0</course>
  <speed>0.0</speed>
  <fix>3d</fix>
</trkpt>
<trkpt lat="40.0713749" lon="-105.229789">
  <ele>1583.0</ele>
  <time>2026-09-02T20:50:34Z</time>
  <course>0.0</course>
  <speed>0.0</speed>
  <fix>3d</fix>
</trkpt>
<trkpt lat="40.0713749" lon="-105.229789">
  <ele>1583.0</ele>
  <time>2026-09-02T20:50:34Z</time>
  <course>0.0</course>
  <speed>0.0</speed>
  <fix>3d</fix>
</trkpt>
<trkpt lat="40.0713749" lon="-105.229789">
  <ele>1583.0</ele>
  <time>2026-09-02T20:50:34Z</time>
  <course>0.0</course>
  <speed>0.0</speed>
  <fix>3d</fix>
</trkpt>
<trkpt lat="40.0713749" lon="-105.229789">
  <ele>1583.0</ele>
  <time>2026-09-02T20:50:34Z</time>
  <course>0.0</course>
  <speed>0.0</speed>
  <fix>3d</fix>
</trkpt>
<trkpt lat="40.0713749" lon="-105.229789">
  <ele>1583.0</ele>
  <time>2026-09-02T20:50:34Z</time>
  <course>0.0</course>
  <speed>0.0</speed>
  <fix>3d</fix>
</trkpt>
<trkpt lat="40.0713749" lon="-105.229789">
  <ele>1583.0</ele>
  <time>2026-09-02T20:50:34Z</time>
  <course>0.0</course>
  <speed>0.0</speed>
  <fix>3d</fix>
</trkpt>
<trkpt lat="40.0713749" lon="-105.229789">
  <ele>1583.0</ele>
  <time>2026-09-02T20:50:34Z</time>
  <course>0.0</course>
  <speed>0.0</speed>
  <fix>3d</fix>
</trkpt>
<trkpt lat="40.0713749" lon="-105.229789">
  <ele>1583.0</ele>
  <time>2026-09-02T20:50:34Z</time>
  <course>0.0</course>
  <speed>0.0</speed>
  <fix>3d</fix>
</trkpt>
<trkpt lat="40.0713749" lon="-105.229789">
  <ele>1583.0</ele>
  <time>2026-09-02T20:50:34Z</time>
  <course>0.0</course>
  <speed>0.0</speed>
  <fix>3d</fix>
</trkpt>
<trkpt lat="40.0713749" lon="-105.229789">
  <ele>1583.0</ele>
  <time>2026-09-02T20:50:34Z</time>
  <course>0.0</course>
  <speed>0.0</speed>
  <fix>3d</fix>
</trkpt>
<trkpt lat="40.0713749" lon="-105.229789">
  <ele>1583.0</ele>
  <time>2026-09-02T20:50:34Z</time>
  <course>0.0</course>
  <speed>0.0</speed>
  <fix>3d</fix>
</trkpt>
<trkpt lat="40.0713749" lon="-105.229789">
  <ele>1583.0</ele>
  <time>2026-09-02T20:50:34Z</time>
  <course>0.0</course>
  <speed>0.0</speed>
  <fix>3d</fix>
</trkpt>
<trkpt lat="40.0713749" lon="-105.229789">
  <ele>1583.0</ele>
  <time>2026-09-02T20:50:34Z</time>
  <course>0.0</course>
  <speed>0.0</speed>
  <fix>3d</fix>
</trkpt>
<trkpt lat="40.0713749" lon="-105.229789">
  <ele>1583.0</ele>
  <time>2026-09-02T20:50:34Z</time>
  <course>0.0</course>
  <speed>0.0</speed>
  <fix>3d</fix>
</trkpt>
<trkpt lat="40.0713749" lon="-105.229789">
  <ele>1583.0</ele>
  <time>2026-09-02T20:50:34Z</time>
  <course>0.0</course>
  <speed>0.0</speed>
  <fix>3d</fix>
</trkpt>
<trkpt lat="40.0713749" lon="-105.229789">
  <ele>1583.0</ele>
  <time>2026-09-02T20:50:34Z</time>
  <course>0.0</course>
  <speed>0.0</speed>
  <fix>3d</fix>
</trkpt>
<trkpt lat="40.0713749" lon="-105.229789">
  <ele>1583.0</ele>
  <time>2026-09-02T20:50:34Z</time>
  <course>0.0</course>
  <speed>0.0</speed>
  <fix>3d</fix>
</trkpt>
<trkpt lat="40.0713749" lon="-105.229789">
  <ele>1583.0</ele>
  <time>2026-09-02T20:50:34Z</time>
  <course>0.0</course>
  <speed>0.0</speed>
  <fix>3d</fix>
</trkpt>
<trkpt lat="40.0713749" lon="-105.229789">
  <ele>1583.0</ele>
  <time>2026-09-02T20:50:34Z</time>
  <course>0.0</course>
  <speed>0.0</speed>
  <fix>3d</fix>
</trkpt>
<trkpt lat="40.0713749" lon="-105.229789">
  <ele>1583.0</ele>
  <time>2026-09-02T20:50:34Z</time>
  <course>0.0</course>
  <speed>0.0</speed>
  <fix>3d</fix>
</trkpt>
<trkpt lat="40.0713749" lon="-105.229789">
  <ele>1583.0</ele>
  <time>2026-09-02T20:50:34Z</time>
  <course>0.0</course>
  <speed>0.0</speed>
  <fix>3d</fix>
</trkpt>
<trkpt lat="40.0713749" lon="-105.229789">
  <ele>1583.0</ele>
  <time>2026-09-02T20:50:34Z</time>
  <course>0.0</course>
  <speed>0.0</speed>
  <fix>3d</fix>
</trkpt>
<trkpt lat="40.0713749" lon="-105.229789">
  <ele>1583.0</ele>
  <time>2026-09-02T20:50:34Z</time>
  <course>0.0</course>
  <speed>0.0</speed>
  <fix>3d</fix>
</trkpt>
<trkpt lat="40.0713749" lon="-105.229789">
  <ele>1583.0</ele>
  <time>2026-09-02T20:50:34Z</time>
  <course>0.0</course>
  <speed>0.0</speed>
  <fix>3d</fix>
</trkpt>
<trkpt lat="40.0713749" lon="-105.229789">
  <ele>1583.0</ele>
  <time>2026-09-02T20:50:34Z</time>
  <course>0.0</course>
  <speed>0.0</speed>
  <fix>3d</fix>
</trkpt>
<trkpt lat="40.0713749" lon="-105.229789">
  <ele>1583.0</ele>
  <time>2026-09-02T20:50:34Z</time>
  <course>0.0</course>
  <speed>0.0</speed>
  <fix>3d</fix>
</trkpt>
<trkpt lat="40.0713749" lon="-105.229789">
  <ele>1583.0</ele>
  <time>2026-09-02T20:50:34Z</time>
  <course>0.0</course>
  <speed>0.0</speed>
  <fix>3d</fix>
</trkpt>
<trkpt lat="40.0713749" lon="-105.229789">
  <ele>1583.0</ele>
  <time>2026-09-02T20:50:34Z</time>
  <course>0.0</course>
  <speed>0.0</speed>
  <fix>3d</fix>
</trkpt>
<trkpt lat="40.0713749" lon="-105.229789">
  <ele>1583.0</ele>
  <time>2026-09-02T20:50:34Z</time>
  <course>0.0</course>
  <speed>0.0</speed>
  <fix>3d</fix>
</trkpt>
<trkpt lat="40.0713749" lon="-105.229789">
  <ele>1583.0</ele>
  <time>2026-09-02T20:50:34Z</time>
  <course>0.0</course>
  <speed>0.0</speed>
  <fix>3d</fix>
</trkpt>
<trkpt lat="40.0713749" lon="-105.229789">
  <ele>1583.0</ele>
  <time>2026-09-02T20:50:34Z</time>
  <course>0.0</course>
  <speed>0.0</speed>
  <fix>3d</fix>
</trkpt>
<trkpt lat="40.0713749" lon="-105.229789">
  <ele>1583.0</ele>
  <time>2026-09-02T20:50:35Z</time>
  <course>0.0</course>
  <speed>0.0</speed>
  <fix>3d</fix>
</trkpt>
<trkpt lat="40.0713749" lon="-105.229789">
  <ele>1583.0</ele>
  <time>2026-09-02T20:50:35Z</time>
  <course>0.0</course>
  <speed>0.0</speed>
  <fix>3d</fix>
</trkpt>
<trkpt lat="40.0713749" lon="-105.229789">
  <ele>1583.0</ele>
  <time>2026-09-02T20:50:35Z</time>
  <course>0.0</course>
  <speed>0.0</speed>
  <fix>3d</fix>
</trkpt>
<trkpt lat="40.0713749" lon="-105.229789">
  <ele>1583.0</ele>
  <time>2026-09-02T20:50:35Z</time>
  <course>0.0</course>
  <speed>0.0</speed>
  <fix>3d</fix>
</trkpt>
<trkpt lat="40.0713749" lon="-105.229789">
  <ele>1583.0</ele>
  <time>2026-09-02T20:50:35Z</time>
  <course>0.0</course>
  <speed>0.0</speed>
  <fix>3d</fix>
</trkpt>
<trkpt lat="40.0713749" lon="-105.229789">
  <ele>1583.0</ele>
  <time>2026-09-02T20:50:35Z</time>
  <course>0.0</course>
  <speed>0.0</speed>
  <fix>3d</fix>
</trkpt>
<trkpt lat="40.0713749" lon="-105.229789">
  <ele>1583.0</ele>
  <time>2026-09-02T20:50:35Z</time>
  <course>0.0</course>
  <speed>0.0</speed>
  <fix>3d</fix>
</trkpt>
<trkpt lat="40.0713749" lon="-105.229789">
  <ele>1583.0</ele>
  <time>2026-09-02T20:50:35Z</time>
  <course>0.0</course>
  <speed>0.0</speed>
  <fix>3d</fix>
</trkpt>
<trkpt lat="40.0713749" lon="-105.229789">
  <ele>1583.0</ele>
  <time>2026-09-02T20:50:35Z</time>
  <course>0.0</course>
  <speed>0.0</speed>
  <fix>3d</fix>
</trkpt>
<trkpt lat="40.0713749" lon="-105.229789">
  <ele>1583.0</ele>
  <time>2026-09-02T20:50:35Z</time>
  <course>0.0</course>
  <speed>0.0</speed>
  <fix>3d</fix>
</trkpt>
<trkpt lat="40.0713749" lon="-105.229789">
  <ele>1583.0</ele>
  <time>2026-09-02T20:50:35Z</time>
  <course>0.0</course>
  <speed>0.0</speed>
  <fix>3d</fix>
</trkpt>
<trkpt lat="40.0713749" lon="-105.229789">
  <ele>1583.0</ele>
  <time>2026-09-02T20:50:35Z</time>
  <course>0.0</course>
  <speed>0.0</speed>
  <fix>3d</fix>
</trkpt>
<trkpt lat="40.0713749" lon="-105.229789">
  <ele>1583.0</ele>
  <time>2026-09-02T20:50:35Z</time>
  <course>0.0</course>
  <speed>0.0</speed>
  <fix>3d</fix>
</trkpt>
<trkpt lat="40.0713749" lon="-105.229789">
  <ele>1583.0</ele>
  <time>2026-09-02T20:50:35Z</time>
  <course>0.0</course>
  <speed>0.0</speed>
  <fix>3d</fix>
</trkpt>
<trkpt lat="40.0713749" lon="-105.229789">
  <ele>1583.0</ele>
  <time>2026-09-02T20:50:35Z</time>
  <course>0.0</course>
  <speed>0.0</speed>
  <fix>3d</fix>
</trkpt>
<trkpt lat="40.0713749" lon="-105.229789">
  <ele>1583.0</ele>
  <time>2026-09-02T20:50:35Z</time>
  <course>0.0</course>
  <speed>0.0</speed>
  <fix>3d</fix>
</trkpt>
<trkpt lat="40.0713749" lon="-105.229789">
  <ele>1583.0</ele>
  <time>2026-09-02T20:50:35Z</time>
  <course>0.0</course>
  <speed>0.0</speed>
  <fix>3d</fix>
</trkpt>
<trkpt lat="40.0713749" lon="-105.229789">
  <ele>1583.0</ele>
  <time>2026-09-02T20:50:35Z</time>
  <course>0.0</course>
  <speed>0.0</speed>
  <fix>3d</fix>
</trkpt>
<trkpt lat="40.0713749" lon="-105.229789">
  <ele>1583.0</ele>
  <time>2026-09-02T20:50:35Z</time>
  <course>0.0</course>
  <speed>0.0</speed>
  <fix>3d</fix>
</trkpt>
<trkpt lat="40.0713749" lon="-105.229789">
  <ele>1583.0</ele>
  <time>2026-09-02T20:50:35Z</time>
  <course>0.0</course>
  <speed>0.0</speed>
  <fix>3d</fix>
</trkpt>
<trkpt lat="40.0713749" lon="-105.229789">
  <ele>1583.0</ele>
  <time>2026-09-02T20:50:35Z</time>
  <course>0.0</course>
  <speed>0.0</speed>
  <fix>3d</fix>
</trkpt>
<trkpt lat="40.0713749" lon="-105.229789">
  <ele>1583.0</ele>
  <time>2026-09-02T20:50:35Z</time>
  <course>0.0</course>
  <speed>0.0</speed>
  <fix>3d</fix>
</trkpt>
<trkpt lat="40.0713749" lon="-105.229789">
  <ele>1583.0</ele>
  <time>2026-09-02T20:50:35Z</time>
  <course>0.0</course>
  <speed>0.0</speed>
  <fix>3d</fix>
</trkpt>
<trkpt lat="40.0713749" lon="-105.229789">
  <ele>1583.0</ele>
  <time>2026-09-02T20:50:35Z</time>
  <course>0.0</course>
  <speed>0.0</speed>
  <fix>3d</fix>
</trkpt>
<trkpt lat="40.0713749" lon="-105.229789">
  <ele>1583.0</ele>
  <time>2026-09-02T20:50:35Z</time>
  <course>0.0</course>
  <speed>0.0</speed>
  <fix>3d</fix>
</trkpt>
<trkpt lat="40.0713749" lon="-105.229789">
  <ele>1583.0</ele>
  <time>2026-09-02T20:50:35Z</time>
  <course>0.0</course>
  <speed>0.0</speed>
  <fix>3d</fix>
</trkpt>
<trkpt lat="40.0713749" lon="-105.229789">
  <ele>1583.0</ele>
  <time>2026-09-02T20:50:35Z</time>
  <course>0.0</course>
  <speed>0.0</speed>
  <fix>3d</fix>
</trkpt>
<trkpt lat="40.0713749" lon="-105.229789">
  <ele>1583.0</ele>
  <time>2026-09-02T20:50:35Z</time>
  <course>0.0</course>
  <speed>0.0</speed>
  <fix>3d</fix>
</trkpt>
<trkpt lat="40.0713749" lon="-105.229789">
  <ele>1583.0</ele>
  <time>2026-09-02T20:50:35Z</time>
  <course>0.0</course>
  <speed>0.0</speed>
  <fix>3d</fix>
</trkpt>
<trkpt lat="40.0713749" lon="-105.229789">
  <ele>1583.0</ele>
  <time>2026-09-02T20:50:35Z</time>
  <course>0.0</course>
  <speed>0.0</speed>
  <fix>3d</fix>
</trkpt>
<trkpt lat="40.0713749" lon="-105.229789">
  <ele>1583.0</ele>
  <time>2026-09-02T20:50:35Z</time>
  <course>0.0</course>
  <speed>0.0</speed>
  <fix>3d</fix>
</trkpt>
<trkpt lat="40.0713749" lon="-105.229789">
  <ele>1583.0</ele>
  <time>2026-09-02T20:50:35Z</time>
  <course>0.0</course>
  <speed>0.0</speed>
  <fix>3d</fix>
</trkpt>
<trkpt lat="40.0713749" lon="-105.229789">
  <ele>1583.0</ele>
  <time>2026-09-02T20:50:35Z</time>
  <course>0.0</course>
  <speed>0.0</speed>
  <fix>3d</fix>
</trkpt>
<trkpt lat="40.0713749" lon="-105.229789">
  <ele>1583.0</ele>
  <time>2026-09-02T20:50:35Z</time>
  <course>0.0</course>
  <speed>0.0</speed>
  <fix>3d</fix>
</trkpt>
<trkpt lat="40.0713749" lon="-105.229789">
  <ele>1583.0</ele>
  <time>2026-09-02T20:50:35Z</time>
  <course>0.0</course>
  <speed>0.0</speed>
  <fix>3d</fix>
</trkpt>
<trkpt lat="40.0713749" lon="-105.229789">
  <ele>1583.0</ele>
  <time>2026-09-02T20:50:35Z</time>
  <course>0.0</course>
  <speed>0.0</speed>
  <fix>3d</fix>
</trkpt>
<trkpt lat="40.0713749" lon="-105.229789">
  <ele>1583.0</ele>
  <time>2026-09-02T20:50:35Z</time>
  <course>0.0</course>
  <speed>0.0</speed>
  <fix>3d</fix>
</trkpt>
<trkpt lat="40.0713749" lon="-105.229789">
  <ele>1583.0</ele>
  <time>2026-09-02T20:50:35Z</time>
  <course>0.0</course>
  <speed>0.0</speed>
  <fix>3d</fix>
</trkpt>
<trkpt lat="40.0713749" lon="-105.229789">
  <ele>1583.0</ele>
  <time>2026-09-02T20:50:35Z</time>
  <course>0.0</course>
  <speed>0.0</speed>
  <fix>3d</fix>
</trkpt>
<trkpt lat="40.0713749" lon="-105.229789">
  <ele>1583.0</ele>
  <time>2026-09-02T20:50:35Z</time>
  <course>0.0</course>
  <speed>0.0</speed>
  <fix>3d</fix>
</trkpt>
<trkpt lat="40.0713749" lon="-105.229789">
  <ele>1583.0</ele>
  <time>2026-09-02T20:50:35Z</time>
  <course>0.0</course>
  <speed>0.0</speed>
  <fix>3d</fix>
</trkpt>
<trkpt lat="40.0713749" lon="-105.229789">
  <ele>1583.0</ele>
  <time>2026-09-02T20:50:35Z</time>
  <course>0.0</course>
  <speed>0.0</speed>
  <fix>3d</fix>
</trkpt>
<trkpt lat="40.0713749" lon="-105.229789">
  <ele>1583.0</ele>
  <time>2026-09-02T20:50:35Z</time>
  <course>0.0</course>
  <speed>0.0</speed>
  <fix>3d</fix>
</trkpt>
<trkpt lat="40.0713749" lon="-105.229789">
  <ele>1583.0</ele>
  <time>2026-09-02T20:50:35Z</time>
  <course>0.0</course>
  <speed>0.0</speed>
  <fix>3d</fix>
</trkpt>
<trkpt lat="40.0713749" lon="-105.229789">
  <ele>1583.0</ele>
  <time>2026-09-02T20:50:35Z</time>
  <course>0.0</course>
  <speed>0.0</speed>
  <fix>3d</fix>
</trkpt>
<trkpt lat="40.0713749" lon="-105.229789">
  <ele>1583.0</ele>
  <time>2026-09-02T20:50:35Z</time>
  <course>0.0</course>
  <speed>0.0</speed>
  <fix>3d</fix>
</trkpt>
<trkpt lat="40.0713749" lon="-105.229789">
  <ele>1583.0</ele>
  <time>2026-09-02T20:50:35Z</time>
  <course>0.0</course>
  <speed>0.0</speed>
  <fix>3d</fix>
</trkpt>
<trkpt lat="40.0713749" lon="-105.229789">
  <ele>1583.0</ele>
  <time>2026-09-02T20:50:35Z</time>
  <course>0.0</course>
  <speed>0.0</speed>
  <fix>3d</fix>
</trkpt>
<trkpt lat="40.0713749" lon="-105.229789">
  <ele>1583.0</ele>
  <time>2026-09-02T20:50:35Z</time>
  <course>0.0</course>
  <speed>0.0</speed>
  <fix>3d</fix>
</trkpt>
<trkpt lat="40.0713749" lon="-105.229789">
  <ele>1583.0</ele>
  <time>2026-09-02T20:50:35Z</time>
  <course>0.0</course>
  <speed>0.0</speed>
  <fix>3d</fix>
</trkpt>
<trkpt lat="40.0713749" lon="-105.229789">
  <ele>1583.0</ele>
  <time>2026-09-02T20:50:35Z</time>
  <course>0.0</course>
  <speed>0.0</speed>
  <fix>3d</fix>
</trkpt>
<trkpt lat="40.0713749" lon="-105.229789">
  <ele>1583.0</ele>
  <time>2026-09-02T20:50:35Z</time>
  <course>0.0</course>
  <speed>0.0</speed>
  <fix>3d</fix>
</trkpt>
<trkpt lat="40.0713749" lon="-105.229789">
  <ele>1583.0</ele>
  <time>2026-09-02T20:50:35Z</time>
  <course>0.0</course>
  <speed>0.0</speed>
  <fix>3d</fix>
</trkpt>
<trkpt lat="40.0713749" lon="-105.229789">
  <ele>1583.0</ele>
  <time>2026-09-02T20:50:35Z</time>
  <course>0.0</course>
  <speed>0.0</speed>
  <fix>3d</fix>
</trkpt>
<trkpt lat="40.0713749" lon="-105.229789">
  <ele>1583.0</ele>
  <time>2026-09-02T20:50:35Z</time>
  <course>0.0</course>
  <speed>0.0</speed>
  <fix>3d</fix>
</trkpt>
<trkpt lat="40.0713749" lon="-105.229789">
  <ele>1583.0</ele>
  <time>2026-09-02T20:50:35Z</time>
  <course>0.0</course>
  <speed>0.0</speed>
  <fix>3d</fix>
</trkpt>
<trkpt lat="40.0713749" lon="-105.229789">
  <ele>1583.0</ele>
  <time>2026-09-02T20:50:35Z</time>
  <course>0.0</course>
  <speed>0.0</speed>
  <fix>3d</fix>
</trkpt>
<trkpt lat="40.0713749" lon="-105.229789">
  <ele>1583.0</ele>
  <time>2026-09-02T20:50:35Z</time>
  <course>0.0</course>
  <speed>0.0</speed>
  <fix>3d</fix>
</trkpt>
<trkpt lat="40.0713749" lon="-105.229789">
  <ele>1583.0</ele>
  <time>2026-09-02T20:50:35Z</time>
  <course>0.0</course>
  <speed>0.0</speed>
  <fix>3d</fix>
</trkpt>
<trkpt lat="40.0713749" lon="-105.229789">
  <ele>1583.0</ele>
  <time>2026-09-02T20:50:35Z</time>
  <course>0.0</course>
  <speed>0.0</speed>
  <fix>3d</fix>
</trkpt>
<trkpt lat="40.0713749" lon="-105.229789">
  <ele>1583.0</ele>
  <time>2026-09-02T20:50:35Z</time>
  <course>0.0</course>
  <speed>0.0</speed>
  <fix>3d</fix>
</trkpt>
<trkpt lat="40.0713749" lon="-105.229789">
  <ele>1583.0</ele>
  <time>2026-09-02T20:50:35Z</time>
  <course>0.0</course>
  <speed>0.0</speed>
  <fix>3d</fix>
</trkpt>
<trkpt lat="40.0713749" lon="-105.229789">
  <ele>1583.0</ele>
  <time>2026-09-02T20:50:35Z</time>
  <course>0.0</course>
  <speed>0.0</speed>
  <fix>3d</fix>
</trkpt>
<trkpt lat="40.0713749" lon="-105.229789">
  <ele>1583.0</ele>
  <time>2026-09-02T20:50:35Z</time>
  <course>0.0</course>
  <speed>0.0</speed>
  <fix>3d</fix>
</trkpt>
<trkpt lat="40.0713749" lon="-105.229789">
  <ele>1583.0</ele>
  <time>2026-09-02T20:50:35Z</time>
  <course>0.0</course>
  <speed>0.0</speed>
  <fix>3d</fix>
</trkpt>
<trkpt lat="40.0713749" lon="-105.229789">
  <ele>1583.0</ele>
  <time>2026-09-02T20:50:35Z</time>
  <course>0.0</course>
  <speed>0.0</speed>
  <fix>3d</fix>
</trkpt>
<trkpt lat="40.0713749" lon="-105.229789">
  <ele>1583.0</ele>
  <time>2026-09-02T20:50:35Z</time>
  <course>0.0</course>
  <speed>0.0</speed>
  <fix>3d</fix>
</trkpt>
<trkpt lat="40.0713749" lon="-105.229789">
  <ele>1583.0</ele>
  <time>2026-09-02T20:50:35Z</time>
  <course>0.0</course>
  <speed>0.0</speed>
  <fix>3d</fix>
</trkpt>
<trkpt lat="40.0713749" lon="-105.229789">
  <ele>1583.0</ele>
  <time>2026-09-02T20:50:35Z</time>
  <course>0.0</course>
  <speed>0.0</speed>
  <fix>3d</fix>
</trkpt>
<trkpt lat="40.0713749" lon="-105.229789">
  <ele>1583.0</ele>
  <time>2026-09-02T20:50:35Z</time>
  <course>0.0</course>
  <speed>0.0</speed>
  <fix>3d</fix>
</trkpt>
<trkpt lat="40.0713749" lon="-105.229789">
  <ele>1583.0</ele>
  <time>2026-09-02T20:50:35Z</time>
  <course>0.0</course>
  <speed>0.0</speed>
  <fix>3d</fix>
</trkpt>
<trkpt lat="40.0713749" lon="-105.229789">
  <ele>1583.0</ele>
  <time>2026-09-02T20:50:35Z</time>
  <course>0.0</course>
  <speed>0.0</speed>
  <fix>3d</fix>
</trkpt>
<trkpt lat="40.0713749" lon="-105.229789">
  <ele>1583.0</ele>
  <time>2026-09-02T20:50:35Z</time>
  <course>0.0</course>
  <speed>0.0</speed>
  <fix>3d</fix>
</trkpt>
<trkpt lat="40.0713749" lon="-105.229789">
  <ele>1583.0</ele>
  <time>2026-09-02T20:50:35Z</time>
  <course>0.0</course>
  <speed>0.0</speed>
  <fix>3d</fix>
</trkpt>
<trkpt lat="40.0713749" lon="-105.229789">
  <ele>1583.0</ele>
  <time>2026-09-02T20:50:35Z</time>
  <course>0.0</course>
  <speed>0.0</speed>
  <fix>3d</fix>
</trkpt>
<trkpt lat="40.0713749" lon="-105.229789">
  <ele>1583.0</ele>
  <time>2026-09-02T20:50:35Z</time>
  <course>0.0</course>
  <speed>0.0</speed>
  <fix>3d</fix>
</trkpt>
<trkpt lat="40.0713749" lon="-105.229789">
  <ele>1583.0</ele>
  <time>2026-09-02T20:50:35Z</time>
  <course>0.0</course>
  <speed>0.0</speed>
  <fix>3d</fix>
</trkpt>
<trkpt lat="40.0713749" lon="-105.229789">
  <ele>1583.0</ele>
  <time>2026-09-02T20:50:35Z</time>
  <course>0.0</course>
  <speed>0.0</speed>
  <fix>3d</fix>
</trkpt>
<trkpt lat="40.0713749" lon="-105.229789">
  <ele>1583.0</ele>
  <time>2026-09-02T20:50:35Z</time>
  <course>0.0</course>
  <speed>0.0</speed>
  <fix>3d</fix>
</trkpt>
<trkpt lat="40.0713749" lon="-105.229789">
  <ele>1583.0</ele>
  <time>2026-09-02T20:50:35Z</time>
  <course>0.0</course>
  <speed>0.0</speed>
  <fix>3d</fix>
</trkpt>
<trkpt lat="40.0713749" lon="-105.229789">
  <ele>1583.0</ele>
  <time>2026-09-02T20:50:35Z</time>
  <course>0.0</course>
  <speed>0.0</speed>
  <fix>3d</fix>
</trkpt>
<trkpt lat="40.0713749" lon="-105.229789">
  <ele>1583.0</ele>
  <time>2026-09-02T20:50:35Z</time>
  <course>0.0</course>
  <speed>0.0</speed>
  <fix>3d</fix>
</trkpt>
<trkpt lat="40.0713749" lon="-105.229789">
  <ele>1583.0</ele>
  <time>2026-09-02T20:50:35Z</time>
  <course>0.0</course>
  <speed>0.0</speed>
  <fix>3d</fix>
</trkpt>
<trkpt lat="40.0713749" lon="-105.229789">
  <ele>1583.0</ele>
  <time>2026-09-02T20:50:35Z</time>
  <course>0.0</course>
  <speed>0.0</speed>
  <fix>3d</fix>
</trkpt>
<trkpt lat="40.0713749" lon="-105.229789">
  <ele>1583.0</ele>
  <time>2026-09-02T20:50:35Z</time>
  <course>0.0</course>
  <speed>0.0</speed>
  <fix>3d</fix>
</trkpt>
<trkpt lat="40.0713749" lon="-105.229789">
  <ele>1583.0</ele>
  <time>2026-09-02T20:50:35Z</time>
  <course>0.0</course>
  <speed>0.0</speed>
  <fix>3d</fix>
</trkpt>
<trkpt lat="40.0713749" lon="-105.229789">
  <ele>1583.0</ele>
  <time>2026-09-02T20:50:35Z</time>
  <course>0.0</course>
  <speed>0.0</speed>
  <fix>3d</fix>
</trkpt>
<trkpt lat="40.0713749" lon="-105.229789">
  <ele>1583.0</ele>
  <time>2026-09-02T20:50:35Z</time>
  <course>0.0</course>
  <speed>0.0</speed>
  <fix>3d</fix>
</trkpt>
<trkpt lat="40.0713749" lon="-105.229789">
  <ele>1583.0</ele>
  <time>2026-09-02T20:50:35Z</time>
  <course>0.0</course>
  <speed>0.0</speed>
  <fix>3d</fix>
</trkpt>
<trkpt lat="40.0713749" lon="-105.229789">
  <ele>1583.0</ele>
  <time>2026-09-02T20:50:35Z</time>
  <course>0.0</course>
  <speed>0.0</speed>
  <fix>3d</fix>
</trkpt>
<trkpt lat="40.0713749" lon="-105.229789">
  <ele>1583.0</ele>
  <time>2026-09-02T20:50:35Z</time>
  <course>0.0</course>
  <speed>0.0</speed>
  <fix>3d</fix>
</trkpt>
<trkpt lat="40.0713749" lon="-105.229789">
  <ele>1583.0</ele>
  <time>2026-09-02T20:50:35Z</time>
  <course>0.0</course>
  <speed>0.0</speed>
  <fix>3d</fix>
</trkpt>
<trkpt lat="40.0713749" lon="-105.229789">
  <ele>1583.0</ele>
  <time>2026-09-02T20:50:35Z</time>
  <course>0.0</course>
  <speed>0.0</speed>
  <fix>3d</fix>
</trkpt>
<trkpt lat="40.0713749" lon="-105.229789">
  <ele>1583.0</ele>
  <time>2026-09-02T20:50:35Z</time>
  <course>0.0</course>
  <speed>0.0</speed>
  <fix>3d</fix>
</trkpt>
<trkpt lat="40.0713749" lon="-105.229789">
  <ele>1583.0</ele>
  <time>2026-09-02T20:50:35Z</time>
  <course>0.0</course>
  <speed>0.0</speed>
  <fix>3d</fix>
</trkpt>
<trkpt lat="40.0713749" lon="-105.229789">
  <ele>1583.0</ele>
  <time>2026-09-02T20:50:35Z</time>
  <course>0.0</course>
  <speed>0.0</speed>
  <fix>3d</fix>
</trkpt>
<trkpt lat="40.0713749" lon="-105.229789">
  <ele>1583.0</ele>
  <time>2026-09-02T20:50:35Z</time>
  <course>0.0</course>
  <speed>0.0</speed>
  <fix>3d</fix>
</trkpt>
<trkpt lat="40.0713749" lon="-105.229789">
  <ele>1583.0</ele>
  <time>2026-09-02T20:50:35Z</time>
  <course>0.0</course>
  <speed>0.0</speed>
  <fix>3d</fix>
</trkpt>
<trkpt lat="40.0713749" lon="-105.229789">
  <ele>1583.0</ele>
  <time>2026-09-02T20:50:35Z</time>
  <course>0.0</course>
  <speed>0.0</speed>
  <fix>3d</fix>
</trkpt>
<trkpt lat="40.0713749" lon="-105.229789">
  <ele>1583.0</ele>
  <time>2026-09-02T20:50:35Z</time>
  <course>0.0</course>
  <speed>0.0</speed>
  <fix>3d</fix>
</trkpt>
<trkpt lat="40.0713749" lon="-105.229789">
  <ele>1583.0</ele>
  <time>2026-09-02T20:50:35Z</time>
  <course>0.0</course>
  <speed>0.0</speed>
  <fix>3d</fix>
</trkpt>
<trkpt lat="40.0713749" lon="-105.229789">
  <ele>1583.0</ele>
  <time>2026-09-02T20:50:35Z</time>
  <course>0.0</course>
  <speed>0.0</speed>
  <fix>3d</fix>
</trkpt>
<trkpt lat="40.0713749" lon="-105.229789">
  <ele>1583.0</ele>
  <time>2026-09-02T20:50:35Z</time>
  <course>0.0</course>
  <speed>0.0</speed>
  <fix>3d</fix>
</trkpt>
<trkpt lat="40.0713749" lon="-105.229789">
  <ele>1583.0</ele>
  <time>2026-09-02T20:50:35Z</time>
  <course>0.0</course>
  <speed>0.0</speed>
  <fix>3d</fix>
</trkpt>
<trkpt lat="40.0713749" lon="-105.229789">
  <ele>1583.0</ele>
  <time>2026-09-02T20:50:35Z</time>
  <course>0.0</course>
  <speed>0.0</speed>
  <fix>3d</fix>
</trkpt>
<trkpt lat="40.0713749" lon="-105.229789">
  <ele>1583.0</ele>
  <time>2026-09-02T20:50:35Z</time>
  <course>0.0</course>
  <speed>0.0</speed>
  <fix>3d</fix>
</trkpt>
<trkpt lat="40.0713749" lon="-105.229789">
  <ele>1583.0</ele>
  <time>2026-09-02T20:50:35Z</time>
  <course>0.0</course>
  <speed>0.0</speed>
  <fix>3d</fix>
</trkpt>
<trkpt lat="40.0713749" lon="-105.229789">
  <ele>1583.0</ele>
  <time>2026-09-02T20:50:35Z</time>
  <course>0.0</course>
  <speed>0.0</speed>
  <fix>3d</fix>
</trkpt>
<trkpt lat="40.0713749" lon="-105.229789">
  <ele>1583.0</ele>
  <time>2026-09-02T20:50:35Z</time>
  <course>0.0</course>
  <speed>0.0</speed>
  <fix>3d</fix>
</trkpt>
<trkpt lat="40.0713749" lon="-105.229789">
  <ele>1583.0</ele>
  <time>2026-09-02T20:50:35Z</time>
  <course>0.0</course>
  <speed>0.0</speed>
  <fix>3d</fix>
</trkpt>
<trkpt lat="40.0713749" lon="-105.229789">
  <ele>1583.0</ele>
  <time>2026-09-02T20:50:35Z</time>
  <course>0.0</course>
  <speed>0.0</speed>
  <fix>3d</fix>
</trkpt>
<trkpt lat="40.0713749" lon="-105.229789">
  <ele>1583.0</ele>
  <time>2026-09-02T20:50:35Z</time>
  <course>0.0</course>
  <speed>0.0</speed>
  <fix>3d</fix>
</trkpt>
<trkpt lat="40.0713749" lon="-105.229789">
  <ele>1583.0</ele>
  <time>2026-09-02T20:50:35Z</time>
  <course>0.0</course>
  <speed>0.0</speed>
  <fix>3d</fix>
</trkpt>
<trkpt lat="40.0713749" lon="-105.229789">
  <ele>1583.0</ele>
  <time>2026-09-02T20:50:35Z</time>
  <course>0.0</course>
  <speed>0.0</speed>
  <fix>3d</fix>
</trkpt>
<trkpt lat="40.0713749" lon="-105.229789">
  <ele>1583.0</ele>
  <time>2026-09-02T20:50:35Z</time>
  <course>0.0</course>
  <speed>0.0</speed>
  <fix>3d</fix>
</trkpt>
<trkpt lat="40.0713749" lon="-105.229789">
  <ele>1583.0</ele>
  <time>2026-09-02T20:50:35Z</time>
  <course>0.0</course>
  <speed>0.0</speed>
  <fix>3d</fix>
</trkpt>
<trkpt lat="40.0713749" lon="-105.229789">
  <ele>1583.0</ele>
  <time>2026-09-02T20:50:35Z</time>
  <course>0.0</course>
  <speed>0.0</speed>
  <fix>3d</fix>
</trkpt>
<trkpt lat="40.0713749" lon="-105.229789">
  <ele>1583.0</ele>
  <time>2026-09-02T20:50:35Z</time>
  <course>0.0</course>
  <speed>0.0</speed>
  <fix>3d</fix>
</trkpt>
<trkpt lat="40.0713749" lon="-105.229789">
  <ele>1583.0</ele>
  <time>2026-09-02T20:50:35Z</time>
  <course>0.0</course>
  <speed>0.0</speed>
  <fix>3d</fix>
</trkpt>
<trkpt lat="40.0713749" lon="-105.229789">
  <ele>1583.0</ele>
  <time>2026-09-02T20:50:35Z</time>
  <course>0.0</course>
  <speed>0.0</speed>
  <fix>3d</fix>
</trkpt>
<trkpt lat="40.0713749" lon="-105.229789">
  <ele>1583.0</ele>
  <time>2026-09-02T20:50:35Z</time>
  <course>0.0</course>
  <speed>0.0</speed>
  <fix>3d</fix>
</trkpt>
<trkpt lat="40.0713749" lon="-105.229789">
  <ele>1583.0</ele>
  <time>2026-09-02T20:50:35Z</time>
  <course>0.0</course>
  <speed>0.0</speed>
  <fix>3d</fix>
</trkpt>
<trkpt lat="40.0713749" lon="-105.229789">
  <ele>1583.0</ele>
  <time>2026-09-02T20:50:35Z</time>
  <course>0.0</course>
  <speed>0.0</speed>
  <fix>3d</fix>
</trkpt>
<trkpt lat="40.0713749" lon="-105.229789">
  <ele>1583.0</ele>
  <time>2026-09-02T20:50:35Z</time>
  <course>0.0</course>
  <speed>0.0</speed>
  <fix>3d</fix>
</trkpt>
<trkpt lat="40.0713749" lon="-105.229789">
  <ele>1583.0</ele>
  <time>2026-09-02T20:50:35Z</time>
  <course>0.0</course>
  <speed>0.0</speed>
  <fix>3d</fix>
</trkpt>
<trkpt lat="40.0713749" lon="-105.229789">
  <ele>1583.0</ele>
  <time>2026-09-02T20:50:35Z</time>
  <course>0.0</course>
  <speed>0.0</speed>
  <fix>3d</fix>
</trkpt>
<trkpt lat="40.0713749" lon="-105.229789">
  <ele>1583.0</ele>
  <time>2026-09-02T20:50:35Z</time>
  <course>0.0</course>
  <speed>0.0</speed>
  <fix>3d</fix>
</trkpt>
<trkpt lat="40.0713749" lon="-105.229789">
  <ele>1583.0</ele>
  <time>2026-09-02T20:50:35Z</time>
  <course>0.0</course>
  <speed>0.0</speed>
  <fix>3d</fix>
</trkpt>
<trkpt lat="40.0713749" lon="-105.229789">
  <ele>1583.0</ele>
  <time>2026-09-02T20:50:35Z</time>
  <course>0.0</course>
  <speed>0.0</speed>
  <fix>3d</fix>
</trkpt>
<trkpt lat="40.0713749" lon="-105.229789">
  <ele>1583.0</ele>
  <time>2026-09-02T20:50:35Z</time>
  <course>0.0</course>
  <speed>0.0</speed>
  <fix>3d</fix>
</trkpt>
<trkpt lat="40.0713749" lon="-105.229789">
  <ele>1583.0</ele>
  <time>2026-09-02T20:50:35Z</time>
  <course>0.0</course>
  <speed>0.0</speed>
  <fix>3d</fix>
</trkpt>
<trkpt lat="40.0713749" lon="-105.229789">
  <ele>1583.0</ele>
  <time>2026-09-02T20:50:35Z</time>
  <course>0.0</course>
  <speed>0.0</speed>
  <fix>3d</fix>
</trkpt>
<trkpt lat="39.655741" lon="-104.1383097">
  <ele>1566.58</ele>
  <time>2026-09-02T20:50:35Z</time>
  <course>0.0</course>
  <speed>0.0</speed>
  <fix>3d</fix>
</trkpt>
<trkpt lat="40.0713749" lon="-105.229789">
  <ele>1583.0</ele>
  <time>2026-09-02T20:50:35Z</time>
  <course>0.0</course>
  <speed>0.0</speed>
  <fix>3d</fix>
</trkpt>
<trkpt lat="40.0713749" lon="-105.229789">
  <ele>1583.0</ele>
  <time>2026-09-02T20:50:35Z</time>
  <course>0.0</course>
  <speed>0.0</speed>
  <fix>3d</fix>
</trkpt>
<trkpt lat="40.0713749" lon="-105.229789">
  <ele>1583.0</ele>
  <time>2026-09-02T20:50:35Z</time>
  <course>0.0</course>
  <speed>0.0</speed>
  <fix>3d</fix>
</trkpt>
<trkpt lat="40.0713749" lon="-105.229789">
  <ele>1583.0</ele>
  <time>2026-09-02T20:50:35Z</time>
  <course>0.0</course>
  <speed>0.0</speed>
  <fix>3d</fix>
</trkpt>
<trkpt lat="40.0713749" lon="-105.229789">
  <ele>1583.0</ele>
  <time>2026-09-02T20:50:35Z</time>
  <course>0.0</course>
  <speed>0.0</speed>
  <fix>3d</fix>
</trkpt>
<trkpt lat="40.0713749" lon="-105.229789">
  <ele>1583.0</ele>
  <time>2026-09-02T20:50:35Z</time>
  <course>0.0</course>
  <speed>0.0</speed>
  <fix>3d</fix>
</trkpt>
<trkpt lat="40.0713749" lon="-105.229789">
  <ele>1583.0</ele>
  <time>2026-09-02T20:50:35Z</time>
  <course>0.0</course>
  <speed>0.0</speed>
  <fix>3d</fix>
</trkpt>
<trkpt lat="40.0713749" lon="-105.229789">
  <ele>1583.0</ele>
  <time>2026-09-02T20:50:35Z</time>
  <course>0.0</course>
  <speed>0.0</speed>
  <fix>3d</fix>
</trkpt>
<trkpt lat="40.0713749" lon="-105.229789">
  <ele>1583.0</ele>
  <time>2026-09-02T20:50:35Z</time>
  <course>0.0</course>
  <speed>0.0</speed>
  <fix>3d</fix>
</trkpt>
<trkpt lat="40.0713749" lon="-105.229789">
  <ele>1583.0</ele>
  <time>2026-09-02T20:50:35Z</time>
  <course>0.0</course>
  <speed>0.0</speed>
  <fix>3d</fix>
</trkpt>
<trkpt lat="40.0713749" lon="-105.229789">
  <ele>1583.0</ele>
  <time>2026-09-02T20:50:35Z</time>
  <course>0.0</course>
  <speed>0.0</speed>
  <fix>3d</fix>
</trkpt>
<trkpt lat="40.0713749" lon="-105.229789">
  <ele>1583.0</ele>
  <time>2026-09-02T20:50:35Z</time>
  <course>0.0</course>
  <speed>0.0</speed>
  <fix>3d</fix>
</trkpt>
<trkpt lat="40.0713749" lon="-105.229789">
  <ele>1583.0</ele>
  <time>2026-09-02T20:50:35Z</time>
  <course>0.0</course>
  <speed>0.0</speed>
  <fix>3d</fix>
</trkpt>
<trkpt lat="40.0713749" lon="-105.229789">
  <ele>1583.0</ele>
  <time>2026-09-02T20:50:35Z</time>
  <course>0.0</course>
  <speed>0.0</speed>
  <fix>3d</fix>
</trkpt>
<trkpt lat="40.0713749" lon="-105.229789">
  <ele>1583.0</ele>
  <time>2026-09-02T20:50:35Z</time>
  <course>0.0</course>
  <speed>0.0</speed>
  <fix>3d</fix>
</trkpt>
<trkpt lat="40.0713749" lon="-105.229789">
  <ele>1583.0</ele>
  <time>2026-09-02T20:50:35Z</time>
  <course>0.0</course>
  <speed>0.0</speed>
  <fix>3d</fix>
</trkpt>
<trkpt lat="40.0713749" lon="-105.229789">
  <ele>1583.0</ele>
  <time>2026-09-02T20:50:35Z</time>
  <course>0.0</course>
  <speed>0.0</speed>
  <fix>3d</fix>
</trkpt>
<trkpt lat="40.0713749" lon="-105.229789">
  <ele>1583.0</ele>
  <time>2026-09-02T20:50:35Z</time>
  <course>0.0</course>
  <speed>0.0</speed>
  <fix>3d</fix>
</trkpt>
<trkpt lat="40.0713749" lon="-105.229789">
  <ele>1583.0</ele>
  <time>2026-09-02T20:50:35Z</time>
  <course>0.0</course>
  <speed>0.0</speed>
  <fix>3d</fix>
</trkpt>
<trkpt lat="40.0713749" lon="-105.229789">
  <ele>1583.0</ele>
  <time>2026-09-02T20:50:35Z</time>
  <course>0.0</course>
  <speed>0.0</speed>
  <fix>3d</fix>
</trkpt>
<trkpt lat="40.0713749" lon="-105.229789">
  <ele>1583.0</ele>
  <time>2026-09-02T20:50:35Z</time>
  <course>0.0</course>
  <speed>0.0</speed>
  <fix>3d</fix>
</trkpt>
<trkpt lat="40.0713749" lon="-105.229789">
  <ele>1583.0</ele>
  <time>2026-09-02T20:50:35Z</time>
  <course>0.0</course>
  <speed>0.0</speed>
  <fix>3d</fix>
</trkpt>
<trkpt lat="40.0713749" lon="-105.229789">
  <ele>1583.0</ele>
  <time>2026-09-02T20:50:35Z</time>
  <course>0.0</course>
  <speed>0.0</speed>
  <fix>3d</fix>
</trkpt>
<trkpt lat="40.0713749" lon="-105.229789">
  <ele>1583.0</ele>
  <time>2026-09-02T20:50:35Z</time>
  <course>0.0</course>
  <speed>0.0</speed>
  <fix>3d</fix>
</trkpt>
<trkpt lat="40.0713749" lon="-105.229789">
  <ele>1583.0</ele>
  <time>2026-09-02T20:50:35Z</time>
  <course>0.0</course>
  <speed>0.0</speed>
  <fix>3d</fix>
</trkpt>
<trkpt lat="40.0713749" lon="-105.229789">
  <ele>1583.0</ele>
  <time>2026-09-02T20:50:35Z</time>
  <course>0.0</course>
  <speed>0.0</speed>
  <fix>3d</fix>
</trkpt>
<trkpt lat="40.0713749" lon="-105.229789">
  <ele>1583.0</ele>
  <time>2026-09-02T20:50:35Z</time>
  <course>0.0</course>
  <speed>0.0</speed>
  <fix>3d</fix>
</trkpt>
<trkpt lat="40.0713749" lon="-105.229789">
  <ele>1583.0</ele>
  <time>2026-09-02T20:50:35Z</time>
  <course>0.0</course>
  <speed>0.0</speed>
  <fix>3d</fix>
</trkpt>
<trkpt lat="40.0713749" lon="-105.229789">
  <ele>1583.0</ele>
  <time>2026-09-02T20:50:35Z</time>
  <course>0.0</course>
  <speed>0.0</speed>
  <fix>3d</fix>
</trkpt>
<trkpt lat="40.0713749" lon="-105.229789">
  <ele>1583.0</ele>
  <time>2026-09-02T20:50:35Z</time>
  <course>0.0</course>
  <speed>0.0</speed>
  <fix>3d</fix>
</trkpt>
<trkpt lat="40.0713749" lon="-105.229789">
  <ele>1583.0</ele>
  <time>2026-09-02T20:50:35Z</time>
  <course>0.0</course>
  <speed>0.0</speed>
  <fix>3d</fix>
</trkpt>
<trkpt lat="40.0713749" lon="-105.229789">
  <ele>1583.0</ele>
  <time>2026-09-02T20:50:35Z</time>
  <course>0.0</course>
  <speed>0.0</speed>
  <fix>3d</fix>
</trkpt>
<trkpt lat="40.0713749" lon="-105.229789">
  <ele>1583.0</ele>
  <time>2026-09-02T20:50:35Z</time>
  <course>0.0</course>
  <speed>0.0</speed>
  <fix>3d</fix>
</trkpt>
<trkpt lat="40.0713749" lon="-105.229789">
  <ele>1583.0</ele>
  <time>2026-09-02T20:50:35Z</time>
  <course>0.0</course>
  <speed>0.0</speed>
  <fix>3d</fix>
</trkpt>
<trkpt lat="40.0713749" lon="-105.229789">
  <ele>1583.0</ele>
  <time>2026-09-02T20:50:35Z</time>
  <course>0.0</course>
  <speed>0.0</speed>
  <fix>3d</fix>
</trkpt>
<trkpt lat="40.0713749" lon="-105.229789">
  <ele>1583.0</ele>
  <time>2026-09-02T20:50:35Z</time>
  <course>0.0</course>
  <speed>0.0</speed>
  <fix>3d</fix>
</trkpt>
<trkpt lat="40.0713749" lon="-105.229789">
  <ele>1583.0</ele>
  <time>2026-09-02T20:50:35Z</time>
  <course>0.0</course>
  <speed>0.0</speed>
  <fix>3d</fix>
</trkpt>
<trkpt lat="40.0713749" lon="-105.229789">
  <ele>1583.0</ele>
  <time>2026-09-02T20:50:35Z</time>
  <course>0.0</course>
  <speed>0.0</speed>
  <fix>3d</fix>
</trkpt>
<trkpt lat="40.0713749" lon="-105.229789">
  <ele>1583.0</ele>
  <time>2026-09-02T20:50:35Z</time>
  <course>0.0</course>
  <speed>0.0</speed>
  <fix>3d</fix>
</trkpt>
<trkpt lat="40.0713749" lon="-105.229789">
  <ele>1583.0</ele>
  <time>2026-09-02T20:50:35Z</time>
  <course>0.0</course>
  <speed>0.0</speed>
  <fix>3d</fix>
</trkpt>
<trkpt lat="40.0713749" lon="-105.229789">
  <ele>1583.0</ele>
  <time>2026-09-02T20:50:35Z</time>
  <course>0.0</course>
  <speed>0.0</speed>
  <fix>3d</fix>
</trkpt>
<trkpt lat="40.0713749" lon="-105.229789">
  <ele>1583.0</ele>
  <time>2026-09-02T20:50:35Z</time>
  <course>0.0</course>
  <speed>0.0</speed>
  <fix>3d</fix>
</trkpt>
<trkpt lat="40.0713749" lon="-105.229789">
  <ele>1583.0</ele>
  <time>2026-09-02T20:50:35Z</time>
  <course>0.0</course>
  <speed>0.0</speed>
  <fix>3d</fix>
</trkpt>
<trkpt lat="40.0713749" lon="-105.229789">
  <ele>1583.0</ele>
  <time>2026-09-02T20:50:35Z</time>
  <course>0.0</course>
  <speed>0.0</speed>
  <fix>3d</fix>
</trkpt>
<trkpt lat="40.0713749" lon="-105.229789">
  <ele>1583.0</ele>
  <time>2026-09-02T20:50:35Z</time>
  <course>0.0</course>
  <speed>0.0</speed>
  <fix>3d</fix>
</trkpt>
<trkpt lat="40.0713749" lon="-105.229789">
  <ele>1583.0</ele>
  <time>2026-09-02T20:50:35Z</time>
  <course>0.0</course>
  <speed>0.0</speed>
  <fix>3d</fix>
</trkpt>
<trkpt lat="40.0713749" lon="-105.229789">
  <ele>1583.0</ele>
  <time>2026-09-02T20:50:35Z</time>
  <course>0.0</course>
  <speed>0.0</speed>
  <fix>3d</fix>
</trkpt>
<trkpt lat="40.0713749" lon="-105.229789">
  <ele>1583.0</ele>
  <time>2026-09-02T20:50:35Z</time>
  <course>0.0</course>
  <speed>0.0</speed>
  <fix>3d</fix>
</trkpt>
<trkpt lat="40.0713749" lon="-105.229789">
  <ele>1583.0</ele>
  <time>2026-09-02T20:50:35Z</time>
  <course>0.0</course>
  <speed>0.0</speed>
  <fix>3d</fix>
</trkpt>
<trkpt lat="40.0713749" lon="-105.229789">
  <ele>1583.0</ele>
  <time>2026-09-02T20:50:35Z</time>
  <course>0.0</course>
  <speed>0.0</speed>
  <fix>3d</fix>
</trkpt>
<trkpt lat="40.0713749" lon="-105.229789">
  <ele>1583.0</ele>
  <time>2026-09-02T20:50:35Z</time>
  <course>0.0</course>
  <speed>0.0</speed>
  <fix>3d</fix>
</trkpt>
<trkpt lat="40.0713749" lon="-105.229789">
  <ele>1583.0</ele>
  <time>2026-09-02T20:50:35Z</time>
  <course>0.0</course>
  <speed>0.0</speed>
  <fix>3d</fix>
</trkpt>
<trkpt lat="40.0713749" lon="-105.229789">
  <ele>1583.0</ele>
  <time>2026-09-02T20:50:35Z</time>
  <course>0.0</course>
  <speed>0.0</speed>
  <fix>3d</fix>
</trkpt>
<trkpt lat="40.0713749" lon="-105.229789">
  <ele>1583.0</ele>
  <time>2026-09-02T20:50:35Z</time>
  <course>0.0</course>
  <speed>0.0</speed>
  <fix>3d</fix>
</trkpt>
<trkpt lat="40.0713749" lon="-105.229789">
  <ele>1583.0</ele>
  <time>2026-09-02T20:50:35Z</time>
  <course>0.0</course>
  <speed>0.0</speed>
  <fix>3d</fix>
</trkpt>
<trkpt lat="40.0713749" lon="-105.229789">
  <ele>1583.0</ele>
  <time>2026-09-02T20:50:35Z</time>
  <course>0.0</course>
  <speed>0.0</speed>
  <fix>3d</fix>
</trkpt>
<trkpt lat="40.0713749" lon="-105.229789">
  <ele>1583.0</ele>
  <time>2026-09-02T20:50:35Z</time>
  <course>0.0</course>
  <speed>0.0</speed>
  <fix>3d</fix>
</trkpt>
<trkpt lat="40.0713749" lon="-105.229789">
  <ele>1583.0</ele>
  <time>2026-09-02T20:50:35Z</time>
  <course>0.0</course>
  <speed>0.0</speed>
  <fix>3d</fix>
</trkpt>
<trkpt lat="40.0713749" lon="-105.229789">
  <ele>1583.0</ele>
  <time>2026-09-02T20:50:35Z</time>
  <course>0.0</course>
  <speed>0.0</speed>
  <fix>3d</fix>
</trkpt>
<trkpt lat="40.0713749" lon="-105.229789">
  <ele>1583.0</ele>
  <time>2026-09-02T20:50:35Z</time>
  <course>0.0</course>
  <speed>0.0</speed>
  <fix>3d</fix>
</trkpt>
<trkpt lat="40.0713749" lon="-105.229789">
  <ele>1583.0</ele>
  <time>2026-09-02T20:50:35Z</time>
  <course>0.0</course>
  <speed>0.0</speed>
  <fix>3d</fix>
</trkpt>
<trkpt lat="40.0713749" lon="-105.229789">
  <ele>1583.0</ele>
  <time>2026-09-02T20:50:35Z</time>
  <course>0.0</course>
  <speed>0.0</speed>
  <fix>3d</fix>
</trkpt>
<trkpt lat="40.0713749" lon="-105.229789">
  <ele>1583.0</ele>
  <time>2026-09-02T20:50:35Z</time>
  <course>0.0</course>
  <speed>0.0</speed>
  <fix>3d</fix>
</trkpt>
<trkpt lat="40.0713749" lon="-105.229789">
  <ele>1583.0</ele>
  <time>2026-09-02T20:50:35Z</time>
  <course>0.0</course>
  <speed>0.0</speed>
  <fix>3d</fix>
</trkpt>
<trkpt lat="40.0713749" lon="-105.229789">
  <ele>1583.0</ele>
  <time>2026-09-02T20:50:35Z</time>
  <course>0.0</course>
  <speed>0.0</speed>
  <fix>3d</fix>
</trkpt>
<trkpt lat="40.0713749" lon="-105.229789">
  <ele>1583.0</ele>
  <time>2026-09-02T20:50:35Z</time>
  <course>0.0</course>
  <speed>0.0</speed>
  <fix>3d</fix>
</trkpt>
<trkpt lat="40.0713749" lon="-105.229789">
  <ele>1583.0</ele>
  <time>2026-09-02T20:50:35Z</time>
  <course>0.0</course>
  <speed>0.0</speed>
  <fix>3d</fix>
</trkpt>
<trkpt lat="40.0713749" lon="-105.229789">
  <ele>1583.0</ele>
  <time>2026-09-02T20:50:35Z</time>
  <course>0.0</course>
  <speed>0.0</speed>
  <fix>3d</fix>
</trkpt>
<trkpt lat="40.0713749" lon="-105.229789">
  <ele>1583.0</ele>
  <time>2026-09-02T20:50:35Z</time>
  <course>0.0</course>
  <speed>0.0</speed>
  <fix>3d</fix>
</trkpt>
<trkpt lat="40.0713749" lon="-105.229789">
  <ele>1583.0</ele>
  <time>2026-09-02T20:50:35Z</time>
  <course>0.0</course>
  <speed>0.0</speed>
  <fix>3d</fix>
</trkpt>
<trkpt lat="40.0713749" lon="-105.229789">
  <ele>1583.0</ele>
  <time>2026-09-02T20:50:35Z</time>
  <course>0.0</course>
  <speed>0.0</speed>
  <fix>3d</fix>
</trkpt>
<trkpt lat="40.0713749" lon="-105.229789">
  <ele>1583.0</ele>
  <time>2026-09-02T20:50:35Z</time>
  <course>0.0</course>
  <speed>0.0</speed>
  <fix>3d</fix>
</trkpt>
<trkpt lat="40.0713749" lon="-105.229789">
  <ele>1583.0</ele>
  <time>2026-09-02T20:50:35Z</time>
  <course>0.0</course>
  <speed>0.0</speed>
  <fix>3d</fix>
</trkpt>
<trkpt lat="40.0713749" lon="-105.229789">
  <ele>1583.0</ele>
  <time>2026-09-02T20:50:35Z</time>
  <course>0.0</course>
  <speed>0.0</speed>
  <fix>3d</fix>
</trkpt>
<trkpt lat="40.0713749" lon="-105.229789">
  <ele>1583.0</ele>
  <time>2026-09-02T20:50:35Z</time>
  <course>0.0</course>
  <speed>0.0</speed>
  <fix>3d</fix>
</trkpt>
<trkpt lat="40.0713749" lon="-105.229789">
  <ele>1583.0</ele>
  <time>2026-09-02T20:50:35Z</time>
  <course>0.0</course>
  <speed>0.0</speed>
  <fix>3d</fix>
</trkpt>
<trkpt lat="40.0713749" lon="-105.229789">
  <ele>1583.0</ele>
  <time>2026-09-02T20:50:35Z</time>
  <course>0.0</course>
  <speed>0.0</speed>
  <fix>3d</fix>
</trkpt>
<trkpt lat="40.0713749" lon="-105.229789">
  <ele>1583.0</ele>
  <time>2026-09-02T20:50:35Z</time>
  <course>0.0</course>
  <speed>0.0</speed>
  <fix>3d</fix>
</trkpt>
<trkpt lat="40.0713749" lon="-105.229789">
  <ele>1583.0</ele>
  <time>2026-09-02T20:50:35Z</time>
  <course>0.0</course>
  <speed>0.0</speed>
  <fix>3d</fix>
</trkpt>
<trkpt lat="40.0713749" lon="-105.229789">
  <ele>1583.0</ele>
  <time>2026-09-02T20:50:35Z</time>
  <course>0.0</course>
  <speed>0.0</speed>
  <fix>3d</fix>
</trkpt>
<trkpt lat="40.0713749" lon="-105.229789">
  <ele>1583.0</ele>
  <time>2026-09-02T20:50:35Z</time>
  <course>0.0</course>
  <speed>0.0</speed>
  <fix>3d</fix>
</trkpt>
<trkpt lat="40.0713749" lon="-105.229789">
  <ele>1583.0</ele>
  <time>2026-09-02T20:50:35Z</time>
  <course>0.0</course>
  <speed>0.0</speed>
  <fix>3d</fix>
</trkpt>
<trkpt lat="40.0713749" lon="-105.229789">
  <ele>1583.0</ele>
  <time>2026-09-02T20:50:35Z</time>
  <course>0.0</course>
  <speed>0.0</speed>
  <fix>3d</fix>
</trkpt>
<trkpt lat="40.0713749" lon="-105.229789">
  <ele>1583.0</ele>
  <time>2026-09-02T20:50:35Z</time>
  <course>0.0</course>
  <speed>0.0</speed>
  <fix>3d</fix>
</trkpt>
<trkpt lat="40.0713749" lon="-105.229789">
  <ele>1583.0</ele>
  <time>2026-09-02T20:50:35Z</time>
  <course>0.0</course>
  <speed>0.0</speed>
  <fix>3d</fix>
</trkpt>
<trkpt lat="40.0713749" lon="-105.229789">
  <ele>1583.0</ele>
  <time>2026-09-02T20:50:35Z</time>
  <course>0.0</course>
  <speed>0.0</speed>
  <fix>3d</fix>
</trkpt>
<trkpt lat="40.0713749" lon="-105.229789">
  <ele>1583.0</ele>
  <time>2026-09-02T20:50:35Z</time>
  <course>0.0</course>
  <speed>0.0</speed>
  <fix>3d</fix>
</trkpt>
<trkpt lat="40.0713749" lon="-105.229789">
  <ele>1583.0</ele>
  <time>2026-09-02T20:50:35Z</time>
  <course>0.0</course>
  <speed>0.0</speed>
  <fix>3d</fix>
</trkpt>
<trkpt lat="40.0713749" lon="-105.229789">
  <ele>1583.0</ele>
  <time>2026-09-02T20:50:35Z</time>
  <course>0.0</course>
  <speed>0.0</speed>
  <fix>3d</fix>
</trkpt>
<trkpt lat="40.0713749" lon="-105.229789">
  <ele>1583.0</ele>
  <time>2026-09-02T20:50:35Z</time>
  <course>0.0</course>
  <speed>0.0</speed>
  <fix>3d</fix>
</trkpt>
<trkpt lat="40.0713749" lon="-105.229789">
  <ele>1583.0</ele>
  <time>2026-09-02T20:50:35Z</time>
  <course>0.0</course>
  <speed>0.0</speed>
  <fix>3d</fix>
</trkpt>
<trkpt lat="40.0713749" lon="-105.229789">
  <ele>1583.0</ele>
  <time>2026-09-02T20:50:35Z</time>
  <course>0.0</course>
  <speed>0.0</speed>
  <fix>3d</fix>
</trkpt>
<trkpt lat="40.0713749" lon="-105.229789">
  <ele>1583.0</ele>
  <time>2026-09-02T20:50:35Z</time>
  <course>0.0</course>
  <speed>0.0</speed>
  <fix>3d</fix>
</trkpt>
<trkpt lat="40.0713749" lon="-105.229789">
  <ele>1583.0</ele>
  <time>2026-09-02T20:50:35Z</time>
  <course>0.0</course>
  <speed>0.0</speed>
  <fix>3d</fix>
</trkpt>
<trkpt lat="40.0713749" lon="-105.229789">
  <ele>1583.0</ele>
  <time>2026-09-02T20:50:35Z</time>
  <course>0.0</course>
  <speed>0.0</speed>
  <fix>3d</fix>
</trkpt>
<trkpt lat="40.0713749" lon="-105.229789">
  <ele>1583.0</ele>
  <time>2026-09-02T20:50:35Z</time>
  <course>0.0</course>
  <speed>0.0</speed>
  <fix>3d</fix>
</trkpt>
<trkpt lat="40.0713749" lon="-105.229789">
  <ele>1583.0</ele>
  <time>2026-09-02T20:50:35Z</time>
  <course>0.0</course>
  <speed>0.0</speed>
  <fix>3d</fix>
</trkpt>
<trkpt lat="40.0713749" lon="-105.229789">
  <ele>1583.0</ele>
  <time>2026-09-02T20:50:35Z</time>
  <course>0.0</course>
  <speed>0.0</speed>
  <fix>3d</fix>
</trkpt>
<trkpt lat="40.0713749" lon="-105.229789">
  <ele>1583.0</ele>
  <time>2026-09-02T20:50:35Z</time>
  <course>0.0</course>
  <speed>0.0</speed>
  <fix>3d</fix>
</trkpt>
<trkpt lat="40.0713749" lon="-105.229789">
  <ele>1583.0</ele>
  <time>2026-09-02T20:50:35Z</time>
  <course>0.0</course>
  <speed>0.0</speed>
  <fix>3d</fix>
</trkpt>
<trkpt lat="40.0713749" lon="-105.229789">
  <ele>1583.0</ele>
  <time>2026-09-02T20:50:35Z</time>
  <course>0.0</course>
  <speed>0.0</speed>
  <fix>3d</fix>
</trkpt>
<trkpt lat="40.0713749" lon="-105.229789">
  <ele>1583.0</ele>
  <time>2026-09-02T20:50:35Z</time>
  <course>0.0</course>
  <speed>0.0</speed>
  <fix>3d</fix>
</trkpt>
<trkpt lat="40.0713749" lon="-105.229789">
  <ele>1583.0</ele>
  <time>2026-09-02T20:50:35Z</time>
  <course>0.0</course>
  <speed>0.0</speed>
  <fix>3d</fix>
</trkpt>
<trkpt lat="40.0713749" lon="-105.229789">
  <ele>1583.0</ele>
  <time>2026-09-02T20:50:35Z</time>
  <course>0.0</course>
  <speed>0.0</speed>
  <fix>3d</fix>
</trkpt>
<trkpt lat="40.0713749" lon="-105.229789">
  <ele>1583.0</ele>
  <time>2026-09-02T20:50:35Z</time>
  <course>0.0</course>
  <speed>0.0</speed>
  <fix>3d</fix>
</trkpt>
<trkpt lat="40.0713749" lon="-105.229789">
  <ele>1583.0</ele>
  <time>2026-09-02T20:50:35Z</time>
  <course>0.0</course>
  <speed>0.0</speed>
  <fix>3d</fix>
</trkpt>
<trkpt lat="40.0713749" lon="-105.229789">
  <ele>1583.0</ele>
  <time>2026-09-02T20:50:35Z</time>
  <course>0.0</course>
  <speed>0.0</speed>
  <fix>3d</fix>
</trkpt>
<trkpt lat="40.0713749" lon="-105.229789">
  <ele>1583.0</ele>
  <time>2026-09-02T20:50:35Z</time>
  <course>0.0</course>
  <speed>0.0</speed>
  <fix>3d</fix>
</trkpt>
<trkpt lat="40.0713749" lon="-105.229789">
  <ele>1583.0</ele>
  <time>2026-09-02T20:50:35Z</time>
  <course>0.0</course>
  <speed>0.0</speed>
  <fix>3d</fix>
</trkpt>
<trkpt lat="40.0713749" lon="-105.229789">
  <ele>1583.0</ele>
  <time>2026-09-02T20:50:35Z</time>
  <course>0.0</course>
  <speed>0.0</speed>
  <fix>3d</fix>
</trkpt>
<trkpt lat="40.0713749" lon="-105.229789">
  <ele>1583.0</ele>
  <time>2026-09-02T20:50:35Z</time>
  <course>0.0</course>
  <speed>0.0</speed>
  <fix>3d</fix>
</trkpt>
<trkpt lat="40.0713749" lon="-105.229789">
  <ele>1583.0</ele>
  <time>2026-09-02T20:50:35Z</time>
  <course>0.0</course>
  <speed>0.0</speed>
  <fix>3d</fix>
</trkpt>
<trkpt lat="40.0713749" lon="-105.229789">
  <ele>1583.0</ele>
  <time>2026-09-02T20:50:35Z</time>
  <course>0.0</course>
  <speed>0.0</speed>
  <fix>3d</fix>
</trkpt>
<trkpt lat="40.0713749" lon="-105.229789">
  <ele>1583.0</ele>
  <time>2026-09-02T20:50:35Z</time>
  <course>0.0</course>
  <speed>0.0</speed>
  <fix>3d</fix>
</trkpt>
<trkpt lat="40.0713749" lon="-105.229789">
  <ele>1583.0</ele>
  <time>2026-09-02T20:50:35Z</time>
  <course>0.0</course>
  <speed>0.0</speed>
  <fix>3d</fix>
</trkpt>
<trkpt lat="40.0713749" lon="-105.229789">
  <ele>1583.0</ele>
  <time>2026-09-02T20:50:35Z</time>
  <course>0.0</course>
  <speed>0.0</speed>
  <fix>3d</fix>
</trkpt>
<trkpt lat="40.0713749" lon="-105.229789">
  <ele>1583.0</ele>
  <time>2026-09-02T20:50:35Z</time>
  <course>0.0</course>
  <speed>0.0</speed>
  <fix>3d</fix>
</trkpt>
<trkpt lat="40.0713749" lon="-105.229789">
  <ele>1583.0</ele>
  <time>2026-09-02T20:50:35Z</time>
  <course>0.0</course>
  <speed>0.0</speed>
  <fix>3d</fix>
</trkpt>
<trkpt lat="40.0713749" lon="-105.229789">
  <ele>1583.0</ele>
  <time>2026-09-02T20:50:35Z</time>
  <course>0.0</course>
  <speed>0.0</speed>
  <fix>3d</fix>
</trkpt>
<trkpt lat="40.0713749" lon="-105.229789">
  <ele>1583.0</ele>
  <time>2026-09-02T20:50:35Z</time>
  <course>0.0</course>
  <speed>0.0</speed>
  <fix>3d</fix>
</trkpt>
<trkpt lat="40.0713749" lon="-105.229789">
  <ele>1583.0</ele>
  <time>2026-09-02T20:50:35Z</time>
  <course>0.0</course>
  <speed>0.0</speed>
  <fix>3d</fix>
</trkpt>
<trkpt lat="40.0713749" lon="-105.229789">
  <ele>1583.0</ele>
  <time>2026-09-02T20:50:35Z</time>
  <course>0.0</course>
  <speed>0.0</speed>
  <fix>3d</fix>
</trkpt>
<trkpt lat="40.0713749" lon="-105.229789">
  <ele>1583.0</ele>
  <time>2026-09-02T20:50:35Z</time>
  <course>0.0</course>
  <speed>0.0</speed>
  <fix>3d</fix>
</trkpt>
<trkpt lat="40.0713749" lon="-105.229789">
  <ele>1583.0</ele>
  <time>2026-09-02T20:50:35Z</time>
  <course>0.0</course>
  <speed>0.0</speed>
  <fix>3d</fix>
</trkpt>
<trkpt lat="40.0713749" lon="-105.229789">
  <ele>1583.0</ele>
  <time>2026-09-02T20:50:35Z</time>
  <course>0.0</course>
  <speed>0.0</speed>
  <fix>3d</fix>
</trkpt>
<trkpt lat="40.0713749" lon="-105.229789">
  <ele>1583.0</ele>
  <time>2026-09-02T20:50:35Z</time>
  <course>0.0</course>
  <speed>0.0</speed>
  <fix>3d</fix>
</trkpt>
<trkpt lat="40.0713749" lon="-105.229789">
  <ele>1583.0</ele>
  <time>2026-09-02T20:50:35Z</time>
  <course>0.0</course>
  <speed>0.0</speed>
  <fix>3d</fix>
</trkpt>
<trkpt lat="40.0713749" lon="-105.229789">
  <ele>1583.0</ele>
  <time>2026-09-02T20:50:35Z</time>
  <course>0.0</course>
  <speed>0.0</speed>
  <fix>3d</fix>
</trkpt>
<trkpt lat="40.0713749" lon="-105.229789">
  <ele>1583.0</ele>
  <time>2026-09-02T20:50:35Z</time>
  <course>0.0</course>
  <speed>0.0</speed>
  <fix>3d</fix>
</trkpt>
<trkpt lat="40.0713749" lon="-105.229789">
  <ele>1583.0</ele>
  <time>2026-09-02T20:50:35Z</time>
  <course>0.0</course>
  <speed>0.0</speed>
  <fix>3d</fix>
</trkpt>
<trkpt lat="40.0713749" lon="-105.229789">
  <ele>1583.0</ele>
  <time>2026-09-02T20:50:35Z</time>
  <course>0.0</course>
  <speed>0.0</speed>
  <fix>3d</fix>
</trkpt>
<trkpt lat="40.0713749" lon="-105.229789">
  <ele>1583.0</ele>
  <time>2026-09-02T20:50:35Z</time>
  <course>0.0</course>
  <speed>0.0</speed>
  <fix>3d</fix>
</trkpt>
<trkpt lat="40.0713749" lon="-105.229789">
  <ele>1583.0</ele>
  <time>2026-09-02T20:50:35Z</time>
  <course>0.0</course>
  <speed>0.0</speed>
  <fix>3d</fix>
</trkpt>
<trkpt lat="40.0713749" lon="-105.229789">
  <ele>1583.0</ele>
  <time>2026-09-02T20:50:35Z</time>
  <course>0.0</course>
  <speed>0.0</speed>
  <fix>3d</fix>
</trkpt>
<trkpt lat="40.0713749" lon="-105.229789">
  <ele>1583.0</ele>
  <time>2026-09-02T20:50:35Z</time>
  <course>0.0</course>
  <speed>0.0</speed>
  <fix>3d</fix>
</trkpt>
<trkpt lat="40.0713749" lon="-105.229789">
  <ele>1583.0</ele>
  <time>2026-09-02T20:50:35Z</time>
  <course>0.0</course>
  <speed>0.0</speed>
  <fix>3d</fix>
</trkpt>
<trkpt lat="40.0713749" lon="-105.229789">
  <ele>1583.0</ele>
  <time>2026-09-02T20:50:35Z</time>
  <course>0.0</course>
  <speed>0.0</speed>
  <fix>3d</fix>
</trkpt>
<trkpt lat="40.0713749" lon="-105.229789">
  <ele>1583.0</ele>
  <time>2026-09-02T20:50:35Z</time>
  <course>0.0</course>
  <speed>0.0</speed>
  <fix>3d</fix>
</trkpt>
<trkpt lat="40.0713749" lon="-105.229789">
  <ele>1583.0</ele>
  <time>2026-09-02T20:50:35Z</time>
  <course>0.0</course>
  <speed>0.0</speed>
  <fix>3d</fix>
</trkpt>
<trkpt lat="40.0713749" lon="-105.229789">
  <ele>1583.0</ele>
  <time>2026-09-02T20:50:35Z</time>
  <course>0.0</course>
  <speed>0.0</speed>
  <fix>3d</fix>
</trkpt>
<trkpt lat="40.0713749" lon="-105.229789">
  <ele>1583.0</ele>
  <time>2026-09-02T20:50:35Z</time>
  <course>0.0</course>
  <speed>0.0</speed>
  <fix>3d</fix>
</trkpt>
<trkpt lat="40.0713749" lon="-105.229789">
  <ele>1583.0</ele>
  <time>2026-09-02T20:50:35Z</time>
  <course>0.0</course>
  <speed>0.0</speed>
  <fix>3d</fix>
</trkpt>
<trkpt lat="40.0713749" lon="-105.229789">
  <ele>1583.0</ele>
  <time>2026-09-02T20:50:35Z</time>
  <course>0.0</course>
  <speed>0.0</speed>
  <fix>3d</fix>
</trkpt>
<trkpt lat="40.0713749" lon="-105.229789">
  <ele>1583.0</ele>
  <time>2026-09-02T20:50:35Z</time>
  <course>0.0</course>
  <speed>0.0</speed>
  <fix>3d</fix>
</trkpt>
<trkpt lat="40.0713749" lon="-105.229789">
  <ele>1583.0</ele>
  <time>2026-09-02T20:50:35Z</time>
  <course>0.0</course>
  <speed>0.0</speed>
  <fix>3d</fix>
</trkpt>
<trkpt lat="40.0713749" lon="-105.229789">
  <ele>1583.0</ele>
  <time>2026-09-02T20:50:35Z</time>
  <course>0.0</course>
  <speed>0.0</speed>
  <fix>3d</fix>
</trkpt>
<trkpt lat="40.0713749" lon="-105.229789">
  <ele>1583.0</ele>
  <time>2026-09-02T20:50:35Z</time>
  <course>0.0</course>
  <speed>0.0</speed>
  <fix>3d</fix>
</trkpt>
<trkpt lat="40.0713749" lon="-105.229789">
  <ele>1583.0</ele>
  <time>2026-09-02T20:50:35Z</time>
  <course>0.0</course>
  <speed>0.0</speed>
  <fix>3d</fix>
</trkpt>
<trkpt lat="40.0713749" lon="-105.229789">
  <ele>1583.0</ele>
  <time>2026-09-02T20:50:35Z</time>
  <course>0.0</course>
  <speed>0.0</speed>
  <fix>3d</fix>
</trkpt>
<trkpt lat="40.0713749" lon="-105.229789">
  <ele>1583.0</ele>
  <time>2026-09-02T20:50:35Z</time>
  <course>0.0</course>
  <speed>0.0</speed>
  <fix>3d</fix>
</trkpt>
<trkpt lat="40.0713749" lon="-105.229789">
  <ele>1583.0</ele>
  <time>2026-09-02T20:50:35Z</time>
  <course>0.0</course>
  <speed>0.0</speed>
  <fix>3d</fix>
</trkpt>
<trkpt lat="40.0713749" lon="-105.229789">
  <ele>1583.0</ele>
  <time>2026-09-02T20:50:35Z</time>
  <course>0.0</course>
  <speed>0.0</speed>
  <fix>3d</fix>
</trkpt>
<trkpt lat="40.0713749" lon="-105.229789">
  <ele>1583.0</ele>
  <time>2026-09-02T20:50:35Z</time>
  <course>0.0</course>
  <speed>0.0</speed>
  <fix>3d</fix>
</trkpt>
<trkpt lat="40.0713749" lon="-105.229789">
  <ele>1583.0</ele>
  <time>2026-09-02T20:50:35Z</time>
  <course>0.0</course>
  <speed>0.0</speed>
  <fix>3d</fix>
</trkpt>
<trkpt lat="40.0713749" lon="-105.229789">
  <ele>1583.0</ele>
  <time>2026-09-02T20:50:35Z</time>
  <course>0.0</course>
  <speed>0.0</speed>
  <fix>3d</fix>
</trkpt>
<trkpt lat="40.0713749" lon="-105.229789">
  <ele>1583.0</ele>
  <time>2026-09-02T20:50:35Z</time>
  <course>0.0</course>
  <speed>0.0</speed>
  <fix>3d</fix>
</trkpt>
<trkpt lat="40.0713749" lon="-105.229789">
  <ele>1583.0</ele>
  <time>2026-09-02T20:50:35Z</time>
  <course>0.0</course>
  <speed>0.0</speed>
  <fix>3d</fix>
</trkpt>
<trkpt lat="40.0713749" lon="-105.229789">
  <ele>1583.0</ele>
  <time>2026-09-02T20:50:35Z</time>
  <course>0.0</course>
  <speed>0.0</speed>
  <fix>3d</fix>
</trkpt>
<trkpt lat="40.0713749" lon="-105.229789">
  <ele>1583.0</ele>
  <time>2026-09-02T20:50:35Z</time>
  <course>0.0</course>
  <speed>0.0</speed>
  <fix>3d</fix>
</trkpt>
<trkpt lat="40.0713749" lon="-105.229789">
  <ele>1583.0</ele>
  <time>2026-09-02T20:50:35Z</time>
  <course>0.0</course>
  <speed>0.0</speed>
  <fix>3d</fix>
</trkpt>
<trkpt lat="40.0713749" lon="-105.229789">
  <ele>1583.0</ele>
  <time>2026-09-02T20:50:35Z</time>
  <course>0.0</course>
  <speed>0.0</speed>
  <fix>3d</fix>
</trkpt>
<trkpt lat="40.0713749" lon="-105.229789">
  <ele>1583.0</ele>
  <time>2026-09-02T20:50:35Z</time>
  <course>0.0</course>
  <speed>0.0</speed>
  <fix>3d</fix>
</trkpt>
<trkpt lat="40.0713749" lon="-105.229789">
  <ele>1583.0</ele>
  <time>2026-09-02T20:50:35Z</time>
  <course>0.0</course>
  <speed>0.0</speed>
  <fix>3d</fix>
</trkpt>
<trkpt lat="40.0713749" lon="-105.229789">
  <ele>1583.0</ele>
  <time>2026-09-02T20:50:35Z</time>
  <course>0.0</course>
  <speed>0.0</speed>
  <fix>3d</fix>
</trkpt>
<trkpt lat="40.0713749" lon="-105.229789">
  <ele>1583.0</ele>
  <time>2026-09-02T20:50:35Z</time>
  <course>0.0</course>
  <speed>0.0</speed>
  <fix>3d</fix>
</trkpt>
<trkpt lat="40.0713749" lon="-105.229789">
  <ele>1583.0</ele>
  <time>2026-09-02T20:50:35Z</time>
  <course>0.0</course>
  <speed>0.0</speed>
  <fix>3d</fix>
</trkpt>
<trkpt lat="40.0713749" lon="-105.229789">
  <ele>1583.0</ele>
  <time>2026-09-02T20:50:35Z</time>
  <course>0.0</course>
  <speed>0.0</speed>
  <fix>3d</fix>
</trkpt>
<trkpt lat="40.0713749" lon="-105.229789">
  <ele>1583.0</ele>
  <time>2026-09-02T20:50:35Z</time>
  <course>0.0</course>
  <speed>0.0</speed>
  <fix>3d</fix>
</trkpt>
<trkpt lat="40.0713749" lon="-105.229789">
  <ele>1583.0</ele>
  <time>2026-09-02T20:50:35Z</time>
  <course>0.0</course>
  <speed>0.0</speed>
  <fix>3d</fix>
</trkpt>
<trkpt lat="40.0713749" lon="-105.229789">
  <ele>1583.0</ele>
  <time>2026-09-02T20:50:35Z</time>
  <course>0.0</course>
  <speed>0.0</speed>
  <fix>3d</fix>
</trkpt>
<trkpt lat="40.0713749" lon="-105.229789">
  <ele>1583.0</ele>
  <time>2026-09-02T20:50:35Z</time>
  <course>0.0</course>
  <speed>0.0</speed>
  <fix>3d</fix>
</trkpt>
<trkpt lat="40.0713749" lon="-105.229789">
  <ele>1583.0</ele>
  <time>2026-09-02T20:50:35Z</time>
  <course>0.0</course>
  <speed>0.0</speed>
  <fix>3d</fix>
</trkpt>
<trkpt lat="40.0713749" lon="-105.229789">
  <ele>1583.0</ele>
  <time>2026-09-02T20:50:35Z</time>
  <course>0.0</course>
  <speed>0.0</speed>
  <fix>3d</fix>
</trkpt>
<trkpt lat="40.0713749" lon="-105.229789">
  <ele>1583.0</ele>
  <time>2026-09-02T20:50:35Z</time>
  <course>0.0</course>
  <speed>0.0</speed>
  <fix>3d</fix>
</trkpt>
<trkpt lat="40.0713749" lon="-105.229789">
  <ele>1583.0</ele>
  <time>2026-09-02T20:50:35Z</time>
  <course>0.0</course>
  <speed>0.0</speed>
  <fix>3d</fix>
</trkpt>
<trkpt lat="40.0713749" lon="-105.229789">
  <ele>1583.0</ele>
  <time>2026-09-02T20:50:35Z</time>
  <course>0.0</course>
  <speed>0.0</speed>
  <fix>3d</fix>
</trkpt>
<trkpt lat="40.0713749" lon="-105.229789">
  <ele>1583.0</ele>
  <time>2026-09-02T20:50:35Z</time>
  <course>0.0</course>
  <speed>0.0</speed>
  <fix>3d</fix>
</trkpt>
<trkpt lat="40.0713749" lon="-105.229789">
  <ele>1583.0</ele>
  <time>2026-09-02T20:50:35Z</time>
  <course>0.0</course>
  <speed>0.0</speed>
  <fix>3d</fix>
</trkpt>
<trkpt lat="40.0713749" lon="-105.229789">
  <ele>1583.0</ele>
  <time>2026-09-02T20:50:35Z</time>
  <course>0.0</course>
  <speed>0.0</speed>
  <fix>3d</fix>
</trkpt>
<trkpt lat="40.0713749" lon="-105.229789">
  <ele>1583.0</ele>
  <time>2026-09-02T20:50:35Z</time>
  <course>0.0</course>
  <speed>0.0</speed>
  <fix>3d</fix>
</trkpt>
<trkpt lat="40.0713749" lon="-105.229789">
  <ele>1583.0</ele>
  <time>2026-09-02T20:50:35Z</time>
  <course>0.0</course>
  <speed>0.0</speed>
  <fix>3d</fix>
</trkpt>
<trkpt lat="40.0713749" lon="-105.229789">
  <ele>1583.0</ele>
  <time>2026-09-02T20:50:35Z</time>
  <course>0.0</course>
  <speed>0.0</speed>
  <fix>3d</fix>
</trkpt>
<trkpt lat="40.0713749" lon="-105.229789">
  <ele>1583.0</ele>
  <time>2026-09-02T20:50:35Z</time>
  <course>0.0</course>
  <speed>0.0</speed>
  <fix>3d</fix>
</trkpt>
<trkpt lat="40.0713749" lon="-105.229789">
  <ele>1583.0</ele>
  <time>2026-09-02T20:50:35Z</time>
  <course>0.0</course>
  <speed>0.0</speed>
  <fix>3d</fix>
</trkpt>
<trkpt lat="40.0713749" lon="-105.229789">
  <ele>1583.0</ele>
  <time>2026-09-02T20:50:35Z</time>
  <course>0.0</course>
  <speed>0.0</speed>
  <fix>3d</fix>
</trkpt>
<trkpt lat="40.0713749" lon="-105.229789">
  <ele>1583.0</ele>
  <time>2026-09-02T20:50:35Z</time>
  <course>0.0</course>
  <speed>0.0</speed>
  <fix>3d</fix>
</trkpt>
<trkpt lat="40.0713749" lon="-105.229789">
  <ele>1583.0</ele>
  <time>2026-09-02T20:50:35Z</time>
  <course>0.0</course>
  <speed>0.0</speed>
  <fix>3d</fix>
</trkpt>
<trkpt lat="40.0713749" lon="-105.229789">
  <ele>1583.0</ele>
  <time>2026-09-02T20:50:35Z</time>
  <course>0.0</course>
  <speed>0.0</speed>
  <fix>3d</fix>
</trkpt>
<trkpt lat="40.0713749" lon="-105.229789">
  <ele>1583.0</ele>
  <time>2026-09-02T20:50:35Z</time>
  <course>0.0</course>
  <speed>0.0</speed>
  <fix>3d</fix>
</trkpt>
<trkpt lat="40.0713749" lon="-105.229789">
  <ele>1583.0</ele>
  <time>2026-09-02T20:50:35Z</time>
  <course>0.0</course>
  <speed>0.0</speed>
  <fix>3d</fix>
</trkpt>
<trkpt lat="40.0713749" lon="-105.229789">
  <ele>1583.0</ele>
  <time>2026-09-02T20:50:35Z</time>
  <course>0.0</course>
  <speed>0.0</speed>
  <fix>3d</fix>
</trkpt>
<trkpt lat="40.0713749" lon="-105.229789">
  <ele>1583.0</ele>
  <time>2026-09-02T20:50:35Z</time>
  <course>0.0</course>
  <speed>0.0</speed>
  <fix>3d</fix>
</trkpt>
<trkpt lat="40.0713749" lon="-105.229789">
  <ele>1583.0</ele>
  <time>2026-09-02T20:50:35Z</time>
  <course>0.0</course>
  <speed>0.0</speed>
  <fix>3d</fix>
</trkpt>
<trkpt lat="40.0713749" lon="-105.229789">
  <ele>1583.0</ele>
  <time>2026-09-02T20:50:35Z</time>
  <course>0.0</course>
  <speed>0.0</speed>
  <fix>3d</fix>
</trkpt>
<trkpt lat="40.0713749" lon="-105.229789">
  <ele>1583.0</ele>
  <time>2026-09-02T20:50:35Z</time>
  <course>0.0</course>
  <speed>0.0</speed>
  <fix>3d</fix>
</trkpt>
<trkpt lat="40.0713749" lon="-105.229789">
  <ele>1583.0</ele>
  <time>2026-09-02T20:50:35Z</time>
  <course>0.0</course>
  <speed>0.0</speed>
  <fix>3d</fix>
</trkpt>
<trkpt lat="40.0713749" lon="-105.229789">
  <ele>1583.0</ele>
  <time>2026-09-02T20:50:35Z</time>
  <course>0.0</course>
  <speed>0.0</speed>
  <fix>3d</fix>
</trkpt>
<trkpt lat="40.0713749" lon="-105.229789">
  <ele>1583.0</ele>
  <time>2026-09-02T20:50:35Z</time>
  <course>0.0</course>
  <speed>0.0</speed>
  <fix>3d</fix>
</trkpt>
<trkpt lat="40.0713749" lon="-105.229789">
  <ele>1583.0</ele>
  <time>2026-09-02T20:50:35Z</time>
  <course>0.0</course>
  <speed>0.0</speed>
  <fix>3d</fix>
</trkpt>
<trkpt lat="40.0713749" lon="-105.229789">
  <ele>1583.0</ele>
  <time>2026-09-02T20:50:35Z</time>
  <course>0.0</course>
  <speed>0.0</speed>
  <fix>3d</fix>
</trkpt>
<trkpt lat="40.0713749" lon="-105.229789">
  <ele>1583.0</ele>
  <time>2026-09-02T20:50:35Z</time>
  <course>0.0</course>
  <speed>0.0</speed>
  <fix>3d</fix>
</trkpt>
<trkpt lat="40.0713749" lon="-105.229789">
  <ele>1583.0</ele>
  <time>2026-09-02T20:50:35Z</time>
  <course>0.0</course>
  <speed>0.0</speed>
  <fix>3d</fix>
</trkpt>
<trkpt lat="40.0713749" lon="-105.229789">
  <ele>1583.0</ele>
  <time>2026-09-02T20:50:35Z</time>
  <course>0.0</course>
  <speed>0.0</speed>
  <fix>3d</fix>
</trkpt>
<trkpt lat="40.0713749" lon="-105.229789">
  <ele>1583.0</ele>
  <time>2026-09-02T20:50:35Z</time>
  <course>0.0</course>
  <speed>0.0</speed>
  <fix>3d</fix>
</trkpt>
<trkpt lat="40.0713749" lon="-105.229789">
  <ele>1583.0</ele>
  <time>2026-09-02T20:50:35Z</time>
  <course>0.0</course>
  <speed>0.0</speed>
  <fix>3d</fix>
</trkpt>
<trkpt lat="40.0713749" lon="-105.229789">
  <ele>1583.0</ele>
  <time>2026-09-02T20:50:35Z</time>
  <course>0.0</course>
  <speed>0.0</speed>
  <fix>3d</fix>
</trkpt>
<trkpt lat="40.0713749" lon="-105.229789">
  <ele>1583.0</ele>
  <time>2026-09-02T20:50:35Z</time>
  <course>0.0</course>
  <speed>0.0</speed>
  <fix>3d</fix>
</trkpt>
<trkpt lat="40.0713749" lon="-105.229789">
  <ele>1583.0</ele>
  <time>2026-09-02T20:50:35Z</time>
  <course>0.0</course>
  <speed>0.0</speed>
  <fix>3d</fix>
</trkpt>
<trkpt lat="40.0713749" lon="-105.229789">
  <ele>1583.0</ele>
  <time>2026-09-02T20:50:35Z</time>
  <course>0.0</course>
  <speed>0.0</speed>
  <fix>3d</fix>
</trkpt>
<trkpt lat="40.0713749" lon="-105.229789">
  <ele>1583.0</ele>
  <time>2026-09-02T20:50:35Z</time>
  <course>0.0</course>
  <speed>0.0</speed>
  <fix>3d</fix>
</trkpt>
<trkpt lat="40.0713749" lon="-105.229789">
  <ele>1583.0</ele>
  <time>2026-09-02T20:50:35Z</time>
  <course>0.0</course>
  <speed>0.0</speed>
  <fix>3d</fix>
</trkpt>
<trkpt lat="40.0713749" lon="-105.229789">
  <ele>1583.0</ele>
  <time>2026-09-02T20:50:35Z</time>
  <course>0.0</course>
  <speed>0.0</speed>
  <fix>3d</fix>
</trkpt>
<trkpt lat="40.0713749" lon="-105.229789">
  <ele>1583.0</ele>
  <time>2026-09-02T20:50:35Z</time>
  <course>0.0</course>
  <speed>0.0</speed>
  <fix>3d</fix>
</trkpt>
<trkpt lat="40.0713749" lon="-105.229789">
  <ele>1583.0</ele>
  <time>2026-09-02T20:50:35Z</time>
  <course>0.0</course>
  <speed>0.0</speed>
  <fix>3d</fix>
</trkpt>
<trkpt lat="40.0713749" lon="-105.229789">
  <ele>1583.0</ele>
  <time>2026-09-02T20:50:35Z</time>
  <course>0.0</course>
  <speed>0.0</speed>
  <fix>3d</fix>
</trkpt>
<trkpt lat="40.0713749" lon="-105.229789">
  <ele>1583.0</ele>
  <time>2026-09-02T20:50:35Z</time>
  <course>0.0</course>
  <speed>0.0</speed>
  <fix>3d</fix>
</trkpt>
<trkpt lat="40.0713749" lon="-105.229789">
  <ele>1583.0</ele>
  <time>2026-09-02T20:50:35Z</time>
  <course>0.0</course>
  <speed>0.0</speed>
  <fix>3d</fix>
</trkpt>
<trkpt lat="40.0713749" lon="-105.229789">
  <ele>1583.0</ele>
  <time>2026-09-02T20:50:35Z</time>
  <course>0.0</course>
  <speed>0.0</speed>
  <fix>3d</fix>
</trkpt>
<trkpt lat="40.0713749" lon="-105.229789">
  <ele>1583.0</ele>
  <time>2026-09-02T20:50:35Z</time>
  <course>0.0</course>
  <speed>0.0</speed>
  <fix>3d</fix>
</trkpt>
<trkpt lat="40.0713749" lon="-105.229789">
  <ele>1583.0</ele>
  <time>2026-09-02T20:50:35Z</time>
  <course>0.0</course>
  <speed>0.0</speed>
  <fix>3d</fix>
</trkpt>
<trkpt lat="40.0713749" lon="-105.229789">
  <ele>1583.0</ele>
  <time>2026-09-02T20:50:35Z</time>
  <course>0.0</course>
  <speed>0.0</speed>
  <fix>3d</fix>
</trkpt>
<trkpt lat="40.0713749" lon="-105.229789">
  <ele>1583.0</ele>
  <time>2026-09-02T20:50:35Z</time>
  <course>0.0</course>
  <speed>0.0</speed>
  <fix>3d</fix>
</trkpt>
<trkpt lat="40.0713749" lon="-105.229789">
  <ele>1583.0</ele>
  <time>2026-09-02T20:50:35Z</time>
  <course>0.0</course>
  <speed>0.0</speed>
  <fix>3d</fix>
</trkpt>
<trkpt lat="40.0713749" lon="-105.229789">
  <ele>1583.0</ele>
  <time>2026-09-02T20:50:35Z</time>
  <course>0.0</course>
  <speed>0.0</speed>
  <fix>3d</fix>
</trkpt>
<trkpt lat="40.0713749" lon="-105.229789">
  <ele>1583.0</ele>
  <time>2026-09-02T20:50:35Z</time>
  <course>0.0</course>
  <speed>0.0</speed>
  <fix>3d</fix>
</trkpt>
<trkpt lat="40.0713749" lon="-105.229789">
  <ele>1583.0</ele>
  <time>2026-09-02T20:50:35Z</time>
  <course>0.0</course>
  <speed>0.0</speed>
  <fix>3d</fix>
</trkpt>
<trkpt lat="40.0713749" lon="-105.229789">
  <ele>1583.0</ele>
  <time>2026-09-02T20:50:35Z</time>
  <course>0.0</course>
  <speed>0.0</speed>
  <fix>3d</fix>
</trkpt>
<trkpt lat="40.0713749" lon="-105.229789">
  <ele>1583.0</ele>
  <time>2026-09-02T20:50:35Z</time>
  <course>0.0</course>
  <speed>0.0</speed>
  <fix>3d</fix>
</trkpt>
<trkpt lat="40.0713749" lon="-105.229789">
  <ele>1583.0</ele>
  <time>2026-09-02T20:50:35Z</time>
  <course>0.0</course>
  <speed>0.0</speed>
  <fix>3d</fix>
</trkpt>
<trkpt lat="40.0713749" lon="-105.229789">
  <ele>1583.0</ele>
  <time>2026-09-02T20:50:35Z</time>
  <course>0.0</course>
  <speed>0.0</speed>
  <fix>3d</fix>
</trkpt>
<trkpt lat="40.0713749" lon="-105.229789">
  <ele>1583.0</ele>
  <time>2026-09-02T20:50:35Z</time>
  <course>0.0</course>
  <speed>0.0</speed>
  <fix>3d</fix>
</trkpt>
<trkpt lat="40.0713749" lon="-105.229789">
  <ele>1583.0</ele>
  <time>2026-09-02T20:50:35Z</time>
  <course>0.0</course>
  <speed>0.0</speed>
  <fix>3d</fix>
</trkpt>
<trkpt lat="40.0713749" lon="-105.229789">
  <ele>1583.0</ele>
  <time>2026-09-02T20:50:35Z</time>
  <course>0.0</course>
  <speed>0.0</speed>
  <fix>3d</fix>
</trkpt>
<trkpt lat="40.0713749" lon="-105.229789">
  <ele>1583.0</ele>
  <time>2026-09-02T20:50:35Z</time>
  <course>0.0</course>
  <speed>0.0</speed>
  <fix>3d</fix>
</trkpt>
<trkpt lat="40.0713749" lon="-105.229789">
  <ele>1583.0</ele>
  <time>2026-09-02T20:50:35Z</time>
  <course>0.0</course>
  <speed>0.0</speed>
  <fix>3d</fix>
</trkpt>
<trkpt lat="40.0713749" lon="-105.229789">
  <ele>1583.0</ele>
  <time>2026-09-02T20:50:35Z</time>
  <course>0.0</course>
  <speed>0.0</speed>
  <fix>3d</fix>
</trkpt>
<trkpt lat="40.0713749" lon="-105.229789">
  <ele>1583.0</ele>
  <time>2026-09-02T20:50:35Z</time>
  <course>0.0</course>
  <speed>0.0</speed>
  <fix>3d</fix>
</trkpt>
<trkpt lat="40.0713749" lon="-105.229789">
  <ele>1583.0</ele>
  <time>2026-09-02T20:50:35Z</time>
  <course>0.0</course>
  <speed>0.0</speed>
  <fix>3d</fix>
</trkpt>
<trkpt lat="40.0713749" lon="-105.229789">
  <ele>1583.0</ele>
  <time>2026-09-02T20:50:35Z</time>
  <course>0.0</course>
  <speed>0.0</speed>
  <fix>3d</fix>
</trkpt>
<trkpt lat="40.0713749" lon="-105.229789">
  <ele>1583.0</ele>
  <time>2026-09-02T20:50:35Z</time>
  <course>0.0</course>
  <speed>0.0</speed>
  <fix>3d</fix>
</trkpt>
<trkpt lat="40.0713749" lon="-105.229789">
  <ele>1583.0</ele>
  <time>2026-09-02T20:50:35Z</time>
  <course>0.0</course>
  <speed>0.0</speed>
  <fix>3d</fix>
</trkpt>
<trkpt lat="40.0713749" lon="-105.229789">
  <ele>1583.0</ele>
  <time>2026-09-02T20:50:35Z</time>
  <course>0.0</course>
  <speed>0.0</speed>
  <fix>3d</fix>
</trkpt>
<trkpt lat="40.0713749" lon="-105.229789">
  <ele>1583.0</ele>
  <time>2026-09-02T20:50:35Z</time>
  <course>0.0</course>
  <speed>0.0</speed>
  <fix>3d</fix>
</trkpt>
<trkpt lat="40.0713749" lon="-105.229789">
  <ele>1583.0</ele>
  <time>2026-09-02T20:50:35Z</time>
  <course>0.0</course>
  <speed>0.0</speed>
  <fix>3d</fix>
</trkpt>
<trkpt lat="40.0713749" lon="-105.229789">
  <ele>1583.0</ele>
  <time>2026-09-02T20:50:35Z</time>
  <course>0.0</course>
  <speed>0.0</speed>
  <fix>3d</fix>
</trkpt>
<trkpt lat="40.0713749" lon="-105.229789">
  <ele>1583.0</ele>
  <time>2026-09-02T20:50:35Z</time>
  <course>0.0</course>
  <speed>0.0</speed>
  <fix>3d</fix>
</trkpt>
<trkpt lat="40.0713749" lon="-105.229789">
  <ele>1583.0</ele>
  <time>2026-09-02T20:50:35Z</time>
  <course>0.0</course>
  <speed>0.0</speed>
  <fix>3d</fix>
</trkpt>
<trkpt lat="40.0713749" lon="-105.229789">
  <ele>1583.0</ele>
  <time>2026-09-02T20:50:35Z</time>
  <course>0.0</course>
  <speed>0.0</speed>
  <fix>3d</fix>
</trkpt>
<trkpt lat="40.0713749" lon="-105.229789">
  <ele>1583.0</ele>
  <time>2026-09-02T20:50:35Z</time>
  <course>0.0</course>
  <speed>0.0</speed>
  <fix>3d</fix>
</trkpt>
<trkpt lat="40.0713749" lon="-105.229789">
  <ele>1583.0</ele>
  <time>2026-09-02T20:50:35Z</time>
  <course>0.0</course>
  <speed>0.0</speed>
  <fix>3d</fix>
</trkpt>
<trkpt lat="40.0713749" lon="-105.229789">
  <ele>1583.0</ele>
  <time>2026-09-02T20:50:35Z</time>
  <course>0.0</course>
  <speed>0.0</speed>
  <fix>3d</fix>
</trkpt>
<trkpt lat="40.0713749" lon="-105.229789">
  <ele>1583.0</ele>
  <time>2026-09-02T20:50:35Z</time>
  <course>0.0</course>
  <speed>0.0</speed>
  <fix>3d</fix>
</trkpt>
<trkpt lat="40.0713749" lon="-105.229789">
  <ele>1583.0</ele>
  <time>2026-09-02T20:50:35Z</time>
  <course>0.0</course>
  <speed>0.0</speed>
  <fix>3d</fix>
</trkpt>
<trkpt lat="40.0713749" lon="-105.229789">
  <ele>1583.0</ele>
  <time>2026-09-02T20:50:35Z</time>
  <course>0.0</course>
  <speed>0.0</speed>
  <fix>3d</fix>
</trkpt>
<trkpt lat="40.0713749" lon="-105.229789">
  <ele>1583.0</ele>
  <time>2026-09-02T20:50:35Z</time>
  <course>0.0</course>
  <speed>0.0</speed>
  <fix>3d</fix>
</trkpt>
<trkpt lat="40.0713749" lon="-105.229789">
  <ele>1583.0</ele>
  <time>2026-09-02T20:50:35Z</time>
  <course>0.0</course>
  <speed>0.0</speed>
  <fix>3d</fix>
</trkpt>
<trkpt lat="40.0713749" lon="-105.229789">
  <ele>1583.0</ele>
  <time>2026-09-02T20:50:35Z</time>
  <course>0.0</course>
  <speed>0.0</speed>
  <fix>3d</fix>
</trkpt>
<trkpt lat="40.0713749" lon="-105.229789">
  <ele>1583.0</ele>
  <time>2026-09-02T20:50:35Z</time>
  <course>0.0</course>
  <speed>0.0</speed>
  <fix>3d</fix>
</trkpt>
<trkpt lat="40.0713749" lon="-105.229789">
  <ele>1583.0</ele>
  <time>2026-09-02T20:50:35Z</time>
  <course>0.0</course>
  <speed>0.0</speed>
  <fix>3d</fix>
</trkpt>
<trkpt lat="40.0713749" lon="-105.229789">
  <ele>1583.0</ele>
  <time>2026-09-02T20:50:35Z</time>
  <course>0.0</course>
  <speed>0.0</speed>
  <fix>3d</fix>
</trkpt>
<trkpt lat="40.0713749" lon="-105.229789">
  <ele>1583.0</ele>
  <time>2026-09-02T20:50:35Z</time>
  <course>0.0</course>
  <speed>0.0</speed>
  <fix>3d</fix>
</trkpt>
<trkpt lat="40.0713749" lon="-105.229789">
  <ele>1583.0</ele>
  <time>2026-09-02T20:50:35Z</time>
  <course>0.0</course>
  <speed>0.0</speed>
  <fix>3d</fix>
</trkpt>
<trkpt lat="40.0713749" lon="-105.229789">
  <ele>1583.0</ele>
  <time>2026-09-02T20:50:35Z</time>
  <course>0.0</course>
  <speed>0.0</speed>
  <fix>3d</fix>
</trkpt>
<trkpt lat="40.0713749" lon="-105.229789">
  <ele>1583.0</ele>
  <time>2026-09-02T20:50:35Z</time>
  <course>0.0</course>
  <speed>0.0</speed>
  <fix>3d</fix>
</trkpt>
<trkpt lat="40.0713749" lon="-105.229789">
  <ele>1583.0</ele>
  <time>2026-09-02T20:50:35Z</time>
  <course>0.0</course>
  <speed>0.0</speed>
  <fix>3d</fix>
</trkpt>
<trkpt lat="40.0713749" lon="-105.229789">
  <ele>1583.0</ele>
  <time>2026-09-02T20:50:35Z</time>
  <course>0.0</course>
  <speed>0.0</speed>
  <fix>3d</fix>
</trkpt>
<trkpt lat="40.0713749" lon="-105.229789">
  <ele>1583.0</ele>
  <time>2026-09-02T20:50:35Z</time>
  <course>0.0</course>
  <speed>0.0</speed>
  <fix>3d</fix>
</trkpt>
<trkpt lat="40.0713749" lon="-105.229789">
  <ele>1583.0</ele>
  <time>2026-09-02T20:50:35Z</time>
  <course>0.0</course>
  <speed>0.0</speed>
  <fix>3d</fix>
</trkpt>
<trkpt lat="40.0713749" lon="-105.229789">
  <ele>1583.0</ele>
  <time>2026-09-02T20:50:35Z</time>
  <course>0.0</course>
  <speed>0.0</speed>
  <fix>3d</fix>
</trkpt>
<trkpt lat="40.0713749" lon="-105.229789">
  <ele>1583.0</ele>
  <time>2026-09-02T20:50:35Z</time>
  <course>0.0</course>
  <speed>0.0</speed>
  <fix>3d</fix>
</trkpt>
<trkpt lat="40.0713749" lon="-105.229789">
  <ele>1583.0</ele>
  <time>2026-09-02T20:50:35Z</time>
  <course>0.0</course>
  <speed>0.0</speed>
  <fix>3d</fix>
</trkpt>
<trkpt lat="40.0713749" lon="-105.229789">
  <ele>1583.0</ele>
  <time>2026-09-02T20:50:35Z</time>
  <course>0.0</course>
  <speed>0.0</speed>
  <fix>3d</fix>
</trkpt>
<trkpt lat="40.0713749" lon="-105.229789">
  <ele>1583.0</ele>
  <time>2026-09-02T20:50:35Z</time>
  <course>0.0</course>
  <speed>0.0</speed>
  <fix>3d</fix>
</trkpt>
<trkpt lat="40.0713749" lon="-105.229789">
  <ele>1583.0</ele>
  <time>2026-09-02T20:50:35Z</time>
  <course>0.0</course>
  <speed>0.0</speed>
  <fix>3d</fix>
</trkpt>
<trkpt lat="40.0713749" lon="-105.229789">
  <ele>1583.0</ele>
  <time>2026-09-02T20:50:35Z</time>
  <course>0.0</course>
  <speed>0.0</speed>
  <fix>3d</fix>
</trkpt>
<trkpt lat="40.0713749" lon="-105.229789">
  <ele>1583.0</ele>
  <time>2026-09-02T20:50:35Z</time>
  <course>0.0</course>
  <speed>0.0</speed>
  <fix>3d</fix>
</trkpt>
<trkpt lat="40.0713749" lon="-105.229789">
  <ele>1583.0</ele>
  <time>2026-09-02T20:50:35Z</time>
  <course>0.0</course>
  <speed>0.0</speed>
  <fix>3d</fix>
</trkpt>
<trkpt lat="40.0713749" lon="-105.229789">
  <ele>1583.0</ele>
  <time>2026-09-02T20:50:35Z</time>
  <course>0.0</course>
  <speed>0.0</speed>
  <fix>3d</fix>
</trkpt>
<trkpt lat="40.0713749" lon="-105.229789">
  <ele>1583.0</ele>
  <time>2026-09-02T20:50:35Z</time>
  <course>0.0</course>
  <speed>0.0</speed>
  <fix>3d</fix>
</trkpt>
<trkpt lat="40.0713749" lon="-105.229789">
  <ele>1583.0</ele>
  <time>2026-09-02T20:50:35Z</time>
  <course>0.0</course>
  <speed>0.0</speed>
  <fix>3d</fix>
</trkpt>
<trkpt lat="40.0713749" lon="-105.229789">
  <ele>1583.0</ele>
  <time>2026-09-02T20:50:35Z</time>
  <course>0.0</course>
  <speed>0.0</speed>
  <fix>3d</fix>
</trkpt>
<trkpt lat="40.0713749" lon="-105.229789">
  <ele>1583.0</ele>
  <time>2026-09-02T20:50:35Z</time>
  <course>0.0</course>
  <speed>0.0</speed>
  <fix>3d</fix>
</trkpt>
<trkpt lat="40.0713749" lon="-105.229789">
  <ele>1583.0</ele>
  <time>2026-09-02T20:50:35Z</time>
  <course>0.0</course>
  <speed>0.0</speed>
  <fix>3d</fix>
</trkpt>
<trkpt lat="40.0713749" lon="-105.229789">
  <ele>1583.0</ele>
  <time>2026-09-02T20:50:35Z</time>
  <course>0.0</course>
  <speed>0.0</speed>
  <fix>3d</fix>
</trkpt>
<trkpt lat="40.0713749" lon="-105.229789">
  <ele>1583.0</ele>
  <time>2026-09-02T20:50:35Z</time>
  <course>0.0</course>
  <speed>0.0</speed>
  <fix>3d</fix>
</trkpt>
<trkpt lat="40.0713749" lon="-105.229789">
  <ele>1583.0</ele>
  <time>2026-09-02T20:50:35Z</time>
  <course>0.0</course>
  <speed>0.0</speed>
  <fix>3d</fix>
</trkpt>
<trkpt lat="40.0713749" lon="-105.229789">
  <ele>1583.0</ele>
  <time>2026-09-02T20:50:35Z</time>
  <course>0.0</course>
  <speed>0.0</speed>
  <fix>3d</fix>
</trkpt>
<trkpt lat="40.0713749" lon="-105.229789">
  <ele>1583.0</ele>
  <time>2026-09-02T20:50:35Z</time>
  <course>0.0</course>
  <speed>0.0</speed>
  <fix>3d</fix>
</trkpt>
<trkpt lat="40.0713749" lon="-105.229789">
  <ele>1583.0</ele>
  <time>2026-09-02T20:50:35Z</time>
  <course>0.0</course>
  <speed>0.0</speed>
  <fix>3d</fix>
</trkpt>
<trkpt lat="40.0713749" lon="-105.229789">
  <ele>1583.0</ele>
  <time>2026-09-02T20:50:35Z</time>
  <course>0.0</course>
  <speed>0.0</speed>
  <fix>3d</fix>
</trkpt>
<trkpt lat="40.0713749" lon="-105.229789">
  <ele>1583.0</ele>
  <time>2026-09-02T20:50:35Z</time>
  <course>0.0</course>
  <speed>0.0</speed>
  <fix>3d</fix>
</trkpt>
<trkpt lat="40.0713749" lon="-105.229789">
  <ele>1583.0</ele>
  <time>2026-09-02T20:50:35Z</time>
  <course>0.0</course>
  <speed>0.0</speed>
  <fix>3d</fix>
</trkpt>
<trkpt lat="40.0713749" lon="-105.229789">
  <ele>1583.0</ele>
  <time>2026-09-02T20:50:35Z</time>
  <course>0.0</course>
  <speed>0.0</speed>
  <fix>3d</fix>
</trkpt>
<trkpt lat="40.0713749" lon="-105.229789">
  <ele>1583.0</ele>
  <time>2026-09-02T20:50:35Z</time>
  <course>0.0</course>
  <speed>0.0</speed>
  <fix>3d</fix>
</trkpt>
<trkpt lat="40.0713749" lon="-105.229789">
  <ele>1583.0</ele>
  <time>2026-09-02T20:50:35Z</time>
  <course>0.0</course>
  <speed>0.0</speed>
  <fix>3d</fix>
</trkpt>
<trkpt lat="40.0713749" lon="-105.229789">
  <ele>1583.0</ele>
  <time>2026-09-02T20:50:35Z</time>
  <course>0.0</course>
  <speed>0.0</speed>
  <fix>3d</fix>
</trkpt>
<trkpt lat="40.0713749" lon="-105.229789">
  <ele>1583.0</ele>
  <time>2026-09-02T20:50:35Z</time>
  <course>0.0</course>
  <speed>0.0</speed>
  <fix>3d</fix>
</trkpt>
<trkpt lat="40.0713749" lon="-105.229789">
  <ele>1583.0</ele>
  <time>2026-09-02T20:50:35Z</time>
  <course>0.0</course>
  <speed>0.0</speed>
  <fix>3d</fix>
</trkpt>
<trkpt lat="40.0713749" lon="-105.229789">
  <ele>1583.0</ele>
  <time>2026-09-02T20:50:35Z</time>
  <course>0.0</course>
  <speed>0.0</speed>
  <fix>3d</fix>
</trkpt>
<trkpt lat="40.0713749" lon="-105.229789">
  <ele>1583.0</ele>
  <time>2026-09-02T20:50:35Z</time>
  <course>0.0</course>
  <speed>0.0</speed>
  <fix>3d</fix>
</trkpt>
<trkpt lat="40.0713749" lon="-105.229789">
  <ele>1583.0</ele>
  <time>2026-09-02T20:50:35Z</time>
  <course>0.0</course>
  <speed>0.0</speed>
  <fix>3d</fix>
</trkpt>
<trkpt lat="40.0713749" lon="-105.229789">
  <ele>1583.0</ele>
  <time>2026-09-02T20:50:35Z</time>
  <course>0.0</course>
  <speed>0.0</speed>
  <fix>3d</fix>
</trkpt>
<trkpt lat="40.0713749" lon="-105.229789">
  <ele>1583.0</ele>
  <time>2026-09-02T20:50:35Z</time>
  <course>0.0</course>
  <speed>0.0</speed>
  <fix>3d</fix>
</trkpt>
<trkpt lat="40.0713749" lon="-105.229789">
  <ele>1583.0</ele>
  <time>2026-09-02T20:50:35Z</time>
  <course>0.0</course>
  <speed>0.0</speed>
  <fix>3d</fix>
</trkpt>
<trkpt lat="40.0713749" lon="-105.229789">
  <ele>1583.0</ele>
  <time>2026-09-02T20:50:35Z</time>
  <course>0.0</course>
  <speed>0.0</speed>
  <fix>3d</fix>
</trkpt>
<trkpt lat="40.0713749" lon="-105.229789">
  <ele>1583.0</ele>
  <time>2026-09-02T20:50:35Z</time>
  <course>0.0</course>
  <speed>0.0</speed>
  <fix>3d</fix>
</trkpt>
<trkpt lat="40.0713749" lon="-105.229789">
  <ele>1583.0</ele>
  <time>2026-09-02T20:50:35Z</time>
  <course>0.0</course>
  <speed>0.0</speed>
  <fix>3d</fix>
</trkpt>
<trkpt lat="40.0713749" lon="-105.229789">
  <ele>1583.0</ele>
  <time>2026-09-02T20:50:35Z</time>
  <course>0.0</course>
  <speed>0.0</speed>
  <fix>3d</fix>
</trkpt>
<trkpt lat="40.0713749" lon="-105.229789">
  <ele>1583.0</ele>
  <time>2026-09-02T20:50:36Z</time>
  <course>0.0</course>
  <speed>0.0</speed>
  <fix>3d</fix>
</trkpt>
<trkpt lat="40.0713749" lon="-105.229789">
  <ele>1583.0</ele>
  <time>2026-09-02T20:50:36Z</time>
  <course>0.0</course>
  <speed>0.0</speed>
  <fix>3d</fix>
</trkpt>
<trkpt lat="40.0713749" lon="-105.229789">
  <ele>1583.0</ele>
  <time>2026-09-02T20:50:36Z</time>
  <course>0.0</course>
  <speed>0.0</speed>
  <fix>3d</fix>
</trkpt>
<trkpt lat="40.0713749" lon="-105.229789">
  <ele>1583.0</ele>
  <time>2026-09-02T20:50:36Z</time>
  <course>0.0</course>
  <speed>0.0</speed>
  <fix>3d</fix>
</trkpt>
<trkpt lat="40.0713749" lon="-105.229789">
  <ele>1583.0</ele>
  <time>2026-09-02T20:50:36Z</time>
  <course>0.0</course>
  <speed>0.0</speed>
  <fix>3d</fix>
</trkpt>
<trkpt lat="40.0713749" lon="-105.229789">
  <ele>1583.0</ele>
  <time>2026-09-02T20:50:36Z</time>
  <course>0.0</course>
  <speed>0.0</speed>
  <fix>3d</fix>
</trkpt>
<trkpt lat="40.0713749" lon="-105.229789">
  <ele>1583.0</ele>
  <time>2026-09-02T20:50:36Z</time>
  <course>0.0</course>
  <speed>0.0</speed>
  <fix>3d</fix>
</trkpt>
<trkpt lat="40.0713749" lon="-105.229789">
  <ele>1583.0</ele>
  <time>2026-09-02T20:50:36Z</time>
  <course>0.0</course>
  <speed>0.0</speed>
  <fix>3d</fix>
</trkpt>
<trkpt lat="40.0713749" lon="-105.229789">
  <ele>1583.0</ele>
  <time>2026-09-02T20:50:36Z</time>
  <course>0.0</course>
  <speed>0.0</speed>
  <fix>3d</fix>
</trkpt>
<trkpt lat="40.0713749" lon="-105.229789">
  <ele>1583.0</ele>
  <time>2026-09-02T20:50:36Z</time>
  <course>0.0</course>
  <speed>0.0</speed>
  <fix>3d</fix>
</trkpt>
<trkpt lat="40.0713749" lon="-105.229789">
  <ele>1583.0</ele>
  <time>2026-09-02T20:50:36Z</time>
  <course>0.0</course>
  <speed>0.0</speed>
  <fix>3d</fix>
</trkpt>
<trkpt lat="40.0713749" lon="-105.229789">
  <ele>1583.0</ele>
  <time>2026-09-02T20:50:36Z</time>
  <course>0.0</course>
  <speed>0.0</speed>
  <fix>3d</fix>
</trkpt>
<trkpt lat="40.0713749" lon="-105.229789">
  <ele>1583.0</ele>
  <time>2026-09-02T20:50:36Z</time>
  <course>0.0</course>
  <speed>0.0</speed>
  <fix>3d</fix>
</trkpt>
<trkpt lat="40.0713749" lon="-105.229789">
  <ele>1583.0</ele>
  <time>2026-09-02T20:50:36Z</time>
  <course>0.0</course>
  <speed>0.0</speed>
  <fix>3d</fix>
</trkpt>
<trkpt lat="40.0713749" lon="-105.229789">
  <ele>1583.0</ele>
  <time>2026-09-02T20:50:36Z</time>
  <course>0.0</course>
  <speed>0.0</speed>
  <fix>3d</fix>
</trkpt>
<trkpt lat="40.0713749" lon="-105.229789">
  <ele>1583.0</ele>
  <time>2026-09-02T20:50:36Z</time>
  <course>0.0</course>
  <speed>0.0</speed>
  <fix>3d</fix>
</trkpt>
<trkpt lat="40.0713749" lon="-105.229789">
  <ele>1583.0</ele>
  <time>2026-09-02T20:50:36Z</time>
  <course>0.0</course>
  <speed>0.0</speed>
  <fix>3d</fix>
</trkpt>
<trkpt lat="40.0713749" lon="-105.229789">
  <ele>1583.0</ele>
  <time>2026-09-02T20:50:36Z</time>
  <course>0.0</course>
  <speed>0.0</speed>
  <fix>3d</fix>
</trkpt>
<trkpt lat="40.0713749" lon="-105.229789">
  <ele>1583.0</ele>
  <time>2026-09-02T20:50:36Z</time>
  <course>0.0</course>
  <speed>0.0</speed>
  <fix>3d</fix>
</trkpt>
<trkpt lat="40.0713749" lon="-105.229789">
  <ele>1583.0</ele>
  <time>2026-09-02T20:50:36Z</time>
  <course>0.0</course>
  <speed>0.0</speed>
  <fix>3d</fix>
</trkpt>
<trkpt lat="40.0713749" lon="-105.229789">
  <ele>1583.0</ele>
  <time>2026-09-02T20:50:36Z</time>
  <course>0.0</course>
  <speed>0.0</speed>
  <fix>3d</fix>
</trkpt>
<trkpt lat="40.0713749" lon="-105.229789">
  <ele>1583.0</ele>
  <time>2026-09-02T20:50:36Z</time>
  <course>0.0</course>
  <speed>0.0</speed>
  <fix>3d</fix>
</trkpt>
<trkpt lat="40.0713749" lon="-105.229789">
  <ele>1583.0</ele>
  <time>2026-09-02T20:50:36Z</time>
  <course>0.0</course>
  <speed>0.0</speed>
  <fix>3d</fix>
</trkpt>
<trkpt lat="40.0713749" lon="-105.229789">
  <ele>1583.0</ele>
  <time>2026-09-02T20:50:36Z</time>
  <course>0.0</course>
  <speed>0.0</speed>
  <fix>3d</fix>
</trkpt>
<trkpt lat="40.0713749" lon="-105.229789">
  <ele>1583.0</ele>
  <time>2026-09-02T20:50:36Z</time>
  <course>0.0</course>
  <speed>0.0</speed>
  <fix>3d</fix>
</trkpt>
<trkpt lat="40.0713749" lon="-105.229789">
  <ele>1583.0</ele>
  <time>2026-09-02T20:50:36Z</time>
  <course>0.0</course>
  <speed>0.0</speed>
  <fix>3d</fix>
</trkpt>
<trkpt lat="40.0713749" lon="-105.229789">
  <ele>1583.0</ele>
  <time>2026-09-02T20:50:36Z</time>
  <course>0.0</course>
  <speed>0.0</speed>
  <fix>3d</fix>
</trkpt>
<trkpt lat="40.0713749" lon="-105.229789">
  <ele>1583.0</ele>
  <time>2026-09-02T20:50:36Z</time>
  <course>0.0</course>
  <speed>0.0</speed>
  <fix>3d</fix>
</trkpt>
<trkpt lat="40.0713749" lon="-105.229789">
  <ele>1583.0</ele>
  <time>2026-09-02T20:50:36Z</time>
  <course>0.0</course>
  <speed>0.0</speed>
  <fix>3d</fix>
</trkpt>
<trkpt lat="40.0713749" lon="-105.229789">
  <ele>1583.0</ele>
  <time>2026-09-02T20:50:36Z</time>
  <course>0.0</course>
  <speed>0.0</speed>
  <fix>3d</fix>
</trkpt>
<trkpt lat="40.0713749" lon="-105.229789">
  <ele>1583.0</ele>
  <time>2026-09-02T20:50:36Z</time>
  <course>0.0</course>
  <speed>0.0</speed>
  <fix>3d</fix>
</trkpt>
<trkpt lat="40.0713749" lon="-105.229789">
  <ele>1583.0</ele>
  <time>2026-09-02T20:50:36Z</time>
  <course>0.0</course>
  <speed>0.0</speed>
  <fix>3d</fix>
</trkpt>
<trkpt lat="40.0713749" lon="-105.229789">
  <ele>1583.0</ele>
  <time>2026-09-02T20:50:36Z</time>
  <course>0.0</course>
  <speed>0.0</speed>
  <fix>3d</fix>
</trkpt>
<trkpt lat="40.0713749" lon="-105.229789">
  <ele>1583.0</ele>
  <time>2026-09-02T20:50:36Z</time>
  <course>0.0</course>
  <speed>0.0</speed>
  <fix>3d</fix>
</trkpt>
<trkpt lat="40.0713749" lon="-105.229789">
  <ele>1583.0</ele>
  <time>2026-09-02T20:50:36Z</time>
  <course>0.0</course>
  <speed>0.0</speed>
  <fix>3d</fix>
</trkpt>
<trkpt lat="40.0713749" lon="-105.229789">
  <ele>1583.0</ele>
  <time>2026-09-02T20:50:36Z</time>
  <course>0.0</course>
  <speed>0.0</speed>
  <fix>3d</fix>
</trkpt>
<trkpt lat="40.0713749" lon="-105.229789">
  <ele>1583.0</ele>
  <time>2026-09-02T20:50:36Z</time>
  <course>0.0</course>
  <speed>0.0</speed>
  <fix>3d</fix>
</trkpt>
<trkpt lat="40.0713749" lon="-105.229789">
  <ele>1583.0</ele>
  <time>2026-09-02T20:50:36Z</time>
  <course>0.0</course>
  <speed>0.0</speed>
  <fix>3d</fix>
</trkpt>
<trkpt lat="40.0713749" lon="-105.229789">
  <ele>1583.0</ele>
  <time>2026-09-02T20:50:36Z</time>
  <course>0.0</course>
  <speed>0.0</speed>
  <fix>3d</fix>
</trkpt>
<trkpt lat="40.0713749" lon="-105.229789">
  <ele>1583.0</ele>
  <time>2026-09-02T20:50:36Z</time>
  <course>0.0</course>
  <speed>0.0</speed>
  <fix>3d</fix>
</trkpt>
<trkpt lat="40.0713749" lon="-105.229789">
  <ele>1583.0</ele>
  <time>2026-09-02T20:50:36Z</time>
  <course>0.0</course>
  <speed>0.0</speed>
  <fix>3d</fix>
</trkpt>
<trkpt lat="40.0713749" lon="-105.229789">
  <ele>1583.0</ele>
  <time>2026-09-02T20:50:36Z</time>
  <course>0.0</course>
  <speed>0.0</speed>
  <fix>3d</fix>
</trkpt>
<trkpt lat="40.0713749" lon="-105.229789">
  <ele>1583.0</ele>
  <time>2026-09-02T20:50:36Z</time>
  <course>0.0</course>
  <speed>0.0</speed>
  <fix>3d</fix>
</trkpt>
<trkpt lat="40.0713749" lon="-105.229789">
  <ele>1583.0</ele>
  <time>2026-09-02T20:50:36Z</time>
  <course>0.0</course>
  <speed>0.0</speed>
  <fix>3d</fix>
</trkpt>
<trkpt lat="40.0713749" lon="-105.229789">
  <ele>1583.0</ele>
  <time>2026-09-02T20:50:36Z</time>
  <course>0.0</course>
  <speed>0.0</speed>
  <fix>3d</fix>
</trkpt>
<trkpt lat="40.0713749" lon="-105.229789">
  <ele>1583.0</ele>
  <time>2026-09-02T20:50:36Z</time>
  <course>0.0</course>
  <speed>0.0</speed>
  <fix>3d</fix>
</trkpt>
<trkpt lat="40.0713749" lon="-105.229789">
  <ele>1583.0</ele>
  <time>2026-09-02T20:50:36Z</time>
  <course>0.0</course>
  <speed>0.0</speed>
  <fix>3d</fix>
</trkpt>
<trkpt lat="40.0713749" lon="-105.229789">
  <ele>1583.0</ele>
  <time>2026-09-02T20:50:36Z</time>
  <course>0.0</course>
  <speed>0.0</speed>
  <fix>3d</fix>
</trkpt>
<trkpt lat="40.0713749" lon="-105.229789">
  <ele>1583.0</ele>
  <time>2026-09-02T20:50:36Z</time>
  <course>0.0</course>
  <speed>0.0</speed>
  <fix>3d</fix>
</trkpt>
<trkpt lat="40.0713749" lon="-105.229789">
  <ele>1583.0</ele>
  <time>2026-09-02T20:50:36Z</time>
  <course>0.0</course>
  <speed>0.0</speed>
  <fix>3d</fix>
</trkpt>
<trkpt lat="40.0713749" lon="-105.229789">
  <ele>1583.0</ele>
  <time>2026-09-02T20:50:36Z</time>
  <course>0.0</course>
  <speed>0.0</speed>
  <fix>3d</fix>
</trkpt>
<trkpt lat="40.0713749" lon="-105.229789">
  <ele>1583.0</ele>
  <time>2026-09-02T20:50:36Z</time>
  <course>0.0</course>
  <speed>0.0</speed>
  <fix>3d</fix>
</trkpt>
<trkpt lat="40.0713749" lon="-105.229789">
  <ele>1583.0</ele>
  <time>2026-09-02T20:50:36Z</time>
  <course>0.0</course>
  <speed>0.0</speed>
  <fix>3d</fix>
</trkpt>
<trkpt lat="40.0713749" lon="-105.229789">
  <ele>1583.0</ele>
  <time>2026-09-02T20:50:36Z</time>
  <course>0.0</course>
  <speed>0.0</speed>
  <fix>3d</fix>
</trkpt>
<trkpt lat="40.0713749" lon="-105.229789">
  <ele>1583.0</ele>
  <time>2026-09-02T20:50:36Z</time>
  <course>0.0</course>
  <speed>0.0</speed>
  <fix>3d</fix>
</trkpt>
<trkpt lat="40.0713749" lon="-105.229789">
  <ele>1583.0</ele>
  <time>2026-09-02T20:50:36Z</time>
  <course>0.0</course>
  <speed>0.0</speed>
  <fix>3d</fix>
</trkpt>
<trkpt lat="40.0713749" lon="-105.229789">
  <ele>1583.0</ele>
  <time>2026-09-02T20:50:36Z</time>
  <course>0.0</course>
  <speed>0.0</speed>
  <fix>3d</fix>
</trkpt>
<trkpt lat="40.0713749" lon="-105.229789">
  <ele>1583.0</ele>
  <time>2026-09-02T20:50:36Z</time>
  <course>0.0</course>
  <speed>0.0</speed>
  <fix>3d</fix>
</trkpt>
<trkpt lat="40.0713749" lon="-105.229789">
  <ele>1583.0</ele>
  <time>2026-09-02T20:50:36Z</time>
  <course>0.0</course>
  <speed>0.0</speed>
  <fix>3d</fix>
</trkpt>
<trkpt lat="40.0713749" lon="-105.229789">
  <ele>1583.0</ele>
  <time>2026-09-02T20:50:36Z</time>
  <course>0.0</course>
  <speed>0.0</speed>
  <fix>3d</fix>
</trkpt>
<trkpt lat="40.0713749" lon="-105.229789">
  <ele>1583.0</ele>
  <time>2026-09-02T20:50:36Z</time>
  <course>0.0</course>
  <speed>0.0</speed>
  <fix>3d</fix>
</trkpt>
<trkpt lat="40.0713749" lon="-105.229789">
  <ele>1583.0</ele>
  <time>2026-09-02T20:50:36Z</time>
  <course>0.0</course>
  <speed>0.0</speed>
  <fix>3d</fix>
</trkpt>
<trkpt lat="40.0713749" lon="-105.229789">
  <ele>1583.0</ele>
  <time>2026-09-02T20:50:36Z</time>
  <course>0.0</course>
  <speed>0.0</speed>
  <fix>3d</fix>
</trkpt>
<trkpt lat="40.0713749" lon="-105.229789">
  <ele>1583.0</ele>
  <time>2026-09-02T20:50:36Z</time>
  <course>0.0</course>
  <speed>0.0</speed>
  <fix>3d</fix>
</trkpt>
<trkpt lat="40.0713749" lon="-105.229789">
  <ele>1583.0</ele>
  <time>2026-09-02T20:50:36Z</time>
  <course>0.0</course>
  <speed>0.0</speed>
  <fix>3d</fix>
</trkpt>
<trkpt lat="40.0713749" lon="-105.229789">
  <ele>1583.0</ele>
  <time>2026-09-02T20:50:36Z</time>
  <course>0.0</course>
  <speed>0.0</speed>
  <fix>3d</fix>
</trkpt>
<trkpt lat="40.0713749" lon="-105.229789">
  <ele>1583.0</ele>
  <time>2026-09-02T20:50:36Z</time>
  <course>0.0</course>
  <speed>0.0</speed>
  <fix>3d</fix>
</trkpt>
<trkpt lat="40.0713749" lon="-105.229789">
  <ele>1583.0</ele>
  <time>2026-09-02T20:50:36Z</time>
  <course>0.0</course>
  <speed>0.0</speed>
  <fix>3d</fix>
</trkpt>
<trkpt lat="40.0713749" lon="-105.229789">
  <ele>1583.0</ele>
  <time>2026-09-02T20:50:36Z</time>
  <course>0.0</course>
  <speed>0.0</speed>
  <fix>3d</fix>
</trkpt>
<trkpt lat="40.0713749" lon="-105.229789">
  <ele>1583.0</ele>
  <time>2026-09-02T20:50:36Z</time>
  <course>0.0</course>
  <speed>0.0</speed>
  <fix>3d</fix>
</trkpt>
<trkpt lat="40.0713749" lon="-105.229789">
  <ele>1583.0</ele>
  <time>2026-09-02T20:50:36Z</time>
  <course>0.0</course>
  <speed>0.0</speed>
  <fix>3d</fix>
</trkpt>
<trkpt lat="40.0713749" lon="-105.229789">
  <ele>1583.0</ele>
  <time>2026-09-02T20:50:36Z</time>
  <course>0.0</course>
  <speed>0.0</speed>
  <fix>3d</fix>
</trkpt>
<trkpt lat="40.0713749" lon="-105.229789">
  <ele>1583.0</ele>
  <time>2026-09-02T20:50:36Z</time>
  <course>0.0</course>
  <speed>0.0</speed>
  <fix>3d</fix>
</trkpt>
<trkpt lat="40.0713749" lon="-105.229789">
  <ele>1583.0</ele>
  <time>2026-09-02T20:50:36Z</time>
  <course>0.0</course>
  <speed>0.0</speed>
  <fix>3d</fix>
</trkpt>
<trkpt lat="40.0713749" lon="-105.229789">
  <ele>1583.0</ele>
  <time>2026-09-02T20:50:36Z</time>
  <course>0.0</course>
  <speed>0.0</speed>
  <fix>3d</fix>
</trkpt>
<trkpt lat="40.0713749" lon="-105.229789">
  <ele>1583.0</ele>
  <time>2026-09-02T20:50:36Z</time>
  <course>0.0</course>
  <speed>0.0</speed>
  <fix>3d</fix>
</trkpt>
<trkpt lat="40.0713749" lon="-105.229789">
  <ele>1583.0</ele>
  <time>2026-09-02T20:50:36Z</time>
  <course>0.0</course>
  <speed>0.0</speed>
  <fix>3d</fix>
</trkpt>
<trkpt lat="40.0713749" lon="-105.229789">
  <ele>1583.0</ele>
  <time>2026-09-02T20:50:36Z</time>
  <course>0.0</course>
  <speed>0.0</speed>
  <fix>3d</fix>
</trkpt>
<trkpt lat="40.0713749" lon="-105.229789">
  <ele>1583.0</ele>
  <time>2026-09-02T20:50:36Z</time>
  <course>0.0</course>
  <speed>0.0</speed>
  <fix>3d</fix>
</trkpt>
<trkpt lat="40.0713749" lon="-105.229789">
  <ele>1583.0</ele>
  <time>2026-09-02T20:50:36Z</time>
  <course>0.0</course>
  <speed>0.0</speed>
  <fix>3d</fix>
</trkpt>
<trkpt lat="40.0713749" lon="-105.229789">
  <ele>1583.0</ele>
  <time>2026-09-02T20:50:36Z</time>
  <course>0.0</course>
  <speed>0.0</speed>
  <fix>3d</fix>
</trkpt>
<trkpt lat="40.0713749" lon="-105.229789">
  <ele>1583.0</ele>
  <time>2026-09-02T20:50:36Z</time>
  <course>0.0</course>
  <speed>0.0</speed>
  <fix>3d</fix>
</trkpt>
<trkpt lat="40.0713749" lon="-105.229789">
  <ele>1583.0</ele>
  <time>2026-09-02T20:50:36Z</time>
  <course>0.0</course>
  <speed>0.0</speed>
  <fix>3d</fix>
</trkpt>
<trkpt lat="40.0713749" lon="-105.229789">
  <ele>1583.0</ele>
  <time>2026-09-02T20:50:36Z</time>
  <course>0.0</course>
  <speed>0.0</speed>
  <fix>3d</fix>
</trkpt>
<trkpt lat="40.0713749" lon="-105.229789">
  <ele>1583.0</ele>
  <time>2026-09-02T20:50:36Z</time>
  <course>0.0</course>
  <speed>0.0</speed>
  <fix>3d</fix>
</trkpt>
<trkpt lat="40.0713749" lon="-105.229789">
  <ele>1583.0</ele>
  <time>2026-09-02T20:50:36Z</time>
  <course>0.0</course>
  <speed>0.0</speed>
  <fix>3d</fix>
</trkpt>
<trkpt lat="40.0713749" lon="-105.229789">
  <ele>1583.0</ele>
  <time>2026-09-02T20:50:36Z</time>
  <course>0.0</course>
  <speed>0.0</speed>
  <fix>3d</fix>
</trkpt>
<trkpt lat="40.0713749" lon="-105.229789">
  <ele>1583.0</ele>
  <time>2026-09-02T20:50:36Z</time>
  <course>0.0</course>
  <speed>0.0</speed>
  <fix>3d</fix>
</trkpt>
<trkpt lat="40.0713749" lon="-105.229789">
  <ele>1583.0</ele>
  <time>2026-09-02T20:50:36Z</time>
  <course>0.0</course>
  <speed>0.0</speed>
  <fix>3d</fix>
</trkpt>
<trkpt lat="40.0713749" lon="-105.229789">
  <ele>1583.0</ele>
  <time>2026-09-02T20:50:36Z</time>
  <course>0.0</course>
  <speed>0.0</speed>
  <fix>3d</fix>
</trkpt>
<trkpt lat="40.0713749" lon="-105.229789">
  <ele>1583.0</ele>
  <time>2026-09-02T20:50:36Z</time>
  <course>0.0</course>
  <speed>0.0</speed>
  <fix>3d</fix>
</trkpt>
<trkpt lat="40.0713749" lon="-105.229789">
  <ele>1583.0</ele>
  <time>2026-09-02T20:50:36Z</time>
  <course>0.0</course>
  <speed>0.0</speed>
  <fix>3d</fix>
</trkpt>
<trkpt lat="40.0713749" lon="-105.229789">
  <ele>1583.0</ele>
  <time>2026-09-02T20:50:36Z</time>
  <course>0.0</course>
  <speed>0.0</speed>
  <fix>3d</fix>
</trkpt>
<trkpt lat="40.0713749" lon="-105.229789">
  <ele>1583.0</ele>
  <time>2026-09-02T20:50:36Z</time>
  <course>0.0</course>
  <speed>0.0</speed>
  <fix>3d</fix>
</trkpt>
<trkpt lat="40.0713749" lon="-105.229789">
  <ele>1583.0</ele>
  <time>2026-09-02T20:50:36Z</time>
  <course>0.0</course>
  <speed>0.0</speed>
  <fix>3d</fix>
</trkpt>
<trkpt lat="40.0713749" lon="-105.229789">
  <ele>1583.0</ele>
  <time>2026-09-02T20:50:36Z</time>
  <course>0.0</course>
  <speed>0.0</speed>
  <fix>3d</fix>
</trkpt>
<trkpt lat="40.0713749" lon="-105.229789">
  <ele>1583.0</ele>
  <time>2026-09-02T20:50:36Z</time>
  <course>0.0</course>
  <speed>0.0</speed>
  <fix>3d</fix>
</trkpt>
<trkpt lat="40.0713749" lon="-105.229789">
  <ele>1583.0</ele>
  <time>2026-09-02T20:50:36Z</time>
  <course>0.0</course>
  <speed>0.0</speed>
  <fix>3d</fix>
</trkpt>
<trkpt lat="40.0713749" lon="-105.229789">
  <ele>1583.0</ele>
  <time>2026-09-02T20:50:36Z</time>
  <course>0.0</course>
  <speed>0.0</speed>
  <fix>3d</fix>
</trkpt>
<trkpt lat="40.0713749" lon="-105.229789">
  <ele>1583.0</ele>
  <time>2026-09-02T20:50:36Z</time>
  <course>0.0</course>
  <speed>0.0</speed>
  <fix>3d</fix>
</trkpt>
<trkpt lat="40.0713749" lon="-105.229789">
  <ele>1583.0</ele>
  <time>2026-09-02T20:50:36Z</time>
  <course>0.0</course>
  <speed>0.0</speed>
  <fix>3d</fix>
</trkpt>
<trkpt lat="40.0713749" lon="-105.229789">
  <ele>1583.0</ele>
  <time>2026-09-02T20:50:36Z</time>
  <course>0.0</course>
  <speed>0.0</speed>
  <fix>3d</fix>
</trkpt>
<trkpt lat="40.0713749" lon="-105.229789">
  <ele>1583.0</ele>
  <time>2026-09-02T20:50:36Z</time>
  <course>0.0</course>
  <speed>0.0</speed>
  <fix>3d</fix>
</trkpt>
<trkpt lat="40.0713749" lon="-105.229789">
  <ele>1583.0</ele>
  <time>2026-09-02T20:50:36Z</time>
  <course>0.0</course>
  <speed>0.0</speed>
  <fix>3d</fix>
</trkpt>
<trkpt lat="40.0713749" lon="-105.229789">
  <ele>1583.0</ele>
  <time>2026-09-02T20:50:36Z</time>
  <course>0.0</course>
  <speed>0.0</speed>
  <fix>3d</fix>
</trkpt>
<trkpt lat="40.0713749" lon="-105.229789">
  <ele>1583.0</ele>
  <time>2026-09-02T20:50:36Z</time>
  <course>0.0</course>
  <speed>0.0</speed>
  <fix>3d</fix>
</trkpt>
<trkpt lat="40.0713749" lon="-105.229789">
  <ele>1583.0</ele>
  <time>2026-09-02T20:50:36Z</time>
  <course>0.0</course>
  <speed>0.0</speed>
  <fix>3d</fix>
</trkpt>
<trkpt lat="40.0713749" lon="-105.229789">
  <ele>1583.0</ele>
  <time>2026-09-02T20:50:36Z</time>
  <course>0.0</course>
  <speed>0.0</speed>
  <fix>3d</fix>
</trkpt>
<trkpt lat="40.0713749" lon="-105.229789">
  <ele>1583.0</ele>
  <time>2026-09-02T20:50:36Z</time>
  <course>0.0</course>
  <speed>0.0</speed>
  <fix>3d</fix>
</trkpt>
<trkpt lat="40.0713749" lon="-105.229789">
  <ele>1583.0</ele>
  <time>2026-09-02T20:50:36Z</time>
  <course>0.0</course>
  <speed>0.0</speed>
  <fix>3d</fix>
</trkpt>
<trkpt lat="40.0713749" lon="-105.229789">
  <ele>1583.0</ele>
  <time>2026-09-02T20:50:36Z</time>
  <course>0.0</course>
  <speed>0.0</speed>
  <fix>3d</fix>
</trkpt>
<trkpt lat="40.0713749" lon="-105.229789">
  <ele>1583.0</ele>
  <time>2026-09-02T20:50:36Z</time>
  <course>0.0</course>
  <speed>0.0</speed>
  <fix>3d</fix>
</trkpt>
<trkpt lat="40.0713749" lon="-105.229789">
  <ele>1583.0</ele>
  <time>2026-09-02T20:50:36Z</time>
  <course>0.0</course>
  <speed>0.0</speed>
  <fix>3d</fix>
</trkpt>
<trkpt lat="40.0713749" lon="-105.229789">
  <ele>1583.0</ele>
  <time>2026-09-02T20:50:36Z</time>
  <course>0.0</course>
  <speed>0.0</speed>
  <fix>3d</fix>
</trkpt>
<trkpt lat="40.0713749" lon="-105.229789">
  <ele>1583.0</ele>
  <time>2026-09-02T20:50:36Z</time>
  <course>0.0</course>
  <speed>0.0</speed>
  <fix>3d</fix>
</trkpt>
<trkpt lat="40.0713749" lon="-105.229789">
  <ele>1583.0</ele>
  <time>2026-09-02T20:50:36Z</time>
  <course>0.0</course>
  <speed>0.0</speed>
  <fix>3d</fix>
</trkpt>
<trkpt lat="40.0713749" lon="-105.229789">
  <ele>1583.0</ele>
  <time>2026-09-02T20:50:36Z</time>
  <course>0.0</course>
  <speed>0.0</speed>
  <fix>3d</fix>
</trkpt>
<trkpt lat="40.0713749" lon="-105.229789">
  <ele>1583.0</ele>
  <time>2026-09-02T20:50:36Z</time>
  <course>0.0</course>
  <speed>0.0</speed>
  <fix>3d</fix>
</trkpt>
<trkpt lat="40.0713749" lon="-105.229789">
  <ele>1583.0</ele>
  <time>2026-09-02T20:50:36Z</time>
  <course>0.0</course>
  <speed>0.0</speed>
  <fix>3d</fix>
</trkpt>
<trkpt lat="40.0713749" lon="-105.229789">
  <ele>1583.0</ele>
  <time>2026-09-02T20:50:36Z</time>
  <course>0.0</course>
  <speed>0.0</speed>
  <fix>3d</fix>
</trkpt>
<trkpt lat="40.0713749" lon="-105.229789">
  <ele>1583.0</ele>
  <time>2026-09-02T20:50:36Z</time>
  <course>0.0</course>
  <speed>0.0</speed>
  <fix>3d</fix>
</trkpt>
<trkpt lat="40.0713749" lon="-105.229789">
  <ele>1583.0</ele>
  <time>2026-09-02T20:50:36Z</time>
  <course>0.0</course>
  <speed>0.0</speed>
  <fix>3d</fix>
</trkpt>
<trkpt lat="40.0713749" lon="-105.229789">
  <ele>1583.0</ele>
  <time>2026-09-02T20:50:36Z</time>
  <course>0.0</course>
  <speed>0.0</speed>
  <fix>3d</fix>
</trkpt>
<trkpt lat="40.0713749" lon="-105.229789">
  <ele>1583.0</ele>
  <time>2026-09-02T20:50:36Z</time>
  <course>0.0</course>
  <speed>0.0</speed>
  <fix>3d</fix>
</trkpt>
<trkpt lat="40.0713749" lon="-105.229789">
  <ele>1583.0</ele>
  <time>2026-09-02T20:50:36Z</time>
  <course>0.0</course>
  <speed>0.0</speed>
  <fix>3d</fix>
</trkpt>
<trkpt lat="40.0713749" lon="-105.229789">
  <ele>1583.0</ele>
  <time>2026-09-02T20:50:36Z</time>
  <course>0.0</course>
  <speed>0.0</speed>
  <fix>3d</fix>
</trkpt>
<trkpt lat="40.0713749" lon="-105.229789">
  <ele>1583.0</ele>
  <time>2026-09-02T20:50:36Z</time>
  <course>0.0</course>
  <speed>0.0</speed>
  <fix>3d</fix>
</trkpt>
<trkpt lat="40.0713749" lon="-105.229789">
  <ele>1583.0</ele>
  <time>2026-09-02T20:50:36Z</time>
  <course>0.0</course>
  <speed>0.0</speed>
  <fix>3d</fix>
</trkpt>
<trkpt lat="40.0713749" lon="-105.229789">
  <ele>1583.0</ele>
  <time>2026-09-02T20:50:36Z</time>
  <course>0.0</course>
  <speed>0.0</speed>
  <fix>3d</fix>
</trkpt>
<trkpt lat="40.0713749" lon="-105.229789">
  <ele>1583.0</ele>
  <time>2026-09-02T20:50:36Z</time>
  <course>0.0</course>
  <speed>0.0</speed>
  <fix>3d</fix>
</trkpt>
<trkpt lat="40.0713749" lon="-105.229789">
  <ele>1583.0</ele>
  <time>2026-09-02T20:50:36Z</time>
  <course>0.0</course>
  <speed>0.0</speed>
  <fix>3d</fix>
</trkpt>
<trkpt lat="40.0713749" lon="-105.229789">
  <ele>1583.0</ele>
  <time>2026-09-02T20:50:36Z</time>
  <course>0.0</course>
  <speed>0.0</speed>
  <fix>3d</fix>
</trkpt>
<trkpt lat="40.0713749" lon="-105.229789">
  <ele>1583.0</ele>
  <time>2026-09-02T20:50:36Z</time>
  <course>0.0</course>
  <speed>0.0</speed>
  <fix>3d</fix>
</trkpt>
<trkpt lat="40.0713749" lon="-105.229789">
  <ele>1583.0</ele>
  <time>2026-09-02T20:50:36Z</time>
  <course>0.0</course>
  <speed>0.0</speed>
  <fix>3d</fix>
</trkpt>
<trkpt lat="40.0713749" lon="-105.229789">
  <ele>1583.0</ele>
  <time>2026-09-02T20:50:36Z</time>
  <course>0.0</course>
  <speed>0.0</speed>
  <fix>3d</fix>
</trkpt>
<trkpt lat="40.0713749" lon="-105.229789">
  <ele>1583.0</ele>
  <time>2026-09-02T20:50:36Z</time>
  <course>0.0</course>
  <speed>0.0</speed>
  <fix>3d</fix>
</trkpt>
<trkpt lat="40.0713749" lon="-105.229789">
  <ele>1583.0</ele>
  <time>2026-09-02T20:50:36Z</time>
  <course>0.0</course>
  <speed>0.0</speed>
  <fix>3d</fix>
</trkpt>
<trkpt lat="40.0713749" lon="-105.229789">
  <ele>1583.0</ele>
  <time>2026-09-02T20:50:36Z</time>
  <course>0.0</course>
  <speed>0.0</speed>
  <fix>3d</fix>
</trkpt>
<trkpt lat="40.0713749" lon="-105.229789">
  <ele>1583.0</ele>
  <time>2026-09-02T20:50:36Z</time>
  <course>0.0</course>
  <speed>0.0</speed>
  <fix>3d</fix>
</trkpt>
<trkpt lat="40.0713749" lon="-105.229789">
  <ele>1583.0</ele>
  <time>2026-09-02T20:50:36Z</time>
  <course>0.0</course>
  <speed>0.0</speed>
  <fix>3d</fix>
</trkpt>
<trkpt lat="40.0713749" lon="-105.229789">
  <ele>1583.0</ele>
  <time>2026-09-02T20:50:36Z</time>
  <course>0.0</course>
  <speed>0.0</speed>
  <fix>3d</fix>
</trkpt>
<trkpt lat="40.0713749" lon="-105.229789">
  <ele>1583.0</ele>
  <time>2026-09-02T20:50:36Z</time>
  <course>0.0</course>
  <speed>0.0</speed>
  <fix>3d</fix>
</trkpt>
<trkpt lat="40.0713749" lon="-105.229789">
  <ele>1583.0</ele>
  <time>2026-09-02T20:50:36Z</time>
  <course>0.0</course>
  <speed>0.0</speed>
  <fix>3d</fix>
</trkpt>
<trkpt lat="40.0713749" lon="-105.229789">
  <ele>1583.0</ele>
  <time>2026-09-02T20:50:36Z</time>
  <course>0.0</course>
  <speed>0.0</speed>
  <fix>3d</fix>
</trkpt>
<trkpt lat="40.0713749" lon="-105.229789">
  <ele>1583.0</ele>
  <time>2026-09-02T20:50:36Z</time>
  <course>0.0</course>
  <speed>0.0</speed>
  <fix>3d</fix>
</trkpt>
<trkpt lat="40.0713749" lon="-105.229789">
  <ele>1583.0</ele>
  <time>2026-09-02T20:50:36Z</time>
  <course>0.0</course>
  <speed>0.0</speed>
  <fix>3d</fix>
</trkpt>
<trkpt lat="40.0713749" lon="-105.229789">
  <ele>1583.0</ele>
  <time>2026-09-02T20:50:36Z</time>
  <course>0.0</course>
  <speed>0.0</speed>
  <fix>3d</fix>
</trkpt>
<trkpt lat="40.0713749" lon="-105.229789">
  <ele>1583.0</ele>
  <time>2026-09-02T20:50:36Z</time>
  <course>0.0</course>
  <speed>0.0</speed>
  <fix>3d</fix>
</trkpt>
<trkpt lat="40.0713749" lon="-105.229789">
  <ele>1583.0</ele>
  <time>2026-09-02T20:50:36Z</time>
  <course>0.0</course>
  <speed>0.0</speed>
  <fix>3d</fix>
</trkpt>
<trkpt lat="40.0713749" lon="-105.229789">
  <ele>1583.0</ele>
  <time>2026-09-02T20:50:36Z</time>
  <course>0.0</course>
  <speed>0.0</speed>
  <fix>3d</fix>
</trkpt>
<trkpt lat="40.0713749" lon="-105.229789">
  <ele>1583.0</ele>
  <time>2026-09-02T20:50:36Z</time>
  <course>0.0</course>
  <speed>0.0</speed>
  <fix>3d</fix>
</trkpt>
<trkpt lat="40.0713749" lon="-105.229789">
  <ele>1583.0</ele>
  <time>2026-09-02T20:50:36Z</time>
  <course>0.0</course>
  <speed>0.0</speed>
  <fix>3d</fix>
</trkpt>
<trkpt lat="40.0713749" lon="-105.229789">
  <ele>1583.0</ele>
  <time>2026-09-02T20:50:36Z</time>
  <course>0.0</course>
  <speed>0.0</speed>
  <fix>3d</fix>
</trkpt>
<trkpt lat="40.0713749" lon="-105.229789">
  <ele>1583.0</ele>
  <time>2026-09-02T20:50:36Z</time>
  <course>0.0</course>
  <speed>0.0</speed>
  <fix>3d</fix>
</trkpt>
<trkpt lat="40.0713749" lon="-105.229789">
  <ele>1583.0</ele>
  <time>2026-09-02T20:50:36Z</time>
  <course>0.0</course>
  <speed>0.0</speed>
  <fix>3d</fix>
</trkpt>
<trkpt lat="40.0713749" lon="-105.229789">
  <ele>1583.0</ele>
  <time>2026-09-02T20:50:36Z</time>
  <course>0.0</course>
  <speed>0.0</speed>
  <fix>3d</fix>
</trkpt>
<trkpt lat="40.0713749" lon="-105.229789">
  <ele>1583.0</ele>
  <time>2026-09-02T20:50:36Z</time>
  <course>0.0</course>
  <speed>0.0</speed>
  <fix>3d</fix>
</trkpt>
<trkpt lat="40.0713749" lon="-105.229789">
  <ele>1583.0</ele>
  <time>2026-09-02T20:50:36Z</time>
  <course>0.0</course>
  <speed>0.0</speed>
  <fix>3d</fix>
</trkpt>
<trkpt lat="40.0713749" lon="-105.229789">
  <ele>1583.0</ele>
  <time>2026-09-02T20:50:36Z</time>
  <course>0.0</course>
  <speed>0.0</speed>
  <fix>3d</fix>
</trkpt>
<trkpt lat="40.0713749" lon="-105.229789">
  <ele>1583.0</ele>
  <time>2026-09-02T20:50:36Z</time>
  <course>0.0</course>
  <speed>0.0</speed>
  <fix>3d</fix>
</trkpt>
<trkpt lat="40.0713749" lon="-105.229789">
  <ele>1583.0</ele>
  <time>2026-09-02T20:50:36Z</time>
  <course>0.0</course>
  <speed>0.0</speed>
  <fix>3d</fix>
</trkpt>
<trkpt lat="40.0713749" lon="-105.229789">
  <ele>1583.0</ele>
  <time>2026-09-02T20:50:36Z</time>
  <course>0.0</course>
  <speed>0.0</speed>
  <fix>3d</fix>
</trkpt>
<trkpt lat="40.0713749" lon="-105.229789">
  <ele>1583.0</ele>
  <time>2026-09-02T20:50:36Z</time>
  <course>0.0</course>
  <speed>0.0</speed>
  <fix>3d</fix>
</trkpt>
<trkpt lat="40.0713749" lon="-105.229789">
  <ele>1583.0</ele>
  <time>2026-09-02T20:50:36Z</time>
  <course>0.0</course>
  <speed>0.0</speed>
  <fix>3d</fix>
</trkpt>
<trkpt lat="40.0713749" lon="-105.229789">
  <ele>1583.0</ele>
  <time>2026-09-02T20:50:36Z</time>
  <course>0.0</course>
  <speed>0.0</speed>
  <fix>3d</fix>
</trkpt>
<trkpt lat="40.0713749" lon="-105.229789">
  <ele>1583.0</ele>
  <time>2026-09-02T20:50:36Z</time>
  <course>0.0</course>
  <speed>0.0</speed>
  <fix>3d</fix>
</trkpt>
<trkpt lat="40.0713749" lon="-105.229789">
  <ele>1583.0</ele>
  <time>2026-09-02T20:50:36Z</time>
  <course>0.0</course>
  <speed>0.0</speed>
  <fix>3d</fix>
</trkpt>
<trkpt lat="40.0713749" lon="-105.229789">
  <ele>1583.0</ele>
  <time>2026-09-02T20:50:36Z</time>
  <course>0.0</course>
  <speed>0.0</speed>
  <fix>3d</fix>
</trkpt>
<trkpt lat="40.0713749" lon="-105.229789">
  <ele>1583.0</ele>
  <time>2026-09-02T20:50:36Z</time>
  <course>0.0</course>
  <speed>0.0</speed>
  <fix>3d</fix>
</trkpt>
<trkpt lat="40.0713749" lon="-105.229789">
  <ele>1583.0</ele>
  <time>2026-09-02T20:50:36Z</time>
  <course>0.0</course>
  <speed>0.0</speed>
  <fix>3d</fix>
</trkpt>
<trkpt lat="40.0713749" lon="-105.229789">
  <ele>1583.0</ele>
  <time>2026-09-02T20:50:36Z</time>
  <course>0.0</course>
  <speed>0.0</speed>
  <fix>3d</fix>
</trkpt>
<trkpt lat="40.0713749" lon="-105.229789">
  <ele>1583.0</ele>
  <time>2026-09-02T20:50:36Z</time>
  <course>0.0</course>
  <speed>0.0</speed>
  <fix>3d</fix>
</trkpt>
<trkpt lat="40.0713749" lon="-105.229789">
  <ele>1583.0</ele>
  <time>2026-09-02T20:50:36Z</time>
  <course>0.0</course>
  <speed>0.0</speed>
  <fix>3d</fix>
</trkpt>
<trkpt lat="40.0713749" lon="-105.229789">
  <ele>1583.0</ele>
  <time>2026-09-02T20:50:36Z</time>
  <course>0.0</course>
  <speed>0.0</speed>
  <fix>3d</fix>
</trkpt>
<trkpt lat="40.0713749" lon="-105.229789">
  <ele>1583.0</ele>
  <time>2026-09-02T20:50:36Z</time>
  <course>0.0</course>
  <speed>0.0</speed>
  <fix>3d</fix>
</trkpt>
<trkpt lat="40.0713749" lon="-105.229789">
  <ele>1583.0</ele>
  <time>2026-09-02T20:50:36Z</time>
  <course>0.0</course>
  <speed>0.0</speed>
  <fix>3d</fix>
</trkpt>
<trkpt lat="40.0713749" lon="-105.229789">
  <ele>1583.0</ele>
  <time>2026-09-02T20:50:36Z</time>
  <course>0.0</course>
  <speed>0.0</speed>
  <fix>3d</fix>
</trkpt>
<trkpt lat="40.0713749" lon="-105.229789">
  <ele>1583.0</ele>
  <time>2026-09-02T20:50:36Z</time>
  <course>0.0</course>
  <speed>0.0</speed>
  <fix>3d</fix>
</trkpt>
<trkpt lat="40.0713749" lon="-105.229789">
  <ele>1583.0</ele>
  <time>2026-09-02T20:50:36Z</time>
  <course>0.0</course>
  <speed>0.0</speed>
  <fix>3d</fix>
</trkpt>
<trkpt lat="40.0713749" lon="-105.229789">
  <ele>1583.0</ele>
  <time>2026-09-02T20:50:36Z</time>
  <course>0.0</course>
  <speed>0.0</speed>
  <fix>3d</fix>
</trkpt>
<trkpt lat="40.0713749" lon="-105.229789">
  <ele>1583.0</ele>
  <time>2026-09-02T20:50:36Z</time>
  <course>0.0</course>
  <speed>0.0</speed>
  <fix>3d</fix>
</trkpt>
<trkpt lat="40.0713749" lon="-105.229789">
  <ele>1583.0</ele>
  <time>2026-09-02T20:50:36Z</time>
  <course>0.0</course>
  <speed>0.0</speed>
  <fix>3d</fix>
</trkpt>
<trkpt lat="40.0713749" lon="-105.229789">
  <ele>1583.0</ele>
  <time>2026-09-02T20:50:36Z</time>
  <course>0.0</course>
  <speed>0.0</speed>
  <fix>3d</fix>
</trkpt>
<trkpt lat="40.0713749" lon="-105.229789">
  <ele>1583.0</ele>
  <time>2026-09-02T20:50:36Z</time>
  <course>0.0</course>
  <speed>0.0</speed>
  <fix>3d</fix>
</trkpt>
<trkpt lat="40.0713749" lon="-105.229789">
  <ele>1583.0</ele>
  <time>2026-09-02T20:50:36Z</time>
  <course>0.0</course>
  <speed>0.0</speed>
  <fix>3d</fix>
</trkpt>
<trkpt lat="40.0713749" lon="-105.229789">
  <ele>1583.0</ele>
  <time>2026-09-02T20:50:36Z</time>
  <course>0.0</course>
  <speed>0.0</speed>
  <fix>3d</fix>
</trkpt>
<trkpt lat="40.0713749" lon="-105.229789">
  <ele>1583.0</ele>
  <time>2026-09-02T20:50:36Z</time>
  <course>0.0</course>
  <speed>0.0</speed>
  <fix>3d</fix>
</trkpt>
<trkpt lat="40.0713749" lon="-105.229789">
  <ele>1583.0</ele>
  <time>2026-09-02T20:50:36Z</time>
  <course>0.0</course>
  <speed>0.0</speed>
  <fix>3d</fix>
</trkpt>
<trkpt lat="40.0713749" lon="-105.229789">
  <ele>1583.0</ele>
  <time>2026-09-02T20:50:36Z</time>
  <course>0.0</course>
  <speed>0.0</speed>
  <fix>3d</fix>
</trkpt>
<trkpt lat="40.0713749" lon="-105.229789">
  <ele>1583.0</ele>
  <time>2026-09-02T20:50:36Z</time>
  <course>0.0</course>
  <speed>0.0</speed>
  <fix>3d</fix>
</trkpt>
<trkpt lat="40.0713749" lon="-105.229789">
  <ele>1583.0</ele>
  <time>2026-09-02T20:50:36Z</time>
  <course>0.0</course>
  <speed>0.0</speed>
  <fix>3d</fix>
</trkpt>
<trkpt lat="40.0713749" lon="-105.229789">
  <ele>1583.0</ele>
  <time>2026-09-02T20:50:36Z</time>
  <course>0.0</course>
  <speed>0.0</speed>
  <fix>3d</fix>
</trkpt>
<trkpt lat="40.0713749" lon="-105.229789">
  <ele>1583.0</ele>
  <time>2026-09-02T20:50:36Z</time>
  <course>0.0</course>
  <speed>0.0</speed>
  <fix>3d</fix>
</trkpt>
<trkpt lat="40.0713749" lon="-105.229789">
  <ele>1583.0</ele>
  <time>2026-09-02T20:50:36Z</time>
  <course>0.0</course>
  <speed>0.0</speed>
  <fix>3d</fix>
</trkpt>
<trkpt lat="40.0713749" lon="-105.229789">
  <ele>1583.0</ele>
  <time>2026-09-02T20:50:36Z</time>
  <course>0.0</course>
  <speed>0.0</speed>
  <fix>3d</fix>
</trkpt>
<trkpt lat="40.0713749" lon="-105.229789">
  <ele>1583.0</ele>
  <time>2026-09-02T20:50:36Z</time>
  <course>0.0</course>
  <speed>0.0</speed>
  <fix>3d</fix>
</trkpt>
<trkpt lat="40.0713749" lon="-105.229789">
  <ele>1583.0</ele>
  <time>2026-09-02T20:50:36Z</time>
  <course>0.0</course>
  <speed>0.0</speed>
  <fix>3d</fix>
</trkpt>
<trkpt lat="40.0713749" lon="-105.229789">
  <ele>1583.0</ele>
  <time>2026-09-02T20:50:36Z</time>
  <course>0.0</course>
  <speed>0.0</speed>
  <fix>3d</fix>
</trkpt>
<trkpt lat="40.0713749" lon="-105.229789">
  <ele>1583.0</ele>
  <time>2026-09-02T20:50:36Z</time>
  <course>0.0</course>
  <speed>0.0</speed>
  <fix>3d</fix>
</trkpt>
<trkpt lat="40.0713749" lon="-105.229789">
  <ele>1583.0</ele>
  <time>2026-09-02T20:50:36Z</time>
  <course>0.0</course>
  <speed>0.0</speed>
  <fix>3d</fix>
</trkpt>
<trkpt lat="40.0713749" lon="-105.229789">
  <ele>1583.0</ele>
  <time>2026-09-02T20:50:36Z</time>
  <course>0.0</course>
  <speed>0.0</speed>
  <fix>3d</fix>
</trkpt>
<trkpt lat="40.0713749" lon="-105.229789">
  <ele>1583.0</ele>
  <time>2026-09-02T20:50:36Z</time>
  <course>0.0</course>
  <speed>0.0</speed>
  <fix>3d</fix>
</trkpt>
<trkpt lat="40.0713749" lon="-105.229789">
  <ele>1583.0</ele>
  <time>2026-09-02T20:50:36Z</time>
  <course>0.0</course>
  <speed>0.0</speed>
  <fix>3d</fix>
</trkpt>
<trkpt lat="40.0713749" lon="-105.229789">
  <ele>1583.0</ele>
  <time>2026-09-02T20:50:36Z</time>
  <course>0.0</course>
  <speed>0.0</speed>
  <fix>3d</fix>
</trkpt>
<trkpt lat="40.0713749" lon="-105.229789">
  <ele>1583.0</ele>
  <time>2026-09-02T20:50:36Z</time>
  <course>0.0</course>
  <speed>0.0</speed>
  <fix>3d</fix>
</trkpt>
<trkpt lat="40.0713749" lon="-105.229789">
  <ele>1583.0</ele>
  <time>2026-09-02T20:50:36Z</time>
  <course>0.0</course>
  <speed>0.0</speed>
  <fix>3d</fix>
</trkpt>
<trkpt lat="40.0713749" lon="-105.229789">
  <ele>1583.0</ele>
  <time>2026-09-02T20:50:36Z</time>
  <course>0.0</course>
  <speed>0.0</speed>
  <fix>3d</fix>
</trkpt>
<trkpt lat="40.0713749" lon="-105.229789">
  <ele>1583.0</ele>
  <time>2026-09-02T20:50:36Z</time>
  <course>0.0</course>
  <speed>0.0</speed>
  <fix>3d</fix>
</trkpt>
<trkpt lat="40.0713749" lon="-105.229789">
  <ele>1583.0</ele>
  <time>2026-09-02T20:50:36Z</time>
  <course>0.0</course>
  <speed>0.0</speed>
  <fix>3d</fix>
</trkpt>
<trkpt lat="40.0713749" lon="-105.229789">
  <ele>1583.0</ele>
  <time>2026-09-02T20:50:36Z</time>
  <course>0.0</course>
  <speed>0.0</speed>
  <fix>3d</fix>
</trkpt>
<trkpt lat="40.0713749" lon="-105.229789">
  <ele>1583.0</ele>
  <time>2026-09-02T20:50:36Z</time>
  <course>0.0</course>
  <speed>0.0</speed>
  <fix>3d</fix>
</trkpt>
<trkpt lat="40.0713749" lon="-105.229789">
  <ele>1583.0</ele>
  <time>2026-09-02T20:50:36Z</time>
  <course>0.0</course>
  <speed>0.0</speed>
  <fix>3d</fix>
</trkpt>
<trkpt lat="40.0713749" lon="-105.229789">
  <ele>1583.0</ele>
  <time>2026-09-02T20:50:36Z</time>
  <course>0.0</course>
  <speed>0.0</speed>
  <fix>3d</fix>
</trkpt>
<trkpt lat="40.0713749" lon="-105.229789">
  <ele>1583.0</ele>
  <time>2026-09-02T20:50:36Z</time>
  <course>0.0</course>
  <speed>0.0</speed>
  <fix>3d</fix>
</trkpt>
<trkpt lat="40.0713749" lon="-105.229789">
  <ele>1583.0</ele>
  <time>2026-09-02T20:50:36Z</time>
  <course>0.0</course>
  <speed>0.0</speed>
  <fix>3d</fix>
</trkpt>
<trkpt lat="40.0713749" lon="-105.229789">
  <ele>1583.0</ele>
  <time>2026-09-02T20:50:36Z</time>
  <course>0.0</course>
  <speed>0.0</speed>
  <fix>3d</fix>
</trkpt>
<trkpt lat="40.0713749" lon="-105.229789">
  <ele>1583.0</ele>
  <time>2026-09-02T20:50:36Z</time>
  <course>0.0</course>
  <speed>0.0</speed>
  <fix>3d</fix>
</trkpt>
<trkpt lat="40.0713749" lon="-105.229789">
  <ele>1583.0</ele>
  <time>2026-09-02T20:50:36Z</time>
  <course>0.0</course>
  <speed>0.0</speed>
  <fix>3d</fix>
</trkpt>
<trkpt lat="40.0713749" lon="-105.229789">
  <ele>1583.0</ele>
  <time>2026-09-02T20:50:36Z</time>
  <course>0.0</course>
  <speed>0.0</speed>
  <fix>3d</fix>
</trkpt>
<trkpt lat="40.0713749" lon="-105.229789">
  <ele>1583.0</ele>
  <time>2026-09-02T20:50:36Z</time>
  <course>0.0</course>
  <speed>0.0</speed>
  <fix>3d</fix>
</trkpt>
<trkpt lat="40.0713749" lon="-105.229789">
  <ele>1583.0</ele>
  <time>2026-09-02T20:50:36Z</time>
  <course>0.0</course>
  <speed>0.0</speed>
  <fix>3d</fix>
</trkpt>
<trkpt lat="40.0713749" lon="-105.229789">
  <ele>1583.0</ele>
  <time>2026-09-02T20:50:36Z</time>
  <course>0.0</course>
  <speed>0.0</speed>
  <fix>3d</fix>
</trkpt>
<trkpt lat="40.0713749" lon="-105.229789">
  <ele>1583.0</ele>
  <time>2026-09-02T20:50:36Z</time>
  <course>0.0</course>
  <speed>0.0</speed>
  <fix>3d</fix>
</trkpt>
<trkpt lat="40.0713749" lon="-105.229789">
  <ele>1583.0</ele>
  <time>2026-09-02T20:50:36Z</time>
  <course>0.0</course>
  <speed>0.0</speed>
  <fix>3d</fix>
</trkpt>
<trkpt lat="40.0713749" lon="-105.229789">
  <ele>1583.0</ele>
  <time>2026-09-02T20:50:36Z</time>
  <course>0.0</course>
  <speed>0.0</speed>
  <fix>3d</fix>
</trkpt>
<trkpt lat="40.0713749" lon="-105.229789">
  <ele>1583.0</ele>
  <time>2026-09-02T20:50:36Z</time>
  <course>0.0</course>
  <speed>0.0</speed>
  <fix>3d</fix>
</trkpt>
<trkpt lat="40.0713749" lon="-105.229789">
  <ele>1583.0</ele>
  <time>2026-09-02T20:50:36Z</time>
  <course>0.0</course>
  <speed>0.0</speed>
  <fix>3d</fix>
</trkpt>
<trkpt lat="40.0713749" lon="-105.229789">
  <ele>1583.0</ele>
  <time>2026-09-02T20:50:36Z</time>
  <course>0.0</course>
  <speed>0.0</speed>
  <fix>3d</fix>
</trkpt>
<trkpt lat="40.0713749" lon="-105.229789">
  <ele>1583.0</ele>
  <time>2026-09-02T20:50:36Z</time>
  <course>0.0</course>
  <speed>0.0</speed>
  <fix>3d</fix>
</trkpt>
<trkpt lat="40.0713749" lon="-105.229789">
  <ele>1583.0</ele>
  <time>2026-09-02T20:50:36Z</time>
  <course>0.0</course>
  <speed>0.0</speed>
  <fix>3d</fix>
</trkpt>
<trkpt lat="40.0713749" lon="-105.229789">
  <ele>1583.0</ele>
  <time>2026-09-02T20:50:36Z</time>
  <course>0.0</course>
  <speed>0.0</speed>
  <fix>3d</fix>
</trkpt>
<trkpt lat="40.0713749" lon="-105.229789">
  <ele>1583.0</ele>
  <time>2026-09-02T20:50:36Z</time>
  <course>0.0</course>
  <speed>0.0</speed>
  <fix>3d</fix>
</trkpt>
<trkpt lat="40.0713749" lon="-105.229789">
  <ele>1583.0</ele>
  <time>2026-09-02T20:50:36Z</time>
  <course>0.0</course>
  <speed>0.0</speed>
  <fix>3d</fix>
</trkpt>
<trkpt lat="40.0713749" lon="-105.229789">
  <ele>1583.0</ele>
  <time>2026-09-02T20:50:36Z</time>
  <course>0.0</course>
  <speed>0.0</speed>
  <fix>3d</fix>
</trkpt>
<trkpt lat="39.655741" lon="-104.1383097">
  <ele>1566.58</ele>
  <time>2026-09-02T20:50:36Z</time>
  <course>0.0</course>
  <speed>0.0</speed>
  <fix>3d</fix>
</trkpt>
<trkpt lat="40.0713749" lon="-105.229789">
  <ele>1583.0</ele>
  <time>2026-09-02T20:50:36Z</time>
  <course>0.0</course>
  <speed>0.0</speed>
  <fix>3d</fix>
</trkpt>
<trkpt lat="40.0713749" lon="-105.229789">
  <ele>1583.0</ele>
  <time>2026-09-02T20:50:36Z</time>
  <course>0.0</course>
  <speed>0.0</speed>
  <fix>3d</fix>
</trkpt>
<trkpt lat="40.0713749" lon="-105.229789">
  <ele>1583.0</ele>
  <time>2026-09-02T20:50:36Z</time>
  <course>0.0</course>
  <speed>0.0</speed>
  <fix>3d</fix>
</trkpt>
<trkpt lat="40.0713749" lon="-105.229789">
  <ele>1583.0</ele>
  <time>2026-09-02T20:50:36Z</time>
  <course>0.0</course>
  <speed>0.0</speed>
  <fix>3d</fix>
</trkpt>
<trkpt lat="40.0713749" lon="-105.229789">
  <ele>1583.0</ele>
  <time>2026-09-02T20:50:36Z</time>
  <course>0.0</course>
  <speed>0.0</speed>
  <fix>3d</fix>
</trkpt>
<trkpt lat="40.0713749" lon="-105.229789">
  <ele>1583.0</ele>
  <time>2026-09-02T20:50:36Z</time>
  <course>0.0</course>
  <speed>0.0</speed>
  <fix>3d</fix>
</trkpt>
<trkpt lat="40.0713749" lon="-105.229789">
  <ele>1583.0</ele>
  <time>2026-09-02T20:50:36Z</time>
  <course>0.0</course>
  <speed>0.0</speed>
  <fix>3d</fix>
</trkpt>
<trkpt lat="40.0713749" lon="-105.229789">
  <ele>1583.0</ele>
  <time>2026-09-02T20:50:36Z</time>
  <course>0.0</course>
  <speed>0.0</speed>
  <fix>3d</fix>
</trkpt>
<trkpt lat="40.0713749" lon="-105.229789">
  <ele>1583.0</ele>
  <time>2026-09-02T20:50:36Z</time>
  <course>0.0</course>
  <speed>0.0</speed>
  <fix>3d</fix>
</trkpt>
<trkpt lat="40.0713749" lon="-105.229789">
  <ele>1583.0</ele>
  <time>2026-09-02T20:50:36Z</time>
  <course>0.0</course>
  <speed>0.0</speed>
  <fix>3d</fix>
</trkpt>
<trkpt lat="40.0713749" lon="-105.229789">
  <ele>1583.0</ele>
  <time>2026-09-02T20:50:36Z</time>
  <course>0.0</course>
  <speed>0.0</speed>
  <fix>3d</fix>
</trkpt>
<trkpt lat="40.0713749" lon="-105.229789">
  <ele>1583.0</ele>
  <time>2026-09-02T20:50:36Z</time>
  <course>0.0</course>
  <speed>0.0</speed>
  <fix>3d</fix>
</trkpt>
<trkpt lat="40.0713749" lon="-105.229789">
  <ele>1583.0</ele>
  <time>2026-09-02T20:50:36Z</time>
  <course>0.0</course>
  <speed>0.0</speed>
  <fix>3d</fix>
</trkpt>
<trkpt lat="40.0713749" lon="-105.229789">
  <ele>1583.0</ele>
  <time>2026-09-02T20:50:36Z</time>
  <course>0.0</course>
  <speed>0.0</speed>
  <fix>3d</fix>
</trkpt>
<trkpt lat="40.0713749" lon="-105.229789">
  <ele>1583.0</ele>
  <time>2026-09-02T20:50:36Z</time>
  <course>0.0</course>
  <speed>0.0</speed>
  <fix>3d</fix>
</trkpt>
<trkpt lat="40.0713749" lon="-105.229789">
  <ele>1583.0</ele>
  <time>2026-09-02T20:50:36Z</time>
  <course>0.0</course>
  <speed>0.0</speed>
  <fix>3d</fix>
</trkpt>
<trkpt lat="40.0713749" lon="-105.229789">
  <ele>1583.0</ele>
  <time>2026-09-02T20:50:36Z</time>
  <course>0.0</course>
  <speed>0.0</speed>
  <fix>3d</fix>
</trkpt>
<trkpt lat="40.0713749" lon="-105.229789">
  <ele>1583.0</ele>
  <time>2026-09-02T20:50:36Z</time>
  <course>0.0</course>
  <speed>0.0</speed>
  <fix>3d</fix>
</trkpt>
<trkpt lat="40.0713749" lon="-105.229789">
  <ele>1583.0</ele>
  <time>2026-09-02T20:50:36Z</time>
  <course>0.0</course>
  <speed>0.0</speed>
  <fix>3d</fix>
</trkpt>
<trkpt lat="40.0713749" lon="-105.229789">
  <ele>1583.0</ele>
  <time>2026-09-02T20:50:36Z</time>
  <course>0.0</course>
  <speed>0.0</speed>
  <fix>3d</fix>
</trkpt>
<trkpt lat="40.0713749" lon="-105.229789">
  <ele>1583.0</ele>
  <time>2026-09-02T20:50:36Z</time>
  <course>0.0</course>
  <speed>0.0</speed>
  <fix>3d</fix>
</trkpt>
<trkpt lat="40.0713749" lon="-105.229789">
  <ele>1583.0</ele>
  <time>2026-09-02T20:50:36Z</time>
  <course>0.0</course>
  <speed>0.0</speed>
  <fix>3d</fix>
</trkpt>
<trkpt lat="40.0713749" lon="-105.229789">
  <ele>1583.0</ele>
  <time>2026-09-02T20:50:36Z</time>
  <course>0.0</course>
  <speed>0.0</speed>
  <fix>3d</fix>
</trkpt>
<trkpt lat="40.0713749" lon="-105.229789">
  <ele>1583.0</ele>
  <time>2026-09-02T20:50:36Z</time>
  <course>0.0</course>
  <speed>0.0</speed>
  <fix>3d</fix>
</trkpt>
<trkpt lat="40.0713749" lon="-105.229789">
  <ele>1583.0</ele>
  <time>2026-09-02T20:50:36Z</time>
  <course>0.0</course>
  <speed>0.0</speed>
  <fix>3d</fix>
</trkpt>
<trkpt lat="40.0713749" lon="-105.229789">
  <ele>1583.0</ele>
  <time>2026-09-02T20:50:36Z</time>
  <course>0.0</course>
  <speed>0.0</speed>
  <fix>3d</fix>
</trkpt>
<trkpt lat="40.0713749" lon="-105.229789">
  <ele>1583.0</ele>
  <time>2026-09-02T20:50:36Z</time>
  <course>0.0</course>
  <speed>0.0</speed>
  <fix>3d</fix>
</trkpt>
<trkpt lat="40.0713749" lon="-105.229789">
  <ele>1583.0</ele>
  <time>2026-09-02T20:50:36Z</time>
  <course>0.0</course>
  <speed>0.0</speed>
  <fix>3d</fix>
</trkpt>
<trkpt lat="40.0713749" lon="-105.229789">
  <ele>1583.0</ele>
  <time>2026-09-02T20:50:36Z</time>
  <course>0.0</course>
  <speed>0.0</speed>
  <fix>3d</fix>
</trkpt>
<trkpt lat="40.0713749" lon="-105.229789">
  <ele>1583.0</ele>
  <time>2026-09-02T20:50:36Z</time>
  <course>0.0</course>
  <speed>0.0</speed>
  <fix>3d</fix>
</trkpt>
<trkpt lat="40.0713749" lon="-105.229789">
  <ele>1583.0</ele>
  <time>2026-09-02T20:50:36Z</time>
  <course>0.0</course>
  <speed>0.0</speed>
  <fix>3d</fix>
</trkpt>
<trkpt lat="40.0713749" lon="-105.229789">
  <ele>1583.0</ele>
  <time>2026-09-02T20:50:36Z</time>
  <course>0.0</course>
  <speed>0.0</speed>
  <fix>3d</fix>
</trkpt>
<trkpt lat="40.0713749" lon="-105.229789">
  <ele>1583.0</ele>
  <time>2026-09-02T20:50:36Z</time>
  <course>0.0</course>
  <speed>0.0</speed>
  <fix>3d</fix>
</trkpt>
<trkpt lat="40.0713749" lon="-105.229789">
  <ele>1583.0</ele>
  <time>2026-09-02T20:50:36Z</time>
  <course>0.0</course>
  <speed>0.0</speed>
  <fix>3d</fix>
</trkpt>
<trkpt lat="40.0713749" lon="-105.229789">
  <ele>1583.0</ele>
  <time>2026-09-02T20:50:36Z</time>
  <course>0.0</course>
  <speed>0.0</speed>
  <fix>3d</fix>
</trkpt>
<trkpt lat="40.0713749" lon="-105.229789">
  <ele>1583.0</ele>
  <time>2026-09-02T20:50:36Z</time>
  <course>0.0</course>
  <speed>0.0</speed>
  <fix>3d</fix>
</trkpt>
<trkpt lat="40.0713749" lon="-105.229789">
  <ele>1583.0</ele>
  <time>2026-09-02T20:50:36Z</time>
  <course>0.0</course>
  <speed>0.0</speed>
  <fix>3d</fix>
</trkpt>
<trkpt lat="40.0713749" lon="-105.229789">
  <ele>1583.0</ele>
  <time>2026-09-02T20:50:36Z</time>
  <course>0.0</course>
  <speed>0.0</speed>
  <fix>3d</fix>
</trkpt>
<trkpt lat="40.0713749" lon="-105.229789">
  <ele>1583.0</ele>
  <time>2026-09-02T20:50:36Z</time>
  <course>0.0</course>
  <speed>0.0</speed>
  <fix>3d</fix>
</trkpt>
<trkpt lat="40.0713749" lon="-105.229789">
  <ele>1583.0</ele>
  <time>2026-09-02T20:50:36Z</time>
  <course>0.0</course>
  <speed>0.0</speed>
  <fix>3d</fix>
</trkpt>
<trkpt lat="40.0713749" lon="-105.229789">
  <ele>1583.0</ele>
  <time>2026-09-02T20:50:36Z</time>
  <course>0.0</course>
  <speed>0.0</speed>
  <fix>3d</fix>
</trkpt>
<trkpt lat="40.0713749" lon="-105.229789">
  <ele>1583.0</ele>
  <time>2026-09-02T20:50:36Z</time>
  <course>0.0</course>
  <speed>0.0</speed>
  <fix>3d</fix>
</trkpt>
<trkpt lat="40.0713749" lon="-105.229789">
  <ele>1583.0</ele>
  <time>2026-09-02T20:50:36Z</time>
  <course>0.0</course>
  <speed>0.0</speed>
  <fix>3d</fix>
</trkpt>
<trkpt lat="40.0713749" lon="-105.229789">
  <ele>1583.0</ele>
  <time>2026-09-02T20:50:36Z</time>
  <course>0.0</course>
  <speed>0.0</speed>
  <fix>3d</fix>
</trkpt>
<trkpt lat="40.0713749" lon="-105.229789">
  <ele>1583.0</ele>
  <time>2026-09-02T20:50:36Z</time>
  <course>0.0</course>
  <speed>0.0</speed>
  <fix>3d</fix>
</trkpt>
<trkpt lat="40.0713749" lon="-105.229789">
  <ele>1583.0</ele>
  <time>2026-09-02T20:50:36Z</time>
  <course>0.0</course>
  <speed>0.0</speed>
  <fix>3d</fix>
</trkpt>
<trkpt lat="40.0713749" lon="-105.229789">
  <ele>1583.0</ele>
  <time>2026-09-02T20:50:36Z</time>
  <course>0.0</course>
  <speed>0.0</speed>
  <fix>3d</fix>
</trkpt>
<trkpt lat="40.0713749" lon="-105.229789">
  <ele>1583.0</ele>
  <time>2026-09-02T20:50:36Z</time>
  <course>0.0</course>
  <speed>0.0</speed>
  <fix>3d</fix>
</trkpt>
<trkpt lat="40.0713749" lon="-105.229789">
  <ele>1583.0</ele>
  <time>2026-09-02T20:50:36Z</time>
  <course>0.0</course>
  <speed>0.0</speed>
  <fix>3d</fix>
</trkpt>
<trkpt lat="40.0713749" lon="-105.229789">
  <ele>1583.0</ele>
  <time>2026-09-02T20:50:36Z</time>
  <course>0.0</course>
  <speed>0.0</speed>
  <fix>3d</fix>
</trkpt>
<trkpt lat="40.0713749" lon="-105.229789">
  <ele>1583.0</ele>
  <time>2026-09-02T20:50:36Z</time>
  <course>0.0</course>
  <speed>0.0</speed>
  <fix>3d</fix>
</trkpt>
<trkpt lat="40.0713749" lon="-105.229789">
  <ele>1583.0</ele>
  <time>2026-09-02T20:50:36Z</time>
  <course>0.0</course>
  <speed>0.0</speed>
  <fix>3d</fix>
</trkpt>
<trkpt lat="40.0713749" lon="-105.229789">
  <ele>1583.0</ele>
  <time>2026-09-02T20:50:36Z</time>
  <course>0.0</course>
  <speed>0.0</speed>
  <fix>3d</fix>
</trkpt>
<trkpt lat="40.0713749" lon="-105.229789">
  <ele>1583.0</ele>
  <time>2026-09-02T20:50:36Z</time>
  <course>0.0</course>
  <speed>0.0</speed>
  <fix>3d</fix>
</trkpt>
<trkpt lat="40.0713749" lon="-105.229789">
  <ele>1583.0</ele>
  <time>2026-09-02T20:50:36Z</time>
  <course>0.0</course>
  <speed>0.0</speed>
  <fix>3d</fix>
</trkpt>
<trkpt lat="40.0713749" lon="-105.229789">
  <ele>1583.0</ele>
  <time>2026-09-02T20:50:36Z</time>
  <course>0.0</course>
  <speed>0.0</speed>
  <fix>3d</fix>
</trkpt>
<trkpt lat="40.0713749" lon="-105.229789">
  <ele>1583.0</ele>
  <time>2026-09-02T20:50:36Z</time>
  <course>0.0</course>
  <speed>0.0</speed>
  <fix>3d</fix>
</trkpt>
<trkpt lat="40.0713749" lon="-105.229789">
  <ele>1583.0</ele>
  <time>2026-09-02T20:50:36Z</time>
  <course>0.0</course>
  <speed>0.0</speed>
  <fix>3d</fix>
</trkpt>
<trkpt lat="40.0713749" lon="-105.229789">
  <ele>1583.0</ele>
  <time>2026-09-02T20:50:36Z</time>
  <course>0.0</course>
  <speed>0.0</speed>
  <fix>3d</fix>
</trkpt>
<trkpt lat="40.0713749" lon="-105.229789">
  <ele>1583.0</ele>
  <time>2026-09-02T20:50:36Z</time>
  <course>0.0</course>
  <speed>0.0</speed>
  <fix>3d</fix>
</trkpt>
<trkpt lat="40.0713749" lon="-105.229789">
  <ele>1583.0</ele>
  <time>2026-09-02T20:50:36Z</time>
  <course>0.0</course>
  <speed>0.0</speed>
  <fix>3d</fix>
</trkpt>
<trkpt lat="40.0713749" lon="-105.229789">
  <ele>1583.0</ele>
  <time>2026-09-02T20:50:36Z</time>
  <course>0.0</course>
  <speed>0.0</speed>
  <fix>3d</fix>
</trkpt>
<trkpt lat="40.0713749" lon="-105.229789">
  <ele>1583.0</ele>
  <time>2026-09-02T20:50:36Z</time>
  <course>0.0</course>
  <speed>0.0</speed>
  <fix>3d</fix>
</trkpt>
<trkpt lat="40.0713749" lon="-105.229789">
  <ele>1583.0</ele>
  <time>2026-09-02T20:50:36Z</time>
  <course>0.0</course>
  <speed>0.0</speed>
  <fix>3d</fix>
</trkpt>
<trkpt lat="40.0713749" lon="-105.229789">
  <ele>1583.0</ele>
  <time>2026-09-02T20:50:36Z</time>
  <course>0.0</course>
  <speed>0.0</speed>
  <fix>3d</fix>
</trkpt>
<trkpt lat="40.0713749" lon="-105.229789">
  <ele>1583.0</ele>
  <time>2026-09-02T20:50:36Z</time>
  <course>0.0</course>
  <speed>0.0</speed>
  <fix>3d</fix>
</trkpt>
<trkpt lat="40.0713749" lon="-105.229789">
  <ele>1583.0</ele>
  <time>2026-09-02T20:50:36Z</time>
  <course>0.0</course>
  <speed>0.0</speed>
  <fix>3d</fix>
</trkpt>
<trkpt lat="40.0713749" lon="-105.229789">
  <ele>1583.0</ele>
  <time>2026-09-02T20:50:36Z</time>
  <course>0.0</course>
  <speed>0.0</speed>
  <fix>3d</fix>
</trkpt>
<trkpt lat="40.0713749" lon="-105.229789">
  <ele>1583.0</ele>
  <time>2026-09-02T20:50:36Z</time>
  <course>0.0</course>
  <speed>0.0</speed>
  <fix>3d</fix>
</trkpt>
<trkpt lat="40.0713749" lon="-105.229789">
  <ele>1583.0</ele>
  <time>2026-09-02T20:50:36Z</time>
  <course>0.0</course>
  <speed>0.0</speed>
  <fix>3d</fix>
</trkpt>
<trkpt lat="40.0713749" lon="-105.229789">
  <ele>1583.0</ele>
  <time>2026-09-02T20:50:36Z</time>
  <course>0.0</course>
  <speed>0.0</speed>
  <fix>3d</fix>
</trkpt>
<trkpt lat="40.0713749" lon="-105.229789">
  <ele>1583.0</ele>
  <time>2026-09-02T20:50:36Z</time>
  <course>0.0</course>
  <speed>0.0</speed>
  <fix>3d</fix>
</trkpt>
<trkpt lat="40.0713749" lon="-105.229789">
  <ele>1583.0</ele>
  <time>2026-09-02T20:50:36Z</time>
  <course>0.0</course>
  <speed>0.0</speed>
  <fix>3d</fix>
</trkpt>
<trkpt lat="40.0713749" lon="-105.229789">
  <ele>1583.0</ele>
  <time>2026-09-02T20:50:36Z</time>
  <course>0.0</course>
  <speed>0.0</speed>
  <fix>3d</fix>
</trkpt>
<trkpt lat="40.0713749" lon="-105.229789">
  <ele>1583.0</ele>
  <time>2026-09-02T20:50:36Z</time>
  <course>0.0</course>
  <speed>0.0</speed>
  <fix>3d</fix>
</trkpt>
<trkpt lat="40.0713749" lon="-105.229789">
  <ele>1583.0</ele>
  <time>2026-09-02T20:50:36Z</time>
  <course>0.0</course>
  <speed>0.0</speed>
  <fix>3d</fix>
</trkpt>
<trkpt lat="40.0713749" lon="-105.229789">
  <ele>1583.0</ele>
  <time>2026-09-02T20:50:36Z</time>
  <course>0.0</course>
  <speed>0.0</speed>
  <fix>3d</fix>
</trkpt>
<trkpt lat="40.0713749" lon="-105.229789">
  <ele>1583.0</ele>
  <time>2026-09-02T20:50:36Z</time>
  <course>0.0</course>
  <speed>0.0</speed>
  <fix>3d</fix>
</trkpt>
<trkpt lat="40.0713749" lon="-105.229789">
  <ele>1583.0</ele>
  <time>2026-09-02T20:50:36Z</time>
  <course>0.0</course>
  <speed>0.0</speed>
  <fix>3d</fix>
</trkpt>
<trkpt lat="40.0713749" lon="-105.229789">
  <ele>1583.0</ele>
  <time>2026-09-02T20:50:36Z</time>
  <course>0.0</course>
  <speed>0.0</speed>
  <fix>3d</fix>
</trkpt>
<trkpt lat="40.0713749" lon="-105.229789">
  <ele>1583.0</ele>
  <time>2026-09-02T20:50:36Z</time>
  <course>0.0</course>
  <speed>0.0</speed>
  <fix>3d</fix>
</trkpt>
<trkpt lat="40.0713749" lon="-105.229789">
  <ele>1583.0</ele>
  <time>2026-09-02T20:50:36Z</time>
  <course>0.0</course>
  <speed>0.0</speed>
  <fix>3d</fix>
</trkpt>
<trkpt lat="40.0713749" lon="-105.229789">
  <ele>1583.0</ele>
  <time>2026-09-02T20:50:36Z</time>
  <course>0.0</course>
  <speed>0.0</speed>
  <fix>3d</fix>
</trkpt>
<trkpt lat="40.0713749" lon="-105.229789">
  <ele>1583.0</ele>
  <time>2026-09-02T20:50:36Z</time>
  <course>0.0</course>
  <speed>0.0</speed>
  <fix>3d</fix>
</trkpt>
<trkpt lat="40.0713749" lon="-105.229789">
  <ele>1583.0</ele>
  <time>2026-09-02T20:50:36Z</time>
  <course>0.0</course>
  <speed>0.0</speed>
  <fix>3d</fix>
</trkpt>
<trkpt lat="40.0713749" lon="-105.229789">
  <ele>1583.0</ele>
  <time>2026-09-02T20:50:36Z</time>
  <course>0.0</course>
  <speed>0.0</speed>
  <fix>3d</fix>
</trkpt>
<trkpt lat="40.0713749" lon="-105.229789">
  <ele>1583.0</ele>
  <time>2026-09-02T20:50:36Z</time>
  <course>0.0</course>
  <speed>0.0</speed>
  <fix>3d</fix>
</trkpt>
<trkpt lat="40.0713749" lon="-105.229789">
  <ele>1583.0</ele>
  <time>2026-09-02T20:50:36Z</time>
  <course>0.0</course>
  <speed>0.0</speed>
  <fix>3d</fix>
</trkpt>
<trkpt lat="40.0713749" lon="-105.229789">
  <ele>1583.0</ele>
  <time>2026-09-02T20:50:36Z</time>
  <course>0.0</course>
  <speed>0.0</speed>
  <fix>3d</fix>
</trkpt>
<trkpt lat="40.0713749" lon="-105.229789">
  <ele>1583.0</ele>
  <time>2026-09-02T20:50:36Z</time>
  <course>0.0</course>
  <speed>0.0</speed>
  <fix>3d</fix>
</trkpt>
<trkpt lat="40.0713749" lon="-105.229789">
  <ele>1583.0</ele>
  <time>2026-09-02T20:50:36Z</time>
  <course>0.0</course>
  <speed>0.0</speed>
  <fix>3d</fix>
</trkpt>
<trkpt lat="40.0713749" lon="-105.229789">
  <ele>1583.0</ele>
  <time>2026-09-02T20:50:36Z</time>
  <course>0.0</course>
  <speed>0.0</speed>
  <fix>3d</fix>
</trkpt>
<trkpt lat="40.0713749" lon="-105.229789">
  <ele>1583.0</ele>
  <time>2026-09-02T20:50:36Z</time>
  <course>0.0</course>
  <speed>0.0</speed>
  <fix>3d</fix>
</trkpt>
<trkpt lat="40.0713749" lon="-105.229789">
  <ele>1583.0</ele>
  <time>2026-09-02T20:50:36Z</time>
  <course>0.0</course>
  <speed>0.0</speed>
  <fix>3d</fix>
</trkpt>
<trkpt lat="40.0713749" lon="-105.229789">
  <ele>1583.0</ele>
  <time>2026-09-02T20:50:36Z</time>
  <course>0.0</course>
  <speed>0.0</speed>
  <fix>3d</fix>
</trkpt>
<trkpt lat="40.0713749" lon="-105.229789">
  <ele>1583.0</ele>
  <time>2026-09-02T20:50:36Z</time>
  <course>0.0</course>
  <speed>0.0</speed>
  <fix>3d</fix>
</trkpt>
<trkpt lat="40.0713749" lon="-105.229789">
  <ele>1583.0</ele>
  <time>2026-09-02T20:50:36Z</time>
  <course>0.0</course>
  <speed>0.0</speed>
  <fix>3d</fix>
</trkpt>
<trkpt lat="40.0713749" lon="-105.229789">
  <ele>1583.0</ele>
  <time>2026-09-02T20:50:36Z</time>
  <course>0.0</course>
  <speed>0.0</speed>
  <fix>3d</fix>
</trkpt>
<trkpt lat="40.0713749" lon="-105.229789">
  <ele>1583.0</ele>
  <time>2026-09-02T20:50:36Z</time>
  <course>0.0</course>
  <speed>0.0</speed>
  <fix>3d</fix>
</trkpt>
<trkpt lat="40.0713749" lon="-105.229789">
  <ele>1583.0</ele>
  <time>2026-09-02T20:50:36Z</time>
  <course>0.0</course>
  <speed>0.0</speed>
  <fix>3d</fix>
</trkpt>
<trkpt lat="40.0713749" lon="-105.229789">
  <ele>1583.0</ele>
  <time>2026-09-02T20:50:36Z</time>
  <course>0.0</course>
  <speed>0.0</speed>
  <fix>3d</fix>
</trkpt>
<trkpt lat="40.0713749" lon="-105.229789">
  <ele>1583.0</ele>
  <time>2026-09-02T20:50:36Z</time>
  <course>0.0</course>
  <speed>0.0</speed>
  <fix>3d</fix>
</trkpt>
<trkpt lat="40.0713749" lon="-105.229789">
  <ele>1583.0</ele>
  <time>2026-09-02T20:50:36Z</time>
  <course>0.0</course>
  <speed>0.0</speed>
  <fix>3d</fix>
</trkpt>
<trkpt lat="40.0713749" lon="-105.229789">
  <ele>1583.0</ele>
  <time>2026-09-02T20:50:36Z</time>
  <course>0.0</course>
  <speed>0.0</speed>
  <fix>3d</fix>
</trkpt>
<trkpt lat="40.0713749" lon="-105.229789">
  <ele>1583.0</ele>
  <time>2026-09-02T20:50:36Z</time>
  <course>0.0</course>
  <speed>0.0</speed>
  <fix>3d</fix>
</trkpt>
<trkpt lat="40.0713749" lon="-105.229789">
  <ele>1583.0</ele>
  <time>2026-09-02T20:50:36Z</time>
  <course>0.0</course>
  <speed>0.0</speed>
  <fix>3d</fix>
</trkpt>
<trkpt lat="40.0713749" lon="-105.229789">
  <ele>1583.0</ele>
  <time>2026-09-02T20:50:36Z</time>
  <course>0.0</course>
  <speed>0.0</speed>
  <fix>3d</fix>
</trkpt>
<trkpt lat="40.0713749" lon="-105.229789">
  <ele>1583.0</ele>
  <time>2026-09-02T20:50:36Z</time>
  <course>0.0</course>
  <speed>0.0</speed>
  <fix>3d</fix>
</trkpt>
<trkpt lat="40.0713749" lon="-105.229789">
  <ele>1583.0</ele>
  <time>2026-09-02T20:50:36Z</time>
  <course>0.0</course>
  <speed>0.0</speed>
  <fix>3d</fix>
</trkpt>
<trkpt lat="40.0713749" lon="-105.229789">
  <ele>1583.0</ele>
  <time>2026-09-02T20:50:36Z</time>
  <course>0.0</course>
  <speed>0.0</speed>
  <fix>3d</fix>
</trkpt>
<trkpt lat="40.0713749" lon="-105.229789">
  <ele>1583.0</ele>
  <time>2026-09-02T20:50:36Z</time>
  <course>0.0</course>
  <speed>0.0</speed>
  <fix>3d</fix>
</trkpt>
<trkpt lat="40.0713749" lon="-105.229789">
  <ele>1583.0</ele>
  <time>2026-09-02T20:50:36Z</time>
  <course>0.0</course>
  <speed>0.0</speed>
  <fix>3d</fix>
</trkpt>
<trkpt lat="40.0713749" lon="-105.229789">
  <ele>1583.0</ele>
  <time>2026-09-02T20:50:36Z</time>
  <course>0.0</course>
  <speed>0.0</speed>
  <fix>3d</fix>
</trkpt>
<trkpt lat="40.0713749" lon="-105.229789">
  <ele>1583.0</ele>
  <time>2026-09-02T20:50:36Z</time>
  <course>0.0</course>
  <speed>0.0</speed>
  <fix>3d</fix>
</trkpt>
<trkpt lat="40.0713749" lon="-105.229789">
  <ele>1583.0</ele>
  <time>2026-09-02T20:50:36Z</time>
  <course>0.0</course>
  <speed>0.0</speed>
  <fix>3d</fix>
</trkpt>
<trkpt lat="40.0713749" lon="-105.229789">
  <ele>1583.0</ele>
  <time>2026-09-02T20:50:36Z</time>
  <course>0.0</course>
  <speed>0.0</speed>
  <fix>3d</fix>
</trkpt>
<trkpt lat="40.0713749" lon="-105.229789">
  <ele>1583.0</ele>
  <time>2026-09-02T20:50:36Z</time>
  <course>0.0</course>
  <speed>0.0</speed>
  <fix>3d</fix>
</trkpt>
<trkpt lat="40.0713749" lon="-105.229789">
  <ele>1583.0</ele>
  <time>2026-09-02T20:50:36Z</time>
  <course>0.0</course>
  <speed>0.0</speed>
  <fix>3d</fix>
</trkpt>
<trkpt lat="40.0713749" lon="-105.229789">
  <ele>1583.0</ele>
  <time>2026-09-02T20:50:36Z</time>
  <course>0.0</course>
  <speed>0.0</speed>
  <fix>3d</fix>
</trkpt>
<trkpt lat="40.0713749" lon="-105.229789">
  <ele>1583.0</ele>
  <time>2026-09-02T20:50:36Z</time>
  <course>0.0</course>
  <speed>0.0</speed>
  <fix>3d</fix>
</trkpt>
<trkpt lat="40.0713749" lon="-105.229789">
  <ele>1583.0</ele>
  <time>2026-09-02T20:50:36Z</time>
  <course>0.0</course>
  <speed>0.0</speed>
  <fix>3d</fix>
</trkpt>
<trkpt lat="40.0713749" lon="-105.229789">
  <ele>1583.0</ele>
  <time>2026-09-02T20:50:36Z</time>
  <course>0.0</course>
  <speed>0.0</speed>
  <fix>3d</fix>
</trkpt>
<trkpt lat="40.0713749" lon="-105.229789">
  <ele>1583.0</ele>
  <time>2026-09-02T20:50:36Z</time>
  <course>0.0</course>
  <speed>0.0</speed>
  <fix>3d</fix>
</trkpt>
<trkpt lat="40.0713749" lon="-105.229789">
  <ele>1583.0</ele>
  <time>2026-09-02T20:50:36Z</time>
  <course>0.0</course>
  <speed>0.0</speed>
  <fix>3d</fix>
</trkpt>
<trkpt lat="40.0713749" lon="-105.229789">
  <ele>1583.0</ele>
  <time>2026-09-02T20:50:36Z</time>
  <course>0.0</course>
  <speed>0.0</speed>
  <fix>3d</fix>
</trkpt>
<trkpt lat="40.0713749" lon="-105.229789">
  <ele>1583.0</ele>
  <time>2026-09-02T20:50:36Z</time>
  <course>0.0</course>
  <speed>0.0</speed>
  <fix>3d</fix>
</trkpt>
<trkpt lat="40.0713749" lon="-105.229789">
  <ele>1583.0</ele>
  <time>2026-09-02T20:50:36Z</time>
  <course>0.0</course>
  <speed>0.0</speed>
  <fix>3d</fix>
</trkpt>
<trkpt lat="40.0713749" lon="-105.229789">
  <ele>1583.0</ele>
  <time>2026-09-02T20:50:36Z</time>
  <course>0.0</course>
  <speed>0.0</speed>
  <fix>3d</fix>
</trkpt>
<trkpt lat="40.0713749" lon="-105.229789">
  <ele>1583.0</ele>
  <time>2026-09-02T20:50:36Z</time>
  <course>0.0</course>
  <speed>0.0</speed>
  <fix>3d</fix>
</trkpt>
<trkpt lat="40.0713749" lon="-105.229789">
  <ele>1583.0</ele>
  <time>2026-09-02T20:50:36Z</time>
  <course>0.0</course>
  <speed>0.0</speed>
  <fix>3d</fix>
</trkpt>
<trkpt lat="40.0713749" lon="-105.229789">
  <ele>1583.0</ele>
  <time>2026-09-02T20:50:36Z</time>
  <course>0.0</course>
  <speed>0.0</speed>
  <fix>3d</fix>
</trkpt>
<trkpt lat="40.0713749" lon="-105.229789">
  <ele>1583.0</ele>
  <time>2026-09-02T20:50:36Z</time>
  <course>0.0</course>
  <speed>0.0</speed>
  <fix>3d</fix>
</trkpt>
<trkpt lat="40.0713749" lon="-105.229789">
  <ele>1583.0</ele>
  <time>2026-09-02T20:50:36Z</time>
  <course>0.0</course>
  <speed>0.0</speed>
  <fix>3d</fix>
</trkpt>
<trkpt lat="40.0713749" lon="-105.229789">
  <ele>1583.0</ele>
  <time>2026-09-02T20:50:36Z</time>
  <course>0.0</course>
  <speed>0.0</speed>
  <fix>3d</fix>
</trkpt>
<trkpt lat="40.0713749" lon="-105.229789">
  <ele>1583.0</ele>
  <time>2026-09-02T20:50:36Z</time>
  <course>0.0</course>
  <speed>0.0</speed>
  <fix>3d</fix>
</trkpt>
<trkpt lat="40.0713749" lon="-105.229789">
  <ele>1583.0</ele>
  <time>2026-09-02T20:50:36Z</time>
  <course>0.0</course>
  <speed>0.0</speed>
  <fix>3d</fix>
</trkpt>
<trkpt lat="40.0713749" lon="-105.229789">
  <ele>1583.0</ele>
  <time>2026-09-02T20:50:36Z</time>
  <course>0.0</course>
  <speed>0.0</speed>
  <fix>3d</fix>
</trkpt>
<trkpt lat="40.0713749" lon="-105.229789">
  <ele>1583.0</ele>
  <time>2026-09-02T20:50:36Z</time>
  <course>0.0</course>
  <speed>0.0</speed>
  <fix>3d</fix>
</trkpt>
<trkpt lat="40.0713749" lon="-105.229789">
  <ele>1583.0</ele>
  <time>2026-09-02T20:50:36Z</time>
  <course>0.0</course>
  <speed>0.0</speed>
  <fix>3d</fix>
</trkpt>
<trkpt lat="40.0713749" lon="-105.229789">
  <ele>1583.0</ele>
  <time>2026-09-02T20:50:36Z</time>
  <course>0.0</course>
  <speed>0.0</speed>
  <fix>3d</fix>
</trkpt>
<trkpt lat="40.0713749" lon="-105.229789">
  <ele>1583.0</ele>
  <time>2026-09-02T20:50:36Z</time>
  <course>0.0</course>
  <speed>0.0</speed>
  <fix>3d</fix>
</trkpt>
<trkpt lat="40.0713749" lon="-105.229789">
  <ele>1583.0</ele>
  <time>2026-09-02T20:50:36Z</time>
  <course>0.0</course>
  <speed>0.0</speed>
  <fix>3d</fix>
</trkpt>
<trkpt lat="40.0713749" lon="-105.229789">
  <ele>1583.0</ele>
  <time>2026-09-02T20:50:36Z</time>
  <course>0.0</course>
  <speed>0.0</speed>
  <fix>3d</fix>
</trkpt>
<trkpt lat="40.0713749" lon="-105.229789">
  <ele>1583.0</ele>
  <time>2026-09-02T20:50:36Z</time>
  <course>0.0</course>
  <speed>0.0</speed>
  <fix>3d</fix>
</trkpt>
<trkpt lat="40.0713749" lon="-105.229789">
  <ele>1583.0</ele>
  <time>2026-09-02T20:50:36Z</time>
  <course>0.0</course>
  <speed>0.0</speed>
  <fix>3d</fix>
</trkpt>
<trkpt lat="40.0713749" lon="-105.229789">
  <ele>1583.0</ele>
  <time>2026-09-02T20:50:36Z</time>
  <course>0.0</course>
  <speed>0.0</speed>
  <fix>3d</fix>
</trkpt>
<trkpt lat="40.0713749" lon="-105.229789">
  <ele>1583.0</ele>
  <time>2026-09-02T20:50:36Z</time>
  <course>0.0</course>
  <speed>0.0</speed>
  <fix>3d</fix>
</trkpt>
<trkpt lat="40.0713749" lon="-105.229789">
  <ele>1583.0</ele>
  <time>2026-09-02T20:50:36Z</time>
  <course>0.0</course>
  <speed>0.0</speed>
  <fix>3d</fix>
</trkpt>
<trkpt lat="40.0713749" lon="-105.229789">
  <ele>1583.0</ele>
  <time>2026-09-02T20:50:36Z</time>
  <course>0.0</course>
  <speed>0.0</speed>
  <fix>3d</fix>
</trkpt>
<trkpt lat="40.0713749" lon="-105.229789">
  <ele>1583.0</ele>
  <time>2026-09-02T20:50:36Z</time>
  <course>0.0</course>
  <speed>0.0</speed>
  <fix>3d</fix>
</trkpt>
<trkpt lat="40.0713749" lon="-105.229789">
  <ele>1583.0</ele>
  <time>2026-09-02T20:50:36Z</time>
  <course>0.0</course>
  <speed>0.0</speed>
  <fix>3d</fix>
</trkpt>
<trkpt lat="40.0713749" lon="-105.229789">
  <ele>1583.0</ele>
  <time>2026-09-02T20:50:36Z</time>
  <course>0.0</course>
  <speed>0.0</speed>
  <fix>3d</fix>
</trkpt>
<trkpt lat="40.0713749" lon="-105.229789">
  <ele>1583.0</ele>
  <time>2026-09-02T20:50:36Z</time>
  <course>0.0</course>
  <speed>0.0</speed>
  <fix>3d</fix>
</trkpt>
<trkpt lat="40.0713749" lon="-105.229789">
  <ele>1583.0</ele>
  <time>2026-09-02T20:50:36Z</time>
  <course>0.0</course>
  <speed>0.0</speed>
  <fix>3d</fix>
</trkpt>
<trkpt lat="40.0713749" lon="-105.229789">
  <ele>1583.0</ele>
  <time>2026-09-02T20:50:36Z</time>
  <course>0.0</course>
  <speed>0.0</speed>
  <fix>3d</fix>
</trkpt>
<trkpt lat="40.0713749" lon="-105.229789">
  <ele>1583.0</ele>
  <time>2026-09-02T20:50:36Z</time>
  <course>0.0</course>
  <speed>0.0</speed>
  <fix>3d</fix>
</trkpt>
<trkpt lat="40.0713749" lon="-105.229789">
  <ele>1583.0</ele>
  <time>2026-09-02T20:50:36Z</time>
  <course>0.0</course>
  <speed>0.0</speed>
  <fix>3d</fix>
</trkpt>
<trkpt lat="40.0713749" lon="-105.229789">
  <ele>1583.0</ele>
  <time>2026-09-02T20:50:36Z</time>
  <course>0.0</course>
  <speed>0.0</speed>
  <fix>3d</fix>
</trkpt>
<trkpt lat="40.0713749" lon="-105.229789">
  <ele>1583.0</ele>
  <time>2026-09-02T20:50:36Z</time>
  <course>0.0</course>
  <speed>0.0</speed>
  <fix>3d</fix>
</trkpt>
<trkpt lat="40.0713749" lon="-105.229789">
  <ele>1583.0</ele>
  <time>2026-09-02T20:50:36Z</time>
  <course>0.0</course>
  <speed>0.0</speed>
  <fix>3d</fix>
</trkpt>
<trkpt lat="40.0713749" lon="-105.229789">
  <ele>1583.0</ele>
  <time>2026-09-02T20:50:36Z</time>
  <course>0.0</course>
  <speed>0.0</speed>
  <fix>3d</fix>
</trkpt>
<trkpt lat="40.0713749" lon="-105.229789">
  <ele>1583.0</ele>
  <time>2026-09-02T20:50:36Z</time>
  <course>0.0</course>
  <speed>0.0</speed>
  <fix>3d</fix>
</trkpt>
<trkpt lat="40.0713749" lon="-105.229789">
  <ele>1583.0</ele>
  <time>2026-09-02T20:50:36Z</time>
  <course>0.0</course>
  <speed>0.0</speed>
  <fix>3d</fix>
</trkpt>
<trkpt lat="40.0713749" lon="-105.229789">
  <ele>1583.0</ele>
  <time>2026-09-02T20:50:36Z</time>
  <course>0.0</course>
  <speed>0.0</speed>
  <fix>3d</fix>
</trkpt>
<trkpt lat="40.0713749" lon="-105.229789">
  <ele>1583.0</ele>
  <time>2026-09-02T20:50:36Z</time>
  <course>0.0</course>
  <speed>0.0</speed>
  <fix>3d</fix>
</trkpt>
<trkpt lat="40.0713749" lon="-105.229789">
  <ele>1583.0</ele>
  <time>2026-09-02T20:50:36Z</time>
  <course>0.0</course>
  <speed>0.0</speed>
  <fix>3d</fix>
</trkpt>
<trkpt lat="40.0713749" lon="-105.229789">
  <ele>1583.0</ele>
  <time>2026-09-02T20:50:36Z</time>
  <course>0.0</course>
  <speed>0.0</speed>
  <fix>3d</fix>
</trkpt>
<trkpt lat="40.0713749" lon="-105.229789">
  <ele>1583.0</ele>
  <time>2026-09-02T20:50:36Z</time>
  <course>0.0</course>
  <speed>0.0</speed>
  <fix>3d</fix>
</trkpt>
<trkpt lat="40.0713749" lon="-105.229789">
  <ele>1583.0</ele>
  <time>2026-09-02T20:50:36Z</time>
  <course>0.0</course>
  <speed>0.0</speed>
  <fix>3d</fix>
</trkpt>
<trkpt lat="40.0713749" lon="-105.229789">
  <ele>1583.0</ele>
  <time>2026-09-02T20:50:36Z</time>
  <course>0.0</course>
  <speed>0.0</speed>
  <fix>3d</fix>
</trkpt>
<trkpt lat="40.0713749" lon="-105.229789">
  <ele>1583.0</ele>
  <time>2026-09-02T20:50:36Z</time>
  <course>0.0</course>
  <speed>0.0</speed>
  <fix>3d</fix>
</trkpt>
<trkpt lat="40.0713749" lon="-105.229789">
  <ele>1583.0</ele>
  <time>2026-09-02T20:50:36Z</time>
  <course>0.0</course>
  <speed>0.0</speed>
  <fix>3d</fix>
</trkpt>
<trkpt lat="40.0713749" lon="-105.229789">
  <ele>1583.0</ele>
  <time>2026-09-02T20:50:36Z</time>
  <course>0.0</course>
  <speed>0.0</speed>
  <fix>3d</fix>
</trkpt>
<trkpt lat="40.0713749" lon="-105.229789">
  <ele>1583.0</ele>
  <time>2026-09-02T20:50:36Z</time>
  <course>0.0</course>
  <speed>0.0</speed>
  <fix>3d</fix>
</trkpt>
<trkpt lat="40.0713749" lon="-105.229789">
  <ele>1583.0</ele>
  <time>2026-09-02T20:50:36Z</time>
  <course>0.0</course>
  <speed>0.0</speed>
  <fix>3d</fix>
</trkpt>
<trkpt lat="40.0713749" lon="-105.229789">
  <ele>1583.0</ele>
  <time>2026-09-02T20:50:36Z</time>
  <course>0.0</course>
  <speed>0.0</speed>
  <fix>3d</fix>
</trkpt>
<trkpt lat="40.0713749" lon="-105.229789">
  <ele>1583.0</ele>
  <time>2026-09-02T20:50:36Z</time>
  <course>0.0</course>
  <speed>0.0</speed>
  <fix>3d</fix>
</trkpt>
<trkpt lat="40.0713749" lon="-105.229789">
  <ele>1583.0</ele>
  <time>2026-09-02T20:50:36Z</time>
  <course>0.0</course>
  <speed>0.0</speed>
  <fix>3d</fix>
</trkpt>
<trkpt lat="40.0713749" lon="-105.229789">
  <ele>1583.0</ele>
  <time>2026-09-02T20:50:36Z</time>
  <course>0.0</course>
  <speed>0.0</speed>
  <fix>3d</fix>
</trkpt>
<trkpt lat="40.0713749" lon="-105.229789">
  <ele>1583.0</ele>
  <time>2026-09-02T20:50:36Z</time>
  <course>0.0</course>
  <speed>0.0</speed>
  <fix>3d</fix>
</trkpt>
<trkpt lat="40.0713749" lon="-105.229789">
  <ele>1583.0</ele>
  <time>2026-09-02T20:50:36Z</time>
  <course>0.0</course>
  <speed>0.0</speed>
  <fix>3d</fix>
</trkpt>
<trkpt lat="40.0713749" lon="-105.229789">
  <ele>1583.0</ele>
  <time>2026-09-02T20:50:36Z</time>
  <course>0.0</course>
  <speed>0.0</speed>
  <fix>3d</fix>
</trkpt>
<trkpt lat="40.0713749" lon="-105.229789">
  <ele>1583.0</ele>
  <time>2026-09-02T20:50:36Z</time>
  <course>0.0</course>
  <speed>0.0</speed>
  <fix>3d</fix>
</trkpt>
<trkpt lat="40.0713749" lon="-105.229789">
  <ele>1583.0</ele>
  <time>2026-09-02T20:50:36Z</time>
  <course>0.0</course>
  <speed>0.0</speed>
  <fix>3d</fix>
</trkpt>
<trkpt lat="40.0713749" lon="-105.229789">
  <ele>1583.0</ele>
  <time>2026-09-02T20:50:36Z</time>
  <course>0.0</course>
  <speed>0.0</speed>
  <fix>3d</fix>
</trkpt>
<trkpt lat="40.0713749" lon="-105.229789">
  <ele>1583.0</ele>
  <time>2026-09-02T20:50:36Z</time>
  <course>0.0</course>
  <speed>0.0</speed>
  <fix>3d</fix>
</trkpt>
<trkpt lat="40.0713749" lon="-105.229789">
  <ele>1583.0</ele>
  <time>2026-09-02T20:50:36Z</time>
  <course>0.0</course>
  <speed>0.0</speed>
  <fix>3d</fix>
</trkpt>
<trkpt lat="40.0713749" lon="-105.229789">
  <ele>1583.0</ele>
  <time>2026-09-02T20:50:36Z</time>
  <course>0.0</course>
  <speed>0.0</speed>
  <fix>3d</fix>
</trkpt>
<trkpt lat="40.0713749" lon="-105.229789">
  <ele>1583.0</ele>
  <time>2026-09-02T20:50:36Z</time>
  <course>0.0</course>
  <speed>0.0</speed>
  <fix>3d</fix>
</trkpt>
<trkpt lat="40.0713749" lon="-105.229789">
  <ele>1583.0</ele>
  <time>2026-09-02T20:50:36Z</time>
  <course>0.0</course>
  <speed>0.0</speed>
  <fix>3d</fix>
</trkpt>
<trkpt lat="40.0713749" lon="-105.229789">
  <ele>1583.0</ele>
  <time>2026-09-02T20:50:36Z</time>
  <course>0.0</course>
  <speed>0.0</speed>
  <fix>3d</fix>
</trkpt>
<trkpt lat="40.0713749" lon="-105.229789">
  <ele>1583.0</ele>
  <time>2026-09-02T20:50:36Z</time>
  <course>0.0</course>
  <speed>0.0</speed>
  <fix>3d</fix>
</trkpt>
<trkpt lat="40.0713749" lon="-105.229789">
  <ele>1583.0</ele>
  <time>2026-09-02T20:50:36Z</time>
  <course>0.0</course>
  <speed>0.0</speed>
  <fix>3d</fix>
</trkpt>
<trkpt lat="40.0713749" lon="-105.229789">
  <ele>1583.0</ele>
  <time>2026-09-02T20:50:36Z</time>
  <course>0.0</course>
  <speed>0.0</speed>
  <fix>3d</fix>
</trkpt>
<trkpt lat="40.0713749" lon="-105.229789">
  <ele>1583.0</ele>
  <time>2026-09-02T20:50:36Z</time>
  <course>0.0</course>
  <speed>0.0</speed>
  <fix>3d</fix>
</trkpt>
<trkpt lat="40.0713749" lon="-105.229789">
  <ele>1583.0</ele>
  <time>2026-09-02T20:50:36Z</time>
  <course>0.0</course>
  <speed>0.0</speed>
  <fix>3d</fix>
</trkpt>
<trkpt lat="40.0713749" lon="-105.229789">
  <ele>1583.0</ele>
  <time>2026-09-02T20:50:36Z</time>
  <course>0.0</course>
  <speed>0.0</speed>
  <fix>3d</fix>
</trkpt>
<trkpt lat="40.0713749" lon="-105.229789">
  <ele>1583.0</ele>
  <time>2026-09-02T20:50:36Z</time>
  <course>0.0</course>
  <speed>0.0</speed>
  <fix>3d</fix>
</trkpt>
<trkpt lat="40.0713749" lon="-105.229789">
  <ele>1583.0</ele>
  <time>2026-09-02T20:50:36Z</time>
  <course>0.0</course>
  <speed>0.0</speed>
  <fix>3d</fix>
</trkpt>
<trkpt lat="40.0713749" lon="-105.229789">
  <ele>1583.0</ele>
  <time>2026-09-02T20:50:36Z</time>
  <course>0.0</course>
  <speed>0.0</speed>
  <fix>3d</fix>
</trkpt>
<trkpt lat="40.0713749" lon="-105.229789">
  <ele>1583.0</ele>
  <time>2026-09-02T20:50:36Z</time>
  <course>0.0</course>
  <speed>0.0</speed>
  <fix>3d</fix>
</trkpt>
<trkpt lat="40.0713749" lon="-105.229789">
  <ele>1583.0</ele>
  <time>2026-09-02T20:50:36Z</time>
  <course>0.0</course>
  <speed>0.0</speed>
  <fix>3d</fix>
</trkpt>
<trkpt lat="40.0713749" lon="-105.229789">
  <ele>1583.0</ele>
  <time>2026-09-02T20:50:36Z</time>
  <course>0.0</course>
  <speed>0.0</speed>
  <fix>3d</fix>
</trkpt>
<trkpt lat="40.0713749" lon="-105.229789">
  <ele>1583.0</ele>
  <time>2026-09-02T20:50:36Z</time>
  <course>0.0</course>
  <speed>0.0</speed>
  <fix>3d</fix>
</trkpt>
<trkpt lat="40.0713749" lon="-105.229789">
  <ele>1583.0</ele>
  <time>2026-09-02T20:50:36Z</time>
  <course>0.0</course>
  <speed>0.0</speed>
  <fix>3d</fix>
</trkpt>
<trkpt lat="40.0713749" lon="-105.229789">
  <ele>1583.0</ele>
  <time>2026-09-02T20:50:36Z</time>
  <course>0.0</course>
  <speed>0.0</speed>
  <fix>3d</fix>
</trkpt>
<trkpt lat="40.0713749" lon="-105.229789">
  <ele>1583.0</ele>
  <time>2026-09-02T20:50:37Z</time>
  <course>0.0</course>
  <speed>0.0</speed>
  <fix>3d</fix>
</trkpt>
<trkpt lat="40.0713749" lon="-105.229789">
  <ele>1583.0</ele>
  <time>2026-09-02T20:50:37Z</time>
  <course>0.0</course>
  <speed>0.0</speed>
  <fix>3d</fix>
</trkpt>
<trkpt lat="40.0713749" lon="-105.229789">
  <ele>1583.0</ele>
  <time>2026-09-02T20:50:37Z</time>
  <course>0.0</course>
  <speed>0.0</speed>
  <fix>3d</fix>
</trkpt>
<trkpt lat="40.0713749" lon="-105.229789">
  <ele>1583.0</ele>
  <time>2026-09-02T20:50:37Z</time>
  <course>0.0</course>
  <speed>0.0</speed>
  <fix>3d</fix>
</trkpt>
<trkpt lat="40.0713749" lon="-105.229789">
  <ele>1583.0</ele>
  <time>2026-09-02T20:50:37Z</time>
  <course>0.0</course>
  <speed>0.0</speed>
  <fix>3d</fix>
</trkpt>
<trkpt lat="40.0713749" lon="-105.229789">
  <ele>1583.0</ele>
  <time>2026-09-02T20:50:37Z</time>
  <course>0.0</course>
  <speed>0.0</speed>
  <fix>3d</fix>
</trkpt>
<trkpt lat="40.0713749" lon="-105.229789">
  <ele>1583.0</ele>
  <time>2026-09-02T20:50:37Z</time>
  <course>0.0</course>
  <speed>0.0</speed>
  <fix>3d</fix>
</trkpt>
<trkpt lat="40.0713749" lon="-105.229789">
  <ele>1583.0</ele>
  <time>2026-09-02T20:50:37Z</time>
  <course>0.0</course>
  <speed>0.0</speed>
  <fix>3d</fix>
</trkpt>
<trkpt lat="40.0713749" lon="-105.229789">
  <ele>1583.0</ele>
  <time>2026-09-02T20:50:37Z</time>
  <course>0.0</course>
  <speed>0.0</speed>
  <fix>3d</fix>
</trkpt>
<trkpt lat="40.0713749" lon="-105.229789">
  <ele>1583.0</ele>
  <time>2026-09-02T20:50:37Z</time>
  <course>0.0</course>
  <speed>0.0</speed>
  <fix>3d</fix>
</trkpt>
<trkpt lat="40.0713749" lon="-105.229789">
  <ele>1583.0</ele>
  <time>2026-09-02T20:50:37Z</time>
  <course>0.0</course>
  <speed>0.0</speed>
  <fix>3d</fix>
</trkpt>
<trkpt lat="40.0713749" lon="-105.229789">
  <ele>1583.0</ele>
  <time>2026-09-02T20:50:37Z</time>
  <course>0.0</course>
  <speed>0.0</speed>
  <fix>3d</fix>
</trkpt>
<trkpt lat="40.0713749" lon="-105.229789">
  <ele>1583.0</ele>
  <time>2026-09-02T20:50:37Z</time>
  <course>0.0</course>
  <speed>0.0</speed>
  <fix>3d</fix>
</trkpt>
<trkpt lat="40.0713749" lon="-105.229789">
  <ele>1583.0</ele>
  <time>2026-09-02T20:50:37Z</time>
  <course>0.0</course>
  <speed>0.0</speed>
  <fix>3d</fix>
</trkpt>
<trkpt lat="40.0713749" lon="-105.229789">
  <ele>1583.0</ele>
  <time>2026-09-02T20:50:37Z</time>
  <course>0.0</course>
  <speed>0.0</speed>
  <fix>3d</fix>
</trkpt>
<trkpt lat="40.0713749" lon="-105.229789">
  <ele>1583.0</ele>
  <time>2026-09-02T20:50:37Z</time>
  <course>0.0</course>
  <speed>0.0</speed>
  <fix>3d</fix>
</trkpt>
<trkpt lat="40.0713749" lon="-105.229789">
  <ele>1583.0</ele>
  <time>2026-09-02T20:50:37Z</time>
  <course>0.0</course>
  <speed>0.0</speed>
  <fix>3d</fix>
</trkpt>
<trkpt lat="40.0713749" lon="-105.229789">
  <ele>1583.0</ele>
  <time>2026-09-02T20:50:37Z</time>
  <course>0.0</course>
  <speed>0.0</speed>
  <fix>3d</fix>
</trkpt>
<trkpt lat="40.0713749" lon="-105.229789">
  <ele>1583.0</ele>
  <time>2026-09-02T20:50:37Z</time>
  <course>0.0</course>
  <speed>0.0</speed>
  <fix>3d</fix>
</trkpt>
<trkpt lat="40.0713749" lon="-105.229789">
  <ele>1583.0</ele>
  <time>2026-09-02T20:50:37Z</time>
  <course>0.0</course>
  <speed>0.0</speed>
  <fix>3d</fix>
</trkpt>
<trkpt lat="40.0713749" lon="-105.229789">
  <ele>1583.0</ele>
  <time>2026-09-02T20:50:37Z</time>
  <course>0.0</course>
  <speed>0.0</speed>
  <fix>3d</fix>
</trkpt>
<trkpt lat="40.0713749" lon="-105.229789">
  <ele>1583.0</ele>
  <time>2026-09-02T20:50:37Z</time>
  <course>0.0</course>
  <speed>0.0</speed>
  <fix>3d</fix>
</trkpt>
<trkpt lat="40.0713749" lon="-105.229789">
  <ele>1583.0</ele>
  <time>2026-09-02T20:50:37Z</time>
  <course>0.0</course>
  <speed>0.0</speed>
  <fix>3d</fix>
</trkpt>
<trkpt lat="40.0713749" lon="-105.229789">
  <ele>1583.0</ele>
  <time>2026-09-02T20:50:37Z</time>
  <course>0.0</course>
  <speed>0.0</speed>
  <fix>3d</fix>
</trkpt>
<trkpt lat="40.0713749" lon="-105.229789">
  <ele>1583.0</ele>
  <time>2026-09-02T20:50:37Z</time>
  <course>0.0</course>
  <speed>0.0</speed>
  <fix>3d</fix>
</trkpt>
<trkpt lat="40.0713749" lon="-105.229789">
  <ele>1583.0</ele>
  <time>2026-09-02T20:50:37Z</time>
  <course>0.0</course>
  <speed>0.0</speed>
  <fix>3d</fix>
</trkpt>
<trkpt lat="40.0713749" lon="-105.229789">
  <ele>1583.0</ele>
  <time>2026-09-02T20:50:38Z</time>
  <course>0.0</course>
  <speed>0.0</speed>
  <fix>3d</fix>
</trkpt>
<trkpt lat="40.0713749" lon="-105.229789">
  <ele>1583.0</ele>
  <time>2026-09-02T20:50:38Z</time>
  <course>0.0</course>
  <speed>0.0</speed>
  <fix>3d</fix>
</trkpt>
<trkpt lat="40.0713749" lon="-105.229789">
  <ele>1583.0</ele>
  <time>2026-09-02T20:50:38Z</time>
  <course>0.0</course>
  <speed>0.0</speed>
  <fix>3d</fix>
</trkpt>
<trkpt lat="40.0713749" lon="-105.229789">
  <ele>1583.0</ele>
  <time>2026-09-02T20:50:38Z</time>
  <course>0.0</course>
  <speed>0.0</speed>
  <fix>3d</fix>
</trkpt>
<trkpt lat="40.0713749" lon="-105.229789">
  <ele>1583.0</ele>
  <time>2026-09-02T20:50:38Z</time>
  <course>0.0</course>
  <speed>0.0</speed>
  <fix>3d</fix>
</trkpt>
<trkpt lat="40.0713749" lon="-105.229789">
  <ele>1583.0</ele>
  <time>2026-09-02T20:50:38Z</time>
  <course>0.0</course>
  <speed>0.0</speed>
  <fix>3d</fix>
</trkpt>
<trkpt lat="40.0713749" lon="-105.229789">
  <ele>1583.0</ele>
  <time>2026-09-02T20:50:38Z</time>
  <course>0.0</course>
  <speed>0.0</speed>
  <fix>3d</fix>
</trkpt>
<trkpt lat="40.0713749" lon="-105.229789">
  <ele>1583.0</ele>
  <time>2026-09-02T20:50:38Z</time>
  <course>0.0</course>
  <speed>0.0</speed>
  <fix>3d</fix>
</trkpt>
<trkpt lat="40.0713749" lon="-105.229789">
  <ele>1583.0</ele>
  <time>2026-09-02T20:50:38Z</time>
  <course>0.0</course>
  <speed>0.0</speed>
  <fix>3d</fix>
</trkpt>
<trkpt lat="40.0713749" lon="-105.229789">
  <ele>1583.0</ele>
  <time>2026-09-02T20:50:38Z</time>
  <course>0.0</course>
  <speed>0.0</speed>
  <fix>3d</fix>
</trkpt>
<trkpt lat="40.0713749" lon="-105.229789">
  <ele>1583.0</ele>
  <time>2026-09-02T20:50:38Z</time>
  <course>0.0</course>
  <speed>0.0</speed>
  <fix>3d</fix>
</trkpt>
<trkpt lat="40.0713749" lon="-105.229789">
  <ele>1583.0</ele>
  <time>2026-09-02T20:50:38Z</time>
  <course>0.0</course>
  <speed>0.0</speed>
  <fix>3d</fix>
</trkpt>
<trkpt lat="40.0713749" lon="-105.229789">
  <ele>1583.0</ele>
  <time>2026-09-02T20:50:38Z</time>
  <course>0.0</course>
  <speed>0.0</speed>
  <fix>3d</fix>
</trkpt>
<trkpt lat="40.0713749" lon="-105.229789">
  <ele>1583.0</ele>
  <time>2026-09-02T20:50:38Z</time>
  <course>0.0</course>
  <speed>0.0</speed>
  <fix>3d</fix>
</trkpt>
<trkpt lat="40.0713749" lon="-105.229789">
  <ele>1583.0</ele>
  <time>2026-09-02T20:50:38Z</time>
  <course>0.0</course>
  <speed>0.0</speed>
  <fix>3d</fix>
</trkpt>
<trkpt lat="40.0713749" lon="-105.229789">
  <ele>1583.0</ele>
  <time>2026-09-02T20:50:38Z</time>
  <course>0.0</course>
  <speed>0.0</speed>
  <fix>3d</fix>
</trkpt>
<trkpt lat="40.0713749" lon="-105.229789">
  <ele>1583.0</ele>
  <time>2026-09-02T20:50:38Z</time>
  <course>0.0</course>
  <speed>0.0</speed>
  <fix>3d</fix>
</trkpt>
<trkpt lat="40.0713749" lon="-105.229789">
  <ele>1583.0</ele>
  <time>2026-09-02T20:50:38Z</time>
  <course>0.0</course>
  <speed>0.0</speed>
  <fix>3d</fix>
</trkpt>
<trkpt lat="40.0713749" lon="-105.229789">
  <ele>1583.0</ele>
  <time>2026-09-02T20:50:38Z</time>
  <course>0.0</course>
  <speed>0.0</speed>
  <fix>3d</fix>
</trkpt>
<trkpt lat="40.0713749" lon="-105.229789">
  <ele>1583.0</ele>
  <time>2026-09-02T20:50:38Z</time>
  <course>0.0</course>
  <speed>0.0</speed>
  <fix>3d</fix>
</trkpt>
<trkpt lat="40.0713749" lon="-105.229789">
  <ele>1583.0</ele>
  <time>2026-09-02T20:50:38Z</time>
  <course>0.0</course>
  <speed>0.0</speed>
  <fix>3d</fix>
</trkpt>
<trkpt lat="40.0713749" lon="-105.229789">
  <ele>1583.0</ele>
  <time>2026-09-02T20:50:38Z</time>
  <course>0.0</course>
  <speed>0.0</speed>
  <fix>3d</fix>
</trkpt>
<trkpt lat="40.0713749" lon="-105.229789">
  <ele>1583.0</ele>
  <time>2026-09-02T20:50:38Z</time>
  <course>0.0</course>
  <speed>0.0</speed>
  <fix>3d</fix>
</trkpt>
<trkpt lat="40.0713749" lon="-105.229789">
  <ele>1583.0</ele>
  <time>2026-09-02T20:50:38Z</time>
  <course>0.0</course>
  <speed>0.0</speed>
  <fix>3d</fix>
</trkpt>
<trkpt lat="40.0713749" lon="-105.229789">
  <ele>1583.0</ele>
  <time>2026-09-02T20:50:38Z</time>
  <course>0.0</course>
  <speed>0.0</speed>
  <fix>3d</fix>
</trkpt>
<trkpt lat="40.0713749" lon="-105.229789">
  <ele>1583.0</ele>
  <time>2026-09-02T20:50:38Z</time>
  <course>0.0</course>
  <speed>0.0</speed>
  <fix>3d</fix>
</trkpt>
<trkpt lat="40.0713749" lon="-105.229789">
  <ele>1583.0</ele>
  <time>2026-09-02T20:50:38Z</time>
  <course>0.0</course>
  <speed>0.0</speed>
  <fix>3d</fix>
</trkpt>
<trkpt lat="40.0713749" lon="-105.229789">
  <ele>1583.0</ele>
  <time>2026-09-02T20:50:38Z</time>
  <course>0.0</course>
  <speed>0.0</speed>
  <fix>3d</fix>
</trkpt>
<trkpt lat="40.0713749" lon="-105.229789">
  <ele>1583.0</ele>
  <time>2026-09-02T20:50:38Z</time>
  <course>0.0</course>
  <speed>0.0</speed>
  <fix>3d</fix>
</trkpt>
<trkpt lat="40.0713749" lon="-105.229789">
  <ele>1583.0</ele>
  <time>2026-09-02T20:50:38Z</time>
  <course>0.0</course>
  <speed>0.0</speed>
  <fix>3d</fix>
</trkpt>
<trkpt lat="40.0713749" lon="-105.229789">
  <ele>1583.0</ele>
  <time>2026-09-02T20:50:38Z</time>
  <course>0.0</course>
  <speed>0.0</speed>
  <fix>3d</fix>
</trkpt>
<trkpt lat="40.0713749" lon="-105.229789">
  <ele>1583.0</ele>
  <time>2026-09-02T20:50:38Z</time>
  <course>0.0</course>
  <speed>0.0</speed>
  <fix>3d</fix>
</trkpt>
<trkpt lat="40.0713749" lon="-105.229789">
  <ele>1583.0</ele>
  <time>2026-09-02T20:50:38Z</time>
  <course>0.0</course>
  <speed>0.0</speed>
  <fix>3d</fix>
</trkpt>
<trkpt lat="40.0713749" lon="-105.229789">
  <ele>1583.0</ele>
  <time>2026-09-02T20:50:38Z</time>
  <course>0.0</course>
  <speed>0.0</speed>
  <fix>3d</fix>
</trkpt>
<trkpt lat="40.0713749" lon="-105.229789">
  <ele>1583.0</ele>
  <time>2026-09-02T20:50:38Z</time>
  <course>0.0</course>
  <speed>0.0</speed>
  <fix>3d</fix>
</trkpt>
<trkpt lat="40.0713749" lon="-105.229789">
  <ele>1583.0</ele>
  <time>2026-09-02T20:50:38Z</time>
  <course>0.0</course>
  <speed>0.0</speed>
  <fix>3d</fix>
</trkpt>
<trkpt lat="40.0713749" lon="-105.229789">
  <ele>1583.0</ele>
  <time>2026-09-02T20:50:38Z</time>
  <course>0.0</course>
  <speed>0.0</speed>
  <fix>3d</fix>
</trkpt>
<trkpt lat="40.0713749" lon="-105.229789">
  <ele>1583.0</ele>
  <time>2026-09-02T20:50:38Z</time>
  <course>0.0</course>
  <speed>0.0</speed>
  <fix>3d</fix>
</trkpt>
<trkpt lat="40.0713749" lon="-105.229789">
  <ele>1583.0</ele>
  <time>2026-09-02T20:50:38Z</time>
  <course>0.0</course>
  <speed>0.0</speed>
  <fix>3d</fix>
</trkpt>
<trkpt lat="40.0713749" lon="-105.229789">
  <ele>1583.0</ele>
  <time>2026-09-02T20:50:38Z</time>
  <course>0.0</course>
  <speed>0.0</speed>
  <fix>3d</fix>
</trkpt>
<trkpt lat="40.0713749" lon="-105.229789">
  <ele>1583.0</ele>
  <time>2026-09-02T20:50:38Z</time>
  <course>0.0</course>
  <speed>0.0</speed>
  <fix>3d</fix>
</trkpt>
<trkpt lat="40.0713749" lon="-105.229789">
  <ele>1583.0</ele>
  <time>2026-09-02T20:50:38Z</time>
  <course>0.0</course>
  <speed>0.0</speed>
  <fix>3d</fix>
</trkpt>
<trkpt lat="40.0713749" lon="-105.229789">
  <ele>1583.0</ele>
  <time>2026-09-02T20:50:38Z</time>
  <course>0.0</course>
  <speed>0.0</speed>
  <fix>3d</fix>
</trkpt>
<trkpt lat="40.0713749" lon="-105.229789">
  <ele>1583.0</ele>
  <time>2026-09-02T20:50:38Z</time>
  <course>0.0</course>
  <speed>0.0</speed>
  <fix>3d</fix>
</trkpt>
<trkpt lat="40.0713749" lon="-105.229789">
  <ele>1583.0</ele>
  <time>2026-09-02T20:50:38Z</time>
  <course>0.0</course>
  <speed>0.0</speed>
  <fix>3d</fix>
</trkpt>
<trkpt lat="40.0713749" lon="-105.229789">
  <ele>1583.0</ele>
  <time>2026-09-02T20:50:38Z</time>
  <course>0.0</course>
  <speed>0.0</speed>
  <fix>3d</fix>
</trkpt>
<trkpt lat="40.0713749" lon="-105.229789">
  <ele>1583.0</ele>
  <time>2026-09-02T20:50:38Z</time>
  <course>0.0</course>
  <speed>0.0</speed>
  <fix>3d</fix>
</trkpt>
<trkpt lat="40.0713749" lon="-105.229789">
  <ele>1583.0</ele>
  <time>2026-09-02T20:50:38Z</time>
  <course>0.0</course>
  <speed>0.0</speed>
  <fix>3d</fix>
</trkpt>
<trkpt lat="40.0713749" lon="-105.229789">
  <ele>1583.0</ele>
  <time>2026-09-02T20:50:38Z</time>
  <course>0.0</course>
  <speed>0.0</speed>
  <fix>3d</fix>
</trkpt>
<trkpt lat="40.0713749" lon="-105.229789">
  <ele>1583.0</ele>
  <time>2026-09-02T20:50:38Z</time>
  <course>0.0</course>
  <speed>0.0</speed>
  <fix>3d</fix>
</trkpt>
<trkpt lat="40.0713749" lon="-105.229789">
  <ele>1583.0</ele>
  <time>2026-09-02T20:50:38Z</time>
  <course>0.0</course>
  <speed>0.0</speed>
  <fix>3d</fix>
</trkpt>
<trkpt lat="40.0713749" lon="-105.229789">
  <ele>1583.0</ele>
  <time>2026-09-02T20:50:38Z</time>
  <course>0.0</course>
  <speed>0.0</speed>
  <fix>3d</fix>
</trkpt>
<trkpt lat="40.0713749" lon="-105.229789">
  <ele>1583.0</ele>
  <time>2026-09-02T20:50:38Z</time>
  <course>0.0</course>
  <speed>0.0</speed>
  <fix>3d</fix>
</trkpt>
<trkpt lat="40.0713749" lon="-105.229789">
  <ele>1583.0</ele>
  <time>2026-09-02T20:50:38Z</time>
  <course>0.0</course>
  <speed>0.0</speed>
  <fix>3d</fix>
</trkpt>
<trkpt lat="40.0713749" lon="-105.229789">
  <ele>1583.0</ele>
  <time>2026-09-02T20:50:38Z</time>
  <course>0.0</course>
  <speed>0.0</speed>
  <fix>3d</fix>
</trkpt>
<trkpt lat="40.0713749" lon="-105.229789">
  <ele>1583.0</ele>
  <time>2026-09-02T20:50:38Z</time>
  <course>0.0</course>
  <speed>0.0</speed>
  <fix>3d</fix>
</trkpt>
<trkpt lat="40.0713749" lon="-105.229789">
  <ele>1583.0</ele>
  <time>2026-09-02T20:50:38Z</time>
  <course>0.0</course>
  <speed>0.0</speed>
  <fix>3d</fix>
</trkpt>
<trkpt lat="40.0713749" lon="-105.229789">
  <ele>1583.0</ele>
  <time>2026-09-02T20:50:38Z</time>
  <course>0.0</course>
  <speed>0.0</speed>
  <fix>3d</fix>
</trkpt>
<trkpt lat="40.0713749" lon="-105.229789">
  <ele>1583.0</ele>
  <time>2026-09-02T20:50:38Z</time>
  <course>0.0</course>
  <speed>0.0</speed>
  <fix>3d</fix>
</trkpt>
<trkpt lat="40.0713749" lon="-105.229789">
  <ele>1583.0</ele>
  <time>2026-09-02T20:50:38Z</time>
  <course>0.0</course>
  <speed>0.0</speed>
  <fix>3d</fix>
</trkpt>
<trkpt lat="40.0713749" lon="-105.229789">
  <ele>1583.0</ele>
  <time>2026-09-02T20:50:38Z</time>
  <course>0.0</course>
  <speed>0.0</speed>
  <fix>3d</fix>
</trkpt>
<trkpt lat="40.0713749" lon="-105.229789">
  <ele>1583.0</ele>
  <time>2026-09-02T20:50:38Z</time>
  <course>0.0</course>
  <speed>0.0</speed>
  <fix>3d</fix>
</trkpt>
<trkpt lat="40.0713749" lon="-105.229789">
  <ele>1583.0</ele>
  <time>2026-09-02T20:50:38Z</time>
  <course>0.0</course>
  <speed>0.0</speed>
  <fix>3d</fix>
</trkpt>
<trkpt lat="40.0713749" lon="-105.229789">
  <ele>1583.0</ele>
  <time>2026-09-02T20:50:38Z</time>
  <course>0.0</course>
  <speed>0.0</speed>
  <fix>3d</fix>
</trkpt>
<trkpt lat="40.0713749" lon="-105.229789">
  <ele>1583.0</ele>
  <time>2026-09-02T20:50:38Z</time>
  <course>0.0</course>
  <speed>0.0</speed>
  <fix>3d</fix>
</trkpt>
<trkpt lat="40.0713749" lon="-105.229789">
  <ele>1583.0</ele>
  <time>2026-09-02T20:50:38Z</time>
  <course>0.0</course>
  <speed>0.0</speed>
  <fix>3d</fix>
</trkpt>
<trkpt lat="40.0713749" lon="-105.229789">
  <ele>1583.0</ele>
  <time>2026-09-02T20:50:38Z</time>
  <course>0.0</course>
  <speed>0.0</speed>
  <fix>3d</fix>
</trkpt>
<trkpt lat="40.0713749" lon="-105.229789">
  <ele>1583.0</ele>
  <time>2026-09-02T20:50:38Z</time>
  <course>0.0</course>
  <speed>0.0</speed>
  <fix>3d</fix>
</trkpt>
<trkpt lat="40.0713749" lon="-105.229789">
  <ele>1583.0</ele>
  <time>2026-09-02T20:50:38Z</time>
  <course>0.0</course>
  <speed>0.0</speed>
  <fix>3d</fix>
</trkpt>
<trkpt lat="40.0713749" lon="-105.229789">
  <ele>1583.0</ele>
  <time>2026-09-02T20:50:38Z</time>
  <course>0.0</course>
  <speed>0.0</speed>
  <fix>3d</fix>
</trkpt>
<trkpt lat="40.0713749" lon="-105.229789">
  <ele>1583.0</ele>
  <time>2026-09-02T20:50:38Z</time>
  <course>0.0</course>
  <speed>0.0</speed>
  <fix>3d</fix>
</trkpt>
<trkpt lat="40.0713749" lon="-105.229789">
  <ele>1583.0</ele>
  <time>2026-09-02T20:50:38Z</time>
  <course>0.0</course>
  <speed>0.0</speed>
  <fix>3d</fix>
</trkpt>
<trkpt lat="40.0713749" lon="-105.229789">
  <ele>1583.0</ele>
  <time>2026-09-02T20:50:38Z</time>
  <course>0.0</course>
  <speed>0.0</speed>
  <fix>3d</fix>
</trkpt>
<trkpt lat="40.0713749" lon="-105.229789">
  <ele>1583.0</ele>
  <time>2026-09-02T20:50:38Z</time>
  <course>0.0</course>
  <speed>0.0</speed>
  <fix>3d</fix>
</trkpt>
<trkpt lat="40.0713749" lon="-105.229789">
  <ele>1583.0</ele>
  <time>2026-09-02T20:50:38Z</time>
  <course>0.0</course>
  <speed>0.0</speed>
  <fix>3d</fix>
</trkpt>
<trkpt lat="40.0713749" lon="-105.229789">
  <ele>1583.0</ele>
  <time>2026-09-02T20:50:38Z</time>
  <course>0.0</course>
  <speed>0.0</speed>
  <fix>3d</fix>
</trkpt>
<trkpt lat="40.0713749" lon="-105.229789">
  <ele>1583.0</ele>
  <time>2026-09-02T20:50:38Z</time>
  <course>0.0</course>
  <speed>0.0</speed>
  <fix>3d</fix>
</trkpt>
<trkpt lat="40.0713749" lon="-105.229789">
  <ele>1583.0</ele>
  <time>2026-09-02T20:50:38Z</time>
  <course>0.0</course>
  <speed>0.0</speed>
  <fix>3d</fix>
</trkpt>
<trkpt lat="40.0713749" lon="-105.229789">
  <ele>1583.0</ele>
  <time>2026-09-02T20:50:38Z</time>
  <course>0.0</course>
  <speed>0.0</speed>
  <fix>3d</fix>
</trkpt>
<trkpt lat="40.0713749" lon="-105.229789">
  <ele>1583.0</ele>
  <time>2026-09-02T20:50:38Z</time>
  <course>0.0</course>
  <speed>0.0</speed>
  <fix>3d</fix>
</trkpt>
<trkpt lat="40.0713749" lon="-105.229789">
  <ele>1583.0</ele>
  <time>2026-09-02T20:50:38Z</time>
  <course>0.0</course>
  <speed>0.0</speed>
  <fix>3d</fix>
</trkpt>
<trkpt lat="40.0713749" lon="-105.229789">
  <ele>1583.0</ele>
  <time>2026-09-02T20:50:38Z</time>
  <course>0.0</course>
  <speed>0.0</speed>
  <fix>3d</fix>
</trkpt>
<trkpt lat="40.0713749" lon="-105.229789">
  <ele>1583.0</ele>
  <time>2026-09-02T20:50:38Z</time>
  <course>0.0</course>
  <speed>0.0</speed>
  <fix>3d</fix>
</trkpt>
<trkpt lat="40.0713749" lon="-105.229789">
  <ele>1583.0</ele>
  <time>2026-09-02T20:50:38Z</time>
  <course>0.0</course>
  <speed>0.0</speed>
  <fix>3d</fix>
</trkpt>
<trkpt lat="40.0713749" lon="-105.229789">
  <ele>1583.0</ele>
  <time>2026-09-02T20:50:38Z</time>
  <course>0.0</course>
  <speed>0.0</speed>
  <fix>3d</fix>
</trkpt>
<trkpt lat="40.0713749" lon="-105.229789">
  <ele>1583.0</ele>
  <time>2026-09-02T20:50:38Z</time>
  <course>0.0</course>
  <speed>0.0</speed>
  <fix>3d</fix>
</trkpt>
<trkpt lat="40.0713749" lon="-105.229789">
  <ele>1583.0</ele>
  <time>2026-09-02T20:50:38Z</time>
  <course>0.0</course>
  <speed>0.0</speed>
  <fix>3d</fix>
</trkpt>
<trkpt lat="40.0713749" lon="-105.229789">
  <ele>1583.0</ele>
  <time>2026-09-02T20:50:38Z</time>
  <course>0.0</course>
  <speed>0.0</speed>
  <fix>3d</fix>
</trkpt>
<trkpt lat="40.0713749" lon="-105.229789">
  <ele>1583.0</ele>
  <time>2026-09-02T20:50:38Z</time>
  <course>0.0</course>
  <speed>0.0</speed>
  <fix>3d</fix>
</trkpt>
<trkpt lat="40.0713749" lon="-105.229789">
  <ele>1583.0</ele>
  <time>2026-09-02T20:50:38Z</time>
  <course>0.0</course>
  <speed>0.0</speed>
  <fix>3d</fix>
</trkpt>
<trkpt lat="40.0713749" lon="-105.229789">
  <ele>1583.0</ele>
  <time>2026-09-02T20:50:38Z</time>
  <course>0.0</course>
  <speed>0.0</speed>
  <fix>3d</fix>
</trkpt>
<trkpt lat="40.0713749" lon="-105.229789">
  <ele>1583.0</ele>
  <time>2026-09-02T20:50:38Z</time>
  <course>0.0</course>
  <speed>0.0</speed>
  <fix>3d</fix>
</trkpt>
<trkpt lat="40.0713749" lon="-105.229789">
  <ele>1583.0</ele>
  <time>2026-09-02T20:50:38Z</time>
  <course>0.0</course>
  <speed>0.0</speed>
  <fix>3d</fix>
</trkpt>
<trkpt lat="40.0713749" lon="-105.229789">
  <ele>1583.0</ele>
  <time>2026-09-02T20:50:38Z</time>
  <course>0.0</course>
  <speed>0.0</speed>
  <fix>3d</fix>
</trkpt>
<trkpt lat="40.0713749" lon="-105.229789">
  <ele>1583.0</ele>
  <time>2026-09-02T20:50:38Z</time>
  <course>0.0</course>
  <speed>0.0</speed>
  <fix>3d</fix>
</trkpt>
<trkpt lat="40.0713749" lon="-105.229789">
  <ele>1583.0</ele>
  <time>2026-09-02T20:50:38Z</time>
  <course>0.0</course>
  <speed>0.0</speed>
  <fix>3d</fix>
</trkpt>
<trkpt lat="40.0713749" lon="-105.229789">
  <ele>1583.0</ele>
  <time>2026-09-02T20:50:38Z</time>
  <course>0.0</course>
  <speed>0.0</speed>
  <fix>3d</fix>
</trkpt>
<trkpt lat="40.0713749" lon="-105.229789">
  <ele>1583.0</ele>
  <time>2026-09-02T20:50:38Z</time>
  <course>0.0</course>
  <speed>0.0</speed>
  <fix>3d</fix>
</trkpt>
<trkpt lat="40.0713749" lon="-105.229789">
  <ele>1583.0</ele>
  <time>2026-09-02T20:50:38Z</time>
  <course>0.0</course>
  <speed>0.0</speed>
  <fix>3d</fix>
</trkpt>
<trkpt lat="40.0713749" lon="-105.229789">
  <ele>1583.0</ele>
  <time>2026-09-02T20:50:38Z</time>
  <course>0.0</course>
  <speed>0.0</speed>
  <fix>3d</fix>
</trkpt>
<trkpt lat="40.0713749" lon="-105.229789">
  <ele>1583.0</ele>
  <time>2026-09-02T20:50:38Z</time>
  <course>0.0</course>
  <speed>0.0</speed>
  <fix>3d</fix>
</trkpt>
<trkpt lat="40.0713749" lon="-105.229789">
  <ele>1583.0</ele>
  <time>2026-09-02T20:50:38Z</time>
  <course>0.0</course>
  <speed>0.0</speed>
  <fix>3d</fix>
</trkpt>
<trkpt lat="40.0713749" lon="-105.229789">
  <ele>1583.0</ele>
  <time>2026-09-02T20:50:38Z</time>
  <course>0.0</course>
  <speed>0.0</speed>
  <fix>3d</fix>
</trkpt>
<trkpt lat="40.0713749" lon="-105.229789">
  <ele>1583.0</ele>
  <time>2026-09-02T20:50:38Z</time>
  <course>0.0</course>
  <speed>0.0</speed>
  <fix>3d</fix>
</trkpt>
<trkpt lat="40.0713749" lon="-105.229789">
  <ele>1583.0</ele>
  <time>2026-09-02T20:50:38Z</time>
  <course>0.0</course>
  <speed>0.0</speed>
  <fix>3d</fix>
</trkpt>
<trkpt lat="40.0713749" lon="-105.229789">
  <ele>1583.0</ele>
  <time>2026-09-02T20:50:38Z</time>
  <course>0.0</course>
  <speed>0.0</speed>
  <fix>3d</fix>
</trkpt>
<trkpt lat="40.0713749" lon="-105.229789">
  <ele>1583.0</ele>
  <time>2026-09-02T20:50:38Z</time>
  <course>0.0</course>
  <speed>0.0</speed>
  <fix>3d</fix>
</trkpt>
<trkpt lat="40.0713749" lon="-105.229789">
  <ele>1583.0</ele>
  <time>2026-09-02T20:50:38Z</time>
  <course>0.0</course>
  <speed>0.0</speed>
  <fix>3d</fix>
</trkpt>
<trkpt lat="40.0713749" lon="-105.229789">
  <ele>1583.0</ele>
  <time>2026-09-02T20:50:38Z</time>
  <course>0.0</course>
  <speed>0.0</speed>
  <fix>3d</fix>
</trkpt>
<trkpt lat="40.0713749" lon="-105.229789">
  <ele>1583.0</ele>
  <time>2026-09-02T20:50:38Z</time>
  <course>0.0</course>
  <speed>0.0</speed>
  <fix>3d</fix>
</trkpt>
<trkpt lat="40.0713749" lon="-105.229789">
  <ele>1583.0</ele>
  <time>2026-09-02T20:50:38Z</time>
  <course>0.0</course>
  <speed>0.0</speed>
  <fix>3d</fix>
</trkpt>
<trkpt lat="40.0713749" lon="-105.229789">
  <ele>1583.0</ele>
  <time>2026-09-02T20:50:38Z</time>
  <course>0.0</course>
  <speed>0.0</speed>
  <fix>3d</fix>
</trkpt>
<trkpt lat="40.0713749" lon="-105.229789">
  <ele>1583.0</ele>
  <time>2026-09-02T20:50:38Z</time>
  <course>0.0</course>
  <speed>0.0</speed>
  <fix>3d</fix>
</trkpt>
<trkpt lat="40.0713749" lon="-105.229789">
  <ele>1583.0</ele>
  <time>2026-09-02T20:50:38Z</time>
  <course>0.0</course>
  <speed>0.0</speed>
  <fix>3d</fix>
</trkpt>
<trkpt lat="40.0713749" lon="-105.229789">
  <ele>1583.0</ele>
  <time>2026-09-02T20:50:38Z</time>
  <course>0.0</course>
  <speed>0.0</speed>
  <fix>3d</fix>
</trkpt>
<trkpt lat="40.0713749" lon="-105.229789">
  <ele>1583.0</ele>
  <time>2026-09-02T20:50:38Z</time>
  <course>0.0</course>
  <speed>0.0</speed>
  <fix>3d</fix>
</trkpt>
<trkpt lat="40.0713749" lon="-105.229789">
  <ele>1583.0</ele>
  <time>2026-09-02T20:50:38Z</time>
  <course>0.0</course>
  <speed>0.0</speed>
  <fix>3d</fix>
</trkpt>
<trkpt lat="40.0713749" lon="-105.229789">
  <ele>1583.0</ele>
  <time>2026-09-02T20:50:38Z</time>
  <course>0.0</course>
  <speed>0.0</speed>
  <fix>3d</fix>
</trkpt>
<trkpt lat="40.0713749" lon="-105.229789">
  <ele>1583.0</ele>
  <time>2026-09-02T20:50:38Z</time>
  <course>0.0</course>
  <speed>0.0</speed>
  <fix>3d</fix>
</trkpt>
<trkpt lat="40.0713749" lon="-105.229789">
  <ele>1583.0</ele>
  <time>2026-09-02T20:50:39Z</time>
  <course>0.0</course>
  <speed>0.0</speed>
  <fix>3d</fix>
</trkpt>
<trkpt lat="40.0713749" lon="-105.229789">
  <ele>1583.0</ele>
  <time>2026-09-02T20:50:39Z</time>
  <course>0.0</course>
  <speed>0.0</speed>
  <fix>3d</fix>
</trkpt>
<trkpt lat="40.0713749" lon="-105.229789">
  <ele>1583.0</ele>
  <time>2026-09-02T20:50:39Z</time>
  <course>0.0</course>
  <speed>0.0</speed>
  <fix>3d</fix>
</trkpt>
<trkpt lat="40.0713749" lon="-105.229789">
  <ele>1583.0</ele>
  <time>2026-09-02T20:50:39Z</time>
  <course>0.0</course>
  <speed>0.0</speed>
  <fix>3d</fix>
</trkpt>
<trkpt lat="40.0713749" lon="-105.229789">
  <ele>1583.0</ele>
  <time>2026-09-02T20:50:39Z</time>
  <course>0.0</course>
  <speed>0.0</speed>
  <fix>3d</fix>
</trkpt>
<trkpt lat="40.0713749" lon="-105.229789">
  <ele>1583.0</ele>
  <time>2026-09-02T20:50:39Z</time>
  <course>0.0</course>
  <speed>0.0</speed>
  <fix>3d</fix>
</trkpt>
<trkpt lat="40.0713749" lon="-105.229789">
  <ele>1583.0</ele>
  <time>2026-09-02T20:50:39Z</time>
  <course>0.0</course>
  <speed>0.0</speed>
  <fix>3d</fix>
</trkpt>
<trkpt lat="40.0713749" lon="-105.229789">
  <ele>1583.0</ele>
  <time>2026-09-02T20:50:39Z</time>
  <course>0.0</course>
  <speed>0.0</speed>
  <fix>3d</fix>
</trkpt>
<trkpt lat="40.0713749" lon="-105.229789">
  <ele>1583.0</ele>
  <time>2026-09-02T20:50:39Z</time>
  <course>0.0</course>
  <speed>0.0</speed>
  <fix>3d</fix>
</trkpt>
<trkpt lat="40.0713749" lon="-105.229789">
  <ele>1583.0</ele>
  <time>2026-09-02T20:50:39Z</time>
  <course>0.0</course>
  <speed>0.0</speed>
  <fix>3d</fix>
</trkpt>
<trkpt lat="40.0713749" lon="-105.229789">
  <ele>1583.0</ele>
  <time>2026-09-02T20:50:39Z</time>
  <course>0.0</course>
  <speed>0.0</speed>
  <fix>3d</fix>
</trkpt>
<trkpt lat="40.0713749" lon="-105.229789">
  <ele>1583.0</ele>
  <time>2026-09-02T20:50:39Z</time>
  <course>0.0</course>
  <speed>0.0</speed>
  <fix>3d</fix>
</trkpt>
<trkpt lat="40.0713749" lon="-105.229789">
  <ele>1583.0</ele>
  <time>2026-09-02T20:50:39Z</time>
  <course>0.0</course>
  <speed>0.0</speed>
  <fix>3d</fix>
</trkpt>
<trkpt lat="40.0713749" lon="-105.229789">
  <ele>1583.0</ele>
  <time>2026-09-02T20:50:39Z</time>
  <course>0.0</course>
  <speed>0.0</speed>
  <fix>3d</fix>
</trkpt>
<trkpt lat="40.0713749" lon="-105.229789">
  <ele>1583.0</ele>
  <time>2026-09-02T20:50:39Z</time>
  <course>0.0</course>
  <speed>0.0</speed>
  <fix>3d</fix>
</trkpt>
<trkpt lat="40.0713749" lon="-105.229789">
  <ele>1583.0</ele>
  <time>2026-09-02T20:50:39Z</time>
  <course>0.0</course>
  <speed>0.0</speed>
  <fix>3d</fix>
</trkpt>
<trkpt lat="40.0713749" lon="-105.229789">
  <ele>1583.0</ele>
  <time>2026-09-02T20:50:39Z</time>
  <course>0.0</course>
  <speed>0.0</speed>
  <fix>3d</fix>
</trkpt>
<trkpt lat="40.0713749" lon="-105.229789">
  <ele>1583.0</ele>
  <time>2026-09-02T20:50:39Z</time>
  <course>0.0</course>
  <speed>0.0</speed>
  <fix>3d</fix>
</trkpt>
<trkpt lat="40.0713749" lon="-105.229789">
  <ele>1583.0</ele>
  <time>2026-09-02T20:50:39Z</time>
  <course>0.0</course>
  <speed>0.0</speed>
  <fix>3d</fix>
</trkpt>
<trkpt lat="40.0713749" lon="-105.229789">
  <ele>1583.0</ele>
  <time>2026-09-02T20:50:39Z</time>
  <course>0.0</course>
  <speed>0.0</speed>
  <fix>3d</fix>
</trkpt>
<trkpt lat="40.0713749" lon="-105.229789">
  <ele>1583.0</ele>
  <time>2026-09-02T20:50:39Z</time>
  <course>0.0</course>
  <speed>0.0</speed>
  <fix>3d</fix>
</trkpt>
<trkpt lat="40.0713749" lon="-105.229789">
  <ele>1583.0</ele>
  <time>2026-09-02T20:50:39Z</time>
  <course>0.0</course>
  <speed>0.0</speed>
  <fix>3d</fix>
</trkpt>
<trkpt lat="40.0713749" lon="-105.229789">
  <ele>1583.0</ele>
  <time>2026-09-02T20:50:39Z</time>
  <course>0.0</course>
  <speed>0.0</speed>
  <fix>3d</fix>
</trkpt>
<trkpt lat="40.0713749" lon="-105.229789">
  <ele>1583.0</ele>
  <time>2026-09-02T20:50:39Z</time>
  <course>0.0</course>
  <speed>0.0</speed>
  <fix>3d</fix>
</trkpt>
<trkpt lat="40.0713749" lon="-105.229789">
  <ele>1583.0</ele>
  <time>2026-09-02T20:50:39Z</time>
  <course>0.0</course>
  <speed>0.0</speed>
  <fix>3d</fix>
</trkpt>
<trkpt lat="40.0713749" lon="-105.229789">
  <ele>1583.0</ele>
  <time>2026-09-02T20:50:39Z</time>
  <course>0.0</course>
  <speed>0.0</speed>
  <fix>3d</fix>
</trkpt>
<trkpt lat="40.0713749" lon="-105.229789">
  <ele>1583.0</ele>
  <time>2026-09-02T20:50:39Z</time>
  <course>0.0</course>
  <speed>0.0</speed>
  <fix>3d</fix>
</trkpt>
<trkpt lat="40.0713749" lon="-105.229789">
  <ele>1583.0</ele>
  <time>2026-09-02T20:50:39Z</time>
  <course>0.0</course>
  <speed>0.0</speed>
  <fix>3d</fix>
</trkpt>
<trkpt lat="40.0713749" lon="-105.229789">
  <ele>1583.0</ele>
  <time>2026-09-02T20:50:39Z</time>
  <course>0.0</course>
  <speed>0.0</speed>
  <fix>3d</fix>
</trkpt>
<trkpt lat="40.0713749" lon="-105.229789">
  <ele>1583.0</ele>
  <time>2026-09-02T20:50:39Z</time>
  <course>0.0</course>
  <speed>0.0</speed>
  <fix>3d</fix>
</trkpt>
<trkpt lat="40.0713749" lon="-105.229789">
  <ele>1583.0</ele>
  <time>2026-09-02T20:50:39Z</time>
  <course>0.0</course>
  <speed>0.0</speed>
  <fix>3d</fix>
</trkpt>
<trkpt lat="40.0713749" lon="-105.229789">
  <ele>1583.0</ele>
  <time>2026-09-02T20:50:39Z</time>
  <course>0.0</course>
  <speed>0.0</speed>
  <fix>3d</fix>
</trkpt>
<trkpt lat="40.0713749" lon="-105.229789">
  <ele>1583.0</ele>
  <time>2026-09-02T20:50:39Z</time>
  <course>0.0</course>
  <speed>0.0</speed>
  <fix>3d</fix>
</trkpt>
<trkpt lat="40.0713749" lon="-105.229789">
  <ele>1583.0</ele>
  <time>2026-09-02T20:50:39Z</time>
  <course>0.0</course>
  <speed>0.0</speed>
  <fix>3d</fix>
</trkpt>
<trkpt lat="40.0713749" lon="-105.229789">
  <ele>1583.0</ele>
  <time>2026-09-02T20:50:39Z</time>
  <course>0.0</course>
  <speed>0.0</speed>
  <fix>3d</fix>
</trkpt>
<trkpt lat="40.0713749" lon="-105.229789">
  <ele>1583.0</ele>
  <time>2026-09-02T20:50:39Z</time>
  <course>0.0</course>
  <speed>0.0</speed>
  <fix>3d</fix>
</trkpt>
<trkpt lat="40.0713749" lon="-105.229789">
  <ele>1583.0</ele>
  <time>2026-09-02T20:50:39Z</time>
  <course>0.0</course>
  <speed>0.0</speed>
  <fix>3d</fix>
</trkpt>
<trkpt lat="40.0713749" lon="-105.229789">
  <ele>1583.0</ele>
  <time>2026-09-02T20:50:39Z</time>
  <course>0.0</course>
  <speed>0.0</speed>
  <fix>3d</fix>
</trkpt>
<trkpt lat="40.0713749" lon="-105.229789">
  <ele>1583.0</ele>
  <time>2026-09-02T20:50:39Z</time>
  <course>0.0</course>
  <speed>0.0</speed>
  <fix>3d</fix>
</trkpt>
<trkpt lat="40.0713749" lon="-105.229789">
  <ele>1583.0</ele>
  <time>2026-09-02T20:50:39Z</time>
  <course>0.0</course>
  <speed>0.0</speed>
  <fix>3d</fix>
</trkpt>
<trkpt lat="40.0713749" lon="-105.229789">
  <ele>1583.0</ele>
  <time>2026-09-02T20:50:39Z</time>
  <course>0.0</course>
  <speed>0.0</speed>
  <fix>3d</fix>
</trkpt>
<trkpt lat="40.0713749" lon="-105.229789">
  <ele>1583.0</ele>
  <time>2026-09-02T20:50:39Z</time>
  <course>0.0</course>
  <speed>0.0</speed>
  <fix>3d</fix>
</trkpt>
<trkpt lat="40.0713749" lon="-105.229789">
  <ele>1583.0</ele>
  <time>2026-09-02T20:50:39Z</time>
  <course>0.0</course>
  <speed>0.0</speed>
  <fix>3d</fix>
</trkpt>
<trkpt lat="40.0713749" lon="-105.229789">
  <ele>1583.0</ele>
  <time>2026-09-02T20:50:39Z</time>
  <course>0.0</course>
  <speed>0.0</speed>
  <fix>3d</fix>
</trkpt>
<trkpt lat="40.0713749" lon="-105.229789">
  <ele>1583.0</ele>
  <time>2026-09-02T20:50:39Z</time>
  <course>0.0</course>
  <speed>0.0</speed>
  <fix>3d</fix>
</trkpt>
<trkpt lat="40.0713749" lon="-105.229789">
  <ele>1583.0</ele>
  <time>2026-09-02T20:50:39Z</time>
  <course>0.0</course>
  <speed>0.0</speed>
  <fix>3d</fix>
</trkpt>
<trkpt lat="40.0713749" lon="-105.229789">
  <ele>1583.0</ele>
  <time>2026-09-02T20:50:39Z</time>
  <course>0.0</course>
  <speed>0.0</speed>
  <fix>3d</fix>
</trkpt>
<trkpt lat="40.0713749" lon="-105.229789">
  <ele>1583.0</ele>
  <time>2026-09-02T20:50:39Z</time>
  <course>0.0</course>
  <speed>0.0</speed>
  <fix>3d</fix>
</trkpt>
<trkpt lat="40.0713749" lon="-105.229789">
  <ele>1583.0</ele>
  <time>2026-09-02T20:50:39Z</time>
  <course>0.0</course>
  <speed>0.0</speed>
  <fix>3d</fix>
</trkpt>
<trkpt lat="40.0713749" lon="-105.229789">
  <ele>1583.0</ele>
  <time>2026-09-02T20:50:39Z</time>
  <course>0.0</course>
  <speed>0.0</speed>
  <fix>3d</fix>
</trkpt>
<trkpt lat="40.0713749" lon="-105.229789">
  <ele>1583.0</ele>
  <time>2026-09-02T20:50:39Z</time>
  <course>0.0</course>
  <speed>0.0</speed>
  <fix>3d</fix>
</trkpt>
<trkpt lat="40.0713749" lon="-105.229789">
  <ele>1583.0</ele>
  <time>2026-09-02T20:50:39Z</time>
  <course>0.0</course>
  <speed>0.0</speed>
  <fix>3d</fix>
</trkpt>
<trkpt lat="40.0713749" lon="-105.229789">
  <ele>1583.0</ele>
  <time>2026-09-02T20:50:39Z</time>
  <course>0.0</course>
  <speed>0.0</speed>
  <fix>3d</fix>
</trkpt>
<trkpt lat="40.0713749" lon="-105.229789">
  <ele>1583.0</ele>
  <time>2026-09-02T20:50:39Z</time>
  <course>0.0</course>
  <speed>0.0</speed>
  <fix>3d</fix>
</trkpt>
<trkpt lat="40.0713749" lon="-105.229789">
  <ele>1583.0</ele>
  <time>2026-09-02T20:50:39Z</time>
  <course>0.0</course>
  <speed>0.0</speed>
  <fix>3d</fix>
</trkpt>
<trkpt lat="40.0713749" lon="-105.229789">
  <ele>1583.0</ele>
  <time>2026-09-02T20:50:39Z</time>
  <course>0.0</course>
  <speed>0.0</speed>
  <fix>3d</fix>
</trkpt>
<trkpt lat="40.0713749" lon="-105.229789">
  <ele>1583.0</ele>
  <time>2026-09-02T20:50:39Z</time>
  <course>0.0</course>
  <speed>0.0</speed>
  <fix>3d</fix>
</trkpt>
<trkpt lat="40.0713749" lon="-105.229789">
  <ele>1583.0</ele>
  <time>2026-09-02T20:50:39Z</time>
  <course>0.0</course>
  <speed>0.0</speed>
  <fix>3d</fix>
</trkpt>
<trkpt lat="40.0713749" lon="-105.229789">
  <ele>1583.0</ele>
  <time>2026-09-02T20:50:39Z</time>
  <course>0.0</course>
  <speed>0.0</speed>
  <fix>3d</fix>
</trkpt>
<trkpt lat="40.0713749" lon="-105.229789">
  <ele>1583.0</ele>
  <time>2026-09-02T20:50:39Z</time>
  <course>0.0</course>
  <speed>0.0</speed>
  <fix>3d</fix>
</trkpt>
<trkpt lat="40.0713749" lon="-105.229789">
  <ele>1583.0</ele>
  <time>2026-09-02T20:50:39Z</time>
  <course>0.0</course>
  <speed>0.0</speed>
  <fix>3d</fix>
</trkpt>
<trkpt lat="40.0713749" lon="-105.229789">
  <ele>1583.0</ele>
  <time>2026-09-02T20:50:39Z</time>
  <course>0.0</course>
  <speed>0.0</speed>
  <fix>3d</fix>
</trkpt>
<trkpt lat="40.0713749" lon="-105.229789">
  <ele>1583.0</ele>
  <time>2026-09-02T20:50:39Z</time>
  <course>0.0</course>
  <speed>0.0</speed>
  <fix>3d</fix>
</trkpt>
<trkpt lat="40.0713749" lon="-105.229789">
  <ele>1583.0</ele>
  <time>2026-09-02T20:50:39Z</time>
  <course>0.0</course>
  <speed>0.0</speed>
  <fix>3d</fix>
</trkpt>
<trkpt lat="40.0713749" lon="-105.229789">
  <ele>1583.0</ele>
  <time>2026-09-02T20:50:39Z</time>
  <course>0.0</course>
  <speed>0.0</speed>
  <fix>3d</fix>
</trkpt>
<trkpt lat="40.0713749" lon="-105.229789">
  <ele>1583.0</ele>
  <time>2026-09-02T20:50:39Z</time>
  <course>0.0</course>
  <speed>0.0</speed>
  <fix>3d</fix>
</trkpt>
<trkpt lat="40.0713749" lon="-105.229789">
  <ele>1583.0</ele>
  <time>2026-09-02T20:50:39Z</time>
  <course>0.0</course>
  <speed>0.0</speed>
  <fix>3d</fix>
</trkpt>
<trkpt lat="40.0713749" lon="-105.229789">
  <ele>1583.0</ele>
  <time>2026-09-02T20:50:39Z</time>
  <course>0.0</course>
  <speed>0.0</speed>
  <fix>3d</fix>
</trkpt>
<trkpt lat="40.0713749" lon="-105.229789">
  <ele>1583.0</ele>
  <time>2026-09-02T20:50:39Z</time>
  <course>0.0</course>
  <speed>0.0</speed>
  <fix>3d</fix>
</trkpt>
<trkpt lat="40.0713749" lon="-105.229789">
  <ele>1583.0</ele>
  <time>2026-09-02T20:50:39Z</time>
  <course>0.0</course>
  <speed>0.0</speed>
  <fix>3d</fix>
</trkpt>
<trkpt lat="40.0713749" lon="-105.229789">
  <ele>1583.0</ele>
  <time>2026-09-02T20:50:39Z</time>
  <course>0.0</course>
  <speed>0.0</speed>
  <fix>3d</fix>
</trkpt>
<trkpt lat="40.0713749" lon="-105.229789">
  <ele>1583.0</ele>
  <time>2026-09-02T20:50:39Z</time>
  <course>0.0</course>
  <speed>0.0</speed>
  <fix>3d</fix>
</trkpt>
<trkpt lat="40.0713749" lon="-105.229789">
  <ele>1583.0</ele>
  <time>2026-09-02T20:50:39Z</time>
  <course>0.0</course>
  <speed>0.0</speed>
  <fix>3d</fix>
</trkpt>
<trkpt lat="40.0713749" lon="-105.229789">
  <ele>1583.0</ele>
  <time>2026-09-02T20:50:39Z</time>
  <course>0.0</course>
  <speed>0.0</speed>
  <fix>3d</fix>
</trkpt>
<trkpt lat="40.0713749" lon="-105.229789">
  <ele>1583.0</ele>
  <time>2026-09-02T20:50:39Z</time>
  <course>0.0</course>
  <speed>0.0</speed>
  <fix>3d</fix>
</trkpt>
<trkpt lat="40.0713749" lon="-105.229789">
  <ele>1583.0</ele>
  <time>2026-09-02T20:50:39Z</time>
  <course>0.0</course>
  <speed>0.0</speed>
  <fix>3d</fix>
</trkpt>
<trkpt lat="40.0713749" lon="-105.229789">
  <ele>1583.0</ele>
  <time>2026-09-02T20:50:39Z</time>
  <course>0.0</course>
  <speed>0.0</speed>
  <fix>3d</fix>
</trkpt>
<trkpt lat="40.0713749" lon="-105.229789">
  <ele>1583.0</ele>
  <time>2026-09-02T20:50:39Z</time>
  <course>0.0</course>
  <speed>0.0</speed>
  <fix>3d</fix>
</trkpt>
<trkpt lat="40.0713749" lon="-105.229789">
  <ele>1583.0</ele>
  <time>2026-09-02T20:50:39Z</time>
  <course>0.0</course>
  <speed>0.0</speed>
  <fix>3d</fix>
</trkpt>
<trkpt lat="40.0713749" lon="-105.229789">
  <ele>1583.0</ele>
  <time>2026-09-02T20:50:39Z</time>
  <course>0.0</course>
  <speed>0.0</speed>
  <fix>3d</fix>
</trkpt>
<trkpt lat="40.0713749" lon="-105.229789">
  <ele>1583.0</ele>
  <time>2026-09-02T20:50:39Z</time>
  <course>0.0</course>
  <speed>0.0</speed>
  <fix>3d</fix>
</trkpt>
<trkpt lat="40.0713749" lon="-105.229789">
  <ele>1583.0</ele>
  <time>2026-09-02T20:50:39Z</time>
  <course>0.0</course>
  <speed>0.0</speed>
  <fix>3d</fix>
</trkpt>
<trkpt lat="40.0713749" lon="-105.229789">
  <ele>1583.0</ele>
  <time>2026-09-02T20:50:39Z</time>
  <course>0.0</course>
  <speed>0.0</speed>
  <fix>3d</fix>
</trkpt>
<trkpt lat="40.0713749" lon="-105.229789">
  <ele>1583.0</ele>
  <time>2026-09-02T20:50:39Z</time>
  <course>0.0</course>
  <speed>0.0</speed>
  <fix>3d</fix>
</trkpt>
<trkpt lat="40.0713749" lon="-105.229789">
  <ele>1583.0</ele>
  <time>2026-09-02T20:50:39Z</time>
  <course>0.0</course>
  <speed>0.0</speed>
  <fix>3d</fix>
</trkpt>
<trkpt lat="40.0713749" lon="-105.229789">
  <ele>1583.0</ele>
  <time>2026-09-02T20:50:39Z</time>
  <course>0.0</course>
  <speed>0.0</speed>
  <fix>3d</fix>
</trkpt>
<trkpt lat="40.0713749" lon="-105.229789">
  <ele>1583.0</ele>
  <time>2026-09-02T20:50:39Z</time>
  <course>0.0</course>
  <speed>0.0</speed>
  <fix>3d</fix>
</trkpt>
<trkpt lat="40.0713749" lon="-105.229789">
  <ele>1583.0</ele>
  <time>2026-09-02T20:50:39Z</time>
  <course>0.0</course>
  <speed>0.0</speed>
  <fix>3d</fix>
</trkpt>
<trkpt lat="40.0713749" lon="-105.229789">
  <ele>1583.0</ele>
  <time>2026-09-02T20:50:39Z</time>
  <course>0.0</course>
  <speed>0.0</speed>
  <fix>3d</fix>
</trkpt>
<trkpt lat="40.0713749" lon="-105.229789">
  <ele>1583.0</ele>
  <time>2026-09-02T20:50:39Z</time>
  <course>0.0</course>
  <speed>0.0</speed>
  <fix>3d</fix>
</trkpt>
<trkpt lat="40.0713749" lon="-105.229789">
  <ele>1583.0</ele>
  <time>2026-09-02T20:50:39Z</time>
  <course>0.0</course>
  <speed>0.0</speed>
  <fix>3d</fix>
</trkpt>
<trkpt lat="40.0713749" lon="-105.229789">
  <ele>1583.0</ele>
  <time>2026-09-02T20:50:39Z</time>
  <course>0.0</course>
  <speed>0.0</speed>
  <fix>3d</fix>
</trkpt>
<trkpt lat="40.0713749" lon="-105.229789">
  <ele>1583.0</ele>
  <time>2026-09-02T20:50:39Z</time>
  <course>0.0</course>
  <speed>0.0</speed>
  <fix>3d</fix>
</trkpt>
<trkpt lat="40.0713749" lon="-105.229789">
  <ele>1583.0</ele>
  <time>2026-09-02T20:50:39Z</time>
  <course>0.0</course>
  <speed>0.0</speed>
  <fix>3d</fix>
</trkpt>
<trkpt lat="40.0713749" lon="-105.229789">
  <ele>1583.0</ele>
  <time>2026-09-02T20:50:39Z</time>
  <course>0.0</course>
  <speed>0.0</speed>
  <fix>3d</fix>
</trkpt>
<trkpt lat="40.0713749" lon="-105.229789">
  <ele>1583.0</ele>
  <time>2026-09-02T20:50:39Z</time>
  <course>0.0</course>
  <speed>0.0</speed>
  <fix>3d</fix>
</trkpt>
<trkpt lat="40.0713749" lon="-105.229789">
  <ele>1583.0</ele>
  <time>2026-09-02T20:50:39Z</time>
  <course>0.0</course>
  <speed>0.0</speed>
  <fix>3d</fix>
</trkpt>
<trkpt lat="40.0713749" lon="-105.229789">
  <ele>1583.0</ele>
  <time>2026-09-02T20:50:39Z</time>
  <course>0.0</course>
  <speed>0.0</speed>
  <fix>3d</fix>
</trkpt>
<trkpt lat="40.0713749" lon="-105.229789">
  <ele>1583.0</ele>
  <time>2026-09-02T20:50:39Z</time>
  <course>0.0</course>
  <speed>0.0</speed>
  <fix>3d</fix>
</trkpt>
<trkpt lat="40.0713749" lon="-105.229789">
  <ele>1583.0</ele>
  <time>2026-09-02T20:50:39Z</time>
  <course>0.0</course>
  <speed>0.0</speed>
  <fix>3d</fix>
</trkpt>
<trkpt lat="40.0713749" lon="-105.229789">
  <ele>1583.0</ele>
  <time>2026-09-02T20:50:39Z</time>
  <course>0.0</course>
  <speed>0.0</speed>
  <fix>3d</fix>
</trkpt>
<trkpt lat="40.0713749" lon="-105.229789">
  <ele>1583.0</ele>
  <time>2026-09-02T20:50:39Z</time>
  <course>0.0</course>
  <speed>0.0</speed>
  <fix>3d</fix>
</trkpt>
<trkpt lat="40.0713749" lon="-105.229789">
  <ele>1583.0</ele>
  <time>2026-09-02T20:50:39Z</time>
  <course>0.0</course>
  <speed>0.0</speed>
  <fix>3d</fix>
</trkpt>
<trkpt lat="40.0713749" lon="-105.229789">
  <ele>1583.0</ele>
  <time>2026-09-02T20:50:39Z</time>
  <course>0.0</course>
  <speed>0.0</speed>
  <fix>3d</fix>
</trkpt>
<trkpt lat="40.0713749" lon="-105.229789">
  <ele>1583.0</ele>
  <time>2026-09-02T20:50:39Z</time>
  <course>0.0</course>
  <speed>0.0</speed>
  <fix>3d</fix>
</trkpt>
<trkpt lat="40.0713749" lon="-105.229789">
  <ele>1583.0</ele>
  <time>2026-09-02T20:50:39Z</time>
  <course>0.0</course>
  <speed>0.0</speed>
  <fix>3d</fix>
</trkpt>
<trkpt lat="40.0713749" lon="-105.229789">
  <ele>1583.0</ele>
  <time>2026-09-02T20:50:39Z</time>
  <course>0.0</course>
  <speed>0.0</speed>
  <fix>3d</fix>
</trkpt>
<trkpt lat="40.0713749" lon="-105.229789">
  <ele>1583.0</ele>
  <time>2026-09-02T20:50:39Z</time>
  <course>0.0</course>
  <speed>0.0</speed>
  <fix>3d</fix>
</trkpt>
<trkpt lat="40.0713749" lon="-105.229789">
  <ele>1583.0</ele>
  <time>2026-09-02T20:50:39Z</time>
  <course>0.0</course>
  <speed>0.0</speed>
  <fix>3d</fix>
</trkpt>
<trkpt lat="40.0713749" lon="-105.229789">
  <ele>1583.0</ele>
  <time>2026-09-02T20:50:39Z</time>
  <course>0.0</course>
  <speed>0.0</speed>
  <fix>3d</fix>
</trkpt>
<trkpt lat="40.0713749" lon="-105.229789">
  <ele>1583.0</ele>
  <time>2026-09-02T20:50:39Z</time>
  <course>0.0</course>
  <speed>0.0</speed>
  <fix>3d</fix>
</trkpt>
<trkpt lat="40.0713749" lon="-105.229789">
  <ele>1583.0</ele>
  <time>2026-09-02T20:50:39Z</time>
  <course>0.0</course>
  <speed>0.0</speed>
  <fix>3d</fix>
</trkpt>
<trkpt lat="40.0713749" lon="-105.229789">
  <ele>1583.0</ele>
  <time>2026-09-02T20:50:39Z</time>
  <course>0.0</course>
  <speed>0.0</speed>
  <fix>3d</fix>
</trkpt>
<trkpt lat="40.0713749" lon="-105.229789">
  <ele>1583.0</ele>
  <time>2026-09-02T20:50:39Z</time>
  <course>0.0</course>
  <speed>0.0</speed>
  <fix>3d</fix>
</trkpt>
<trkpt lat="40.0713749" lon="-105.229789">
  <ele>1583.0</ele>
  <time>2026-09-02T20:50:39Z</time>
  <course>0.0</course>
  <speed>0.0</speed>
  <fix>3d</fix>
</trkpt>
<trkpt lat="40.0713749" lon="-105.229789">
  <ele>1583.0</ele>
  <time>2026-09-02T20:50:39Z</time>
  <course>0.0</course>
  <speed>0.0</speed>
  <fix>3d</fix>
</trkpt>
<trkpt lat="40.0713749" lon="-105.229789">
  <ele>1583.0</ele>
  <time>2026-09-02T20:50:39Z</time>
  <course>0.0</course>
  <speed>0.0</speed>
  <fix>3d</fix>
</trkpt>
<trkpt lat="40.0713749" lon="-105.229789">
  <ele>1583.0</ele>
  <time>2026-09-02T20:50:39Z</time>
  <course>0.0</course>
  <speed>0.0</speed>
  <fix>3d</fix>
</trkpt>
<trkpt lat="40.0713749" lon="-105.229789">
  <ele>1583.0</ele>
  <time>2026-09-02T20:50:39Z</time>
  <course>0.0</course>
  <speed>0.0</speed>
  <fix>3d</fix>
</trkpt>
<trkpt lat="40.0713749" lon="-105.229789">
  <ele>1583.0</ele>
  <time>2026-09-02T20:50:39Z</time>
  <course>0.0</course>
  <speed>0.0</speed>
  <fix>3d</fix>
</trkpt>
<trkpt lat="40.0713749" lon="-105.229789">
  <ele>1583.0</ele>
  <time>2026-09-02T20:50:39Z</time>
  <course>0.0</course>
  <speed>0.0</speed>
  <fix>3d</fix>
</trkpt>
<trkpt lat="40.0713749" lon="-105.229789">
  <ele>1583.0</ele>
  <time>2026-09-02T20:50:39Z</time>
  <course>0.0</course>
  <speed>0.0</speed>
  <fix>3d</fix>
</trkpt>
<trkpt lat="40.0713749" lon="-105.229789">
  <ele>1583.0</ele>
  <time>2026-09-02T20:50:39Z</time>
  <course>0.0</course>
  <speed>0.0</speed>
  <fix>3d</fix>
</trkpt>
<trkpt lat="40.0713749" lon="-105.229789">
  <ele>1583.0</ele>
  <time>2026-09-02T20:50:39Z</time>
  <course>0.0</course>
  <speed>0.0</speed>
  <fix>3d</fix>
</trkpt>
<trkpt lat="40.0713749" lon="-105.229789">
  <ele>1583.0</ele>
  <time>2026-09-02T20:50:39Z</time>
  <course>0.0</course>
  <speed>0.0</speed>
  <fix>3d</fix>
</trkpt>
<trkpt lat="40.0713749" lon="-105.229789">
  <ele>1583.0</ele>
  <time>2026-09-02T20:50:39Z</time>
  <course>0.0</course>
  <speed>0.0</speed>
  <fix>3d</fix>
</trkpt>
<trkpt lat="40.0713749" lon="-105.229789">
  <ele>1583.0</ele>
  <time>2026-09-02T20:50:39Z</time>
  <course>0.0</course>
  <speed>0.0</speed>
  <fix>3d</fix>
</trkpt>
<trkpt lat="40.0713749" lon="-105.229789">
  <ele>1583.0</ele>
  <time>2026-09-02T20:50:39Z</time>
  <course>0.0</course>
  <speed>0.0</speed>
  <fix>3d</fix>
</trkpt>
<trkpt lat="40.0713749" lon="-105.229789">
  <ele>1583.0</ele>
  <time>2026-09-02T20:50:39Z</time>
  <course>0.0</course>
  <speed>0.0</speed>
  <fix>3d</fix>
</trkpt>
<trkpt lat="40.0713749" lon="-105.229789">
  <ele>1583.0</ele>
  <time>2026-09-02T20:50:39Z</time>
  <course>0.0</course>
  <speed>0.0</speed>
  <fix>3d</fix>
</trkpt>
<trkpt lat="40.0713749" lon="-105.229789">
  <ele>1583.0</ele>
  <time>2026-09-02T20:50:39Z</time>
  <course>0.0</course>
  <speed>0.0</speed>
  <fix>3d</fix>
</trkpt>
<trkpt lat="40.0713749" lon="-105.229789">
  <ele>1583.0</ele>
  <time>2026-09-02T20:50:39Z</time>
  <course>0.0</course>
  <speed>0.0</speed>
  <fix>3d</fix>
</trkpt>
<trkpt lat="40.0713749" lon="-105.229789">
  <ele>1583.0</ele>
  <time>2026-09-02T20:50:39Z</time>
  <course>0.0</course>
  <speed>0.0</speed>
  <fix>3d</fix>
</trkpt>
<trkpt lat="40.0713749" lon="-105.229789">
  <ele>1583.0</ele>
  <time>2026-09-02T20:50:39Z</time>
  <course>0.0</course>
  <speed>0.0</speed>
  <fix>3d</fix>
</trkpt>
<trkpt lat="40.0713749" lon="-105.229789">
  <ele>1583.0</ele>
  <time>2026-09-02T20:50:39Z</time>
  <course>0.0</course>
  <speed>0.0</speed>
  <fix>3d</fix>
</trkpt>
<trkpt lat="40.0713749" lon="-105.229789">
  <ele>1583.0</ele>
  <time>2026-09-02T20:50:39Z</time>
  <course>0.0</course>
  <speed>0.0</speed>
  <fix>3d</fix>
</trkpt>
<trkpt lat="40.0713749" lon="-105.229789">
  <ele>1583.0</ele>
  <time>2026-09-02T20:50:39Z</time>
  <course>0.0</course>
  <speed>0.0</speed>
  <fix>3d</fix>
</trkpt>
<trkpt lat="40.0713749" lon="-105.229789">
  <ele>1583.0</ele>
  <time>2026-09-02T20:50:39Z</time>
  <course>0.0</course>
  <speed>0.0</speed>
  <fix>3d</fix>
</trkpt>
<trkpt lat="40.0713749" lon="-105.229789">
  <ele>1583.0</ele>
  <time>2026-09-02T20:50:39Z</time>
  <course>0.0</course>
  <speed>0.0</speed>
  <fix>3d</fix>
</trkpt>
<trkpt lat="40.0713749" lon="-105.229789">
  <ele>1583.0</ele>
  <time>2026-09-02T20:50:39Z</time>
  <course>0.0</course>
  <speed>0.0</speed>
  <fix>3d</fix>
</trkpt>
<trkpt lat="40.0713749" lon="-105.229789">
  <ele>1583.0</ele>
  <time>2026-09-02T20:50:39Z</time>
  <course>0.0</course>
  <speed>0.0</speed>
  <fix>3d</fix>
</trkpt>
<trkpt lat="40.0713749" lon="-105.229789">
  <ele>1583.0</ele>
  <time>2026-09-02T20:50:39Z</time>
  <course>0.0</course>
  <speed>0.0</speed>
  <fix>3d</fix>
</trkpt>
<trkpt lat="40.0713749" lon="-105.229789">
  <ele>1583.0</ele>
  <time>2026-09-02T20:50:39Z</time>
  <course>0.0</course>
  <speed>0.0</speed>
  <fix>3d</fix>
</trkpt>
<trkpt lat="40.0713749" lon="-105.229789">
  <ele>1583.0</ele>
  <time>2026-09-02T20:50:39Z</time>
  <course>0.0</course>
  <speed>0.0</speed>
  <fix>3d</fix>
</trkpt>
<trkpt lat="40.0713749" lon="-105.229789">
  <ele>1583.0</ele>
  <time>2026-09-02T20:50:39Z</time>
  <course>0.0</course>
  <speed>0.0</speed>
  <fix>3d</fix>
</trkpt>
<trkpt lat="40.0713749" lon="-105.229789">
  <ele>1583.0</ele>
  <time>2026-09-02T20:50:39Z</time>
  <course>0.0</course>
  <speed>0.0</speed>
  <fix>3d</fix>
</trkpt>
<trkpt lat="40.0713749" lon="-105.229789">
  <ele>1583.0</ele>
  <time>2026-09-02T20:50:39Z</time>
  <course>0.0</course>
  <speed>0.0</speed>
  <fix>3d</fix>
</trkpt>
<trkpt lat="40.0713749" lon="-105.229789">
  <ele>1583.0</ele>
  <time>2026-09-02T20:50:39Z</time>
  <course>0.0</course>
  <speed>0.0</speed>
  <fix>3d</fix>
</trkpt>
<trkpt lat="40.0713749" lon="-105.229789">
  <ele>1583.0</ele>
  <time>2026-09-02T20:50:39Z</time>
  <course>0.0</course>
  <speed>0.0</speed>
  <fix>3d</fix>
</trkpt>
<trkpt lat="40.0713749" lon="-105.229789">
  <ele>1583.0</ele>
  <time>2026-09-02T20:50:39Z</time>
  <course>0.0</course>
  <speed>0.0</speed>
  <fix>3d</fix>
</trkpt>
<trkpt lat="40.0713749" lon="-105.229789">
  <ele>1583.0</ele>
  <time>2026-09-02T20:50:39Z</time>
  <course>0.0</course>
  <speed>0.0</speed>
  <fix>3d</fix>
</trkpt>
<trkpt lat="40.0713749" lon="-105.229789">
  <ele>1583.0</ele>
  <time>2026-09-02T20:50:39Z</time>
  <course>0.0</course>
  <speed>0.0</speed>
  <fix>3d</fix>
</trkpt>
<trkpt lat="40.0713749" lon="-105.229789">
  <ele>1583.0</ele>
  <time>2026-09-02T20:50:39Z</time>
  <course>0.0</course>
  <speed>0.0</speed>
  <fix>3d</fix>
</trkpt>
<trkpt lat="40.0713749" lon="-105.229789">
  <ele>1583.0</ele>
  <time>2026-09-02T20:50:39Z</time>
  <course>0.0</course>
  <speed>0.0</speed>
  <fix>3d</fix>
</trkpt>
<trkpt lat="40.0713749" lon="-105.229789">
  <ele>1583.0</ele>
  <time>2026-09-02T20:50:39Z</time>
  <course>0.0</course>
  <speed>0.0</speed>
  <fix>3d</fix>
</trkpt>
<trkpt lat="40.0713749" lon="-105.229789">
  <ele>1583.0</ele>
  <time>2026-09-02T20:50:39Z</time>
  <course>0.0</course>
  <speed>0.0</speed>
  <fix>3d</fix>
</trkpt>
<trkpt lat="40.0713749" lon="-105.229789">
  <ele>1583.0</ele>
  <time>2026-09-02T20:50:39Z</time>
  <course>0.0</course>
  <speed>0.0</speed>
  <fix>3d</fix>
</trkpt>
<trkpt lat="40.0713749" lon="-105.229789">
  <ele>1583.0</ele>
  <time>2026-09-02T20:50:39Z</time>
  <course>0.0</course>
  <speed>0.0</speed>
  <fix>3d</fix>
</trkpt>
<trkpt lat="40.0713749" lon="-105.229789">
  <ele>1583.0</ele>
  <time>2026-09-02T20:50:39Z</time>
  <course>0.0</course>
  <speed>0.0</speed>
  <fix>3d</fix>
</trkpt>
<trkpt lat="40.0713749" lon="-105.229789">
  <ele>1583.0</ele>
  <time>2026-09-02T20:50:39Z</time>
  <course>0.0</course>
  <speed>0.0</speed>
  <fix>3d</fix>
</trkpt>
<trkpt lat="40.0713749" lon="-105.229789">
  <ele>1583.0</ele>
  <time>2026-09-02T20:50:39Z</time>
  <course>0.0</course>
  <speed>0.0</speed>
  <fix>3d</fix>
</trkpt>
<trkpt lat="40.0713749" lon="-105.229789">
  <ele>1583.0</ele>
  <time>2026-09-02T20:50:39Z</time>
  <course>0.0</course>
  <speed>0.0</speed>
  <fix>3d</fix>
</trkpt>
<trkpt lat="40.0713749" lon="-105.229789">
  <ele>1583.0</ele>
  <time>2026-09-02T20:50:39Z</time>
  <course>0.0</course>
  <speed>0.0</speed>
  <fix>3d</fix>
</trkpt>
<trkpt lat="40.0713749" lon="-105.229789">
  <ele>1583.0</ele>
  <time>2026-09-02T20:50:39Z</time>
  <course>0.0</course>
  <speed>0.0</speed>
  <fix>3d</fix>
</trkpt>
<trkpt lat="40.0713749" lon="-105.229789">
  <ele>1583.0</ele>
  <time>2026-09-02T20:50:39Z</time>
  <course>0.0</course>
  <speed>0.0</speed>
  <fix>3d</fix>
</trkpt>
<trkpt lat="40.0713749" lon="-105.229789">
  <ele>1583.0</ele>
  <time>2026-09-02T20:50:39Z</time>
  <course>0.0</course>
  <speed>0.0</speed>
  <fix>3d</fix>
</trkpt>
<trkpt lat="40.0713749" lon="-105.229789">
  <ele>1583.0</ele>
  <time>2026-09-02T20:50:39Z</time>
  <course>0.0</course>
  <speed>0.0</speed>
  <fix>3d</fix>
</trkpt>
<trkpt lat="40.0713749" lon="-105.229789">
  <ele>1583.0</ele>
  <time>2026-09-02T20:50:39Z</time>
  <course>0.0</course>
  <speed>0.0</speed>
  <fix>3d</fix>
</trkpt>
<trkpt lat="40.0713749" lon="-105.229789">
  <ele>1583.0</ele>
  <time>2026-09-02T20:50:39Z</time>
  <course>0.0</course>
  <speed>0.0</speed>
  <fix>3d</fix>
</trkpt>
<trkpt lat="40.0713749" lon="-105.229789">
  <ele>1583.0</ele>
  <time>2026-09-02T20:50:39Z</time>
  <course>0.0</course>
  <speed>0.0</speed>
  <fix>3d</fix>
</trkpt>
<trkpt lat="40.0713749" lon="-105.229789">
  <ele>1583.0</ele>
  <time>2026-09-02T20:50:39Z</time>
  <course>0.0</course>
  <speed>0.0</speed>
  <fix>3d</fix>
</trkpt>
<trkpt lat="40.0713749" lon="-105.229789">
  <ele>1583.0</ele>
  <time>2026-09-02T20:50:39Z</time>
  <course>0.0</course>
  <speed>0.0</speed>
  <fix>3d</fix>
</trkpt>
<trkpt lat="40.0713749" lon="-105.229789">
  <ele>1583.0</ele>
  <time>2026-09-02T20:50:39Z</time>
  <course>0.0</course>
  <speed>0.0</speed>
  <fix>3d</fix>
</trkpt>
<trkpt lat="40.0713749" lon="-105.229789">
  <ele>1583.0</ele>
  <time>2026-09-02T20:50:39Z</time>
  <course>0.0</course>
  <speed>0.0</speed>
  <fix>3d</fix>
</trkpt>
<trkpt lat="40.0713749" lon="-105.229789">
  <ele>1583.0</ele>
  <time>2026-09-02T20:50:39Z</time>
  <course>0.0</course>
  <speed>0.0</speed>
  <fix>3d</fix>
</trkpt>
<trkpt lat="40.0713749" lon="-105.229789">
  <ele>1583.0</ele>
  <time>2026-09-02T20:50:39Z</time>
  <course>0.0</course>
  <speed>0.0</speed>
  <fix>3d</fix>
</trkpt>
<trkpt lat="40.0713749" lon="-105.229789">
  <ele>1583.0</ele>
  <time>2026-09-02T20:50:39Z</time>
  <course>0.0</course>
  <speed>0.0</speed>
  <fix>3d</fix>
</trkpt>
<trkpt lat="40.0713749" lon="-105.229789">
  <ele>1583.0</ele>
  <time>2026-09-02T20:50:39Z</time>
  <course>0.0</course>
  <speed>0.0</speed>
  <fix>3d</fix>
</trkpt>
<trkpt lat="40.0713749" lon="-105.229789">
  <ele>1583.0</ele>
  <time>2026-09-02T20:50:39Z</time>
  <course>0.0</course>
  <speed>0.0</speed>
  <fix>3d</fix>
</trkpt>
<trkpt lat="40.0713749" lon="-105.229789">
  <ele>1583.0</ele>
  <time>2026-09-02T20:50:39Z</time>
  <course>0.0</course>
  <speed>0.0</speed>
  <fix>3d</fix>
</trkpt>
<trkpt lat="40.0713749" lon="-105.229789">
  <ele>1583.0</ele>
  <time>2026-09-02T20:50:39Z</time>
  <course>0.0</course>
  <speed>0.0</speed>
  <fix>3d</fix>
</trkpt>
<trkpt lat="40.0713749" lon="-105.229789">
  <ele>1583.0</ele>
  <time>2026-09-02T20:50:39Z</time>
  <course>0.0</course>
  <speed>0.0</speed>
  <fix>3d</fix>
</trkpt>
<trkpt lat="40.0713749" lon="-105.229789">
  <ele>1583.0</ele>
  <time>2026-09-02T20:50:39Z</time>
  <course>0.0</course>
  <speed>0.0</speed>
  <fix>3d</fix>
</trkpt>
<trkpt lat="40.0713749" lon="-105.229789">
  <ele>1583.0</ele>
  <time>2026-09-02T20:50:39Z</time>
  <course>0.0</course>
  <speed>0.0</speed>
  <fix>3d</fix>
</trkpt>
<trkpt lat="40.0713749" lon="-105.229789">
  <ele>1583.0</ele>
  <time>2026-09-02T20:50:39Z</time>
  <course>0.0</course>
  <speed>0.0</speed>
  <fix>3d</fix>
</trkpt>
<trkpt lat="40.0713749" lon="-105.229789">
  <ele>1583.0</ele>
  <time>2026-09-02T20:50:39Z</time>
  <course>0.0</course>
  <speed>0.0</speed>
  <fix>3d</fix>
</trkpt>
<trkpt lat="40.0713749" lon="-105.229789">
  <ele>1583.0</ele>
  <time>2026-09-02T20:50:39Z</time>
  <course>0.0</course>
  <speed>0.0</speed>
  <fix>3d</fix>
</trkpt>
<trkpt lat="40.0713749" lon="-105.229789">
  <ele>1583.0</ele>
  <time>2026-09-02T20:50:39Z</time>
  <course>0.0</course>
  <speed>0.0</speed>
  <fix>3d</fix>
</trkpt>
<trkpt lat="40.0713749" lon="-105.229789">
  <ele>1583.0</ele>
  <time>2026-09-02T20:50:39Z</time>
  <course>0.0</course>
  <speed>0.0</speed>
  <fix>3d</fix>
</trkpt>
<trkpt lat="40.0713749" lon="-105.229789">
  <ele>1583.0</ele>
  <time>2026-09-02T20:50:39Z</time>
  <course>0.0</course>
  <speed>0.0</speed>
  <fix>3d</fix>
</trkpt>
<trkpt lat="40.0713749" lon="-105.229789">
  <ele>1583.0</ele>
  <time>2026-09-02T20:50:39Z</time>
  <course>0.0</course>
  <speed>0.0</speed>
  <fix>3d</fix>
</trkpt>
<trkpt lat="40.0713749" lon="-105.229789">
  <ele>1583.0</ele>
  <time>2026-09-02T20:50:39Z</time>
  <course>0.0</course>
  <speed>0.0</speed>
  <fix>3d</fix>
</trkpt>
<trkpt lat="40.0713749" lon="-105.229789">
  <ele>1583.0</ele>
  <time>2026-09-02T20:50:39Z</time>
  <course>0.0</course>
  <speed>0.0</speed>
  <fix>3d</fix>
</trkpt>
<trkpt lat="40.0713749" lon="-105.229789">
  <ele>1583.0</ele>
  <time>2026-09-02T20:50:39Z</time>
  <course>0.0</course>
  <speed>0.0</speed>
  <fix>3d</fix>
</trkpt>
<trkpt lat="40.0713749" lon="-105.229789">
  <ele>1583.0</ele>
  <time>2026-09-02T20:50:39Z</time>
  <course>0.0</course>
  <speed>0.0</speed>
  <fix>3d</fix>
</trkpt>
<trkpt lat="40.0713749" lon="-105.229789">
  <ele>1583.0</ele>
  <time>2026-09-02T20:50:39Z</time>
  <course>0.0</course>
  <speed>0.0</speed>
  <fix>3d</fix>
</trkpt>
<trkpt lat="40.0713749" lon="-105.229789">
  <ele>1583.0</ele>
  <time>2026-09-02T20:50:39Z</time>
  <course>0.0</course>
  <speed>0.0</speed>
  <fix>3d</fix>
</trkpt>
<trkpt lat="40.0713749" lon="-105.229789">
  <ele>1583.0</ele>
  <time>2026-09-02T20:50:39Z</time>
  <course>0.0</course>
  <speed>0.0</speed>
  <fix>3d</fix>
</trkpt>
<trkpt lat="40.0713749" lon="-105.229789">
  <ele>1583.0</ele>
  <time>2026-09-02T20:50:39Z</time>
  <course>0.0</course>
  <speed>0.0</speed>
  <fix>3d</fix>
</trkpt>
<trkpt lat="40.0713749" lon="-105.229789">
  <ele>1583.0</ele>
  <time>2026-09-02T20:50:39Z</time>
  <course>0.0</course>
  <speed>0.0</speed>
  <fix>3d</fix>
</trkpt>
<trkpt lat="40.0713749" lon="-105.229789">
  <ele>1583.0</ele>
  <time>2026-09-02T20:50:39Z</time>
  <course>0.0</course>
  <speed>0.0</speed>
  <fix>3d</fix>
</trkpt>
<trkpt lat="40.0713749" lon="-105.229789">
  <ele>1583.0</ele>
  <time>2026-09-02T20:50:39Z</time>
  <course>0.0</course>
  <speed>0.0</speed>
  <fix>3d</fix>
</trkpt>
<trkpt lat="40.0713749" lon="-105.229789">
  <ele>1583.0</ele>
  <time>2026-09-02T20:50:39Z</time>
  <course>0.0</course>
  <speed>0.0</speed>
  <fix>3d</fix>
</trkpt>
<trkpt lat="40.0713749" lon="-105.229789">
  <ele>1583.0</ele>
  <time>2026-09-02T20:50:39Z</time>
  <course>0.0</course>
  <speed>0.0</speed>
  <fix>3d</fix>
</trkpt>
<trkpt lat="40.0713749" lon="-105.229789">
  <ele>1583.0</ele>
  <time>2026-09-02T20:50:39Z</time>
  <course>0.0</course>
  <speed>0.0</speed>
  <fix>3d</fix>
</trkpt>
<trkpt lat="40.0713749" lon="-105.229789">
  <ele>1583.0</ele>
  <time>2026-09-02T20:50:39Z</time>
  <course>0.0</course>
  <speed>0.0</speed>
  <fix>3d</fix>
</trkpt>
<trkpt lat="40.0713749" lon="-105.229789">
  <ele>1583.0</ele>
  <time>2026-09-02T20:50:39Z</time>
  <course>0.0</course>
  <speed>0.0</speed>
  <fix>3d</fix>
</trkpt>
<trkpt lat="40.0713749" lon="-105.229789">
  <ele>1583.0</ele>
  <time>2026-09-02T20:50:39Z</time>
  <course>0.0</course>
  <speed>0.0</speed>
  <fix>3d</fix>
</trkpt>
<trkpt lat="40.0713749" lon="-105.229789">
  <ele>1583.0</ele>
  <time>2026-09-02T20:50:39Z</time>
  <course>0.0</course>
  <speed>0.0</speed>
  <fix>3d</fix>
</trkpt>
<trkpt lat="40.0713749" lon="-105.229789">
  <ele>1583.0</ele>
  <time>2026-09-02T20:50:39Z</time>
  <course>0.0</course>
  <speed>0.0</speed>
  <fix>3d</fix>
</trkpt>
<trkpt lat="40.0713749" lon="-105.229789">
  <ele>1583.0</ele>
  <time>2026-09-02T20:50:39Z</time>
  <course>0.0</course>
  <speed>0.0</speed>
  <fix>3d</fix>
</trkpt>
<trkpt lat="40.0713749" lon="-105.229789">
  <ele>1583.0</ele>
  <time>2026-09-02T20:50:39Z</time>
  <course>0.0</course>
  <speed>0.0</speed>
  <fix>3d</fix>
</trkpt>
<trkpt lat="40.0713749" lon="-105.229789">
  <ele>1583.0</ele>
  <time>2026-09-02T20:50:39Z</time>
  <course>0.0</course>
  <speed>0.0</speed>
  <fix>3d</fix>
</trkpt>
<trkpt lat="40.0713749" lon="-105.229789">
  <ele>1583.0</ele>
  <time>2026-09-02T20:50:39Z</time>
  <course>0.0</course>
  <speed>0.0</speed>
  <fix>3d</fix>
</trkpt>
<trkpt lat="40.0713749" lon="-105.229789">
  <ele>1583.0</ele>
  <time>2026-09-02T20:50:39Z</time>
  <course>0.0</course>
  <speed>0.0</speed>
  <fix>3d</fix>
</trkpt>
<trkpt lat="40.0713749" lon="-105.229789">
  <ele>1583.0</ele>
  <time>2026-09-02T20:50:39Z</time>
  <course>0.0</course>
  <speed>0.0</speed>
  <fix>3d</fix>
</trkpt>
<trkpt lat="40.0713749" lon="-105.229789">
  <ele>1583.0</ele>
  <time>2026-09-02T20:50:39Z</time>
  <course>0.0</course>
  <speed>0.0</speed>
  <fix>3d</fix>
</trkpt>
<trkpt lat="40.0713749" lon="-105.229789">
  <ele>1583.0</ele>
  <time>2026-09-02T20:50:39Z</time>
  <course>0.0</course>
  <speed>0.0</speed>
  <fix>3d</fix>
</trkpt>
<trkpt lat="40.0713749" lon="-105.229789">
  <ele>1583.0</ele>
  <time>2026-09-02T20:50:39Z</time>
  <course>0.0</course>
  <speed>0.0</speed>
  <fix>3d</fix>
</trkpt>
<trkpt lat="40.0713749" lon="-105.229789">
  <ele>1583.0</ele>
  <time>2026-09-02T20:50:39Z</time>
  <course>0.0</course>
  <speed>0.0</speed>
  <fix>3d</fix>
</trkpt>
<trkpt lat="40.0713749" lon="-105.229789">
  <ele>1583.0</ele>
  <time>2026-09-02T20:50:39Z</time>
  <course>0.0</course>
  <speed>0.0</speed>
  <fix>3d</fix>
</trkpt>
<trkpt lat="40.0713749" lon="-105.229789">
  <ele>1583.0</ele>
  <time>2026-09-02T20:50:39Z</time>
  <course>0.0</course>
  <speed>0.0</speed>
  <fix>3d</fix>
</trkpt>
<trkpt lat="40.0713749" lon="-105.229789">
  <ele>1583.0</ele>
  <time>2026-09-02T20:50:39Z</time>
  <course>0.0</course>
  <speed>0.0</speed>
  <fix>3d</fix>
</trkpt>
<trkpt lat="40.0713749" lon="-105.229789">
  <ele>1583.0</ele>
  <time>2026-09-02T20:50:39Z</time>
  <course>0.0</course>
  <speed>0.0</speed>
  <fix>3d</fix>
</trkpt>
<trkpt lat="40.0713749" lon="-105.229789">
  <ele>1583.0</ele>
  <time>2026-09-02T20:50:39Z</time>
  <course>0.0</course>
  <speed>0.0</speed>
  <fix>3d</fix>
</trkpt>
<trkpt lat="40.0713749" lon="-105.229789">
  <ele>1583.0</ele>
  <time>2026-09-02T20:50:39Z</time>
  <course>0.0</course>
  <speed>0.0</speed>
  <fix>3d</fix>
</trkpt>
<trkpt lat="40.0713749" lon="-105.229789">
  <ele>1583.0</ele>
  <time>2026-09-02T20:50:39Z</time>
  <course>0.0</course>
  <speed>0.0</speed>
  <fix>3d</fix>
</trkpt>
<trkpt lat="40.0713749" lon="-105.229789">
  <ele>1583.0</ele>
  <time>2026-09-02T20:50:39Z</time>
  <course>0.0</course>
  <speed>0.0</speed>
  <fix>3d</fix>
</trkpt>
<trkpt lat="40.0713749" lon="-105.229789">
  <ele>1583.0</ele>
  <time>2026-09-02T20:50:39Z</time>
  <course>0.0</course>
  <speed>0.0</speed>
  <fix>3d</fix>
</trkpt>
<trkpt lat="40.0713749" lon="-105.229789">
  <ele>1583.0</ele>
  <time>2026-09-02T20:50:39Z</time>
  <course>0.0</course>
  <speed>0.0</speed>
  <fix>3d</fix>
</trkpt>
<trkpt lat="40.0713749" lon="-105.229789">
  <ele>1583.0</ele>
  <time>2026-09-02T20:50:39Z</time>
  <course>0.0</course>
  <speed>0.0</speed>
  <fix>3d</fix>
</trkpt>
<trkpt lat="40.0713749" lon="-105.229789">
  <ele>1583.0</ele>
  <time>2026-09-02T20:50:39Z</time>
  <course>0.0</course>
  <speed>0.0</speed>
  <fix>3d</fix>
</trkpt>
<trkpt lat="40.0713749" lon="-105.229789">
  <ele>1583.0</ele>
  <time>2026-09-02T20:50:39Z</time>
  <course>0.0</course>
  <speed>0.0</speed>
  <fix>3d</fix>
</trkpt>
<trkpt lat="40.0713749" lon="-105.229789">
  <ele>1583.0</ele>
  <time>2026-09-02T20:50:39Z</time>
  <course>0.0</course>
  <speed>0.0</speed>
  <fix>3d</fix>
</trkpt>
<trkpt lat="40.0713749" lon="-105.229789">
  <ele>1583.0</ele>
  <time>2026-09-02T20:50:39Z</time>
  <course>0.0</course>
  <speed>0.0</speed>
  <fix>3d</fix>
</trkpt>
<trkpt lat="40.0713749" lon="-105.229789">
  <ele>1583.0</ele>
  <time>2026-09-02T20:50:39Z</time>
  <course>0.0</course>
  <speed>0.0</speed>
  <fix>3d</fix>
</trkpt>
<trkpt lat="40.0713749" lon="-105.229789">
  <ele>1583.0</ele>
  <time>2026-09-02T20:50:39Z</time>
  <course>0.0</course>
  <speed>0.0</speed>
  <fix>3d</fix>
</trkpt>
<trkpt lat="40.0713749" lon="-105.229789">
  <ele>1583.0</ele>
  <time>2026-09-02T20:50:39Z</time>
  <course>0.0</course>
  <speed>0.0</speed>
  <fix>3d</fix>
</trkpt>
<trkpt lat="40.0713749" lon="-105.229789">
  <ele>1583.0</ele>
  <time>2026-09-02T20:50:39Z</time>
  <course>0.0</course>
  <speed>0.0</speed>
  <fix>3d</fix>
</trkpt>
<trkpt lat="40.0713749" lon="-105.229789">
  <ele>1583.0</ele>
  <time>2026-09-02T20:50:39Z</time>
  <course>0.0</course>
  <speed>0.0</speed>
  <fix>3d</fix>
</trkpt>
<trkpt lat="40.0713749" lon="-105.229789">
  <ele>1583.0</ele>
  <time>2026-09-02T20:50:39Z</time>
  <course>0.0</course>
  <speed>0.0</speed>
  <fix>3d</fix>
</trkpt>
<trkpt lat="40.0713749" lon="-105.229789">
  <ele>1583.0</ele>
  <time>2026-09-02T20:50:39Z</time>
  <course>0.0</course>
  <speed>0.0</speed>
  <fix>3d</fix>
</trkpt>
<trkpt lat="40.0713749" lon="-105.229789">
  <ele>1583.0</ele>
  <time>2026-09-02T20:50:39Z</time>
  <course>0.0</course>
  <speed>0.0</speed>
  <fix>3d</fix>
</trkpt>
<trkpt lat="40.0713749" lon="-105.229789">
  <ele>1583.0</ele>
  <time>2026-09-02T20:50:39Z</time>
  <course>0.0</course>
  <speed>0.0</speed>
  <fix>3d</fix>
</trkpt>
<trkpt lat="40.0713749" lon="-105.229789">
  <ele>1583.0</ele>
  <time>2026-09-02T20:50:39Z</time>
  <course>0.0</course>
  <speed>0.0</speed>
  <fix>3d</fix>
</trkpt>
<trkpt lat="40.0713749" lon="-105.229789">
  <ele>1583.0</ele>
  <time>2026-09-02T20:50:39Z</time>
  <course>0.0</course>
  <speed>0.0</speed>
  <fix>3d</fix>
</trkpt>
<trkpt lat="40.0713749" lon="-105.229789">
  <ele>1583.0</ele>
  <time>2026-09-02T20:50:39Z</time>
  <course>0.0</course>
  <speed>0.0</speed>
  <fix>3d</fix>
</trkpt>
<trkpt lat="40.0713749" lon="-105.229789">
  <ele>1583.0</ele>
  <time>2026-09-02T20:50:39Z</time>
  <course>0.0</course>
  <speed>0.0</speed>
  <fix>3d</fix>
</trkpt>
<trkpt lat="40.0713749" lon="-105.229789">
  <ele>1583.0</ele>
  <time>2026-09-02T20:50:39Z</time>
  <course>0.0</course>
  <speed>0.0</speed>
  <fix>3d</fix>
</trkpt>
<trkpt lat="40.0713749" lon="-105.229789">
  <ele>1583.0</ele>
  <time>2026-09-02T20:50:39Z</time>
  <course>0.0</course>
  <speed>0.0</speed>
  <fix>3d</fix>
</trkpt>
<trkpt lat="40.0713749" lon="-105.229789">
  <ele>1583.0</ele>
  <time>2026-09-02T20:50:39Z</time>
  <course>0.0</course>
  <speed>0.0</speed>
  <fix>3d</fix>
</trkpt>
<trkpt lat="40.0713749" lon="-105.229789">
  <ele>1583.0</ele>
  <time>2026-09-02T20:50:39Z</time>
  <course>0.0</course>
  <speed>0.0</speed>
  <fix>3d</fix>
</trkpt>
<trkpt lat="40.0713749" lon="-105.229789">
  <ele>1583.0</ele>
  <time>2026-09-02T20:50:39Z</time>
  <course>0.0</course>
  <speed>0.0</speed>
  <fix>3d</fix>
</trkpt>
<trkpt lat="40.0713749" lon="-105.229789">
  <ele>1583.0</ele>
  <time>2026-09-02T20:50:39Z</time>
  <course>0.0</course>
  <speed>0.0</speed>
  <fix>3d</fix>
</trkpt>
<trkpt lat="40.0713749" lon="-105.229789">
  <ele>1583.0</ele>
  <time>2026-09-02T20:50:39Z</time>
  <course>0.0</course>
  <speed>0.0</speed>
  <fix>3d</fix>
</trkpt>
<trkpt lat="40.0713749" lon="-105.229789">
  <ele>1583.0</ele>
  <time>2026-09-02T20:50:39Z</time>
  <course>0.0</course>
  <speed>0.0</speed>
  <fix>3d</fix>
</trkpt>
<trkpt lat="40.0713749" lon="-105.229789">
  <ele>1583.0</ele>
  <time>2026-09-02T20:50:39Z</time>
  <course>0.0</course>
  <speed>0.0</speed>
  <fix>3d</fix>
</trkpt>
<trkpt lat="40.0713749" lon="-105.229789">
  <ele>1583.0</ele>
  <time>2026-09-02T20:50:39Z</time>
  <course>0.0</course>
  <speed>0.0</speed>
  <fix>3d</fix>
</trkpt>
<trkpt lat="40.0713749" lon="-105.229789">
  <ele>1583.0</ele>
  <time>2026-09-02T20:50:39Z</time>
  <course>0.0</course>
  <speed>0.0</speed>
  <fix>3d</fix>
</trkpt>
<trkpt lat="40.0713749" lon="-105.229789">
  <ele>1583.0</ele>
  <time>2026-09-02T20:50:39Z</time>
  <course>0.0</course>
  <speed>0.0</speed>
  <fix>3d</fix>
</trkpt>
<trkpt lat="40.0713749" lon="-105.229789">
  <ele>1583.0</ele>
  <time>2026-09-02T20:50:39Z</time>
  <course>0.0</course>
  <speed>0.0</speed>
  <fix>3d</fix>
</trkpt>
<trkpt lat="40.0713749" lon="-105.229789">
  <ele>1583.0</ele>
  <time>2026-09-02T20:50:39Z</time>
  <course>0.0</course>
  <speed>0.0</speed>
  <fix>3d</fix>
</trkpt>
<trkpt lat="40.0713749" lon="-105.229789">
  <ele>1583.0</ele>
  <time>2026-09-02T20:50:39Z</time>
  <course>0.0</course>
  <speed>0.0</speed>
  <fix>3d</fix>
</trkpt>
<trkpt lat="40.0713749" lon="-105.229789">
  <ele>1583.0</ele>
  <time>2026-09-02T20:50:39Z</time>
  <course>0.0</course>
  <speed>0.0</speed>
  <fix>3d</fix>
</trkpt>
<trkpt lat="40.0713749" lon="-105.229789">
  <ele>1583.0</ele>
  <time>2026-09-02T20:50:39Z</time>
  <course>0.0</course>
  <speed>0.0</speed>
  <fix>3d</fix>
</trkpt>
<trkpt lat="40.0713749" lon="-105.229789">
  <ele>1583.0</ele>
  <time>2026-09-02T20:50:39Z</time>
  <course>0.0</course>
  <speed>0.0</speed>
  <fix>3d</fix>
</trkpt>
<trkpt lat="40.0713749" lon="-105.229789">
  <ele>1583.0</ele>
  <time>2026-09-02T20:50:39Z</time>
  <course>0.0</course>
  <speed>0.0</speed>
  <fix>3d</fix>
</trkpt>
<trkpt lat="40.0713749" lon="-105.229789">
  <ele>1583.0</ele>
  <time>2026-09-02T20:50:39Z</time>
  <course>0.0</course>
  <speed>0.0</speed>
  <fix>3d</fix>
</trkpt>
<trkpt lat="40.0713749" lon="-105.229789">
  <ele>1583.0</ele>
  <time>2026-09-02T20:50:39Z</time>
  <course>0.0</course>
  <speed>0.0</speed>
  <fix>3d</fix>
</trkpt>
<trkpt lat="40.0713749" lon="-105.229789">
  <ele>1583.0</ele>
  <time>2026-09-02T20:50:39Z</time>
  <course>0.0</course>
  <speed>0.0</speed>
  <fix>3d</fix>
</trkpt>
<trkpt lat="40.0713749" lon="-105.229789">
  <ele>1583.0</ele>
  <time>2026-09-02T20:50:39Z</time>
  <course>0.0</course>
  <speed>0.0</speed>
  <fix>3d</fix>
</trkpt>
<trkpt lat="40.0713749" lon="-105.229789">
  <ele>1583.0</ele>
  <time>2026-09-02T20:50:39Z</time>
  <course>0.0</course>
  <speed>0.0</speed>
  <fix>3d</fix>
</trkpt>
<trkpt lat="40.0713749" lon="-105.229789">
  <ele>1583.0</ele>
  <time>2026-09-02T20:50:39Z</time>
  <course>0.0</course>
  <speed>0.0</speed>
  <fix>3d</fix>
</trkpt>
<trkpt lat="40.0713749" lon="-105.229789">
  <ele>1583.0</ele>
  <time>2026-09-02T20:50:39Z</time>
  <course>0.0</course>
  <speed>0.0</speed>
  <fix>3d</fix>
</trkpt>
<trkpt lat="40.0713749" lon="-105.229789">
  <ele>1583.0</ele>
  <time>2026-09-02T20:50:39Z</time>
  <course>0.0</course>
  <speed>0.0</speed>
  <fix>3d</fix>
</trkpt>
<trkpt lat="40.0713749" lon="-105.229789">
  <ele>1583.0</ele>
  <time>2026-09-02T20:50:39Z</time>
  <course>0.0</course>
  <speed>0.0</speed>
  <fix>3d</fix>
</trkpt>
<trkpt lat="40.0713749" lon="-105.229789">
  <ele>1583.0</ele>
  <time>2026-09-02T20:50:39Z</time>
  <course>0.0</course>
  <speed>0.0</speed>
  <fix>3d</fix>
</trkpt>
<trkpt lat="40.0713749" lon="-105.229789">
  <ele>1583.0</ele>
  <time>2026-09-02T20:50:39Z</time>
  <course>0.0</course>
  <speed>0.0</speed>
  <fix>3d</fix>
</trkpt>
<trkpt lat="40.0713749" lon="-105.229789">
  <ele>1583.0</ele>
  <time>2026-09-02T20:50:39Z</time>
  <course>0.0</course>
  <speed>0.0</speed>
  <fix>3d</fix>
</trkpt>
<trkpt lat="40.0713749" lon="-105.229789">
  <ele>1583.0</ele>
  <time>2026-09-02T20:50:39Z</time>
  <course>0.0</course>
  <speed>0.0</speed>
  <fix>3d</fix>
</trkpt>
<trkpt lat="40.0713749" lon="-105.229789">
  <ele>1583.0</ele>
  <time>2026-09-02T20:50:39Z</time>
  <course>0.0</course>
  <speed>0.0</speed>
  <fix>3d</fix>
</trkpt>
<trkpt lat="40.0713749" lon="-105.229789">
  <ele>1583.0</ele>
  <time>2026-09-02T20:50:39Z</time>
  <course>0.0</course>
  <speed>0.0</speed>
  <fix>3d</fix>
</trkpt>
<trkpt lat="40.0713749" lon="-105.229789">
  <ele>1583.0</ele>
  <time>2026-09-02T20:50:39Z</time>
  <course>0.0</course>
  <speed>0.0</speed>
  <fix>3d</fix>
</trkpt>
<trkpt lat="40.0713749" lon="-105.229789">
  <ele>1583.0</ele>
  <time>2026-09-02T20:50:39Z</time>
  <course>0.0</course>
  <speed>0.0</speed>
  <fix>3d</fix>
</trkpt>
<trkpt lat="40.0713749" lon="-105.229789">
  <ele>1583.0</ele>
  <time>2026-09-02T20:50:39Z</time>
  <course>0.0</course>
  <speed>0.0</speed>
  <fix>3d</fix>
</trkpt>
<trkpt lat="40.0713749" lon="-105.229789">
  <ele>1583.0</ele>
  <time>2026-09-02T20:50:39Z</time>
  <course>0.0</course>
  <speed>0.0</speed>
  <fix>3d</fix>
</trkpt>
<trkpt lat="40.0713749" lon="-105.229789">
  <ele>1583.0</ele>
  <time>2026-09-02T20:50:39Z</time>
  <course>0.0</course>
  <speed>0.0</speed>
  <fix>3d</fix>
</trkpt>
<trkpt lat="40.0713749" lon="-105.229789">
  <ele>1583.0</ele>
  <time>2026-09-02T20:50:39Z</time>
  <course>0.0</course>
  <speed>0.0</speed>
  <fix>3d</fix>
</trkpt>
<trkpt lat="40.0713749" lon="-105.229789">
  <ele>1583.0</ele>
  <time>2026-09-02T20:50:39Z</time>
  <course>0.0</course>
  <speed>0.0</speed>
  <fix>3d</fix>
</trkpt>
<trkpt lat="40.0713749" lon="-105.229789">
  <ele>1583.0</ele>
  <time>2026-09-02T20:50:39Z</time>
  <course>0.0</course>
  <speed>0.0</speed>
  <fix>3d</fix>
</trkpt>
<trkpt lat="40.0713749" lon="-105.229789">
  <ele>1583.0</ele>
  <time>2026-09-02T20:50:39Z</time>
  <course>0.0</course>
  <speed>0.0</speed>
  <fix>3d</fix>
</trkpt>
<trkpt lat="40.0713749" lon="-105.229789">
  <ele>1583.0</ele>
  <time>2026-09-02T20:50:39Z</time>
  <course>0.0</course>
  <speed>0.0</speed>
  <fix>3d</fix>
</trkpt>
<trkpt lat="40.0713749" lon="-105.229789">
  <ele>1583.0</ele>
  <time>2026-09-02T20:50:39Z</time>
  <course>0.0</course>
  <speed>0.0</speed>
  <fix>3d</fix>
</trkpt>
<trkpt lat="40.0713749" lon="-105.229789">
  <ele>1583.0</ele>
  <time>2026-09-02T20:50:39Z</time>
  <course>0.0</course>
  <speed>0.0</speed>
  <fix>3d</fix>
</trkpt>
<trkpt lat="40.0713749" lon="-105.229789">
  <ele>1583.0</ele>
  <time>2026-09-02T20:50:39Z</time>
  <course>0.0</course>
  <speed>0.0</speed>
  <fix>3d</fix>
</trkpt>
<trkpt lat="40.0713749" lon="-105.229789">
  <ele>1583.0</ele>
  <time>2026-09-02T20:50:39Z</time>
  <course>0.0</course>
  <speed>0.0</speed>
  <fix>3d</fix>
</trkpt>
<trkpt lat="40.0713749" lon="-105.229789">
  <ele>1583.0</ele>
  <time>2026-09-02T20:50:39Z</time>
  <course>0.0</course>
  <speed>0.0</speed>
  <fix>3d</fix>
</trkpt>
<trkpt lat="40.0713749" lon="-105.229789">
  <ele>1583.0</ele>
  <time>2026-09-02T20:50:39Z</time>
  <course>0.0</course>
  <speed>0.0</speed>
  <fix>3d</fix>
</trkpt>
<trkpt lat="40.0713749" lon="-105.229789">
  <ele>1583.0</ele>
  <time>2026-09-02T20:50:39Z</time>
  <course>0.0</course>
  <speed>0.0</speed>
  <fix>3d</fix>
</trkpt>
<trkpt lat="40.0713749" lon="-105.229789">
  <ele>1583.0</ele>
  <time>2026-09-02T20:50:39Z</time>
  <course>0.0</course>
  <speed>0.0</speed>
  <fix>3d</fix>
</trkpt>
<trkpt lat="40.0713749" lon="-105.229789">
  <ele>1583.0</ele>
  <time>2026-09-02T20:50:39Z</time>
  <course>0.0</course>
  <speed>0.0</speed>
  <fix>3d</fix>
</trkpt>
<trkpt lat="40.0713749" lon="-105.229789">
  <ele>1583.0</ele>
  <time>2026-09-02T20:50:39Z</time>
  <course>0.0</course>
  <speed>0.0</speed>
  <fix>3d</fix>
</trkpt>
<trkpt lat="40.0713749" lon="-105.229789">
  <ele>1583.0</ele>
  <time>2026-09-02T20:50:39Z</time>
  <course>0.0</course>
  <speed>0.0</speed>
  <fix>3d</fix>
</trkpt>
<trkpt lat="40.0713749" lon="-105.229789">
  <ele>1583.0</ele>
  <time>2026-09-02T20:50:39Z</time>
  <course>0.0</course>
  <speed>0.0</speed>
  <fix>3d</fix>
</trkpt>
<trkpt lat="40.0713749" lon="-105.229789">
  <ele>1583.0</ele>
  <time>2026-09-02T20:50:39Z</time>
  <course>0.0</course>
  <speed>0.0</speed>
  <fix>3d</fix>
</trkpt>
<trkpt lat="40.0713749" lon="-105.229789">
  <ele>1583.0</ele>
  <time>2026-09-02T20:50:39Z</time>
  <course>0.0</course>
  <speed>0.0</speed>
  <fix>3d</fix>
</trkpt>
<trkpt lat="40.0713749" lon="-105.229789">
  <ele>1583.0</ele>
  <time>2026-09-02T20:50:39Z</time>
  <course>0.0</course>
  <speed>0.0</speed>
  <fix>3d</fix>
</trkpt>
<trkpt lat="40.0713749" lon="-105.229789">
  <ele>1583.0</ele>
  <time>2026-09-02T20:50:39Z</time>
  <course>0.0</course>
  <speed>0.0</speed>
  <fix>3d</fix>
</trkpt>
<trkpt lat="40.0713749" lon="-105.229789">
  <ele>1583.0</ele>
  <time>2026-09-02T20:50:39Z</time>
  <course>0.0</course>
  <speed>0.0</speed>
  <fix>3d</fix>
</trkpt>
<trkpt lat="40.0713749" lon="-105.229789">
  <ele>1583.0</ele>
  <time>2026-09-02T20:50:39Z</time>
  <course>0.0</course>
  <speed>0.0</speed>
  <fix>3d</fix>
</trkpt>
<trkpt lat="40.0713749" lon="-105.229789">
  <ele>1583.0</ele>
  <time>2026-09-02T20:50:39Z</time>
  <course>0.0</course>
  <speed>0.0</speed>
  <fix>3d</fix>
</trkpt>
<trkpt lat="40.0713749" lon="-105.229789">
  <ele>1583.0</ele>
  <time>2026-09-02T20:50:39Z</time>
  <course>0.0</course>
  <speed>0.0</speed>
  <fix>3d</fix>
</trkpt>
<trkpt lat="40.0713749" lon="-105.229789">
  <ele>1583.0</ele>
  <time>2026-09-02T20:50:39Z</time>
  <course>0.0</course>
  <speed>0.0</speed>
  <fix>3d</fix>
</trkpt>
<trkpt lat="40.0713749" lon="-105.229789">
  <ele>1583.0</ele>
  <time>2026-09-02T20:50:39Z</time>
  <course>0.0</course>
  <speed>0.0</speed>
  <fix>3d</fix>
</trkpt>
<trkpt lat="40.0713749" lon="-105.229789">
  <ele>1583.0</ele>
  <time>2026-09-02T20:50:39Z</time>
  <course>0.0</course>
  <speed>0.0</speed>
  <fix>3d</fix>
</trkpt>
<trkpt lat="40.0713749" lon="-105.229789">
  <ele>1583.0</ele>
  <time>2026-09-02T20:50:39Z</time>
  <course>0.0</course>
  <speed>0.0</speed>
  <fix>3d</fix>
</trkpt>
<trkpt lat="40.0713749" lon="-105.229789">
  <ele>1583.0</ele>
  <time>2026-09-02T20:50:39Z</time>
  <course>0.0</course>
  <speed>0.0</speed>
  <fix>3d</fix>
</trkpt>
<trkpt lat="40.0713749" lon="-105.229789">
  <ele>1583.0</ele>
  <time>2026-09-02T20:50:39Z</time>
  <course>0.0</course>
  <speed>0.0</speed>
  <fix>3d</fix>
</trkpt>
<trkpt lat="40.0713749" lon="-105.229789">
  <ele>1583.0</ele>
  <time>2026-09-02T20:50:39Z</time>
  <course>0.0</course>
  <speed>0.0</speed>
  <fix>3d</fix>
</trkpt>
<trkpt lat="40.0713749" lon="-105.229789">
  <ele>1583.0</ele>
  <time>2026-09-02T20:50:39Z</time>
  <course>0.0</course>
  <speed>0.0</speed>
  <fix>3d</fix>
</trkpt>
<trkpt lat="40.0713749" lon="-105.229789">
  <ele>1583.0</ele>
  <time>2026-09-02T20:50:39Z</time>
  <course>0.0</course>
  <speed>0.0</speed>
  <fix>3d</fix>
</trkpt>
<trkpt lat="40.0713749" lon="-105.229789">
  <ele>1583.0</ele>
  <time>2026-09-02T20:50:39Z</time>
  <course>0.0</course>
  <speed>0.0</speed>
  <fix>3d</fix>
</trkpt>
<trkpt lat="40.0713749" lon="-105.229789">
  <ele>1583.0</ele>
  <time>2026-09-02T20:50:39Z</time>
  <course>0.0</course>
  <speed>0.0</speed>
  <fix>3d</fix>
</trkpt>
<trkpt lat="40.0713749" lon="-105.229789">
  <ele>1583.0</ele>
  <time>2026-09-02T20:50:39Z</time>
  <course>0.0</course>
  <speed>0.0</speed>
  <fix>3d</fix>
</trkpt>
<trkpt lat="40.0713749" lon="-105.229789">
  <ele>1583.0</ele>
  <time>2026-09-02T20:50:39Z</time>
  <course>0.0</course>
  <speed>0.0</speed>
  <fix>3d</fix>
</trkpt>
<trkpt lat="40.0713749" lon="-105.229789">
  <ele>1583.0</ele>
  <time>2026-09-02T20:50:39Z</time>
  <course>0.0</course>
  <speed>0.0</speed>
  <fix>3d</fix>
</trkpt>
<trkpt lat="40.0713749" lon="-105.229789">
  <ele>1583.0</ele>
  <time>2026-09-02T20:50:39Z</time>
  <course>0.0</course>
  <speed>0.0</speed>
  <fix>3d</fix>
</trkpt>
<trkpt lat="40.0713749" lon="-105.229789">
  <ele>1583.0</ele>
  <time>2026-09-02T20:50:39Z</time>
  <course>0.0</course>
  <speed>0.0</speed>
  <fix>3d</fix>
</trkpt>
<trkpt lat="40.0713749" lon="-105.229789">
  <ele>1583.0</ele>
  <time>2026-09-02T20:50:39Z</time>
  <course>0.0</course>
  <speed>0.0</speed>
  <fix>3d</fix>
</trkpt>
<trkpt lat="40.0713749" lon="-105.229789">
  <ele>1583.0</ele>
  <time>2026-09-02T20:50:39Z</time>
  <course>0.0</course>
  <speed>0.0</speed>
  <fix>3d</fix>
</trkpt>
<trkpt lat="40.0713749" lon="-105.229789">
  <ele>1583.0</ele>
  <time>2026-09-02T20:50:39Z</time>
  <course>0.0</course>
  <speed>0.0</speed>
  <fix>3d</fix>
</trkpt>
<trkpt lat="40.0713749" lon="-105.229789">
  <ele>1583.0</ele>
  <time>2026-09-02T20:50:39Z</time>
  <course>0.0</course>
  <speed>0.0</speed>
  <fix>3d</fix>
</trkpt>
<trkpt lat="40.0713749" lon="-105.229789">
  <ele>1583.0</ele>
  <time>2026-09-02T20:50:39Z</time>
  <course>0.0</course>
  <speed>0.0</speed>
  <fix>3d</fix>
</trkpt>
<trkpt lat="40.0713749" lon="-105.229789">
  <ele>1583.0</ele>
  <time>2026-09-02T20:50:39Z</time>
  <course>0.0</course>
  <speed>0.0</speed>
  <fix>3d</fix>
</trkpt>
<trkpt lat="40.0713749" lon="-105.229789">
  <ele>1583.0</ele>
  <time>2026-09-02T20:50:39Z</time>
  <course>0.0</course>
  <speed>0.0</speed>
  <fix>3d</fix>
</trkpt>
<trkpt lat="40.0713749" lon="-105.229789">
  <ele>1583.0</ele>
  <time>2026-09-02T20:50:39Z</time>
  <course>0.0</course>
  <speed>0.0</speed>
  <fix>3d</fix>
</trkpt>
<trkpt lat="40.0713749" lon="-105.229789">
  <ele>1583.0</ele>
  <time>2026-09-02T20:50:39Z</time>
  <course>0.0</course>
  <speed>0.0</speed>
  <fix>3d</fix>
</trkpt>
<trkpt lat="40.0713749" lon="-105.229789">
  <ele>1583.0</ele>
  <time>2026-09-02T20:50:39Z</time>
  <course>0.0</course>
  <speed>0.0</speed>
  <fix>3d</fix>
</trkpt>
<trkpt lat="40.0713749" lon="-105.229789">
  <ele>1583.0</ele>
  <time>2026-09-02T20:50:39Z</time>
  <course>0.0</course>
  <speed>0.0</speed>
  <fix>3d</fix>
</trkpt>
<trkpt lat="40.0713749" lon="-105.229789">
  <ele>1583.0</ele>
  <time>2026-09-02T20:50:39Z</time>
  <course>0.0</course>
  <speed>0.0</speed>
  <fix>3d</fix>
</trkpt>
<trkpt lat="40.0713749" lon="-105.229789">
  <ele>1583.0</ele>
  <time>2026-09-02T20:50:39Z</time>
  <course>0.0</course>
  <speed>0.0</speed>
  <fix>3d</fix>
</trkpt>
<trkpt lat="40.0713749" lon="-105.229789">
  <ele>1583.0</ele>
  <time>2026-09-02T20:50:39Z</time>
  <course>0.0</course>
  <speed>0.0</speed>
  <fix>3d</fix>
</trkpt>
<trkpt lat="40.0713749" lon="-105.229789">
  <ele>1583.0</ele>
  <time>2026-09-02T20:50:39Z</time>
  <course>0.0</course>
  <speed>0.0</speed>
  <fix>3d</fix>
</trkpt>
<trkpt lat="40.0713749" lon="-105.229789">
  <ele>1583.0</ele>
  <time>2026-09-02T20:50:39Z</time>
  <course>0.0</course>
  <speed>0.0</speed>
  <fix>3d</fix>
</trkpt>
<trkpt lat="40.0713749" lon="-105.229789">
  <ele>1583.0</ele>
  <time>2026-09-02T20:50:39Z</time>
  <course>0.0</course>
  <speed>0.0</speed>
  <fix>3d</fix>
</trkpt>
<trkpt lat="40.0713749" lon="-105.229789">
  <ele>1583.0</ele>
  <time>2026-09-02T20:50:39Z</time>
  <course>0.0</course>
  <speed>0.0</speed>
  <fix>3d</fix>
</trkpt>
<trkpt lat="40.0713749" lon="-105.229789">
  <ele>1583.0</ele>
  <time>2026-09-02T20:50:39Z</time>
  <course>0.0</course>
  <speed>0.0</speed>
  <fix>3d</fix>
</trkpt>
<trkpt lat="40.0713749" lon="-105.229789">
  <ele>1583.0</ele>
  <time>2026-09-02T20:50:39Z</time>
  <course>0.0</course>
  <speed>0.0</speed>
  <fix>3d</fix>
</trkpt>
<trkpt lat="40.0713749" lon="-105.229789">
  <ele>1583.0</ele>
  <time>2026-09-02T20:50:39Z</time>
  <course>0.0</course>
  <speed>0.0</speed>
  <fix>3d</fix>
</trkpt>
<trkpt lat="40.0713749" lon="-105.229789">
  <ele>1583.0</ele>
  <time>2026-09-02T20:50:39Z</time>
  <course>0.0</course>
  <speed>0.0</speed>
  <fix>3d</fix>
</trkpt>
<trkpt lat="40.0713749" lon="-105.229789">
  <ele>1583.0</ele>
  <time>2026-09-02T20:50:39Z</time>
  <course>0.0</course>
  <speed>0.0</speed>
  <fix>3d</fix>
</trkpt>
<trkpt lat="40.0713749" lon="-105.229789">
  <ele>1583.0</ele>
  <time>2026-09-02T20:50:39Z</time>
  <course>0.0</course>
  <speed>0.0</speed>
  <fix>3d</fix>
</trkpt>
<trkpt lat="40.0713749" lon="-105.229789">
  <ele>1583.0</ele>
  <time>2026-09-02T20:50:39Z</time>
  <course>0.0</course>
  <speed>0.0</speed>
  <fix>3d</fix>
</trkpt>
<trkpt lat="40.0713749" lon="-105.229789">
  <ele>1583.0</ele>
  <time>2026-09-02T20:50:39Z</time>
  <course>0.0</course>
  <speed>0.0</speed>
  <fix>3d</fix>
</trkpt>
<trkpt lat="40.0713749" lon="-105.229789">
  <ele>1583.0</ele>
  <time>2026-09-02T20:50:39Z</time>
  <course>0.0</course>
  <speed>0.0</speed>
  <fix>3d</fix>
</trkpt>
<trkpt lat="40.0713749" lon="-105.229789">
  <ele>1583.0</ele>
  <time>2026-09-02T20:50:39Z</time>
  <course>0.0</course>
  <speed>0.0</speed>
  <fix>3d</fix>
</trkpt>
<trkpt lat="40.0713749" lon="-105.229789">
  <ele>1583.0</ele>
  <time>2026-09-02T20:50:39Z</time>
  <course>0.0</course>
  <speed>0.0</speed>
  <fix>3d</fix>
</trkpt>
<trkpt lat="40.0713749" lon="-105.229789">
  <ele>1583.0</ele>
  <time>2026-09-02T20:50:39Z</time>
  <course>0.0</course>
  <speed>0.0</speed>
  <fix>3d</fix>
</trkpt>
<trkpt lat="40.0713749" lon="-105.229789">
  <ele>1583.0</ele>
  <time>2026-09-02T20:50:39Z</time>
  <course>0.0</course>
  <speed>0.0</speed>
  <fix>3d</fix>
</trkpt>
<trkpt lat="40.0713749" lon="-105.229789">
  <ele>1583.0</ele>
  <time>2026-09-02T20:50:39Z</time>
  <course>0.0</course>
  <speed>0.0</speed>
  <fix>3d</fix>
</trkpt>
<trkpt lat="40.0713749" lon="-105.229789">
  <ele>1583.0</ele>
  <time>2026-09-02T20:50:39Z</time>
  <course>0.0</course>
  <speed>0.0</speed>
  <fix>3d</fix>
</trkpt>
<trkpt lat="40.0713749" lon="-105.229789">
  <ele>1583.0</ele>
  <time>2026-09-02T20:50:39Z</time>
  <course>0.0</course>
  <speed>0.0</speed>
  <fix>3d</fix>
</trkpt>
<trkpt lat="40.0713749" lon="-105.229789">
  <ele>1583.0</ele>
  <time>2026-09-02T20:50:39Z</time>
  <course>0.0</course>
  <speed>0.0</speed>
  <fix>3d</fix>
</trkpt>
<trkpt lat="40.0713749" lon="-105.229789">
  <ele>1583.0</ele>
  <time>2026-09-02T20:50:39Z</time>
  <course>0.0</course>
  <speed>0.0</speed>
  <fix>3d</fix>
</trkpt>
<trkpt lat="40.0713749" lon="-105.229789">
  <ele>1583.0</ele>
  <time>2026-09-02T20:50:39Z</time>
  <course>0.0</course>
  <speed>0.0</speed>
  <fix>3d</fix>
</trkpt>
<trkpt lat="40.0713749" lon="-105.229789">
  <ele>1583.0</ele>
  <time>2026-09-02T20:50:39Z</time>
  <course>0.0</course>
  <speed>0.0</speed>
  <fix>3d</fix>
</trkpt>
<trkpt lat="40.0713749" lon="-105.229789">
  <ele>1583.0</ele>
  <time>2026-09-02T20:50:39Z</time>
  <course>0.0</course>
  <speed>0.0</speed>
  <fix>3d</fix>
</trkpt>
<trkpt lat="40.0713749" lon="-105.229789">
  <ele>1583.0</ele>
  <time>2026-09-02T20:50:39Z</time>
  <course>0.0</course>
  <speed>0.0</speed>
  <fix>3d</fix>
</trkpt>
<trkpt lat="40.0713749" lon="-105.229789">
  <ele>1583.0</ele>
  <time>2026-09-02T20:50:39Z</time>
  <course>0.0</course>
  <speed>0.0</speed>
  <fix>3d</fix>
</trkpt>
<trkpt lat="40.0713749" lon="-105.229789">
  <ele>1583.0</ele>
  <time>2026-09-02T20:50:39Z</time>
  <course>0.0</course>
  <speed>0.0</speed>
  <fix>3d</fix>
</trkpt>
<trkpt lat="40.0713749" lon="-105.229789">
  <ele>1583.0</ele>
  <time>2026-09-02T20:50:39Z</time>
  <course>0.0</course>
  <speed>0.0</speed>
  <fix>3d</fix>
</trkpt>
<trkpt lat="40.0713749" lon="-105.229789">
  <ele>1583.0</ele>
  <time>2026-09-02T20:50:39Z</time>
  <course>0.0</course>
  <speed>0.0</speed>
  <fix>3d</fix>
</trkpt>
<trkpt lat="40.0713749" lon="-105.229789">
  <ele>1583.0</ele>
  <time>2026-09-02T20:50:39Z</time>
  <course>0.0</course>
  <speed>0.0</speed>
  <fix>3d</fix>
</trkpt>
<trkpt lat="40.0713749" lon="-105.229789">
  <ele>1583.0</ele>
  <time>2026-09-02T20:50:39Z</time>
  <course>0.0</course>
  <speed>0.0</speed>
  <fix>3d</fix>
</trkpt>
<trkpt lat="40.0713749" lon="-105.229789">
  <ele>1583.0</ele>
  <time>2026-09-02T20:50:39Z</time>
  <course>0.0</course>
  <speed>0.0</speed>
  <fix>3d</fix>
</trkpt>
<trkpt lat="40.0713749" lon="-105.229789">
  <ele>1583.0</ele>
  <time>2026-09-02T20:50:39Z</time>
  <course>0.0</course>
  <speed>0.0</speed>
  <fix>3d</fix>
</trkpt>
<trkpt lat="40.0713749" lon="-105.229789">
  <ele>1583.0</ele>
  <time>2026-09-02T20:50:39Z</time>
  <course>0.0</course>
  <speed>0.0</speed>
  <fix>3d</fix>
</trkpt>
<trkpt lat="40.0713749" lon="-105.229789">
  <ele>1583.0</ele>
  <time>2026-09-02T20:50:39Z</time>
  <course>0.0</course>
  <speed>0.0</speed>
  <fix>3d</fix>
</trkpt>
<trkpt lat="40.0713749" lon="-105.229789">
  <ele>1583.0</ele>
  <time>2026-09-02T20:50:39Z</time>
  <course>0.0</course>
  <speed>0.0</speed>
  <fix>3d</fix>
</trkpt>
<trkpt lat="40.0713749" lon="-105.229789">
  <ele>1583.0</ele>
  <time>2026-09-02T20:50:39Z</time>
  <course>0.0</course>
  <speed>0.0</speed>
  <fix>3d</fix>
</trkpt>
<trkpt lat="40.0713749" lon="-105.229789">
  <ele>1583.0</ele>
  <time>2026-09-02T20:50:39Z</time>
  <course>0.0</course>
  <speed>0.0</speed>
  <fix>3d</fix>
</trkpt>
<trkpt lat="40.0713749" lon="-105.229789">
  <ele>1583.0</ele>
  <time>2026-09-02T20:50:39Z</time>
  <course>0.0</course>
  <speed>0.0</speed>
  <fix>3d</fix>
</trkpt>
<trkpt lat="40.0713749" lon="-105.229789">
  <ele>1583.0</ele>
  <time>2026-09-02T20:50:39Z</time>
  <course>0.0</course>
  <speed>0.0</speed>
  <fix>3d</fix>
</trkpt>
<trkpt lat="40.0713749" lon="-105.229789">
  <ele>1583.0</ele>
  <time>2026-09-02T20:50:39Z</time>
  <course>0.0</course>
  <speed>0.0</speed>
  <fix>3d</fix>
</trkpt>
<trkpt lat="40.0713749" lon="-105.229789">
  <ele>1583.0</ele>
  <time>2026-09-02T20:50:39Z</time>
  <course>0.0</course>
  <speed>0.0</speed>
  <fix>3d</fix>
</trkpt>
<trkpt lat="40.0713749" lon="-105.229789">
  <ele>1583.0</ele>
  <time>2026-09-02T20:50:39Z</time>
  <course>0.0</course>
  <speed>0.0</speed>
  <fix>3d</fix>
</trkpt>
<trkpt lat="40.0713749" lon="-105.229789">
  <ele>1583.0</ele>
  <time>2026-09-02T20:50:39Z</time>
  <course>0.0</course>
  <speed>0.0</speed>
  <fix>3d</fix>
</trkpt>
<trkpt lat="40.0713749" lon="-105.229789">
  <ele>1583.0</ele>
  <time>2026-09-02T20:50:39Z</time>
  <course>0.0</course>
  <speed>0.0</speed>
  <fix>3d</fix>
</trkpt>
<trkpt lat="40.0713749" lon="-105.229789">
  <ele>1583.0</ele>
  <time>2026-09-02T20:50:39Z</time>
  <course>0.0</course>
  <speed>0.0</speed>
  <fix>3d</fix>
</trkpt>
<trkpt lat="40.0713749" lon="-105.229789">
  <ele>1583.0</ele>
  <time>2026-09-02T20:50:39Z</time>
  <course>0.0</course>
  <speed>0.0</speed>
  <fix>3d</fix>
</trkpt>
<trkpt lat="40.0713749" lon="-105.229789">
  <ele>1583.0</ele>
  <time>2026-09-02T20:50:39Z</time>
  <course>0.0</course>
  <speed>0.0</speed>
  <fix>3d</fix>
</trkpt>
<trkpt lat="40.0713749" lon="-105.229789">
  <ele>1583.0</ele>
  <time>2026-09-02T20:50:39Z</time>
  <course>0.0</course>
  <speed>0.0</speed>
  <fix>3d</fix>
</trkpt>
<trkpt lat="40.0713749" lon="-105.229789">
  <ele>1583.0</ele>
  <time>2026-09-02T20:50:39Z</time>
  <course>0.0</course>
  <speed>0.0</speed>
  <fix>3d</fix>
</trkpt>
<trkpt lat="40.0713749" lon="-105.229789">
  <ele>1583.0</ele>
  <time>2026-09-02T20:50:39Z</time>
  <course>0.0</course>
  <speed>0.0</speed>
  <fix>3d</fix>
</trkpt>
<trkpt lat="40.0713749" lon="-105.229789">
  <ele>1583.0</ele>
  <time>2026-09-02T20:50:39Z</time>
  <course>0.0</course>
  <speed>0.0</speed>
  <fix>3d</fix>
</trkpt>
<trkpt lat="40.0713749" lon="-105.229789">
  <ele>1583.0</ele>
  <time>2026-09-02T20:50:39Z</time>
  <course>0.0</course>
  <speed>0.0</speed>
  <fix>3d</fix>
</trkpt>
<trkpt lat="40.0713749" lon="-105.229789">
  <ele>1583.0</ele>
  <time>2026-09-02T20:50:39Z</time>
  <course>0.0</course>
  <speed>0.0</speed>
  <fix>3d</fix>
</trkpt>
<trkpt lat="40.0713749" lon="-105.229789">
  <ele>1583.0</ele>
  <time>2026-09-02T20:50:39Z</time>
  <course>0.0</course>
  <speed>0.0</speed>
  <fix>3d</fix>
</trkpt>
<trkpt lat="40.0713749" lon="-105.229789">
  <ele>1583.0</ele>
  <time>2026-09-02T20:50:39Z</time>
  <course>0.0</course>
  <speed>0.0</speed>
  <fix>3d</fix>
</trkpt>
<trkpt lat="40.0713749" lon="-105.229789">
  <ele>1583.0</ele>
  <time>2026-09-02T20:50:39Z</time>
  <course>0.0</course>
  <speed>0.0</speed>
  <fix>3d</fix>
</trkpt>
<trkpt lat="40.0713749" lon="-105.229789">
  <ele>1583.0</ele>
  <time>2026-09-02T20:50:39Z</time>
  <course>0.0</course>
  <speed>0.0</speed>
  <fix>3d</fix>
</trkpt>
<trkpt lat="40.0713749" lon="-105.229789">
  <ele>1583.0</ele>
  <time>2026-09-02T20:50:39Z</time>
  <course>0.0</course>
  <speed>0.0</speed>
  <fix>3d</fix>
</trkpt>
<trkpt lat="40.0713749" lon="-105.229789">
  <ele>1583.0</ele>
  <time>2026-09-02T20:50:39Z</time>
  <course>0.0</course>
  <speed>0.0</speed>
  <fix>3d</fix>
</trkpt>
<trkpt lat="40.0713749" lon="-105.229789">
  <ele>1583.0</ele>
  <time>2026-09-02T20:50:39Z</time>
  <course>0.0</course>
  <speed>0.0</speed>
  <fix>3d</fix>
</trkpt>
<trkpt lat="40.0713749" lon="-105.229789">
  <ele>1583.0</ele>
  <time>2026-09-02T20:50:39Z</time>
  <course>0.0</course>
  <speed>0.0</speed>
  <fix>3d</fix>
</trkpt>
<trkpt lat="40.0713749" lon="-105.229789">
  <ele>1583.0</ele>
  <time>2026-09-02T20:50:39Z</time>
  <course>0.0</course>
  <speed>0.0</speed>
  <fix>3d</fix>
</trkpt>
<trkpt lat="40.0713749" lon="-105.229789">
  <ele>1583.0</ele>
  <time>2026-09-02T20:50:39Z</time>
  <course>0.0</course>
  <speed>0.0</speed>
  <fix>3d</fix>
</trkpt>
<trkpt lat="40.0713749" lon="-105.229789">
  <ele>1583.0</ele>
  <time>2026-09-02T20:50:39Z</time>
  <course>0.0</course>
  <speed>0.0</speed>
  <fix>3d</fix>
</trkpt>
<trkpt lat="40.0713749" lon="-105.229789">
  <ele>1583.0</ele>
  <time>2026-09-02T20:50:39Z</time>
  <course>0.0</course>
  <speed>0.0</speed>
  <fix>3d</fix>
</trkpt>
<trkpt lat="40.0713749" lon="-105.229789">
  <ele>1583.0</ele>
  <time>2026-09-02T20:50:39Z</time>
  <course>0.0</course>
  <speed>0.0</speed>
  <fix>3d</fix>
</trkpt>
<trkpt lat="40.0713749" lon="-105.229789">
  <ele>1583.0</ele>
  <time>2026-09-02T20:50:39Z</time>
  <course>0.0</course>
  <speed>0.0</speed>
  <fix>3d</fix>
</trkpt>
<trkpt lat="40.0713749" lon="-105.229789">
  <ele>1583.0</ele>
  <time>2026-09-02T20:50:39Z</time>
  <course>0.0</course>
  <speed>0.0</speed>
  <fix>3d</fix>
</trkpt>
<trkpt lat="40.0713749" lon="-105.229789">
  <ele>1583.0</ele>
  <time>2026-09-02T20:50:39Z</time>
  <course>0.0</course>
  <speed>0.0</speed>
  <fix>3d</fix>
</trkpt>
<trkpt lat="40.0713749" lon="-105.229789">
  <ele>1583.0</ele>
  <time>2026-09-02T20:50:39Z</time>
  <course>0.0</course>
  <speed>0.0</speed>
  <fix>3d</fix>
</trkpt>
<trkpt lat="40.0713749" lon="-105.229789">
  <ele>1583.0</ele>
  <time>2026-09-02T20:50:39Z</time>
  <course>0.0</course>
  <speed>0.0</speed>
  <fix>3d</fix>
</trkpt>
<trkpt lat="40.0713749" lon="-105.229789">
  <ele>1583.0</ele>
  <time>2026-09-02T20:50:39Z</time>
  <course>0.0</course>
  <speed>0.0</speed>
  <fix>3d</fix>
</trkpt>
<trkpt lat="40.0713749" lon="-105.229789">
  <ele>1583.0</ele>
  <time>2026-09-02T20:50:39Z</time>
  <course>0.0</course>
  <speed>0.0</speed>
  <fix>3d</fix>
</trkpt>
<trkpt lat="40.0713749" lon="-105.229789">
  <ele>1583.0</ele>
  <time>2026-09-02T20:50:39Z</time>
  <course>0.0</course>
  <speed>0.0</speed>
  <fix>3d</fix>
</trkpt>
<trkpt lat="40.0713749" lon="-105.229789">
  <ele>1583.0</ele>
  <time>2026-09-02T20:50:39Z</time>
  <course>0.0</course>
  <speed>0.0</speed>
  <fix>3d</fix>
</trkpt>
<trkpt lat="40.0713749" lon="-105.229789">
  <ele>1583.0</ele>
  <time>2026-09-02T20:50:39Z</time>
  <course>0.0</course>
  <speed>0.0</speed>
  <fix>3d</fix>
</trkpt>
<trkpt lat="40.0713749" lon="-105.229789">
  <ele>1583.0</ele>
  <time>2026-09-02T20:50:39Z</time>
  <course>0.0</course>
  <speed>0.0</speed>
  <fix>3d</fix>
</trkpt>
<trkpt lat="40.0713749" lon="-105.229789">
  <ele>1583.0</ele>
  <time>2026-09-02T20:50:39Z</time>
  <course>0.0</course>
  <speed>0.0</speed>
  <fix>3d</fix>
</trkpt>
<trkpt lat="40.0713749" lon="-105.229789">
  <ele>1583.0</ele>
  <time>2026-09-02T20:50:39Z</time>
  <course>0.0</course>
  <speed>0.0</speed>
  <fix>3d</fix>
</trkpt>
<trkpt lat="40.0713749" lon="-105.229789">
  <ele>1583.0</ele>
  <time>2026-09-02T20:50:39Z</time>
  <course>0.0</course>
  <speed>0.0</speed>
  <fix>3d</fix>
</trkpt>
<trkpt lat="40.0713749" lon="-105.229789">
  <ele>1583.0</ele>
  <time>2026-09-02T20:50:39Z</time>
  <course>0.0</course>
  <speed>0.0</speed>
  <fix>3d</fix>
</trkpt>
<trkpt lat="40.0713749" lon="-105.229789">
  <ele>1583.0</ele>
  <time>2026-09-02T20:50:39Z</time>
  <course>0.0</course>
  <speed>0.0</speed>
  <fix>3d</fix>
</trkpt>
<trkpt lat="40.0713749" lon="-105.229789">
  <ele>1583.0</ele>
  <time>2026-09-02T20:50:39Z</time>
  <course>0.0</course>
  <speed>0.0</speed>
  <fix>3d</fix>
</trkpt>
<trkpt lat="40.0713749" lon="-105.229789">
  <ele>1583.0</ele>
  <time>2026-09-02T20:50:39Z</time>
  <course>0.0</course>
  <speed>0.0</speed>
  <fix>3d</fix>
</trkpt>
<trkpt lat="40.0713749" lon="-105.229789">
  <ele>1583.0</ele>
  <time>2026-09-02T20:50:39Z</time>
  <course>0.0</course>
  <speed>0.0</speed>
  <fix>3d</fix>
</trkpt>
<trkpt lat="40.0713749" lon="-105.229789">
  <ele>1583.0</ele>
  <time>2026-09-02T20:50:39Z</time>
  <course>0.0</course>
  <speed>0.0</speed>
  <fix>3d</fix>
</trkpt>
<trkpt lat="40.0713749" lon="-105.229789">
  <ele>1583.0</ele>
  <time>2026-09-02T20:50:39Z</time>
  <course>0.0</course>
  <speed>0.0</speed>
  <fix>3d</fix>
</trkpt>
<trkpt lat="40.0713749" lon="-105.229789">
  <ele>1583.0</ele>
  <time>2026-09-02T20:50:39Z</time>
  <course>0.0</course>
  <speed>0.0</speed>
  <fix>3d</fix>
</trkpt>
<trkpt lat="40.0713749" lon="-105.229789">
  <ele>1583.0</ele>
  <time>2026-09-02T20:50:39Z</time>
  <course>0.0</course>
  <speed>0.0</speed>
  <fix>3d</fix>
</trkpt>
<trkpt lat="40.0713749" lon="-105.229789">
  <ele>1583.0</ele>
  <time>2026-09-02T20:50:39Z</time>
  <course>0.0</course>
  <speed>0.0</speed>
  <fix>3d</fix>
</trkpt>
<trkpt lat="40.0713749" lon="-105.229789">
  <ele>1583.0</ele>
  <time>2026-09-02T20:50:39Z</time>
  <course>0.0</course>
  <speed>0.0</speed>
  <fix>3d</fix>
</trkpt>
<trkpt lat="40.0713749" lon="-105.229789">
  <ele>1583.0</ele>
  <time>2026-09-02T20:50:39Z</time>
  <course>0.0</course>
  <speed>0.0</speed>
  <fix>3d</fix>
</trkpt>
<trkpt lat="40.0713749" lon="-105.229789">
  <ele>1583.0</ele>
  <time>2026-09-02T20:50:39Z</time>
  <course>0.0</course>
  <speed>0.0</speed>
  <fix>3d</fix>
</trkpt>
<trkpt lat="40.0713749" lon="-105.229789">
  <ele>1583.0</ele>
  <time>2026-09-02T20:50:39Z</time>
  <course>0.0</course>
  <speed>0.0</speed>
  <fix>3d</fix>
</trkpt>
<trkpt lat="40.0713749" lon="-105.229789">
  <ele>1583.0</ele>
  <time>2026-09-02T20:50:39Z</time>
  <course>0.0</course>
  <speed>0.0</speed>
  <fix>3d</fix>
</trkpt>
<trkpt lat="40.0713749" lon="-105.229789">
  <ele>1583.0</ele>
  <time>2026-09-02T20:50:39Z</time>
  <course>0.0</course>
  <speed>0.0</speed>
  <fix>3d</fix>
</trkpt>
<trkpt lat="40.0713749" lon="-105.229789">
  <ele>1583.0</ele>
  <time>2026-09-02T20:50:39Z</time>
  <course>0.0</course>
  <speed>0.0</speed>
  <fix>3d</fix>
</trkpt>
<trkpt lat="40.0713749" lon="-105.229789">
  <ele>1583.0</ele>
  <time>2026-09-02T20:50:39Z</time>
  <course>0.0</course>
  <speed>0.0</speed>
  <fix>3d</fix>
</trkpt>
<trkpt lat="40.0713749" lon="-105.229789">
  <ele>1583.0</ele>
  <time>2026-09-02T20:50:39Z</time>
  <course>0.0</course>
  <speed>0.0</speed>
  <fix>3d</fix>
</trkpt>
<trkpt lat="40.0713749" lon="-105.229789">
  <ele>1583.0</ele>
  <time>2026-09-02T20:50:39Z</time>
  <course>0.0</course>
  <speed>0.0</speed>
  <fix>3d</fix>
</trkpt>
<trkpt lat="40.0713749" lon="-105.229789">
  <ele>1583.0</ele>
  <time>2026-09-02T20:50:39Z</time>
  <course>0.0</course>
  <speed>0.0</speed>
  <fix>3d</fix>
</trkpt>
<trkpt lat="40.0713749" lon="-105.229789">
  <ele>1583.0</ele>
  <time>2026-09-02T20:50:39Z</time>
  <course>0.0</course>
  <speed>0.0</speed>
  <fix>3d</fix>
</trkpt>
<trkpt lat="40.0713749" lon="-105.229789">
  <ele>1583.0</ele>
  <time>2026-09-02T20:50:39Z</time>
  <course>0.0</course>
  <speed>0.0</speed>
  <fix>3d</fix>
</trkpt>
<trkpt lat="40.0713749" lon="-105.229789">
  <ele>1583.0</ele>
  <time>2026-09-02T20:50:39Z</time>
  <course>0.0</course>
  <speed>0.0</speed>
  <fix>3d</fix>
</trkpt>
<trkpt lat="40.0713749" lon="-105.229789">
  <ele>1583.0</ele>
  <time>2026-09-02T20:50:39Z</time>
  <course>0.0</course>
  <speed>0.0</speed>
  <fix>3d</fix>
</trkpt>
<trkpt lat="40.0713749" lon="-105.229789">
  <ele>1583.0</ele>
  <time>2026-09-02T20:50:39Z</time>
  <course>0.0</course>
  <speed>0.0</speed>
  <fix>3d</fix>
</trkpt>
<trkpt lat="40.0713749" lon="-105.229789">
  <ele>1583.0</ele>
  <time>2026-09-02T20:50:39Z</time>
  <course>0.0</course>
  <speed>0.0</speed>
  <fix>3d</fix>
</trkpt>
<trkpt lat="40.0713749" lon="-105.229789">
  <ele>1583.0</ele>
  <time>2026-09-02T20:50:39Z</time>
  <course>0.0</course>
  <speed>0.0</speed>
  <fix>3d</fix>
</trkpt>
<trkpt lat="40.0713749" lon="-105.229789">
  <ele>1583.0</ele>
  <time>2026-09-02T20:50:39Z</time>
  <course>0.0</course>
  <speed>0.0</speed>
  <fix>3d</fix>
</trkpt>
<trkpt lat="40.0713749" lon="-105.229789">
  <ele>1583.0</ele>
  <time>2026-09-02T20:50:39Z</time>
  <course>0.0</course>
  <speed>0.0</speed>
  <fix>3d</fix>
</trkpt>
<trkpt lat="40.0713749" lon="-105.229789">
  <ele>1583.0</ele>
  <time>2026-09-02T20:50:39Z</time>
  <course>0.0</course>
  <speed>0.0</speed>
  <fix>3d</fix>
</trkpt>
<trkpt lat="40.0713749" lon="-105.229789">
  <ele>1583.0</ele>
  <time>2026-09-02T20:50:39Z</time>
  <course>0.0</course>
  <speed>0.0</speed>
  <fix>3d</fix>
</trkpt>
<trkpt lat="40.0713749" lon="-105.229789">
  <ele>1583.0</ele>
  <time>2026-09-02T20:50:39Z</time>
  <course>0.0</course>
  <speed>0.0</speed>
  <fix>3d</fix>
</trkpt>
<trkpt lat="40.0713749" lon="-105.229789">
  <ele>1583.0</ele>
  <time>2026-09-02T20:50:39Z</time>
  <course>0.0</course>
  <speed>0.0</speed>
  <fix>3d</fix>
</trkpt>
<trkpt lat="40.0713749" lon="-105.229789">
  <ele>1583.0</ele>
  <time>2026-09-02T20:50:39Z</time>
  <course>0.0</course>
  <speed>0.0</speed>
  <fix>3d</fix>
</trkpt>
<trkpt lat="40.0713749" lon="-105.229789">
  <ele>1583.0</ele>
  <time>2026-09-02T20:50:39Z</time>
  <course>0.0</course>
  <speed>0.0</speed>
  <fix>3d</fix>
</trkpt>
<trkpt lat="40.0713749" lon="-105.229789">
  <ele>1583.0</ele>
  <time>2026-09-02T20:50:39Z</time>
  <course>0.0</course>
  <speed>0.0</speed>
  <fix>3d</fix>
</trkpt>
<trkpt lat="40.0713749" lon="-105.229789">
  <ele>1583.0</ele>
  <time>2026-09-02T20:50:39Z</time>
  <course>0.0</course>
  <speed>0.0</speed>
  <fix>3d</fix>
</trkpt>
<trkpt lat="40.0713749" lon="-105.229789">
  <ele>1583.0</ele>
  <time>2026-09-02T20:50:39Z</time>
  <course>0.0</course>
  <speed>0.0</speed>
  <fix>3d</fix>
</trkpt>
<trkpt lat="40.0713749" lon="-105.229789">
  <ele>1583.0</ele>
  <time>2026-09-02T20:50:39Z</time>
  <course>0.0</course>
  <speed>0.0</speed>
  <fix>3d</fix>
</trkpt>
<trkpt lat="40.0713749" lon="-105.229789">
  <ele>1583.0</ele>
  <time>2026-09-02T20:50:39Z</time>
  <course>0.0</course>
  <speed>0.0</speed>
  <fix>3d</fix>
</trkpt>
<trkpt lat="40.0713749" lon="-105.229789">
  <ele>1583.0</ele>
  <time>2026-09-02T20:50:39Z</time>
  <course>0.0</course>
  <speed>0.0</speed>
  <fix>3d</fix>
</trkpt>
<trkpt lat="40.0713749" lon="-105.229789">
  <ele>1583.0</ele>
  <time>2026-09-02T20:50:39Z</time>
  <course>0.0</course>
  <speed>0.0</speed>
  <fix>3d</fix>
</trkpt>
<trkpt lat="40.0713749" lon="-105.229789">
  <ele>1583.0</ele>
  <time>2026-09-02T20:50:39Z</time>
  <course>0.0</course>
  <speed>0.0</speed>
  <fix>3d</fix>
</trkpt>
<trkpt lat="40.0713749" lon="-105.229789">
  <ele>1583.0</ele>
  <time>2026-09-02T20:50:39Z</time>
  <course>0.0</course>
  <speed>0.0</speed>
  <fix>3d</fix>
</trkpt>
<trkpt lat="40.0713749" lon="-105.229789">
  <ele>1583.0</ele>
  <time>2026-09-02T20:50:39Z</time>
  <course>0.0</course>
  <speed>0.0</speed>
  <fix>3d</fix>
</trkpt>
<trkpt lat="40.0713749" lon="-105.229789">
  <ele>1583.0</ele>
  <time>2026-09-02T20:50:39Z</time>
  <course>0.0</course>
  <speed>0.0</speed>
  <fix>3d</fix>
</trkpt>
<trkpt lat="40.0713749" lon="-105.229789">
  <ele>1583.0</ele>
  <time>2026-09-02T20:50:39Z</time>
  <course>0.0</course>
  <speed>0.0</speed>
  <fix>3d</fix>
</trkpt>
<trkpt lat="40.0713749" lon="-105.229789">
  <ele>1583.0</ele>
  <time>2026-09-02T20:50:39Z</time>
  <course>0.0</course>
  <speed>0.0</speed>
  <fix>3d</fix>
</trkpt>
<trkpt lat="40.0713749" lon="-105.229789">
  <ele>1583.0</ele>
  <time>2026-09-02T20:50:39Z</time>
  <course>0.0</course>
  <speed>0.0</speed>
  <fix>3d</fix>
</trkpt>
<trkpt lat="40.0713749" lon="-105.229789">
  <ele>1583.0</ele>
  <time>2026-09-02T20:50:39Z</time>
  <course>0.0</course>
  <speed>0.0</speed>
  <fix>3d</fix>
</trkpt>
<trkpt lat="40.0713749" lon="-105.229789">
  <ele>1583.0</ele>
  <time>2026-09-02T20:50:39Z</time>
  <course>0.0</course>
  <speed>0.0</speed>
  <fix>3d</fix>
</trkpt>
<trkpt lat="40.0713749" lon="-105.229789">
  <ele>1583.0</ele>
  <time>2026-09-02T20:50:39Z</time>
  <course>0.0</course>
  <speed>0.0</speed>
  <fix>3d</fix>
</trkpt>
<trkpt lat="40.0713749" lon="-105.229789">
  <ele>1583.0</ele>
  <time>2026-09-02T20:50:39Z</time>
  <course>0.0</course>
  <speed>0.0</speed>
  <fix>3d</fix>
</trkpt>
<trkpt lat="40.0713749" lon="-105.229789">
  <ele>1583.0</ele>
  <time>2026-09-02T20:50:39Z</time>
  <course>0.0</course>
  <speed>0.0</speed>
  <fix>3d</fix>
</trkpt>
<trkpt lat="40.0713749" lon="-105.229789">
  <ele>1583.0</ele>
  <time>2026-09-02T20:50:39Z</time>
  <course>0.0</course>
  <speed>0.0</speed>
  <fix>3d</fix>
</trkpt>
<trkpt lat="40.0713749" lon="-105.229789">
  <ele>1583.0</ele>
  <time>2026-09-02T20:50:39Z</time>
  <course>0.0</course>
  <speed>0.0</speed>
  <fix>3d</fix>
</trkpt>
<trkpt lat="40.0713749" lon="-105.229789">
  <ele>1583.0</ele>
  <time>2026-09-02T20:50:39Z</time>
  <course>0.0</course>
  <speed>0.0</speed>
  <fix>3d</fix>
</trkpt>
<trkpt lat="40.0713749" lon="-105.229789">
  <ele>1583.0</ele>
  <time>2026-09-02T20:50:39Z</time>
  <course>0.0</course>
  <speed>0.0</speed>
  <fix>3d</fix>
</trkpt>
<trkpt lat="40.0713749" lon="-105.229789">
  <ele>1583.0</ele>
  <time>2026-09-02T20:50:39Z</time>
  <course>0.0</course>
  <speed>0.0</speed>
  <fix>3d</fix>
</trkpt>
<trkpt lat="40.0713749" lon="-105.229789">
  <ele>1583.0</ele>
  <time>2026-09-02T20:50:39Z</time>
  <course>0.0</course>
  <speed>0.0</speed>
  <fix>3d</fix>
</trkpt>
<trkpt lat="40.0713749" lon="-105.229789">
  <ele>1583.0</ele>
  <time>2026-09-02T20:50:39Z</time>
  <course>0.0</course>
  <speed>0.0</speed>
  <fix>3d</fix>
</trkpt>
<trkpt lat="40.0713749" lon="-105.229789">
  <ele>1583.0</ele>
  <time>2026-09-02T20:50:39Z</time>
  <course>0.0</course>
  <speed>0.0</speed>
  <fix>3d</fix>
</trkpt>
<trkpt lat="40.0713749" lon="-105.229789">
  <ele>1583.0</ele>
  <time>2026-09-02T20:50:39Z</time>
  <course>0.0</course>
  <speed>0.0</speed>
  <fix>3d</fix>
</trkpt>
<trkpt lat="40.0713749" lon="-105.229789">
  <ele>1583.0</ele>
  <time>2026-09-02T20:50:39Z</time>
  <course>0.0</course>
  <speed>0.0</speed>
  <fix>3d</fix>
</trkpt>
<trkpt lat="40.0713749" lon="-105.229789">
  <ele>1583.0</ele>
  <time>2026-09-02T20:50:39Z</time>
  <course>0.0</course>
  <speed>0.0</speed>
  <fix>3d</fix>
</trkpt>
<trkpt lat="40.0713749" lon="-105.229789">
  <ele>1583.0</ele>
  <time>2026-09-02T20:50:39Z</time>
  <course>0.0</course>
  <speed>0.0</speed>
  <fix>3d</fix>
</trkpt>
<trkpt lat="40.0713749" lon="-105.229789">
  <ele>1583.0</ele>
  <time>2026-09-02T20:50:39Z</time>
  <course>0.0</course>
  <speed>0.0</speed>
  <fix>3d</fix>
</trkpt>
<trkpt lat="40.0713749" lon="-105.229789">
  <ele>1583.0</ele>
  <time>2026-09-02T20:50:39Z</time>
  <course>0.0</course>
  <speed>0.0</speed>
  <fix>3d</fix>
</trkpt>
<trkpt lat="40.0713749" lon="-105.229789">
  <ele>1583.0</ele>
  <time>2026-09-02T20:50:39Z</time>
  <course>0.0</course>
  <speed>0.0</speed>
  <fix>3d</fix>
</trkpt>
<trkpt lat="40.0713749" lon="-105.229789">
  <ele>1583.0</ele>
  <time>2026-09-02T20:50:39Z</time>
  <course>0.0</course>
  <speed>0.0</speed>
  <fix>3d</fix>
</trkpt>
<trkpt lat="40.0713749" lon="-105.229789">
  <ele>1583.0</ele>
  <time>2026-09-02T20:50:39Z</time>
  <course>0.0</course>
  <speed>0.0</speed>
  <fix>3d</fix>
</trkpt>
<trkpt lat="40.0713749" lon="-105.229789">
  <ele>1583.0</ele>
  <time>2026-09-02T20:50:39Z</time>
  <course>0.0</course>
  <speed>0.0</speed>
  <fix>3d</fix>
</trkpt>
<trkpt lat="40.0713749" lon="-105.229789">
  <ele>1583.0</ele>
  <time>2026-09-02T20:50:39Z</time>
  <course>0.0</course>
  <speed>0.0</speed>
  <fix>3d</fix>
</trkpt>
<trkpt lat="40.0713749" lon="-105.229789">
  <ele>1583.0</ele>
  <time>2026-09-02T20:50:39Z</time>
  <course>0.0</course>
  <speed>0.0</speed>
  <fix>3d</fix>
</trkpt>
<trkpt lat="40.0713749" lon="-105.229789">
  <ele>1583.0</ele>
  <time>2026-09-02T20:50:39Z</time>
  <course>0.0</course>
  <speed>0.0</speed>
  <fix>3d</fix>
</trkpt>
<trkpt lat="40.0713749" lon="-105.229789">
  <ele>1583.0</ele>
  <time>2026-09-02T20:50:39Z</time>
  <course>0.0</course>
  <speed>0.0</speed>
  <fix>3d</fix>
</trkpt>
<trkpt lat="40.0713749" lon="-105.229789">
  <ele>1583.0</ele>
  <time>2026-09-02T20:50:39Z</time>
  <course>0.0</course>
  <speed>0.0</speed>
  <fix>3d</fix>
</trkpt>
<trkpt lat="40.0713749" lon="-105.229789">
  <ele>1583.0</ele>
  <time>2026-09-02T20:50:39Z</time>
  <course>0.0</course>
  <speed>0.0</speed>
  <fix>3d</fix>
</trkpt>
<trkpt lat="40.0713749" lon="-105.229789">
  <ele>1583.0</ele>
  <time>2026-09-02T20:50:39Z</time>
  <course>0.0</course>
  <speed>0.0</speed>
  <fix>3d</fix>
</trkpt>
<trkpt lat="40.0713749" lon="-105.229789">
  <ele>1583.0</ele>
  <time>2026-09-02T20:50:39Z</time>
  <course>0.0</course>
  <speed>0.0</speed>
  <fix>3d</fix>
</trkpt>
<trkpt lat="40.0713749" lon="-105.229789">
  <ele>1583.0</ele>
  <time>2026-09-02T20:50:39Z</time>
  <course>0.0</course>
  <speed>0.0</speed>
  <fix>3d</fix>
</trkpt>
<trkpt lat="40.0713749" lon="-105.229789">
  <ele>1583.0</ele>
  <time>2026-09-02T20:50:39Z</time>
  <course>0.0</course>
  <speed>0.0</speed>
  <fix>3d</fix>
</trkpt>
<trkpt lat="40.0713749" lon="-105.229789">
  <ele>1583.0</ele>
  <time>2026-09-02T20:50:39Z</time>
  <course>0.0</course>
  <speed>0.0</speed>
  <fix>3d</fix>
</trkpt>
<trkpt lat="40.0713749" lon="-105.229789">
  <ele>1583.0</ele>
  <time>2026-09-02T20:50:39Z</time>
  <course>0.0</course>
  <speed>0.0</speed>
  <fix>3d</fix>
</trkpt>
<trkpt lat="40.0713749" lon="-105.229789">
  <ele>1583.0</ele>
  <time>2026-09-02T20:50:39Z</time>
  <course>0.0</course>
  <speed>0.0</speed>
  <fix>3d</fix>
</trkpt>
<trkpt lat="40.0713749" lon="-105.229789">
  <ele>1583.0</ele>
  <time>2026-09-02T20:50:39Z</time>
  <course>0.0</course>
  <speed>0.0</speed>
  <fix>3d</fix>
</trkpt>
<trkpt lat="40.0713749" lon="-105.229789">
  <ele>1583.0</ele>
  <time>2026-09-02T20:50:39Z</time>
  <course>0.0</course>
  <speed>0.0</speed>
  <fix>3d</fix>
</trkpt>
<trkpt lat="40.0713749" lon="-105.229789">
  <ele>1583.0</ele>
  <time>2026-09-02T20:50:39Z</time>
  <course>0.0</course>
  <speed>0.0</speed>
  <fix>3d</fix>
</trkpt>
<trkpt lat="40.0713749" lon="-105.229789">
  <ele>1583.0</ele>
  <time>2026-09-02T20:50:39Z</time>
  <course>0.0</course>
  <speed>0.0</speed>
  <fix>3d</fix>
</trkpt>
<trkpt lat="40.0713749" lon="-105.229789">
  <ele>1583.0</ele>
  <time>2026-09-02T20:50:39Z</time>
  <course>0.0</course>
  <speed>0.0</speed>
  <fix>3d</fix>
</trkpt>
<trkpt lat="40.0713749" lon="-105.229789">
  <ele>1583.0</ele>
  <time>2026-09-02T20:50:39Z</time>
  <course>0.0</course>
  <speed>0.0</speed>
  <fix>3d</fix>
</trkpt>
<trkpt lat="40.0713749" lon="-105.229789">
  <ele>1583.0</ele>
  <time>2026-09-02T20:50:39Z</time>
  <course>0.0</course>
  <speed>0.0</speed>
  <fix>3d</fix>
</trkpt>
<trkpt lat="40.0713749" lon="-105.229789">
  <ele>1583.0</ele>
  <time>2026-09-02T20:50:39Z</time>
  <course>0.0</course>
  <speed>0.0</speed>
  <fix>3d</fix>
</trkpt>
<trkpt lat="40.0713749" lon="-105.229789">
  <ele>1583.0</ele>
  <time>2026-09-02T20:50:39Z</time>
  <course>0.0</course>
  <speed>0.0</speed>
  <fix>3d</fix>
</trkpt>
<trkpt lat="40.0713749" lon="-105.229789">
  <ele>1583.0</ele>
  <time>2026-09-02T20:50:39Z</time>
  <course>0.0</course>
  <speed>0.0</speed>
  <fix>3d</fix>
</trkpt>
<trkpt lat="40.0713749" lon="-105.229789">
  <ele>1583.0</ele>
  <time>2026-09-02T20:50:39Z</time>
  <course>0.0</course>
  <speed>0.0</speed>
  <fix>3d</fix>
</trkpt>
<trkpt lat="40.0713749" lon="-105.229789">
  <ele>1583.0</ele>
  <time>2026-09-02T20:50:39Z</time>
  <course>0.0</course>
  <speed>0.0</speed>
  <fix>3d</fix>
</trkpt>
<trkpt lat="40.0713749" lon="-105.229789">
  <ele>1583.0</ele>
  <time>2026-09-02T20:50:39Z</time>
  <course>0.0</course>
  <speed>0.0</speed>
  <fix>3d</fix>
</trkpt>
<trkpt lat="40.0713749" lon="-105.229789">
  <ele>1583.0</ele>
  <time>2026-09-02T20:50:39Z</time>
  <course>0.0</course>
  <speed>0.0</speed>
  <fix>3d</fix>
</trkpt>
<trkpt lat="40.0713749" lon="-105.229789">
  <ele>1583.0</ele>
  <time>2026-09-02T20:50:39Z</time>
  <course>0.0</course>
  <speed>0.0</speed>
  <fix>3d</fix>
</trkpt>
<trkpt lat="40.0713749" lon="-105.229789">
  <ele>1583.0</ele>
  <time>2026-09-02T20:50:39Z</time>
  <course>0.0</course>
  <speed>0.0</speed>
  <fix>3d</fix>
</trkpt>
<trkpt lat="40.0713749" lon="-105.229789">
  <ele>1583.0</ele>
  <time>2026-09-02T20:50:39Z</time>
  <course>0.0</course>
  <speed>0.0</speed>
  <fix>3d</fix>
</trkpt>
<trkpt lat="40.0713749" lon="-105.229789">
  <ele>1583.0</ele>
  <time>2026-09-02T20:50:39Z</time>
  <course>0.0</course>
  <speed>0.0</speed>
  <fix>3d</fix>
</trkpt>
<trkpt lat="40.0713749" lon="-105.229789">
  <ele>1583.0</ele>
  <time>2026-09-02T20:50:39Z</time>
  <course>0.0</course>
  <speed>0.0</speed>
  <fix>3d</fix>
</trkpt>
<trkpt lat="40.0713749" lon="-105.229789">
  <ele>1583.0</ele>
  <time>2026-09-02T20:50:39Z</time>
  <course>0.0</course>
  <speed>0.0</speed>
  <fix>3d</fix>
</trkpt>
<trkpt lat="40.0713749" lon="-105.229789">
  <ele>1583.0</ele>
  <time>2026-09-02T20:50:39Z</time>
  <course>0.0</course>
  <speed>0.0</speed>
  <fix>3d</fix>
</trkpt>
<trkpt lat="40.0713749" lon="-105.229789">
  <ele>1583.0</ele>
  <time>2026-09-02T20:50:39Z</time>
  <course>0.0</course>
  <speed>0.0</speed>
  <fix>3d</fix>
</trkpt>
<trkpt lat="40.0713749" lon="-105.229789">
  <ele>1583.0</ele>
  <time>2026-09-02T20:50:39Z</time>
  <course>0.0</course>
  <speed>0.0</speed>
  <fix>3d</fix>
</trkpt>
<trkpt lat="40.0713749" lon="-105.229789">
  <ele>1583.0</ele>
  <time>2026-09-02T20:50:39Z</time>
  <course>0.0</course>
  <speed>0.0</speed>
  <fix>3d</fix>
</trkpt>
<trkpt lat="40.0713749" lon="-105.229789">
  <ele>1583.0</ele>
  <time>2026-09-02T20:50:39Z</time>
  <course>0.0</course>
  <speed>0.0</speed>
  <fix>3d</fix>
</trkpt>
<trkpt lat="40.0713749" lon="-105.229789">
  <ele>1583.0</ele>
  <time>2026-09-02T20:50:39Z</time>
  <course>0.0</course>
  <speed>0.0</speed>
  <fix>3d</fix>
</trkpt>
<trkpt lat="40.0713749" lon="-105.229789">
  <ele>1583.0</ele>
  <time>2026-09-02T20:50:39Z</time>
  <course>0.0</course>
  <speed>0.0</speed>
  <fix>3d</fix>
</trkpt>
<trkpt lat="40.0713749" lon="-105.229789">
  <ele>1583.0</ele>
  <time>2026-09-02T20:50:39Z</time>
  <course>0.0</course>
  <speed>0.0</speed>
  <fix>3d</fix>
</trkpt>
<trkpt lat="40.0713749" lon="-105.229789">
  <ele>1583.0</ele>
  <time>2026-09-02T20:50:39Z</time>
  <course>0.0</course>
  <speed>0.0</speed>
  <fix>3d</fix>
</trkpt>
<trkpt lat="40.0713749" lon="-105.229789">
  <ele>1583.0</ele>
  <time>2026-09-02T20:50:39Z</time>
  <course>0.0</course>
  <speed>0.0</speed>
  <fix>3d</fix>
</trkpt>
<trkpt lat="40.0713749" lon="-105.229789">
  <ele>1583.0</ele>
  <time>2026-09-02T20:50:39Z</time>
  <course>0.0</course>
  <speed>0.0</speed>
  <fix>3d</fix>
</trkpt>
<trkpt lat="40.0713749" lon="-105.229789">
  <ele>1583.0</ele>
  <time>2026-09-02T20:50:39Z</time>
  <course>0.0</course>
  <speed>0.0</speed>
  <fix>3d</fix>
</trkpt>
<trkpt lat="40.0713749" lon="-105.229789">
  <ele>1583.0</ele>
  <time>2026-09-02T20:50:39Z</time>
  <course>0.0</course>
  <speed>0.0</speed>
  <fix>3d</fix>
</trkpt>
<trkpt lat="40.0713749" lon="-105.229789">
  <ele>1583.0</ele>
  <time>2026-09-02T20:50:39Z</time>
  <course>0.0</course>
  <speed>0.0</speed>
  <fix>3d</fix>
</trkpt>
<trkpt lat="40.0713749" lon="-105.229789">
  <ele>1583.0</ele>
  <time>2026-09-02T20:50:39Z</time>
  <course>0.0</course>
  <speed>0.0</speed>
  <fix>3d</fix>
</trkpt>
<trkpt lat="40.0713749" lon="-105.229789">
  <ele>1583.0</ele>
  <time>2026-09-02T20:50:39Z</time>
  <course>0.0</course>
  <speed>0.0</speed>
  <fix>3d</fix>
</trkpt>
<trkpt lat="40.0713749" lon="-105.229789">
  <ele>1583.0</ele>
  <time>2026-09-02T20:50:39Z</time>
  <course>0.0</course>
  <speed>0.0</speed>
  <fix>3d</fix>
</trkpt>
<trkpt lat="40.0713749" lon="-105.229789">
  <ele>1583.0</ele>
  <time>2026-09-02T20:50:39Z</time>
  <course>0.0</course>
  <speed>0.0</speed>
  <fix>3d</fix>
</trkpt>
<trkpt lat="40.0713749" lon="-105.229789">
  <ele>1583.0</ele>
  <time>2026-09-02T20:50:39Z</time>
  <course>0.0</course>
  <speed>0.0</speed>
  <fix>3d</fix>
</trkpt>
<trkpt lat="40.0713749" lon="-105.229789">
  <ele>1583.0</ele>
  <time>2026-09-02T20:50:39Z</time>
  <course>0.0</course>
  <speed>0.0</speed>
  <fix>3d</fix>
</trkpt>
<trkpt lat="40.0713749" lon="-105.229789">
  <ele>1583.0</ele>
  <time>2026-09-02T20:50:39Z</time>
  <course>0.0</course>
  <speed>0.0</speed>
  <fix>3d</fix>
</trkpt>
<trkpt lat="40.0713749" lon="-105.229789">
  <ele>1583.0</ele>
  <time>2026-09-02T20:50:39Z</time>
  <course>0.0</course>
  <speed>0.0</speed>
  <fix>3d</fix>
</trkpt>
<trkpt lat="40.0713749" lon="-105.229789">
  <ele>1583.0</ele>
  <time>2026-09-02T20:50:39Z</time>
  <course>0.0</course>
  <speed>0.0</speed>
  <fix>3d</fix>
</trkpt>
<trkpt lat="40.0713749" lon="-105.229789">
  <ele>1583.0</ele>
  <time>2026-09-02T20:50:39Z</time>
  <course>0.0</course>
  <speed>0.0</speed>
  <fix>3d</fix>
</trkpt>
<trkpt lat="40.0713749" lon="-105.229789">
  <ele>1583.0</ele>
  <time>2026-09-02T20:50:39Z</time>
  <course>0.0</course>
  <speed>0.0</speed>
  <fix>3d</fix>
</trkpt>
<trkpt lat="40.0713749" lon="-105.229789">
  <ele>1583.0</ele>
  <time>2026-09-02T20:50:39Z</time>
  <course>0.0</course>
  <speed>0.0</speed>
  <fix>3d</fix>
</trkpt>
<trkpt lat="40.0713749" lon="-105.229789">
  <ele>1583.0</ele>
  <time>2026-09-02T20:50:39Z</time>
  <course>0.0</course>
  <speed>0.0</speed>
  <fix>3d</fix>
</trkpt>
<trkpt lat="40.0713749" lon="-105.229789">
  <ele>1583.0</ele>
  <time>2026-09-02T20:50:39Z</time>
  <course>0.0</course>
  <speed>0.0</speed>
  <fix>3d</fix>
</trkpt>
<trkpt lat="40.0713749" lon="-105.229789">
  <ele>1583.0</ele>
  <time>2026-09-02T20:50:39Z</time>
  <course>0.0</course>
  <speed>0.0</speed>
  <fix>3d</fix>
</trkpt>
<trkpt lat="40.0713749" lon="-105.229789">
  <ele>1583.0</ele>
  <time>2026-09-02T20:50:39Z</time>
  <course>0.0</course>
  <speed>0.0</speed>
  <fix>3d</fix>
</trkpt>
<trkpt lat="40.0713749" lon="-105.229789">
  <ele>1583.0</ele>
  <time>2026-09-02T20:50:39Z</time>
  <course>0.0</course>
  <speed>0.0</speed>
  <fix>3d</fix>
</trkpt>
<trkpt lat="40.0713749" lon="-105.229789">
  <ele>1583.0</ele>
  <time>2026-09-02T20:50:39Z</time>
  <course>0.0</course>
  <speed>0.0</speed>
  <fix>3d</fix>
</trkpt>
<trkpt lat="40.0713749" lon="-105.229789">
  <ele>1583.0</ele>
  <time>2026-09-02T20:50:39Z</time>
  <course>0.0</course>
  <speed>0.0</speed>
  <fix>3d</fix>
</trkpt>
<trkpt lat="40.0713749" lon="-105.229789">
  <ele>1583.0</ele>
  <time>2026-09-02T20:50:39Z</time>
  <course>0.0</course>
  <speed>0.0</speed>
  <fix>3d</fix>
</trkpt>
<trkpt lat="40.0713749" lon="-105.229789">
  <ele>1583.0</ele>
  <time>2026-09-02T20:50:39Z</time>
  <course>0.0</course>
  <speed>0.0</speed>
  <fix>3d</fix>
</trkpt>
<trkpt lat="40.0713749" lon="-105.229789">
  <ele>1583.0</ele>
  <time>2026-09-02T20:50:39Z</time>
  <course>0.0</course>
  <speed>0.0</speed>
  <fix>3d</fix>
</trkpt>
<trkpt lat="40.0713749" lon="-105.229789">
  <ele>1583.0</ele>
  <time>2026-09-02T20:50:39Z</time>
  <course>0.0</course>
  <speed>0.0</speed>
  <fix>3d</fix>
</trkpt>
<trkpt lat="40.0713749" lon="-105.229789">
  <ele>1583.0</ele>
  <time>2026-09-02T20:50:39Z</time>
  <course>0.0</course>
  <speed>0.0</speed>
  <fix>3d</fix>
</trkpt>
<trkpt lat="40.0713749" lon="-105.229789">
  <ele>1583.0</ele>
  <time>2026-09-02T20:50:39Z</time>
  <course>0.0</course>
  <speed>0.0</speed>
  <fix>3d</fix>
</trkpt>
<trkpt lat="40.0713749" lon="-105.229789">
  <ele>1583.0</ele>
  <time>2026-09-02T20:50:39Z</time>
  <course>0.0</course>
  <speed>0.0</speed>
  <fix>3d</fix>
</trkpt>
<trkpt lat="40.0713749" lon="-105.229789">
  <ele>1583.0</ele>
  <time>2026-09-02T20:50:39Z</time>
  <course>0.0</course>
  <speed>0.0</speed>
  <fix>3d</fix>
</trkpt>
<trkpt lat="40.0713749" lon="-105.229789">
  <ele>1583.0</ele>
  <time>2026-09-02T20:50:39Z</time>
  <course>0.0</course>
  <speed>0.0</speed>
  <fix>3d</fix>
</trkpt>
<trkpt lat="40.0713749" lon="-105.229789">
  <ele>1583.0</ele>
  <time>2026-09-02T20:50:39Z</time>
  <course>0.0</course>
  <speed>0.0</speed>
  <fix>3d</fix>
</trkpt>
<trkpt lat="40.0713749" lon="-105.229789">
  <ele>1583.0</ele>
  <time>2026-09-02T20:50:39Z</time>
  <course>0.0</course>
  <speed>0.0</speed>
  <fix>3d</fix>
</trkpt>
<trkpt lat="40.0713749" lon="-105.229789">
  <ele>1583.0</ele>
  <time>2026-09-02T20:50:39Z</time>
  <course>0.0</course>
  <speed>0.0</speed>
  <fix>3d</fix>
</trkpt>
<trkpt lat="40.0713749" lon="-105.229789">
  <ele>1583.0</ele>
  <time>2026-09-02T20:50:39Z</time>
  <course>0.0</course>
  <speed>0.0</speed>
  <fix>3d</fix>
</trkpt>
<trkpt lat="40.0713749" lon="-105.229789">
  <ele>1583.0</ele>
  <time>2026-09-02T20:50:39Z</time>
  <course>0.0</course>
  <speed>0.0</speed>
  <fix>3d</fix>
</trkpt>
<trkpt lat="40.0713749" lon="-105.229789">
  <ele>1583.0</ele>
  <time>2026-09-02T20:50:39Z</time>
  <course>0.0</course>
  <speed>0.0</speed>
  <fix>3d</fix>
</trkpt>
<trkpt lat="40.0713749" lon="-105.229789">
  <ele>1583.0</ele>
  <time>2026-09-02T20:50:39Z</time>
  <course>0.0</course>
  <speed>0.0</speed>
  <fix>3d</fix>
</trkpt>
<trkpt lat="40.0713749" lon="-105.229789">
  <ele>1583.0</ele>
  <time>2026-09-02T20:50:39Z</time>
  <course>0.0</course>
  <speed>0.0</speed>
  <fix>3d</fix>
</trkpt>
<trkpt lat="40.0713749" lon="-105.229789">
  <ele>1583.0</ele>
  <time>2026-09-02T20:50:39Z</time>
  <course>0.0</course>
  <speed>0.0</speed>
  <fix>3d</fix>
</trkpt>
<trkpt lat="40.0713749" lon="-105.229789">
  <ele>1583.0</ele>
  <time>2026-09-02T20:50:39Z</time>
  <course>0.0</course>
  <speed>0.0</speed>
  <fix>3d</fix>
</trkpt>
<trkpt lat="40.0713749" lon="-105.229789">
  <ele>1583.0</ele>
  <time>2026-09-02T20:50:39Z</time>
  <course>0.0</course>
  <speed>0.0</speed>
  <fix>3d</fix>
</trkpt>
<trkpt lat="40.0713749" lon="-105.229789">
  <ele>1583.0</ele>
  <time>2026-09-02T20:50:39Z</time>
  <course>0.0</course>
  <speed>0.0</speed>
  <fix>3d</fix>
</trkpt>
<trkpt lat="40.0713749" lon="-105.229789">
  <ele>1583.0</ele>
  <time>2026-09-02T20:50:39Z</time>
  <course>0.0</course>
  <speed>0.0</speed>
  <fix>3d</fix>
</trkpt>
<trkpt lat="40.0713749" lon="-105.229789">
  <ele>1583.0</ele>
  <time>2026-09-02T20:50:39Z</time>
  <course>0.0</course>
  <speed>0.0</speed>
  <fix>3d</fix>
</trkpt>
<trkpt lat="40.0713749" lon="-105.229789">
  <ele>1583.0</ele>
  <time>2026-09-02T20:50:39Z</time>
  <course>0.0</course>
  <speed>0.0</speed>
  <fix>3d</fix>
</trkpt>
<trkpt lat="40.0713749" lon="-105.229789">
  <ele>1583.0</ele>
  <time>2026-09-02T20:50:39Z</time>
  <course>0.0</course>
  <speed>0.0</speed>
  <fix>3d</fix>
</trkpt>
<trkpt lat="40.0713749" lon="-105.229789">
  <ele>1583.0</ele>
  <time>2026-09-02T20:50:39Z</time>
  <course>0.0</course>
  <speed>0.0</speed>
  <fix>3d</fix>
</trkpt>
<trkpt lat="40.0713749" lon="-105.229789">
  <ele>1583.0</ele>
  <time>2026-09-02T20:50:39Z</time>
  <course>0.0</course>
  <speed>0.0</speed>
  <fix>3d</fix>
</trkpt>
<trkpt lat="40.0713749" lon="-105.229789">
  <ele>1583.0</ele>
  <time>2026-09-02T20:50:39Z</time>
  <course>0.0</course>
  <speed>0.0</speed>
  <fix>3d</fix>
</trkpt>
<trkpt lat="40.0713749" lon="-105.229789">
  <ele>1583.0</ele>
  <time>2026-09-02T20:50:39Z</time>
  <course>0.0</course>
  <speed>0.0</speed>
  <fix>3d</fix>
</trkpt>
<trkpt lat="40.0713749" lon="-105.229789">
  <ele>1583.0</ele>
  <time>2026-09-02T20:50:39Z</time>
  <course>0.0</course>
  <speed>0.0</speed>
  <fix>3d</fix>
</trkpt>
<trkpt lat="40.0713749" lon="-105.229789">
  <ele>1583.0</ele>
  <time>2026-09-02T20:50:39Z</time>
  <course>0.0</course>
  <speed>0.0</speed>
  <fix>3d</fix>
</trkpt>
<trkpt lat="40.0713749" lon="-105.229789">
  <ele>1583.0</ele>
  <time>2026-09-02T20:50:39Z</time>
  <course>0.0</course>
  <speed>0.0</speed>
  <fix>3d</fix>
</trkpt>
<trkpt lat="40.0713749" lon="-105.229789">
  <ele>1583.0</ele>
  <time>2026-09-02T20:50:39Z</time>
  <course>0.0</course>
  <speed>0.0</speed>
  <fix>3d</fix>
</trkpt>
<trkpt lat="40.0713749" lon="-105.229789">
  <ele>1583.0</ele>
  <time>2026-09-02T20:50:39Z</time>
  <course>0.0</course>
  <speed>0.0</speed>
  <fix>3d</fix>
</trkpt>
<trkpt lat="40.0713749" lon="-105.229789">
  <ele>1583.0</ele>
  <time>2026-09-02T20:50:39Z</time>
  <course>0.0</course>
  <speed>0.0</speed>
  <fix>3d</fix>
</trkpt>
<trkpt lat="40.0713749" lon="-105.229789">
  <ele>1583.0</ele>
  <time>2026-09-02T20:50:39Z</time>
  <course>0.0</course>
  <speed>0.0</speed>
  <fix>3d</fix>
</trkpt>
<trkpt lat="40.0713749" lon="-105.229789">
  <ele>1583.0</ele>
  <time>2026-09-02T20:50:39Z</time>
  <course>0.0</course>
  <speed>0.0</speed>
  <fix>3d</fix>
</trkpt>
<trkpt lat="40.0713749" lon="-105.229789">
  <ele>1583.0</ele>
  <time>2026-09-02T20:50:39Z</time>
  <course>0.0</course>
  <speed>0.0</speed>
  <fix>3d</fix>
</trkpt>
<trkpt lat="40.0713749" lon="-105.229789">
  <ele>1583.0</ele>
  <time>2026-09-02T20:50:39Z</time>
  <course>0.0</course>
  <speed>0.0</speed>
  <fix>3d</fix>
</trkpt>
<trkpt lat="40.0713749" lon="-105.229789">
  <ele>1583.0</ele>
  <time>2026-09-02T20:50:39Z</time>
  <course>0.0</course>
  <speed>0.0</speed>
  <fix>3d</fix>
</trkpt>
<trkpt lat="40.0713749" lon="-105.229789">
  <ele>1583.0</ele>
  <time>2026-09-02T20:50:39Z</time>
  <course>0.0</course>
  <speed>0.0</speed>
  <fix>3d</fix>
</trkpt>
<trkpt lat="40.0713749" lon="-105.229789">
  <ele>1583.0</ele>
  <time>2026-09-02T20:50:39Z</time>
  <course>0.0</course>
  <speed>0.0</speed>
  <fix>3d</fix>
</trkpt>
<trkpt lat="40.0713749" lon="-105.229789">
  <ele>1583.0</ele>
  <time>2026-09-02T20:50:39Z</time>
  <course>0.0</course>
  <speed>0.0</speed>
  <fix>3d</fix>
</trkpt>
<trkpt lat="40.0713749" lon="-105.229789">
  <ele>1583.0</ele>
  <time>2026-09-02T20:50:39Z</time>
  <course>0.0</course>
  <speed>0.0</speed>
  <fix>3d</fix>
</trkpt>
<trkpt lat="40.0713749" lon="-105.229789">
  <ele>1583.0</ele>
  <time>2026-09-02T20:50:39Z</time>
  <course>0.0</course>
  <speed>0.0</speed>
  <fix>3d</fix>
</trkpt>
<trkpt lat="40.0713749" lon="-105.229789">
  <ele>1583.0</ele>
  <time>2026-09-02T20:50:39Z</time>
  <course>0.0</course>
  <speed>0.0</speed>
  <fix>3d</fix>
</trkpt>
<trkpt lat="40.0713749" lon="-105.229789">
  <ele>1583.0</ele>
  <time>2026-09-02T20:50:39Z</time>
  <course>0.0</course>
  <speed>0.0</speed>
  <fix>3d</fix>
</trkpt>
<trkpt lat="40.0713749" lon="-105.229789">
  <ele>1583.0</ele>
  <time>2026-09-02T20:50:39Z</time>
  <course>0.0</course>
  <speed>0.0</speed>
  <fix>3d</fix>
</trkpt>
<trkpt lat="40.0713749" lon="-105.229789">
  <ele>1583.0</ele>
  <time>2026-09-02T20:50:39Z</time>
  <course>0.0</course>
  <speed>0.0</speed>
  <fix>3d</fix>
</trkpt>
<trkpt lat="40.0713749" lon="-105.229789">
  <ele>1583.0</ele>
  <time>2026-09-02T20:50:39Z</time>
  <course>0.0</course>
  <speed>0.0</speed>
  <fix>3d</fix>
</trkpt>
<trkpt lat="40.0713749" lon="-105.229789">
  <ele>1583.0</ele>
  <time>2026-09-02T20:50:39Z</time>
  <course>0.0</course>
  <speed>0.0</speed>
  <fix>3d</fix>
</trkpt>
<trkpt lat="40.0713749" lon="-105.229789">
  <ele>1583.0</ele>
  <time>2026-09-02T20:50:39Z</time>
  <course>0.0</course>
  <speed>0.0</speed>
  <fix>3d</fix>
</trkpt>
<trkpt lat="40.0713749" lon="-105.229789">
  <ele>1583.0</ele>
  <time>2026-09-02T20:50:40Z</time>
  <course>0.0</course>
  <speed>0.0</speed>
  <fix>3d</fix>
</trkpt>
<trkpt lat="40.0713749" lon="-105.229789">
  <ele>1583.0</ele>
  <time>2026-09-02T20:50:40Z</time>
  <course>0.0</course>
  <speed>0.0</speed>
  <fix>3d</fix>
</trkpt>
<trkpt lat="40.0713749" lon="-105.229789">
  <ele>1583.0</ele>
  <time>2026-09-02T20:50:40Z</time>
  <course>0.0</course>
  <speed>0.0</speed>
  <fix>3d</fix>
</trkpt>
<trkpt lat="40.0713749" lon="-105.229789">
  <ele>1583.0</ele>
  <time>2026-09-02T20:50:40Z</time>
  <course>0.0</course>
  <speed>0.0</speed>
  <fix>3d</fix>
</trkpt>
<trkpt lat="40.0713749" lon="-105.229789">
  <ele>1583.0</ele>
  <time>2026-09-02T20:50:40Z</time>
  <course>0.0</course>
  <speed>0.0</speed>
  <fix>3d</fix>
</trkpt>
<trkpt lat="40.0713749" lon="-105.229789">
  <ele>1583.0</ele>
  <time>2026-09-02T20:50:40Z</time>
  <course>0.0</course>
  <speed>0.0</speed>
  <fix>3d</fix>
</trkpt>
<trkpt lat="40.0713749" lon="-105.229789">
  <ele>1583.0</ele>
  <time>2026-09-02T20:50:40Z</time>
  <course>0.0</course>
  <speed>0.0</speed>
  <fix>3d</fix>
</trkpt>
<trkpt lat="40.0713749" lon="-105.229789">
  <ele>1583.0</ele>
  <time>2026-09-02T20:50:40Z</time>
  <course>0.0</course>
  <speed>0.0</speed>
  <fix>3d</fix>
</trkpt>
<trkpt lat="40.0713749" lon="-105.229789">
  <ele>1583.0</ele>
  <time>2026-09-02T20:50:40Z</time>
  <course>0.0</course>
  <speed>0.0</speed>
  <fix>3d</fix>
</trkpt>
<trkpt lat="40.0713749" lon="-105.229789">
  <ele>1583.0</ele>
  <time>2026-09-02T20:50:40Z</time>
  <course>0.0</course>
  <speed>0.0</speed>
  <fix>3d</fix>
</trkpt>
<trkpt lat="40.0713749" lon="-105.229789">
  <ele>1583.0</ele>
  <time>2026-09-02T20:50:40Z</time>
  <course>0.0</course>
  <speed>0.0</speed>
  <fix>3d</fix>
</trkpt>
<trkpt lat="40.0713749" lon="-105.229789">
  <ele>1583.0</ele>
  <time>2026-09-02T20:50:40Z</time>
  <course>0.0</course>
  <speed>0.0</speed>
  <fix>3d</fix>
</trkpt>
<trkpt lat="40.0713749" lon="-105.229789">
  <ele>1583.0</ele>
  <time>2026-09-02T20:50:40Z</time>
  <course>0.0</course>
  <speed>0.0</speed>
  <fix>3d</fix>
</trkpt>
<trkpt lat="40.0713749" lon="-105.229789">
  <ele>1583.0</ele>
  <time>2026-09-02T20:50:40Z</time>
  <course>0.0</course>
  <speed>0.0</speed>
  <fix>3d</fix>
</trkpt>
<trkpt lat="40.0713749" lon="-105.229789">
  <ele>1583.0</ele>
  <time>2026-09-02T20:50:40Z</time>
  <course>0.0</course>
  <speed>0.0</speed>
  <fix>3d</fix>
</trkpt>
<trkpt lat="40.0713749" lon="-105.229789">
  <ele>1583.0</ele>
  <time>2026-09-02T20:50:40Z</time>
  <course>0.0</course>
  <speed>0.0</speed>
  <fix>3d</fix>
</trkpt>
<trkpt lat="40.0713749" lon="-105.229789">
  <ele>1583.0</ele>
  <time>2026-09-02T20:50:40Z</time>
  <course>0.0</course>
  <speed>0.0</speed>
  <fix>3d</fix>
</trkpt>
<trkpt lat="40.0713749" lon="-105.229789">
  <ele>1583.0</ele>
  <time>2026-09-02T20:50:40Z</time>
  <course>0.0</course>
  <speed>0.0</speed>
  <fix>3d</fix>
</trkpt>
<trkpt lat="40.0713749" lon="-105.229789">
  <ele>1583.0</ele>
  <time>2026-09-02T20:50:40Z</time>
  <course>0.0</course>
  <speed>0.0</speed>
  <fix>3d</fix>
</trkpt>
<trkpt lat="40.0713749" lon="-105.229789">
  <ele>1583.0</ele>
  <time>2026-09-02T20:50:40Z</time>
  <course>0.0</course>
  <speed>0.0</speed>
  <fix>3d</fix>
</trkpt>
<trkpt lat="40.0713749" lon="-105.229789">
  <ele>1583.0</ele>
  <time>2026-09-02T20:50:40Z</time>
  <course>0.0</course>
  <speed>0.0</speed>
  <fix>3d</fix>
</trkpt>
<trkpt lat="40.0713749" lon="-105.229789">
  <ele>1583.0</ele>
  <time>2026-09-02T20:50:40Z</time>
  <course>0.0</course>
  <speed>0.0</speed>
  <fix>3d</fix>
</trkpt>
<trkpt lat="40.0713749" lon="-105.229789">
  <ele>1583.0</ele>
  <time>2026-09-02T20:50:40Z</time>
  <course>0.0</course>
  <speed>0.0</speed>
  <fix>3d</fix>
</trkpt>
<trkpt lat="40.0713749" lon="-105.229789">
  <ele>1583.0</ele>
  <time>2026-09-02T20:50:40Z</time>
  <course>0.0</course>
  <speed>0.0</speed>
  <fix>3d</fix>
</trkpt>
<trkpt lat="40.0713749" lon="-105.229789">
  <ele>1583.0</ele>
  <time>2026-09-02T20:50:40Z</time>
  <course>0.0</course>
  <speed>0.0</speed>
  <fix>3d</fix>
</trkpt>
<trkpt lat="40.0713749" lon="-105.229789">
  <ele>1583.0</ele>
  <time>2026-09-02T20:50:40Z</time>
  <course>0.0</course>
  <speed>0.0</speed>
  <fix>3d</fix>
</trkpt>
<trkpt lat="40.0713749" lon="-105.229789">
  <ele>1583.0</ele>
  <time>2026-09-02T20:50:40Z</time>
  <course>0.0</course>
  <speed>0.0</speed>
  <fix>3d</fix>
</trkpt>
<trkpt lat="40.0713749" lon="-105.229789">
  <ele>1583.0</ele>
  <time>2026-09-02T20:50:40Z</time>
  <course>0.0</course>
  <speed>0.0</speed>
  <fix>3d</fix>
</trkpt>
<trkpt lat="40.0713749" lon="-105.229789">
  <ele>1583.0</ele>
  <time>2026-09-02T20:50:40Z</time>
  <course>0.0</course>
  <speed>0.0</speed>
  <fix>3d</fix>
</trkpt>
<trkpt lat="40.0713749" lon="-105.229789">
  <ele>1583.0</ele>
  <time>2026-09-02T20:50:40Z</time>
  <course>0.0</course>
  <speed>0.0</speed>
  <fix>3d</fix>
</trkpt>
<trkpt lat="40.0713749" lon="-105.229789">
  <ele>1583.0</ele>
  <time>2026-09-02T20:50:40Z</time>
  <course>0.0</course>
  <speed>0.0</speed>
  <fix>3d</fix>
</trkpt>
<trkpt lat="40.0713749" lon="-105.229789">
  <ele>1583.0</ele>
  <time>2026-09-02T20:50:40Z</time>
  <course>0.0</course>
  <speed>0.0</speed>
  <fix>3d</fix>
</trkpt>
<trkpt lat="40.0713749" lon="-105.229789">
  <ele>1583.0</ele>
  <time>2026-09-02T20:50:40Z</time>
  <course>0.0</course>
  <speed>0.0</speed>
  <fix>3d</fix>
</trkpt>
<trkpt lat="40.0713749" lon="-105.229789">
  <ele>1583.0</ele>
  <time>2026-09-02T20:50:40Z</time>
  <course>0.0</course>
  <speed>0.0</speed>
  <fix>3d</fix>
</trkpt>
<trkpt lat="40.0713749" lon="-105.229789">
  <ele>1583.0</ele>
  <time>2026-09-02T20:50:40Z</time>
  <course>0.0</course>
  <speed>0.0</speed>
  <fix>3d</fix>
</trkpt>
<trkpt lat="40.0713749" lon="-105.229789">
  <ele>1583.0</ele>
  <time>2026-09-02T20:50:40Z</time>
  <course>0.0</course>
  <speed>0.0</speed>
  <fix>3d</fix>
</trkpt>
<trkpt lat="40.0713749" lon="-105.229789">
  <ele>1583.0</ele>
  <time>2026-09-02T20:50:40Z</time>
  <course>0.0</course>
  <speed>0.0</speed>
  <fix>3d</fix>
</trkpt>
<trkpt lat="40.0713749" lon="-105.229789">
  <ele>1583.0</ele>
  <time>2026-09-02T20:50:40Z</time>
  <course>0.0</course>
  <speed>0.0</speed>
  <fix>3d</fix>
</trkpt>
<trkpt lat="40.0713749" lon="-105.229789">
  <ele>1583.0</ele>
  <time>2026-09-02T20:50:40Z</time>
  <course>0.0</course>
  <speed>0.0</speed>
  <fix>3d</fix>
</trkpt>
<trkpt lat="40.0713749" lon="-105.229789">
  <ele>1583.0</ele>
  <time>2026-09-02T20:50:40Z</time>
  <course>0.0</course>
  <speed>0.0</speed>
  <fix>3d</fix>
</trkpt>
<trkpt lat="40.0713749" lon="-105.229789">
  <ele>1583.0</ele>
  <time>2026-09-02T20:50:40Z</time>
  <course>0.0</course>
  <speed>0.0</speed>
  <fix>3d</fix>
</trkpt>
<trkpt lat="40.0713749" lon="-105.229789">
  <ele>1583.0</ele>
  <time>2026-09-02T20:50:40Z</time>
  <course>0.0</course>
  <speed>0.0</speed>
  <fix>3d</fix>
</trkpt>
<trkpt lat="40.0713749" lon="-105.229789">
  <ele>1583.0</ele>
  <time>2026-09-02T20:50:40Z</time>
  <course>0.0</course>
  <speed>0.0</speed>
  <fix>3d</fix>
</trkpt>
<trkpt lat="40.0713749" lon="-105.229789">
  <ele>1583.0</ele>
  <time>2026-09-02T20:50:40Z</time>
  <course>0.0</course>
  <speed>0.0</speed>
  <fix>3d</fix>
</trkpt>
<trkpt lat="40.0713749" lon="-105.229789">
  <ele>1583.0</ele>
  <time>2026-09-02T20:50:40Z</time>
  <course>0.0</course>
  <speed>0.0</speed>
  <fix>3d</fix>
</trkpt>
<trkpt lat="40.0713749" lon="-105.229789">
  <ele>1583.0</ele>
  <time>2026-09-02T20:50:40Z</time>
  <course>0.0</course>
  <speed>0.0</speed>
  <fix>3d</fix>
</trkpt>
<trkpt lat="40.0713749" lon="-105.229789">
  <ele>1583.0</ele>
  <time>2026-09-02T20:50:40Z</time>
  <course>0.0</course>
  <speed>0.0</speed>
  <fix>3d</fix>
</trkpt>
<trkpt lat="40.0713749" lon="-105.229789">
  <ele>1583.0</ele>
  <time>2026-09-02T20:50:40Z</time>
  <course>0.0</course>
  <speed>0.0</speed>
  <fix>3d</fix>
</trkpt>
<trkpt lat="40.0713749" lon="-105.229789">
  <ele>1583.0</ele>
  <time>2026-09-02T20:50:40Z</time>
  <course>0.0</course>
  <speed>0.0</speed>
  <fix>3d</fix>
</trkpt>
<trkpt lat="40.0713749" lon="-105.229789">
  <ele>1583.0</ele>
  <time>2026-09-02T20:50:40Z</time>
  <course>0.0</course>
  <speed>0.0</speed>
  <fix>3d</fix>
</trkpt>
<trkpt lat="40.0713749" lon="-105.229789">
  <ele>1583.0</ele>
  <time>2026-09-02T20:50:40Z</time>
  <course>0.0</course>
  <speed>0.0</speed>
  <fix>3d</fix>
</trkpt>
<trkpt lat="40.0713749" lon="-105.229789">
  <ele>1583.0</ele>
  <time>2026-09-02T20:50:40Z</time>
  <course>0.0</course>
  <speed>0.0</speed>
  <fix>3d</fix>
</trkpt>
<trkpt lat="40.0713749" lon="-105.229789">
  <ele>1583.0</ele>
  <time>2026-09-02T20:50:40Z</time>
  <course>0.0</course>
  <speed>0.0</speed>
  <fix>3d</fix>
</trkpt>
<trkpt lat="40.0713749" lon="-105.229789">
  <ele>1583.0</ele>
  <time>2026-09-02T20:50:40Z</time>
  <course>0.0</course>
  <speed>0.0</speed>
  <fix>3d</fix>
</trkpt>
<trkpt lat="40.0713749" lon="-105.229789">
  <ele>1583.0</ele>
  <time>2026-09-02T20:50:40Z</time>
  <course>0.0</course>
  <speed>0.0</speed>
  <fix>3d</fix>
</trkpt>
<trkpt lat="40.0713749" lon="-105.229789">
  <ele>1583.0</ele>
  <time>2026-09-02T20:50:40Z</time>
  <course>0.0</course>
  <speed>0.0</speed>
  <fix>3d</fix>
</trkpt>
<trkpt lat="40.0713749" lon="-105.229789">
  <ele>1583.0</ele>
  <time>2026-09-02T20:50:40Z</time>
  <course>0.0</course>
  <speed>0.0</speed>
  <fix>3d</fix>
</trkpt>
<trkpt lat="40.0713749" lon="-105.229789">
  <ele>1583.0</ele>
  <time>2026-09-02T20:50:40Z</time>
  <course>0.0</course>
  <speed>0.0</speed>
  <fix>3d</fix>
</trkpt>
<trkpt lat="40.0713749" lon="-105.229789">
  <ele>1583.0</ele>
  <time>2026-09-02T20:50:40Z</time>
  <course>0.0</course>
  <speed>0.0</speed>
  <fix>3d</fix>
</trkpt>
<trkpt lat="40.0713749" lon="-105.229789">
  <ele>1583.0</ele>
  <time>2026-09-02T20:50:40Z</time>
  <course>0.0</course>
  <speed>0.0</speed>
  <fix>3d</fix>
</trkpt>
<trkpt lat="40.0713749" lon="-105.229789">
  <ele>1583.0</ele>
  <time>2026-09-02T20:50:40Z</time>
  <course>0.0</course>
  <speed>0.0</speed>
  <fix>3d</fix>
</trkpt>
<trkpt lat="40.0713749" lon="-105.229789">
  <ele>1583.0</ele>
  <time>2026-09-02T20:50:40Z</time>
  <course>0.0</course>
  <speed>0.0</speed>
  <fix>3d</fix>
</trkpt>
<trkpt lat="40.0713749" lon="-105.229789">
  <ele>1583.0</ele>
  <time>2026-09-02T20:50:40Z</time>
  <course>0.0</course>
  <speed>0.0</speed>
  <fix>3d</fix>
</trkpt>
<trkpt lat="40.0713749" lon="-105.229789">
  <ele>1583.0</ele>
  <time>2026-09-02T20:50:40Z</time>
  <course>0.0</course>
  <speed>0.0</speed>
  <fix>3d</fix>
</trkpt>
<trkpt lat="40.0713749" lon="-105.229789">
  <ele>1583.0</ele>
  <time>2026-09-02T20:50:40Z</time>
  <course>0.0</course>
  <speed>0.0</speed>
  <fix>3d</fix>
</trkpt>
<trkpt lat="40.0713749" lon="-105.229789">
  <ele>1583.0</ele>
  <time>2026-09-02T20:50:40Z</time>
  <course>0.0</course>
  <speed>0.0</speed>
  <fix>3d</fix>
</trkpt>
<trkpt lat="40.0713749" lon="-105.229789">
  <ele>1583.0</ele>
  <time>2026-09-02T20:50:40Z</time>
  <course>0.0</course>
  <speed>0.0</speed>
  <fix>3d</fix>
</trkpt>
<trkpt lat="40.0713749" lon="-105.229789">
  <ele>1583.0</ele>
  <time>2026-09-02T20:50:40Z</time>
  <course>0.0</course>
  <speed>0.0</speed>
  <fix>3d</fix>
</trkpt>
<trkpt lat="40.0713749" lon="-105.229789">
  <ele>1583.0</ele>
  <time>2026-09-02T20:50:40Z</time>
  <course>0.0</course>
  <speed>0.0</speed>
  <fix>3d</fix>
</trkpt>
<trkpt lat="40.0713749" lon="-105.229789">
  <ele>1583.0</ele>
  <time>2026-09-02T20:50:40Z</time>
  <course>0.0</course>
  <speed>0.0</speed>
  <fix>3d</fix>
</trkpt>
<trkpt lat="40.0713749" lon="-105.229789">
  <ele>1583.0</ele>
  <time>2026-09-02T20:50:40Z</time>
  <course>0.0</course>
  <speed>0.0</speed>
  <fix>3d</fix>
</trkpt>
<trkpt lat="40.0713749" lon="-105.229789">
  <ele>1583.0</ele>
  <time>2026-09-02T20:50:40Z</time>
  <course>0.0</course>
  <speed>0.0</speed>
  <fix>3d</fix>
</trkpt>
<trkpt lat="40.0713749" lon="-105.229789">
  <ele>1583.0</ele>
  <time>2026-09-02T20:50:40Z</time>
  <course>0.0</course>
  <speed>0.0</speed>
  <fix>3d</fix>
</trkpt>
<trkpt lat="40.0713749" lon="-105.229789">
  <ele>1583.0</ele>
  <time>2026-09-02T20:50:40Z</time>
  <course>0.0</course>
  <speed>0.0</speed>
  <fix>3d</fix>
</trkpt>
<trkpt lat="40.0713749" lon="-105.229789">
  <ele>1583.0</ele>
  <time>2026-09-02T20:50:40Z</time>
  <course>0.0</course>
  <speed>0.0</speed>
  <fix>3d</fix>
</trkpt>
<trkpt lat="40.0713749" lon="-105.229789">
  <ele>1583.0</ele>
  <time>2026-09-02T20:50:40Z</time>
  <course>0.0</course>
  <speed>0.0</speed>
  <fix>3d</fix>
</trkpt>
<trkpt lat="40.0713749" lon="-105.229789">
  <ele>1583.0</ele>
  <time>2026-09-02T20:50:40Z</time>
  <course>0.0</course>
  <speed>0.0</speed>
  <fix>3d</fix>
</trkpt>
<trkpt lat="40.0713749" lon="-105.229789">
  <ele>1583.0</ele>
  <time>2026-09-02T20:50:40Z</time>
  <course>0.0</course>
  <speed>0.0</speed>
  <fix>3d</fix>
</trkpt>
<trkpt lat="40.0713749" lon="-105.229789">
  <ele>1583.0</ele>
  <time>2026-09-02T20:50:40Z</time>
  <course>0.0</course>
  <speed>0.0</speed>
  <fix>3d</fix>
</trkpt>
<trkpt lat="40.0713749" lon="-105.229789">
  <ele>1583.0</ele>
  <time>2026-09-02T20:50:40Z</time>
  <course>0.0</course>
  <speed>0.0</speed>
  <fix>3d</fix>
</trkpt>
<trkpt lat="40.0713749" lon="-105.229789">
  <ele>1583.0</ele>
  <time>2026-09-02T20:50:40Z</time>
  <course>0.0</course>
  <speed>0.0</speed>
  <fix>3d</fix>
</trkpt>
<trkpt lat="40.0713749" lon="-105.229789">
  <ele>1583.0</ele>
  <time>2026-09-02T20:50:40Z</time>
  <course>0.0</course>
  <speed>0.0</speed>
  <fix>3d</fix>
</trkpt>
<trkpt lat="40.0713749" lon="-105.229789">
  <ele>1583.0</ele>
  <time>2026-09-02T20:50:40Z</time>
  <course>0.0</course>
  <speed>0.0</speed>
  <fix>3d</fix>
</trkpt>
<trkpt lat="40.0713749" lon="-105.229789">
  <ele>1583.0</ele>
  <time>2026-09-02T20:50:40Z</time>
  <course>0.0</course>
  <speed>0.0</speed>
  <fix>3d</fix>
</trkpt>
<trkpt lat="40.0713749" lon="-105.229789">
  <ele>1583.0</ele>
  <time>2026-09-02T20:50:40Z</time>
  <course>0.0</course>
  <speed>0.0</speed>
  <fix>3d</fix>
</trkpt>
<trkpt lat="40.0713749" lon="-105.229789">
  <ele>1583.0</ele>
  <time>2026-09-02T20:50:40Z</time>
  <course>0.0</course>
  <speed>0.0</speed>
  <fix>3d</fix>
</trkpt>
<trkpt lat="40.0713749" lon="-105.229789">
  <ele>1583.0</ele>
  <time>2026-09-02T20:50:40Z</time>
  <course>0.0</course>
  <speed>0.0</speed>
  <fix>3d</fix>
</trkpt>
<trkpt lat="40.0713749" lon="-105.229789">
  <ele>1583.0</ele>
  <time>2026-09-02T20:50:40Z</time>
  <course>0.0</course>
  <speed>0.0</speed>
  <fix>3d</fix>
</trkpt>
<trkpt lat="40.0713749" lon="-105.229789">
  <ele>1583.0</ele>
  <time>2026-09-02T20:50:40Z</time>
  <course>0.0</course>
  <speed>0.0</speed>
  <fix>3d</fix>
</trkpt>
<trkpt lat="40.0713749" lon="-105.229789">
  <ele>1583.0</ele>
  <time>2026-09-02T20:50:40Z</time>
  <course>0.0</course>
  <speed>0.0</speed>
  <fix>3d</fix>
</trkpt>
<trkpt lat="40.0713749" lon="-105.229789">
  <ele>1583.0</ele>
  <time>2026-09-02T20:50:40Z</time>
  <course>0.0</course>
  <speed>0.0</speed>
  <fix>3d</fix>
</trkpt>
<trkpt lat="40.0713749" lon="-105.229789">
  <ele>1583.0</ele>
  <time>2026-09-02T20:50:40Z</time>
  <course>0.0</course>
  <speed>0.0</speed>
  <fix>3d</fix>
</trkpt>
<trkpt lat="40.0713749" lon="-105.229789">
  <ele>1583.0</ele>
  <time>2026-09-02T20:50:40Z</time>
  <course>0.0</course>
  <speed>0.0</speed>
  <fix>3d</fix>
</trkpt>
<trkpt lat="39.655741" lon="-104.1383097">
  <ele>1566.58</ele>
  <time>2026-09-02T20:50:40Z</time>
  <course>0.0</course>
  <speed>0.0</speed>
  <fix>3d</fix>
</trkpt>
<trkpt lat="40.0713749" lon="-105.229789">
  <ele>1583.0</ele>
  <time>2026-09-02T20:50:40Z</time>
  <course>0.0</course>
  <speed>0.0</speed>
  <fix>3d</fix>
</trkpt>
<trkpt lat="40.0713749" lon="-105.229789">
  <ele>1583.0</ele>
  <time>2026-09-02T20:50:40Z</time>
  <course>0.0</course>
  <speed>0.0</speed>
  <fix>3d</fix>
</trkpt>
<trkpt lat="40.0713749" lon="-105.229789">
  <ele>1583.0</ele>
  <time>2026-09-02T20:50:40Z</time>
  <course>0.0</course>
  <speed>0.0</speed>
  <fix>3d</fix>
</trkpt>
<trkpt lat="40.0713749" lon="-105.229789">
  <ele>1583.0</ele>
  <time>2026-09-02T20:50:40Z</time>
  <course>0.0</course>
  <speed>0.0</speed>
  <fix>3d</fix>
</trkpt>
<trkpt lat="40.0713749" lon="-105.229789">
  <ele>1583.0</ele>
  <time>2026-09-02T20:50:40Z</time>
  <course>0.0</course>
  <speed>0.0</speed>
  <fix>3d</fix>
</trkpt>
<trkpt lat="40.0713749" lon="-105.229789">
  <ele>1583.0</ele>
  <time>2026-09-02T20:50:40Z</time>
  <course>0.0</course>
  <speed>0.0</speed>
  <fix>3d</fix>
</trkpt>
<trkpt lat="40.0713749" lon="-105.229789">
  <ele>1583.0</ele>
  <time>2026-09-02T20:50:40Z</time>
  <course>0.0</course>
  <speed>0.0</speed>
  <fix>3d</fix>
</trkpt>
<trkpt lat="40.0713749" lon="-105.229789">
  <ele>1583.0</ele>
  <time>2026-09-02T20:50:40Z</time>
  <course>0.0</course>
  <speed>0.0</speed>
  <fix>3d</fix>
</trkpt>
<trkpt lat="40.0713749" lon="-105.229789">
  <ele>1583.0</ele>
  <time>2026-09-02T20:50:40Z</time>
  <course>0.0</course>
  <speed>0.0</speed>
  <fix>3d</fix>
</trkpt>
<trkpt lat="40.0713749" lon="-105.229789">
  <ele>1583.0</ele>
  <time>2026-09-02T20:50:40Z</time>
  <course>0.0</course>
  <speed>0.0</speed>
  <fix>3d</fix>
</trkpt>
<trkpt lat="40.0713749" lon="-105.229789">
  <ele>1583.0</ele>
  <time>2026-09-02T20:50:40Z</time>
  <course>0.0</course>
  <speed>0.0</speed>
  <fix>3d</fix>
</trkpt>
<trkpt lat="40.0713749" lon="-105.229789">
  <ele>1583.0</ele>
  <time>2026-09-02T20:50:40Z</time>
  <course>0.0</course>
  <speed>0.0</speed>
  <fix>3d</fix>
</trkpt>
<trkpt lat="40.0713749" lon="-105.229789">
  <ele>1583.0</ele>
  <time>2026-09-02T20:50:40Z</time>
  <course>0.0</course>
  <speed>0.0</speed>
  <fix>3d</fix>
</trkpt>
<trkpt lat="40.0713749" lon="-105.229789">
  <ele>1583.0</ele>
  <time>2026-09-02T20:50:40Z</time>
  <course>0.0</course>
  <speed>0.0</speed>
  <fix>3d</fix>
</trkpt>
<trkpt lat="40.0713749" lon="-105.229789">
  <ele>1583.0</ele>
  <time>2026-09-02T20:50:40Z</time>
  <course>0.0</course>
  <speed>0.0</speed>
  <fix>3d</fix>
</trkpt>
<trkpt lat="40.0713749" lon="-105.229789">
  <ele>1583.0</ele>
  <time>2026-09-02T20:50:40Z</time>
  <course>0.0</course>
  <speed>0.0</speed>
  <fix>3d</fix>
</trkpt>
<trkpt lat="40.0713749" lon="-105.229789">
  <ele>1583.0</ele>
  <time>2026-09-02T20:50:40Z</time>
  <course>0.0</course>
  <speed>0.0</speed>
  <fix>3d</fix>
</trkpt>
<trkpt lat="40.0713749" lon="-105.229789">
  <ele>1583.0</ele>
  <time>2026-09-02T20:50:40Z</time>
  <course>0.0</course>
  <speed>0.0</speed>
  <fix>3d</fix>
</trkpt>
<trkpt lat="40.0713749" lon="-105.229789">
  <ele>1583.0</ele>
  <time>2026-09-02T20:50:40Z</time>
  <course>0.0</course>
  <speed>0.0</speed>
  <fix>3d</fix>
</trkpt>
<trkpt lat="40.0713749" lon="-105.229789">
  <ele>1583.0</ele>
  <time>2026-09-02T20:50:40Z</time>
  <course>0.0</course>
  <speed>0.0</speed>
  <fix>3d</fix>
</trkpt>
<trkpt lat="40.0713749" lon="-105.229789">
  <ele>1583.0</ele>
  <time>2026-09-02T20:50:40Z</time>
  <course>0.0</course>
  <speed>0.0</speed>
  <fix>3d</fix>
</trkpt>
<trkpt lat="40.0713749" lon="-105.229789">
  <ele>1583.0</ele>
  <time>2026-09-02T20:50:40Z</time>
  <course>0.0</course>
  <speed>0.0</speed>
  <fix>3d</fix>
</trkpt>
<trkpt lat="40.0713749" lon="-105.229789">
  <ele>1583.0</ele>
  <time>2026-09-02T20:50:40Z</time>
  <course>0.0</course>
  <speed>0.0</speed>
  <fix>3d</fix>
</trkpt>
<trkpt lat="40.0713749" lon="-105.229789">
  <ele>1583.0</ele>
  <time>2026-09-02T20:50:40Z</time>
  <course>0.0</course>
  <speed>0.0</speed>
  <fix>3d</fix>
</trkpt>
<trkpt lat="40.0713749" lon="-105.229789">
  <ele>1583.0</ele>
  <time>2026-09-02T20:50:40Z</time>
  <course>0.0</course>
  <speed>0.0</speed>
  <fix>3d</fix>
</trkpt>
<trkpt lat="40.0713749" lon="-105.229789">
  <ele>1583.0</ele>
  <time>2026-09-02T20:50:40Z</time>
  <course>0.0</course>
  <speed>0.0</speed>
  <fix>3d</fix>
</trkpt>
<trkpt lat="40.0713749" lon="-105.229789">
  <ele>1583.0</ele>
  <time>2026-09-02T20:50:40Z</time>
  <course>0.0</course>
  <speed>0.0</speed>
  <fix>3d</fix>
</trkpt>
<trkpt lat="40.0713749" lon="-105.229789">
  <ele>1583.0</ele>
  <time>2026-09-02T20:50:40Z</time>
  <course>0.0</course>
  <speed>0.0</speed>
  <fix>3d</fix>
</trkpt>
<trkpt lat="40.0713749" lon="-105.229789">
  <ele>1583.0</ele>
  <time>2026-09-02T20:50:40Z</time>
  <course>0.0</course>
  <speed>0.0</speed>
  <fix>3d</fix>
</trkpt>
<trkpt lat="40.0713749" lon="-105.229789">
  <ele>1583.0</ele>
  <time>2026-09-02T20:50:40Z</time>
  <course>0.0</course>
  <speed>0.0</speed>
  <fix>3d</fix>
</trkpt>
<trkpt lat="40.0713749" lon="-105.229789">
  <ele>1583.0</ele>
  <time>2026-09-02T20:50:40Z</time>
  <course>0.0</course>
  <speed>0.0</speed>
  <fix>3d</fix>
</trkpt>
<trkpt lat="40.0713749" lon="-105.229789">
  <ele>1583.0</ele>
  <time>2026-09-02T20:50:40Z</time>
  <course>0.0</course>
  <speed>0.0</speed>
  <fix>3d</fix>
</trkpt>
<trkpt lat="40.0713749" lon="-105.229789">
  <ele>1583.0</ele>
  <time>2026-09-02T20:50:40Z</time>
  <course>0.0</course>
  <speed>0.0</speed>
  <fix>3d</fix>
</trkpt>
<trkpt lat="40.0713749" lon="-105.229789">
  <ele>1583.0</ele>
  <time>2026-09-02T20:50:40Z</time>
  <course>0.0</course>
  <speed>0.0</speed>
  <fix>3d</fix>
</trkpt>
<trkpt lat="40.0713749" lon="-105.229789">
  <ele>1583.0</ele>
  <time>2026-09-02T20:50:40Z</time>
  <course>0.0</course>
  <speed>0.0</speed>
  <fix>3d</fix>
</trkpt>
<trkpt lat="40.0713749" lon="-105.229789">
  <ele>1583.0</ele>
  <time>2026-09-02T20:50:40Z</time>
  <course>0.0</course>
  <speed>0.0</speed>
  <fix>3d</fix>
</trkpt>
<trkpt lat="40.0713749" lon="-105.229789">
  <ele>1583.0</ele>
  <time>2026-09-02T20:50:40Z</time>
  <course>0.0</course>
  <speed>0.0</speed>
  <fix>3d</fix>
</trkpt>
<trkpt lat="40.0713749" lon="-105.229789">
  <ele>1583.0</ele>
  <time>2026-09-02T20:50:40Z</time>
  <course>0.0</course>
  <speed>0.0</speed>
  <fix>3d</fix>
</trkpt>
<trkpt lat="40.0713749" lon="-105.229789">
  <ele>1583.0</ele>
  <time>2026-09-02T20:50:40Z</time>
  <course>0.0</course>
  <speed>0.0</speed>
  <fix>3d</fix>
</trkpt>
<trkpt lat="40.0713749" lon="-105.229789">
  <ele>1583.0</ele>
  <time>2026-09-02T20:50:40Z</time>
  <course>0.0</course>
  <speed>0.0</speed>
  <fix>3d</fix>
</trkpt>
<trkpt lat="40.0713749" lon="-105.229789">
  <ele>1583.0</ele>
  <time>2026-09-02T20:50:40Z</time>
  <course>0.0</course>
  <speed>0.0</speed>
  <fix>3d</fix>
</trkpt>
<trkpt lat="40.0713749" lon="-105.229789">
  <ele>1583.0</ele>
  <time>2026-09-02T20:50:40Z</time>
  <course>0.0</course>
  <speed>0.0</speed>
  <fix>3d</fix>
</trkpt>
<trkpt lat="40.0713749" lon="-105.229789">
  <ele>1583.0</ele>
  <time>2026-09-02T20:50:40Z</time>
  <course>0.0</course>
  <speed>0.0</speed>
  <fix>3d</fix>
</trkpt>
<trkpt lat="40.0713749" lon="-105.229789">
  <ele>1583.0</ele>
  <time>2026-09-02T20:50:40Z</time>
  <course>0.0</course>
  <speed>0.0</speed>
  <fix>3d</fix>
</trkpt>
<trkpt lat="40.0713749" lon="-105.229789">
  <ele>1583.0</ele>
  <time>2026-09-02T20:50:40Z</time>
  <course>0.0</course>
  <speed>0.0</speed>
  <fix>3d</fix>
</trkpt>
<trkpt lat="40.0713749" lon="-105.229789">
  <ele>1583.0</ele>
  <time>2026-09-02T20:50:40Z</time>
  <course>0.0</course>
  <speed>0.0</speed>
  <fix>3d</fix>
</trkpt>
<trkpt lat="40.0713749" lon="-105.229789">
  <ele>1583.0</ele>
  <time>2026-09-02T20:50:40Z</time>
  <course>0.0</course>
  <speed>0.0</speed>
  <fix>3d</fix>
</trkpt>
<trkpt lat="40.0713749" lon="-105.229789">
  <ele>1583.0</ele>
  <time>2026-09-02T20:50:40Z</time>
  <course>0.0</course>
  <speed>0.0</speed>
  <fix>3d</fix>
</trkpt>
<trkpt lat="40.0713749" lon="-105.229789">
  <ele>1583.0</ele>
  <time>2026-09-02T20:50:40Z</time>
  <course>0.0</course>
  <speed>0.0</speed>
  <fix>3d</fix>
</trkpt>
<trkpt lat="40.0713749" lon="-105.229789">
  <ele>1583.0</ele>
  <time>2026-09-02T20:50:40Z</time>
  <course>0.0</course>
  <speed>0.0</speed>
  <fix>3d</fix>
</trkpt>
<trkpt lat="40.0713749" lon="-105.229789">
  <ele>1583.0</ele>
  <time>2026-09-02T20:50:40Z</time>
  <course>0.0</course>
  <speed>0.0</speed>
  <fix>3d</fix>
</trkpt>
<trkpt lat="40.0713749" lon="-105.229789">
  <ele>1583.0</ele>
  <time>2026-09-02T20:50:40Z</time>
  <course>0.0</course>
  <speed>0.0</speed>
  <fix>3d</fix>
</trkpt>
<trkpt lat="40.0713749" lon="-105.229789">
  <ele>1583.0</ele>
  <time>2026-09-02T20:50:40Z</time>
  <course>0.0</course>
  <speed>0.0</speed>
  <fix>3d</fix>
</trkpt>
<trkpt lat="40.0713749" lon="-105.229789">
  <ele>1583.0</ele>
  <time>2026-09-02T20:50:40Z</time>
  <course>0.0</course>
  <speed>0.0</speed>
  <fix>3d</fix>
</trkpt>
<trkpt lat="40.0713749" lon="-105.229789">
  <ele>1583.0</ele>
  <time>2026-09-02T20:50:40Z</time>
  <course>0.0</course>
  <speed>0.0</speed>
  <fix>3d</fix>
</trkpt>
<trkpt lat="40.0713749" lon="-105.229789">
  <ele>1583.0</ele>
  <time>2026-09-02T20:50:40Z</time>
  <course>0.0</course>
  <speed>0.0</speed>
  <fix>3d</fix>
</trkpt>
<trkpt lat="40.0713749" lon="-105.229789">
  <ele>1583.0</ele>
  <time>2026-09-02T20:50:40Z</time>
  <course>0.0</course>
  <speed>0.0</speed>
  <fix>3d</fix>
</trkpt>
<trkpt lat="40.0713749" lon="-105.229789">
  <ele>1583.0</ele>
  <time>2026-09-02T20:50:40Z</time>
  <course>0.0</course>
  <speed>0.0</speed>
  <fix>3d</fix>
</trkpt>
<trkpt lat="40.0713749" lon="-105.229789">
  <ele>1583.0</ele>
  <time>2026-09-02T20:50:40Z</time>
  <course>0.0</course>
  <speed>0.0</speed>
  <fix>3d</fix>
</trkpt>
<trkpt lat="40.0713749" lon="-105.229789">
  <ele>1583.0</ele>
  <time>2026-09-02T20:50:40Z</time>
  <course>0.0</course>
  <speed>0.0</speed>
  <fix>3d</fix>
</trkpt>
<trkpt lat="40.0713749" lon="-105.229789">
  <ele>1583.0</ele>
  <time>2026-09-02T20:50:40Z</time>
  <course>0.0</course>
  <speed>0.0</speed>
  <fix>3d</fix>
</trkpt>
<trkpt lat="40.0713749" lon="-105.229789">
  <ele>1583.0</ele>
  <time>2026-09-02T20:50:40Z</time>
  <course>0.0</course>
  <speed>0.0</speed>
  <fix>3d</fix>
</trkpt>
<trkpt lat="40.0713749" lon="-105.229789">
  <ele>1583.0</ele>
  <time>2026-09-02T20:50:40Z</time>
  <course>0.0</course>
  <speed>0.0</speed>
  <fix>3d</fix>
</trkpt>
<trkpt lat="40.0713749" lon="-105.229789">
  <ele>1583.0</ele>
  <time>2026-09-02T20:50:40Z</time>
  <course>0.0</course>
  <speed>0.0</speed>
  <fix>3d</fix>
</trkpt>
<trkpt lat="40.0713749" lon="-105.229789">
  <ele>1583.0</ele>
  <time>2026-09-02T20:50:40Z</time>
  <course>0.0</course>
  <speed>0.0</speed>
  <fix>3d</fix>
</trkpt>
<trkpt lat="40.0713749" lon="-105.229789">
  <ele>1583.0</ele>
  <time>2026-09-02T20:50:40Z</time>
  <course>0.0</course>
  <speed>0.0</speed>
  <fix>3d</fix>
</trkpt>
<trkpt lat="40.0713749" lon="-105.229789">
  <ele>1583.0</ele>
  <time>2026-09-02T20:50:40Z</time>
  <course>0.0</course>
  <speed>0.0</speed>
  <fix>3d</fix>
</trkpt>
<trkpt lat="40.0713749" lon="-105.229789">
  <ele>1583.0</ele>
  <time>2026-09-02T20:50:40Z</time>
  <course>0.0</course>
  <speed>0.0</speed>
  <fix>3d</fix>
</trkpt>
<trkpt lat="40.0713749" lon="-105.229789">
  <ele>1583.0</ele>
  <time>2026-09-02T20:50:40Z</time>
  <course>0.0</course>
  <speed>0.0</speed>
  <fix>3d</fix>
</trkpt>
<trkpt lat="40.0713749" lon="-105.229789">
  <ele>1583.0</ele>
  <time>2026-09-02T20:50:40Z</time>
  <course>0.0</course>
  <speed>0.0</speed>
  <fix>3d</fix>
</trkpt>
<trkpt lat="40.0713749" lon="-105.229789">
  <ele>1583.0</ele>
  <time>2026-09-02T20:50:40Z</time>
  <course>0.0</course>
  <speed>0.0</speed>
  <fix>3d</fix>
</trkpt>
<trkpt lat="40.0713749" lon="-105.229789">
  <ele>1583.0</ele>
  <time>2026-09-02T20:50:40Z</time>
  <course>0.0</course>
  <speed>0.0</speed>
  <fix>3d</fix>
</trkpt>
<trkpt lat="40.0713749" lon="-105.229789">
  <ele>1583.0</ele>
  <time>2026-09-02T20:50:40Z</time>
  <course>0.0</course>
  <speed>0.0</speed>
  <fix>3d</fix>
</trkpt>
<trkpt lat="40.0713749" lon="-105.229789">
  <ele>1583.0</ele>
  <time>2026-09-02T20:50:40Z</time>
  <course>0.0</course>
  <speed>0.0</speed>
  <fix>3d</fix>
</trkpt>
<trkpt lat="40.0713749" lon="-105.229789">
  <ele>1583.0</ele>
  <time>2026-09-02T20:50:40Z</time>
  <course>0.0</course>
  <speed>0.0</speed>
  <fix>3d</fix>
</trkpt>
<trkpt lat="40.0713749" lon="-105.229789">
  <ele>1583.0</ele>
  <time>2026-09-02T20:50:40Z</time>
  <course>0.0</course>
  <speed>0.0</speed>
  <fix>3d</fix>
</trkpt>
<trkpt lat="40.0713749" lon="-105.229789">
  <ele>1583.0</ele>
  <time>2026-09-02T20:50:40Z</time>
  <course>0.0</course>
  <speed>0.0</speed>
  <fix>3d</fix>
</trkpt>
<trkpt lat="40.0713749" lon="-105.229789">
  <ele>1583.0</ele>
  <time>2026-09-02T20:50:40Z</time>
  <course>0.0</course>
  <speed>0.0</speed>
  <fix>3d</fix>
</trkpt>
<trkpt lat="40.0713749" lon="-105.229789">
  <ele>1583.0</ele>
  <time>2026-09-02T20:50:40Z</time>
  <course>0.0</course>
  <speed>0.0</speed>
  <fix>3d</fix>
</trkpt>
<trkpt lat="40.0713749" lon="-105.229789">
  <ele>1583.0</ele>
  <time>2026-09-02T20:50:40Z</time>
  <course>0.0</course>
  <speed>0.0</speed>
  <fix>3d</fix>
</trkpt>
<trkpt lat="40.0713749" lon="-105.229789">
  <ele>1583.0</ele>
  <time>2026-09-02T20:50:40Z</time>
  <course>0.0</course>
  <speed>0.0</speed>
  <fix>3d</fix>
</trkpt>
<trkpt lat="40.0713749" lon="-105.229789">
  <ele>1583.0</ele>
  <time>2026-09-02T20:50:40Z</time>
  <course>0.0</course>
  <speed>0.0</speed>
  <fix>3d</fix>
</trkpt>
<trkpt lat="40.0713749" lon="-105.229789">
  <ele>1583.0</ele>
  <time>2026-09-02T20:50:40Z</time>
  <course>0.0</course>
  <speed>0.0</speed>
  <fix>3d</fix>
</trkpt>
<trkpt lat="40.0713749" lon="-105.229789">
  <ele>1583.0</ele>
  <time>2026-09-02T20:50:40Z</time>
  <course>0.0</course>
  <speed>0.0</speed>
  <fix>3d</fix>
</trkpt>
<trkpt lat="40.0713749" lon="-105.229789">
  <ele>1583.0</ele>
  <time>2026-09-02T20:50:40Z</time>
  <course>0.0</course>
  <speed>0.0</speed>
  <fix>3d</fix>
</trkpt>
<trkpt lat="40.0713749" lon="-105.229789">
  <ele>1583.0</ele>
  <time>2026-09-02T20:50:40Z</time>
  <course>0.0</course>
  <speed>0.0</speed>
  <fix>3d</fix>
</trkpt>
<trkpt lat="40.0713749" lon="-105.229789">
  <ele>1583.0</ele>
  <time>2026-09-02T20:50:40Z</time>
  <course>0.0</course>
  <speed>0.0</speed>
  <fix>3d</fix>
</trkpt>
<trkpt lat="40.0713749" lon="-105.229789">
  <ele>1583.0</ele>
  <time>2026-09-02T20:50:40Z</time>
  <course>0.0</course>
  <speed>0.0</speed>
  <fix>3d</fix>
</trkpt>
<trkpt lat="40.0713749" lon="-105.229789">
  <ele>1583.0</ele>
  <time>2026-09-02T20:50:40Z</time>
  <course>0.0</course>
  <speed>0.0</speed>
  <fix>3d</fix>
</trkpt>
<trkpt lat="40.0713749" lon="-105.229789">
  <ele>1583.0</ele>
  <time>2026-09-02T20:50:40Z</time>
  <course>0.0</course>
  <speed>0.0</speed>
  <fix>3d</fix>
</trkpt>
<trkpt lat="40.0713749" lon="-105.229789">
  <ele>1583.0</ele>
  <time>2026-09-02T20:50:40Z</time>
  <course>0.0</course>
  <speed>0.0</speed>
  <fix>3d</fix>
</trkpt>
<trkpt lat="40.0713749" lon="-105.229789">
  <ele>1583.0</ele>
  <time>2026-09-02T20:50:40Z</time>
  <course>0.0</course>
  <speed>0.0</speed>
  <fix>3d</fix>
</trkpt>
<trkpt lat="40.0713749" lon="-105.229789">
  <ele>1583.0</ele>
  <time>2026-09-02T20:50:40Z</time>
  <course>0.0</course>
  <speed>0.0</speed>
  <fix>3d</fix>
</trkpt>
<trkpt lat="40.0713749" lon="-105.229789">
  <ele>1583.0</ele>
  <time>2026-09-02T20:50:40Z</time>
  <course>0.0</course>
  <speed>0.0</speed>
  <fix>3d</fix>
</trkpt>
<trkpt lat="40.0713749" lon="-105.229789">
  <ele>1583.0</ele>
  <time>2026-09-02T20:50:40Z</time>
  <course>0.0</course>
  <speed>0.0</speed>
  <fix>3d</fix>
</trkpt>
<trkpt lat="40.0713749" lon="-105.229789">
  <ele>1583.0</ele>
  <time>2026-09-02T20:50:40Z</time>
  <course>0.0</course>
  <speed>0.0</speed>
  <fix>3d</fix>
</trkpt>
<trkpt lat="40.0713749" lon="-105.229789">
  <ele>1583.0</ele>
  <time>2026-09-02T20:50:40Z</time>
  <course>0.0</course>
  <speed>0.0</speed>
  <fix>3d</fix>
</trkpt>
<trkpt lat="40.0713749" lon="-105.229789">
  <ele>1583.0</ele>
  <time>2026-09-02T20:50:40Z</time>
  <course>0.0</course>
  <speed>0.0</speed>
  <fix>3d</fix>
</trkpt>
<trkpt lat="40.0713749" lon="-105.229789">
  <ele>1583.0</ele>
  <time>2026-09-02T20:50:40Z</time>
  <course>0.0</course>
  <speed>0.0</speed>
  <fix>3d</fix>
</trkpt>
<trkpt lat="40.0713749" lon="-105.229789">
  <ele>1583.0</ele>
  <time>2026-09-02T20:50:40Z</time>
  <course>0.0</course>
  <speed>0.0</speed>
  <fix>3d</fix>
</trkpt>
<trkpt lat="40.0713749" lon="-105.229789">
  <ele>1583.0</ele>
  <time>2026-09-02T20:50:40Z</time>
  <course>0.0</course>
  <speed>0.0</speed>
  <fix>3d</fix>
</trkpt>
<trkpt lat="40.0713749" lon="-105.229789">
  <ele>1583.0</ele>
  <time>2026-09-02T20:50:40Z</time>
  <course>0.0</course>
  <speed>0.0</speed>
  <fix>3d</fix>
</trkpt>
<trkpt lat="40.0713749" lon="-105.229789">
  <ele>1583.0</ele>
  <time>2026-09-02T20:50:40Z</time>
  <course>0.0</course>
  <speed>0.0</speed>
  <fix>3d</fix>
</trkpt>
<trkpt lat="40.0713749" lon="-105.229789">
  <ele>1583.0</ele>
  <time>2026-09-02T20:50:41Z</time>
  <course>0.0</course>
  <speed>0.0</speed>
  <fix>3d</fix>
</trkpt>
<trkpt lat="40.0713749" lon="-105.229789">
  <ele>1583.0</ele>
  <time>2026-09-02T20:50:41Z</time>
  <course>0.0</course>
  <speed>0.0</speed>
  <fix>3d</fix>
</trkpt>
<trkpt lat="40.0713749" lon="-105.229789">
  <ele>1583.0</ele>
  <time>2026-09-02T20:50:41Z</time>
  <course>0.0</course>
  <speed>0.0</speed>
  <fix>3d</fix>
</trkpt>
<trkpt lat="40.0713749" lon="-105.229789">
  <ele>1583.0</ele>
  <time>2026-09-02T20:50:41Z</time>
  <course>0.0</course>
  <speed>0.0</speed>
  <fix>3d</fix>
</trkpt>
<trkpt lat="40.0713749" lon="-105.229789">
  <ele>1583.0</ele>
  <time>2026-09-02T20:50:41Z</time>
  <course>0.0</course>
  <speed>0.0</speed>
  <fix>3d</fix>
</trkpt>
<trkpt lat="40.0713749" lon="-105.229789">
  <ele>1583.0</ele>
  <time>2026-09-02T20:50:41Z</time>
  <course>0.0</course>
  <speed>0.0</speed>
  <fix>3d</fix>
</trkpt>
<trkpt lat="40.0713749" lon="-105.229789">
  <ele>1583.0</ele>
  <time>2026-09-02T20:50:41Z</time>
  <course>0.0</course>
  <speed>0.0</speed>
  <fix>3d</fix>
</trkpt>
<trkpt lat="40.0713749" lon="-105.229789">
  <ele>1583.0</ele>
  <time>2026-09-02T20:50:41Z</time>
  <course>0.0</course>
  <speed>0.0</speed>
  <fix>3d</fix>
</trkpt>
<trkpt lat="40.0713749" lon="-105.229789">
  <ele>1583.0</ele>
  <time>2026-09-02T20:50:41Z</time>
  <course>0.0</course>
  <speed>0.0</speed>
  <fix>3d</fix>
</trkpt>
<trkpt lat="40.0713749" lon="-105.229789">
  <ele>1583.0</ele>
  <time>2026-09-02T20:50:41Z</time>
  <course>0.0</course>
  <speed>0.0</speed>
  <fix>3d</fix>
</trkpt>
<trkpt lat="40.0713749" lon="-105.229789">
  <ele>1583.0</ele>
  <time>2026-09-02T20:50:41Z</time>
  <course>0.0</course>
  <speed>0.0</speed>
  <fix>3d</fix>
</trkpt>
<trkpt lat="40.0713749" lon="-105.229789">
  <ele>1583.0</ele>
  <time>2026-09-02T20:50:41Z</time>
  <course>0.0</course>
  <speed>0.0</speed>
  <fix>3d</fix>
</trkpt>
<trkpt lat="40.0713749" lon="-105.229789">
  <ele>1583.0</ele>
  <time>2026-09-02T20:50:41Z</time>
  <course>0.0</course>
  <speed>0.0</speed>
  <fix>3d</fix>
</trkpt>
<trkpt lat="40.0713749" lon="-105.229789">
  <ele>1583.0</ele>
  <time>2026-09-02T20:50:41Z</time>
  <course>0.0</course>
  <speed>0.0</speed>
  <fix>3d</fix>
</trkpt>
<trkpt lat="40.0713749" lon="-105.229789">
  <ele>1583.0</ele>
  <time>2026-09-02T20:50:41Z</time>
  <course>0.0</course>
  <speed>0.0</speed>
  <fix>3d</fix>
</trkpt>
<trkpt lat="40.0713749" lon="-105.229789">
  <ele>1583.0</ele>
  <time>2026-09-02T20:50:41Z</time>
  <course>0.0</course>
  <speed>0.0</speed>
  <fix>3d</fix>
</trkpt>
<trkpt lat="40.0713749" lon="-105.229789">
  <ele>1583.0</ele>
  <time>2026-09-02T20:50:41Z</time>
  <course>0.0</course>
  <speed>0.0</speed>
  <fix>3d</fix>
</trkpt>
<trkpt lat="40.0713749" lon="-105.229789">
  <ele>1583.0</ele>
  <time>2026-09-02T20:50:41Z</time>
  <course>0.0</course>
  <speed>0.0</speed>
  <fix>3d</fix>
</trkpt>
<trkpt lat="40.0713749" lon="-105.229789">
  <ele>1583.0</ele>
  <time>2026-09-02T20:50:41Z</time>
  <course>0.0</course>
  <speed>0.0</speed>
  <fix>3d</fix>
</trkpt>
<trkpt lat="40.0713749" lon="-105.229789">
  <ele>1583.0</ele>
  <time>2026-09-02T20:50:41Z</time>
  <course>0.0</course>
  <speed>0.0</speed>
  <fix>3d</fix>
</trkpt>
<trkpt lat="40.0713749" lon="-105.229789">
  <ele>1583.0</ele>
  <time>2026-09-02T20:50:41Z</time>
  <course>0.0</course>
  <speed>0.0</speed>
  <fix>3d</fix>
</trkpt>
<trkpt lat="40.0713749" lon="-105.229789">
  <ele>1583.0</ele>
  <time>2026-09-02T20:50:41Z</time>
  <course>0.0</course>
  <speed>0.0</speed>
  <fix>3d</fix>
</trkpt>
<trkpt lat="40.0713749" lon="-105.229789">
  <ele>1583.0</ele>
  <time>2026-09-02T20:50:41Z</time>
  <course>0.0</course>
  <speed>0.0</speed>
  <fix>3d</fix>
</trkpt>
<trkpt lat="40.0713749" lon="-105.229789">
  <ele>1583.0</ele>
  <time>2026-09-02T20:50:41Z</time>
  <course>0.0</course>
  <speed>0.0</speed>
  <fix>3d</fix>
</trkpt>
<trkpt lat="40.0713749" lon="-105.229789">
  <ele>1583.0</ele>
  <time>2026-09-02T20:50:41Z</time>
  <course>0.0</course>
  <speed>0.0</speed>
  <fix>3d</fix>
</trkpt>
<trkpt lat="40.0713749" lon="-105.229789">
  <ele>1583.0</ele>
  <time>2026-09-02T20:50:41Z</time>
  <course>0.0</course>
  <speed>0.0</speed>
  <fix>3d</fix>
</trkpt>
<trkpt lat="40.0713749" lon="-105.229789">
  <ele>1583.0</ele>
  <time>2026-09-02T20:50:41Z</time>
  <course>0.0</course>
  <speed>0.0</speed>
  <fix>3d</fix>
</trkpt>
<trkpt lat="40.0713749" lon="-105.229789">
  <ele>1583.0</ele>
  <time>2026-09-02T20:50:41Z</time>
  <course>0.0</course>
  <speed>0.0</speed>
  <fix>3d</fix>
</trkpt>
<trkpt lat="39.655741" lon="-104.1383097">
  <ele>1566.58</ele>
  <time>2026-09-02T20:50:41Z</time>
  <course>0.0</course>
  <speed>0.0</speed>
  <fix>3d</fix>
</trkpt>
<trkpt lat="40.0713749" lon="-105.229789">
  <ele>1583.0</ele>
  <time>2026-09-02T20:50:41Z</time>
  <course>0.0</course>
  <speed>0.0</speed>
  <fix>3d</fix>
</trkpt>
<trkpt lat="40.0713749" lon="-105.229789">
  <ele>1583.0</ele>
  <time>2026-09-02T20:50:41Z</time>
  <course>0.0</course>
  <speed>0.0</speed>
  <fix>3d</fix>
</trkpt>
<trkpt lat="40.0713749" lon="-105.229789">
  <ele>1583.0</ele>
  <time>2026-09-02T20:50:41Z</time>
  <course>0.0</course>
  <speed>0.0</speed>
  <fix>3d</fix>
</trkpt>
<trkpt lat="40.0713749" lon="-105.229789">
  <ele>1583.0</ele>
  <time>2026-09-02T20:50:41Z</time>
  <course>0.0</course>
  <speed>0.0</speed>
  <fix>3d</fix>
</trkpt>
<trkpt lat="40.0713749" lon="-105.229789">
  <ele>1583.0</ele>
  <time>2026-09-02T20:50:41Z</time>
  <course>0.0</course>
  <speed>0.0</speed>
  <fix>3d</fix>
</trkpt>
<trkpt lat="40.0713749" lon="-105.229789">
  <ele>1583.0</ele>
  <time>2026-09-02T20:50:41Z</time>
  <course>0.0</course>
  <speed>0.0</speed>
  <fix>3d</fix>
</trkpt>
<trkpt lat="40.0713749" lon="-105.229789">
  <ele>1583.0</ele>
  <time>2026-09-02T20:50:41Z</time>
  <course>0.0</course>
  <speed>0.0</speed>
  <fix>3d</fix>
</trkpt>
<trkpt lat="40.0713749" lon="-105.229789">
  <ele>1583.0</ele>
  <time>2026-09-02T20:50:41Z</time>
  <course>0.0</course>
  <speed>0.0</speed>
  <fix>3d</fix>
</trkpt>
<trkpt lat="40.0713749" lon="-105.229789">
  <ele>1583.0</ele>
  <time>2026-09-02T20:50:41Z</time>
  <course>0.0</course>
  <speed>0.0</speed>
  <fix>3d</fix>
</trkpt>
<trkpt lat="40.0713749" lon="-105.229789">
  <ele>1583.0</ele>
  <time>2026-09-02T20:50:41Z</time>
  <course>0.0</course>
  <speed>0.0</speed>
  <fix>3d</fix>
</trkpt>
<trkpt lat="40.0713749" lon="-105.229789">
  <ele>1583.0</ele>
  <time>2026-09-02T20:50:41Z</time>
  <course>0.0</course>
  <speed>0.0</speed>
  <fix>3d</fix>
</trkpt>
<trkpt lat="40.0713749" lon="-105.229789">
  <ele>1583.0</ele>
  <time>2026-09-02T20:50:41Z</time>
  <course>0.0</course>
  <speed>0.0</speed>
  <fix>3d</fix>
</trkpt>
<trkpt lat="40.0713749" lon="-105.229789">
  <ele>1583.0</ele>
  <time>2026-09-02T20:50:41Z</time>
  <course>0.0</course>
  <speed>0.0</speed>
  <fix>3d</fix>
</trkpt>
<trkpt lat="40.0713749" lon="-105.229789">
  <ele>1583.0</ele>
  <time>2026-09-02T20:50:41Z</time>
  <course>0.0</course>
  <speed>0.0</speed>
  <fix>3d</fix>
</trkpt>
<trkpt lat="40.0713749" lon="-105.229789">
  <ele>1583.0</ele>
  <time>2026-09-02T20:50:41Z</time>
  <course>0.0</course>
  <speed>0.0</speed>
  <fix>3d</fix>
</trkpt>
<trkpt lat="40.0713749" lon="-105.229789">
  <ele>1583.0</ele>
  <time>2026-09-02T20:50:41Z</time>
  <course>0.0</course>
  <speed>0.0</speed>
  <fix>3d</fix>
</trkpt>
<trkpt lat="40.0713749" lon="-105.229789">
  <ele>1583.0</ele>
  <time>2026-09-02T20:50:41Z</time>
  <course>0.0</course>
  <speed>0.0</speed>
  <fix>3d</fix>
</trkpt>
<trkpt lat="40.0713749" lon="-105.229789">
  <ele>1583.0</ele>
  <time>2026-09-02T20:50:41Z</time>
  <course>0.0</course>
  <speed>0.0</speed>
  <fix>3d</fix>
</trkpt>
<trkpt lat="40.0713749" lon="-105.229789">
  <ele>1583.0</ele>
  <time>2026-09-02T20:50:41Z</time>
  <course>0.0</course>
  <speed>0.0</speed>
  <fix>3d</fix>
</trkpt>
<trkpt lat="40.0713749" lon="-105.229789">
  <ele>1583.0</ele>
  <time>2026-09-02T20:50:41Z</time>
  <course>0.0</course>
  <speed>0.0</speed>
  <fix>3d</fix>
</trkpt>
<trkpt lat="40.0713749" lon="-105.229789">
  <ele>1583.0</ele>
  <time>2026-09-02T20:50:41Z</time>
  <course>0.0</course>
  <speed>0.0</speed>
  <fix>3d</fix>
</trkpt>
<trkpt lat="40.0713749" lon="-105.229789">
  <ele>1583.0</ele>
  <time>2026-09-02T20:50:41Z</time>
  <course>0.0</course>
  <speed>0.0</speed>
  <fix>3d</fix>
</trkpt>
<trkpt lat="40.0713749" lon="-105.229789">
  <ele>1583.0</ele>
  <time>2026-09-02T20:50:41Z</time>
  <course>0.0</course>
  <speed>0.0</speed>
  <fix>3d</fix>
</trkpt>
<trkpt lat="40.0713749" lon="-105.229789">
  <ele>1583.0</ele>
  <time>2026-09-02T20:50:41Z</time>
  <course>0.0</course>
  <speed>0.0</speed>
  <fix>3d</fix>
</trkpt>
<trkpt lat="40.0713749" lon="-105.229789">
  <ele>1583.0</ele>
  <time>2026-09-02T20:50:41Z</time>
  <course>0.0</course>
  <speed>0.0</speed>
  <fix>3d</fix>
</trkpt>
<trkpt lat="40.0713749" lon="-105.229789">
  <ele>1583.0</ele>
  <time>2026-09-02T20:50:41Z</time>
  <course>0.0</course>
  <speed>0.0</speed>
  <fix>3d</fix>
</trkpt>
<trkpt lat="40.0713749" lon="-105.229789">
  <ele>1583.0</ele>
  <time>2026-09-02T20:50:41Z</time>
  <course>0.0</course>
  <speed>0.0</speed>
  <fix>3d</fix>
</trkpt>
<trkpt lat="40.0713749" lon="-105.229789">
  <ele>1583.0</ele>
  <time>2026-09-02T20:50:41Z</time>
  <course>0.0</course>
  <speed>0.0</speed>
  <fix>3d</fix>
</trkpt>
<trkpt lat="40.0713749" lon="-105.229789">
  <ele>1583.0</ele>
  <time>2026-09-02T20:50:41Z</time>
  <course>0.0</course>
  <speed>0.0</speed>
  <fix>3d</fix>
</trkpt>
<trkpt lat="40.0713749" lon="-105.229789">
  <ele>1583.0</ele>
  <time>2026-09-02T20:50:41Z</time>
  <course>0.0</course>
  <speed>0.0</speed>
  <fix>3d</fix>
</trkpt>
<trkpt lat="40.0713749" lon="-105.229789">
  <ele>1583.0</ele>
  <time>2026-09-02T20:50:41Z</time>
  <course>0.0</course>
  <speed>0.0</speed>
  <fix>3d</fix>
</trkpt>
<trkpt lat="40.0713749" lon="-105.229789">
  <ele>1583.0</ele>
  <time>2026-09-02T20:50:41Z</time>
  <course>0.0</course>
  <speed>0.0</speed>
  <fix>3d</fix>
</trkpt>
<trkpt lat="40.0713749" lon="-105.229789">
  <ele>1583.0</ele>
  <time>2026-09-02T20:50:41Z</time>
  <course>0.0</course>
  <speed>0.0</speed>
  <fix>3d</fix>
</trkpt>
<trkpt lat="40.0713749" lon="-105.229789">
  <ele>1583.0</ele>
  <time>2026-09-02T20:50:41Z</time>
  <course>0.0</course>
  <speed>0.0</speed>
  <fix>3d</fix>
</trkpt>
<trkpt lat="40.0713749" lon="-105.229789">
  <ele>1583.0</ele>
  <time>2026-09-02T20:50:41Z</time>
  <course>0.0</course>
  <speed>0.0</speed>
  <fix>3d</fix>
</trkpt>
<trkpt lat="40.0713749" lon="-105.229789">
  <ele>1583.0</ele>
  <time>2026-09-02T20:50:41Z</time>
  <course>0.0</course>
  <speed>0.0</speed>
  <fix>3d</fix>
</trkpt>
<trkpt lat="40.0713749" lon="-105.229789">
  <ele>1583.0</ele>
  <time>2026-09-02T20:50:41Z</time>
  <course>0.0</course>
  <speed>0.0</speed>
  <fix>3d</fix>
</trkpt>
<trkpt lat="40.0713749" lon="-105.229789">
  <ele>1583.0</ele>
  <time>2026-09-02T20:50:41Z</time>
  <course>0.0</course>
  <speed>0.0</speed>
  <fix>3d</fix>
</trkpt>
<trkpt lat="40.0713749" lon="-105.229789">
  <ele>1583.0</ele>
  <time>2026-09-02T20:50:41Z</time>
  <course>0.0</course>
  <speed>0.0</speed>
  <fix>3d</fix>
</trkpt>
<trkpt lat="40.0713749" lon="-105.229789">
  <ele>1583.0</ele>
  <time>2026-09-02T20:50:41Z</time>
  <course>0.0</course>
  <speed>0.0</speed>
  <fix>3d</fix>
</trkpt>
<trkpt lat="40.0713749" lon="-105.229789">
  <ele>1583.0</ele>
  <time>2026-09-02T20:50:41Z</time>
  <course>0.0</course>
  <speed>0.0</speed>
  <fix>3d</fix>
</trkpt>
<trkpt lat="40.0713749" lon="-105.229789">
  <ele>1583.0</ele>
  <time>2026-09-02T20:50:41Z</time>
  <course>0.0</course>
  <speed>0.0</speed>
  <fix>3d</fix>
</trkpt>
<trkpt lat="40.0713749" lon="-105.229789">
  <ele>1583.0</ele>
  <time>2026-09-02T20:50:41Z</time>
  <course>0.0</course>
  <speed>0.0</speed>
  <fix>3d</fix>
</trkpt>
<trkpt lat="40.0713749" lon="-105.229789">
  <ele>1583.0</ele>
  <time>2026-09-02T20:50:41Z</time>
  <course>0.0</course>
  <speed>0.0</speed>
  <fix>3d</fix>
</trkpt>
<trkpt lat="40.0713749" lon="-105.229789">
  <ele>1583.0</ele>
  <time>2026-09-02T20:50:41Z</time>
  <course>0.0</course>
  <speed>0.0</speed>
  <fix>3d</fix>
</trkpt>
<trkpt lat="40.0713749" lon="-105.229789">
  <ele>1583.0</ele>
  <time>2026-09-02T20:50:41Z</time>
  <course>0.0</course>
  <speed>0.0</speed>
  <fix>3d</fix>
</trkpt>
<trkpt lat="40.0713749" lon="-105.229789">
  <ele>1583.0</ele>
  <time>2026-09-02T20:50:41Z</time>
  <course>0.0</course>
  <speed>0.0</speed>
  <fix>3d</fix>
</trkpt>
<trkpt lat="40.0713749" lon="-105.229789">
  <ele>1583.0</ele>
  <time>2026-09-02T20:50:41Z</time>
  <course>0.0</course>
  <speed>0.0</speed>
  <fix>3d</fix>
</trkpt>
<trkpt lat="40.0713749" lon="-105.229789">
  <ele>1583.0</ele>
  <time>2026-09-02T20:50:41Z</time>
  <course>0.0</course>
  <speed>0.0</speed>
  <fix>3d</fix>
</trkpt>
<trkpt lat="40.0713749" lon="-105.229789">
  <ele>1583.0</ele>
  <time>2026-09-02T20:50:41Z</time>
  <course>0.0</course>
  <speed>0.0</speed>
  <fix>3d</fix>
</trkpt>
<trkpt lat="40.0713749" lon="-105.229789">
  <ele>1583.0</ele>
  <time>2026-09-02T20:50:41Z</time>
  <course>0.0</course>
  <speed>0.0</speed>
  <fix>3d</fix>
</trkpt>
<trkpt lat="40.0713749" lon="-105.229789">
  <ele>1583.0</ele>
  <time>2026-09-02T20:50:41Z</time>
  <course>0.0</course>
  <speed>0.0</speed>
  <fix>3d</fix>
</trkpt>
<trkpt lat="40.0713749" lon="-105.229789">
  <ele>1583.0</ele>
  <time>2026-09-02T20:50:41Z</time>
  <course>0.0</course>
  <speed>0.0</speed>
  <fix>3d</fix>
</trkpt>
<trkpt lat="40.0713749" lon="-105.229789">
  <ele>1583.0</ele>
  <time>2026-09-02T20:50:41Z</time>
  <course>0.0</course>
  <speed>0.0</speed>
  <fix>3d</fix>
</trkpt>
<trkpt lat="40.0713749" lon="-105.229789">
  <ele>1583.0</ele>
  <time>2026-09-02T20:50:41Z</time>
  <course>0.0</course>
  <speed>0.0</speed>
  <fix>3d</fix>
</trkpt>
<trkpt lat="40.0713749" lon="-105.229789">
  <ele>1583.0</ele>
  <time>2026-09-02T20:50:41Z</time>
  <course>0.0</course>
  <speed>0.0</speed>
  <fix>3d</fix>
</trkpt>
<trkpt lat="40.0713749" lon="-105.229789">
  <ele>1583.0</ele>
  <time>2026-09-02T20:50:41Z</time>
  <course>0.0</course>
  <speed>0.0</speed>
  <fix>3d</fix>
</trkpt>
<trkpt lat="40.0713749" lon="-105.229789">
  <ele>1583.0</ele>
  <time>2026-09-02T20:50:41Z</time>
  <course>0.0</course>
  <speed>0.0</speed>
  <fix>3d</fix>
</trkpt>
<trkpt lat="40.0713749" lon="-105.229789">
  <ele>1583.0</ele>
  <time>2026-09-02T20:50:41Z</time>
  <course>0.0</course>
  <speed>0.0</speed>
  <fix>3d</fix>
</trkpt>
<trkpt lat="40.0713749" lon="-105.229789">
  <ele>1583.0</ele>
  <time>2026-09-02T20:50:41Z</time>
  <course>0.0</course>
  <speed>0.0</speed>
  <fix>3d</fix>
</trkpt>
<trkpt lat="40.0713749" lon="-105.229789">
  <ele>1583.0</ele>
  <time>2026-09-02T20:50:42Z</time>
  <course>0.0</course>
  <speed>0.0</speed>
  <fix>3d</fix>
</trkpt>
<trkpt lat="40.0713749" lon="-105.229789">
  <ele>1583.0</ele>
  <time>2026-09-02T20:50:42Z</time>
  <course>0.0</course>
  <speed>0.0</speed>
  <fix>3d</fix>
</trkpt>
<trkpt lat="40.0713749" lon="-105.229789">
  <ele>1583.0</ele>
  <time>2026-09-02T20:50:42Z</time>
  <course>0.0</course>
  <speed>0.0</speed>
  <fix>3d</fix>
</trkpt>
<trkpt lat="40.0713749" lon="-105.229789">
  <ele>1583.0</ele>
  <time>2026-09-02T20:50:42Z</time>
  <course>0.0</course>
  <speed>0.0</speed>
  <fix>3d</fix>
</trkpt>
<trkpt lat="40.0713749" lon="-105.229789">
  <ele>1583.0</ele>
  <time>2026-09-02T20:50:42Z</time>
  <course>0.0</course>
  <speed>0.0</speed>
  <fix>3d</fix>
</trkpt>
<trkpt lat="40.0713749" lon="-105.229789">
  <ele>1583.0</ele>
  <time>2026-09-02T20:50:42Z</time>
  <course>0.0</course>
  <speed>0.0</speed>
  <fix>3d</fix>
</trkpt>
<trkpt lat="40.0713749" lon="-105.229789">
  <ele>1583.0</ele>
  <time>2026-09-02T20:50:42Z</time>
  <course>0.0</course>
  <speed>0.0</speed>
  <fix>3d</fix>
</trkpt>
<trkpt lat="40.0713749" lon="-105.229789">
  <ele>1583.0</ele>
  <time>2026-09-02T20:50:42Z</time>
  <course>0.0</course>
  <speed>0.0</speed>
  <fix>3d</fix>
</trkpt>
<trkpt lat="40.0713749" lon="-105.229789">
  <ele>1583.0</ele>
  <time>2026-09-02T20:50:42Z</time>
  <course>0.0</course>
  <speed>0.0</speed>
  <fix>3d</fix>
</trkpt>
<trkpt lat="40.0713749" lon="-105.229789">
  <ele>1583.0</ele>
  <time>2026-09-02T20:50:42Z</time>
  <course>0.0</course>
  <speed>0.0</speed>
  <fix>3d</fix>
</trkpt>
<trkpt lat="40.0713749" lon="-105.229789">
  <ele>1583.0</ele>
  <time>2026-09-02T20:50:42Z</time>
  <course>0.0</course>
  <speed>0.0</speed>
  <fix>3d</fix>
</trkpt>
<trkpt lat="40.0713749" lon="-105.229789">
  <ele>1583.0</ele>
  <time>2026-09-02T20:50:42Z</time>
  <course>0.0</course>
  <speed>0.0</speed>
  <fix>3d</fix>
</trkpt>
<trkpt lat="40.0713749" lon="-105.229789">
  <ele>1583.0</ele>
  <time>2026-09-02T20:50:42Z</time>
  <course>0.0</course>
  <speed>0.0</speed>
  <fix>3d</fix>
</trkpt>
<trkpt lat="40.0713749" lon="-105.229789">
  <ele>1583.0</ele>
  <time>2026-09-02T20:50:42Z</time>
  <course>0.0</course>
  <speed>0.0</speed>
  <fix>3d</fix>
</trkpt>
<trkpt lat="40.0713749" lon="-105.229789">
  <ele>1583.0</ele>
  <time>2026-09-02T20:50:42Z</time>
  <course>0.0</course>
  <speed>0.0</speed>
  <fix>3d</fix>
</trkpt>
<trkpt lat="40.0713749" lon="-105.229789">
  <ele>1583.0</ele>
  <time>2026-09-02T20:50:42Z</time>
  <course>0.0</course>
  <speed>0.0</speed>
  <fix>3d</fix>
</trkpt>
<trkpt lat="40.0713749" lon="-105.229789">
  <ele>1583.0</ele>
  <time>2026-09-02T20:50:42Z</time>
  <course>0.0</course>
  <speed>0.0</speed>
  <fix>3d</fix>
</trkpt>
<trkpt lat="40.0713749" lon="-105.229789">
  <ele>1583.0</ele>
  <time>2026-09-02T20:50:42Z</time>
  <course>0.0</course>
  <speed>0.0</speed>
  <fix>3d</fix>
</trkpt>
<trkpt lat="40.0713749" lon="-105.229789">
  <ele>1583.0</ele>
  <time>2026-09-02T20:50:42Z</time>
  <course>0.0</course>
  <speed>0.0</speed>
  <fix>3d</fix>
</trkpt>
<trkpt lat="39.655741" lon="-104.1383097">
  <ele>1566.58</ele>
  <time>2026-09-02T20:50:42Z</time>
  <course>0.0</course>
  <speed>0.0</speed>
  <fix>3d</fix>
</trkpt>
<trkpt lat="40.0713749" lon="-105.229789">
  <ele>1583.0</ele>
  <time>2026-09-02T20:50:42Z</time>
  <course>0.0</course>
  <speed>0.0</speed>
  <fix>3d</fix>
</trkpt>
<trkpt lat="40.0713749" lon="-105.229789">
  <ele>1583.0</ele>
  <time>2026-09-02T20:50:42Z</time>
  <course>0.0</course>
  <speed>0.0</speed>
  <fix>3d</fix>
</trkpt>
<trkpt lat="40.0713749" lon="-105.229789">
  <ele>1583.0</ele>
  <time>2026-09-02T20:50:42Z</time>
  <course>0.0</course>
  <speed>0.0</speed>
  <fix>3d</fix>
</trkpt>
<trkpt lat="40.0713749" lon="-105.229789">
  <ele>1583.0</ele>
  <time>2026-09-02T20:50:42Z</time>
  <course>0.0</course>
  <speed>0.0</speed>
  <fix>3d</fix>
</trkpt>
<trkpt lat="40.0713749" lon="-105.229789">
  <ele>1583.0</ele>
  <time>2026-09-02T20:50:42Z</time>
  <course>0.0</course>
  <speed>0.0</speed>
  <fix>3d</fix>
</trkpt>
<trkpt lat="40.0713749" lon="-105.229789">
  <ele>1583.0</ele>
  <time>2026-09-02T20:50:42Z</time>
  <course>0.0</course>
  <speed>0.0</speed>
  <fix>3d</fix>
</trkpt>
<trkpt lat="40.0713749" lon="-105.229789">
  <ele>1583.0</ele>
  <time>2026-09-02T20:50:42Z</time>
  <course>0.0</course>
  <speed>0.0</speed>
  <fix>3d</fix>
</trkpt>
<trkpt lat="40.0713749" lon="-105.229789">
  <ele>1583.0</ele>
  <time>2026-09-02T20:50:42Z</time>
  <course>0.0</course>
  <speed>0.0</speed>
  <fix>3d</fix>
</trkpt>
<trkpt lat="40.0713749" lon="-105.229789">
  <ele>1583.0</ele>
  <time>2026-09-02T20:50:42Z</time>
  <course>0.0</course>
  <speed>0.0</speed>
  <fix>3d</fix>
</trkpt>
<trkpt lat="40.0713749" lon="-105.229789">
  <ele>1583.0</ele>
  <time>2026-09-02T20:50:42Z</time>
  <course>0.0</course>
  <speed>0.0</speed>
  <fix>3d</fix>
</trkpt>
<trkpt lat="40.0713749" lon="-105.229789">
  <ele>1583.0</ele>
  <time>2026-09-02T20:50:42Z</time>
  <course>0.0</course>
  <speed>0.0</speed>
  <fix>3d</fix>
</trkpt>
<trkpt lat="40.0713749" lon="-105.229789">
  <ele>1583.0</ele>
  <time>2026-09-02T20:50:42Z</time>
  <course>0.0</course>
  <speed>0.0</speed>
  <fix>3d</fix>
</trkpt>
<trkpt lat="40.0713749" lon="-105.229789">
  <ele>1583.0</ele>
  <time>2026-09-02T20:50:42Z</time>
  <course>0.0</course>
  <speed>0.0</speed>
  <fix>3d</fix>
</trkpt>
<trkpt lat="40.0713749" lon="-105.229789">
  <ele>1583.0</ele>
  <time>2026-09-02T20:50:42Z</time>
  <course>0.0</course>
  <speed>0.0</speed>
  <fix>3d</fix>
</trkpt>
<trkpt lat="40.0713749" lon="-105.229789">
  <ele>1583.0</ele>
  <time>2026-09-02T20:50:42Z</time>
  <course>0.0</course>
  <speed>0.0</speed>
  <fix>3d</fix>
</trkpt>
<trkpt lat="40.0713749" lon="-105.229789">
  <ele>1583.0</ele>
  <time>2026-09-02T20:50:42Z</time>
  <course>0.0</course>
  <speed>0.0</speed>
  <fix>3d</fix>
</trkpt>
<trkpt lat="40.0713749" lon="-105.229789">
  <ele>1583.0</ele>
  <time>2026-09-02T20:50:42Z</time>
  <course>0.0</course>
  <speed>0.0</speed>
  <fix>3d</fix>
</trkpt>
<trkpt lat="40.0713749" lon="-105.229789">
  <ele>1583.0</ele>
  <time>2026-09-02T20:50:42Z</time>
  <course>0.0</course>
  <speed>0.0</speed>
  <fix>3d</fix>
</trkpt>
<trkpt lat="40.0713749" lon="-105.229789">
  <ele>1583.0</ele>
  <time>2026-09-02T20:50:42Z</time>
  <course>0.0</course>
  <speed>0.0</speed>
  <fix>3d</fix>
</trkpt>
<trkpt lat="40.0713749" lon="-105.229789">
  <ele>1583.0</ele>
  <time>2026-09-02T20:50:42Z</time>
  <course>0.0</course>
  <speed>0.0</speed>
  <fix>3d</fix>
</trkpt>
<trkpt lat="40.0713749" lon="-105.229789">
  <ele>1583.0</ele>
  <time>2026-09-02T20:50:42Z</time>
  <course>0.0</course>
  <speed>0.0</speed>
  <fix>3d</fix>
</trkpt>
<trkpt lat="40.0713749" lon="-105.229789">
  <ele>1583.0</ele>
  <time>2026-09-02T20:50:42Z</time>
  <course>0.0</course>
  <speed>0.0</speed>
  <fix>3d</fix>
</trkpt>
<trkpt lat="40.0713749" lon="-105.229789">
  <ele>1583.0</ele>
  <time>2026-09-02T20:50:42Z</time>
  <course>0.0</course>
  <speed>0.0</speed>
  <fix>3d</fix>
</trkpt>
<trkpt lat="40.0713749" lon="-105.229789">
  <ele>1583.0</ele>
  <time>2026-09-02T20:50:42Z</time>
  <course>0.0</course>
  <speed>0.0</speed>
  <fix>3d</fix>
</trkpt>
<trkpt lat="40.0713749" lon="-105.229789">
  <ele>1583.0</ele>
  <time>2026-09-02T20:50:42Z</time>
  <course>0.0</course>
  <speed>0.0</speed>
  <fix>3d</fix>
</trkpt>
<trkpt lat="40.0713749" lon="-105.229789">
  <ele>1583.0</ele>
  <time>2026-09-02T20:50:42Z</time>
  <course>0.0</course>
  <speed>0.0</speed>
  <fix>3d</fix>
</trkpt>
<trkpt lat="40.0713749" lon="-105.229789">
  <ele>1583.0</ele>
  <time>2026-09-02T20:50:42Z</time>
  <course>0.0</course>
  <speed>0.0</speed>
  <fix>3d</fix>
</trkpt>
<trkpt lat="40.0713749" lon="-105.229789">
  <ele>1583.0</ele>
  <time>2026-09-02T20:50:42Z</time>
  <course>0.0</course>
  <speed>0.0</speed>
  <fix>3d</fix>
</trkpt>
<trkpt lat="40.0713749" lon="-105.229789">
  <ele>1583.0</ele>
  <time>2026-09-02T20:50:42Z</time>
  <course>0.0</course>
  <speed>0.0</speed>
  <fix>3d</fix>
</trkpt>
<trkpt lat="40.0713749" lon="-105.229789">
  <ele>1583.0</ele>
  <time>2026-09-02T20:50:42Z</time>
  <course>0.0</course>
  <speed>0.0</speed>
  <fix>3d</fix>
</trkpt>
<trkpt lat="40.0713749" lon="-105.229789">
  <ele>1583.0</ele>
  <time>2026-09-02T20:50:42Z</time>
  <course>0.0</course>
  <speed>0.0</speed>
  <fix>3d</fix>
</trkpt>
<trkpt lat="40.0713749" lon="-105.229789">
  <ele>1583.0</ele>
  <time>2026-09-02T20:50:42Z</time>
  <course>0.0</course>
  <speed>0.0</speed>
  <fix>3d</fix>
</trkpt>
<trkpt lat="40.0713749" lon="-105.229789">
  <ele>1583.0</ele>
  <time>2026-09-02T20:50:42Z</time>
  <course>0.0</course>
  <speed>0.0</speed>
  <fix>3d</fix>
</trkpt>
<trkpt lat="40.0713749" lon="-105.229789">
  <ele>1583.0</ele>
  <time>2026-09-02T20:50:42Z</time>
  <course>0.0</course>
  <speed>0.0</speed>
  <fix>3d</fix>
</trkpt>
<trkpt lat="40.0713749" lon="-105.229789">
  <ele>1583.0</ele>
  <time>2026-09-02T20:50:42Z</time>
  <course>0.0</course>
  <speed>0.0</speed>
  <fix>3d</fix>
</trkpt>
<trkpt lat="40.0713749" lon="-105.229789">
  <ele>1583.0</ele>
  <time>2026-09-02T20:50:42Z</time>
  <course>0.0</course>
  <speed>0.0</speed>
  <fix>3d</fix>
</trkpt>
<trkpt lat="40.0713749" lon="-105.229789">
  <ele>1583.0</ele>
  <time>2026-09-02T20:50:42Z</time>
  <course>0.0</course>
  <speed>0.0</speed>
  <fix>3d</fix>
</trkpt>
<trkpt lat="40.0713749" lon="-105.229789">
  <ele>1583.0</ele>
  <time>2026-09-02T20:50:42Z</time>
  <course>0.0</course>
  <speed>0.0</speed>
  <fix>3d</fix>
</trkpt>
<trkpt lat="40.0713749" lon="-105.229789">
  <ele>1583.0</ele>
  <time>2026-09-02T20:50:42Z</time>
  <course>0.0</course>
  <speed>0.0</speed>
  <fix>3d</fix>
</trkpt>
<trkpt lat="40.0713749" lon="-105.229789">
  <ele>1583.0</ele>
  <time>2026-09-02T20:50:42Z</time>
  <course>0.0</course>
  <speed>0.0</speed>
  <fix>3d</fix>
</trkpt>
<trkpt lat="40.0713749" lon="-105.229789">
  <ele>1583.0</ele>
  <time>2026-09-02T20:50:42Z</time>
  <course>0.0</course>
  <speed>0.0</speed>
  <fix>3d</fix>
</trkpt>
<trkpt lat="40.0713749" lon="-105.229789">
  <ele>1583.0</ele>
  <time>2026-09-02T20:50:42Z</time>
  <course>0.0</course>
  <speed>0.0</speed>
  <fix>3d</fix>
</trkpt>
<trkpt lat="40.0713749" lon="-105.229789">
  <ele>1583.0</ele>
  <time>2026-09-02T20:50:42Z</time>
  <course>0.0</course>
  <speed>0.0</speed>
  <fix>3d</fix>
</trkpt>
<trkpt lat="40.0713749" lon="-105.229789">
  <ele>1583.0</ele>
  <time>2026-09-02T20:50:42Z</time>
  <course>0.0</course>
  <speed>0.0</speed>
  <fix>3d</fix>
</trkpt>
<trkpt lat="40.0713749" lon="-105.229789">
  <ele>1583.0</ele>
  <time>2026-09-02T20:50:42Z</time>
  <course>0.0</course>
  <speed>0.0</speed>
  <fix>3d</fix>
</trkpt>
<trkpt lat="40.0713749" lon="-105.229789">
  <ele>1583.0</ele>
  <time>2026-09-02T20:50:42Z</time>
  <course>0.0</course>
  <speed>0.0</speed>
  <fix>3d</fix>
</trkpt>
<trkpt lat="40.0713749" lon="-105.229789">
  <ele>1583.0</ele>
  <time>2026-09-02T20:50:42Z</time>
  <course>0.0</course>
  <speed>0.0</speed>
  <fix>3d</fix>
</trkpt>
<trkpt lat="40.0713749" lon="-105.229789">
  <ele>1583.0</ele>
  <time>2026-09-02T20:50:42Z</time>
  <course>0.0</course>
  <speed>0.0</speed>
  <fix>3d</fix>
</trkpt>
<trkpt lat="40.0713749" lon="-105.229789">
  <ele>1583.0</ele>
  <time>2026-09-02T20:50:42Z</time>
  <course>0.0</course>
  <speed>0.0</speed>
  <fix>3d</fix>
</trkpt>
<trkpt lat="40.0713749" lon="-105.229789">
  <ele>1583.0</ele>
  <time>2026-09-02T20:50:42Z</time>
  <course>0.0</course>
  <speed>0.0</speed>
  <fix>3d</fix>
</trkpt>
<trkpt lat="40.0713749" lon="-105.229789">
  <ele>1583.0</ele>
  <time>2026-09-02T20:50:42Z</time>
  <course>0.0</course>
  <speed>0.0</speed>
  <fix>3d</fix>
</trkpt>
<trkpt lat="40.0713749" lon="-105.229789">
  <ele>1583.0</ele>
  <time>2026-09-02T20:50:42Z</time>
  <course>0.0</course>
  <speed>0.0</speed>
  <fix>3d</fix>
</trkpt>
<trkpt lat="40.0713749" lon="-105.229789">
  <ele>1583.0</ele>
  <time>2026-09-02T20:50:42Z</time>
  <course>0.0</course>
  <speed>0.0</speed>
  <fix>3d</fix>
</trkpt>
<trkpt lat="40.0713749" lon="-105.229789">
  <ele>1583.0</ele>
  <time>2026-09-02T20:50:42Z</time>
  <course>0.0</course>
  <speed>0.0</speed>
  <fix>3d</fix>
</trkpt>
<trkpt lat="40.0713749" lon="-105.229789">
  <ele>1583.0</ele>
  <time>2026-09-02T20:50:42Z</time>
  <course>0.0</course>
  <speed>0.0</speed>
  <fix>3d</fix>
</trkpt>
<trkpt lat="40.0713749" lon="-105.229789">
  <ele>1583.0</ele>
  <time>2026-09-02T20:50:42Z</time>
  <course>0.0</course>
  <speed>0.0</speed>
  <fix>3d</fix>
</trkpt>
<trkpt lat="40.0713749" lon="-105.229789">
  <ele>1583.0</ele>
  <time>2026-09-02T20:50:42Z</time>
  <course>0.0</course>
  <speed>0.0</speed>
  <fix>3d</fix>
</trkpt>
<trkpt lat="40.0713749" lon="-105.229789">
  <ele>1583.0</ele>
  <time>2026-09-02T20:50:42Z</time>
  <course>0.0</course>
  <speed>0.0</speed>
  <fix>3d</fix>
</trkpt>
<trkpt lat="40.0713749" lon="-105.229789">
  <ele>1583.0</ele>
  <time>2026-09-02T20:50:42Z</time>
  <course>0.0</course>
  <speed>0.0</speed>
  <fix>3d</fix>
</trkpt>
<trkpt lat="40.0713749" lon="-105.229789">
  <ele>1583.0</ele>
  <time>2026-09-02T20:50:42Z</time>
  <course>0.0</course>
  <speed>0.0</speed>
  <fix>3d</fix>
</trkpt>
<trkpt lat="40.0713749" lon="-105.229789">
  <ele>1583.0</ele>
  <time>2026-09-02T20:50:42Z</time>
  <course>0.0</course>
  <speed>0.0</speed>
  <fix>3d</fix>
</trkpt>
<trkpt lat="40.0713749" lon="-105.229789">
  <ele>1583.0</ele>
  <time>2026-09-02T20:50:42Z</time>
  <course>0.0</course>
  <speed>0.0</speed>
  <fix>3d</fix>
</trkpt>
<trkpt lat="40.0713749" lon="-105.229789">
  <ele>1583.0</ele>
  <time>2026-09-02T20:50:42Z</time>
  <course>0.0</course>
  <speed>0.0</speed>
  <fix>3d</fix>
</trkpt>
<trkpt lat="40.0713749" lon="-105.229789">
  <ele>1583.0</ele>
  <time>2026-09-02T20:50:42Z</time>
  <course>0.0</course>
  <speed>0.0</speed>
  <fix>3d</fix>
</trkpt>
<trkpt lat="40.0713749" lon="-105.229789">
  <ele>1583.0</ele>
  <time>2026-09-02T20:50:42Z</time>
  <course>0.0</course>
  <speed>0.0</speed>
  <fix>3d</fix>
</trkpt>
<trkpt lat="40.0713749" lon="-105.229789">
  <ele>1583.0</ele>
  <time>2026-09-02T20:50:42Z</time>
  <course>0.0</course>
  <speed>0.0</speed>
  <fix>3d</fix>
</trkpt>
<trkpt lat="40.0713749" lon="-105.229789">
  <ele>1583.0</ele>
  <time>2026-09-02T20:50:42Z</time>
  <course>0.0</course>
  <speed>0.0</speed>
  <fix>3d</fix>
</trkpt>
<trkpt lat="40.0713749" lon="-105.229789">
  <ele>1583.0</ele>
  <time>2026-09-02T20:50:42Z</time>
  <course>0.0</course>
  <speed>0.0</speed>
  <fix>3d</fix>
</trkpt>
<trkpt lat="40.0713749" lon="-105.229789">
  <ele>1583.0</ele>
  <time>2026-09-02T20:50:42Z</time>
  <course>0.0</course>
  <speed>0.0</speed>
  <fix>3d</fix>
</trkpt>
<trkpt lat="40.0713749" lon="-105.229789">
  <ele>1583.0</ele>
  <time>2026-09-02T20:50:42Z</time>
  <course>0.0</course>
  <speed>0.0</speed>
  <fix>3d</fix>
</trkpt>
<trkpt lat="40.0713749" lon="-105.229789">
  <ele>1583.0</ele>
  <time>2026-09-02T20:50:42Z</time>
  <course>0.0</course>
  <speed>0.0</speed>
  <fix>3d</fix>
</trkpt>
<trkpt lat="40.0713749" lon="-105.229789">
  <ele>1583.0</ele>
  <time>2026-09-02T20:50:42Z</time>
  <course>0.0</course>
  <speed>0.0</speed>
  <fix>3d</fix>
</trkpt>
<trkpt lat="40.0713749" lon="-105.229789">
  <ele>1583.0</ele>
  <time>2026-09-02T20:50:42Z</time>
  <course>0.0</course>
  <speed>0.0</speed>
  <fix>3d</fix>
</trkpt>
<trkpt lat="40.0713749" lon="-105.229789">
  <ele>1583.0</ele>
  <time>2026-09-02T20:50:42Z</time>
  <course>0.0</course>
  <speed>0.0</speed>
  <fix>3d</fix>
</trkpt>
<trkpt lat="40.0713749" lon="-105.229789">
  <ele>1583.0</ele>
  <time>2026-09-02T20:50:42Z</time>
  <course>0.0</course>
  <speed>0.0</speed>
  <fix>3d</fix>
</trkpt>
<trkpt lat="40.0713749" lon="-105.229789">
  <ele>1583.0</ele>
  <time>2026-09-02T20:50:42Z</time>
  <course>0.0</course>
  <speed>0.0</speed>
  <fix>3d</fix>
</trkpt>
<trkpt lat="40.0713749" lon="-105.229789">
  <ele>1583.0</ele>
  <time>2026-09-02T20:50:42Z</time>
  <course>0.0</course>
  <speed>0.0</speed>
  <fix>3d</fix>
</trkpt>
<trkpt lat="40.0713749" lon="-105.229789">
  <ele>1583.0</ele>
  <time>2026-09-02T20:50:42Z</time>
  <course>0.0</course>
  <speed>0.0</speed>
  <fix>3d</fix>
</trkpt>
<trkpt lat="40.0713749" lon="-105.229789">
  <ele>1583.0</ele>
  <time>2026-09-02T20:50:42Z</time>
  <course>0.0</course>
  <speed>0.0</speed>
  <fix>3d</fix>
</trkpt>
<trkpt lat="40.0713749" lon="-105.229789">
  <ele>1583.0</ele>
  <time>2026-09-02T20:50:42Z</time>
  <course>0.0</course>
  <speed>0.0</speed>
  <fix>3d</fix>
</trkpt>
<trkpt lat="40.0713749" lon="-105.229789">
  <ele>1583.0</ele>
  <time>2026-09-02T20:50:42Z</time>
  <course>0.0</course>
  <speed>0.0</speed>
  <fix>3d</fix>
</trkpt>
<trkpt lat="40.0713749" lon="-105.229789">
  <ele>1583.0</ele>
  <time>2026-09-02T20:50:42Z</time>
  <course>0.0</course>
  <speed>0.0</speed>
  <fix>3d</fix>
</trkpt>
<trkpt lat="40.0713749" lon="-105.229789">
  <ele>1583.0</ele>
  <time>2026-09-02T20:50:42Z</time>
  <course>0.0</course>
  <speed>0.0</speed>
  <fix>3d</fix>
</trkpt>
<trkpt lat="40.0713749" lon="-105.229789">
  <ele>1583.0</ele>
  <time>2026-09-02T20:50:42Z</time>
  <course>0.0</course>
  <speed>0.0</speed>
  <fix>3d</fix>
</trkpt>
<trkpt lat="40.0713749" lon="-105.229789">
  <ele>1583.0</ele>
  <time>2026-09-02T20:50:42Z</time>
  <course>0.0</course>
  <speed>0.0</speed>
  <fix>3d</fix>
</trkpt>
<trkpt lat="40.0713749" lon="-105.229789">
  <ele>1583.0</ele>
  <time>2026-09-02T20:50:42Z</time>
  <course>0.0</course>
  <speed>0.0</speed>
  <fix>3d</fix>
</trkpt>
<trkpt lat="40.0713749" lon="-105.229789">
  <ele>1583.0</ele>
  <time>2026-09-02T20:50:42Z</time>
  <course>0.0</course>
  <speed>0.0</speed>
  <fix>3d</fix>
</trkpt>
<trkpt lat="40.0713749" lon="-105.229789">
  <ele>1583.0</ele>
  <time>2026-09-02T20:50:42Z</time>
  <course>0.0</course>
  <speed>0.0</speed>
  <fix>3d</fix>
</trkpt>
<trkpt lat="40.0713749" lon="-105.229789">
  <ele>1583.0</ele>
  <time>2026-09-02T20:50:42Z</time>
  <course>0.0</course>
  <speed>0.0</speed>
  <fix>3d</fix>
</trkpt>
<trkpt lat="40.0713749" lon="-105.229789">
  <ele>1583.0</ele>
  <time>2026-09-02T20:50:42Z</time>
  <course>0.0</course>
  <speed>0.0</speed>
  <fix>3d</fix>
</trkpt>
<trkpt lat="40.0713749" lon="-105.229789">
  <ele>1583.0</ele>
  <time>2026-09-02T20:50:42Z</time>
  <course>0.0</course>
  <speed>0.0</speed>
  <fix>3d</fix>
</trkpt>
<trkpt lat="40.0713749" lon="-105.229789">
  <ele>1583.0</ele>
  <time>2026-09-02T20:50:42Z</time>
  <course>0.0</course>
  <speed>0.0</speed>
  <fix>3d</fix>
</trkpt>
<trkpt lat="40.0713749" lon="-105.229789">
  <ele>1583.0</ele>
  <time>2026-09-02T20:50:42Z</time>
  <course>0.0</course>
  <speed>0.0</speed>
  <fix>3d</fix>
</trkpt>
<trkpt lat="40.0713749" lon="-105.229789">
  <ele>1583.0</ele>
  <time>2026-09-02T20:50:42Z</time>
  <course>0.0</course>
  <speed>0.0</speed>
  <fix>3d</fix>
</trkpt>
<trkpt lat="40.0713749" lon="-105.229789">
  <ele>1583.0</ele>
  <time>2026-09-02T20:50:42Z</time>
  <course>0.0</course>
  <speed>0.0</speed>
  <fix>3d</fix>
</trkpt>
<trkpt lat="40.0713749" lon="-105.229789">
  <ele>1583.0</ele>
  <time>2026-09-02T20:50:42Z</time>
  <course>0.0</course>
  <speed>0.0</speed>
  <fix>3d</fix>
</trkpt>
<trkpt lat="40.0713749" lon="-105.229789">
  <ele>1583.0</ele>
  <time>2026-09-02T20:50:42Z</time>
  <course>0.0</course>
  <speed>0.0</speed>
  <fix>3d</fix>
</trkpt>
<trkpt lat="40.0713749" lon="-105.229789">
  <ele>1583.0</ele>
  <time>2026-09-02T20:50:42Z</time>
  <course>0.0</course>
  <speed>0.0</speed>
  <fix>3d</fix>
</trkpt>
<trkpt lat="40.0713749" lon="-105.229789">
  <ele>1583.0</ele>
  <time>2026-09-02T20:50:42Z</time>
  <course>0.0</course>
  <speed>0.0</speed>
  <fix>3d</fix>
</trkpt>
<trkpt lat="40.0713749" lon="-105.229789">
  <ele>1583.0</ele>
  <time>2026-09-02T20:50:42Z</time>
  <course>0.0</course>
  <speed>0.0</speed>
  <fix>3d</fix>
</trkpt>
<trkpt lat="40.0713749" lon="-105.229789">
  <ele>1583.0</ele>
  <time>2026-09-02T20:50:42Z</time>
  <course>0.0</course>
  <speed>0.0</speed>
  <fix>3d</fix>
</trkpt>
<trkpt lat="40.0713749" lon="-105.229789">
  <ele>1583.0</ele>
  <time>2026-09-02T20:50:42Z</time>
  <course>0.0</course>
  <speed>0.0</speed>
  <fix>3d</fix>
</trkpt>
<trkpt lat="40.0713749" lon="-105.229789">
  <ele>1583.0</ele>
  <time>2026-09-02T20:50:42Z</time>
  <course>0.0</course>
  <speed>0.0</speed>
  <fix>3d</fix>
</trkpt>
<trkpt lat="40.0713749" lon="-105.229789">
  <ele>1583.0</ele>
  <time>2026-09-02T20:50:42Z</time>
  <course>0.0</course>
  <speed>0.0</speed>
  <fix>3d</fix>
</trkpt>
<trkpt lat="40.0713749" lon="-105.229789">
  <ele>1583.0</ele>
  <time>2026-09-02T20:50:42Z</time>
  <course>0.0</course>
  <speed>0.0</speed>
  <fix>3d</fix>
</trkpt>
<trkpt lat="40.0713749" lon="-105.229789">
  <ele>1583.0</ele>
  <time>2026-09-02T20:50:42Z</time>
  <course>0.0</course>
  <speed>0.0</speed>
  <fix>3d</fix>
</trkpt>
<trkpt lat="40.0713749" lon="-105.229789">
  <ele>1583.0</ele>
  <time>2026-09-02T20:50:42Z</time>
  <course>359.99</course>
  <speed>0.0</speed>
  <fix>3d</fix>
</trkpt>
<trkpt lat="40.0713749" lon="-105.229789">
  <ele>1583.0</ele>
  <time>2026-09-02T20:50:42Z</time>
  <course>0.0</course>
  <speed>0.0</speed>
  <fix>3d</fix>
</trkpt>
<trkpt lat="40.0713749" lon="-105.229789">
  <ele>1583.0</ele>
  <time>2026-09-02T20:50:42Z</time>
  <course>359.89</course>
  <speed>0.0</speed>
  <fix>3d</fix>
</trkpt>
<trkpt lat="40.0713749" lon="-105.229789">
  <ele>1583.0</ele>
  <time>2026-09-02T20:50:42Z</time>
  <course>179.88</course>
  <speed>0.0</speed>
  <fix>3d</fix>
</trkpt>
<trkpt lat="40.0713749" lon="-105.229789">
  <ele>1582.99</ele>
  <time>2026-09-02T20:50:42Z</time>
  <course>359.71</course>
  <speed>0.0</speed>
  <fix>3d</fix>
</trkpt>
<trkpt lat="40.0713749" lon="-105.229789">
  <ele>1583.0</ele>
  <time>2026-09-02T20:50:42Z</time>
  <course>179.88</course>
  <speed>0.0</speed>
  <fix>3d</fix>
</trkpt>
<trkpt lat="40.0713749" lon="-105.229789">
  <ele>1582.99</ele>
  <time>2026-09-02T20:50:42Z</time>
  <course>359.44</course>
  <speed>0.01</speed>
  <fix>3d</fix>
</trkpt>
<trkpt lat="40.0713749" lon="-105.229789">
  <ele>1582.99</ele>
  <time>2026-09-02T20:50:42Z</time>
  <course>359.3</course>
  <speed>0.0</speed>
  <fix>3d</fix>
</trkpt>
<trkpt lat="40.0713749" lon="-105.229789">
  <ele>1582.99</ele>
  <time>2026-09-02T20:50:42Z</time>
  <course>359.09</course>
  <speed>0.03</speed>
  <fix>3d</fix>
</trkpt>
<trkpt lat="40.0713749" lon="-105.229789">
  <ele>1582.99</ele>
  <time>2026-09-02T20:50:42Z</time>
  <course>359.3</course>
  <speed>0.0</speed>
  <fix>3d</fix>
</trkpt>
<trkpt lat="40.0713749" lon="-105.229789">
  <ele>1582.99</ele>
  <time>2026-09-02T20:50:42Z</time>
  <course>358.66</course>
  <speed>0.05</speed>
  <fix>3d</fix>
</trkpt>
<trkpt lat="40.0713749" lon="-105.229789">
  <ele>1582.99</ele>
  <time>2026-09-02T20:50:42Z</time>
  <course>358.79</course>
  <speed>0.03</speed>
  <fix>3d</fix>
</trkpt>
<trkpt lat="40.0713751" lon="-105.229789">
  <ele>1582.99</ele>
  <time>2026-09-02T20:50:42Z</time>
  <course>358.16</course>
  <speed>0.1</speed>
  <fix>3d</fix>
</trkpt>
<trkpt lat="40.0713749" lon="-105.229789">
  <ele>1582.99</ele>
  <time>2026-09-02T20:50:42Z</time>
  <course>358.79</course>
  <speed>0.03</speed>
  <fix>3d</fix>
</trkpt>
<trkpt lat="40.0713752" lon="-105.229789">
  <ele>1582.99</ele>
  <time>2026-09-02T20:50:42Z</time>
  <course>357.45</course>
  <speed>0.12</speed>
  <fix>3d</fix>
</trkpt>
<trkpt lat="40.0713751" lon="-105.229789">
  <ele>1582.99</ele>
  <time>2026-09-02T20:50:42Z</time>
  <course>357.91</course>
  <speed>0.08</speed>
  <fix>3d</fix>
</trkpt>
<trkpt lat="40.0713754" lon="-105.229789">
  <ele>1582.99</ele>
  <time>2026-09-02T20:50:42Z</time>
  <course>356.78</course>
  <speed>0.2002498439450079</speed>
  <fix>3d</fix>
</trkpt>
<trkpt lat="40.0713751" lon="-105.229789">
  <ele>1582.99</ele>
  <time>2026-09-02T20:50:42Z</time>
  <course>357.91</course>
  <speed>0.08</speed>
  <fix>3d</fix>
</trkpt>
<trkpt lat="40.0713755" lon="-105.229789">
  <ele>1582.99</ele>
  <time>2026-09-02T20:50:42Z</time>
  <course>356.04</course>
  <speed>0.22022715545545238</speed>
  <fix>3d</fix>
</trkpt>
<trkpt lat="40.0713753" lon="-105.229789">
  <ele>1582.99</ele>
  <time>2026-09-02T20:50:42Z</time>
  <course>356.67</course>
  <speed>0.17</speed>
  <fix>3d</fix>
</trkpt>
<trkpt lat="40.0713758" lon="-105.229789">
  <ele>1582.99</ele>
  <time>2026-09-02T20:50:42Z</time>
  <course>355.24</course>
  <speed>0.32062439083762795</speed>
  <fix>3d</fix>
</trkpt>
<trkpt lat="40.0713753" lon="-105.229789">
  <ele>1582.99</ele>
  <time>2026-09-02T20:50:42Z</time>
  <course>356.67</course>
  <speed>0.17</speed>
  <fix>3d</fix>
</trkpt>
<trkpt lat="40.071376" lon="-105.229789">
  <ele>1582.99</ele>
  <time>2026-09-02T20:50:42Z</time>
  <course>354.38</course>
  <speed>0.36124783736376886</speed>
  <fix>3d</fix>
</trkpt>
<trkpt lat="40.0713758" lon="-105.229789">
  <ele>1582.99</ele>
  <time>2026-09-02T20:50:42Z</time>
  <course>355.17</course>
  <speed>0.28</speed>
  <fix>3d</fix>
</trkpt>
<trkpt lat="40.0713765" lon="-105.229789">
  <ele>1582.99</ele>
  <time>2026-09-02T20:50:42Z</time>
  <course>353.49</course>
  <speed>0.472652091923859</speed>
  <fix>3d</fix>
</trkpt>
<trkpt lat="40.0713758" lon="-105.229789">
  <ele>1582.99</ele>
  <time>2026-09-02T20:50:42Z</time>
  <course>355.17</course>
  <speed>0.28</speed>
  <fix>3d</fix>
</trkpt>
<trkpt lat="40.071377" lon="-105.2297892">
  <ele>1582.99</ele>
  <time>2026-09-02T20:50:42Z</time>
  <course>352.6</course>
  <speed>0.5333854141237835</speed>
  <fix>3d</fix>
</trkpt>
<trkpt lat="40.0713765" lon="-105.2297891">
  <ele>1582.99</ele>
  <time>2026-09-02T20:50:42Z</time>
  <course>353.47</course>
  <speed>0.44</speed>
  <fix>3d</fix>
</trkpt>
<trkpt lat="40.0713774" lon="-105.2297892">
  <ele>1582.99</ele>
  <time>2026-09-02T20:50:42Z</time>
  <course>351.75</course>
  <speed>0.6661080993352355</speed>
  <fix>3d</fix>
</trkpt>
<trkpt lat="40.0713765" lon="-105.2297891">
  <ele>1582.99</ele>
  <time>2026-09-02T20:50:42Z</time>
  <course>353.47</course>
  <speed>0.44</speed>
  <fix>3d</fix>
</trkpt>
<trkpt lat="40.0713782" lon="-105.2297894">
  <ele>1582.99</ele>
  <time>2026-09-02T20:50:42Z</time>
  <course>350.97</course>
  <speed>0.7382411530116699</speed>
  <fix>3d</fix>
</trkpt>
<trkpt lat="40.0713774" lon="-105.2297892">
  <ele>1582.99</ele>
  <time>2026-09-02T20:50:42Z</time>
  <course>351.78</course>
  <speed>0.63</speed>
  <fix>3d</fix>
</trkpt>
<trkpt lat="40.0713789" lon="-105.2297895">
  <ele>1582.99</ele>
  <time>2026-09-02T20:50:42Z</time>
  <course>350.24</course>
  <speed>0.8515867542417507</speed>
  <fix>3d</fix>
</trkpt>
<trkpt lat="40.0713774" lon="-105.2297892">
  <ele>1582.99</ele>
  <time>2026-09-02T20:50:42Z</time>
  <course>351.78</course>
  <speed>0.63</speed>
  <fix>3d</fix>
</trkpt>
<trkpt lat="40.0713797" lon="-105.2297897">
  <ele>1582.99</ele>
  <time>2026-09-02T20:50:42Z</time>
  <course>349.57</course>
  <speed>0.9239588735436226</speed>
  <fix>3d</fix>
</trkpt>
<trkpt lat="40.0713787" lon="-105.2297895">
  <ele>1582.99</ele>
  <time>2026-09-02T20:50:42Z</time>
  <course>350.3</course>
  <speed>0.82</speed>
  <fix>3d</fix>
</trkpt>
<trkpt lat="40.0713803" lon="-105.2297899">
  <ele>1582.99</ele>
  <time>2026-09-02T20:50:42Z</time>
  <course>349.06</course>
  <speed>0.9865596788841515</speed>
  <fix>3d</fix>
</trkpt>
<trkpt lat="40.0713787" lon="-105.2297895">
  <ele>1582.99</ele>
  <time>2026-09-02T20:50:42Z</time>
  <course>350.3</course>
  <speed>0.82</speed>
  <fix>3d</fix>
</trkpt>
<trkpt lat="40.0713813" lon="-105.2297902">
  <ele>1582.99</ele>
  <time>2026-09-02T20:50:42Z</time>
  <course>348.49</course>
  <speed>1.0511898020814319</speed>
  <fix>3d</fix>
</trkpt>
<trkpt lat="40.0713803" lon="-105.2297899">
  <ele>1582.99</ele>
  <time>2026-09-02T20:50:42Z</time>
  <course>349.03</course>
  <speed>0.98</speed>
  <fix>3d</fix>
</trkpt>
<trkpt lat="40.0713821" lon="-105.2297904">
  <ele>1582.99</ele>
  <time>2026-09-02T20:50:42Z</time>
  <course>347.96</course>
  <speed>1.0825894882179485</speed>
  <fix>3d</fix>
</trkpt>
<trkpt lat="40.0713803" lon="-105.2297899">
  <ele>1582.99</ele>
  <time>2026-09-02T20:50:42Z</time>
  <course>349.03</course>
  <speed>0.98</speed>
  <fix>3d</fix>
</trkpt>
<trkpt lat="40.0713832" lon="-105.2297907">
  <ele>1582.99</ele>
  <time>2026-09-02T20:50:42Z</time>
  <course>347.48</course>
  <speed>1.1161093136427094</speed>
  <fix>3d</fix>
</trkpt>
<trkpt lat="40.0713822" lon="-105.2297904">
  <ele>1582.99</ele>
  <time>2026-09-02T20:50:42Z</time>
  <course>347.95</course>
  <speed>1.08</speed>
  <fix>3d</fix>
</trkpt>
<trkpt lat="40.0713842" lon="-105.2297909">
  <ele>1583.0</ele>
  <time>2026-09-02T20:50:42Z</time>
  <course>347.03</course>
  <speed>1.1183022847155415</speed>
  <fix>3d</fix>
</trkpt>
<trkpt lat="40.0713822" lon="-105.2297904">
  <ele>1582.99</ele>
  <time>2026-09-02T20:50:42Z</time>
  <course>347.95</course>
  <speed>1.08</speed>
  <fix>3d</fix>
</trkpt>
<trkpt lat="40.0713852" lon="-105.2297913">
  <ele>1583.0</ele>
  <time>2026-09-02T20:50:42Z</time>
  <course>346.62</course>
  <speed>1.1205802068571442</speed>
  <fix>3d</fix>
</trkpt>
<trkpt lat="40.0713842" lon="-105.229791">
  <ele>1582.99</ele>
  <time>2026-09-02T20:50:42Z</time>
  <course>347.03</course>
  <speed>1.12</speed>
  <fix>3d</fix>
</trkpt>
<trkpt lat="40.0713862" lon="-105.2297916">
  <ele>1583.0</ele>
  <time>2026-09-02T20:50:42Z</time>
  <course>346.25</course>
  <speed>1.101135777277262</speed>
  <fix>3d</fix>
</trkpt>
<trkpt lat="40.0713842" lon="-105.229791">
  <ele>1582.99</ele>
  <time>2026-09-02T20:50:42Z</time>
  <course>347.03</course>
  <speed>1.12</speed>
  <fix>3d</fix>
</trkpt>
<trkpt lat="40.071387" lon="-105.2297919">
  <ele>1582.99</ele>
  <time>2026-09-02T20:50:42Z</time>
  <course>345.89</course>
  <speed>1.0720074626605918</speed>
  <fix>3d</fix>
</trkpt>
<trkpt lat="40.0713861" lon="-105.2297916">
  <ele>1582.99</ele>
  <time>2026-09-02T20:50:42Z</time>
  <course>346.24</course>
  <speed>1.1</speed>
  <fix>3d</fix>
</trkpt>
<trkpt lat="40.071388" lon="-105.2297921">
  <ele>1582.99</ele>
  <time>2026-09-02T20:50:42Z</time>
  <course>345.56</course>
  <speed>1.021077861869505</speed>
  <fix>3d</fix>
</trkpt>
<trkpt lat="40.0713861" lon="-105.2297916">
  <ele>1582.99</ele>
  <time>2026-09-02T20:50:42Z</time>
  <course>346.24</course>
  <speed>1.1</speed>
  <fix>3d</fix>
</trkpt>
<trkpt lat="40.0713888" lon="-105.2297925">
  <ele>1582.99</ele>
  <time>2026-09-02T20:50:42Z</time>
  <course>345.25</course>
  <speed>0.982344135219425</speed>
  <fix>3d</fix>
</trkpt>
<trkpt lat="40.071388" lon="-105.2297921">
  <ele>1582.99</ele>
  <time>2026-09-02T20:50:42Z</time>
  <course>345.56</course>
  <speed>1.03</speed>
  <fix>3d</fix>
</trkpt>
<trkpt lat="40.0713899" lon="-105.2297928">
  <ele>1582.99</ele>
  <time>2026-09-02T20:50:42Z</time>
  <course>344.9</course>
  <speed>0.9314504817756014</speed>
  <fix>3d</fix>
</trkpt>
<trkpt lat="40.071388" lon="-105.2297921">
  <ele>1582.99</ele>
  <time>2026-09-02T20:50:42Z</time>
  <course>345.56</course>
  <speed>1.03</speed>
  <fix>3d</fix>
</trkpt>
<trkpt lat="40.0713906" lon="-105.2297931">
  <ele>1582.99</ele>
  <time>2026-09-02T20:50:42Z</time>
  <course>344.63</course>
  <speed>0.9121403400793103</speed>
  <fix>3d</fix>
</trkpt>
<trkpt lat="40.0713897" lon="-105.2297928">
  <ele>1582.99</ele>
  <time>2026-09-02T20:50:42Z</time>
  <course>344.95</course>
  <speed>0.95</speed>
  <fix>3d</fix>
</trkpt>
<trkpt lat="40.0713915" lon="-105.2297933">
  <ele>1582.99</ele>
  <time>2026-09-02T20:50:42Z</time>
  <course>344.37</course>
  <speed>0.8709190547921202</speed>
  <fix>3d</fix>
</trkpt>
<trkpt lat="40.0713897" lon="-105.2297928">
  <ele>1582.99</ele>
  <time>2026-09-02T20:50:42Z</time>
  <course>344.95</course>
  <speed>0.95</speed>
  <fix>3d</fix>
</trkpt>
<trkpt lat="40.0713922" lon="-105.2297937">
  <ele>1582.99</ele>
  <time>2026-09-02T20:50:42Z</time>
  <course>344.13</course>
  <speed>0.861278120005379</speed>
  <fix>3d</fix>
</trkpt>
<trkpt lat="40.0713913" lon="-105.2297933">
  <ele>1582.99</ele>
  <time>2026-09-02T20:50:42Z</time>
  <course>344.4</course>
  <speed>0.89</speed>
  <fix>3d</fix>
</trkpt>
<trkpt lat="40.0713929" lon="-105.229794">
  <ele>1582.99</ele>
  <time>2026-09-02T20:50:42Z</time>
  <course>343.91</course>
  <speed>0.8420213774008353</speed>
  <fix>3d</fix>
</trkpt>
<trkpt lat="40.0713913" lon="-105.2297933">
  <ele>1582.99</ele>
  <time>2026-09-02T20:50:42Z</time>
  <course>344.4</course>
  <speed>0.89</speed>
  <fix>3d</fix>
</trkpt>
<trkpt lat="40.0713937" lon="-105.2297942">
  <ele>1583.0</ele>
  <time>2026-09-02T20:50:42Z</time>
  <course>343.7</course>
  <speed>0.8544003745317531</speed>
  <fix>3d</fix>
</trkpt>
<trkpt lat="40.0713928" lon="-105.2297939">
  <ele>1582.99</ele>
  <time>2026-09-02T20:50:42Z</time>
  <course>343.93</course>
  <speed>0.86</speed>
  <fix>3d</fix>
</trkpt>
<trkpt lat="40.0713943" lon="-105.2297945">
  <ele>1583.0</ele>
  <time>2026-09-02T20:50:42Z</time>
  <course>343.51</course>
  <speed>0.8544003745317531</speed>
  <fix>3d</fix>
</trkpt>
<trkpt lat="40.0713928" lon="-105.2297939">
  <ele>1582.99</ele>
  <time>2026-09-02T20:50:42Z</time>
  <course>343.93</course>
  <speed>0.86</speed>
  <fix>3d</fix>
</trkpt>
<trkpt lat="40.0713952" lon="-105.2297947">
  <ele>1583.0</ele>
  <time>2026-09-02T20:50:42Z</time>
  <course>343.33</course>
  <speed>0.8544003745317531</speed>
  <fix>3d</fix>
</trkpt>
<trkpt lat="40.0713942" lon="-105.2297945">
  <ele>1583.0</ele>
  <time>2026-09-02T20:50:42Z</time>
  <course>343.52</course>
  <speed>0.85</speed>
  <fix>3d</fix>
</trkpt>
<trkpt lat="40.0713959" lon="-105.229795">
  <ele>1582.99</ele>
  <time>2026-09-02T20:50:42Z</time>
  <course>343.17</course>
  <speed>0.8764131445842195</speed>
  <fix>3d</fix>
</trkpt>
<trkpt lat="40.0713942" lon="-105.2297945">
  <ele>1583.0</ele>
  <time>2026-09-02T20:50:42Z</time>
  <course>343.52</course>
  <speed>0.85</speed>
  <fix>3d</fix>
</trkpt>
<trkpt lat="40.0713967" lon="-105.2297954">
  <ele>1582.99</ele>
  <time>2026-09-02T20:50:42Z</time>
  <course>343.02</course>
  <speed>0.8764131445842195</speed>
  <fix>3d</fix>
</trkpt>
<trkpt lat="40.0713957" lon="-105.229795">
  <ele>1582.99</ele>
  <time>2026-09-02T20:50:42Z</time>
  <course>343.17</course>
  <speed>0.87</speed>
  <fix>3d</fix>
</trkpt>
<trkpt lat="40.0713973" lon="-105.2297957">
  <ele>1582.99</ele>
  <time>2026-09-02T20:50:42Z</time>
  <course>342.89</course>
  <speed>0.8984430978086481</speed>
  <fix>3d</fix>
</trkpt>
<trkpt lat="40.0713957" lon="-105.229795">
  <ele>1582.99</ele>
  <time>2026-09-02T20:50:42Z</time>
  <course>343.17</course>
  <speed>0.87</speed>
  <fix>3d</fix>
</trkpt>
<trkpt lat="40.071398" lon="-105.2297959">
  <ele>1582.99</ele>
  <time>2026-09-02T20:50:42Z</time>
  <course>342.8</course>
  <speed>0.9109335870413386</speed>
  <fix>3d</fix>
</trkpt>
<trkpt lat="40.0713973" lon="-105.2297957">
  <ele>1582.99</ele>
  <time>2026-09-02T20:50:42Z</time>
  <course>342.89</course>
  <speed>0.89</speed>
  <fix>3d</fix>
</trkpt>
<trkpt lat="40.0713989" lon="-105.2297962">
  <ele>1582.99</ele>
  <time>2026-09-02T20:50:42Z</time>
  <course>342.69</course>
  <speed>0.9204890004774636</speed>
  <fix>3d</fix>
</trkpt>
<trkpt lat="40.0713973" lon="-105.2297957">
  <ele>1582.99</ele>
  <time>2026-09-02T20:50:42Z</time>
  <course>342.89</course>
  <speed>0.89</speed>
  <fix>3d</fix>
</trkpt>
<trkpt lat="40.0713997" lon="-105.2297966">
  <ele>1582.99</ele>
  <time>2026-09-02T20:50:42Z</time>
  <course>342.59</course>
  <speed>0.9204890004774636</speed>
  <fix>3d</fix>
</trkpt>
<trkpt lat="40.0713989" lon="-105.2297963">
  <ele>1582.99</ele>
  <time>2026-09-02T20:50:42Z</time>
  <course>342.66</course>
  <speed>0.92</speed>
  <fix>3d</fix>
</trkpt>
<trkpt lat="40.0714004" lon="-105.2297969">
  <ele>1582.99</ele>
  <time>2026-09-02T20:50:42Z</time>
  <course>342.51</course>
  <speed>0.9425497334358544</speed>
  <fix>3d</fix>
</trkpt>
<trkpt lat="40.0713989" lon="-105.2297963">
  <ele>1582.99</ele>
  <time>2026-09-02T20:50:42Z</time>
  <course>342.66</course>
  <speed>0.92</speed>
  <fix>3d</fix>
</trkpt>
<trkpt lat="40.0714013" lon="-105.2297973">
  <ele>1582.99</ele>
  <time>2026-09-02T20:50:42Z</time>
  <course>342.43</course>
  <speed>0.9425497334358544</speed>
  <fix>3d</fix>
</trkpt>
<trkpt lat="40.0714004" lon="-105.2297969">
  <ele>1582.99</ele>
  <time>2026-09-02T20:50:42Z</time>
  <course>342.48</course>
  <speed>0.93</speed>
  <fix>3d</fix>
</trkpt>
<trkpt lat="40.0714021" lon="-105.2297976">
  <ele>1582.99</ele>
  <time>2026-09-02T20:50:42Z</time>
  <course>342.37</course>
  <speed>0.9521029356114811</speed>
  <fix>3d</fix>
</trkpt>
<trkpt lat="40.0714004" lon="-105.2297969">
  <ele>1582.99</ele>
  <time>2026-09-02T20:50:42Z</time>
  <course>342.48</course>
  <speed>0.93</speed>
  <fix>3d</fix>
</trkpt>
<trkpt lat="40.0714028" lon="-105.2297979">
  <ele>1582.99</ele>
  <time>2026-09-02T20:50:42Z</time>
  <course>342.32</course>
  <speed>0.9550916186418976</speed>
  <fix>3d</fix>
</trkpt>
<trkpt lat="40.0714021" lon="-105.2297976">
  <ele>1582.99</ele>
  <time>2026-09-02T20:50:42Z</time>
  <course>342.34</course>
  <speed>0.95</speed>
  <fix>3d</fix>
</trkpt>
<trkpt lat="40.0714037" lon="-105.2297983">
  <ele>1582.99</ele>
  <time>2026-09-02T20:50:42Z</time>
  <course>342.27</course>
  <speed>0.9550916186418976</speed>
  <fix>3d</fix>
</trkpt>
<trkpt lat="40.0714021" lon="-105.2297976">
  <ele>1582.99</ele>
  <time>2026-09-02T20:50:42Z</time>
  <course>342.34</course>
  <speed>0.95</speed>
  <fix>3d</fix>
</trkpt>
<trkpt lat="40.0714045" lon="-105.2297986">
  <ele>1582.99</ele>
  <time>2026-09-02T20:50:42Z</time>
  <course>342.23</course>
  <speed>0.9550916186418976</speed>
  <fix>3d</fix>
</trkpt>
<trkpt lat="40.0714037" lon="-105.2297983">
  <ele>1582.99</ele>
  <time>2026-09-02T20:50:42Z</time>
  <course>342.24</course>
  <speed>0.95</speed>
  <fix>3d</fix>
</trkpt>
<trkpt lat="40.0714053" lon="-105.229799">
  <ele>1582.99</ele>
  <time>2026-09-02T20:50:42Z</time>
  <course>342.2</course>
  <speed>0.9550916186418976</speed>
  <fix>3d</fix>
</trkpt>
<trkpt lat="40.0714037" lon="-105.2297983">
  <ele>1582.99</ele>
  <time>2026-09-02T20:50:42Z</time>
  <course>342.24</course>
  <speed>0.95</speed>
  <fix>3d</fix>
</trkpt>
<trkpt lat="40.0714063" lon="-105.2297993">
  <ele>1582.99</ele>
  <time>2026-09-02T20:50:42Z</time>
  <course>342.18</course>
  <speed>0.945568612000208</speed>
  <fix>3d</fix>
</trkpt>
<trkpt lat="40.0714053" lon="-105.2297989">
  <ele>1582.99</ele>
  <time>2026-09-02T20:50:42Z</time>
  <course>342.17</course>
  <speed>0.95</speed>
  <fix>3d</fix>
</trkpt>
<trkpt lat="40.0714071" lon="-105.2297998">
  <ele>1582.99</ele>
  <time>2026-09-02T20:50:42Z</time>
  <course>342.17</course>
  <speed>0.9550916186418976</speed>
  <fix>3d</fix>
</trkpt>
<trkpt lat="40.0714053" lon="-105.2297989">
  <ele>1582.99</ele>
  <time>2026-09-02T20:50:42Z</time>
  <course>342.17</course>
  <speed>0.95</speed>
  <fix>3d</fix>
</trkpt>
<trkpt lat="40.071408" lon="-105.2298">
  <ele>1582.99</ele>
  <time>2026-09-02T20:50:42Z</time>
  <course>342.16</course>
  <speed>0.945568612000208</speed>
  <fix>3d</fix>
</trkpt>
<trkpt lat="40.0714069" lon="-105.2297996">
  <ele>1582.99</ele>
  <time>2026-09-02T20:50:42Z</time>
  <course>342.14</course>
  <speed>0.95</speed>
  <fix>3d</fix>
</trkpt>
<trkpt lat="40.0714088" lon="-105.2298005">
  <ele>1582.99</ele>
  <time>2026-09-02T20:50:42Z</time>
  <course>342.17</course>
  <speed>0.9550916186418976</speed>
  <fix>3d</fix>
</trkpt>
<trkpt lat="40.0714069" lon="-105.2297996">
  <ele>1582.99</ele>
  <time>2026-09-02T20:50:42Z</time>
  <course>342.14</course>
  <speed>0.95</speed>
  <fix>3d</fix>
</trkpt>
<trkpt lat="40.0714095" lon="-105.2298007">
  <ele>1582.99</ele>
  <time>2026-09-02T20:50:42Z</time>
  <course>342.18</course>
  <speed>0.945568612000208</speed>
  <fix>3d</fix>
</trkpt>
<trkpt lat="40.0714086" lon="-105.2298003">
  <ele>1582.99</ele>
  <time>2026-09-02T20:50:42Z</time>
  <course>342.13</course>
  <speed>0.95</speed>
  <fix>3d</fix>
</trkpt>
<trkpt lat="40.0714104" lon="-105.229801">
  <ele>1582.99</ele>
  <time>2026-09-02T20:50:42Z</time>
  <course>342.19</course>
  <speed>0.9550916186418976</speed>
  <fix>3d</fix>
</trkpt>
<trkpt lat="40.0714086" lon="-105.2298003">
  <ele>1582.99</ele>
  <time>2026-09-02T20:50:42Z</time>
  <course>342.13</course>
  <speed>0.95</speed>
  <fix>3d</fix>
</trkpt>
<trkpt lat="40.0714113" lon="-105.2298014">
  <ele>1582.99</ele>
  <time>2026-09-02T20:50:42Z</time>
  <course>342.21</course>
  <speed>0.945568612000208</speed>
  <fix>3d</fix>
</trkpt>
<trkpt lat="40.0714102" lon="-105.229801">
  <ele>1582.99</ele>
  <time>2026-09-02T20:50:42Z</time>
  <course>342.16</course>
  <speed>0.95</speed>
  <fix>3d</fix>
</trkpt>
<trkpt lat="40.071412" lon="-105.2298017">
  <ele>1582.99</ele>
  <time>2026-09-02T20:50:42Z</time>
  <course>342.23</course>
  <speed>0.9550916186418976</speed>
  <fix>3d</fix>
</trkpt>
<trkpt lat="40.0714102" lon="-105.229801">
  <ele>1582.99</ele>
  <time>2026-09-02T20:50:42Z</time>
  <course>342.16</course>
  <speed>0.95</speed>
  <fix>3d</fix>
</trkpt>
<trkpt lat="40.0714129" lon="-105.2298022">
  <ele>1582.99</ele>
  <time>2026-09-02T20:50:42Z</time>
  <course>342.26</course>
  <speed>0.945568612000208</speed>
  <fix>3d</fix>
</trkpt>
<trkpt lat="40.0714119" lon="-105.2298017">
  <ele>1582.99</ele>
  <time>2026-09-02T20:50:42Z</time>
  <course>342.2</course>
  <speed>0.95</speed>
  <fix>3d</fix>
</trkpt>
<trkpt lat="40.0714137" lon="-105.2298024">
  <ele>1582.99</ele>
  <time>2026-09-02T20:50:42Z</time>
  <course>342.3</course>
  <speed>0.9550916186418976</speed>
  <fix>3d</fix>
</trkpt>
<trkpt lat="40.0714119" lon="-105.2298017">
  <ele>1582.99</ele>
  <time>2026-09-02T20:50:42Z</time>
  <course>342.2</course>
  <speed>0.95</speed>
  <fix>3d</fix>
</trkpt>
<trkpt lat="40.0714144" lon="-105.2298029">
  <ele>1582.99</ele>
  <time>2026-09-02T20:50:42Z</time>
  <course>342.33</course>
  <speed>0.9550916186418976</speed>
  <fix>3d</fix>
</trkpt>
<trkpt lat="40.0714135" lon="-105.2298024">
  <ele>1582.99</ele>
  <time>2026-09-02T20:50:42Z</time>
  <course>342.26</course>
  <speed>0.95</speed>
  <fix>3d</fix>
</trkpt>
<trkpt lat="40.0714151" lon="-105.2298031">
  <ele>1582.99</ele>
  <time>2026-09-02T20:50:42Z</time>
  <course>342.37</course>
  <speed>0.9646242791885347</speed>
  <fix>3d</fix>
</trkpt>
<trkpt lat="40.0714135" lon="-105.2298024">
  <ele>1582.99</ele>
  <time>2026-09-02T20:50:42Z</time>
  <course>342.26</course>
  <speed>0.95</speed>
  <fix>3d</fix>
</trkpt>
<trkpt lat="40.071416" lon="-105.2298034">
  <ele>1582.99</ele>
  <time>2026-09-02T20:50:42Z</time>
  <course>342.41</course>
  <speed>0.9550916186418976</speed>
  <fix>3d</fix>
</trkpt>
<trkpt lat="40.0714151" lon="-105.2298031">
  <ele>1582.99</ele>
  <time>2026-09-02T20:50:42Z</time>
  <course>342.34</course>
  <speed>0.96</speed>
  <fix>3d</fix>
</trkpt>
<trkpt lat="40.0714168" lon="-105.2298038">
  <ele>1582.99</ele>
  <time>2026-09-02T20:50:42Z</time>
  <course>342.46</course>
  <speed>0.9741663102366043</speed>
  <fix>3d</fix>
</trkpt>
<trkpt lat="40.0714151" lon="-105.2298031">
  <ele>1582.99</ele>
  <time>2026-09-02T20:50:42Z</time>
  <course>342.34</course>
  <speed>0.96</speed>
  <fix>3d</fix>
</trkpt>
<trkpt lat="40.0714177" lon="-105.2298041">
  <ele>1582.99</ele>
  <time>2026-09-02T20:50:42Z</time>
  <course>342.51</course>
  <speed>0.9646242791885347</speed>
  <fix>3d</fix>
</trkpt>
<trkpt lat="40.0714168" lon="-105.2298038">
  <ele>1582.99</ele>
  <time>2026-09-02T20:50:42Z</time>
  <course>342.43</course>
  <speed>0.96</speed>
  <fix>3d</fix>
</trkpt>
<trkpt lat="40.0714185" lon="-105.2298045">
  <ele>1582.99</ele>
  <time>2026-09-02T20:50:42Z</time>
  <course>342.55</course>
  <speed>0.9646242791885347</speed>
  <fix>3d</fix>
</trkpt>
<trkpt lat="40.0714168" lon="-105.2298038">
  <ele>1582.99</ele>
  <time>2026-09-02T20:50:42Z</time>
  <course>342.43</course>
  <speed>0.96</speed>
  <fix>3d</fix>
</trkpt>
<trkpt lat="40.0714193" lon="-105.2298048">
  <ele>1582.99</ele>
  <time>2026-09-02T20:50:42Z</time>
  <course>342.6</course>
  <speed>0.9646242791885347</speed>
  <fix>3d</fix>
</trkpt>
<trkpt lat="40.0714185" lon="-105.2298045">
  <ele>1582.99</ele>
  <time>2026-09-02T20:50:42Z</time>
  <course>342.52</course>
  <speed>0.96</speed>
  <fix>3d</fix>
</trkpt>
<trkpt lat="40.0714202" lon="-105.2298052">
  <ele>1582.99</ele>
  <time>2026-09-02T20:50:42Z</time>
  <course>342.66</course>
  <speed>0.9646242791885347</speed>
  <fix>3d</fix>
</trkpt>
<trkpt lat="40.0714185" lon="-105.2298045">
  <ele>1582.99</ele>
  <time>2026-09-02T20:50:42Z</time>
  <course>342.52</course>
  <speed>0.96</speed>
  <fix>3d</fix>
</trkpt>
<trkpt lat="40.071421" lon="-105.2298055">
  <ele>1582.99</ele>
  <time>2026-09-02T20:50:42Z</time>
  <course>342.72</course>
  <speed>0.9741663102366043</speed>
  <fix>3d</fix>
</trkpt>
<trkpt lat="40.0714202" lon="-105.2298051">
  <ele>1582.99</ele>
  <time>2026-09-02T20:50:42Z</time>
  <course>342.63</course>
  <speed>0.97</speed>
  <fix>3d</fix>
</trkpt>
<trkpt lat="40.0714219" lon="-105.2298059">
  <ele>1582.99</ele>
  <time>2026-09-02T20:50:42Z</time>
  <course>342.77</course>
  <speed>0.9712363255150623</speed>
  <fix>3d</fix>
</trkpt>
<trkpt lat="40.0714202" lon="-105.2298051">
  <ele>1582.99</ele>
  <time>2026-09-02T20:50:42Z</time>
  <course>342.63</course>
  <speed>0.97</speed>
  <fix>3d</fix>
</trkpt>
<trkpt lat="40.0714227" lon="-105.2298062">
  <ele>1582.99</ele>
  <time>2026-09-02T20:50:42Z</time>
  <course>342.83</course>
  <speed>0.9616652224137046</speed>
  <fix>3d</fix>
</trkpt>
<trkpt lat="40.0714218" lon="-105.2298058">
  <ele>1582.99</ele>
  <time>2026-09-02T20:50:42Z</time>
  <course>342.74</course>
  <speed>0.97</speed>
  <fix>3d</fix>
</trkpt>
<trkpt lat="40.0714236" lon="-105.2298065">
  <ele>1582.99</ele>
  <time>2026-09-02T20:50:42Z</time>
  <course>342.9</course>
  <speed>0.9837174391053561</speed>
  <fix>3d</fix>
</trkpt>
<trkpt lat="40.0714218" lon="-105.2298058">
  <ele>1582.99</ele>
  <time>2026-09-02T20:50:42Z</time>
  <course>342.74</course>
  <speed>0.97</speed>
  <fix>3d</fix>
</trkpt>
<trkpt lat="40.0714245" lon="-105.2298069">
  <ele>1582.99</ele>
  <time>2026-09-02T20:50:42Z</time>
  <course>342.96</course>
  <speed>0.9616652224137046</speed>
  <fix>3d</fix>
</trkpt>
<trkpt lat="40.0714235" lon="-105.2298065">
  <ele>1582.99</ele>
  <time>2026-09-02T20:50:42Z</time>
  <course>342.86</course>
  <speed>0.97</speed>
  <fix>3d</fix>
</trkpt>
<trkpt lat="40.0714253" lon="-105.2298072">
  <ele>1582.99</ele>
  <time>2026-09-02T20:50:42Z</time>
  <course>343.02</course>
  <speed>0.9808159868191383</speed>
  <fix>3d</fix>
</trkpt>
<trkpt lat="40.0714235" lon="-105.2298065">
  <ele>1582.99</ele>
  <time>2026-09-02T20:50:42Z</time>
  <course>342.86</course>
  <speed>0.97</speed>
  <fix>3d</fix>
</trkpt>
<trkpt lat="40.0714262" lon="-105.2298076">
  <ele>1582.99</ele>
  <time>2026-09-02T20:50:42Z</time>
  <course>343.08</course>
  <speed>0.9712363255150623</speed>
  <fix>3d</fix>
</trkpt>
<trkpt lat="40.0714252" lon="-105.2298072">
  <ele>1582.99</ele>
  <time>2026-09-02T20:50:42Z</time>
  <course>342.97</course>
  <speed>0.97</speed>
  <fix>3d</fix>
</trkpt>
<trkpt lat="40.0714271" lon="-105.2298079">
  <ele>1582.99</ele>
  <time>2026-09-02T20:50:42Z</time>
  <course>343.14</course>
  <speed>0.9712363255150623</speed>
  <fix>3d</fix>
</trkpt>
<trkpt lat="40.0714252" lon="-105.2298072">
  <ele>1582.99</ele>
  <time>2026-09-02T20:50:42Z</time>
  <course>342.97</course>
  <speed>0.97</speed>
  <fix>3d</fix>
</trkpt>
<trkpt lat="40.0714278" lon="-105.2298083">
  <ele>1582.99</ele>
  <time>2026-09-02T20:50:42Z</time>
  <course>343.19</course>
  <speed>0.9808159868191383</speed>
  <fix>3d</fix>
</trkpt>
<trkpt lat="40.0714269" lon="-105.2298079">
  <ele>1582.99</ele>
  <time>2026-09-02T20:50:42Z</time>
  <course>343.09</course>
  <speed>0.97</speed>
  <fix>3d</fix>
</trkpt>
<trkpt lat="40.0714287" lon="-105.2298086">
  <ele>1582.99</ele>
  <time>2026-09-02T20:50:42Z</time>
  <course>343.25</course>
  <speed>0.9712363255150623</speed>
  <fix>3d</fix>
</trkpt>
<trkpt lat="40.0714269" lon="-105.2298079">
  <ele>1582.99</ele>
  <time>2026-09-02T20:50:42Z</time>
  <course>343.09</course>
  <speed>0.97</speed>
  <fix>3d</fix>
</trkpt>
<trkpt lat="40.0714295" lon="-105.2298089">
  <ele>1582.99</ele>
  <time>2026-09-02T20:50:42Z</time>
  <course>343.31</course>
  <speed>0.9808159868191383</speed>
  <fix>3d</fix>
</trkpt>
<trkpt lat="40.0714285" lon="-105.2298085">
  <ele>1582.99</ele>
  <time>2026-09-02T20:50:42Z</time>
  <course>343.21</course>
  <speed>0.98</speed>
  <fix>3d</fix>
</trkpt>
<trkpt lat="40.0714303" lon="-105.2298093">
  <ele>1582.99</ele>
  <time>2026-09-02T20:50:42Z</time>
  <course>343.37</course>
  <speed>0.9712363255150623</speed>
  <fix>3d</fix>
</trkpt>
<trkpt lat="40.0714285" lon="-105.2298085">
  <ele>1582.99</ele>
  <time>2026-09-02T20:50:42Z</time>
  <course>343.21</course>
  <speed>0.98</speed>
  <fix>3d</fix>
</trkpt>
<trkpt lat="40.0714313" lon="-105.2298096">
  <ele>1582.99</ele>
  <time>2026-09-02T20:50:42Z</time>
  <course>343.43</course>
  <speed>0.9808159868191383</speed>
  <fix>3d</fix>
</trkpt>
<trkpt lat="40.0714302" lon="-105.2298092">
  <ele>1582.99</ele>
  <time>2026-09-02T20:50:42Z</time>
  <course>343.33</course>
  <speed>0.98</speed>
  <fix>3d</fix>
</trkpt>
<trkpt lat="40.071432" lon="-105.22981">
  <ele>1582.99</ele>
  <time>2026-09-02T20:50:42Z</time>
  <course>343.48</course>
  <speed>0.9684007434941384</speed>
  <fix>3d</fix>
</trkpt>
<trkpt lat="40.0714302" lon="-105.2298092">
  <ele>1582.99</ele>
  <time>2026-09-02T20:50:42Z</time>
  <course>343.33</course>
  <speed>0.98</speed>
  <fix>3d</fix>
</trkpt>
<trkpt lat="40.0714327" lon="-105.2298101">
  <ele>1582.99</ele>
  <time>2026-09-02T20:50:42Z</time>
  <course>343.53</course>
  <speed>0.9808159868191383</speed>
  <fix>3d</fix>
</trkpt>
<trkpt lat="40.0714319" lon="-105.2298098">
  <ele>1582.99</ele>
  <time>2026-09-02T20:50:42Z</time>
  <course>343.44</course>
  <speed>0.98</speed>
  <fix>3d</fix>
</trkpt>
<trkpt lat="40.0714337" lon="-105.2298105">
  <ele>1582.99</ele>
  <time>2026-09-02T20:50:42Z</time>
  <course>343.58</course>
  <speed>0.978008179924892</speed>
  <fix>3d</fix>
</trkpt>
<trkpt lat="40.0714319" lon="-105.2298098">
  <ele>1582.99</ele>
  <time>2026-09-02T20:50:42Z</time>
  <course>343.44</course>
  <speed>0.98</speed>
  <fix>3d</fix>
</trkpt>
<trkpt lat="40.0714344" lon="-105.2298108">
  <ele>1582.99</ele>
  <time>2026-09-02T20:50:42Z</time>
  <course>343.63</course>
  <speed>0.978008179924892</speed>
  <fix>3d</fix>
</trkpt>
<trkpt lat="40.0714336" lon="-105.2298105">
  <ele>1582.99</ele>
  <time>2026-09-02T20:50:42Z</time>
  <course>343.55</course>
  <speed>0.98</speed>
  <fix>3d</fix>
</trkpt>
<trkpt lat="40.0714354" lon="-105.2298112">
  <ele>1582.99</ele>
  <time>2026-09-02T20:50:42Z</time>
  <course>343.69</course>
  <speed>0.978008179924892</speed>
  <fix>3d</fix>
</trkpt>
<trkpt lat="40.0714336" lon="-105.2298105">
  <ele>1582.99</ele>
  <time>2026-09-02T20:50:42Z</time>
  <course>343.55</course>
  <speed>0.98</speed>
  <fix>3d</fix>
</trkpt>
<trkpt lat="40.0714362" lon="-105.2298115">
  <ele>1582.99</ele>
  <time>2026-09-02T20:50:42Z</time>
  <course>343.74</course>
  <speed>0.978008179924892</speed>
  <fix>3d</fix>
</trkpt>
<trkpt lat="40.0714353" lon="-105.2298112">
  <ele>1582.99</ele>
  <time>2026-09-02T20:50:42Z</time>
  <course>343.66</course>
  <speed>0.98</speed>
  <fix>3d</fix>
</trkpt>
<trkpt lat="40.0714371" lon="-105.2298117">
  <ele>1582.99</ele>
  <time>2026-09-02T20:50:42Z</time>
  <course>343.79</course>
  <speed>0.978008179924892</speed>
  <fix>3d</fix>
</trkpt>
<trkpt lat="40.0714353" lon="-105.2298112">
  <ele>1582.99</ele>
  <time>2026-09-02T20:50:42Z</time>
  <course>343.66</course>
  <speed>0.98</speed>
  <fix>3d</fix>
</trkpt>
<trkpt lat="40.0714379" lon="-105.2298122">
  <ele>1582.99</ele>
  <time>2026-09-02T20:50:42Z</time>
  <course>343.84</course>
  <speed>0.978008179924892</speed>
  <fix>3d</fix>
</trkpt>
<trkpt lat="40.071437" lon="-105.2298118">
  <ele>1582.99</ele>
  <time>2026-09-02T20:50:42Z</time>
  <course>343.76</course>
  <speed>0.98</speed>
  <fix>3d</fix>
</trkpt>
<trkpt lat="40.0714387" lon="-105.2298125">
  <ele>1582.99</ele>
  <time>2026-09-02T20:50:42Z</time>
  <course>343.88</course>
  <speed>0.978008179924892</speed>
  <fix>3d</fix>
</trkpt>
<trkpt lat="40.071437" lon="-105.2298118">
  <ele>1582.99</ele>
  <time>2026-09-02T20:50:42Z</time>
  <course>343.76</course>
  <speed>0.98</speed>
  <fix>3d</fix>
</trkpt>
<trkpt lat="40.0714396" lon="-105.2298127">
  <ele>1582.99</ele>
  <time>2026-09-02T20:50:42Z</time>
  <course>343.93</course>
  <speed>0.9876234100101111</speed>
  <fix>3d</fix>
</trkpt>
<trkpt lat="40.0714387" lon="-105.2298125">
  <ele>1582.99</ele>
  <time>2026-09-02T20:50:42Z</time>
  <course>343.85</course>
  <speed>0.98</speed>
  <fix>3d</fix>
</trkpt>
<trkpt lat="40.0714405" lon="-105.2298131">
  <ele>1582.99</ele>
  <time>2026-09-02T20:50:42Z</time>
  <course>343.97</course>
  <speed>0.978008179924892</speed>
  <fix>3d</fix>
</trkpt>
<trkpt lat="40.0714387" lon="-105.2298125">
  <ele>1582.99</ele>
  <time>2026-09-02T20:50:42Z</time>
  <course>343.85</course>
  <speed>0.98</speed>
  <fix>3d</fix>
</trkpt>
<trkpt lat="40.0714415" lon="-105.2298134">
  <ele>1582.99</ele>
  <time>2026-09-02T20:50:42Z</time>
  <course>344.02</course>
  <speed>0.9876234100101111</speed>
  <fix>3d</fix>
</trkpt>
<trkpt lat="40.0714404" lon="-105.2298131">
  <ele>1582.99</ele>
  <time>2026-09-02T20:50:42Z</time>
  <course>343.94</course>
  <speed>0.99</speed>
  <fix>3d</fix>
</trkpt>
<trkpt lat="40.0714423" lon="-105.2298138">
  <ele>1582.99</ele>
  <time>2026-09-02T20:50:42Z</time>
  <course>344.06</course>
  <speed>0.9876234100101111</speed>
  <fix>3d</fix>
</trkpt>
<trkpt lat="40.0714404" lon="-105.2298131">
  <ele>1582.99</ele>
  <time>2026-09-02T20:50:42Z</time>
  <course>343.94</course>
  <speed>0.99</speed>
  <fix>3d</fix>
</trkpt>
<trkpt lat="40.0714432" lon="-105.2298141">
  <ele>1582.99</ele>
  <time>2026-09-02T20:50:42Z</time>
  <course>344.1</course>
  <speed>0.9876234100101111</speed>
  <fix>3d</fix>
</trkpt>
<trkpt lat="40.0714421" lon="-105.2298137">
  <ele>1582.99</ele>
  <time>2026-09-02T20:50:42Z</time>
  <course>344.03</course>
  <speed>0.99</speed>
  <fix>3d</fix>
</trkpt>
<trkpt lat="40.0714441" lon="-105.2298144">
  <ele>1582.99</ele>
  <time>2026-09-02T20:50:42Z</time>
  <course>344.14</course>
  <speed>0.978008179924892</speed>
  <fix>3d</fix>
</trkpt>
<trkpt lat="40.0714421" lon="-105.2298137">
  <ele>1582.99</ele>
  <time>2026-09-02T20:50:42Z</time>
  <course>344.03</course>
  <speed>0.99</speed>
  <fix>3d</fix>
</trkpt>
<trkpt lat="40.0714448" lon="-105.2298148">
  <ele>1582.99</ele>
  <time>2026-09-02T20:50:42Z</time>
  <course>344.17</course>
  <speed>0.9876234100101111</speed>
  <fix>3d</fix>
</trkpt>
<trkpt lat="40.0714438" lon="-105.2298144">
  <ele>1582.99</ele>
  <time>2026-09-02T20:50:42Z</time>
  <course>344.1</course>
  <speed>0.99</speed>
  <fix>3d</fix>
</trkpt>
<trkpt lat="40.0714458" lon="-105.2298151">
  <ele>1582.99</ele>
  <time>2026-09-02T20:50:42Z</time>
  <course>344.21</course>
  <speed>0.9752948272189288</speed>
  <fix>3d</fix>
</trkpt>
<trkpt lat="40.0714438" lon="-105.2298144">
  <ele>1582.99</ele>
  <time>2026-09-02T20:50:42Z</time>
  <course>344.1</course>
  <speed>0.99</speed>
  <fix>3d</fix>
</trkpt>
<trkpt lat="40.0714466" lon="-105.2298153">
  <ele>1582.99</ele>
  <time>2026-09-02T20:50:42Z</time>
  <course>344.24</course>
  <speed>0.9876234100101111</speed>
  <fix>3d</fix>
</trkpt>
<trkpt lat="40.0714456" lon="-105.229815">
  <ele>1582.99</ele>
  <time>2026-09-02T20:50:42Z</time>
  <course>344.17</course>
  <speed>0.99</speed>
  <fix>3d</fix>
</trkpt>
<trkpt lat="40.0714475" lon="-105.2298156">
  <ele>1582.99</ele>
  <time>2026-09-02T20:50:42Z</time>
  <course>344.27</course>
  <speed>0.9752948272189288</speed>
  <fix>3d</fix>
</trkpt>
<trkpt lat="40.0714456" lon="-105.229815">
  <ele>1582.99</ele>
  <time>2026-09-02T20:50:42Z</time>
  <course>344.17</course>
  <speed>0.99</speed>
  <fix>3d</fix>
</trkpt>
<trkpt lat="40.0714483" lon="-105.229816">
  <ele>1582.99</ele>
  <time>2026-09-02T20:50:42Z</time>
  <course>344.3</course>
  <speed>0.9972462083156798</speed>
  <fix>3d</fix>
</trkpt>
<trkpt lat="40.0714473" lon="-105.2298156">
  <ele>1582.99</ele>
  <time>2026-09-02T20:50:42Z</time>
  <course>344.24</course>
  <speed>0.99</speed>
  <fix>3d</fix>
</trkpt>
<trkpt lat="40.0714491" lon="-105.2298163">
  <ele>1582.99</ele>
  <time>2026-09-02T20:50:42Z</time>
  <course>344.33</course>
  <speed>0.9849365461794989</speed>
  <fix>3d</fix>
</trkpt>
<trkpt lat="40.0714473" lon="-105.2298156">
  <ele>1582.99</ele>
  <time>2026-09-02T20:50:42Z</time>
  <course>344.24</course>
  <speed>0.99</speed>
  <fix>3d</fix>
</trkpt>
<trkpt lat="40.0714501" lon="-105.2298167">
  <ele>1582.99</ele>
  <time>2026-09-02T20:50:42Z</time>
  <course>344.36</course>
  <speed>0.9849365461794989</speed>
  <fix>3d</fix>
</trkpt>
<trkpt lat="40.071449" lon="-105.2298163">
  <ele>1582.99</ele>
  <time>2026-09-02T20:50:42Z</time>
  <course>344.3</course>
  <speed>0.99</speed>
  <fix>3d</fix>
</trkpt>
<trkpt lat="40.0714508" lon="-105.2298168">
  <ele>1582.99</ele>
  <time>2026-09-02T20:50:42Z</time>
  <course>344.38</course>
  <speed>0.9849365461794989</speed>
  <fix>3d</fix>
</trkpt>
<trkpt lat="40.071449" lon="-105.2298163">
  <ele>1582.99</ele>
  <time>2026-09-02T20:50:42Z</time>
  <course>344.3</course>
  <speed>0.99</speed>
  <fix>3d</fix>
</trkpt>
<trkpt lat="40.0714515" lon="-105.2298172">
  <ele>1582.99</ele>
  <time>2026-09-02T20:50:42Z</time>
  <course>344.4</course>
  <speed>0.9849365461794989</speed>
  <fix>3d</fix>
</trkpt>
<trkpt lat="40.0714507" lon="-105.2298169">
  <ele>1582.99</ele>
  <time>2026-09-02T20:50:42Z</time>
  <course>344.35</course>
  <speed>0.99</speed>
  <fix>3d</fix>
</trkpt>
<trkpt lat="40.0714525" lon="-105.2298175">
  <ele>1582.99</ele>
  <time>2026-09-02T20:50:42Z</time>
  <course>344.42</course>
  <speed>0.9849365461794989</speed>
  <fix>3d</fix>
</trkpt>
<trkpt lat="40.0714507" lon="-105.2298169">
  <ele>1582.99</ele>
  <time>2026-09-02T20:50:42Z</time>
  <course>344.35</course>
  <speed>0.99</speed>
  <fix>3d</fix>
</trkpt>
<trkpt lat="40.0714533" lon="-105.2298179">
  <ele>1582.99</ele>
  <time>2026-09-02T20:50:42Z</time>
  <course>344.44</course>
  <speed>0.9849365461794989</speed>
  <fix>3d</fix>
</trkpt>
<trkpt lat="40.0714524" lon="-105.2298175">
  <ele>1582.99</ele>
  <time>2026-09-02T20:50:42Z</time>
  <course>344.39</course>
  <speed>0.99</speed>
  <fix>3d</fix>
</trkpt>
<trkpt lat="40.0714542" lon="-105.2298182">
  <ele>1583.0</ele>
  <time>2026-09-02T20:50:42Z</time>
  <course>344.46</course>
  <speed>0.9849365461794989</speed>
  <fix>3d</fix>
</trkpt>
<trkpt lat="40.0714524" lon="-105.2298175">
  <ele>1582.99</ele>
  <time>2026-09-02T20:50:42Z</time>
  <course>344.39</course>
  <speed>0.99</speed>
  <fix>3d</fix>
</trkpt>
<trkpt lat="40.071455" lon="-105.2298184">
  <ele>1583.0</ele>
  <time>2026-09-02T20:50:42Z</time>
  <course>344.48</course>
  <speed>0.9849365461794989</speed>
  <fix>3d</fix>
</trkpt>
<trkpt lat="40.0714541" lon="-105.2298182">
  <ele>1582.99</ele>
  <time>2026-09-02T20:50:42Z</time>
  <course>344.43</course>
  <speed>0.99</speed>
  <fix>3d</fix>
</trkpt>
<trkpt lat="40.0714558" lon="-105.2298187">
  <ele>1582.99</ele>
  <time>2026-09-02T20:50:42Z</time>
  <course>344.5</course>
  <speed>0.9849365461794989</speed>
  <fix>3d</fix>
</trkpt>
<trkpt lat="40.0714541" lon="-105.2298182">
  <ele>1582.99</ele>
  <time>2026-09-02T20:50:42Z</time>
  <course>344.43</course>
  <speed>0.99</speed>
  <fix>3d</fix>
</trkpt>
<trkpt lat="40.0714568" lon="-105.2298191">
  <ele>1582.99</ele>
  <time>2026-09-02T20:50:42Z</time>
  <course>344.52</course>
  <speed>0.9849365461794989</speed>
  <fix>3d</fix>
</trkpt>
<trkpt lat="40.0714559" lon="-105.2298188">
  <ele>1582.99</ele>
  <time>2026-09-02T20:50:42Z</time>
  <course>344.47</course>
  <speed>0.99</speed>
  <fix>3d</fix>
</trkpt>
<trkpt lat="40.0714575" lon="-105.2298194">
  <ele>1582.99</ele>
  <time>2026-09-02T20:50:42Z</time>
  <course>344.53</course>
  <speed>0.9849365461794989</speed>
  <fix>3d</fix>
</trkpt>
<trkpt lat="40.0714559" lon="-105.2298188">
  <ele>1582.99</ele>
  <time>2026-09-02T20:50:42Z</time>
  <course>344.47</course>
  <speed>0.99</speed>
  <fix>3d</fix>
</trkpt>
<trkpt lat="40.0714587" lon="-105.2298198">
  <ele>1582.99</ele>
  <time>2026-09-02T20:50:42Z</time>
  <course>344.55</course>
  <speed>0.9849365461794989</speed>
  <fix>3d</fix>
</trkpt>
<trkpt lat="40.0714576" lon="-105.2298194">
  <ele>1582.99</ele>
  <time>2026-09-02T20:50:42Z</time>
  <course>344.51</course>
  <speed>0.99</speed>
  <fix>3d</fix>
</trkpt>
<trkpt lat="40.0714594" lon="-105.2298201">
  <ele>1582.99</ele>
  <time>2026-09-02T20:50:42Z</time>
  <course>344.56</course>
  <speed>0.9849365461794989</speed>
  <fix>3d</fix>
</trkpt>
<trkpt lat="40.0714576" lon="-105.2298194">
  <ele>1582.99</ele>
  <time>2026-09-02T20:50:42Z</time>
  <course>344.51</course>
  <speed>0.99</speed>
  <fix>3d</fix>
</trkpt>
<trkpt lat="40.0714604" lon="-105.2298204">
  <ele>1582.99</ele>
  <time>2026-09-02T20:50:42Z</time>
  <course>344.58</course>
  <speed>0.9849365461794989</speed>
  <fix>3d</fix>
</trkpt>
<trkpt lat="40.0714593" lon="-105.2298201">
  <ele>1582.99</ele>
  <time>2026-09-02T20:50:42Z</time>
  <course>344.53</course>
  <speed>0.99</speed>
  <fix>3d</fix>
</trkpt>
<trkpt lat="40.0714612" lon="-105.2298206">
  <ele>1582.99</ele>
  <time>2026-09-02T20:50:42Z</time>
  <course>344.59</course>
  <speed>0.9849365461794989</speed>
  <fix>3d</fix>
</trkpt>
<trkpt lat="40.0714593" lon="-105.2298201">
  <ele>1582.99</ele>
  <time>2026-09-02T20:50:42Z</time>
  <course>344.53</course>
  <speed>0.99</speed>
  <fix>3d</fix>
</trkpt>
<trkpt lat="40.0714621" lon="-105.2298211">
  <ele>1582.99</ele>
  <time>2026-09-02T20:50:42Z</time>
  <course>344.59</course>
  <speed>0.9945853407325085</speed>
  <fix>3d</fix>
</trkpt>
<trkpt lat="40.071461" lon="-105.2298207">
  <ele>1582.99</ele>
  <time>2026-09-02T20:50:42Z</time>
  <course>344.56</course>
  <speed>0.99</speed>
  <fix>3d</fix>
</trkpt>
<trkpt lat="40.071463" lon="-105.2298213">
  <ele>1582.99</ele>
  <time>2026-09-02T20:50:42Z</time>
  <course>344.6</course>
  <speed>0.9849365461794989</speed>
  <fix>3d</fix>
</trkpt>
<trkpt lat="40.071461" lon="-105.2298207">
  <ele>1582.99</ele>
  <time>2026-09-02T20:50:42Z</time>
  <course>344.56</course>
  <speed>0.99</speed>
  <fix>3d</fix>
</trkpt>
<trkpt lat="40.0714637" lon="-105.2298217">
  <ele>1582.99</ele>
  <time>2026-09-02T20:50:42Z</time>
  <course>344.61</course>
  <speed>0.9945853407325085</speed>
  <fix>3d</fix>
</trkpt>
<trkpt lat="40.0714627" lon="-105.2298213">
  <ele>1582.99</ele>
  <time>2026-09-02T20:50:42Z</time>
  <course>344.57</course>
  <speed>0.99</speed>
  <fix>3d</fix>
</trkpt>
<trkpt lat="40.0714647" lon="-105.229822">
  <ele>1582.99</ele>
  <time>2026-09-02T20:50:42Z</time>
  <course>344.61</course>
  <speed>0.9849365461794989</speed>
  <fix>3d</fix>
</trkpt>
<trkpt lat="40.0714627" lon="-105.2298213">
  <ele>1582.99</ele>
  <time>2026-09-02T20:50:42Z</time>
  <course>344.57</course>
  <speed>0.99</speed>
  <fix>3d</fix>
</trkpt>
<trkpt lat="40.0714654" lon="-105.2298223">
  <ele>1582.99</ele>
  <time>2026-09-02T20:50:42Z</time>
  <course>344.62</course>
  <speed>0.9945853407325085</speed>
  <fix>3d</fix>
</trkpt>
<trkpt lat="40.0714645" lon="-105.2298218">
  <ele>1582.99</ele>
  <time>2026-09-02T20:50:42Z</time>
  <course>344.59</course>
  <speed>0.99</speed>
  <fix>3d</fix>
</trkpt>
<trkpt lat="40.0714664" lon="-105.2298225">
  <ele>1582.99</ele>
  <time>2026-09-02T20:50:42Z</time>
  <course>344.63</course>
  <speed>0.9849365461794989</speed>
  <fix>3d</fix>
</trkpt>
<trkpt lat="40.0714645" lon="-105.2298218">
  <ele>1582.99</ele>
  <time>2026-09-02T20:50:42Z</time>
  <course>344.59</course>
  <speed>0.99</speed>
  <fix>3d</fix>
</trkpt>
<trkpt lat="40.0714672" lon="-105.2298229">
  <ele>1582.99</ele>
  <time>2026-09-02T20:50:42Z</time>
  <course>344.63</course>
  <speed>0.9945853407325085</speed>
  <fix>3d</fix>
</trkpt>
<trkpt lat="40.0714662" lon="-105.2298225">
  <ele>1582.99</ele>
  <time>2026-09-02T20:50:42Z</time>
  <course>344.6</course>
  <speed>0.99</speed>
  <fix>3d</fix>
</trkpt>
<trkpt lat="40.0714681" lon="-105.2298232">
  <ele>1582.99</ele>
  <time>2026-09-02T20:50:42Z</time>
  <course>344.63</course>
  <speed>0.9849365461794989</speed>
  <fix>3d</fix>
</trkpt>
<trkpt lat="40.0714662" lon="-105.2298225">
  <ele>1582.99</ele>
  <time>2026-09-02T20:50:42Z</time>
  <course>344.6</course>
  <speed>0.99</speed>
  <fix>3d</fix>
</trkpt>
<trkpt lat="40.0714688" lon="-105.2298235">
  <ele>1582.99</ele>
  <time>2026-09-02T20:50:42Z</time>
  <course>344.63</course>
  <speed>0.9945853407325085</speed>
  <fix>3d</fix>
</trkpt>
<trkpt lat="40.0714679" lon="-105.2298232">
  <ele>1582.99</ele>
  <time>2026-09-02T20:50:42Z</time>
  <course>344.6</course>
  <speed>0.99</speed>
  <fix>3d</fix>
</trkpt>
<trkpt lat="40.0714697" lon="-105.2298237">
  <ele>1582.99</ele>
  <time>2026-09-02T20:50:42Z</time>
  <course>344.64</course>
  <speed>0.9849365461794989</speed>
  <fix>3d</fix>
</trkpt>
<trkpt lat="40.0714679" lon="-105.2298232">
  <ele>1582.99</ele>
  <time>2026-09-02T20:50:42Z</time>
  <course>344.6</course>
  <speed>0.99</speed>
  <fix>3d</fix>
</trkpt>
<trkpt lat="40.0714706" lon="-105.2298241">
  <ele>1582.99</ele>
  <time>2026-09-02T20:50:42Z</time>
  <course>344.64</course>
  <speed>0.9849365461794989</speed>
  <fix>3d</fix>
</trkpt>
<trkpt lat="40.0714696" lon="-105.2298237">
  <ele>1582.99</ele>
  <time>2026-09-02T20:50:42Z</time>
  <course>344.61</course>
  <speed>0.99</speed>
  <fix>3d</fix>
</trkpt>
<trkpt lat="40.0714714" lon="-105.2298244">
  <ele>1582.99</ele>
  <time>2026-09-02T20:50:42Z</time>
  <course>344.64</course>
  <speed>0.9945853407325085</speed>
  <fix>3d</fix>
</trkpt>
<trkpt lat="40.0714696" lon="-105.2298237">
  <ele>1582.99</ele>
  <time>2026-09-02T20:50:42Z</time>
  <course>344.61</course>
  <speed>0.99</speed>
  <fix>3d</fix>
</trkpt>
<trkpt lat="40.0714722" lon="-105.2298247">
  <ele>1582.99</ele>
  <time>2026-09-02T20:50:42Z</time>
  <course>344.64</course>
  <speed>0.9945853407325085</speed>
  <fix>3d</fix>
</trkpt>
<trkpt lat="40.0714714" lon="-105.2298244">
  <ele>1582.99</ele>
  <time>2026-09-02T20:50:42Z</time>
  <course>344.61</course>
  <speed>0.99</speed>
  <fix>3d</fix>
</trkpt>
<trkpt lat="40.0714731" lon="-105.2298249">
  <ele>1582.99</ele>
  <time>2026-09-02T20:50:42Z</time>
  <course>344.64</course>
  <speed>0.9849365461794989</speed>
  <fix>3d</fix>
</trkpt>
<trkpt lat="40.0714714" lon="-105.2298244">
  <ele>1582.99</ele>
  <time>2026-09-02T20:50:42Z</time>
  <course>344.61</course>
  <speed>0.99</speed>
  <fix>3d</fix>
</trkpt>
<trkpt lat="40.0714739" lon="-105.2298253">
  <ele>1582.99</ele>
  <time>2026-09-02T20:50:42Z</time>
  <course>344.64</course>
  <speed>0.9945853407325085</speed>
  <fix>3d</fix>
</trkpt>
<trkpt lat="40.0714731" lon="-105.229825">
  <ele>1582.99</ele>
  <time>2026-09-02T20:50:42Z</time>
  <course>344.61</course>
  <speed>1.0</speed>
  <fix>3d</fix>
</trkpt>
<trkpt lat="40.0714749" lon="-105.2298256">
  <ele>1582.99</ele>
  <time>2026-09-02T20:50:42Z</time>
  <course>344.64</course>
  <speed>0.9849365461794989</speed>
  <fix>3d</fix>
</trkpt>
<trkpt lat="40.0714731" lon="-105.229825">
  <ele>1582.99</ele>
  <time>2026-09-02T20:50:42Z</time>
  <course>344.61</course>
  <speed>1.0</speed>
  <fix>3d</fix>
</trkpt>
<trkpt lat="40.0714757" lon="-105.2298259">
  <ele>1582.99</ele>
  <time>2026-09-02T20:50:42Z</time>
  <course>344.63</course>
  <speed>0.9945853407325085</speed>
  <fix>3d</fix>
</trkpt>
<trkpt lat="40.0714748" lon="-105.2298256">
  <ele>1582.99</ele>
  <time>2026-09-02T20:50:42Z</time>
  <course>344.61</course>
  <speed>1.0</speed>
  <fix>3d</fix>
</trkpt>
<trkpt lat="40.0714768" lon="-105.2298263">
  <ele>1582.99</ele>
  <time>2026-09-02T20:50:42Z</time>
  <course>344.63</course>
  <speed>0.9849365461794989</speed>
  <fix>3d</fix>
</trkpt>
<trkpt lat="40.0714748" lon="-105.2298256">
  <ele>1582.99</ele>
  <time>2026-09-02T20:50:42Z</time>
  <course>344.61</course>
  <speed>1.0</speed>
  <fix>3d</fix>
</trkpt>
<trkpt lat="40.0714776" lon="-105.2298266">
  <ele>1582.99</ele>
  <time>2026-09-02T20:50:42Z</time>
  <course>344.63</course>
  <speed>0.9945853407325085</speed>
  <fix>3d</fix>
</trkpt>
<trkpt lat="40.0714765" lon="-105.2298262">
  <ele>1582.99</ele>
  <time>2026-09-02T20:50:42Z</time>
  <course>344.6</course>
  <speed>1.0</speed>
  <fix>3d</fix>
</trkpt>
<trkpt lat="40.0714785" lon="-105.229827">
  <ele>1582.99</ele>
  <time>2026-09-02T20:50:42Z</time>
  <course>344.63</course>
  <speed>0.9849365461794989</speed>
  <fix>3d</fix>
</trkpt>
<trkpt lat="40.0714765" lon="-105.2298262">
  <ele>1582.99</ele>
  <time>2026-09-02T20:50:42Z</time>
  <course>344.6</course>
  <speed>1.0</speed>
  <fix>3d</fix>
</trkpt>
<trkpt lat="40.0714794" lon="-105.2298273">
  <ele>1582.99</ele>
  <time>2026-09-02T20:50:42Z</time>
  <course>344.62</course>
  <speed>0.9945853407325085</speed>
  <fix>3d</fix>
</trkpt>
<trkpt lat="40.0714783" lon="-105.2298268">
  <ele>1582.99</ele>
  <time>2026-09-02T20:50:42Z</time>
  <course>344.6</course>
  <speed>1.0</speed>
  <fix>3d</fix>
</trkpt>
<trkpt lat="40.0714801" lon="-105.2298275">
  <ele>1582.99</ele>
  <time>2026-09-02T20:50:42Z</time>
  <course>344.62</course>
  <speed>0.9849365461794989</speed>
  <fix>3d</fix>
</trkpt>
<trkpt lat="40.0714783" lon="-105.2298268">
  <ele>1582.99</ele>
  <time>2026-09-02T20:50:42Z</time>
  <course>344.6</course>
  <speed>1.0</speed>
  <fix>3d</fix>
</trkpt>
<trkpt lat="40.0714811" lon="-105.2298278">
  <ele>1582.99</ele>
  <time>2026-09-02T20:50:42Z</time>
  <course>344.62</course>
  <speed>0.9945853407325085</speed>
  <fix>3d</fix>
</trkpt>
<trkpt lat="40.07148" lon="-105.2298275">
  <ele>1582.99</ele>
  <time>2026-09-02T20:50:42Z</time>
  <course>344.59</course>
  <speed>1.0</speed>
  <fix>3d</fix>
</trkpt>
<trkpt lat="40.0714818" lon="-105.2298282">
  <ele>1582.99</ele>
  <time>2026-09-02T20:50:42Z</time>
  <course>344.61</course>
  <speed>0.9945853407325085</speed>
  <fix>3d</fix>
</trkpt>
<trkpt lat="40.07148" lon="-105.2298275">
  <ele>1582.99</ele>
  <time>2026-09-02T20:50:42Z</time>
  <course>344.59</course>
  <speed>1.0</speed>
  <fix>3d</fix>
</trkpt>
<trkpt lat="40.0714828" lon="-105.2298285">
  <ele>1582.99</ele>
  <time>2026-09-02T20:50:42Z</time>
  <course>344.61</course>
  <speed>0.9945853407325085</speed>
  <fix>3d</fix>
</trkpt>
<trkpt lat="40.0714817" lon="-105.2298281">
  <ele>1582.99</ele>
  <time>2026-09-02T20:50:42Z</time>
  <course>344.59</course>
  <speed>1.0</speed>
  <fix>3d</fix>
</trkpt>
<trkpt lat="40.0714837" lon="-105.2298287">
  <ele>1582.99</ele>
  <time>2026-09-02T20:50:42Z</time>
  <course>344.6</course>
  <speed>0.9945853407325085</speed>
  <fix>3d</fix>
</trkpt>
<trkpt lat="40.0714817" lon="-105.2298281">
  <ele>1582.99</ele>
  <time>2026-09-02T20:50:42Z</time>
  <course>344.59</course>
  <speed>1.0</speed>
  <fix>3d</fix>
</trkpt>
<trkpt lat="40.0714844" lon="-105.229829">
  <ele>1582.99</ele>
  <time>2026-09-02T20:50:42Z</time>
  <course>344.6</course>
  <speed>0.9945853407325085</speed>
  <fix>3d</fix>
</trkpt>
<trkpt lat="40.0714835" lon="-105.2298287">
  <ele>1582.99</ele>
  <time>2026-09-02T20:50:42Z</time>
  <course>344.58</course>
  <speed>1.0</speed>
  <fix>3d</fix>
</trkpt>
<trkpt lat="40.0714854" lon="-105.2298294">
  <ele>1582.99</ele>
  <time>2026-09-02T20:50:42Z</time>
  <course>344.59</course>
  <speed>0.9945853407325085</speed>
  <fix>3d</fix>
</trkpt>
<trkpt lat="40.0714835" lon="-105.2298287">
  <ele>1582.99</ele>
  <time>2026-09-02T20:50:42Z</time>
  <course>344.58</course>
  <speed>1.0</speed>
  <fix>3d</fix>
</trkpt>
<trkpt lat="40.0714861" lon="-105.2298297">
  <ele>1582.99</ele>
  <time>2026-09-02T20:50:42Z</time>
  <course>344.58</course>
  <speed>0.9945853407325085</speed>
  <fix>3d</fix>
</trkpt>
<trkpt lat="40.0714852" lon="-105.2298294">
  <ele>1582.99</ele>
  <time>2026-09-02T20:50:42Z</time>
  <course>344.56</course>
  <speed>0.99</speed>
  <fix>3d</fix>
</trkpt>
<trkpt lat="40.071487" lon="-105.2298299">
  <ele>1582.99</ele>
  <time>2026-09-02T20:50:42Z</time>
  <course>344.58</course>
  <speed>0.9945853407325085</speed>
  <fix>3d</fix>
</trkpt>
<trkpt lat="40.0714852" lon="-105.2298294">
  <ele>1582.99</ele>
  <time>2026-09-02T20:50:42Z</time>
  <course>344.56</course>
  <speed>0.99</speed>
  <fix>3d</fix>
</trkpt>
<trkpt lat="40.0714878" lon="-105.2298302">
  <ele>1582.99</ele>
  <time>2026-09-02T20:50:42Z</time>
  <course>344.58</course>
  <speed>0.9945853407325085</speed>
  <fix>3d</fix>
</trkpt>
<trkpt lat="40.0714869" lon="-105.2298299">
  <ele>1582.99</ele>
  <time>2026-09-02T20:50:42Z</time>
  <course>344.55</course>
  <speed>0.99</speed>
  <fix>3d</fix>
</trkpt>
<trkpt lat="40.0714886" lon="-105.2298306">
  <ele>1582.99</ele>
  <time>2026-09-02T20:50:42Z</time>
  <course>344.57</course>
  <speed>0.9945853407325085</speed>
  <fix>3d</fix>
</trkpt>
<trkpt lat="40.0714869" lon="-105.2298299">
  <ele>1582.99</ele>
  <time>2026-09-02T20:50:42Z</time>
  <course>344.55</course>
  <speed>0.99</speed>
  <fix>3d</fix>
</trkpt>
<trkpt lat="40.0714896" lon="-105.2298309">
  <ele>1582.99</ele>
  <time>2026-09-02T20:50:42Z</time>
  <course>344.57</course>
  <speed>0.9849365461794989</speed>
  <fix>3d</fix>
</trkpt>
<trkpt lat="40.0714887" lon="-105.2298305">
  <ele>1582.99</ele>
  <time>2026-09-02T20:50:42Z</time>
  <course>344.54</course>
  <speed>0.99</speed>
  <fix>3d</fix>
</trkpt>
<trkpt lat="40.0714903" lon="-105.2298313">
  <ele>1582.99</ele>
  <time>2026-09-02T20:50:42Z</time>
  <course>344.56</course>
  <speed>0.9945853407325085</speed>
  <fix>3d</fix>
</trkpt>
<trkpt lat="40.0714887" lon="-105.2298305">
  <ele>1582.99</ele>
  <time>2026-09-02T20:50:42Z</time>
  <course>344.54</course>
  <speed>0.99</speed>
  <fix>3d</fix>
</trkpt>
<trkpt lat="40.0714913" lon="-105.2298316">
  <ele>1582.99</ele>
  <time>2026-09-02T20:50:42Z</time>
  <course>344.56</course>
  <speed>0.9849365461794989</speed>
  <fix>3d</fix>
</trkpt>
<trkpt lat="40.0714904" lon="-105.2298312">
  <ele>1582.99</ele>
  <time>2026-09-02T20:50:42Z</time>
  <course>344.53</course>
  <speed>0.99</speed>
  <fix>3d</fix>
</trkpt>
<trkpt lat="40.0714921" lon="-105.2298318">
  <ele>1582.99</ele>
  <time>2026-09-02T20:50:42Z</time>
  <course>344.55</course>
  <speed>0.9945853407325085</speed>
  <fix>3d</fix>
</trkpt>
<trkpt lat="40.0714904" lon="-105.2298312">
  <ele>1582.99</ele>
  <time>2026-09-02T20:50:42Z</time>
  <course>344.53</course>
  <speed>0.99</speed>
  <fix>3d</fix>
</trkpt>
<trkpt lat="40.0714929" lon="-105.2298321">
  <ele>1582.99</ele>
  <time>2026-09-02T20:50:42Z</time>
  <course>344.55</course>
  <speed>0.9849365461794989</speed>
  <fix>3d</fix>
</trkpt>
<trkpt lat="40.0714921" lon="-105.2298318">
  <ele>1582.99</ele>
  <time>2026-09-02T20:50:42Z</time>
  <course>344.52</course>
  <speed>0.99</speed>
  <fix>3d</fix>
</trkpt>
<trkpt lat="40.0714939" lon="-105.2298325">
  <ele>1582.99</ele>
  <time>2026-09-02T20:50:42Z</time>
  <course>344.55</course>
  <speed>0.9945853407325085</speed>
  <fix>3d</fix>
</trkpt>
<trkpt lat="40.0714921" lon="-105.2298318">
  <ele>1582.99</ele>
  <time>2026-09-02T20:50:42Z</time>
  <course>344.52</course>
  <speed>0.99</speed>
  <fix>3d</fix>
</trkpt>
<trkpt lat="40.0714949" lon="-105.2298328">
  <ele>1582.99</ele>
  <time>2026-09-02T20:50:42Z</time>
  <course>344.54</course>
  <speed>0.9849365461794989</speed>
  <fix>3d</fix>
</trkpt>
<trkpt lat="40.0714938" lon="-105.2298324">
  <ele>1582.99</ele>
  <time>2026-09-02T20:50:42Z</time>
  <course>344.52</course>
  <speed>0.99</speed>
  <fix>3d</fix>
</trkpt>
<trkpt lat="40.0714958" lon="-105.2298332">
  <ele>1582.99</ele>
  <time>2026-09-02T20:50:42Z</time>
  <course>344.53</course>
  <speed>0.9945853407325085</speed>
  <fix>3d</fix>
</trkpt>
<trkpt lat="40.0714938" lon="-105.2298324">
  <ele>1582.99</ele>
  <time>2026-09-02T20:50:42Z</time>
  <course>344.52</course>
  <speed>0.99</speed>
  <fix>3d</fix>
</trkpt>
<trkpt lat="40.0714965" lon="-105.2298335">
  <ele>1582.99</ele>
  <time>2026-09-02T20:50:42Z</time>
  <course>344.53</course>
  <speed>0.9849365461794989</speed>
  <fix>3d</fix>
</trkpt>
<trkpt lat="40.0714955" lon="-105.229833">
  <ele>1582.99</ele>
  <time>2026-09-02T20:50:42Z</time>
  <course>344.51</course>
  <speed>0.99</speed>
  <fix>3d</fix>
</trkpt>
<trkpt lat="40.0714975" lon="-105.2298338">
  <ele>1582.99</ele>
  <time>2026-09-02T20:50:42Z</time>
  <course>344.53</course>
  <speed>1.0042410069301093</speed>
  <fix>3d</fix>
</trkpt>
<trkpt lat="40.0714955" lon="-105.229833">
  <ele>1582.99</ele>
  <time>2026-09-02T20:50:42Z</time>
  <course>344.51</course>
  <speed>0.99</speed>
  <fix>3d</fix>
</trkpt>
<trkpt lat="40.0714983" lon="-105.229834">
  <ele>1582.99</ele>
  <time>2026-09-02T20:50:42Z</time>
  <course>344.52</course>
  <speed>0.9849365461794989</speed>
  <fix>3d</fix>
</trkpt>
<trkpt lat="40.0714973" lon="-105.2298337">
  <ele>1582.99</ele>
  <time>2026-09-02T20:50:42Z</time>
  <course>344.5</course>
  <speed>0.99</speed>
  <fix>3d</fix>
</trkpt>
<trkpt lat="40.0714992" lon="-105.2298344">
  <ele>1582.99</ele>
  <time>2026-09-02T20:50:42Z</time>
  <course>344.51</course>
  <speed>1.0042410069301093</speed>
  <fix>3d</fix>
</trkpt>
<trkpt lat="40.0714973" lon="-105.2298337">
  <ele>1582.99</ele>
  <time>2026-09-02T20:50:42Z</time>
  <course>344.5</course>
  <speed>0.99</speed>
  <fix>3d</fix>
</trkpt>
<trkpt lat="40.0715001" lon="-105.2298347">
  <ele>1582.99</ele>
  <time>2026-09-02T20:50:42Z</time>
  <course>344.51</course>
  <speed>0.9849365461794989</speed>
  <fix>3d</fix>
</trkpt>
<trkpt lat="40.071499" lon="-105.2298343">
  <ele>1582.99</ele>
  <time>2026-09-02T20:50:42Z</time>
  <course>344.49</course>
  <speed>0.98</speed>
  <fix>3d</fix>
</trkpt>
<trkpt lat="40.071501" lon="-105.229835">
  <ele>1582.99</ele>
  <time>2026-09-02T20:50:42Z</time>
  <course>344.5</course>
  <speed>1.0042410069301093</speed>
  <fix>3d</fix>
</trkpt>
<trkpt lat="40.071499" lon="-105.2298343">
  <ele>1582.99</ele>
  <time>2026-09-02T20:50:42Z</time>
  <course>344.49</course>
  <speed>0.98</speed>
  <fix>3d</fix>
</trkpt>
<trkpt lat="40.0715018" lon="-105.2298354">
  <ele>1582.99</ele>
  <time>2026-09-02T20:50:42Z</time>
  <course>344.5</course>
  <speed>0.9849365461794989</speed>
  <fix>3d</fix>
</trkpt>
<trkpt lat="40.0715007" lon="-105.229835">
  <ele>1582.99</ele>
  <time>2026-09-02T20:50:42Z</time>
  <course>344.48</course>
  <speed>0.98</speed>
  <fix>3d</fix>
</trkpt>
<trkpt lat="40.0715026" lon="-105.2298357">
  <ele>1582.99</ele>
  <time>2026-09-02T20:50:42Z</time>
  <course>344.5</course>
  <speed>1.0042410069301093</speed>
  <fix>3d</fix>
</trkpt>
<trkpt lat="40.0715007" lon="-105.229835">
  <ele>1582.99</ele>
  <time>2026-09-02T20:50:42Z</time>
  <course>344.48</course>
  <speed>0.98</speed>
  <fix>3d</fix>
</trkpt>
<trkpt lat="40.0715035" lon="-105.2298359">
  <ele>1582.99</ele>
  <time>2026-09-02T20:50:42Z</time>
  <course>344.49</course>
  <speed>0.9849365461794989</speed>
  <fix>3d</fix>
</trkpt>
<trkpt lat="40.0715025" lon="-105.2298356">
  <ele>1582.99</ele>
  <time>2026-09-02T20:50:42Z</time>
  <course>344.47</course>
  <speed>0.98</speed>
  <fix>3d</fix>
</trkpt>
<trkpt lat="40.0715042" lon="-105.2298363">
  <ele>1582.99</ele>
  <time>2026-09-02T20:50:42Z</time>
  <course>344.49</course>
  <speed>1.0042410069301093</speed>
  <fix>3d</fix>
</trkpt>
<trkpt lat="40.0715025" lon="-105.2298356">
  <ele>1582.99</ele>
  <time>2026-09-02T20:50:42Z</time>
  <course>344.47</course>
  <speed>0.98</speed>
  <fix>3d</fix>
</trkpt>
<trkpt lat="40.071505" lon="-105.2298366">
  <ele>1582.99</ele>
  <time>2026-09-02T20:50:42Z</time>
  <course>344.49</course>
  <speed>0.9849365461794989</speed>
  <fix>3d</fix>
</trkpt>
<trkpt lat="40.0715042" lon="-105.2298362">
  <ele>1582.99</ele>
  <time>2026-09-02T20:50:42Z</time>
  <course>344.46</course>
  <speed>0.99</speed>
  <fix>3d</fix>
</trkpt>
<trkpt lat="40.071506" lon="-105.2298369">
  <ele>1582.99</ele>
  <time>2026-09-02T20:50:42Z</time>
  <course>344.48</course>
  <speed>0.9945853407325085</speed>
  <fix>3d</fix>
</trkpt>
<trkpt lat="40.0715042" lon="-105.2298362">
  <ele>1582.99</ele>
  <time>2026-09-02T20:50:42Z</time>
  <course>344.46</course>
  <speed>0.99</speed>
  <fix>3d</fix>
</trkpt>
<trkpt lat="40.0715068" lon="-105.2298371">
  <ele>1582.99</ele>
  <time>2026-09-02T20:50:42Z</time>
  <course>344.48</course>
  <speed>0.9849365461794989</speed>
  <fix>3d</fix>
</trkpt>
<trkpt lat="40.0715059" lon="-105.2298369">
  <ele>1582.99</ele>
  <time>2026-09-02T20:50:42Z</time>
  <course>344.46</course>
  <speed>0.99</speed>
  <fix>3d</fix>
</trkpt>
<trkpt lat="40.0715077" lon="-105.2298375">
  <ele>1582.99</ele>
  <time>2026-09-02T20:50:42Z</time>
  <course>344.48</course>
  <speed>0.9945853407325085</speed>
  <fix>3d</fix>
</trkpt>
<trkpt lat="40.0715059" lon="-105.2298369">
  <ele>1582.99</ele>
  <time>2026-09-02T20:50:42Z</time>
  <course>344.46</course>
  <speed>0.99</speed>
  <fix>3d</fix>
</trkpt>
<trkpt lat="40.0715086" lon="-105.2298378">
  <ele>1582.99</ele>
  <time>2026-09-02T20:50:42Z</time>
  <course>344.48</course>
  <speed>0.9849365461794989</speed>
  <fix>3d</fix>
</trkpt>
<trkpt lat="40.0715077" lon="-105.2298375">
  <ele>1582.99</ele>
  <time>2026-09-02T20:50:42Z</time>
  <course>344.45</course>
  <speed>0.99</speed>
  <fix>3d</fix>
</trkpt>
<trkpt lat="40.0715093" lon="-105.2298381">
  <ele>1582.99</ele>
  <time>2026-09-02T20:50:42Z</time>
  <course>344.48</course>
  <speed>1.0068763578513502</speed>
  <fix>3d</fix>
</trkpt>
<trkpt lat="40.0715077" lon="-105.2298375">
  <ele>1582.99</ele>
  <time>2026-09-02T20:50:42Z</time>
  <course>344.45</course>
  <speed>0.99</speed>
  <fix>3d</fix>
</trkpt>
<trkpt lat="40.0715103" lon="-105.2298385">
  <ele>1582.99</ele>
  <time>2026-09-02T20:50:42Z</time>
  <course>344.47</course>
  <speed>0.9849365461794989</speed>
  <fix>3d</fix>
</trkpt>
<trkpt lat="40.0715094" lon="-105.2298381">
  <ele>1582.99</ele>
  <time>2026-09-02T20:50:42Z</time>
  <course>344.45</course>
  <speed>0.99</speed>
  <fix>3d</fix>
</trkpt>
<trkpt lat="40.0715111" lon="-105.2298388">
  <ele>1582.99</ele>
  <time>2026-09-02T20:50:42Z</time>
  <course>344.47</course>
  <speed>1.0068763578513502</speed>
  <fix>3d</fix>
</trkpt>
<trkpt lat="40.0715094" lon="-105.2298381">
  <ele>1582.99</ele>
  <time>2026-09-02T20:50:42Z</time>
  <course>344.45</course>
  <speed>0.99</speed>
  <fix>3d</fix>
</trkpt>
<trkpt lat="40.071512" lon="-105.229839">
  <ele>1582.99</ele>
  <time>2026-09-02T20:50:42Z</time>
  <course>344.47</course>
  <speed>0.9849365461794989</speed>
  <fix>3d</fix>
</trkpt>
<trkpt lat="40.0715111" lon="-105.2298388">
  <ele>1582.99</ele>
  <time>2026-09-02T20:50:42Z</time>
  <course>344.44</course>
  <speed>0.98</speed>
  <fix>3d</fix>
</trkpt>
<trkpt lat="40.0715131" lon="-105.2298395">
  <ele>1582.99</ele>
  <time>2026-09-02T20:50:42Z</time>
  <course>344.47</course>
  <speed>0.9945853407325085</speed>
  <fix>3d</fix>
</trkpt>
<trkpt lat="40.0715111" lon="-105.2298388">
  <ele>1582.99</ele>
  <time>2026-09-02T20:50:42Z</time>
  <course>344.44</course>
  <speed>0.98</speed>
  <fix>3d</fix>
</trkpt>
<trkpt lat="40.0715139" lon="-105.2298397">
  <ele>1582.99</ele>
  <time>2026-09-02T20:50:42Z</time>
  <course>344.46</course>
  <speed>0.9849365461794989</speed>
  <fix>3d</fix>
</trkpt>
<trkpt lat="40.0715128" lon="-105.2298394">
  <ele>1582.99</ele>
  <time>2026-09-02T20:50:42Z</time>
  <course>344.44</course>
  <speed>0.99</speed>
  <fix>3d</fix>
</trkpt>
<trkpt lat="40.0715147" lon="-105.22984">
  <ele>1582.99</ele>
  <time>2026-09-02T20:50:42Z</time>
  <course>344.46</course>
  <speed>0.9945853407325085</speed>
  <fix>3d</fix>
</trkpt>
<trkpt lat="40.0715128" lon="-105.2298394">
  <ele>1582.99</ele>
  <time>2026-09-02T20:50:42Z</time>
  <course>344.44</course>
  <speed>0.99</speed>
  <fix>3d</fix>
</trkpt>
<trkpt lat="40.0715156" lon="-105.2298404">
  <ele>1582.99</ele>
  <time>2026-09-02T20:50:42Z</time>
  <course>344.46</course>
  <speed>0.9849365461794989</speed>
  <fix>3d</fix>
</trkpt>
<trkpt lat="40.0715146" lon="-105.22984">
  <ele>1582.99</ele>
  <time>2026-09-02T20:50:42Z</time>
  <course>344.43</course>
  <speed>0.99</speed>
  <fix>3d</fix>
</trkpt>
<trkpt lat="40.0715165" lon="-105.2298407">
  <ele>1582.99</ele>
  <time>2026-09-02T20:50:42Z</time>
  <course>344.46</course>
  <speed>1.0068763578513502</speed>
  <fix>3d</fix>
</trkpt>
<trkpt lat="40.0715146" lon="-105.22984">
  <ele>1582.99</ele>
  <time>2026-09-02T20:50:42Z</time>
  <course>344.43</course>
  <speed>0.99</speed>
  <fix>3d</fix>
</trkpt>
<trkpt lat="40.0715174" lon="-105.2298409">
  <ele>1582.99</ele>
  <time>2026-09-02T20:50:42Z</time>
  <course>344.45</course>
  <speed>0.9849365461794989</speed>
  <fix>3d</fix>
</trkpt>
<trkpt lat="40.0715163" lon="-105.2298407">
  <ele>1582.99</ele>
  <time>2026-09-02T20:50:42Z</time>
  <course>344.43</course>
  <speed>0.99</speed>
  <fix>3d</fix>
</trkpt>
<trkpt lat="40.0715182" lon="-105.2298414">
  <ele>1582.99</ele>
  <time>2026-09-02T20:50:42Z</time>
  <course>344.45</course>
  <speed>1.0068763578513502</speed>
  <fix>3d</fix>
</trkpt>
<trkpt lat="40.0715163" lon="-105.2298407">
  <ele>1582.99</ele>
  <time>2026-09-02T20:50:42Z</time>
  <course>344.43</course>
  <speed>0.99</speed>
  <fix>3d</fix>
</trkpt>
<trkpt lat="40.071519" lon="-105.2298417">
  <ele>1582.99</ele>
  <time>2026-09-02T20:50:42Z</time>
  <course>344.45</course>
  <speed>0.9849365461794989</speed>
  <fix>3d</fix>
</trkpt>
<trkpt lat="40.071518" lon="-105.2298413">
  <ele>1582.99</ele>
  <time>2026-09-02T20:50:42Z</time>
  <course>344.42</course>
  <speed>0.99</speed>
  <fix>3d</fix>
</trkpt>
<trkpt lat="40.07152" lon="-105.2298419">
  <ele>1582.99</ele>
  <time>2026-09-02T20:50:42Z</time>
  <course>344.45</course>
  <speed>0.9945853407325085</speed>
  <fix>3d</fix>
</trkpt>
<trkpt lat="40.071518" lon="-105.2298413">
  <ele>1582.99</ele>
  <time>2026-09-02T20:50:42Z</time>
  <course>344.42</course>
  <speed>0.99</speed>
  <fix>3d</fix>
</trkpt>
<trkpt lat="40.0715207" lon="-105.2298423">
  <ele>1582.99</ele>
  <time>2026-09-02T20:50:42Z</time>
  <course>344.45</course>
  <speed>0.9945853407325085</speed>
  <fix>3d</fix>
</trkpt>
<trkpt lat="40.0715198" lon="-105.2298419">
  <ele>1582.99</ele>
  <time>2026-09-02T20:50:42Z</time>
  <course>344.42</course>
  <speed>0.99</speed>
  <fix>3d</fix>
</trkpt>
<trkpt lat="40.0715217" lon="-105.2298426">
  <ele>1582.99</ele>
  <time>2026-09-02T20:50:42Z</time>
  <course>344.45</course>
  <speed>0.9945853407325085</speed>
  <fix>3d</fix>
</trkpt>
<trkpt lat="40.0715198" lon="-105.2298419">
  <ele>1582.99</ele>
  <time>2026-09-02T20:50:42Z</time>
  <course>344.42</course>
  <speed>0.99</speed>
  <fix>3d</fix>
</trkpt>
<trkpt lat="40.0715224" lon="-105.2298429">
  <ele>1582.99</ele>
  <time>2026-09-02T20:50:42Z</time>
  <course>344.44</course>
  <speed>0.9849365461794989</speed>
  <fix>3d</fix>
</trkpt>
<trkpt lat="40.0715215" lon="-105.2298425">
  <ele>1582.99</ele>
  <time>2026-09-02T20:50:42Z</time>
  <course>344.42</course>
  <speed>0.99</speed>
  <fix>3d</fix>
</trkpt>
<trkpt lat="40.0715232" lon="-105.2298431">
  <ele>1582.99</ele>
  <time>2026-09-02T20:50:42Z</time>
  <course>344.44</course>
  <speed>0.9945853407325085</speed>
  <fix>3d</fix>
</trkpt>
<trkpt lat="40.0715215" lon="-105.2298425">
  <ele>1582.99</ele>
  <time>2026-09-02T20:50:42Z</time>
  <course>344.42</course>
  <speed>0.99</speed>
  <fix>3d</fix>
</trkpt>
<trkpt lat="40.0715241" lon="-105.2298435">
  <ele>1582.99</ele>
  <time>2026-09-02T20:50:42Z</time>
  <course>344.44</course>
  <speed>0.9849365461794989</speed>
  <fix>3d</fix>
</trkpt>
<trkpt lat="40.0715232" lon="-105.2298432">
  <ele>1582.99</ele>
  <time>2026-09-02T20:50:42Z</time>
  <course>344.41</course>
  <speed>0.99</speed>
  <fix>3d</fix>
</trkpt>
<trkpt lat="40.071525" lon="-105.2298438">
  <ele>1582.99</ele>
  <time>2026-09-02T20:50:42Z</time>
  <course>344.44</course>
  <speed>0.9945853407325085</speed>
  <fix>3d</fix>
</trkpt>
<trkpt lat="40.0715232" lon="-105.2298432">
  <ele>1582.99</ele>
  <time>2026-09-02T20:50:42Z</time>
  <course>344.41</course>
  <speed>0.99</speed>
  <fix>3d</fix>
</trkpt>
<trkpt lat="40.0715259" lon="-105.229844">
  <ele>1582.99</ele>
  <time>2026-09-02T20:50:42Z</time>
  <course>344.43</course>
  <speed>0.9849365461794989</speed>
  <fix>3d</fix>
</trkpt>
<trkpt lat="40.0715249" lon="-105.2298438">
  <ele>1582.99</ele>
  <time>2026-09-02T20:50:42Z</time>
  <course>344.41</course>
  <speed>0.99</speed>
  <fix>3d</fix>
</trkpt>
<trkpt lat="40.0715267" lon="-105.2298443">
  <ele>1582.99</ele>
  <time>2026-09-02T20:50:42Z</time>
  <course>344.43</course>
  <speed>0.9945853407325085</speed>
  <fix>3d</fix>
</trkpt>
<trkpt lat="40.0715249" lon="-105.2298438">
  <ele>1582.99</ele>
  <time>2026-09-02T20:50:42Z</time>
  <course>344.41</course>
  <speed>0.99</speed>
  <fix>3d</fix>
</trkpt>
<trkpt lat="40.0715275" lon="-105.2298448">
  <ele>1582.99</ele>
  <time>2026-09-02T20:50:42Z</time>
  <course>344.42</course>
  <speed>0.9849365461794989</speed>
  <fix>3d</fix>
</trkpt>
<trkpt lat="40.0715267" lon="-105.2298444">
  <ele>1582.99</ele>
  <time>2026-09-02T20:50:42Z</time>
  <course>344.4</course>
  <speed>0.99</speed>
  <fix>3d</fix>
</trkpt>
<trkpt lat="40.0715284" lon="-105.229845">
  <ele>1582.99</ele>
  <time>2026-09-02T20:50:42Z</time>
  <course>344.42</course>
  <speed>0.9945853407325085</speed>
  <fix>3d</fix>
</trkpt>
<trkpt lat="40.0715267" lon="-105.2298444">
  <ele>1582.99</ele>
  <time>2026-09-02T20:50:42Z</time>
  <course>344.4</course>
  <speed>0.99</speed>
  <fix>3d</fix>
</trkpt>
<trkpt lat="40.0715293" lon="-105.2298454">
  <ele>1582.99</ele>
  <time>2026-09-02T20:50:42Z</time>
  <course>344.42</course>
  <speed>0.9945853407325085</speed>
  <fix>3d</fix>
</trkpt>
<trkpt lat="40.0715284" lon="-105.2298451">
  <ele>1582.99</ele>
  <time>2026-09-02T20:50:42Z</time>
  <course>344.39</course>
  <speed>0.99</speed>
  <fix>3d</fix>
</trkpt>
<trkpt lat="40.0715302" lon="-105.2298457">
  <ele>1582.99</ele>
  <time>2026-09-02T20:50:42Z</time>
  <course>344.42</course>
  <speed>0.9945853407325085</speed>
  <fix>3d</fix>
</trkpt>
<trkpt lat="40.0715284" lon="-105.2298451">
  <ele>1582.99</ele>
  <time>2026-09-02T20:50:42Z</time>
  <course>344.39</course>
  <speed>0.99</speed>
  <fix>3d</fix>
</trkpt>
<trkpt lat="40.0715311" lon="-105.229846">
  <ele>1582.99</ele>
  <time>2026-09-02T20:50:42Z</time>
  <course>344.42</course>
  <speed>0.9945853407325085</speed>
  <fix>3d</fix>
</trkpt>
<trkpt lat="40.0715301" lon="-105.2298457">
  <ele>1582.99</ele>
  <time>2026-09-02T20:50:42Z</time>
  <course>344.39</course>
  <speed>0.99</speed>
  <fix>3d</fix>
</trkpt>
<trkpt lat="40.0715321" lon="-105.2298464">
  <ele>1582.99</ele>
  <time>2026-09-02T20:50:42Z</time>
  <course>344.42</course>
  <speed>0.9945853407325085</speed>
  <fix>3d</fix>
</trkpt>
<trkpt lat="40.0715301" lon="-105.2298457">
  <ele>1582.99</ele>
  <time>2026-09-02T20:50:42Z</time>
  <course>344.39</course>
  <speed>0.99</speed>
  <fix>3d</fix>
</trkpt>
<trkpt lat="40.0715329" lon="-105.2298467">
  <ele>1582.99</ele>
  <time>2026-09-02T20:50:42Z</time>
  <course>344.42</course>
  <speed>0.9945853407325085</speed>
  <fix>3d</fix>
</trkpt>
<trkpt lat="40.0715318" lon="-105.2298463">
  <ele>1582.99</ele>
  <time>2026-09-02T20:50:42Z</time>
  <course>344.39</course>
  <speed>0.99</speed>
  <fix>3d</fix>
</trkpt>
<trkpt lat="40.0715338" lon="-105.2298469">
  <ele>1582.99</ele>
  <time>2026-09-02T20:50:42Z</time>
  <course>344.42</course>
  <speed>0.9945853407325085</speed>
  <fix>3d</fix>
</trkpt>
<trkpt lat="40.0715318" lon="-105.2298463">
  <ele>1582.99</ele>
  <time>2026-09-02T20:50:42Z</time>
  <course>344.39</course>
  <speed>0.99</speed>
  <fix>3d</fix>
</trkpt>
<trkpt lat="40.0715347" lon="-105.2298472">
  <ele>1582.99</ele>
  <time>2026-09-02T20:50:42Z</time>
  <course>344.42</course>
  <speed>0.9945853407325085</speed>
  <fix>3d</fix>
</trkpt>
<trkpt lat="40.0715336" lon="-105.2298469">
  <ele>1582.99</ele>
  <time>2026-09-02T20:50:42Z</time>
  <course>344.39</course>
  <speed>0.99</speed>
  <fix>3d</fix>
</trkpt>
<trkpt lat="40.0715354" lon="-105.2298476">
  <ele>1582.99</ele>
  <time>2026-09-02T20:50:42Z</time>
  <course>344.42</course>
  <speed>0.9945853407325085</speed>
  <fix>3d</fix>
</trkpt>
<trkpt lat="40.0715336" lon="-105.2298469">
  <ele>1582.99</ele>
  <time>2026-09-02T20:50:42Z</time>
  <course>344.39</course>
  <speed>0.99</speed>
  <fix>3d</fix>
</trkpt>
<trkpt lat="40.0715364" lon="-105.2298479">
  <ele>1582.99</ele>
  <time>2026-09-02T20:50:42Z</time>
  <course>344.42</course>
  <speed>0.9945853407325085</speed>
  <fix>3d</fix>
</trkpt>
<trkpt lat="40.0715353" lon="-105.2298476">
  <ele>1582.99</ele>
  <time>2026-09-02T20:50:42Z</time>
  <course>344.39</course>
  <speed>0.99</speed>
  <fix>3d</fix>
</trkpt>
<trkpt lat="40.0715372" lon="-105.2298483">
  <ele>1582.99</ele>
  <time>2026-09-02T20:50:42Z</time>
  <course>344.41</course>
  <speed>0.9945853407325085</speed>
  <fix>3d</fix>
</trkpt>
<trkpt lat="40.0715353" lon="-105.2298476">
  <ele>1582.99</ele>
  <time>2026-09-02T20:50:42Z</time>
  <course>344.39</course>
  <speed>0.99</speed>
  <fix>3d</fix>
</trkpt>
<trkpt lat="40.0715381" lon="-105.2298486">
  <ele>1582.99</ele>
  <time>2026-09-02T20:50:42Z</time>
  <course>344.41</course>
  <speed>0.9945853407325085</speed>
  <fix>3d</fix>
</trkpt>
<trkpt lat="40.0715371" lon="-105.2298482">
  <ele>1582.99</ele>
  <time>2026-09-02T20:50:42Z</time>
  <course>344.39</course>
  <speed>0.99</speed>
  <fix>3d</fix>
</trkpt>
<trkpt lat="40.071539" lon="-105.2298488">
  <ele>1582.99</ele>
  <time>2026-09-02T20:50:42Z</time>
  <course>344.41</course>
  <speed>0.9945853407325085</speed>
  <fix>3d</fix>
</trkpt>
<trkpt lat="40.0715371" lon="-105.2298482">
  <ele>1582.99</ele>
  <time>2026-09-02T20:50:42Z</time>
  <course>344.39</course>
  <speed>0.99</speed>
  <fix>3d</fix>
</trkpt>
<trkpt lat="40.0715399" lon="-105.2298491">
  <ele>1582.99</ele>
  <time>2026-09-02T20:50:42Z</time>
  <course>344.41</course>
  <speed>0.9945853407325085</speed>
  <fix>3d</fix>
</trkpt>
<trkpt lat="40.0715388" lon="-105.2298488">
  <ele>1582.99</ele>
  <time>2026-09-02T20:50:42Z</time>
  <course>344.38</course>
  <speed>0.99</speed>
  <fix>3d</fix>
</trkpt>
<trkpt lat="40.0715406" lon="-105.2298495">
  <ele>1582.99</ele>
  <time>2026-09-02T20:50:42Z</time>
  <course>344.41</course>
  <speed>0.9945853407325085</speed>
  <fix>3d</fix>
</trkpt>
<trkpt lat="40.0715388" lon="-105.2298488">
  <ele>1582.99</ele>
  <time>2026-09-02T20:50:42Z</time>
  <course>344.38</course>
  <speed>0.99</speed>
  <fix>3d</fix>
</trkpt>
<trkpt lat="40.0715414" lon="-105.2298498">
  <ele>1582.99</ele>
  <time>2026-09-02T20:50:43Z</time>
  <course>344.41</course>
  <speed>0.9945853407325085</speed>
  <fix>3d</fix>
</trkpt>
<trkpt lat="40.0715405" lon="-105.2298495">
  <ele>1582.99</ele>
  <time>2026-09-02T20:50:43Z</time>
  <course>344.38</course>
  <speed>0.99</speed>
  <fix>3d</fix>
</trkpt>
<trkpt lat="40.0715423" lon="-105.22985">
  <ele>1582.99</ele>
  <time>2026-09-02T20:50:43Z</time>
  <course>344.41</course>
  <speed>0.9945853407325085</speed>
  <fix>3d</fix>
</trkpt>
<trkpt lat="40.0715405" lon="-105.2298495">
  <ele>1582.99</ele>
  <time>2026-09-02T20:50:43Z</time>
  <course>344.38</course>
  <speed>0.99</speed>
  <fix>3d</fix>
</trkpt>
<trkpt lat="40.0715431" lon="-105.2298503">
  <ele>1582.99</ele>
  <time>2026-09-02T20:50:43Z</time>
  <course>344.41</course>
  <speed>0.9945853407325085</speed>
  <fix>3d</fix>
</trkpt>
<trkpt lat="40.0715422" lon="-105.22985">
  <ele>1582.99</ele>
  <time>2026-09-02T20:50:43Z</time>
  <course>344.38</course>
  <speed>0.99</speed>
  <fix>3d</fix>
</trkpt>
<trkpt lat="40.0715439" lon="-105.2298508">
  <ele>1582.99</ele>
  <time>2026-09-02T20:50:43Z</time>
  <course>344.41</course>
  <speed>0.9945853407325085</speed>
  <fix>3d</fix>
</trkpt>
<trkpt lat="40.0715422" lon="-105.22985">
  <ele>1582.99</ele>
  <time>2026-09-02T20:50:43Z</time>
  <course>344.38</course>
  <speed>0.99</speed>
  <fix>3d</fix>
</trkpt>
<trkpt lat="40.0715449" lon="-105.229851">
  <ele>1582.99</ele>
  <time>2026-09-02T20:50:43Z</time>
  <course>344.41</course>
  <speed>0.9945853407325085</speed>
  <fix>3d</fix>
</trkpt>
<trkpt lat="40.071544" lon="-105.2298507">
  <ele>1582.99</ele>
  <time>2026-09-02T20:50:43Z</time>
  <course>344.38</course>
  <speed>0.99</speed>
  <fix>3d</fix>
</trkpt>
<trkpt lat="40.0715457" lon="-105.2298514">
  <ele>1582.99</ele>
  <time>2026-09-02T20:50:43Z</time>
  <course>344.41</course>
  <speed>0.9945853407325085</speed>
  <fix>3d</fix>
</trkpt>
<trkpt lat="40.071544" lon="-105.2298507">
  <ele>1582.99</ele>
  <time>2026-09-02T20:50:43Z</time>
  <course>344.38</course>
  <speed>0.99</speed>
  <fix>3d</fix>
</trkpt>
<trkpt lat="40.0715466" lon="-105.2298517">
  <ele>1582.99</ele>
  <time>2026-09-02T20:50:43Z</time>
  <course>344.41</course>
  <speed>0.9945853407325085</speed>
  <fix>3d</fix>
</trkpt>
<trkpt lat="40.0715457" lon="-105.2298514">
  <ele>1582.99</ele>
  <time>2026-09-02T20:50:43Z</time>
  <course>344.38</course>
  <speed>1.0</speed>
  <fix>3d</fix>
</trkpt>
<trkpt lat="40.0715475" lon="-105.2298519">
  <ele>1582.99</ele>
  <time>2026-09-02T20:50:43Z</time>
  <course>344.41</course>
  <speed>0.9849365461794989</speed>
  <fix>3d</fix>
</trkpt>
<trkpt lat="40.0715457" lon="-105.2298514">
  <ele>1582.99</ele>
  <time>2026-09-02T20:50:43Z</time>
  <course>344.38</course>
  <speed>1.0</speed>
  <fix>3d</fix>
</trkpt>
<trkpt lat="40.0715482" lon="-105.2298522">
  <ele>1582.99</ele>
  <time>2026-09-02T20:50:43Z</time>
  <course>344.41</course>
  <speed>0.9945853407325085</speed>
  <fix>3d</fix>
</trkpt>
<trkpt lat="40.0715474" lon="-105.2298519">
  <ele>1582.99</ele>
  <time>2026-09-02T20:50:43Z</time>
  <course>344.38</course>
  <speed>1.0</speed>
  <fix>3d</fix>
</trkpt>
<trkpt lat="40.0715493" lon="-105.2298527">
  <ele>1582.99</ele>
  <time>2026-09-02T20:50:43Z</time>
  <course>344.41</course>
  <speed>0.9945853407325085</speed>
  <fix>3d</fix>
</trkpt>
<trkpt lat="40.0715474" lon="-105.2298519">
  <ele>1582.99</ele>
  <time>2026-09-02T20:50:43Z</time>
  <course>344.38</course>
  <speed>1.0</speed>
  <fix>3d</fix>
</trkpt>
<trkpt lat="40.0715502" lon="-105.2298529">
  <ele>1582.99</ele>
  <time>2026-09-02T20:50:43Z</time>
  <course>344.41</course>
  <speed>0.9945853407325085</speed>
  <fix>3d</fix>
</trkpt>
<trkpt lat="40.0715491" lon="-105.2298526">
  <ele>1582.99</ele>
  <time>2026-09-02T20:50:43Z</time>
  <course>344.38</course>
  <speed>1.0</speed>
  <fix>3d</fix>
</trkpt>
<trkpt lat="40.0715511" lon="-105.2298533">
  <ele>1582.99</ele>
  <time>2026-09-02T20:50:43Z</time>
  <course>344.41</course>
  <speed>0.9945853407325085</speed>
  <fix>3d</fix>
</trkpt>
<trkpt lat="40.0715491" lon="-105.2298526">
  <ele>1582.99</ele>
  <time>2026-09-02T20:50:43Z</time>
  <course>344.38</course>
  <speed>1.0</speed>
  <fix>3d</fix>
</trkpt>
<trkpt lat="40.0715519" lon="-105.2298536">
  <ele>1582.99</ele>
  <time>2026-09-02T20:50:43Z</time>
  <course>344.41</course>
  <speed>0.9945853407325085</speed>
  <fix>3d</fix>
</trkpt>
<trkpt lat="40.0715509" lon="-105.2298533">
  <ele>1582.99</ele>
  <time>2026-09-02T20:50:43Z</time>
  <course>344.38</course>
  <speed>1.0</speed>
  <fix>3d</fix>
</trkpt>
<trkpt lat="40.0715528" lon="-105.2298539">
  <ele>1582.99</ele>
  <time>2026-09-02T20:50:43Z</time>
  <course>344.41</course>
  <speed>0.9945853407325085</speed>
  <fix>3d</fix>
</trkpt>
<trkpt lat="40.0715509" lon="-105.2298533">
  <ele>1582.99</ele>
  <time>2026-09-02T20:50:43Z</time>
  <course>344.38</course>
  <speed>1.0</speed>
  <fix>3d</fix>
</trkpt>
<trkpt lat="40.0715536" lon="-105.2298543">
  <ele>1582.99</ele>
  <time>2026-09-02T20:50:43Z</time>
  <course>344.41</course>
  <speed>0.9945853407325085</speed>
  <fix>3d</fix>
</trkpt>
<trkpt lat="40.0715526" lon="-105.2298539">
  <ele>1582.99</ele>
  <time>2026-09-02T20:50:43Z</time>
  <course>344.38</course>
  <speed>1.0</speed>
  <fix>3d</fix>
</trkpt>
<trkpt lat="40.0715546" lon="-105.2298546">
  <ele>1582.99</ele>
  <time>2026-09-02T20:50:43Z</time>
  <course>344.41</course>
  <speed>0.9945853407325085</speed>
  <fix>3d</fix>
</trkpt>
<trkpt lat="40.0715526" lon="-105.2298539">
  <ele>1582.99</ele>
  <time>2026-09-02T20:50:43Z</time>
  <course>344.38</course>
  <speed>1.0</speed>
  <fix>3d</fix>
</trkpt>
<trkpt lat="40.0715554" lon="-105.2298548">
  <ele>1582.99</ele>
  <time>2026-09-02T20:50:43Z</time>
  <course>344.41</course>
  <speed>0.9945853407325085</speed>
  <fix>3d</fix>
</trkpt>
<trkpt lat="40.0715543" lon="-105.2298545">
  <ele>1582.99</ele>
  <time>2026-09-02T20:50:43Z</time>
  <course>344.38</course>
  <speed>1.0</speed>
  <fix>3d</fix>
</trkpt>
<trkpt lat="40.0715563" lon="-105.2298551">
  <ele>1582.99</ele>
  <time>2026-09-02T20:50:43Z</time>
  <course>344.41</course>
  <speed>0.9945853407325085</speed>
  <fix>3d</fix>
</trkpt>
<trkpt lat="40.0715543" lon="-105.2298545">
  <ele>1582.99</ele>
  <time>2026-09-02T20:50:43Z</time>
  <course>344.38</course>
  <speed>1.0</speed>
  <fix>3d</fix>
</trkpt>
<trkpt lat="40.0715572" lon="-105.2298555">
  <ele>1582.99</ele>
  <time>2026-09-02T20:50:43Z</time>
  <course>344.41</course>
  <speed>0.9945853407325085</speed>
  <fix>3d</fix>
</trkpt>
<trkpt lat="40.0715561" lon="-105.2298552">
  <ele>1582.99</ele>
  <time>2026-09-02T20:50:43Z</time>
  <course>344.38</course>
  <speed>1.0</speed>
  <fix>3d</fix>
</trkpt>
<trkpt lat="40.0715579" lon="-105.2298558">
  <ele>1582.99</ele>
  <time>2026-09-02T20:50:43Z</time>
  <course>344.41</course>
  <speed>0.9945853407325085</speed>
  <fix>3d</fix>
</trkpt>
<trkpt lat="40.0715561" lon="-105.2298552">
  <ele>1582.99</ele>
  <time>2026-09-02T20:50:43Z</time>
  <course>344.38</course>
  <speed>1.0</speed>
  <fix>3d</fix>
</trkpt>
<trkpt lat="40.0715587" lon="-105.229856">
  <ele>1582.99</ele>
  <time>2026-09-02T20:50:43Z</time>
  <course>344.41</course>
  <speed>0.9945853407325085</speed>
  <fix>3d</fix>
</trkpt>
<trkpt lat="40.0715578" lon="-105.2298558">
  <ele>1582.99</ele>
  <time>2026-09-02T20:50:43Z</time>
  <course>344.38</course>
  <speed>0.99</speed>
  <fix>3d</fix>
</trkpt>
<trkpt lat="40.0715596" lon="-105.2298563">
  <ele>1582.99</ele>
  <time>2026-09-02T20:50:43Z</time>
  <course>344.41</course>
  <speed>0.9945853407325085</speed>
  <fix>3d</fix>
</trkpt>
<trkpt lat="40.0715578" lon="-105.2298558">
  <ele>1582.99</ele>
  <time>2026-09-02T20:50:43Z</time>
  <course>344.38</course>
  <speed>0.99</speed>
  <fix>3d</fix>
</trkpt>
<trkpt lat="40.0715603" lon="-105.2298567">
  <ele>1582.99</ele>
  <time>2026-09-02T20:50:43Z</time>
  <course>344.41</course>
  <speed>0.9945853407325085</speed>
  <fix>3d</fix>
</trkpt>
<trkpt lat="40.0715595" lon="-105.2298564">
  <ele>1582.99</ele>
  <time>2026-09-02T20:50:43Z</time>
  <course>344.38</course>
  <speed>1.0</speed>
  <fix>3d</fix>
</trkpt>
<trkpt lat="40.0715613" lon="-105.229857">
  <ele>1582.99</ele>
  <time>2026-09-02T20:50:43Z</time>
  <course>344.41</course>
  <speed>0.9945853407325085</speed>
  <fix>3d</fix>
</trkpt>
<trkpt lat="40.0715595" lon="-105.2298564">
  <ele>1582.99</ele>
  <time>2026-09-02T20:50:43Z</time>
  <course>344.38</course>
  <speed>1.0</speed>
  <fix>3d</fix>
</trkpt>
<trkpt lat="40.0715621" lon="-105.2298574">
  <ele>1582.99</ele>
  <time>2026-09-02T20:50:43Z</time>
  <course>344.41</course>
  <speed>0.9945853407325085</speed>
  <fix>3d</fix>
</trkpt>
<trkpt lat="40.0715613" lon="-105.2298571">
  <ele>1582.99</ele>
  <time>2026-09-02T20:50:43Z</time>
  <course>344.38</course>
  <speed>1.0</speed>
  <fix>3d</fix>
</trkpt>
<trkpt lat="40.071563" lon="-105.2298577">
  <ele>1582.99</ele>
  <time>2026-09-02T20:50:43Z</time>
  <course>344.41</course>
  <speed>0.9945853407325085</speed>
  <fix>3d</fix>
</trkpt>
<trkpt lat="40.0715613" lon="-105.2298571">
  <ele>1582.99</ele>
  <time>2026-09-02T20:50:43Z</time>
  <course>344.38</course>
  <speed>1.0</speed>
  <fix>3d</fix>
</trkpt>
<trkpt lat="40.0715639" lon="-105.2298579">
  <ele>1582.99</ele>
  <time>2026-09-02T20:50:43Z</time>
  <course>344.41</course>
  <speed>0.9945853407325085</speed>
  <fix>3d</fix>
</trkpt>
<trkpt lat="40.071563" lon="-105.2298577">
  <ele>1582.99</ele>
  <time>2026-09-02T20:50:43Z</time>
  <course>344.38</course>
  <speed>0.99</speed>
  <fix>3d</fix>
</trkpt>
<trkpt lat="40.0715648" lon="-105.2298582">
  <ele>1582.99</ele>
  <time>2026-09-02T20:50:43Z</time>
  <course>344.41</course>
  <speed>0.9945853407325085</speed>
  <fix>3d</fix>
</trkpt>
<trkpt lat="40.071563" lon="-105.2298577">
  <ele>1582.99</ele>
  <time>2026-09-02T20:50:43Z</time>
  <course>344.38</course>
  <speed>0.99</speed>
  <fix>3d</fix>
</trkpt>
<trkpt lat="40.0715656" lon="-105.2298587">
  <ele>1582.99</ele>
  <time>2026-09-02T20:50:43Z</time>
  <course>344.41</course>
  <speed>0.9945853407325085</speed>
  <fix>3d</fix>
</trkpt>
<trkpt lat="40.0715647" lon="-105.2298583">
  <ele>1582.99</ele>
  <time>2026-09-02T20:50:43Z</time>
  <course>344.38</course>
  <speed>0.99</speed>
  <fix>3d</fix>
</trkpt>
<trkpt lat="40.0715667" lon="-105.2298589">
  <ele>1582.99</ele>
  <time>2026-09-02T20:50:43Z</time>
  <course>344.41</course>
  <speed>0.9945853407325085</speed>
  <fix>3d</fix>
</trkpt>
<trkpt lat="40.0715647" lon="-105.2298583">
  <ele>1582.99</ele>
  <time>2026-09-02T20:50:43Z</time>
  <course>344.38</course>
  <speed>0.99</speed>
  <fix>3d</fix>
</trkpt>
<trkpt lat="40.0715675" lon="-105.2298594">
  <ele>1582.99</ele>
  <time>2026-09-02T20:50:43Z</time>
  <course>344.41</course>
  <speed>0.9945853407325085</speed>
  <fix>3d</fix>
</trkpt>
<trkpt lat="40.0715665" lon="-105.229859">
  <ele>1582.99</ele>
  <time>2026-09-02T20:50:43Z</time>
  <course>344.38</course>
  <speed>0.99</speed>
  <fix>3d</fix>
</trkpt>
<trkpt lat="40.0715683" lon="-105.2298596">
  <ele>1582.99</ele>
  <time>2026-09-02T20:50:43Z</time>
  <course>344.41</course>
  <speed>0.9945853407325085</speed>
  <fix>3d</fix>
</trkpt>
<trkpt lat="40.0715665" lon="-105.229859">
  <ele>1582.99</ele>
  <time>2026-09-02T20:50:43Z</time>
  <course>344.38</course>
  <speed>0.99</speed>
  <fix>3d</fix>
</trkpt>
<trkpt lat="40.0715693" lon="-105.22986">
  <ele>1582.99</ele>
  <time>2026-09-02T20:50:43Z</time>
  <course>344.41</course>
  <speed>0.9945853407325085</speed>
  <fix>3d</fix>
</trkpt>
<trkpt lat="40.0715682" lon="-105.2298596">
  <ele>1582.99</ele>
  <time>2026-09-02T20:50:43Z</time>
  <course>344.38</course>
  <speed>1.0</speed>
  <fix>3d</fix>
</trkpt>
<trkpt lat="40.07157" lon="-105.2298603">
  <ele>1582.99</ele>
  <time>2026-09-02T20:50:43Z</time>
  <course>344.41</course>
  <speed>0.9945853407325085</speed>
  <fix>3d</fix>
</trkpt>
<trkpt lat="40.0715682" lon="-105.2298596">
  <ele>1582.99</ele>
  <time>2026-09-02T20:50:43Z</time>
  <course>344.38</course>
  <speed>1.0</speed>
  <fix>3d</fix>
</trkpt>
<trkpt lat="40.071571" lon="-105.2298606">
  <ele>1582.99</ele>
  <time>2026-09-02T20:50:43Z</time>
  <course>344.41</course>
  <speed>0.9945853407325085</speed>
  <fix>3d</fix>
</trkpt>
<trkpt lat="40.0715699" lon="-105.2298602">
  <ele>1582.99</ele>
  <time>2026-09-02T20:50:43Z</time>
  <course>344.38</course>
  <speed>0.99</speed>
  <fix>3d</fix>
</trkpt>
<trkpt lat="40.0715718" lon="-105.2298608">
  <ele>1582.99</ele>
  <time>2026-09-02T20:50:43Z</time>
  <course>344.41</course>
  <speed>0.9945853407325085</speed>
  <fix>3d</fix>
</trkpt>
<trkpt lat="40.0715699" lon="-105.2298602">
  <ele>1582.99</ele>
  <time>2026-09-02T20:50:43Z</time>
  <course>344.38</course>
  <speed>0.99</speed>
  <fix>3d</fix>
</trkpt>
<trkpt lat="40.0715727" lon="-105.2298612">
  <ele>1582.99</ele>
  <time>2026-09-02T20:50:43Z</time>
  <course>344.41</course>
  <speed>0.9945853407325085</speed>
  <fix>3d</fix>
</trkpt>
<trkpt lat="40.0715716" lon="-105.2298609">
  <ele>1582.99</ele>
  <time>2026-09-02T20:50:43Z</time>
  <course>344.38</course>
  <speed>0.99</speed>
  <fix>3d</fix>
</trkpt>
<trkpt lat="40.0715736" lon="-105.2298615">
  <ele>1582.99</ele>
  <time>2026-09-02T20:50:43Z</time>
  <course>344.41</course>
  <speed>0.9945853407325085</speed>
  <fix>3d</fix>
</trkpt>
<trkpt lat="40.0715716" lon="-105.2298609">
  <ele>1582.99</ele>
  <time>2026-09-02T20:50:43Z</time>
  <course>344.38</course>
  <speed>0.99</speed>
  <fix>3d</fix>
</trkpt>
<trkpt lat="40.0715743" lon="-105.2298618">
  <ele>1582.99</ele>
  <time>2026-09-02T20:50:43Z</time>
  <course>344.41</course>
  <speed>0.9945853407325085</speed>
  <fix>3d</fix>
</trkpt>
<trkpt lat="40.0715734" lon="-105.2298615">
  <ele>1582.99</ele>
  <time>2026-09-02T20:50:43Z</time>
  <course>344.38</course>
  <speed>1.0</speed>
  <fix>3d</fix>
</trkpt>
<trkpt lat="40.0715753" lon="-105.2298622">
  <ele>1582.99</ele>
  <time>2026-09-02T20:50:43Z</time>
  <course>344.41</course>
  <speed>0.9945853407325085</speed>
  <fix>3d</fix>
</trkpt>
<trkpt lat="40.0715734" lon="-105.2298615">
  <ele>1582.99</ele>
  <time>2026-09-02T20:50:43Z</time>
  <course>344.38</course>
  <speed>1.0</speed>
  <fix>3d</fix>
</trkpt>
<trkpt lat="40.0715761" lon="-105.2298625">
  <ele>1582.99</ele>
  <time>2026-09-02T20:50:43Z</time>
  <course>344.41</course>
  <speed>0.9945853407325085</speed>
  <fix>3d</fix>
</trkpt>
<trkpt lat="40.0715751" lon="-105.229862">
  <ele>1582.99</ele>
  <time>2026-09-02T20:50:43Z</time>
  <course>344.38</course>
  <speed>1.0</speed>
  <fix>3d</fix>
</trkpt>
<trkpt lat="40.0715768" lon="-105.2298627">
  <ele>1582.99</ele>
  <time>2026-09-02T20:50:43Z</time>
  <course>344.41</course>
  <speed>0.9945853407325085</speed>
  <fix>3d</fix>
</trkpt>
<trkpt lat="40.0715751" lon="-105.229862">
  <ele>1582.99</ele>
  <time>2026-09-02T20:50:43Z</time>
  <course>344.38</course>
  <speed>1.0</speed>
  <fix>3d</fix>
</trkpt>
<trkpt lat="40.0715777" lon="-105.229863">
  <ele>1582.99</ele>
  <time>2026-09-02T20:50:43Z</time>
  <course>344.42</course>
  <speed>0.9945853407325085</speed>
  <fix>3d</fix>
</trkpt>
<trkpt lat="40.0715768" lon="-105.2298627">
  <ele>1582.99</ele>
  <time>2026-09-02T20:50:43Z</time>
  <course>344.39</course>
  <speed>1.0</speed>
  <fix>3d</fix>
</trkpt>
<trkpt lat="40.0715785" lon="-105.2298634">
  <ele>1582.99</ele>
  <time>2026-09-02T20:50:43Z</time>
  <course>344.42</course>
  <speed>0.9945853407325085</speed>
  <fix>3d</fix>
</trkpt>
<trkpt lat="40.0715768" lon="-105.2298627">
  <ele>1582.99</ele>
  <time>2026-09-02T20:50:43Z</time>
  <course>344.39</course>
  <speed>1.0</speed>
  <fix>3d</fix>
</trkpt>
<trkpt lat="40.0715795" lon="-105.2298637">
  <ele>1582.99</ele>
  <time>2026-09-02T20:50:43Z</time>
  <course>344.42</course>
  <speed>0.9945853407325085</speed>
  <fix>3d</fix>
</trkpt>
<trkpt lat="40.0715785" lon="-105.2298634">
  <ele>1582.99</ele>
  <time>2026-09-02T20:50:43Z</time>
  <course>344.39</course>
  <speed>1.0</speed>
  <fix>3d</fix>
</trkpt>
<trkpt lat="40.0715803" lon="-105.2298639">
  <ele>1582.99</ele>
  <time>2026-09-02T20:50:43Z</time>
  <course>344.42</course>
  <speed>0.9945853407325085</speed>
  <fix>3d</fix>
</trkpt>
<trkpt lat="40.0715785" lon="-105.2298634">
  <ele>1582.99</ele>
  <time>2026-09-02T20:50:43Z</time>
  <course>344.39</course>
  <speed>1.0</speed>
  <fix>3d</fix>
</trkpt>
<trkpt lat="40.0715812" lon="-105.2298642">
  <ele>1582.99</ele>
  <time>2026-09-02T20:50:43Z</time>
  <course>344.41</course>
  <speed>0.9945853407325085</speed>
  <fix>3d</fix>
</trkpt>
<trkpt lat="40.0715803" lon="-105.2298639">
  <ele>1582.99</ele>
  <time>2026-09-02T20:50:43Z</time>
  <course>344.39</course>
  <speed>0.99</speed>
  <fix>3d</fix>
</trkpt>
<trkpt lat="40.0715821" lon="-105.2298646">
  <ele>1582.99</ele>
  <time>2026-09-02T20:50:43Z</time>
  <course>344.41</course>
  <speed>0.9945853407325085</speed>
  <fix>3d</fix>
</trkpt>
<trkpt lat="40.0715803" lon="-105.2298639">
  <ele>1582.99</ele>
  <time>2026-09-02T20:50:43Z</time>
  <course>344.39</course>
  <speed>0.99</speed>
  <fix>3d</fix>
</trkpt>
<trkpt lat="40.0715828" lon="-105.2298649">
  <ele>1582.99</ele>
  <time>2026-09-02T20:50:43Z</time>
  <course>344.41</course>
  <speed>0.9945853407325085</speed>
  <fix>3d</fix>
</trkpt>
<trkpt lat="40.071582" lon="-105.2298646">
  <ele>1582.99</ele>
  <time>2026-09-02T20:50:43Z</time>
  <course>344.39</course>
  <speed>0.99</speed>
  <fix>3d</fix>
</trkpt>
<trkpt lat="40.0715838" lon="-105.2298653">
  <ele>1582.99</ele>
  <time>2026-09-02T20:50:43Z</time>
  <course>344.41</course>
  <speed>0.9945853407325085</speed>
  <fix>3d</fix>
</trkpt>
<trkpt lat="40.071582" lon="-105.2298646">
  <ele>1582.99</ele>
  <time>2026-09-02T20:50:43Z</time>
  <course>344.39</course>
  <speed>0.99</speed>
  <fix>3d</fix>
</trkpt>
<trkpt lat="40.0715847" lon="-105.2298656">
  <ele>1582.99</ele>
  <time>2026-09-02T20:50:43Z</time>
  <course>344.41</course>
  <speed>0.9945853407325085</speed>
  <fix>3d</fix>
</trkpt>
<trkpt lat="40.0715838" lon="-105.2298653">
  <ele>1582.99</ele>
  <time>2026-09-02T20:50:43Z</time>
  <course>344.39</course>
  <speed>0.99</speed>
  <fix>3d</fix>
</trkpt>
<trkpt lat="40.0715857" lon="-105.229866">
  <ele>1582.99</ele>
  <time>2026-09-02T20:50:43Z</time>
  <course>344.41</course>
  <speed>0.9945853407325085</speed>
  <fix>3d</fix>
</trkpt>
<trkpt lat="40.0715838" lon="-105.2298653">
  <ele>1582.99</ele>
  <time>2026-09-02T20:50:43Z</time>
  <course>344.39</course>
  <speed>0.99</speed>
  <fix>3d</fix>
</trkpt>
<trkpt lat="40.0715865" lon="-105.2298663">
  <ele>1582.99</ele>
  <time>2026-09-02T20:50:43Z</time>
  <course>344.41</course>
  <speed>0.9945853407325085</speed>
  <fix>3d</fix>
</trkpt>
<trkpt lat="40.0715855" lon="-105.2298658">
  <ele>1582.99</ele>
  <time>2026-09-02T20:50:43Z</time>
  <course>344.39</course>
  <speed>0.99</speed>
  <fix>3d</fix>
</trkpt>
<trkpt lat="40.0715874" lon="-105.2298665">
  <ele>1582.99</ele>
  <time>2026-09-02T20:50:43Z</time>
  <course>344.41</course>
  <speed>0.9945853407325085</speed>
  <fix>3d</fix>
</trkpt>
<trkpt lat="40.0715855" lon="-105.2298658">
  <ele>1582.99</ele>
  <time>2026-09-02T20:50:43Z</time>
  <course>344.39</course>
  <speed>0.99</speed>
  <fix>3d</fix>
</trkpt>
<trkpt lat="40.0715882" lon="-105.2298668">
  <ele>1582.99</ele>
  <time>2026-09-02T20:50:43Z</time>
  <course>344.41</course>
  <speed>0.9945853407325085</speed>
  <fix>3d</fix>
</trkpt>
<trkpt lat="40.0715872" lon="-105.2298665">
  <ele>1582.99</ele>
  <time>2026-09-02T20:50:43Z</time>
  <course>344.39</course>
  <speed>0.99</speed>
  <fix>3d</fix>
</trkpt>
<trkpt lat="40.0715891" lon="-105.2298672">
  <ele>1582.99</ele>
  <time>2026-09-02T20:50:43Z</time>
  <course>344.41</course>
  <speed>0.9945853407325085</speed>
  <fix>3d</fix>
</trkpt>
<trkpt lat="40.0715872" lon="-105.2298665">
  <ele>1582.99</ele>
  <time>2026-09-02T20:50:43Z</time>
  <course>344.39</course>
  <speed>0.99</speed>
  <fix>3d</fix>
</trkpt>
<trkpt lat="40.07159" lon="-105.2298675">
  <ele>1582.99</ele>
  <time>2026-09-02T20:50:43Z</time>
  <course>344.41</course>
  <speed>0.9945853407325085</speed>
  <fix>3d</fix>
</trkpt>
<trkpt lat="40.071589" lon="-105.2298672">
  <ele>1582.99</ele>
  <time>2026-09-02T20:50:43Z</time>
  <course>344.39</course>
  <speed>0.99</speed>
  <fix>3d</fix>
</trkpt>
<trkpt lat="40.0715908" lon="-105.2298679">
  <ele>1582.99</ele>
  <time>2026-09-02T20:50:43Z</time>
  <course>344.41</course>
  <speed>0.9945853407325085</speed>
  <fix>3d</fix>
</trkpt>
<trkpt lat="40.071589" lon="-105.2298672">
  <ele>1582.99</ele>
  <time>2026-09-02T20:50:43Z</time>
  <course>344.39</course>
  <speed>0.99</speed>
  <fix>3d</fix>
</trkpt>
<trkpt lat="40.0715917" lon="-105.2298682">
  <ele>1582.99</ele>
  <time>2026-09-02T20:50:43Z</time>
  <course>344.41</course>
  <speed>0.9945853407325085</speed>
  <fix>3d</fix>
</trkpt>
<trkpt lat="40.0715907" lon="-105.2298677">
  <ele>1582.99</ele>
  <time>2026-09-02T20:50:43Z</time>
  <course>344.39</course>
  <speed>1.0</speed>
  <fix>3d</fix>
</trkpt>
<trkpt lat="40.0715925" lon="-105.2298685">
  <ele>1582.99</ele>
  <time>2026-09-02T20:50:43Z</time>
  <course>344.41</course>
  <speed>0.9945853407325085</speed>
  <fix>3d</fix>
</trkpt>
<trkpt lat="40.0715907" lon="-105.2298677">
  <ele>1582.99</ele>
  <time>2026-09-02T20:50:43Z</time>
  <course>344.39</course>
  <speed>1.0</speed>
  <fix>3d</fix>
</trkpt>
<trkpt lat="40.0715935" lon="-105.2298687">
  <ele>1582.99</ele>
  <time>2026-09-02T20:50:43Z</time>
  <course>344.41</course>
  <speed>0.9945853407325085</speed>
  <fix>3d</fix>
</trkpt>
<trkpt lat="40.0715924" lon="-105.2298684">
  <ele>1582.99</ele>
  <time>2026-09-02T20:50:43Z</time>
  <course>344.39</course>
  <speed>1.0</speed>
  <fix>3d</fix>
</trkpt>
<trkpt lat="40.0715942" lon="-105.2298691">
  <ele>1582.99</ele>
  <time>2026-09-02T20:50:43Z</time>
  <course>344.41</course>
  <speed>0.9945853407325085</speed>
  <fix>3d</fix>
</trkpt>
<trkpt lat="40.0715924" lon="-105.2298684">
  <ele>1582.99</ele>
  <time>2026-09-02T20:50:43Z</time>
  <course>344.39</course>
  <speed>1.0</speed>
  <fix>3d</fix>
</trkpt>
<trkpt lat="40.0715949" lon="-105.2298694">
  <ele>1582.99</ele>
  <time>2026-09-02T20:50:43Z</time>
  <course>344.41</course>
  <speed>0.9945853407325085</speed>
  <fix>3d</fix>
</trkpt>
<trkpt lat="40.0715941" lon="-105.2298691">
  <ele>1582.99</ele>
  <time>2026-09-02T20:50:43Z</time>
  <course>344.39</course>
  <speed>1.0</speed>
  <fix>3d</fix>
</trkpt>
<trkpt lat="40.0715959" lon="-105.2298697">
  <ele>1582.99</ele>
  <time>2026-09-02T20:50:43Z</time>
  <course>344.42</course>
  <speed>0.9945853407325085</speed>
  <fix>3d</fix>
</trkpt>
<trkpt lat="40.0715941" lon="-105.2298691">
  <ele>1582.99</ele>
  <time>2026-09-02T20:50:43Z</time>
  <course>344.39</course>
  <speed>1.0</speed>
  <fix>3d</fix>
</trkpt>
<trkpt lat="40.0715967" lon="-105.2298699">
  <ele>1582.99</ele>
  <time>2026-09-02T20:50:43Z</time>
  <course>344.42</course>
  <speed>0.9945853407325085</speed>
  <fix>3d</fix>
</trkpt>
<trkpt lat="40.0715958" lon="-105.2298697">
  <ele>1582.99</ele>
  <time>2026-09-02T20:50:43Z</time>
  <course>344.39</course>
  <speed>1.0</speed>
  <fix>3d</fix>
</trkpt>
<trkpt lat="40.0715975" lon="-105.2298703">
  <ele>1582.99</ele>
  <time>2026-09-02T20:50:43Z</time>
  <course>344.42</course>
  <speed>0.9945853407325085</speed>
  <fix>3d</fix>
</trkpt>
<trkpt lat="40.0715958" lon="-105.2298697">
  <ele>1582.99</ele>
  <time>2026-09-02T20:50:43Z</time>
  <course>344.39</course>
  <speed>1.0</speed>
  <fix>3d</fix>
</trkpt>
<trkpt lat="40.0715985" lon="-105.2298706">
  <ele>1582.99</ele>
  <time>2026-09-02T20:50:43Z</time>
  <course>344.42</course>
  <speed>0.9945853407325085</speed>
  <fix>3d</fix>
</trkpt>
<trkpt lat="40.0715976" lon="-105.2298703">
  <ele>1582.99</ele>
  <time>2026-09-02T20:50:43Z</time>
  <course>344.39</course>
  <speed>1.0</speed>
  <fix>3d</fix>
</trkpt>
<trkpt lat="40.0715993" lon="-105.2298709">
  <ele>1582.99</ele>
  <time>2026-09-02T20:50:43Z</time>
  <course>344.42</course>
  <speed>0.9945853407325085</speed>
  <fix>3d</fix>
</trkpt>
<trkpt lat="40.0715976" lon="-105.2298703">
  <ele>1582.99</ele>
  <time>2026-09-02T20:50:43Z</time>
  <course>344.39</course>
  <speed>1.0</speed>
  <fix>3d</fix>
</trkpt>
<trkpt lat="40.0716002" lon="-105.2298713">
  <ele>1582.99</ele>
  <time>2026-09-02T20:50:43Z</time>
  <course>344.42</course>
  <speed>0.9945853407325085</speed>
  <fix>3d</fix>
</trkpt>
<trkpt lat="40.0715993" lon="-105.229871">
  <ele>1582.99</ele>
  <time>2026-09-02T20:50:43Z</time>
  <course>344.39</course>
  <speed>0.99</speed>
  <fix>3d</fix>
</trkpt>
<trkpt lat="40.071601" lon="-105.2298716">
  <ele>1582.99</ele>
  <time>2026-09-02T20:50:43Z</time>
  <course>344.42</course>
  <speed>0.9945853407325085</speed>
  <fix>3d</fix>
</trkpt>
<trkpt lat="40.0715993" lon="-105.229871">
  <ele>1582.99</ele>
  <time>2026-09-02T20:50:43Z</time>
  <course>344.39</course>
  <speed>0.99</speed>
  <fix>3d</fix>
</trkpt>
<trkpt lat="40.071602" lon="-105.2298718">
  <ele>1582.99</ele>
  <time>2026-09-02T20:50:43Z</time>
  <course>344.42</course>
  <speed>0.9849365461794989</speed>
  <fix>3d</fix>
</trkpt>
<trkpt lat="40.071601" lon="-105.2298716">
  <ele>1582.99</ele>
  <time>2026-09-02T20:50:43Z</time>
  <course>344.39</course>
  <speed>0.99</speed>
  <fix>3d</fix>
</trkpt>
<trkpt lat="40.0716029" lon="-105.2298723">
  <ele>1582.99</ele>
  <time>2026-09-02T20:50:43Z</time>
  <course>344.42</course>
  <speed>0.9945853407325085</speed>
  <fix>3d</fix>
</trkpt>
<trkpt lat="40.071601" lon="-105.2298716">
  <ele>1582.99</ele>
  <time>2026-09-02T20:50:43Z</time>
  <course>344.39</course>
  <speed>0.99</speed>
  <fix>3d</fix>
</trkpt>
<trkpt lat="40.0716039" lon="-105.2298725">
  <ele>1582.99</ele>
  <time>2026-09-02T20:50:43Z</time>
  <course>344.42</course>
  <speed>0.9945853407325085</speed>
  <fix>3d</fix>
</trkpt>
<trkpt lat="40.0716028" lon="-105.2298721">
  <ele>1582.99</ele>
  <time>2026-09-02T20:50:43Z</time>
  <course>344.39</course>
  <speed>0.99</speed>
  <fix>3d</fix>
</trkpt>
<trkpt lat="40.0716046" lon="-105.2298728">
  <ele>1582.99</ele>
  <time>2026-09-02T20:50:43Z</time>
  <course>344.42</course>
  <speed>0.9945853407325085</speed>
  <fix>3d</fix>
</trkpt>
<trkpt lat="40.0716028" lon="-105.2298721">
  <ele>1582.99</ele>
  <time>2026-09-02T20:50:43Z</time>
  <course>344.39</course>
  <speed>0.99</speed>
  <fix>3d</fix>
</trkpt>
<trkpt lat="40.0716056" lon="-105.2298732">
  <ele>1582.99</ele>
  <time>2026-09-02T20:50:43Z</time>
  <course>344.42</course>
  <speed>0.9945853407325085</speed>
  <fix>3d</fix>
</trkpt>
<trkpt lat="40.0716045" lon="-105.2298728">
  <ele>1582.99</ele>
  <time>2026-09-02T20:50:43Z</time>
  <course>344.39</course>
  <speed>0.99</speed>
  <fix>3d</fix>
</trkpt>
<trkpt lat="40.0716064" lon="-105.2298735">
  <ele>1582.99</ele>
  <time>2026-09-02T20:50:43Z</time>
  <course>344.42</course>
  <speed>0.9945853407325085</speed>
  <fix>3d</fix>
</trkpt>
<trkpt lat="40.0716045" lon="-105.2298728">
  <ele>1582.99</ele>
  <time>2026-09-02T20:50:43Z</time>
  <course>344.39</course>
  <speed>0.99</speed>
  <fix>3d</fix>
</trkpt>
<trkpt lat="40.0716072" lon="-105.2298739">
  <ele>1582.99</ele>
  <time>2026-09-02T20:50:43Z</time>
  <course>344.43</course>
  <speed>0.9945853407325085</speed>
  <fix>3d</fix>
</trkpt>
<trkpt lat="40.0716062" lon="-105.2298735">
  <ele>1582.99</ele>
  <time>2026-09-02T20:50:43Z</time>
  <course>344.4</course>
  <speed>0.99</speed>
  <fix>3d</fix>
</trkpt>
<trkpt lat="40.0716082" lon="-105.2298742">
  <ele>1582.99</ele>
  <time>2026-09-02T20:50:43Z</time>
  <course>344.42</course>
  <speed>0.9945853407325085</speed>
  <fix>3d</fix>
</trkpt>
<trkpt lat="40.0716062" lon="-105.2298735">
  <ele>1582.99</ele>
  <time>2026-09-02T20:50:43Z</time>
  <course>344.4</course>
  <speed>0.99</speed>
  <fix>3d</fix>
</trkpt>
<trkpt lat="40.0716089" lon="-105.2298744">
  <ele>1582.99</ele>
  <time>2026-09-02T20:50:43Z</time>
  <course>344.43</course>
  <speed>0.9945853407325085</speed>
  <fix>3d</fix>
</trkpt>
<trkpt lat="40.071608" lon="-105.229874">
  <ele>1582.99</ele>
  <time>2026-09-02T20:50:43Z</time>
  <course>344.4</course>
  <speed>0.99</speed>
  <fix>3d</fix>
</trkpt>
<trkpt lat="40.0716099" lon="-105.2298747">
  <ele>1582.99</ele>
  <time>2026-09-02T20:50:43Z</time>
  <course>344.43</course>
  <speed>0.9945853407325085</speed>
  <fix>3d</fix>
</trkpt>
<trkpt lat="40.071608" lon="-105.229874">
  <ele>1582.99</ele>
  <time>2026-09-02T20:50:43Z</time>
  <course>344.4</course>
  <speed>0.99</speed>
  <fix>3d</fix>
</trkpt>
<trkpt lat="40.0716107" lon="-105.2298751">
  <ele>1582.99</ele>
  <time>2026-09-02T20:50:43Z</time>
  <course>344.43</course>
  <speed>0.9945853407325085</speed>
  <fix>3d</fix>
</trkpt>
<trkpt lat="40.0716097" lon="-105.2298747">
  <ele>1582.99</ele>
  <time>2026-09-02T20:50:43Z</time>
  <course>344.4</course>
  <speed>1.0</speed>
  <fix>3d</fix>
</trkpt>
<trkpt lat="40.0716116" lon="-105.2298754">
  <ele>1582.99</ele>
  <time>2026-09-02T20:50:43Z</time>
  <course>344.43</course>
  <speed>0.9945853407325085</speed>
  <fix>3d</fix>
</trkpt>
<trkpt lat="40.0716097" lon="-105.2298747">
  <ele>1582.99</ele>
  <time>2026-09-02T20:50:43Z</time>
  <course>344.4</course>
  <speed>1.0</speed>
  <fix>3d</fix>
</trkpt>
<trkpt lat="40.0716123" lon="-105.2298756">
  <ele>1582.99</ele>
  <time>2026-09-02T20:50:43Z</time>
  <course>344.43</course>
  <speed>0.9945853407325085</speed>
  <fix>3d</fix>
</trkpt>
<trkpt lat="40.0716114" lon="-105.2298754">
  <ele>1582.99</ele>
  <time>2026-09-02T20:50:43Z</time>
  <course>344.4</course>
  <speed>1.0</speed>
  <fix>3d</fix>
</trkpt>
<trkpt lat="40.0716132" lon="-105.2298759">
  <ele>1582.99</ele>
  <time>2026-09-02T20:50:43Z</time>
  <course>344.43</course>
  <speed>0.9945853407325085</speed>
  <fix>3d</fix>
</trkpt>
<trkpt lat="40.0716114" lon="-105.2298754">
  <ele>1582.99</ele>
  <time>2026-09-02T20:50:43Z</time>
  <course>344.4</course>
  <speed>1.0</speed>
  <fix>3d</fix>
</trkpt>
<trkpt lat="40.0716141" lon="-105.2298763">
  <ele>1582.99</ele>
  <time>2026-09-02T20:50:43Z</time>
  <course>344.43</course>
  <speed>0.9945853407325085</speed>
  <fix>3d</fix>
</trkpt>
<trkpt lat="40.0716132" lon="-105.2298759">
  <ele>1582.99</ele>
  <time>2026-09-02T20:50:43Z</time>
  <course>344.4</course>
  <speed>1.0</speed>
  <fix>3d</fix>
</trkpt>
<trkpt lat="40.0716149" lon="-105.2298766">
  <ele>1582.99</ele>
  <time>2026-09-02T20:50:43Z</time>
  <course>344.43</course>
  <speed>0.9945853407325085</speed>
  <fix>3d</fix>
</trkpt>
<trkpt lat="40.0716132" lon="-105.2298759">
  <ele>1582.99</ele>
  <time>2026-09-02T20:50:43Z</time>
  <course>344.4</course>
  <speed>1.0</speed>
  <fix>3d</fix>
</trkpt>
<trkpt lat="40.0716157" lon="-105.229877">
  <ele>1582.99</ele>
  <time>2026-09-02T20:50:43Z</time>
  <course>344.43</course>
  <speed>0.9945853407325085</speed>
  <fix>3d</fix>
</trkpt>
<trkpt lat="40.0716149" lon="-105.2298766">
  <ele>1582.99</ele>
  <time>2026-09-02T20:50:43Z</time>
  <course>344.4</course>
  <speed>0.99</speed>
  <fix>3d</fix>
</trkpt>
<trkpt lat="40.0716167" lon="-105.2298773">
  <ele>1582.99</ele>
  <time>2026-09-02T20:50:43Z</time>
  <course>344.43</course>
  <speed>0.9945853407325085</speed>
  <fix>3d</fix>
</trkpt>
<trkpt lat="40.0716149" lon="-105.2298766">
  <ele>1582.99</ele>
  <time>2026-09-02T20:50:43Z</time>
  <course>344.4</course>
  <speed>0.99</speed>
  <fix>3d</fix>
</trkpt>
<trkpt lat="40.0716174" lon="-105.2298776">
  <ele>1582.99</ele>
  <time>2026-09-02T20:50:43Z</time>
  <course>344.43</course>
  <speed>0.9945853407325085</speed>
  <fix>3d</fix>
</trkpt>
<trkpt lat="40.0716166" lon="-105.2298773">
  <ele>1582.99</ele>
  <time>2026-09-02T20:50:43Z</time>
  <course>344.4</course>
  <speed>0.99</speed>
  <fix>3d</fix>
</trkpt>
<trkpt lat="40.0716184" lon="-105.2298778">
  <ele>1582.99</ele>
  <time>2026-09-02T20:50:43Z</time>
  <course>344.43</course>
  <speed>0.9945853407325085</speed>
  <fix>3d</fix>
</trkpt>
<trkpt lat="40.0716166" lon="-105.2298773">
  <ele>1582.99</ele>
  <time>2026-09-02T20:50:43Z</time>
  <course>344.4</course>
  <speed>0.99</speed>
  <fix>3d</fix>
</trkpt>
<trkpt lat="40.0716192" lon="-105.2298782">
  <ele>1582.99</ele>
  <time>2026-09-02T20:50:43Z</time>
  <course>344.43</course>
  <speed>0.9945853407325085</speed>
  <fix>3d</fix>
</trkpt>
<trkpt lat="40.0716183" lon="-105.2298778">
  <ele>1582.99</ele>
  <time>2026-09-02T20:50:43Z</time>
  <course>344.4</course>
  <speed>0.99</speed>
  <fix>3d</fix>
</trkpt>
<trkpt lat="40.07162" lon="-105.2298785">
  <ele>1582.99</ele>
  <time>2026-09-02T20:50:43Z</time>
  <course>344.43</course>
  <speed>0.9945853407325085</speed>
  <fix>3d</fix>
</trkpt>
<trkpt lat="40.0716183" lon="-105.2298778">
  <ele>1582.99</ele>
  <time>2026-09-02T20:50:43Z</time>
  <course>344.4</course>
  <speed>0.99</speed>
  <fix>3d</fix>
</trkpt>
<trkpt lat="40.0716211" lon="-105.2298788">
  <ele>1582.99</ele>
  <time>2026-09-02T20:50:43Z</time>
  <course>344.43</course>
  <speed>0.9945853407325085</speed>
  <fix>3d</fix>
</trkpt>
<trkpt lat="40.0716201" lon="-105.2298785">
  <ele>1582.99</ele>
  <time>2026-09-02T20:50:43Z</time>
  <course>344.4</course>
  <speed>0.99</speed>
  <fix>3d</fix>
</trkpt>
<trkpt lat="40.071622" lon="-105.2298792">
  <ele>1582.99</ele>
  <time>2026-09-02T20:50:43Z</time>
  <course>344.44</course>
  <speed>0.9945853407325085</speed>
  <fix>3d</fix>
</trkpt>
<trkpt lat="40.0716201" lon="-105.2298785">
  <ele>1582.99</ele>
  <time>2026-09-02T20:50:43Z</time>
  <course>344.4</course>
  <speed>0.99</speed>
  <fix>3d</fix>
</trkpt>
<trkpt lat="40.0716229" lon="-105.2298795">
  <ele>1582.99</ele>
  <time>2026-09-02T20:50:43Z</time>
  <course>344.44</course>
  <speed>0.9945853407325085</speed>
  <fix>3d</fix>
</trkpt>
<trkpt lat="40.0716218" lon="-105.2298792">
  <ele>1582.99</ele>
  <time>2026-09-02T20:50:43Z</time>
  <course>344.41</course>
  <speed>1.0</speed>
  <fix>3d</fix>
</trkpt>
<trkpt lat="40.0716236" lon="-105.2298799">
  <ele>1582.99</ele>
  <time>2026-09-02T20:50:43Z</time>
  <course>344.43</course>
  <speed>0.9945853407325085</speed>
  <fix>3d</fix>
</trkpt>
<trkpt lat="40.0716218" lon="-105.2298792">
  <ele>1582.99</ele>
  <time>2026-09-02T20:50:43Z</time>
  <course>344.41</course>
  <speed>1.0</speed>
  <fix>3d</fix>
</trkpt>
<trkpt lat="40.0716246" lon="-105.2298802">
  <ele>1582.99</ele>
  <time>2026-09-02T20:50:43Z</time>
  <course>344.43</course>
  <speed>0.9945853407325085</speed>
  <fix>3d</fix>
</trkpt>
<trkpt lat="40.0716235" lon="-105.2298797">
  <ele>1582.99</ele>
  <time>2026-09-02T20:50:43Z</time>
  <course>344.41</course>
  <speed>1.0</speed>
  <fix>3d</fix>
</trkpt>
<trkpt lat="40.0716254" lon="-105.2298804">
  <ele>1582.99</ele>
  <time>2026-09-02T20:50:43Z</time>
  <course>344.43</course>
  <speed>0.9945853407325085</speed>
  <fix>3d</fix>
</trkpt>
<trkpt lat="40.0716235" lon="-105.2298797">
  <ele>1582.99</ele>
  <time>2026-09-02T20:50:43Z</time>
  <course>344.41</course>
  <speed>1.0</speed>
  <fix>3d</fix>
</trkpt>
<trkpt lat="40.0716263" lon="-105.2298807">
  <ele>1582.99</ele>
  <time>2026-09-02T20:50:43Z</time>
  <course>344.43</course>
  <speed>0.9945853407325085</speed>
  <fix>3d</fix>
</trkpt>
<trkpt lat="40.0716252" lon="-105.2298804">
  <ele>1582.99</ele>
  <time>2026-09-02T20:50:43Z</time>
  <course>344.4</course>
  <speed>1.0</speed>
  <fix>3d</fix>
</trkpt>
<trkpt lat="40.0716271" lon="-105.2298811">
  <ele>1582.99</ele>
  <time>2026-09-02T20:50:43Z</time>
  <course>344.43</course>
  <speed>0.9945853407325085</speed>
  <fix>3d</fix>
</trkpt>
<trkpt lat="40.0716252" lon="-105.2298804">
  <ele>1582.99</ele>
  <time>2026-09-02T20:50:43Z</time>
  <course>344.4</course>
  <speed>1.0</speed>
  <fix>3d</fix>
</trkpt>
<trkpt lat="40.0716281" lon="-105.2298814">
  <ele>1582.99</ele>
  <time>2026-09-02T20:50:43Z</time>
  <course>344.43</course>
  <speed>0.9945853407325085</speed>
  <fix>3d</fix>
</trkpt>
<trkpt lat="40.071627" lon="-105.2298811">
  <ele>1582.99</ele>
  <time>2026-09-02T20:50:43Z</time>
  <course>344.4</course>
  <speed>1.0</speed>
  <fix>3d</fix>
</trkpt>
<trkpt lat="40.0716289" lon="-105.2298818">
  <ele>1582.99</ele>
  <time>2026-09-02T20:50:43Z</time>
  <course>344.43</course>
  <speed>0.9945853407325085</speed>
  <fix>3d</fix>
</trkpt>
<trkpt lat="40.071627" lon="-105.2298811">
  <ele>1582.99</ele>
  <time>2026-09-02T20:50:43Z</time>
  <course>344.4</course>
  <speed>1.0</speed>
  <fix>3d</fix>
</trkpt>
<trkpt lat="40.0716297" lon="-105.2298821">
  <ele>1582.99</ele>
  <time>2026-09-02T20:50:43Z</time>
  <course>344.43</course>
  <speed>0.9945853407325085</speed>
  <fix>3d</fix>
</trkpt>
<trkpt lat="40.0716287" lon="-105.2298816">
  <ele>1582.99</ele>
  <time>2026-09-02T20:50:43Z</time>
  <course>344.4</course>
  <speed>1.0</speed>
  <fix>3d</fix>
</trkpt>
<trkpt lat="40.0716305" lon="-105.2298823">
  <ele>1582.99</ele>
  <time>2026-09-02T20:50:43Z</time>
  <course>344.43</course>
  <speed>0.9945853407325085</speed>
  <fix>3d</fix>
</trkpt>
<trkpt lat="40.0716287" lon="-105.2298816">
  <ele>1582.99</ele>
  <time>2026-09-02T20:50:43Z</time>
  <course>344.4</course>
  <speed>1.0</speed>
  <fix>3d</fix>
</trkpt>
<trkpt lat="40.0716314" lon="-105.2298826">
  <ele>1582.99</ele>
  <time>2026-09-02T20:50:43Z</time>
  <course>344.43</course>
  <speed>0.9945853407325085</speed>
  <fix>3d</fix>
</trkpt>
<trkpt lat="40.0716305" lon="-105.2298822">
  <ele>1582.99</ele>
  <time>2026-09-02T20:50:43Z</time>
  <course>344.4</course>
  <speed>1.0</speed>
  <fix>3d</fix>
</trkpt>
<trkpt lat="40.0716321" lon="-105.229883">
  <ele>1582.99</ele>
  <time>2026-09-02T20:50:43Z</time>
  <course>344.43</course>
  <speed>0.9945853407325085</speed>
  <fix>3d</fix>
</trkpt>
<trkpt lat="40.0716305" lon="-105.2298822">
  <ele>1582.99</ele>
  <time>2026-09-02T20:50:43Z</time>
  <course>344.4</course>
  <speed>1.0</speed>
  <fix>3d</fix>
</trkpt>
<trkpt lat="40.0716331" lon="-105.2298833">
  <ele>1582.99</ele>
  <time>2026-09-02T20:50:43Z</time>
  <course>344.43</course>
  <speed>0.9945853407325085</speed>
  <fix>3d</fix>
</trkpt>
<trkpt lat="40.0716322" lon="-105.2298829">
  <ele>1582.99</ele>
  <time>2026-09-02T20:50:43Z</time>
  <course>344.4</course>
  <speed>1.0</speed>
  <fix>3d</fix>
</trkpt>
<trkpt lat="40.0716339" lon="-105.2298835">
  <ele>1582.99</ele>
  <time>2026-09-02T20:50:43Z</time>
  <course>344.43</course>
  <speed>0.9945853407325085</speed>
  <fix>3d</fix>
</trkpt>
<trkpt lat="40.0716322" lon="-105.2298829">
  <ele>1582.99</ele>
  <time>2026-09-02T20:50:43Z</time>
  <course>344.4</course>
  <speed>1.0</speed>
  <fix>3d</fix>
</trkpt>
<trkpt lat="40.0716348" lon="-105.2298838">
  <ele>1582.99</ele>
  <time>2026-09-02T20:50:43Z</time>
  <course>344.43</course>
  <speed>0.9945853407325085</speed>
  <fix>3d</fix>
</trkpt>
<trkpt lat="40.0716339" lon="-105.2298835">
  <ele>1582.99</ele>
  <time>2026-09-02T20:50:43Z</time>
  <course>344.4</course>
  <speed>0.99</speed>
  <fix>3d</fix>
</trkpt>
<trkpt lat="40.0716357" lon="-105.2298842">
  <ele>1582.99</ele>
  <time>2026-09-02T20:50:43Z</time>
  <course>344.43</course>
  <speed>0.9945853407325085</speed>
  <fix>3d</fix>
</trkpt>
<trkpt lat="40.0716339" lon="-105.2298835">
  <ele>1582.99</ele>
  <time>2026-09-02T20:50:43Z</time>
  <course>344.4</course>
  <speed>0.99</speed>
  <fix>3d</fix>
</trkpt>
<trkpt lat="40.0716366" lon="-105.2298845">
  <ele>1582.99</ele>
  <time>2026-09-02T20:50:43Z</time>
  <course>344.43</course>
  <speed>0.9945853407325085</speed>
  <fix>3d</fix>
</trkpt>
<trkpt lat="40.0716357" lon="-105.2298841">
  <ele>1582.99</ele>
  <time>2026-09-02T20:50:43Z</time>
  <course>344.4</course>
  <speed>0.99</speed>
  <fix>3d</fix>
</trkpt>
<trkpt lat="40.0716374" lon="-105.2298849">
  <ele>1582.99</ele>
  <time>2026-09-02T20:50:43Z</time>
  <course>344.43</course>
  <speed>0.9945853407325085</speed>
  <fix>3d</fix>
</trkpt>
<trkpt lat="40.0716357" lon="-105.2298841">
  <ele>1582.99</ele>
  <time>2026-09-02T20:50:43Z</time>
  <course>344.4</course>
  <speed>0.99</speed>
  <fix>3d</fix>
</trkpt>
<trkpt lat="40.0716382" lon="-105.2298852">
  <ele>1582.99</ele>
  <time>2026-09-02T20:50:43Z</time>
  <course>344.44</course>
  <speed>0.9945853407325085</speed>
  <fix>3d</fix>
</trkpt>
<trkpt lat="40.0716374" lon="-105.2298848">
  <ele>1582.99</ele>
  <time>2026-09-02T20:50:43Z</time>
  <course>344.41</course>
  <speed>0.99</speed>
  <fix>3d</fix>
</trkpt>
<trkpt lat="40.0716393" lon="-105.2298855">
  <ele>1582.99</ele>
  <time>2026-09-02T20:50:43Z</time>
  <course>344.44</course>
  <speed>0.9945853407325085</speed>
  <fix>3d</fix>
</trkpt>
<trkpt lat="40.0716374" lon="-105.2298848">
  <ele>1582.99</ele>
  <time>2026-09-02T20:50:43Z</time>
  <course>344.41</course>
  <speed>0.99</speed>
  <fix>3d</fix>
</trkpt>
<trkpt lat="40.0716402" lon="-105.2298859">
  <ele>1582.99</ele>
  <time>2026-09-02T20:50:43Z</time>
  <course>344.44</course>
  <speed>0.9945853407325085</speed>
  <fix>3d</fix>
</trkpt>
<trkpt lat="40.0716391" lon="-105.2298855">
  <ele>1582.99</ele>
  <time>2026-09-02T20:50:43Z</time>
  <course>344.41</course>
  <speed>0.99</speed>
  <fix>3d</fix>
</trkpt>
<trkpt lat="40.071641" lon="-105.2298862">
  <ele>1582.99</ele>
  <time>2026-09-02T20:50:43Z</time>
  <course>344.43</course>
  <speed>0.9945853407325085</speed>
  <fix>3d</fix>
</trkpt>
<trkpt lat="40.0716391" lon="-105.2298855">
  <ele>1582.99</ele>
  <time>2026-09-02T20:50:43Z</time>
  <course>344.41</course>
  <speed>0.99</speed>
  <fix>3d</fix>
</trkpt>
<trkpt lat="40.0716418" lon="-105.2298864">
  <ele>1582.99</ele>
  <time>2026-09-02T20:50:43Z</time>
  <course>344.43</course>
  <speed>0.9945853407325085</speed>
  <fix>3d</fix>
</trkpt>
<trkpt lat="40.0716408" lon="-105.229886">
  <ele>1582.99</ele>
  <time>2026-09-02T20:50:43Z</time>
  <course>344.41</course>
  <speed>1.0</speed>
  <fix>3d</fix>
</trkpt>
<trkpt lat="40.0716428" lon="-105.2298867">
  <ele>1582.99</ele>
  <time>2026-09-02T20:50:43Z</time>
  <course>344.44</course>
  <speed>0.9945853407325085</speed>
  <fix>3d</fix>
</trkpt>
<trkpt lat="40.0716408" lon="-105.229886">
  <ele>1582.99</ele>
  <time>2026-09-02T20:50:43Z</time>
  <course>344.41</course>
  <speed>1.0</speed>
  <fix>3d</fix>
</trkpt>
<trkpt lat="40.0716436" lon="-105.2298871">
  <ele>1582.99</ele>
  <time>2026-09-02T20:50:43Z</time>
  <course>344.44</course>
  <speed>0.9945853407325085</speed>
  <fix>3d</fix>
</trkpt>
<trkpt lat="40.0716426" lon="-105.2298867">
  <ele>1582.99</ele>
  <time>2026-09-02T20:50:43Z</time>
  <course>344.41</course>
  <speed>1.0</speed>
  <fix>3d</fix>
</trkpt>
<trkpt lat="40.0716445" lon="-105.2298874">
  <ele>1582.99</ele>
  <time>2026-09-02T20:50:43Z</time>
  <course>344.44</course>
  <speed>0.9945853407325085</speed>
  <fix>3d</fix>
</trkpt>
<trkpt lat="40.0716426" lon="-105.2298867">
  <ele>1582.99</ele>
  <time>2026-09-02T20:50:43Z</time>
  <course>344.41</course>
  <speed>1.0</speed>
  <fix>3d</fix>
</trkpt>
<trkpt lat="40.0716454" lon="-105.2298878">
  <ele>1582.99</ele>
  <time>2026-09-02T20:50:43Z</time>
  <course>344.44</course>
  <speed>0.9945853407325085</speed>
  <fix>3d</fix>
</trkpt>
<trkpt lat="40.0716443" lon="-105.2298874">
  <ele>1582.99</ele>
  <time>2026-09-02T20:50:43Z</time>
  <course>344.41</course>
  <speed>1.0</speed>
  <fix>3d</fix>
</trkpt>
<trkpt lat="40.0716461" lon="-105.2298881">
  <ele>1582.99</ele>
  <time>2026-09-02T20:50:43Z</time>
  <course>344.44</course>
  <speed>0.9945853407325085</speed>
  <fix>3d</fix>
</trkpt>
<trkpt lat="40.0716443" lon="-105.2298874">
  <ele>1582.99</ele>
  <time>2026-09-02T20:50:43Z</time>
  <course>344.41</course>
  <speed>1.0</speed>
  <fix>3d</fix>
</trkpt>
<trkpt lat="40.0716471" lon="-105.2298883">
  <ele>1582.99</ele>
  <time>2026-09-02T20:50:43Z</time>
  <course>344.44</course>
  <speed>0.9945853407325085</speed>
  <fix>3d</fix>
</trkpt>
<trkpt lat="40.071646" lon="-105.2298879">
  <ele>1582.99</ele>
  <time>2026-09-02T20:50:43Z</time>
  <course>344.41</course>
  <speed>1.0</speed>
  <fix>3d</fix>
</trkpt>
<trkpt lat="40.0716479" lon="-105.2298886">
  <ele>1582.99</ele>
  <time>2026-09-02T20:50:43Z</time>
  <course>344.44</course>
  <speed>0.9945853407325085</speed>
  <fix>3d</fix>
</trkpt>
<trkpt lat="40.071646" lon="-105.2298879">
  <ele>1582.99</ele>
  <time>2026-09-02T20:50:43Z</time>
  <course>344.41</course>
  <speed>1.0</speed>
  <fix>3d</fix>
</trkpt>
<trkpt lat="40.0716487" lon="-105.229889">
  <ele>1582.99</ele>
  <time>2026-09-02T20:50:43Z</time>
  <course>344.44</course>
  <speed>0.9945853407325085</speed>
  <fix>3d</fix>
</trkpt>
<trkpt lat="40.0716477" lon="-105.2298886">
  <ele>1582.99</ele>
  <time>2026-09-02T20:50:43Z</time>
  <course>344.41</course>
  <speed>1.0</speed>
  <fix>3d</fix>
</trkpt>
<trkpt lat="40.0716495" lon="-105.2298893">
  <ele>1582.99</ele>
  <time>2026-09-02T20:50:43Z</time>
  <course>344.44</course>
  <speed>0.9945853407325085</speed>
  <fix>3d</fix>
</trkpt>
<trkpt lat="40.0716477" lon="-105.2298886">
  <ele>1582.99</ele>
  <time>2026-09-02T20:50:43Z</time>
  <course>344.41</course>
  <speed>1.0</speed>
  <fix>3d</fix>
</trkpt>
<trkpt lat="40.0716503" lon="-105.2298895">
  <ele>1582.99</ele>
  <time>2026-09-02T20:50:43Z</time>
  <course>344.44</course>
  <speed>0.9945853407325085</speed>
  <fix>3d</fix>
</trkpt>
<trkpt lat="40.0716495" lon="-105.2298893">
  <ele>1582.99</ele>
  <time>2026-09-02T20:50:43Z</time>
  <course>344.41</course>
  <speed>1.0</speed>
  <fix>3d</fix>
</trkpt>
<trkpt lat="40.0716513" lon="-105.2298898">
  <ele>1582.99</ele>
  <time>2026-09-02T20:50:43Z</time>
  <course>344.44</course>
  <speed>0.9945853407325085</speed>
  <fix>3d</fix>
</trkpt>
<trkpt lat="40.0716495" lon="-105.2298893">
  <ele>1582.99</ele>
  <time>2026-09-02T20:50:43Z</time>
  <course>344.41</course>
  <speed>1.0</speed>
  <fix>3d</fix>
</trkpt>
<trkpt lat="40.0716521" lon="-105.2298902">
  <ele>1582.99</ele>
  <time>2026-09-02T20:50:43Z</time>
  <course>344.44</course>
  <speed>0.9945853407325085</speed>
  <fix>3d</fix>
</trkpt>
<trkpt lat="40.0716512" lon="-105.2298898">
  <ele>1582.99</ele>
  <time>2026-09-02T20:50:43Z</time>
  <course>344.41</course>
  <speed>1.0</speed>
  <fix>3d</fix>
</trkpt>
<trkpt lat="40.071653" lon="-105.2298905">
  <ele>1582.99</ele>
  <time>2026-09-02T20:50:43Z</time>
  <course>344.44</course>
  <speed>0.9945853407325085</speed>
  <fix>3d</fix>
</trkpt>
<trkpt lat="40.0716512" lon="-105.2298898">
  <ele>1582.99</ele>
  <time>2026-09-02T20:50:43Z</time>
  <course>344.41</course>
  <speed>1.0</speed>
  <fix>3d</fix>
</trkpt>
<trkpt lat="40.0716539" lon="-105.2298907">
  <ele>1582.99</ele>
  <time>2026-09-02T20:50:43Z</time>
  <course>344.43</course>
  <speed>0.9945853407325085</speed>
  <fix>3d</fix>
</trkpt>
<trkpt lat="40.071653" lon="-105.2298905">
  <ele>1582.99</ele>
  <time>2026-09-02T20:50:43Z</time>
  <course>344.41</course>
  <speed>1.0</speed>
  <fix>3d</fix>
</trkpt>
<trkpt lat="40.0716546" lon="-105.2298912">
  <ele>1582.99</ele>
  <time>2026-09-02T20:50:43Z</time>
  <course>344.43</course>
  <speed>0.9945853407325085</speed>
  <fix>3d</fix>
</trkpt>
<trkpt lat="40.071653" lon="-105.2298905">
  <ele>1582.99</ele>
  <time>2026-09-02T20:50:43Z</time>
  <course>344.41</course>
  <speed>1.0</speed>
  <fix>3d</fix>
</trkpt>
<trkpt lat="40.0716556" lon="-105.2298914">
  <ele>1582.99</ele>
  <time>2026-09-02T20:50:43Z</time>
  <course>344.43</course>
  <speed>0.9945853407325085</speed>
  <fix>3d</fix>
</trkpt>
<trkpt lat="40.0716547" lon="-105.2298911">
  <ele>1582.99</ele>
  <time>2026-09-02T20:50:43Z</time>
  <course>344.4</course>
  <speed>1.0</speed>
  <fix>3d</fix>
</trkpt>
<trkpt lat="40.0716564" lon="-105.2298917">
  <ele>1582.99</ele>
  <time>2026-09-02T20:50:43Z</time>
  <course>344.43</course>
  <speed>0.9945853407325085</speed>
  <fix>3d</fix>
</trkpt>
<trkpt lat="40.0716547" lon="-105.2298911">
  <ele>1582.99</ele>
  <time>2026-09-02T20:50:43Z</time>
  <course>344.4</course>
  <speed>1.0</speed>
  <fix>3d</fix>
</trkpt>
<trkpt lat="40.0716575" lon="-105.2298922">
  <ele>1582.99</ele>
  <time>2026-09-02T20:50:43Z</time>
  <course>344.43</course>
  <speed>0.9945853407325085</speed>
  <fix>3d</fix>
</trkpt>
<trkpt lat="40.0716564" lon="-105.2298917">
  <ele>1582.99</ele>
  <time>2026-09-02T20:50:43Z</time>
  <course>344.4</course>
  <speed>1.0</speed>
  <fix>3d</fix>
</trkpt>
<trkpt lat="40.0716583" lon="-105.2298924">
  <ele>1582.99</ele>
  <time>2026-09-02T20:50:43Z</time>
  <course>344.43</course>
  <speed>0.9945853407325085</speed>
  <fix>3d</fix>
</trkpt>
<trkpt lat="40.0716564" lon="-105.2298917">
  <ele>1582.99</ele>
  <time>2026-09-02T20:50:43Z</time>
  <course>344.4</course>
  <speed>1.0</speed>
  <fix>3d</fix>
</trkpt>
<trkpt lat="40.0716592" lon="-105.2298928">
  <ele>1582.99</ele>
  <time>2026-09-02T20:50:43Z</time>
  <course>344.43</course>
  <speed>0.9945853407325085</speed>
  <fix>3d</fix>
</trkpt>
<trkpt lat="40.0716581" lon="-105.2298924">
  <ele>1582.99</ele>
  <time>2026-09-02T20:50:43Z</time>
  <course>344.4</course>
  <speed>0.99</speed>
  <fix>3d</fix>
</trkpt>
<trkpt lat="40.07166" lon="-105.2298931">
  <ele>1582.99</ele>
  <time>2026-09-02T20:50:43Z</time>
  <course>344.43</course>
  <speed>0.9945853407325085</speed>
  <fix>3d</fix>
</trkpt>
<trkpt lat="40.0716581" lon="-105.2298924">
  <ele>1582.99</ele>
  <time>2026-09-02T20:50:43Z</time>
  <course>344.4</course>
  <speed>0.99</speed>
  <fix>3d</fix>
</trkpt>
<trkpt lat="40.0716609" lon="-105.2298934">
  <ele>1582.99</ele>
  <time>2026-09-02T20:50:43Z</time>
  <course>344.43</course>
  <speed>0.9945853407325085</speed>
  <fix>3d</fix>
</trkpt>
<trkpt lat="40.0716599" lon="-105.229893">
  <ele>1582.99</ele>
  <time>2026-09-02T20:50:43Z</time>
  <course>344.4</course>
  <speed>0.99</speed>
  <fix>3d</fix>
</trkpt>
<trkpt lat="40.0716618" lon="-105.2298936">
  <ele>1582.99</ele>
  <time>2026-09-02T20:50:43Z</time>
  <course>344.43</course>
  <speed>0.9945853407325085</speed>
  <fix>3d</fix>
</trkpt>
<trkpt lat="40.0716599" lon="-105.229893">
  <ele>1582.99</ele>
  <time>2026-09-02T20:50:43Z</time>
  <course>344.4</course>
  <speed>0.99</speed>
  <fix>3d</fix>
</trkpt>
<trkpt lat="40.0716627" lon="-105.2298941">
  <ele>1582.99</ele>
  <time>2026-09-02T20:50:43Z</time>
  <course>344.43</course>
  <speed>0.9945853407325085</speed>
  <fix>3d</fix>
</trkpt>
<trkpt lat="40.0716616" lon="-105.2298936">
  <ele>1582.99</ele>
  <time>2026-09-02T20:50:43Z</time>
  <course>344.4</course>
  <speed>0.99</speed>
  <fix>3d</fix>
</trkpt>
<trkpt lat="40.0716635" lon="-105.2298943">
  <ele>1582.99</ele>
  <time>2026-09-02T20:50:43Z</time>
  <course>344.43</course>
  <speed>0.9945853407325085</speed>
  <fix>3d</fix>
</trkpt>
<trkpt lat="40.0716616" lon="-105.2298936">
  <ele>1582.99</ele>
  <time>2026-09-02T20:50:43Z</time>
  <course>344.4</course>
  <speed>0.99</speed>
  <fix>3d</fix>
</trkpt>
<trkpt lat="40.0716643" lon="-105.2298946">
  <ele>1582.99</ele>
  <time>2026-09-02T20:50:43Z</time>
  <course>344.42</course>
  <speed>0.9945853407325085</speed>
  <fix>3d</fix>
</trkpt>
<trkpt lat="40.0716633" lon="-105.2298943">
  <ele>1582.99</ele>
  <time>2026-09-02T20:50:43Z</time>
  <course>344.39</course>
  <speed>0.99</speed>
  <fix>3d</fix>
</trkpt>
<trkpt lat="40.0716653" lon="-105.229895">
  <ele>1582.99</ele>
  <time>2026-09-02T20:50:43Z</time>
  <course>344.42</course>
  <speed>0.9945853407325085</speed>
  <fix>3d</fix>
</trkpt>
<trkpt lat="40.0716633" lon="-105.2298943">
  <ele>1582.99</ele>
  <time>2026-09-02T20:50:43Z</time>
  <course>344.39</course>
  <speed>0.99</speed>
  <fix>3d</fix>
</trkpt>
<trkpt lat="40.0716661" lon="-105.2298953">
  <ele>1582.99</ele>
  <time>2026-09-02T20:50:43Z</time>
  <course>344.42</course>
  <speed>0.9945853407325085</speed>
  <fix>3d</fix>
</trkpt>
<trkpt lat="40.0716651" lon="-105.2298949">
  <ele>1582.99</ele>
  <time>2026-09-02T20:50:43Z</time>
  <course>344.39</course>
  <speed>0.99</speed>
  <fix>3d</fix>
</trkpt>
<trkpt lat="40.0716667" lon="-105.2298955">
  <ele>1582.99</ele>
  <time>2026-09-02T20:50:43Z</time>
  <course>344.42</course>
  <speed>0.9945853407325085</speed>
  <fix>3d</fix>
</trkpt>
<trkpt lat="40.0716651" lon="-105.2298949">
  <ele>1582.99</ele>
  <time>2026-09-02T20:50:43Z</time>
  <course>344.39</course>
  <speed>0.99</speed>
  <fix>3d</fix>
</trkpt>
<trkpt lat="40.0716677" lon="-105.2298958">
  <ele>1582.99</ele>
  <time>2026-09-02T20:50:43Z</time>
  <course>344.42</course>
  <speed>0.9945853407325085</speed>
  <fix>3d</fix>
</trkpt>
<trkpt lat="40.0716668" lon="-105.2298955">
  <ele>1582.99</ele>
  <time>2026-09-02T20:50:43Z</time>
  <course>344.39</course>
  <speed>0.99</speed>
  <fix>3d</fix>
</trkpt>
<trkpt lat="40.0716685" lon="-105.2298962">
  <ele>1582.99</ele>
  <time>2026-09-02T20:50:43Z</time>
  <course>344.42</course>
  <speed>0.9945853407325085</speed>
  <fix>3d</fix>
</trkpt>
<trkpt lat="40.0716668" lon="-105.2298955">
  <ele>1582.99</ele>
  <time>2026-09-02T20:50:43Z</time>
  <course>344.39</course>
  <speed>0.99</speed>
  <fix>3d</fix>
</trkpt>
<trkpt lat="40.0716694" lon="-105.2298965">
  <ele>1582.99</ele>
  <time>2026-09-02T20:50:43Z</time>
  <course>344.42</course>
  <speed>0.9945853407325085</speed>
  <fix>3d</fix>
</trkpt>
<trkpt lat="40.0716685" lon="-105.2298961">
  <ele>1582.99</ele>
  <time>2026-09-02T20:50:43Z</time>
  <course>344.39</course>
  <speed>0.99</speed>
  <fix>3d</fix>
</trkpt>
<trkpt lat="40.0716703" lon="-105.2298967">
  <ele>1582.99</ele>
  <time>2026-09-02T20:50:43Z</time>
  <course>344.42</course>
  <speed>0.9945853407325085</speed>
  <fix>3d</fix>
</trkpt>
<trkpt lat="40.0716685" lon="-105.2298961">
  <ele>1582.99</ele>
  <time>2026-09-02T20:50:43Z</time>
  <course>344.39</course>
  <speed>0.99</speed>
  <fix>3d</fix>
</trkpt>
<trkpt lat="40.0716712" lon="-105.2298972">
  <ele>1582.99</ele>
  <time>2026-09-02T20:50:43Z</time>
  <course>344.42</course>
  <speed>0.9945853407325085</speed>
  <fix>3d</fix>
</trkpt>
<trkpt lat="40.0716702" lon="-105.2298968">
  <ele>1582.99</ele>
  <time>2026-09-02T20:50:43Z</time>
  <course>344.39</course>
  <speed>1.0</speed>
  <fix>3d</fix>
</trkpt>
<trkpt lat="40.071672" lon="-105.2298974">
  <ele>1582.99</ele>
  <time>2026-09-02T20:50:43Z</time>
  <course>344.42</course>
  <speed>0.9945853407325085</speed>
  <fix>3d</fix>
</trkpt>
<trkpt lat="40.0716702" lon="-105.2298968">
  <ele>1582.99</ele>
  <time>2026-09-02T20:50:43Z</time>
  <course>344.39</course>
  <speed>1.0</speed>
  <fix>3d</fix>
</trkpt>
<trkpt lat="40.0716728" lon="-105.2298977">
  <ele>1582.99</ele>
  <time>2026-09-02T20:50:43Z</time>
  <course>344.41</course>
  <speed>0.9945853407325085</speed>
  <fix>3d</fix>
</trkpt>
<trkpt lat="40.071672" lon="-105.2298974">
  <ele>1582.99</ele>
  <time>2026-09-02T20:50:43Z</time>
  <course>344.39</course>
  <speed>1.0</speed>
  <fix>3d</fix>
</trkpt>
<trkpt lat="40.0716738" lon="-105.2298981">
  <ele>1582.99</ele>
  <time>2026-09-02T20:50:43Z</time>
  <course>344.41</course>
  <speed>0.9945853407325085</speed>
  <fix>3d</fix>
</trkpt>
<trkpt lat="40.071672" lon="-105.2298974">
  <ele>1582.99</ele>
  <time>2026-09-02T20:50:43Z</time>
  <course>344.39</course>
  <speed>1.0</speed>
  <fix>3d</fix>
</trkpt>
<trkpt lat="40.0716747" lon="-105.2298984">
  <ele>1582.99</ele>
  <time>2026-09-02T20:50:43Z</time>
  <course>344.41</course>
  <speed>0.9945853407325085</speed>
  <fix>3d</fix>
</trkpt>
<trkpt lat="40.0716737" lon="-105.229898">
  <ele>1582.99</ele>
  <time>2026-09-02T20:50:43Z</time>
  <course>344.39</course>
  <speed>1.0</speed>
  <fix>3d</fix>
</trkpt>
<trkpt lat="40.0716757" lon="-105.2298988">
  <ele>1582.99</ele>
  <time>2026-09-02T20:50:43Z</time>
  <course>344.41</course>
  <speed>0.9945853407325085</speed>
  <fix>3d</fix>
</trkpt>
<trkpt lat="40.0716737" lon="-105.229898">
  <ele>1582.99</ele>
  <time>2026-09-02T20:50:43Z</time>
  <course>344.39</course>
  <speed>1.0</speed>
  <fix>3d</fix>
</trkpt>
<trkpt lat="40.0716764" lon="-105.2298991">
  <ele>1582.99</ele>
  <time>2026-09-02T20:50:43Z</time>
  <course>344.41</course>
  <speed>0.9945853407325085</speed>
  <fix>3d</fix>
</trkpt>
<trkpt lat="40.0716755" lon="-105.2298987">
  <ele>1582.99</ele>
  <time>2026-09-02T20:50:43Z</time>
  <course>344.38</course>
  <speed>1.0</speed>
  <fix>3d</fix>
</trkpt>
<trkpt lat="40.0716774" lon="-105.2298993">
  <ele>1582.99</ele>
  <time>2026-09-02T20:50:43Z</time>
  <course>344.41</course>
  <speed>0.9945853407325085</speed>
  <fix>3d</fix>
</trkpt>
<trkpt lat="40.0716755" lon="-105.2298987">
  <ele>1582.99</ele>
  <time>2026-09-02T20:50:43Z</time>
  <course>344.38</course>
  <speed>1.0</speed>
  <fix>3d</fix>
</trkpt>
<trkpt lat="40.0716782" lon="-105.2298996">
  <ele>1582.99</ele>
  <time>2026-09-02T20:50:43Z</time>
  <course>344.41</course>
  <speed>0.9945853407325085</speed>
  <fix>3d</fix>
</trkpt>
<trkpt lat="40.0716772" lon="-105.2298993">
  <ele>1582.99</ele>
  <time>2026-09-02T20:50:43Z</time>
  <course>344.38</course>
  <speed>1.0</speed>
  <fix>3d</fix>
</trkpt>
<trkpt lat="40.0716791" lon="-105.2299001">
  <ele>1582.99</ele>
  <time>2026-09-02T20:50:43Z</time>
  <course>344.41</course>
  <speed>0.9945853407325085</speed>
  <fix>3d</fix>
</trkpt>
<trkpt lat="40.0716772" lon="-105.2298993">
  <ele>1582.99</ele>
  <time>2026-09-02T20:50:43Z</time>
  <course>344.38</course>
  <speed>1.0</speed>
  <fix>3d</fix>
</trkpt>
<trkpt lat="40.07168" lon="-105.2299003">
  <ele>1582.99</ele>
  <time>2026-09-02T20:50:43Z</time>
  <course>344.41</course>
  <speed>0.9945853407325085</speed>
  <fix>3d</fix>
</trkpt>
<trkpt lat="40.0716789" lon="-105.2298999">
  <ele>1582.99</ele>
  <time>2026-09-02T20:50:43Z</time>
  <course>344.38</course>
  <speed>1.0</speed>
  <fix>3d</fix>
</trkpt>
<trkpt lat="40.0716807" lon="-105.2299007">
  <ele>1582.99</ele>
  <time>2026-09-02T20:50:43Z</time>
  <course>344.41</course>
  <speed>0.9945853407325085</speed>
  <fix>3d</fix>
</trkpt>
<trkpt lat="40.0716789" lon="-105.2298999">
  <ele>1582.99</ele>
  <time>2026-09-02T20:50:43Z</time>
  <course>344.38</course>
  <speed>1.0</speed>
  <fix>3d</fix>
</trkpt>
<trkpt lat="40.0716817" lon="-105.229901">
  <ele>1582.99</ele>
  <time>2026-09-02T20:50:43Z</time>
  <course>344.41</course>
  <speed>0.9945853407325085</speed>
  <fix>3d</fix>
</trkpt>
<trkpt lat="40.0716806" lon="-105.2299005">
  <ele>1582.99</ele>
  <time>2026-09-02T20:50:43Z</time>
  <course>344.38</course>
  <speed>1.0</speed>
  <fix>3d</fix>
</trkpt>
<trkpt lat="40.0716825" lon="-105.2299013">
  <ele>1582.99</ele>
  <time>2026-09-02T20:50:43Z</time>
  <course>344.41</course>
  <speed>0.9945853407325085</speed>
  <fix>3d</fix>
</trkpt>
<trkpt lat="40.0716806" lon="-105.2299005">
  <ele>1582.99</ele>
  <time>2026-09-02T20:50:43Z</time>
  <course>344.38</course>
  <speed>1.0</speed>
  <fix>3d</fix>
</trkpt>
<trkpt lat="40.0716834" lon="-105.2299015">
  <ele>1582.99</ele>
  <time>2026-09-02T20:50:43Z</time>
  <course>344.41</course>
  <speed>0.9945853407325085</speed>
  <fix>3d</fix>
</trkpt>
<trkpt lat="40.0716824" lon="-105.2299012">
  <ele>1582.99</ele>
  <time>2026-09-02T20:50:43Z</time>
  <course>344.38</course>
  <speed>1.0</speed>
  <fix>3d</fix>
</trkpt>
<trkpt lat="40.0716843" lon="-105.229902">
  <ele>1582.99</ele>
  <time>2026-09-02T20:50:43Z</time>
  <course>344.41</course>
  <speed>0.9945853407325085</speed>
  <fix>3d</fix>
</trkpt>
<trkpt lat="40.0716824" lon="-105.2299012">
  <ele>1582.99</ele>
  <time>2026-09-02T20:50:43Z</time>
  <course>344.38</course>
  <speed>1.0</speed>
  <fix>3d</fix>
</trkpt>
<trkpt lat="40.0716849" lon="-105.2299022">
  <ele>1582.99</ele>
  <time>2026-09-02T20:50:43Z</time>
  <course>344.41</course>
  <speed>0.9945853407325085</speed>
  <fix>3d</fix>
</trkpt>
<trkpt lat="40.0716841" lon="-105.2299018">
  <ele>1582.99</ele>
  <time>2026-09-02T20:50:43Z</time>
  <course>344.38</course>
  <speed>0.99</speed>
  <fix>3d</fix>
</trkpt>
<trkpt lat="40.0716859" lon="-105.2299025">
  <ele>1582.99</ele>
  <time>2026-09-02T20:50:43Z</time>
  <course>344.41</course>
  <speed>0.9945853407325085</speed>
  <fix>3d</fix>
</trkpt>
<trkpt lat="40.0716841" lon="-105.2299018">
  <ele>1582.99</ele>
  <time>2026-09-02T20:50:43Z</time>
  <course>344.38</course>
  <speed>0.99</speed>
  <fix>3d</fix>
</trkpt>
<trkpt lat="40.0716867" lon="-105.2299027">
  <ele>1582.99</ele>
  <time>2026-09-02T20:50:43Z</time>
  <course>344.41</course>
  <speed>0.9945853407325085</speed>
  <fix>3d</fix>
</trkpt>
<trkpt lat="40.0716858" lon="-105.2299025">
  <ele>1582.99</ele>
  <time>2026-09-02T20:50:43Z</time>
  <course>344.38</course>
  <speed>0.99</speed>
  <fix>3d</fix>
</trkpt>
<trkpt lat="40.0716876" lon="-105.2299032">
  <ele>1582.99</ele>
  <time>2026-09-02T20:50:43Z</time>
  <course>344.41</course>
  <speed>0.9945853407325085</speed>
  <fix>3d</fix>
</trkpt>
<trkpt lat="40.0716858" lon="-105.2299025">
  <ele>1582.99</ele>
  <time>2026-09-02T20:50:43Z</time>
  <course>344.38</course>
  <speed>0.99</speed>
  <fix>3d</fix>
</trkpt>
<trkpt lat="40.0716885" lon="-105.2299034">
  <ele>1582.99</ele>
  <time>2026-09-02T20:50:43Z</time>
  <course>344.41</course>
  <speed>0.9945853407325085</speed>
  <fix>3d</fix>
</trkpt>
<trkpt lat="40.0716876" lon="-105.2299031">
  <ele>1582.99</ele>
  <time>2026-09-02T20:50:43Z</time>
  <course>344.38</course>
  <speed>0.99</speed>
  <fix>3d</fix>
</trkpt>
<trkpt lat="40.0716892" lon="-105.2299037">
  <ele>1582.99</ele>
  <time>2026-09-02T20:50:43Z</time>
  <course>344.41</course>
  <speed>0.9945853407325085</speed>
  <fix>3d</fix>
</trkpt>
<trkpt lat="40.0716876" lon="-105.2299031">
  <ele>1582.99</ele>
  <time>2026-09-02T20:50:43Z</time>
  <course>344.38</course>
  <speed>0.99</speed>
  <fix>3d</fix>
</trkpt>
<trkpt lat="40.0716902" lon="-105.2299041">
  <ele>1582.99</ele>
  <time>2026-09-02T20:50:43Z</time>
  <course>344.41</course>
  <speed>0.9945853407325085</speed>
  <fix>3d</fix>
</trkpt>
<trkpt lat="40.0716893" lon="-105.2299037">
  <ele>1582.99</ele>
  <time>2026-09-02T20:50:43Z</time>
  <course>344.38</course>
  <speed>0.99</speed>
  <fix>3d</fix>
</trkpt>
<trkpt lat="40.071691" lon="-105.2299044">
  <ele>1582.99</ele>
  <time>2026-09-02T20:50:43Z</time>
  <course>344.4</course>
  <speed>0.9945853407325085</speed>
  <fix>3d</fix>
</trkpt>
<trkpt lat="40.0716893" lon="-105.2299037">
  <ele>1582.99</ele>
  <time>2026-09-02T20:50:43Z</time>
  <course>344.38</course>
  <speed>0.99</speed>
  <fix>3d</fix>
</trkpt>
<trkpt lat="40.0716919" lon="-105.2299046">
  <ele>1582.99</ele>
  <time>2026-09-02T20:50:43Z</time>
  <course>344.4</course>
  <speed>0.9945853407325085</speed>
  <fix>3d</fix>
</trkpt>
<trkpt lat="40.071691" lon="-105.2299044">
  <ele>1582.99</ele>
  <time>2026-09-02T20:50:43Z</time>
  <course>344.38</course>
  <speed>0.99</speed>
  <fix>3d</fix>
</trkpt>
<trkpt lat="40.0716929" lon="-105.2299051">
  <ele>1582.99</ele>
  <time>2026-09-02T20:50:43Z</time>
  <course>344.4</course>
  <speed>0.9945853407325085</speed>
  <fix>3d</fix>
</trkpt>
<trkpt lat="40.071691" lon="-105.2299044">
  <ele>1582.99</ele>
  <time>2026-09-02T20:50:43Z</time>
  <course>344.38</course>
  <speed>0.99</speed>
  <fix>3d</fix>
</trkpt>
<trkpt lat="40.0716938" lon="-105.2299053">
  <ele>1582.99</ele>
  <time>2026-09-02T20:50:43Z</time>
  <course>344.4</course>
  <speed>0.9945853407325085</speed>
  <fix>3d</fix>
</trkpt>
<trkpt lat="40.0716927" lon="-105.229905">
  <ele>1582.99</ele>
  <time>2026-09-02T20:50:43Z</time>
  <course>344.37</course>
  <speed>1.0</speed>
  <fix>3d</fix>
</trkpt>
<trkpt lat="40.0716946" lon="-105.2299056">
  <ele>1582.99</ele>
  <time>2026-09-02T20:50:43Z</time>
  <course>344.4</course>
  <speed>0.9945853407325085</speed>
  <fix>3d</fix>
</trkpt>
<trkpt lat="40.0716927" lon="-105.229905">
  <ele>1582.99</ele>
  <time>2026-09-02T20:50:43Z</time>
  <course>344.37</course>
  <speed>1.0</speed>
  <fix>3d</fix>
</trkpt>
<trkpt lat="40.0716956" lon="-105.229906">
  <ele>1582.99</ele>
  <time>2026-09-02T20:50:43Z</time>
  <course>344.4</course>
  <speed>0.9945853407325085</speed>
  <fix>3d</fix>
</trkpt>
<trkpt lat="40.0716944" lon="-105.2299056">
  <ele>1582.99</ele>
  <time>2026-09-02T20:50:43Z</time>
  <course>344.37</course>
  <speed>1.0</speed>
  <fix>3d</fix>
</trkpt>
<trkpt lat="40.0716964" lon="-105.2299063">
  <ele>1582.99</ele>
  <time>2026-09-02T20:50:43Z</time>
  <course>344.4</course>
  <speed>0.9945853407325085</speed>
  <fix>3d</fix>
</trkpt>
<trkpt lat="40.0716944" lon="-105.2299056">
  <ele>1582.99</ele>
  <time>2026-09-02T20:50:43Z</time>
  <course>344.37</course>
  <speed>1.0</speed>
  <fix>3d</fix>
</trkpt>
<trkpt lat="40.0716972" lon="-105.2299067">
  <ele>1582.99</ele>
  <time>2026-09-02T20:50:43Z</time>
  <course>344.4</course>
  <speed>0.9972462083156798</speed>
  <fix>3d</fix>
</trkpt>
<trkpt lat="40.0716962" lon="-105.2299063">
  <ele>1582.99</ele>
  <time>2026-09-02T20:50:43Z</time>
  <course>344.37</course>
  <speed>1.0</speed>
  <fix>3d</fix>
</trkpt>
<trkpt lat="40.0716981" lon="-105.229907">
  <ele>1582.99</ele>
  <time>2026-09-02T20:50:43Z</time>
  <course>344.4</course>
  <speed>0.9945853407325085</speed>
  <fix>3d</fix>
</trkpt>
<trkpt lat="40.0716962" lon="-105.2299063">
  <ele>1582.99</ele>
  <time>2026-09-02T20:50:43Z</time>
  <course>344.37</course>
  <speed>1.0</speed>
  <fix>3d</fix>
</trkpt>
<trkpt lat="40.0716989" lon="-105.2299072">
  <ele>1582.99</ele>
  <time>2026-09-02T20:50:43Z</time>
  <course>344.4</course>
  <speed>0.9945853407325085</speed>
  <fix>3d</fix>
</trkpt>
<trkpt lat="40.0716979" lon="-105.2299069">
  <ele>1582.99</ele>
  <time>2026-09-02T20:50:43Z</time>
  <course>344.37</course>
  <speed>0.99</speed>
  <fix>3d</fix>
</trkpt>
<trkpt lat="40.0716999" lon="-105.2299075">
  <ele>1582.99</ele>
  <time>2026-09-02T20:50:43Z</time>
  <course>344.4</course>
  <speed>0.9945853407325085</speed>
  <fix>3d</fix>
</trkpt>
<trkpt lat="40.0716979" lon="-105.2299069">
  <ele>1582.99</ele>
  <time>2026-09-02T20:50:43Z</time>
  <course>344.37</course>
  <speed>0.99</speed>
  <fix>3d</fix>
</trkpt>
<trkpt lat="40.0717007" lon="-105.229908">
  <ele>1582.99</ele>
  <time>2026-09-02T20:50:43Z</time>
  <course>344.4</course>
  <speed>0.9945853407325085</speed>
  <fix>3d</fix>
</trkpt>
<trkpt lat="40.0716996" lon="-105.2299075">
  <ele>1582.99</ele>
  <time>2026-09-02T20:50:43Z</time>
  <course>344.37</course>
  <speed>0.99</speed>
  <fix>3d</fix>
</trkpt>
<trkpt lat="40.0717016" lon="-105.2299082">
  <ele>1582.99</ele>
  <time>2026-09-02T20:50:43Z</time>
  <course>344.4</course>
  <speed>0.9945853407325085</speed>
  <fix>3d</fix>
</trkpt>
<trkpt lat="40.0716996" lon="-105.2299075">
  <ele>1582.99</ele>
  <time>2026-09-02T20:50:43Z</time>
  <course>344.37</course>
  <speed>0.99</speed>
  <fix>3d</fix>
</trkpt>
<trkpt lat="40.0717023" lon="-105.2299084">
  <ele>1582.99</ele>
  <time>2026-09-02T20:50:43Z</time>
  <course>344.4</course>
  <speed>0.9945853407325085</speed>
  <fix>3d</fix>
</trkpt>
<trkpt lat="40.0717014" lon="-105.2299082">
  <ele>1582.99</ele>
  <time>2026-09-02T20:50:43Z</time>
  <course>344.37</course>
  <speed>0.99</speed>
  <fix>3d</fix>
</trkpt>
<trkpt lat="40.0717031" lon="-105.2299087">
  <ele>1582.99</ele>
  <time>2026-09-02T20:50:43Z</time>
  <course>344.41</course>
  <speed>0.9945853407325085</speed>
  <fix>3d</fix>
</trkpt>
<trkpt lat="40.0717014" lon="-105.2299082">
  <ele>1582.99</ele>
  <time>2026-09-02T20:50:43Z</time>
  <course>344.37</course>
  <speed>0.99</speed>
  <fix>3d</fix>
</trkpt>
<trkpt lat="40.0717039" lon="-105.2299092">
  <ele>1582.99</ele>
  <time>2026-09-02T20:50:43Z</time>
  <course>344.53</course>
  <speed>0.9945853407325085</speed>
  <fix>3d</fix>
</trkpt>
<trkpt lat="40.0717031" lon="-105.2299088">
  <ele>1582.99</ele>
  <time>2026-09-02T20:50:43Z</time>
  <course>344.44</course>
  <speed>0.99</speed>
  <fix>3d</fix>
</trkpt>
<trkpt lat="40.0717049" lon="-105.2299094">
  <ele>1583.0</ele>
  <time>2026-09-02T20:50:43Z</time>
  <course>345.03</course>
  <speed>1.0042410069301093</speed>
  <fix>3d</fix>
</trkpt>
<trkpt lat="40.0717031" lon="-105.2299088">
  <ele>1582.99</ele>
  <time>2026-09-02T20:50:43Z</time>
  <course>344.44</course>
  <speed>0.99</speed>
  <fix>3d</fix>
</trkpt>
<trkpt lat="40.0717057" lon="-105.2299098">
  <ele>1582.99</ele>
  <time>2026-09-02T20:50:43Z</time>
  <course>345.9</course>
  <speed>0.9798469268207153</speed>
  <fix>3d</fix>
</trkpt>
<trkpt lat="40.0717049" lon="-105.2299094">
  <ele>1582.99</ele>
  <time>2026-09-02T20:50:43Z</time>
  <course>345.19</course>
  <speed>0.99</speed>
  <fix>3d</fix>
</trkpt>
<trkpt lat="40.0717066" lon="-105.2299099">
  <ele>1582.99</ele>
  <time>2026-09-02T20:50:43Z</time>
  <course>347.2</course>
  <speed>0.9729337079164233</speed>
  <fix>3d</fix>
</trkpt>
<trkpt lat="40.0717049" lon="-105.2299094">
  <ele>1582.99</ele>
  <time>2026-09-02T20:50:43Z</time>
  <course>345.19</course>
  <speed>0.99</speed>
  <fix>3d</fix>
</trkpt>
<trkpt lat="40.0717074" lon="-105.2299103">
  <ele>1582.99</ele>
  <time>2026-09-02T20:50:43Z</time>
  <course>348.96</course>
  <speed>0.9159148432032315</speed>
  <fix>3d</fix>
</trkpt>
<trkpt lat="40.0717066" lon="-105.22991">
  <ele>1582.99</ele>
  <time>2026-09-02T20:50:43Z</time>
  <course>347.37</course>
  <speed>0.95</speed>
  <fix>3d</fix>
</trkpt>
<trkpt lat="40.0717083" lon="-105.2299104">
  <ele>1582.99</ele>
  <time>2026-09-02T20:50:43Z</time>
  <course>351.27</course>
  <speed>0.8697700845625813</speed>
  <fix>3d</fix>
</trkpt>
<trkpt lat="40.0717066" lon="-105.22991">
  <ele>1582.99</ele>
  <time>2026-09-02T20:50:43Z</time>
  <course>347.37</course>
  <speed>0.95</speed>
  <fix>3d</fix>
</trkpt>
<trkpt lat="40.071709" lon="-105.2299106">
  <ele>1582.99</ele>
  <time>2026-09-02T20:50:43Z</time>
  <course>354.2</course>
  <speed>0.7731752712031082</speed>
  <fix>3d</fix>
</trkpt>
<trkpt lat="40.0717082" lon="-105.2299104">
  <ele>1582.99</ele>
  <time>2026-09-02T20:50:43Z</time>
  <course>351.37</course>
  <speed>0.85</speed>
  <fix>3d</fix>
</trkpt>
<trkpt lat="40.0717096" lon="-105.2299106">
  <ele>1582.99</ele>
  <time>2026-09-02T20:50:43Z</time>
  <course>357.88</course>
  <speed>0.7002856560004639</speed>
  <fix>3d</fix>
</trkpt>
<trkpt lat="40.0717082" lon="-105.2299104">
  <ele>1582.99</ele>
  <time>2026-09-02T20:50:43Z</time>
  <course>351.37</course>
  <speed>0.85</speed>
  <fix>3d</fix>
</trkpt>
<trkpt lat="40.0717103" lon="-105.2299106">
  <ele>1582.99</ele>
  <time>2026-09-02T20:50:43Z</time>
  <course>3.32</course>
  <speed>0.5608029957123981</speed>
  <fix>3d</fix>
</trkpt>
<trkpt lat="40.0717096" lon="-105.2299106">
  <ele>1582.99</ele>
  <time>2026-09-02T20:50:43Z</time>
  <course>357.72</course>
  <speed>0.68</speed>
  <fix>3d</fix>
</trkpt>
<trkpt lat="40.0717108" lon="-105.2299106">
  <ele>1582.99</ele>
  <time>2026-09-02T20:50:43Z</time>
  <course>8.75</course>
  <speed>0.455411901469428</speed>
  <fix>3d</fix>
</trkpt>
<trkpt lat="40.0717096" lon="-105.2299106">
  <ele>1582.99</ele>
  <time>2026-09-02T20:50:43Z</time>
  <course>357.72</course>
  <speed>0.68</speed>
  <fix>3d</fix>
</trkpt>
<trkpt lat="40.0717111" lon="-105.2299104">
  <ele>1582.99</ele>
  <time>2026-09-02T20:50:43Z</time>
  <course>14.97</course>
  <speed>0.35171010790137947</speed>
  <fix>3d</fix>
</trkpt>
<trkpt lat="40.0717106" lon="-105.2299105">
  <ele>1582.99</ele>
  <time>2026-09-02T20:50:43Z</time>
  <course>6.83</course>
  <speed>0.47</speed>
  <fix>3d</fix>
</trkpt>
<trkpt lat="40.0717114" lon="-105.2299104">
  <ele>1582.99</ele>
  <time>2026-09-02T20:50:43Z</time>
  <course>21.37</course>
  <speed>0.2785677655436824</speed>
  <fix>3d</fix>
</trkpt>
<trkpt lat="40.0717106" lon="-105.2299105">
  <ele>1582.99</ele>
  <time>2026-09-02T20:50:43Z</time>
  <course>6.83</course>
  <speed>0.47</speed>
  <fix>3d</fix>
</trkpt>
<trkpt lat="40.0717116" lon="-105.2299101">
  <ele>1582.99</ele>
  <time>2026-09-02T20:50:43Z</time>
  <course>27.74</course>
  <speed>0.25942243542145693</speed>
  <fix>3d</fix>
</trkpt>
<trkpt lat="40.0717113" lon="-105.2299103">
  <ele>1582.99</ele>
  <time>2026-09-02T20:50:43Z</time>
  <course>19.17</course>
  <speed>0.31</speed>
  <fix>3d</fix>
</trkpt>
<trkpt lat="40.0717117" lon="-105.2299101">
  <ele>1583.0</ele>
  <time>2026-09-02T20:50:43Z</time>
  <course>33.99</course>
  <speed>0.2745906043549196</speed>
  <fix>3d</fix>
</trkpt>
<trkpt lat="40.0717113" lon="-105.2299103">
  <ele>1582.99</ele>
  <time>2026-09-02T20:50:43Z</time>
  <course>19.17</course>
  <speed>0.31</speed>
  <fix>3d</fix>
</trkpt>
<trkpt lat="40.0717121" lon="-105.2299099">
  <ele>1582.99</ele>
  <time>2026-09-02T20:50:43Z</time>
  <course>40.03</course>
  <speed>0.354682957019364</speed>
  <fix>3d</fix>
</trkpt>
<trkpt lat="40.0717118" lon="-105.22991">
  <ele>1582.99</ele>
  <time>2026-09-02T20:50:43Z</time>
  <course>33.67</course>
  <speed>0.3</speed>
  <fix>3d</fix>
</trkpt>
<trkpt lat="40.0717123" lon="-105.2299096">
  <ele>1582.99</ele>
  <time>2026-09-02T20:50:43Z</time>
  <course>45.78</course>
  <speed>0.43840620433565947</speed>
  <fix>3d</fix>
</trkpt>
<trkpt lat="40.0717118" lon="-105.22991">
  <ele>1582.99</ele>
  <time>2026-09-02T20:50:43Z</time>
  <course>33.67</course>
  <speed>0.3</speed>
  <fix>3d</fix>
</trkpt>
<trkpt lat="40.0717126" lon="-105.2299091">
  <ele>1582.99</ele>
  <time>2026-09-02T20:50:43Z</time>
  <course>51.16</course>
  <speed>0.5903388857258176</speed>
  <fix>3d</fix>
</trkpt>
<trkpt lat="40.0717123" lon="-105.2299095">
  <ele>1582.99</ele>
  <time>2026-09-02T20:50:43Z</time>
  <course>45.98</course>
  <speed>0.46</speed>
  <fix>3d</fix>
</trkpt>
<trkpt lat="40.0717129" lon="-105.2299084">
  <ele>1582.99</ele>
  <time>2026-09-02T20:50:43Z</time>
  <course>56.14</course>
  <speed>0.6989277502002621</speed>
  <fix>3d</fix>
</trkpt>
<trkpt lat="40.0717123" lon="-105.2299095">
  <ele>1582.99</ele>
  <time>2026-09-02T20:50:43Z</time>
  <course>45.98</course>
  <speed>0.46</speed>
  <fix>3d</fix>
</trkpt>
<trkpt lat="40.0717134" lon="-105.2299077">
  <ele>1582.99</ele>
  <time>2026-09-02T20:50:43Z</time>
  <course>60.69</course>
  <speed>0.8683317338436964</speed>
  <fix>3d</fix>
</trkpt>
<trkpt lat="40.0717129" lon="-105.2299085">
  <ele>1582.99</ele>
  <time>2026-09-02T20:50:43Z</time>
  <course>56.03</course>
  <speed>0.71</speed>
  <fix>3d</fix>
</trkpt>
<trkpt lat="40.0717136" lon="-105.2299068">
  <ele>1582.99</ele>
  <time>2026-09-02T20:50:43Z</time>
  <course>64.02</course>
  <speed>0.952732911156112</speed>
  <fix>3d</fix>
</trkpt>
<trkpt lat="40.0717129" lon="-105.2299085">
  <ele>1582.99</ele>
  <time>2026-09-02T20:50:43Z</time>
  <course>56.03</course>
  <speed>0.71</speed>
  <fix>3d</fix>
</trkpt>
<trkpt lat="40.071714" lon="-105.2299058">
  <ele>1582.99</ele>
  <time>2026-09-02T20:50:43Z</time>
  <course>67.7</course>
  <speed>1.04546640309481</speed>
  <fix>3d</fix>
</trkpt>
<trkpt lat="40.0717136" lon="-105.2299068">
  <ele>1582.99</ele>
  <time>2026-09-02T20:50:43Z</time>
  <course>64.3</course>
  <speed>0.95</speed>
  <fix>3d</fix>
</trkpt>
<trkpt lat="40.0717144" lon="-105.2299046">
  <ele>1582.99</ele>
  <time>2026-09-02T20:50:43Z</time>
  <course>70.89</course>
  <speed>1.11</speed>
  <fix>3d</fix>
</trkpt>
<trkpt lat="40.0717136" lon="-105.2299068">
  <ele>1582.99</ele>
  <time>2026-09-02T20:50:43Z</time>
  <course>64.3</course>
  <speed>0.95</speed>
  <fix>3d</fix>
</trkpt>
<trkpt lat="40.0717147" lon="-105.2299034">
  <ele>1582.99</ele>
  <time>2026-09-02T20:50:43Z</time>
  <course>73.61</course>
  <speed>1.164817582284883</speed>
  <fix>3d</fix>
</trkpt>
<trkpt lat="40.0717143" lon="-105.2299046">
  <ele>1582.99</ele>
  <time>2026-09-02T20:50:43Z</time>
  <course>70.9</course>
  <speed>1.11</speed>
  <fix>3d</fix>
</trkpt>
<trkpt lat="40.071715" lon="-105.229902">
  <ele>1583.0</ele>
  <time>2026-09-02T20:50:43Z</time>
  <course>75.95</course>
  <speed>1.1738824472663352</speed>
  <fix>3d</fix>
</trkpt>
<trkpt lat="40.0717143" lon="-105.2299046">
  <ele>1582.99</ele>
  <time>2026-09-02T20:50:43Z</time>
  <course>70.9</course>
  <speed>1.11</speed>
  <fix>3d</fix>
</trkpt>
<trkpt lat="40.0717152" lon="-105.2299007">
  <ele>1583.0</ele>
  <time>2026-09-02T20:50:43Z</time>
  <course>78.19</course>
  <speed>1.1845674315968677</speed>
  <fix>3d</fix>
</trkpt>
<trkpt lat="40.0717149" lon="-105.229902">
  <ele>1582.99</ele>
  <time>2026-09-02T20:50:43Z</time>
  <course>76.02</course>
  <speed>1.17</speed>
  <fix>3d</fix>
</trkpt>
<trkpt lat="40.0717153" lon="-105.2298993">
  <ele>1583.0</ele>
  <time>2026-09-02T20:50:43Z</time>
  <course>80.29</course>
  <speed>1.1655899793666726</speed>
  <fix>3d</fix>
</trkpt>
<trkpt lat="40.0717149" lon="-105.229902">
  <ele>1582.99</ele>
  <time>2026-09-02T20:50:43Z</time>
  <course>76.02</course>
  <speed>1.17</speed>
  <fix>3d</fix>
</trkpt>
<trkpt lat="40.0717156" lon="-105.2298979">
  <ele>1582.99</ele>
  <time>2026-09-02T20:50:43Z</time>
  <course>82.27</course>
  <speed>1.149826073804208</speed>
  <fix>3d</fix>
</trkpt>
<trkpt lat="40.0717154" lon="-105.2298993">
  <ele>1582.99</ele>
  <time>2026-09-02T20:50:43Z</time>
  <course>80.31</course>
  <speed>1.17</speed>
  <fix>3d</fix>
</trkpt>
<trkpt lat="40.0717157" lon="-105.2298965">
  <ele>1582.99</ele>
  <time>2026-09-02T20:50:43Z</time>
  <course>84.14</course>
  <speed>1.115437134042076</speed>
  <fix>3d</fix>
</trkpt>
<trkpt lat="40.0717154" lon="-105.2298993">
  <ele>1582.99</ele>
  <time>2026-09-02T20:50:43Z</time>
  <course>80.31</course>
  <speed>1.17</speed>
  <fix>3d</fix>
</trkpt>
<trkpt lat="40.0717158" lon="-105.2298953">
  <ele>1582.99</ele>
  <time>2026-09-02T20:50:43Z</time>
  <course>85.9</course>
  <speed>1.0922453936730518</speed>
  <fix>3d</fix>
</trkpt>
<trkpt lat="40.0717157" lon="-105.2298965">
  <ele>1582.99</ele>
  <time>2026-09-02T20:50:43Z</time>
  <course>84.17</course>
  <speed>1.12</speed>
  <fix>3d</fix>
</trkpt>
<trkpt lat="40.0717158" lon="-105.2298938">
  <ele>1582.99</ele>
  <time>2026-09-02T20:50:43Z</time>
  <course>87.85</course>
  <speed>1.0404326023342407</speed>
  <fix>3d</fix>
</trkpt>
<trkpt lat="40.0717157" lon="-105.2298965">
  <ele>1582.99</ele>
  <time>2026-09-02T20:50:43Z</time>
  <course>84.17</course>
  <speed>1.12</speed>
  <fix>3d</fix>
</trkpt>
<trkpt lat="40.0717158" lon="-105.2298926">
  <ele>1582.99</ele>
  <time>2026-09-02T20:50:43Z</time>
  <course>89.36</course>
  <speed>1.03</speed>
  <fix>3d</fix>
</trkpt>
<trkpt lat="40.0717158" lon="-105.229894">
  <ele>1582.99</ele>
  <time>2026-09-02T20:50:43Z</time>
  <course>87.59</course>
  <speed>1.06</speed>
  <fix>3d</fix>
</trkpt>
<trkpt lat="40.0717158" lon="-105.2298914">
  <ele>1582.99</ele>
  <time>2026-09-02T20:50:43Z</time>
  <course>90.76</course>
  <speed>0.9900505037623081</speed>
  <fix>3d</fix>
</trkpt>
<trkpt lat="40.0717158" lon="-105.229894">
  <ele>1582.99</ele>
  <time>2026-09-02T20:50:43Z</time>
  <course>87.59</course>
  <speed>1.06</speed>
  <fix>3d</fix>
</trkpt>
<trkpt lat="40.0717158" lon="-105.2298902">
  <ele>1582.99</ele>
  <time>2026-09-02T20:50:43Z</time>
  <course>92.06</course>
  <speed>0.9904544411531506</speed>
  <fix>3d</fix>
</trkpt>
<trkpt lat="40.0717158" lon="-105.2298916">
  <ele>1582.99</ele>
  <time>2026-09-02T20:50:43Z</time>
  <course>90.57</course>
  <speed>1.01</speed>
  <fix>3d</fix>
</trkpt>
<trkpt lat="40.0717158" lon="-105.2298891">
  <ele>1582.99</ele>
  <time>2026-09-02T20:50:43Z</time>
  <course>93.26</course>
  <speed>0.9613012014972206</speed>
  <fix>3d</fix>
</trkpt>
<trkpt lat="40.0717158" lon="-105.2298916">
  <ele>1582.99</ele>
  <time>2026-09-02T20:50:43Z</time>
  <course>90.57</course>
  <speed>1.01</speed>
  <fix>3d</fix>
</trkpt>
<trkpt lat="40.0717157" lon="-105.2298879">
  <ele>1582.99</ele>
  <time>2026-09-02T20:50:43Z</time>
  <course>94.36</course>
  <speed>0.9625487000666512</speed>
  <fix>3d</fix>
</trkpt>
<trkpt lat="40.0717157" lon="-105.2298893">
  <ele>1582.99</ele>
  <time>2026-09-02T20:50:43Z</time>
  <course>93.14</course>
  <speed>0.98</speed>
  <fix>3d</fix>
</trkpt>
<trkpt lat="40.0717157" lon="-105.2298867">
  <ele>1582.99</ele>
  <time>2026-09-02T20:50:43Z</time>
  <course>95.37</course>
  <speed>0.9542536350467836</speed>
  <fix>3d</fix>
</trkpt>
<trkpt lat="40.0717157" lon="-105.2298893">
  <ele>1582.99</ele>
  <time>2026-09-02T20:50:43Z</time>
  <course>93.14</course>
  <speed>0.98</speed>
  <fix>3d</fix>
</trkpt>
<trkpt lat="40.0717156" lon="-105.2298857">
  <ele>1582.99</ele>
  <time>2026-09-02T20:50:43Z</time>
  <course>96.29</course>
  <speed>0.95524865872714</speed>
  <fix>3d</fix>
</trkpt>
<trkpt lat="40.0717157" lon="-105.229887">
  <ele>1582.99</ele>
  <time>2026-09-02T20:50:43Z</time>
  <course>95.32</course>
  <speed>0.96</speed>
  <fix>3d</fix>
</trkpt>
<trkpt lat="40.0717154" lon="-105.2298845">
  <ele>1582.99</ele>
  <time>2026-09-02T20:50:43Z</time>
  <course>97.13</course>
  <speed>0.9476286192385708</speed>
  <fix>3d</fix>
</trkpt>
<trkpt lat="40.0717157" lon="-105.229887">
  <ele>1582.99</ele>
  <time>2026-09-02T20:50:43Z</time>
  <course>95.32</course>
  <speed>0.96</speed>
  <fix>3d</fix>
</trkpt>
<trkpt lat="40.0717153" lon="-105.2298835">
  <ele>1582.99</ele>
  <time>2026-09-02T20:50:43Z</time>
  <course>97.89</course>
  <speed>0.9588534820294495</speed>
  <fix>3d</fix>
</trkpt>
<trkpt lat="40.0717155" lon="-105.2298848">
  <ele>1582.99</ele>
  <time>2026-09-02T20:50:43Z</time>
  <course>97.12</course>
  <speed>0.96</speed>
  <fix>3d</fix>
</trkpt>
<trkpt lat="40.0717153" lon="-105.2298823">
  <ele>1582.99</ele>
  <time>2026-09-02T20:50:43Z</time>
  <course>98.56</course>
  <speed>0.960260381354974</speed>
  <fix>3d</fix>
</trkpt>
<trkpt lat="40.0717155" lon="-105.2298848">
  <ele>1582.99</ele>
  <time>2026-09-02T20:50:43Z</time>
  <course>97.12</course>
  <speed>0.96</speed>
  <fix>3d</fix>
</trkpt>
<trkpt lat="40.0717152" lon="-105.2298814">
  <ele>1582.99</ele>
  <time>2026-09-02T20:50:43Z</time>
  <course>99.06</course>
  <speed>0.9617692030835673</speed>
  <fix>3d</fix>
</trkpt>
<trkpt lat="40.0717152" lon="-105.2298826">
  <ele>1582.99</ele>
  <time>2026-09-02T20:50:43Z</time>
  <course>98.6</course>
  <speed>0.96</speed>
  <fix>3d</fix>
</trkpt>
<trkpt lat="40.071715" lon="-105.2298802">
  <ele>1582.99</ele>
  <time>2026-09-02T20:50:43Z</time>
  <course>99.61</course>
  <speed>0.9732420048477151</speed>
  <fix>3d</fix>
</trkpt>
<trkpt lat="40.0717152" lon="-105.2298826">
  <ele>1582.99</ele>
  <time>2026-09-02T20:50:43Z</time>
  <course>98.6</course>
  <speed>0.96</speed>
  <fix>3d</fix>
</trkpt>
<trkpt lat="40.0717148" lon="-105.2298792">
  <ele>1582.99</ele>
  <time>2026-09-02T20:50:43Z</time>
  <course>100.09</course>
  <speed>0.9749358953285082</speed>
  <fix>3d</fix>
</trkpt>
<trkpt lat="40.071715" lon="-105.2298803">
  <ele>1582.99</ele>
  <time>2026-09-02T20:50:43Z</time>
  <course>99.77</course>
  <speed>0.97</speed>
  <fix>3d</fix>
</trkpt>
<trkpt lat="40.0717147" lon="-105.229878">
  <ele>1582.99</ele>
  <time>2026-09-02T20:50:43Z</time>
  <course>100.5</course>
  <speed>0.9767292357659824</speed>
  <fix>3d</fix>
</trkpt>
<trkpt lat="40.071715" lon="-105.2298803">
  <ele>1582.99</ele>
  <time>2026-09-02T20:50:43Z</time>
  <course>99.77</course>
  <speed>0.97</speed>
  <fix>3d</fix>
</trkpt>
<trkpt lat="40.0717146" lon="-105.2298768">
  <ele>1582.99</ele>
  <time>2026-09-02T20:50:43Z</time>
  <course>100.85</course>
  <speed>0.9767292357659824</speed>
  <fix>3d</fix>
</trkpt>
<trkpt lat="40.0717147" lon="-105.229878">
  <ele>1582.99</ele>
  <time>2026-09-02T20:50:43Z</time>
  <course>100.67</course>
  <speed>0.98</speed>
  <fix>3d</fix>
</trkpt>
<trkpt lat="40.0717144" lon="-105.2298758">
  <ele>1582.99</ele>
  <time>2026-09-02T20:50:43Z</time>
  <course>101.15</course>
  <speed>0.9884331034521254</speed>
  <fix>3d</fix>
</trkpt>
<trkpt lat="40.0717147" lon="-105.229878">
  <ele>1582.99</ele>
  <time>2026-09-02T20:50:43Z</time>
  <course>100.67</course>
  <speed>0.98</speed>
  <fix>3d</fix>
</trkpt>
<trkpt lat="40.0717141" lon="-105.2298747">
  <ele>1582.99</ele>
  <time>2026-09-02T20:50:43Z</time>
  <course>101.39</course>
  <speed>0.9786214794290998</speed>
  <fix>3d</fix>
</trkpt>
<trkpt lat="40.0717144" lon="-105.2298758">
  <ele>1582.99</ele>
  <time>2026-09-02T20:50:43Z</time>
  <course>101.32</course>
  <speed>0.98</speed>
  <fix>3d</fix>
</trkpt>
<trkpt lat="40.071714" lon="-105.2298735">
  <ele>1582.99</ele>
  <time>2026-09-02T20:50:43Z</time>
  <course>101.58</course>
  <speed>0.9904039579888603</speed>
  <fix>3d</fix>
</trkpt>
<trkpt lat="40.0717144" lon="-105.2298758">
  <ele>1582.99</ele>
  <time>2026-09-02T20:50:43Z</time>
  <course>101.32</course>
  <speed>0.98</speed>
  <fix>3d</fix>
</trkpt>
<trkpt lat="40.0717138" lon="-105.2298723">
  <ele>1582.99</ele>
  <time>2026-09-02T20:50:43Z</time>
  <course>101.72</course>
  <speed>0.980612053770501</speed>
  <fix>3d</fix>
</trkpt>
<trkpt lat="40.071714" lon="-105.2298735">
  <ele>1582.99</ele>
  <time>2026-09-02T20:50:43Z</time>
  <course>101.75</course>
  <speed>0.98</speed>
  <fix>3d</fix>
</trkpt>
<trkpt lat="40.0717136" lon="-105.2298711">
  <ele>1582.99</ele>
  <time>2026-09-02T20:50:43Z</time>
  <course>101.82</course>
  <speed>0.9904039579888603</speed>
  <fix>3d</fix>
</trkpt>
<trkpt lat="40.071714" lon="-105.2298735">
  <ele>1582.99</ele>
  <time>2026-09-02T20:50:43Z</time>
  <course>101.75</course>
  <speed>0.98</speed>
  <fix>3d</fix>
</trkpt>
<trkpt lat="40.0717134" lon="-105.2298699">
  <ele>1582.99</ele>
  <time>2026-09-02T20:50:43Z</time>
  <course>101.87</course>
  <speed>0.980612053770501</speed>
  <fix>3d</fix>
</trkpt>
<trkpt lat="40.0717136" lon="-105.2298712">
  <ele>1582.99</ele>
  <time>2026-09-02T20:50:43Z</time>
  <course>101.99</course>
  <speed>0.98</speed>
  <fix>3d</fix>
</trkpt>
<trkpt lat="40.0717133" lon="-105.2298687">
  <ele>1582.99</ele>
  <time>2026-09-02T20:50:43Z</time>
  <course>101.88</course>
  <speed>0.980612053770501</speed>
  <fix>3d</fix>
</trkpt>
<trkpt lat="40.0717136" lon="-105.2298712">
  <ele>1582.99</ele>
  <time>2026-09-02T20:50:43Z</time>
  <course>101.99</course>
  <speed>0.98</speed>
  <fix>3d</fix>
</trkpt>
<trkpt lat="40.071713" lon="-105.2298675">
  <ele>1582.99</ele>
  <time>2026-09-02T20:50:43Z</time>
  <course>101.85</course>
  <speed>0.980612053770501</speed>
  <fix>3d</fix>
</trkpt>
<trkpt lat="40.0717133" lon="-105.2298689">
  <ele>1582.99</ele>
  <time>2026-09-02T20:50:43Z</time>
  <course>102.06</course>
  <speed>0.98</speed>
  <fix>3d</fix>
</trkpt>
<trkpt lat="40.0717129" lon="-105.2298665">
  <ele>1582.99</ele>
  <time>2026-09-02T20:50:43Z</time>
  <course>101.78</course>
  <speed>0.980612053770501</speed>
  <fix>3d</fix>
</trkpt>
<trkpt lat="40.0717133" lon="-105.2298689">
  <ele>1582.99</ele>
  <time>2026-09-02T20:50:43Z</time>
  <course>102.06</course>
  <speed>0.98</speed>
  <fix>3d</fix>
</trkpt>
<trkpt lat="40.0717127" lon="-105.2298654">
  <ele>1582.99</ele>
  <time>2026-09-02T20:50:43Z</time>
  <course>101.69</course>
  <speed>0.980612053770501</speed>
  <fix>3d</fix>
</trkpt>
<trkpt lat="40.0717128" lon="-105.2298667">
  <ele>1582.99</ele>
  <time>2026-09-02T20:50:43Z</time>
  <course>101.98</course>
  <speed>0.98</speed>
  <fix>3d</fix>
</trkpt>
<trkpt lat="40.0717124" lon="-105.2298642">
  <ele>1582.99</ele>
  <time>2026-09-02T20:50:43Z</time>
  <course>101.57</course>
  <speed>0.9688137075826292</speed>
  <fix>3d</fix>
</trkpt>
<trkpt lat="40.0717128" lon="-105.2298667">
  <ele>1582.99</ele>
  <time>2026-09-02T20:50:43Z</time>
  <course>101.98</course>
  <speed>0.98</speed>
  <fix>3d</fix>
</trkpt>
<trkpt lat="40.0717123" lon="-105.229863">
  <ele>1582.99</ele>
  <time>2026-09-02T20:50:43Z</time>
  <course>101.42</course>
  <speed>0.9786214794290998</speed>
  <fix>3d</fix>
</trkpt>
<trkpt lat="40.0717125" lon="-105.2298644">
  <ele>1582.99</ele>
  <time>2026-09-02T20:50:43Z</time>
  <course>101.78</course>
  <speed>0.98</speed>
  <fix>3d</fix>
</trkpt>
<trkpt lat="40.0717122" lon="-105.229862">
  <ele>1582.99</ele>
  <time>2026-09-02T20:50:43Z</time>
  <course>101.24</course>
  <speed>0.9786214794290998</speed>
  <fix>3d</fix>
</trkpt>
<trkpt lat="40.0717125" lon="-105.2298644">
  <ele>1582.99</ele>
  <time>2026-09-02T20:50:43Z</time>
  <course>101.78</course>
  <speed>0.98</speed>
  <fix>3d</fix>
</trkpt>
<trkpt lat="40.071712" lon="-105.2298608">
  <ele>1582.99</ele>
  <time>2026-09-02T20:50:43Z</time>
  <course>101.04</course>
  <speed>0.9884331034521254</speed>
  <fix>3d</fix>
</trkpt>
<trkpt lat="40.0717121" lon="-105.2298621">
  <ele>1582.99</ele>
  <time>2026-09-02T20:50:43Z</time>
  <course>101.46</course>
  <speed>0.98</speed>
  <fix>3d</fix>
</trkpt>
<trkpt lat="40.0717117" lon="-105.2298596">
  <ele>1582.99</ele>
  <time>2026-09-02T20:50:43Z</time>
  <course>100.83</course>
  <speed>0.9767292357659824</speed>
  <fix>3d</fix>
</trkpt>
<trkpt lat="40.0717121" lon="-105.2298621">
  <ele>1582.99</ele>
  <time>2026-09-02T20:50:43Z</time>
  <course>101.46</course>
  <speed>0.98</speed>
  <fix>3d</fix>
</trkpt>
<trkpt lat="40.0717117" lon="-105.2298586">
  <ele>1582.99</ele>
  <time>2026-09-02T20:50:43Z</time>
  <course>100.59</course>
  <speed>0.9767292357659824</speed>
  <fix>3d</fix>
</trkpt>
<trkpt lat="40.0717118" lon="-105.2298599">
  <ele>1582.99</ele>
  <time>2026-09-02T20:50:43Z</time>
  <course>101.05</course>
  <speed>0.98</speed>
  <fix>3d</fix>
</trkpt>
<trkpt lat="40.0717115" lon="-105.2298577">
  <ele>1582.99</ele>
  <time>2026-09-02T20:50:43Z</time>
  <course>100.39</course>
  <speed>0.9767292357659824</speed>
  <fix>3d</fix>
</trkpt>
<trkpt lat="40.0717118" lon="-105.2298599">
  <ele>1582.99</ele>
  <time>2026-09-02T20:50:43Z</time>
  <course>101.05</course>
  <speed>0.98</speed>
  <fix>3d</fix>
</trkpt>
<trkpt lat="40.0717114" lon="-105.2298565">
  <ele>1582.99</ele>
  <time>2026-09-02T20:50:43Z</time>
  <course>100.13</course>
  <speed>0.9847842403288144</speed>
  <fix>3d</fix>
</trkpt>
<trkpt lat="40.0717115" lon="-105.2298576">
  <ele>1582.99</ele>
  <time>2026-09-02T20:50:43Z</time>
  <course>100.58</course>
  <speed>0.98</speed>
  <fix>3d</fix>
</trkpt>
<trkpt lat="40.0717111" lon="-105.2298553">
  <ele>1582.99</ele>
  <time>2026-09-02T20:50:43Z</time>
  <course>99.86</course>
  <speed>0.9749358953285082</speed>
  <fix>3d</fix>
</trkpt>
<trkpt lat="40.0717115" lon="-105.2298576">
  <ele>1582.99</ele>
  <time>2026-09-02T20:50:43Z</time>
  <course>100.58</course>
  <speed>0.98</speed>
  <fix>3d</fix>
</trkpt>
<trkpt lat="40.0717111" lon="-105.2298541">
  <ele>1582.99</ele>
  <time>2026-09-02T20:50:43Z</time>
  <course>99.57</course>
  <speed>0.9831073186585481</speed>
  <fix>3d</fix>
</trkpt>
<trkpt lat="40.0717112" lon="-105.2298553">
  <ele>1582.99</ele>
  <time>2026-09-02T20:50:43Z</time>
  <course>100.04</course>
  <speed>0.99</speed>
  <fix>3d</fix>
</trkpt>
<trkpt lat="40.0717109" lon="-105.2298531">
  <ele>1582.99</ele>
  <time>2026-09-02T20:50:43Z</time>
  <course>99.28</course>
  <speed>0.9732420048477151</speed>
  <fix>3d</fix>
</trkpt>
<trkpt lat="40.0717112" lon="-105.2298553">
  <ele>1582.99</ele>
  <time>2026-09-02T20:50:43Z</time>
  <course>100.04</course>
  <speed>0.99</speed>
  <fix>3d</fix>
</trkpt>
<trkpt lat="40.0717108" lon="-105.2298519">
  <ele>1582.99</ele>
  <time>2026-09-02T20:50:43Z</time>
  <course>98.97</course>
  <speed>0.9815294188153507</speed>
  <fix>3d</fix>
</trkpt>
<trkpt lat="40.0717109" lon="-105.229853">
  <ele>1582.99</ele>
  <time>2026-09-02T20:50:43Z</time>
  <course>99.46</course>
  <speed>0.99</speed>
  <fix>3d</fix>
</trkpt>
<trkpt lat="40.0717105" lon="-105.2298508">
  <ele>1582.99</ele>
  <time>2026-09-02T20:50:43Z</time>
  <course>98.66</course>
  <speed>0.9815294188153507</speed>
  <fix>3d</fix>
</trkpt>
<trkpt lat="40.0717109" lon="-105.229853">
  <ele>1582.99</ele>
  <time>2026-09-02T20:50:43Z</time>
  <course>99.46</course>
  <speed>0.99</speed>
  <fix>3d</fix>
</trkpt>
<trkpt lat="40.0717104" lon="-105.2298496">
  <ele>1582.99</ele>
  <time>2026-09-02T20:50:43Z</time>
  <course>98.34</course>
  <speed>0.9899494936611666</speed>
  <fix>3d</fix>
</trkpt>
<trkpt lat="40.0717106" lon="-105.2298508">
  <ele>1582.99</ele>
  <time>2026-09-02T20:50:43Z</time>
  <course>98.85</course>
  <speed>0.99</speed>
  <fix>3d</fix>
</trkpt>
<trkpt lat="40.0717104" lon="-105.2298484">
  <ele>1583.0</ele>
  <time>2026-09-02T20:50:43Z</time>
  <course>98.02</course>
  <speed>0.9800510190801294</speed>
  <fix>3d</fix>
</trkpt>
<trkpt lat="40.0717106" lon="-105.2298508">
  <ele>1582.99</ele>
  <time>2026-09-02T20:50:43Z</time>
  <course>98.85</course>
  <speed>0.99</speed>
  <fix>3d</fix>
</trkpt>
<trkpt lat="40.0717102" lon="-105.2298474">
  <ele>1582.99</ele>
  <time>2026-09-02T20:50:43Z</time>
  <course>97.71</course>
  <speed>0.9885848471426213</speed>
  <fix>3d</fix>
</trkpt>
<trkpt lat="40.0717103" lon="-105.2298485">
  <ele>1582.99</ele>
  <time>2026-09-02T20:50:43Z</time>
  <course>98.21</course>
  <speed>0.99</speed>
  <fix>3d</fix>
</trkpt>
<trkpt lat="40.0717101" lon="-105.229846">
  <ele>1582.99</ele>
  <time>2026-09-02T20:50:43Z</time>
  <course>97.32</course>
  <speed>0.9873196037757986</speed>
  <fix>3d</fix>
</trkpt>
<trkpt lat="40.0717103" lon="-105.2298485">
  <ele>1582.99</ele>
  <time>2026-09-02T20:50:43Z</time>
  <course>98.21</course>
  <speed>0.99</speed>
  <fix>3d</fix>
</trkpt>
<trkpt lat="40.0717099" lon="-105.2298448">
  <ele>1582.99</ele>
  <time>2026-09-02T20:50:43Z</time>
  <course>97.01</course>
  <speed>0.9873196037757986</speed>
  <fix>3d</fix>
</trkpt>
<trkpt lat="40.0717101" lon="-105.2298462">
  <ele>1582.99</ele>
  <time>2026-09-02T20:50:43Z</time>
  <course>97.57</course>
  <speed>0.99</speed>
  <fix>3d</fix>
</trkpt>
<trkpt lat="40.0717098" lon="-105.2298436">
  <ele>1582.99</ele>
  <time>2026-09-02T20:50:43Z</time>
  <course>96.68</course>
  <speed>0.986154146165801</speed>
  <fix>3d</fix>
</trkpt>
<trkpt lat="40.0717101" lon="-105.2298462">
  <ele>1582.99</ele>
  <time>2026-09-02T20:50:43Z</time>
  <course>97.57</course>
  <speed>0.99</speed>
  <fix>3d</fix>
</trkpt>
<trkpt lat="40.0717098" lon="-105.2298424">
  <ele>1582.99</ele>
  <time>2026-09-02T20:50:43Z</time>
  <course>96.36</course>
  <speed>0.9960923651951158</speed>
  <fix>3d</fix>
</trkpt>
<trkpt lat="40.0717099" lon="-105.2298438">
  <ele>1582.99</ele>
  <time>2026-09-02T20:50:43Z</time>
  <course>96.93</course>
  <speed>0.99</speed>
  <fix>3d</fix>
</trkpt>
<trkpt lat="40.0717097" lon="-105.2298414">
  <ele>1582.99</ele>
  <time>2026-09-02T20:50:43Z</time>
  <course>96.05</course>
  <speed>0.9850888284819801</speed>
  <fix>3d</fix>
</trkpt>
<trkpt lat="40.0717099" lon="-105.2298438">
  <ele>1582.99</ele>
  <time>2026-09-02T20:50:43Z</time>
  <course>96.93</course>
  <speed>0.99</speed>
  <fix>3d</fix>
</trkpt>
<trkpt lat="40.0717096" lon="-105.2298402">
  <ele>1582.99</ele>
  <time>2026-09-02T20:50:43Z</time>
  <course>95.74</course>
  <speed>0.9950376877284599</speed>
  <fix>3d</fix>
</trkpt>
<trkpt lat="40.0717097" lon="-105.2298415">
  <ele>1582.99</ele>
  <time>2026-09-02T20:50:43Z</time>
  <course>96.29</course>
  <speed>0.99</speed>
  <fix>3d</fix>
</trkpt>
<trkpt lat="40.0717095" lon="-105.229839">
  <ele>1582.99</ele>
  <time>2026-09-02T20:50:43Z</time>
  <course>95.43</course>
  <speed>0.9841239759298622</speed>
  <fix>3d</fix>
</trkpt>
<trkpt lat="40.0717097" lon="-105.2298415">
  <ele>1582.99</ele>
  <time>2026-09-02T20:50:43Z</time>
  <course>96.29</course>
  <speed>0.99</speed>
  <fix>3d</fix>
</trkpt>
<trkpt lat="40.0717093" lon="-105.2298378">
  <ele>1582.99</ele>
  <time>2026-09-02T20:50:43Z</time>
  <course>95.13</course>
  <speed>0.9841239759298622</speed>
  <fix>3d</fix>
</trkpt>
<trkpt lat="40.0717095" lon="-105.2298392">
  <ele>1582.99</ele>
  <time>2026-09-02T20:50:43Z</time>
  <course>95.67</course>
  <speed>0.99</speed>
  <fix>3d</fix>
</trkpt>
<trkpt lat="40.0717092" lon="-105.2298366">
  <ele>1582.99</ele>
  <time>2026-09-02T20:50:43Z</time>
  <course>94.83</course>
  <speed>0.9932270636667125</speed>
  <fix>3d</fix>
</trkpt>
<trkpt lat="40.0717095" lon="-105.2298392">
  <ele>1582.99</ele>
  <time>2026-09-02T20:50:43Z</time>
  <course>95.67</course>
  <speed>0.99</speed>
  <fix>3d</fix>
</trkpt>
<trkpt lat="40.0717092" lon="-105.2298354">
  <ele>1582.99</ele>
  <time>2026-09-02T20:50:43Z</time>
  <course>94.53</course>
  <speed>0.9932270636667125</speed>
  <fix>3d</fix>
</trkpt>
<trkpt lat="40.0717093" lon="-105.2298369">
  <ele>1582.99</ele>
  <time>2026-09-02T20:50:43Z</time>
  <course>95.06</course>
  <speed>0.99</speed>
  <fix>3d</fix>
</trkpt>
<trkpt lat="40.0717092" lon="-105.2298344">
  <ele>1582.99</ele>
  <time>2026-09-02T20:50:43Z</time>
  <course>94.24</course>
  <speed>0.9924716620639604</speed>
  <fix>3d</fix>
</trkpt>
<trkpt lat="40.0717093" lon="-105.2298369">
  <ele>1582.99</ele>
  <time>2026-09-02T20:50:43Z</time>
  <course>95.06</course>
  <speed>0.99</speed>
  <fix>3d</fix>
</trkpt>
<trkpt lat="40.0717091" lon="-105.2298333">
  <ele>1582.99</ele>
  <time>2026-09-02T20:50:43Z</time>
  <course>94.02</course>
  <speed>0.9924716620639604</speed>
  <fix>3d</fix>
</trkpt>
<trkpt lat="40.0717092" lon="-105.2298345">
  <ele>1582.99</ele>
  <time>2026-09-02T20:50:43Z</time>
  <course>94.48</course>
  <speed>0.99</speed>
  <fix>3d</fix>
</trkpt>
<trkpt lat="40.071709" lon="-105.2298323">
  <ele>1582.99</ele>
  <time>2026-09-02T20:50:43Z</time>
  <course>93.75</course>
  <speed>0.9918165152889924</speed>
  <fix>3d</fix>
</trkpt>
<trkpt lat="40.0717092" lon="-105.2298345">
  <ele>1582.99</ele>
  <time>2026-09-02T20:50:43Z</time>
  <course>94.48</course>
  <speed>0.99</speed>
  <fix>3d</fix>
</trkpt>
<trkpt lat="40.071709" lon="-105.2298311">
  <ele>1582.99</ele>
  <time>2026-09-02T20:50:43Z</time>
  <course>93.48</course>
  <speed>0.9918165152889924</speed>
  <fix>3d</fix>
</trkpt>
<trkpt lat="40.071709" lon="-105.2298322">
  <ele>1582.99</ele>
  <time>2026-09-02T20:50:43Z</time>
  <course>93.92</course>
  <speed>0.99</speed>
  <fix>3d</fix>
</trkpt>
<trkpt lat="40.0717089" lon="-105.2298299">
  <ele>1582.99</ele>
  <time>2026-09-02T20:50:43Z</time>
  <course>93.22</course>
  <speed>0.9912618221237011</speed>
  <fix>3d</fix>
</trkpt>
<trkpt lat="40.071709" lon="-105.2298322">
  <ele>1582.99</ele>
  <time>2026-09-02T20:50:43Z</time>
  <course>93.92</course>
  <speed>0.99</speed>
  <fix>3d</fix>
</trkpt>
<trkpt lat="40.0717089" lon="-105.2298287">
  <ele>1582.99</ele>
  <time>2026-09-02T20:50:43Z</time>
  <course>92.97</course>
  <speed>0.9912618221237011</speed>
  <fix>3d</fix>
</trkpt>
<trkpt lat="40.0717089" lon="-105.2298299">
  <ele>1582.99</ele>
  <time>2026-09-02T20:50:43Z</time>
  <course>93.4</course>
  <speed>0.99</speed>
  <fix>3d</fix>
</trkpt>
<trkpt lat="40.0717087" lon="-105.2298275">
  <ele>1582.99</ele>
  <time>2026-09-02T20:50:43Z</time>
  <course>92.73</course>
  <speed>0.9912618221237011</speed>
  <fix>3d</fix>
</trkpt>
<trkpt lat="40.0717089" lon="-105.2298299">
  <ele>1582.99</ele>
  <time>2026-09-02T20:50:43Z</time>
  <course>93.4</course>
  <speed>0.99</speed>
  <fix>3d</fix>
</trkpt>
<trkpt lat="40.0717087" lon="-105.2298263">
  <ele>1582.99</ele>
  <time>2026-09-02T20:50:43Z</time>
  <course>92.49</course>
  <speed>1.0007996802557444</speed>
  <fix>3d</fix>
</trkpt>
<trkpt lat="40.0717088" lon="-105.2298275">
  <ele>1582.99</ele>
  <time>2026-09-02T20:50:43Z</time>
  <course>92.9</course>
  <speed>1.0</speed>
  <fix>3d</fix>
</trkpt>
<trkpt lat="40.0717087" lon="-105.2298253">
  <ele>1582.99</ele>
  <time>2026-09-02T20:50:43Z</time>
  <course>92.26</course>
  <speed>0.9908077512817509</speed>
  <fix>3d</fix>
</trkpt>
<trkpt lat="40.0717088" lon="-105.2298275">
  <ele>1582.99</ele>
  <time>2026-09-02T20:50:43Z</time>
  <course>92.9</course>
  <speed>1.0</speed>
  <fix>3d</fix>
</trkpt>
<trkpt lat="40.0717086" lon="-105.2298241">
  <ele>1582.99</ele>
  <time>2026-09-02T20:50:43Z</time>
  <course>92.04</course>
  <speed>1.0004498987955368</speed>
  <fix>3d</fix>
</trkpt>
<trkpt lat="40.0717087" lon="-105.2298252">
  <ele>1582.99</ele>
  <time>2026-09-02T20:50:43Z</time>
  <course>92.43</course>
  <speed>1.0</speed>
  <fix>3d</fix>
</trkpt>
<trkpt lat="40.0717086" lon="-105.2298227">
  <ele>1582.99</ele>
  <time>2026-09-02T20:50:43Z</time>
  <course>91.78</course>
  <speed>0.9904544411531506</speed>
  <fix>3d</fix>
</trkpt>
<trkpt lat="40.0717087" lon="-105.2298252">
  <ele>1582.99</ele>
  <time>2026-09-02T20:50:43Z</time>
  <course>92.43</course>
  <speed>1.0</speed>
  <fix>3d</fix>
</trkpt>
<trkpt lat="40.0717086" lon="-105.2298215">
  <ele>1582.99</ele>
  <time>2026-09-02T20:50:43Z</time>
  <course>91.58</course>
  <speed>1.0004498987955368</speed>
  <fix>3d</fix>
</trkpt>
<trkpt lat="40.0717086" lon="-105.2298229">
  <ele>1582.99</ele>
  <time>2026-09-02T20:50:43Z</time>
  <course>92.0</course>
  <speed>1.0</speed>
  <fix>3d</fix>
</trkpt>
<trkpt lat="40.0717086" lon="-105.2298203">
  <ele>1582.99</ele>
  <time>2026-09-02T20:50:43Z</time>
  <course>91.39</course>
  <speed>0.9902019995940222</speed>
  <fix>3d</fix>
</trkpt>
<trkpt lat="40.0717086" lon="-105.2298229">
  <ele>1582.99</ele>
  <time>2026-09-02T20:50:43Z</time>
  <course>92.0</course>
  <speed>1.0</speed>
  <fix>3d</fix>
</trkpt>
<trkpt lat="40.0717086" lon="-105.2298192">
  <ele>1582.99</ele>
  <time>2026-09-02T20:50:43Z</time>
  <course>91.21</course>
  <speed>1.000199980003999</speed>
  <fix>3d</fix>
</trkpt>
<trkpt lat="40.0717086" lon="-105.2298205">
  <ele>1582.99</ele>
  <time>2026-09-02T20:50:43Z</time>
  <course>91.6</course>
  <speed>1.0</speed>
  <fix>3d</fix>
</trkpt>
<trkpt lat="40.0717086" lon="-105.229818">
  <ele>1582.99</ele>
  <time>2026-09-02T20:50:43Z</time>
  <course>91.04</course>
  <speed>0.9902019995940222</speed>
  <fix>3d</fix>
</trkpt>
<trkpt lat="40.0717086" lon="-105.2298205">
  <ele>1582.99</ele>
  <time>2026-09-02T20:50:43Z</time>
  <course>91.6</course>
  <speed>1.0</speed>
  <fix>3d</fix>
</trkpt>
<trkpt lat="40.0717086" lon="-105.2298168">
  <ele>1582.99</ele>
  <time>2026-09-02T20:50:43Z</time>
  <course>90.88</course>
  <speed>1.0000499987500624</speed>
  <fix>3d</fix>
</trkpt>
<trkpt lat="40.0717086" lon="-105.2298182">
  <ele>1582.99</ele>
  <time>2026-09-02T20:50:43Z</time>
  <course>91.25</course>
  <speed>0.99</speed>
  <fix>3d</fix>
</trkpt>
<trkpt lat="40.0717085" lon="-105.2298156">
  <ele>1582.99</ele>
  <time>2026-09-02T20:50:43Z</time>
  <course>90.74</course>
  <speed>0.9900505037623081</speed>
  <fix>3d</fix>
</trkpt>
<trkpt lat="40.0717086" lon="-105.2298182">
  <ele>1582.99</ele>
  <time>2026-09-02T20:50:43Z</time>
  <course>91.25</course>
  <speed>0.99</speed>
  <fix>3d</fix>
</trkpt>
<trkpt lat="40.0717085" lon="-105.2298144">
  <ele>1582.99</ele>
  <time>2026-09-02T20:50:43Z</time>
  <course>90.59</course>
  <speed>1.0000499987500624</speed>
  <fix>3d</fix>
</trkpt>
<trkpt lat="40.0717085" lon="-105.2298158">
  <ele>1582.99</ele>
  <time>2026-09-02T20:50:43Z</time>
  <course>90.93</course>
  <speed>0.99</speed>
  <fix>3d</fix>
</trkpt>
<trkpt lat="40.0717085" lon="-105.2298132">
  <ele>1582.99</ele>
  <time>2026-09-02T20:50:43Z</time>
  <course>90.45</course>
  <speed>0.9900505037623081</speed>
  <fix>3d</fix>
</trkpt>
<trkpt lat="40.0717085" lon="-105.2298158">
  <ele>1582.99</ele>
  <time>2026-09-02T20:50:43Z</time>
  <course>90.93</course>
  <speed>0.99</speed>
  <fix>3d</fix>
</trkpt>
<trkpt lat="40.0717085" lon="-105.229812">
  <ele>1582.99</ele>
  <time>2026-09-02T20:50:43Z</time>
  <course>90.33</course>
  <speed>0.99</speed>
  <fix>3d</fix>
</trkpt>
<trkpt lat="40.0717085" lon="-105.2298135">
  <ele>1582.99</ele>
  <time>2026-09-02T20:50:43Z</time>
  <course>90.65</course>
  <speed>0.99</speed>
  <fix>3d</fix>
</trkpt>
<trkpt lat="40.0717085" lon="-105.229811">
  <ele>1582.99</ele>
  <time>2026-09-02T20:50:43Z</time>
  <course>90.2</course>
  <speed>1.0</speed>
  <fix>3d</fix>
</trkpt>
<trkpt lat="40.0717085" lon="-105.2298135">
  <ele>1582.99</ele>
  <time>2026-09-02T20:50:43Z</time>
  <course>90.65</course>
  <speed>0.99</speed>
  <fix>3d</fix>
</trkpt>
<trkpt lat="40.0717085" lon="-105.22981">
  <ele>1582.99</ele>
  <time>2026-09-02T20:50:43Z</time>
  <course>90.11</course>
  <speed>0.99</speed>
  <fix>3d</fix>
</trkpt>
<trkpt lat="40.0717085" lon="-105.2298112">
  <ele>1582.99</ele>
  <time>2026-09-02T20:50:43Z</time>
  <course>90.4</course>
  <speed>0.99</speed>
  <fix>3d</fix>
</trkpt>
<trkpt lat="40.0717085" lon="-105.2298088">
  <ele>1582.99</ele>
  <time>2026-09-02T20:50:43Z</time>
  <course>90.01</course>
  <speed>1.0</speed>
  <fix>3d</fix>
</trkpt>
<trkpt lat="40.0717085" lon="-105.2298112">
  <ele>1582.99</ele>
  <time>2026-09-02T20:50:43Z</time>
  <course>90.4</course>
  <speed>0.99</speed>
  <fix>3d</fix>
</trkpt>
<trkpt lat="40.0717085" lon="-105.2298077">
  <ele>1582.99</ele>
  <time>2026-09-02T20:50:43Z</time>
  <course>89.91</course>
  <speed>0.99</speed>
  <fix>3d</fix>
</trkpt>
<trkpt lat="40.0717085" lon="-105.2298088">
  <ele>1582.99</ele>
  <time>2026-09-02T20:50:43Z</time>
  <course>90.18</course>
  <speed>0.99</speed>
  <fix>3d</fix>
</trkpt>
<trkpt lat="40.0717085" lon="-105.2298065">
  <ele>1582.99</ele>
  <time>2026-09-02T20:50:43Z</time>
  <course>89.82</course>
  <speed>1.0</speed>
  <fix>3d</fix>
</trkpt>
<trkpt lat="40.0717085" lon="-105.2298088">
  <ele>1582.99</ele>
  <time>2026-09-02T20:50:43Z</time>
  <course>90.18</course>
  <speed>0.99</speed>
  <fix>3d</fix>
</trkpt>
<trkpt lat="40.0717085" lon="-105.2298053">
  <ele>1582.99</ele>
  <time>2026-09-02T20:50:43Z</time>
  <course>89.74</course>
  <speed>0.99</speed>
  <fix>3d</fix>
</trkpt>
<trkpt lat="40.0717085" lon="-105.2298065">
  <ele>1582.99</ele>
  <time>2026-09-02T20:50:43Z</time>
  <course>89.99</course>
  <speed>0.99</speed>
  <fix>3d</fix>
</trkpt>
<trkpt lat="40.0717085" lon="-105.2298041">
  <ele>1582.99</ele>
  <time>2026-09-02T20:50:43Z</time>
  <course>89.66</course>
  <speed>1.0</speed>
  <fix>3d</fix>
</trkpt>
<trkpt lat="40.0717085" lon="-105.2298065">
  <ele>1582.99</ele>
  <time>2026-09-02T20:50:43Z</time>
  <course>89.99</course>
  <speed>0.99</speed>
  <fix>3d</fix>
</trkpt>
<trkpt lat="40.0717085" lon="-105.2298029">
  <ele>1582.99</ele>
  <time>2026-09-02T20:50:43Z</time>
  <course>89.59</course>
  <speed>0.99</speed>
  <fix>3d</fix>
</trkpt>
<trkpt lat="40.0717085" lon="-105.2298041">
  <ele>1582.99</ele>
  <time>2026-09-02T20:50:43Z</time>
  <course>89.83</course>
  <speed>0.99</speed>
  <fix>3d</fix>
</trkpt>
<trkpt lat="40.0717085" lon="-105.2298017">
  <ele>1582.99</ele>
  <time>2026-09-02T20:50:43Z</time>
  <course>89.52</course>
  <speed>1.0</speed>
  <fix>3d</fix>
</trkpt>
<trkpt lat="40.0717085" lon="-105.2298041">
  <ele>1582.99</ele>
  <time>2026-09-02T20:50:43Z</time>
  <course>89.83</course>
  <speed>0.99</speed>
  <fix>3d</fix>
</trkpt>
<trkpt lat="40.0717085" lon="-105.2298005">
  <ele>1582.99</ele>
  <time>2026-09-02T20:50:43Z</time>
  <course>89.46</course>
  <speed>0.99</speed>
  <fix>3d</fix>
</trkpt>
<trkpt lat="40.0717085" lon="-105.2298017">
  <ele>1582.99</ele>
  <time>2026-09-02T20:50:43Z</time>
  <course>89.69</course>
  <speed>0.99</speed>
  <fix>3d</fix>
</trkpt>
<trkpt lat="40.0717085" lon="-105.2297995">
  <ele>1582.99</ele>
  <time>2026-09-02T20:50:43Z</time>
  <course>89.41</course>
  <speed>1.0</speed>
  <fix>3d</fix>
</trkpt>
<trkpt lat="40.0717085" lon="-105.2298017">
  <ele>1582.99</ele>
  <time>2026-09-02T20:50:43Z</time>
  <course>89.69</course>
  <speed>0.99</speed>
  <fix>3d</fix>
</trkpt>
<trkpt lat="40.0717085" lon="-105.2297981">
  <ele>1582.99</ele>
  <time>2026-09-02T20:50:43Z</time>
  <course>89.36</course>
  <speed>1.0</speed>
  <fix>3d</fix>
</trkpt>
<trkpt lat="40.0717085" lon="-105.2297994">
  <ele>1582.99</ele>
  <time>2026-09-02T20:50:43Z</time>
  <course>89.58</course>
  <speed>1.0</speed>
  <fix>3d</fix>
</trkpt>
<trkpt lat="40.0717085" lon="-105.2297969">
  <ele>1582.99</ele>
  <time>2026-09-02T20:50:43Z</time>
  <course>89.31</course>
  <speed>0.99</speed>
  <fix>3d</fix>
</trkpt>
<trkpt lat="40.0717085" lon="-105.2297994">
  <ele>1582.99</ele>
  <time>2026-09-02T20:50:43Z</time>
  <course>89.58</course>
  <speed>1.0</speed>
  <fix>3d</fix>
</trkpt>
<trkpt lat="40.0717085" lon="-105.2297957">
  <ele>1582.99</ele>
  <time>2026-09-02T20:50:43Z</time>
  <course>89.28</course>
  <speed>1.0</speed>
  <fix>3d</fix>
</trkpt>
<trkpt lat="40.0717085" lon="-105.2297971">
  <ele>1582.99</ele>
  <time>2026-09-02T20:50:43Z</time>
  <course>89.49</course>
  <speed>1.0</speed>
  <fix>3d</fix>
</trkpt>
<trkpt lat="40.0717085" lon="-105.2297945">
  <ele>1582.99</ele>
  <time>2026-09-02T20:50:43Z</time>
  <course>89.25</course>
  <speed>0.9900505037623081</speed>
  <fix>3d</fix>
</trkpt>
<trkpt lat="40.0717085" lon="-105.2297971">
  <ele>1582.99</ele>
  <time>2026-09-02T20:50:43Z</time>
  <course>89.49</course>
  <speed>1.0</speed>
  <fix>3d</fix>
</trkpt>
<trkpt lat="40.0717085" lon="-105.2297933">
  <ele>1582.99</ele>
  <time>2026-09-02T20:50:43Z</time>
  <course>89.22</course>
  <speed>1.0000499987500624</speed>
  <fix>3d</fix>
</trkpt>
<trkpt lat="40.0717085" lon="-105.2297947">
  <ele>1582.99</ele>
  <time>2026-09-02T20:50:43Z</time>
  <course>89.42</course>
  <speed>1.0</speed>
  <fix>3d</fix>
</trkpt>
<trkpt lat="40.0717085" lon="-105.2297921">
  <ele>1582.99</ele>
  <time>2026-09-02T20:50:43Z</time>
  <course>89.2</course>
  <speed>0.9900505037623081</speed>
  <fix>3d</fix>
</trkpt>
<trkpt lat="40.0717085" lon="-105.2297947">
  <ele>1582.99</ele>
  <time>2026-09-02T20:50:43Z</time>
  <course>89.42</course>
  <speed>1.0</speed>
  <fix>3d</fix>
</trkpt>
<trkpt lat="40.0717085" lon="-105.2297909">
  <ele>1582.99</ele>
  <time>2026-09-02T20:50:43Z</time>
  <course>89.18</course>
  <speed>1.0000499987500624</speed>
  <fix>3d</fix>
</trkpt>
<trkpt lat="40.0717085" lon="-105.2297923">
  <ele>1582.99</ele>
  <time>2026-09-02T20:50:44Z</time>
  <course>89.37</course>
  <speed>1.0</speed>
  <fix>3d</fix>
</trkpt>
<trkpt lat="40.0717085" lon="-105.2297897">
  <ele>1582.99</ele>
  <time>2026-09-02T20:50:44Z</time>
  <course>89.17</course>
  <speed>0.9900505037623081</speed>
  <fix>3d</fix>
</trkpt>
<trkpt lat="40.0717085" lon="-105.2297923">
  <ele>1582.99</ele>
  <time>2026-09-02T20:50:44Z</time>
  <course>89.37</course>
  <speed>1.0</speed>
  <fix>3d</fix>
</trkpt>
<trkpt lat="40.0717085" lon="-105.2297887">
  <ele>1582.99</ele>
  <time>2026-09-02T20:50:44Z</time>
  <course>89.16</course>
  <speed>1.0000499987500624</speed>
  <fix>3d</fix>
</trkpt>
<trkpt lat="40.0717085" lon="-105.22979">
  <ele>1582.99</ele>
  <time>2026-09-02T20:50:44Z</time>
  <course>89.34</course>
  <speed>1.0</speed>
  <fix>3d</fix>
</trkpt>
<trkpt lat="40.0717085" lon="-105.2297875">
  <ele>1582.99</ele>
  <time>2026-09-02T20:50:44Z</time>
  <course>89.15</course>
  <speed>0.9900505037623081</speed>
  <fix>3d</fix>
</trkpt>
<trkpt lat="40.0717085" lon="-105.22979">
  <ele>1582.99</ele>
  <time>2026-09-02T20:50:44Z</time>
  <course>89.34</course>
  <speed>1.0</speed>
  <fix>3d</fix>
</trkpt>
<trkpt lat="40.0717085" lon="-105.2297863">
  <ele>1582.99</ele>
  <time>2026-09-02T20:50:44Z</time>
  <course>89.15</course>
  <speed>1.0000499987500624</speed>
  <fix>3d</fix>
</trkpt>
<trkpt lat="40.0717085" lon="-105.2297877">
  <ele>1582.99</ele>
  <time>2026-09-02T20:50:44Z</time>
  <course>89.32</course>
  <speed>1.0</speed>
  <fix>3d</fix>
</trkpt>
<trkpt lat="40.0717085" lon="-105.2297854">
  <ele>1582.99</ele>
  <time>2026-09-02T20:50:44Z</time>
  <course>89.15</course>
  <speed>1.0000499987500624</speed>
  <fix>3d</fix>
</trkpt>
<trkpt lat="40.0717085" lon="-105.2297877">
  <ele>1582.99</ele>
  <time>2026-09-02T20:50:44Z</time>
  <course>89.32</course>
  <speed>1.0</speed>
  <fix>3d</fix>
</trkpt>
<trkpt lat="40.0717085" lon="-105.2297842">
  <ele>1582.99</ele>
  <time>2026-09-02T20:50:44Z</time>
  <course>89.15</course>
  <speed>0.9900505037623081</speed>
  <fix>3d</fix>
</trkpt>
<trkpt lat="40.0717085" lon="-105.2297854">
  <ele>1582.99</ele>
  <time>2026-09-02T20:50:44Z</time>
  <course>89.31</course>
  <speed>1.0</speed>
  <fix>3d</fix>
</trkpt>
<trkpt lat="40.0717086" lon="-105.229783">
  <ele>1582.99</ele>
  <time>2026-09-02T20:50:44Z</time>
  <course>89.15</course>
  <speed>1.0000499987500624</speed>
  <fix>3d</fix>
</trkpt>
<trkpt lat="40.0717085" lon="-105.2297854">
  <ele>1582.99</ele>
  <time>2026-09-02T20:50:44Z</time>
  <course>89.31</course>
  <speed>1.0</speed>
  <fix>3d</fix>
</trkpt>
<trkpt lat="40.0717086" lon="-105.2297818">
  <ele>1582.99</ele>
  <time>2026-09-02T20:50:44Z</time>
  <course>89.16</course>
  <speed>0.9900505037623081</speed>
  <fix>3d</fix>
</trkpt>
<trkpt lat="40.0717085" lon="-105.229783">
  <ele>1582.99</ele>
  <time>2026-09-02T20:50:44Z</time>
  <course>89.32</course>
  <speed>0.99</speed>
  <fix>3d</fix>
</trkpt>
<trkpt lat="40.0717086" lon="-105.2297806">
  <ele>1582.99</ele>
  <time>2026-09-02T20:50:44Z</time>
  <course>89.18</course>
  <speed>0.9900505037623081</speed>
  <fix>3d</fix>
</trkpt>
<trkpt lat="40.0717085" lon="-105.229783">
  <ele>1582.99</ele>
  <time>2026-09-02T20:50:44Z</time>
  <course>89.32</course>
  <speed>0.99</speed>
  <fix>3d</fix>
</trkpt>
<trkpt lat="40.0717086" lon="-105.2297794">
  <ele>1582.99</ele>
  <time>2026-09-02T20:50:44Z</time>
  <course>89.19</course>
  <speed>0.9900505037623081</speed>
  <fix>3d</fix>
</trkpt>
<trkpt lat="40.0717086" lon="-105.2297806">
  <ele>1582.99</ele>
  <time>2026-09-02T20:50:44Z</time>
  <course>89.34</course>
  <speed>0.99</speed>
  <fix>3d</fix>
</trkpt>
<trkpt lat="40.0717086" lon="-105.2297782">
  <ele>1582.99</ele>
  <time>2026-09-02T20:50:44Z</time>
  <course>89.22</course>
  <speed>0.9900505037623081</speed>
  <fix>3d</fix>
</trkpt>
<trkpt lat="40.0717086" lon="-105.2297806">
  <ele>1582.99</ele>
  <time>2026-09-02T20:50:44Z</time>
  <course>89.34</course>
  <speed>0.99</speed>
  <fix>3d</fix>
</trkpt>
<trkpt lat="40.0717086" lon="-105.2297772">
  <ele>1582.99</ele>
  <time>2026-09-02T20:50:44Z</time>
  <course>89.24</course>
  <speed>0.9900505037623081</speed>
  <fix>3d</fix>
</trkpt>
<trkpt lat="40.0717086" lon="-105.2297783">
  <ele>1582.99</ele>
  <time>2026-09-02T20:50:44Z</time>
  <course>89.38</course>
  <speed>0.99</speed>
  <fix>3d</fix>
</trkpt>
<trkpt lat="40.0717086" lon="-105.229776">
  <ele>1582.99</ele>
  <time>2026-09-02T20:50:44Z</time>
  <course>89.26</course>
  <speed>1.0</speed>
  <fix>3d</fix>
</trkpt>
<trkpt lat="40.0717086" lon="-105.2297783">
  <ele>1582.99</ele>
  <time>2026-09-02T20:50:44Z</time>
  <course>89.38</course>
  <speed>0.99</speed>
  <fix>3d</fix>
</trkpt>
<trkpt lat="40.0717086" lon="-105.2297748">
  <ele>1582.99</ele>
  <time>2026-09-02T20:50:44Z</time>
  <course>89.29</course>
  <speed>0.99</speed>
  <fix>3d</fix>
</trkpt>
<trkpt lat="40.0717086" lon="-105.229776">
  <ele>1582.99</ele>
  <time>2026-09-02T20:50:44Z</time>
  <course>89.43</course>
  <speed>0.99</speed>
  <fix>3d</fix>
</trkpt>
<trkpt lat="40.0717086" lon="-105.2297734">
  <ele>1582.99</ele>
  <time>2026-09-02T20:50:44Z</time>
  <course>89.31</course>
  <speed>1.0</speed>
  <fix>3d</fix>
</trkpt>
<trkpt lat="40.0717086" lon="-105.229776">
  <ele>1582.99</ele>
  <time>2026-09-02T20:50:44Z</time>
  <course>89.43</course>
  <speed>0.99</speed>
  <fix>3d</fix>
</trkpt>
<trkpt lat="40.0717086" lon="-105.2297722">
  <ele>1582.99</ele>
  <time>2026-09-02T20:50:44Z</time>
  <course>89.34</course>
  <speed>0.99</speed>
  <fix>3d</fix>
</trkpt>
<trkpt lat="40.0717086" lon="-105.2297736">
  <ele>1582.99</ele>
  <time>2026-09-02T20:50:44Z</time>
  <course>89.48</course>
  <speed>0.99</speed>
  <fix>3d</fix>
</trkpt>
<trkpt lat="40.0717086" lon="-105.229771">
  <ele>1582.99</ele>
  <time>2026-09-02T20:50:44Z</time>
  <course>89.37</course>
  <speed>0.99</speed>
  <fix>3d</fix>
</trkpt>
<trkpt lat="40.0717086" lon="-105.2297736">
  <ele>1582.99</ele>
  <time>2026-09-02T20:50:44Z</time>
  <course>89.48</course>
  <speed>0.99</speed>
  <fix>3d</fix>
</trkpt>
<trkpt lat="40.0717086" lon="-105.2297698">
  <ele>1582.99</ele>
  <time>2026-09-02T20:50:44Z</time>
  <course>89.39</course>
  <speed>1.0</speed>
  <fix>3d</fix>
</trkpt>
<trkpt lat="40.0717086" lon="-105.2297713">
  <ele>1582.99</ele>
  <time>2026-09-02T20:50:44Z</time>
  <course>89.53</course>
  <speed>0.99</speed>
  <fix>3d</fix>
</trkpt>
<trkpt lat="40.0717086" lon="-105.2297686">
  <ele>1582.99</ele>
  <time>2026-09-02T20:50:44Z</time>
  <course>89.43</course>
  <speed>0.99</speed>
  <fix>3d</fix>
</trkpt>
<trkpt lat="40.0717086" lon="-105.2297713">
  <ele>1582.99</ele>
  <time>2026-09-02T20:50:44Z</time>
  <course>89.53</course>
  <speed>0.99</speed>
  <fix>3d</fix>
</trkpt>
<trkpt lat="40.0717086" lon="-105.2297675">
  <ele>1582.99</ele>
  <time>2026-09-02T20:50:44Z</time>
  <course>89.45</course>
  <speed>0.99</speed>
  <fix>3d</fix>
</trkpt>
<trkpt lat="40.0717086" lon="-105.2297689">
  <ele>1582.99</ele>
  <time>2026-09-02T20:50:44Z</time>
  <course>89.59</course>
  <speed>0.99</speed>
  <fix>3d</fix>
</trkpt>
<trkpt lat="40.0717086" lon="-105.2297663">
  <ele>1582.99</ele>
  <time>2026-09-02T20:50:44Z</time>
  <course>89.48</course>
  <speed>1.0</speed>
  <fix>3d</fix>
</trkpt>
<trkpt lat="40.0717086" lon="-105.2297689">
  <ele>1582.99</ele>
  <time>2026-09-02T20:50:44Z</time>
  <course>89.59</course>
  <speed>0.99</speed>
  <fix>3d</fix>
</trkpt>
<trkpt lat="40.0717086" lon="-105.2297651">
  <ele>1582.99</ele>
  <time>2026-09-02T20:50:44Z</time>
  <course>89.51</course>
  <speed>0.99</speed>
  <fix>3d</fix>
</trkpt>
<trkpt lat="40.0717086" lon="-105.2297665">
  <ele>1582.99</ele>
  <time>2026-09-02T20:50:44Z</time>
  <course>89.65</course>
  <speed>0.99</speed>
  <fix>3d</fix>
</trkpt>
<trkpt lat="40.0717086" lon="-105.2297639">
  <ele>1582.99</ele>
  <time>2026-09-02T20:50:44Z</time>
  <course>89.55</course>
  <speed>0.99</speed>
  <fix>3d</fix>
</trkpt>
<trkpt lat="40.0717086" lon="-105.2297665">
  <ele>1582.99</ele>
  <time>2026-09-02T20:50:44Z</time>
  <course>89.65</course>
  <speed>0.99</speed>
  <fix>3d</fix>
</trkpt>
<trkpt lat="40.0717086" lon="-105.2297629">
  <ele>1582.99</ele>
  <time>2026-09-02T20:50:44Z</time>
  <course>89.58</course>
  <speed>1.0</speed>
  <fix>3d</fix>
</trkpt>
<trkpt lat="40.0717086" lon="-105.2297642">
  <ele>1582.99</ele>
  <time>2026-09-02T20:50:44Z</time>
  <course>89.71</course>
  <speed>0.99</speed>
  <fix>3d</fix>
</trkpt>
<trkpt lat="40.0717086" lon="-105.2297617">
  <ele>1582.99</ele>
  <time>2026-09-02T20:50:44Z</time>
  <course>89.61</course>
  <speed>0.99</speed>
  <fix>3d</fix>
</trkpt>
<trkpt lat="40.0717086" lon="-105.2297642">
  <ele>1582.99</ele>
  <time>2026-09-02T20:50:44Z</time>
  <course>89.71</course>
  <speed>0.99</speed>
  <fix>3d</fix>
</trkpt>
<trkpt lat="40.0717086" lon="-105.2297607">
  <ele>1582.99</ele>
  <time>2026-09-02T20:50:44Z</time>
  <course>89.63</course>
  <speed>1.0</speed>
  <fix>3d</fix>
</trkpt>
<trkpt lat="40.0717086" lon="-105.2297619">
  <ele>1582.99</ele>
  <time>2026-09-02T20:50:44Z</time>
  <course>89.77</course>
  <speed>1.0</speed>
  <fix>3d</fix>
</trkpt>
<trkpt lat="40.0717086" lon="-105.2297596">
  <ele>1582.99</ele>
  <time>2026-09-02T20:50:44Z</time>
  <course>89.67</course>
  <speed>0.99</speed>
  <fix>3d</fix>
</trkpt>
<trkpt lat="40.0717086" lon="-105.2297619">
  <ele>1582.99</ele>
  <time>2026-09-02T20:50:44Z</time>
  <course>89.77</course>
  <speed>1.0</speed>
  <fix>3d</fix>
</trkpt>
<trkpt lat="40.0717086" lon="-105.2297584">
  <ele>1582.99</ele>
  <time>2026-09-02T20:50:44Z</time>
  <course>89.7</course>
  <speed>1.0</speed>
  <fix>3d</fix>
</trkpt>
<trkpt lat="40.0717086" lon="-105.2297595">
  <ele>1582.99</ele>
  <time>2026-09-02T20:50:44Z</time>
  <course>89.84</course>
  <speed>1.0</speed>
  <fix>3d</fix>
</trkpt>
<trkpt lat="40.0717086" lon="-105.2297572">
  <ele>1582.99</ele>
  <time>2026-09-02T20:50:44Z</time>
  <course>89.73</course>
  <speed>0.99</speed>
  <fix>3d</fix>
</trkpt>
<trkpt lat="40.0717086" lon="-105.2297595">
  <ele>1582.99</ele>
  <time>2026-09-02T20:50:44Z</time>
  <course>89.84</course>
  <speed>1.0</speed>
  <fix>3d</fix>
</trkpt>
<trkpt lat="40.0717086" lon="-105.229756">
  <ele>1582.99</ele>
  <time>2026-09-02T20:50:44Z</time>
  <course>89.77</course>
  <speed>1.0</speed>
  <fix>3d</fix>
</trkpt>
<trkpt lat="40.0717086" lon="-105.2297572">
  <ele>1582.99</ele>
  <time>2026-09-02T20:50:44Z</time>
  <course>89.9</course>
  <speed>1.0</speed>
  <fix>3d</fix>
</trkpt>
<trkpt lat="40.0717086" lon="-105.2297548">
  <ele>1582.99</ele>
  <time>2026-09-02T20:50:44Z</time>
  <course>89.81</course>
  <speed>0.99</speed>
  <fix>3d</fix>
</trkpt>
<trkpt lat="40.0717086" lon="-105.2297572">
  <ele>1582.99</ele>
  <time>2026-09-02T20:50:44Z</time>
  <course>89.9</course>
  <speed>1.0</speed>
  <fix>3d</fix>
</trkpt>
<trkpt lat="40.0717086" lon="-105.2297536">
  <ele>1582.99</ele>
  <time>2026-09-02T20:50:44Z</time>
  <course>89.84</course>
  <speed>1.0</speed>
  <fix>3d</fix>
</trkpt>
<trkpt lat="40.0717086" lon="-105.2297548">
  <ele>1582.99</ele>
  <time>2026-09-02T20:50:44Z</time>
  <course>89.97</course>
  <speed>1.0</speed>
  <fix>3d</fix>
</trkpt>
<trkpt lat="40.0717086" lon="-105.2297524">
  <ele>1582.99</ele>
  <time>2026-09-02T20:50:44Z</time>
  <course>89.87</course>
  <speed>0.99</speed>
  <fix>3d</fix>
</trkpt>
<trkpt lat="40.0717086" lon="-105.2297548">
  <ele>1582.99</ele>
  <time>2026-09-02T20:50:44Z</time>
  <course>89.97</course>
  <speed>1.0</speed>
  <fix>3d</fix>
</trkpt>
<trkpt lat="40.0717086" lon="-105.2297514">
  <ele>1582.99</ele>
  <time>2026-09-02T20:50:44Z</time>
  <course>89.91</course>
  <speed>1.0</speed>
  <fix>3d</fix>
</trkpt>
<trkpt lat="40.0717086" lon="-105.2297525">
  <ele>1582.99</ele>
  <time>2026-09-02T20:50:44Z</time>
  <course>90.04</course>
  <speed>1.0</speed>
  <fix>3d</fix>
</trkpt>
<trkpt lat="40.0717086" lon="-105.2297502">
  <ele>1582.99</ele>
  <time>2026-09-02T20:50:44Z</time>
  <course>89.94</course>
  <speed>0.99</speed>
  <fix>3d</fix>
</trkpt>
<trkpt lat="40.0717086" lon="-105.2297525">
  <ele>1582.99</ele>
  <time>2026-09-02T20:50:44Z</time>
  <course>90.04</course>
  <speed>1.0</speed>
  <fix>3d</fix>
</trkpt>
<trkpt lat="40.0717086" lon="-105.2297488">
  <ele>1582.99</ele>
  <time>2026-09-02T20:50:44Z</time>
  <course>89.99</course>
  <speed>1.0</speed>
  <fix>3d</fix>
</trkpt>
<trkpt lat="40.0717086" lon="-105.2297502">
  <ele>1582.99</ele>
  <time>2026-09-02T20:50:44Z</time>
  <course>90.11</course>
  <speed>1.0</speed>
  <fix>3d</fix>
</trkpt>
<trkpt lat="40.0717086" lon="-105.2297476">
  <ele>1582.99</ele>
  <time>2026-09-02T20:50:44Z</time>
  <course>90.02</course>
  <speed>0.99</speed>
  <fix>3d</fix>
</trkpt>
<trkpt lat="40.0717086" lon="-105.2297502">
  <ele>1582.99</ele>
  <time>2026-09-02T20:50:44Z</time>
  <course>90.11</course>
  <speed>1.0</speed>
  <fix>3d</fix>
</trkpt>
<trkpt lat="40.0717086" lon="-105.2297464">
  <ele>1582.99</ele>
  <time>2026-09-02T20:50:44Z</time>
  <course>90.05</course>
  <speed>1.0</speed>
  <fix>3d</fix>
</trkpt>
<trkpt lat="40.0717086" lon="-105.2297478">
  <ele>1582.99</ele>
  <time>2026-09-02T20:50:44Z</time>
  <course>90.18</course>
  <speed>1.0</speed>
  <fix>3d</fix>
</trkpt>
<trkpt lat="40.0717086" lon="-105.2297452">
  <ele>1582.99</ele>
  <time>2026-09-02T20:50:44Z</time>
  <course>90.09</course>
  <speed>0.99</speed>
  <fix>3d</fix>
</trkpt>
<trkpt lat="40.0717086" lon="-105.2297478">
  <ele>1582.99</ele>
  <time>2026-09-02T20:50:44Z</time>
  <course>90.18</course>
  <speed>1.0</speed>
  <fix>3d</fix>
</trkpt>
<trkpt lat="40.0717086" lon="-105.229744">
  <ele>1582.99</ele>
  <time>2026-09-02T20:50:44Z</time>
  <course>90.12</course>
  <speed>1.0</speed>
  <fix>3d</fix>
</trkpt>
<trkpt lat="40.0717086" lon="-105.2297454">
  <ele>1582.99</ele>
  <time>2026-09-02T20:50:44Z</time>
  <course>90.25</course>
  <speed>1.0</speed>
  <fix>3d</fix>
</trkpt>
<trkpt lat="40.0717086" lon="-105.2297428">
  <ele>1582.99</ele>
  <time>2026-09-02T20:50:44Z</time>
  <course>90.16</course>
  <speed>0.99</speed>
  <fix>3d</fix>
</trkpt>
<trkpt lat="40.0717086" lon="-105.2297454">
  <ele>1582.99</ele>
  <time>2026-09-02T20:50:44Z</time>
  <course>90.25</course>
  <speed>1.0</speed>
  <fix>3d</fix>
</trkpt>
<trkpt lat="40.0717086" lon="-105.2297416">
  <ele>1582.99</ele>
  <time>2026-09-02T20:50:44Z</time>
  <course>90.19</course>
  <speed>1.0</speed>
  <fix>3d</fix>
</trkpt>
<trkpt lat="40.0717086" lon="-105.2297431">
  <ele>1582.99</ele>
  <time>2026-09-02T20:50:44Z</time>
  <course>90.32</course>
  <speed>1.0</speed>
  <fix>3d</fix>
</trkpt>
<trkpt lat="40.0717086" lon="-105.2297406">
  <ele>1582.99</ele>
  <time>2026-09-02T20:50:44Z</time>
  <course>90.23</course>
  <speed>0.99</speed>
  <fix>3d</fix>
</trkpt>
<trkpt lat="40.0717086" lon="-105.2297431">
  <ele>1582.99</ele>
  <time>2026-09-02T20:50:44Z</time>
  <course>90.32</course>
  <speed>1.0</speed>
  <fix>3d</fix>
</trkpt>
<trkpt lat="40.0717086" lon="-105.2297394">
  <ele>1582.99</ele>
  <time>2026-09-02T20:50:44Z</time>
  <course>90.26</course>
  <speed>1.0</speed>
  <fix>3d</fix>
</trkpt>
<trkpt lat="40.0717086" lon="-105.2297408">
  <ele>1582.99</ele>
  <time>2026-09-02T20:50:44Z</time>
  <course>90.39</course>
  <speed>1.0</speed>
  <fix>3d</fix>
</trkpt>
<trkpt lat="40.0717086" lon="-105.2297382">
  <ele>1582.99</ele>
  <time>2026-09-02T20:50:44Z</time>
  <course>90.29</course>
  <speed>0.99</speed>
  <fix>3d</fix>
</trkpt>
<trkpt lat="40.0717086" lon="-105.2297408">
  <ele>1582.99</ele>
  <time>2026-09-02T20:50:44Z</time>
  <course>90.39</course>
  <speed>1.0</speed>
  <fix>3d</fix>
</trkpt>
<trkpt lat="40.0717086" lon="-105.229737">
  <ele>1582.99</ele>
  <time>2026-09-02T20:50:44Z</time>
  <course>90.33</course>
  <speed>0.99</speed>
  <fix>3d</fix>
</trkpt>
<trkpt lat="40.0717086" lon="-105.2297384">
  <ele>1582.99</ele>
  <time>2026-09-02T20:50:44Z</time>
  <course>90.46</course>
  <speed>1.0</speed>
  <fix>3d</fix>
</trkpt>
<trkpt lat="40.0717086" lon="-105.2297361">
  <ele>1582.99</ele>
  <time>2026-09-02T20:50:44Z</time>
  <course>90.36</course>
  <speed>0.99</speed>
  <fix>3d</fix>
</trkpt>
<trkpt lat="40.0717086" lon="-105.2297384">
  <ele>1582.99</ele>
  <time>2026-09-02T20:50:44Z</time>
  <course>90.46</course>
  <speed>1.0</speed>
  <fix>3d</fix>
</trkpt>
<trkpt lat="40.0717086" lon="-105.2297349">
  <ele>1582.99</ele>
  <time>2026-09-02T20:50:44Z</time>
  <course>90.39</course>
  <speed>0.99</speed>
  <fix>3d</fix>
</trkpt>
<trkpt lat="40.0717086" lon="-105.2297361">
  <ele>1582.99</ele>
  <time>2026-09-02T20:50:44Z</time>
  <course>90.53</course>
  <speed>1.0</speed>
  <fix>3d</fix>
</trkpt>
<trkpt lat="40.0717086" lon="-105.2297337">
  <ele>1582.99</ele>
  <time>2026-09-02T20:50:44Z</time>
  <course>90.42</course>
  <speed>1.0000499987500624</speed>
  <fix>3d</fix>
</trkpt>
<trkpt lat="40.0717086" lon="-105.2297361">
  <ele>1582.99</ele>
  <time>2026-09-02T20:50:44Z</time>
  <course>90.53</course>
  <speed>1.0</speed>
  <fix>3d</fix>
</trkpt>
<trkpt lat="40.0717086" lon="-105.2297325">
  <ele>1582.99</ele>
  <time>2026-09-02T20:50:44Z</time>
  <course>90.46</course>
  <speed>0.9900505037623081</speed>
  <fix>3d</fix>
</trkpt>
<trkpt lat="40.0717086" lon="-105.2297337">
  <ele>1582.99</ele>
  <time>2026-09-02T20:50:44Z</time>
  <course>90.59</course>
  <speed>0.99</speed>
  <fix>3d</fix>
</trkpt>
<trkpt lat="40.0717086" lon="-105.2297313">
  <ele>1582.99</ele>
  <time>2026-09-02T20:50:44Z</time>
  <course>90.49</course>
  <speed>1.0000499987500624</speed>
  <fix>3d</fix>
</trkpt>
<trkpt lat="40.0717086" lon="-105.2297337">
  <ele>1582.99</ele>
  <time>2026-09-02T20:50:44Z</time>
  <course>90.59</course>
  <speed>0.99</speed>
  <fix>3d</fix>
</trkpt>
<trkpt lat="40.0717086" lon="-105.2297301">
  <ele>1582.99</ele>
  <time>2026-09-02T20:50:44Z</time>
  <course>90.52</course>
  <speed>0.9900505037623081</speed>
  <fix>3d</fix>
</trkpt>
<trkpt lat="40.0717086" lon="-105.2297313">
  <ele>1582.99</ele>
  <time>2026-09-02T20:50:44Z</time>
  <course>90.66</course>
  <speed>0.99</speed>
  <fix>3d</fix>
</trkpt>
<trkpt lat="40.0717086" lon="-105.2297291">
  <ele>1582.99</ele>
  <time>2026-09-02T20:50:44Z</time>
  <course>90.55</course>
  <speed>0.9900505037623081</speed>
  <fix>3d</fix>
</trkpt>
<trkpt lat="40.0717086" lon="-105.2297313">
  <ele>1582.99</ele>
  <time>2026-09-02T20:50:44Z</time>
  <course>90.66</course>
  <speed>0.99</speed>
  <fix>3d</fix>
</trkpt>
<trkpt lat="40.0717086" lon="-105.2297279">
  <ele>1582.99</ele>
  <time>2026-09-02T20:50:44Z</time>
  <course>90.58</course>
  <speed>0.9900505037623081</speed>
  <fix>3d</fix>
</trkpt>
<trkpt lat="40.0717086" lon="-105.229729">
  <ele>1582.99</ele>
  <time>2026-09-02T20:50:44Z</time>
  <course>90.72</course>
  <speed>0.99</speed>
  <fix>3d</fix>
</trkpt>
<trkpt lat="40.0717086" lon="-105.2297267">
  <ele>1582.99</ele>
  <time>2026-09-02T20:50:44Z</time>
  <course>90.61</course>
  <speed>1.0000499987500624</speed>
  <fix>3d</fix>
</trkpt>
<trkpt lat="40.0717086" lon="-105.229729">
  <ele>1582.99</ele>
  <time>2026-09-02T20:50:44Z</time>
  <course>90.72</course>
  <speed>0.99</speed>
  <fix>3d</fix>
</trkpt>
<trkpt lat="40.0717086" lon="-105.2297255">
  <ele>1582.99</ele>
  <time>2026-09-02T20:50:44Z</time>
  <course>90.64</course>
  <speed>0.9900505037623081</speed>
  <fix>3d</fix>
</trkpt>
<trkpt lat="40.0717086" lon="-105.2297267">
  <ele>1582.99</ele>
  <time>2026-09-02T20:50:44Z</time>
  <course>90.79</course>
  <speed>0.99</speed>
  <fix>3d</fix>
</trkpt>
<trkpt lat="40.0717086" lon="-105.2297241">
  <ele>1582.99</ele>
  <time>2026-09-02T20:50:44Z</time>
  <course>90.68</course>
  <speed>1.0000499987500624</speed>
  <fix>3d</fix>
</trkpt>
<trkpt lat="40.0717086" lon="-105.2297267">
  <ele>1582.99</ele>
  <time>2026-09-02T20:50:44Z</time>
  <course>90.79</course>
  <speed>0.99</speed>
  <fix>3d</fix>
</trkpt>
<trkpt lat="40.0717086" lon="-105.2297229">
  <ele>1582.99</ele>
  <time>2026-09-02T20:50:44Z</time>
  <course>90.71</course>
  <speed>0.9900505037623081</speed>
  <fix>3d</fix>
</trkpt>
<trkpt lat="40.0717086" lon="-105.2297243">
  <ele>1582.99</ele>
  <time>2026-09-02T20:50:44Z</time>
  <course>90.85</course>
  <speed>0.99</speed>
  <fix>3d</fix>
</trkpt>
<trkpt lat="40.0717086" lon="-105.2297217">
  <ele>1582.99</ele>
  <time>2026-09-02T20:50:44Z</time>
  <course>90.73</course>
  <speed>1.0000499987500624</speed>
  <fix>3d</fix>
</trkpt>
<trkpt lat="40.0717086" lon="-105.2297243">
  <ele>1582.99</ele>
  <time>2026-09-02T20:50:44Z</time>
  <course>90.85</course>
  <speed>0.99</speed>
  <fix>3d</fix>
</trkpt>
<trkpt lat="40.0717086" lon="-105.2297205">
  <ele>1582.99</ele>
  <time>2026-09-02T20:50:44Z</time>
  <course>90.77</course>
  <speed>0.9900505037623081</speed>
  <fix>3d</fix>
</trkpt>
<trkpt lat="40.0717086" lon="-105.229722">
  <ele>1582.99</ele>
  <time>2026-09-02T20:50:44Z</time>
  <course>90.91</course>
  <speed>0.99</speed>
  <fix>3d</fix>
</trkpt>
<trkpt lat="40.0717086" lon="-105.2297193">
  <ele>1582.99</ele>
  <time>2026-09-02T20:50:44Z</time>
  <course>90.8</course>
  <speed>1.0000499987500624</speed>
  <fix>3d</fix>
</trkpt>
<trkpt lat="40.0717086" lon="-105.229722">
  <ele>1582.99</ele>
  <time>2026-09-02T20:50:44Z</time>
  <course>90.91</course>
  <speed>0.99</speed>
  <fix>3d</fix>
</trkpt>
<trkpt lat="40.0717086" lon="-105.2297183">
  <ele>1582.99</ele>
  <time>2026-09-02T20:50:44Z</time>
  <course>90.83</course>
  <speed>0.9900505037623081</speed>
  <fix>3d</fix>
</trkpt>
<trkpt lat="40.0717086" lon="-105.2297196">
  <ele>1582.99</ele>
  <time>2026-09-02T20:50:44Z</time>
  <course>90.97</course>
  <speed>0.99</speed>
  <fix>3d</fix>
</trkpt>
<trkpt lat="40.0717085" lon="-105.2297171">
  <ele>1582.99</ele>
  <time>2026-09-02T20:50:44Z</time>
  <course>90.86</course>
  <speed>1.0000499987500624</speed>
  <fix>3d</fix>
</trkpt>
<trkpt lat="40.0717086" lon="-105.2297196">
  <ele>1582.99</ele>
  <time>2026-09-02T20:50:44Z</time>
  <course>90.97</course>
  <speed>0.99</speed>
  <fix>3d</fix>
</trkpt>
<trkpt lat="40.0717085" lon="-105.2297159">
  <ele>1582.99</ele>
  <time>2026-09-02T20:50:44Z</time>
  <course>90.88</course>
  <speed>0.9900505037623081</speed>
  <fix>3d</fix>
</trkpt>
<trkpt lat="40.0717085" lon="-105.2297172">
  <ele>1582.99</ele>
  <time>2026-09-02T20:50:44Z</time>
  <course>91.02</course>
  <speed>0.99</speed>
  <fix>3d</fix>
</trkpt>
<trkpt lat="40.0717085" lon="-105.2297146">
  <ele>1582.99</ele>
  <time>2026-09-02T20:50:44Z</time>
  <course>90.9</course>
  <speed>1.0000499987500624</speed>
  <fix>3d</fix>
</trkpt>
<trkpt lat="40.0717085" lon="-105.2297172">
  <ele>1582.99</ele>
  <time>2026-09-02T20:50:44Z</time>
  <course>91.02</course>
  <speed>0.99</speed>
  <fix>3d</fix>
</trkpt>
<trkpt lat="40.0717085" lon="-105.2297136">
  <ele>1582.99</ele>
  <time>2026-09-02T20:50:44Z</time>
  <course>90.93</course>
  <speed>1.0000499987500624</speed>
  <fix>3d</fix>
</trkpt>
<trkpt lat="40.0717085" lon="-105.2297149">
  <ele>1582.99</ele>
  <time>2026-09-02T20:50:44Z</time>
  <course>91.07</course>
  <speed>0.99</speed>
  <fix>3d</fix>
</trkpt>
<trkpt lat="40.0717085" lon="-105.2297124">
  <ele>1582.99</ele>
  <time>2026-09-02T20:50:44Z</time>
  <course>90.95</course>
  <speed>0.9900505037623081</speed>
  <fix>3d</fix>
</trkpt>
<trkpt lat="40.0717085" lon="-105.2297149">
  <ele>1582.99</ele>
  <time>2026-09-02T20:50:44Z</time>
  <course>91.07</course>
  <speed>0.99</speed>
  <fix>3d</fix>
</trkpt>
<trkpt lat="40.0717085" lon="-105.2297114">
  <ele>1582.99</ele>
  <time>2026-09-02T20:50:44Z</time>
  <course>90.97</course>
  <speed>1.000199980003999</speed>
  <fix>3d</fix>
</trkpt>
<trkpt lat="40.0717085" lon="-105.2297126">
  <ele>1582.99</ele>
  <time>2026-09-02T20:50:44Z</time>
  <course>91.12</course>
  <speed>1.0</speed>
  <fix>3d</fix>
</trkpt>
<trkpt lat="40.0717084" lon="-105.2297102">
  <ele>1582.99</ele>
  <time>2026-09-02T20:50:44Z</time>
  <course>90.98</course>
  <speed>0.9902019995940222</speed>
  <fix>3d</fix>
</trkpt>
<trkpt lat="40.0717085" lon="-105.2297126">
  <ele>1582.99</ele>
  <time>2026-09-02T20:50:44Z</time>
  <course>91.12</course>
  <speed>1.0</speed>
  <fix>3d</fix>
</trkpt>
<trkpt lat="40.0717084" lon="-105.229709">
  <ele>1582.99</ele>
  <time>2026-09-02T20:50:44Z</time>
  <course>91.0</course>
  <speed>1.000199980003999</speed>
  <fix>3d</fix>
</trkpt>
<trkpt lat="40.0717084" lon="-105.2297102">
  <ele>1582.99</ele>
  <time>2026-09-02T20:50:44Z</time>
  <course>91.16</course>
  <speed>1.0</speed>
  <fix>3d</fix>
</trkpt>
<trkpt lat="40.0717084" lon="-105.2297078">
  <ele>1582.99</ele>
  <time>2026-09-02T20:50:44Z</time>
  <course>91.01</course>
  <speed>0.9902019995940222</speed>
  <fix>3d</fix>
</trkpt>
<trkpt lat="40.0717084" lon="-105.2297102">
  <ele>1582.99</ele>
  <time>2026-09-02T20:50:44Z</time>
  <course>91.16</course>
  <speed>1.0</speed>
  <fix>3d</fix>
</trkpt>
<trkpt lat="40.0717084" lon="-105.2297067">
  <ele>1582.99</ele>
  <time>2026-09-02T20:50:44Z</time>
  <course>91.03</course>
  <speed>1.000199980003999</speed>
  <fix>3d</fix>
</trkpt>
<trkpt lat="40.0717084" lon="-105.2297079">
  <ele>1582.99</ele>
  <time>2026-09-02T20:50:44Z</time>
  <course>91.19</course>
  <speed>1.0</speed>
  <fix>3d</fix>
</trkpt>
<trkpt lat="40.0717084" lon="-105.2297055">
  <ele>1582.99</ele>
  <time>2026-09-02T20:50:44Z</time>
  <course>91.05</course>
  <speed>0.9902019995940222</speed>
  <fix>3d</fix>
</trkpt>
<trkpt lat="40.0717084" lon="-105.2297079">
  <ele>1582.99</ele>
  <time>2026-09-02T20:50:44Z</time>
  <course>91.19</course>
  <speed>1.0</speed>
  <fix>3d</fix>
</trkpt>
<trkpt lat="40.0717083" lon="-105.2297043">
  <ele>1582.99</ele>
  <time>2026-09-02T20:50:44Z</time>
  <course>91.06</course>
  <speed>0.9902019995940222</speed>
  <fix>3d</fix>
</trkpt>
<trkpt lat="40.0717083" lon="-105.2297055">
  <ele>1582.99</ele>
  <time>2026-09-02T20:50:44Z</time>
  <course>91.23</course>
  <speed>1.0</speed>
  <fix>3d</fix>
</trkpt>
<trkpt lat="40.0717083" lon="-105.2297031">
  <ele>1582.99</ele>
  <time>2026-09-02T20:50:44Z</time>
  <course>91.08</course>
  <speed>0.9902019995940222</speed>
  <fix>3d</fix>
</trkpt>
<trkpt lat="40.0717083" lon="-105.2297055">
  <ele>1582.99</ele>
  <time>2026-09-02T20:50:44Z</time>
  <course>91.23</course>
  <speed>1.0</speed>
  <fix>3d</fix>
</trkpt>
<trkpt lat="40.0717083" lon="-105.2297021">
  <ele>1582.99</ele>
  <time>2026-09-02T20:50:44Z</time>
  <course>91.09</course>
  <speed>0.9902019995940222</speed>
  <fix>3d</fix>
</trkpt>
<trkpt lat="40.0717083" lon="-105.2297032">
  <ele>1582.99</ele>
  <time>2026-09-02T20:50:44Z</time>
  <course>91.25</course>
  <speed>0.99</speed>
  <fix>3d</fix>
</trkpt>
<trkpt lat="40.0717083" lon="-105.2297007">
  <ele>1582.99</ele>
  <time>2026-09-02T20:50:44Z</time>
  <course>91.1</course>
  <speed>1.000199980003999</speed>
  <fix>3d</fix>
</trkpt>
<trkpt lat="40.0717083" lon="-105.2297032">
  <ele>1582.99</ele>
  <time>2026-09-02T20:50:44Z</time>
  <course>91.25</course>
  <speed>0.99</speed>
  <fix>3d</fix>
</trkpt>
<trkpt lat="40.0717083" lon="-105.2296995">
  <ele>1582.99</ele>
  <time>2026-09-02T20:50:44Z</time>
  <course>91.12</course>
  <speed>0.9902019995940222</speed>
  <fix>3d</fix>
</trkpt>
<trkpt lat="40.0717083" lon="-105.2297009">
  <ele>1582.99</ele>
  <time>2026-09-02T20:50:44Z</time>
  <course>91.28</course>
  <speed>0.99</speed>
  <fix>3d</fix>
</trkpt>
<trkpt lat="40.0717081" lon="-105.2296983">
  <ele>1582.99</ele>
  <time>2026-09-02T20:50:44Z</time>
  <course>91.12</course>
  <speed>1.000199980003999</speed>
  <fix>3d</fix>
</trkpt>
<trkpt lat="40.0717083" lon="-105.2297009">
  <ele>1582.99</ele>
  <time>2026-09-02T20:50:44Z</time>
  <course>91.28</course>
  <speed>0.99</speed>
  <fix>3d</fix>
</trkpt>
<trkpt lat="40.0717081" lon="-105.2296971">
  <ele>1582.99</ele>
  <time>2026-09-02T20:50:44Z</time>
  <course>91.12</course>
  <speed>0.9902019995940222</speed>
  <fix>3d</fix>
</trkpt>
<trkpt lat="40.0717082" lon="-105.2296985">
  <ele>1582.99</ele>
  <time>2026-09-02T20:50:44Z</time>
  <course>91.3</course>
  <speed>0.99</speed>
  <fix>3d</fix>
</trkpt>
<trkpt lat="40.0717081" lon="-105.2296959">
  <ele>1582.99</ele>
  <time>2026-09-02T20:50:44Z</time>
  <course>91.12</course>
  <speed>1.000199980003999</speed>
  <fix>3d</fix>
</trkpt>
<trkpt lat="40.0717082" lon="-105.2296985">
  <ele>1582.99</ele>
  <time>2026-09-02T20:50:44Z</time>
  <course>91.3</course>
  <speed>0.99</speed>
  <fix>3d</fix>
</trkpt>
<trkpt lat="40.0717081" lon="-105.2296947">
  <ele>1582.99</ele>
  <time>2026-09-02T20:50:44Z</time>
  <course>91.12</course>
  <speed>0.9902019995940222</speed>
  <fix>3d</fix>
</trkpt>
<trkpt lat="40.0717081" lon="-105.2296961">
  <ele>1582.99</ele>
  <time>2026-09-02T20:50:44Z</time>
  <course>91.3</course>
  <speed>0.99</speed>
  <fix>3d</fix>
</trkpt>
<trkpt lat="40.0717081" lon="-105.2296935">
  <ele>1582.99</ele>
  <time>2026-09-02T20:50:44Z</time>
  <course>91.13</course>
  <speed>1.000199980003999</speed>
  <fix>3d</fix>
</trkpt>
<trkpt lat="40.0717081" lon="-105.2296961">
  <ele>1582.99</ele>
  <time>2026-09-02T20:50:44Z</time>
  <course>91.3</course>
  <speed>0.99</speed>
  <fix>3d</fix>
</trkpt>
<trkpt lat="40.071708" lon="-105.2296923">
  <ele>1582.99</ele>
  <time>2026-09-02T20:50:44Z</time>
  <course>91.13</course>
  <speed>0.9902019995940222</speed>
  <fix>3d</fix>
</trkpt>
<trkpt lat="40.0717081" lon="-105.2296938">
  <ele>1582.99</ele>
  <time>2026-09-02T20:50:44Z</time>
  <course>91.31</course>
  <speed>0.99</speed>
  <fix>3d</fix>
</trkpt>
<trkpt lat="40.071708" lon="-105.2296913">
  <ele>1582.99</ele>
  <time>2026-09-02T20:50:44Z</time>
  <course>91.13</course>
  <speed>1.000199980003999</speed>
  <fix>3d</fix>
</trkpt>
<trkpt lat="40.0717081" lon="-105.2296938">
  <ele>1582.99</ele>
  <time>2026-09-02T20:50:44Z</time>
  <course>91.31</course>
  <speed>0.99</speed>
  <fix>3d</fix>
</trkpt>
<trkpt lat="40.071708" lon="-105.2296901">
  <ele>1582.99</ele>
  <time>2026-09-02T20:50:44Z</time>
  <course>91.13</course>
  <speed>1.000199980003999</speed>
  <fix>3d</fix>
</trkpt>
<trkpt lat="40.071708" lon="-105.2296915">
  <ele>1582.99</ele>
  <time>2026-09-02T20:50:44Z</time>
  <course>91.31</course>
  <speed>1.0</speed>
  <fix>3d</fix>
</trkpt>
<trkpt lat="40.071708" lon="-105.2296889">
  <ele>1582.99</ele>
  <time>2026-09-02T20:50:44Z</time>
  <course>91.13</course>
  <speed>1.000199980003999</speed>
  <fix>3d</fix>
</trkpt>
<trkpt lat="40.071708" lon="-105.2296915">
  <ele>1582.99</ele>
  <time>2026-09-02T20:50:44Z</time>
  <course>91.31</course>
  <speed>1.0</speed>
  <fix>3d</fix>
</trkpt>
<trkpt lat="40.071708" lon="-105.2296877">
  <ele>1582.99</ele>
  <time>2026-09-02T20:50:44Z</time>
  <course>91.13</course>
  <speed>1.000199980003999</speed>
  <fix>3d</fix>
</trkpt>
<trkpt lat="40.071708" lon="-105.2296891">
  <ele>1582.99</ele>
  <time>2026-09-02T20:50:44Z</time>
  <course>91.31</course>
  <speed>1.0</speed>
  <fix>3d</fix>
</trkpt>
<trkpt lat="40.071708" lon="-105.2296868">
  <ele>1582.99</ele>
  <time>2026-09-02T20:50:44Z</time>
  <course>91.13</course>
  <speed>1.000199980003999</speed>
  <fix>3d</fix>
</trkpt>
<trkpt lat="40.071708" lon="-105.2296891">
  <ele>1582.99</ele>
  <time>2026-09-02T20:50:44Z</time>
  <course>91.31</course>
  <speed>1.0</speed>
  <fix>3d</fix>
</trkpt>
<trkpt lat="40.071708" lon="-105.2296856">
  <ele>1582.99</ele>
  <time>2026-09-02T20:50:44Z</time>
  <course>91.13</course>
  <speed>0.9902019995940222</speed>
  <fix>3d</fix>
</trkpt>
<trkpt lat="40.071708" lon="-105.2296868">
  <ele>1582.99</ele>
  <time>2026-09-02T20:50:44Z</time>
  <course>91.31</course>
  <speed>0.99</speed>
  <fix>3d</fix>
</trkpt>
<trkpt lat="40.071708" lon="-105.2296844">
  <ele>1582.99</ele>
  <time>2026-09-02T20:50:44Z</time>
  <course>91.14</course>
  <speed>1.000199980003999</speed>
  <fix>3d</fix>
</trkpt>
<trkpt lat="40.071708" lon="-105.2296868">
  <ele>1582.99</ele>
  <time>2026-09-02T20:50:44Z</time>
  <course>91.31</course>
  <speed>0.99</speed>
  <fix>3d</fix>
</trkpt>
<trkpt lat="40.071708" lon="-105.2296832">
  <ele>1582.99</ele>
  <time>2026-09-02T20:50:44Z</time>
  <course>91.14</course>
  <speed>0.9902019995940222</speed>
  <fix>3d</fix>
</trkpt>
<trkpt lat="40.071708" lon="-105.2296844">
  <ele>1582.99</ele>
  <time>2026-09-02T20:50:44Z</time>
  <course>91.32</course>
  <speed>0.99</speed>
  <fix>3d</fix>
</trkpt>
<trkpt lat="40.071708" lon="-105.229682">
  <ele>1582.99</ele>
  <time>2026-09-02T20:50:44Z</time>
  <course>91.15</course>
  <speed>1.000199980003999</speed>
  <fix>3d</fix>
</trkpt>
<trkpt lat="40.071708" lon="-105.2296844">
  <ele>1582.99</ele>
  <time>2026-09-02T20:50:44Z</time>
  <course>91.32</course>
  <speed>0.99</speed>
  <fix>3d</fix>
</trkpt>
<trkpt lat="40.0717079" lon="-105.2296808">
  <ele>1582.99</ele>
  <time>2026-09-02T20:50:44Z</time>
  <course>91.15</course>
  <speed>0.9902019995940222</speed>
  <fix>3d</fix>
</trkpt>
<trkpt lat="40.0717079" lon="-105.229682">
  <ele>1582.99</ele>
  <time>2026-09-02T20:50:44Z</time>
  <course>91.33</course>
  <speed>0.99</speed>
  <fix>3d</fix>
</trkpt>
<trkpt lat="40.0717079" lon="-105.2296798">
  <ele>1582.99</ele>
  <time>2026-09-02T20:50:44Z</time>
  <course>91.15</course>
  <speed>1.000199980003999</speed>
  <fix>3d</fix>
</trkpt>
<trkpt lat="40.0717079" lon="-105.229682">
  <ele>1582.99</ele>
  <time>2026-09-02T20:50:44Z</time>
  <course>91.33</course>
  <speed>0.99</speed>
  <fix>3d</fix>
</trkpt>
<trkpt lat="40.0717079" lon="-105.2296786">
  <ele>1582.99</ele>
  <time>2026-09-02T20:50:44Z</time>
  <course>91.16</course>
  <speed>0.9902019995940222</speed>
  <fix>3d</fix>
</trkpt>
<trkpt lat="40.0717079" lon="-105.2296797">
  <ele>1582.99</ele>
  <time>2026-09-02T20:50:44Z</time>
  <course>91.34</course>
  <speed>0.99</speed>
  <fix>3d</fix>
</trkpt>
<trkpt lat="40.0717079" lon="-105.2296774">
  <ele>1582.99</ele>
  <time>2026-09-02T20:50:44Z</time>
  <course>91.16</course>
  <speed>1.000199980003999</speed>
  <fix>3d</fix>
</trkpt>
<trkpt lat="40.0717079" lon="-105.2296797">
  <ele>1582.99</ele>
  <time>2026-09-02T20:50:44Z</time>
  <course>91.34</course>
  <speed>0.99</speed>
  <fix>3d</fix>
</trkpt>
<trkpt lat="40.0717078" lon="-105.229676">
  <ele>1582.99</ele>
  <time>2026-09-02T20:50:44Z</time>
  <course>91.16</course>
  <speed>0.9902019995940222</speed>
  <fix>3d</fix>
</trkpt>
<trkpt lat="40.0717078" lon="-105.2296774">
  <ele>1582.99</ele>
  <time>2026-09-02T20:50:44Z</time>
  <course>91.34</course>
  <speed>0.99</speed>
  <fix>3d</fix>
</trkpt>
<trkpt lat="40.0717078" lon="-105.2296748">
  <ele>1582.99</ele>
  <time>2026-09-02T20:50:44Z</time>
  <course>91.16</course>
  <speed>1.000199980003999</speed>
  <fix>3d</fix>
</trkpt>
<trkpt lat="40.0717078" lon="-105.2296774">
  <ele>1582.99</ele>
  <time>2026-09-02T20:50:44Z</time>
  <course>91.34</course>
  <speed>0.99</speed>
  <fix>3d</fix>
</trkpt>
<trkpt lat="40.0717078" lon="-105.2296736">
  <ele>1582.99</ele>
  <time>2026-09-02T20:50:44Z</time>
  <course>91.16</course>
  <speed>0.9902019995940222</speed>
  <fix>3d</fix>
</trkpt>
<trkpt lat="40.0717078" lon="-105.229675">
  <ele>1582.99</ele>
  <time>2026-09-02T20:50:44Z</time>
  <course>91.35</course>
  <speed>0.99</speed>
  <fix>3d</fix>
</trkpt>
<trkpt lat="40.0717078" lon="-105.2296724">
  <ele>1582.99</ele>
  <time>2026-09-02T20:50:44Z</time>
  <course>91.17</course>
  <speed>1.000199980003999</speed>
  <fix>3d</fix>
</trkpt>
<trkpt lat="40.0717078" lon="-105.229675">
  <ele>1582.99</ele>
  <time>2026-09-02T20:50:44Z</time>
  <course>91.35</course>
  <speed>0.99</speed>
  <fix>3d</fix>
</trkpt>
<trkpt lat="40.0717078" lon="-105.2296712">
  <ele>1582.99</ele>
  <time>2026-09-02T20:50:44Z</time>
  <course>91.17</course>
  <speed>0.9902019995940222</speed>
  <fix>3d</fix>
</trkpt>
<trkpt lat="40.0717078" lon="-105.2296727">
  <ele>1582.99</ele>
  <time>2026-09-02T20:50:44Z</time>
  <course>91.35</course>
  <speed>0.99</speed>
  <fix>3d</fix>
</trkpt>
<trkpt lat="40.0717077" lon="-105.22967">
  <ele>1582.99</ele>
  <time>2026-09-02T20:50:44Z</time>
  <course>91.17</course>
  <speed>1.000199980003999</speed>
  <fix>3d</fix>
</trkpt>
<trkpt lat="40.0717078" lon="-105.2296727">
  <ele>1582.99</ele>
  <time>2026-09-02T20:50:44Z</time>
  <course>91.35</course>
  <speed>0.99</speed>
  <fix>3d</fix>
</trkpt>
<trkpt lat="40.0717077" lon="-105.229669">
  <ele>1582.99</ele>
  <time>2026-09-02T20:50:44Z</time>
  <course>91.17</course>
  <speed>0.9902019995940222</speed>
  <fix>3d</fix>
</trkpt>
<trkpt lat="40.0717077" lon="-105.2296703">
  <ele>1582.99</ele>
  <time>2026-09-02T20:50:44Z</time>
  <course>91.35</course>
  <speed>0.99</speed>
  <fix>3d</fix>
</trkpt>
<trkpt lat="40.0717077" lon="-105.2296678">
  <ele>1582.99</ele>
  <time>2026-09-02T20:50:44Z</time>
  <course>91.17</course>
  <speed>1.000199980003999</speed>
  <fix>3d</fix>
</trkpt>
<trkpt lat="40.0717077" lon="-105.2296703">
  <ele>1582.99</ele>
  <time>2026-09-02T20:50:44Z</time>
  <course>91.35</course>
  <speed>0.99</speed>
  <fix>3d</fix>
</trkpt>
<trkpt lat="40.0717077" lon="-105.2296666">
  <ele>1582.99</ele>
  <time>2026-09-02T20:50:44Z</time>
  <course>91.17</course>
  <speed>1.000199980003999</speed>
  <fix>3d</fix>
</trkpt>
<trkpt lat="40.0717077" lon="-105.2296679">
  <ele>1582.99</ele>
  <time>2026-09-02T20:50:44Z</time>
  <course>91.35</course>
  <speed>0.99</speed>
  <fix>3d</fix>
</trkpt>
<trkpt lat="40.0717075" lon="-105.2296655">
  <ele>1582.99</ele>
  <time>2026-09-02T20:50:44Z</time>
  <course>91.17</course>
  <speed>0.9902019995940222</speed>
  <fix>3d</fix>
</trkpt>
<trkpt lat="40.0717077" lon="-105.2296679">
  <ele>1582.99</ele>
  <time>2026-09-02T20:50:44Z</time>
  <course>91.35</course>
  <speed>0.99</speed>
  <fix>3d</fix>
</trkpt>
<trkpt lat="40.0717075" lon="-105.2296643">
  <ele>1582.99</ele>
  <time>2026-09-02T20:50:44Z</time>
  <course>91.16</course>
  <speed>1.000199980003999</speed>
  <fix>3d</fix>
</trkpt>
<trkpt lat="40.0717076" lon="-105.2296656">
  <ele>1582.99</ele>
  <time>2026-09-02T20:50:44Z</time>
  <course>91.35</course>
  <speed>1.0</speed>
  <fix>3d</fix>
</trkpt>
<trkpt lat="40.0717075" lon="-105.2296633">
  <ele>1582.99</ele>
  <time>2026-09-02T20:50:44Z</time>
  <course>91.16</course>
  <speed>0.9902019995940222</speed>
  <fix>3d</fix>
</trkpt>
<trkpt lat="40.0717076" lon="-105.2296656">
  <ele>1582.99</ele>
  <time>2026-09-02T20:50:44Z</time>
  <course>91.35</course>
  <speed>1.0</speed>
  <fix>3d</fix>
</trkpt>
<trkpt lat="40.0717075" lon="-105.2296621">
  <ele>1582.99</ele>
  <time>2026-09-02T20:50:44Z</time>
  <course>91.15</course>
  <speed>1.000199980003999</speed>
  <fix>3d</fix>
</trkpt>
<trkpt lat="40.0717075" lon="-105.2296633">
  <ele>1582.99</ele>
  <time>2026-09-02T20:50:44Z</time>
  <course>91.34</course>
  <speed>1.0</speed>
  <fix>3d</fix>
</trkpt>
<trkpt lat="40.0717075" lon="-105.2296609">
  <ele>1582.99</ele>
  <time>2026-09-02T20:50:44Z</time>
  <course>91.14</course>
  <speed>0.9902019995940222</speed>
  <fix>3d</fix>
</trkpt>
<trkpt lat="40.0717075" lon="-105.2296633">
  <ele>1582.99</ele>
  <time>2026-09-02T20:50:44Z</time>
  <course>91.34</course>
  <speed>1.0</speed>
  <fix>3d</fix>
</trkpt>
<trkpt lat="40.0717074" lon="-105.2296597">
  <ele>1582.99</ele>
  <time>2026-09-02T20:50:44Z</time>
  <course>91.14</course>
  <speed>1.000199980003999</speed>
  <fix>3d</fix>
</trkpt>
<trkpt lat="40.0717075" lon="-105.2296609">
  <ele>1582.99</ele>
  <time>2026-09-02T20:50:44Z</time>
  <course>91.33</course>
  <speed>1.0</speed>
  <fix>3d</fix>
</trkpt>
<trkpt lat="40.0717074" lon="-105.2296585">
  <ele>1582.99</ele>
  <time>2026-09-02T20:50:44Z</time>
  <course>91.13</course>
  <speed>0.9902019995940222</speed>
  <fix>3d</fix>
</trkpt>
<trkpt lat="40.0717075" lon="-105.2296609">
  <ele>1582.99</ele>
  <time>2026-09-02T20:50:44Z</time>
  <course>91.33</course>
  <speed>1.0</speed>
  <fix>3d</fix>
</trkpt>
<trkpt lat="40.0717074" lon="-105.2296575">
  <ele>1582.99</ele>
  <time>2026-09-02T20:50:44Z</time>
  <course>91.12</course>
  <speed>1.000199980003999</speed>
  <fix>3d</fix>
</trkpt>
<trkpt lat="40.0717074" lon="-105.2296586">
  <ele>1582.99</ele>
  <time>2026-09-02T20:50:44Z</time>
  <course>91.32</course>
  <speed>1.0</speed>
  <fix>3d</fix>
</trkpt>
<trkpt lat="40.0717074" lon="-105.2296563">
  <ele>1582.99</ele>
  <time>2026-09-02T20:50:44Z</time>
  <course>91.12</course>
  <speed>0.9902019995940222</speed>
  <fix>3d</fix>
</trkpt>
<trkpt lat="40.0717074" lon="-105.2296586">
  <ele>1582.99</ele>
  <time>2026-09-02T20:50:44Z</time>
  <course>91.32</course>
  <speed>1.0</speed>
  <fix>3d</fix>
</trkpt>
<trkpt lat="40.0717074" lon="-105.2296551">
  <ele>1582.99</ele>
  <time>2026-09-02T20:50:44Z</time>
  <course>91.11</course>
  <speed>1.000199980003999</speed>
  <fix>3d</fix>
</trkpt>
<trkpt lat="40.0717074" lon="-105.2296563">
  <ele>1582.99</ele>
  <time>2026-09-02T20:50:44Z</time>
  <course>91.3</course>
  <speed>1.0</speed>
  <fix>3d</fix>
</trkpt>
<trkpt lat="40.0717074" lon="-105.2296538">
  <ele>1582.99</ele>
  <time>2026-09-02T20:50:44Z</time>
  <course>91.11</course>
  <speed>0.9902019995940222</speed>
  <fix>3d</fix>
</trkpt>
<trkpt lat="40.0717074" lon="-105.2296563">
  <ele>1582.99</ele>
  <time>2026-09-02T20:50:44Z</time>
  <course>91.3</course>
  <speed>1.0</speed>
  <fix>3d</fix>
</trkpt>
<trkpt lat="40.0717074" lon="-105.2296528">
  <ele>1582.99</ele>
  <time>2026-09-02T20:50:44Z</time>
  <course>91.11</course>
  <speed>1.000199980003999</speed>
  <fix>3d</fix>
</trkpt>
<trkpt lat="40.0717074" lon="-105.2296539">
  <ele>1582.99</ele>
  <time>2026-09-02T20:50:44Z</time>
  <course>91.29</course>
  <speed>1.0</speed>
  <fix>3d</fix>
</trkpt>
<trkpt lat="40.0717074" lon="-105.2296514">
  <ele>1582.99</ele>
  <time>2026-09-02T20:50:44Z</time>
  <course>91.11</course>
  <speed>1.000199980003999</speed>
  <fix>3d</fix>
</trkpt>
<trkpt lat="40.0717074" lon="-105.2296539">
  <ele>1582.99</ele>
  <time>2026-09-02T20:50:44Z</time>
  <course>91.29</course>
  <speed>1.0</speed>
  <fix>3d</fix>
</trkpt>
<trkpt lat="40.0717074" lon="-105.2296502">
  <ele>1582.99</ele>
  <time>2026-09-02T20:50:44Z</time>
  <course>91.11</course>
  <speed>0.9902019995940222</speed>
  <fix>3d</fix>
</trkpt>
<trkpt lat="40.0717074" lon="-105.2296516">
  <ele>1582.99</ele>
  <time>2026-09-02T20:50:44Z</time>
  <course>91.29</course>
  <speed>0.99</speed>
  <fix>3d</fix>
</trkpt>
<trkpt lat="40.0717074" lon="-105.229649">
  <ele>1582.99</ele>
  <time>2026-09-02T20:50:44Z</time>
  <course>91.12</course>
  <speed>1.000199980003999</speed>
  <fix>3d</fix>
</trkpt>
<trkpt lat="40.0717074" lon="-105.2296516">
  <ele>1582.99</ele>
  <time>2026-09-02T20:50:44Z</time>
  <course>91.29</course>
  <speed>0.99</speed>
  <fix>3d</fix>
</trkpt>
<trkpt lat="40.0717073" lon="-105.2296478">
  <ele>1582.99</ele>
  <time>2026-09-02T20:50:44Z</time>
  <course>91.12</course>
  <speed>0.9902019995940222</speed>
  <fix>3d</fix>
</trkpt>
<trkpt lat="40.0717073" lon="-105.2296492">
  <ele>1582.99</ele>
  <time>2026-09-02T20:50:44Z</time>
  <course>91.3</course>
  <speed>0.99</speed>
  <fix>3d</fix>
</trkpt>
<trkpt lat="40.0717073" lon="-105.2296466">
  <ele>1582.99</ele>
  <time>2026-09-02T20:50:44Z</time>
  <course>91.12</course>
  <speed>1.000199980003999</speed>
  <fix>3d</fix>
</trkpt>
<trkpt lat="40.0717073" lon="-105.2296492">
  <ele>1582.99</ele>
  <time>2026-09-02T20:50:44Z</time>
  <course>91.3</course>
  <speed>0.99</speed>
  <fix>3d</fix>
</trkpt>
<trkpt lat="40.0717073" lon="-105.2296454">
  <ele>1582.99</ele>
  <time>2026-09-02T20:50:44Z</time>
  <course>91.12</course>
  <speed>0.9902019995940222</speed>
  <fix>3d</fix>
</trkpt>
<trkpt lat="40.0717073" lon="-105.2296468">
  <ele>1582.99</ele>
  <time>2026-09-02T20:50:44Z</time>
  <course>91.31</course>
  <speed>0.99</speed>
  <fix>3d</fix>
</trkpt>
<trkpt lat="40.0717073" lon="-105.2296442">
  <ele>1582.99</ele>
  <time>2026-09-02T20:50:44Z</time>
  <course>91.13</course>
  <speed>1.000199980003999</speed>
  <fix>3d</fix>
</trkpt>
<trkpt lat="40.0717073" lon="-105.2296468">
  <ele>1582.99</ele>
  <time>2026-09-02T20:50:44Z</time>
  <course>91.31</course>
  <speed>0.99</speed>
  <fix>3d</fix>
</trkpt>
<trkpt lat="40.0717073" lon="-105.2296432">
  <ele>1582.99</ele>
  <time>2026-09-02T20:50:44Z</time>
  <course>91.13</course>
  <speed>0.9902019995940222</speed>
  <fix>3d</fix>
</trkpt>
<trkpt lat="40.0717073" lon="-105.2296445">
  <ele>1582.99</ele>
  <time>2026-09-02T20:50:44Z</time>
  <course>91.31</course>
  <speed>0.99</speed>
  <fix>3d</fix>
</trkpt>
<trkpt lat="40.0717072" lon="-105.229642">
  <ele>1582.99</ele>
  <time>2026-09-02T20:50:44Z</time>
  <course>91.13</course>
  <speed>1.000199980003999</speed>
  <fix>3d</fix>
</trkpt>
<trkpt lat="40.0717073" lon="-105.2296445">
  <ele>1582.99</ele>
  <time>2026-09-02T20:50:44Z</time>
  <course>91.31</course>
  <speed>0.99</speed>
  <fix>3d</fix>
</trkpt>
<trkpt lat="40.0717072" lon="-105.2296408">
  <ele>1582.99</ele>
  <time>2026-09-02T20:50:44Z</time>
  <course>91.13</course>
  <speed>0.9902019995940222</speed>
  <fix>3d</fix>
</trkpt>
<trkpt lat="40.0717072" lon="-105.2296422">
  <ele>1582.99</ele>
  <time>2026-09-02T20:50:44Z</time>
  <course>91.32</course>
  <speed>0.99</speed>
  <fix>3d</fix>
</trkpt>
<trkpt lat="40.0717072" lon="-105.2296396">
  <ele>1582.99</ele>
  <time>2026-09-02T20:50:44Z</time>
  <course>91.13</course>
  <speed>1.000199980003999</speed>
  <fix>3d</fix>
</trkpt>
<trkpt lat="40.0717072" lon="-105.2296422">
  <ele>1582.99</ele>
  <time>2026-09-02T20:50:44Z</time>
  <course>91.32</course>
  <speed>0.99</speed>
  <fix>3d</fix>
</trkpt>
<trkpt lat="40.0717072" lon="-105.2296387">
  <ele>1582.99</ele>
  <time>2026-09-02T20:50:44Z</time>
  <course>91.13</course>
  <speed>0.9902019995940222</speed>
  <fix>3d</fix>
</trkpt>
<trkpt lat="40.0717072" lon="-105.2296398">
  <ele>1582.99</ele>
  <time>2026-09-02T20:50:44Z</time>
  <course>91.32</course>
  <speed>0.99</speed>
  <fix>3d</fix>
</trkpt>
<trkpt lat="40.0717072" lon="-105.2296375">
  <ele>1582.99</ele>
  <time>2026-09-02T20:50:44Z</time>
  <course>91.13</course>
  <speed>1.000199980003999</speed>
  <fix>3d</fix>
</trkpt>
<trkpt lat="40.0717072" lon="-105.2296398">
  <ele>1582.99</ele>
  <time>2026-09-02T20:50:44Z</time>
  <course>91.32</course>
  <speed>0.99</speed>
  <fix>3d</fix>
</trkpt>
<trkpt lat="40.0717071" lon="-105.2296363">
  <ele>1582.99</ele>
  <time>2026-09-02T20:50:44Z</time>
  <course>91.13</course>
  <speed>1.000199980003999</speed>
  <fix>3d</fix>
</trkpt>
<trkpt lat="40.0717071" lon="-105.2296375">
  <ele>1582.99</ele>
  <time>2026-09-02T20:50:44Z</time>
  <course>91.32</course>
  <speed>0.99</speed>
  <fix>3d</fix>
</trkpt>
<trkpt lat="40.0717071" lon="-105.2296351">
  <ele>1582.99</ele>
  <time>2026-09-02T20:50:44Z</time>
  <course>91.13</course>
  <speed>1.000199980003999</speed>
  <fix>3d</fix>
</trkpt>
<trkpt lat="40.0717071" lon="-105.2296375">
  <ele>1582.99</ele>
  <time>2026-09-02T20:50:44Z</time>
  <course>91.32</course>
  <speed>0.99</speed>
  <fix>3d</fix>
</trkpt>
<trkpt lat="40.0717071" lon="-105.2296339">
  <ele>1582.99</ele>
  <time>2026-09-02T20:50:44Z</time>
  <course>91.13</course>
  <speed>0.9902019995940222</speed>
  <fix>3d</fix>
</trkpt>
<trkpt lat="40.0717071" lon="-105.2296351">
  <ele>1582.99</ele>
  <time>2026-09-02T20:50:44Z</time>
  <course>91.32</course>
  <speed>0.99</speed>
  <fix>3d</fix>
</trkpt>
<trkpt lat="40.0717071" lon="-105.2296327">
  <ele>1582.99</ele>
  <time>2026-09-02T20:50:44Z</time>
  <course>91.13</course>
  <speed>1.000199980003999</speed>
  <fix>3d</fix>
</trkpt>
<trkpt lat="40.0717071" lon="-105.2296351">
  <ele>1582.99</ele>
  <time>2026-09-02T20:50:44Z</time>
  <course>91.32</course>
  <speed>0.99</speed>
  <fix>3d</fix>
</trkpt>
<trkpt lat="40.0717071" lon="-105.2296315">
  <ele>1582.99</ele>
  <time>2026-09-02T20:50:44Z</time>
  <course>91.14</course>
  <speed>0.9902019995940222</speed>
  <fix>3d</fix>
</trkpt>
<trkpt lat="40.0717071" lon="-105.2296327">
  <ele>1582.99</ele>
  <time>2026-09-02T20:50:44Z</time>
  <course>91.32</course>
  <speed>0.99</speed>
  <fix>3d</fix>
</trkpt>
<trkpt lat="40.0717069" lon="-105.2296305">
  <ele>1582.99</ele>
  <time>2026-09-02T20:50:44Z</time>
  <course>91.13</course>
  <speed>0.9902019995940222</speed>
  <fix>3d</fix>
</trkpt>
<trkpt lat="40.0717071" lon="-105.2296327">
  <ele>1582.99</ele>
  <time>2026-09-02T20:50:44Z</time>
  <course>91.32</course>
  <speed>0.99</speed>
  <fix>3d</fix>
</trkpt>
<trkpt lat="40.0717069" lon="-105.2296293">
  <ele>1582.99</ele>
  <time>2026-09-02T20:50:44Z</time>
  <course>91.12</course>
  <speed>0.9902019995940222</speed>
  <fix>3d</fix>
</trkpt>
<trkpt lat="40.071707" lon="-105.2296304">
  <ele>1582.99</ele>
  <time>2026-09-02T20:50:44Z</time>
  <course>91.32</course>
  <speed>0.99</speed>
  <fix>3d</fix>
</trkpt>
<trkpt lat="40.0717069" lon="-105.2296281">
  <ele>1582.99</ele>
  <time>2026-09-02T20:50:44Z</time>
  <course>91.11</course>
  <speed>1.000199980003999</speed>
  <fix>3d</fix>
</trkpt>
<trkpt lat="40.071707" lon="-105.2296304">
  <ele>1582.99</ele>
  <time>2026-09-02T20:50:44Z</time>
  <course>91.32</course>
  <speed>0.99</speed>
  <fix>3d</fix>
</trkpt>
<trkpt lat="40.0717069" lon="-105.2296267">
  <ele>1582.99</ele>
  <time>2026-09-02T20:50:44Z</time>
  <course>91.11</course>
  <speed>0.9902019995940222</speed>
  <fix>3d</fix>
</trkpt>
<trkpt lat="40.0717069" lon="-105.2296281">
  <ele>1582.99</ele>
  <time>2026-09-02T20:50:44Z</time>
  <course>91.3</course>
  <speed>0.99</speed>
  <fix>3d</fix>
</trkpt>
<trkpt lat="40.0717068" lon="-105.2296255">
  <ele>1582.99</ele>
  <time>2026-09-02T20:50:44Z</time>
  <course>91.11</course>
  <speed>1.000199980003999</speed>
  <fix>3d</fix>
</trkpt>
<trkpt lat="40.0717069" lon="-105.2296281">
  <ele>1582.99</ele>
  <time>2026-09-02T20:50:44Z</time>
  <course>91.3</course>
  <speed>0.99</speed>
  <fix>3d</fix>
</trkpt>
<trkpt lat="40.0717068" lon="-105.2296243">
  <ele>1582.99</ele>
  <time>2026-09-02T20:50:44Z</time>
  <course>91.09</course>
  <speed>0.9902019995940222</speed>
  <fix>3d</fix>
</trkpt>
<trkpt lat="40.0717069" lon="-105.2296257">
  <ele>1582.99</ele>
  <time>2026-09-02T20:50:44Z</time>
  <course>91.29</course>
  <speed>0.99</speed>
  <fix>3d</fix>
</trkpt>
<trkpt lat="40.0717068" lon="-105.2296231">
  <ele>1582.99</ele>
  <time>2026-09-02T20:50:44Z</time>
  <course>91.09</course>
  <speed>1.000199980003999</speed>
  <fix>3d</fix>
</trkpt>
<trkpt lat="40.0717069" lon="-105.2296257">
  <ele>1582.99</ele>
  <time>2026-09-02T20:50:44Z</time>
  <course>91.29</course>
  <speed>0.99</speed>
  <fix>3d</fix>
</trkpt>
<trkpt lat="40.0717068" lon="-105.2296219">
  <ele>1582.99</ele>
  <time>2026-09-02T20:50:44Z</time>
  <course>91.08</course>
  <speed>0.9902019995940222</speed>
  <fix>3d</fix>
</trkpt>
<trkpt lat="40.0717068" lon="-105.2296234">
  <ele>1582.99</ele>
  <time>2026-09-02T20:50:44Z</time>
  <course>91.28</course>
  <speed>0.99</speed>
  <fix>3d</fix>
</trkpt>
<trkpt lat="40.0717068" lon="-105.2296209">
  <ele>1582.99</ele>
  <time>2026-09-02T20:50:44Z</time>
  <course>91.08</course>
  <speed>1.000199980003999</speed>
  <fix>3d</fix>
</trkpt>
<trkpt lat="40.0717068" lon="-105.2296234">
  <ele>1582.99</ele>
  <time>2026-09-02T20:50:44Z</time>
  <course>91.28</course>
  <speed>0.99</speed>
  <fix>3d</fix>
</trkpt>
<trkpt lat="40.0717068" lon="-105.2296197">
  <ele>1582.99</ele>
  <time>2026-09-02T20:50:44Z</time>
  <course>91.08</course>
  <speed>1.000199980003999</speed>
  <fix>3d</fix>
</trkpt>
<trkpt lat="40.0717068" lon="-105.229621">
  <ele>1582.99</ele>
  <time>2026-09-02T20:50:44Z</time>
  <course>91.27</course>
  <speed>1.0</speed>
  <fix>3d</fix>
</trkpt>
<trkpt lat="40.0717068" lon="-105.2296185">
  <ele>1582.99</ele>
  <time>2026-09-02T20:50:44Z</time>
  <course>91.08</course>
  <speed>1.000199980003999</speed>
  <fix>3d</fix>
</trkpt>
<trkpt lat="40.0717068" lon="-105.229621">
  <ele>1582.99</ele>
  <time>2026-09-02T20:50:44Z</time>
  <course>91.27</course>
  <speed>1.0</speed>
  <fix>3d</fix>
</trkpt>
<trkpt lat="40.0717068" lon="-105.2296173">
  <ele>1582.99</ele>
  <time>2026-09-02T20:50:44Z</time>
  <course>91.08</course>
  <speed>0.9902019995940222</speed>
  <fix>3d</fix>
</trkpt>
<trkpt lat="40.0717068" lon="-105.2296187">
  <ele>1582.99</ele>
  <time>2026-09-02T20:50:44Z</time>
  <course>91.26</course>
  <speed>1.0</speed>
  <fix>3d</fix>
</trkpt>
<trkpt lat="40.0717068" lon="-105.2296162">
  <ele>1582.99</ele>
  <time>2026-09-02T20:50:44Z</time>
  <course>91.08</course>
  <speed>0.9902019995940222</speed>
  <fix>3d</fix>
</trkpt>
<trkpt lat="40.0717068" lon="-105.2296187">
  <ele>1582.99</ele>
  <time>2026-09-02T20:50:44Z</time>
  <course>91.26</course>
  <speed>1.0</speed>
  <fix>3d</fix>
</trkpt>
<trkpt lat="40.0717068" lon="-105.229615">
  <ele>1582.99</ele>
  <time>2026-09-02T20:50:44Z</time>
  <course>91.09</course>
  <speed>1.000199980003999</speed>
  <fix>3d</fix>
</trkpt>
<trkpt lat="40.0717068" lon="-105.2296164">
  <ele>1582.99</ele>
  <time>2026-09-02T20:50:44Z</time>
  <course>91.27</course>
  <speed>1.0</speed>
  <fix>3d</fix>
</trkpt>
<trkpt lat="40.0717068" lon="-105.229614">
  <ele>1582.99</ele>
  <time>2026-09-02T20:50:44Z</time>
  <course>91.09</course>
  <speed>0.9902019995940222</speed>
  <fix>3d</fix>
</trkpt>
<trkpt lat="40.0717068" lon="-105.2296164">
  <ele>1582.99</ele>
  <time>2026-09-02T20:50:44Z</time>
  <course>91.27</course>
  <speed>1.0</speed>
  <fix>3d</fix>
</trkpt>
<trkpt lat="40.0717067" lon="-105.2296128">
  <ele>1582.99</ele>
  <time>2026-09-02T20:50:44Z</time>
  <course>91.09</course>
  <speed>1.000199980003999</speed>
  <fix>3d</fix>
</trkpt>
<trkpt lat="40.0717067" lon="-105.229614">
  <ele>1582.99</ele>
  <time>2026-09-02T20:50:44Z</time>
  <course>91.28</course>
  <speed>1.0</speed>
  <fix>3d</fix>
</trkpt>
<trkpt lat="40.0717067" lon="-105.2296116">
  <ele>1582.99</ele>
  <time>2026-09-02T20:50:44Z</time>
  <course>91.1</course>
  <speed>0.9902019995940222</speed>
  <fix>3d</fix>
</trkpt>
<trkpt lat="40.0717067" lon="-105.229614">
  <ele>1582.99</ele>
  <time>2026-09-02T20:50:44Z</time>
  <course>91.28</course>
  <speed>1.0</speed>
  <fix>3d</fix>
</trkpt>
<trkpt lat="40.0717067" lon="-105.2296104">
  <ele>1582.99</ele>
  <time>2026-09-02T20:50:44Z</time>
  <course>91.1</course>
  <speed>1.000199980003999</speed>
  <fix>3d</fix>
</trkpt>
<trkpt lat="40.0717067" lon="-105.2296116">
  <ele>1582.99</ele>
  <time>2026-09-02T20:50:44Z</time>
  <course>91.29</course>
  <speed>1.0</speed>
  <fix>3d</fix>
</trkpt>
<trkpt lat="40.0717067" lon="-105.2296092">
  <ele>1582.99</ele>
  <time>2026-09-02T20:50:44Z</time>
  <course>91.1</course>
  <speed>0.9902019995940222</speed>
  <fix>3d</fix>
</trkpt>
<trkpt lat="40.0717067" lon="-105.2296116">
  <ele>1582.99</ele>
  <time>2026-09-02T20:50:44Z</time>
  <course>91.29</course>
  <speed>1.0</speed>
  <fix>3d</fix>
</trkpt>
<trkpt lat="40.0717066" lon="-105.2296082">
  <ele>1582.99</ele>
  <time>2026-09-02T20:50:44Z</time>
  <course>91.11</course>
  <speed>1.000199980003999</speed>
  <fix>3d</fix>
</trkpt>
<trkpt lat="40.0717066" lon="-105.2296093">
  <ele>1582.99</ele>
  <time>2026-09-02T20:50:44Z</time>
  <course>91.29</course>
  <speed>1.0</speed>
  <fix>3d</fix>
</trkpt>
<trkpt lat="40.0717066" lon="-105.229607">
  <ele>1582.99</ele>
  <time>2026-09-02T20:50:44Z</time>
  <course>91.11</course>
  <speed>0.9902019995940222</speed>
  <fix>3d</fix>
</trkpt>
<trkpt lat="40.0717066" lon="-105.2296093">
  <ele>1582.99</ele>
  <time>2026-09-02T20:50:44Z</time>
  <course>91.29</course>
  <speed>1.0</speed>
  <fix>3d</fix>
</trkpt>
<trkpt lat="40.0717066" lon="-105.2296058">
  <ele>1582.99</ele>
  <time>2026-09-02T20:50:44Z</time>
  <course>91.11</course>
  <speed>0.9902019995940222</speed>
  <fix>3d</fix>
</trkpt>
<trkpt lat="40.0717066" lon="-105.229607">
  <ele>1582.99</ele>
  <time>2026-09-02T20:50:44Z</time>
  <course>91.3</course>
  <speed>1.0</speed>
  <fix>3d</fix>
</trkpt>
<trkpt lat="40.0717066" lon="-105.2296047">
  <ele>1582.99</ele>
  <time>2026-09-02T20:50:44Z</time>
  <course>91.11</course>
  <speed>1.000199980003999</speed>
  <fix>3d</fix>
</trkpt>
<trkpt lat="40.0717066" lon="-105.229607">
  <ele>1582.99</ele>
  <time>2026-09-02T20:50:44Z</time>
  <course>91.3</course>
  <speed>1.0</speed>
  <fix>3d</fix>
</trkpt>
<trkpt lat="40.0717066" lon="-105.2296035">
  <ele>1582.99</ele>
  <time>2026-09-02T20:50:44Z</time>
  <course>91.11</course>
  <speed>0.9902019995940222</speed>
  <fix>3d</fix>
</trkpt>
<trkpt lat="40.0717066" lon="-105.2296046">
  <ele>1582.99</ele>
  <time>2026-09-02T20:50:44Z</time>
  <course>91.3</course>
  <speed>0.99</speed>
  <fix>3d</fix>
</trkpt>
<trkpt lat="40.0717065" lon="-105.229602">
  <ele>1582.99</ele>
  <time>2026-09-02T20:50:44Z</time>
  <course>91.12</course>
  <speed>0.9902019995940222</speed>
  <fix>3d</fix>
</trkpt>
<trkpt lat="40.0717066" lon="-105.2296046">
  <ele>1582.99</ele>
  <time>2026-09-02T20:50:44Z</time>
  <course>91.3</course>
  <speed>0.99</speed>
  <fix>3d</fix>
</trkpt>
<trkpt lat="40.0717065" lon="-105.2296009">
  <ele>1582.99</ele>
  <time>2026-09-02T20:50:44Z</time>
  <course>91.12</course>
  <speed>1.000199980003999</speed>
  <fix>3d</fix>
</trkpt>
<trkpt lat="40.0717065" lon="-105.2296023">
  <ele>1582.99</ele>
  <time>2026-09-02T20:50:44Z</time>
  <course>91.31</course>
  <speed>1.0</speed>
  <fix>3d</fix>
</trkpt>
<trkpt lat="40.0717065" lon="-105.2295997">
  <ele>1582.99</ele>
  <time>2026-09-02T20:50:44Z</time>
  <course>91.12</course>
  <speed>0.9902019995940222</speed>
  <fix>3d</fix>
</trkpt>
<trkpt lat="40.0717065" lon="-105.2296023">
  <ele>1582.99</ele>
  <time>2026-09-02T20:50:44Z</time>
  <course>91.31</course>
  <speed>1.0</speed>
  <fix>3d</fix>
</trkpt>
<trkpt lat="40.0717065" lon="-105.2295985">
  <ele>1582.99</ele>
  <time>2026-09-02T20:50:44Z</time>
  <course>91.12</course>
  <speed>1.000199980003999</speed>
  <fix>3d</fix>
</trkpt>
<trkpt lat="40.0717065" lon="-105.2295999">
  <ele>1582.99</ele>
  <time>2026-09-02T20:50:44Z</time>
  <course>91.31</course>
  <speed>1.0</speed>
  <fix>3d</fix>
</trkpt>
<trkpt lat="40.0717065" lon="-105.2295973">
  <ele>1582.99</ele>
  <time>2026-09-02T20:50:44Z</time>
  <course>91.13</course>
  <speed>0.9902019995940222</speed>
  <fix>3d</fix>
</trkpt>
<trkpt lat="40.0717065" lon="-105.2295999">
  <ele>1582.99</ele>
  <time>2026-09-02T20:50:44Z</time>
  <course>91.31</course>
  <speed>1.0</speed>
  <fix>3d</fix>
</trkpt>
<trkpt lat="40.0717063" lon="-105.2295961">
  <ele>1582.99</ele>
  <time>2026-09-02T20:50:44Z</time>
  <course>91.13</course>
  <speed>1.000199980003999</speed>
  <fix>3d</fix>
</trkpt>
<trkpt lat="40.0717064" lon="-105.2295975">
  <ele>1582.99</ele>
  <time>2026-09-02T20:50:44Z</time>
  <course>91.32</course>
  <speed>1.0</speed>
  <fix>3d</fix>
</trkpt>
<trkpt lat="40.0717063" lon="-105.2295949">
  <ele>1582.99</ele>
  <time>2026-09-02T20:50:44Z</time>
  <course>91.12</course>
  <speed>0.9902019995940222</speed>
  <fix>3d</fix>
</trkpt>
<trkpt lat="40.0717064" lon="-105.2295975">
  <ele>1582.99</ele>
  <time>2026-09-02T20:50:44Z</time>
  <course>91.32</course>
  <speed>1.0</speed>
  <fix>3d</fix>
</trkpt>
<trkpt lat="40.0717063" lon="-105.2295939">
  <ele>1582.99</ele>
  <time>2026-09-02T20:50:44Z</time>
  <course>91.11</course>
  <speed>1.000199980003999</speed>
  <fix>3d</fix>
</trkpt>
<trkpt lat="40.0717063" lon="-105.2295952">
  <ele>1582.99</ele>
  <time>2026-09-02T20:50:44Z</time>
  <course>91.31</course>
  <speed>1.0</speed>
  <fix>3d</fix>
</trkpt>
<trkpt lat="40.0717063" lon="-105.2295927">
  <ele>1582.99</ele>
  <time>2026-09-02T20:50:44Z</time>
  <course>91.11</course>
  <speed>0.9902019995940222</speed>
  <fix>3d</fix>
</trkpt>
<trkpt lat="40.0717063" lon="-105.2295952">
  <ele>1582.99</ele>
  <time>2026-09-02T20:50:44Z</time>
  <course>91.31</course>
  <speed>1.0</speed>
  <fix>3d</fix>
</trkpt>
<trkpt lat="40.0717063" lon="-105.2295915">
  <ele>1582.99</ele>
  <time>2026-09-02T20:50:44Z</time>
  <course>91.1</course>
  <speed>1.000199980003999</speed>
  <fix>3d</fix>
</trkpt>
<trkpt lat="40.0717063" lon="-105.2295929">
  <ele>1582.99</ele>
  <time>2026-09-02T20:50:44Z</time>
  <course>91.3</course>
  <speed>1.0</speed>
  <fix>3d</fix>
</trkpt>
<trkpt lat="40.0717062" lon="-105.2295903">
  <ele>1582.99</ele>
  <time>2026-09-02T20:50:44Z</time>
  <course>91.1</course>
  <speed>0.9902019995940222</speed>
  <fix>3d</fix>
</trkpt>
<trkpt lat="40.0717063" lon="-105.2295929">
  <ele>1582.99</ele>
  <time>2026-09-02T20:50:44Z</time>
  <course>91.3</course>
  <speed>1.0</speed>
  <fix>3d</fix>
</trkpt>
<trkpt lat="40.0717062" lon="-105.2295894">
  <ele>1582.99</ele>
  <time>2026-09-02T20:50:44Z</time>
  <course>91.09</course>
  <speed>1.000199980003999</speed>
  <fix>3d</fix>
</trkpt>
<trkpt lat="40.0717063" lon="-105.2295905">
  <ele>1582.99</ele>
  <time>2026-09-02T20:50:44Z</time>
  <course>91.29</course>
  <speed>1.0</speed>
  <fix>3d</fix>
</trkpt>
<trkpt lat="40.0717062" lon="-105.2295882">
  <ele>1582.99</ele>
  <time>2026-09-02T20:50:44Z</time>
  <course>91.09</course>
  <speed>0.9902019995940222</speed>
  <fix>3d</fix>
</trkpt>
<trkpt lat="40.0717063" lon="-105.2295905">
  <ele>1582.99</ele>
  <time>2026-09-02T20:50:44Z</time>
  <course>91.29</course>
  <speed>1.0</speed>
  <fix>3d</fix>
</trkpt>
<trkpt lat="40.0717062" lon="-105.229587">
  <ele>1582.99</ele>
  <time>2026-09-02T20:50:44Z</time>
  <course>91.09</course>
  <speed>1.000199980003999</speed>
  <fix>3d</fix>
</trkpt>
<trkpt lat="40.0717062" lon="-105.2295882">
  <ele>1582.99</ele>
  <time>2026-09-02T20:50:44Z</time>
  <course>91.28</course>
  <speed>1.0</speed>
  <fix>3d</fix>
</trkpt>
<trkpt lat="40.0717062" lon="-105.2295858">
  <ele>1582.99</ele>
  <time>2026-09-02T20:50:44Z</time>
  <course>91.08</course>
  <speed>0.9902019995940222</speed>
  <fix>3d</fix>
</trkpt>
<trkpt lat="40.0717062" lon="-105.2295882">
  <ele>1582.99</ele>
  <time>2026-09-02T20:50:44Z</time>
  <course>91.28</course>
  <speed>1.0</speed>
  <fix>3d</fix>
</trkpt>
<trkpt lat="40.0717062" lon="-105.2295846">
  <ele>1582.99</ele>
  <time>2026-09-02T20:50:44Z</time>
  <course>91.08</course>
  <speed>1.000199980003999</speed>
  <fix>3d</fix>
</trkpt>
<trkpt lat="40.0717062" lon="-105.2295858">
  <ele>1582.99</ele>
  <time>2026-09-02T20:50:44Z</time>
  <course>91.28</course>
  <speed>1.0</speed>
  <fix>3d</fix>
</trkpt>
<trkpt lat="40.0717062" lon="-105.2295834">
  <ele>1582.99</ele>
  <time>2026-09-02T20:50:44Z</time>
  <course>91.08</course>
  <speed>0.9902019995940222</speed>
  <fix>3d</fix>
</trkpt>
<trkpt lat="40.0717062" lon="-105.2295858">
  <ele>1582.99</ele>
  <time>2026-09-02T20:50:44Z</time>
  <course>91.28</course>
  <speed>1.0</speed>
  <fix>3d</fix>
</trkpt>
<trkpt lat="40.0717062" lon="-105.2295824">
  <ele>1582.99</ele>
  <time>2026-09-02T20:50:44Z</time>
  <course>91.09</course>
  <speed>1.000199980003999</speed>
  <fix>3d</fix>
</trkpt>
<trkpt lat="40.0717062" lon="-105.2295835">
  <ele>1582.99</ele>
  <time>2026-09-02T20:50:44Z</time>
  <course>91.28</course>
  <speed>1.0</speed>
  <fix>3d</fix>
</trkpt>
<trkpt lat="40.0717062" lon="-105.2295812">
  <ele>1582.99</ele>
  <time>2026-09-02T20:50:44Z</time>
  <course>91.09</course>
  <speed>0.9902019995940222</speed>
  <fix>3d</fix>
</trkpt>
<trkpt lat="40.0717062" lon="-105.2295835">
  <ele>1582.99</ele>
  <time>2026-09-02T20:50:44Z</time>
  <course>91.28</course>
  <speed>1.0</speed>
  <fix>3d</fix>
</trkpt>
<trkpt lat="40.0717062" lon="-105.22958">
  <ele>1582.99</ele>
  <time>2026-09-02T20:50:44Z</time>
  <course>91.1</course>
  <speed>1.000199980003999</speed>
  <fix>3d</fix>
</trkpt>
<trkpt lat="40.0717062" lon="-105.2295812">
  <ele>1582.99</ele>
  <time>2026-09-02T20:50:44Z</time>
  <course>91.28</course>
  <speed>1.0</speed>
  <fix>3d</fix>
</trkpt>
<trkpt lat="40.0717061" lon="-105.2295788">
  <ele>1582.99</ele>
  <time>2026-09-02T20:50:44Z</time>
  <course>91.1</course>
  <speed>0.9902019995940222</speed>
  <fix>3d</fix>
</trkpt>
<trkpt lat="40.0717062" lon="-105.2295812">
  <ele>1582.99</ele>
  <time>2026-09-02T20:50:44Z</time>
  <course>91.28</course>
  <speed>1.0</speed>
  <fix>3d</fix>
</trkpt>
<trkpt lat="40.0717061" lon="-105.2295774">
  <ele>1582.99</ele>
  <time>2026-09-02T20:50:44Z</time>
  <course>91.1</course>
  <speed>1.000199980003999</speed>
  <fix>3d</fix>
</trkpt>
<trkpt lat="40.0717061" lon="-105.2295788">
  <ele>1582.99</ele>
  <time>2026-09-02T20:50:44Z</time>
  <course>91.29</course>
  <speed>1.0</speed>
  <fix>3d</fix>
</trkpt>
<trkpt lat="40.0717061" lon="-105.2295762">
  <ele>1582.99</ele>
  <time>2026-09-02T20:50:44Z</time>
  <course>91.11</course>
  <speed>0.9902019995940222</speed>
  <fix>3d</fix>
</trkpt>
<trkpt lat="40.0717061" lon="-105.2295788">
  <ele>1582.99</ele>
  <time>2026-09-02T20:50:44Z</time>
  <course>91.29</course>
  <speed>1.0</speed>
  <fix>3d</fix>
</trkpt>
<trkpt lat="40.0717061" lon="-105.229575">
  <ele>1582.99</ele>
  <time>2026-09-02T20:50:44Z</time>
  <course>91.11</course>
  <speed>1.000199980003999</speed>
  <fix>3d</fix>
</trkpt>
<trkpt lat="40.0717061" lon="-105.2295764">
  <ele>1582.99</ele>
  <time>2026-09-02T20:50:44Z</time>
  <course>91.3</course>
  <speed>1.0</speed>
  <fix>3d</fix>
</trkpt>
<trkpt lat="40.0717061" lon="-105.2295738">
  <ele>1582.99</ele>
  <time>2026-09-02T20:50:44Z</time>
  <course>91.12</course>
  <speed>0.9902019995940222</speed>
  <fix>3d</fix>
</trkpt>
<trkpt lat="40.0717061" lon="-105.2295764">
  <ele>1582.99</ele>
  <time>2026-09-02T20:50:44Z</time>
  <course>91.3</course>
  <speed>1.0</speed>
  <fix>3d</fix>
</trkpt>
<trkpt lat="40.071706" lon="-105.2295726">
  <ele>1582.99</ele>
  <time>2026-09-02T20:50:44Z</time>
  <course>91.12</course>
  <speed>1.000199980003999</speed>
  <fix>3d</fix>
</trkpt>
<trkpt lat="40.071706" lon="-105.2295741">
  <ele>1582.99</ele>
  <time>2026-09-02T20:50:44Z</time>
  <course>91.31</course>
  <speed>1.0</speed>
  <fix>3d</fix>
</trkpt>
<trkpt lat="40.071706" lon="-105.2295716">
  <ele>1582.99</ele>
  <time>2026-09-02T20:50:44Z</time>
  <course>91.12</course>
  <speed>0.9902019995940222</speed>
  <fix>3d</fix>
</trkpt>
<trkpt lat="40.071706" lon="-105.2295741">
  <ele>1582.99</ele>
  <time>2026-09-02T20:50:44Z</time>
  <course>91.31</course>
  <speed>1.0</speed>
  <fix>3d</fix>
</trkpt>
<trkpt lat="40.071706" lon="-105.2295704">
  <ele>1582.99</ele>
  <time>2026-09-02T20:50:44Z</time>
  <course>91.12</course>
  <speed>1.000199980003999</speed>
  <fix>3d</fix>
</trkpt>
<trkpt lat="40.071706" lon="-105.2295718">
  <ele>1582.99</ele>
  <time>2026-09-02T20:50:44Z</time>
  <course>91.31</course>
  <speed>1.0</speed>
  <fix>3d</fix>
</trkpt>
<trkpt lat="40.071706" lon="-105.2295692">
  <ele>1582.99</ele>
  <time>2026-09-02T20:50:44Z</time>
  <course>91.13</course>
  <speed>0.9902019995940222</speed>
  <fix>3d</fix>
</trkpt>
<trkpt lat="40.071706" lon="-105.2295718">
  <ele>1582.99</ele>
  <time>2026-09-02T20:50:44Z</time>
  <course>91.31</course>
  <speed>1.0</speed>
  <fix>3d</fix>
</trkpt>
<trkpt lat="40.071706" lon="-105.229568">
  <ele>1582.99</ele>
  <time>2026-09-02T20:50:44Z</time>
  <course>91.13</course>
  <speed>1.000199980003999</speed>
  <fix>3d</fix>
</trkpt>
<trkpt lat="40.071706" lon="-105.2295694">
  <ele>1582.99</ele>
  <time>2026-09-02T20:50:44Z</time>
  <course>91.32</course>
  <speed>1.0</speed>
  <fix>3d</fix>
</trkpt>
<trkpt lat="40.0717059" lon="-105.2295669">
  <ele>1582.99</ele>
  <time>2026-09-02T20:50:44Z</time>
  <course>91.13</course>
  <speed>0.9902019995940222</speed>
  <fix>3d</fix>
</trkpt>
<trkpt lat="40.071706" lon="-105.2295694">
  <ele>1582.99</ele>
  <time>2026-09-02T20:50:44Z</time>
  <course>91.32</course>
  <speed>1.0</speed>
  <fix>3d</fix>
</trkpt>
<trkpt lat="40.0717059" lon="-105.2295657">
  <ele>1582.99</ele>
  <time>2026-09-02T20:50:44Z</time>
  <course>91.13</course>
  <speed>1.000199980003999</speed>
  <fix>3d</fix>
</trkpt>
<trkpt lat="40.0717059" lon="-105.2295671">
  <ele>1582.99</ele>
  <time>2026-09-02T20:50:44Z</time>
  <course>91.32</course>
  <speed>1.0</speed>
  <fix>3d</fix>
</trkpt>
<trkpt lat="40.0717059" lon="-105.2295647">
  <ele>1582.99</ele>
  <time>2026-09-02T20:50:44Z</time>
  <course>91.13</course>
  <speed>0.9902019995940222</speed>
  <fix>3d</fix>
</trkpt>
<trkpt lat="40.0717059" lon="-105.2295671">
  <ele>1582.99</ele>
  <time>2026-09-02T20:50:44Z</time>
  <course>91.32</course>
  <speed>1.0</speed>
  <fix>3d</fix>
</trkpt>
<trkpt lat="40.0717059" lon="-105.2295635">
  <ele>1582.99</ele>
  <time>2026-09-02T20:50:44Z</time>
  <course>91.13</course>
  <speed>1.000199980003999</speed>
  <fix>3d</fix>
</trkpt>
<trkpt lat="40.0717059" lon="-105.2295647">
  <ele>1582.99</ele>
  <time>2026-09-02T20:50:44Z</time>
  <course>91.33</course>
  <speed>1.0</speed>
  <fix>3d</fix>
</trkpt>
<trkpt lat="40.0717057" lon="-105.2295623">
  <ele>1582.99</ele>
  <time>2026-09-02T20:50:44Z</time>
  <course>91.14</course>
  <speed>0.9902019995940222</speed>
  <fix>3d</fix>
</trkpt>
<trkpt lat="40.0717059" lon="-105.2295647">
  <ele>1582.99</ele>
  <time>2026-09-02T20:50:44Z</time>
  <course>91.33</course>
  <speed>1.0</speed>
  <fix>3d</fix>
</trkpt>
<trkpt lat="40.0717057" lon="-105.2295611">
  <ele>1582.99</ele>
  <time>2026-09-02T20:50:44Z</time>
  <course>91.13</course>
  <speed>1.000199980003999</speed>
  <fix>3d</fix>
</trkpt>
<trkpt lat="40.0717058" lon="-105.2295623">
  <ele>1582.99</ele>
  <time>2026-09-02T20:50:44Z</time>
  <course>91.33</course>
  <speed>1.0</speed>
  <fix>3d</fix>
</trkpt>
<trkpt lat="40.0717057" lon="-105.2295601">
  <ele>1582.99</ele>
  <time>2026-09-02T20:50:44Z</time>
  <course>91.12</course>
  <speed>0.9902019995940222</speed>
  <fix>3d</fix>
</trkpt>
<trkpt lat="40.0717058" lon="-105.2295623">
  <ele>1582.99</ele>
  <time>2026-09-02T20:50:44Z</time>
  <course>91.33</course>
  <speed>1.0</speed>
  <fix>3d</fix>
</trkpt>
<trkpt lat="40.0717057" lon="-105.2295589">
  <ele>1582.99</ele>
  <time>2026-09-02T20:50:44Z</time>
  <course>91.12</course>
  <speed>1.000199980003999</speed>
  <fix>3d</fix>
</trkpt>
<trkpt lat="40.0717057" lon="-105.22956">
  <ele>1582.99</ele>
  <time>2026-09-02T20:50:44Z</time>
  <course>91.32</course>
  <speed>1.0</speed>
  <fix>3d</fix>
</trkpt>
<trkpt lat="40.0717057" lon="-105.2295577">
  <ele>1582.99</ele>
  <time>2026-09-02T20:50:44Z</time>
  <course>91.11</course>
  <speed>0.9902019995940222</speed>
  <fix>3d</fix>
</trkpt>
<trkpt lat="40.0717057" lon="-105.22956">
  <ele>1582.99</ele>
  <time>2026-09-02T20:50:44Z</time>
  <course>91.32</course>
  <speed>1.0</speed>
  <fix>3d</fix>
</trkpt>
<trkpt lat="40.0717056" lon="-105.2295565">
  <ele>1582.99</ele>
  <time>2026-09-02T20:50:44Z</time>
  <course>91.11</course>
  <speed>1.000199980003999</speed>
  <fix>3d</fix>
</trkpt>
<trkpt lat="40.0717057" lon="-105.2295577">
  <ele>1582.99</ele>
  <time>2026-09-02T20:50:44Z</time>
  <course>91.31</course>
  <speed>1.0</speed>
  <fix>3d</fix>
</trkpt>
<trkpt lat="40.0717056" lon="-105.2295554">
  <ele>1582.99</ele>
  <time>2026-09-02T20:50:44Z</time>
  <course>91.1</course>
  <speed>0.9902019995940222</speed>
  <fix>3d</fix>
</trkpt>
<trkpt lat="40.0717057" lon="-105.2295577">
  <ele>1582.99</ele>
  <time>2026-09-02T20:50:44Z</time>
  <course>91.31</course>
  <speed>1.0</speed>
  <fix>3d</fix>
</trkpt>
<trkpt lat="40.0717056" lon="-105.2295539">
  <ele>1582.99</ele>
  <time>2026-09-02T20:50:44Z</time>
  <course>91.1</course>
  <speed>1.000199980003999</speed>
  <fix>3d</fix>
</trkpt>
<trkpt lat="40.0717056" lon="-105.2295553">
  <ele>1582.99</ele>
  <time>2026-09-02T20:50:44Z</time>
  <course>91.3</course>
  <speed>1.0</speed>
  <fix>3d</fix>
</trkpt>
<trkpt lat="40.0717056" lon="-105.2295527">
  <ele>1582.99</ele>
  <time>2026-09-02T20:50:44Z</time>
  <course>91.09</course>
  <speed>0.9902019995940222</speed>
  <fix>3d</fix>
</trkpt>
<trkpt lat="40.0717056" lon="-105.2295553">
  <ele>1582.99</ele>
  <time>2026-09-02T20:50:44Z</time>
  <course>91.3</course>
  <speed>1.0</speed>
  <fix>3d</fix>
</trkpt>
<trkpt lat="40.0717056" lon="-105.2295515">
  <ele>1582.99</ele>
  <time>2026-09-02T20:50:44Z</time>
  <course>91.09</course>
  <speed>1.000199980003999</speed>
  <fix>3d</fix>
</trkpt>
<trkpt lat="40.0717056" lon="-105.229553">
  <ele>1582.99</ele>
  <time>2026-09-02T20:50:44Z</time>
  <course>91.29</course>
  <speed>1.0</speed>
  <fix>3d</fix>
</trkpt>
<trkpt lat="40.0717056" lon="-105.2295503">
  <ele>1582.99</ele>
  <time>2026-09-02T20:50:44Z</time>
  <course>91.09</course>
  <speed>0.9902019995940222</speed>
  <fix>3d</fix>
</trkpt>
<trkpt lat="40.0717056" lon="-105.229553">
  <ele>1582.99</ele>
  <time>2026-09-02T20:50:44Z</time>
  <course>91.29</course>
  <speed>1.0</speed>
  <fix>3d</fix>
</trkpt>
<trkpt lat="40.0717056" lon="-105.2295493">
  <ele>1582.99</ele>
  <time>2026-09-02T20:50:44Z</time>
  <course>91.09</course>
  <speed>1.000199980003999</speed>
  <fix>3d</fix>
</trkpt>
<trkpt lat="40.0717056" lon="-105.2295506">
  <ele>1582.99</ele>
  <time>2026-09-02T20:50:44Z</time>
  <course>91.29</course>
  <speed>1.0</speed>
  <fix>3d</fix>
</trkpt>
<trkpt lat="40.0717056" lon="-105.229548">
  <ele>1582.99</ele>
  <time>2026-09-02T20:50:44Z</time>
  <course>91.09</course>
  <speed>0.9902019995940222</speed>
  <fix>3d</fix>
</trkpt>
<trkpt lat="40.0717056" lon="-105.2295506">
  <ele>1582.99</ele>
  <time>2026-09-02T20:50:44Z</time>
  <course>91.29</course>
  <speed>1.0</speed>
  <fix>3d</fix>
</trkpt>
<trkpt lat="40.0717056" lon="-105.2295468">
  <ele>1582.99</ele>
  <time>2026-09-02T20:50:44Z</time>
  <course>91.1</course>
  <speed>1.000199980003999</speed>
  <fix>3d</fix>
</trkpt>
<trkpt lat="40.0717056" lon="-105.2295482">
  <ele>1582.99</ele>
  <time>2026-09-02T20:50:44Z</time>
  <course>91.29</course>
  <speed>1.0</speed>
  <fix>3d</fix>
</trkpt>
<trkpt lat="40.0717056" lon="-105.2295456">
  <ele>1582.99</ele>
  <time>2026-09-02T20:50:44Z</time>
  <course>91.1</course>
  <speed>0.9902019995940222</speed>
  <fix>3d</fix>
</trkpt>
<trkpt lat="40.0717056" lon="-105.2295482">
  <ele>1582.99</ele>
  <time>2026-09-02T20:50:44Z</time>
  <course>91.29</course>
  <speed>1.0</speed>
  <fix>3d</fix>
</trkpt>
<trkpt lat="40.0717055" lon="-105.2295446">
  <ele>1582.99</ele>
  <time>2026-09-02T20:50:44Z</time>
  <course>91.11</course>
  <speed>1.000199980003999</speed>
  <fix>3d</fix>
</trkpt>
<trkpt lat="40.0717055" lon="-105.2295459">
  <ele>1582.99</ele>
  <time>2026-09-02T20:50:44Z</time>
  <course>91.3</course>
  <speed>1.0</speed>
  <fix>3d</fix>
</trkpt>
<trkpt lat="40.0717055" lon="-105.2295434">
  <ele>1582.99</ele>
  <time>2026-09-02T20:50:44Z</time>
  <course>91.11</course>
  <speed>0.9902019995940222</speed>
  <fix>3d</fix>
</trkpt>
<trkpt lat="40.0717055" lon="-105.2295459">
  <ele>1582.99</ele>
  <time>2026-09-02T20:50:44Z</time>
  <course>91.3</course>
  <speed>1.0</speed>
  <fix>3d</fix>
</trkpt>
<trkpt lat="40.0717055" lon="-105.2295422">
  <ele>1582.99</ele>
  <time>2026-09-02T20:50:44Z</time>
  <course>91.11</course>
  <speed>1.000199980003999</speed>
  <fix>3d</fix>
</trkpt>
<trkpt lat="40.0717055" lon="-105.2295436">
  <ele>1582.99</ele>
  <time>2026-09-02T20:50:44Z</time>
  <course>91.31</course>
  <speed>1.0</speed>
  <fix>3d</fix>
</trkpt>
<trkpt lat="40.0717055" lon="-105.229541">
  <ele>1582.99</ele>
  <time>2026-09-02T20:50:44Z</time>
  <course>91.12</course>
  <speed>0.9902019995940222</speed>
  <fix>3d</fix>
</trkpt>
<trkpt lat="40.0717055" lon="-105.2295436">
  <ele>1582.99</ele>
  <time>2026-09-02T20:50:44Z</time>
  <course>91.31</course>
  <speed>1.0</speed>
  <fix>3d</fix>
</trkpt>
<trkpt lat="40.0717055" lon="-105.2295401">
  <ele>1582.99</ele>
  <time>2026-09-02T20:50:44Z</time>
  <course>91.12</course>
  <speed>1.000199980003999</speed>
  <fix>3d</fix>
</trkpt>
<trkpt lat="40.0717055" lon="-105.2295412">
  <ele>1582.99</ele>
  <time>2026-09-02T20:50:44Z</time>
  <course>91.31</course>
  <speed>1.0</speed>
  <fix>3d</fix>
</trkpt>
<trkpt lat="40.0717054" lon="-105.2295389">
  <ele>1582.99</ele>
  <time>2026-09-02T20:50:44Z</time>
  <course>91.12</course>
  <speed>0.9902019995940222</speed>
  <fix>3d</fix>
</trkpt>
<trkpt lat="40.0717055" lon="-105.2295412">
  <ele>1582.99</ele>
  <time>2026-09-02T20:50:44Z</time>
  <course>91.31</course>
  <speed>1.0</speed>
  <fix>3d</fix>
</trkpt>
<trkpt lat="40.0717054" lon="-105.2295377">
  <ele>1582.99</ele>
  <time>2026-09-02T20:50:44Z</time>
  <course>91.12</course>
  <speed>1.000199980003999</speed>
  <fix>3d</fix>
</trkpt>
<trkpt lat="40.0717054" lon="-105.2295389">
  <ele>1582.99</ele>
  <time>2026-09-02T20:50:44Z</time>
  <course>91.32</course>
  <speed>1.0</speed>
  <fix>3d</fix>
</trkpt>
<trkpt lat="40.0717054" lon="-105.2295365">
  <ele>1582.99</ele>
  <time>2026-09-02T20:50:44Z</time>
  <course>91.12</course>
  <speed>0.9902019995940222</speed>
  <fix>3d</fix>
</trkpt>
<trkpt lat="40.0717054" lon="-105.2295389">
  <ele>1582.99</ele>
  <time>2026-09-02T20:50:44Z</time>
  <course>91.32</course>
  <speed>1.0</speed>
  <fix>3d</fix>
</trkpt>
<trkpt lat="40.0717054" lon="-105.2295353">
  <ele>1582.99</ele>
  <time>2026-09-02T20:50:44Z</time>
  <course>91.13</course>
  <speed>1.000199980003999</speed>
  <fix>3d</fix>
</trkpt>
<trkpt lat="40.0717054" lon="-105.2295365">
  <ele>1582.99</ele>
  <time>2026-09-02T20:50:44Z</time>
  <course>91.32</course>
  <speed>1.0</speed>
  <fix>3d</fix>
</trkpt>
<trkpt lat="40.0717054" lon="-105.2295341">
  <ele>1582.99</ele>
  <time>2026-09-02T20:50:44Z</time>
  <course>91.13</course>
  <speed>0.9902019995940222</speed>
  <fix>3d</fix>
</trkpt>
<trkpt lat="40.0717054" lon="-105.2295365">
  <ele>1582.99</ele>
  <time>2026-09-02T20:50:44Z</time>
  <course>91.32</course>
  <speed>1.0</speed>
  <fix>3d</fix>
</trkpt>
<trkpt lat="40.0717053" lon="-105.2295331">
  <ele>1582.99</ele>
  <time>2026-09-02T20:50:44Z</time>
  <course>91.13</course>
  <speed>1.000199980003999</speed>
  <fix>3d</fix>
</trkpt>
<trkpt lat="40.0717053" lon="-105.2295342">
  <ele>1582.99</ele>
  <time>2026-09-02T20:50:44Z</time>
  <course>91.33</course>
  <speed>1.0</speed>
  <fix>3d</fix>
</trkpt>
<trkpt lat="40.0717053" lon="-105.2295319">
  <ele>1582.99</ele>
  <time>2026-09-02T20:50:44Z</time>
  <course>91.13</course>
  <speed>1.000199980003999</speed>
  <fix>3d</fix>
</trkpt>
<trkpt lat="40.0717053" lon="-105.2295342">
  <ele>1582.99</ele>
  <time>2026-09-02T20:50:44Z</time>
  <course>91.33</course>
  <speed>1.0</speed>
  <fix>3d</fix>
</trkpt>
<trkpt lat="40.0717053" lon="-105.2295307">
  <ele>1583.0</ele>
  <time>2026-09-02T20:50:44Z</time>
  <course>91.13</course>
  <speed>1.000199980003999</speed>
  <fix>3d</fix>
</trkpt>
<trkpt lat="40.0717053" lon="-105.2295319">
  <ele>1582.99</ele>
  <time>2026-09-02T20:50:44Z</time>
  <course>91.33</course>
  <speed>1.0</speed>
  <fix>3d</fix>
</trkpt>
<trkpt lat="40.0717053" lon="-105.2295293">
  <ele>1583.0</ele>
  <time>2026-09-02T20:50:44Z</time>
  <course>91.14</course>
  <speed>1.000199980003999</speed>
  <fix>3d</fix>
</trkpt>
<trkpt lat="40.0717053" lon="-105.2295319">
  <ele>1582.99</ele>
  <time>2026-09-02T20:50:44Z</time>
  <course>91.33</course>
  <speed>1.0</speed>
  <fix>3d</fix>
</trkpt>
<trkpt lat="40.0717051" lon="-105.2295281">
  <ele>1582.99</ele>
  <time>2026-09-02T20:50:44Z</time>
  <course>91.14</course>
  <speed>0.9902019995940222</speed>
  <fix>3d</fix>
</trkpt>
<trkpt lat="40.0717053" lon="-105.2295295">
  <ele>1582.99</ele>
  <time>2026-09-02T20:50:44Z</time>
  <course>91.34</course>
  <speed>0.99</speed>
  <fix>3d</fix>
</trkpt>
<trkpt lat="40.0717051" lon="-105.2295269">
  <ele>1582.99</ele>
  <time>2026-09-02T20:50:44Z</time>
  <course>91.14</course>
  <speed>1.000199980003999</speed>
  <fix>3d</fix>
</trkpt>
<trkpt lat="40.0717053" lon="-105.2295295">
  <ele>1582.99</ele>
  <time>2026-09-02T20:50:44Z</time>
  <course>91.34</course>
  <speed>0.99</speed>
  <fix>3d</fix>
</trkpt>
<trkpt lat="40.0717051" lon="-105.2295257">
  <ele>1582.99</ele>
  <time>2026-09-02T20:50:44Z</time>
  <course>91.13</course>
  <speed>0.9902019995940222</speed>
  <fix>3d</fix>
</trkpt>
<trkpt lat="40.0717052" lon="-105.2295271">
  <ele>1582.99</ele>
  <time>2026-09-02T20:50:44Z</time>
  <course>91.34</course>
  <speed>0.99</speed>
  <fix>3d</fix>
</trkpt>
<trkpt lat="40.0717051" lon="-105.2295245">
  <ele>1582.99</ele>
  <time>2026-09-02T20:50:44Z</time>
  <course>91.13</course>
  <speed>1.000199980003999</speed>
  <fix>3d</fix>
</trkpt>
<trkpt lat="40.0717052" lon="-105.2295271">
  <ele>1582.99</ele>
  <time>2026-09-02T20:50:44Z</time>
  <course>91.34</course>
  <speed>0.99</speed>
  <fix>3d</fix>
</trkpt>
<trkpt lat="40.0717051" lon="-105.2295233">
  <ele>1582.99</ele>
  <time>2026-09-02T20:50:44Z</time>
  <course>91.12</course>
  <speed>0.9902019995940222</speed>
  <fix>3d</fix>
</trkpt>
<trkpt lat="40.0717051" lon="-105.2295248">
  <ele>1582.99</ele>
  <time>2026-09-02T20:50:44Z</time>
  <course>91.33</course>
  <speed>0.99</speed>
  <fix>3d</fix>
</trkpt>
<trkpt lat="40.071705" lon="-105.2295223">
  <ele>1582.99</ele>
  <time>2026-09-02T20:50:44Z</time>
  <course>91.12</course>
  <speed>1.000199980003999</speed>
  <fix>3d</fix>
</trkpt>
<trkpt lat="40.0717051" lon="-105.2295248">
  <ele>1582.99</ele>
  <time>2026-09-02T20:50:44Z</time>
  <course>91.33</course>
  <speed>0.99</speed>
  <fix>3d</fix>
</trkpt>
<trkpt lat="40.071705" lon="-105.2295211">
  <ele>1582.99</ele>
  <time>2026-09-02T20:50:44Z</time>
  <course>91.11</course>
  <speed>1.000199980003999</speed>
  <fix>3d</fix>
</trkpt>
<trkpt lat="40.0717051" lon="-105.2295225">
  <ele>1582.99</ele>
  <time>2026-09-02T20:50:44Z</time>
  <course>91.32</course>
  <speed>0.99</speed>
  <fix>3d</fix>
</trkpt>
<trkpt lat="40.071705" lon="-105.2295199">
  <ele>1582.99</ele>
  <time>2026-09-02T20:50:44Z</time>
  <course>91.11</course>
  <speed>1.000199980003999</speed>
  <fix>3d</fix>
</trkpt>
<trkpt lat="40.0717051" lon="-105.2295225">
  <ele>1582.99</ele>
  <time>2026-09-02T20:50:44Z</time>
  <course>91.32</course>
  <speed>0.99</speed>
  <fix>3d</fix>
</trkpt>
<trkpt lat="40.071705" lon="-105.2295187">
  <ele>1582.99</ele>
  <time>2026-09-02T20:50:44Z</time>
  <course>91.1</course>
  <speed>0.9902019995940222</speed>
  <fix>3d</fix>
</trkpt>
<trkpt lat="40.071705" lon="-105.2295201">
  <ele>1582.99</ele>
  <time>2026-09-02T20:50:44Z</time>
  <course>91.31</course>
  <speed>0.99</speed>
  <fix>3d</fix>
</trkpt>
<trkpt lat="40.071705" lon="-105.2295176">
  <ele>1582.99</ele>
  <time>2026-09-02T20:50:44Z</time>
  <course>91.1</course>
  <speed>1.000199980003999</speed>
  <fix>3d</fix>
</trkpt>
<trkpt lat="40.071705" lon="-105.2295201">
  <ele>1582.99</ele>
  <time>2026-09-02T20:50:44Z</time>
  <course>91.31</course>
  <speed>0.99</speed>
  <fix>3d</fix>
</trkpt>
<trkpt lat="40.071705" lon="-105.2295166">
  <ele>1582.99</ele>
  <time>2026-09-02T20:50:44Z</time>
  <course>91.1</course>
  <speed>0.9902019995940222</speed>
  <fix>3d</fix>
</trkpt>
<trkpt lat="40.071705" lon="-105.2295178">
  <ele>1582.99</ele>
  <time>2026-09-02T20:50:44Z</time>
  <course>91.3</course>
  <speed>0.99</speed>
  <fix>3d</fix>
</trkpt>
<trkpt lat="40.071705" lon="-105.2295154">
  <ele>1582.99</ele>
  <time>2026-09-02T20:50:44Z</time>
  <course>91.1</course>
  <speed>1.000199980003999</speed>
  <fix>3d</fix>
</trkpt>
<trkpt lat="40.071705" lon="-105.2295178">
  <ele>1582.99</ele>
  <time>2026-09-02T20:50:44Z</time>
  <course>91.3</course>
  <speed>0.99</speed>
  <fix>3d</fix>
</trkpt>
<trkpt lat="40.071705" lon="-105.2295142">
  <ele>1582.99</ele>
  <time>2026-09-02T20:50:44Z</time>
  <course>91.1</course>
  <speed>1.000199980003999</speed>
  <fix>3d</fix>
</trkpt>
<trkpt lat="40.071705" lon="-105.2295154">
  <ele>1582.99</ele>
  <time>2026-09-02T20:50:44Z</time>
  <course>91.3</course>
  <speed>0.99</speed>
  <fix>3d</fix>
</trkpt>
<trkpt lat="40.071705" lon="-105.229513">
  <ele>1582.99</ele>
  <time>2026-09-02T20:50:44Z</time>
  <course>91.11</course>
  <speed>0.9902019995940222</speed>
  <fix>3d</fix>
</trkpt>
<trkpt lat="40.071705" lon="-105.2295154">
  <ele>1582.99</ele>
  <time>2026-09-02T20:50:44Z</time>
  <course>91.3</course>
  <speed>0.99</speed>
  <fix>3d</fix>
</trkpt>
<trkpt lat="40.071705" lon="-105.2295118">
  <ele>1582.99</ele>
  <time>2026-09-02T20:50:44Z</time>
  <course>91.11</course>
  <speed>0.9902019995940222</speed>
  <fix>3d</fix>
</trkpt>
<trkpt lat="40.071705" lon="-105.229513">
  <ele>1582.99</ele>
  <time>2026-09-02T20:50:44Z</time>
  <course>91.3</course>
  <speed>1.0</speed>
  <fix>3d</fix>
</trkpt>
<trkpt lat="40.0717049" lon="-105.2295108">
  <ele>1582.99</ele>
  <time>2026-09-02T20:50:44Z</time>
  <course>91.11</course>
  <speed>1.000199980003999</speed>
  <fix>3d</fix>
</trkpt>
<trkpt lat="40.071705" lon="-105.229513">
  <ele>1582.99</ele>
  <time>2026-09-02T20:50:44Z</time>
  <course>91.3</course>
  <speed>1.0</speed>
  <fix>3d</fix>
</trkpt>
<trkpt lat="40.0717049" lon="-105.2295096">
  <ele>1582.99</ele>
  <time>2026-09-02T20:50:44Z</time>
  <course>91.11</course>
  <speed>1.000199980003999</speed>
  <fix>3d</fix>
</trkpt>
<trkpt lat="40.0717049" lon="-105.2295107">
  <ele>1582.99</ele>
  <time>2026-09-02T20:50:44Z</time>
  <course>91.31</course>
  <speed>1.0</speed>
  <fix>3d</fix>
</trkpt>
<trkpt lat="40.0717049" lon="-105.2295084">
  <ele>1582.99</ele>
  <time>2026-09-02T20:50:44Z</time>
  <course>91.12</course>
  <speed>1.000199980003999</speed>
  <fix>3d</fix>
</trkpt>
<trkpt lat="40.0717049" lon="-105.2295107">
  <ele>1582.99</ele>
  <time>2026-09-02T20:50:44Z</time>
  <course>91.31</course>
  <speed>1.0</speed>
  <fix>3d</fix>
</trkpt>
<trkpt lat="40.0717049" lon="-105.2295072">
  <ele>1582.99</ele>
  <time>2026-09-02T20:50:44Z</time>
  <course>91.12</course>
  <speed>0.9902019995940222</speed>
  <fix>3d</fix>
</trkpt>
<trkpt lat="40.0717049" lon="-105.2295084">
  <ele>1582.99</ele>
  <time>2026-09-02T20:50:44Z</time>
  <course>91.32</course>
  <speed>1.0</speed>
  <fix>3d</fix>
</trkpt>
<trkpt lat="40.0717049" lon="-105.2295061">
  <ele>1582.99</ele>
  <time>2026-09-02T20:50:44Z</time>
  <course>91.13</course>
  <speed>1.000199980003999</speed>
  <fix>3d</fix>
</trkpt>
<trkpt lat="40.0717049" lon="-105.2295084">
  <ele>1582.99</ele>
  <time>2026-09-02T20:50:44Z</time>
  <course>91.32</course>
  <speed>1.0</speed>
  <fix>3d</fix>
</trkpt>
<trkpt lat="40.0717048" lon="-105.2295046">
  <ele>1582.99</ele>
  <time>2026-09-02T20:50:44Z</time>
  <course>91.13</course>
  <speed>0.9902019995940222</speed>
  <fix>3d</fix>
</trkpt>
<trkpt lat="40.0717048" lon="-105.229506">
  <ele>1582.99</ele>
  <time>2026-09-02T20:50:44Z</time>
  <course>91.33</course>
  <speed>1.0</speed>
  <fix>3d</fix>
</trkpt>
<trkpt lat="40.0717048" lon="-105.2295034">
  <ele>1582.99</ele>
  <time>2026-09-02T20:50:44Z</time>
  <course>91.13</course>
  <speed>1.000199980003999</speed>
  <fix>3d</fix>
</trkpt>
<trkpt lat="40.0717048" lon="-105.229506">
  <ele>1582.99</ele>
  <time>2026-09-02T20:50:44Z</time>
  <course>91.33</course>
  <speed>1.0</speed>
  <fix>3d</fix>
</trkpt>
<trkpt lat="40.0717048" lon="-105.2295022">
  <ele>1582.99</ele>
  <time>2026-09-02T20:50:44Z</time>
  <course>91.13</course>
  <speed>0.9902019995940222</speed>
  <fix>3d</fix>
</trkpt>
<trkpt lat="40.0717048" lon="-105.2295037">
  <ele>1582.99</ele>
  <time>2026-09-02T20:50:44Z</time>
  <course>91.33</course>
  <speed>1.0</speed>
  <fix>3d</fix>
</trkpt>
<trkpt lat="40.0717048" lon="-105.229501">
  <ele>1582.99</ele>
  <time>2026-09-02T20:50:44Z</time>
  <course>91.13</course>
  <speed>1.000199980003999</speed>
  <fix>3d</fix>
</trkpt>
<trkpt lat="40.0717048" lon="-105.2295037">
  <ele>1582.99</ele>
  <time>2026-09-02T20:50:44Z</time>
  <course>91.33</course>
  <speed>1.0</speed>
  <fix>3d</fix>
</trkpt>
<trkpt lat="40.0717047" lon="-105.2295">
  <ele>1582.99</ele>
  <time>2026-09-02T20:50:44Z</time>
  <course>91.14</course>
  <speed>0.9902019995940222</speed>
  <fix>3d</fix>
</trkpt>
<trkpt lat="40.0717048" lon="-105.2295013">
  <ele>1582.99</ele>
  <time>2026-09-02T20:50:44Z</time>
  <course>91.34</course>
  <speed>0.99</speed>
  <fix>3d</fix>
</trkpt>
<trkpt lat="40.0717047" lon="-105.2294988">
  <ele>1582.99</ele>
  <time>2026-09-02T20:50:44Z</time>
  <course>91.14</course>
  <speed>1.000199980003999</speed>
  <fix>3d</fix>
</trkpt>
<trkpt lat="40.0717048" lon="-105.2295013">
  <ele>1582.99</ele>
  <time>2026-09-02T20:50:44Z</time>
  <course>91.34</course>
  <speed>0.99</speed>
  <fix>3d</fix>
</trkpt>
<trkpt lat="40.0717047" lon="-105.2294976">
  <ele>1582.99</ele>
  <time>2026-09-02T20:50:44Z</time>
  <course>91.14</course>
  <speed>1.000199980003999</speed>
  <fix>3d</fix>
</trkpt>
<trkpt lat="40.0717047" lon="-105.2294989">
  <ele>1582.99</ele>
  <time>2026-09-02T20:50:44Z</time>
  <course>91.34</course>
  <speed>1.0</speed>
  <fix>3d</fix>
</trkpt>
<trkpt lat="40.0717047" lon="-105.2294965">
  <ele>1582.99</ele>
  <time>2026-09-02T20:50:44Z</time>
  <course>91.14</course>
  <speed>0.9902019995940222</speed>
  <fix>3d</fix>
</trkpt>
<trkpt lat="40.0717047" lon="-105.2294989">
  <ele>1582.99</ele>
  <time>2026-09-02T20:50:44Z</time>
  <course>91.34</course>
  <speed>1.0</speed>
  <fix>3d</fix>
</trkpt>
<trkpt lat="40.0717047" lon="-105.2294953">
  <ele>1582.99</ele>
  <time>2026-09-02T20:50:44Z</time>
  <course>91.15</course>
  <speed>1.000199980003999</speed>
  <fix>3d</fix>
</trkpt>
<trkpt lat="40.0717047" lon="-105.2294966">
  <ele>1582.99</ele>
  <time>2026-09-02T20:50:44Z</time>
  <course>91.34</course>
  <speed>1.0</speed>
  <fix>3d</fix>
</trkpt>
<trkpt lat="40.0717045" lon="-105.2294941">
  <ele>1582.99</ele>
  <time>2026-09-02T20:50:44Z</time>
  <course>91.15</course>
  <speed>0.9902019995940222</speed>
  <fix>3d</fix>
</trkpt>
<trkpt lat="40.0717047" lon="-105.2294966">
  <ele>1582.99</ele>
  <time>2026-09-02T20:50:44Z</time>
  <course>91.34</course>
  <speed>1.0</speed>
  <fix>3d</fix>
</trkpt>
<trkpt lat="40.0717045" lon="-105.2294929">
  <ele>1582.99</ele>
  <time>2026-09-02T20:50:44Z</time>
  <course>91.14</course>
  <speed>1.000199980003999</speed>
  <fix>3d</fix>
</trkpt>
<trkpt lat="40.0717046" lon="-105.2294943">
  <ele>1582.99</ele>
  <time>2026-09-02T20:50:44Z</time>
  <course>91.34</course>
  <speed>1.0</speed>
  <fix>3d</fix>
</trkpt>
<trkpt lat="40.0717045" lon="-105.2294919">
  <ele>1582.99</ele>
  <time>2026-09-02T20:50:44Z</time>
  <course>91.13</course>
  <speed>0.9902019995940222</speed>
  <fix>3d</fix>
</trkpt>
<trkpt lat="40.0717046" lon="-105.2294943">
  <ele>1582.99</ele>
  <time>2026-09-02T20:50:44Z</time>
  <course>91.34</course>
  <speed>1.0</speed>
  <fix>3d</fix>
</trkpt>
<trkpt lat="40.0717045" lon="-105.2294907">
  <ele>1582.99</ele>
  <time>2026-09-02T20:50:44Z</time>
  <course>91.12</course>
  <speed>1.000199980003999</speed>
  <fix>3d</fix>
</trkpt>
<trkpt lat="40.0717045" lon="-105.2294919">
  <ele>1582.99</ele>
  <time>2026-09-02T20:50:44Z</time>
  <course>91.33</course>
  <speed>1.0</speed>
  <fix>3d</fix>
</trkpt>
<trkpt lat="40.0717045" lon="-105.2294895">
  <ele>1582.99</ele>
  <time>2026-09-02T20:50:44Z</time>
  <course>91.12</course>
  <speed>0.9902019995940222</speed>
  <fix>3d</fix>
</trkpt>
<trkpt lat="40.0717045" lon="-105.2294919">
  <ele>1582.99</ele>
  <time>2026-09-02T20:50:44Z</time>
  <course>91.33</course>
  <speed>1.0</speed>
  <fix>3d</fix>
</trkpt>
<trkpt lat="40.0717044" lon="-105.2294885">
  <ele>1582.99</ele>
  <time>2026-09-02T20:50:44Z</time>
  <course>91.11</course>
  <speed>1.000199980003999</speed>
  <fix>3d</fix>
</trkpt>
<trkpt lat="40.0717045" lon="-105.2294896">
  <ele>1582.99</ele>
  <time>2026-09-02T20:50:44Z</time>
  <course>91.32</course>
  <speed>1.0</speed>
  <fix>3d</fix>
</trkpt>
<trkpt lat="40.0717044" lon="-105.2294872">
  <ele>1582.99</ele>
  <time>2026-09-02T20:50:44Z</time>
  <course>91.11</course>
  <speed>0.9902019995940222</speed>
  <fix>3d</fix>
</trkpt>
<trkpt lat="40.0717045" lon="-105.2294896">
  <ele>1582.99</ele>
  <time>2026-09-02T20:50:44Z</time>
  <course>91.32</course>
  <speed>1.0</speed>
  <fix>3d</fix>
</trkpt>
<trkpt lat="40.0717044" lon="-105.229486">
  <ele>1582.99</ele>
  <time>2026-09-02T20:50:44Z</time>
  <course>91.1</course>
  <speed>1.000199980003999</speed>
  <fix>3d</fix>
</trkpt>
<trkpt lat="40.0717044" lon="-105.2294872">
  <ele>1582.99</ele>
  <time>2026-09-02T20:50:44Z</time>
  <course>91.31</course>
  <speed>1.0</speed>
  <fix>3d</fix>
</trkpt>
<trkpt lat="40.0717044" lon="-105.2294848">
  <ele>1582.99</ele>
  <time>2026-09-02T20:50:44Z</time>
  <course>91.1</course>
  <speed>0.9902019995940222</speed>
  <fix>3d</fix>
</trkpt>
<trkpt lat="40.0717044" lon="-105.2294872">
  <ele>1582.99</ele>
  <time>2026-09-02T20:50:44Z</time>
  <course>91.31</course>
  <speed>1.0</speed>
  <fix>3d</fix>
</trkpt>
<trkpt lat="40.0717044" lon="-105.2294838">
  <ele>1582.99</ele>
  <time>2026-09-02T20:50:44Z</time>
  <course>91.09</course>
  <speed>1.000199980003999</speed>
  <fix>3d</fix>
</trkpt>
<trkpt lat="40.0717044" lon="-105.2294849">
  <ele>1582.99</ele>
  <time>2026-09-02T20:50:44Z</time>
  <course>91.3</course>
  <speed>1.0</speed>
  <fix>3d</fix>
</trkpt>
<trkpt lat="40.0717044" lon="-105.2294826">
  <ele>1582.99</ele>
  <time>2026-09-02T20:50:44Z</time>
  <course>91.09</course>
  <speed>0.9902019995940222</speed>
  <fix>3d</fix>
</trkpt>
<trkpt lat="40.0717044" lon="-105.2294849">
  <ele>1582.99</ele>
  <time>2026-09-02T20:50:44Z</time>
  <course>91.3</course>
  <speed>1.0</speed>
  <fix>3d</fix>
</trkpt>
<trkpt lat="40.0717044" lon="-105.2294814">
  <ele>1582.99</ele>
  <time>2026-09-02T20:50:44Z</time>
  <course>91.09</course>
  <speed>1.000199980003999</speed>
  <fix>3d</fix>
</trkpt>
<trkpt lat="40.0717044" lon="-105.2294826">
  <ele>1582.99</ele>
  <time>2026-09-02T20:50:44Z</time>
  <course>91.29</course>
  <speed>1.0</speed>
  <fix>3d</fix>
</trkpt>
<trkpt lat="40.0717044" lon="-105.22948">
  <ele>1582.99</ele>
  <time>2026-09-02T20:50:44Z</time>
  <course>91.09</course>
  <speed>0.9902019995940222</speed>
  <fix>3d</fix>
</trkpt>
<trkpt lat="40.0717044" lon="-105.2294826">
  <ele>1582.99</ele>
  <time>2026-09-02T20:50:44Z</time>
  <course>91.29</course>
  <speed>1.0</speed>
  <fix>3d</fix>
</trkpt>
<trkpt lat="40.0717044" lon="-105.2294788">
  <ele>1582.99</ele>
  <time>2026-09-02T20:50:44Z</time>
  <course>91.1</course>
  <speed>1.000199980003999</speed>
  <fix>3d</fix>
</trkpt>
<trkpt lat="40.0717044" lon="-105.2294802">
  <ele>1582.99</ele>
  <time>2026-09-02T20:50:44Z</time>
  <course>91.3</course>
  <speed>1.0</speed>
  <fix>3d</fix>
</trkpt>
<trkpt lat="40.0717044" lon="-105.2294776">
  <ele>1582.99</ele>
  <time>2026-09-02T20:50:44Z</time>
  <course>91.1</course>
  <speed>0.9902019995940222</speed>
  <fix>3d</fix>
</trkpt>
<trkpt lat="40.0717044" lon="-105.2294802">
  <ele>1582.99</ele>
  <time>2026-09-02T20:50:44Z</time>
  <course>91.3</course>
  <speed>1.0</speed>
  <fix>3d</fix>
</trkpt>
<trkpt lat="40.0717043" lon="-105.2294764">
  <ele>1582.99</ele>
  <time>2026-09-02T20:50:44Z</time>
  <course>91.11</course>
  <speed>1.000199980003999</speed>
  <fix>3d</fix>
</trkpt>
<trkpt lat="40.0717043" lon="-105.2294778">
  <ele>1582.99</ele>
  <time>2026-09-02T20:50:44Z</time>
  <course>91.3</course>
  <speed>1.0</speed>
  <fix>3d</fix>
</trkpt>
<trkpt lat="40.0717043" lon="-105.2294752">
  <ele>1582.99</ele>
  <time>2026-09-02T20:50:44Z</time>
  <course>91.11</course>
  <speed>0.9902019995940222</speed>
  <fix>3d</fix>
</trkpt>
<trkpt lat="40.0717043" lon="-105.2294778">
  <ele>1582.99</ele>
  <time>2026-09-02T20:50:44Z</time>
  <course>91.3</course>
  <speed>1.0</speed>
  <fix>3d</fix>
</trkpt>
<trkpt lat="40.0717043" lon="-105.2294742">
  <ele>1582.99</ele>
  <time>2026-09-02T20:50:44Z</time>
  <course>91.11</course>
  <speed>1.000199980003999</speed>
  <fix>3d</fix>
</trkpt>
<trkpt lat="40.0717043" lon="-105.2294755">
  <ele>1582.99</ele>
  <time>2026-09-02T20:50:44Z</time>
  <course>91.31</course>
  <speed>1.0</speed>
  <fix>3d</fix>
</trkpt>
<trkpt lat="40.0717043" lon="-105.229473">
  <ele>1582.99</ele>
  <time>2026-09-02T20:50:44Z</time>
  <course>91.11</course>
  <speed>0.9902019995940222</speed>
  <fix>3d</fix>
</trkpt>
<trkpt lat="40.0717043" lon="-105.2294755">
  <ele>1582.99</ele>
  <time>2026-09-02T20:50:44Z</time>
  <course>91.31</course>
  <speed>1.0</speed>
  <fix>3d</fix>
</trkpt>
<trkpt lat="40.0717043" lon="-105.2294718">
  <ele>1582.99</ele>
  <time>2026-09-02T20:50:44Z</time>
  <course>91.12</course>
  <speed>1.000199980003999</speed>
  <fix>3d</fix>
</trkpt>
<trkpt lat="40.0717043" lon="-105.2294732">
  <ele>1582.99</ele>
  <time>2026-09-02T20:50:44Z</time>
  <course>91.31</course>
  <speed>1.0</speed>
  <fix>3d</fix>
</trkpt>
<trkpt lat="40.0717042" lon="-105.2294706">
  <ele>1582.99</ele>
  <time>2026-09-02T20:50:44Z</time>
  <course>91.12</course>
  <speed>0.9902019995940222</speed>
  <fix>3d</fix>
</trkpt>
<trkpt lat="40.0717043" lon="-105.2294732">
  <ele>1582.99</ele>
  <time>2026-09-02T20:50:44Z</time>
  <course>91.31</course>
  <speed>1.0</speed>
  <fix>3d</fix>
</trkpt>
<trkpt lat="40.0717042" lon="-105.2294694">
  <ele>1582.99</ele>
  <time>2026-09-02T20:50:44Z</time>
  <course>91.12</course>
  <speed>1.000199980003999</speed>
  <fix>3d</fix>
</trkpt>
<trkpt lat="40.0717042" lon="-105.2294708">
  <ele>1582.99</ele>
  <time>2026-09-02T20:50:44Z</time>
  <course>91.32</course>
  <speed>1.0</speed>
  <fix>3d</fix>
</trkpt>
<trkpt lat="40.0717042" lon="-105.2294682">
  <ele>1582.99</ele>
  <time>2026-09-02T20:50:44Z</time>
  <course>91.12</course>
  <speed>0.9902019995940222</speed>
  <fix>3d</fix>
</trkpt>
<trkpt lat="40.0717042" lon="-105.2294708">
  <ele>1582.99</ele>
  <time>2026-09-02T20:50:44Z</time>
  <course>91.32</course>
  <speed>1.0</speed>
  <fix>3d</fix>
</trkpt>
<trkpt lat="40.0717042" lon="-105.2294673">
  <ele>1582.99</ele>
  <time>2026-09-02T20:50:44Z</time>
  <course>91.13</course>
  <speed>1.000199980003999</speed>
  <fix>3d</fix>
</trkpt>
<trkpt lat="40.0717042" lon="-105.2294685">
  <ele>1582.99</ele>
  <time>2026-09-02T20:50:44Z</time>
  <course>91.33</course>
  <speed>1.0</speed>
  <fix>3d</fix>
</trkpt>
<trkpt lat="40.0717042" lon="-105.2294661">
  <ele>1582.99</ele>
  <time>2026-09-02T20:50:44Z</time>
  <course>91.13</course>
  <speed>0.9902019995940222</speed>
  <fix>3d</fix>
</trkpt>
<trkpt lat="40.0717042" lon="-105.2294685">
  <ele>1582.99</ele>
  <time>2026-09-02T20:50:44Z</time>
  <course>91.33</course>
  <speed>1.0</speed>
  <fix>3d</fix>
</trkpt>
<trkpt lat="40.0717041" lon="-105.2294649">
  <ele>1582.99</ele>
  <time>2026-09-02T20:50:44Z</time>
  <course>91.13</course>
  <speed>1.000199980003999</speed>
  <fix>3d</fix>
</trkpt>
<trkpt lat="40.0717041" lon="-105.2294661">
  <ele>1582.99</ele>
  <time>2026-09-02T20:50:44Z</time>
  <course>91.33</course>
  <speed>1.0</speed>
  <fix>3d</fix>
</trkpt>
<trkpt lat="40.0717041" lon="-105.2294637">
  <ele>1582.99</ele>
  <time>2026-09-02T20:50:44Z</time>
  <course>91.13</course>
  <speed>0.9902019995940222</speed>
  <fix>3d</fix>
</trkpt>
<trkpt lat="40.0717041" lon="-105.2294661">
  <ele>1582.99</ele>
  <time>2026-09-02T20:50:44Z</time>
  <course>91.33</course>
  <speed>1.0</speed>
  <fix>3d</fix>
</trkpt>
<trkpt lat="40.0717041" lon="-105.2294625">
  <ele>1582.99</ele>
  <time>2026-09-02T20:50:44Z</time>
  <course>91.14</course>
  <speed>1.000199980003999</speed>
  <fix>3d</fix>
</trkpt>
<trkpt lat="40.0717041" lon="-105.2294637">
  <ele>1582.99</ele>
  <time>2026-09-02T20:50:44Z</time>
  <course>91.34</course>
  <speed>1.0</speed>
  <fix>3d</fix>
</trkpt>
<trkpt lat="40.0717041" lon="-105.2294615">
  <ele>1582.99</ele>
  <time>2026-09-02T20:50:44Z</time>
  <course>91.14</course>
  <speed>0.9902019995940222</speed>
  <fix>3d</fix>
</trkpt>
<trkpt lat="40.0717041" lon="-105.2294637">
  <ele>1582.99</ele>
  <time>2026-09-02T20:50:44Z</time>
  <course>91.34</course>
  <speed>1.0</speed>
  <fix>3d</fix>
</trkpt>
<trkpt lat="40.0717039" lon="-105.2294603">
  <ele>1582.99</ele>
  <time>2026-09-02T20:50:44Z</time>
  <course>91.14</course>
  <speed>1.000199980003999</speed>
  <fix>3d</fix>
</trkpt>
<trkpt lat="40.071704" lon="-105.2294614">
  <ele>1582.99</ele>
  <time>2026-09-02T20:50:44Z</time>
  <course>91.34</course>
  <speed>1.0</speed>
  <fix>3d</fix>
</trkpt>
<trkpt lat="40.0717039" lon="-105.2294591">
  <ele>1582.99</ele>
  <time>2026-09-02T20:50:44Z</time>
  <course>91.13</course>
  <speed>0.9902019995940222</speed>
  <fix>3d</fix>
</trkpt>
<trkpt lat="40.071704" lon="-105.2294614">
  <ele>1582.99</ele>
  <time>2026-09-02T20:50:44Z</time>
  <course>91.34</course>
  <speed>1.0</speed>
  <fix>3d</fix>
</trkpt>
<trkpt lat="40.0717039" lon="-105.2294579">
  <ele>1582.99</ele>
  <time>2026-09-02T20:50:44Z</time>
  <course>91.13</course>
  <speed>1.000199980003999</speed>
  <fix>3d</fix>
</trkpt>
<trkpt lat="40.0717039" lon="-105.2294591">
  <ele>1582.99</ele>
  <time>2026-09-02T20:50:44Z</time>
  <course>91.34</course>
  <speed>1.0</speed>
  <fix>3d</fix>
</trkpt>
<trkpt lat="40.0717039" lon="-105.2294568">
  <ele>1582.99</ele>
  <time>2026-09-02T20:50:44Z</time>
  <course>91.12</course>
  <speed>0.9902019995940222</speed>
  <fix>3d</fix>
</trkpt>
<trkpt lat="40.0717039" lon="-105.2294591">
  <ele>1582.99</ele>
  <time>2026-09-02T20:50:44Z</time>
  <course>91.34</course>
  <speed>1.0</speed>
  <fix>3d</fix>
</trkpt>
<trkpt lat="40.0717039" lon="-105.2294553">
  <ele>1582.99</ele>
  <time>2026-09-02T20:50:44Z</time>
  <course>91.11</course>
  <speed>0.9902019995940222</speed>
  <fix>3d</fix>
</trkpt>
<trkpt lat="40.0717039" lon="-105.2294568">
  <ele>1582.99</ele>
  <time>2026-09-02T20:50:44Z</time>
  <course>91.33</course>
  <speed>1.0</speed>
  <fix>3d</fix>
</trkpt>
<trkpt lat="40.0717038" lon="-105.2294541">
  <ele>1582.99</ele>
  <time>2026-09-02T20:50:44Z</time>
  <course>91.11</course>
  <speed>0.9902019995940222</speed>
  <fix>3d</fix>
</trkpt>
<trkpt lat="40.0717039" lon="-105.2294568">
  <ele>1582.99</ele>
  <time>2026-09-02T20:50:44Z</time>
  <course>91.33</course>
  <speed>1.0</speed>
  <fix>3d</fix>
</trkpt>
<trkpt lat="40.0717038" lon="-105.2294529">
  <ele>1582.99</ele>
  <time>2026-09-02T20:50:44Z</time>
  <course>91.1</course>
  <speed>0.9902019995940222</speed>
  <fix>3d</fix>
</trkpt>
<trkpt lat="40.0717039" lon="-105.2294544">
  <ele>1582.99</ele>
  <time>2026-09-02T20:50:44Z</time>
  <course>91.31</course>
  <speed>1.0</speed>
  <fix>3d</fix>
</trkpt>
<trkpt lat="40.0717038" lon="-105.2294519">
  <ele>1582.99</ele>
  <time>2026-09-02T20:50:44Z</time>
  <course>91.1</course>
  <speed>1.000199980003999</speed>
  <fix>3d</fix>
</trkpt>
<trkpt lat="40.0717039" lon="-105.2294544">
  <ele>1582.99</ele>
  <time>2026-09-02T20:50:44Z</time>
  <course>91.31</course>
  <speed>1.0</speed>
  <fix>3d</fix>
</trkpt>
<trkpt lat="40.0717038" lon="-105.2294507">
  <ele>1582.99</ele>
  <time>2026-09-02T20:50:44Z</time>
  <course>91.1</course>
  <speed>1.000199980003999</speed>
  <fix>3d</fix>
</trkpt>
<trkpt lat="40.0717038" lon="-105.229452">
  <ele>1582.99</ele>
  <time>2026-09-02T20:50:44Z</time>
  <course>91.3</course>
  <speed>1.0</speed>
  <fix>3d</fix>
</trkpt>
<trkpt lat="40.0717038" lon="-105.2294495">
  <ele>1582.99</ele>
  <time>2026-09-02T20:50:44Z</time>
  <course>91.09</course>
  <speed>1.000199980003999</speed>
  <fix>3d</fix>
</trkpt>
<trkpt lat="40.0717038" lon="-105.229452">
  <ele>1582.99</ele>
  <time>2026-09-02T20:50:44Z</time>
  <course>91.3</course>
  <speed>1.0</speed>
  <fix>3d</fix>
</trkpt>
<trkpt lat="40.0717038" lon="-105.2294483">
  <ele>1582.99</ele>
  <time>2026-09-02T20:50:44Z</time>
  <course>91.09</course>
  <speed>0.9902019995940222</speed>
  <fix>3d</fix>
</trkpt>
<trkpt lat="40.0717038" lon="-105.2294497">
  <ele>1582.99</ele>
  <time>2026-09-02T20:50:44Z</time>
  <course>91.3</course>
  <speed>0.99</speed>
  <fix>3d</fix>
</trkpt>
<trkpt lat="40.0717038" lon="-105.2294472">
  <ele>1582.99</ele>
  <time>2026-09-02T20:50:44Z</time>
  <course>91.09</course>
  <speed>1.000199980003999</speed>
  <fix>3d</fix>
</trkpt>
<trkpt lat="40.0717038" lon="-105.2294497">
  <ele>1582.99</ele>
  <time>2026-09-02T20:50:44Z</time>
  <course>91.3</course>
  <speed>0.99</speed>
  <fix>3d</fix>
</trkpt>
<trkpt lat="40.0717038" lon="-105.229446">
  <ele>1582.99</ele>
  <time>2026-09-02T20:50:44Z</time>
  <course>91.09</course>
  <speed>0.9902019995940222</speed>
  <fix>3d</fix>
</trkpt>
<trkpt lat="40.0717038" lon="-105.2294474">
  <ele>1582.99</ele>
  <time>2026-09-02T20:50:44Z</time>
  <course>91.3</course>
  <speed>0.99</speed>
  <fix>3d</fix>
</trkpt>
<trkpt lat="40.0717038" lon="-105.2294448">
  <ele>1582.99</ele>
  <time>2026-09-02T20:50:44Z</time>
  <course>91.1</course>
  <speed>1.000199980003999</speed>
  <fix>3d</fix>
</trkpt>
<trkpt lat="40.0717038" lon="-105.2294474">
  <ele>1582.99</ele>
  <time>2026-09-02T20:50:44Z</time>
  <course>91.3</course>
  <speed>0.99</speed>
  <fix>3d</fix>
</trkpt>
<trkpt lat="40.0717038" lon="-105.2294436">
  <ele>1582.99</ele>
  <time>2026-09-02T20:50:44Z</time>
  <course>91.1</course>
  <speed>0.9902019995940222</speed>
  <fix>3d</fix>
</trkpt>
<trkpt lat="40.0717038" lon="-105.229445">
  <ele>1582.99</ele>
  <time>2026-09-02T20:50:44Z</time>
  <course>91.3</course>
  <speed>0.99</speed>
  <fix>3d</fix>
</trkpt>
<trkpt lat="40.0717037" lon="-105.2294426">
  <ele>1582.99</ele>
  <time>2026-09-02T20:50:44Z</time>
  <course>91.1</course>
  <speed>1.000199980003999</speed>
  <fix>3d</fix>
</trkpt>
<trkpt lat="40.0717038" lon="-105.229445">
  <ele>1582.99</ele>
  <time>2026-09-02T20:50:44Z</time>
  <course>91.3</course>
  <speed>0.99</speed>
  <fix>3d</fix>
</trkpt>
<trkpt lat="40.0717037" lon="-105.2294414">
  <ele>1582.99</ele>
  <time>2026-09-02T20:50:44Z</time>
  <course>91.1</course>
  <speed>1.000199980003999</speed>
  <fix>3d</fix>
</trkpt>
<trkpt lat="40.0717037" lon="-105.2294426">
  <ele>1582.99</ele>
  <time>2026-09-02T20:50:44Z</time>
  <course>91.31</course>
  <speed>0.99</speed>
  <fix>3d</fix>
</trkpt>
<trkpt lat="40.0717037" lon="-105.2294402">
  <ele>1582.99</ele>
  <time>2026-09-02T20:50:44Z</time>
  <course>91.11</course>
  <speed>0.9902019995940222</speed>
  <fix>3d</fix>
</trkpt>
<trkpt lat="40.0717037" lon="-105.2294426">
  <ele>1582.99</ele>
  <time>2026-09-02T20:50:44Z</time>
  <course>91.31</course>
  <speed>0.99</speed>
  <fix>3d</fix>
</trkpt>
<trkpt lat="40.0717037" lon="-105.2294392">
  <ele>1582.99</ele>
  <time>2026-09-02T20:50:44Z</time>
  <course>91.11</course>
  <speed>1.000199980003999</speed>
  <fix>3d</fix>
</trkpt>
<trkpt lat="40.0717037" lon="-105.2294403">
  <ele>1582.99</ele>
  <time>2026-09-02T20:50:44Z</time>
  <course>91.32</course>
  <speed>1.0</speed>
  <fix>3d</fix>
</trkpt>
<trkpt lat="40.0717037" lon="-105.229438">
  <ele>1582.99</ele>
  <time>2026-09-02T20:50:44Z</time>
  <course>91.12</course>
  <speed>0.9902019995940222</speed>
  <fix>3d</fix>
</trkpt>
<trkpt lat="40.0717037" lon="-105.2294403">
  <ele>1582.99</ele>
  <time>2026-09-02T20:50:44Z</time>
  <course>91.32</course>
  <speed>1.0</speed>
  <fix>3d</fix>
</trkpt>
<trkpt lat="40.0717036" lon="-105.2294368">
  <ele>1582.99</ele>
  <time>2026-09-02T20:50:44Z</time>
  <course>91.12</course>
  <speed>1.000199980003999</speed>
  <fix>3d</fix>
</trkpt>
<trkpt lat="40.0717036" lon="-105.229438">
  <ele>1582.99</ele>
  <time>2026-09-02T20:50:44Z</time>
  <course>91.32</course>
  <speed>1.0</speed>
  <fix>3d</fix>
</trkpt>
<trkpt lat="40.0717036" lon="-105.2294357">
  <ele>1582.99</ele>
  <time>2026-09-02T20:50:44Z</time>
  <course>91.12</course>
  <speed>0.9902019995940222</speed>
  <fix>3d</fix>
</trkpt>
<trkpt lat="40.0717036" lon="-105.229438">
  <ele>1582.99</ele>
  <time>2026-09-02T20:50:44Z</time>
  <course>91.32</course>
  <speed>1.0</speed>
  <fix>3d</fix>
</trkpt>
<trkpt lat="40.0717036" lon="-105.2294345">
  <ele>1582.99</ele>
  <time>2026-09-02T20:50:44Z</time>
  <course>91.12</course>
  <speed>1.000199980003999</speed>
  <fix>3d</fix>
</trkpt>
<trkpt lat="40.0717036" lon="-105.2294356">
  <ele>1582.99</ele>
  <time>2026-09-02T20:50:44Z</time>
  <course>91.33</course>
  <speed>1.0</speed>
  <fix>3d</fix>
</trkpt>
<trkpt lat="40.0717036" lon="-105.2294333">
  <ele>1582.99</ele>
  <time>2026-09-02T20:50:44Z</time>
  <course>91.12</course>
  <speed>0.9902019995940222</speed>
  <fix>3d</fix>
</trkpt>
<trkpt lat="40.0717036" lon="-105.2294356">
  <ele>1582.99</ele>
  <time>2026-09-02T20:50:44Z</time>
  <course>91.33</course>
  <speed>1.0</speed>
  <fix>3d</fix>
</trkpt>
<trkpt lat="40.0717035" lon="-105.2294321">
  <ele>1582.99</ele>
  <time>2026-09-02T20:50:44Z</time>
  <course>91.13</course>
  <speed>1.000199980003999</speed>
  <fix>3d</fix>
</trkpt>
<trkpt lat="40.0717035" lon="-105.2294333">
  <ele>1582.99</ele>
  <time>2026-09-02T20:50:44Z</time>
  <course>91.33</course>
  <speed>1.0</speed>
  <fix>3d</fix>
</trkpt>
<trkpt lat="40.0717035" lon="-105.2294307">
  <ele>1582.99</ele>
  <time>2026-09-02T20:50:44Z</time>
  <course>91.13</course>
  <speed>0.9902019995940222</speed>
  <fix>3d</fix>
</trkpt>
<trkpt lat="40.0717035" lon="-105.2294333">
  <ele>1582.99</ele>
  <time>2026-09-02T20:50:44Z</time>
  <course>91.33</course>
  <speed>1.0</speed>
  <fix>3d</fix>
</trkpt>
<trkpt lat="40.0717035" lon="-105.2294295">
  <ele>1582.99</ele>
  <time>2026-09-02T20:50:44Z</time>
  <course>91.13</course>
  <speed>1.000199980003999</speed>
  <fix>3d</fix>
</trkpt>
<trkpt lat="40.0717035" lon="-105.2294309">
  <ele>1582.99</ele>
  <time>2026-09-02T20:50:45Z</time>
  <course>91.34</course>
  <speed>1.0</speed>
  <fix>3d</fix>
</trkpt>
<trkpt lat="40.0717035" lon="-105.2294283">
  <ele>1582.99</ele>
  <time>2026-09-02T20:50:45Z</time>
  <course>91.13</course>
  <speed>1.000199980003999</speed>
  <fix>3d</fix>
</trkpt>
<trkpt lat="40.0717035" lon="-105.2294309">
  <ele>1582.99</ele>
  <time>2026-09-02T20:50:45Z</time>
  <course>91.34</course>
  <speed>1.0</speed>
  <fix>3d</fix>
</trkpt>
<trkpt lat="40.0717035" lon="-105.2294271">
  <ele>1582.99</ele>
  <time>2026-09-02T20:50:45Z</time>
  <course>91.14</course>
  <speed>1.000199980003999</speed>
  <fix>3d</fix>
</trkpt>
<trkpt lat="40.0717035" lon="-105.2294285">
  <ele>1582.99</ele>
  <time>2026-09-02T20:50:45Z</time>
  <course>91.34</course>
  <speed>1.0</speed>
  <fix>3d</fix>
</trkpt>
<trkpt lat="40.0717033" lon="-105.2294259">
  <ele>1582.99</ele>
  <time>2026-09-02T20:50:45Z</time>
  <course>91.14</course>
  <speed>0.9902019995940222</speed>
  <fix>3d</fix>
</trkpt>
<trkpt lat="40.0717035" lon="-105.2294285">
  <ele>1582.99</ele>
  <time>2026-09-02T20:50:45Z</time>
  <course>91.34</course>
  <speed>1.0</speed>
  <fix>3d</fix>
</trkpt>
<trkpt lat="40.0717033" lon="-105.2294249">
  <ele>1582.99</ele>
  <time>2026-09-02T20:50:45Z</time>
  <course>91.13</course>
  <speed>1.000199980003999</speed>
  <fix>3d</fix>
</trkpt>
<trkpt lat="40.0717034" lon="-105.2294262">
  <ele>1582.99</ele>
  <time>2026-09-02T20:50:45Z</time>
  <course>91.34</course>
  <speed>1.0</speed>
  <fix>3d</fix>
</trkpt>
<trkpt lat="40.0717033" lon="-105.2294237">
  <ele>1582.99</ele>
  <time>2026-09-02T20:50:45Z</time>
  <course>91.12</course>
  <speed>0.9902019995940222</speed>
  <fix>3d</fix>
</trkpt>
<trkpt lat="40.0717034" lon="-105.2294262">
  <ele>1582.99</ele>
  <time>2026-09-02T20:50:45Z</time>
  <course>91.34</course>
  <speed>1.0</speed>
  <fix>3d</fix>
</trkpt>
<trkpt lat="40.0717033" lon="-105.2294225">
  <ele>1582.99</ele>
  <time>2026-09-02T20:50:45Z</time>
  <course>91.12</course>
  <speed>1.000199980003999</speed>
  <fix>3d</fix>
</trkpt>
<trkpt lat="40.0717033" lon="-105.2294239">
  <ele>1582.99</ele>
  <time>2026-09-02T20:50:45Z</time>
  <course>91.34</course>
  <speed>1.0</speed>
  <fix>3d</fix>
</trkpt>
<trkpt lat="40.0717033" lon="-105.2294213">
  <ele>1582.99</ele>
  <time>2026-09-02T20:50:45Z</time>
  <course>91.12</course>
  <speed>0.9902019995940222</speed>
  <fix>3d</fix>
</trkpt>
<trkpt lat="40.0717033" lon="-105.2294239">
  <ele>1582.99</ele>
  <time>2026-09-02T20:50:45Z</time>
  <course>91.34</course>
  <speed>1.0</speed>
  <fix>3d</fix>
</trkpt>
<trkpt lat="40.0717032" lon="-105.2294201">
  <ele>1582.99</ele>
  <time>2026-09-02T20:50:45Z</time>
  <course>91.11</course>
  <speed>1.000199980003999</speed>
  <fix>3d</fix>
</trkpt>
<trkpt lat="40.0717033" lon="-105.2294215">
  <ele>1582.99</ele>
  <time>2026-09-02T20:50:45Z</time>
  <course>91.33</course>
  <speed>1.0</speed>
  <fix>3d</fix>
</trkpt>
<trkpt lat="40.0717032" lon="-105.2294189">
  <ele>1582.99</ele>
  <time>2026-09-02T20:50:45Z</time>
  <course>91.1</course>
  <speed>0.9902019995940222</speed>
  <fix>3d</fix>
</trkpt>
<trkpt lat="40.0717033" lon="-105.2294215">
  <ele>1582.99</ele>
  <time>2026-09-02T20:50:45Z</time>
  <course>91.33</course>
  <speed>1.0</speed>
  <fix>3d</fix>
</trkpt>
<trkpt lat="40.0717032" lon="-105.229418">
  <ele>1582.99</ele>
  <time>2026-09-02T20:50:45Z</time>
  <course>91.1</course>
  <speed>1.000199980003999</speed>
  <fix>3d</fix>
</trkpt>
<trkpt lat="40.0717032" lon="-105.2294192">
  <ele>1582.99</ele>
  <time>2026-09-02T20:50:45Z</time>
  <course>91.32</course>
  <speed>1.0</speed>
  <fix>3d</fix>
</trkpt>
<trkpt lat="40.0717032" lon="-105.2294168">
  <ele>1582.99</ele>
  <time>2026-09-02T20:50:45Z</time>
  <course>91.09</course>
  <speed>0.9902019995940222</speed>
  <fix>3d</fix>
</trkpt>
<trkpt lat="40.0717032" lon="-105.2294192">
  <ele>1582.99</ele>
  <time>2026-09-02T20:50:45Z</time>
  <course>91.32</course>
  <speed>1.0</speed>
  <fix>3d</fix>
</trkpt>
<trkpt lat="40.0717032" lon="-105.2294156">
  <ele>1582.99</ele>
  <time>2026-09-02T20:50:45Z</time>
  <course>91.09</course>
  <speed>1.000199980003999</speed>
  <fix>3d</fix>
</trkpt>
<trkpt lat="40.0717032" lon="-105.2294168">
  <ele>1582.99</ele>
  <time>2026-09-02T20:50:45Z</time>
  <course>91.31</course>
  <speed>1.0</speed>
  <fix>3d</fix>
</trkpt>
<trkpt lat="40.0717031" lon="-105.2294144">
  <ele>1582.99</ele>
  <time>2026-09-02T20:50:45Z</time>
  <course>91.09</course>
  <speed>0.9902019995940222</speed>
  <fix>3d</fix>
</trkpt>
<trkpt lat="40.0717032" lon="-105.2294168">
  <ele>1582.99</ele>
  <time>2026-09-02T20:50:45Z</time>
  <course>91.31</course>
  <speed>1.0</speed>
  <fix>3d</fix>
</trkpt>
<trkpt lat="40.0717031" lon="-105.2294134">
  <ele>1582.99</ele>
  <time>2026-09-02T20:50:45Z</time>
  <course>91.08</course>
  <speed>1.000199980003999</speed>
  <fix>3d</fix>
</trkpt>
<trkpt lat="40.0717032" lon="-105.2294145">
  <ele>1582.99</ele>
  <time>2026-09-02T20:50:45Z</time>
  <course>91.3</course>
  <speed>1.0</speed>
  <fix>3d</fix>
</trkpt>
<trkpt lat="40.0717031" lon="-105.2294122">
  <ele>1582.99</ele>
  <time>2026-09-02T20:50:45Z</time>
  <course>91.07</course>
  <speed>0.9902019995940222</speed>
  <fix>3d</fix>
</trkpt>
<trkpt lat="40.0717032" lon="-105.2294145">
  <ele>1582.99</ele>
  <time>2026-09-02T20:50:45Z</time>
  <course>91.3</course>
  <speed>1.0</speed>
  <fix>3d</fix>
</trkpt>
<trkpt lat="40.0717031" lon="-105.229411">
  <ele>1582.99</ele>
  <time>2026-09-02T20:50:45Z</time>
  <course>91.07</course>
  <speed>1.000199980003999</speed>
  <fix>3d</fix>
</trkpt>
<trkpt lat="40.0717031" lon="-105.2294122">
  <ele>1582.99</ele>
  <time>2026-09-02T20:50:45Z</time>
  <course>91.29</course>
  <speed>1.0</speed>
  <fix>3d</fix>
</trkpt>
<trkpt lat="40.0717031" lon="-105.2294098">
  <ele>1582.99</ele>
  <time>2026-09-02T20:50:45Z</time>
  <course>91.07</course>
  <speed>0.9902019995940222</speed>
  <fix>3d</fix>
</trkpt>
<trkpt lat="40.0717031" lon="-105.2294122">
  <ele>1582.99</ele>
  <time>2026-09-02T20:50:45Z</time>
  <course>91.29</course>
  <speed>1.0</speed>
  <fix>3d</fix>
</trkpt>
<trkpt lat="40.0717031" lon="-105.2294086">
  <ele>1582.99</ele>
  <time>2026-09-02T20:50:45Z</time>
  <course>91.07</course>
  <speed>1.000199980003999</speed>
  <fix>3d</fix>
</trkpt>
<trkpt lat="40.0717031" lon="-105.2294098">
  <ele>1582.99</ele>
  <time>2026-09-02T20:50:45Z</time>
  <course>91.28</course>
  <speed>1.0</speed>
  <fix>3d</fix>
</trkpt>
<trkpt lat="40.0717031" lon="-105.2294072">
  <ele>1582.99</ele>
  <time>2026-09-02T20:50:45Z</time>
  <course>91.07</course>
  <speed>0.9902019995940222</speed>
  <fix>3d</fix>
</trkpt>
<trkpt lat="40.0717031" lon="-105.2294098">
  <ele>1582.99</ele>
  <time>2026-09-02T20:50:45Z</time>
  <course>91.28</course>
  <speed>1.0</speed>
  <fix>3d</fix>
</trkpt>
<trkpt lat="40.0717031" lon="-105.229406">
  <ele>1582.99</ele>
  <time>2026-09-02T20:50:45Z</time>
  <course>91.08</course>
  <speed>1.000199980003999</speed>
  <fix>3d</fix>
</trkpt>
<trkpt lat="40.0717031" lon="-105.2294074">
  <ele>1582.99</ele>
  <time>2026-09-02T20:50:45Z</time>
  <course>91.29</course>
  <speed>1.0</speed>
  <fix>3d</fix>
</trkpt>
<trkpt lat="40.0717031" lon="-105.2294048">
  <ele>1582.99</ele>
  <time>2026-09-02T20:50:45Z</time>
  <course>91.09</course>
  <speed>0.9902019995940222</speed>
  <fix>3d</fix>
</trkpt>
<trkpt lat="40.0717031" lon="-105.2294074">
  <ele>1582.99</ele>
  <time>2026-09-02T20:50:45Z</time>
  <course>91.29</course>
  <speed>1.0</speed>
  <fix>3d</fix>
</trkpt>
<trkpt lat="40.071703" lon="-105.2294036">
  <ele>1582.99</ele>
  <time>2026-09-02T20:50:45Z</time>
  <course>91.09</course>
  <speed>1.000199980003999</speed>
  <fix>3d</fix>
</trkpt>
<trkpt lat="40.0717031" lon="-105.2294051">
  <ele>1582.99</ele>
  <time>2026-09-02T20:50:45Z</time>
  <course>91.3</course>
  <speed>1.0</speed>
  <fix>3d</fix>
</trkpt>
<trkpt lat="40.071703" lon="-105.2294026">
  <ele>1582.99</ele>
  <time>2026-09-02T20:50:45Z</time>
  <course>91.09</course>
  <speed>1.000199980003999</speed>
  <fix>3d</fix>
</trkpt>
<trkpt lat="40.0717031" lon="-105.2294051">
  <ele>1582.99</ele>
  <time>2026-09-02T20:50:45Z</time>
  <course>91.3</course>
  <speed>1.0</speed>
  <fix>3d</fix>
</trkpt>
<trkpt lat="40.071703" lon="-105.2294014">
  <ele>1582.99</ele>
  <time>2026-09-02T20:50:45Z</time>
  <course>91.09</course>
  <speed>1.000199980003999</speed>
  <fix>3d</fix>
</trkpt>
<trkpt lat="40.071703" lon="-105.2294027">
  <ele>1582.99</ele>
  <time>2026-09-02T20:50:45Z</time>
  <course>91.31</course>
  <speed>1.0</speed>
  <fix>3d</fix>
</trkpt>
<trkpt lat="40.071703" lon="-105.2294002">
  <ele>1582.99</ele>
  <time>2026-09-02T20:50:45Z</time>
  <course>91.1</course>
  <speed>1.000199980003999</speed>
  <fix>3d</fix>
</trkpt>
<trkpt lat="40.071703" lon="-105.2294027">
  <ele>1582.99</ele>
  <time>2026-09-02T20:50:45Z</time>
  <course>91.31</course>
  <speed>1.0</speed>
  <fix>3d</fix>
</trkpt>
<trkpt lat="40.071703" lon="-105.229399">
  <ele>1582.99</ele>
  <time>2026-09-02T20:50:45Z</time>
  <course>91.1</course>
  <speed>1.000199980003999</speed>
  <fix>3d</fix>
</trkpt>
<trkpt lat="40.071703" lon="-105.2294004">
  <ele>1582.99</ele>
  <time>2026-09-02T20:50:45Z</time>
  <course>91.31</course>
  <speed>0.99</speed>
  <fix>3d</fix>
</trkpt>
<trkpt lat="40.0717029" lon="-105.2293979">
  <ele>1582.99</ele>
  <time>2026-09-02T20:50:45Z</time>
  <course>91.11</course>
  <speed>0.9902019995940222</speed>
  <fix>3d</fix>
</trkpt>
<trkpt lat="40.071703" lon="-105.2294004">
  <ele>1582.99</ele>
  <time>2026-09-02T20:50:45Z</time>
  <course>91.31</course>
  <speed>0.99</speed>
  <fix>3d</fix>
</trkpt>
<trkpt lat="40.0717029" lon="-105.2293967">
  <ele>1582.99</ele>
  <time>2026-09-02T20:50:45Z</time>
  <course>91.11</course>
  <speed>1.000199980003999</speed>
  <fix>3d</fix>
</trkpt>
<trkpt lat="40.0717029" lon="-105.2293981">
  <ele>1582.99</ele>
  <time>2026-09-02T20:50:45Z</time>
  <course>91.32</course>
  <speed>0.99</speed>
  <fix>3d</fix>
</trkpt>
<trkpt lat="40.0717029" lon="-105.2293955">
  <ele>1582.99</ele>
  <time>2026-09-02T20:50:45Z</time>
  <course>91.11</course>
  <speed>1.000199980003999</speed>
  <fix>3d</fix>
</trkpt>
<trkpt lat="40.0717029" lon="-105.2293981">
  <ele>1582.99</ele>
  <time>2026-09-02T20:50:45Z</time>
  <course>91.32</course>
  <speed>0.99</speed>
  <fix>3d</fix>
</trkpt>
<trkpt lat="40.0717029" lon="-105.2293945">
  <ele>1582.99</ele>
  <time>2026-09-02T20:50:45Z</time>
  <course>91.11</course>
  <speed>0.9902019995940222</speed>
  <fix>3d</fix>
</trkpt>
<trkpt lat="40.0717029" lon="-105.2293957">
  <ele>1582.99</ele>
  <time>2026-09-02T20:50:45Z</time>
  <course>91.33</course>
  <speed>0.99</speed>
  <fix>3d</fix>
</trkpt>
<trkpt lat="40.0717029" lon="-105.2293933">
  <ele>1582.99</ele>
  <time>2026-09-02T20:50:45Z</time>
  <course>91.12</course>
  <speed>1.000199980003999</speed>
  <fix>3d</fix>
</trkpt>
<trkpt lat="40.0717029" lon="-105.2293957">
  <ele>1582.99</ele>
  <time>2026-09-02T20:50:45Z</time>
  <course>91.33</course>
  <speed>0.99</speed>
  <fix>3d</fix>
</trkpt>
<trkpt lat="40.0717028" lon="-105.2293921">
  <ele>1582.99</ele>
  <time>2026-09-02T20:50:45Z</time>
  <course>91.12</course>
  <speed>0.9902019995940222</speed>
  <fix>3d</fix>
</trkpt>
<trkpt lat="40.0717028" lon="-105.2293933">
  <ele>1582.99</ele>
  <time>2026-09-02T20:50:45Z</time>
  <course>91.33</course>
  <speed>0.99</speed>
  <fix>3d</fix>
</trkpt>
<trkpt lat="40.0717028" lon="-105.2293911">
  <ele>1582.99</ele>
  <time>2026-09-02T20:50:45Z</time>
  <course>91.12</course>
  <speed>1.000199980003999</speed>
  <fix>3d</fix>
</trkpt>
<trkpt lat="40.0717028" lon="-105.2293933">
  <ele>1582.99</ele>
  <time>2026-09-02T20:50:45Z</time>
  <course>91.33</course>
  <speed>0.99</speed>
  <fix>3d</fix>
</trkpt>
<trkpt lat="40.0717028" lon="-105.2293899">
  <ele>1582.99</ele>
  <time>2026-09-02T20:50:45Z</time>
  <course>91.12</course>
  <speed>0.9902019995940222</speed>
  <fix>3d</fix>
</trkpt>
<trkpt lat="40.0717028" lon="-105.229391">
  <ele>1582.99</ele>
  <time>2026-09-02T20:50:45Z</time>
  <course>91.34</course>
  <speed>0.99</speed>
  <fix>3d</fix>
</trkpt>
<trkpt lat="40.0717028" lon="-105.2293887">
  <ele>1582.99</ele>
  <time>2026-09-02T20:50:45Z</time>
  <course>91.13</course>
  <speed>1.000199980003999</speed>
  <fix>3d</fix>
</trkpt>
<trkpt lat="40.0717028" lon="-105.229391">
  <ele>1582.99</ele>
  <time>2026-09-02T20:50:45Z</time>
  <course>91.34</course>
  <speed>0.99</speed>
  <fix>3d</fix>
</trkpt>
<trkpt lat="40.0717028" lon="-105.2293875">
  <ele>1582.99</ele>
  <time>2026-09-02T20:50:45Z</time>
  <course>91.13</course>
  <speed>0.9902019995940222</speed>
  <fix>3d</fix>
</trkpt>
<trkpt lat="40.0717028" lon="-105.2293887">
  <ele>1582.99</ele>
  <time>2026-09-02T20:50:45Z</time>
  <course>91.34</course>
  <speed>0.99</speed>
  <fix>3d</fix>
</trkpt>
<trkpt lat="40.0717026" lon="-105.2293864">
  <ele>1582.99</ele>
  <time>2026-09-02T20:50:45Z</time>
  <course>91.13</course>
  <speed>1.000199980003999</speed>
  <fix>3d</fix>
</trkpt>
<trkpt lat="40.0717028" lon="-105.2293887">
  <ele>1582.99</ele>
  <time>2026-09-02T20:50:45Z</time>
  <course>91.34</course>
  <speed>0.99</speed>
  <fix>3d</fix>
</trkpt>
<trkpt lat="40.0717026" lon="-105.2293852">
  <ele>1582.99</ele>
  <time>2026-09-02T20:50:45Z</time>
  <course>91.12</course>
  <speed>0.9902019995940222</speed>
  <fix>3d</fix>
</trkpt>
<trkpt lat="40.0717027" lon="-105.2293863">
  <ele>1582.99</ele>
  <time>2026-09-02T20:50:45Z</time>
  <course>91.34</course>
  <speed>0.99</speed>
  <fix>3d</fix>
</trkpt>
<trkpt lat="40.0717026" lon="-105.229384">
  <ele>1582.99</ele>
  <time>2026-09-02T20:50:45Z</time>
  <course>91.11</course>
  <speed>1.000199980003999</speed>
  <fix>3d</fix>
</trkpt>
<trkpt lat="40.0717027" lon="-105.2293863">
  <ele>1582.99</ele>
  <time>2026-09-02T20:50:45Z</time>
  <course>91.34</course>
  <speed>0.99</speed>
  <fix>3d</fix>
</trkpt>
<trkpt lat="40.0717026" lon="-105.2293825">
  <ele>1582.99</ele>
  <time>2026-09-02T20:50:45Z</time>
  <course>91.11</course>
  <speed>1.000199980003999</speed>
  <fix>3d</fix>
</trkpt>
<trkpt lat="40.0717026" lon="-105.229384">
  <ele>1582.99</ele>
  <time>2026-09-02T20:50:45Z</time>
  <course>91.33</course>
  <speed>0.99</speed>
  <fix>3d</fix>
</trkpt>
<trkpt lat="40.0717026" lon="-105.2293814">
  <ele>1582.99</ele>
  <time>2026-09-02T20:50:45Z</time>
  <course>91.11</course>
  <speed>1.000199980003999</speed>
  <fix>3d</fix>
</trkpt>
<trkpt lat="40.0717026" lon="-105.229384">
  <ele>1582.99</ele>
  <time>2026-09-02T20:50:45Z</time>
  <course>91.33</course>
  <speed>0.99</speed>
  <fix>3d</fix>
</trkpt>
<trkpt lat="40.0717025" lon="-105.2293802">
  <ele>1582.99</ele>
  <time>2026-09-02T20:50:45Z</time>
  <course>91.1</course>
  <speed>0.9902019995940222</speed>
  <fix>3d</fix>
</trkpt>
<trkpt lat="40.0717026" lon="-105.2293816">
  <ele>1582.99</ele>
  <time>2026-09-02T20:50:45Z</time>
  <course>91.32</course>
  <speed>0.99</speed>
  <fix>3d</fix>
</trkpt>
<trkpt lat="40.0717025" lon="-105.229379">
  <ele>1582.99</ele>
  <time>2026-09-02T20:50:45Z</time>
  <course>91.1</course>
  <speed>1.000199980003999</speed>
  <fix>3d</fix>
</trkpt>
<trkpt lat="40.0717026" lon="-105.2293816">
  <ele>1582.99</ele>
  <time>2026-09-02T20:50:45Z</time>
  <course>91.32</course>
  <speed>0.99</speed>
  <fix>3d</fix>
</trkpt>
<trkpt lat="40.0717025" lon="-105.2293778">
  <ele>1582.99</ele>
  <time>2026-09-02T20:50:45Z</time>
  <course>91.09</course>
  <speed>0.9902019995940222</speed>
  <fix>3d</fix>
</trkpt>
<trkpt lat="40.0717025" lon="-105.2293792">
  <ele>1582.99</ele>
  <time>2026-09-02T20:50:45Z</time>
  <course>91.31</course>
  <speed>0.99</speed>
  <fix>3d</fix>
</trkpt>
<trkpt lat="40.0717025" lon="-105.2293766">
  <ele>1582.99</ele>
  <time>2026-09-02T20:50:45Z</time>
  <course>91.09</course>
  <speed>1.000199980003999</speed>
  <fix>3d</fix>
</trkpt>
<trkpt lat="40.0717025" lon="-105.2293792">
  <ele>1582.99</ele>
  <time>2026-09-02T20:50:45Z</time>
  <course>91.31</course>
  <speed>0.99</speed>
  <fix>3d</fix>
</trkpt>
<trkpt lat="40.0717025" lon="-105.2293756">
  <ele>1582.99</ele>
  <time>2026-09-02T20:50:45Z</time>
  <course>91.09</course>
  <speed>0.9902019995940222</speed>
  <fix>3d</fix>
</trkpt>
<trkpt lat="40.0717025" lon="-105.2293769">
  <ele>1582.99</ele>
  <time>2026-09-02T20:50:45Z</time>
  <course>91.31</course>
  <speed>0.99</speed>
  <fix>3d</fix>
</trkpt>
<trkpt lat="40.0717025" lon="-105.2293744">
  <ele>1582.99</ele>
  <time>2026-09-02T20:50:45Z</time>
  <course>91.09</course>
  <speed>1.000199980003999</speed>
  <fix>3d</fix>
</trkpt>
<trkpt lat="40.0717025" lon="-105.2293769">
  <ele>1582.99</ele>
  <time>2026-09-02T20:50:45Z</time>
  <course>91.31</course>
  <speed>0.99</speed>
  <fix>3d</fix>
</trkpt>
<trkpt lat="40.0717025" lon="-105.2293732">
  <ele>1582.99</ele>
  <time>2026-09-02T20:50:45Z</time>
  <course>91.09</course>
  <speed>0.9902019995940222</speed>
  <fix>3d</fix>
</trkpt>
<trkpt lat="40.0717025" lon="-105.2293746">
  <ele>1582.99</ele>
  <time>2026-09-02T20:50:45Z</time>
  <course>91.3</course>
  <speed>0.99</speed>
  <fix>3d</fix>
</trkpt>
<trkpt lat="40.0717025" lon="-105.229372">
  <ele>1582.99</ele>
  <time>2026-09-02T20:50:45Z</time>
  <course>91.09</course>
  <speed>1.000199980003999</speed>
  <fix>3d</fix>
</trkpt>
<trkpt lat="40.0717025" lon="-105.2293746">
  <ele>1582.99</ele>
  <time>2026-09-02T20:50:45Z</time>
  <course>91.3</course>
  <speed>0.99</speed>
  <fix>3d</fix>
</trkpt>
<trkpt lat="40.0717025" lon="-105.2293708">
  <ele>1582.99</ele>
  <time>2026-09-02T20:50:45Z</time>
  <course>91.09</course>
  <speed>0.9902019995940222</speed>
  <fix>3d</fix>
</trkpt>
<trkpt lat="40.0717025" lon="-105.2293723">
  <ele>1582.99</ele>
  <time>2026-09-02T20:50:45Z</time>
  <course>91.31</course>
  <speed>0.99</speed>
  <fix>3d</fix>
</trkpt>
<trkpt lat="40.0717024" lon="-105.2293699">
  <ele>1582.99</ele>
  <time>2026-09-02T20:50:45Z</time>
  <course>91.1</course>
  <speed>1.000199980003999</speed>
  <fix>3d</fix>
</trkpt>
<trkpt lat="40.0717025" lon="-105.2293723">
  <ele>1582.99</ele>
  <time>2026-09-02T20:50:45Z</time>
  <course>91.31</course>
  <speed>0.99</speed>
  <fix>3d</fix>
</trkpt>
<trkpt lat="40.0717024" lon="-105.2293687">
  <ele>1583.0</ele>
  <time>2026-09-02T20:50:45Z</time>
  <course>91.1</course>
  <speed>1.000199980003999</speed>
  <fix>3d</fix>
</trkpt>
<trkpt lat="40.0717024" lon="-105.2293699">
  <ele>1582.99</ele>
  <time>2026-09-02T20:50:45Z</time>
  <course>91.31</course>
  <speed>1.0</speed>
  <fix>3d</fix>
</trkpt>
<trkpt lat="40.0717024" lon="-105.2293675">
  <ele>1582.99</ele>
  <time>2026-09-02T20:50:45Z</time>
  <course>91.1</course>
  <speed>1.000199980003999</speed>
  <fix>3d</fix>
</trkpt>
<trkpt lat="40.0717024" lon="-105.2293699">
  <ele>1582.99</ele>
  <time>2026-09-02T20:50:45Z</time>
  <course>91.31</course>
  <speed>1.0</speed>
  <fix>3d</fix>
</trkpt>
<trkpt lat="40.0717024" lon="-105.2293663">
  <ele>1582.99</ele>
  <time>2026-09-02T20:50:45Z</time>
  <course>91.11</course>
  <speed>0.9902019995940222</speed>
  <fix>3d</fix>
</trkpt>
<trkpt lat="40.0717024" lon="-105.2293675">
  <ele>1582.99</ele>
  <time>2026-09-02T20:50:45Z</time>
  <course>91.32</course>
  <speed>0.99</speed>
  <fix>3d</fix>
</trkpt>
<trkpt lat="40.0717024" lon="-105.2293651">
  <ele>1582.99</ele>
  <time>2026-09-02T20:50:45Z</time>
  <course>91.11</course>
  <speed>1.000199980003999</speed>
  <fix>3d</fix>
</trkpt>
<trkpt lat="40.0717024" lon="-105.2293675">
  <ele>1582.99</ele>
  <time>2026-09-02T20:50:45Z</time>
  <course>91.32</course>
  <speed>0.99</speed>
  <fix>3d</fix>
</trkpt>
<trkpt lat="40.0717023" lon="-105.2293641">
  <ele>1582.99</ele>
  <time>2026-09-02T20:50:45Z</time>
  <course>91.12</course>
  <speed>0.9902019995940222</speed>
  <fix>3d</fix>
</trkpt>
<trkpt lat="40.0717023" lon="-105.2293652">
  <ele>1582.99</ele>
  <time>2026-09-02T20:50:45Z</time>
  <course>91.33</course>
  <speed>0.99</speed>
  <fix>3d</fix>
</trkpt>
<trkpt lat="40.0717023" lon="-105.2293629">
  <ele>1582.99</ele>
  <time>2026-09-02T20:50:45Z</time>
  <course>91.12</course>
  <speed>1.000199980003999</speed>
  <fix>3d</fix>
</trkpt>
<trkpt lat="40.0717023" lon="-105.2293652">
  <ele>1582.99</ele>
  <time>2026-09-02T20:50:45Z</time>
  <course>91.33</course>
  <speed>0.99</speed>
  <fix>3d</fix>
</trkpt>
<trkpt lat="40.0717023" lon="-105.2293617">
  <ele>1582.99</ele>
  <time>2026-09-02T20:50:45Z</time>
  <course>91.12</course>
  <speed>1.000199980003999</speed>
  <fix>3d</fix>
</trkpt>
<trkpt lat="40.0717023" lon="-105.2293629">
  <ele>1582.99</ele>
  <time>2026-09-02T20:50:45Z</time>
  <course>91.33</course>
  <speed>0.99</speed>
  <fix>3d</fix>
</trkpt>
<trkpt lat="40.0717023" lon="-105.2293605">
  <ele>1582.99</ele>
  <time>2026-09-02T20:50:45Z</time>
  <course>91.12</course>
  <speed>1.000199980003999</speed>
  <fix>3d</fix>
</trkpt>
<trkpt lat="40.0717023" lon="-105.2293629">
  <ele>1582.99</ele>
  <time>2026-09-02T20:50:45Z</time>
  <course>91.33</course>
  <speed>0.99</speed>
  <fix>3d</fix>
</trkpt>
<trkpt lat="40.0717023" lon="-105.2293593">
  <ele>1582.99</ele>
  <time>2026-09-02T20:50:45Z</time>
  <course>91.12</course>
  <speed>1.000199980003999</speed>
  <fix>3d</fix>
</trkpt>
<trkpt lat="40.0717023" lon="-105.2293605">
  <ele>1582.99</ele>
  <time>2026-09-02T20:50:45Z</time>
  <course>91.33</course>
  <speed>1.0</speed>
  <fix>3d</fix>
</trkpt>
<trkpt lat="40.0717022" lon="-105.2293579">
  <ele>1582.99</ele>
  <time>2026-09-02T20:50:45Z</time>
  <course>91.13</course>
  <speed>1.000199980003999</speed>
  <fix>3d</fix>
</trkpt>
<trkpt lat="40.0717023" lon="-105.2293605">
  <ele>1582.99</ele>
  <time>2026-09-02T20:50:45Z</time>
  <course>91.33</course>
  <speed>1.0</speed>
  <fix>3d</fix>
</trkpt>
<trkpt lat="40.0717022" lon="-105.2293567">
  <ele>1582.99</ele>
  <time>2026-09-02T20:50:45Z</time>
  <course>91.12</course>
  <speed>0.9902019995940222</speed>
  <fix>3d</fix>
</trkpt>
<trkpt lat="40.0717022" lon="-105.2293581">
  <ele>1582.99</ele>
  <time>2026-09-02T20:50:45Z</time>
  <course>91.34</course>
  <speed>0.99</speed>
  <fix>3d</fix>
</trkpt>
<trkpt lat="40.0717022" lon="-105.2293555">
  <ele>1582.99</ele>
  <time>2026-09-02T20:50:45Z</time>
  <course>91.13</course>
  <speed>1.000199980003999</speed>
  <fix>3d</fix>
</trkpt>
<trkpt lat="40.0717022" lon="-105.2293581">
  <ele>1582.99</ele>
  <time>2026-09-02T20:50:45Z</time>
  <course>91.34</course>
  <speed>0.99</speed>
  <fix>3d</fix>
</trkpt>
<trkpt lat="40.0717022" lon="-105.2293543">
  <ele>1582.99</ele>
  <time>2026-09-02T20:50:45Z</time>
  <course>91.13</course>
  <speed>0.9902019995940222</speed>
  <fix>3d</fix>
</trkpt>
<trkpt lat="40.0717022" lon="-105.2293558">
  <ele>1582.99</ele>
  <time>2026-09-02T20:50:45Z</time>
  <course>91.34</course>
  <speed>0.99</speed>
  <fix>3d</fix>
</trkpt>
<trkpt lat="40.0717022" lon="-105.2293533">
  <ele>1582.99</ele>
  <time>2026-09-02T20:50:45Z</time>
  <course>91.14</course>
  <speed>1.000199980003999</speed>
  <fix>3d</fix>
</trkpt>
<trkpt lat="40.0717022" lon="-105.2293558">
  <ele>1582.99</ele>
  <time>2026-09-02T20:50:45Z</time>
  <course>91.34</course>
  <speed>0.99</speed>
  <fix>3d</fix>
</trkpt>
<trkpt lat="40.071702" lon="-105.2293521">
  <ele>1582.99</ele>
  <time>2026-09-02T20:50:45Z</time>
  <course>91.13</course>
  <speed>0.9902019995940222</speed>
  <fix>3d</fix>
</trkpt>
<trkpt lat="40.0717021" lon="-105.2293535">
  <ele>1582.99</ele>
  <time>2026-09-02T20:50:45Z</time>
  <course>91.35</course>
  <speed>0.99</speed>
  <fix>3d</fix>
</trkpt>
<trkpt lat="40.071702" lon="-105.2293509">
  <ele>1582.99</ele>
  <time>2026-09-02T20:50:45Z</time>
  <course>91.12</course>
  <speed>1.000199980003999</speed>
  <fix>3d</fix>
</trkpt>
<trkpt lat="40.0717021" lon="-105.2293535">
  <ele>1582.99</ele>
  <time>2026-09-02T20:50:45Z</time>
  <course>91.35</course>
  <speed>0.99</speed>
  <fix>3d</fix>
</trkpt>
<trkpt lat="40.071702" lon="-105.2293498">
  <ele>1582.99</ele>
  <time>2026-09-02T20:50:45Z</time>
  <course>91.11</course>
  <speed>0.9902019995940222</speed>
  <fix>3d</fix>
</trkpt>
<trkpt lat="40.071702" lon="-105.2293511">
  <ele>1582.99</ele>
  <time>2026-09-02T20:50:45Z</time>
  <course>91.34</course>
  <speed>0.99</speed>
  <fix>3d</fix>
</trkpt>
<trkpt lat="40.071702" lon="-105.2293486">
  <ele>1582.99</ele>
  <time>2026-09-02T20:50:45Z</time>
  <course>91.11</course>
  <speed>1.000199980003999</speed>
  <fix>3d</fix>
</trkpt>
<trkpt lat="40.071702" lon="-105.2293511">
  <ele>1582.99</ele>
  <time>2026-09-02T20:50:45Z</time>
  <course>91.34</course>
  <speed>0.99</speed>
  <fix>3d</fix>
</trkpt>
<trkpt lat="40.0717019" lon="-105.2293474">
  <ele>1582.99</ele>
  <time>2026-09-02T20:50:45Z</time>
  <course>91.11</course>
  <speed>1.000199980003999</speed>
  <fix>3d</fix>
</trkpt>
<trkpt lat="40.071702" lon="-105.2293488">
  <ele>1582.99</ele>
  <time>2026-09-02T20:50:45Z</time>
  <course>91.33</course>
  <speed>1.0</speed>
  <fix>3d</fix>
</trkpt>
<trkpt lat="40.0717019" lon="-105.2293462">
  <ele>1582.99</ele>
  <time>2026-09-02T20:50:45Z</time>
  <course>91.1</course>
  <speed>0.9902019995940222</speed>
  <fix>3d</fix>
</trkpt>
<trkpt lat="40.071702" lon="-105.2293488">
  <ele>1582.99</ele>
  <time>2026-09-02T20:50:45Z</time>
  <course>91.33</course>
  <speed>1.0</speed>
  <fix>3d</fix>
</trkpt>
<trkpt lat="40.0717019" lon="-105.2293452">
  <ele>1582.99</ele>
  <time>2026-09-02T20:50:45Z</time>
  <course>91.1</course>
  <speed>1.000199980003999</speed>
  <fix>3d</fix>
</trkpt>
<trkpt lat="40.071702" lon="-105.2293464">
  <ele>1582.99</ele>
  <time>2026-09-02T20:50:45Z</time>
  <course>91.32</course>
  <speed>1.0</speed>
  <fix>3d</fix>
</trkpt>
<trkpt lat="40.0717019" lon="-105.229344">
  <ele>1582.99</ele>
  <time>2026-09-02T20:50:45Z</time>
  <course>91.09</course>
  <speed>0.9902019995940222</speed>
  <fix>3d</fix>
</trkpt>
<trkpt lat="40.071702" lon="-105.2293464">
  <ele>1582.99</ele>
  <time>2026-09-02T20:50:45Z</time>
  <course>91.32</course>
  <speed>1.0</speed>
  <fix>3d</fix>
</trkpt>
<trkpt lat="40.0717019" lon="-105.2293428">
  <ele>1582.99</ele>
  <time>2026-09-02T20:50:45Z</time>
  <course>91.09</course>
  <speed>1.000199980003999</speed>
  <fix>3d</fix>
</trkpt>
<trkpt lat="40.0717019" lon="-105.229344">
  <ele>1582.99</ele>
  <time>2026-09-02T20:50:45Z</time>
  <course>91.31</course>
  <speed>1.0</speed>
  <fix>3d</fix>
</trkpt>
<trkpt lat="40.0717019" lon="-105.2293418">
  <ele>1582.99</ele>
  <time>2026-09-02T20:50:45Z</time>
  <course>91.09</course>
  <speed>1.000199980003999</speed>
  <fix>3d</fix>
</trkpt>
<trkpt lat="40.0717019" lon="-105.229344">
  <ele>1582.99</ele>
  <time>2026-09-02T20:50:45Z</time>
  <course>91.31</course>
  <speed>1.0</speed>
  <fix>3d</fix>
</trkpt>
<trkpt lat="40.0717019" lon="-105.2293406">
  <ele>1582.99</ele>
  <time>2026-09-02T20:50:45Z</time>
  <course>91.09</course>
  <speed>1.000199980003999</speed>
  <fix>3d</fix>
</trkpt>
<trkpt lat="40.0717019" lon="-105.2293417">
  <ele>1582.99</ele>
  <time>2026-09-02T20:50:45Z</time>
  <course>91.31</course>
  <speed>1.0</speed>
  <fix>3d</fix>
</trkpt>
<trkpt lat="40.0717019" lon="-105.2293394">
  <ele>1582.99</ele>
  <time>2026-09-02T20:50:45Z</time>
  <course>91.09</course>
  <speed>0.9902019995940222</speed>
  <fix>3d</fix>
</trkpt>
<trkpt lat="40.0717019" lon="-105.2293417">
  <ele>1582.99</ele>
  <time>2026-09-02T20:50:45Z</time>
  <course>91.31</course>
  <speed>1.0</speed>
  <fix>3d</fix>
</trkpt>
<trkpt lat="40.0717019" lon="-105.2293382">
  <ele>1582.99</ele>
  <time>2026-09-02T20:50:45Z</time>
  <course>91.09</course>
  <speed>1.000199980003999</speed>
  <fix>3d</fix>
</trkpt>
<trkpt lat="40.0717019" lon="-105.2293394">
  <ele>1582.99</ele>
  <time>2026-09-02T20:50:45Z</time>
  <course>91.31</course>
  <speed>1.0</speed>
  <fix>3d</fix>
</trkpt>
<trkpt lat="40.0717019" lon="-105.2293371">
  <ele>1582.99</ele>
  <time>2026-09-02T20:50:45Z</time>
  <course>91.1</course>
  <speed>0.9902019995940222</speed>
  <fix>3d</fix>
</trkpt>
<trkpt lat="40.0717019" lon="-105.2293394">
  <ele>1582.99</ele>
  <time>2026-09-02T20:50:45Z</time>
  <course>91.31</course>
  <speed>1.0</speed>
  <fix>3d</fix>
</trkpt>
<trkpt lat="40.0717018" lon="-105.2293359">
  <ele>1582.99</ele>
  <time>2026-09-02T20:50:45Z</time>
  <course>91.1</course>
  <speed>1.000199980003999</speed>
  <fix>3d</fix>
</trkpt>
<trkpt lat="40.0717018" lon="-105.229337">
  <ele>1582.99</ele>
  <time>2026-09-02T20:50:45Z</time>
  <course>91.32</course>
  <speed>1.0</speed>
  <fix>3d</fix>
</trkpt>
<trkpt lat="40.0717018" lon="-105.2293347">
  <ele>1582.99</ele>
  <time>2026-09-02T20:50:45Z</time>
  <course>91.1</course>
  <speed>1.000199980003999</speed>
  <fix>3d</fix>
</trkpt>
<trkpt lat="40.0717018" lon="-105.229337">
  <ele>1582.99</ele>
  <time>2026-09-02T20:50:45Z</time>
  <course>91.32</course>
  <speed>1.0</speed>
  <fix>3d</fix>
</trkpt>
<trkpt lat="40.0717018" lon="-105.2293332">
  <ele>1582.99</ele>
  <time>2026-09-02T20:50:45Z</time>
  <course>91.11</course>
  <speed>0.9902019995940222</speed>
  <fix>3d</fix>
</trkpt>
<trkpt lat="40.0717018" lon="-105.2293347">
  <ele>1582.99</ele>
  <time>2026-09-02T20:50:45Z</time>
  <course>91.32</course>
  <speed>0.99</speed>
  <fix>3d</fix>
</trkpt>
<trkpt lat="40.0717018" lon="-105.229332">
  <ele>1582.99</ele>
  <time>2026-09-02T20:50:45Z</time>
  <course>91.11</course>
  <speed>1.000199980003999</speed>
  <fix>3d</fix>
</trkpt>
<trkpt lat="40.0717018" lon="-105.2293347">
  <ele>1582.99</ele>
  <time>2026-09-02T20:50:45Z</time>
  <course>91.32</course>
  <speed>0.99</speed>
  <fix>3d</fix>
</trkpt>
<trkpt lat="40.0717018" lon="-105.229331">
  <ele>1582.99</ele>
  <time>2026-09-02T20:50:45Z</time>
  <course>91.11</course>
  <speed>0.9902019995940222</speed>
  <fix>3d</fix>
</trkpt>
<trkpt lat="40.0717018" lon="-105.2293323">
  <ele>1582.99</ele>
  <time>2026-09-02T20:50:45Z</time>
  <course>91.33</course>
  <speed>0.99</speed>
  <fix>3d</fix>
</trkpt>
<trkpt lat="40.0717017" lon="-105.2293298">
  <ele>1582.99</ele>
  <time>2026-09-02T20:50:45Z</time>
  <course>91.12</course>
  <speed>1.000199980003999</speed>
  <fix>3d</fix>
</trkpt>
<trkpt lat="40.0717018" lon="-105.2293323">
  <ele>1582.99</ele>
  <time>2026-09-02T20:50:45Z</time>
  <course>91.33</course>
  <speed>0.99</speed>
  <fix>3d</fix>
</trkpt>
<trkpt lat="40.0717017" lon="-105.2293286">
  <ele>1582.99</ele>
  <time>2026-09-02T20:50:45Z</time>
  <course>91.12</course>
  <speed>1.000199980003999</speed>
  <fix>3d</fix>
</trkpt>
<trkpt lat="40.0717017" lon="-105.22933">
  <ele>1582.99</ele>
  <time>2026-09-02T20:50:45Z</time>
  <course>91.33</course>
  <speed>0.99</speed>
  <fix>3d</fix>
</trkpt>
<trkpt lat="40.0717017" lon="-105.2293275">
  <ele>1582.99</ele>
  <time>2026-09-02T20:50:45Z</time>
  <course>91.12</course>
  <speed>0.9902019995940222</speed>
  <fix>3d</fix>
</trkpt>
<trkpt lat="40.0717017" lon="-105.22933">
  <ele>1582.99</ele>
  <time>2026-09-02T20:50:45Z</time>
  <course>91.33</course>
  <speed>0.99</speed>
  <fix>3d</fix>
</trkpt>
<trkpt lat="40.0717017" lon="-105.2293263">
  <ele>1582.99</ele>
  <time>2026-09-02T20:50:45Z</time>
  <course>91.12</course>
  <speed>1.000199980003999</speed>
  <fix>3d</fix>
</trkpt>
<trkpt lat="40.0717017" lon="-105.2293277">
  <ele>1582.99</ele>
  <time>2026-09-02T20:50:45Z</time>
  <course>91.34</course>
  <speed>1.0</speed>
  <fix>3d</fix>
</trkpt>
<trkpt lat="40.0717017" lon="-105.2293251">
  <ele>1582.99</ele>
  <time>2026-09-02T20:50:45Z</time>
  <course>91.13</course>
  <speed>0.9902019995940222</speed>
  <fix>3d</fix>
</trkpt>
<trkpt lat="40.0717017" lon="-105.2293277">
  <ele>1582.99</ele>
  <time>2026-09-02T20:50:45Z</time>
  <course>91.34</course>
  <speed>1.0</speed>
  <fix>3d</fix>
</trkpt>
<trkpt lat="40.0717016" lon="-105.2293239">
  <ele>1582.99</ele>
  <time>2026-09-02T20:50:45Z</time>
  <course>91.12</course>
  <speed>1.000199980003999</speed>
  <fix>3d</fix>
</trkpt>
<trkpt lat="40.0717016" lon="-105.2293253">
  <ele>1582.99</ele>
  <time>2026-09-02T20:50:45Z</time>
  <course>91.34</course>
  <speed>1.0</speed>
  <fix>3d</fix>
</trkpt>
<trkpt lat="40.0717016" lon="-105.2293227">
  <ele>1582.99</ele>
  <time>2026-09-02T20:50:45Z</time>
  <course>91.12</course>
  <speed>0.9902019995940222</speed>
  <fix>3d</fix>
</trkpt>
<trkpt lat="40.0717016" lon="-105.2293253">
  <ele>1582.99</ele>
  <time>2026-09-02T20:50:45Z</time>
  <course>91.34</course>
  <speed>1.0</speed>
  <fix>3d</fix>
</trkpt>
<trkpt lat="40.0717016" lon="-105.2293215">
  <ele>1582.99</ele>
  <time>2026-09-02T20:50:45Z</time>
  <course>91.12</course>
  <speed>1.000199980003999</speed>
  <fix>3d</fix>
</trkpt>
<trkpt lat="40.0717016" lon="-105.2293229">
  <ele>1582.99</ele>
  <time>2026-09-02T20:50:45Z</time>
  <course>91.34</course>
  <speed>1.0</speed>
  <fix>3d</fix>
</trkpt>
<trkpt lat="40.0717016" lon="-105.2293206">
  <ele>1582.99</ele>
  <time>2026-09-02T20:50:45Z</time>
  <course>91.12</course>
  <speed>0.9902019995940222</speed>
  <fix>3d</fix>
</trkpt>
<trkpt lat="40.0717016" lon="-105.2293229">
  <ele>1582.99</ele>
  <time>2026-09-02T20:50:45Z</time>
  <course>91.34</course>
  <speed>1.0</speed>
  <fix>3d</fix>
</trkpt>
<trkpt lat="40.0717014" lon="-105.2293194">
  <ele>1582.99</ele>
  <time>2026-09-02T20:50:45Z</time>
  <course>91.13</course>
  <speed>1.000199980003999</speed>
  <fix>3d</fix>
</trkpt>
<trkpt lat="40.0717015" lon="-105.2293206">
  <ele>1582.99</ele>
  <time>2026-09-02T20:50:45Z</time>
  <course>91.35</course>
  <speed>1.0</speed>
  <fix>3d</fix>
</trkpt>
<trkpt lat="40.0717014" lon="-105.2293182">
  <ele>1582.99</ele>
  <time>2026-09-02T20:50:45Z</time>
  <course>91.12</course>
  <speed>0.9902019995940222</speed>
  <fix>3d</fix>
</trkpt>
<trkpt lat="40.0717015" lon="-105.2293206">
  <ele>1582.99</ele>
  <time>2026-09-02T20:50:45Z</time>
  <course>91.35</course>
  <speed>1.0</speed>
  <fix>3d</fix>
</trkpt>
<trkpt lat="40.0717014" lon="-105.229317">
  <ele>1582.99</ele>
  <time>2026-09-02T20:50:45Z</time>
  <course>91.12</course>
  <speed>1.000199980003999</speed>
  <fix>3d</fix>
</trkpt>
<trkpt lat="40.0717014" lon="-105.2293182">
  <ele>1582.99</ele>
  <time>2026-09-02T20:50:45Z</time>
  <course>91.34</course>
  <speed>1.0</speed>
  <fix>3d</fix>
</trkpt>
<trkpt lat="40.0717014" lon="-105.229316">
  <ele>1582.99</ele>
  <time>2026-09-02T20:50:45Z</time>
  <course>91.11</course>
  <speed>0.9902019995940222</speed>
  <fix>3d</fix>
</trkpt>
<trkpt lat="40.0717014" lon="-105.2293182">
  <ele>1582.99</ele>
  <time>2026-09-02T20:50:45Z</time>
  <course>91.34</course>
  <speed>1.0</speed>
  <fix>3d</fix>
</trkpt>
<trkpt lat="40.0717014" lon="-105.2293148">
  <ele>1582.99</ele>
  <time>2026-09-02T20:50:45Z</time>
  <course>91.11</course>
  <speed>1.000199980003999</speed>
  <fix>3d</fix>
</trkpt>
<trkpt lat="40.0717014" lon="-105.2293159">
  <ele>1582.99</ele>
  <time>2026-09-02T20:50:45Z</time>
  <course>91.33</course>
  <speed>1.0</speed>
  <fix>3d</fix>
</trkpt>
<trkpt lat="40.0717013" lon="-105.2293136">
  <ele>1582.99</ele>
  <time>2026-09-02T20:50:45Z</time>
  <course>91.1</course>
  <speed>0.9902019995940222</speed>
  <fix>3d</fix>
</trkpt>
<trkpt lat="40.0717014" lon="-105.2293159">
  <ele>1582.99</ele>
  <time>2026-09-02T20:50:45Z</time>
  <course>91.33</course>
  <speed>1.0</speed>
  <fix>3d</fix>
</trkpt>
<trkpt lat="40.0717013" lon="-105.2293124">
  <ele>1582.99</ele>
  <time>2026-09-02T20:50:45Z</time>
  <course>91.09</course>
  <speed>1.000199980003999</speed>
  <fix>3d</fix>
</trkpt>
<trkpt lat="40.0717014" lon="-105.2293136">
  <ele>1582.99</ele>
  <time>2026-09-02T20:50:45Z</time>
  <course>91.32</course>
  <speed>1.0</speed>
  <fix>3d</fix>
</trkpt>
<trkpt lat="40.0717013" lon="-105.2293112">
  <ele>1582.99</ele>
  <time>2026-09-02T20:50:45Z</time>
  <course>91.09</course>
  <speed>0.9902019995940222</speed>
  <fix>3d</fix>
</trkpt>
<trkpt lat="40.0717014" lon="-105.2293136">
  <ele>1582.99</ele>
  <time>2026-09-02T20:50:45Z</time>
  <course>91.32</course>
  <speed>1.0</speed>
  <fix>3d</fix>
</trkpt>
<trkpt lat="40.0717013" lon="-105.22931">
  <ele>1582.99</ele>
  <time>2026-09-02T20:50:45Z</time>
  <course>91.09</course>
  <speed>1.000199980003999</speed>
  <fix>3d</fix>
</trkpt>
<trkpt lat="40.0717013" lon="-105.2293112">
  <ele>1582.99</ele>
  <time>2026-09-02T20:50:45Z</time>
  <course>91.31</course>
  <speed>1.0</speed>
  <fix>3d</fix>
</trkpt>
<trkpt lat="40.0717013" lon="-105.2293086">
  <ele>1582.99</ele>
  <time>2026-09-02T20:50:45Z</time>
  <course>91.08</course>
  <speed>1.000199980003999</speed>
  <fix>3d</fix>
</trkpt>
<trkpt lat="40.0717013" lon="-105.2293112">
  <ele>1582.99</ele>
  <time>2026-09-02T20:50:45Z</time>
  <course>91.31</course>
  <speed>1.0</speed>
  <fix>3d</fix>
</trkpt>
<trkpt lat="40.0717013" lon="-105.2293074">
  <ele>1582.99</ele>
  <time>2026-09-02T20:50:45Z</time>
  <course>91.08</course>
  <speed>0.9902019995940222</speed>
  <fix>3d</fix>
</trkpt>
<trkpt lat="40.0717013" lon="-105.2293088">
  <ele>1582.99</ele>
  <time>2026-09-02T20:50:45Z</time>
  <course>91.31</course>
  <speed>1.0</speed>
  <fix>3d</fix>
</trkpt>
<trkpt lat="40.0717013" lon="-105.2293062">
  <ele>1582.99</ele>
  <time>2026-09-02T20:50:45Z</time>
  <course>91.08</course>
  <speed>1.000199980003999</speed>
  <fix>3d</fix>
</trkpt>
<trkpt lat="40.0717013" lon="-105.2293088">
  <ele>1582.99</ele>
  <time>2026-09-02T20:50:45Z</time>
  <course>91.31</course>
  <speed>1.0</speed>
  <fix>3d</fix>
</trkpt>
<trkpt lat="40.0717013" lon="-105.2293052">
  <ele>1582.99</ele>
  <time>2026-09-02T20:50:45Z</time>
  <course>91.08</course>
  <speed>0.9902019995940222</speed>
  <fix>3d</fix>
</trkpt>
<trkpt lat="40.0717013" lon="-105.2293065">
  <ele>1582.99</ele>
  <time>2026-09-02T20:50:45Z</time>
  <course>91.3</course>
  <speed>0.99</speed>
  <fix>3d</fix>
</trkpt>
<trkpt lat="40.0717013" lon="-105.229304">
  <ele>1582.99</ele>
  <time>2026-09-02T20:50:45Z</time>
  <course>91.08</course>
  <speed>1.010198000393982</speed>
  <fix>3d</fix>
</trkpt>
<trkpt lat="40.0717013" lon="-105.2293065">
  <ele>1582.99</ele>
  <time>2026-09-02T20:50:45Z</time>
  <course>91.3</course>
  <speed>0.99</speed>
  <fix>3d</fix>
</trkpt>
<trkpt lat="40.0717013" lon="-105.2293028">
  <ele>1582.99</ele>
  <time>2026-09-02T20:50:45Z</time>
  <course>91.08</course>
  <speed>1.000199980003999</speed>
  <fix>3d</fix>
</trkpt>
<trkpt lat="40.0717013" lon="-105.2293042">
  <ele>1582.99</ele>
  <time>2026-09-02T20:50:45Z</time>
  <course>91.3</course>
  <speed>1.0</speed>
  <fix>3d</fix>
</trkpt>
<trkpt lat="40.0717012" lon="-105.2293016">
  <ele>1582.99</ele>
  <time>2026-09-02T20:50:45Z</time>
  <course>91.08</course>
  <speed>0.9802040603874276</speed>
  <fix>3d</fix>
</trkpt>
<trkpt lat="40.0717013" lon="-105.2293042">
  <ele>1582.99</ele>
  <time>2026-09-02T20:50:45Z</time>
  <course>91.3</course>
  <speed>1.0</speed>
  <fix>3d</fix>
</trkpt>
<trkpt lat="40.0717012" lon="-105.2293004">
  <ele>1582.99</ele>
  <time>2026-09-02T20:50:45Z</time>
  <course>91.07</course>
  <speed>0.9402127418834527</speed>
  <fix>3d</fix>
</trkpt>
<trkpt lat="40.0717012" lon="-105.2293018">
  <ele>1582.99</ele>
  <time>2026-09-02T20:50:45Z</time>
  <course>91.3</course>
  <speed>0.98</speed>
  <fix>3d</fix>
</trkpt>
<trkpt lat="40.0717012" lon="-105.2292994">
  <ele>1582.99</ele>
  <time>2026-09-02T20:50:45Z</time>
  <course>91.07</course>
  <speed>0.8902246907382428</speed>
  <fix>3d</fix>
</trkpt>
<trkpt lat="40.0717012" lon="-105.2293018">
  <ele>1582.99</ele>
  <time>2026-09-02T20:50:45Z</time>
  <course>91.3</course>
  <speed>0.98</speed>
  <fix>3d</fix>
</trkpt>
<trkpt lat="40.0717012" lon="-105.2292983">
  <ele>1582.99</ele>
  <time>2026-09-02T20:50:45Z</time>
  <course>91.05</course>
  <speed>0.8200609733428362</speed>
  <fix>3d</fix>
</trkpt>
<trkpt lat="40.0717012" lon="-105.2292996">
  <ele>1582.99</ele>
  <time>2026-09-02T20:50:45Z</time>
  <course>91.31</course>
  <speed>0.89</speed>
  <fix>3d</fix>
</trkpt>
<trkpt lat="40.0717012" lon="-105.2292975">
  <ele>1582.99</ele>
  <time>2026-09-02T20:50:45Z</time>
  <course>91.05</course>
  <speed>0.7300684899377592</speed>
  <fix>3d</fix>
</trkpt>
<trkpt lat="40.0717012" lon="-105.2292996">
  <ele>1582.99</ele>
  <time>2026-09-02T20:50:45Z</time>
  <course>91.31</course>
  <speed>0.89</speed>
  <fix>3d</fix>
</trkpt>
<trkpt lat="40.0717011" lon="-105.2292969">
  <ele>1582.99</ele>
  <time>2026-09-02T20:50:45Z</time>
  <course>91.03</course>
  <speed>0.6500769185258002</speed>
  <fix>3d</fix>
</trkpt>
<trkpt lat="40.0717011" lon="-105.2292977">
  <ele>1582.99</ele>
  <time>2026-09-02T20:50:45Z</time>
  <course>91.34</course>
  <speed>0.74</speed>
  <fix>3d</fix>
</trkpt>
<trkpt lat="40.0717011" lon="-105.2292961">
  <ele>1582.99</ele>
  <time>2026-09-02T20:50:45Z</time>
  <course>91.01</course>
  <speed>0.5300943312279428</speed>
  <fix>3d</fix>
</trkpt>
<trkpt lat="40.0717011" lon="-105.2292977">
  <ele>1582.99</ele>
  <time>2026-09-02T20:50:45Z</time>
  <course>91.34</course>
  <speed>0.74</speed>
  <fix>3d</fix>
</trkpt>
<trkpt lat="40.0717011" lon="-105.2292956">
  <ele>1582.99</ele>
  <time>2026-09-02T20:50:45Z</time>
  <course>90.99</course>
  <speed>0.41012193308819755</speed>
  <fix>3d</fix>
</trkpt>
<trkpt lat="40.0717011" lon="-105.2292962">
  <ele>1582.99</ele>
  <time>2026-09-02T20:50:45Z</time>
  <course>91.43</course>
  <speed>0.53</speed>
  <fix>3d</fix>
</trkpt>
<trkpt lat="40.0717011" lon="-105.2292952">
  <ele>1582.99</ele>
  <time>2026-09-02T20:50:45Z</time>
  <course>90.96</course>
  <speed>0.26</speed>
  <fix>3d</fix>
</trkpt>
<trkpt lat="40.0717011" lon="-105.2292962">
  <ele>1582.99</ele>
  <time>2026-09-02T20:50:45Z</time>
  <course>91.43</course>
  <speed>0.53</speed>
  <fix>3d</fix>
</trkpt>
<trkpt lat="40.0717011" lon="-105.2292949">
  <ele>1582.99</ele>
  <time>2026-09-02T20:50:45Z</time>
  <course>90.94</course>
  <speed>0.14</speed>
  <fix>3d</fix>
</trkpt>
<trkpt lat="40.0717011" lon="-105.2292952">
  <ele>1582.99</ele>
  <time>2026-09-02T20:50:45Z</time>
  <course>91.77</course>
  <speed>0.28</speed>
  <fix>3d</fix>
</trkpt>
<trkpt lat="40.0717011" lon="-105.2292949">
  <ele>1582.99</ele>
  <time>2026-09-02T20:50:45Z</time>
  <course>90.91</course>
  <speed>0.01</speed>
  <fix>3d</fix>
</trkpt>
<trkpt lat="40.0717011" lon="-105.2292952">
  <ele>1582.99</ele>
  <time>2026-09-02T20:50:45Z</time>
  <course>91.77</course>
  <speed>0.28</speed>
  <fix>3d</fix>
</trkpt>
<trkpt lat="40.0717011" lon="-105.2292949">
  <ele>1582.99</ele>
  <time>2026-09-02T20:50:45Z</time>
  <course>90.88</course>
  <speed>0.06</speed>
  <fix>3d</fix>
</trkpt>
<trkpt lat="40.0717011" lon="-105.2292949">
  <ele>1582.99</ele>
  <time>2026-09-02T20:50:45Z</time>
  <course>96.31</course>
  <speed>0.04</speed>
  <fix>3d</fix>
</trkpt>
<trkpt lat="40.0717011" lon="-105.2292951">
  <ele>1582.99</ele>
  <time>2026-09-02T20:50:45Z</time>
  <course>90.86</course>
  <speed>0.15</speed>
  <fix>3d</fix>
</trkpt>
<trkpt lat="40.0717011" lon="-105.2292949">
  <ele>1582.99</ele>
  <time>2026-09-02T20:50:45Z</time>
  <course>96.31</course>
  <speed>0.04</speed>
  <fix>3d</fix>
</trkpt>
<trkpt lat="40.0717011" lon="-105.2292952">
  <ele>1582.99</ele>
  <time>2026-09-02T20:50:45Z</time>
  <course>90.83</course>
  <speed>0.16</speed>
  <fix>3d</fix>
</trkpt>
<trkpt lat="40.0717011" lon="-105.2292951">
  <ele>1582.99</ele>
  <time>2026-09-02T20:50:45Z</time>
  <course>268.9</course>
  <speed>0.11</speed>
  <fix>3d</fix>
</trkpt>
<trkpt lat="40.0717011" lon="-105.2292954">
  <ele>1583.0</ele>
  <time>2026-09-02T20:50:45Z</time>
  <course>90.8</course>
  <speed>0.2</speed>
  <fix>3d</fix>
</trkpt>
<trkpt lat="40.0717011" lon="-105.2292951">
  <ele>1582.99</ele>
  <time>2026-09-02T20:50:45Z</time>
  <course>268.9</course>
  <speed>0.11</speed>
  <fix>3d</fix>
</trkpt>
<trkpt lat="40.0717011" lon="-105.2292957">
  <ele>1583.0</ele>
  <time>2026-09-02T20:50:45Z</time>
  <course>90.78</course>
  <speed>0.17</speed>
  <fix>3d</fix>
</trkpt>
<trkpt lat="40.0717011" lon="-105.2292954">
  <ele>1582.99</ele>
  <time>2026-09-02T20:50:45Z</time>
  <course>269.5</course>
  <speed>0.17</speed>
  <fix>3d</fix>
</trkpt>
<trkpt lat="40.0717011" lon="-105.2292959">
  <ele>1583.0</ele>
  <time>2026-09-02T20:50:45Z</time>
  <course>90.76</course>
  <speed>0.15</speed>
  <fix>3d</fix>
</trkpt>
<trkpt lat="40.0717011" lon="-105.2292954">
  <ele>1582.99</ele>
  <time>2026-09-02T20:50:45Z</time>
  <course>269.5</course>
  <speed>0.17</speed>
  <fix>3d</fix>
</trkpt>
<trkpt lat="40.0717011" lon="-105.2292959">
  <ele>1582.99</ele>
  <time>2026-09-02T20:50:45Z</time>
  <course>90.73</course>
  <speed>0.1</speed>
  <fix>3d</fix>
</trkpt>
<trkpt lat="40.0717011" lon="-105.2292958">
  <ele>1582.99</ele>
  <time>2026-09-02T20:50:45Z</time>
  <course>269.21</course>
  <speed>0.14</speed>
  <fix>3d</fix>
</trkpt>
<trkpt lat="40.0717011" lon="-105.2292961">
  <ele>1582.99</ele>
  <time>2026-09-02T20:50:45Z</time>
  <course>90.71</course>
  <speed>0.08</speed>
  <fix>3d</fix>
</trkpt>
<trkpt lat="40.0717011" lon="-105.2292958">
  <ele>1582.99</ele>
  <time>2026-09-02T20:50:45Z</time>
  <course>269.21</course>
  <speed>0.14</speed>
  <fix>3d</fix>
</trkpt>
<trkpt lat="40.0717011" lon="-105.2292961">
  <ele>1582.99</ele>
  <time>2026-09-02T20:50:45Z</time>
  <course>90.69</course>
  <speed>0.0</speed>
  <fix>3d</fix>
</trkpt>
<trkpt lat="40.0717011" lon="-105.2292961">
  <ele>1582.99</ele>
  <time>2026-09-02T20:50:45Z</time>
  <course>267.22</course>
  <speed>0.06</speed>
  <fix>3d</fix>
</trkpt>
<trkpt lat="40.0717011" lon="-105.2292961">
  <ele>1582.99</ele>
  <time>2026-09-02T20:50:45Z</time>
  <course>90.68</course>
  <speed>0.0</speed>
  <fix>3d</fix>
</trkpt>
<trkpt lat="40.0717011" lon="-105.2292961">
  <ele>1582.99</ele>
  <time>2026-09-02T20:50:45Z</time>
  <course>267.22</course>
  <speed>0.06</speed>
  <fix>3d</fix>
</trkpt>
<trkpt lat="40.0717011" lon="-105.2292961">
  <ele>1582.99</ele>
  <time>2026-09-02T20:50:45Z</time>
  <course>90.66</course>
  <speed>0.07</speed>
  <fix>3d</fix>
</trkpt>
<trkpt lat="40.0717011" lon="-105.2292961">
  <ele>1582.99</ele>
  <time>2026-09-02T20:50:45Z</time>
  <course>98.76</course>
  <speed>0.02</speed>
  <fix>3d</fix>
</trkpt>
<trkpt lat="40.0717011" lon="-105.2292961">
  <ele>1582.99</ele>
  <time>2026-09-02T20:50:45Z</time>
  <course>90.63</course>
  <speed>0.07</speed>
  <fix>3d</fix>
</trkpt>
<trkpt lat="40.0717011" lon="-105.2292961">
  <ele>1582.99</ele>
  <time>2026-09-02T20:50:45Z</time>
  <course>98.76</course>
  <speed>0.02</speed>
  <fix>3d</fix>
</trkpt>
<trkpt lat="40.0717011" lon="-105.2292959">
  <ele>1582.99</ele>
  <time>2026-09-02T20:50:45Z</time>
  <course>90.62</course>
  <speed>0.14</speed>
  <fix>3d</fix>
</trkpt>
<trkpt lat="40.0717011" lon="-105.2292961">
  <ele>1582.99</ele>
  <time>2026-09-02T20:50:45Z</time>
  <course>92.88</course>
  <speed>0.09</speed>
  <fix>3d</fix>
</trkpt>
<trkpt lat="40.0717011" lon="-105.2292959">
  <ele>1582.99</ele>
  <time>2026-09-02T20:50:45Z</time>
  <course>90.67</course>
  <speed>0.08</speed>
  <fix>3d</fix>
</trkpt>
<trkpt lat="40.0717011" lon="-105.2292961">
  <ele>1582.99</ele>
  <time>2026-09-02T20:50:45Z</time>
  <course>92.88</course>
  <speed>0.09</speed>
  <fix>3d</fix>
</trkpt>
<trkpt lat="40.0717011" lon="-105.2292957">
  <ele>1582.99</ele>
  <time>2026-09-02T20:50:45Z</time>
  <course>90.97</course>
  <speed>0.13</speed>
  <fix>3d</fix>
</trkpt>
<trkpt lat="40.0717011" lon="-105.2292959">
  <ele>1582.99</ele>
  <time>2026-09-02T20:50:45Z</time>
  <course>92.54</course>
  <speed>0.12</speed>
  <fix>3d</fix>
</trkpt>
<trkpt lat="40.0717011" lon="-105.2292956">
  <ele>1582.99</ele>
  <time>2026-09-02T20:50:45Z</time>
  <course>91.35</course>
  <speed>0.1</speed>
  <fix>3d</fix>
</trkpt>
<trkpt lat="40.0717011" lon="-105.2292959">
  <ele>1582.99</ele>
  <time>2026-09-02T20:50:45Z</time>
  <course>92.54</course>
  <speed>0.12</speed>
  <fix>3d</fix>
</trkpt>
<trkpt lat="40.0717011" lon="-105.2292956">
  <ele>1582.99</ele>
  <time>2026-09-02T20:50:45Z</time>
  <course>92.02</course>
  <speed>0.08</speed>
  <fix>3d</fix>
</trkpt>
<trkpt lat="40.0717011" lon="-105.2292957">
  <ele>1582.99</ele>
  <time>2026-09-02T20:50:45Z</time>
  <course>93.54</course>
  <speed>0.1</speed>
  <fix>3d</fix>
</trkpt>
<trkpt lat="40.071701" lon="-105.2292954">
  <ele>1582.99</ele>
  <time>2026-09-02T20:50:45Z</time>
  <course>92.92</course>
  <speed>0.08</speed>
  <fix>3d</fix>
</trkpt>
<trkpt lat="40.0717011" lon="-105.2292957">
  <ele>1582.99</ele>
  <time>2026-09-02T20:50:45Z</time>
  <course>93.54</course>
  <speed>0.1</speed>
  <fix>3d</fix>
</trkpt>
<trkpt lat="40.071701" lon="-105.2292954">
  <ele>1582.99</ele>
  <time>2026-09-02T20:50:45Z</time>
  <course>94.03</course>
  <speed>0.06</speed>
  <fix>3d</fix>
</trkpt>
<trkpt lat="40.071701" lon="-105.2292955">
  <ele>1582.99</ele>
  <time>2026-09-02T20:50:45Z</time>
  <course>95.82</course>
  <speed>0.07</speed>
  <fix>3d</fix>
</trkpt>
<trkpt lat="40.071701" lon="-105.2292952">
  <ele>1582.99</ele>
  <time>2026-09-02T20:50:45Z</time>
  <course>95.39</course>
  <speed>0.06</speed>
  <fix>3d</fix>
</trkpt>
<trkpt lat="40.071701" lon="-105.2292955">
  <ele>1582.99</ele>
  <time>2026-09-02T20:50:45Z</time>
  <course>95.82</course>
  <speed>0.07</speed>
  <fix>3d</fix>
</trkpt>
<trkpt lat="40.071701" lon="-105.2292952">
  <ele>1582.99</ele>
  <time>2026-09-02T20:50:45Z</time>
  <course>96.99</course>
  <speed>0.04</speed>
  <fix>3d</fix>
</trkpt>
<trkpt lat="40.071701" lon="-105.2292952">
  <ele>1582.99</ele>
  <time>2026-09-02T20:50:45Z</time>
  <course>99.26</course>
  <speed>0.05</speed>
  <fix>3d</fix>
</trkpt>
<trkpt lat="40.071701" lon="-105.2292952">
  <ele>1582.99</ele>
  <time>2026-09-02T20:50:45Z</time>
  <course>98.84</course>
  <speed>0.0412310562561766</speed>
  <fix>3d</fix>
</trkpt>
<trkpt lat="40.071701" lon="-105.2292952">
  <ele>1582.99</ele>
  <time>2026-09-02T20:50:45Z</time>
  <course>99.26</course>
  <speed>0.05</speed>
  <fix>3d</fix>
</trkpt>
<trkpt lat="40.071701" lon="-105.2292951">
  <ele>1582.99</ele>
  <time>2026-09-02T20:50:45Z</time>
  <course>100.94</course>
  <speed>0.03</speed>
  <fix>3d</fix>
</trkpt>
<trkpt lat="40.071701" lon="-105.2292951">
  <ele>1582.99</ele>
  <time>2026-09-02T20:50:45Z</time>
  <course>104.18</course>
  <speed>0.03</speed>
  <fix>3d</fix>
</trkpt>
<trkpt lat="40.071701" lon="-105.2292951">
  <ele>1582.99</ele>
  <time>2026-09-02T20:50:45Z</time>
  <course>103.3</course>
  <speed>0.0316227766016838</speed>
  <fix>3d</fix>
</trkpt>
<trkpt lat="40.071701" lon="-105.2292951">
  <ele>1582.99</ele>
  <time>2026-09-02T20:50:45Z</time>
  <course>104.18</course>
  <speed>0.03</speed>
  <fix>3d</fix>
</trkpt>
<trkpt lat="40.071701" lon="-105.2292951">
  <ele>1582.99</ele>
  <time>2026-09-02T20:50:45Z</time>
  <course>106.49</course>
  <speed>0.0316227766016838</speed>
  <fix>3d</fix>
</trkpt>
<trkpt lat="40.071701" lon="-105.2292951">
  <ele>1582.99</ele>
  <time>2026-09-02T20:50:45Z</time>
  <course>110.02</course>
  <speed>0.02</speed>
  <fix>3d</fix>
</trkpt>
<trkpt lat="40.071701" lon="-105.2292949">
  <ele>1582.99</ele>
  <time>2026-09-02T20:50:45Z</time>
  <course>109.45</course>
  <speed>0.01</speed>
  <fix>3d</fix>
</trkpt>
<trkpt lat="40.071701" lon="-105.2292951">
  <ele>1582.99</ele>
  <time>2026-09-02T20:50:45Z</time>
  <course>110.02</course>
  <speed>0.02</speed>
  <fix>3d</fix>
</trkpt>
<trkpt lat="40.071701" lon="-105.2292949">
  <ele>1582.99</ele>
  <time>2026-09-02T20:50:45Z</time>
  <course>112.68</course>
  <speed>0.022360679774997897</speed>
  <fix>3d</fix>
</trkpt>
<trkpt lat="40.071701" lon="-105.229295">
  <ele>1582.99</ele>
  <time>2026-09-02T20:50:45Z</time>
  <course>116.19</course>
  <speed>0.02</speed>
  <fix>3d</fix>
</trkpt>
<trkpt lat="40.071701" lon="-105.2292949">
  <ele>1582.99</ele>
  <time>2026-09-02T20:50:45Z</time>
  <course>116.19</course>
  <speed>0.0</speed>
  <fix>3d</fix>
</trkpt>
<trkpt lat="40.071701" lon="-105.229295">
  <ele>1582.99</ele>
  <time>2026-09-02T20:50:45Z</time>
  <course>116.19</course>
  <speed>0.02</speed>
  <fix>3d</fix>
</trkpt>
<trkpt lat="40.0717008" lon="-105.2292949">
  <ele>1582.99</ele>
  <time>2026-09-02T20:50:45Z</time>
  <course>119.95</course>
  <speed>0.022360679774997897</speed>
  <fix>3d</fix>
</trkpt>
<trkpt lat="40.0717009" lon="-105.2292949">
  <ele>1582.99</ele>
  <time>2026-09-02T20:50:45Z</time>
  <course>122.73</course>
  <speed>0.02</speed>
  <fix>3d</fix>
</trkpt>
<trkpt lat="40.0717008" lon="-105.2292949">
  <ele>1582.99</ele>
  <time>2026-09-02T20:50:45Z</time>
  <course>123.96</course>
  <speed>0.01414213562373095</speed>
  <fix>3d</fix>
</trkpt>
<trkpt lat="40.0717009" lon="-105.2292949">
  <ele>1582.99</ele>
  <time>2026-09-02T20:50:45Z</time>
  <course>122.73</course>
  <speed>0.02</speed>
  <fix>3d</fix>
</trkpt>
<trkpt lat="40.0717008" lon="-105.2292949">
  <ele>1582.99</ele>
  <time>2026-09-02T20:50:45Z</time>
  <course>128.21</course>
  <speed>0.022360679774997897</speed>
  <fix>3d</fix>
</trkpt>
<trkpt lat="40.0717008" lon="-105.2292949">
  <ele>1582.99</ele>
  <time>2026-09-02T20:50:45Z</time>
  <course>128.7</course>
  <speed>0.02</speed>
  <fix>3d</fix>
</trkpt>
<trkpt lat="40.0717008" lon="-105.2292949">
  <ele>1582.99</ele>
  <time>2026-09-02T20:50:45Z</time>
  <course>132.67</course>
  <speed>0.01414213562373095</speed>
  <fix>3d</fix>
</trkpt>
<trkpt lat="40.0717008" lon="-105.2292949">
  <ele>1582.99</ele>
  <time>2026-09-02T20:50:45Z</time>
  <course>128.7</course>
  <speed>0.02</speed>
  <fix>3d</fix>
</trkpt>
<trkpt lat="40.0717008" lon="-105.2292949">
  <ele>1582.99</ele>
  <time>2026-09-02T20:50:45Z</time>
  <course>137.33</course>
  <speed>0.022360679774997897</speed>
  <fix>3d</fix>
</trkpt>
<trkpt lat="40.0717008" lon="-105.2292949">
  <ele>1582.99</ele>
  <time>2026-09-02T20:50:45Z</time>
  <course>136.55</course>
  <speed>0.02</speed>
  <fix>3d</fix>
</trkpt>
<trkpt lat="40.0717008" lon="-105.2292949">
  <ele>1582.99</ele>
  <time>2026-09-02T20:50:45Z</time>
  <course>142.15</course>
  <speed>0.01414213562373095</speed>
  <fix>3d</fix>
</trkpt>
<trkpt lat="40.0717008" lon="-105.2292949">
  <ele>1582.99</ele>
  <time>2026-09-02T20:50:45Z</time>
  <course>136.55</course>
  <speed>0.02</speed>
  <fix>3d</fix>
</trkpt>
<trkpt lat="40.0717008" lon="-105.2292949">
  <ele>1583.0</ele>
  <time>2026-09-02T20:50:45Z</time>
  <course>147.09</course>
  <speed>0.0</speed>
  <fix>3d</fix>
</trkpt>
<trkpt lat="40.0717008" lon="-105.2292949">
  <ele>1582.99</ele>
  <time>2026-09-02T20:50:45Z</time>
  <course>142.98</course>
  <speed>0.01</speed>
  <fix>3d</fix>
</trkpt>
<trkpt lat="40.0717007" lon="-105.2292947">
  <ele>1582.99</ele>
  <time>2026-09-02T20:50:45Z</time>
  <course>151.15</course>
  <speed>0.03605551275463989</speed>
  <fix>3d</fix>
</trkpt>
<trkpt lat="40.0717008" lon="-105.2292949">
  <ele>1582.99</ele>
  <time>2026-09-02T20:50:45Z</time>
  <course>142.98</course>
  <speed>0.01</speed>
  <fix>3d</fix>
</trkpt>
<trkpt lat="40.0717007" lon="-105.2292947">
  <ele>1582.99</ele>
  <time>2026-09-02T20:50:45Z</time>
  <course>156.21</course>
  <speed>0.044721359549995794</speed>
  <fix>3d</fix>
</trkpt>
<trkpt lat="40.0717008" lon="-105.2292948">
  <ele>1582.99</ele>
  <time>2026-09-02T20:50:45Z</time>
  <course>157.58</course>
  <speed>0.02</speed>
  <fix>3d</fix>
</trkpt>
<trkpt lat="40.0717007" lon="-105.2292947">
  <ele>1582.99</ele>
  <time>2026-09-02T20:50:45Z</time>
  <course>161.29</course>
  <speed>0.11401754250991379</speed>
  <fix>3d</fix>
</trkpt>
<trkpt lat="40.0717008" lon="-105.2292948">
  <ele>1582.99</ele>
  <time>2026-09-02T20:50:45Z</time>
  <course>157.58</course>
  <speed>0.02</speed>
  <fix>3d</fix>
</trkpt>
<trkpt lat="40.0717006" lon="-105.2292947">
  <ele>1582.99</ele>
  <time>2026-09-02T20:50:45Z</time>
  <course>166.32</course>
  <speed>0.13341664064126335</speed>
  <fix>3d</fix>
</trkpt>
<trkpt lat="40.0717006" lon="-105.2292947">
  <ele>1582.99</ele>
  <time>2026-09-02T20:50:45Z</time>
  <course>163.7</course>
  <speed>0.09</speed>
  <fix>3d</fix>
</trkpt>
<trkpt lat="40.0717004" lon="-105.2292947">
  <ele>1582.99</ele>
  <time>2026-09-02T20:50:45Z</time>
  <course>171.3</course>
  <speed>0.2220360331117452</speed>
  <fix>3d</fix>
</trkpt>
<trkpt lat="40.0717006" lon="-105.2292947">
  <ele>1582.99</ele>
  <time>2026-09-02T20:50:45Z</time>
  <course>163.7</course>
  <speed>0.09</speed>
  <fix>3d</fix>
</trkpt>
<trkpt lat="40.0717001" lon="-105.2292947">
  <ele>1582.99</ele>
  <time>2026-09-02T20:50:45Z</time>
  <course>176.18</course>
  <speed>0.2501999200639361</speed>
  <fix>3d</fix>
</trkpt>
<trkpt lat="40.0717004" lon="-105.2292947">
  <ele>1582.99</ele>
  <time>2026-09-02T20:50:45Z</time>
  <course>172.48</course>
  <speed>0.19</speed>
  <fix>3d</fix>
</trkpt>
<trkpt lat="40.0717" lon="-105.2292947">
  <ele>1582.99</ele>
  <time>2026-09-02T20:50:45Z</time>
  <course>180.95</course>
  <speed>0.32</speed>
  <fix>3d</fix>
</trkpt>
<trkpt lat="40.0717004" lon="-105.2292947">
  <ele>1582.99</ele>
  <time>2026-09-02T20:50:45Z</time>
  <course>172.48</course>
  <speed>0.19</speed>
  <fix>3d</fix>
</trkpt>
<trkpt lat="40.0716995" lon="-105.2292947">
  <ele>1582.99</ele>
  <time>2026-09-02T20:50:45Z</time>
  <course>185.58</course>
  <speed>0.35128336140500593</speed>
  <fix>3d</fix>
</trkpt>
<trkpt lat="40.0716999" lon="-105.2292947">
  <ele>1582.99</ele>
  <time>2026-09-02T20:50:45Z</time>
  <course>181.47</course>
  <speed>0.3</speed>
  <fix>3d</fix>
</trkpt>
<trkpt lat="40.0716993" lon="-105.2292947">
  <ele>1582.99</ele>
  <time>2026-09-02T20:50:45Z</time>
  <course>190.07</course>
  <speed>0.40607881008493907</speed>
  <fix>3d</fix>
</trkpt>
<trkpt lat="40.0716999" lon="-105.2292947">
  <ele>1582.99</ele>
  <time>2026-09-02T20:50:45Z</time>
  <course>181.47</course>
  <speed>0.3</speed>
  <fix>3d</fix>
</trkpt>
<trkpt lat="40.0716989" lon="-105.2292947">
  <ele>1582.99</ele>
  <time>2026-09-02T20:50:45Z</time>
  <course>194.38</course>
  <speed>0.4535416188179427</speed>
  <fix>3d</fix>
</trkpt>
<trkpt lat="40.0716992" lon="-105.2292947">
  <ele>1582.99</ele>
  <time>2026-09-02T20:50:45Z</time>
  <course>190.27</course>
  <speed>0.4</speed>
  <fix>3d</fix>
</trkpt>
<trkpt lat="40.0716983" lon="-105.2292949">
  <ele>1582.99</ele>
  <time>2026-09-02T20:50:45Z</time>
  <course>199.29</course>
  <speed>0.5059644256269408</speed>
  <fix>3d</fix>
</trkpt>
<trkpt lat="40.0716992" lon="-105.2292947">
  <ele>1582.99</ele>
  <time>2026-09-02T20:50:45Z</time>
  <course>190.27</course>
  <speed>0.4</speed>
  <fix>3d</fix>
</trkpt>
<trkpt lat="40.071698" lon="-105.2292952">
  <ele>1582.99</ele>
  <time>2026-09-02T20:50:45Z</time>
  <course>203.14</course>
  <speed>0.5292447448959696</speed>
  <fix>3d</fix>
</trkpt>
<trkpt lat="40.0716984" lon="-105.2292949">
  <ele>1582.99</ele>
  <time>2026-09-02T20:50:45Z</time>
  <course>198.47</course>
  <speed>0.49</speed>
  <fix>3d</fix>
</trkpt>
<trkpt lat="40.0716975" lon="-105.2292954">
  <ele>1582.99</ele>
  <time>2026-09-02T20:50:45Z</time>
  <course>206.75</course>
  <speed>0.5903388857258176</speed>
  <fix>3d</fix>
</trkpt>
<trkpt lat="40.0716984" lon="-105.2292949">
  <ele>1582.99</ele>
  <time>2026-09-02T20:50:45Z</time>
  <course>198.47</course>
  <speed>0.49</speed>
  <fix>3d</fix>
</trkpt>
<trkpt lat="40.071697" lon="-105.2292957">
  <ele>1582.99</ele>
  <time>2026-09-02T20:50:45Z</time>
  <course>210.07</course>
  <speed>0.6313477647065838</speed>
  <fix>3d</fix>
</trkpt>
<trkpt lat="40.0716976" lon="-105.2292954">
  <ele>1582.99</ele>
  <time>2026-09-02T20:50:45Z</time>
  <course>205.95</course>
  <speed>0.58</speed>
  <fix>3d</fix>
</trkpt>
<trkpt lat="40.0716965" lon="-105.2292961">
  <ele>1582.99</ele>
  <time>2026-09-02T20:50:45Z</time>
  <course>213.14</course>
  <speed>0.6879680225126746</speed>
  <fix>3d</fix>
</trkpt>
<trkpt lat="40.0716976" lon="-105.2292954">
  <ele>1582.99</ele>
  <time>2026-09-02T20:50:45Z</time>
  <course>205.95</course>
  <speed>0.58</speed>
  <fix>3d</fix>
</trkpt>
<trkpt lat="40.0716959" lon="-105.2292966">
  <ele>1582.99</ele>
  <time>2026-09-02T20:50:45Z</time>
  <course>215.97</course>
  <speed>0.7381734213584231</speed>
  <fix>3d</fix>
</trkpt>
<trkpt lat="40.0716965" lon="-105.2292961">
  <ele>1582.99</ele>
  <time>2026-09-02T20:50:45Z</time>
  <course>212.43</course>
  <speed>0.68</speed>
  <fix>3d</fix>
</trkpt>
<trkpt lat="40.0716953" lon="-105.2292971">
  <ele>1582.99</ele>
  <time>2026-09-02T20:50:45Z</time>
  <course>218.55</course>
  <speed>0.7902531240052139</speed>
  <fix>3d</fix>
</trkpt>
<trkpt lat="40.0716965" lon="-105.2292961">
  <ele>1582.99</ele>
  <time>2026-09-02T20:50:45Z</time>
  <course>212.43</course>
  <speed>0.68</speed>
  <fix>3d</fix>
</trkpt>
<trkpt lat="40.0716947" lon="-105.2292978">
  <ele>1582.99</ele>
  <time>2026-09-02T20:50:45Z</time>
  <course>220.92</course>
  <speed>0.8297590011563598</speed>
  <fix>3d</fix>
</trkpt>
<trkpt lat="40.0716955" lon="-105.2292971">
  <ele>1582.99</ele>
  <time>2026-09-02T20:50:45Z</time>
  <course>217.91</course>
  <speed>0.78</speed>
  <fix>3d</fix>
</trkpt>
<trkpt lat="40.0716943" lon="-105.2292985">
  <ele>1582.99</ele>
  <time>2026-09-02T20:50:45Z</time>
  <course>223.07</course>
  <speed>0.891403387922662</speed>
  <fix>3d</fix>
</trkpt>
<trkpt lat="40.0716955" lon="-105.2292971">
  <ele>1582.99</ele>
  <time>2026-09-02T20:50:45Z</time>
  <course>217.91</course>
  <speed>0.78</speed>
  <fix>3d</fix>
</trkpt>
<trkpt lat="40.0716937" lon="-105.2292992">
  <ele>1582.99</ele>
  <time>2026-09-02T20:50:45Z</time>
  <course>225.03</course>
  <speed>0.9263368717696602</speed>
  <fix>3d</fix>
</trkpt>
<trkpt lat="40.0716943" lon="-105.2292983">
  <ele>1582.99</ele>
  <time>2026-09-02T20:50:45Z</time>
  <course>222.48</course>
  <speed>0.88</speed>
  <fix>3d</fix>
</trkpt>
<trkpt lat="40.0716931" lon="-105.2293">
  <ele>1582.99</ele>
  <time>2026-09-02T20:50:45Z</time>
  <course>226.82</course>
  <speed>0.9762171889492625</speed>
  <fix>3d</fix>
</trkpt>
<trkpt lat="40.0716943" lon="-105.2292983">
  <ele>1582.99</ele>
  <time>2026-09-02T20:50:45Z</time>
  <course>222.48</course>
  <speed>0.88</speed>
  <fix>3d</fix>
</trkpt>
<trkpt lat="40.0716926" lon="-105.2293007">
  <ele>1582.99</ele>
  <time>2026-09-02T20:50:45Z</time>
  <course>228.15</course>
  <speed>0.9915644204992432</speed>
  <fix>3d</fix>
</trkpt>
<trkpt lat="40.0716932" lon="-105.2292999">
  <ele>1582.99</ele>
  <time>2026-09-02T20:50:45Z</time>
  <course>226.28</course>
  <speed>0.96</speed>
  <fix>3d</fix>
</trkpt>
<trkpt lat="40.071692" lon="-105.2293016">
  <ele>1582.99</ele>
  <time>2026-09-02T20:50:45Z</time>
  <course>229.67</course>
  <speed>1.0141498903022177</speed>
  <fix>3d</fix>
</trkpt>
<trkpt lat="40.0716932" lon="-105.2292999">
  <ele>1582.99</ele>
  <time>2026-09-02T20:50:45Z</time>
  <course>226.28</course>
  <speed>0.96</speed>
  <fix>3d</fix>
</trkpt>
<trkpt lat="40.0716914" lon="-105.2293026">
  <ele>1582.99</ele>
  <time>2026-09-02T20:50:45Z</time>
  <course>231.07</course>
  <speed>1.0307764064044151</speed>
  <fix>3d</fix>
</trkpt>
<trkpt lat="40.071692" lon="-105.2293016">
  <ele>1582.99</ele>
  <time>2026-09-02T20:50:45Z</time>
  <course>229.45</course>
  <speed>1.01</speed>
  <fix>3d</fix>
</trkpt>
<trkpt lat="40.0716908" lon="-105.2293035">
  <ele>1582.99</ele>
  <time>2026-09-02T20:50:45Z</time>
  <course>232.34</course>
  <speed>1.0261578825892241</speed>
  <fix>3d</fix>
</trkpt>
<trkpt lat="40.071692" lon="-105.2293016">
  <ele>1582.99</ele>
  <time>2026-09-02T20:50:45Z</time>
  <course>229.45</course>
  <speed>1.01</speed>
  <fix>3d</fix>
</trkpt>
<trkpt lat="40.0716902" lon="-105.2293045">
  <ele>1583.0</ele>
  <time>2026-09-02T20:50:45Z</time>
  <course>233.53</course>
  <speed>1.0220078277586722</speed>
  <fix>3d</fix>
</trkpt>
<trkpt lat="40.0716908" lon="-105.2293035">
  <ele>1582.99</ele>
  <time>2026-09-02T20:50:45Z</time>
  <course>232.11</course>
  <speed>1.03</speed>
  <fix>3d</fix>
</trkpt>
<trkpt lat="40.0716897" lon="-105.2293055">
  <ele>1582.99</ele>
  <time>2026-09-02T20:50:45Z</time>
  <course>234.63</course>
  <speed>1.0043903623591774</speed>
  <fix>3d</fix>
</trkpt>
<trkpt lat="40.0716908" lon="-105.2293035">
  <ele>1582.99</ele>
  <time>2026-09-02T20:50:45Z</time>
  <course>232.11</course>
  <speed>1.03</speed>
  <fix>3d</fix>
</trkpt>
<trkpt lat="40.0716892" lon="-105.2293064">
  <ele>1582.99</ele>
  <time>2026-09-02T20:50:45Z</time>
  <course>235.63</course>
  <speed>0.984733466477097</speed>
  <fix>3d</fix>
</trkpt>
<trkpt lat="40.0716897" lon="-105.2293054">
  <ele>1582.99</ele>
  <time>2026-09-02T20:50:45Z</time>
  <course>234.36</course>
  <speed>1.01</speed>
  <fix>3d</fix>
</trkpt>
<trkpt lat="40.0716886" lon="-105.2293074">
  <ele>1582.99</ele>
  <time>2026-09-02T20:50:45Z</time>
  <course>236.53</course>
  <speed>0.9513148795220223</speed>
  <fix>3d</fix>
</trkpt>
<trkpt lat="40.0716897" lon="-105.2293054">
  <ele>1582.99</ele>
  <time>2026-09-02T20:50:45Z</time>
  <course>234.36</course>
  <speed>1.01</speed>
  <fix>3d</fix>
</trkpt>
<trkpt lat="40.0716881" lon="-105.2293083">
  <ele>1582.99</ele>
  <time>2026-09-02T20:50:45Z</time>
  <course>237.35</course>
  <speed>0.9264987857520376</speed>
  <fix>3d</fix>
</trkpt>
<trkpt lat="40.0716886" lon="-105.2293073">
  <ele>1582.99</ele>
  <time>2026-09-02T20:50:45Z</time>
  <course>236.26</course>
  <speed>0.96</speed>
  <fix>3d</fix>
</trkpt>
<trkpt lat="40.0716878" lon="-105.2293091">
  <ele>1582.99</ele>
  <time>2026-09-02T20:50:45Z</time>
  <course>238.09</course>
  <speed>0.8935882720806042</speed>
  <fix>3d</fix>
</trkpt>
<trkpt lat="40.0716886" lon="-105.2293073">
  <ele>1582.99</ele>
  <time>2026-09-02T20:50:45Z</time>
  <course>236.26</course>
  <speed>0.96</speed>
  <fix>3d</fix>
</trkpt>
<trkpt lat="40.0716873" lon="-105.2293103">
  <ele>1582.99</ele>
  <time>2026-09-02T20:50:45Z</time>
  <course>238.86</course>
  <speed>0.8798295289429652</speed>
  <fix>3d</fix>
</trkpt>
<trkpt lat="40.0716877" lon="-105.2293091">
  <ele>1582.99</ele>
  <time>2026-09-02T20:50:45Z</time>
  <course>237.81</course>
  <speed>0.91</speed>
  <fix>3d</fix>
</trkpt>
<trkpt lat="40.0716868" lon="-105.2293112">
  <ele>1582.99</ele>
  <time>2026-09-02T20:50:45Z</time>
  <course>239.42</course>
  <speed>0.8523496934944014</speed>
  <fix>3d</fix>
</trkpt>
<trkpt lat="40.0716877" lon="-105.2293091">
  <ele>1582.99</ele>
  <time>2026-09-02T20:50:45Z</time>
  <course>237.81</course>
  <speed>0.91</speed>
  <fix>3d</fix>
</trkpt>
<trkpt lat="40.0716865" lon="-105.2293119">
  <ele>1582.99</ele>
  <time>2026-09-02T20:50:45Z</time>
  <course>239.92</course>
  <speed>0.8558621384311844</speed>
  <fix>3d</fix>
</trkpt>
<trkpt lat="40.071687" lon="-105.229311">
  <ele>1582.99</ele>
  <time>2026-09-02T20:50:45Z</time>
  <course>239.05</course>
  <speed>0.88</speed>
  <fix>3d</fix>
</trkpt>
<trkpt lat="40.0716861" lon="-105.2293129">
  <ele>1582.99</ele>
  <time>2026-09-02T20:50:45Z</time>
  <course>240.34</course>
  <speed>0.8421995013059553</speed>
  <fix>3d</fix>
</trkpt>
<trkpt lat="40.071687" lon="-105.229311">
  <ele>1582.99</ele>
  <time>2026-09-02T20:50:45Z</time>
  <course>239.05</course>
  <speed>0.88</speed>
  <fix>3d</fix>
</trkpt>
<trkpt lat="40.0716856" lon="-105.2293138">
  <ele>1582.99</ele>
  <time>2026-09-02T20:50:45Z</time>
  <course>240.69</course>
  <speed>0.8372574275573791</speed>
  <fix>3d</fix>
</trkpt>
<trkpt lat="40.0716862" lon="-105.2293127">
  <ele>1582.99</ele>
  <time>2026-09-02T20:50:45Z</time>
  <course>239.99</course>
  <speed>0.86</speed>
  <fix>3d</fix>
</trkpt>
<trkpt lat="40.0716853" lon="-105.2293146">
  <ele>1583.0</ele>
  <time>2026-09-02T20:50:45Z</time>
  <course>240.99</course>
  <speed>0.8459905436823747</speed>
  <fix>3d</fix>
</trkpt>
<trkpt lat="40.0716862" lon="-105.2293127">
  <ele>1582.99</ele>
  <time>2026-09-02T20:50:45Z</time>
  <course>239.99</course>
  <speed>0.86</speed>
  <fix>3d</fix>
</trkpt>
<trkpt lat="40.0716849" lon="-105.2293155">
  <ele>1582.99</ele>
  <time>2026-09-02T20:50:45Z</time>
  <course>241.22</course>
  <speed>0.8547514258543241</speed>
  <fix>3d</fix>
</trkpt>
<trkpt lat="40.0716853" lon="-105.2293144">
  <ele>1582.99</ele>
  <time>2026-09-02T20:50:45Z</time>
  <course>240.67</course>
  <speed>0.85</speed>
  <fix>3d</fix>
</trkpt>
<trkpt lat="40.0716846" lon="-105.2293164">
  <ele>1582.99</ele>
  <time>2026-09-02T20:50:45Z</time>
  <course>241.4</course>
  <speed>0.8547514258543241</speed>
  <fix>3d</fix>
</trkpt>
<trkpt lat="40.0716853" lon="-105.2293144">
  <ele>1582.99</ele>
  <time>2026-09-02T20:50:45Z</time>
  <course>240.67</course>
  <speed>0.85</speed>
  <fix>3d</fix>
</trkpt>
<trkpt lat="40.0716842" lon="-105.2293172">
  <ele>1582.99</ele>
  <time>2026-09-02T20:50:45Z</time>
  <course>241.53</course>
  <speed>0.8683317338436964</speed>
  <fix>3d</fix>
</trkpt>
<trkpt lat="40.0716846" lon="-105.2293162">
  <ele>1582.99</ele>
  <time>2026-09-02T20:50:45Z</time>
  <course>241.11</course>
  <speed>0.86</speed>
  <fix>3d</fix>
</trkpt>
<trkpt lat="40.0716837" lon="-105.2293182">
  <ele>1582.99</ele>
  <time>2026-09-02T20:50:45Z</time>
  <course>241.61</course>
  <speed>0.8770974860299168</speed>
  <fix>3d</fix>
</trkpt>
<trkpt lat="40.0716846" lon="-105.2293162">
  <ele>1582.99</ele>
  <time>2026-09-02T20:50:45Z</time>
  <course>241.11</course>
  <speed>0.86</speed>
  <fix>3d</fix>
</trkpt>
<trkpt lat="40.0716834" lon="-105.2293191">
  <ele>1582.99</ele>
  <time>2026-09-02T20:50:45Z</time>
  <course>241.64</course>
  <speed>0.885889383614004</speed>
  <fix>3d</fix>
</trkpt>
<trkpt lat="40.0716838" lon="-105.229318">
  <ele>1582.99</ele>
  <time>2026-09-02T20:50:45Z</time>
  <course>241.34</course>
  <speed>0.88</speed>
  <fix>3d</fix>
</trkpt>
<trkpt lat="40.0716831" lon="-105.2293198">
  <ele>1582.99</ele>
  <time>2026-09-02T20:50:45Z</time>
  <course>241.64</course>
  <speed>0.885889383614004</speed>
  <fix>3d</fix>
</trkpt>
<trkpt lat="40.0716838" lon="-105.229318">
  <ele>1582.99</ele>
  <time>2026-09-02T20:50:45Z</time>
  <course>241.34</course>
  <speed>0.88</speed>
  <fix>3d</fix>
</trkpt>
<trkpt lat="40.0716826" lon="-105.2293208">
  <ele>1582.99</ele>
  <time>2026-09-02T20:50:45Z</time>
  <course>241.6</course>
  <speed>0.8994442728707542</speed>
  <fix>3d</fix>
</trkpt>
<trkpt lat="40.0716831" lon="-105.2293198">
  <ele>1582.99</ele>
  <time>2026-09-02T20:50:45Z</time>
  <course>241.39</course>
  <speed>0.9</speed>
  <fix>3d</fix>
</trkpt>
<trkpt lat="40.0716824" lon="-105.2293217">
  <ele>1582.99</ele>
  <time>2026-09-02T20:50:45Z</time>
  <course>241.52</course>
  <speed>0.8994442728707542</speed>
  <fix>3d</fix>
</trkpt>
<trkpt lat="40.0716831" lon="-105.2293198">
  <ele>1582.99</ele>
  <time>2026-09-02T20:50:45Z</time>
  <course>241.39</course>
  <speed>0.9</speed>
  <fix>3d</fix>
</trkpt>
<trkpt lat="40.0716819" lon="-105.2293227">
  <ele>1582.99</ele>
  <time>2026-09-02T20:50:45Z</time>
  <course>241.4</course>
  <speed>0.9217917335276988</speed>
  <fix>3d</fix>
</trkpt>
<trkpt lat="40.0716823" lon="-105.2293217">
  <ele>1582.99</ele>
  <time>2026-09-02T20:50:45Z</time>
  <course>241.27</course>
  <speed>0.91</speed>
  <fix>3d</fix>
</trkpt>
<trkpt lat="40.0716816" lon="-105.2293236">
  <ele>1582.99</ele>
  <time>2026-09-02T20:50:45Z</time>
  <course>241.26</course>
  <speed>0.8994442728707542</speed>
  <fix>3d</fix>
</trkpt>
<trkpt lat="40.0716823" lon="-105.2293217">
  <ele>1582.99</ele>
  <time>2026-09-02T20:50:45Z</time>
  <course>241.27</course>
  <speed>0.91</speed>
  <fix>3d</fix>
</trkpt>
<trkpt lat="40.0716812" lon="-105.2293246">
  <ele>1582.99</ele>
  <time>2026-09-02T20:50:45Z</time>
  <course>241.08</course>
  <speed>0.9266067126888301</speed>
  <fix>3d</fix>
</trkpt>
<trkpt lat="40.0716816" lon="-105.2293236">
  <ele>1582.99</ele>
  <time>2026-09-02T20:50:45Z</time>
  <course>241.02</course>
  <speed>0.93</speed>
  <fix>3d</fix>
</trkpt>
<trkpt lat="40.0716807" lon="-105.2293255">
  <ele>1582.99</ele>
  <time>2026-09-02T20:50:45Z</time>
  <course>240.87</course>
  <speed>0.904267659490264</speed>
  <fix>3d</fix>
</trkpt>
<trkpt lat="40.0716816" lon="-105.2293236">
  <ele>1582.99</ele>
  <time>2026-09-02T20:50:45Z</time>
  <course>241.02</course>
  <speed>0.93</speed>
  <fix>3d</fix>
</trkpt>
<trkpt lat="40.0716803" lon="-105.2293265">
  <ele>1582.99</ele>
  <time>2026-09-02T20:50:45Z</time>
  <course>240.65</course>
  <speed>0.9315041599477696</speed>
  <fix>3d</fix>
</trkpt>
<trkpt lat="40.0716807" lon="-105.2293255">
  <ele>1582.99</ele>
  <time>2026-09-02T20:50:45Z</time>
  <course>240.64</course>
  <speed>0.93</speed>
  <fix>3d</fix>
</trkpt>
<trkpt lat="40.0716799" lon="-105.2293273">
  <ele>1582.99</ele>
  <time>2026-09-02T20:50:45Z</time>
  <course>240.39</course>
  <speed>0.9091754506144565</speed>
  <fix>3d</fix>
</trkpt>
<trkpt lat="40.0716807" lon="-105.2293255">
  <ele>1582.99</ele>
  <time>2026-09-02T20:50:45Z</time>
  <course>240.64</course>
  <speed>0.93</speed>
  <fix>3d</fix>
</trkpt>
<trkpt lat="40.0716794" lon="-105.2293284">
  <ele>1582.99</ele>
  <time>2026-09-02T20:50:45Z</time>
  <course>240.11</course>
  <speed>0.9364827814754524</speed>
  <fix>3d</fix>
</trkpt>
<trkpt lat="40.0716798" lon="-105.2293274">
  <ele>1582.99</ele>
  <time>2026-09-02T20:50:45Z</time>
  <course>240.15</course>
  <speed>0.93</speed>
  <fix>3d</fix>
</trkpt>
<trkpt lat="40.0716789" lon="-105.2293294">
  <ele>1582.99</ele>
  <time>2026-09-02T20:50:45Z</time>
  <course>239.77</course>
  <speed>0.914166286842826</speed>
  <fix>3d</fix>
</trkpt>
<trkpt lat="40.0716798" lon="-105.2293274">
  <ele>1582.99</ele>
  <time>2026-09-02T20:50:45Z</time>
  <course>240.15</course>
  <speed>0.93</speed>
  <fix>3d</fix>
</trkpt>
<trkpt lat="40.0716786" lon="-105.2293304">
  <ele>1582.99</ele>
  <time>2026-09-02T20:50:45Z</time>
  <course>239.45</course>
  <speed>0.9415412895885129</speed>
  <fix>3d</fix>
</trkpt>
<trkpt lat="40.0716791" lon="-105.2293292">
  <ele>1582.99</ele>
  <time>2026-09-02T20:50:45Z</time>
  <course>239.59</course>
  <speed>0.94</speed>
  <fix>3d</fix>
</trkpt>
<trkpt lat="40.0716782" lon="-105.2293313">
  <ele>1582.99</ele>
  <time>2026-09-02T20:50:45Z</time>
  <course>239.13</course>
  <speed>0.9192388155425119</speed>
  <fix>3d</fix>
</trkpt>
<trkpt lat="40.0716791" lon="-105.2293292">
  <ele>1582.99</ele>
  <time>2026-09-02T20:50:45Z</time>
  <course>239.59</course>
  <speed>0.94</speed>
  <fix>3d</fix>
</trkpt>
<trkpt lat="40.0716776" lon="-105.2293323">
  <ele>1582.99</ele>
  <time>2026-09-02T20:50:45Z</time>
  <course>238.79</course>
  <speed>0.9381364506296512</speed>
  <fix>3d</fix>
</trkpt>
<trkpt lat="40.0716782" lon="-105.2293311">
  <ele>1582.99</ele>
  <time>2026-09-02T20:50:45Z</time>
  <course>238.96</course>
  <speed>0.94</speed>
  <fix>3d</fix>
</trkpt>
<trkpt lat="40.0716773" lon="-105.2293332">
  <ele>1582.99</ele>
  <time>2026-09-02T20:50:45Z</time>
  <course>238.44</course>
  <speed>0.9243916918709297</speed>
  <fix>3d</fix>
</trkpt>
<trkpt lat="40.0716782" lon="-105.2293311">
  <ele>1582.99</ele>
  <time>2026-09-02T20:50:45Z</time>
  <course>238.96</course>
  <speed>0.94</speed>
  <fix>3d</fix>
</trkpt>
<trkpt lat="40.0716768" lon="-105.2293342">
  <ele>1582.99</ele>
  <time>2026-09-02T20:50:45Z</time>
  <course>238.09</course>
  <speed>0.9433981132056605</speed>
  <fix>3d</fix>
</trkpt>
<trkpt lat="40.0716773" lon="-105.229333">
  <ele>1582.99</ele>
  <time>2026-09-02T20:50:45Z</time>
  <course>238.28</course>
  <speed>0.94</speed>
  <fix>3d</fix>
</trkpt>
<trkpt lat="40.0716764" lon="-105.2293351">
  <ele>1582.99</ele>
  <time>2026-09-02T20:50:45Z</time>
  <course>237.72</course>
  <speed>0.9264987857520376</speed>
  <fix>3d</fix>
</trkpt>
<trkpt lat="40.0716773" lon="-105.229333">
  <ele>1582.99</ele>
  <time>2026-09-02T20:50:45Z</time>
  <course>238.28</course>
  <speed>0.94</speed>
  <fix>3d</fix>
</trkpt>
<trkpt lat="40.0716758" lon="-105.2293359">
  <ele>1582.99</ele>
  <time>2026-09-02T20:50:45Z</time>
  <course>237.35</course>
  <speed>0.9487360012142472</speed>
  <fix>3d</fix>
</trkpt>
<trkpt lat="40.0716764" lon="-105.2293349">
  <ele>1582.99</ele>
  <time>2026-09-02T20:50:45Z</time>
  <course>237.56</course>
  <speed>0.95</speed>
  <fix>3d</fix>
</trkpt>
<trkpt lat="40.0716755" lon="-105.229337">
  <ele>1582.99</ele>
  <time>2026-09-02T20:50:45Z</time>
  <course>236.98</course>
  <speed>0.931933474020544</speed>
  <fix>3d</fix>
</trkpt>
<trkpt lat="40.0716764" lon="-105.2293349">
  <ele>1582.99</ele>
  <time>2026-09-02T20:50:45Z</time>
  <course>237.56</course>
  <speed>0.95</speed>
  <fix>3d</fix>
</trkpt>
<trkpt lat="40.071675" lon="-105.2293378">
  <ele>1582.99</ele>
  <time>2026-09-02T20:50:45Z</time>
  <course>236.6</course>
  <speed>0.9513148795220223</speed>
  <fix>3d</fix>
</trkpt>
<trkpt lat="40.0716755" lon="-105.2293368">
  <ele>1582.99</ele>
  <time>2026-09-02T20:50:45Z</time>
  <course>236.82</course>
  <speed>0.95</speed>
  <fix>3d</fix>
</trkpt>
<trkpt lat="40.0716745" lon="-105.2293387">
  <ele>1582.99</ele>
  <time>2026-09-02T20:50:45Z</time>
  <course>236.22</course>
  <speed>0.9374433316206372</speed>
  <fix>3d</fix>
</trkpt>
<trkpt lat="40.0716755" lon="-105.2293368">
  <ele>1582.99</ele>
  <time>2026-09-02T20:50:45Z</time>
  <course>236.82</course>
  <speed>0.95</speed>
  <fix>3d</fix>
</trkpt>
<trkpt lat="40.071674" lon="-105.2293395">
  <ele>1582.99</ele>
  <time>2026-09-02T20:50:45Z</time>
  <course>235.92</course>
  <speed>0.9569221493935649</speed>
  <fix>3d</fix>
</trkpt>
<trkpt lat="40.0716745" lon="-105.2293386">
  <ele>1582.99</ele>
  <time>2026-09-02T20:50:45Z</time>
  <course>236.07</course>
  <speed>0.95</speed>
  <fix>3d</fix>
</trkpt>
<trkpt lat="40.0716735" lon="-105.2293404">
  <ele>1582.99</ele>
  <time>2026-09-02T20:50:45Z</time>
  <course>235.54</course>
  <speed>0.9347726996441434</speed>
  <fix>3d</fix>
</trkpt>
<trkpt lat="40.0716745" lon="-105.2293386">
  <ele>1582.99</ele>
  <time>2026-09-02T20:50:45Z</time>
  <course>236.07</course>
  <speed>0.95</speed>
  <fix>3d</fix>
</trkpt>
<trkpt lat="40.0716732" lon="-105.2293414">
  <ele>1582.99</ele>
  <time>2026-09-02T20:50:45Z</time>
  <course>235.17</course>
  <speed>0.9544108130150245</speed>
  <fix>3d</fix>
</trkpt>
<trkpt lat="40.0716736" lon="-105.2293404">
  <ele>1582.99</ele>
  <time>2026-09-02T20:50:45Z</time>
  <course>235.32</course>
  <speed>0.96</speed>
  <fix>3d</fix>
</trkpt>
<trkpt lat="40.0716727" lon="-105.2293423">
  <ele>1582.99</ele>
  <time>2026-09-02T20:50:45Z</time>
  <course>234.79</course>
  <speed>0.9544108130150245</speed>
  <fix>3d</fix>
</trkpt>
<trkpt lat="40.0716736" lon="-105.2293404">
  <ele>1582.99</ele>
  <time>2026-09-02T20:50:45Z</time>
  <course>235.32</course>
  <speed>0.96</speed>
  <fix>3d</fix>
</trkpt>
<trkpt lat="40.0716721" lon="-105.2293431">
  <ele>1582.99</ele>
  <time>2026-09-02T20:50:45Z</time>
  <course>234.42</course>
  <speed>0.9602083107326242</speed>
  <fix>3d</fix>
</trkpt>
<trkpt lat="40.0716726" lon="-105.2293422">
  <ele>1582.99</ele>
  <time>2026-09-02T20:50:45Z</time>
  <course>234.57</course>
  <speed>0.96</speed>
  <fix>3d</fix>
</trkpt>
<trkpt lat="40.0716715" lon="-105.2293442">
  <ele>1582.99</ele>
  <time>2026-09-02T20:50:45Z</time>
  <course>234.05</course>
  <speed>0.9521029356114811</speed>
  <fix>3d</fix>
</trkpt>
<trkpt lat="40.0716726" lon="-105.2293422">
  <ele>1582.99</ele>
  <time>2026-09-02T20:50:45Z</time>
  <course>234.57</course>
  <speed>0.96</speed>
  <fix>3d</fix>
</trkpt>
<trkpt lat="40.071671" lon="-105.229345">
  <ele>1582.99</ele>
  <time>2026-09-02T20:50:45Z</time>
  <course>233.7</course>
  <speed>0.9580187889597991</speed>
  <fix>3d</fix>
</trkpt>
<trkpt lat="40.0716716" lon="-105.2293441">
  <ele>1582.99</ele>
  <time>2026-09-02T20:50:45Z</time>
  <course>233.84</course>
  <speed>0.96</speed>
  <fix>3d</fix>
</trkpt>
<trkpt lat="40.0716706" lon="-105.2293459">
  <ele>1582.99</ele>
  <time>2026-09-02T20:50:45Z</time>
  <course>233.35</course>
  <speed>0.9640020746865642</speed>
  <fix>3d</fix>
</trkpt>
<trkpt lat="40.0716716" lon="-105.2293441">
  <ele>1582.99</ele>
  <time>2026-09-02T20:50:45Z</time>
  <course>233.84</course>
  <speed>0.96</speed>
  <fix>3d</fix>
</trkpt>
<trkpt lat="40.0716701" lon="-105.2293469">
  <ele>1582.99</ele>
  <time>2026-09-02T20:50:45Z</time>
  <course>233.0</course>
  <speed>0.9560334722173696</speed>
  <fix>3d</fix>
</trkpt>
<trkpt lat="40.0716706" lon="-105.2293459">
  <ele>1582.99</ele>
  <time>2026-09-02T20:50:45Z</time>
  <course>233.13</course>
  <speed>0.96</speed>
  <fix>3d</fix>
</trkpt>
<trkpt lat="40.0716696" lon="-105.2293478">
  <ele>1582.99</ele>
  <time>2026-09-02T20:50:45Z</time>
  <course>232.66</course>
  <speed>0.970051545022222</speed>
  <fix>3d</fix>
</trkpt>
<trkpt lat="40.0716706" lon="-105.2293459">
  <ele>1582.99</ele>
  <time>2026-09-02T20:50:45Z</time>
  <course>233.13</course>
  <speed>0.96</speed>
  <fix>3d</fix>
</trkpt>
<trkpt lat="40.0716689" lon="-105.2293488">
  <ele>1582.99</ele>
  <time>2026-09-02T20:50:45Z</time>
  <course>232.26</course>
  <speed>0.9621330469326995</speed>
  <fix>3d</fix>
</trkpt>
<trkpt lat="40.0716695" lon="-105.2293478">
  <ele>1582.99</ele>
  <time>2026-09-02T20:50:45Z</time>
  <course>232.44</course>
  <speed>0.96</speed>
  <fix>3d</fix>
</trkpt>
<trkpt lat="40.0716684" lon="-105.2293498">
  <ele>1582.99</ele>
  <time>2026-09-02T20:50:45Z</time>
  <course>231.94</course>
  <speed>0.9682974749528164</speed>
  <fix>3d</fix>
</trkpt>
<trkpt lat="40.0716695" lon="-105.2293478">
  <ele>1582.99</ele>
  <time>2026-09-02T20:50:45Z</time>
  <course>232.44</course>
  <speed>0.96</speed>
  <fix>3d</fix>
</trkpt>
<trkpt lat="40.0716678" lon="-105.2293507">
  <ele>1582.99</ele>
  <time>2026-09-02T20:50:45Z</time>
  <course>231.63</course>
  <speed>0.9682974749528164</speed>
  <fix>3d</fix>
</trkpt>
<trkpt lat="40.0716685" lon="-105.2293495">
  <ele>1582.99</ele>
  <time>2026-09-02T20:50:45Z</time>
  <course>231.79</course>
  <speed>0.96</speed>
  <fix>3d</fix>
</trkpt>
<trkpt lat="40.0716673" lon="-105.2293516">
  <ele>1582.99</ele>
  <time>2026-09-02T20:50:45Z</time>
  <course>231.33</course>
  <speed>0.9667471230885561</speed>
  <fix>3d</fix>
</trkpt>
<trkpt lat="40.0716685" lon="-105.2293495">
  <ele>1582.99</ele>
  <time>2026-09-02T20:50:45Z</time>
  <course>231.79</course>
  <speed>0.96</speed>
  <fix>3d</fix>
</trkpt>
<trkpt lat="40.0716667" lon="-105.2293524">
  <ele>1582.99</ele>
  <time>2026-09-02T20:50:45Z</time>
  <course>231.03</course>
  <speed>0.9667471230885561</speed>
  <fix>3d</fix>
</trkpt>
<trkpt lat="40.0716674" lon="-105.2293514">
  <ele>1582.99</ele>
  <time>2026-09-02T20:50:45Z</time>
  <course>231.17</course>
  <speed>0.96</speed>
  <fix>3d</fix>
</trkpt>
<trkpt lat="40.0716661" lon="-105.2293533">
  <ele>1582.99</ele>
  <time>2026-09-02T20:50:45Z</time>
  <course>230.75</course>
  <speed>0.9667471230885561</speed>
  <fix>3d</fix>
</trkpt>
<trkpt lat="40.0716674" lon="-105.2293514">
  <ele>1582.99</ele>
  <time>2026-09-02T20:50:45Z</time>
  <course>231.17</course>
  <speed>0.96</speed>
  <fix>3d</fix>
</trkpt>
<trkpt lat="40.0716655" lon="-105.2293541">
  <ele>1582.99</ele>
  <time>2026-09-02T20:50:45Z</time>
  <course>230.47</course>
  <speed>0.9730878685915265</speed>
  <fix>3d</fix>
</trkpt>
<trkpt lat="40.0716662" lon="-105.2293531">
  <ele>1582.99</ele>
  <time>2026-09-02T20:50:45Z</time>
  <course>230.59</course>
  <speed>0.97</speed>
  <fix>3d</fix>
</trkpt>
<trkpt lat="40.0716651" lon="-105.229355">
  <ele>1582.99</ele>
  <time>2026-09-02T20:50:45Z</time>
  <course>230.21</course>
  <speed>0.9654014708917736</speed>
  <fix>3d</fix>
</trkpt>
<trkpt lat="40.0716662" lon="-105.2293531">
  <ele>1582.99</ele>
  <time>2026-09-02T20:50:45Z</time>
  <course>230.59</course>
  <speed>0.97</speed>
  <fix>3d</fix>
</trkpt>
<trkpt lat="40.0716645" lon="-105.229356">
  <ele>1582.99</ele>
  <time>2026-09-02T20:50:45Z</time>
  <course>229.96</course>
  <speed>0.9718538984847466</speed>
  <fix>3d</fix>
</trkpt>
<trkpt lat="40.0716651" lon="-105.2293549">
  <ele>1582.99</ele>
  <time>2026-09-02T20:50:45Z</time>
  <course>230.05</course>
  <speed>0.97</speed>
  <fix>3d</fix>
</trkpt>
<trkpt lat="40.0716639" lon="-105.2293567">
  <ele>1582.99</ele>
  <time>2026-09-02T20:50:45Z</time>
  <course>229.72</course>
  <speed>0.9718538984847466</speed>
  <fix>3d</fix>
</trkpt>
<trkpt lat="40.0716651" lon="-105.2293549">
  <ele>1582.99</ele>
  <time>2026-09-02T20:50:45Z</time>
  <course>230.05</course>
  <speed>0.97</speed>
  <fix>3d</fix>
</trkpt>
<trkpt lat="40.0716634" lon="-105.2293577">
  <ele>1582.99</ele>
  <time>2026-09-02T20:50:45Z</time>
  <course>229.49</course>
  <speed>0.9783659846908007</speed>
  <fix>3d</fix>
</trkpt>
<trkpt lat="40.071664" lon="-105.2293566">
  <ele>1582.99</ele>
  <time>2026-09-02T20:50:45Z</time>
  <course>229.55</course>
  <speed>0.97</speed>
  <fix>3d</fix>
</trkpt>
<trkpt lat="40.0716629" lon="-105.2293584">
  <ele>1582.99</ele>
  <time>2026-09-02T20:50:45Z</time>
  <course>229.31</course>
  <speed>0.9783659846908007</speed>
  <fix>3d</fix>
</trkpt>
<trkpt lat="40.071664" lon="-105.2293566">
  <ele>1582.99</ele>
  <time>2026-09-02T20:50:45Z</time>
  <course>229.55</course>
  <speed>0.97</speed>
  <fix>3d</fix>
</trkpt>
<trkpt lat="40.0716623" lon="-105.2293593">
  <ele>1582.99</ele>
  <time>2026-09-02T20:50:45Z</time>
  <course>229.09</course>
  <speed>0.97082439194738</speed>
  <fix>3d</fix>
</trkpt>
<trkpt lat="40.0716629" lon="-105.2293584">
  <ele>1582.99</ele>
  <time>2026-09-02T20:50:45Z</time>
  <course>229.1</course>
  <speed>0.98</speed>
  <fix>3d</fix>
</trkpt>
<trkpt lat="40.0716617" lon="-105.2293602">
  <ele>1582.99</ele>
  <time>2026-09-02T20:50:45Z</time>
  <course>228.89</course>
  <speed>0.97082439194738</speed>
  <fix>3d</fix>
</trkpt>
<trkpt lat="40.0716629" lon="-105.2293584">
  <ele>1582.99</ele>
  <time>2026-09-02T20:50:45Z</time>
  <course>229.1</course>
  <speed>0.98</speed>
  <fix>3d</fix>
</trkpt>
<trkpt lat="40.0716612" lon="-105.229361">
  <ele>1582.99</ele>
  <time>2026-09-02T20:50:45Z</time>
  <course>228.7</course>
  <speed>0.97082439194738</speed>
  <fix>3d</fix>
</trkpt>
<trkpt lat="40.0716617" lon="-105.2293601">
  <ele>1582.99</ele>
  <time>2026-09-02T20:50:45Z</time>
  <course>228.68</course>
  <speed>0.98</speed>
  <fix>3d</fix>
</trkpt>
<trkpt lat="40.0716606" lon="-105.2293619">
  <ele>1582.99</ele>
  <time>2026-09-02T20:50:45Z</time>
  <course>228.52</course>
  <speed>0.9774456506629922</speed>
  <fix>3d</fix>
</trkpt>
<trkpt lat="40.0716617" lon="-105.2293601">
  <ele>1582.99</ele>
  <time>2026-09-02T20:50:45Z</time>
  <course>228.68</course>
  <speed>0.98</speed>
  <fix>3d</fix>
</trkpt>
<trkpt lat="40.07166" lon="-105.2293627">
  <ele>1582.99</ele>
  <time>2026-09-02T20:50:45Z</time>
  <course>228.35</course>
  <speed>0.9774456506629922</speed>
  <fix>3d</fix>
</trkpt>
<trkpt lat="40.0716606" lon="-105.2293618">
  <ele>1582.99</ele>
  <time>2026-09-02T20:50:45Z</time>
  <course>228.31</course>
  <speed>0.98</speed>
  <fix>3d</fix>
</trkpt>
<trkpt lat="40.0716594" lon="-105.2293636">
  <ele>1582.99</ele>
  <time>2026-09-02T20:50:45Z</time>
  <course>228.19</course>
  <speed>0.9774456506629922</speed>
  <fix>3d</fix>
</trkpt>
<trkpt lat="40.0716606" lon="-105.2293618">
  <ele>1582.99</ele>
  <time>2026-09-02T20:50:45Z</time>
  <course>228.31</course>
  <speed>0.98</speed>
  <fix>3d</fix>
</trkpt>
<trkpt lat="40.0716588" lon="-105.2293644">
  <ele>1582.99</ele>
  <time>2026-09-02T20:50:45Z</time>
  <course>228.03</course>
  <speed>0.9841239759298622</speed>
  <fix>3d</fix>
</trkpt>
<trkpt lat="40.0716594" lon="-105.2293635">
  <ele>1582.99</ele>
  <time>2026-09-02T20:50:45Z</time>
  <course>227.98</course>
  <speed>0.98</speed>
  <fix>3d</fix>
</trkpt>
<trkpt lat="40.0716582" lon="-105.2293653">
  <ele>1582.99</ele>
  <time>2026-09-02T20:50:45Z</time>
  <course>227.89</course>
  <speed>0.9767292357659824</speed>
  <fix>3d</fix>
</trkpt>
<trkpt lat="40.0716594" lon="-105.2293635">
  <ele>1582.99</ele>
  <time>2026-09-02T20:50:45Z</time>
  <course>227.98</course>
  <speed>0.98</speed>
  <fix>3d</fix>
</trkpt>
<trkpt lat="40.0716575" lon="-105.2293663">
  <ele>1582.99</ele>
  <time>2026-09-02T20:50:45Z</time>
  <course>227.73</course>
  <speed>0.9767292357659824</speed>
  <fix>3d</fix>
</trkpt>
<trkpt lat="40.0716582" lon="-105.2293652">
  <ele>1582.99</ele>
  <time>2026-09-02T20:50:45Z</time>
  <course>227.69</course>
  <speed>0.98</speed>
  <fix>3d</fix>
</trkpt>
<trkpt lat="40.0716569" lon="-105.2293672">
  <ele>1582.99</ele>
  <time>2026-09-02T20:50:45Z</time>
  <course>227.61</course>
  <speed>0.9767292357659824</speed>
  <fix>3d</fix>
</trkpt>
<trkpt lat="40.0716582" lon="-105.2293652">
  <ele>1582.99</ele>
  <time>2026-09-02T20:50:45Z</time>
  <course>227.69</course>
  <speed>0.98</speed>
  <fix>3d</fix>
</trkpt>
<trkpt lat="40.0716563" lon="-105.2293679">
  <ele>1582.99</ele>
  <time>2026-09-02T20:50:45Z</time>
  <course>227.5</course>
  <speed>0.9835141076771599</speed>
  <fix>3d</fix>
</trkpt>
<trkpt lat="40.0716569" lon="-105.2293669">
  <ele>1582.99</ele>
  <time>2026-09-02T20:50:45Z</time>
  <course>227.43</course>
  <speed>0.98</speed>
  <fix>3d</fix>
</trkpt>
<trkpt lat="40.0716557" lon="-105.2293689">
  <ele>1582.99</ele>
  <time>2026-09-02T20:50:45Z</time>
  <course>227.4</course>
  <speed>0.9767292357659824</speed>
  <fix>3d</fix>
</trkpt>
<trkpt lat="40.0716569" lon="-105.2293669">
  <ele>1582.99</ele>
  <time>2026-09-02T20:50:45Z</time>
  <course>227.43</course>
  <speed>0.98</speed>
  <fix>3d</fix>
</trkpt>
<trkpt lat="40.0716551" lon="-105.2293696">
  <ele>1582.99</ele>
  <time>2026-09-02T20:50:45Z</time>
  <course>227.31</course>
  <speed>0.9835141076771599</speed>
  <fix>3d</fix>
</trkpt>
<trkpt lat="40.0716557" lon="-105.2293686">
  <ele>1582.99</ele>
  <time>2026-09-02T20:50:45Z</time>
  <course>227.22</course>
  <speed>0.98</speed>
  <fix>3d</fix>
</trkpt>
<trkpt lat="40.0716545" lon="-105.2293706">
  <ele>1582.99</ele>
  <time>2026-09-02T20:50:45Z</time>
  <course>227.23</course>
  <speed>0.9835141076771599</speed>
  <fix>3d</fix>
</trkpt>
<trkpt lat="40.0716557" lon="-105.2293686">
  <ele>1582.99</ele>
  <time>2026-09-02T20:50:45Z</time>
  <course>227.22</course>
  <speed>0.98</speed>
  <fix>3d</fix>
</trkpt>
<trkpt lat="40.0716539" lon="-105.2293713">
  <ele>1582.99</ele>
  <time>2026-09-02T20:50:45Z</time>
  <course>227.15</course>
  <speed>0.9835141076771599</speed>
  <fix>3d</fix>
</trkpt>
<trkpt lat="40.0716545" lon="-105.2293703">
  <ele>1582.99</ele>
  <time>2026-09-02T20:50:45Z</time>
  <course>227.04</course>
  <speed>0.98</speed>
  <fix>3d</fix>
</trkpt>
<trkpt lat="40.0716533" lon="-105.2293723">
  <ele>1582.99</ele>
  <time>2026-09-02T20:50:45Z</time>
  <course>227.09</course>
  <speed>0.9835141076771599</speed>
  <fix>3d</fix>
</trkpt>
<trkpt lat="40.0716545" lon="-105.2293703">
  <ele>1582.99</ele>
  <time>2026-09-02T20:50:45Z</time>
  <course>227.04</course>
  <speed>0.98</speed>
  <fix>3d</fix>
</trkpt>
<trkpt lat="40.0716527" lon="-105.229373">
  <ele>1582.99</ele>
  <time>2026-09-02T20:50:45Z</time>
  <course>227.02</course>
  <speed>0.9835141076771599</speed>
  <fix>3d</fix>
</trkpt>
<trkpt lat="40.0716533" lon="-105.2293721">
  <ele>1582.99</ele>
  <time>2026-09-02T20:50:45Z</time>
  <course>226.9</course>
  <speed>0.98</speed>
  <fix>3d</fix>
</trkpt>
<trkpt lat="40.0716521" lon="-105.2293739">
  <ele>1582.99</ele>
  <time>2026-09-02T20:50:45Z</time>
  <course>226.97</course>
  <speed>0.9835141076771599</speed>
  <fix>3d</fix>
</trkpt>
<trkpt lat="40.0716533" lon="-105.2293721">
  <ele>1582.99</ele>
  <time>2026-09-02T20:50:45Z</time>
  <course>226.9</course>
  <speed>0.98</speed>
  <fix>3d</fix>
</trkpt>
<trkpt lat="40.0716515" lon="-105.2293748">
  <ele>1582.99</ele>
  <time>2026-09-02T20:50:45Z</time>
  <course>226.92</course>
  <speed>0.9762171889492625</speed>
  <fix>3d</fix>
</trkpt>
<trkpt lat="40.0716521" lon="-105.2293737">
  <ele>1582.99</ele>
  <time>2026-09-02T20:50:45Z</time>
  <course>226.78</course>
  <speed>0.98</speed>
  <fix>3d</fix>
</trkpt>
<trkpt lat="40.0716508" lon="-105.2293756">
  <ele>1582.99</ele>
  <time>2026-09-02T20:50:45Z</time>
  <course>226.89</course>
  <speed>0.9903534722511957</speed>
  <fix>3d</fix>
</trkpt>
<trkpt lat="40.0716521" lon="-105.2293737">
  <ele>1582.99</ele>
  <time>2026-09-02T20:50:45Z</time>
  <course>226.78</course>
  <speed>0.98</speed>
  <fix>3d</fix>
</trkpt>
<trkpt lat="40.0716503" lon="-105.2293763">
  <ele>1582.99</ele>
  <time>2026-09-02T20:50:45Z</time>
  <course>226.86</course>
  <speed>0.9762171889492625</speed>
  <fix>3d</fix>
</trkpt>
<trkpt lat="40.0716509" lon="-105.2293754">
  <ele>1582.99</ele>
  <time>2026-09-02T20:50:45Z</time>
  <course>226.69</course>
  <speed>0.98</speed>
  <fix>3d</fix>
</trkpt>
<trkpt lat="40.0716496" lon="-105.2293772">
  <ele>1582.99</ele>
  <time>2026-09-02T20:50:45Z</time>
  <course>226.83</course>
  <speed>0.9903534722511957</speed>
  <fix>3d</fix>
</trkpt>
<trkpt lat="40.0716509" lon="-105.2293754">
  <ele>1582.99</ele>
  <time>2026-09-02T20:50:45Z</time>
  <course>226.69</course>
  <speed>0.98</speed>
  <fix>3d</fix>
</trkpt>
<trkpt lat="40.071649" lon="-105.229378">
  <ele>1582.99</ele>
  <time>2026-09-02T20:50:45Z</time>
  <course>226.8</course>
  <speed>0.9762171889492625</speed>
  <fix>3d</fix>
</trkpt>
<trkpt lat="40.0716497" lon="-105.2293771">
  <ele>1582.99</ele>
  <time>2026-09-02T20:50:45Z</time>
  <course>226.63</course>
  <speed>0.98</speed>
  <fix>3d</fix>
</trkpt>
<trkpt lat="40.0716484" lon="-105.2293789">
  <ele>1582.99</ele>
  <time>2026-09-02T20:50:45Z</time>
  <course>226.78</course>
  <speed>0.9831073186585481</speed>
  <fix>3d</fix>
</trkpt>
<trkpt lat="40.0716497" lon="-105.2293771">
  <ele>1582.99</ele>
  <time>2026-09-02T20:50:45Z</time>
  <course>226.63</course>
  <speed>0.98</speed>
  <fix>3d</fix>
</trkpt>
<trkpt lat="40.0716478" lon="-105.2293797">
  <ele>1582.99</ele>
  <time>2026-09-02T20:50:45Z</time>
  <course>226.77</course>
  <speed>0.9762171889492625</speed>
  <fix>3d</fix>
</trkpt>
<trkpt lat="40.0716484" lon="-105.2293788">
  <ele>1582.99</ele>
  <time>2026-09-02T20:50:45Z</time>
  <course>226.58</course>
  <speed>0.98</speed>
  <fix>3d</fix>
</trkpt>
<trkpt lat="40.0716472" lon="-105.2293804">
  <ele>1582.99</ele>
  <time>2026-09-02T20:50:45Z</time>
  <course>226.76</course>
  <speed>0.9903534722511957</speed>
  <fix>3d</fix>
</trkpt>
<trkpt lat="40.0716484" lon="-105.2293788">
  <ele>1582.99</ele>
  <time>2026-09-02T20:50:45Z</time>
  <course>226.58</course>
  <speed>0.98</speed>
  <fix>3d</fix>
</trkpt>
<trkpt lat="40.0716466" lon="-105.2293814">
  <ele>1582.99</ele>
  <time>2026-09-02T20:50:45Z</time>
  <course>226.76</course>
  <speed>0.9762171889492625</speed>
  <fix>3d</fix>
</trkpt>
<trkpt lat="40.0716472" lon="-105.2293805">
  <ele>1582.99</ele>
  <time>2026-09-02T20:50:45Z</time>
  <course>226.57</course>
  <speed>0.98</speed>
  <fix>3d</fix>
</trkpt>
<trkpt lat="40.071646" lon="-105.2293821">
  <ele>1582.99</ele>
  <time>2026-09-02T20:50:45Z</time>
  <course>226.77</course>
  <speed>0.9831073186585481</speed>
  <fix>3d</fix>
</trkpt>
<trkpt lat="40.0716472" lon="-105.2293805">
  <ele>1582.99</ele>
  <time>2026-09-02T20:50:45Z</time>
  <course>226.57</course>
  <speed>0.98</speed>
  <fix>3d</fix>
</trkpt>
<trkpt lat="40.0716454" lon="-105.229383">
  <ele>1582.99</ele>
  <time>2026-09-02T20:50:45Z</time>
  <course>226.78</course>
  <speed>0.9903534722511957</speed>
  <fix>3d</fix>
</trkpt>
<trkpt lat="40.071646" lon="-105.2293822">
  <ele>1582.99</ele>
  <time>2026-09-02T20:50:45Z</time>
  <course>226.57</course>
  <speed>0.99</speed>
  <fix>3d</fix>
</trkpt>
<trkpt lat="40.0716447" lon="-105.229384">
  <ele>1582.99</ele>
  <time>2026-09-02T20:50:45Z</time>
  <course>226.79</course>
  <speed>0.9903534722511957</speed>
  <fix>3d</fix>
</trkpt>
<trkpt lat="40.071646" lon="-105.2293822">
  <ele>1582.99</ele>
  <time>2026-09-02T20:50:45Z</time>
  <course>226.57</course>
  <speed>0.99</speed>
  <fix>3d</fix>
</trkpt>
<trkpt lat="40.0716441" lon="-105.2293849">
  <ele>1582.99</ele>
  <time>2026-09-02T20:50:45Z</time>
  <course>226.81</course>
  <speed>0.9903534722511957</speed>
  <fix>3d</fix>
</trkpt>
<trkpt lat="40.0716448" lon="-105.2293839">
  <ele>1582.99</ele>
  <time>2026-09-02T20:50:45Z</time>
  <course>226.59</course>
  <speed>0.99</speed>
  <fix>3d</fix>
</trkpt>
<trkpt lat="40.0716435" lon="-105.2293857">
  <ele>1582.99</ele>
  <time>2026-09-02T20:50:45Z</time>
  <course>226.83</course>
  <speed>0.9903534722511957</speed>
  <fix>3d</fix>
</trkpt>
<trkpt lat="40.0716448" lon="-105.2293839">
  <ele>1582.99</ele>
  <time>2026-09-02T20:50:45Z</time>
  <course>226.59</course>
  <speed>0.99</speed>
  <fix>3d</fix>
</trkpt>
<trkpt lat="40.0716429" lon="-105.2293866">
  <ele>1582.99</ele>
  <time>2026-09-02T20:50:45Z</time>
  <course>226.85</course>
  <speed>0.9903534722511957</speed>
  <fix>3d</fix>
</trkpt>
<trkpt lat="40.0716436" lon="-105.2293856">
  <ele>1582.99</ele>
  <time>2026-09-02T20:50:45Z</time>
  <course>226.63</course>
  <speed>0.99</speed>
  <fix>3d</fix>
</trkpt>
<trkpt lat="40.0716423" lon="-105.2293875">
  <ele>1582.99</ele>
  <time>2026-09-02T20:50:45Z</time>
  <course>226.87</course>
  <speed>0.9903534722511957</speed>
  <fix>3d</fix>
</trkpt>
<trkpt lat="40.0716436" lon="-105.2293856">
  <ele>1582.99</ele>
  <time>2026-09-02T20:50:45Z</time>
  <course>226.63</course>
  <speed>0.99</speed>
  <fix>3d</fix>
</trkpt>
<trkpt lat="40.0716417" lon="-105.2293883">
  <ele>1582.99</ele>
  <time>2026-09-02T20:50:45Z</time>
  <course>226.9</course>
  <speed>0.9903534722511957</speed>
  <fix>3d</fix>
</trkpt>
<trkpt lat="40.0716424" lon="-105.2293873">
  <ele>1582.99</ele>
  <time>2026-09-02T20:50:45Z</time>
  <course>226.67</course>
  <speed>0.99</speed>
  <fix>3d</fix>
</trkpt>
<trkpt lat="40.0716411" lon="-105.2293892">
  <ele>1582.99</ele>
  <time>2026-09-02T20:50:45Z</time>
  <course>226.93</course>
  <speed>0.9903534722511957</speed>
  <fix>3d</fix>
</trkpt>
<trkpt lat="40.0716424" lon="-105.2293873">
  <ele>1582.99</ele>
  <time>2026-09-02T20:50:45Z</time>
  <course>226.67</course>
  <speed>0.99</speed>
  <fix>3d</fix>
</trkpt>
<trkpt lat="40.0716405" lon="-105.22939">
  <ele>1582.99</ele>
  <time>2026-09-02T20:50:45Z</time>
  <course>226.97</course>
  <speed>0.9835141076771599</speed>
  <fix>3d</fix>
</trkpt>
<trkpt lat="40.0716411" lon="-105.229389">
  <ele>1582.99</ele>
  <time>2026-09-02T20:50:45Z</time>
  <course>226.73</course>
  <speed>0.99</speed>
  <fix>3d</fix>
</trkpt>
<trkpt lat="40.0716399" lon="-105.2293909">
  <ele>1582.99</ele>
  <time>2026-09-02T20:50:45Z</time>
  <course>227.01</course>
  <speed>0.9835141076771599</speed>
  <fix>3d</fix>
</trkpt>
<trkpt lat="40.0716411" lon="-105.229389">
  <ele>1582.99</ele>
  <time>2026-09-02T20:50:45Z</time>
  <course>226.73</course>
  <speed>0.99</speed>
  <fix>3d</fix>
</trkpt>
<trkpt lat="40.0716392" lon="-105.2293916">
  <ele>1582.99</ele>
  <time>2026-09-02T20:50:45Z</time>
  <course>227.05</course>
  <speed>0.9835141076771599</speed>
  <fix>3d</fix>
</trkpt>
<trkpt lat="40.0716399" lon="-105.2293907">
  <ele>1582.99</ele>
  <time>2026-09-02T20:50:45Z</time>
  <course>226.8</course>
  <speed>0.99</speed>
  <fix>3d</fix>
</trkpt>
<trkpt lat="40.0716386" lon="-105.2293926">
  <ele>1582.99</ele>
  <time>2026-09-02T20:50:45Z</time>
  <course>227.09</course>
  <speed>0.9903534722511957</speed>
  <fix>3d</fix>
</trkpt>
<trkpt lat="40.0716399" lon="-105.2293907">
  <ele>1582.99</ele>
  <time>2026-09-02T20:50:45Z</time>
  <course>226.8</course>
  <speed>0.99</speed>
  <fix>3d</fix>
</trkpt>
<trkpt lat="40.0716381" lon="-105.2293933">
  <ele>1582.99</ele>
  <time>2026-09-02T20:50:45Z</time>
  <course>227.12</course>
  <speed>0.9835141076771599</speed>
  <fix>3d</fix>
</trkpt>
<trkpt lat="40.0716387" lon="-105.2293924">
  <ele>1582.99</ele>
  <time>2026-09-02T20:50:45Z</time>
  <course>226.88</course>
  <speed>0.99</speed>
  <fix>3d</fix>
</trkpt>
<trkpt lat="40.0716375" lon="-105.229394">
  <ele>1582.99</ele>
  <time>2026-09-02T20:50:45Z</time>
  <course>227.16</course>
  <speed>0.9835141076771599</speed>
  <fix>3d</fix>
</trkpt>
<trkpt lat="40.0716387" lon="-105.2293924">
  <ele>1582.99</ele>
  <time>2026-09-02T20:50:45Z</time>
  <course>226.88</course>
  <speed>0.99</speed>
  <fix>3d</fix>
</trkpt>
<trkpt lat="40.0716369" lon="-105.229395">
  <ele>1582.99</ele>
  <time>2026-09-02T20:50:45Z</time>
  <course>227.2</course>
  <speed>0.9976472322419383</speed>
  <fix>3d</fix>
</trkpt>
<trkpt lat="40.0716375" lon="-105.2293941">
  <ele>1582.99</ele>
  <time>2026-09-02T20:50:45Z</time>
  <course>226.97</course>
  <speed>0.99</speed>
  <fix>3d</fix>
</trkpt>
<trkpt lat="40.0716363" lon="-105.2293957">
  <ele>1582.99</ele>
  <time>2026-09-02T20:50:45Z</time>
  <course>227.25</course>
  <speed>0.9835141076771599</speed>
  <fix>3d</fix>
</trkpt>
<trkpt lat="40.0716375" lon="-105.2293941">
  <ele>1582.99</ele>
  <time>2026-09-02T20:50:45Z</time>
  <course>226.97</course>
  <speed>0.99</speed>
  <fix>3d</fix>
</trkpt>
<trkpt lat="40.0716357" lon="-105.2293967">
  <ele>1582.99</ele>
  <time>2026-09-02T20:50:45Z</time>
  <course>227.3</course>
  <speed>0.9976472322419383</speed>
  <fix>3d</fix>
</trkpt>
<trkpt lat="40.0716363" lon="-105.2293958">
  <ele>1582.99</ele>
  <time>2026-09-02T20:50:45Z</time>
  <course>227.06</course>
  <speed>1.0</speed>
  <fix>3d</fix>
</trkpt>
<trkpt lat="40.0716351" lon="-105.2293974">
  <ele>1582.99</ele>
  <time>2026-09-02T20:50:45Z</time>
  <course>227.35</course>
  <speed>0.9908582138732059</speed>
  <fix>3d</fix>
</trkpt>
<trkpt lat="40.0716363" lon="-105.2293958">
  <ele>1582.99</ele>
  <time>2026-09-02T20:50:45Z</time>
  <course>227.06</course>
  <speed>1.0</speed>
  <fix>3d</fix>
</trkpt>
<trkpt lat="40.0716344" lon="-105.2293983">
  <ele>1582.99</ele>
  <time>2026-09-02T20:50:45Z</time>
  <course>227.4</course>
  <speed>0.9908582138732059</speed>
  <fix>3d</fix>
</trkpt>
<trkpt lat="40.071635" lon="-105.2293975">
  <ele>1582.99</ele>
  <time>2026-09-02T20:50:45Z</time>
  <course>227.15</course>
  <speed>0.99</speed>
  <fix>3d</fix>
</trkpt>
<trkpt lat="40.0716338" lon="-105.2293991">
  <ele>1582.99</ele>
  <time>2026-09-02T20:50:45Z</time>
  <course>227.45</course>
  <speed>0.9835141076771599</speed>
  <fix>3d</fix>
</trkpt>
<trkpt lat="40.071635" lon="-105.2293975">
  <ele>1582.99</ele>
  <time>2026-09-02T20:50:45Z</time>
  <course>227.15</course>
  <speed>0.99</speed>
  <fix>3d</fix>
</trkpt>
<trkpt lat="40.0716332" lon="-105.2294">
  <ele>1582.99</ele>
  <time>2026-09-02T20:50:45Z</time>
  <course>227.5</course>
  <speed>0.9908582138732059</speed>
  <fix>3d</fix>
</trkpt>
<trkpt lat="40.0716338" lon="-105.2293992">
  <ele>1582.99</ele>
  <time>2026-09-02T20:50:45Z</time>
  <course>227.25</course>
  <speed>0.99</speed>
  <fix>3d</fix>
</trkpt>
<trkpt lat="40.0716326" lon="-105.229401">
  <ele>1582.99</ele>
  <time>2026-09-02T20:50:45Z</time>
  <course>227.55</course>
  <speed>0.9767292357659824</speed>
  <fix>3d</fix>
</trkpt>
<trkpt lat="40.0716338" lon="-105.2293992">
  <ele>1582.99</ele>
  <time>2026-09-02T20:50:45Z</time>
  <course>227.25</course>
  <speed>0.99</speed>
  <fix>3d</fix>
</trkpt>
<trkpt lat="40.0716319" lon="-105.2294019">
  <ele>1582.99</ele>
  <time>2026-09-02T20:50:45Z</time>
  <course>227.6</course>
  <speed>0.9908582138732059</speed>
  <fix>3d</fix>
</trkpt>
<trkpt lat="40.0716326" lon="-105.2294009">
  <ele>1582.99</ele>
  <time>2026-09-02T20:50:45Z</time>
  <course>227.35</course>
  <speed>1.0</speed>
  <fix>3d</fix>
</trkpt>
<trkpt lat="40.0716313" lon="-105.2294027">
  <ele>1582.99</ele>
  <time>2026-09-02T20:50:45Z</time>
  <course>227.66</course>
  <speed>0.9841239759298622</speed>
  <fix>3d</fix>
</trkpt>
<trkpt lat="40.0716326" lon="-105.2294009">
  <ele>1582.99</ele>
  <time>2026-09-02T20:50:45Z</time>
  <course>227.35</course>
  <speed>1.0</speed>
  <fix>3d</fix>
</trkpt>
<trkpt lat="40.0716307" lon="-105.2294036">
  <ele>1582.99</ele>
  <time>2026-09-02T20:50:45Z</time>
  <course>227.71</course>
  <speed>0.9908582138732059</speed>
  <fix>3d</fix>
</trkpt>
<trkpt lat="40.0716314" lon="-105.2294026">
  <ele>1582.99</ele>
  <time>2026-09-02T20:50:45Z</time>
  <course>227.45</course>
  <speed>1.0</speed>
  <fix>3d</fix>
</trkpt>
<trkpt lat="40.0716301" lon="-105.2294046">
  <ele>1582.99</ele>
  <time>2026-09-02T20:50:45Z</time>
  <course>227.76</course>
  <speed>0.9841239759298622</speed>
  <fix>3d</fix>
</trkpt>
<trkpt lat="40.0716314" lon="-105.2294026">
  <ele>1582.99</ele>
  <time>2026-09-02T20:50:45Z</time>
  <course>227.45</course>
  <speed>1.0</speed>
  <fix>3d</fix>
</trkpt>
<trkpt lat="40.0716295" lon="-105.2294053">
  <ele>1582.99</ele>
  <time>2026-09-02T20:50:45Z</time>
  <course>227.81</course>
  <speed>0.9982484660644363</speed>
  <fix>3d</fix>
</trkpt>
<trkpt lat="40.0716302" lon="-105.2294043">
  <ele>1582.99</ele>
  <time>2026-09-02T20:50:45Z</time>
  <course>227.56</course>
  <speed>1.0</speed>
  <fix>3d</fix>
</trkpt>
<trkpt lat="40.0716289" lon="-105.2294062">
  <ele>1582.99</ele>
  <time>2026-09-02T20:50:45Z</time>
  <course>227.86</course>
  <speed>0.9841239759298622</speed>
  <fix>3d</fix>
</trkpt>
<trkpt lat="40.0716302" lon="-105.2294043">
  <ele>1582.99</ele>
  <time>2026-09-02T20:50:45Z</time>
  <course>227.56</course>
  <speed>1.0</speed>
  <fix>3d</fix>
</trkpt>
<trkpt lat="40.0716283" lon="-105.2294072">
  <ele>1582.99</ele>
  <time>2026-09-02T20:50:45Z</time>
  <course>227.91</course>
  <speed>0.9982484660644363</speed>
  <fix>3d</fix>
</trkpt>
<trkpt lat="40.071629" lon="-105.2294061">
  <ele>1582.99</ele>
  <time>2026-09-02T20:50:45Z</time>
  <course>227.66</course>
  <speed>1.0</speed>
  <fix>3d</fix>
</trkpt>
<trkpt lat="40.0716277" lon="-105.2294079">
  <ele>1582.99</ele>
  <time>2026-09-02T20:50:45Z</time>
  <course>227.95</course>
  <speed>0.9841239759298622</speed>
  <fix>3d</fix>
</trkpt>
<trkpt lat="40.071629" lon="-105.2294061">
  <ele>1582.99</ele>
  <time>2026-09-02T20:50:45Z</time>
  <course>227.66</course>
  <speed>1.0</speed>
  <fix>3d</fix>
</trkpt>
<trkpt lat="40.0716271" lon="-105.2294089">
  <ele>1582.99</ele>
  <time>2026-09-02T20:50:45Z</time>
  <course>228.0</course>
  <speed>0.9982484660644363</speed>
  <fix>3d</fix>
</trkpt>
<trkpt lat="40.0716278" lon="-105.2294078">
  <ele>1582.99</ele>
  <time>2026-09-02T20:50:45Z</time>
  <course>227.76</course>
  <speed>1.0</speed>
  <fix>3d</fix>
</trkpt>
<trkpt lat="40.0716265" lon="-105.2294098">
  <ele>1582.99</ele>
  <time>2026-09-02T20:50:45Z</time>
  <course>228.05</course>
  <speed>0.9841239759298622</speed>
  <fix>3d</fix>
</trkpt>
<trkpt lat="40.0716278" lon="-105.2294078">
  <ele>1582.99</ele>
  <time>2026-09-02T20:50:45Z</time>
  <course>227.76</course>
  <speed>1.0</speed>
  <fix>3d</fix>
</trkpt>
<trkpt lat="40.0716259" lon="-105.2294106">
  <ele>1582.99</ele>
  <time>2026-09-02T20:50:45Z</time>
  <course>228.09</course>
  <speed>0.9982484660644363</speed>
  <fix>3d</fix>
</trkpt>
<trkpt lat="40.0716265" lon="-105.2294096">
  <ele>1582.99</ele>
  <time>2026-09-02T20:50:45Z</time>
  <course>227.85</course>
  <speed>1.0</speed>
  <fix>3d</fix>
</trkpt>
<trkpt lat="40.0716253" lon="-105.2294113">
  <ele>1582.99</ele>
  <time>2026-09-02T20:50:45Z</time>
  <course>228.13</course>
  <speed>0.9841239759298622</speed>
  <fix>3d</fix>
</trkpt>
<trkpt lat="40.0716265" lon="-105.2294096">
  <ele>1582.99</ele>
  <time>2026-09-02T20:50:45Z</time>
  <course>227.85</course>
  <speed>1.0</speed>
  <fix>3d</fix>
</trkpt>
<trkpt lat="40.0716247" lon="-105.2294122">
  <ele>1582.99</ele>
  <time>2026-09-02T20:50:45Z</time>
  <course>228.17</course>
  <speed>0.9915644204992432</speed>
  <fix>3d</fix>
</trkpt>
<trkpt lat="40.0716253" lon="-105.2294113">
  <ele>1582.99</ele>
  <time>2026-09-02T20:50:45Z</time>
  <course>227.94</course>
  <speed>0.99</speed>
  <fix>3d</fix>
</trkpt>
<trkpt lat="40.0716241" lon="-105.2294131">
  <ele>1582.99</ele>
  <time>2026-09-02T20:50:45Z</time>
  <course>228.21</course>
  <speed>0.9841239759298622</speed>
  <fix>3d</fix>
</trkpt>
<trkpt lat="40.0716253" lon="-105.2294113">
  <ele>1582.99</ele>
  <time>2026-09-02T20:50:45Z</time>
  <course>227.94</course>
  <speed>0.99</speed>
  <fix>3d</fix>
</trkpt>
<trkpt lat="40.0716235" lon="-105.2294139">
  <ele>1582.99</ele>
  <time>2026-09-02T20:50:45Z</time>
  <course>228.25</course>
  <speed>0.9915644204992432</speed>
  <fix>3d</fix>
</trkpt>
<trkpt lat="40.0716241" lon="-105.229413">
  <ele>1582.99</ele>
  <time>2026-09-02T20:50:45Z</time>
  <course>228.02</course>
  <speed>0.99</speed>
  <fix>3d</fix>
</trkpt>
<trkpt lat="40.0716229" lon="-105.2294148">
  <ele>1582.99</ele>
  <time>2026-09-02T20:50:45Z</time>
  <course>228.29</course>
  <speed>0.9774456506629922</speed>
  <fix>3d</fix>
</trkpt>
<trkpt lat="40.0716241" lon="-105.229413">
  <ele>1582.99</ele>
  <time>2026-09-02T20:50:45Z</time>
  <course>228.02</course>
  <speed>0.99</speed>
  <fix>3d</fix>
</trkpt>
<trkpt lat="40.0716224" lon="-105.2294156">
  <ele>1582.99</ele>
  <time>2026-09-02T20:50:45Z</time>
  <course>228.33</course>
  <speed>0.9915644204992432</speed>
  <fix>3d</fix>
</trkpt>
<trkpt lat="40.071623" lon="-105.2294148">
  <ele>1582.99</ele>
  <time>2026-09-02T20:50:45Z</time>
  <course>228.1</course>
  <speed>0.99</speed>
  <fix>3d</fix>
</trkpt>
<trkpt lat="40.0716218" lon="-105.2294165">
  <ele>1582.99</ele>
  <time>2026-09-02T20:50:45Z</time>
  <course>228.37</course>
  <speed>0.9915644204992432</speed>
  <fix>3d</fix>
</trkpt>
<trkpt lat="40.071623" lon="-105.2294148">
  <ele>1582.99</ele>
  <time>2026-09-02T20:50:45Z</time>
  <course>228.1</course>
  <speed>0.99</speed>
  <fix>3d</fix>
</trkpt>
<trkpt lat="40.0716212" lon="-105.2294173">
  <ele>1582.99</ele>
  <time>2026-09-02T20:50:45Z</time>
  <course>228.41</course>
  <speed>0.9915644204992432</speed>
  <fix>3d</fix>
</trkpt>
<trkpt lat="40.0716218" lon="-105.2294165">
  <ele>1582.99</ele>
  <time>2026-09-02T20:50:46Z</time>
  <course>228.18</course>
  <speed>0.99</speed>
  <fix>3d</fix>
</trkpt>
<trkpt lat="40.0716206" lon="-105.2294182">
  <ele>1582.99</ele>
  <time>2026-09-02T20:50:46Z</time>
  <course>228.45</course>
  <speed>0.9915644204992432</speed>
  <fix>3d</fix>
</trkpt>
<trkpt lat="40.0716218" lon="-105.2294165">
  <ele>1582.99</ele>
  <time>2026-09-02T20:50:46Z</time>
  <course>228.18</course>
  <speed>0.99</speed>
  <fix>3d</fix>
</trkpt>
<trkpt lat="40.07162" lon="-105.2294192">
  <ele>1582.99</ele>
  <time>2026-09-02T20:50:46Z</time>
  <course>228.48</course>
  <speed>0.9915644204992432</speed>
  <fix>3d</fix>
</trkpt>
<trkpt lat="40.0716206" lon="-105.2294182">
  <ele>1582.99</ele>
  <time>2026-09-02T20:50:46Z</time>
  <course>228.26</course>
  <speed>0.99</speed>
  <fix>3d</fix>
</trkpt>
<trkpt lat="40.0716193" lon="-105.2294201">
  <ele>1582.99</ele>
  <time>2026-09-02T20:50:46Z</time>
  <course>228.53</course>
  <speed>0.9915644204992432</speed>
  <fix>3d</fix>
</trkpt>
<trkpt lat="40.0716206" lon="-105.2294182">
  <ele>1582.99</ele>
  <time>2026-09-02T20:50:46Z</time>
  <course>228.26</course>
  <speed>0.99</speed>
  <fix>3d</fix>
</trkpt>
<trkpt lat="40.0716187" lon="-105.2294211">
  <ele>1582.99</ele>
  <time>2026-09-02T20:50:46Z</time>
  <course>228.56</course>
  <speed>0.9915644204992432</speed>
  <fix>3d</fix>
</trkpt>
<trkpt lat="40.0716195" lon="-105.22942">
  <ele>1582.99</ele>
  <time>2026-09-02T20:50:46Z</time>
  <course>228.33</course>
  <speed>0.99</speed>
  <fix>3d</fix>
</trkpt>
<trkpt lat="40.0716181" lon="-105.229422">
  <ele>1582.99</ele>
  <time>2026-09-02T20:50:46Z</time>
  <course>228.59</course>
  <speed>0.9915644204992432</speed>
  <fix>3d</fix>
</trkpt>
<trkpt lat="40.0716195" lon="-105.22942">
  <ele>1582.99</ele>
  <time>2026-09-02T20:50:46Z</time>
  <course>228.33</course>
  <speed>0.99</speed>
  <fix>3d</fix>
</trkpt>
<trkpt lat="40.0716175" lon="-105.2294228">
  <ele>1582.99</ele>
  <time>2026-09-02T20:50:46Z</time>
  <course>228.62</course>
  <speed>0.9915644204992432</speed>
  <fix>3d</fix>
</trkpt>
<trkpt lat="40.0716183" lon="-105.2294218">
  <ele>1582.99</ele>
  <time>2026-09-02T20:50:46Z</time>
  <course>228.4</course>
  <speed>0.99</speed>
  <fix>3d</fix>
</trkpt>
<trkpt lat="40.0716169" lon="-105.2294237">
  <ele>1582.99</ele>
  <time>2026-09-02T20:50:46Z</time>
  <course>228.65</course>
  <speed>0.9849365461794989</speed>
  <fix>3d</fix>
</trkpt>
<trkpt lat="40.0716183" lon="-105.2294218">
  <ele>1582.99</ele>
  <time>2026-09-02T20:50:46Z</time>
  <course>228.4</course>
  <speed>0.99</speed>
  <fix>3d</fix>
</trkpt>
<trkpt lat="40.0716163" lon="-105.2294246">
  <ele>1582.99</ele>
  <time>2026-09-02T20:50:46Z</time>
  <course>228.68</course>
  <speed>0.9915644204992432</speed>
  <fix>3d</fix>
</trkpt>
<trkpt lat="40.0716171" lon="-105.2294235">
  <ele>1582.99</ele>
  <time>2026-09-02T20:50:46Z</time>
  <course>228.45</course>
  <speed>0.99</speed>
  <fix>3d</fix>
</trkpt>
<trkpt lat="40.0716157" lon="-105.2294254">
  <ele>1582.99</ele>
  <time>2026-09-02T20:50:46Z</time>
  <course>228.71</course>
  <speed>0.9849365461794989</speed>
  <fix>3d</fix>
</trkpt>
<trkpt lat="40.0716171" lon="-105.2294235">
  <ele>1582.99</ele>
  <time>2026-09-02T20:50:46Z</time>
  <course>228.45</course>
  <speed>0.99</speed>
  <fix>3d</fix>
</trkpt>
<trkpt lat="40.0716151" lon="-105.2294263">
  <ele>1582.99</ele>
  <time>2026-09-02T20:50:46Z</time>
  <course>228.74</course>
  <speed>0.9915644204992432</speed>
  <fix>3d</fix>
</trkpt>
<trkpt lat="40.0716159" lon="-105.2294253">
  <ele>1582.99</ele>
  <time>2026-09-02T20:50:46Z</time>
  <course>228.51</course>
  <speed>0.99</speed>
  <fix>3d</fix>
</trkpt>
<trkpt lat="40.0716145" lon="-105.2294271">
  <ele>1582.99</ele>
  <time>2026-09-02T20:50:46Z</time>
  <course>228.76</course>
  <speed>0.9849365461794989</speed>
  <fix>3d</fix>
</trkpt>
<trkpt lat="40.0716159" lon="-105.2294253">
  <ele>1582.99</ele>
  <time>2026-09-02T20:50:46Z</time>
  <course>228.51</course>
  <speed>0.99</speed>
  <fix>3d</fix>
</trkpt>
<trkpt lat="40.0716139" lon="-105.229428">
  <ele>1582.99</ele>
  <time>2026-09-02T20:50:46Z</time>
  <course>228.8</course>
  <speed>0.9849365461794989</speed>
  <fix>3d</fix>
</trkpt>
<trkpt lat="40.0716147" lon="-105.229427">
  <ele>1582.99</ele>
  <time>2026-09-02T20:50:46Z</time>
  <course>228.57</course>
  <speed>0.99</speed>
  <fix>3d</fix>
</trkpt>
<trkpt lat="40.0716133" lon="-105.229429">
  <ele>1583.0</ele>
  <time>2026-09-02T20:50:46Z</time>
  <course>228.82</course>
  <speed>0.9849365461794989</speed>
  <fix>3d</fix>
</trkpt>
<trkpt lat="40.0716147" lon="-105.229427">
  <ele>1582.99</ele>
  <time>2026-09-02T20:50:46Z</time>
  <course>228.57</course>
  <speed>0.99</speed>
  <fix>3d</fix>
</trkpt>
<trkpt lat="40.0716129" lon="-105.2294297">
  <ele>1582.99</ele>
  <time>2026-09-02T20:50:46Z</time>
  <course>228.84</course>
  <speed>0.9849365461794989</speed>
  <fix>3d</fix>
</trkpt>
<trkpt lat="40.0716135" lon="-105.2294287">
  <ele>1582.99</ele>
  <time>2026-09-02T20:50:46Z</time>
  <course>228.63</course>
  <speed>0.99</speed>
  <fix>3d</fix>
</trkpt>
<trkpt lat="40.0716123" lon="-105.2294306">
  <ele>1582.99</ele>
  <time>2026-09-02T20:50:46Z</time>
  <course>228.87</course>
  <speed>0.9990495483208028</speed>
  <fix>3d</fix>
</trkpt>
<trkpt lat="40.0716135" lon="-105.2294287">
  <ele>1582.99</ele>
  <time>2026-09-02T20:50:46Z</time>
  <course>228.63</course>
  <speed>0.99</speed>
  <fix>3d</fix>
</trkpt>
<trkpt lat="40.0716118" lon="-105.2294314">
  <ele>1582.99</ele>
  <time>2026-09-02T20:50:46Z</time>
  <course>228.89</course>
  <speed>0.9849365461794989</speed>
  <fix>3d</fix>
</trkpt>
<trkpt lat="40.0716123" lon="-105.2294305">
  <ele>1582.99</ele>
  <time>2026-09-02T20:50:46Z</time>
  <course>228.68</course>
  <speed>0.99</speed>
  <fix>3d</fix>
</trkpt>
<trkpt lat="40.0716112" lon="-105.2294323">
  <ele>1582.99</ele>
  <time>2026-09-02T20:50:46Z</time>
  <course>228.91</course>
  <speed>0.9924716620639604</speed>
  <fix>3d</fix>
</trkpt>
<trkpt lat="40.0716123" lon="-105.2294305">
  <ele>1582.99</ele>
  <time>2026-09-02T20:50:46Z</time>
  <course>228.68</course>
  <speed>0.99</speed>
  <fix>3d</fix>
</trkpt>
<trkpt lat="40.0716106" lon="-105.2294331">
  <ele>1582.99</ele>
  <time>2026-09-02T20:50:46Z</time>
  <course>228.93</course>
  <speed>0.9849365461794989</speed>
  <fix>3d</fix>
</trkpt>
<trkpt lat="40.0716112" lon="-105.2294322">
  <ele>1582.99</ele>
  <time>2026-09-02T20:50:46Z</time>
  <course>228.72</course>
  <speed>0.99</speed>
  <fix>3d</fix>
</trkpt>
<trkpt lat="40.07161" lon="-105.229434">
  <ele>1582.99</ele>
  <time>2026-09-02T20:50:46Z</time>
  <course>228.96</course>
  <speed>0.9924716620639604</speed>
  <fix>3d</fix>
</trkpt>
<trkpt lat="40.0716112" lon="-105.2294322">
  <ele>1582.99</ele>
  <time>2026-09-02T20:50:46Z</time>
  <course>228.72</course>
  <speed>0.99</speed>
  <fix>3d</fix>
</trkpt>
<trkpt lat="40.0716094" lon="-105.229435">
  <ele>1582.99</ele>
  <time>2026-09-02T20:50:46Z</time>
  <course>228.98</course>
  <speed>0.9849365461794989</speed>
  <fix>3d</fix>
</trkpt>
<trkpt lat="40.07161" lon="-105.229434">
  <ele>1582.99</ele>
  <time>2026-09-02T20:50:46Z</time>
  <course>228.77</course>
  <speed>0.99</speed>
  <fix>3d</fix>
</trkpt>
<trkpt lat="40.0716088" lon="-105.2294357">
  <ele>1582.99</ele>
  <time>2026-09-02T20:50:46Z</time>
  <course>229.0</course>
  <speed>0.9924716620639604</speed>
  <fix>3d</fix>
</trkpt>
<trkpt lat="40.07161" lon="-105.229434">
  <ele>1582.99</ele>
  <time>2026-09-02T20:50:46Z</time>
  <course>228.77</course>
  <speed>0.99</speed>
  <fix>3d</fix>
</trkpt>
<trkpt lat="40.0716082" lon="-105.2294366">
  <ele>1582.99</ele>
  <time>2026-09-02T20:50:46Z</time>
  <course>229.02</course>
  <speed>0.9924716620639604</speed>
  <fix>3d</fix>
</trkpt>
<trkpt lat="40.0716088" lon="-105.2294358">
  <ele>1582.99</ele>
  <time>2026-09-02T20:50:46Z</time>
  <course>228.81</course>
  <speed>0.99</speed>
  <fix>3d</fix>
</trkpt>
<trkpt lat="40.0716076" lon="-105.2294376">
  <ele>1582.99</ele>
  <time>2026-09-02T20:50:46Z</time>
  <course>229.03</course>
  <speed>0.9924716620639604</speed>
  <fix>3d</fix>
</trkpt>
<trkpt lat="40.0716088" lon="-105.2294358">
  <ele>1582.99</ele>
  <time>2026-09-02T20:50:46Z</time>
  <course>228.81</course>
  <speed>0.99</speed>
  <fix>3d</fix>
</trkpt>
<trkpt lat="40.0716069" lon="-105.2294386">
  <ele>1582.99</ele>
  <time>2026-09-02T20:50:46Z</time>
  <course>229.05</course>
  <speed>0.9924716620639604</speed>
  <fix>3d</fix>
</trkpt>
<trkpt lat="40.0716076" lon="-105.2294376">
  <ele>1582.99</ele>
  <time>2026-09-02T20:50:46Z</time>
  <course>228.85</course>
  <speed>0.99</speed>
  <fix>3d</fix>
</trkpt>
<trkpt lat="40.0716063" lon="-105.2294395">
  <ele>1582.99</ele>
  <time>2026-09-02T20:50:46Z</time>
  <course>229.06</course>
  <speed>0.9924716620639604</speed>
  <fix>3d</fix>
</trkpt>
<trkpt lat="40.0716076" lon="-105.2294376">
  <ele>1582.99</ele>
  <time>2026-09-02T20:50:46Z</time>
  <course>228.85</course>
  <speed>0.99</speed>
  <fix>3d</fix>
</trkpt>
<trkpt lat="40.0716057" lon="-105.2294404">
  <ele>1582.99</ele>
  <time>2026-09-02T20:50:46Z</time>
  <course>229.07</course>
  <speed>0.9849365461794989</speed>
  <fix>3d</fix>
</trkpt>
<trkpt lat="40.0716064" lon="-105.2294393">
  <ele>1582.99</ele>
  <time>2026-09-02T20:50:46Z</time>
  <course>228.87</course>
  <speed>0.99</speed>
  <fix>3d</fix>
</trkpt>
<trkpt lat="40.0716051" lon="-105.2294412">
  <ele>1582.99</ele>
  <time>2026-09-02T20:50:46Z</time>
  <course>229.09</course>
  <speed>0.9924716620639604</speed>
  <fix>3d</fix>
</trkpt>
<trkpt lat="40.0716064" lon="-105.2294393">
  <ele>1582.99</ele>
  <time>2026-09-02T20:50:46Z</time>
  <course>228.87</course>
  <speed>0.99</speed>
  <fix>3d</fix>
</trkpt>
<trkpt lat="40.0716046" lon="-105.2294422">
  <ele>1582.99</ele>
  <time>2026-09-02T20:50:46Z</time>
  <course>229.1</course>
  <speed>0.9849365461794989</speed>
  <fix>3d</fix>
</trkpt>
<trkpt lat="40.0716053" lon="-105.2294411">
  <ele>1582.99</ele>
  <time>2026-09-02T20:50:46Z</time>
  <course>228.9</course>
  <speed>0.99</speed>
  <fix>3d</fix>
</trkpt>
<trkpt lat="40.071604" lon="-105.2294431">
  <ele>1582.99</ele>
  <time>2026-09-02T20:50:46Z</time>
  <course>229.11</course>
  <speed>0.9990495483208028</speed>
  <fix>3d</fix>
</trkpt>
<trkpt lat="40.0716053" lon="-105.2294411">
  <ele>1582.99</ele>
  <time>2026-09-02T20:50:46Z</time>
  <course>228.9</course>
  <speed>0.99</speed>
  <fix>3d</fix>
</trkpt>
<trkpt lat="40.0716034" lon="-105.229444">
  <ele>1582.99</ele>
  <time>2026-09-02T20:50:46Z</time>
  <course>229.13</course>
  <speed>0.9849365461794989</speed>
  <fix>3d</fix>
</trkpt>
<trkpt lat="40.071604" lon="-105.2294429">
  <ele>1582.99</ele>
  <time>2026-09-02T20:50:46Z</time>
  <course>228.93</course>
  <speed>0.99</speed>
  <fix>3d</fix>
</trkpt>
<trkpt lat="40.0716028" lon="-105.2294448">
  <ele>1582.99</ele>
  <time>2026-09-02T20:50:46Z</time>
  <course>229.13</course>
  <speed>1.0065783625729297</speed>
  <fix>3d</fix>
</trkpt>
<trkpt lat="40.071604" lon="-105.2294429">
  <ele>1582.99</ele>
  <time>2026-09-02T20:50:46Z</time>
  <course>228.93</course>
  <speed>0.99</speed>
  <fix>3d</fix>
</trkpt>
<trkpt lat="40.0716022" lon="-105.2294457">
  <ele>1582.99</ele>
  <time>2026-09-02T20:50:46Z</time>
  <course>229.15</course>
  <speed>0.9849365461794989</speed>
  <fix>3d</fix>
</trkpt>
<trkpt lat="40.0716028" lon="-105.2294446">
  <ele>1582.99</ele>
  <time>2026-09-02T20:50:46Z</time>
  <course>228.95</course>
  <speed>0.99</speed>
  <fix>3d</fix>
</trkpt>
<trkpt lat="40.0716016" lon="-105.2294465">
  <ele>1582.99</ele>
  <time>2026-09-02T20:50:46Z</time>
  <course>229.16</course>
  <speed>0.9990495483208028</speed>
  <fix>3d</fix>
</trkpt>
<trkpt lat="40.0716028" lon="-105.2294446">
  <ele>1582.99</ele>
  <time>2026-09-02T20:50:46Z</time>
  <course>228.95</course>
  <speed>0.99</speed>
  <fix>3d</fix>
</trkpt>
<trkpt lat="40.071601" lon="-105.2294474">
  <ele>1582.99</ele>
  <time>2026-09-02T20:50:46Z</time>
  <course>229.16</course>
  <speed>0.9849365461794989</speed>
  <fix>3d</fix>
</trkpt>
<trkpt lat="40.0716016" lon="-105.2294464">
  <ele>1582.99</ele>
  <time>2026-09-02T20:50:46Z</time>
  <course>228.97</course>
  <speed>0.99</speed>
  <fix>3d</fix>
</trkpt>
<trkpt lat="40.0716004" lon="-105.2294481">
  <ele>1582.99</ele>
  <time>2026-09-02T20:50:46Z</time>
  <course>229.16</course>
  <speed>0.9924716620639604</speed>
  <fix>3d</fix>
</trkpt>
<trkpt lat="40.0716016" lon="-105.2294464">
  <ele>1582.99</ele>
  <time>2026-09-02T20:50:46Z</time>
  <course>228.97</course>
  <speed>0.99</speed>
  <fix>3d</fix>
</trkpt>
<trkpt lat="40.0715999" lon="-105.2294491">
  <ele>1582.99</ele>
  <time>2026-09-02T20:50:46Z</time>
  <course>229.17</course>
  <speed>0.9783659846908007</speed>
  <fix>3d</fix>
</trkpt>
<trkpt lat="40.0716005" lon="-105.2294481">
  <ele>1582.99</ele>
  <time>2026-09-02T20:50:46Z</time>
  <course>228.98</course>
  <speed>0.99</speed>
  <fix>3d</fix>
</trkpt>
<trkpt lat="40.0715993" lon="-105.22945">
  <ele>1582.99</ele>
  <time>2026-09-02T20:50:46Z</time>
  <course>229.18</course>
  <speed>0.9924716620639604</speed>
  <fix>3d</fix>
</trkpt>
<trkpt lat="40.0716005" lon="-105.2294481">
  <ele>1582.99</ele>
  <time>2026-09-02T20:50:46Z</time>
  <course>228.98</course>
  <speed>0.99</speed>
  <fix>3d</fix>
</trkpt>
<trkpt lat="40.0715987" lon="-105.2294508">
  <ele>1582.99</ele>
  <time>2026-09-02T20:50:46Z</time>
  <course>229.18</course>
  <speed>0.9783659846908007</speed>
  <fix>3d</fix>
</trkpt>
<trkpt lat="40.0715993" lon="-105.2294499">
  <ele>1582.99</ele>
  <time>2026-09-02T20:50:46Z</time>
  <course>228.99</course>
  <speed>0.99</speed>
  <fix>3d</fix>
</trkpt>
<trkpt lat="40.0715981" lon="-105.2294517">
  <ele>1582.99</ele>
  <time>2026-09-02T20:50:46Z</time>
  <course>229.19</course>
  <speed>0.9924716620639604</speed>
  <fix>3d</fix>
</trkpt>
<trkpt lat="40.0715993" lon="-105.2294499">
  <ele>1582.99</ele>
  <time>2026-09-02T20:50:46Z</time>
  <course>228.99</course>
  <speed>0.99</speed>
  <fix>3d</fix>
</trkpt>
<trkpt lat="40.0715975" lon="-105.2294526">
  <ele>1582.99</ele>
  <time>2026-09-02T20:50:46Z</time>
  <course>229.2</course>
  <speed>0.9783659846908007</speed>
  <fix>3d</fix>
</trkpt>
<trkpt lat="40.0715981" lon="-105.2294517">
  <ele>1582.99</ele>
  <time>2026-09-02T20:50:46Z</time>
  <course>229.01</course>
  <speed>0.99</speed>
  <fix>3d</fix>
</trkpt>
<trkpt lat="40.071597" lon="-105.2294534">
  <ele>1582.99</ele>
  <time>2026-09-02T20:50:46Z</time>
  <course>229.2</course>
  <speed>0.9924716620639604</speed>
  <fix>3d</fix>
</trkpt>
<trkpt lat="40.0715981" lon="-105.2294517">
  <ele>1582.99</ele>
  <time>2026-09-02T20:50:46Z</time>
  <course>229.01</course>
  <speed>0.99</speed>
  <fix>3d</fix>
</trkpt>
<trkpt lat="40.0715964" lon="-105.2294544">
  <ele>1582.99</ele>
  <time>2026-09-02T20:50:46Z</time>
  <course>229.22</course>
  <speed>0.9924716620639604</speed>
  <fix>3d</fix>
</trkpt>
<trkpt lat="40.071597" lon="-105.2294535">
  <ele>1582.99</ele>
  <time>2026-09-02T20:50:46Z</time>
  <course>229.03</course>
  <speed>0.99</speed>
  <fix>3d</fix>
</trkpt>
<trkpt lat="40.0715958" lon="-105.2294553">
  <ele>1582.99</ele>
  <time>2026-09-02T20:50:46Z</time>
  <course>229.22</course>
  <speed>0.9924716620639604</speed>
  <fix>3d</fix>
</trkpt>
<trkpt lat="40.071597" lon="-105.2294535">
  <ele>1582.99</ele>
  <time>2026-09-02T20:50:46Z</time>
  <course>229.03</course>
  <speed>0.99</speed>
  <fix>3d</fix>
</trkpt>
<trkpt lat="40.0715953" lon="-105.2294562">
  <ele>1582.99</ele>
  <time>2026-09-02T20:50:46Z</time>
  <course>229.22</course>
  <speed>0.9924716620639604</speed>
  <fix>3d</fix>
</trkpt>
<trkpt lat="40.0715958" lon="-105.2294553">
  <ele>1582.99</ele>
  <time>2026-09-02T20:50:46Z</time>
  <course>229.04</course>
  <speed>0.99</speed>
  <fix>3d</fix>
</trkpt>
<trkpt lat="40.0715946" lon="-105.2294572">
  <ele>1582.99</ele>
  <time>2026-09-02T20:50:46Z</time>
  <course>229.22</course>
  <speed>0.9924716620639604</speed>
  <fix>3d</fix>
</trkpt>
<trkpt lat="40.0715958" lon="-105.2294553">
  <ele>1582.99</ele>
  <time>2026-09-02T20:50:46Z</time>
  <course>229.04</course>
  <speed>0.99</speed>
  <fix>3d</fix>
</trkpt>
<trkpt lat="40.071594" lon="-105.2294581">
  <ele>1582.99</ele>
  <time>2026-09-02T20:50:46Z</time>
  <course>229.23</course>
  <speed>0.9924716620639604</speed>
  <fix>3d</fix>
</trkpt>
<trkpt lat="40.0715947" lon="-105.229457">
  <ele>1582.99</ele>
  <time>2026-09-02T20:50:46Z</time>
  <course>229.04</course>
  <speed>0.99</speed>
  <fix>3d</fix>
</trkpt>
<trkpt lat="40.0715934" lon="-105.2294589">
  <ele>1582.99</ele>
  <time>2026-09-02T20:50:46Z</time>
  <course>229.23</course>
  <speed>0.9924716620639604</speed>
  <fix>3d</fix>
</trkpt>
<trkpt lat="40.0715947" lon="-105.229457">
  <ele>1582.99</ele>
  <time>2026-09-02T20:50:46Z</time>
  <course>229.04</course>
  <speed>0.99</speed>
  <fix>3d</fix>
</trkpt>
<trkpt lat="40.0715928" lon="-105.2294599">
  <ele>1582.99</ele>
  <time>2026-09-02T20:50:46Z</time>
  <course>229.23</course>
  <speed>0.9924716620639604</speed>
  <fix>3d</fix>
</trkpt>
<trkpt lat="40.0715935" lon="-105.2294588">
  <ele>1582.99</ele>
  <time>2026-09-02T20:50:46Z</time>
  <course>229.05</course>
  <speed>0.99</speed>
  <fix>3d</fix>
</trkpt>
<trkpt lat="40.0715922" lon="-105.2294608">
  <ele>1582.99</ele>
  <time>2026-09-02T20:50:46Z</time>
  <course>229.24</course>
  <speed>0.9924716620639604</speed>
  <fix>3d</fix>
</trkpt>
<trkpt lat="40.0715935" lon="-105.2294588">
  <ele>1582.99</ele>
  <time>2026-09-02T20:50:46Z</time>
  <course>229.05</course>
  <speed>0.99</speed>
  <fix>3d</fix>
</trkpt>
<trkpt lat="40.0715916" lon="-105.2294617">
  <ele>1582.99</ele>
  <time>2026-09-02T20:50:46Z</time>
  <course>229.24</course>
  <speed>0.9924716620639604</speed>
  <fix>3d</fix>
</trkpt>
<trkpt lat="40.0715923" lon="-105.2294606">
  <ele>1582.99</ele>
  <time>2026-09-02T20:50:46Z</time>
  <course>229.06</course>
  <speed>0.99</speed>
  <fix>3d</fix>
</trkpt>
<trkpt lat="40.071591" lon="-105.2294625">
  <ele>1582.99</ele>
  <time>2026-09-02T20:50:46Z</time>
  <course>229.24</course>
  <speed>0.9924716620639604</speed>
  <fix>3d</fix>
</trkpt>
<trkpt lat="40.0715923" lon="-105.2294606">
  <ele>1582.99</ele>
  <time>2026-09-02T20:50:46Z</time>
  <course>229.06</course>
  <speed>0.99</speed>
  <fix>3d</fix>
</trkpt>
<trkpt lat="40.0715904" lon="-105.2294634">
  <ele>1582.99</ele>
  <time>2026-09-02T20:50:46Z</time>
  <course>229.24</course>
  <speed>0.9924716620639604</speed>
  <fix>3d</fix>
</trkpt>
<trkpt lat="40.0715911" lon="-105.2294623">
  <ele>1582.99</ele>
  <time>2026-09-02T20:50:46Z</time>
  <course>229.06</course>
  <speed>0.99</speed>
  <fix>3d</fix>
</trkpt>
<trkpt lat="40.0715898" lon="-105.2294642">
  <ele>1582.99</ele>
  <time>2026-09-02T20:50:46Z</time>
  <course>229.24</course>
  <speed>0.9924716620639604</speed>
  <fix>3d</fix>
</trkpt>
<trkpt lat="40.0715911" lon="-105.2294623">
  <ele>1582.99</ele>
  <time>2026-09-02T20:50:46Z</time>
  <course>229.06</course>
  <speed>0.99</speed>
  <fix>3d</fix>
</trkpt>
<trkpt lat="40.0715893" lon="-105.2294651">
  <ele>1582.99</ele>
  <time>2026-09-02T20:50:46Z</time>
  <course>229.24</course>
  <speed>0.9924716620639604</speed>
  <fix>3d</fix>
</trkpt>
<trkpt lat="40.0715899" lon="-105.2294641">
  <ele>1582.99</ele>
  <time>2026-09-02T20:50:46Z</time>
  <course>229.06</course>
  <speed>1.0</speed>
  <fix>3d</fix>
</trkpt>
<trkpt lat="40.0715887" lon="-105.2294661">
  <ele>1582.99</ele>
  <time>2026-09-02T20:50:46Z</time>
  <course>229.24</course>
  <speed>0.9924716620639604</speed>
  <fix>3d</fix>
</trkpt>
<trkpt lat="40.0715899" lon="-105.2294641">
  <ele>1582.99</ele>
  <time>2026-09-02T20:50:46Z</time>
  <course>229.06</course>
  <speed>1.0</speed>
  <fix>3d</fix>
</trkpt>
<trkpt lat="40.0715882" lon="-105.2294668">
  <ele>1582.99</ele>
  <time>2026-09-02T20:50:46Z</time>
  <course>229.24</course>
  <speed>0.9924716620639604</speed>
  <fix>3d</fix>
</trkpt>
<trkpt lat="40.0715888" lon="-105.2294658">
  <ele>1582.99</ele>
  <time>2026-09-02T20:50:46Z</time>
  <course>229.07</course>
  <speed>1.0</speed>
  <fix>3d</fix>
</trkpt>
<trkpt lat="40.0715876" lon="-105.2294677">
  <ele>1582.99</ele>
  <time>2026-09-02T20:50:46Z</time>
  <course>229.25</course>
  <speed>0.9783659846908007</speed>
  <fix>3d</fix>
</trkpt>
<trkpt lat="40.0715888" lon="-105.2294658">
  <ele>1582.99</ele>
  <time>2026-09-02T20:50:46Z</time>
  <course>229.07</course>
  <speed>1.0</speed>
  <fix>3d</fix>
</trkpt>
<trkpt lat="40.071587" lon="-105.2294685">
  <ele>1582.99</ele>
  <time>2026-09-02T20:50:46Z</time>
  <course>229.25</course>
  <speed>0.9924716620639604</speed>
  <fix>3d</fix>
</trkpt>
<trkpt lat="40.0715876" lon="-105.2294676">
  <ele>1582.99</ele>
  <time>2026-09-02T20:50:46Z</time>
  <course>229.07</course>
  <speed>1.0</speed>
  <fix>3d</fix>
</trkpt>
<trkpt lat="40.0715864" lon="-105.2294694">
  <ele>1582.99</ele>
  <time>2026-09-02T20:50:46Z</time>
  <course>229.25</course>
  <speed>0.9783659846908007</speed>
  <fix>3d</fix>
</trkpt>
<trkpt lat="40.0715876" lon="-105.2294676">
  <ele>1582.99</ele>
  <time>2026-09-02T20:50:46Z</time>
  <course>229.07</course>
  <speed>1.0</speed>
  <fix>3d</fix>
</trkpt>
<trkpt lat="40.0715858" lon="-105.2294702">
  <ele>1582.99</ele>
  <time>2026-09-02T20:50:46Z</time>
  <course>229.25</course>
  <speed>0.9924716620639604</speed>
  <fix>3d</fix>
</trkpt>
<trkpt lat="40.0715864" lon="-105.2294694">
  <ele>1582.99</ele>
  <time>2026-09-02T20:50:46Z</time>
  <course>229.07</course>
  <speed>1.0</speed>
  <fix>3d</fix>
</trkpt>
<trkpt lat="40.0715852" lon="-105.2294711">
  <ele>1582.99</ele>
  <time>2026-09-02T20:50:46Z</time>
  <course>229.25</course>
  <speed>0.9924716620639604</speed>
  <fix>3d</fix>
</trkpt>
<trkpt lat="40.0715864" lon="-105.2294694">
  <ele>1582.99</ele>
  <time>2026-09-02T20:50:46Z</time>
  <course>229.07</course>
  <speed>1.0</speed>
  <fix>3d</fix>
</trkpt>
<trkpt lat="40.0715846" lon="-105.2294721">
  <ele>1582.99</ele>
  <time>2026-09-02T20:50:46Z</time>
  <course>229.25</course>
  <speed>0.9924716620639604</speed>
  <fix>3d</fix>
</trkpt>
<trkpt lat="40.0715852" lon="-105.2294711">
  <ele>1582.99</ele>
  <time>2026-09-02T20:50:46Z</time>
  <course>229.07</course>
  <speed>1.0</speed>
  <fix>3d</fix>
</trkpt>
<trkpt lat="40.071584" lon="-105.229473">
  <ele>1582.99</ele>
  <time>2026-09-02T20:50:46Z</time>
  <course>229.25</course>
  <speed>0.9924716620639604</speed>
  <fix>3d</fix>
</trkpt>
<trkpt lat="40.0715852" lon="-105.2294711">
  <ele>1582.99</ele>
  <time>2026-09-02T20:50:46Z</time>
  <course>229.07</course>
  <speed>1.0</speed>
  <fix>3d</fix>
</trkpt>
<trkpt lat="40.0715834" lon="-105.2294739">
  <ele>1582.99</ele>
  <time>2026-09-02T20:50:46Z</time>
  <course>229.25</course>
  <speed>0.9924716620639604</speed>
  <fix>3d</fix>
</trkpt>
<trkpt lat="40.071584" lon="-105.229473">
  <ele>1582.99</ele>
  <time>2026-09-02T20:50:46Z</time>
  <course>229.07</course>
  <speed>1.0</speed>
  <fix>3d</fix>
</trkpt>
<trkpt lat="40.0715828" lon="-105.2294749">
  <ele>1582.99</ele>
  <time>2026-09-02T20:50:46Z</time>
  <course>229.25</course>
  <speed>0.9924716620639604</speed>
  <fix>3d</fix>
</trkpt>
<trkpt lat="40.071584" lon="-105.229473">
  <ele>1582.99</ele>
  <time>2026-09-02T20:50:46Z</time>
  <course>229.07</course>
  <speed>1.0</speed>
  <fix>3d</fix>
</trkpt>
<trkpt lat="40.0715822" lon="-105.2294757">
  <ele>1582.99</ele>
  <time>2026-09-02T20:50:46Z</time>
  <course>229.25</course>
  <speed>0.9924716620639604</speed>
  <fix>3d</fix>
</trkpt>
<trkpt lat="40.0715828" lon="-105.2294747">
  <ele>1582.99</ele>
  <time>2026-09-02T20:50:46Z</time>
  <course>229.07</course>
  <speed>1.0</speed>
  <fix>3d</fix>
</trkpt>
<trkpt lat="40.0715815" lon="-105.2294766">
  <ele>1582.99</ele>
  <time>2026-09-02T20:50:46Z</time>
  <course>229.25</course>
  <speed>0.9924716620639604</speed>
  <fix>3d</fix>
</trkpt>
<trkpt lat="40.0715828" lon="-105.2294747">
  <ele>1582.99</ele>
  <time>2026-09-02T20:50:46Z</time>
  <course>229.07</course>
  <speed>1.0</speed>
  <fix>3d</fix>
</trkpt>
<trkpt lat="40.0715809" lon="-105.2294776">
  <ele>1582.99</ele>
  <time>2026-09-02T20:50:46Z</time>
  <course>229.25</course>
  <speed>0.9924716620639604</speed>
  <fix>3d</fix>
</trkpt>
<trkpt lat="40.0715816" lon="-105.2294765">
  <ele>1582.99</ele>
  <time>2026-09-02T20:50:46Z</time>
  <course>229.07</course>
  <speed>1.0</speed>
  <fix>3d</fix>
</trkpt>
<trkpt lat="40.0715803" lon="-105.2294785">
  <ele>1582.99</ele>
  <time>2026-09-02T20:50:46Z</time>
  <course>229.25</course>
  <speed>0.9924716620639604</speed>
  <fix>3d</fix>
</trkpt>
<trkpt lat="40.0715816" lon="-105.2294765">
  <ele>1582.99</ele>
  <time>2026-09-02T20:50:46Z</time>
  <course>229.07</course>
  <speed>1.0</speed>
  <fix>3d</fix>
</trkpt>
<trkpt lat="40.0715798" lon="-105.2294793">
  <ele>1582.99</ele>
  <time>2026-09-02T20:50:46Z</time>
  <course>229.25</course>
  <speed>0.9924716620639604</speed>
  <fix>3d</fix>
</trkpt>
<trkpt lat="40.0715805" lon="-105.2294783">
  <ele>1582.99</ele>
  <time>2026-09-02T20:50:46Z</time>
  <course>229.07</course>
  <speed>1.0</speed>
  <fix>3d</fix>
</trkpt>
<trkpt lat="40.0715792" lon="-105.2294802">
  <ele>1582.99</ele>
  <time>2026-09-02T20:50:46Z</time>
  <course>229.25</course>
  <speed>0.9924716620639604</speed>
  <fix>3d</fix>
</trkpt>
<trkpt lat="40.0715805" lon="-105.2294783">
  <ele>1582.99</ele>
  <time>2026-09-02T20:50:46Z</time>
  <course>229.07</course>
  <speed>1.0</speed>
  <fix>3d</fix>
</trkpt>
<trkpt lat="40.0715786" lon="-105.2294812">
  <ele>1582.99</ele>
  <time>2026-09-02T20:50:46Z</time>
  <course>229.25</course>
  <speed>0.9924716620639604</speed>
  <fix>3d</fix>
</trkpt>
<trkpt lat="40.0715794" lon="-105.22948">
  <ele>1582.99</ele>
  <time>2026-09-02T20:50:46Z</time>
  <course>229.07</course>
  <speed>1.0</speed>
  <fix>3d</fix>
</trkpt>
<trkpt lat="40.071578" lon="-105.2294819">
  <ele>1582.99</ele>
  <time>2026-09-02T20:50:46Z</time>
  <course>229.25</course>
  <speed>0.9924716620639604</speed>
  <fix>3d</fix>
</trkpt>
<trkpt lat="40.0715794" lon="-105.22948">
  <ele>1582.99</ele>
  <time>2026-09-02T20:50:46Z</time>
  <course>229.07</course>
  <speed>1.0</speed>
  <fix>3d</fix>
</trkpt>
<trkpt lat="40.0715774" lon="-105.2294828">
  <ele>1582.99</ele>
  <time>2026-09-02T20:50:46Z</time>
  <course>229.25</course>
  <speed>1.0000499987500624</speed>
  <fix>3d</fix>
</trkpt>
<trkpt lat="40.0715782" lon="-105.2294819">
  <ele>1582.99</ele>
  <time>2026-09-02T20:50:46Z</time>
  <course>229.07</course>
  <speed>1.0</speed>
  <fix>3d</fix>
</trkpt>
<trkpt lat="40.0715768" lon="-105.2294838">
  <ele>1582.99</ele>
  <time>2026-09-02T20:50:46Z</time>
  <course>229.25</course>
  <speed>0.9783659846908007</speed>
  <fix>3d</fix>
</trkpt>
<trkpt lat="40.0715782" lon="-105.2294819">
  <ele>1582.99</ele>
  <time>2026-09-02T20:50:46Z</time>
  <course>229.07</course>
  <speed>1.0</speed>
  <fix>3d</fix>
</trkpt>
<trkpt lat="40.0715762" lon="-105.2294847">
  <ele>1582.99</ele>
  <time>2026-09-02T20:50:46Z</time>
  <course>229.25</course>
  <speed>0.9924716620639604</speed>
  <fix>3d</fix>
</trkpt>
<trkpt lat="40.071577" lon="-105.2294836">
  <ele>1582.99</ele>
  <time>2026-09-02T20:50:46Z</time>
  <course>229.07</course>
  <speed>1.0</speed>
  <fix>3d</fix>
</trkpt>
<trkpt lat="40.0715759" lon="-105.2294854">
  <ele>1582.99</ele>
  <time>2026-09-02T20:50:46Z</time>
  <course>229.25</course>
  <speed>0.9783659846908007</speed>
  <fix>3d</fix>
</trkpt>
<trkpt lat="40.071577" lon="-105.2294836">
  <ele>1582.99</ele>
  <time>2026-09-02T20:50:46Z</time>
  <course>229.07</course>
  <speed>1.0</speed>
  <fix>3d</fix>
</trkpt>
<trkpt lat="40.0715753" lon="-105.2294862">
  <ele>1582.99</ele>
  <time>2026-09-02T20:50:46Z</time>
  <course>229.25</course>
  <speed>1.0000499987500624</speed>
  <fix>3d</fix>
</trkpt>
<trkpt lat="40.0715758" lon="-105.2294853">
  <ele>1582.99</ele>
  <time>2026-09-02T20:50:46Z</time>
  <course>229.07</course>
  <speed>1.0</speed>
  <fix>3d</fix>
</trkpt>
<trkpt lat="40.0715747" lon="-105.2294872">
  <ele>1582.99</ele>
  <time>2026-09-02T20:50:46Z</time>
  <course>229.26</course>
  <speed>0.9783659846908007</speed>
  <fix>3d</fix>
</trkpt>
<trkpt lat="40.0715758" lon="-105.2294853">
  <ele>1582.99</ele>
  <time>2026-09-02T20:50:46Z</time>
  <course>229.07</course>
  <speed>1.0</speed>
  <fix>3d</fix>
</trkpt>
<trkpt lat="40.0715741" lon="-105.2294881">
  <ele>1582.99</ele>
  <time>2026-09-02T20:50:46Z</time>
  <course>229.26</course>
  <speed>1.0000499987500624</speed>
  <fix>3d</fix>
</trkpt>
<trkpt lat="40.0715747" lon="-105.2294872">
  <ele>1582.99</ele>
  <time>2026-09-02T20:50:46Z</time>
  <course>229.08</course>
  <speed>1.0</speed>
  <fix>3d</fix>
</trkpt>
<trkpt lat="40.0715735" lon="-105.229489">
  <ele>1582.99</ele>
  <time>2026-09-02T20:50:46Z</time>
  <course>229.26</course>
  <speed>0.9924716620639604</speed>
  <fix>3d</fix>
</trkpt>
<trkpt lat="40.0715747" lon="-105.2294872">
  <ele>1582.99</ele>
  <time>2026-09-02T20:50:46Z</time>
  <course>229.08</course>
  <speed>1.0</speed>
  <fix>3d</fix>
</trkpt>
<trkpt lat="40.0715729" lon="-105.2294898">
  <ele>1582.99</ele>
  <time>2026-09-02T20:50:46Z</time>
  <course>229.25</course>
  <speed>1.0000499987500624</speed>
  <fix>3d</fix>
</trkpt>
<trkpt lat="40.0715735" lon="-105.2294889">
  <ele>1582.99</ele>
  <time>2026-09-02T20:50:46Z</time>
  <course>229.08</course>
  <speed>1.0</speed>
  <fix>3d</fix>
</trkpt>
<trkpt lat="40.0715723" lon="-105.2294907">
  <ele>1582.99</ele>
  <time>2026-09-02T20:50:46Z</time>
  <course>229.25</course>
  <speed>0.9924716620639604</speed>
  <fix>3d</fix>
</trkpt>
<trkpt lat="40.0715735" lon="-105.2294889">
  <ele>1582.99</ele>
  <time>2026-09-02T20:50:46Z</time>
  <course>229.08</course>
  <speed>1.0</speed>
  <fix>3d</fix>
</trkpt>
<trkpt lat="40.0715717" lon="-105.2294915">
  <ele>1582.99</ele>
  <time>2026-09-02T20:50:46Z</time>
  <course>229.25</course>
  <speed>0.9924716620639604</speed>
  <fix>3d</fix>
</trkpt>
<trkpt lat="40.0715723" lon="-105.2294906">
  <ele>1582.99</ele>
  <time>2026-09-02T20:50:46Z</time>
  <course>229.08</course>
  <speed>1.0</speed>
  <fix>3d</fix>
</trkpt>
<trkpt lat="40.0715712" lon="-105.2294924">
  <ele>1582.99</ele>
  <time>2026-09-02T20:50:46Z</time>
  <course>229.25</course>
  <speed>0.9924716620639604</speed>
  <fix>3d</fix>
</trkpt>
<trkpt lat="40.0715723" lon="-105.2294906">
  <ele>1582.99</ele>
  <time>2026-09-02T20:50:46Z</time>
  <course>229.08</course>
  <speed>1.0</speed>
  <fix>3d</fix>
</trkpt>
<trkpt lat="40.0715704" lon="-105.2294936">
  <ele>1582.99</ele>
  <time>2026-09-02T20:50:46Z</time>
  <course>229.26</course>
  <speed>0.9924716620639604</speed>
  <fix>3d</fix>
</trkpt>
<trkpt lat="40.0715711" lon="-105.2294924">
  <ele>1582.99</ele>
  <time>2026-09-02T20:50:46Z</time>
  <course>229.08</course>
  <speed>0.99</speed>
  <fix>3d</fix>
</trkpt>
<trkpt lat="40.0715699" lon="-105.2294945">
  <ele>1582.99</ele>
  <time>2026-09-02T20:50:46Z</time>
  <course>229.26</course>
  <speed>1.0000499987500624</speed>
  <fix>3d</fix>
</trkpt>
<trkpt lat="40.0715711" lon="-105.2294924">
  <ele>1582.99</ele>
  <time>2026-09-02T20:50:46Z</time>
  <course>229.08</course>
  <speed>0.99</speed>
  <fix>3d</fix>
</trkpt>
<trkpt lat="40.0715693" lon="-105.2294953">
  <ele>1582.99</ele>
  <time>2026-09-02T20:50:46Z</time>
  <course>229.25</course>
  <speed>0.9924716620639604</speed>
  <fix>3d</fix>
</trkpt>
<trkpt lat="40.07157" lon="-105.2294943">
  <ele>1582.99</ele>
  <time>2026-09-02T20:50:46Z</time>
  <course>229.08</course>
  <speed>0.99</speed>
  <fix>3d</fix>
</trkpt>
<trkpt lat="40.0715687" lon="-105.2294962">
  <ele>1582.99</ele>
  <time>2026-09-02T20:50:46Z</time>
  <course>229.25</course>
  <speed>0.9924716620639604</speed>
  <fix>3d</fix>
</trkpt>
<trkpt lat="40.07157" lon="-105.2294943">
  <ele>1582.99</ele>
  <time>2026-09-02T20:50:46Z</time>
  <course>229.08</course>
  <speed>0.99</speed>
  <fix>3d</fix>
</trkpt>
<trkpt lat="40.0715681" lon="-105.229497">
  <ele>1582.99</ele>
  <time>2026-09-02T20:50:46Z</time>
  <course>229.25</course>
  <speed>0.9924716620639604</speed>
  <fix>3d</fix>
</trkpt>
<trkpt lat="40.0715688" lon="-105.229496">
  <ele>1582.99</ele>
  <time>2026-09-02T20:50:46Z</time>
  <course>229.08</course>
  <speed>0.99</speed>
  <fix>3d</fix>
</trkpt>
<trkpt lat="40.0715675" lon="-105.2294979">
  <ele>1582.99</ele>
  <time>2026-09-02T20:50:46Z</time>
  <course>229.25</course>
  <speed>1.0000499987500624</speed>
  <fix>3d</fix>
</trkpt>
<trkpt lat="40.0715688" lon="-105.229496">
  <ele>1582.99</ele>
  <time>2026-09-02T20:50:46Z</time>
  <course>229.08</course>
  <speed>0.99</speed>
  <fix>3d</fix>
</trkpt>
<trkpt lat="40.0715669" lon="-105.2294989">
  <ele>1582.99</ele>
  <time>2026-09-02T20:50:46Z</time>
  <course>229.25</course>
  <speed>0.9924716620639604</speed>
  <fix>3d</fix>
</trkpt>
<trkpt lat="40.0715676" lon="-105.2294977">
  <ele>1582.99</ele>
  <time>2026-09-02T20:50:46Z</time>
  <course>229.08</course>
  <speed>0.99</speed>
  <fix>3d</fix>
</trkpt>
<trkpt lat="40.0715663" lon="-105.2294998">
  <ele>1582.99</ele>
  <time>2026-09-02T20:50:46Z</time>
  <course>229.25</course>
  <speed>1.0000499987500624</speed>
  <fix>3d</fix>
</trkpt>
<trkpt lat="40.0715676" lon="-105.2294977">
  <ele>1582.99</ele>
  <time>2026-09-02T20:50:46Z</time>
  <course>229.08</course>
  <speed>0.99</speed>
  <fix>3d</fix>
</trkpt>
<trkpt lat="40.0715657" lon="-105.2295006">
  <ele>1582.99</ele>
  <time>2026-09-02T20:50:46Z</time>
  <course>229.25</course>
  <speed>0.9924716620639604</speed>
  <fix>3d</fix>
</trkpt>
<trkpt lat="40.0715664" lon="-105.2294996">
  <ele>1582.99</ele>
  <time>2026-09-02T20:50:46Z</time>
  <course>229.07</course>
  <speed>0.99</speed>
  <fix>3d</fix>
</trkpt>
<trkpt lat="40.0715651" lon="-105.2295015">
  <ele>1582.99</ele>
  <time>2026-09-02T20:50:46Z</time>
  <course>229.25</course>
  <speed>0.9924716620639604</speed>
  <fix>3d</fix>
</trkpt>
<trkpt lat="40.0715664" lon="-105.2294996">
  <ele>1582.99</ele>
  <time>2026-09-02T20:50:46Z</time>
  <course>229.07</course>
  <speed>0.99</speed>
  <fix>3d</fix>
</trkpt>
<trkpt lat="40.0715645" lon="-105.2295024">
  <ele>1582.99</ele>
  <time>2026-09-02T20:50:46Z</time>
  <course>229.25</course>
  <speed>0.9924716620639604</speed>
  <fix>3d</fix>
</trkpt>
<trkpt lat="40.0715652" lon="-105.2295014">
  <ele>1582.99</ele>
  <time>2026-09-02T20:50:46Z</time>
  <course>229.07</course>
  <speed>0.99</speed>
  <fix>3d</fix>
</trkpt>
<trkpt lat="40.071564" lon="-105.2295031">
  <ele>1582.99</ele>
  <time>2026-09-02T20:50:46Z</time>
  <course>229.25</course>
  <speed>0.9924716620639604</speed>
  <fix>3d</fix>
</trkpt>
<trkpt lat="40.0715652" lon="-105.2295014">
  <ele>1582.99</ele>
  <time>2026-09-02T20:50:46Z</time>
  <course>229.07</course>
  <speed>0.99</speed>
  <fix>3d</fix>
</trkpt>
<trkpt lat="40.0715634" lon="-105.2295039">
  <ele>1582.99</ele>
  <time>2026-09-02T20:50:46Z</time>
  <course>229.25</course>
  <speed>0.9924716620639604</speed>
  <fix>3d</fix>
</trkpt>
<trkpt lat="40.071564" lon="-105.2295031">
  <ele>1582.99</ele>
  <time>2026-09-02T20:50:46Z</time>
  <course>229.07</course>
  <speed>0.99</speed>
  <fix>3d</fix>
</trkpt>
<trkpt lat="40.0715628" lon="-105.2295049">
  <ele>1582.99</ele>
  <time>2026-09-02T20:50:46Z</time>
  <course>229.25</course>
  <speed>0.9924716620639604</speed>
  <fix>3d</fix>
</trkpt>
<trkpt lat="40.071564" lon="-105.2295031">
  <ele>1582.99</ele>
  <time>2026-09-02T20:50:46Z</time>
  <course>229.07</course>
  <speed>0.99</speed>
  <fix>3d</fix>
</trkpt>
<trkpt lat="40.0715622" lon="-105.2295058">
  <ele>1582.99</ele>
  <time>2026-09-02T20:50:46Z</time>
  <course>229.25</course>
  <speed>0.9924716620639604</speed>
  <fix>3d</fix>
</trkpt>
<trkpt lat="40.0715628" lon="-105.2295049">
  <ele>1582.99</ele>
  <time>2026-09-02T20:50:46Z</time>
  <course>229.07</course>
  <speed>0.99</speed>
  <fix>3d</fix>
</trkpt>
<trkpt lat="40.0715616" lon="-105.2295067">
  <ele>1582.99</ele>
  <time>2026-09-02T20:50:46Z</time>
  <course>229.25</course>
  <speed>0.9924716620639604</speed>
  <fix>3d</fix>
</trkpt>
<trkpt lat="40.0715628" lon="-105.2295049">
  <ele>1582.99</ele>
  <time>2026-09-02T20:50:46Z</time>
  <course>229.07</course>
  <speed>0.99</speed>
  <fix>3d</fix>
</trkpt>
<trkpt lat="40.071561" lon="-105.2295075">
  <ele>1582.99</ele>
  <time>2026-09-02T20:50:46Z</time>
  <course>229.25</course>
  <speed>0.9924716620639604</speed>
  <fix>3d</fix>
</trkpt>
<trkpt lat="40.0715616" lon="-105.2295067">
  <ele>1582.99</ele>
  <time>2026-09-02T20:50:46Z</time>
  <course>229.07</course>
  <speed>0.99</speed>
  <fix>3d</fix>
</trkpt>
<trkpt lat="40.0715606" lon="-105.2295085">
  <ele>1582.99</ele>
  <time>2026-09-02T20:50:46Z</time>
  <course>229.25</course>
  <speed>0.9924716620639604</speed>
  <fix>3d</fix>
</trkpt>
<trkpt lat="40.0715616" lon="-105.2295067">
  <ele>1582.99</ele>
  <time>2026-09-02T20:50:46Z</time>
  <course>229.07</course>
  <speed>0.99</speed>
  <fix>3d</fix>
</trkpt>
<trkpt lat="40.07156" lon="-105.2295094">
  <ele>1582.99</ele>
  <time>2026-09-02T20:50:46Z</time>
  <course>229.26</course>
  <speed>0.9924716620639604</speed>
  <fix>3d</fix>
</trkpt>
<trkpt lat="40.0715605" lon="-105.2295085">
  <ele>1582.99</ele>
  <time>2026-09-02T20:50:46Z</time>
  <course>229.08</course>
  <speed>0.99</speed>
  <fix>3d</fix>
</trkpt>
<trkpt lat="40.0715594" lon="-105.2295101">
  <ele>1582.99</ele>
  <time>2026-09-02T20:50:46Z</time>
  <course>229.26</course>
  <speed>0.9924716620639604</speed>
  <fix>3d</fix>
</trkpt>
<trkpt lat="40.0715605" lon="-105.2295085">
  <ele>1582.99</ele>
  <time>2026-09-02T20:50:46Z</time>
  <course>229.08</course>
  <speed>0.99</speed>
  <fix>3d</fix>
</trkpt>
<trkpt lat="40.0715588" lon="-105.2295111">
  <ele>1582.99</ele>
  <time>2026-09-02T20:50:46Z</time>
  <course>229.26</course>
  <speed>0.9924716620639604</speed>
  <fix>3d</fix>
</trkpt>
<trkpt lat="40.0715594" lon="-105.2295102">
  <ele>1582.99</ele>
  <time>2026-09-02T20:50:46Z</time>
  <course>229.08</course>
  <speed>1.0</speed>
  <fix>3d</fix>
</trkpt>
<trkpt lat="40.0715581" lon="-105.2295122">
  <ele>1582.99</ele>
  <time>2026-09-02T20:50:46Z</time>
  <course>229.26</course>
  <speed>1.0000499987500624</speed>
  <fix>3d</fix>
</trkpt>
<trkpt lat="40.0715594" lon="-105.2295102">
  <ele>1582.99</ele>
  <time>2026-09-02T20:50:46Z</time>
  <course>229.08</course>
  <speed>1.0</speed>
  <fix>3d</fix>
</trkpt>
<trkpt lat="40.0715575" lon="-105.229513">
  <ele>1582.99</ele>
  <time>2026-09-02T20:50:46Z</time>
  <course>229.26</course>
  <speed>0.9924716620639604</speed>
  <fix>3d</fix>
</trkpt>
<trkpt lat="40.0715582" lon="-105.229512">
  <ele>1582.99</ele>
  <time>2026-09-02T20:50:46Z</time>
  <course>229.08</course>
  <speed>1.0</speed>
  <fix>3d</fix>
</trkpt>
<trkpt lat="40.0715569" lon="-105.229514">
  <ele>1582.99</ele>
  <time>2026-09-02T20:50:46Z</time>
  <course>229.26</course>
  <speed>0.9924716620639604</speed>
  <fix>3d</fix>
</trkpt>
<trkpt lat="40.0715582" lon="-105.229512">
  <ele>1582.99</ele>
  <time>2026-09-02T20:50:46Z</time>
  <course>229.08</course>
  <speed>1.0</speed>
  <fix>3d</fix>
</trkpt>
<trkpt lat="40.0715563" lon="-105.2295147">
  <ele>1582.99</ele>
  <time>2026-09-02T20:50:46Z</time>
  <course>229.27</course>
  <speed>0.9924716620639604</speed>
  <fix>3d</fix>
</trkpt>
<trkpt lat="40.071557" lon="-105.2295137">
  <ele>1582.99</ele>
  <time>2026-09-02T20:50:46Z</time>
  <course>229.09</course>
  <speed>0.99</speed>
  <fix>3d</fix>
</trkpt>
<trkpt lat="40.0715557" lon="-105.2295156">
  <ele>1582.99</ele>
  <time>2026-09-02T20:50:46Z</time>
  <course>229.27</course>
  <speed>0.9924716620639604</speed>
  <fix>3d</fix>
</trkpt>
<trkpt lat="40.071557" lon="-105.2295137">
  <ele>1582.99</ele>
  <time>2026-09-02T20:50:46Z</time>
  <course>229.09</course>
  <speed>0.99</speed>
  <fix>3d</fix>
</trkpt>
<trkpt lat="40.0715552" lon="-105.2295166">
  <ele>1582.99</ele>
  <time>2026-09-02T20:50:46Z</time>
  <course>229.27</course>
  <speed>0.9924716620639604</speed>
  <fix>3d</fix>
</trkpt>
<trkpt lat="40.0715558" lon="-105.2295155">
  <ele>1582.99</ele>
  <time>2026-09-02T20:50:46Z</time>
  <course>229.09</course>
  <speed>0.99</speed>
  <fix>3d</fix>
</trkpt>
<trkpt lat="40.0715546" lon="-105.2295175">
  <ele>1582.99</ele>
  <time>2026-09-02T20:50:46Z</time>
  <course>229.27</course>
  <speed>0.9924716620639604</speed>
  <fix>3d</fix>
</trkpt>
<trkpt lat="40.0715558" lon="-105.2295155">
  <ele>1582.99</ele>
  <time>2026-09-02T20:50:46Z</time>
  <course>229.09</course>
  <speed>0.99</speed>
  <fix>3d</fix>
</trkpt>
<trkpt lat="40.071554" lon="-105.2295183">
  <ele>1582.99</ele>
  <time>2026-09-02T20:50:46Z</time>
  <course>229.27</course>
  <speed>0.9924716620639604</speed>
  <fix>3d</fix>
</trkpt>
<trkpt lat="40.0715547" lon="-105.2295173">
  <ele>1582.99</ele>
  <time>2026-09-02T20:50:46Z</time>
  <course>229.09</course>
  <speed>0.99</speed>
  <fix>3d</fix>
</trkpt>
<trkpt lat="40.0715534" lon="-105.2295192">
  <ele>1582.99</ele>
  <time>2026-09-02T20:50:46Z</time>
  <course>229.27</course>
  <speed>0.9924716620639604</speed>
  <fix>3d</fix>
</trkpt>
<trkpt lat="40.0715547" lon="-105.2295173">
  <ele>1582.99</ele>
  <time>2026-09-02T20:50:46Z</time>
  <course>229.09</course>
  <speed>0.99</speed>
  <fix>3d</fix>
</trkpt>
<trkpt lat="40.0715528" lon="-105.2295202">
  <ele>1582.99</ele>
  <time>2026-09-02T20:50:46Z</time>
  <course>229.27</course>
  <speed>0.9924716620639604</speed>
  <fix>3d</fix>
</trkpt>
<trkpt lat="40.0715535" lon="-105.2295191">
  <ele>1582.99</ele>
  <time>2026-09-02T20:50:46Z</time>
  <course>229.09</course>
  <speed>0.99</speed>
  <fix>3d</fix>
</trkpt>
<trkpt lat="40.0715522" lon="-105.2295211">
  <ele>1582.99</ele>
  <time>2026-09-02T20:50:46Z</time>
  <course>229.27</course>
  <speed>0.9924716620639604</speed>
  <fix>3d</fix>
</trkpt>
<trkpt lat="40.0715535" lon="-105.2295191">
  <ele>1582.99</ele>
  <time>2026-09-02T20:50:46Z</time>
  <course>229.09</course>
  <speed>0.99</speed>
  <fix>3d</fix>
</trkpt>
<trkpt lat="40.0715517" lon="-105.2295218">
  <ele>1582.99</ele>
  <time>2026-09-02T20:50:46Z</time>
  <course>229.27</course>
  <speed>0.9924716620639604</speed>
  <fix>3d</fix>
</trkpt>
<trkpt lat="40.0715523" lon="-105.2295209">
  <ele>1582.99</ele>
  <time>2026-09-02T20:50:46Z</time>
  <course>229.1</course>
  <speed>0.99</speed>
  <fix>3d</fix>
</trkpt>
<trkpt lat="40.0715511" lon="-105.2295226">
  <ele>1582.99</ele>
  <time>2026-09-02T20:50:46Z</time>
  <course>229.27</course>
  <speed>0.9924716620639604</speed>
  <fix>3d</fix>
</trkpt>
<trkpt lat="40.0715523" lon="-105.2295209">
  <ele>1582.99</ele>
  <time>2026-09-02T20:50:46Z</time>
  <course>229.1</course>
  <speed>0.99</speed>
  <fix>3d</fix>
</trkpt>
<trkpt lat="40.0715505" lon="-105.2295235">
  <ele>1582.99</ele>
  <time>2026-09-02T20:50:46Z</time>
  <course>229.27</course>
  <speed>0.9924716620639604</speed>
  <fix>3d</fix>
</trkpt>
<trkpt lat="40.0715511" lon="-105.2295226">
  <ele>1582.99</ele>
  <time>2026-09-02T20:50:46Z</time>
  <course>229.1</course>
  <speed>0.99</speed>
  <fix>3d</fix>
</trkpt>
<trkpt lat="40.0715499" lon="-105.2295243">
  <ele>1582.99</ele>
  <time>2026-09-02T20:50:46Z</time>
  <course>229.28</course>
  <speed>1.0000499987500624</speed>
  <fix>3d</fix>
</trkpt>
<trkpt lat="40.0715511" lon="-105.2295226">
  <ele>1582.99</ele>
  <time>2026-09-02T20:50:46Z</time>
  <course>229.1</course>
  <speed>0.99</speed>
  <fix>3d</fix>
</trkpt>
<trkpt lat="40.0715493" lon="-105.2295252">
  <ele>1582.99</ele>
  <time>2026-09-02T20:50:46Z</time>
  <course>229.28</course>
  <speed>0.9924716620639604</speed>
  <fix>3d</fix>
</trkpt>
<trkpt lat="40.0715499" lon="-105.2295244">
  <ele>1582.99</ele>
  <time>2026-09-02T20:50:46Z</time>
  <course>229.1</course>
  <speed>0.99</speed>
  <fix>3d</fix>
</trkpt>
<trkpt lat="40.0715487" lon="-105.2295262">
  <ele>1582.99</ele>
  <time>2026-09-02T20:50:46Z</time>
  <course>229.28</course>
  <speed>1.0000499987500624</speed>
  <fix>3d</fix>
</trkpt>
<trkpt lat="40.0715499" lon="-105.2295244">
  <ele>1582.99</ele>
  <time>2026-09-02T20:50:46Z</time>
  <course>229.1</course>
  <speed>0.99</speed>
  <fix>3d</fix>
</trkpt>
<trkpt lat="40.0715481" lon="-105.2295271">
  <ele>1582.99</ele>
  <time>2026-09-02T20:50:46Z</time>
  <course>229.28</course>
  <speed>0.9924716620639604</speed>
  <fix>3d</fix>
</trkpt>
<trkpt lat="40.0715487" lon="-105.2295262">
  <ele>1582.99</ele>
  <time>2026-09-02T20:50:46Z</time>
  <course>229.1</course>
  <speed>0.99</speed>
  <fix>3d</fix>
</trkpt>
<trkpt lat="40.0715475" lon="-105.229528">
  <ele>1582.99</ele>
  <time>2026-09-02T20:50:46Z</time>
  <course>229.28</course>
  <speed>1.0000499987500624</speed>
  <fix>3d</fix>
</trkpt>
<trkpt lat="40.0715487" lon="-105.2295262">
  <ele>1582.99</ele>
  <time>2026-09-02T20:50:46Z</time>
  <course>229.1</course>
  <speed>0.99</speed>
  <fix>3d</fix>
</trkpt>
<trkpt lat="40.0715469" lon="-105.2295288">
  <ele>1582.99</ele>
  <time>2026-09-02T20:50:46Z</time>
  <course>229.28</course>
  <speed>0.9783659846908007</speed>
  <fix>3d</fix>
</trkpt>
<trkpt lat="40.0715475" lon="-105.2295279">
  <ele>1582.99</ele>
  <time>2026-09-02T20:50:46Z</time>
  <course>229.1</course>
  <speed>0.99</speed>
  <fix>3d</fix>
</trkpt>
<trkpt lat="40.0715464" lon="-105.2295297">
  <ele>1582.99</ele>
  <time>2026-09-02T20:50:46Z</time>
  <course>229.28</course>
  <speed>1.0000499987500624</speed>
  <fix>3d</fix>
</trkpt>
<trkpt lat="40.0715475" lon="-105.2295279">
  <ele>1582.99</ele>
  <time>2026-09-02T20:50:46Z</time>
  <course>229.1</course>
  <speed>0.99</speed>
  <fix>3d</fix>
</trkpt>
<trkpt lat="40.0715457" lon="-105.2295307">
  <ele>1582.99</ele>
  <time>2026-09-02T20:50:46Z</time>
  <course>229.28</course>
  <speed>0.9924716620639604</speed>
  <fix>3d</fix>
</trkpt>
<trkpt lat="40.0715464" lon="-105.2295297">
  <ele>1582.99</ele>
  <time>2026-09-02T20:50:46Z</time>
  <course>229.1</course>
  <speed>0.99</speed>
  <fix>3d</fix>
</trkpt>
<trkpt lat="40.0715451" lon="-105.2295317">
  <ele>1582.99</ele>
  <time>2026-09-02T20:50:46Z</time>
  <course>229.28</course>
  <speed>0.9924716620639604</speed>
  <fix>3d</fix>
</trkpt>
<trkpt lat="40.0715464" lon="-105.2295297">
  <ele>1582.99</ele>
  <time>2026-09-02T20:50:46Z</time>
  <course>229.1</course>
  <speed>0.99</speed>
  <fix>3d</fix>
</trkpt>
<trkpt lat="40.0715445" lon="-105.2295326">
  <ele>1582.99</ele>
  <time>2026-09-02T20:50:46Z</time>
  <course>229.28</course>
  <speed>0.9924716620639604</speed>
  <fix>3d</fix>
</trkpt>
<trkpt lat="40.0715452" lon="-105.2295314">
  <ele>1582.99</ele>
  <time>2026-09-02T20:50:46Z</time>
  <course>229.1</course>
  <speed>0.99</speed>
  <fix>3d</fix>
</trkpt>
<trkpt lat="40.0715439" lon="-105.2295335">
  <ele>1582.99</ele>
  <time>2026-09-02T20:50:46Z</time>
  <course>229.28</course>
  <speed>1.0000499987500624</speed>
  <fix>3d</fix>
</trkpt>
<trkpt lat="40.0715452" lon="-105.2295314">
  <ele>1582.99</ele>
  <time>2026-09-02T20:50:46Z</time>
  <course>229.1</course>
  <speed>0.99</speed>
  <fix>3d</fix>
</trkpt>
<trkpt lat="40.0715433" lon="-105.2295343">
  <ele>1582.99</ele>
  <time>2026-09-02T20:50:46Z</time>
  <course>229.28</course>
  <speed>0.9924716620639604</speed>
  <fix>3d</fix>
</trkpt>
<trkpt lat="40.071544" lon="-105.2295332">
  <ele>1582.99</ele>
  <time>2026-09-02T20:50:46Z</time>
  <course>229.1</course>
  <speed>0.99</speed>
  <fix>3d</fix>
</trkpt>
<trkpt lat="40.0715427" lon="-105.2295352">
  <ele>1582.99</ele>
  <time>2026-09-02T20:50:46Z</time>
  <course>229.28</course>
  <speed>0.9924716620639604</speed>
  <fix>3d</fix>
</trkpt>
<trkpt lat="40.071544" lon="-105.2295332">
  <ele>1582.99</ele>
  <time>2026-09-02T20:50:46Z</time>
  <course>229.1</course>
  <speed>0.99</speed>
  <fix>3d</fix>
</trkpt>
<trkpt lat="40.0715421" lon="-105.229536">
  <ele>1582.99</ele>
  <time>2026-09-02T20:50:46Z</time>
  <course>229.28</course>
  <speed>0.9924716620639604</speed>
  <fix>3d</fix>
</trkpt>
<trkpt lat="40.0715429" lon="-105.229535">
  <ele>1582.99</ele>
  <time>2026-09-02T20:50:46Z</time>
  <course>229.11</course>
  <speed>0.99</speed>
  <fix>3d</fix>
</trkpt>
<trkpt lat="40.0715415" lon="-105.2295369">
  <ele>1582.99</ele>
  <time>2026-09-02T20:50:46Z</time>
  <course>229.28</course>
  <speed>0.9924716620639604</speed>
  <fix>3d</fix>
</trkpt>
<trkpt lat="40.0715429" lon="-105.229535">
  <ele>1582.99</ele>
  <time>2026-09-02T20:50:46Z</time>
  <course>229.11</course>
  <speed>0.99</speed>
  <fix>3d</fix>
</trkpt>
<trkpt lat="40.0715409" lon="-105.2295379">
  <ele>1582.99</ele>
  <time>2026-09-02T20:50:46Z</time>
  <course>229.28</course>
  <speed>0.9924716620639604</speed>
  <fix>3d</fix>
</trkpt>
<trkpt lat="40.0715417" lon="-105.2295368">
  <ele>1582.99</ele>
  <time>2026-09-02T20:50:46Z</time>
  <course>229.11</course>
  <speed>0.99</speed>
  <fix>3d</fix>
</trkpt>
<trkpt lat="40.0715405" lon="-105.2295388">
  <ele>1582.99</ele>
  <time>2026-09-02T20:50:46Z</time>
  <course>229.28</course>
  <speed>0.9924716620639604</speed>
  <fix>3d</fix>
</trkpt>
<trkpt lat="40.0715417" lon="-105.2295368">
  <ele>1582.99</ele>
  <time>2026-09-02T20:50:46Z</time>
  <course>229.11</course>
  <speed>0.99</speed>
  <fix>3d</fix>
</trkpt>
<trkpt lat="40.0715399" lon="-105.2295396">
  <ele>1582.99</ele>
  <time>2026-09-02T20:50:46Z</time>
  <course>229.28</course>
  <speed>0.9924716620639604</speed>
  <fix>3d</fix>
</trkpt>
<trkpt lat="40.0715406" lon="-105.2295386">
  <ele>1582.99</ele>
  <time>2026-09-02T20:50:46Z</time>
  <course>229.11</course>
  <speed>0.99</speed>
  <fix>3d</fix>
</trkpt>
<trkpt lat="40.0715394" lon="-105.2295403">
  <ele>1582.99</ele>
  <time>2026-09-02T20:50:46Z</time>
  <course>229.28</course>
  <speed>0.9924716620639604</speed>
  <fix>3d</fix>
</trkpt>
<trkpt lat="40.0715406" lon="-105.2295386">
  <ele>1582.99</ele>
  <time>2026-09-02T20:50:46Z</time>
  <course>229.11</course>
  <speed>0.99</speed>
  <fix>3d</fix>
</trkpt>
<trkpt lat="40.0715388" lon="-105.2295412">
  <ele>1582.99</ele>
  <time>2026-09-02T20:50:46Z</time>
  <course>229.29</course>
  <speed>0.9924716620639604</speed>
  <fix>3d</fix>
</trkpt>
<trkpt lat="40.0715394" lon="-105.2295403">
  <ele>1582.99</ele>
  <time>2026-09-02T20:50:46Z</time>
  <course>229.11</course>
  <speed>0.99</speed>
  <fix>3d</fix>
</trkpt>
<trkpt lat="40.0715382" lon="-105.2295422">
  <ele>1582.99</ele>
  <time>2026-09-02T20:50:46Z</time>
  <course>229.29</course>
  <speed>0.9924716620639604</speed>
  <fix>3d</fix>
</trkpt>
<trkpt lat="40.0715394" lon="-105.2295403">
  <ele>1582.99</ele>
  <time>2026-09-02T20:50:46Z</time>
  <course>229.11</course>
  <speed>0.99</speed>
  <fix>3d</fix>
</trkpt>
<trkpt lat="40.0715376" lon="-105.2295431">
  <ele>1582.99</ele>
  <time>2026-09-02T20:50:46Z</time>
  <course>229.29</course>
  <speed>0.9924716620639604</speed>
  <fix>3d</fix>
</trkpt>
<trkpt lat="40.0715382" lon="-105.2295422">
  <ele>1582.99</ele>
  <time>2026-09-02T20:50:46Z</time>
  <course>229.11</course>
  <speed>1.0</speed>
  <fix>3d</fix>
</trkpt>
<trkpt lat="40.071537" lon="-105.2295439">
  <ele>1582.99</ele>
  <time>2026-09-02T20:50:46Z</time>
  <course>229.29</course>
  <speed>0.9924716620639604</speed>
  <fix>3d</fix>
</trkpt>
<trkpt lat="40.0715382" lon="-105.2295422">
  <ele>1582.99</ele>
  <time>2026-09-02T20:50:46Z</time>
  <course>229.11</course>
  <speed>1.0</speed>
  <fix>3d</fix>
</trkpt>
<trkpt lat="40.0715365" lon="-105.2295448">
  <ele>1582.99</ele>
  <time>2026-09-02T20:50:46Z</time>
  <course>229.29</course>
  <speed>0.9924716620639604</speed>
  <fix>3d</fix>
</trkpt>
<trkpt lat="40.071537" lon="-105.2295439">
  <ele>1582.99</ele>
  <time>2026-09-02T20:50:46Z</time>
  <course>229.11</course>
  <speed>1.0</speed>
  <fix>3d</fix>
</trkpt>
<trkpt lat="40.0715359" lon="-105.2295456">
  <ele>1582.99</ele>
  <time>2026-09-02T20:50:46Z</time>
  <course>229.29</course>
  <speed>0.9924716620639604</speed>
  <fix>3d</fix>
</trkpt>
<trkpt lat="40.071537" lon="-105.2295439">
  <ele>1582.99</ele>
  <time>2026-09-02T20:50:46Z</time>
  <course>229.11</course>
  <speed>1.0</speed>
  <fix>3d</fix>
</trkpt>
<trkpt lat="40.0715353" lon="-105.2295465">
  <ele>1582.99</ele>
  <time>2026-09-02T20:50:46Z</time>
  <course>229.29</course>
  <speed>0.9924716620639604</speed>
  <fix>3d</fix>
</trkpt>
<trkpt lat="40.0715359" lon="-105.2295456">
  <ele>1582.99</ele>
  <time>2026-09-02T20:50:46Z</time>
  <course>229.11</course>
  <speed>1.0</speed>
  <fix>3d</fix>
</trkpt>
<trkpt lat="40.0715347" lon="-105.2295475">
  <ele>1582.99</ele>
  <time>2026-09-02T20:50:46Z</time>
  <course>229.29</course>
  <speed>0.9924716620639604</speed>
  <fix>3d</fix>
</trkpt>
<trkpt lat="40.0715359" lon="-105.2295456">
  <ele>1582.99</ele>
  <time>2026-09-02T20:50:46Z</time>
  <course>229.11</course>
  <speed>1.0</speed>
  <fix>3d</fix>
</trkpt>
<trkpt lat="40.0715341" lon="-105.2295484">
  <ele>1582.99</ele>
  <time>2026-09-02T20:50:46Z</time>
  <course>229.29</course>
  <speed>0.9924716620639604</speed>
  <fix>3d</fix>
</trkpt>
<trkpt lat="40.0715347" lon="-105.2295475">
  <ele>1582.99</ele>
  <time>2026-09-02T20:50:46Z</time>
  <course>229.11</course>
  <speed>1.0</speed>
  <fix>3d</fix>
</trkpt>
<trkpt lat="40.0715334" lon="-105.2295494">
  <ele>1582.99</ele>
  <time>2026-09-02T20:50:46Z</time>
  <course>229.28</course>
  <speed>1.0065783625729297</speed>
  <fix>3d</fix>
</trkpt>
<trkpt lat="40.0715347" lon="-105.2295475">
  <ele>1582.99</ele>
  <time>2026-09-02T20:50:46Z</time>
  <course>229.11</course>
  <speed>1.0</speed>
  <fix>3d</fix>
</trkpt>
<trkpt lat="40.0715328" lon="-105.2295503">
  <ele>1582.99</ele>
  <time>2026-09-02T20:50:46Z</time>
  <course>229.29</course>
  <speed>0.9783659846908007</speed>
  <fix>3d</fix>
</trkpt>
<trkpt lat="40.0715335" lon="-105.2295493">
  <ele>1582.99</ele>
  <time>2026-09-02T20:50:46Z</time>
  <course>229.11</course>
  <speed>0.99</speed>
  <fix>3d</fix>
</trkpt>
<trkpt lat="40.0715322" lon="-105.2295511">
  <ele>1582.99</ele>
  <time>2026-09-02T20:50:46Z</time>
  <course>229.29</course>
  <speed>1.0065783625729297</speed>
  <fix>3d</fix>
</trkpt>
<trkpt lat="40.0715335" lon="-105.2295493">
  <ele>1582.99</ele>
  <time>2026-09-02T20:50:46Z</time>
  <course>229.11</course>
  <speed>0.99</speed>
  <fix>3d</fix>
</trkpt>
<trkpt lat="40.0715316" lon="-105.229552">
  <ele>1582.99</ele>
  <time>2026-09-02T20:50:46Z</time>
  <course>229.29</course>
  <speed>0.9783659846908007</speed>
  <fix>3d</fix>
</trkpt>
<trkpt lat="40.0715323" lon="-105.229551">
  <ele>1582.99</ele>
  <time>2026-09-02T20:50:46Z</time>
  <course>229.11</course>
  <speed>0.99</speed>
  <fix>3d</fix>
</trkpt>
<trkpt lat="40.0715311" lon="-105.229553">
  <ele>1582.99</ele>
  <time>2026-09-02T20:50:46Z</time>
  <course>229.29</course>
  <speed>1.0000499987500624</speed>
  <fix>3d</fix>
</trkpt>
<trkpt lat="40.0715323" lon="-105.229551">
  <ele>1582.99</ele>
  <time>2026-09-02T20:50:46Z</time>
  <course>229.11</course>
  <speed>0.99</speed>
  <fix>3d</fix>
</trkpt>
<trkpt lat="40.0715305" lon="-105.2295539">
  <ele>1582.99</ele>
  <time>2026-09-02T20:50:46Z</time>
  <course>229.29</course>
  <speed>0.9859513172565875</speed>
  <fix>3d</fix>
</trkpt>
<trkpt lat="40.0715311" lon="-105.2295527">
  <ele>1582.99</ele>
  <time>2026-09-02T20:50:46Z</time>
  <course>229.11</course>
  <speed>0.99</speed>
  <fix>3d</fix>
</trkpt>
<trkpt lat="40.0715299" lon="-105.2295547">
  <ele>1582.99</ele>
  <time>2026-09-02T20:50:46Z</time>
  <course>229.29</course>
  <speed>1.0000499987500624</speed>
  <fix>3d</fix>
</trkpt>
<trkpt lat="40.0715311" lon="-105.2295527">
  <ele>1582.99</ele>
  <time>2026-09-02T20:50:46Z</time>
  <course>229.11</course>
  <speed>0.99</speed>
  <fix>3d</fix>
</trkpt>
<trkpt lat="40.0715293" lon="-105.2295556">
  <ele>1582.99</ele>
  <time>2026-09-02T20:50:46Z</time>
  <course>229.29</course>
  <speed>0.9924716620639604</speed>
  <fix>3d</fix>
</trkpt>
<trkpt lat="40.0715299" lon="-105.2295546">
  <ele>1582.99</ele>
  <time>2026-09-02T20:50:46Z</time>
  <course>229.12</course>
  <speed>0.99</speed>
  <fix>3d</fix>
</trkpt>
<trkpt lat="40.0715286" lon="-105.2295565">
  <ele>1582.99</ele>
  <time>2026-09-02T20:50:46Z</time>
  <course>229.29</course>
  <speed>1.0000499987500624</speed>
  <fix>3d</fix>
</trkpt>
<trkpt lat="40.0715299" lon="-105.2295546">
  <ele>1582.99</ele>
  <time>2026-09-02T20:50:46Z</time>
  <course>229.12</course>
  <speed>0.99</speed>
  <fix>3d</fix>
</trkpt>
<trkpt lat="40.071528" lon="-105.2295573">
  <ele>1582.99</ele>
  <time>2026-09-02T20:50:46Z</time>
  <course>229.3</course>
  <speed>0.9859513172565875</speed>
  <fix>3d</fix>
</trkpt>
<trkpt lat="40.0715287" lon="-105.2295563">
  <ele>1582.99</ele>
  <time>2026-09-02T20:50:46Z</time>
  <course>229.12</course>
  <speed>0.99</speed>
  <fix>3d</fix>
</trkpt>
<trkpt lat="40.0715274" lon="-105.2295582">
  <ele>1582.99</ele>
  <time>2026-09-02T20:50:46Z</time>
  <course>229.3</course>
  <speed>1.0000499987500624</speed>
  <fix>3d</fix>
</trkpt>
<trkpt lat="40.0715287" lon="-105.2295563">
  <ele>1582.99</ele>
  <time>2026-09-02T20:50:46Z</time>
  <course>229.12</course>
  <speed>0.99</speed>
  <fix>3d</fix>
</trkpt>
<trkpt lat="40.0715271" lon="-105.229559">
  <ele>1582.99</ele>
  <time>2026-09-02T20:50:46Z</time>
  <course>229.3</course>
  <speed>0.9859513172565875</speed>
  <fix>3d</fix>
</trkpt>
<trkpt lat="40.0715276" lon="-105.2295581">
  <ele>1582.99</ele>
  <time>2026-09-02T20:50:46Z</time>
  <course>229.12</course>
  <speed>0.99</speed>
  <fix>3d</fix>
</trkpt>
<trkpt lat="40.0715265" lon="-105.2295599">
  <ele>1582.99</ele>
  <time>2026-09-02T20:50:46Z</time>
  <course>229.3</course>
  <speed>0.9924716620639604</speed>
  <fix>3d</fix>
</trkpt>
<trkpt lat="40.0715276" lon="-105.2295581">
  <ele>1582.99</ele>
  <time>2026-09-02T20:50:46Z</time>
  <course>229.12</course>
  <speed>0.99</speed>
  <fix>3d</fix>
</trkpt>
<trkpt lat="40.0715259" lon="-105.2295608">
  <ele>1582.99</ele>
  <time>2026-09-02T20:50:46Z</time>
  <course>229.3</course>
  <speed>0.9924716620639604</speed>
  <fix>3d</fix>
</trkpt>
<trkpt lat="40.0715265" lon="-105.2295599">
  <ele>1582.99</ele>
  <time>2026-09-02T20:50:46Z</time>
  <course>229.12</course>
  <speed>0.99</speed>
  <fix>3d</fix>
</trkpt>
<trkpt lat="40.0715253" lon="-105.2295616">
  <ele>1583.0</ele>
  <time>2026-09-02T20:50:46Z</time>
  <course>229.3</course>
  <speed>0.9924716620639604</speed>
  <fix>3d</fix>
</trkpt>
<trkpt lat="40.0715265" lon="-105.2295599">
  <ele>1582.99</ele>
  <time>2026-09-02T20:50:46Z</time>
  <course>229.12</course>
  <speed>0.99</speed>
  <fix>3d</fix>
</trkpt>
<trkpt lat="40.0715247" lon="-105.2295626">
  <ele>1582.99</ele>
  <time>2026-09-02T20:50:46Z</time>
  <course>229.3</course>
  <speed>0.9924716620639604</speed>
  <fix>3d</fix>
</trkpt>
<trkpt lat="40.0715253" lon="-105.2295617">
  <ele>1582.99</ele>
  <time>2026-09-02T20:50:46Z</time>
  <course>229.12</course>
  <speed>1.0</speed>
  <fix>3d</fix>
</trkpt>
<trkpt lat="40.0715241" lon="-105.2295635">
  <ele>1582.99</ele>
  <time>2026-09-02T20:50:46Z</time>
  <course>229.3</course>
  <speed>0.9924716620639604</speed>
  <fix>3d</fix>
</trkpt>
<trkpt lat="40.0715253" lon="-105.2295617">
  <ele>1582.99</ele>
  <time>2026-09-02T20:50:46Z</time>
  <course>229.12</course>
  <speed>1.0</speed>
  <fix>3d</fix>
</trkpt>
<trkpt lat="40.0715235" lon="-105.2295644">
  <ele>1582.99</ele>
  <time>2026-09-02T20:50:46Z</time>
  <course>229.3</course>
  <speed>0.9924716620639604</speed>
  <fix>3d</fix>
</trkpt>
<trkpt lat="40.0715241" lon="-105.2295635">
  <ele>1582.99</ele>
  <time>2026-09-02T20:50:46Z</time>
  <course>229.12</course>
  <speed>1.0</speed>
  <fix>3d</fix>
</trkpt>
<trkpt lat="40.0715229" lon="-105.2295652">
  <ele>1582.99</ele>
  <time>2026-09-02T20:50:46Z</time>
  <course>229.3</course>
  <speed>0.9924716620639604</speed>
  <fix>3d</fix>
</trkpt>
<trkpt lat="40.0715241" lon="-105.2295635">
  <ele>1582.99</ele>
  <time>2026-09-02T20:50:46Z</time>
  <course>229.12</course>
  <speed>1.0</speed>
  <fix>3d</fix>
</trkpt>
<trkpt lat="40.0715224" lon="-105.2295661">
  <ele>1582.99</ele>
  <time>2026-09-02T20:50:46Z</time>
  <course>229.3</course>
  <speed>0.9924716620639604</speed>
  <fix>3d</fix>
</trkpt>
<trkpt lat="40.0715229" lon="-105.2295652">
  <ele>1582.99</ele>
  <time>2026-09-02T20:50:46Z</time>
  <course>229.13</course>
  <speed>1.0</speed>
  <fix>3d</fix>
</trkpt>
<trkpt lat="40.0715218" lon="-105.2295669">
  <ele>1582.99</ele>
  <time>2026-09-02T20:50:46Z</time>
  <course>229.3</course>
  <speed>0.9924716620639604</speed>
  <fix>3d</fix>
</trkpt>
<trkpt lat="40.0715229" lon="-105.2295652">
  <ele>1582.99</ele>
  <time>2026-09-02T20:50:46Z</time>
  <course>229.13</course>
  <speed>1.0</speed>
  <fix>3d</fix>
</trkpt>
<trkpt lat="40.0715211" lon="-105.2295681">
  <ele>1582.99</ele>
  <time>2026-09-02T20:50:46Z</time>
  <course>229.31</course>
  <speed>0.9924716620639604</speed>
  <fix>3d</fix>
</trkpt>
<trkpt lat="40.0715218" lon="-105.229567">
  <ele>1582.99</ele>
  <time>2026-09-02T20:50:46Z</time>
  <course>229.13</course>
  <speed>1.0</speed>
  <fix>3d</fix>
</trkpt>
<trkpt lat="40.0715205" lon="-105.229569">
  <ele>1582.99</ele>
  <time>2026-09-02T20:50:46Z</time>
  <course>229.3</course>
  <speed>0.9924716620639604</speed>
  <fix>3d</fix>
</trkpt>
<trkpt lat="40.0715218" lon="-105.229567">
  <ele>1582.99</ele>
  <time>2026-09-02T20:50:46Z</time>
  <course>229.13</course>
  <speed>1.0</speed>
  <fix>3d</fix>
</trkpt>
<trkpt lat="40.0715199" lon="-105.2295699">
  <ele>1582.99</ele>
  <time>2026-09-02T20:50:46Z</time>
  <course>229.3</course>
  <speed>0.9924716620639604</speed>
  <fix>3d</fix>
</trkpt>
<trkpt lat="40.0715206" lon="-105.2295688">
  <ele>1582.99</ele>
  <time>2026-09-02T20:50:46Z</time>
  <course>229.13</course>
  <speed>0.99</speed>
  <fix>3d</fix>
</trkpt>
<trkpt lat="40.0715193" lon="-105.2295707">
  <ele>1582.99</ele>
  <time>2026-09-02T20:50:46Z</time>
  <course>229.3</course>
  <speed>1.0000499987500624</speed>
  <fix>3d</fix>
</trkpt>
<trkpt lat="40.0715206" lon="-105.2295688">
  <ele>1582.99</ele>
  <time>2026-09-02T20:50:46Z</time>
  <course>229.13</course>
  <speed>0.99</speed>
  <fix>3d</fix>
</trkpt>
<trkpt lat="40.0715187" lon="-105.2295716">
  <ele>1582.99</ele>
  <time>2026-09-02T20:50:46Z</time>
  <course>229.3</course>
  <speed>0.9924716620639604</speed>
  <fix>3d</fix>
</trkpt>
<trkpt lat="40.0715194" lon="-105.2295705">
  <ele>1582.99</ele>
  <time>2026-09-02T20:50:46Z</time>
  <course>229.13</course>
  <speed>0.99</speed>
  <fix>3d</fix>
</trkpt>
<trkpt lat="40.0715181" lon="-105.2295724">
  <ele>1582.99</ele>
  <time>2026-09-02T20:50:46Z</time>
  <course>229.3</course>
  <speed>0.9924716620639604</speed>
  <fix>3d</fix>
</trkpt>
<trkpt lat="40.0715194" lon="-105.2295705">
  <ele>1582.99</ele>
  <time>2026-09-02T20:50:46Z</time>
  <course>229.13</course>
  <speed>0.99</speed>
  <fix>3d</fix>
</trkpt>
<trkpt lat="40.0715175" lon="-105.2295733">
  <ele>1582.99</ele>
  <time>2026-09-02T20:50:46Z</time>
  <course>229.3</course>
  <speed>0.9924716620639604</speed>
  <fix>3d</fix>
</trkpt>
<trkpt lat="40.0715182" lon="-105.2295723">
  <ele>1582.99</ele>
  <time>2026-09-02T20:50:46Z</time>
  <course>229.12</course>
  <speed>0.99</speed>
  <fix>3d</fix>
</trkpt>
<trkpt lat="40.0715169" lon="-105.2295743">
  <ele>1582.99</ele>
  <time>2026-09-02T20:50:46Z</time>
  <course>229.3</course>
  <speed>0.9924716620639604</speed>
  <fix>3d</fix>
</trkpt>
<trkpt lat="40.0715182" lon="-105.2295723">
  <ele>1582.99</ele>
  <time>2026-09-02T20:50:46Z</time>
  <course>229.12</course>
  <speed>0.99</speed>
  <fix>3d</fix>
</trkpt>
<trkpt lat="40.0715164" lon="-105.2295752">
  <ele>1582.99</ele>
  <time>2026-09-02T20:50:46Z</time>
  <course>229.3</course>
  <speed>0.9924716620639604</speed>
  <fix>3d</fix>
</trkpt>
<trkpt lat="40.0715171" lon="-105.229574">
  <ele>1582.99</ele>
  <time>2026-09-02T20:50:46Z</time>
  <course>229.12</course>
  <speed>0.99</speed>
  <fix>3d</fix>
</trkpt>
<trkpt lat="40.0715158" lon="-105.229576">
  <ele>1582.99</ele>
  <time>2026-09-02T20:50:46Z</time>
  <course>229.3</course>
  <speed>0.9924716620639604</speed>
  <fix>3d</fix>
</trkpt>
<trkpt lat="40.0715171" lon="-105.229574">
  <ele>1582.99</ele>
  <time>2026-09-02T20:50:46Z</time>
  <course>229.12</course>
  <speed>0.99</speed>
  <fix>3d</fix>
</trkpt>
<trkpt lat="40.0715152" lon="-105.2295769">
  <ele>1582.99</ele>
  <time>2026-09-02T20:50:46Z</time>
  <course>229.3</course>
  <speed>0.9924716620639604</speed>
  <fix>3d</fix>
</trkpt>
<trkpt lat="40.0715159" lon="-105.2295758">
  <ele>1582.99</ele>
  <time>2026-09-02T20:50:46Z</time>
  <course>229.12</course>
  <speed>0.99</speed>
  <fix>3d</fix>
</trkpt>
<trkpt lat="40.0715147" lon="-105.2295776">
  <ele>1582.99</ele>
  <time>2026-09-02T20:50:46Z</time>
  <course>229.3</course>
  <speed>0.9924716620639604</speed>
  <fix>3d</fix>
</trkpt>
<trkpt lat="40.0715159" lon="-105.2295758">
  <ele>1582.99</ele>
  <time>2026-09-02T20:50:46Z</time>
  <course>229.12</course>
  <speed>0.99</speed>
  <fix>3d</fix>
</trkpt>
<trkpt lat="40.0715141" lon="-105.2295786">
  <ele>1582.99</ele>
  <time>2026-09-02T20:50:46Z</time>
  <course>229.3</course>
  <speed>0.9924716620639604</speed>
  <fix>3d</fix>
</trkpt>
<trkpt lat="40.0715147" lon="-105.2295776">
  <ele>1582.99</ele>
  <time>2026-09-02T20:50:46Z</time>
  <course>229.12</course>
  <speed>0.99</speed>
  <fix>3d</fix>
</trkpt>
<trkpt lat="40.0715134" lon="-105.2295793">
  <ele>1582.99</ele>
  <time>2026-09-02T20:50:46Z</time>
  <course>229.3</course>
  <speed>0.9924716620639604</speed>
  <fix>3d</fix>
</trkpt>
<trkpt lat="40.0715147" lon="-105.2295776">
  <ele>1582.99</ele>
  <time>2026-09-02T20:50:46Z</time>
  <course>229.12</course>
  <speed>0.99</speed>
  <fix>3d</fix>
</trkpt>
<trkpt lat="40.0715129" lon="-105.2295803">
  <ele>1582.99</ele>
  <time>2026-09-02T20:50:46Z</time>
  <course>229.3</course>
  <speed>0.9924716620639604</speed>
  <fix>3d</fix>
</trkpt>
<trkpt lat="40.0715135" lon="-105.2295794">
  <ele>1582.99</ele>
  <time>2026-09-02T20:50:46Z</time>
  <course>229.13</course>
  <speed>1.0</speed>
  <fix>3d</fix>
</trkpt>
<trkpt lat="40.0715123" lon="-105.2295812">
  <ele>1582.99</ele>
  <time>2026-09-02T20:50:46Z</time>
  <course>229.3</course>
  <speed>0.9924716620639604</speed>
  <fix>3d</fix>
</trkpt>
<trkpt lat="40.0715135" lon="-105.2295794">
  <ele>1582.99</ele>
  <time>2026-09-02T20:50:46Z</time>
  <course>229.13</course>
  <speed>1.0</speed>
  <fix>3d</fix>
</trkpt>
<trkpt lat="40.0715117" lon="-105.2295821">
  <ele>1582.99</ele>
  <time>2026-09-02T20:50:46Z</time>
  <course>229.3</course>
  <speed>0.9924716620639604</speed>
  <fix>3d</fix>
</trkpt>
<trkpt lat="40.0715123" lon="-105.2295812">
  <ele>1582.99</ele>
  <time>2026-09-02T20:50:46Z</time>
  <course>229.13</course>
  <speed>0.99</speed>
  <fix>3d</fix>
</trkpt>
<trkpt lat="40.0715111" lon="-105.2295829">
  <ele>1582.99</ele>
  <time>2026-09-02T20:50:46Z</time>
  <course>229.3</course>
  <speed>0.9924716620639604</speed>
  <fix>3d</fix>
</trkpt>
<trkpt lat="40.0715123" lon="-105.2295812">
  <ele>1582.99</ele>
  <time>2026-09-02T20:50:46Z</time>
  <course>229.13</course>
  <speed>0.99</speed>
  <fix>3d</fix>
</trkpt>
<trkpt lat="40.0715105" lon="-105.2295839">
  <ele>1582.99</ele>
  <time>2026-09-02T20:50:46Z</time>
  <course>229.3</course>
  <speed>0.9924716620639604</speed>
  <fix>3d</fix>
</trkpt>
<trkpt lat="40.0715111" lon="-105.2295829">
  <ele>1582.99</ele>
  <time>2026-09-02T20:50:46Z</time>
  <course>229.13</course>
  <speed>0.99</speed>
  <fix>3d</fix>
</trkpt>
<trkpt lat="40.0715099" lon="-105.2295848">
  <ele>1582.99</ele>
  <time>2026-09-02T20:50:46Z</time>
  <course>229.3</course>
  <speed>0.9924716620639604</speed>
  <fix>3d</fix>
</trkpt>
<trkpt lat="40.0715111" lon="-105.2295829">
  <ele>1582.99</ele>
  <time>2026-09-02T20:50:46Z</time>
  <course>229.13</course>
  <speed>0.99</speed>
  <fix>3d</fix>
</trkpt>
<trkpt lat="40.0715092" lon="-105.2295858">
  <ele>1582.99</ele>
  <time>2026-09-02T20:50:46Z</time>
  <course>229.3</course>
  <speed>0.9924716620639604</speed>
  <fix>3d</fix>
</trkpt>
<trkpt lat="40.0715099" lon="-105.2295847">
  <ele>1582.99</ele>
  <time>2026-09-02T20:50:46Z</time>
  <course>229.13</course>
  <speed>1.0</speed>
  <fix>3d</fix>
</trkpt>
<trkpt lat="40.0715086" lon="-105.2295867">
  <ele>1582.99</ele>
  <time>2026-09-02T20:50:46Z</time>
  <course>229.31</course>
  <speed>0.9924716620639604</speed>
  <fix>3d</fix>
</trkpt>
<trkpt lat="40.0715099" lon="-105.2295847">
  <ele>1582.99</ele>
  <time>2026-09-02T20:50:46Z</time>
  <course>229.13</course>
  <speed>1.0</speed>
  <fix>3d</fix>
</trkpt>
<trkpt lat="40.071508" lon="-105.2295876">
  <ele>1582.99</ele>
  <time>2026-09-02T20:50:46Z</time>
  <course>229.3</course>
  <speed>1.0000499987500624</speed>
  <fix>3d</fix>
</trkpt>
<trkpt lat="40.0715088" lon="-105.2295865">
  <ele>1582.99</ele>
  <time>2026-09-02T20:50:46Z</time>
  <course>229.13</course>
  <speed>1.0</speed>
  <fix>3d</fix>
</trkpt>
<trkpt lat="40.0715074" lon="-105.2295884">
  <ele>1582.99</ele>
  <time>2026-09-02T20:50:46Z</time>
  <course>229.3</course>
  <speed>0.9924716620639604</speed>
  <fix>3d</fix>
</trkpt>
<trkpt lat="40.0715088" lon="-105.2295865">
  <ele>1582.99</ele>
  <time>2026-09-02T20:50:46Z</time>
  <course>229.13</course>
  <speed>1.0</speed>
  <fix>3d</fix>
</trkpt>
<trkpt lat="40.0715069" lon="-105.2295894">
  <ele>1582.99</ele>
  <time>2026-09-02T20:50:46Z</time>
  <course>229.3</course>
  <speed>1.0000499987500624</speed>
  <fix>3d</fix>
</trkpt>
<trkpt lat="40.0715077" lon="-105.2295882">
  <ele>1582.99</ele>
  <time>2026-09-02T20:50:46Z</time>
  <course>229.13</course>
  <speed>1.0</speed>
  <fix>3d</fix>
</trkpt>
<trkpt lat="40.0715063" lon="-105.2295903">
  <ele>1582.99</ele>
  <time>2026-09-02T20:50:46Z</time>
  <course>229.3</course>
  <speed>0.9783659846908007</speed>
  <fix>3d</fix>
</trkpt>
<trkpt lat="40.0715077" lon="-105.2295882">
  <ele>1582.99</ele>
  <time>2026-09-02T20:50:46Z</time>
  <course>229.13</course>
  <speed>1.0</speed>
  <fix>3d</fix>
</trkpt>
<trkpt lat="40.0715058" lon="-105.2295912">
  <ele>1582.99</ele>
  <time>2026-09-02T20:50:46Z</time>
  <course>229.3</course>
  <speed>1.0000499987500624</speed>
  <fix>3d</fix>
</trkpt>
<trkpt lat="40.0715065" lon="-105.2295901">
  <ele>1582.99</ele>
  <time>2026-09-02T20:50:46Z</time>
  <course>229.13</course>
  <speed>1.0</speed>
  <fix>3d</fix>
</trkpt>
<trkpt lat="40.0715052" lon="-105.229592">
  <ele>1582.99</ele>
  <time>2026-09-02T20:50:46Z</time>
  <course>229.3</course>
  <speed>0.9924716620639604</speed>
  <fix>3d</fix>
</trkpt>
<trkpt lat="40.0715065" lon="-105.2295901">
  <ele>1582.99</ele>
  <time>2026-09-02T20:50:46Z</time>
  <course>229.13</course>
  <speed>1.0</speed>
  <fix>3d</fix>
</trkpt>
<trkpt lat="40.0715046" lon="-105.2295929">
  <ele>1582.99</ele>
  <time>2026-09-02T20:50:46Z</time>
  <course>229.3</course>
  <speed>1.0000499987500624</speed>
  <fix>3d</fix>
</trkpt>
<trkpt lat="40.0715053" lon="-105.2295919">
  <ele>1582.99</ele>
  <time>2026-09-02T20:50:46Z</time>
  <course>229.13</course>
  <speed>1.0</speed>
  <fix>3d</fix>
</trkpt>
<trkpt lat="40.071504" lon="-105.2295937">
  <ele>1582.99</ele>
  <time>2026-09-02T20:50:46Z</time>
  <course>229.3</course>
  <speed>0.9924716620639604</speed>
  <fix>3d</fix>
</trkpt>
<trkpt lat="40.0715053" lon="-105.2295919">
  <ele>1582.99</ele>
  <time>2026-09-02T20:50:46Z</time>
  <course>229.13</course>
  <speed>1.0</speed>
  <fix>3d</fix>
</trkpt>
<trkpt lat="40.0715034" lon="-105.2295946">
  <ele>1582.99</ele>
  <time>2026-09-02T20:50:46Z</time>
  <course>229.3</course>
  <speed>1.0000499987500624</speed>
  <fix>3d</fix>
</trkpt>
<trkpt lat="40.0715041" lon="-105.2295936">
  <ele>1582.99</ele>
  <time>2026-09-02T20:50:46Z</time>
  <course>229.13</course>
  <speed>1.0</speed>
  <fix>3d</fix>
</trkpt>
<trkpt lat="40.071503" lon="-105.2295953">
  <ele>1582.99</ele>
  <time>2026-09-02T20:50:46Z</time>
  <course>229.31</course>
  <speed>0.9924716620639604</speed>
  <fix>3d</fix>
</trkpt>
<trkpt lat="40.0715041" lon="-105.2295936">
  <ele>1582.99</ele>
  <time>2026-09-02T20:50:46Z</time>
  <course>229.13</course>
  <speed>1.0</speed>
  <fix>3d</fix>
</trkpt>
<trkpt lat="40.0715024" lon="-105.2295963">
  <ele>1582.99</ele>
  <time>2026-09-02T20:50:46Z</time>
  <course>229.31</course>
  <speed>1.0000499987500624</speed>
  <fix>3d</fix>
</trkpt>
<trkpt lat="40.0715029" lon="-105.2295953">
  <ele>1582.99</ele>
  <time>2026-09-02T20:50:46Z</time>
  <course>229.13</course>
  <speed>1.0</speed>
  <fix>3d</fix>
</trkpt>
<trkpt lat="40.0715018" lon="-105.2295972">
  <ele>1582.99</ele>
  <time>2026-09-02T20:50:46Z</time>
  <course>229.31</course>
  <speed>0.9924716620639604</speed>
  <fix>3d</fix>
</trkpt>
<trkpt lat="40.0715029" lon="-105.2295953">
  <ele>1582.99</ele>
  <time>2026-09-02T20:50:46Z</time>
  <course>229.13</course>
  <speed>1.0</speed>
  <fix>3d</fix>
</trkpt>
<trkpt lat="40.0715012" lon="-105.229598">
  <ele>1582.99</ele>
  <time>2026-09-02T20:50:46Z</time>
  <course>229.31</course>
  <speed>1.0000499987500624</speed>
  <fix>3d</fix>
</trkpt>
<trkpt lat="40.0715018" lon="-105.2295972">
  <ele>1582.99</ele>
  <time>2026-09-02T20:50:46Z</time>
  <course>229.13</course>
  <speed>1.0</speed>
  <fix>3d</fix>
</trkpt>
<trkpt lat="40.0715006" lon="-105.2295989">
  <ele>1582.99</ele>
  <time>2026-09-02T20:50:46Z</time>
  <course>229.31</course>
  <speed>0.9924716620639604</speed>
  <fix>3d</fix>
</trkpt>
<trkpt lat="40.0715018" lon="-105.2295972">
  <ele>1582.99</ele>
  <time>2026-09-02T20:50:46Z</time>
  <course>229.13</course>
  <speed>1.0</speed>
  <fix>3d</fix>
</trkpt>
<trkpt lat="40.0715" lon="-105.2295999">
  <ele>1582.99</ele>
  <time>2026-09-02T20:50:46Z</time>
  <course>229.31</course>
  <speed>0.9924716620639604</speed>
  <fix>3d</fix>
</trkpt>
<trkpt lat="40.0715006" lon="-105.2295989">
  <ele>1582.99</ele>
  <time>2026-09-02T20:50:46Z</time>
  <course>229.13</course>
  <speed>1.0</speed>
  <fix>3d</fix>
</trkpt>
<trkpt lat="40.0714994" lon="-105.2296006">
  <ele>1582.99</ele>
  <time>2026-09-02T20:50:46Z</time>
  <course>229.31</course>
  <speed>0.9924716620639604</speed>
  <fix>3d</fix>
</trkpt>
<trkpt lat="40.0715006" lon="-105.2295989">
  <ele>1582.99</ele>
  <time>2026-09-02T20:50:46Z</time>
  <course>229.13</course>
  <speed>1.0</speed>
  <fix>3d</fix>
</trkpt>
<trkpt lat="40.0714988" lon="-105.2296016">
  <ele>1582.99</ele>
  <time>2026-09-02T20:50:46Z</time>
  <course>229.31</course>
  <speed>0.9924716620639604</speed>
  <fix>3d</fix>
</trkpt>
<trkpt lat="40.0714994" lon="-105.2296007">
  <ele>1582.99</ele>
  <time>2026-09-02T20:50:46Z</time>
  <course>229.13</course>
  <speed>1.0</speed>
  <fix>3d</fix>
</trkpt>
<trkpt lat="40.0714982" lon="-105.2296025">
  <ele>1582.99</ele>
  <time>2026-09-02T20:50:46Z</time>
  <course>229.31</course>
  <speed>0.9924716620639604</speed>
  <fix>3d</fix>
</trkpt>
<trkpt lat="40.0714994" lon="-105.2296007">
  <ele>1582.99</ele>
  <time>2026-09-02T20:50:46Z</time>
  <course>229.13</course>
  <speed>1.0</speed>
  <fix>3d</fix>
</trkpt>
<trkpt lat="40.0714976" lon="-105.2296034">
  <ele>1583.0</ele>
  <time>2026-09-02T20:50:46Z</time>
  <course>229.31</course>
  <speed>0.9924716620639604</speed>
  <fix>3d</fix>
</trkpt>
<trkpt lat="40.0714982" lon="-105.2296025">
  <ele>1582.99</ele>
  <time>2026-09-02T20:50:46Z</time>
  <course>229.13</course>
  <speed>1.0</speed>
  <fix>3d</fix>
</trkpt>
<trkpt lat="40.071497" lon="-105.2296044">
  <ele>1582.99</ele>
  <time>2026-09-02T20:50:46Z</time>
  <course>229.31</course>
  <speed>0.9924716620639604</speed>
  <fix>3d</fix>
</trkpt>
<trkpt lat="40.0714982" lon="-105.2296025">
  <ele>1582.99</ele>
  <time>2026-09-02T20:50:46Z</time>
  <course>229.13</course>
  <speed>1.0</speed>
  <fix>3d</fix>
</trkpt>
<trkpt lat="40.0714964" lon="-105.2296054">
  <ele>1582.99</ele>
  <time>2026-09-02T20:50:46Z</time>
  <course>229.31</course>
  <speed>0.9924716620639604</speed>
  <fix>3d</fix>
</trkpt>
<trkpt lat="40.071497" lon="-105.2296043">
  <ele>1582.99</ele>
  <time>2026-09-02T20:50:46Z</time>
  <course>229.13</course>
  <speed>1.0</speed>
  <fix>3d</fix>
</trkpt>
<trkpt lat="40.0714958" lon="-105.2296061">
  <ele>1582.99</ele>
  <time>2026-09-02T20:50:46Z</time>
  <course>229.31</course>
  <speed>0.9924716620639604</speed>
  <fix>3d</fix>
</trkpt>
<trkpt lat="40.071497" lon="-105.2296043">
  <ele>1582.99</ele>
  <time>2026-09-02T20:50:46Z</time>
  <course>229.13</course>
  <speed>1.0</speed>
  <fix>3d</fix>
</trkpt>
<trkpt lat="40.0714952" lon="-105.2296071">
  <ele>1582.99</ele>
  <time>2026-09-02T20:50:46Z</time>
  <course>229.31</course>
  <speed>0.9924716620639604</speed>
  <fix>3d</fix>
</trkpt>
<trkpt lat="40.0714958" lon="-105.2296061">
  <ele>1582.99</ele>
  <time>2026-09-02T20:50:46Z</time>
  <course>229.13</course>
  <speed>1.0</speed>
  <fix>3d</fix>
</trkpt>
<trkpt lat="40.0714946" lon="-105.229608">
  <ele>1582.99</ele>
  <time>2026-09-02T20:50:46Z</time>
  <course>229.31</course>
  <speed>0.9924716620639604</speed>
  <fix>3d</fix>
</trkpt>
<trkpt lat="40.0714958" lon="-105.2296061">
  <ele>1582.99</ele>
  <time>2026-09-02T20:50:46Z</time>
  <course>229.13</course>
  <speed>1.0</speed>
  <fix>3d</fix>
</trkpt>
<trkpt lat="40.071494" lon="-105.2296089">
  <ele>1582.99</ele>
  <time>2026-09-02T20:50:46Z</time>
  <course>229.31</course>
  <speed>0.9924716620639604</speed>
  <fix>3d</fix>
</trkpt>
<trkpt lat="40.0714946" lon="-105.2296078">
  <ele>1582.99</ele>
  <time>2026-09-02T20:50:46Z</time>
  <course>229.13</course>
  <speed>1.0</speed>
  <fix>3d</fix>
</trkpt>
<trkpt lat="40.0714934" lon="-105.2296097">
  <ele>1582.99</ele>
  <time>2026-09-02T20:50:46Z</time>
  <course>229.3</course>
  <speed>0.9924716620639604</speed>
  <fix>3d</fix>
</trkpt>
<trkpt lat="40.0714946" lon="-105.2296078">
  <ele>1582.99</ele>
  <time>2026-09-02T20:50:46Z</time>
  <course>229.13</course>
  <speed>1.0</speed>
  <fix>3d</fix>
</trkpt>
<trkpt lat="40.0714928" lon="-105.2296107">
  <ele>1582.99</ele>
  <time>2026-09-02T20:50:46Z</time>
  <course>229.31</course>
  <speed>0.9924716620639604</speed>
  <fix>3d</fix>
</trkpt>
<trkpt lat="40.0714935" lon="-105.2296096">
  <ele>1582.99</ele>
  <time>2026-09-02T20:50:46Z</time>
  <course>229.13</course>
  <speed>1.0</speed>
  <fix>3d</fix>
</trkpt>
<trkpt lat="40.0714922" lon="-105.2296116">
  <ele>1582.99</ele>
  <time>2026-09-02T20:50:46Z</time>
  <course>229.31</course>
  <speed>0.9924716620639604</speed>
  <fix>3d</fix>
</trkpt>
<trkpt lat="40.0714935" lon="-105.2296096">
  <ele>1582.99</ele>
  <time>2026-09-02T20:50:46Z</time>
  <course>229.13</course>
  <speed>1.0</speed>
  <fix>3d</fix>
</trkpt>
<trkpt lat="40.0714916" lon="-105.2296125">
  <ele>1582.99</ele>
  <time>2026-09-02T20:50:46Z</time>
  <course>229.31</course>
  <speed>0.9924716620639604</speed>
  <fix>3d</fix>
</trkpt>
<trkpt lat="40.0714923" lon="-105.2296114">
  <ele>1582.99</ele>
  <time>2026-09-02T20:50:46Z</time>
  <course>229.13</course>
  <speed>1.0</speed>
  <fix>3d</fix>
</trkpt>
<trkpt lat="40.071491" lon="-105.2296133">
  <ele>1582.99</ele>
  <time>2026-09-02T20:50:46Z</time>
  <course>229.31</course>
  <speed>0.9924716620639604</speed>
  <fix>3d</fix>
</trkpt>
<trkpt lat="40.0714923" lon="-105.2296114">
  <ele>1582.99</ele>
  <time>2026-09-02T20:50:46Z</time>
  <course>229.13</course>
  <speed>1.0</speed>
  <fix>3d</fix>
</trkpt>
<trkpt lat="40.0714906" lon="-105.229614">
  <ele>1582.99</ele>
  <time>2026-09-02T20:50:46Z</time>
  <course>229.31</course>
  <speed>0.9924716620639604</speed>
  <fix>3d</fix>
</trkpt>
<trkpt lat="40.0714911" lon="-105.2296131">
  <ele>1582.99</ele>
  <time>2026-09-02T20:50:46Z</time>
  <course>229.13</course>
  <speed>1.0</speed>
  <fix>3d</fix>
</trkpt>
<trkpt lat="40.07149" lon="-105.2296149">
  <ele>1582.99</ele>
  <time>2026-09-02T20:50:46Z</time>
  <course>229.31</course>
  <speed>0.9924716620639604</speed>
  <fix>3d</fix>
</trkpt>
<trkpt lat="40.0714911" lon="-105.2296131">
  <ele>1582.99</ele>
  <time>2026-09-02T20:50:46Z</time>
  <course>229.13</course>
  <speed>1.0</speed>
  <fix>3d</fix>
</trkpt>
<trkpt lat="40.0714894" lon="-105.2296157">
  <ele>1582.99</ele>
  <time>2026-09-02T20:50:46Z</time>
  <course>229.31</course>
  <speed>0.9924716620639604</speed>
  <fix>3d</fix>
</trkpt>
<trkpt lat="40.07149" lon="-105.2296149">
  <ele>1582.99</ele>
  <time>2026-09-02T20:50:46Z</time>
  <course>229.13</course>
  <speed>1.0</speed>
  <fix>3d</fix>
</trkpt>
<trkpt lat="40.0714889" lon="-105.2296166">
  <ele>1582.99</ele>
  <time>2026-09-02T20:50:46Z</time>
  <course>229.31</course>
  <speed>0.9924716620639604</speed>
  <fix>3d</fix>
</trkpt>
<trkpt lat="40.07149" lon="-105.2296149">
  <ele>1582.99</ele>
  <time>2026-09-02T20:50:46Z</time>
  <course>229.13</course>
  <speed>1.0</speed>
  <fix>3d</fix>
</trkpt>
<trkpt lat="40.0714883" lon="-105.2296176">
  <ele>1582.99</ele>
  <time>2026-09-02T20:50:46Z</time>
  <course>229.31</course>
  <speed>0.9924716620639604</speed>
  <fix>3d</fix>
</trkpt>
<trkpt lat="40.0714888" lon="-105.2296166">
  <ele>1582.99</ele>
  <time>2026-09-02T20:50:46Z</time>
  <course>229.13</course>
  <speed>1.0</speed>
  <fix>3d</fix>
</trkpt>
<trkpt lat="40.0714877" lon="-105.2296185">
  <ele>1582.99</ele>
  <time>2026-09-02T20:50:46Z</time>
  <course>229.3</course>
  <speed>0.9924716620639604</speed>
  <fix>3d</fix>
</trkpt>
<trkpt lat="40.0714888" lon="-105.2296166">
  <ele>1582.99</ele>
  <time>2026-09-02T20:50:46Z</time>
  <course>229.13</course>
  <speed>1.0</speed>
  <fix>3d</fix>
</trkpt>
<trkpt lat="40.0714871" lon="-105.2296193">
  <ele>1582.99</ele>
  <time>2026-09-02T20:50:46Z</time>
  <course>229.3</course>
  <speed>0.9924716620639604</speed>
  <fix>3d</fix>
</trkpt>
<trkpt lat="40.0714877" lon="-105.2296184">
  <ele>1582.99</ele>
  <time>2026-09-02T20:50:46Z</time>
  <course>229.13</course>
  <speed>1.0</speed>
  <fix>3d</fix>
</trkpt>
<trkpt lat="40.0714865" lon="-105.2296202">
  <ele>1582.99</ele>
  <time>2026-09-02T20:50:46Z</time>
  <course>229.3</course>
  <speed>0.9924716620639604</speed>
  <fix>3d</fix>
</trkpt>
<trkpt lat="40.0714877" lon="-105.2296184">
  <ele>1582.99</ele>
  <time>2026-09-02T20:50:46Z</time>
  <course>229.13</course>
  <speed>1.0</speed>
  <fix>3d</fix>
</trkpt>
<trkpt lat="40.0714859" lon="-105.2296212">
  <ele>1582.99</ele>
  <time>2026-09-02T20:50:46Z</time>
  <course>229.3</course>
  <speed>0.9924716620639604</speed>
  <fix>3d</fix>
</trkpt>
<trkpt lat="40.0714865" lon="-105.2296202">
  <ele>1582.99</ele>
  <time>2026-09-02T20:50:46Z</time>
  <course>229.13</course>
  <speed>1.0</speed>
  <fix>3d</fix>
</trkpt>
<trkpt lat="40.0714853" lon="-105.2296219">
  <ele>1582.99</ele>
  <time>2026-09-02T20:50:46Z</time>
  <course>229.3</course>
  <speed>0.9924716620639604</speed>
  <fix>3d</fix>
</trkpt>
<trkpt lat="40.0714865" lon="-105.2296202">
  <ele>1582.99</ele>
  <time>2026-09-02T20:50:46Z</time>
  <course>229.13</course>
  <speed>1.0</speed>
  <fix>3d</fix>
</trkpt>
<trkpt lat="40.0714846" lon="-105.2296231">
  <ele>1582.99</ele>
  <time>2026-09-02T20:50:46Z</time>
  <course>229.3</course>
  <speed>0.9924716620639604</speed>
  <fix>3d</fix>
</trkpt>
<trkpt lat="40.0714853" lon="-105.229622">
  <ele>1582.99</ele>
  <time>2026-09-02T20:50:46Z</time>
  <course>229.13</course>
  <speed>1.0</speed>
  <fix>3d</fix>
</trkpt>
<trkpt lat="40.071484" lon="-105.229624">
  <ele>1582.99</ele>
  <time>2026-09-02T20:50:46Z</time>
  <course>229.3</course>
  <speed>0.9924716620639604</speed>
  <fix>3d</fix>
</trkpt>
<trkpt lat="40.0714853" lon="-105.229622">
  <ele>1582.99</ele>
  <time>2026-09-02T20:50:46Z</time>
  <course>229.13</course>
  <speed>1.0</speed>
  <fix>3d</fix>
</trkpt>
<trkpt lat="40.0714835" lon="-105.2296248">
  <ele>1582.99</ele>
  <time>2026-09-02T20:50:46Z</time>
  <course>229.3</course>
  <speed>0.9924716620639604</speed>
  <fix>3d</fix>
</trkpt>
<trkpt lat="40.0714841" lon="-105.2296238">
  <ele>1582.99</ele>
  <time>2026-09-02T20:50:46Z</time>
  <course>229.13</course>
  <speed>1.0</speed>
  <fix>3d</fix>
</trkpt>
<trkpt lat="40.0714829" lon="-105.2296257">
  <ele>1582.99</ele>
  <time>2026-09-02T20:50:46Z</time>
  <course>229.3</course>
  <speed>0.9924716620639604</speed>
  <fix>3d</fix>
</trkpt>
<trkpt lat="40.0714841" lon="-105.2296238">
  <ele>1582.99</ele>
  <time>2026-09-02T20:50:46Z</time>
  <course>229.13</course>
  <speed>1.0</speed>
  <fix>3d</fix>
</trkpt>
<trkpt lat="40.0714823" lon="-105.2296267">
  <ele>1582.99</ele>
  <time>2026-09-02T20:50:46Z</time>
  <course>229.31</course>
  <speed>0.9924716620639604</speed>
  <fix>3d</fix>
</trkpt>
<trkpt lat="40.071483" lon="-105.2296255">
  <ele>1582.99</ele>
  <time>2026-09-02T20:50:46Z</time>
  <course>229.13</course>
  <speed>0.99</speed>
  <fix>3d</fix>
</trkpt>
<trkpt lat="40.0714817" lon="-105.2296274">
  <ele>1582.99</ele>
  <time>2026-09-02T20:50:46Z</time>
  <course>229.31</course>
  <speed>0.9924716620639604</speed>
  <fix>3d</fix>
</trkpt>
<trkpt lat="40.071483" lon="-105.2296255">
  <ele>1582.99</ele>
  <time>2026-09-02T20:50:46Z</time>
  <course>229.13</course>
  <speed>0.99</speed>
  <fix>3d</fix>
</trkpt>
<trkpt lat="40.0714811" lon="-105.2296284">
  <ele>1582.99</ele>
  <time>2026-09-02T20:50:46Z</time>
  <course>229.3</course>
  <speed>0.9924716620639604</speed>
  <fix>3d</fix>
</trkpt>
<trkpt lat="40.0714818" lon="-105.2296274">
  <ele>1582.99</ele>
  <time>2026-09-02T20:50:46Z</time>
  <course>229.13</course>
  <speed>1.0</speed>
  <fix>3d</fix>
</trkpt>
<trkpt lat="40.0714805" lon="-105.2296293">
  <ele>1582.99</ele>
  <time>2026-09-02T20:50:46Z</time>
  <course>229.3</course>
  <speed>0.9924716620639604</speed>
  <fix>3d</fix>
</trkpt>
<trkpt lat="40.0714818" lon="-105.2296274">
  <ele>1582.99</ele>
  <time>2026-09-02T20:50:46Z</time>
  <course>229.13</course>
  <speed>1.0</speed>
  <fix>3d</fix>
</trkpt>
<trkpt lat="40.0714799" lon="-105.2296301">
  <ele>1582.99</ele>
  <time>2026-09-02T20:50:46Z</time>
  <course>229.3</course>
  <speed>0.9924716620639604</speed>
  <fix>3d</fix>
</trkpt>
<trkpt lat="40.0714806" lon="-105.2296291">
  <ele>1582.99</ele>
  <time>2026-09-02T20:50:46Z</time>
  <course>229.13</course>
  <speed>1.0</speed>
  <fix>3d</fix>
</trkpt>
<trkpt lat="40.0714793" lon="-105.229631">
  <ele>1582.99</ele>
  <time>2026-09-02T20:50:46Z</time>
  <course>229.3</course>
  <speed>0.9924716620639604</speed>
  <fix>3d</fix>
</trkpt>
<trkpt lat="40.0714806" lon="-105.2296291">
  <ele>1582.99</ele>
  <time>2026-09-02T20:50:46Z</time>
  <course>229.13</course>
  <speed>1.0</speed>
  <fix>3d</fix>
</trkpt>
<trkpt lat="40.0714788" lon="-105.229632">
  <ele>1582.99</ele>
  <time>2026-09-02T20:50:46Z</time>
  <course>229.31</course>
  <speed>0.9924716620639604</speed>
  <fix>3d</fix>
</trkpt>
<trkpt lat="40.0714794" lon="-105.2296308">
  <ele>1582.99</ele>
  <time>2026-09-02T20:50:46Z</time>
  <course>229.13</course>
  <speed>1.0</speed>
  <fix>3d</fix>
</trkpt>
<trkpt lat="40.0714782" lon="-105.2296327">
  <ele>1582.99</ele>
  <time>2026-09-02T20:50:46Z</time>
  <course>229.31</course>
  <speed>0.9859513172565875</speed>
  <fix>3d</fix>
</trkpt>
<trkpt lat="40.0714794" lon="-105.2296308">
  <ele>1582.99</ele>
  <time>2026-09-02T20:50:46Z</time>
  <course>229.13</course>
  <speed>1.0</speed>
  <fix>3d</fix>
</trkpt>
<trkpt lat="40.0714776" lon="-105.2296336">
  <ele>1582.99</ele>
  <time>2026-09-02T20:50:46Z</time>
  <course>229.31</course>
  <speed>1.0000499987500624</speed>
  <fix>3d</fix>
</trkpt>
<trkpt lat="40.0714782" lon="-105.2296327">
  <ele>1582.99</ele>
  <time>2026-09-02T20:50:46Z</time>
  <course>229.13</course>
  <speed>1.0</speed>
  <fix>3d</fix>
</trkpt>
<trkpt lat="40.071477" lon="-105.2296344">
  <ele>1582.99</ele>
  <time>2026-09-02T20:50:46Z</time>
  <course>229.31</course>
  <speed>0.9783659846908007</speed>
  <fix>3d</fix>
</trkpt>
<trkpt lat="40.0714782" lon="-105.2296327">
  <ele>1582.99</ele>
  <time>2026-09-02T20:50:46Z</time>
  <course>229.13</course>
  <speed>1.0</speed>
  <fix>3d</fix>
</trkpt>
<trkpt lat="40.0714764" lon="-105.2296353">
  <ele>1582.99</ele>
  <time>2026-09-02T20:50:46Z</time>
  <course>229.31</course>
  <speed>1.0000499987500624</speed>
  <fix>3d</fix>
</trkpt>
<trkpt lat="40.071477" lon="-105.2296345">
  <ele>1582.99</ele>
  <time>2026-09-02T20:50:46Z</time>
  <course>229.14</course>
  <speed>1.0</speed>
  <fix>3d</fix>
</trkpt>
<trkpt lat="40.0714758" lon="-105.2296362">
  <ele>1582.99</ele>
  <time>2026-09-02T20:50:46Z</time>
  <course>229.31</course>
  <speed>0.9783659846908007</speed>
  <fix>3d</fix>
</trkpt>
<trkpt lat="40.071477" lon="-105.2296345">
  <ele>1582.99</ele>
  <time>2026-09-02T20:50:46Z</time>
  <course>229.14</course>
  <speed>1.0</speed>
  <fix>3d</fix>
</trkpt>
<trkpt lat="40.0714752" lon="-105.229637">
  <ele>1582.99</ele>
  <time>2026-09-02T20:50:46Z</time>
  <course>229.31</course>
  <speed>1.0000499987500624</speed>
  <fix>3d</fix>
</trkpt>
<trkpt lat="40.0714758" lon="-105.2296362">
  <ele>1582.99</ele>
  <time>2026-09-02T20:50:46Z</time>
  <course>229.14</course>
  <speed>1.0</speed>
  <fix>3d</fix>
</trkpt>
<trkpt lat="40.0714748" lon="-105.229638">
  <ele>1582.99</ele>
  <time>2026-09-02T20:50:46Z</time>
  <course>229.31</course>
  <speed>0.9783659846908007</speed>
  <fix>3d</fix>
</trkpt>
<trkpt lat="40.0714758" lon="-105.2296362">
  <ele>1582.99</ele>
  <time>2026-09-02T20:50:46Z</time>
  <course>229.14</course>
  <speed>1.0</speed>
  <fix>3d</fix>
</trkpt>
<trkpt lat="40.0714742" lon="-105.2296389">
  <ele>1582.99</ele>
  <time>2026-09-02T20:50:46Z</time>
  <course>229.3</course>
  <speed>1.0000499987500624</speed>
  <fix>3d</fix>
</trkpt>
<trkpt lat="40.0714747" lon="-105.229638">
  <ele>1582.99</ele>
  <time>2026-09-02T20:50:46Z</time>
  <course>229.14</course>
  <speed>1.0</speed>
  <fix>3d</fix>
</trkpt>
<trkpt lat="40.0714736" lon="-105.2296398">
  <ele>1582.99</ele>
  <time>2026-09-02T20:50:46Z</time>
  <course>229.3</course>
  <speed>0.9924716620639604</speed>
  <fix>3d</fix>
</trkpt>
<trkpt lat="40.0714747" lon="-105.229638">
  <ele>1582.99</ele>
  <time>2026-09-02T20:50:46Z</time>
  <course>229.14</course>
  <speed>1.0</speed>
  <fix>3d</fix>
</trkpt>
<trkpt lat="40.071473" lon="-105.2296406">
  <ele>1582.99</ele>
  <time>2026-09-02T20:50:46Z</time>
  <course>229.3</course>
  <speed>1.0000499987500624</speed>
  <fix>3d</fix>
</trkpt>
<trkpt lat="40.0714736" lon="-105.2296398">
  <ele>1582.99</ele>
  <time>2026-09-02T20:50:46Z</time>
  <course>229.13</course>
  <speed>1.0</speed>
  <fix>3d</fix>
</trkpt>
<trkpt lat="40.0714722" lon="-105.2296417">
  <ele>1582.99</ele>
  <time>2026-09-02T20:50:46Z</time>
  <course>229.3</course>
  <speed>0.9924716620639604</speed>
  <fix>3d</fix>
</trkpt>
<trkpt lat="40.0714736" lon="-105.2296398">
  <ele>1582.99</ele>
  <time>2026-09-02T20:50:46Z</time>
  <course>229.13</course>
  <speed>1.0</speed>
  <fix>3d</fix>
</trkpt>
<trkpt lat="40.0714716" lon="-105.2296425">
  <ele>1582.99</ele>
  <time>2026-09-02T20:50:46Z</time>
  <course>229.31</course>
  <speed>1.0000499987500624</speed>
  <fix>3d</fix>
</trkpt>
<trkpt lat="40.0714724" lon="-105.2296415">
  <ele>1582.99</ele>
  <time>2026-09-02T20:50:46Z</time>
  <course>229.13</course>
  <speed>1.0</speed>
  <fix>3d</fix>
</trkpt>
<trkpt lat="40.071471" lon="-105.2296435">
  <ele>1582.99</ele>
  <time>2026-09-02T20:50:46Z</time>
  <course>229.31</course>
  <speed>0.9924716620639604</speed>
  <fix>3d</fix>
</trkpt>
<trkpt lat="40.0714724" lon="-105.2296415">
  <ele>1582.99</ele>
  <time>2026-09-02T20:50:46Z</time>
  <course>229.13</course>
  <speed>1.0</speed>
  <fix>3d</fix>
</trkpt>
<trkpt lat="40.0714704" lon="-105.2296444">
  <ele>1582.99</ele>
  <time>2026-09-02T20:50:46Z</time>
  <course>229.31</course>
  <speed>0.9924716620639604</speed>
  <fix>3d</fix>
</trkpt>
<trkpt lat="40.0714712" lon="-105.2296433">
  <ele>1582.99</ele>
  <time>2026-09-02T20:50:46Z</time>
  <course>229.14</course>
  <speed>1.0</speed>
  <fix>3d</fix>
</trkpt>
<trkpt lat="40.0714698" lon="-105.2296453">
  <ele>1582.99</ele>
  <time>2026-09-02T20:50:46Z</time>
  <course>229.31</course>
  <speed>0.9924716620639604</speed>
  <fix>3d</fix>
</trkpt>
<trkpt lat="40.0714712" lon="-105.2296433">
  <ele>1582.99</ele>
  <time>2026-09-02T20:50:46Z</time>
  <course>229.14</course>
  <speed>1.0</speed>
  <fix>3d</fix>
</trkpt>
<trkpt lat="40.0714694" lon="-105.2296461">
  <ele>1582.99</ele>
  <time>2026-09-02T20:50:46Z</time>
  <course>229.31</course>
  <speed>0.9924716620639604</speed>
  <fix>3d</fix>
</trkpt>
<trkpt lat="40.07147" lon="-105.2296451">
  <ele>1582.99</ele>
  <time>2026-09-02T20:50:46Z</time>
  <course>229.14</course>
  <speed>1.0</speed>
  <fix>3d</fix>
</trkpt>
<trkpt lat="40.0714688" lon="-105.229647">
  <ele>1582.99</ele>
  <time>2026-09-02T20:50:46Z</time>
  <course>229.31</course>
  <speed>0.9924716620639604</speed>
  <fix>3d</fix>
</trkpt>
<trkpt lat="40.07147" lon="-105.2296451">
  <ele>1582.99</ele>
  <time>2026-09-02T20:50:46Z</time>
  <course>229.14</course>
  <speed>1.0</speed>
  <fix>3d</fix>
</trkpt>
<trkpt lat="40.0714682" lon="-105.229648">
  <ele>1582.99</ele>
  <time>2026-09-02T20:50:46Z</time>
  <course>229.31</course>
  <speed>0.9924716620639604</speed>
  <fix>3d</fix>
</trkpt>
<trkpt lat="40.0714689" lon="-105.2296468">
  <ele>1582.99</ele>
  <time>2026-09-02T20:50:46Z</time>
  <course>229.14</course>
  <speed>1.0</speed>
  <fix>3d</fix>
</trkpt>
<trkpt lat="40.0714676" lon="-105.2296487">
  <ele>1582.99</ele>
  <time>2026-09-02T20:50:46Z</time>
  <course>229.31</course>
  <speed>0.9924716620639604</speed>
  <fix>3d</fix>
</trkpt>
<trkpt lat="40.0714689" lon="-105.2296468">
  <ele>1582.99</ele>
  <time>2026-09-02T20:50:46Z</time>
  <course>229.14</course>
  <speed>1.0</speed>
  <fix>3d</fix>
</trkpt>
<trkpt lat="40.071467" lon="-105.2296497">
  <ele>1582.99</ele>
  <time>2026-09-02T20:50:46Z</time>
  <course>229.3</course>
  <speed>0.9924716620639604</speed>
  <fix>3d</fix>
</trkpt>
<trkpt lat="40.0714677" lon="-105.2296487">
  <ele>1582.99</ele>
  <time>2026-09-02T20:50:46Z</time>
  <course>229.14</course>
  <speed>1.0</speed>
  <fix>3d</fix>
</trkpt>
<trkpt lat="40.0714664" lon="-105.2296506">
  <ele>1582.99</ele>
  <time>2026-09-02T20:50:46Z</time>
  <course>229.31</course>
  <speed>0.9924716620639604</speed>
  <fix>3d</fix>
</trkpt>
<trkpt lat="40.0714677" lon="-105.2296487">
  <ele>1582.99</ele>
  <time>2026-09-02T20:50:46Z</time>
  <course>229.14</course>
  <speed>1.0</speed>
  <fix>3d</fix>
</trkpt>
<trkpt lat="40.0714659" lon="-105.2296513">
  <ele>1582.99</ele>
  <time>2026-09-02T20:50:46Z</time>
  <course>229.31</course>
  <speed>0.9924716620639604</speed>
  <fix>3d</fix>
</trkpt>
<trkpt lat="40.0714665" lon="-105.2296504">
  <ele>1582.99</ele>
  <time>2026-09-02T20:50:46Z</time>
  <course>229.13</course>
  <speed>1.0</speed>
  <fix>3d</fix>
</trkpt>
<trkpt lat="40.0714654" lon="-105.2296521">
  <ele>1582.99</ele>
  <time>2026-09-02T20:50:46Z</time>
  <course>229.31</course>
  <speed>0.9924716620639604</speed>
  <fix>3d</fix>
</trkpt>
<trkpt lat="40.0714665" lon="-105.2296504">
  <ele>1582.99</ele>
  <time>2026-09-02T20:50:46Z</time>
  <course>229.13</course>
  <speed>1.0</speed>
  <fix>3d</fix>
</trkpt>
<trkpt lat="40.0714648" lon="-105.229653">
  <ele>1582.99</ele>
  <time>2026-09-02T20:50:46Z</time>
  <course>229.31</course>
  <speed>0.9924716620639604</speed>
  <fix>3d</fix>
</trkpt>
<trkpt lat="40.0714653" lon="-105.2296522">
  <ele>1582.99</ele>
  <time>2026-09-02T20:50:46Z</time>
  <course>229.14</course>
  <speed>1.0</speed>
  <fix>3d</fix>
</trkpt>
<trkpt lat="40.0714642" lon="-105.229654">
  <ele>1582.99</ele>
  <time>2026-09-02T20:50:46Z</time>
  <course>229.31</course>
  <speed>0.9924716620639604</speed>
  <fix>3d</fix>
</trkpt>
<trkpt lat="40.0714653" lon="-105.2296522">
  <ele>1582.99</ele>
  <time>2026-09-02T20:50:46Z</time>
  <course>229.14</course>
  <speed>1.0</speed>
  <fix>3d</fix>
</trkpt>
<trkpt lat="40.0714636" lon="-105.2296549">
  <ele>1582.99</ele>
  <time>2026-09-02T20:50:46Z</time>
  <course>229.31</course>
  <speed>0.9924716620639604</speed>
  <fix>3d</fix>
</trkpt>
<trkpt lat="40.0714642" lon="-105.229654">
  <ele>1582.99</ele>
  <time>2026-09-02T20:50:46Z</time>
  <course>229.14</course>
  <speed>0.99</speed>
  <fix>3d</fix>
</trkpt>
<trkpt lat="40.071463" lon="-105.2296557">
  <ele>1582.99</ele>
  <time>2026-09-02T20:50:46Z</time>
  <course>229.31</course>
  <speed>0.9924716620639604</speed>
  <fix>3d</fix>
</trkpt>
<trkpt lat="40.0714642" lon="-105.229654">
  <ele>1582.99</ele>
  <time>2026-09-02T20:50:46Z</time>
  <course>229.14</course>
  <speed>0.99</speed>
  <fix>3d</fix>
</trkpt>
<trkpt lat="40.0714624" lon="-105.2296566">
  <ele>1582.99</ele>
  <time>2026-09-02T20:50:46Z</time>
  <course>229.31</course>
  <speed>0.9924716620639604</speed>
  <fix>3d</fix>
</trkpt>
<trkpt lat="40.071463" lon="-105.2296557">
  <ele>1582.99</ele>
  <time>2026-09-02T20:50:46Z</time>
  <course>229.14</course>
  <speed>0.99</speed>
  <fix>3d</fix>
</trkpt>
<trkpt lat="40.0714618" lon="-105.2296575">
  <ele>1582.99</ele>
  <time>2026-09-02T20:50:46Z</time>
  <course>229.31</course>
  <speed>0.9924716620639604</speed>
  <fix>3d</fix>
</trkpt>
<trkpt lat="40.071463" lon="-105.2296557">
  <ele>1582.99</ele>
  <time>2026-09-02T20:50:46Z</time>
  <course>229.14</course>
  <speed>0.99</speed>
  <fix>3d</fix>
</trkpt>
<trkpt lat="40.0714612" lon="-105.2296583">
  <ele>1582.99</ele>
  <time>2026-09-02T20:50:46Z</time>
  <course>229.31</course>
  <speed>0.9924716620639604</speed>
  <fix>3d</fix>
</trkpt>
<trkpt lat="40.0714618" lon="-105.2296575">
  <ele>1582.99</ele>
  <time>2026-09-02T20:50:46Z</time>
  <course>229.14</course>
  <speed>0.99</speed>
  <fix>3d</fix>
</trkpt>
<trkpt lat="40.0714606" lon="-105.2296593">
  <ele>1582.99</ele>
  <time>2026-09-02T20:50:46Z</time>
  <course>229.31</course>
  <speed>0.9924716620639604</speed>
  <fix>3d</fix>
</trkpt>
<trkpt lat="40.0714618" lon="-105.2296575">
  <ele>1582.99</ele>
  <time>2026-09-02T20:50:46Z</time>
  <course>229.14</course>
  <speed>0.99</speed>
  <fix>3d</fix>
</trkpt>
<trkpt lat="40.0714599" lon="-105.2296604">
  <ele>1582.99</ele>
  <time>2026-09-02T20:50:46Z</time>
  <course>229.31</course>
  <speed>0.9924716620639604</speed>
  <fix>3d</fix>
</trkpt>
<trkpt lat="40.0714606" lon="-105.2296593">
  <ele>1582.99</ele>
  <time>2026-09-02T20:50:46Z</time>
  <course>229.14</course>
  <speed>0.99</speed>
  <fix>3d</fix>
</trkpt>
<trkpt lat="40.0714593" lon="-105.2296612">
  <ele>1582.99</ele>
  <time>2026-09-02T20:50:46Z</time>
  <course>229.31</course>
  <speed>1.0000499987500624</speed>
  <fix>3d</fix>
</trkpt>
<trkpt lat="40.0714606" lon="-105.2296593">
  <ele>1582.99</ele>
  <time>2026-09-02T20:50:46Z</time>
  <course>229.14</course>
  <speed>0.99</speed>
  <fix>3d</fix>
</trkpt>
<trkpt lat="40.0714587" lon="-105.2296621">
  <ele>1582.99</ele>
  <time>2026-09-02T20:50:46Z</time>
  <course>229.32</course>
  <speed>0.9859513172565875</speed>
  <fix>3d</fix>
</trkpt>
<trkpt lat="40.0714594" lon="-105.229661">
  <ele>1582.99</ele>
  <time>2026-09-02T20:50:46Z</time>
  <course>229.14</course>
  <speed>0.99</speed>
  <fix>3d</fix>
</trkpt>
<trkpt lat="40.0714581" lon="-105.2296631">
  <ele>1582.99</ele>
  <time>2026-09-02T20:50:46Z</time>
  <course>229.32</course>
  <speed>1.0000499987500624</speed>
  <fix>3d</fix>
</trkpt>
<trkpt lat="40.0714594" lon="-105.229661">
  <ele>1582.99</ele>
  <time>2026-09-02T20:50:46Z</time>
  <course>229.14</course>
  <speed>0.99</speed>
  <fix>3d</fix>
</trkpt>
<trkpt lat="40.0714575" lon="-105.2296638">
  <ele>1582.99</ele>
  <time>2026-09-02T20:50:46Z</time>
  <course>229.32</course>
  <speed>0.9924716620639604</speed>
  <fix>3d</fix>
</trkpt>
<trkpt lat="40.0714582" lon="-105.2296628">
  <ele>1582.99</ele>
  <time>2026-09-02T20:50:46Z</time>
  <course>229.14</course>
  <speed>0.99</speed>
  <fix>3d</fix>
</trkpt>
<trkpt lat="40.0714569" lon="-105.2296648">
  <ele>1582.99</ele>
  <time>2026-09-02T20:50:46Z</time>
  <course>229.32</course>
  <speed>0.9924716620639604</speed>
  <fix>3d</fix>
</trkpt>
<trkpt lat="40.0714582" lon="-105.2296628">
  <ele>1582.99</ele>
  <time>2026-09-02T20:50:46Z</time>
  <course>229.14</course>
  <speed>0.99</speed>
  <fix>3d</fix>
</trkpt>
<trkpt lat="40.0714563" lon="-105.2296657">
  <ele>1582.99</ele>
  <time>2026-09-02T20:50:46Z</time>
  <course>229.32</course>
  <speed>0.9924716620639604</speed>
  <fix>3d</fix>
</trkpt>
<trkpt lat="40.071457" lon="-105.2296646">
  <ele>1582.99</ele>
  <time>2026-09-02T20:50:46Z</time>
  <course>229.14</course>
  <speed>0.99</speed>
  <fix>3d</fix>
</trkpt>
<trkpt lat="40.0714557" lon="-105.2296666">
  <ele>1582.99</ele>
  <time>2026-09-02T20:50:46Z</time>
  <course>229.32</course>
  <speed>0.9924716620639604</speed>
  <fix>3d</fix>
</trkpt>
<trkpt lat="40.071457" lon="-105.2296646">
  <ele>1582.99</ele>
  <time>2026-09-02T20:50:46Z</time>
  <course>229.14</course>
  <speed>0.99</speed>
  <fix>3d</fix>
</trkpt>
<trkpt lat="40.0714552" lon="-105.2296674">
  <ele>1582.99</ele>
  <time>2026-09-02T20:50:46Z</time>
  <course>229.31</course>
  <speed>0.9924716620639604</speed>
  <fix>3d</fix>
</trkpt>
<trkpt lat="40.0714559" lon="-105.2296663">
  <ele>1582.99</ele>
  <time>2026-09-02T20:50:46Z</time>
  <course>229.14</course>
  <speed>0.99</speed>
  <fix>3d</fix>
</trkpt>
<trkpt lat="40.0714546" lon="-105.2296684">
  <ele>1582.99</ele>
  <time>2026-09-02T20:50:46Z</time>
  <course>229.31</course>
  <speed>0.9924716620639604</speed>
  <fix>3d</fix>
</trkpt>
<trkpt lat="40.0714559" lon="-105.2296663">
  <ele>1582.99</ele>
  <time>2026-09-02T20:50:46Z</time>
  <course>229.14</course>
  <speed>0.99</speed>
  <fix>3d</fix>
</trkpt>
<trkpt lat="40.071454" lon="-105.2296693">
  <ele>1582.99</ele>
  <time>2026-09-02T20:50:46Z</time>
  <course>229.31</course>
  <speed>0.9924716620639604</speed>
  <fix>3d</fix>
</trkpt>
<trkpt lat="40.0714548" lon="-105.2296681">
  <ele>1582.99</ele>
  <time>2026-09-02T20:50:46Z</time>
  <course>229.14</course>
  <speed>0.99</speed>
  <fix>3d</fix>
</trkpt>
<trkpt lat="40.0714536" lon="-105.22967">
  <ele>1582.99</ele>
  <time>2026-09-02T20:50:46Z</time>
  <course>229.31</course>
  <speed>1.0000499987500624</speed>
  <fix>3d</fix>
</trkpt>
<trkpt lat="40.0714548" lon="-105.2296681">
  <ele>1582.99</ele>
  <time>2026-09-02T20:50:46Z</time>
  <course>229.14</course>
  <speed>0.99</speed>
  <fix>3d</fix>
</trkpt>
<trkpt lat="40.071453" lon="-105.2296709">
  <ele>1582.99</ele>
  <time>2026-09-02T20:50:46Z</time>
  <course>229.31</course>
  <speed>0.9924716620639604</speed>
  <fix>3d</fix>
</trkpt>
<trkpt lat="40.0714536" lon="-105.22967">
  <ele>1582.99</ele>
  <time>2026-09-02T20:50:46Z</time>
  <course>229.14</course>
  <speed>0.99</speed>
  <fix>3d</fix>
</trkpt>
<trkpt lat="40.0714524" lon="-105.2296717">
  <ele>1582.99</ele>
  <time>2026-09-02T20:50:46Z</time>
  <course>229.31</course>
  <speed>1.0000499987500624</speed>
  <fix>3d</fix>
</trkpt>
<trkpt lat="40.0714536" lon="-105.22967">
  <ele>1582.99</ele>
  <time>2026-09-02T20:50:46Z</time>
  <course>229.14</course>
  <speed>0.99</speed>
  <fix>3d</fix>
</trkpt>
<trkpt lat="40.0714518" lon="-105.2296726">
  <ele>1582.99</ele>
  <time>2026-09-02T20:50:46Z</time>
  <course>229.31</course>
  <speed>0.9924716620639604</speed>
  <fix>3d</fix>
</trkpt>
<trkpt lat="40.0714524" lon="-105.2296717">
  <ele>1582.99</ele>
  <time>2026-09-02T20:50:46Z</time>
  <course>229.14</course>
  <speed>0.99</speed>
  <fix>3d</fix>
</trkpt>
<trkpt lat="40.0714513" lon="-105.2296734">
  <ele>1582.99</ele>
  <time>2026-09-02T20:50:46Z</time>
  <course>229.31</course>
  <speed>0.9924716620639604</speed>
  <fix>3d</fix>
</trkpt>
<trkpt lat="40.0714524" lon="-105.2296717">
  <ele>1582.99</ele>
  <time>2026-09-02T20:50:46Z</time>
  <course>229.14</course>
  <speed>0.99</speed>
  <fix>3d</fix>
</trkpt>
<trkpt lat="40.0714507" lon="-105.2296743">
  <ele>1582.99</ele>
  <time>2026-09-02T20:50:46Z</time>
  <course>229.31</course>
  <speed>0.9924716620639604</speed>
  <fix>3d</fix>
</trkpt>
<trkpt lat="40.0714512" lon="-105.2296734">
  <ele>1582.99</ele>
  <time>2026-09-02T20:50:46Z</time>
  <course>229.14</course>
  <speed>0.99</speed>
  <fix>3d</fix>
</trkpt>
<trkpt lat="40.0714501" lon="-105.2296753">
  <ele>1582.99</ele>
  <time>2026-09-02T20:50:46Z</time>
  <course>229.31</course>
  <speed>0.9924716620639604</speed>
  <fix>3d</fix>
</trkpt>
<trkpt lat="40.0714512" lon="-105.2296734">
  <ele>1582.99</ele>
  <time>2026-09-02T20:50:46Z</time>
  <course>229.14</course>
  <speed>0.99</speed>
  <fix>3d</fix>
</trkpt>
<trkpt lat="40.0714495" lon="-105.2296762">
  <ele>1582.99</ele>
  <time>2026-09-02T20:50:46Z</time>
  <course>229.31</course>
  <speed>0.9924716620639604</speed>
  <fix>3d</fix>
</trkpt>
<trkpt lat="40.0714501" lon="-105.2296753">
  <ele>1582.99</ele>
  <time>2026-09-02T20:50:46Z</time>
  <course>229.14</course>
  <speed>1.0</speed>
  <fix>3d</fix>
</trkpt>
<trkpt lat="40.0714489" lon="-105.229677">
  <ele>1582.99</ele>
  <time>2026-09-02T20:50:46Z</time>
  <course>229.31</course>
  <speed>0.9924716620639604</speed>
  <fix>3d</fix>
</trkpt>
<trkpt lat="40.0714501" lon="-105.2296753">
  <ele>1582.99</ele>
  <time>2026-09-02T20:50:46Z</time>
  <course>229.14</course>
  <speed>1.0</speed>
  <fix>3d</fix>
</trkpt>
<trkpt lat="40.0714482" lon="-105.2296781">
  <ele>1582.99</ele>
  <time>2026-09-02T20:50:46Z</time>
  <course>229.31</course>
  <speed>1.0000499987500624</speed>
  <fix>3d</fix>
</trkpt>
<trkpt lat="40.0714489" lon="-105.2296771">
  <ele>1582.99</ele>
  <time>2026-09-02T20:50:46Z</time>
  <course>229.14</course>
  <speed>1.0</speed>
  <fix>3d</fix>
</trkpt>
<trkpt lat="40.0714476" lon="-105.2296789">
  <ele>1582.99</ele>
  <time>2026-09-02T20:50:46Z</time>
  <course>229.31</course>
  <speed>0.9924716620639604</speed>
  <fix>3d</fix>
</trkpt>
<trkpt lat="40.0714489" lon="-105.2296771">
  <ele>1582.99</ele>
  <time>2026-09-02T20:50:46Z</time>
  <course>229.14</course>
  <speed>1.0</speed>
  <fix>3d</fix>
</trkpt>
<trkpt lat="40.071447" lon="-105.2296798">
  <ele>1582.99</ele>
  <time>2026-09-02T20:50:46Z</time>
  <course>229.31</course>
  <speed>1.0000499987500624</speed>
  <fix>3d</fix>
</trkpt>
<trkpt lat="40.0714477" lon="-105.2296788">
  <ele>1582.99</ele>
  <time>2026-09-02T20:50:46Z</time>
  <course>229.14</course>
  <speed>1.0</speed>
  <fix>3d</fix>
</trkpt>
<trkpt lat="40.0714464" lon="-105.2296808">
  <ele>1582.99</ele>
  <time>2026-09-02T20:50:46Z</time>
  <course>229.31</course>
  <speed>0.9924716620639604</speed>
  <fix>3d</fix>
</trkpt>
<trkpt lat="40.0714477" lon="-105.2296788">
  <ele>1582.99</ele>
  <time>2026-09-02T20:50:46Z</time>
  <course>229.14</course>
  <speed>1.0</speed>
  <fix>3d</fix>
</trkpt>
<trkpt lat="40.0714458" lon="-105.2296817">
  <ele>1582.99</ele>
  <time>2026-09-02T20:50:46Z</time>
  <course>229.31</course>
  <speed>1.0000499987500624</speed>
  <fix>3d</fix>
</trkpt>
<trkpt lat="40.0714465" lon="-105.2296806">
  <ele>1582.99</ele>
  <time>2026-09-02T20:50:46Z</time>
  <course>229.14</course>
  <speed>1.0</speed>
  <fix>3d</fix>
</trkpt>
<trkpt lat="40.0714453" lon="-105.2296825">
  <ele>1582.99</ele>
  <time>2026-09-02T20:50:46Z</time>
  <course>229.31</course>
  <speed>0.9924716620639604</speed>
  <fix>3d</fix>
</trkpt>
<trkpt lat="40.0714465" lon="-105.2296806">
  <ele>1582.99</ele>
  <time>2026-09-02T20:50:46Z</time>
  <course>229.14</course>
  <speed>1.0</speed>
  <fix>3d</fix>
</trkpt>
<trkpt lat="40.0714447" lon="-105.2296834">
  <ele>1582.99</ele>
  <time>2026-09-02T20:50:46Z</time>
  <course>229.31</course>
  <speed>0.9924716620639604</speed>
  <fix>3d</fix>
</trkpt>
<trkpt lat="40.0714454" lon="-105.2296824">
  <ele>1582.99</ele>
  <time>2026-09-02T20:50:46Z</time>
  <course>229.14</course>
  <speed>1.0</speed>
  <fix>3d</fix>
</trkpt>
<trkpt lat="40.0714441" lon="-105.2296844">
  <ele>1582.99</ele>
  <time>2026-09-02T20:50:46Z</time>
  <course>229.31</course>
  <speed>0.9924716620639604</speed>
  <fix>3d</fix>
</trkpt>
<trkpt lat="40.0714454" lon="-105.2296824">
  <ele>1582.99</ele>
  <time>2026-09-02T20:50:46Z</time>
  <course>229.14</course>
  <speed>1.0</speed>
  <fix>3d</fix>
</trkpt>
<trkpt lat="40.0714435" lon="-105.2296851">
  <ele>1582.99</ele>
  <time>2026-09-02T20:50:46Z</time>
  <course>229.31</course>
  <speed>1.0000499987500624</speed>
  <fix>3d</fix>
</trkpt>
<trkpt lat="40.0714441" lon="-105.2296842">
  <ele>1582.99</ele>
  <time>2026-09-02T20:50:46Z</time>
  <course>229.14</course>
  <speed>1.0</speed>
  <fix>3d</fix>
</trkpt>
<trkpt lat="40.0714429" lon="-105.2296861">
  <ele>1582.99</ele>
  <time>2026-09-02T20:50:46Z</time>
  <course>229.31</course>
  <speed>0.9924716620639604</speed>
  <fix>3d</fix>
</trkpt>
<trkpt lat="40.0714441" lon="-105.2296842">
  <ele>1582.99</ele>
  <time>2026-09-02T20:50:46Z</time>
  <course>229.14</course>
  <speed>1.0</speed>
  <fix>3d</fix>
</trkpt>
<trkpt lat="40.0714423" lon="-105.229687">
  <ele>1582.99</ele>
  <time>2026-09-02T20:50:46Z</time>
  <course>229.31</course>
  <speed>0.9924716620639604</speed>
  <fix>3d</fix>
</trkpt>
<trkpt lat="40.0714429" lon="-105.2296859">
  <ele>1582.99</ele>
  <time>2026-09-02T20:50:46Z</time>
  <course>229.14</course>
  <speed>1.0</speed>
  <fix>3d</fix>
</trkpt>
<trkpt lat="40.0714417" lon="-105.2296879">
  <ele>1582.99</ele>
  <time>2026-09-02T20:50:46Z</time>
  <course>229.3</course>
  <speed>0.9924716620639604</speed>
  <fix>3d</fix>
</trkpt>
<trkpt lat="40.0714429" lon="-105.2296859">
  <ele>1582.99</ele>
  <time>2026-09-02T20:50:46Z</time>
  <course>229.14</course>
  <speed>1.0</speed>
  <fix>3d</fix>
</trkpt>
<trkpt lat="40.0714412" lon="-105.2296885">
  <ele>1582.99</ele>
  <time>2026-09-02T20:50:46Z</time>
  <course>229.3</course>
  <speed>0.9924716620639604</speed>
  <fix>3d</fix>
</trkpt>
<trkpt lat="40.0714418" lon="-105.2296877">
  <ele>1582.99</ele>
  <time>2026-09-02T20:50:46Z</time>
  <course>229.13</course>
  <speed>1.0</speed>
  <fix>3d</fix>
</trkpt>
<trkpt lat="40.0714406" lon="-105.2296894">
  <ele>1582.99</ele>
  <time>2026-09-02T20:50:46Z</time>
  <course>229.3</course>
  <speed>0.9924716620639604</speed>
  <fix>3d</fix>
</trkpt>
<trkpt lat="40.0714418" lon="-105.2296877">
  <ele>1582.99</ele>
  <time>2026-09-02T20:50:46Z</time>
  <course>229.13</course>
  <speed>1.0</speed>
  <fix>3d</fix>
</trkpt>
<trkpt lat="40.07144" lon="-105.2296904">
  <ele>1582.99</ele>
  <time>2026-09-02T20:50:47Z</time>
  <course>229.3</course>
  <speed>1.0000499987500624</speed>
  <fix>3d</fix>
</trkpt>
<trkpt lat="40.0714406" lon="-105.2296894">
  <ele>1582.99</ele>
  <time>2026-09-02T20:50:47Z</time>
  <course>229.13</course>
  <speed>1.0</speed>
  <fix>3d</fix>
</trkpt>
<trkpt lat="40.0714394" lon="-105.2296913">
  <ele>1582.99</ele>
  <time>2026-09-02T20:50:47Z</time>
  <course>229.3</course>
  <speed>0.9924716620639604</speed>
  <fix>3d</fix>
</trkpt>
<trkpt lat="40.0714406" lon="-105.2296894">
  <ele>1582.99</ele>
  <time>2026-09-02T20:50:47Z</time>
  <course>229.13</course>
  <speed>1.0</speed>
  <fix>3d</fix>
</trkpt>
<trkpt lat="40.0714388" lon="-105.2296921">
  <ele>1582.99</ele>
  <time>2026-09-02T20:50:47Z</time>
  <course>229.3</course>
  <speed>1.0000499987500624</speed>
  <fix>3d</fix>
</trkpt>
<trkpt lat="40.0714394" lon="-105.2296912">
  <ele>1582.99</ele>
  <time>2026-09-02T20:50:47Z</time>
  <course>229.13</course>
  <speed>1.0</speed>
  <fix>3d</fix>
</trkpt>
<trkpt lat="40.0714382" lon="-105.229693">
  <ele>1582.99</ele>
  <time>2026-09-02T20:50:47Z</time>
  <course>229.3</course>
  <speed>0.9924716620639604</speed>
  <fix>3d</fix>
</trkpt>
<trkpt lat="40.0714394" lon="-105.2296912">
  <ele>1582.99</ele>
  <time>2026-09-02T20:50:47Z</time>
  <course>229.13</course>
  <speed>1.0</speed>
  <fix>3d</fix>
</trkpt>
<trkpt lat="40.0714377" lon="-105.2296939">
  <ele>1582.99</ele>
  <time>2026-09-02T20:50:47Z</time>
  <course>229.31</course>
  <speed>1.0000499987500624</speed>
  <fix>3d</fix>
</trkpt>
<trkpt lat="40.0714382" lon="-105.229693">
  <ele>1582.99</ele>
  <time>2026-09-02T20:50:47Z</time>
  <course>229.13</course>
  <speed>1.0</speed>
  <fix>3d</fix>
</trkpt>
<trkpt lat="40.0714372" lon="-105.2296947">
  <ele>1582.99</ele>
  <time>2026-09-02T20:50:47Z</time>
  <course>229.31</course>
  <speed>0.9924716620639604</speed>
  <fix>3d</fix>
</trkpt>
<trkpt lat="40.0714382" lon="-105.229693">
  <ele>1582.99</ele>
  <time>2026-09-02T20:50:47Z</time>
  <course>229.13</course>
  <speed>1.0</speed>
  <fix>3d</fix>
</trkpt>
<trkpt lat="40.0714366" lon="-105.2296956">
  <ele>1582.99</ele>
  <time>2026-09-02T20:50:47Z</time>
  <course>229.31</course>
  <speed>0.9924716620639604</speed>
  <fix>3d</fix>
</trkpt>
<trkpt lat="40.0714371" lon="-105.2296948">
  <ele>1582.99</ele>
  <time>2026-09-02T20:50:47Z</time>
  <course>229.14</course>
  <speed>1.0</speed>
  <fix>3d</fix>
</trkpt>
<trkpt lat="40.0714359" lon="-105.2296968">
  <ele>1582.99</ele>
  <time>2026-09-02T20:50:47Z</time>
  <course>229.31</course>
  <speed>0.9924716620639604</speed>
  <fix>3d</fix>
</trkpt>
<trkpt lat="40.0714371" lon="-105.2296948">
  <ele>1582.99</ele>
  <time>2026-09-02T20:50:47Z</time>
  <course>229.14</course>
  <speed>1.0</speed>
  <fix>3d</fix>
</trkpt>
<trkpt lat="40.0714353" lon="-105.2296976">
  <ele>1582.99</ele>
  <time>2026-09-02T20:50:47Z</time>
  <course>229.31</course>
  <speed>0.9924716620639604</speed>
  <fix>3d</fix>
</trkpt>
<trkpt lat="40.071436" lon="-105.2296966">
  <ele>1582.99</ele>
  <time>2026-09-02T20:50:47Z</time>
  <course>229.14</course>
  <speed>1.0</speed>
  <fix>3d</fix>
</trkpt>
<trkpt lat="40.0714347" lon="-105.2296985">
  <ele>1582.99</ele>
  <time>2026-09-02T20:50:47Z</time>
  <course>229.31</course>
  <speed>0.9924716620639604</speed>
  <fix>3d</fix>
</trkpt>
<trkpt lat="40.071436" lon="-105.2296966">
  <ele>1582.99</ele>
  <time>2026-09-02T20:50:47Z</time>
  <course>229.14</course>
  <speed>1.0</speed>
  <fix>3d</fix>
</trkpt>
<trkpt lat="40.0714341" lon="-105.2296995">
  <ele>1582.99</ele>
  <time>2026-09-02T20:50:47Z</time>
  <course>229.31</course>
  <speed>0.9924716620639604</speed>
  <fix>3d</fix>
</trkpt>
<trkpt lat="40.0714348" lon="-105.2296983">
  <ele>1582.99</ele>
  <time>2026-09-02T20:50:47Z</time>
  <course>229.13</course>
  <speed>1.0</speed>
  <fix>3d</fix>
</trkpt>
<trkpt lat="40.0714335" lon="-105.2297002">
  <ele>1582.99</ele>
  <time>2026-09-02T20:50:47Z</time>
  <course>229.31</course>
  <speed>0.9924716620639604</speed>
  <fix>3d</fix>
</trkpt>
<trkpt lat="40.0714348" lon="-105.2296983">
  <ele>1582.99</ele>
  <time>2026-09-02T20:50:47Z</time>
  <course>229.13</course>
  <speed>1.0</speed>
  <fix>3d</fix>
</trkpt>
<trkpt lat="40.0714329" lon="-105.2297011">
  <ele>1582.99</ele>
  <time>2026-09-02T20:50:47Z</time>
  <course>229.31</course>
  <speed>0.9924716620639604</speed>
  <fix>3d</fix>
</trkpt>
<trkpt lat="40.0714336" lon="-105.2297002">
  <ele>1582.99</ele>
  <time>2026-09-02T20:50:47Z</time>
  <course>229.13</course>
  <speed>0.99</speed>
  <fix>3d</fix>
</trkpt>
<trkpt lat="40.0714323" lon="-105.2297021">
  <ele>1582.99</ele>
  <time>2026-09-02T20:50:47Z</time>
  <course>229.31</course>
  <speed>1.0000499987500624</speed>
  <fix>3d</fix>
</trkpt>
<trkpt lat="40.0714336" lon="-105.2297002">
  <ele>1582.99</ele>
  <time>2026-09-02T20:50:47Z</time>
  <course>229.13</course>
  <speed>0.99</speed>
  <fix>3d</fix>
</trkpt>
<trkpt lat="40.0714317" lon="-105.229703">
  <ele>1582.99</ele>
  <time>2026-09-02T20:50:47Z</time>
  <course>229.3</course>
  <speed>0.9859513172565875</speed>
  <fix>3d</fix>
</trkpt>
<trkpt lat="40.0714324" lon="-105.2297019">
  <ele>1582.99</ele>
  <time>2026-09-02T20:50:47Z</time>
  <course>229.13</course>
  <speed>0.99</speed>
  <fix>3d</fix>
</trkpt>
<trkpt lat="40.0714312" lon="-105.2297038">
  <ele>1582.99</ele>
  <time>2026-09-02T20:50:47Z</time>
  <course>229.3</course>
  <speed>1.0000499987500624</speed>
  <fix>3d</fix>
</trkpt>
<trkpt lat="40.0714324" lon="-105.2297019">
  <ele>1582.99</ele>
  <time>2026-09-02T20:50:47Z</time>
  <course>229.13</course>
  <speed>0.99</speed>
  <fix>3d</fix>
</trkpt>
<trkpt lat="40.0714306" lon="-105.2297047">
  <ele>1582.99</ele>
  <time>2026-09-02T20:50:47Z</time>
  <course>229.3</course>
  <speed>0.9859513172565875</speed>
  <fix>3d</fix>
</trkpt>
<trkpt lat="40.0714313" lon="-105.2297036">
  <ele>1582.99</ele>
  <time>2026-09-02T20:50:47Z</time>
  <course>229.13</course>
  <speed>0.99</speed>
  <fix>3d</fix>
</trkpt>
<trkpt lat="40.07143" lon="-105.2297057">
  <ele>1582.99</ele>
  <time>2026-09-02T20:50:47Z</time>
  <course>229.31</course>
  <speed>1.0000499987500624</speed>
  <fix>3d</fix>
</trkpt>
<trkpt lat="40.0714313" lon="-105.2297036">
  <ele>1582.99</ele>
  <time>2026-09-02T20:50:47Z</time>
  <course>229.13</course>
  <speed>0.99</speed>
  <fix>3d</fix>
</trkpt>
<trkpt lat="40.0714295" lon="-105.2297064">
  <ele>1582.99</ele>
  <time>2026-09-02T20:50:47Z</time>
  <course>229.31</course>
  <speed>0.9924716620639604</speed>
  <fix>3d</fix>
</trkpt>
<trkpt lat="40.0714301" lon="-105.2297055">
  <ele>1582.99</ele>
  <time>2026-09-02T20:50:47Z</time>
  <course>229.13</course>
  <speed>0.99</speed>
  <fix>3d</fix>
</trkpt>
<trkpt lat="40.0714289" lon="-105.2297073">
  <ele>1582.99</ele>
  <time>2026-09-02T20:50:47Z</time>
  <course>229.31</course>
  <speed>1.0000499987500624</speed>
  <fix>3d</fix>
</trkpt>
<trkpt lat="40.0714301" lon="-105.2297055">
  <ele>1582.99</ele>
  <time>2026-09-02T20:50:47Z</time>
  <course>229.13</course>
  <speed>0.99</speed>
  <fix>3d</fix>
</trkpt>
<trkpt lat="40.0714283" lon="-105.2297081">
  <ele>1582.99</ele>
  <time>2026-09-02T20:50:47Z</time>
  <course>229.3</course>
  <speed>0.9859513172565875</speed>
  <fix>3d</fix>
</trkpt>
<trkpt lat="40.0714289" lon="-105.2297073">
  <ele>1582.99</ele>
  <time>2026-09-02T20:50:47Z</time>
  <course>229.14</course>
  <speed>0.99</speed>
  <fix>3d</fix>
</trkpt>
<trkpt lat="40.0714277" lon="-105.229709">
  <ele>1582.99</ele>
  <time>2026-09-02T20:50:47Z</time>
  <course>229.3</course>
  <speed>1.0000499987500624</speed>
  <fix>3d</fix>
</trkpt>
<trkpt lat="40.0714289" lon="-105.2297073">
  <ele>1582.99</ele>
  <time>2026-09-02T20:50:47Z</time>
  <course>229.14</course>
  <speed>0.99</speed>
  <fix>3d</fix>
</trkpt>
<trkpt lat="40.0714271" lon="-105.2297098">
  <ele>1582.99</ele>
  <time>2026-09-02T20:50:47Z</time>
  <course>229.3</course>
  <speed>0.9924716620639604</speed>
  <fix>3d</fix>
</trkpt>
<trkpt lat="40.0714277" lon="-105.229709">
  <ele>1582.99</ele>
  <time>2026-09-02T20:50:47Z</time>
  <course>229.13</course>
  <speed>0.99</speed>
  <fix>3d</fix>
</trkpt>
<trkpt lat="40.0714265" lon="-105.2297107">
  <ele>1582.99</ele>
  <time>2026-09-02T20:50:47Z</time>
  <course>229.3</course>
  <speed>1.0000499987500624</speed>
  <fix>3d</fix>
</trkpt>
<trkpt lat="40.0714277" lon="-105.229709">
  <ele>1582.99</ele>
  <time>2026-09-02T20:50:47Z</time>
  <course>229.13</course>
  <speed>0.99</speed>
  <fix>3d</fix>
</trkpt>
<trkpt lat="40.0714259" lon="-105.2297117">
  <ele>1582.99</ele>
  <time>2026-09-02T20:50:47Z</time>
  <course>229.31</course>
  <speed>0.9924716620639604</speed>
  <fix>3d</fix>
</trkpt>
<trkpt lat="40.0714265" lon="-105.2297107">
  <ele>1582.99</ele>
  <time>2026-09-02T20:50:47Z</time>
  <course>229.13</course>
  <speed>0.99</speed>
  <fix>3d</fix>
</trkpt>
<trkpt lat="40.0714253" lon="-105.2297126">
  <ele>1582.99</ele>
  <time>2026-09-02T20:50:47Z</time>
  <course>229.3</course>
  <speed>1.0000499987500624</speed>
  <fix>3d</fix>
</trkpt>
<trkpt lat="40.0714265" lon="-105.2297107">
  <ele>1582.99</ele>
  <time>2026-09-02T20:50:47Z</time>
  <course>229.13</course>
  <speed>0.99</speed>
  <fix>3d</fix>
</trkpt>
<trkpt lat="40.0714247" lon="-105.2297134">
  <ele>1582.99</ele>
  <time>2026-09-02T20:50:47Z</time>
  <course>229.3</course>
  <speed>0.9924716620639604</speed>
  <fix>3d</fix>
</trkpt>
<trkpt lat="40.0714253" lon="-105.2297126">
  <ele>1582.99</ele>
  <time>2026-09-02T20:50:47Z</time>
  <course>229.14</course>
  <speed>0.99</speed>
  <fix>3d</fix>
</trkpt>
<trkpt lat="40.0714241" lon="-105.2297143">
  <ele>1582.99</ele>
  <time>2026-09-02T20:50:47Z</time>
  <course>229.3</course>
  <speed>0.9924716620639604</speed>
  <fix>3d</fix>
</trkpt>
<trkpt lat="40.0714253" lon="-105.2297126">
  <ele>1582.99</ele>
  <time>2026-09-02T20:50:47Z</time>
  <course>229.14</course>
  <speed>0.99</speed>
  <fix>3d</fix>
</trkpt>
<trkpt lat="40.0714235" lon="-105.2297153">
  <ele>1582.99</ele>
  <time>2026-09-02T20:50:47Z</time>
  <course>229.3</course>
  <speed>0.9924716620639604</speed>
  <fix>3d</fix>
</trkpt>
<trkpt lat="40.0714241" lon="-105.2297143">
  <ele>1582.99</ele>
  <time>2026-09-02T20:50:47Z</time>
  <course>229.13</course>
  <speed>0.99</speed>
  <fix>3d</fix>
</trkpt>
<trkpt lat="40.0714229" lon="-105.2297162">
  <ele>1583.0</ele>
  <time>2026-09-02T20:50:47Z</time>
  <course>229.31</course>
  <speed>0.9924716620639604</speed>
  <fix>3d</fix>
</trkpt>
<trkpt lat="40.0714241" lon="-105.2297143">
  <ele>1582.99</ele>
  <time>2026-09-02T20:50:47Z</time>
  <course>229.13</course>
  <speed>0.99</speed>
  <fix>3d</fix>
</trkpt>
<trkpt lat="40.0714222" lon="-105.2297172">
  <ele>1582.99</ele>
  <time>2026-09-02T20:50:47Z</time>
  <course>229.3</course>
  <speed>0.9924716620639604</speed>
  <fix>3d</fix>
</trkpt>
<trkpt lat="40.071423" lon="-105.2297161">
  <ele>1582.99</ele>
  <time>2026-09-02T20:50:47Z</time>
  <course>229.14</course>
  <speed>1.0</speed>
  <fix>3d</fix>
</trkpt>
<trkpt lat="40.0714217" lon="-105.2297181">
  <ele>1582.99</ele>
  <time>2026-09-02T20:50:47Z</time>
  <course>229.3</course>
  <speed>0.9859513172565875</speed>
  <fix>3d</fix>
</trkpt>
<trkpt lat="40.071423" lon="-105.2297161">
  <ele>1582.99</ele>
  <time>2026-09-02T20:50:47Z</time>
  <course>229.14</course>
  <speed>1.0</speed>
  <fix>3d</fix>
</trkpt>
<trkpt lat="40.0714211" lon="-105.2297189">
  <ele>1582.99</ele>
  <time>2026-09-02T20:50:47Z</time>
  <course>229.3</course>
  <speed>1.0000499987500624</speed>
  <fix>3d</fix>
</trkpt>
<trkpt lat="40.0714219" lon="-105.2297179">
  <ele>1582.99</ele>
  <time>2026-09-02T20:50:47Z</time>
  <course>229.13</course>
  <speed>1.0</speed>
  <fix>3d</fix>
</trkpt>
<trkpt lat="40.0714205" lon="-105.2297198">
  <ele>1582.99</ele>
  <time>2026-09-02T20:50:47Z</time>
  <course>229.3</course>
  <speed>0.9783659846908007</speed>
  <fix>3d</fix>
</trkpt>
<trkpt lat="40.0714219" lon="-105.2297179">
  <ele>1582.99</ele>
  <time>2026-09-02T20:50:47Z</time>
  <course>229.13</course>
  <speed>1.0</speed>
  <fix>3d</fix>
</trkpt>
<trkpt lat="40.0714199" lon="-105.2297208">
  <ele>1582.99</ele>
  <time>2026-09-02T20:50:47Z</time>
  <course>229.3</course>
  <speed>1.0000499987500624</speed>
  <fix>3d</fix>
</trkpt>
<trkpt lat="40.0714207" lon="-105.2297197">
  <ele>1582.99</ele>
  <time>2026-09-02T20:50:47Z</time>
  <course>229.13</course>
  <speed>1.0</speed>
  <fix>3d</fix>
</trkpt>
<trkpt lat="40.0714193" lon="-105.2297215">
  <ele>1582.99</ele>
  <time>2026-09-02T20:50:47Z</time>
  <course>229.3</course>
  <speed>0.9783659846908007</speed>
  <fix>3d</fix>
</trkpt>
<trkpt lat="40.0714207" lon="-105.2297197">
  <ele>1582.99</ele>
  <time>2026-09-02T20:50:47Z</time>
  <course>229.13</course>
  <speed>1.0</speed>
  <fix>3d</fix>
</trkpt>
<trkpt lat="40.0714187" lon="-105.2297225">
  <ele>1582.99</ele>
  <time>2026-09-02T20:50:47Z</time>
  <course>229.3</course>
  <speed>1.0000499987500624</speed>
  <fix>3d</fix>
</trkpt>
<trkpt lat="40.0714195" lon="-105.2297215">
  <ele>1582.99</ele>
  <time>2026-09-02T20:50:47Z</time>
  <course>229.13</course>
  <speed>1.0</speed>
  <fix>3d</fix>
</trkpt>
<trkpt lat="40.0714181" lon="-105.2297234">
  <ele>1582.99</ele>
  <time>2026-09-02T20:50:47Z</time>
  <course>229.3</course>
  <speed>0.9783659846908007</speed>
  <fix>3d</fix>
</trkpt>
<trkpt lat="40.0714195" lon="-105.2297215">
  <ele>1582.99</ele>
  <time>2026-09-02T20:50:47Z</time>
  <course>229.13</course>
  <speed>1.0</speed>
  <fix>3d</fix>
</trkpt>
<trkpt lat="40.0714175" lon="-105.2297243">
  <ele>1582.99</ele>
  <time>2026-09-02T20:50:47Z</time>
  <course>229.3</course>
  <speed>1.0000499987500624</speed>
  <fix>3d</fix>
</trkpt>
<trkpt lat="40.0714183" lon="-105.2297232">
  <ele>1582.99</ele>
  <time>2026-09-02T20:50:47Z</time>
  <course>229.13</course>
  <speed>1.0</speed>
  <fix>3d</fix>
</trkpt>
<trkpt lat="40.0714172" lon="-105.229725">
  <ele>1582.99</ele>
  <time>2026-09-02T20:50:47Z</time>
  <course>229.3</course>
  <speed>0.9924716620639604</speed>
  <fix>3d</fix>
</trkpt>
<trkpt lat="40.0714183" lon="-105.2297232">
  <ele>1582.99</ele>
  <time>2026-09-02T20:50:47Z</time>
  <course>229.13</course>
  <speed>1.0</speed>
  <fix>3d</fix>
</trkpt>
<trkpt lat="40.0714166" lon="-105.2297258">
  <ele>1582.99</ele>
  <time>2026-09-02T20:50:47Z</time>
  <course>229.3</course>
  <speed>0.9924716620639604</speed>
  <fix>3d</fix>
</trkpt>
<trkpt lat="40.0714172" lon="-105.229725">
  <ele>1582.99</ele>
  <time>2026-09-02T20:50:47Z</time>
  <course>229.14</course>
  <speed>1.0</speed>
  <fix>3d</fix>
</trkpt>
<trkpt lat="40.071416" lon="-105.2297268">
  <ele>1582.99</ele>
  <time>2026-09-02T20:50:47Z</time>
  <course>229.3</course>
  <speed>0.9924716620639604</speed>
  <fix>3d</fix>
</trkpt>
<trkpt lat="40.0714172" lon="-105.229725">
  <ele>1582.99</ele>
  <time>2026-09-02T20:50:47Z</time>
  <course>229.14</course>
  <speed>1.0</speed>
  <fix>3d</fix>
</trkpt>
<trkpt lat="40.0714154" lon="-105.2297277">
  <ele>1582.99</ele>
  <time>2026-09-02T20:50:47Z</time>
  <course>229.31</course>
  <speed>0.9924716620639604</speed>
  <fix>3d</fix>
</trkpt>
<trkpt lat="40.071416" lon="-105.2297268">
  <ele>1582.99</ele>
  <time>2026-09-02T20:50:47Z</time>
  <course>229.14</course>
  <speed>1.0</speed>
  <fix>3d</fix>
</trkpt>
<trkpt lat="40.0714148" lon="-105.2297286">
  <ele>1582.99</ele>
  <time>2026-09-02T20:50:47Z</time>
  <course>229.3</course>
  <speed>0.9924716620639604</speed>
  <fix>3d</fix>
</trkpt>
<trkpt lat="40.071416" lon="-105.2297268">
  <ele>1582.99</ele>
  <time>2026-09-02T20:50:47Z</time>
  <course>229.14</course>
  <speed>1.0</speed>
  <fix>3d</fix>
</trkpt>
<trkpt lat="40.0714142" lon="-105.2297294">
  <ele>1582.99</ele>
  <time>2026-09-02T20:50:47Z</time>
  <course>229.3</course>
  <speed>1.0000499987500624</speed>
  <fix>3d</fix>
</trkpt>
<trkpt lat="40.0714148" lon="-105.2297285">
  <ele>1582.99</ele>
  <time>2026-09-02T20:50:47Z</time>
  <course>229.14</course>
  <speed>1.0</speed>
  <fix>3d</fix>
</trkpt>
<trkpt lat="40.0714136" lon="-105.2297303">
  <ele>1582.99</ele>
  <time>2026-09-02T20:50:47Z</time>
  <course>229.31</course>
  <speed>0.9924716620639604</speed>
  <fix>3d</fix>
</trkpt>
<trkpt lat="40.0714148" lon="-105.2297285">
  <ele>1582.99</ele>
  <time>2026-09-02T20:50:47Z</time>
  <course>229.14</course>
  <speed>1.0</speed>
  <fix>3d</fix>
</trkpt>
<trkpt lat="40.0714131" lon="-105.2297311">
  <ele>1582.99</ele>
  <time>2026-09-02T20:50:47Z</time>
  <course>229.31</course>
  <speed>1.0000499987500624</speed>
  <fix>3d</fix>
</trkpt>
<trkpt lat="40.0714136" lon="-105.2297303">
  <ele>1582.99</ele>
  <time>2026-09-02T20:50:47Z</time>
  <course>229.14</course>
  <speed>1.0</speed>
  <fix>3d</fix>
</trkpt>
<trkpt lat="40.0714125" lon="-105.229732">
  <ele>1582.99</ele>
  <time>2026-09-02T20:50:47Z</time>
  <course>229.31</course>
  <speed>0.9924716620639604</speed>
  <fix>3d</fix>
</trkpt>
<trkpt lat="40.0714136" lon="-105.2297303">
  <ele>1582.99</ele>
  <time>2026-09-02T20:50:47Z</time>
  <course>229.14</course>
  <speed>1.0</speed>
  <fix>3d</fix>
</trkpt>
<trkpt lat="40.0714119" lon="-105.229733">
  <ele>1582.99</ele>
  <time>2026-09-02T20:50:47Z</time>
  <course>229.31</course>
  <speed>1.0000499987500624</speed>
  <fix>3d</fix>
</trkpt>
<trkpt lat="40.0714125" lon="-105.229732">
  <ele>1582.99</ele>
  <time>2026-09-02T20:50:47Z</time>
  <course>229.14</course>
  <speed>1.0</speed>
  <fix>3d</fix>
</trkpt>
<trkpt lat="40.0714112" lon="-105.2297341">
  <ele>1582.99</ele>
  <time>2026-09-02T20:50:47Z</time>
  <course>229.31</course>
  <speed>0.9924716620639604</speed>
  <fix>3d</fix>
</trkpt>
<trkpt lat="40.0714125" lon="-105.229732">
  <ele>1582.99</ele>
  <time>2026-09-02T20:50:47Z</time>
  <course>229.14</course>
  <speed>1.0</speed>
  <fix>3d</fix>
</trkpt>
<trkpt lat="40.0714106" lon="-105.2297349">
  <ele>1582.99</ele>
  <time>2026-09-02T20:50:47Z</time>
  <course>229.31</course>
  <speed>1.0000499987500624</speed>
  <fix>3d</fix>
</trkpt>
<trkpt lat="40.0714113" lon="-105.2297338">
  <ele>1582.99</ele>
  <time>2026-09-02T20:50:47Z</time>
  <course>229.14</course>
  <speed>1.0</speed>
  <fix>3d</fix>
</trkpt>
<trkpt lat="40.07141" lon="-105.2297358">
  <ele>1582.99</ele>
  <time>2026-09-02T20:50:47Z</time>
  <course>229.31</course>
  <speed>0.9783659846908007</speed>
  <fix>3d</fix>
</trkpt>
<trkpt lat="40.0714113" lon="-105.2297338">
  <ele>1582.99</ele>
  <time>2026-09-02T20:50:47Z</time>
  <course>229.14</course>
  <speed>1.0</speed>
  <fix>3d</fix>
</trkpt>
<trkpt lat="40.0714094" lon="-105.2297366">
  <ele>1582.99</ele>
  <time>2026-09-02T20:50:47Z</time>
  <course>229.31</course>
  <speed>1.0065783625729297</speed>
  <fix>3d</fix>
</trkpt>
<trkpt lat="40.0714101" lon="-105.2297356">
  <ele>1582.99</ele>
  <time>2026-09-02T20:50:47Z</time>
  <course>229.14</course>
  <speed>1.0</speed>
  <fix>3d</fix>
</trkpt>
<trkpt lat="40.0714088" lon="-105.2297375">
  <ele>1582.99</ele>
  <time>2026-09-02T20:50:47Z</time>
  <course>229.3</course>
  <speed>0.9783659846908007</speed>
  <fix>3d</fix>
</trkpt>
<trkpt lat="40.0714101" lon="-105.2297356">
  <ele>1582.99</ele>
  <time>2026-09-02T20:50:47Z</time>
  <course>229.14</course>
  <speed>1.0</speed>
  <fix>3d</fix>
</trkpt>
<trkpt lat="40.0714082" lon="-105.2297385">
  <ele>1582.99</ele>
  <time>2026-09-02T20:50:47Z</time>
  <course>229.3</course>
  <speed>1.0065783625729297</speed>
  <fix>3d</fix>
</trkpt>
<trkpt lat="40.0714089" lon="-105.2297374">
  <ele>1582.99</ele>
  <time>2026-09-02T20:50:47Z</time>
  <course>229.14</course>
  <speed>1.01</speed>
  <fix>3d</fix>
</trkpt>
<trkpt lat="40.0714077" lon="-105.2297394">
  <ele>1582.99</ele>
  <time>2026-09-02T20:50:47Z</time>
  <course>229.3</course>
  <speed>0.9783659846908007</speed>
  <fix>3d</fix>
</trkpt>
<trkpt lat="40.0714089" lon="-105.2297374">
  <ele>1582.99</ele>
  <time>2026-09-02T20:50:47Z</time>
  <course>229.14</course>
  <speed>1.01</speed>
  <fix>3d</fix>
</trkpt>
<trkpt lat="40.071407" lon="-105.2297402">
  <ele>1582.99</ele>
  <time>2026-09-02T20:50:47Z</time>
  <course>229.3</course>
  <speed>1.0065783625729297</speed>
  <fix>3d</fix>
</trkpt>
<trkpt lat="40.0714077" lon="-105.2297392">
  <ele>1582.99</ele>
  <time>2026-09-02T20:50:47Z</time>
  <course>229.13</course>
  <speed>1.01</speed>
  <fix>3d</fix>
</trkpt>
<trkpt lat="40.0714064" lon="-105.2297411">
  <ele>1582.99</ele>
  <time>2026-09-02T20:50:47Z</time>
  <course>229.31</course>
  <speed>0.9783659846908007</speed>
  <fix>3d</fix>
</trkpt>
<trkpt lat="40.0714077" lon="-105.2297392">
  <ele>1582.99</ele>
  <time>2026-09-02T20:50:47Z</time>
  <course>229.13</course>
  <speed>1.01</speed>
  <fix>3d</fix>
</trkpt>
<trkpt lat="40.0714058" lon="-105.2297421">
  <ele>1582.99</ele>
  <time>2026-09-02T20:50:47Z</time>
  <course>229.31</course>
  <speed>1.0065783625729297</speed>
  <fix>3d</fix>
</trkpt>
<trkpt lat="40.0714065" lon="-105.2297409">
  <ele>1582.99</ele>
  <time>2026-09-02T20:50:47Z</time>
  <course>229.14</course>
  <speed>1.01</speed>
  <fix>3d</fix>
</trkpt>
<trkpt lat="40.0714052" lon="-105.2297428">
  <ele>1582.99</ele>
  <time>2026-09-02T20:50:47Z</time>
  <course>229.31</course>
  <speed>0.9783659846908007</speed>
  <fix>3d</fix>
</trkpt>
<trkpt lat="40.0714065" lon="-105.2297409">
  <ele>1582.99</ele>
  <time>2026-09-02T20:50:47Z</time>
  <course>229.14</course>
  <speed>1.01</speed>
  <fix>3d</fix>
</trkpt>
<trkpt lat="40.0714047" lon="-105.2297437">
  <ele>1582.99</ele>
  <time>2026-09-02T20:50:47Z</time>
  <course>229.31</course>
  <speed>1.0000499987500624</speed>
  <fix>3d</fix>
</trkpt>
<trkpt lat="40.0714053" lon="-105.2297428">
  <ele>1582.99</ele>
  <time>2026-09-02T20:50:47Z</time>
  <course>229.14</course>
  <speed>1.0</speed>
  <fix>3d</fix>
</trkpt>
<trkpt lat="40.0714041" lon="-105.2297445">
  <ele>1582.99</ele>
  <time>2026-09-02T20:50:47Z</time>
  <course>229.31</course>
  <speed>0.9859513172565875</speed>
  <fix>3d</fix>
</trkpt>
<trkpt lat="40.0714053" lon="-105.2297428">
  <ele>1582.99</ele>
  <time>2026-09-02T20:50:47Z</time>
  <course>229.14</course>
  <speed>1.0</speed>
  <fix>3d</fix>
</trkpt>
<trkpt lat="40.0714037" lon="-105.2297454">
  <ele>1582.99</ele>
  <time>2026-09-02T20:50:47Z</time>
  <course>229.31</course>
  <speed>1.0000499987500624</speed>
  <fix>3d</fix>
</trkpt>
<trkpt lat="40.0714042" lon="-105.2297445">
  <ele>1582.99</ele>
  <time>2026-09-02T20:50:47Z</time>
  <course>229.14</course>
  <speed>1.0</speed>
  <fix>3d</fix>
</trkpt>
<trkpt lat="40.0714031" lon="-105.2297463">
  <ele>1582.99</ele>
  <time>2026-09-02T20:50:47Z</time>
  <course>229.31</course>
  <speed>0.9924716620639604</speed>
  <fix>3d</fix>
</trkpt>
<trkpt lat="40.0714042" lon="-105.2297445">
  <ele>1582.99</ele>
  <time>2026-09-02T20:50:47Z</time>
  <course>229.14</course>
  <speed>1.0</speed>
  <fix>3d</fix>
</trkpt>
<trkpt lat="40.0714025" lon="-105.2297471">
  <ele>1582.99</ele>
  <time>2026-09-02T20:50:47Z</time>
  <course>229.31</course>
  <speed>1.0000499987500624</speed>
  <fix>3d</fix>
</trkpt>
<trkpt lat="40.0714031" lon="-105.2297462">
  <ele>1582.99</ele>
  <time>2026-09-02T20:50:47Z</time>
  <course>229.14</course>
  <speed>1.0</speed>
  <fix>3d</fix>
</trkpt>
<trkpt lat="40.0714019" lon="-105.2297481">
  <ele>1582.99</ele>
  <time>2026-09-02T20:50:47Z</time>
  <course>229.31</course>
  <speed>0.9924716620639604</speed>
  <fix>3d</fix>
</trkpt>
<trkpt lat="40.0714031" lon="-105.2297462">
  <ele>1582.99</ele>
  <time>2026-09-02T20:50:47Z</time>
  <course>229.14</course>
  <speed>1.0</speed>
  <fix>3d</fix>
</trkpt>
<trkpt lat="40.0714013" lon="-105.229749">
  <ele>1582.99</ele>
  <time>2026-09-02T20:50:47Z</time>
  <course>229.31</course>
  <speed>1.0000499987500624</speed>
  <fix>3d</fix>
</trkpt>
<trkpt lat="40.0714019" lon="-105.2297481">
  <ele>1582.99</ele>
  <time>2026-09-02T20:50:47Z</time>
  <course>229.14</course>
  <speed>1.0</speed>
  <fix>3d</fix>
</trkpt>
<trkpt lat="40.0714007" lon="-105.2297499">
  <ele>1582.99</ele>
  <time>2026-09-02T20:50:47Z</time>
  <course>229.31</course>
  <speed>0.9783659846908007</speed>
  <fix>3d</fix>
</trkpt>
<trkpt lat="40.0714019" lon="-105.2297481">
  <ele>1582.99</ele>
  <time>2026-09-02T20:50:47Z</time>
  <course>229.14</course>
  <speed>1.0</speed>
  <fix>3d</fix>
</trkpt>
<trkpt lat="40.0714001" lon="-105.2297507">
  <ele>1582.99</ele>
  <time>2026-09-02T20:50:47Z</time>
  <course>229.31</course>
  <speed>1.0000499987500624</speed>
  <fix>3d</fix>
</trkpt>
<trkpt lat="40.0714007" lon="-105.2297499">
  <ele>1582.99</ele>
  <time>2026-09-02T20:50:47Z</time>
  <course>229.14</course>
  <speed>1.0</speed>
  <fix>3d</fix>
</trkpt>
<trkpt lat="40.0713995" lon="-105.2297517">
  <ele>1582.99</ele>
  <time>2026-09-02T20:50:47Z</time>
  <course>229.31</course>
  <speed>0.9924716620639604</speed>
  <fix>3d</fix>
</trkpt>
<trkpt lat="40.0714007" lon="-105.2297499">
  <ele>1582.99</ele>
  <time>2026-09-02T20:50:47Z</time>
  <course>229.14</course>
  <speed>1.0</speed>
  <fix>3d</fix>
</trkpt>
<trkpt lat="40.0713988" lon="-105.2297526">
  <ele>1582.99</ele>
  <time>2026-09-02T20:50:47Z</time>
  <course>229.31</course>
  <speed>1.0000499987500624</speed>
  <fix>3d</fix>
</trkpt>
<trkpt lat="40.0713995" lon="-105.2297516">
  <ele>1582.99</ele>
  <time>2026-09-02T20:50:47Z</time>
  <course>229.14</course>
  <speed>1.0</speed>
  <fix>3d</fix>
</trkpt>
<trkpt lat="40.0713983" lon="-105.2297536">
  <ele>1582.99</ele>
  <time>2026-09-02T20:50:47Z</time>
  <course>229.31</course>
  <speed>0.9924716620639604</speed>
  <fix>3d</fix>
</trkpt>
<trkpt lat="40.0713995" lon="-105.2297516">
  <ele>1582.99</ele>
  <time>2026-09-02T20:50:47Z</time>
  <course>229.14</course>
  <speed>1.0</speed>
  <fix>3d</fix>
</trkpt>
<trkpt lat="40.0713977" lon="-105.2297545">
  <ele>1582.99</ele>
  <time>2026-09-02T20:50:47Z</time>
  <course>229.31</course>
  <speed>0.9924716620639604</speed>
  <fix>3d</fix>
</trkpt>
<trkpt lat="40.0713984" lon="-105.2297533">
  <ele>1582.99</ele>
  <time>2026-09-02T20:50:47Z</time>
  <course>229.14</course>
  <speed>1.0</speed>
  <fix>3d</fix>
</trkpt>
<trkpt lat="40.0713971" lon="-105.2297554">
  <ele>1582.99</ele>
  <time>2026-09-02T20:50:47Z</time>
  <course>229.31</course>
  <speed>0.9924716620639604</speed>
  <fix>3d</fix>
</trkpt>
<trkpt lat="40.0713984" lon="-105.2297533">
  <ele>1582.99</ele>
  <time>2026-09-02T20:50:47Z</time>
  <course>229.14</course>
  <speed>1.0</speed>
  <fix>3d</fix>
</trkpt>
<trkpt lat="40.0713965" lon="-105.2297562">
  <ele>1582.99</ele>
  <time>2026-09-02T20:50:47Z</time>
  <course>229.31</course>
  <speed>1.0000499987500624</speed>
  <fix>3d</fix>
</trkpt>
<trkpt lat="40.0713972" lon="-105.2297552">
  <ele>1582.99</ele>
  <time>2026-09-02T20:50:47Z</time>
  <course>229.14</course>
  <speed>1.0</speed>
  <fix>3d</fix>
</trkpt>
<trkpt lat="40.0713959" lon="-105.2297572">
  <ele>1582.99</ele>
  <time>2026-09-02T20:50:47Z</time>
  <course>229.31</course>
  <speed>0.9924716620639604</speed>
  <fix>3d</fix>
</trkpt>
<trkpt lat="40.0713972" lon="-105.2297552">
  <ele>1582.99</ele>
  <time>2026-09-02T20:50:47Z</time>
  <course>229.14</course>
  <speed>1.0</speed>
  <fix>3d</fix>
</trkpt>
<trkpt lat="40.0713953" lon="-105.2297579">
  <ele>1582.99</ele>
  <time>2026-09-02T20:50:47Z</time>
  <course>229.31</course>
  <speed>1.0000499987500624</speed>
  <fix>3d</fix>
</trkpt>
<trkpt lat="40.071396" lon="-105.2297569">
  <ele>1582.99</ele>
  <time>2026-09-02T20:50:47Z</time>
  <course>229.14</course>
  <speed>1.0</speed>
  <fix>3d</fix>
</trkpt>
<trkpt lat="40.0713947" lon="-105.2297588">
  <ele>1582.99</ele>
  <time>2026-09-02T20:50:47Z</time>
  <course>229.31</course>
  <speed>0.9924716620639604</speed>
  <fix>3d</fix>
</trkpt>
<trkpt lat="40.071396" lon="-105.2297569">
  <ele>1582.99</ele>
  <time>2026-09-02T20:50:47Z</time>
  <course>229.14</course>
  <speed>1.0</speed>
  <fix>3d</fix>
</trkpt>
<trkpt lat="40.0713941" lon="-105.2297598">
  <ele>1582.99</ele>
  <time>2026-09-02T20:50:47Z</time>
  <course>229.31</course>
  <speed>1.0000499987500624</speed>
  <fix>3d</fix>
</trkpt>
<trkpt lat="40.0713948" lon="-105.2297587">
  <ele>1582.99</ele>
  <time>2026-09-02T20:50:47Z</time>
  <course>229.14</course>
  <speed>1.0</speed>
  <fix>3d</fix>
</trkpt>
<trkpt lat="40.0713936" lon="-105.2297607">
  <ele>1582.99</ele>
  <time>2026-09-02T20:50:47Z</time>
  <course>229.31</course>
  <speed>0.9924716620639604</speed>
  <fix>3d</fix>
</trkpt>
<trkpt lat="40.0713948" lon="-105.2297587">
  <ele>1582.99</ele>
  <time>2026-09-02T20:50:47Z</time>
  <course>229.14</course>
  <speed>1.0</speed>
  <fix>3d</fix>
</trkpt>
<trkpt lat="40.071393" lon="-105.2297615">
  <ele>1582.99</ele>
  <time>2026-09-02T20:50:47Z</time>
  <course>229.31</course>
  <speed>1.0000499987500624</speed>
  <fix>3d</fix>
</trkpt>
<trkpt lat="40.0713937" lon="-105.2297605">
  <ele>1582.99</ele>
  <time>2026-09-02T20:50:47Z</time>
  <course>229.14</course>
  <speed>1.0</speed>
  <fix>3d</fix>
</trkpt>
<trkpt lat="40.0713924" lon="-105.2297622">
  <ele>1582.99</ele>
  <time>2026-09-02T20:50:47Z</time>
  <course>229.31</course>
  <speed>0.9924716620639604</speed>
  <fix>3d</fix>
</trkpt>
<trkpt lat="40.0713937" lon="-105.2297605">
  <ele>1582.99</ele>
  <time>2026-09-02T20:50:47Z</time>
  <course>229.14</course>
  <speed>1.0</speed>
  <fix>3d</fix>
</trkpt>
<trkpt lat="40.0713918" lon="-105.2297631">
  <ele>1582.99</ele>
  <time>2026-09-02T20:50:47Z</time>
  <course>229.31</course>
  <speed>1.0000499987500624</speed>
  <fix>3d</fix>
</trkpt>
<trkpt lat="40.0713925" lon="-105.2297623">
  <ele>1582.99</ele>
  <time>2026-09-02T20:50:47Z</time>
  <course>229.14</course>
  <speed>1.0</speed>
  <fix>3d</fix>
</trkpt>
<trkpt lat="40.0713912" lon="-105.2297641">
  <ele>1582.99</ele>
  <time>2026-09-02T20:50:47Z</time>
  <course>229.31</course>
  <speed>0.9924716620639604</speed>
  <fix>3d</fix>
</trkpt>
<trkpt lat="40.0713925" lon="-105.2297623">
  <ele>1582.99</ele>
  <time>2026-09-02T20:50:47Z</time>
  <course>229.14</course>
  <speed>1.0</speed>
  <fix>3d</fix>
</trkpt>
<trkpt lat="40.0713906" lon="-105.229765">
  <ele>1582.99</ele>
  <time>2026-09-02T20:50:47Z</time>
  <course>229.31</course>
  <speed>0.9924716620639604</speed>
  <fix>3d</fix>
</trkpt>
<trkpt lat="40.0713912" lon="-105.2297641">
  <ele>1582.99</ele>
  <time>2026-09-02T20:50:47Z</time>
  <course>229.14</course>
  <speed>1.0</speed>
  <fix>3d</fix>
</trkpt>
<trkpt lat="40.07139" lon="-105.2297658">
  <ele>1582.99</ele>
  <time>2026-09-02T20:50:47Z</time>
  <course>229.31</course>
  <speed>0.9924716620639604</speed>
  <fix>3d</fix>
</trkpt>
<trkpt lat="40.0713912" lon="-105.2297641">
  <ele>1582.99</ele>
  <time>2026-09-02T20:50:47Z</time>
  <course>229.14</course>
  <speed>1.0</speed>
  <fix>3d</fix>
</trkpt>
<trkpt lat="40.0713895" lon="-105.2297667">
  <ele>1582.99</ele>
  <time>2026-09-02T20:50:47Z</time>
  <course>229.31</course>
  <speed>0.9924716620639604</speed>
  <fix>3d</fix>
</trkpt>
<trkpt lat="40.0713901" lon="-105.2297658">
  <ele>1582.99</ele>
  <time>2026-09-02T20:50:47Z</time>
  <course>229.14</course>
  <speed>1.0</speed>
  <fix>3d</fix>
</trkpt>
<trkpt lat="40.0713889" lon="-105.2297675">
  <ele>1582.99</ele>
  <time>2026-09-02T20:50:47Z</time>
  <course>229.31</course>
  <speed>0.9924716620639604</speed>
  <fix>3d</fix>
</trkpt>
<trkpt lat="40.0713901" lon="-105.2297658">
  <ele>1582.99</ele>
  <time>2026-09-02T20:50:47Z</time>
  <course>229.14</course>
  <speed>1.0</speed>
  <fix>3d</fix>
</trkpt>
<trkpt lat="40.0713883" lon="-105.2297684">
  <ele>1582.99</ele>
  <time>2026-09-02T20:50:47Z</time>
  <course>229.31</course>
  <speed>1.0000499987500624</speed>
  <fix>3d</fix>
</trkpt>
<trkpt lat="40.0713889" lon="-105.2297676">
  <ele>1582.99</ele>
  <time>2026-09-02T20:50:47Z</time>
  <course>229.14</course>
  <speed>1.0</speed>
  <fix>3d</fix>
</trkpt>
<trkpt lat="40.0713877" lon="-105.2297694">
  <ele>1582.99</ele>
  <time>2026-09-02T20:50:47Z</time>
  <course>229.31</course>
  <speed>0.9924716620639604</speed>
  <fix>3d</fix>
</trkpt>
<trkpt lat="40.0713889" lon="-105.2297676">
  <ele>1582.99</ele>
  <time>2026-09-02T20:50:47Z</time>
  <course>229.14</course>
  <speed>1.0</speed>
  <fix>3d</fix>
</trkpt>
<trkpt lat="40.0713871" lon="-105.2297703">
  <ele>1582.99</ele>
  <time>2026-09-02T20:50:47Z</time>
  <course>229.31</course>
  <speed>1.0000499987500624</speed>
  <fix>3d</fix>
</trkpt>
<trkpt lat="40.0713877" lon="-105.2297694">
  <ele>1582.99</ele>
  <time>2026-09-02T20:50:47Z</time>
  <course>229.14</course>
  <speed>1.0</speed>
  <fix>3d</fix>
</trkpt>
<trkpt lat="40.0713864" lon="-105.2297713">
  <ele>1582.99</ele>
  <time>2026-09-02T20:50:47Z</time>
  <course>229.31</course>
  <speed>0.9924716620639604</speed>
  <fix>3d</fix>
</trkpt>
<trkpt lat="40.0713877" lon="-105.2297694">
  <ele>1582.99</ele>
  <time>2026-09-02T20:50:47Z</time>
  <course>229.14</course>
  <speed>1.0</speed>
  <fix>3d</fix>
</trkpt>
<trkpt lat="40.0713858" lon="-105.2297722">
  <ele>1582.99</ele>
  <time>2026-09-02T20:50:47Z</time>
  <course>229.3</course>
  <speed>1.0000499987500624</speed>
  <fix>3d</fix>
</trkpt>
<trkpt lat="40.0713865" lon="-105.2297711">
  <ele>1582.99</ele>
  <time>2026-09-02T20:50:47Z</time>
  <course>229.14</course>
  <speed>1.0</speed>
  <fix>3d</fix>
</trkpt>
<trkpt lat="40.0713852" lon="-105.229773">
  <ele>1582.99</ele>
  <time>2026-09-02T20:50:47Z</time>
  <course>229.3</course>
  <speed>0.9924716620639604</speed>
  <fix>3d</fix>
</trkpt>
<trkpt lat="40.0713865" lon="-105.2297711">
  <ele>1582.99</ele>
  <time>2026-09-02T20:50:47Z</time>
  <course>229.14</course>
  <speed>1.0</speed>
  <fix>3d</fix>
</trkpt>
<trkpt lat="40.0713846" lon="-105.2297739">
  <ele>1582.99</ele>
  <time>2026-09-02T20:50:47Z</time>
  <course>229.31</course>
  <speed>1.0000499987500624</speed>
  <fix>3d</fix>
</trkpt>
<trkpt lat="40.0713854" lon="-105.2297729">
  <ele>1582.99</ele>
  <time>2026-09-02T20:50:47Z</time>
  <course>229.14</course>
  <speed>1.0</speed>
  <fix>3d</fix>
</trkpt>
<trkpt lat="40.0713842" lon="-105.2297749">
  <ele>1582.99</ele>
  <time>2026-09-02T20:50:47Z</time>
  <course>229.31</course>
  <speed>0.9924716620639604</speed>
  <fix>3d</fix>
</trkpt>
<trkpt lat="40.0713854" lon="-105.2297729">
  <ele>1582.99</ele>
  <time>2026-09-02T20:50:47Z</time>
  <course>229.14</course>
  <speed>1.0</speed>
  <fix>3d</fix>
</trkpt>
<trkpt lat="40.0713836" lon="-105.2297758">
  <ele>1582.99</ele>
  <time>2026-09-02T20:50:47Z</time>
  <course>229.31</course>
  <speed>1.0000499987500624</speed>
  <fix>3d</fix>
</trkpt>
<trkpt lat="40.0713843" lon="-105.2297746">
  <ele>1582.99</ele>
  <time>2026-09-02T20:50:47Z</time>
  <course>229.14</course>
  <speed>1.0</speed>
  <fix>3d</fix>
</trkpt>
<trkpt lat="40.071383" lon="-105.2297767">
  <ele>1582.99</ele>
  <time>2026-09-02T20:50:47Z</time>
  <course>229.3</course>
  <speed>0.9924716620639604</speed>
  <fix>3d</fix>
</trkpt>
<trkpt lat="40.0713843" lon="-105.2297746">
  <ele>1582.99</ele>
  <time>2026-09-02T20:50:47Z</time>
  <course>229.14</course>
  <speed>1.0</speed>
  <fix>3d</fix>
</trkpt>
<trkpt lat="40.0713824" lon="-105.2297775">
  <ele>1582.99</ele>
  <time>2026-09-02T20:50:47Z</time>
  <course>229.3</course>
  <speed>1.0000499987500624</speed>
  <fix>3d</fix>
</trkpt>
<trkpt lat="40.0713831" lon="-105.2297764">
  <ele>1582.99</ele>
  <time>2026-09-02T20:50:47Z</time>
  <course>229.13</course>
  <speed>1.0</speed>
  <fix>3d</fix>
</trkpt>
<trkpt lat="40.0713818" lon="-105.2297785">
  <ele>1582.99</ele>
  <time>2026-09-02T20:50:47Z</time>
  <course>229.3</course>
  <speed>0.9924716620639604</speed>
  <fix>3d</fix>
</trkpt>
<trkpt lat="40.0713831" lon="-105.2297764">
  <ele>1582.99</ele>
  <time>2026-09-02T20:50:47Z</time>
  <course>229.13</course>
  <speed>1.0</speed>
  <fix>3d</fix>
</trkpt>
<trkpt lat="40.0713812" lon="-105.2297792">
  <ele>1582.99</ele>
  <time>2026-09-02T20:50:47Z</time>
  <course>229.3</course>
  <speed>1.0000499987500624</speed>
  <fix>3d</fix>
</trkpt>
<trkpt lat="40.0713819" lon="-105.2297782">
  <ele>1582.99</ele>
  <time>2026-09-02T20:50:47Z</time>
  <course>229.13</course>
  <speed>1.0</speed>
  <fix>3d</fix>
</trkpt>
<trkpt lat="40.0713806" lon="-105.2297801">
  <ele>1582.99</ele>
  <time>2026-09-02T20:50:47Z</time>
  <course>229.3</course>
  <speed>0.9924716620639604</speed>
  <fix>3d</fix>
</trkpt>
<trkpt lat="40.0713819" lon="-105.2297782">
  <ele>1582.99</ele>
  <time>2026-09-02T20:50:47Z</time>
  <course>229.13</course>
  <speed>1.0</speed>
  <fix>3d</fix>
</trkpt>
<trkpt lat="40.0713802" lon="-105.2297809">
  <ele>1582.99</ele>
  <time>2026-09-02T20:50:47Z</time>
  <course>229.3</course>
  <speed>1.0065783625729297</speed>
  <fix>3d</fix>
</trkpt>
<trkpt lat="40.0713807" lon="-105.2297801">
  <ele>1582.99</ele>
  <time>2026-09-02T20:50:47Z</time>
  <course>229.14</course>
  <speed>1.0</speed>
  <fix>3d</fix>
</trkpt>
<trkpt lat="40.0713796" lon="-105.2297818">
  <ele>1582.99</ele>
  <time>2026-09-02T20:50:47Z</time>
  <course>229.3</course>
  <speed>0.9924716620639604</speed>
  <fix>3d</fix>
</trkpt>
<trkpt lat="40.0713807" lon="-105.2297801">
  <ele>1582.99</ele>
  <time>2026-09-02T20:50:47Z</time>
  <course>229.14</course>
  <speed>1.0</speed>
  <fix>3d</fix>
</trkpt>
<trkpt lat="40.071379" lon="-105.2297827">
  <ele>1582.99</ele>
  <time>2026-09-02T20:50:47Z</time>
  <course>229.3</course>
  <speed>0.9924716620639604</speed>
  <fix>3d</fix>
</trkpt>
<trkpt lat="40.0713796" lon="-105.2297818">
  <ele>1582.99</ele>
  <time>2026-09-02T20:50:47Z</time>
  <course>229.14</course>
  <speed>1.0</speed>
  <fix>3d</fix>
</trkpt>
<trkpt lat="40.0713784" lon="-105.2297835">
  <ele>1582.99</ele>
  <time>2026-09-02T20:50:47Z</time>
  <course>229.31</course>
  <speed>0.9642613753542137</speed>
  <fix>3d</fix>
</trkpt>
<trkpt lat="40.0713796" lon="-105.2297818">
  <ele>1582.99</ele>
  <time>2026-09-02T20:50:47Z</time>
  <course>229.14</course>
  <speed>1.0</speed>
  <fix>3d</fix>
</trkpt>
<trkpt lat="40.0713778" lon="-105.2297844">
  <ele>1582.99</ele>
  <time>2026-09-02T20:50:47Z</time>
  <course>229.31</course>
  <speed>0.9360555539069249</speed>
  <fix>3d</fix>
</trkpt>
<trkpt lat="40.0713784" lon="-105.2297835">
  <ele>1582.99</ele>
  <time>2026-09-02T20:50:47Z</time>
  <course>229.14</course>
  <speed>0.97</speed>
  <fix>3d</fix>
</trkpt>
<trkpt lat="40.0713772" lon="-105.2297852">
  <ele>1582.99</ele>
  <time>2026-09-02T20:50:47Z</time>
  <course>229.32</course>
  <speed>0.872066511224918</speed>
  <fix>3d</fix>
</trkpt>
<trkpt lat="40.0713784" lon="-105.2297835">
  <ele>1582.99</ele>
  <time>2026-09-02T20:50:47Z</time>
  <course>229.14</course>
  <speed>0.97</speed>
  <fix>3d</fix>
</trkpt>
<trkpt lat="40.0713767" lon="-105.2297859">
  <ele>1582.99</ele>
  <time>2026-09-02T20:50:47Z</time>
  <course>229.33</course>
  <speed>0.808084154033477</speed>
  <fix>3d</fix>
</trkpt>
<trkpt lat="40.0713772" lon="-105.2297852">
  <ele>1582.99</ele>
  <time>2026-09-02T20:50:47Z</time>
  <course>229.13</course>
  <speed>0.87</speed>
  <fix>3d</fix>
</trkpt>
<trkpt lat="40.0713764" lon="-105.2297866">
  <ele>1582.99</ele>
  <time>2026-09-02T20:50:47Z</time>
  <course>229.34</course>
  <speed>0.73</speed>
  <fix>3d</fix>
</trkpt>
<trkpt lat="40.0713772" lon="-105.2297852">
  <ele>1582.99</ele>
  <time>2026-09-02T20:50:47Z</time>
  <course>229.13</course>
  <speed>0.87</speed>
  <fix>3d</fix>
</trkpt>
<trkpt lat="40.071376" lon="-105.2297873">
  <ele>1582.99</ele>
  <time>2026-09-02T20:50:47Z</time>
  <course>229.36</course>
  <speed>0.623698645180507</speed>
  <fix>3d</fix>
</trkpt>
<trkpt lat="40.0713764" lon="-105.2297866">
  <ele>1582.99</ele>
  <time>2026-09-02T20:50:47Z</time>
  <course>229.12</course>
  <speed>0.72</speed>
  <fix>3d</fix>
</trkpt>
<trkpt lat="40.0713755" lon="-105.2297878">
  <ele>1582.99</ele>
  <time>2026-09-02T20:50:47Z</time>
  <course>229.37</course>
  <speed>0.48918299234540036</speed>
  <fix>3d</fix>
</trkpt>
<trkpt lat="40.0713764" lon="-105.2297866">
  <ele>1582.99</ele>
  <time>2026-09-02T20:50:47Z</time>
  <course>229.12</course>
  <speed>0.72</speed>
  <fix>3d</fix>
</trkpt>
<trkpt lat="40.0713753" lon="-105.2297882">
  <ele>1582.99</ele>
  <time>2026-09-02T20:50:47Z</time>
  <course>229.39</course>
  <speed>0.354682957019364</speed>
  <fix>3d</fix>
</trkpt>
<trkpt lat="40.0713757" lon="-105.2297877">
  <ele>1582.99</ele>
  <time>2026-09-02T20:50:47Z</time>
  <course>229.05</course>
  <speed>0.5</speed>
  <fix>3d</fix>
</trkpt>
<trkpt lat="40.0713752" lon="-105.2297885">
  <ele>1582.99</ele>
  <time>2026-09-02T20:50:47Z</time>
  <course>229.41</course>
  <speed>0.212602916254693</speed>
  <fix>3d</fix>
</trkpt>
<trkpt lat="40.0713757" lon="-105.2297877">
  <ele>1582.99</ele>
  <time>2026-09-02T20:50:47Z</time>
  <course>229.05</course>
  <speed>0.5</speed>
  <fix>3d</fix>
</trkpt>
<trkpt lat="40.0713751" lon="-105.2297885">
  <ele>1582.99</ele>
  <time>2026-09-02T20:50:47Z</time>
  <course>229.42</course>
  <speed>0.09219544457292887</speed>
  <fix>3d</fix>
</trkpt>
<trkpt lat="40.0713752" lon="-105.2297883">
  <ele>1582.99</ele>
  <time>2026-09-02T20:50:47Z</time>
  <course>228.77</course>
  <speed>0.25</speed>
  <fix>3d</fix>
</trkpt>
<trkpt lat="40.0713749" lon="-105.2297887">
  <ele>1582.99</ele>
  <time>2026-09-02T20:50:47Z</time>
  <course>229.45</course>
  <speed>0.0</speed>
  <fix>3d</fix>
</trkpt>
<trkpt lat="40.0713752" lon="-105.2297883">
  <ele>1582.99</ele>
  <time>2026-09-02T20:50:47Z</time>
  <course>228.77</course>
  <speed>0.25</speed>
  <fix>3d</fix>
</trkpt>
<trkpt lat="40.0713751" lon="-105.2297885">
  <ele>1582.99</ele>
  <time>2026-09-02T20:50:47Z</time>
  <course>229.47</course>
  <speed>0.11401754250991379</speed>
  <fix>3d</fix>
</trkpt>
<trkpt lat="40.0713751" lon="-105.2297885">
  <ele>1582.99</ele>
  <time>2026-09-02T20:50:47Z</time>
  <course>212.05</course>
  <speed>0.0</speed>
  <fix>3d</fix>
</trkpt>
<trkpt lat="40.0713752" lon="-105.2297885">
  <ele>1582.99</ele>
  <time>2026-09-02T20:50:47Z</time>
  <course>229.49</course>
  <speed>0.12806248474865697</speed>
  <fix>3d</fix>
</trkpt>
<trkpt lat="40.0713751" lon="-105.2297885">
  <ele>1582.99</ele>
  <time>2026-09-02T20:50:47Z</time>
  <course>212.05</course>
  <speed>0.0</speed>
  <fix>3d</fix>
</trkpt>
<trkpt lat="40.0713753" lon="-105.2297883">
  <ele>1582.99</ele>
  <time>2026-09-02T20:50:47Z</time>
  <course>229.5</course>
  <speed>0.20615528128088303</speed>
  <fix>3d</fix>
</trkpt>
<trkpt lat="40.0713751" lon="-105.2297884">
  <ele>1582.99</ele>
  <time>2026-09-02T20:50:47Z</time>
  <course>50.49</course>
  <speed>0.15</speed>
  <fix>3d</fix>
</trkpt>
<trkpt lat="40.0713754" lon="-105.229788">
  <ele>1583.0</ele>
  <time>2026-09-02T20:50:47Z</time>
  <course>229.52</course>
  <speed>0.17029386365926402</speed>
  <fix>3d</fix>
</trkpt>
<trkpt lat="40.0713751" lon="-105.2297884">
  <ele>1582.99</ele>
  <time>2026-09-02T20:50:47Z</time>
  <course>50.49</course>
  <speed>0.15</speed>
  <fix>3d</fix>
</trkpt>
<trkpt lat="40.0713754" lon="-105.229788">
  <ele>1583.0</ele>
  <time>2026-09-02T20:50:47Z</time>
  <course>229.54</course>
  <speed>0.18439088914585774</speed>
  <fix>3d</fix>
</trkpt>
<trkpt lat="40.0713753" lon="-105.2297881">
  <ele>1582.99</ele>
  <time>2026-09-02T20:50:47Z</time>
  <course>50.29</course>
  <speed>0.2</speed>
  <fix>3d</fix>
</trkpt>
<trkpt lat="40.0713754" lon="-105.2297878">
  <ele>1583.0</ele>
  <time>2026-09-02T20:50:47Z</time>
  <course>229.56</course>
  <speed>0.14212670403551894</speed>
  <fix>3d</fix>
</trkpt>
<trkpt lat="40.0713753" lon="-105.2297881">
  <ele>1582.99</ele>
  <time>2026-09-02T20:50:47Z</time>
  <course>50.29</course>
  <speed>0.2</speed>
  <fix>3d</fix>
</trkpt>
<trkpt lat="40.0713755" lon="-105.2297878">
  <ele>1582.99</ele>
  <time>2026-09-02T20:50:47Z</time>
  <course>229.59</course>
  <speed>0.12041594578792296</speed>
  <fix>3d</fix>
</trkpt>
<trkpt lat="40.0713754" lon="-105.2297878">
  <ele>1582.99</ele>
  <time>2026-09-02T20:50:47Z</time>
  <course>50.49</course>
  <speed>0.16</speed>
  <fix>3d</fix>
</trkpt>
<trkpt lat="40.0713755" lon="-105.2297876">
  <ele>1582.99</ele>
  <time>2026-09-02T20:50:47Z</time>
  <course>229.6</course>
  <speed>0.06403124237432849</speed>
  <fix>3d</fix>
</trkpt>
<trkpt lat="40.0713754" lon="-105.2297878">
  <ele>1582.99</ele>
  <time>2026-09-02T20:50:47Z</time>
  <course>50.49</course>
  <speed>0.16</speed>
  <fix>3d</fix>
</trkpt>
<trkpt lat="40.0713755" lon="-105.2297876">
  <ele>1582.99</ele>
  <time>2026-09-02T20:50:47Z</time>
  <course>229.63</course>
  <speed>0.03605551275463989</speed>
  <fix>3d</fix>
</trkpt>
<trkpt lat="40.0713755" lon="-105.2297877">
  <ele>1582.99</ele>
  <time>2026-09-02T20:50:47Z</time>
  <course>51.33</course>
  <speed>0.09</speed>
  <fix>3d</fix>
</trkpt>
<trkpt lat="40.0713755" lon="-105.2297876">
  <ele>1582.99</ele>
  <time>2026-09-02T20:50:47Z</time>
  <course>229.65</course>
  <speed>0.0</speed>
  <fix>3d</fix>
</trkpt>
<trkpt lat="40.0713755" lon="-105.2297877">
  <ele>1582.99</ele>
  <time>2026-09-02T20:50:47Z</time>
  <course>51.33</course>
  <speed>0.09</speed>
  <fix>3d</fix>
</trkpt>
<trkpt lat="40.0713755" lon="-105.2297876">
  <ele>1582.99</ele>
  <time>2026-09-02T20:50:47Z</time>
  <course>229.67</course>
  <speed>0.04242640687119285</speed>
  <fix>3d</fix>
</trkpt>
<trkpt lat="40.0713755" lon="-105.2297876">
  <ele>1582.99</ele>
  <time>2026-09-02T20:50:47Z</time>
  <course>142.6</course>
  <speed>0.0</speed>
  <fix>3d</fix>
</trkpt>
<trkpt lat="40.0713755" lon="-105.2297876">
  <ele>1582.99</ele>
  <time>2026-09-02T20:50:47Z</time>
  <course>229.7</course>
  <speed>0.07071067811865475</speed>
  <fix>3d</fix>
</trkpt>
<trkpt lat="40.0713755" lon="-105.2297876">
  <ele>1582.99</ele>
  <time>2026-09-02T20:50:47Z</time>
  <course>142.6</course>
  <speed>0.0</speed>
  <fix>3d</fix>
</trkpt>
<trkpt lat="40.0713754" lon="-105.2297878">
  <ele>1582.99</ele>
  <time>2026-09-02T20:50:47Z</time>
  <course>229.71</course>
  <speed>0.1063014581273465</speed>
  <fix>3d</fix>
</trkpt>
<trkpt lat="40.0713755" lon="-105.2297877">
  <ele>1582.99</ele>
  <time>2026-09-02T20:50:47Z</time>
  <course>227.66</course>
  <speed>0.07</speed>
  <fix>3d</fix>
</trkpt>
<trkpt lat="40.0713754" lon="-105.2297878">
  <ele>1582.99</ele>
  <time>2026-09-02T20:50:47Z</time>
  <course>229.71</course>
  <speed>0.09219544457292887</speed>
  <fix>3d</fix>
</trkpt>
<trkpt lat="40.0713755" lon="-105.2297877">
  <ele>1582.99</ele>
  <time>2026-09-02T20:50:47Z</time>
  <course>227.66</course>
  <speed>0.07</speed>
  <fix>3d</fix>
</trkpt>
<trkpt lat="40.0713754" lon="-105.2297878">
  <ele>1582.99</ele>
  <time>2026-09-02T20:50:47Z</time>
  <course>229.7</course>
  <speed>0.1063014581273465</speed>
  <fix>3d</fix>
</trkpt>
<trkpt lat="40.0713754" lon="-105.2297878">
  <ele>1582.99</ele>
  <time>2026-09-02T20:50:47Z</time>
  <course>228.28</course>
  <speed>0.11</speed>
  <fix>3d</fix>
</trkpt>
<trkpt lat="40.0713754" lon="-105.229788">
  <ele>1582.99</ele>
  <time>2026-09-02T20:50:47Z</time>
  <course>229.7</course>
  <speed>0.0848528137423857</speed>
  <fix>3d</fix>
</trkpt>
<trkpt lat="40.0713754" lon="-105.2297878">
  <ele>1582.99</ele>
  <time>2026-09-02T20:50:47Z</time>
  <course>228.28</course>
  <speed>0.11</speed>
  <fix>3d</fix>
</trkpt>
<trkpt lat="40.0713754" lon="-105.229788">
  <ele>1582.99</ele>
  <time>2026-09-02T20:50:47Z</time>
  <course>229.69</course>
  <speed>0.12041594578792296</speed>
  <fix>3d</fix>
</trkpt>
<trkpt lat="40.0713754" lon="-105.2297879">
  <ele>1582.99</ele>
  <time>2026-09-02T20:50:47Z</time>
  <course>228.24</course>
  <speed>0.1</speed>
  <fix>3d</fix>
</trkpt>
<trkpt lat="40.0713753" lon="-105.2297882">
  <ele>1582.99</ele>
  <time>2026-09-02T20:50:47Z</time>
  <course>229.69</course>
  <speed>0.05</speed>
  <fix>3d</fix>
</trkpt>
<trkpt lat="40.0713754" lon="-105.2297879">
  <ele>1582.99</ele>
  <time>2026-09-02T20:50:47Z</time>
  <course>228.24</course>
  <speed>0.1</speed>
  <fix>3d</fix>
</trkpt>
<trkpt lat="40.0713753" lon="-105.2297882">
  <ele>1582.99</ele>
  <time>2026-09-02T20:50:47Z</time>
  <course>229.68</course>
  <speed>0.09219544457292887</speed>
  <fix>3d</fix>
</trkpt>
<trkpt lat="40.0713753" lon="-105.2297881">
  <ele>1582.99</ele>
  <time>2026-09-02T20:50:47Z</time>
  <course>228.05</course>
  <speed>0.09</speed>
  <fix>3d</fix>
</trkpt>
<trkpt lat="40.0713752" lon="-105.2297883">
  <ele>1582.99</ele>
  <time>2026-09-02T20:50:47Z</time>
  <course>229.68</course>
  <speed>0.0282842712474619</speed>
  <fix>3d</fix>
</trkpt>
<trkpt lat="40.0713753" lon="-105.2297881">
  <ele>1582.99</ele>
  <time>2026-09-02T20:50:47Z</time>
  <course>228.05</course>
  <speed>0.09</speed>
  <fix>3d</fix>
</trkpt>
<trkpt lat="40.0713752" lon="-105.2297883">
  <ele>1582.99</ele>
  <time>2026-09-02T20:50:47Z</time>
  <course>0.0</course>
  <speed>0.4509988913511872</speed>
  <fix>3d</fix>
</trkpt>
<trkpt lat="40.0713752" lon="-105.2297882">
  <ele>1582.99</ele>
  <time>2026-09-02T20:50:47Z</time>
  <course>228.54</course>
  <speed>0.07</speed>
  <fix>3d</fix>
</trkpt>
<trkpt lat="40.0713754" lon="-105.2297883">
  <ele>1582.99</ele>
  <time>2026-09-02T20:50:47Z</time>
  <course>0.0</course>
  <speed>0.03</speed>
  <fix>3d</fix>
</trkpt>
<trkpt lat="40.0713752" lon="-105.2297882">
  <ele>1582.99</ele>
  <time>2026-09-02T20:50:47Z</time>
  <course>228.54</course>
  <speed>0.07</speed>
  <fix>3d</fix>
</trkpt>
<trkpt lat="40.0713754" lon="-105.2297883">
  <ele>1583.0</ele>
  <time>2026-09-02T20:50:47Z</time>
  <course>0.0</course>
  <speed>0.140356688476182</speed>
  <fix>3d</fix>
</trkpt>
<trkpt lat="40.0713753" lon="-105.2297883">
  <ele>1582.99</ele>
  <time>2026-09-02T20:50:47Z</time>
  <course>191.77</course>
  <speed>0.08</speed>
  <fix>3d</fix>
</trkpt>
<trkpt lat="40.0713752" lon="-105.2297883">
  <ele>1583.0</ele>
  <time>2026-09-02T20:50:47Z</time>
  <course>0.0</course>
  <speed>0.12041594578792296</speed>
  <fix>3d</fix>
</trkpt>
<trkpt lat="40.0713753" lon="-105.2297883">
  <ele>1582.99</ele>
  <time>2026-09-02T20:50:47Z</time>
  <course>191.77</course>
  <speed>0.08</speed>
  <fix>3d</fix>
</trkpt>
<trkpt lat="40.0713752" lon="-105.2297883">
  <ele>1583.0</ele>
  <time>2026-09-02T20:50:47Z</time>
  <course>0.0</course>
  <speed>0.04</speed>
  <fix>3d</fix>
</trkpt>
<trkpt lat="40.0713753" lon="-105.2297883">
  <ele>1583.0</ele>
  <time>2026-09-02T20:50:47Z</time>
  <course>174.47</course>
  <speed>0.09</speed>
  <fix>3d</fix>
</trkpt>
<trkpt lat="40.0713752" lon="-105.2297883">
  <ele>1583.0</ele>
  <time>2026-09-02T20:50:47Z</time>
  <course>0.0</course>
  <speed>0.0</speed>
  <fix>3d</fix>
</trkpt>
<trkpt lat="40.0713753" lon="-105.2297883">
  <ele>1583.0</ele>
  <time>2026-09-02T20:50:47Z</time>
  <course>174.47</course>
  <speed>0.09</speed>
  <fix>3d</fix>
</trkpt>
<trkpt lat="40.0713752" lon="-105.2297883">
  <ele>1582.99</ele>
  <time>2026-09-02T20:50:47Z</time>
  <course>0.0</course>
  <speed>0.02</speed>
  <fix>3d</fix>
</trkpt>
<trkpt lat="40.0713752" lon="-105.2297883">
  <ele>1582.99</ele>
  <time>2026-09-02T20:50:47Z</time>
  <course>175.92</course>
  <speed>0.01</speed>
  <fix>3d</fix>
</trkpt>
<trkpt lat="40.0713752" lon="-105.2297883">
  <ele>1582.99</ele>
  <time>2026-09-02T20:50:47Z</time>
  <course>0.0</course>
  <speed>0.01</speed>
  <fix>3d</fix>
</trkpt>
<trkpt lat="40.0713752" lon="-105.2297883">
  <ele>1582.99</ele>
  <time>2026-09-02T20:50:47Z</time>
  <course>175.92</course>
  <speed>0.01</speed>
  <fix>3d</fix>
</trkpt>
<trkpt lat="40.0713752" lon="-105.2297883">
  <ele>1582.99</ele>
  <time>2026-09-02T20:50:47Z</time>
  <course>0.0</course>
  <speed>0.0</speed>
  <fix>3d</fix>
</trkpt>
<trkpt lat="40.0713752" lon="-105.2297883">
  <ele>1582.99</ele>
  <time>2026-09-02T20:50:47Z</time>
  <course>354.68</course>
  <speed>0.01</speed>
  <fix>3d</fix>
</trkpt>
<trkpt lat="40.0713752" lon="-105.2297883">
  <ele>1582.99</ele>
  <time>2026-09-02T20:50:47Z</time>
  <course>0.0</course>
  <speed>0.0</speed>
  <fix>3d</fix>
</trkpt>
<trkpt lat="40.0713752" lon="-105.2297883">
  <ele>1582.99</ele>
  <time>2026-09-02T20:50:47Z</time>
  <course>354.68</course>
  <speed>0.01</speed>
  <fix>3d</fix>
</trkpt>
<trkpt lat="40.0713752" lon="-105.2297883">
  <ele>1583.0</ele>
  <time>2026-09-02T20:50:47Z</time>
  <course>0.0</course>
  <speed>0.0</speed>
  <fix>3d</fix>
</trkpt>
<trkpt lat="40.0713752" lon="-105.2297883">
  <ele>1582.99</ele>
  <time>2026-09-02T20:50:47Z</time>
  <course>359.19</course>
  <speed>0.0</speed>
  <fix>3d</fix>
</trkpt>
<trkpt lat="40.0713752" lon="-105.2297883">
  <ele>1583.0</ele>
  <time>2026-09-02T20:50:47Z</time>
  <course>0.0</course>
  <speed>0.0</speed>
  <fix>3d</fix>
</trkpt>
<trkpt lat="40.0713752" lon="-105.2297883">
  <ele>1582.99</ele>
  <time>2026-09-02T20:50:47Z</time>
  <course>359.19</course>
  <speed>0.0</speed>
  <fix>3d</fix>
</trkpt>
<trkpt lat="40.0713752" lon="-105.2297883">
  <ele>1583.0</ele>
  <time>2026-09-02T20:50:47Z</time>
  <course>0.0</course>
  <speed>0.0</speed>
  <fix>3d</fix>
</trkpt>
<trkpt lat="40.0713752" lon="-105.2297883">
  <ele>1583.0</ele>
  <time>2026-09-02T20:50:47Z</time>
  <course>174.86</course>
  <speed>0.0</speed>
  <fix>3d</fix>
</trkpt>
<trkpt lat="40.0713752" lon="-105.2297883">
  <ele>1582.99</ele>
  <time>2026-09-02T20:50:47Z</time>
  <course>0.0</course>
  <speed>0.0</speed>
  <fix>3d</fix>
</trkpt>
<trkpt lat="40.0713752" lon="-105.2297883">
  <ele>1583.0</ele>
  <time>2026-09-02T20:50:47Z</time>
  <course>174.86</course>
  <speed>0.0</speed>
  <fix>3d</fix>
</trkpt>
<trkpt lat="40.0713752" lon="-105.2297883">
  <ele>1582.99</ele>
  <time>2026-09-02T20:50:47Z</time>
  <course>0.0</course>
  <speed>0.0</speed>
  <fix>3d</fix>
</trkpt>
<trkpt lat="40.0713752" lon="-105.2297883">
  <ele>1582.99</ele>
  <time>2026-09-02T20:50:47Z</time>
  <course>352.38</course>
  <speed>0.0</speed>
  <fix>3d</fix>
</trkpt>
<trkpt lat="40.0713752" lon="-105.2297883">
  <ele>1582.99</ele>
  <time>2026-09-02T20:50:47Z</time>
  <course>0.0</course>
  <speed>0.0</speed>
  <fix>3d</fix>
</trkpt>
<trkpt lat="40.0713752" lon="-105.2297883">
  <ele>1582.99</ele>
  <time>2026-09-02T20:50:47Z</time>
  <course>352.38</course>
  <speed>0.0</speed>
  <fix>3d</fix>
</trkpt>
<trkpt lat="40.0713752" lon="-105.2297883">
  <ele>1582.99</ele>
  <time>2026-09-02T20:50:47Z</time>
  <course>0.0</course>
  <speed>0.0</speed>
  <fix>3d</fix>
</trkpt>
<trkpt lat="40.0713752" lon="-105.2297883">
  <ele>1582.99</ele>
  <time>2026-09-02T20:50:47Z</time>
  <course>355.03</course>
  <speed>0.0</speed>
  <fix>3d</fix>
</trkpt>
<trkpt lat="40.0713752" lon="-105.2297883">
  <ele>1583.0</ele>
  <time>2026-09-02T20:50:47Z</time>
  <course>0.0</course>
  <speed>0.0</speed>
  <fix>3d</fix>
</trkpt>
<trkpt lat="40.0713752" lon="-105.2297883">
  <ele>1582.99</ele>
  <time>2026-09-02T20:50:47Z</time>
  <course>355.03</course>
  <speed>0.0</speed>
  <fix>3d</fix>
</trkpt>
<trkpt lat="40.0713752" lon="-105.2297883">
  <ele>1583.0</ele>
  <time>2026-09-02T20:50:47Z</time>
  <course>0.0</course>
  <speed>0.0</speed>
  <fix>3d</fix>
</trkpt>
<trkpt lat="40.0713752" lon="-105.2297883">
  <ele>1582.99</ele>
  <time>2026-09-02T20:50:47Z</time>
  <course>173.96</course>
  <speed>0.0</speed>
  <fix>3d</fix>
</trkpt>
<trkpt lat="40.0713752" lon="-105.2297883">
  <ele>1583.0</ele>
  <time>2026-09-02T20:50:47Z</time>
  <course>0.0</course>
  <speed>0.0</speed>
  <fix>3d</fix>
</trkpt>
<trkpt lat="40.0713752" lon="-105.2297883">
  <ele>1582.99</ele>
  <time>2026-09-02T20:50:47Z</time>
  <course>173.96</course>
  <speed>0.0</speed>
  <fix>3d</fix>
</trkpt>
<trkpt lat="40.0713752" lon="-105.2297883">
  <ele>1582.99</ele>
  <time>2026-09-02T20:50:47Z</time>
  <course>0.0</course>
  <speed>0.0</speed>
  <fix>3d</fix>
</trkpt>
<trkpt lat="40.0713752" lon="-105.2297883">
  <ele>1582.99</ele>
  <time>2026-09-02T20:50:47Z</time>
  <course>175.27</course>
  <speed>0.0</speed>
  <fix>3d</fix>
</trkpt>
<trkpt lat="40.0713752" lon="-105.2297883">
  <ele>1582.99</ele>
  <time>2026-09-02T20:50:47Z</time>
  <course>0.0</course>
  <speed>0.0</speed>
  <fix>3d</fix>
</trkpt>
<trkpt lat="40.0713752" lon="-105.2297883">
  <ele>1582.99</ele>
  <time>2026-09-02T20:50:47Z</time>
  <course>175.27</course>
  <speed>0.0</speed>
  <fix>3d</fix>
</trkpt>
<trkpt lat="40.0713752" lon="-105.2297883">
  <ele>1582.99</ele>
  <time>2026-09-02T20:50:47Z</time>
  <course>0.0</course>
  <speed>0.0</speed>
  <fix>3d</fix>
</trkpt>
<trkpt lat="40.0713752" lon="-105.2297883">
  <ele>1582.99</ele>
  <time>2026-09-02T20:50:47Z</time>
  <course>354.39</course>
  <speed>0.0</speed>
  <fix>3d</fix>
</trkpt>
<trkpt lat="40.0713752" lon="-105.2297883">
  <ele>1582.99</ele>
  <time>2026-09-02T20:50:47Z</time>
  <course>0.0</course>
  <speed>0.0</speed>
  <fix>3d</fix>
</trkpt>
<trkpt lat="40.0713752" lon="-105.2297883">
  <ele>1582.99</ele>
  <time>2026-09-02T20:50:47Z</time>
  <course>354.39</course>
  <speed>0.0</speed>
  <fix>3d</fix>
</trkpt>
<trkpt lat="40.0713752" lon="-105.2297883">
  <ele>1583.0</ele>
  <time>2026-09-02T20:50:47Z</time>
  <course>0.0</course>
  <speed>0.0</speed>
  <fix>3d</fix>
</trkpt>
<trkpt lat="40.0713752" lon="-105.2297883">
  <ele>1582.99</ele>
  <time>2026-09-02T20:50:47Z</time>
  <course>355.69</course>
  <speed>0.0</speed>
  <fix>3d</fix>
</trkpt>
<trkpt lat="40.0713752" lon="-105.2297883">
  <ele>1583.0</ele>
  <time>2026-09-02T20:50:47Z</time>
  <course>0.0</course>
  <speed>0.0</speed>
  <fix>3d</fix>
</trkpt>
<trkpt lat="40.0713752" lon="-105.2297883">
  <ele>1582.99</ele>
  <time>2026-09-02T20:50:47Z</time>
  <course>355.69</course>
  <speed>0.0</speed>
  <fix>3d</fix>
</trkpt>
<trkpt lat="40.0713752" lon="-105.2297883">
  <ele>1583.0</ele>
  <time>2026-09-02T20:50:47Z</time>
  <course>0.0</course>
  <speed>0.0</speed>
  <fix>3d</fix>
</trkpt>
<trkpt lat="40.0713752" lon="-105.2297883">
  <ele>1583.0</ele>
  <time>2026-09-02T20:50:47Z</time>
  <course>174.63</course>
  <speed>0.0</speed>
  <fix>3d</fix>
</trkpt>
<trkpt lat="40.0713752" lon="-105.2297883">
  <ele>1582.99</ele>
  <time>2026-09-02T20:50:47Z</time>
  <course>0.0</course>
  <speed>0.0</speed>
  <fix>3d</fix>
</trkpt>
<trkpt lat="40.0713752" lon="-105.2297883">
  <ele>1582.99</ele>
  <time>2026-09-02T20:50:47Z</time>
  <course>354.81</course>
  <speed>0.0</speed>
  <fix>3d</fix>
</trkpt>
<trkpt lat="40.0713752" lon="-105.2297883">
  <ele>1583.0</ele>
  <time>2026-09-02T20:50:47Z</time>
  <course>0.0</course>
  <speed>0.0</speed>
  <fix>3d</fix>
</trkpt>
<trkpt lat="40.0713752" lon="-105.2297883">
  <ele>1582.99</ele>
  <time>2026-09-02T20:50:47Z</time>
  <course>170.21</course>
  <speed>0.0</speed>
  <fix>3d</fix>
</trkpt>
<trkpt lat="40.0713752" lon="-105.2297883">
  <ele>1583.0</ele>
  <time>2026-09-02T20:50:47Z</time>
  <course>0.0</course>
  <speed>0.0</speed>
  <fix>3d</fix>
</trkpt>
<trkpt lat="40.0713752" lon="-105.2297883">
  <ele>1583.0</ele>
  <time>2026-09-02T20:50:47Z</time>
  <course>174.98</course>
  <speed>0.0</speed>
  <fix>3d</fix>
</trkpt>
<trkpt lat="40.0713752" lon="-105.2297883">
  <ele>1582.99</ele>
  <time>2026-09-02T20:50:47Z</time>
  <course>0.0</course>
  <speed>0.0</speed>
  <fix>3d</fix>
</trkpt>
<trkpt lat="40.0713752" lon="-105.2297883">
  <ele>1583.0</ele>
  <time>2026-09-02T20:50:47Z</time>
  <course>174.98</course>
  <speed>0.0</speed>
  <fix>3d</fix>
</trkpt>
<trkpt lat="40.0713752" lon="-105.2297883">
  <ele>1582.99</ele>
  <time>2026-09-02T20:50:47Z</time>
  <course>0.0</course>
  <speed>0.0</speed>
  <fix>3d</fix>
</trkpt>
<trkpt lat="40.0713752" lon="-105.2297883">
  <ele>1582.99</ele>
  <time>2026-09-02T20:50:47Z</time>
  <course>353.73</course>
  <speed>0.0</speed>
  <fix>3d</fix>
</trkpt>
<trkpt lat="40.0713752" lon="-105.2297883">
  <ele>1582.99</ele>
  <time>2026-09-02T20:50:47Z</time>
  <course>0.0</course>
  <speed>0.0</speed>
  <fix>3d</fix>
</trkpt>
<trkpt lat="40.0713752" lon="-105.2297883">
  <ele>1582.99</ele>
  <time>2026-09-02T20:50:47Z</time>
  <course>353.73</course>
  <speed>0.0</speed>
  <fix>3d</fix>
</trkpt>
<trkpt lat="40.0713752" lon="-105.2297883">
  <ele>1583.0</ele>
  <time>2026-09-02T20:50:47Z</time>
  <course>0.0</course>
  <speed>0.0</speed>
  <fix>3d</fix>
</trkpt>
<trkpt lat="40.0713752" lon="-105.2297883">
  <ele>1582.99</ele>
  <time>2026-09-02T20:50:47Z</time>
  <course>355.19</course>
  <speed>0.0</speed>
  <fix>3d</fix>
</trkpt>
<trkpt lat="40.0713752" lon="-105.2297883">
  <ele>1583.0</ele>
  <time>2026-09-02T20:50:47Z</time>
  <course>0.0</course>
  <speed>0.0</speed>
  <fix>3d</fix>
</trkpt>
<trkpt lat="40.0713752" lon="-105.2297883">
  <ele>1583.0</ele>
  <time>2026-09-02T20:50:47Z</time>
  <course>174.29</course>
  <speed>0.0</speed>
  <fix>3d</fix>
</trkpt>
<trkpt lat="40.0713752" lon="-105.2297883">
  <ele>1583.0</ele>
  <time>2026-09-02T20:50:47Z</time>
  <course>0.0</course>
  <speed>0.0</speed>
  <fix>3d</fix>
</trkpt>
<trkpt lat="40.0713752" lon="-105.2297883">
  <ele>1583.0</ele>
  <time>2026-09-02T20:50:47Z</time>
  <course>174.29</course>
  <speed>0.0</speed>
  <fix>3d</fix>
</trkpt>
<trkpt lat="40.0713752" lon="-105.2297883">
  <ele>1583.0</ele>
  <time>2026-09-02T20:50:47Z</time>
  <course>0.0</course>
  <speed>0.0</speed>
  <fix>3d</fix>
</trkpt>
<trkpt lat="40.0713752" lon="-105.2297883">
  <ele>1583.0</ele>
  <time>2026-09-02T20:50:47Z</time>
  <course>175.52</course>
  <speed>0.0</speed>
  <fix>3d</fix>
</trkpt>
<trkpt lat="40.0713752" lon="-105.2297883">
  <ele>1583.0</ele>
  <time>2026-09-02T20:50:47Z</time>
  <course>0.0</course>
  <speed>0.0</speed>
  <fix>3d</fix>
</trkpt>
<trkpt lat="40.0713752" lon="-105.2297883">
  <ele>1583.0</ele>
  <time>2026-09-02T20:50:47Z</time>
  <course>175.52</course>
  <speed>0.0</speed>
  <fix>3d</fix>
</trkpt>
<trkpt lat="40.0713752" lon="-105.2297883">
  <ele>1583.0</ele>
  <time>2026-09-02T20:50:47Z</time>
  <course>0.0</course>
  <speed>0.0</speed>
  <fix>3d</fix>
</trkpt>
<trkpt lat="40.0713752" lon="-105.2297883">
  <ele>1583.0</ele>
  <time>2026-09-02T20:50:47Z</time>
  <course>354.57</course>
  <speed>0.0</speed>
  <fix>3d</fix>
</trkpt>
<trkpt lat="40.0713752" lon="-105.2297883">
  <ele>1583.0</ele>
  <time>2026-09-02T20:50:47Z</time>
  <course>0.0</course>
  <speed>0.0</speed>
  <fix>3d</fix>
</trkpt>
<trkpt lat="40.0713752" lon="-105.2297883">
  <ele>1583.0</ele>
  <time>2026-09-02T20:50:47Z</time>
  <course>354.57</course>
  <speed>0.0</speed>
  <fix>3d</fix>
</trkpt>
<trkpt lat="40.0713752" lon="-105.2297883">
  <ele>1583.0</ele>
  <time>2026-09-02T20:50:47Z</time>
  <course>0.0</course>
  <speed>0.0</speed>
  <fix>3d</fix>
</trkpt>
<trkpt lat="40.0713752" lon="-105.2297883">
  <ele>1583.0</ele>
  <time>2026-09-02T20:50:47Z</time>
  <course>356.44</course>
  <speed>0.0</speed>
  <fix>3d</fix>
</trkpt>
<trkpt lat="40.0713752" lon="-105.2297883">
  <ele>1583.0</ele>
  <time>2026-09-02T20:50:47Z</time>
  <course>0.0</course>
  <speed>0.0</speed>
  <fix>3d</fix>
</trkpt>
<trkpt lat="40.0713752" lon="-105.2297883">
  <ele>1583.0</ele>
  <time>2026-09-02T20:50:47Z</time>
  <course>356.44</course>
  <speed>0.0</speed>
  <fix>3d</fix>
</trkpt>
<trkpt lat="40.0713752" lon="-105.2297883">
  <ele>1583.0</ele>
  <time>2026-09-02T20:50:47Z</time>
  <course>0.0</course>
  <speed>0.0</speed>
  <fix>3d</fix>
</trkpt>
<trkpt lat="40.0713752" lon="-105.2297883">
  <ele>1583.0</ele>
  <time>2026-09-02T20:50:47Z</time>
  <course>174.76</course>
  <speed>0.0</speed>
  <fix>3d</fix>
</trkpt>
<trkpt lat="40.0713752" lon="-105.2297883">
  <ele>1583.0</ele>
  <time>2026-09-02T20:50:47Z</time>
  <course>0.0</course>
  <speed>0.0</speed>
  <fix>3d</fix>
</trkpt>
<trkpt lat="40.0713752" lon="-105.2297883">
  <ele>1583.0</ele>
  <time>2026-09-02T20:50:47Z</time>
  <course>354.93</course>
  <speed>0.0</speed>
  <fix>3d</fix>
</trkpt>
<trkpt lat="40.0713752" lon="-105.2297883">
  <ele>1583.0</ele>
  <time>2026-09-02T20:50:47Z</time>
  <course>0.0</course>
  <speed>0.0</speed>
  <fix>3d</fix>
</trkpt>
<trkpt lat="40.0713752" lon="-105.2297883">
  <ele>1583.0</ele>
  <time>2026-09-02T20:50:47Z</time>
  <course>354.93</course>
  <speed>0.0</speed>
  <fix>3d</fix>
</trkpt>
<trkpt lat="40.0713752" lon="-105.2297883">
  <ele>1583.0</ele>
  <time>2026-09-02T20:50:47Z</time>
  <course>0.0</course>
  <speed>0.0</speed>
  <fix>3d</fix>
</trkpt>
<trkpt lat="40.0713752" lon="-105.2297883">
  <ele>1583.0</ele>
  <time>2026-09-02T20:50:47Z</time>
  <course>173.37</course>
  <speed>0.0</speed>
  <fix>3d</fix>
</trkpt>
<trkpt lat="40.0713752" lon="-105.2297883">
  <ele>1583.0</ele>
  <time>2026-09-02T20:50:47Z</time>
  <course>0.0</course>
  <speed>0.0</speed>
  <fix>3d</fix>
</trkpt>
<trkpt lat="40.0713752" lon="-105.2297883">
  <ele>1583.0</ele>
  <time>2026-09-02T20:50:47Z</time>
  <course>173.37</course>
  <speed>0.0</speed>
  <fix>3d</fix>
</trkpt>
<trkpt lat="40.0713752" lon="-105.2297883">
  <ele>1583.0</ele>
  <time>2026-09-02T20:50:47Z</time>
  <course>0.0</course>
  <speed>0.0</speed>
  <fix>3d</fix>
</trkpt>
<trkpt lat="40.0713752" lon="-105.2297883">
  <ele>1583.0</ele>
  <time>2026-09-02T20:50:47Z</time>
  <course>175.12</course>
  <speed>0.0</speed>
  <fix>3d</fix>
</trkpt>
<trkpt lat="40.0713752" lon="-105.2297883">
  <ele>1583.0</ele>
  <time>2026-09-02T20:50:47Z</time>
  <course>0.0</course>
  <speed>0.0</speed>
  <fix>3d</fix>
</trkpt>
<trkpt lat="40.0713752" lon="-105.2297883">
  <ele>1583.0</ele>
  <time>2026-09-02T20:50:47Z</time>
  <course>175.12</course>
  <speed>0.0</speed>
  <fix>3d</fix>
</trkpt>
<trkpt lat="40.0713752" lon="-105.2297883">
  <ele>1583.0</ele>
  <time>2026-09-02T20:50:47Z</time>
  <course>0.0</course>
  <speed>0.0</speed>
  <fix>3d</fix>
</trkpt>
<trkpt lat="40.0713752" lon="-105.2297883">
  <ele>1583.0</ele>
  <time>2026-09-02T20:50:47Z</time>
  <course>354.18</course>
  <speed>0.0</speed>
  <fix>3d</fix>
</trkpt>
<trkpt lat="40.0713752" lon="-105.2297883">
  <ele>1583.0</ele>
  <time>2026-09-02T20:50:47Z</time>
  <course>0.0</course>
  <speed>0.0</speed>
  <fix>3d</fix>
</trkpt>
<trkpt lat="40.0713752" lon="-105.2297883">
  <ele>1583.0</ele>
  <time>2026-09-02T20:50:47Z</time>
  <course>354.18</course>
  <speed>0.0</speed>
  <fix>3d</fix>
</trkpt>
<trkpt lat="40.0713752" lon="-105.2297883">
  <ele>1583.0</ele>
  <time>2026-09-02T20:50:47Z</time>
  <course>0.0</course>
  <speed>0.0</speed>
  <fix>3d</fix>
</trkpt>
<trkpt lat="40.0713752" lon="-105.2297883">
  <ele>1583.0</ele>
  <time>2026-09-02T20:50:47Z</time>
  <course>355.39</course>
  <speed>0.0</speed>
  <fix>3d</fix>
</trkpt>
<trkpt lat="40.0713752" lon="-105.2297883">
  <ele>1583.0</ele>
  <time>2026-09-02T20:50:47Z</time>
  <course>0.0</course>
  <speed>0.0</speed>
  <fix>3d</fix>
</trkpt>
<trkpt lat="40.0713752" lon="-105.2297883">
  <ele>1583.0</ele>
  <time>2026-09-02T20:50:47Z</time>
  <course>355.39</course>
  <speed>0.0</speed>
  <fix>3d</fix>
</trkpt>
<trkpt lat="40.0713752" lon="-105.2297883">
  <ele>1583.0</ele>
  <time>2026-09-02T20:50:47Z</time>
  <course>0.0</course>
  <speed>0.0</speed>
  <fix>3d</fix>
</trkpt>
<trkpt lat="40.0713752" lon="-105.2297883">
  <ele>1583.0</ele>
  <time>2026-09-02T20:50:47Z</time>
  <course>174.48</course>
  <speed>0.0</speed>
  <fix>3d</fix>
</trkpt>
<trkpt lat="40.0713752" lon="-105.2297883">
  <ele>1583.0</ele>
  <time>2026-09-02T20:50:47Z</time>
  <course>0.0</course>
  <speed>0.0</speed>
  <fix>3d</fix>
</trkpt>
<trkpt lat="40.0713752" lon="-105.2297883">
  <ele>1583.0</ele>
  <time>2026-09-02T20:50:47Z</time>
  <course>174.48</course>
  <speed>0.0</speed>
  <fix>3d</fix>
</trkpt>
<trkpt lat="40.0713752" lon="-105.2297883">
  <ele>1583.0</ele>
  <time>2026-09-02T20:50:47Z</time>
  <course>0.0</course>
  <speed>0.0</speed>
  <fix>3d</fix>
</trkpt>
<trkpt lat="40.0713752" lon="-105.2297883">
  <ele>1583.0</ele>
  <time>2026-09-02T20:50:47Z</time>
  <course>176.29</course>
  <speed>0.0</speed>
  <fix>3d</fix>
</trkpt>
<trkpt lat="40.0713752" lon="-105.2297883">
  <ele>1583.0</ele>
  <time>2026-09-02T20:50:47Z</time>
  <course>0.0</course>
  <speed>0.0</speed>
  <fix>3d</fix>
</trkpt>
<trkpt lat="40.0713752" lon="-105.2297883">
  <ele>1583.0</ele>
  <time>2026-09-02T20:50:47Z</time>
  <course>176.29</course>
  <speed>0.0</speed>
  <fix>3d</fix>
</trkpt>
<trkpt lat="40.0713752" lon="-105.2297883">
  <ele>1583.0</ele>
  <time>2026-09-02T20:50:47Z</time>
  <course>0.0</course>
  <speed>0.0</speed>
  <fix>3d</fix>
</trkpt>
<trkpt lat="40.0713752" lon="-105.2297883">
  <ele>1583.0</ele>
  <time>2026-09-02T20:50:47Z</time>
  <course>352.87</course>
  <speed>0.0</speed>
  <fix>3d</fix>
</trkpt>
<trkpt lat="40.0713752" lon="-105.2297883">
  <ele>1583.0</ele>
  <time>2026-09-02T20:50:47Z</time>
  <course>0.0</course>
  <speed>0.0</speed>
  <fix>3d</fix>
</trkpt>
<trkpt lat="40.0713752" lon="-105.2297883">
  <ele>1583.0</ele>
  <time>2026-09-02T20:50:47Z</time>
  <course>352.87</course>
  <speed>0.0</speed>
  <fix>3d</fix>
</trkpt>
<trkpt lat="40.0713752" lon="-105.2297883">
  <ele>1583.0</ele>
  <time>2026-09-02T20:50:47Z</time>
  <course>0.0</course>
  <speed>0.0</speed>
  <fix>3d</fix>
</trkpt>
<trkpt lat="40.0713752" lon="-105.2297883">
  <ele>1583.0</ele>
  <time>2026-09-02T20:50:47Z</time>
  <course>305.28</course>
  <speed>0.0</speed>
  <fix>3d</fix>
</trkpt>
<trkpt lat="40.0713752" lon="-105.2297883">
  <ele>1583.0</ele>
  <time>2026-09-02T20:50:47Z</time>
  <course>0.0</course>
  <speed>0.0</speed>
  <fix>3d</fix>
</trkpt>
<trkpt lat="40.0713752" lon="-105.2297883">
  <ele>1583.0</ele>
  <time>2026-09-02T20:50:47Z</time>
  <course>305.28</course>
  <speed>0.0</speed>
  <fix>3d</fix>
</trkpt>
<trkpt lat="40.0713752" lon="-105.2297883">
  <ele>1583.0</ele>
  <time>2026-09-02T20:50:47Z</time>
  <course>0.0</course>
  <speed>0.0</speed>
  <fix>3d</fix>
</trkpt>
<trkpt lat="40.0713752" lon="-105.2297883">
  <ele>1583.0</ele>
  <time>2026-09-02T20:50:47Z</time>
  <course>204.46</course>
  <speed>0.0</speed>
  <fix>3d</fix>
</trkpt>
<trkpt lat="40.0713752" lon="-105.2297883">
  <ele>1583.0</ele>
  <time>2026-09-02T20:50:47Z</time>
  <course>0.0</course>
  <speed>0.0</speed>
  <fix>3d</fix>
</trkpt>
<trkpt lat="40.0713752" lon="-105.2297883">
  <ele>1583.0</ele>
  <time>2026-09-02T20:50:47Z</time>
  <course>204.46</course>
  <speed>0.0</speed>
  <fix>3d</fix>
</trkpt>
<trkpt lat="40.0713752" lon="-105.2297883">
  <ele>1583.0</ele>
  <time>2026-09-02T20:50:47Z</time>
  <course>0.0</course>
  <speed>0.0</speed>
  <fix>3d</fix>
</trkpt>
<trkpt lat="40.0713752" lon="-105.2297883">
  <ele>1583.0</ele>
  <time>2026-09-02T20:50:47Z</time>
  <course>279.22</course>
  <speed>0.0</speed>
  <fix>3d</fix>
</trkpt>
<trkpt lat="40.0713752" lon="-105.2297883">
  <ele>1583.0</ele>
  <time>2026-09-02T20:50:47Z</time>
  <course>0.0</course>
  <speed>0.0</speed>
  <fix>3d</fix>
</trkpt>
<trkpt lat="40.0713752" lon="-105.2297883">
  <ele>1583.0</ele>
  <time>2026-09-02T20:50:47Z</time>
  <course>279.22</course>
  <speed>0.0</speed>
  <fix>3d</fix>
</trkpt>
<trkpt lat="40.0713752" lon="-105.2297883">
  <ele>1583.0</ele>
  <time>2026-09-02T20:50:47Z</time>
  <course>0.0</course>
  <speed>0.0</speed>
  <fix>3d</fix>
</trkpt>
<trkpt lat="40.0713752" lon="-105.2297883">
  <ele>1583.0</ele>
  <time>2026-09-02T20:50:47Z</time>
  <course>299.79</course>
  <speed>0.0</speed>
  <fix>3d</fix>
</trkpt>
<trkpt lat="40.0713752" lon="-105.2297883">
  <ele>1583.0</ele>
  <time>2026-09-02T20:50:47Z</time>
  <course>0.0</course>
  <speed>0.0</speed>
  <fix>3d</fix>
</trkpt>
<trkpt lat="40.0713752" lon="-105.2297883">
  <ele>1583.0</ele>
  <time>2026-09-02T20:50:47Z</time>
  <course>299.79</course>
  <speed>0.0</speed>
  <fix>3d</fix>
</trkpt>
<trkpt lat="40.0713752" lon="-105.2297883">
  <ele>1583.0</ele>
  <time>2026-09-02T20:50:47Z</time>
  <course>0.0</course>
  <speed>0.0</speed>
  <fix>3d</fix>
</trkpt>
<trkpt lat="40.0713752" lon="-105.2297883">
  <ele>1583.0</ele>
  <time>2026-09-02T20:50:47Z</time>
  <course>302.12</course>
  <speed>0.0</speed>
  <fix>3d</fix>
</trkpt>
<trkpt lat="40.0713752" lon="-105.2297883">
  <ele>1583.0</ele>
  <time>2026-09-02T20:50:47Z</time>
  <course>0.0</course>
  <speed>0.0</speed>
  <fix>3d</fix>
</trkpt>
<trkpt lat="40.0713752" lon="-105.2297883">
  <ele>1583.0</ele>
  <time>2026-09-02T20:50:47Z</time>
  <course>302.12</course>
  <speed>0.0</speed>
  <fix>3d</fix>
</trkpt>
<trkpt lat="40.0713752" lon="-105.2297883">
  <ele>1583.0</ele>
  <time>2026-09-02T20:50:47Z</time>
  <course>0.0</course>
  <speed>0.0</speed>
  <fix>3d</fix>
</trkpt>
<trkpt lat="40.0713752" lon="-105.2297883">
  <ele>1583.0</ele>
  <time>2026-09-02T20:50:47Z</time>
  <course>302.42</course>
  <speed>0.0</speed>
  <fix>3d</fix>
</trkpt>
<trkpt lat="40.0713752" lon="-105.2297883">
  <ele>1583.0</ele>
  <time>2026-09-02T20:50:47Z</time>
  <course>0.0</course>
  <speed>0.0</speed>
  <fix>3d</fix>
</trkpt>
<trkpt lat="40.0713752" lon="-105.2297883">
  <ele>1583.0</ele>
  <time>2026-09-02T20:50:47Z</time>
  <course>302.42</course>
  <speed>0.0</speed>
  <fix>3d</fix>
</trkpt>
<trkpt lat="40.0713752" lon="-105.2297883">
  <ele>1583.0</ele>
  <time>2026-09-02T20:50:47Z</time>
  <course>0.0</course>
  <speed>0.0</speed>
  <fix>3d</fix>
</trkpt>
<trkpt lat="40.0713752" lon="-105.2297883">
  <ele>1583.0</ele>
  <time>2026-09-02T20:50:47Z</time>
  <course>302.46</course>
  <speed>0.0</speed>
  <fix>3d</fix>
</trkpt>
<trkpt lat="40.0713752" lon="-105.2297883">
  <ele>1583.0</ele>
  <time>2026-09-02T20:50:47Z</time>
  <course>0.0</course>
  <speed>0.0</speed>
  <fix>3d</fix>
</trkpt>
<trkpt lat="40.0713752" lon="-105.2297883">
  <ele>1583.0</ele>
  <time>2026-09-02T20:50:47Z</time>
  <course>302.46</course>
  <speed>0.0</speed>
  <fix>3d</fix>
</trkpt>
<trkpt lat="40.0713752" lon="-105.2297883">
  <ele>1583.0</ele>
  <time>2026-09-02T20:50:47Z</time>
  <course>0.0</course>
  <speed>0.0</speed>
  <fix>3d</fix>
</trkpt>
<trkpt lat="40.0713752" lon="-105.2297883">
  <ele>1583.0</ele>
  <time>2026-09-02T20:50:47Z</time>
  <course>302.47</course>
  <speed>0.0</speed>
  <fix>3d</fix>
</trkpt>
<trkpt lat="40.0713752" lon="-105.2297883">
  <ele>1583.0</ele>
  <time>2026-09-02T20:50:47Z</time>
  <course>0.0</course>
  <speed>0.0</speed>
  <fix>3d</fix>
</trkpt>
<trkpt lat="40.0713752" lon="-105.2297883">
  <ele>1583.0</ele>
  <time>2026-09-02T20:50:47Z</time>
  <course>302.47</course>
  <speed>0.0</speed>
  <fix>3d</fix>
</trkpt>
<trkpt lat="40.0713752" lon="-105.2297883">
  <ele>1583.0</ele>
  <time>2026-09-02T20:50:47Z</time>
  <course>0.0</course>
  <speed>0.0</speed>
  <fix>3d</fix>
</trkpt>
<trkpt lat="40.0713752" lon="-105.2297883">
  <ele>1583.0</ele>
  <time>2026-09-02T20:50:47Z</time>
  <course>302.47</course>
  <speed>0.0</speed>
  <fix>3d</fix>
</trkpt>
<trkpt lat="40.0713752" lon="-105.2297883">
  <ele>1583.0</ele>
  <time>2026-09-02T20:50:47Z</time>
  <course>0.0</course>
  <speed>0.0</speed>
  <fix>3d</fix>
</trkpt>
<trkpt lat="40.0713752" lon="-105.2297883">
  <ele>1583.0</ele>
  <time>2026-09-02T20:50:47Z</time>
  <course>302.47</course>
  <speed>0.0</speed>
  <fix>3d</fix>
</trkpt>
<trkpt lat="40.0713752" lon="-105.2297883">
  <ele>1583.0</ele>
  <time>2026-09-02T20:50:47Z</time>
  <course>0.0</course>
  <speed>0.0</speed>
  <fix>3d</fix>
</trkpt>
<trkpt lat="40.0713752" lon="-105.2297883">
  <ele>1583.0</ele>
  <time>2026-09-02T20:50:47Z</time>
  <course>302.47</course>
  <speed>0.0</speed>
  <fix>3d</fix>
</trkpt>
<trkpt lat="40.0713752" lon="-105.2297883">
  <ele>1583.0</ele>
  <time>2026-09-02T20:50:47Z</time>
  <course>0.0</course>
  <speed>0.0</speed>
  <fix>3d</fix>
</trkpt>
<trkpt lat="40.0713752" lon="-105.2297883">
  <ele>1583.0</ele>
  <time>2026-09-02T20:50:47Z</time>
  <course>302.47</course>
  <speed>0.0</speed>
  <fix>3d</fix>
</trkpt>
<trkpt lat="40.0713752" lon="-105.2297883">
  <ele>1582.99</ele>
  <time>2026-09-02T20:50:47Z</time>
  <course>359.95</course>
  <speed>0.0</speed>
  <fix>3d</fix>
</trkpt>
<trkpt lat="40.0713752" lon="-105.2297883">
  <ele>1582.99</ele>
  <time>2026-09-02T20:50:47Z</time>
  <course>359.97</course>
  <speed>0.0</speed>
  <fix>3d</fix>
</trkpt>
<trkpt lat="40.0713752" lon="-105.2297883">
  <ele>1582.99</ele>
  <time>2026-09-02T20:50:47Z</time>
  <course>359.64</course>
  <speed>0.0</speed>
  <fix>3d</fix>
</trkpt>
<trkpt lat="40.0713752" lon="-105.2297883">
  <ele>1582.99</ele>
  <time>2026-09-02T20:50:47Z</time>
  <course>359.97</course>
  <speed>0.0</speed>
  <fix>3d</fix>
</trkpt>
<trkpt lat="40.0713752" lon="-105.2297883">
  <ele>1582.99</ele>
  <time>2026-09-02T20:50:47Z</time>
  <course>359.07</course>
  <speed>0.0</speed>
  <fix>3d</fix>
</trkpt>
<trkpt lat="40.0713752" lon="-105.2297883">
  <ele>1582.99</ele>
  <time>2026-09-02T20:50:47Z</time>
  <course>359.45</course>
  <speed>0.0</speed>
  <fix>3d</fix>
</trkpt>
<trkpt lat="40.0713752" lon="-105.2297883">
  <ele>1582.99</ele>
  <time>2026-09-02T20:50:47Z</time>
  <course>358.43</course>
  <speed>0.0</speed>
  <fix>3d</fix>
</trkpt>
<trkpt lat="40.0713752" lon="-105.2297883">
  <ele>1582.99</ele>
  <time>2026-09-02T20:50:47Z</time>
  <course>359.45</course>
  <speed>0.0</speed>
  <fix>3d</fix>
</trkpt>
<trkpt lat="40.0713752" lon="-105.2297883">
  <ele>1582.99</ele>
  <time>2026-09-02T20:50:47Z</time>
  <course>357.37</course>
  <speed>0.0</speed>
  <fix>3d</fix>
</trkpt>
<trkpt lat="40.0713752" lon="-105.2297883">
  <ele>1582.99</ele>
  <time>2026-09-02T20:50:47Z</time>
  <course>358.09</course>
  <speed>0.0</speed>
  <fix>3d</fix>
</trkpt>
<trkpt lat="40.0713752" lon="-105.2297883">
  <ele>1582.99</ele>
  <time>2026-09-02T20:50:47Z</time>
  <course>356.05</course>
  <speed>0.0</speed>
  <fix>3d</fix>
</trkpt>
<trkpt lat="40.0713752" lon="-105.2297883">
  <ele>1582.99</ele>
  <time>2026-09-02T20:50:47Z</time>
  <course>358.09</course>
  <speed>0.0</speed>
  <fix>3d</fix>
</trkpt>
<trkpt lat="40.0713752" lon="-105.2297883">
  <ele>1582.99</ele>
  <time>2026-09-02T20:50:47Z</time>
  <course>354.45</course>
  <speed>0.0</speed>
  <fix>3d</fix>
</trkpt>
<trkpt lat="40.0713752" lon="-105.2297883">
  <ele>1582.99</ele>
  <time>2026-09-02T20:50:47Z</time>
  <course>357.37</course>
  <speed>0.0</speed>
  <fix>3d</fix>
</trkpt>
<trkpt lat="40.0713752" lon="-105.2297883">
  <ele>1582.99</ele>
  <time>2026-09-02T20:50:47Z</time>
  <course>352.55</course>
  <speed>0.0</speed>
  <fix>3d</fix>
</trkpt>
<trkpt lat="40.0713752" lon="-105.2297883">
  <ele>1582.99</ele>
  <time>2026-09-02T20:50:47Z</time>
  <course>357.37</course>
  <speed>0.0</speed>
  <fix>3d</fix>
</trkpt>
<trkpt lat="40.0713752" lon="-105.2297883">
  <ele>1582.99</ele>
  <time>2026-09-02T20:50:47Z</time>
  <course>350.36</course>
  <speed>0.0</speed>
  <fix>3d</fix>
</trkpt>
<trkpt lat="40.0713752" lon="-105.2297883">
  <ele>1582.99</ele>
  <time>2026-09-02T20:50:47Z</time>
  <course>173.2</course>
  <speed>0.0</speed>
  <fix>3d</fix>
</trkpt>
<trkpt lat="40.0713752" lon="-105.2297883">
  <ele>1582.99</ele>
  <time>2026-09-02T20:50:47Z</time>
  <course>347.87</course>
  <speed>0.0</speed>
  <fix>3d</fix>
</trkpt>
<trkpt lat="40.0713752" lon="-105.2297883">
  <ele>1582.99</ele>
  <time>2026-09-02T20:50:47Z</time>
  <course>173.2</course>
  <speed>0.0</speed>
  <fix>3d</fix>
</trkpt>
<trkpt lat="40.0713752" lon="-105.2297883">
  <ele>1582.99</ele>
  <time>2026-09-02T20:50:47Z</time>
  <course>345.08</course>
  <speed>0.0</speed>
  <fix>3d</fix>
</trkpt>
<trkpt lat="40.0713752" lon="-105.2297883">
  <ele>1582.99</ele>
  <time>2026-09-02T20:50:47Z</time>
  <course>165.12</course>
  <speed>0.0</speed>
  <fix>3d</fix>
</trkpt>
<trkpt lat="40.0713752" lon="-105.2297883">
  <ele>1582.99</ele>
  <time>2026-09-02T20:50:47Z</time>
  <course>341.99</course>
  <speed>0.0</speed>
  <fix>3d</fix>
</trkpt>
<trkpt lat="40.0713752" lon="-105.2297883">
  <ele>1582.99</ele>
  <time>2026-09-02T20:50:47Z</time>
  <course>165.12</course>
  <speed>0.0</speed>
  <fix>3d</fix>
</trkpt>
<trkpt lat="40.0713752" lon="-105.2297883">
  <ele>1582.99</ele>
  <time>2026-09-02T20:50:47Z</time>
  <course>337.88</course>
  <speed>0.0</speed>
  <fix>3d</fix>
</trkpt>
<trkpt lat="40.0713752" lon="-105.2297883">
  <ele>1582.99</ele>
  <time>2026-09-02T20:50:47Z</time>
  <course>161.82</course>
  <speed>0.0</speed>
  <fix>3d</fix>
</trkpt>
<trkpt lat="40.0713752" lon="-105.2297883">
  <ele>1582.99</ele>
  <time>2026-09-02T20:50:47Z</time>
  <course>334.12</course>
  <speed>0.0</speed>
  <fix>3d</fix>
</trkpt>
<trkpt lat="40.0713752" lon="-105.2297883">
  <ele>1582.99</ele>
  <time>2026-09-02T20:50:47Z</time>
  <course>161.82</course>
  <speed>0.0</speed>
  <fix>3d</fix>
</trkpt>
<trkpt lat="40.0713752" lon="-105.2297883">
  <ele>1582.99</ele>
  <time>2026-09-02T20:50:47Z</time>
  <course>330.09</course>
  <speed>0.0</speed>
  <fix>3d</fix>
</trkpt>
<trkpt lat="40.0713752" lon="-105.2297883">
  <ele>1582.99</ele>
  <time>2026-09-02T20:50:47Z</time>
  <course>158.5</course>
  <speed>0.0</speed>
  <fix>3d</fix>
</trkpt>
<trkpt lat="40.0713752" lon="-105.2297883">
  <ele>1582.99</ele>
  <time>2026-09-02T20:50:47Z</time>
  <course>325.8</course>
  <speed>0.0</speed>
  <fix>3d</fix>
</trkpt>
<trkpt lat="40.0713752" lon="-105.2297883">
  <ele>1582.99</ele>
  <time>2026-09-02T20:50:47Z</time>
  <course>158.5</course>
  <speed>0.0</speed>
  <fix>3d</fix>
</trkpt>
<trkpt lat="40.0713752" lon="-105.2297883">
  <ele>1582.99</ele>
  <time>2026-09-02T20:50:47Z</time>
  <course>321.27</course>
  <speed>0.0</speed>
  <fix>3d</fix>
</trkpt>
<trkpt lat="40.0713752" lon="-105.2297883">
  <ele>1582.99</ele>
  <time>2026-09-02T20:50:47Z</time>
  <course>142.26</course>
  <speed>0.0</speed>
  <fix>3d</fix>
</trkpt>
<trkpt lat="40.0713752" lon="-105.2297883">
  <ele>1582.99</ele>
  <time>2026-09-02T20:50:47Z</time>
  <course>316.54</course>
  <speed>0.0</speed>
  <fix>3d</fix>
</trkpt>
<trkpt lat="40.0713752" lon="-105.2297883">
  <ele>1582.99</ele>
  <time>2026-09-02T20:50:47Z</time>
  <course>142.26</course>
  <speed>0.0</speed>
  <fix>3d</fix>
</trkpt>
<trkpt lat="40.0713752" lon="-105.2297883">
  <ele>1582.99</ele>
  <time>2026-09-02T20:50:47Z</time>
  <course>311.64</course>
  <speed>0.01414213562373095</speed>
  <fix>3d</fix>
</trkpt>
<trkpt lat="40.0713752" lon="-105.2297883">
  <ele>1582.99</ele>
  <time>2026-09-02T20:50:47Z</time>
  <course>133.64</course>
  <speed>0.01</speed>
  <fix>3d</fix>
</trkpt>
<trkpt lat="40.0713752" lon="-105.2297883">
  <ele>1582.99</ele>
  <time>2026-09-02T20:50:47Z</time>
  <course>306.62</course>
  <speed>0.0282842712474619</speed>
  <fix>3d</fix>
</trkpt>
<trkpt lat="40.0713752" lon="-105.2297883">
  <ele>1582.99</ele>
  <time>2026-09-02T20:50:47Z</time>
  <course>133.64</course>
  <speed>0.01</speed>
  <fix>3d</fix>
</trkpt>
<trkpt lat="40.0713752" lon="-105.2297883">
  <ele>1582.99</ele>
  <time>2026-09-02T20:50:47Z</time>
  <course>301.51</course>
  <speed>0.044721359549995794</speed>
  <fix>3d</fix>
</trkpt>
<trkpt lat="40.0713752" lon="-105.2297883">
  <ele>1582.99</ele>
  <time>2026-09-02T20:50:47Z</time>
  <course>292.78</course>
  <speed>0.01</speed>
  <fix>3d</fix>
</trkpt>
<trkpt lat="40.0713752" lon="-105.2297885">
  <ele>1582.99</ele>
  <time>2026-09-02T20:50:47Z</time>
  <course>296.37</course>
  <speed>0.12083045973594572</speed>
  <fix>3d</fix>
</trkpt>
<trkpt lat="40.0713752" lon="-105.2297883">
  <ele>1582.99</ele>
  <time>2026-09-02T20:50:47Z</time>
  <course>292.78</course>
  <speed>0.01</speed>
  <fix>3d</fix>
</trkpt>
<trkpt lat="40.0713752" lon="-105.2297885">
  <ele>1582.99</ele>
  <time>2026-09-02T20:50:47Z</time>
  <course>291.25</course>
  <speed>0.14866068747318506</speed>
  <fix>3d</fix>
</trkpt>
<trkpt lat="40.0713752" lon="-105.2297884">
  <ele>1582.99</ele>
  <time>2026-09-02T20:50:47Z</time>
  <course>294.44</course>
  <speed>0.09</speed>
  <fix>3d</fix>
</trkpt>
<trkpt lat="40.0713752" lon="-105.2297888">
  <ele>1582.99</ele>
  <time>2026-09-02T20:50:47Z</time>
  <course>287.15</course>
  <speed>0.21840329667841554</speed>
  <fix>3d</fix>
</trkpt>
<trkpt lat="40.0713752" lon="-105.2297884">
  <ele>1582.99</ele>
  <time>2026-09-02T20:50:47Z</time>
  <course>294.44</course>
  <speed>0.09</speed>
  <fix>3d</fix>
</trkpt>
<trkpt lat="40.0713753" lon="-105.229789">
  <ele>1582.99</ele>
  <time>2026-09-02T20:50:47Z</time>
  <course>282.14</course>
  <speed>0.26476404589747454</speed>
  <fix>3d</fix>
</trkpt>
<trkpt lat="40.0713752" lon="-105.2297888">
  <ele>1582.99</ele>
  <time>2026-09-02T20:50:47Z</time>
  <course>285.65</course>
  <speed>0.2</speed>
  <fix>3d</fix>
</trkpt>
<trkpt lat="40.0713754" lon="-105.2297894">
  <ele>1582.99</ele>
  <time>2026-09-02T20:50:47Z</time>
  <course>277.27</course>
  <speed>0.3423448553724738</speed>
  <fix>3d</fix>
</trkpt>
<trkpt lat="40.0713752" lon="-105.2297888">
  <ele>1582.99</ele>
  <time>2026-09-02T20:50:47Z</time>
  <course>285.65</course>
  <speed>0.2</speed>
  <fix>3d</fix>
</trkpt>
<trkpt lat="40.0713754" lon="-105.2297899">
  <ele>1582.99</ele>
  <time>2026-09-02T20:50:47Z</time>
  <course>272.53</course>
  <speed>0.37013511046643494</speed>
  <fix>3d</fix>
</trkpt>
<trkpt lat="40.0713753" lon="-105.2297895">
  <ele>1582.99</ele>
  <time>2026-09-02T20:50:47Z</time>
  <course>276.45</course>
  <speed>0.32</speed>
  <fix>3d</fix>
</trkpt>
<trkpt lat="40.0713754" lon="-105.2297902">
  <ele>1582.99</ele>
  <time>2026-09-02T20:50:47Z</time>
  <course>267.98</course>
  <speed>0.44011362169330775</speed>
  <fix>3d</fix>
</trkpt>
<trkpt lat="40.0713753" lon="-105.2297895">
  <ele>1582.99</ele>
  <time>2026-09-02T20:50:47Z</time>
  <course>276.45</course>
  <speed>0.32</speed>
  <fix>3d</fix>
</trkpt>
<trkpt lat="40.0713754" lon="-105.2297909">
  <ele>1582.99</ele>
  <time>2026-09-02T20:50:47Z</time>
  <course>263.63</course>
  <speed>0.4825971404805462</speed>
  <fix>3d</fix>
</trkpt>
<trkpt lat="40.0713754" lon="-105.2297904">
  <ele>1582.99</ele>
  <time>2026-09-02T20:50:47Z</time>
  <course>267.45</course>
  <speed>0.42</speed>
  <fix>3d</fix>
</trkpt>
<trkpt lat="40.0713754" lon="-105.2297914">
  <ele>1582.99</ele>
  <time>2026-09-02T20:50:47Z</time>
  <course>259.49</course>
  <speed>0.5277309920783505</speed>
  <fix>3d</fix>
</trkpt>
<trkpt lat="40.0713754" lon="-105.2297904">
  <ele>1582.99</ele>
  <time>2026-09-02T20:50:47Z</time>
  <course>267.45</course>
  <speed>0.42</speed>
  <fix>3d</fix>
</trkpt>
<trkpt lat="40.0713753" lon="-105.2297921">
  <ele>1582.99</ele>
  <time>2026-09-02T20:50:47Z</time>
  <course>255.61</course>
  <speed>0.5675385449465085</speed>
  <fix>3d</fix>
</trkpt>
<trkpt lat="40.0713753" lon="-105.2297915">
  <ele>1582.99</ele>
  <time>2026-09-02T20:50:47Z</time>
  <course>259.21</course>
  <speed>0.52</speed>
  <fix>3d</fix>
</trkpt>
<trkpt lat="40.0713751" lon="-105.2297928">
  <ele>1582.99</ele>
  <time>2026-09-02T20:50:47Z</time>
  <course>252.01</course>
  <speed>0.6198386886924694</speed>
  <fix>3d</fix>
</trkpt>
<trkpt lat="40.0713753" lon="-105.2297915">
  <ele>1582.99</ele>
  <time>2026-09-02T20:50:47Z</time>
  <course>259.21</course>
  <speed>0.52</speed>
  <fix>3d</fix>
</trkpt>
<trkpt lat="40.0713748" lon="-105.2297935">
  <ele>1582.99</ele>
  <time>2026-09-02T20:50:47Z</time>
  <course>248.68</course>
  <speed>0.6648308055437865</speed>
  <fix>3d</fix>
</trkpt>
<trkpt lat="40.0713751" lon="-105.2297928">
  <ele>1582.99</ele>
  <time>2026-09-02T20:50:47Z</time>
  <course>251.81</course>
  <speed>0.62</speed>
  <fix>3d</fix>
</trkpt>
<trkpt lat="40.0713746" lon="-105.2297943">
  <ele>1582.99</ele>
  <time>2026-09-02T20:50:47Z</time>
  <course>245.01</course>
  <speed>0.7249827584156744</speed>
  <fix>3d</fix>
</trkpt>
<trkpt lat="40.0713751" lon="-105.2297928">
  <ele>1582.99</ele>
  <time>2026-09-02T20:50:47Z</time>
  <course>251.81</course>
  <speed>0.62</speed>
  <fix>3d</fix>
</trkpt>
<trkpt lat="40.0713742" lon="-105.2297952">
  <ele>1582.99</ele>
  <time>2026-09-02T20:50:47Z</time>
  <course>242.22</course>
  <speed>0.7694153624668537</speed>
  <fix>3d</fix>
</trkpt>
<trkpt lat="40.0713746" lon="-105.2297943">
  <ele>1582.99</ele>
  <time>2026-09-02T20:50:47Z</time>
  <course>245.45</course>
  <speed>0.71</speed>
  <fix>3d</fix>
</trkpt>
<trkpt lat="40.071374" lon="-105.2297959">
  <ele>1582.99</ele>
  <time>2026-09-02T20:50:47Z</time>
  <course>239.67</course>
  <speed>0.8198780397107853</speed>
  <fix>3d</fix>
</trkpt>
<trkpt lat="40.0713746" lon="-105.2297943">
  <ele>1582.99</ele>
  <time>2026-09-02T20:50:47Z</time>
  <course>245.45</course>
  <speed>0.71</speed>
  <fix>3d</fix>
</trkpt>
<trkpt lat="40.0713736" lon="-105.2297969">
  <ele>1582.99</ele>
  <time>2026-09-02T20:50:47Z</time>
  <course>237.34</course>
  <speed>0.8682165628459296</speed>
  <fix>3d</fix>
</trkpt>
<trkpt lat="40.071374" lon="-105.2297959">
  <ele>1582.99</ele>
  <time>2026-09-02T20:50:47Z</time>
  <course>240.07</course>
  <speed>0.81</speed>
  <fix>3d</fix>
</trkpt>
<trkpt lat="40.071373" lon="-105.2297978">
  <ele>1582.99</ele>
  <time>2026-09-02T20:50:47Z</time>
  <course>235.21</course>
  <speed>0.8987213138676527</speed>
  <fix>3d</fix>
</trkpt>
<trkpt lat="40.071374" lon="-105.2297959">
  <ele>1582.99</ele>
  <time>2026-09-02T20:50:47Z</time>
  <course>240.07</course>
  <speed>0.81</speed>
  <fix>3d</fix>
</trkpt>
<trkpt lat="40.0713725" lon="-105.2297986">
  <ele>1582.99</ele>
  <time>2026-09-02T20:50:47Z</time>
  <course>233.26</course>
  <speed>0.9360021367496978</speed>
  <fix>3d</fix>
</trkpt>
<trkpt lat="40.0713731" lon="-105.2297976">
  <ele>1582.99</ele>
  <time>2026-09-02T20:50:47Z</time>
  <course>235.56</course>
  <speed>0.9</speed>
  <fix>3d</fix>
</trkpt>
<trkpt lat="40.0713721" lon="-105.2297995">
  <ele>1582.99</ele>
  <time>2026-09-02T20:50:47Z</time>
  <course>231.49</course>
  <speed>0.9604686356149272</speed>
  <fix>3d</fix>
</trkpt>
<trkpt lat="40.0713731" lon="-105.2297976">
  <ele>1582.99</ele>
  <time>2026-09-02T20:50:47Z</time>
  <course>235.56</course>
  <speed>0.9</speed>
  <fix>3d</fix>
</trkpt>
<trkpt lat="40.0713715" lon="-105.2298004">
  <ele>1582.99</ele>
  <time>2026-09-02T20:50:47Z</time>
  <course>229.87</course>
  <speed>0.9859513172565875</speed>
  <fix>3d</fix>
</trkpt>
<trkpt lat="40.0713722" lon="-105.2297993">
  <ele>1582.99</ele>
  <time>2026-09-02T20:50:47Z</time>
  <course>231.8</course>
  <speed>0.96</speed>
  <fix>3d</fix>
</trkpt>
<trkpt lat="40.071371" lon="-105.2298012">
  <ele>1582.99</ele>
  <time>2026-09-02T20:50:47Z</time>
  <course>228.39</course>
  <speed>1.00568384694197</speed>
  <fix>3d</fix>
</trkpt>
<trkpt lat="40.0713722" lon="-105.2297993">
  <ele>1582.99</ele>
  <time>2026-09-02T20:50:47Z</time>
  <course>231.8</course>
  <speed>0.96</speed>
  <fix>3d</fix>
</trkpt>
<trkpt lat="40.0713703" lon="-105.2298022">
  <ele>1582.99</ele>
  <time>2026-09-02T20:50:47Z</time>
  <course>227.03</course>
  <speed>1.0117806086301515</speed>
  <fix>3d</fix>
</trkpt>
<trkpt lat="40.0713711" lon="-105.2298011">
  <ele>1582.99</ele>
  <time>2026-09-02T20:50:47Z</time>
  <course>228.66</course>
  <speed>1.0</speed>
  <fix>3d</fix>
</trkpt>
<trkpt lat="40.0713697" lon="-105.2298031">
  <ele>1583.0</ele>
  <time>2026-09-02T20:50:47Z</time>
  <course>225.78</course>
  <speed>1.0041912168506553</speed>
  <fix>3d</fix>
</trkpt>
<trkpt lat="40.0713711" lon="-105.2298011">
  <ele>1582.99</ele>
  <time>2026-09-02T20:50:47Z</time>
  <course>228.66</course>
  <speed>1.0</speed>
  <fix>3d</fix>
</trkpt>
<trkpt lat="40.0713692" lon="-105.2298036">
  <ele>1583.0</ele>
  <time>2026-09-02T20:50:47Z</time>
  <course>224.83</course>
  <speed>0.9970456358662827</speed>
  <fix>3d</fix>
</trkpt>
<trkpt lat="40.0713698" lon="-105.2298028">
  <ele>1582.99</ele>
  <time>2026-09-02T20:50:47Z</time>
  <course>226.01</course>
  <speed>1.01</speed>
  <fix>3d</fix>
</trkpt>
<trkpt lat="40.0713686" lon="-105.2298046">
  <ele>1582.99</ele>
  <time>2026-09-02T20:50:47Z</time>
  <course>223.75</course>
  <speed>0.9689685237405805</speed>
  <fix>3d</fix>
</trkpt>
<trkpt lat="40.0713698" lon="-105.2298028">
  <ele>1582.99</ele>
  <time>2026-09-02T20:50:47Z</time>
  <course>226.01</course>
  <speed>1.01</speed>
  <fix>3d</fix>
</trkpt>
<trkpt lat="40.0713679" lon="-105.2298053">
  <ele>1582.99</ele>
  <time>2026-09-02T20:50:47Z</time>
  <course>222.76</course>
  <speed>0.95524865872714</speed>
  <fix>3d</fix>
</trkpt>
<trkpt lat="40.0713685" lon="-105.2298045">
  <ele>1582.99</ele>
  <time>2026-09-02T20:50:47Z</time>
  <course>223.77</course>
  <speed>0.98</speed>
  <fix>3d</fix>
</trkpt>
<trkpt lat="40.0713673" lon="-105.229806">
  <ele>1582.99</ele>
  <time>2026-09-02T20:50:47Z</time>
  <course>221.86</course>
  <speed>0.9209777413162601</speed>
  <fix>3d</fix>
</trkpt>
<trkpt lat="40.0713685" lon="-105.2298045">
  <ele>1582.99</ele>
  <time>2026-09-02T20:50:47Z</time>
  <course>223.77</course>
  <speed>0.98</speed>
  <fix>3d</fix>
</trkpt>
<trkpt lat="40.0713667" lon="-105.2298067">
  <ele>1582.99</ele>
  <time>2026-09-02T20:50:47Z</time>
  <course>221.04</course>
  <speed>0.9002777349240623</speed>
  <fix>3d</fix>
</trkpt>
<trkpt lat="40.0713673" lon="-105.229806">
  <ele>1582.99</ele>
  <time>2026-09-02T20:50:47Z</time>
  <course>221.87</course>
  <speed>0.93</speed>
  <fix>3d</fix>
</trkpt>
<trkpt lat="40.0713661" lon="-105.2298074">
  <ele>1582.99</ele>
  <time>2026-09-02T20:50:47Z</time>
  <course>220.31</course>
  <speed>0.8796590248499698</speed>
  <fix>3d</fix>
</trkpt>
<trkpt lat="40.0713673" lon="-105.229806">
  <ele>1582.99</ele>
  <time>2026-09-02T20:50:47Z</time>
  <course>221.87</course>
  <speed>0.93</speed>
  <fix>3d</fix>
</trkpt>
<trkpt lat="40.0713655" lon="-105.2298081">
  <ele>1582.99</ele>
  <time>2026-09-02T20:50:47Z</time>
  <course>219.66</course>
  <speed>0.8668333173107734</speed>
  <fix>3d</fix>
</trkpt>
<trkpt lat="40.0713661" lon="-105.2298074">
  <ele>1582.99</ele>
  <time>2026-09-02T20:50:47Z</time>
  <course>220.31</course>
  <speed>0.89</speed>
  <fix>3d</fix>
</trkpt>
<trkpt lat="40.0713649" lon="-105.2298088">
  <ele>1582.99</ele>
  <time>2026-09-02T20:50:47Z</time>
  <course>219.07</course>
  <speed>0.8386894538504702</speed>
  <fix>3d</fix>
</trkpt>
<trkpt lat="40.0713661" lon="-105.2298074">
  <ele>1582.99</ele>
  <time>2026-09-02T20:50:47Z</time>
  <course>220.31</course>
  <speed>0.89</speed>
  <fix>3d</fix>
</trkpt>
<trkpt lat="40.0713643" lon="-105.2298093">
  <ele>1582.99</ele>
  <time>2026-09-02T20:50:47Z</time>
  <course>218.56</course>
  <speed>0.8542833253669417</speed>
  <fix>3d</fix>
</trkpt>
<trkpt lat="40.0713649" lon="-105.2298087">
  <ele>1582.99</ele>
  <time>2026-09-02T20:50:47Z</time>
  <course>219.06</course>
  <speed>0.86</speed>
  <fix>3d</fix>
</trkpt>
<trkpt lat="40.0713637" lon="-105.22981">
  <ele>1582.99</ele>
  <time>2026-09-02T20:50:47Z</time>
  <course>218.12</course>
  <speed>0.8402380615040002</speed>
  <fix>3d</fix>
</trkpt>
<trkpt lat="40.0713649" lon="-105.2298087">
  <ele>1582.99</ele>
  <time>2026-09-02T20:50:47Z</time>
  <course>219.06</course>
  <speed>0.86</speed>
  <fix>3d</fix>
</trkpt>
<trkpt lat="40.071363" lon="-105.2298107">
  <ele>1582.99</ele>
  <time>2026-09-02T20:50:47Z</time>
  <course>217.67</course>
  <speed>0.8481155581640983</speed>
  <fix>3d</fix>
</trkpt>
<trkpt lat="40.0713637" lon="-105.2298099">
  <ele>1582.99</ele>
  <time>2026-09-02T20:50:47Z</time>
  <course>218.1</course>
  <speed>0.85</speed>
  <fix>3d</fix>
</trkpt>
<trkpt lat="40.0713622" lon="-105.2298113">
  <ele>1582.99</ele>
  <time>2026-09-02T20:50:47Z</time>
  <course>217.37</course>
  <speed>0.8420213774008353</speed>
  <fix>3d</fix>
</trkpt>
<trkpt lat="40.0713637" lon="-105.2298099">
  <ele>1582.99</ele>
  <time>2026-09-02T20:50:47Z</time>
  <course>218.1</course>
  <speed>0.85</speed>
  <fix>3d</fix>
</trkpt>
<trkpt lat="40.0713617" lon="-105.229812">
  <ele>1582.99</ele>
  <time>2026-09-02T20:50:47Z</time>
  <course>217.12</course>
  <speed>0.85</speed>
  <fix>3d</fix>
</trkpt>
<trkpt lat="40.0713625" lon="-105.2298112">
  <ele>1582.99</ele>
  <time>2026-09-02T20:50:47Z</time>
  <course>217.4</course>
  <speed>0.85</speed>
  <fix>3d</fix>
</trkpt>
<trkpt lat="40.0713611" lon="-105.2298125">
  <ele>1582.99</ele>
  <time>2026-09-02T20:50:47Z</time>
  <course>216.93</course>
  <speed>0.8640023148117139</speed>
  <fix>3d</fix>
</trkpt>
<trkpt lat="40.0713625" lon="-105.2298112">
  <ele>1582.99</ele>
  <time>2026-09-02T20:50:47Z</time>
  <course>217.4</course>
  <speed>0.85</speed>
  <fix>3d</fix>
</trkpt>
<trkpt lat="40.0713605" lon="-105.2298132">
  <ele>1582.99</ele>
  <time>2026-09-02T20:50:47Z</time>
  <course>216.79</course>
  <speed>0.8720091742636655</speed>
  <fix>3d</fix>
</trkpt>
<trkpt lat="40.0713612" lon="-105.2298124">
  <ele>1582.99</ele>
  <time>2026-09-02T20:50:47Z</time>
  <course>216.94</course>
  <speed>0.86</speed>
  <fix>3d</fix>
</trkpt>
<trkpt lat="40.0713597" lon="-105.2298138">
  <ele>1582.99</ele>
  <time>2026-09-02T20:50:47Z</time>
  <course>216.7</course>
  <speed>0.880056816347672</speed>
  <fix>3d</fix>
</trkpt>
<trkpt lat="40.0713612" lon="-105.2298124">
  <ele>1582.99</ele>
  <time>2026-09-02T20:50:47Z</time>
  <course>216.94</course>
  <speed>0.86</speed>
  <fix>3d</fix>
</trkpt>
<trkpt lat="40.0713591" lon="-105.2298144">
  <ele>1582.99</ele>
  <time>2026-09-02T20:50:47Z</time>
  <course>216.65</course>
  <speed>0.8860022573334675</speed>
  <fix>3d</fix>
</trkpt>
<trkpt lat="40.0713599" lon="-105.2298136">
  <ele>1582.99</ele>
  <time>2026-09-02T20:50:47Z</time>
  <course>216.68</course>
  <speed>0.88</speed>
  <fix>3d</fix>
</trkpt>
<trkpt lat="40.0713585" lon="-105.2298151">
  <ele>1582.99</ele>
  <time>2026-09-02T20:50:47Z</time>
  <course>216.64</course>
  <speed>0.8860022573334675</speed>
  <fix>3d</fix>
</trkpt>
<trkpt lat="40.0713599" lon="-105.2298136">
  <ele>1582.99</ele>
  <time>2026-09-02T20:50:47Z</time>
  <course>216.68</course>
  <speed>0.88</speed>
  <fix>3d</fix>
</trkpt>
<trkpt lat="40.0713578" lon="-105.2298156">
  <ele>1582.99</ele>
  <time>2026-09-02T20:50:47Z</time>
  <course>216.67</course>
  <speed>0.9</speed>
  <fix>3d</fix>
</trkpt>
<trkpt lat="40.0713586" lon="-105.2298149">
  <ele>1582.99</ele>
  <time>2026-09-02T20:50:47Z</time>
  <course>216.61</course>
  <speed>0.89</speed>
  <fix>3d</fix>
</trkpt>
<trkpt lat="40.0713572" lon="-105.2298163">
  <ele>1582.99</ele>
  <time>2026-09-02T20:50:47Z</time>
  <course>216.74</course>
  <speed>0.9080198235721508</speed>
  <fix>3d</fix>
</trkpt>
<trkpt lat="40.0713586" lon="-105.2298149">
  <ele>1582.99</ele>
  <time>2026-09-02T20:50:47Z</time>
  <course>216.61</course>
  <speed>0.89</speed>
  <fix>3d</fix>
</trkpt>
<trkpt lat="40.0713566" lon="-105.229817">
  <ele>1582.99</ele>
  <time>2026-09-02T20:50:47Z</time>
  <course>216.85</course>
  <speed>0.9080198235721508</speed>
  <fix>3d</fix>
</trkpt>
<trkpt lat="40.0713573" lon="-105.2298162">
  <ele>1582.99</ele>
  <time>2026-09-02T20:50:47Z</time>
  <course>216.7</course>
  <speed>0.9</speed>
  <fix>3d</fix>
</trkpt>
<trkpt lat="40.071356" lon="-105.2298175">
  <ele>1582.99</ele>
  <time>2026-09-02T20:50:47Z</time>
  <course>216.95</course>
  <speed>0.9140021881811882</speed>
  <fix>3d</fix>
</trkpt>
<trkpt lat="40.0713573" lon="-105.2298162">
  <ele>1582.99</ele>
  <time>2026-09-02T20:50:47Z</time>
  <course>216.7</course>
  <speed>0.9</speed>
  <fix>3d</fix>
</trkpt>
<trkpt lat="40.0713554" lon="-105.229818">
  <ele>1582.99</ele>
  <time>2026-09-02T20:50:47Z</time>
  <course>217.11</course>
  <speed>0.9140021881811882</speed>
  <fix>3d</fix>
</trkpt>
<trkpt lat="40.071356" lon="-105.2298175">
  <ele>1582.99</ele>
  <time>2026-09-02T20:50:47Z</time>
  <course>216.92</course>
  <speed>0.91</speed>
  <fix>3d</fix>
</trkpt>
<trkpt lat="40.0713547" lon="-105.2298187">
  <ele>1582.99</ele>
  <time>2026-09-02T20:50:47Z</time>
  <course>217.3</course>
  <speed>0.9200543462209175</speed>
  <fix>3d</fix>
</trkpt>
<trkpt lat="40.071356" lon="-105.2298175">
  <ele>1582.99</ele>
  <time>2026-09-02T20:50:47Z</time>
  <course>216.92</course>
  <speed>0.91</speed>
  <fix>3d</fix>
</trkpt>
<trkpt lat="40.0713541" lon="-105.2298194">
  <ele>1582.99</ele>
  <time>2026-09-02T20:50:47Z</time>
  <course>217.51</course>
  <speed>0.9200543462209175</speed>
  <fix>3d</fix>
</trkpt>
<trkpt lat="40.0713547" lon="-105.2298187">
  <ele>1582.99</ele>
  <time>2026-09-02T20:50:47Z</time>
  <course>217.26</course>
  <speed>0.92</speed>
  <fix>3d</fix>
</trkpt>
<trkpt lat="40.0713534" lon="-105.2298201">
  <ele>1582.99</ele>
  <time>2026-09-02T20:50:47Z</time>
  <course>217.75</course>
  <speed>0.9200543462209175</speed>
  <fix>3d</fix>
</trkpt>
<trkpt lat="40.0713547" lon="-105.2298187">
  <ele>1582.99</ele>
  <time>2026-09-02T20:50:47Z</time>
  <course>217.26</course>
  <speed>0.92</speed>
  <fix>3d</fix>
</trkpt>
<trkpt lat="40.0713528" lon="-105.2298208">
  <ele>1582.99</ele>
  <time>2026-09-02T20:50:47Z</time>
  <course>218.0</course>
  <speed>0.9121403400793103</speed>
  <fix>3d</fix>
</trkpt>
<trkpt lat="40.0713534" lon="-105.2298201">
  <ele>1582.99</ele>
  <time>2026-09-02T20:50:47Z</time>
  <course>217.71</course>
  <speed>0.92</speed>
  <fix>3d</fix>
</trkpt>
<trkpt lat="40.0713521" lon="-105.2298215">
  <ele>1582.99</ele>
  <time>2026-09-02T20:50:47Z</time>
  <course>218.27</course>
  <speed>0.918313671900838</speed>
  <fix>3d</fix>
</trkpt>
<trkpt lat="40.0713534" lon="-105.2298201">
  <ele>1582.99</ele>
  <time>2026-09-02T20:50:47Z</time>
  <course>217.71</course>
  <speed>0.92</speed>
  <fix>3d</fix>
</trkpt>
<trkpt lat="40.0713515" lon="-105.229822">
  <ele>1582.99</ele>
  <time>2026-09-02T20:50:47Z</time>
  <course>218.56</course>
  <speed>0.918313671900838</speed>
  <fix>3d</fix>
</trkpt>
<trkpt lat="40.0713521" lon="-105.2298214">
  <ele>1582.99</ele>
  <time>2026-09-02T20:50:47Z</time>
  <course>218.24</course>
  <speed>0.92</speed>
  <fix>3d</fix>
</trkpt>
<trkpt lat="40.0713508" lon="-105.2298227">
  <ele>1582.99</ele>
  <time>2026-09-02T20:50:47Z</time>
  <course>218.87</course>
  <speed>0.9245539465060976</speed>
  <fix>3d</fix>
</trkpt>
<trkpt lat="40.0713521" lon="-105.2298214">
  <ele>1582.99</ele>
  <time>2026-09-02T20:50:47Z</time>
  <course>218.24</course>
  <speed>0.92</speed>
  <fix>3d</fix>
</trkpt>
<trkpt lat="40.0713502" lon="-105.2298235">
  <ele>1582.99</ele>
  <time>2026-09-02T20:50:47Z</time>
  <course>219.18</course>
  <speed>0.930859817588019</speed>
  <fix>3d</fix>
</trkpt>
<trkpt lat="40.0713508" lon="-105.2298227">
  <ele>1582.99</ele>
  <time>2026-09-02T20:50:47Z</time>
  <course>218.83</course>
  <speed>0.93</speed>
  <fix>3d</fix>
</trkpt>
<trkpt lat="40.0713493" lon="-105.2298242">
  <ele>1582.99</ele>
  <time>2026-09-02T20:50:47Z</time>
  <course>219.58</course>
  <speed>0.930859817588019</speed>
  <fix>3d</fix>
</trkpt>
<trkpt lat="40.0713508" lon="-105.2298227">
  <ele>1582.99</ele>
  <time>2026-09-02T20:50:47Z</time>
  <course>218.83</course>
  <speed>0.93</speed>
  <fix>3d</fix>
</trkpt>
<trkpt lat="40.0713487" lon="-105.2298249">
  <ele>1582.99</ele>
  <time>2026-09-02T20:50:47Z</time>
  <course>219.91</course>
  <speed>0.9231467922275417</speed>
  <fix>3d</fix>
</trkpt>
<trkpt lat="40.0713495" lon="-105.2298242">
  <ele>1582.99</ele>
  <time>2026-09-02T20:50:47Z</time>
  <course>219.47</course>
  <speed>0.93</speed>
  <fix>3d</fix>
</trkpt>
<trkpt lat="40.0713481" lon="-105.2298256">
  <ele>1582.99</ele>
  <time>2026-09-02T20:50:47Z</time>
  <course>220.26</course>
  <speed>0.9436630754670864</speed>
  <fix>3d</fix>
</trkpt>
<trkpt lat="40.0713495" lon="-105.2298242">
  <ele>1582.99</ele>
  <time>2026-09-02T20:50:47Z</time>
  <course>219.47</course>
  <speed>0.93</speed>
  <fix>3d</fix>
</trkpt>
<trkpt lat="40.0713474" lon="-105.2298265">
  <ele>1582.99</ele>
  <time>2026-09-02T20:50:47Z</time>
  <course>220.62</course>
  <speed>0.9360555539069249</speed>
  <fix>3d</fix>
</trkpt>
<trkpt lat="40.0713482" lon="-105.2298256">
  <ele>1582.99</ele>
  <time>2026-09-02T20:50:47Z</time>
  <course>220.16</course>
  <speed>0.93</speed>
  <fix>3d</fix>
</trkpt>
<trkpt lat="40.0713468" lon="-105.2298271">
  <ele>1582.99</ele>
  <time>2026-09-02T20:50:47Z</time>
  <course>220.97</course>
  <speed>0.9426027795418386</speed>
  <fix>3d</fix>
</trkpt>
<trkpt lat="40.0713482" lon="-105.2298256">
  <ele>1582.99</ele>
  <time>2026-09-02T20:50:47Z</time>
  <course>220.16</course>
  <speed>0.93</speed>
  <fix>3d</fix>
</trkpt>
<trkpt lat="40.0713462" lon="-105.2298278">
  <ele>1582.99</ele>
  <time>2026-09-02T20:50:47Z</time>
  <course>221.33</course>
  <speed>0.9426027795418386</speed>
  <fix>3d</fix>
</trkpt>
<trkpt lat="40.0713469" lon="-105.229827">
  <ele>1582.99</ele>
  <time>2026-09-02T20:50:47Z</time>
  <course>220.87</course>
  <speed>0.94</speed>
  <fix>3d</fix>
</trkpt>
<trkpt lat="40.0713455" lon="-105.2298287">
  <ele>1582.99</ele>
  <time>2026-09-02T20:50:47Z</time>
  <course>221.69</course>
  <speed>0.9417536832951597</speed>
  <fix>3d</fix>
</trkpt>
<trkpt lat="40.0713469" lon="-105.229827">
  <ele>1582.99</ele>
  <time>2026-09-02T20:50:47Z</time>
  <course>220.87</course>
  <speed>0.94</speed>
  <fix>3d</fix>
</trkpt>
<trkpt lat="40.0713449" lon="-105.2298294">
  <ele>1582.99</ele>
  <time>2026-09-02T20:50:48Z</time>
  <course>222.05</course>
  <speed>0.9417536832951597</speed>
  <fix>3d</fix>
</trkpt>
<trkpt lat="40.0713456" lon="-105.2298285">
  <ele>1582.99</ele>
  <time>2026-09-02T20:50:48Z</time>
  <course>221.58</course>
  <speed>0.95</speed>
  <fix>3d</fix>
</trkpt>
<trkpt lat="40.0713442" lon="-105.2298302">
  <ele>1582.99</ele>
  <time>2026-09-02T20:50:48Z</time>
  <course>222.41</course>
  <speed>0.94847245611035</speed>
  <fix>3d</fix>
</trkpt>
<trkpt lat="40.0713456" lon="-105.2298285">
  <ele>1582.99</ele>
  <time>2026-09-02T20:50:48Z</time>
  <course>221.58</course>
  <speed>0.95</speed>
  <fix>3d</fix>
</trkpt>
<trkpt lat="40.0713436" lon="-105.2298309">
  <ele>1582.99</ele>
  <time>2026-09-02T20:50:48Z</time>
  <course>222.76</course>
  <speed>0.94847245611035</speed>
  <fix>3d</fix>
</trkpt>
<trkpt lat="40.0713443" lon="-105.22983">
  <ele>1582.99</ele>
  <time>2026-09-02T20:50:48Z</time>
  <course>222.3</course>
  <speed>0.95</speed>
  <fix>3d</fix>
</trkpt>
<trkpt lat="40.071343" lon="-105.2298316">
  <ele>1582.99</ele>
  <time>2026-09-02T20:50:48Z</time>
  <course>223.12</course>
  <speed>0.9479451460923254</speed>
  <fix>3d</fix>
</trkpt>
<trkpt lat="40.0713443" lon="-105.22983">
  <ele>1582.99</ele>
  <time>2026-09-02T20:50:48Z</time>
  <course>222.3</course>
  <speed>0.95</speed>
  <fix>3d</fix>
</trkpt>
<trkpt lat="40.0713425" lon="-105.2298323">
  <ele>1582.99</ele>
  <time>2026-09-02T20:50:48Z</time>
  <course>223.41</course>
  <speed>0.954829827770373</speed>
  <fix>3d</fix>
</trkpt>
<trkpt lat="40.0713431" lon="-105.2298315">
  <ele>1582.99</ele>
  <time>2026-09-02T20:50:48Z</time>
  <course>223.02</course>
  <speed>0.95</speed>
  <fix>3d</fix>
</trkpt>
<trkpt lat="40.0713418" lon="-105.229833">
  <ele>1582.99</ele>
  <time>2026-09-02T20:50:48Z</time>
  <course>223.75</course>
  <speed>0.954829827770373</speed>
  <fix>3d</fix>
</trkpt>
<trkpt lat="40.0713431" lon="-105.2298315">
  <ele>1582.99</ele>
  <time>2026-09-02T20:50:48Z</time>
  <course>223.02</course>
  <speed>0.95</speed>
  <fix>3d</fix>
</trkpt>
<trkpt lat="40.0713412" lon="-105.2298338">
  <ele>1582.99</ele>
  <time>2026-09-02T20:50:48Z</time>
  <course>224.09</course>
  <speed>0.9617692030835673</speed>
  <fix>3d</fix>
</trkpt>
<trkpt lat="40.0713418" lon="-105.229833">
  <ele>1582.99</ele>
  <time>2026-09-02T20:50:48Z</time>
  <course>223.72</course>
  <speed>0.96</speed>
  <fix>3d</fix>
</trkpt>
<trkpt lat="40.0713406" lon="-105.2298347">
  <ele>1582.99</ele>
  <time>2026-09-02T20:50:48Z</time>
  <course>224.43</course>
  <speed>0.9546203433826455</speed>
  <fix>3d</fix>
</trkpt>
<trkpt lat="40.0713418" lon="-105.229833">
  <ele>1582.99</ele>
  <time>2026-09-02T20:50:48Z</time>
  <course>223.72</course>
  <speed>0.96</speed>
  <fix>3d</fix>
</trkpt>
<trkpt lat="40.07134" lon="-105.2298354">
  <ele>1582.99</ele>
  <time>2026-09-02T20:50:48Z</time>
  <course>224.76</course>
  <speed>0.9616652224137046</speed>
  <fix>3d</fix>
</trkpt>
<trkpt lat="40.0713406" lon="-105.2298346">
  <ele>1582.99</ele>
  <time>2026-09-02T20:50:48Z</time>
  <course>224.39</course>
  <speed>0.96</speed>
  <fix>3d</fix>
</trkpt>
<trkpt lat="40.0713394" lon="-105.2298363">
  <ele>1582.99</ele>
  <time>2026-09-02T20:50:48Z</time>
  <course>225.08</course>
  <speed>0.9616652224137046</speed>
  <fix>3d</fix>
</trkpt>
<trkpt lat="40.0713406" lon="-105.2298346">
  <ele>1582.99</ele>
  <time>2026-09-02T20:50:48Z</time>
  <course>224.39</course>
  <speed>0.96</speed>
  <fix>3d</fix>
</trkpt>
<trkpt lat="40.0713388" lon="-105.2298371">
  <ele>1582.99</ele>
  <time>2026-09-02T20:50:48Z</time>
  <course>225.4</course>
  <speed>0.9546203433826455</speed>
  <fix>3d</fix>
</trkpt>
<trkpt lat="40.0713394" lon="-105.2298362">
  <ele>1582.99</ele>
  <time>2026-09-02T20:50:48Z</time>
  <course>225.05</course>
  <speed>0.96</speed>
  <fix>3d</fix>
</trkpt>
<trkpt lat="40.0713381" lon="-105.2298378">
  <ele>1582.99</ele>
  <time>2026-09-02T20:50:48Z</time>
  <course>225.71</course>
  <speed>0.9687620966986684</speed>
  <fix>3d</fix>
</trkpt>
<trkpt lat="40.0713394" lon="-105.2298362">
  <ele>1582.99</ele>
  <time>2026-09-02T20:50:48Z</time>
  <course>225.05</course>
  <speed>0.96</speed>
  <fix>3d</fix>
</trkpt>
<trkpt lat="40.0713375" lon="-105.2298387">
  <ele>1582.99</ele>
  <time>2026-09-02T20:50:48Z</time>
  <course>226.01</course>
  <speed>0.9617692030835673</speed>
  <fix>3d</fix>
</trkpt>
<trkpt lat="40.0713381" lon="-105.2298379">
  <ele>1582.99</ele>
  <time>2026-09-02T20:50:48Z</time>
  <course>225.67</course>
  <speed>0.96</speed>
  <fix>3d</fix>
</trkpt>
<trkpt lat="40.0713369" lon="-105.2298395">
  <ele>1582.99</ele>
  <time>2026-09-02T20:50:48Z</time>
  <course>226.3</course>
  <speed>0.9689685237405805</speed>
  <fix>3d</fix>
</trkpt>
<trkpt lat="40.0713381" lon="-105.2298379">
  <ele>1582.99</ele>
  <time>2026-09-02T20:50:48Z</time>
  <course>225.67</course>
  <speed>0.96</speed>
  <fix>3d</fix>
</trkpt>
<trkpt lat="40.0713362" lon="-105.2298405">
  <ele>1582.99</ele>
  <time>2026-09-02T20:50:48Z</time>
  <course>226.64</course>
  <speed>0.9620810776644555</speed>
  <fix>3d</fix>
</trkpt>
<trkpt lat="40.0713369" lon="-105.2298395">
  <ele>1582.99</ele>
  <time>2026-09-02T20:50:48Z</time>
  <course>226.27</course>
  <speed>0.96</speed>
  <fix>3d</fix>
</trkpt>
<trkpt lat="40.0713356" lon="-105.2298412">
  <ele>1582.99</ele>
  <time>2026-09-02T20:50:48Z</time>
  <course>226.91</course>
  <speed>0.9693812459502195</speed>
  <fix>3d</fix>
</trkpt>
<trkpt lat="40.0713369" lon="-105.2298395">
  <ele>1582.99</ele>
  <time>2026-09-02T20:50:48Z</time>
  <course>226.27</course>
  <speed>0.96</speed>
  <fix>3d</fix>
</trkpt>
<trkpt lat="40.071335" lon="-105.2298421">
  <ele>1582.99</ele>
  <time>2026-09-02T20:50:48Z</time>
  <course>227.18</course>
  <speed>0.9693812459502195</speed>
  <fix>3d</fix>
</trkpt>
<trkpt lat="40.0713357" lon="-105.2298411">
  <ele>1582.99</ele>
  <time>2026-09-02T20:50:48Z</time>
  <course>226.82</course>
  <speed>0.97</speed>
  <fix>3d</fix>
</trkpt>
<trkpt lat="40.0713344" lon="-105.2298429">
  <ele>1582.99</ele>
  <time>2026-09-02T20:50:48Z</time>
  <course>227.43</course>
  <speed>0.9693812459502195</speed>
  <fix>3d</fix>
</trkpt>
<trkpt lat="40.0713357" lon="-105.2298411">
  <ele>1582.99</ele>
  <time>2026-09-02T20:50:48Z</time>
  <course>226.82</course>
  <speed>0.97</speed>
  <fix>3d</fix>
</trkpt>
<trkpt lat="40.0713338" lon="-105.2298438">
  <ele>1582.99</ele>
  <time>2026-09-02T20:50:48Z</time>
  <course>227.67</course>
  <speed>0.97</speed>
  <fix>3d</fix>
</trkpt>
<trkpt lat="40.0713345" lon="-105.2298428">
  <ele>1582.99</ele>
  <time>2026-09-02T20:50:48Z</time>
  <course>227.35</course>
  <speed>0.97</speed>
  <fix>3d</fix>
</trkpt>
<trkpt lat="40.0713332" lon="-105.2298447">
  <ele>1582.99</ele>
  <time>2026-09-02T20:50:48Z</time>
  <course>227.9</course>
  <speed>0.97</speed>
  <fix>3d</fix>
</trkpt>
<trkpt lat="40.0713345" lon="-105.2298428">
  <ele>1582.99</ele>
  <time>2026-09-02T20:50:48Z</time>
  <course>227.35</course>
  <speed>0.97</speed>
  <fix>3d</fix>
</trkpt>
<trkpt lat="40.0713327" lon="-105.2298455">
  <ele>1582.99</ele>
  <time>2026-09-02T20:50:48Z</time>
  <course>228.12</course>
  <speed>0.97</speed>
  <fix>3d</fix>
</trkpt>
<trkpt lat="40.0713333" lon="-105.2298445">
  <ele>1582.99</ele>
  <time>2026-09-02T20:50:48Z</time>
  <course>227.83</course>
  <speed>0.97</speed>
  <fix>3d</fix>
</trkpt>
<trkpt lat="40.0713321" lon="-105.2298464">
  <ele>1582.99</ele>
  <time>2026-09-02T20:50:48Z</time>
  <course>228.33</course>
  <speed>0.9774456506629922</speed>
  <fix>3d</fix>
</trkpt>
<trkpt lat="40.0713333" lon="-105.2298445">
  <ele>1582.99</ele>
  <time>2026-09-02T20:50:48Z</time>
  <course>227.83</course>
  <speed>0.97</speed>
  <fix>3d</fix>
</trkpt>
<trkpt lat="40.0713315" lon="-105.2298472">
  <ele>1582.99</ele>
  <time>2026-09-02T20:50:48Z</time>
  <course>228.54</course>
  <speed>0.9774456506629922</speed>
  <fix>3d</fix>
</trkpt>
<trkpt lat="40.0713322" lon="-105.2298462">
  <ele>1582.99</ele>
  <time>2026-09-02T20:50:48Z</time>
  <course>228.26</course>
  <speed>0.97</speed>
  <fix>3d</fix>
</trkpt>
<trkpt lat="40.0713309" lon="-105.2298481">
  <ele>1582.99</ele>
  <time>2026-09-02T20:50:48Z</time>
  <course>228.73</course>
  <speed>0.97082439194738</speed>
  <fix>3d</fix>
</trkpt>
<trkpt lat="40.0713322" lon="-105.2298462">
  <ele>1582.99</ele>
  <time>2026-09-02T20:50:48Z</time>
  <course>228.26</course>
  <speed>0.97</speed>
  <fix>3d</fix>
</trkpt>
<trkpt lat="40.0713303" lon="-105.229849">
  <ele>1582.99</ele>
  <time>2026-09-02T20:50:48Z</time>
  <course>228.91</course>
  <speed>0.97082439194738</speed>
  <fix>3d</fix>
</trkpt>
<trkpt lat="40.071331" lon="-105.2298479">
  <ele>1582.99</ele>
  <time>2026-09-02T20:50:48Z</time>
  <course>228.66</course>
  <speed>0.97</speed>
  <fix>3d</fix>
</trkpt>
<trkpt lat="40.0713298" lon="-105.2298496">
  <ele>1582.99</ele>
  <time>2026-09-02T20:50:48Z</time>
  <course>229.04</course>
  <speed>0.9783659846908007</speed>
  <fix>3d</fix>
</trkpt>
<trkpt lat="40.071331" lon="-105.2298479">
  <ele>1582.99</ele>
  <time>2026-09-02T20:50:48Z</time>
  <course>228.66</course>
  <speed>0.97</speed>
  <fix>3d</fix>
</trkpt>
<trkpt lat="40.0713292" lon="-105.2298505">
  <ele>1582.99</ele>
  <time>2026-09-02T20:50:48Z</time>
  <course>229.21</course>
  <speed>0.9783659846908007</speed>
  <fix>3d</fix>
</trkpt>
<trkpt lat="40.0713298" lon="-105.2298496">
  <ele>1582.99</ele>
  <time>2026-09-02T20:50:48Z</time>
  <course>229.02</course>
  <speed>0.97</speed>
  <fix>3d</fix>
</trkpt>
<trkpt lat="40.0713286" lon="-105.2298515">
  <ele>1582.99</ele>
  <time>2026-09-02T20:50:48Z</time>
  <course>229.37</course>
  <speed>0.9718538984847466</speed>
  <fix>3d</fix>
</trkpt>
<trkpt lat="40.0713298" lon="-105.2298496">
  <ele>1582.99</ele>
  <time>2026-09-02T20:50:48Z</time>
  <course>229.02</course>
  <speed>0.97</speed>
  <fix>3d</fix>
</trkpt>
<trkpt lat="40.071328" lon="-105.2298522">
  <ele>1582.99</ele>
  <time>2026-09-02T20:50:48Z</time>
  <course>229.51</course>
  <speed>0.9859513172565875</speed>
  <fix>3d</fix>
</trkpt>
<trkpt lat="40.0713286" lon="-105.2298514">
  <ele>1582.99</ele>
  <time>2026-09-02T20:50:48Z</time>
  <course>229.34</course>
  <speed>0.98</speed>
  <fix>3d</fix>
</trkpt>
<trkpt lat="40.0713275" lon="-105.2298531">
  <ele>1582.99</ele>
  <time>2026-09-02T20:50:48Z</time>
  <course>229.65</course>
  <speed>0.9718538984847466</speed>
  <fix>3d</fix>
</trkpt>
<trkpt lat="40.0713286" lon="-105.2298514">
  <ele>1582.99</ele>
  <time>2026-09-02T20:50:48Z</time>
  <course>229.34</course>
  <speed>0.98</speed>
  <fix>3d</fix>
</trkpt>
<trkpt lat="40.0713269" lon="-105.2298541">
  <ele>1582.99</ele>
  <time>2026-09-02T20:50:48Z</time>
  <course>229.77</course>
  <speed>0.9794896630388705</speed>
  <fix>3d</fix>
</trkpt>
<trkpt lat="40.0713275" lon="-105.2298531">
  <ele>1582.99</ele>
  <time>2026-09-02T20:50:48Z</time>
  <course>229.61</course>
  <speed>0.98</speed>
  <fix>3d</fix>
</trkpt>
<trkpt lat="40.0713263" lon="-105.229855">
  <ele>1582.99</ele>
  <time>2026-09-02T20:50:48Z</time>
  <course>229.88</course>
  <speed>0.9794896630388705</speed>
  <fix>3d</fix>
</trkpt>
<trkpt lat="40.0713275" lon="-105.2298531">
  <ele>1582.99</ele>
  <time>2026-09-02T20:50:48Z</time>
  <course>229.61</course>
  <speed>0.98</speed>
  <fix>3d</fix>
</trkpt>
<trkpt lat="40.0713257" lon="-105.2298558">
  <ele>1582.99</ele>
  <time>2026-09-02T20:50:48Z</time>
  <course>229.99</course>
  <speed>0.9794896630388705</speed>
  <fix>3d</fix>
</trkpt>
<trkpt lat="40.0713263" lon="-105.2298549">
  <ele>1582.99</ele>
  <time>2026-09-02T20:50:48Z</time>
  <course>229.85</course>
  <speed>0.98</speed>
  <fix>3d</fix>
</trkpt>
<trkpt lat="40.0713253" lon="-105.2298567">
  <ele>1582.99</ele>
  <time>2026-09-02T20:50:48Z</time>
  <course>230.09</course>
  <speed>0.9730878685915265</speed>
  <fix>3d</fix>
</trkpt>
<trkpt lat="40.0713263" lon="-105.2298549">
  <ele>1582.99</ele>
  <time>2026-09-02T20:50:48Z</time>
  <course>229.85</course>
  <speed>0.98</speed>
  <fix>3d</fix>
</trkpt>
<trkpt lat="40.0713245" lon="-105.2298577">
  <ele>1582.99</ele>
  <time>2026-09-02T20:50:48Z</time>
  <course>230.19</course>
  <speed>0.9871676655968833</speed>
  <fix>3d</fix>
</trkpt>
<trkpt lat="40.0713252" lon="-105.2298567">
  <ele>1582.99</ele>
  <time>2026-09-02T20:50:48Z</time>
  <course>230.06</course>
  <speed>0.98</speed>
  <fix>3d</fix>
</trkpt>
<trkpt lat="40.071324" lon="-105.2298587">
  <ele>1582.99</ele>
  <time>2026-09-02T20:50:48Z</time>
  <course>230.28</course>
  <speed>0.9730878685915265</speed>
  <fix>3d</fix>
</trkpt>
<trkpt lat="40.0713252" lon="-105.2298567">
  <ele>1582.99</ele>
  <time>2026-09-02T20:50:48Z</time>
  <course>230.06</course>
  <speed>0.98</speed>
  <fix>3d</fix>
</trkpt>
<trkpt lat="40.0713235" lon="-105.2298596">
  <ele>1582.99</ele>
  <time>2026-09-02T20:50:48Z</time>
  <course>230.35</course>
  <speed>0.9871676655968833</speed>
  <fix>3d</fix>
</trkpt>
<trkpt lat="40.0713241" lon="-105.2298584">
  <ele>1582.99</ele>
  <time>2026-09-02T20:50:48Z</time>
  <course>230.23</course>
  <speed>0.99</speed>
  <fix>3d</fix>
</trkpt>
<trkpt lat="40.0713229" lon="-105.2298605">
  <ele>1582.99</ele>
  <time>2026-09-02T20:50:48Z</time>
  <course>230.41</course>
  <speed>0.9808159868191383</speed>
  <fix>3d</fix>
</trkpt>
<trkpt lat="40.0713241" lon="-105.2298584">
  <ele>1582.99</ele>
  <time>2026-09-02T20:50:48Z</time>
  <course>230.23</course>
  <speed>0.99</speed>
  <fix>3d</fix>
</trkpt>
<trkpt lat="40.0713223" lon="-105.2298613">
  <ele>1582.99</ele>
  <time>2026-09-02T20:50:48Z</time>
  <course>230.47</course>
  <speed>0.9808159868191383</speed>
  <fix>3d</fix>
</trkpt>
<trkpt lat="40.071323" lon="-105.2298603">
  <ele>1582.99</ele>
  <time>2026-09-02T20:50:48Z</time>
  <course>230.37</course>
  <speed>0.99</speed>
  <fix>3d</fix>
</trkpt>
<trkpt lat="40.0713218" lon="-105.2298622">
  <ele>1582.99</ele>
  <time>2026-09-02T20:50:48Z</time>
  <course>230.52</course>
  <speed>0.9808159868191383</speed>
  <fix>3d</fix>
</trkpt>
<trkpt lat="40.071323" lon="-105.2298603">
  <ele>1582.99</ele>
  <time>2026-09-02T20:50:48Z</time>
  <course>230.37</course>
  <speed>0.99</speed>
  <fix>3d</fix>
</trkpt>
<trkpt lat="40.0713212" lon="-105.2298632">
  <ele>1582.99</ele>
  <time>2026-09-02T20:50:48Z</time>
  <course>230.56</course>
  <speed>0.9871676655968833</speed>
  <fix>3d</fix>
</trkpt>
<trkpt lat="40.0713218" lon="-105.229862">
  <ele>1582.99</ele>
  <time>2026-09-02T20:50:48Z</time>
  <course>230.48</course>
  <speed>0.99</speed>
  <fix>3d</fix>
</trkpt>
<trkpt lat="40.0713206" lon="-105.2298641">
  <ele>1582.99</ele>
  <time>2026-09-02T20:50:48Z</time>
  <course>230.6</course>
  <speed>0.9808159868191383</speed>
  <fix>3d</fix>
</trkpt>
<trkpt lat="40.0713218" lon="-105.229862">
  <ele>1582.99</ele>
  <time>2026-09-02T20:50:48Z</time>
  <course>230.48</course>
  <speed>0.99</speed>
  <fix>3d</fix>
</trkpt>
<trkpt lat="40.0713201" lon="-105.2298649">
  <ele>1582.99</ele>
  <time>2026-09-02T20:50:48Z</time>
  <course>230.63</course>
  <speed>0.9808159868191383</speed>
  <fix>3d</fix>
</trkpt>
<trkpt lat="40.0713207" lon="-105.2298639">
  <ele>1582.99</ele>
  <time>2026-09-02T20:50:48Z</time>
  <course>230.57</course>
  <speed>0.99</speed>
  <fix>3d</fix>
</trkpt>
<trkpt lat="40.0713195" lon="-105.2298658">
  <ele>1582.99</ele>
  <time>2026-09-02T20:50:48Z</time>
  <course>230.66</course>
  <speed>0.9808159868191383</speed>
  <fix>3d</fix>
</trkpt>
<trkpt lat="40.0713207" lon="-105.2298639">
  <ele>1582.99</ele>
  <time>2026-09-02T20:50:48Z</time>
  <course>230.57</course>
  <speed>0.99</speed>
  <fix>3d</fix>
</trkpt>
<trkpt lat="40.0713189" lon="-105.2298667">
  <ele>1582.99</ele>
  <time>2026-09-02T20:50:48Z</time>
  <course>230.67</course>
  <speed>0.9808159868191383</speed>
  <fix>3d</fix>
</trkpt>
<trkpt lat="40.0713196" lon="-105.2298657">
  <ele>1582.99</ele>
  <time>2026-09-02T20:50:48Z</time>
  <course>230.62</course>
  <speed>0.99</speed>
  <fix>3d</fix>
</trkpt>
<trkpt lat="40.0713183" lon="-105.2298677">
  <ele>1582.99</ele>
  <time>2026-09-02T20:50:48Z</time>
  <course>230.69</course>
  <speed>0.9808159868191383</speed>
  <fix>3d</fix>
</trkpt>
<trkpt lat="40.0713196" lon="-105.2298657">
  <ele>1582.99</ele>
  <time>2026-09-02T20:50:48Z</time>
  <course>230.62</course>
  <speed>0.99</speed>
  <fix>3d</fix>
</trkpt>
<trkpt lat="40.0713178" lon="-105.2298684">
  <ele>1582.99</ele>
  <time>2026-09-02T20:50:48Z</time>
  <course>230.69</course>
  <speed>0.9808159868191383</speed>
  <fix>3d</fix>
</trkpt>
<trkpt lat="40.0713184" lon="-105.2298675">
  <ele>1582.99</ele>
  <time>2026-09-02T20:50:48Z</time>
  <course>230.66</course>
  <speed>0.99</speed>
  <fix>3d</fix>
</trkpt>
<trkpt lat="40.0713174" lon="-105.2298692">
  <ele>1582.99</ele>
  <time>2026-09-02T20:50:48Z</time>
  <course>230.7</course>
  <speed>0.9808159868191383</speed>
  <fix>3d</fix>
</trkpt>
<trkpt lat="40.0713184" lon="-105.2298675">
  <ele>1582.99</ele>
  <time>2026-09-02T20:50:48Z</time>
  <course>230.66</course>
  <speed>0.99</speed>
  <fix>3d</fix>
</trkpt>
<trkpt lat="40.0713168" lon="-105.2298701">
  <ele>1582.99</ele>
  <time>2026-09-02T20:50:48Z</time>
  <course>230.69</course>
  <speed>0.9808159868191383</speed>
  <fix>3d</fix>
</trkpt>
<trkpt lat="40.0713173" lon="-105.2298692">
  <ele>1582.99</ele>
  <time>2026-09-02T20:50:48Z</time>
  <course>230.67</course>
  <speed>0.98</speed>
  <fix>3d</fix>
</trkpt>
<trkpt lat="40.0713162" lon="-105.2298711">
  <ele>1582.99</ele>
  <time>2026-09-02T20:50:48Z</time>
  <course>230.69</course>
  <speed>0.9871676655968833</speed>
  <fix>3d</fix>
</trkpt>
<trkpt lat="40.0713173" lon="-105.2298692">
  <ele>1582.99</ele>
  <time>2026-09-02T20:50:48Z</time>
  <course>230.67</course>
  <speed>0.98</speed>
  <fix>3d</fix>
</trkpt>
<trkpt lat="40.0713157" lon="-105.229872">
  <ele>1582.99</ele>
  <time>2026-09-02T20:50:48Z</time>
  <course>230.68</course>
  <speed>0.9808159868191383</speed>
  <fix>3d</fix>
</trkpt>
<trkpt lat="40.0713162" lon="-105.2298711">
  <ele>1582.99</ele>
  <time>2026-09-02T20:50:48Z</time>
  <course>230.67</course>
  <speed>0.98</speed>
  <fix>3d</fix>
</trkpt>
<trkpt lat="40.0713151" lon="-105.2298728">
  <ele>1582.99</ele>
  <time>2026-09-02T20:50:48Z</time>
  <course>230.67</course>
  <speed>0.9948869282486327</speed>
  <fix>3d</fix>
</trkpt>
<trkpt lat="40.0713162" lon="-105.2298711">
  <ele>1582.99</ele>
  <time>2026-09-02T20:50:48Z</time>
  <course>230.67</course>
  <speed>0.98</speed>
  <fix>3d</fix>
</trkpt>
<trkpt lat="40.0713145" lon="-105.2298737">
  <ele>1582.99</ele>
  <time>2026-09-02T20:50:48Z</time>
  <course>230.66</course>
  <speed>0.9808159868191383</speed>
  <fix>3d</fix>
</trkpt>
<trkpt lat="40.0713151" lon="-105.2298729">
  <ele>1582.99</ele>
  <time>2026-09-02T20:50:48Z</time>
  <course>230.65</course>
  <speed>0.98</speed>
  <fix>3d</fix>
</trkpt>
<trkpt lat="40.071314" lon="-105.2298747">
  <ele>1582.99</ele>
  <time>2026-09-02T20:50:48Z</time>
  <course>230.64</course>
  <speed>0.9948869282486327</speed>
  <fix>3d</fix>
</trkpt>
<trkpt lat="40.0713151" lon="-105.2298729">
  <ele>1582.99</ele>
  <time>2026-09-02T20:50:48Z</time>
  <course>230.65</course>
  <speed>0.98</speed>
  <fix>3d</fix>
</trkpt>
<trkpt lat="40.0713134" lon="-105.2298756">
  <ele>1582.99</ele>
  <time>2026-09-02T20:50:48Z</time>
  <course>230.61</course>
  <speed>0.9808159868191383</speed>
  <fix>3d</fix>
</trkpt>
<trkpt lat="40.0713139" lon="-105.2298747">
  <ele>1582.99</ele>
  <time>2026-09-02T20:50:48Z</time>
  <course>230.61</course>
  <speed>0.98</speed>
  <fix>3d</fix>
</trkpt>
<trkpt lat="40.0713127" lon="-105.2298766">
  <ele>1582.99</ele>
  <time>2026-09-02T20:50:48Z</time>
  <course>230.58</course>
  <speed>0.9808159868191383</speed>
  <fix>3d</fix>
</trkpt>
<trkpt lat="40.0713139" lon="-105.2298747">
  <ele>1582.99</ele>
  <time>2026-09-02T20:50:48Z</time>
  <course>230.61</course>
  <speed>0.98</speed>
  <fix>3d</fix>
</trkpt>
<trkpt lat="40.0713122" lon="-105.2298775">
  <ele>1582.99</ele>
  <time>2026-09-02T20:50:48Z</time>
  <course>230.55</course>
  <speed>0.9808159868191383</speed>
  <fix>3d</fix>
</trkpt>
<trkpt lat="40.0713128" lon="-105.2298764">
  <ele>1582.99</ele>
  <time>2026-09-02T20:50:48Z</time>
  <course>230.56</course>
  <speed>0.98</speed>
  <fix>3d</fix>
</trkpt>
<trkpt lat="40.0713116" lon="-105.2298783">
  <ele>1582.99</ele>
  <time>2026-09-02T20:50:48Z</time>
  <course>230.51</course>
  <speed>0.9871676655968833</speed>
  <fix>3d</fix>
</trkpt>
<trkpt lat="40.0713128" lon="-105.2298764">
  <ele>1582.99</ele>
  <time>2026-09-02T20:50:48Z</time>
  <course>230.56</course>
  <speed>0.98</speed>
  <fix>3d</fix>
</trkpt>
<trkpt lat="40.071311" lon="-105.2298792">
  <ele>1582.99</ele>
  <time>2026-09-02T20:50:48Z</time>
  <course>230.48</course>
  <speed>0.9871676655968833</speed>
  <fix>3d</fix>
</trkpt>
<trkpt lat="40.0713116" lon="-105.2298783">
  <ele>1582.99</ele>
  <time>2026-09-02T20:50:48Z</time>
  <course>230.5</course>
  <speed>0.98</speed>
  <fix>3d</fix>
</trkpt>
<trkpt lat="40.0713104" lon="-105.2298802">
  <ele>1582.99</ele>
  <time>2026-09-02T20:50:48Z</time>
  <course>230.44</course>
  <speed>0.9871676655968833</speed>
  <fix>3d</fix>
</trkpt>
<trkpt lat="40.0713116" lon="-105.2298783">
  <ele>1582.99</ele>
  <time>2026-09-02T20:50:48Z</time>
  <course>230.5</course>
  <speed>0.98</speed>
  <fix>3d</fix>
</trkpt>
<trkpt lat="40.0713098" lon="-105.2298811">
  <ele>1582.99</ele>
  <time>2026-09-02T20:50:48Z</time>
  <course>230.4</course>
  <speed>0.9871676655968833</speed>
  <fix>3d</fix>
</trkpt>
<trkpt lat="40.0713105" lon="-105.2298801">
  <ele>1582.99</ele>
  <time>2026-09-02T20:50:48Z</time>
  <course>230.43</course>
  <speed>0.98</speed>
  <fix>3d</fix>
</trkpt>
<trkpt lat="40.0713092" lon="-105.2298819">
  <ele>1582.99</ele>
  <time>2026-09-02T20:50:48Z</time>
  <course>230.36</course>
  <speed>0.9871676655968833</speed>
  <fix>3d</fix>
</trkpt>
<trkpt lat="40.0713105" lon="-105.2298801">
  <ele>1582.99</ele>
  <time>2026-09-02T20:50:48Z</time>
  <course>230.43</course>
  <speed>0.98</speed>
  <fix>3d</fix>
</trkpt>
<trkpt lat="40.0713088" lon="-105.2298828">
  <ele>1582.99</ele>
  <time>2026-09-02T20:50:48Z</time>
  <course>230.32</course>
  <speed>0.9871676655968833</speed>
  <fix>3d</fix>
</trkpt>
<trkpt lat="40.0713094" lon="-105.2298819">
  <ele>1582.99</ele>
  <time>2026-09-02T20:50:48Z</time>
  <course>230.35</course>
  <speed>0.99</speed>
  <fix>3d</fix>
</trkpt>
<trkpt lat="40.0713082" lon="-105.2298838">
  <ele>1582.99</ele>
  <time>2026-09-02T20:50:48Z</time>
  <course>230.28</course>
  <speed>0.9871676655968833</speed>
  <fix>3d</fix>
</trkpt>
<trkpt lat="40.0713094" lon="-105.2298819">
  <ele>1582.99</ele>
  <time>2026-09-02T20:50:48Z</time>
  <course>230.35</course>
  <speed>0.99</speed>
  <fix>3d</fix>
</trkpt>
<trkpt lat="40.0713076" lon="-105.2298847">
  <ele>1582.99</ele>
  <time>2026-09-02T20:50:48Z</time>
  <course>230.24</course>
  <speed>0.9871676655968833</speed>
  <fix>3d</fix>
</trkpt>
<trkpt lat="40.0713083" lon="-105.2298836">
  <ele>1582.99</ele>
  <time>2026-09-02T20:50:48Z</time>
  <course>230.27</course>
  <speed>0.99</speed>
  <fix>3d</fix>
</trkpt>
<trkpt lat="40.071307" lon="-105.2298855">
  <ele>1582.99</ele>
  <time>2026-09-02T20:50:48Z</time>
  <course>230.19</course>
  <speed>0.9871676655968833</speed>
  <fix>3d</fix>
</trkpt>
<trkpt lat="40.0713083" lon="-105.2298836">
  <ele>1582.99</ele>
  <time>2026-09-02T20:50:48Z</time>
  <course>230.27</course>
  <speed>0.99</speed>
  <fix>3d</fix>
</trkpt>
<trkpt lat="40.0713066" lon="-105.2298862">
  <ele>1582.99</ele>
  <time>2026-09-02T20:50:48Z</time>
  <course>230.16</course>
  <speed>0.9871676655968833</speed>
  <fix>3d</fix>
</trkpt>
<trkpt lat="40.0713071" lon="-105.2298854">
  <ele>1582.99</ele>
  <time>2026-09-02T20:50:48Z</time>
  <course>230.18</course>
  <speed>0.99</speed>
  <fix>3d</fix>
</trkpt>
<trkpt lat="40.071306" lon="-105.2298871">
  <ele>1582.99</ele>
  <time>2026-09-02T20:50:48Z</time>
  <course>230.11</course>
  <speed>0.9935793878699377</speed>
  <fix>3d</fix>
</trkpt>
<trkpt lat="40.0713071" lon="-105.2298854">
  <ele>1582.99</ele>
  <time>2026-09-02T20:50:48Z</time>
  <course>230.18</course>
  <speed>0.99</speed>
  <fix>3d</fix>
</trkpt>
<trkpt lat="40.0713054" lon="-105.2298881">
  <ele>1582.99</ele>
  <time>2026-09-02T20:50:48Z</time>
  <course>230.06</course>
  <speed>0.9871676655968833</speed>
  <fix>3d</fix>
</trkpt>
<trkpt lat="40.071306" lon="-105.2298871">
  <ele>1582.99</ele>
  <time>2026-09-02T20:50:48Z</time>
  <course>230.08</course>
  <speed>0.99</speed>
  <fix>3d</fix>
</trkpt>
<trkpt lat="40.0713049" lon="-105.229889">
  <ele>1582.99</ele>
  <time>2026-09-02T20:50:48Z</time>
  <course>230.01</course>
  <speed>0.9871676655968833</speed>
  <fix>3d</fix>
</trkpt>
<trkpt lat="40.071306" lon="-105.2298871">
  <ele>1582.99</ele>
  <time>2026-09-02T20:50:48Z</time>
  <course>230.08</course>
  <speed>0.99</speed>
  <fix>3d</fix>
</trkpt>
<trkpt lat="40.0713043" lon="-105.2298898">
  <ele>1582.99</ele>
  <time>2026-09-02T20:50:48Z</time>
  <course>229.96</course>
  <speed>0.9935793878699377</speed>
  <fix>3d</fix>
</trkpt>
<trkpt lat="40.0713048" lon="-105.2298889">
  <ele>1582.99</ele>
  <time>2026-09-02T20:50:48Z</time>
  <course>229.99</course>
  <speed>0.99</speed>
  <fix>3d</fix>
</trkpt>
<trkpt lat="40.0713037" lon="-105.2298907">
  <ele>1582.99</ele>
  <time>2026-09-02T20:50:48Z</time>
  <course>229.91</course>
  <speed>0.9935793878699377</speed>
  <fix>3d</fix>
</trkpt>
<trkpt lat="40.0713048" lon="-105.2298889">
  <ele>1582.99</ele>
  <time>2026-09-02T20:50:48Z</time>
  <course>229.99</course>
  <speed>0.99</speed>
  <fix>3d</fix>
</trkpt>
<trkpt lat="40.0713031" lon="-105.2298917">
  <ele>1582.99</ele>
  <time>2026-09-02T20:50:48Z</time>
  <course>229.86</course>
  <speed>0.9859513172565875</speed>
  <fix>3d</fix>
</trkpt>
<trkpt lat="40.0713037" lon="-105.2298907">
  <ele>1582.99</ele>
  <time>2026-09-02T20:50:48Z</time>
  <course>229.89</course>
  <speed>0.99</speed>
  <fix>3d</fix>
</trkpt>
<trkpt lat="40.0713025" lon="-105.2298926">
  <ele>1582.99</ele>
  <time>2026-09-02T20:50:48Z</time>
  <course>229.81</course>
  <speed>0.9935793878699377</speed>
  <fix>3d</fix>
</trkpt>
<trkpt lat="40.0713037" lon="-105.2298907">
  <ele>1582.99</ele>
  <time>2026-09-02T20:50:48Z</time>
  <course>229.89</course>
  <speed>0.99</speed>
  <fix>3d</fix>
</trkpt>
<trkpt lat="40.0713019" lon="-105.2298934">
  <ele>1582.99</ele>
  <time>2026-09-02T20:50:48Z</time>
  <course>229.76</course>
  <speed>0.9859513172565875</speed>
  <fix>3d</fix>
</trkpt>
<trkpt lat="40.0713025" lon="-105.2298926">
  <ele>1582.99</ele>
  <time>2026-09-02T20:50:48Z</time>
  <course>229.79</course>
  <speed>0.99</speed>
  <fix>3d</fix>
</trkpt>
<trkpt lat="40.0713013" lon="-105.2298943">
  <ele>1582.99</ele>
  <time>2026-09-02T20:50:48Z</time>
  <course>229.72</course>
  <speed>0.9859513172565875</speed>
  <fix>3d</fix>
</trkpt>
<trkpt lat="40.0713025" lon="-105.2298926">
  <ele>1582.99</ele>
  <time>2026-09-02T20:50:48Z</time>
  <course>229.79</course>
  <speed>0.99</speed>
  <fix>3d</fix>
</trkpt>
<trkpt lat="40.0713006" lon="-105.2298953">
  <ele>1582.99</ele>
  <time>2026-09-02T20:50:48Z</time>
  <course>229.66</course>
  <speed>0.9935793878699377</speed>
  <fix>3d</fix>
</trkpt>
<trkpt lat="40.0713013" lon="-105.2298943">
  <ele>1582.99</ele>
  <time>2026-09-02T20:50:48Z</time>
  <course>229.69</course>
  <speed>0.99</speed>
  <fix>3d</fix>
</trkpt>
<trkpt lat="40.0713" lon="-105.2298962">
  <ele>1582.99</ele>
  <time>2026-09-02T20:50:48Z</time>
  <course>229.61</course>
  <speed>0.9859513172565875</speed>
  <fix>3d</fix>
</trkpt>
<trkpt lat="40.0713013" lon="-105.2298943">
  <ele>1582.99</ele>
  <time>2026-09-02T20:50:48Z</time>
  <course>229.69</course>
  <speed>0.99</speed>
  <fix>3d</fix>
</trkpt>
<trkpt lat="40.0712995" lon="-105.2298972">
  <ele>1582.99</ele>
  <time>2026-09-02T20:50:48Z</time>
  <course>229.56</course>
  <speed>0.9935793878699377</speed>
  <fix>3d</fix>
</trkpt>
<trkpt lat="40.0713002" lon="-105.2298961">
  <ele>1582.99</ele>
  <time>2026-09-02T20:50:48Z</time>
  <course>229.6</course>
  <speed>0.99</speed>
  <fix>3d</fix>
</trkpt>
<trkpt lat="40.0712989" lon="-105.2298981">
  <ele>1582.99</ele>
  <time>2026-09-02T20:50:48Z</time>
  <course>229.51</course>
  <speed>0.9859513172565875</speed>
  <fix>3d</fix>
</trkpt>
<trkpt lat="40.0713002" lon="-105.2298961">
  <ele>1582.99</ele>
  <time>2026-09-02T20:50:48Z</time>
  <course>229.6</course>
  <speed>0.99</speed>
  <fix>3d</fix>
</trkpt>
<trkpt lat="40.0712983" lon="-105.2298989">
  <ele>1582.99</ele>
  <time>2026-09-02T20:50:48Z</time>
  <course>229.46</course>
  <speed>0.9859513172565875</speed>
  <fix>3d</fix>
</trkpt>
<trkpt lat="40.0712991" lon="-105.2298979">
  <ele>1582.99</ele>
  <time>2026-09-02T20:50:48Z</time>
  <course>229.5</course>
  <speed>0.99</speed>
  <fix>3d</fix>
</trkpt>
<trkpt lat="40.0712977" lon="-105.2298998">
  <ele>1582.99</ele>
  <time>2026-09-02T20:50:48Z</time>
  <course>229.42</course>
  <speed>0.9859513172565875</speed>
  <fix>3d</fix>
</trkpt>
<trkpt lat="40.0712991" lon="-105.2298979">
  <ele>1582.99</ele>
  <time>2026-09-02T20:50:48Z</time>
  <course>229.5</course>
  <speed>0.99</speed>
  <fix>3d</fix>
</trkpt>
<trkpt lat="40.0712971" lon="-105.2299008">
  <ele>1582.99</ele>
  <time>2026-09-02T20:50:48Z</time>
  <course>229.37</course>
  <speed>0.9859513172565875</speed>
  <fix>3d</fix>
</trkpt>
<trkpt lat="40.0712979" lon="-105.2298997">
  <ele>1582.99</ele>
  <time>2026-09-02T20:50:48Z</time>
  <course>229.4</course>
  <speed>0.99</speed>
  <fix>3d</fix>
</trkpt>
<trkpt lat="40.0712967" lon="-105.2299017">
  <ele>1582.99</ele>
  <time>2026-09-02T20:50:48Z</time>
  <course>229.32</course>
  <speed>0.9859513172565875</speed>
  <fix>3d</fix>
</trkpt>
<trkpt lat="40.0712979" lon="-105.2298997">
  <ele>1582.99</ele>
  <time>2026-09-02T20:50:48Z</time>
  <course>229.4</course>
  <speed>0.99</speed>
  <fix>3d</fix>
</trkpt>
<trkpt lat="40.0712961" lon="-105.2299025">
  <ele>1582.99</ele>
  <time>2026-09-02T20:50:48Z</time>
  <course>229.28</course>
  <speed>0.9924716620639604</speed>
  <fix>3d</fix>
</trkpt>
<trkpt lat="40.0712967" lon="-105.2299015">
  <ele>1582.99</ele>
  <time>2026-09-02T20:50:48Z</time>
  <course>229.31</course>
  <speed>0.99</speed>
  <fix>3d</fix>
</trkpt>
<trkpt lat="40.0712955" lon="-105.2299034">
  <ele>1582.99</ele>
  <time>2026-09-02T20:50:48Z</time>
  <course>229.23</course>
  <speed>0.9859513172565875</speed>
  <fix>3d</fix>
</trkpt>
<trkpt lat="40.0712967" lon="-105.2299015">
  <ele>1582.99</ele>
  <time>2026-09-02T20:50:48Z</time>
  <course>229.31</course>
  <speed>0.99</speed>
  <fix>3d</fix>
</trkpt>
<trkpt lat="40.0712949" lon="-105.2299043">
  <ele>1582.99</ele>
  <time>2026-09-02T20:50:48Z</time>
  <course>229.19</course>
  <speed>0.9924716620639604</speed>
  <fix>3d</fix>
</trkpt>
<trkpt lat="40.0712956" lon="-105.2299032">
  <ele>1582.99</ele>
  <time>2026-09-02T20:50:48Z</time>
  <course>229.22</course>
  <speed>0.99</speed>
  <fix>3d</fix>
</trkpt>
<trkpt lat="40.0712944" lon="-105.229905">
  <ele>1582.99</ele>
  <time>2026-09-02T20:50:48Z</time>
  <course>229.16</course>
  <speed>0.9924716620639604</speed>
  <fix>3d</fix>
</trkpt>
<trkpt lat="40.0712956" lon="-105.2299032">
  <ele>1582.99</ele>
  <time>2026-09-02T20:50:48Z</time>
  <course>229.22</course>
  <speed>0.99</speed>
  <fix>3d</fix>
</trkpt>
<trkpt lat="40.0712938" lon="-105.2299058">
  <ele>1582.99</ele>
  <time>2026-09-02T20:50:48Z</time>
  <course>229.12</course>
  <speed>0.9924716620639604</speed>
  <fix>3d</fix>
</trkpt>
<trkpt lat="40.0712944" lon="-105.229905">
  <ele>1582.99</ele>
  <time>2026-09-02T20:50:48Z</time>
  <course>229.14</course>
  <speed>0.99</speed>
  <fix>3d</fix>
</trkpt>
<trkpt lat="40.0712933" lon="-105.2299068">
  <ele>1582.99</ele>
  <time>2026-09-02T20:50:48Z</time>
  <course>229.08</course>
  <speed>0.9924716620639604</speed>
  <fix>3d</fix>
</trkpt>
<trkpt lat="40.0712944" lon="-105.229905">
  <ele>1582.99</ele>
  <time>2026-09-02T20:50:48Z</time>
  <course>229.14</course>
  <speed>0.99</speed>
  <fix>3d</fix>
</trkpt>
<trkpt lat="40.0712927" lon="-105.2299077">
  <ele>1582.99</ele>
  <time>2026-09-02T20:50:48Z</time>
  <course>229.04</course>
  <speed>0.9924716620639604</speed>
  <fix>3d</fix>
</trkpt>
<trkpt lat="40.0712932" lon="-105.2299068">
  <ele>1582.99</ele>
  <time>2026-09-02T20:50:48Z</time>
  <course>229.06</course>
  <speed>0.99</speed>
  <fix>3d</fix>
</trkpt>
<trkpt lat="40.0712921" lon="-105.2299086">
  <ele>1582.99</ele>
  <time>2026-09-02T20:50:48Z</time>
  <course>229.0</course>
  <speed>0.9924716620639604</speed>
  <fix>3d</fix>
</trkpt>
<trkpt lat="40.0712932" lon="-105.2299068">
  <ele>1582.99</ele>
  <time>2026-09-02T20:50:48Z</time>
  <course>229.06</course>
  <speed>0.99</speed>
  <fix>3d</fix>
</trkpt>
<trkpt lat="40.0712915" lon="-105.2299094">
  <ele>1582.99</ele>
  <time>2026-09-02T20:50:48Z</time>
  <course>228.97</course>
  <speed>0.9849365461794989</speed>
  <fix>3d</fix>
</trkpt>
<trkpt lat="40.0712921" lon="-105.2299085">
  <ele>1582.99</ele>
  <time>2026-09-02T20:50:48Z</time>
  <course>228.98</course>
  <speed>0.99</speed>
  <fix>3d</fix>
</trkpt>
<trkpt lat="40.0712909" lon="-105.2299103">
  <ele>1582.99</ele>
  <time>2026-09-02T20:50:48Z</time>
  <course>228.93</course>
  <speed>0.9924716620639604</speed>
  <fix>3d</fix>
</trkpt>
<trkpt lat="40.0712921" lon="-105.2299085">
  <ele>1582.99</ele>
  <time>2026-09-02T20:50:48Z</time>
  <course>228.98</course>
  <speed>0.99</speed>
  <fix>3d</fix>
</trkpt>
<trkpt lat="40.0712903" lon="-105.2299111">
  <ele>1582.99</ele>
  <time>2026-09-02T20:50:48Z</time>
  <course>228.9</course>
  <speed>0.9849365461794989</speed>
  <fix>3d</fix>
</trkpt>
<trkpt lat="40.0712909" lon="-105.2299103">
  <ele>1582.99</ele>
  <time>2026-09-02T20:50:48Z</time>
  <course>228.91</course>
  <speed>0.99</speed>
  <fix>3d</fix>
</trkpt>
<trkpt lat="40.0712897" lon="-105.229912">
  <ele>1582.99</ele>
  <time>2026-09-02T20:50:48Z</time>
  <course>228.87</course>
  <speed>0.9924716620639604</speed>
  <fix>3d</fix>
</trkpt>
<trkpt lat="40.0712909" lon="-105.2299103">
  <ele>1582.99</ele>
  <time>2026-09-02T20:50:48Z</time>
  <course>228.91</course>
  <speed>0.99</speed>
  <fix>3d</fix>
</trkpt>
<trkpt lat="40.0712891" lon="-105.229913">
  <ele>1582.99</ele>
  <time>2026-09-02T20:50:48Z</time>
  <course>228.84</course>
  <speed>0.9849365461794989</speed>
  <fix>3d</fix>
</trkpt>
<trkpt lat="40.0712897" lon="-105.229912">
  <ele>1582.99</ele>
  <time>2026-09-02T20:50:48Z</time>
  <course>228.85</course>
  <speed>0.99</speed>
  <fix>3d</fix>
</trkpt>
<trkpt lat="40.0712884" lon="-105.2299139">
  <ele>1582.99</ele>
  <time>2026-09-02T20:50:48Z</time>
  <course>228.8</course>
  <speed>0.9849365461794989</speed>
  <fix>3d</fix>
</trkpt>
<trkpt lat="40.0712897" lon="-105.229912">
  <ele>1582.99</ele>
  <time>2026-09-02T20:50:48Z</time>
  <course>228.85</course>
  <speed>0.99</speed>
  <fix>3d</fix>
</trkpt>
<trkpt lat="40.0712878" lon="-105.2299149">
  <ele>1582.99</ele>
  <time>2026-09-02T20:50:48Z</time>
  <course>228.77</course>
  <speed>0.9924716620639604</speed>
  <fix>3d</fix>
</trkpt>
<trkpt lat="40.0712885" lon="-105.2299138">
  <ele>1582.99</ele>
  <time>2026-09-02T20:50:48Z</time>
  <course>228.79</course>
  <speed>0.99</speed>
  <fix>3d</fix>
</trkpt>
<trkpt lat="40.0712873" lon="-105.2299158">
  <ele>1582.99</ele>
  <time>2026-09-02T20:50:48Z</time>
  <course>228.73</course>
  <speed>0.9849365461794989</speed>
  <fix>3d</fix>
</trkpt>
<trkpt lat="40.0712885" lon="-105.2299138">
  <ele>1582.99</ele>
  <time>2026-09-02T20:50:48Z</time>
  <course>228.79</course>
  <speed>0.99</speed>
  <fix>3d</fix>
</trkpt>
<trkpt lat="40.0712867" lon="-105.2299166">
  <ele>1582.99</ele>
  <time>2026-09-02T20:50:48Z</time>
  <course>228.71</course>
  <speed>0.9924716620639604</speed>
  <fix>3d</fix>
</trkpt>
<trkpt lat="40.0712873" lon="-105.2299156">
  <ele>1582.99</ele>
  <time>2026-09-02T20:50:48Z</time>
  <course>228.72</course>
  <speed>0.99</speed>
  <fix>3d</fix>
</trkpt>
<trkpt lat="40.071286" lon="-105.2299175">
  <ele>1582.99</ele>
  <time>2026-09-02T20:50:48Z</time>
  <course>228.68</course>
  <speed>0.9924716620639604</speed>
  <fix>3d</fix>
</trkpt>
<trkpt lat="40.0712873" lon="-105.2299156">
  <ele>1582.99</ele>
  <time>2026-09-02T20:50:48Z</time>
  <course>228.72</course>
  <speed>0.99</speed>
  <fix>3d</fix>
</trkpt>
<trkpt lat="40.0712854" lon="-105.2299183">
  <ele>1582.99</ele>
  <time>2026-09-02T20:50:48Z</time>
  <course>228.65</course>
  <speed>0.9915644204992432</speed>
  <fix>3d</fix>
</trkpt>
<trkpt lat="40.0712861" lon="-105.2299174">
  <ele>1582.99</ele>
  <time>2026-09-02T20:50:48Z</time>
  <course>228.67</course>
  <speed>0.99</speed>
  <fix>3d</fix>
</trkpt>
<trkpt lat="40.0712848" lon="-105.2299192">
  <ele>1582.99</ele>
  <time>2026-09-02T20:50:48Z</time>
  <course>228.63</course>
  <speed>0.9849365461794989</speed>
  <fix>3d</fix>
</trkpt>
<trkpt lat="40.0712861" lon="-105.2299174">
  <ele>1582.99</ele>
  <time>2026-09-02T20:50:48Z</time>
  <course>228.67</course>
  <speed>0.99</speed>
  <fix>3d</fix>
</trkpt>
<trkpt lat="40.0712842" lon="-105.2299202">
  <ele>1582.99</ele>
  <time>2026-09-02T20:50:48Z</time>
  <course>228.61</course>
  <speed>0.9915644204992432</speed>
  <fix>3d</fix>
</trkpt>
<trkpt lat="40.0712849" lon="-105.2299191">
  <ele>1582.99</ele>
  <time>2026-09-02T20:50:48Z</time>
  <course>228.62</course>
  <speed>0.99</speed>
  <fix>3d</fix>
</trkpt>
<trkpt lat="40.0712836" lon="-105.2299211">
  <ele>1582.99</ele>
  <time>2026-09-02T20:50:48Z</time>
  <course>228.58</course>
  <speed>0.9849365461794989</speed>
  <fix>3d</fix>
</trkpt>
<trkpt lat="40.0712849" lon="-105.2299191">
  <ele>1582.99</ele>
  <time>2026-09-02T20:50:48Z</time>
  <course>228.62</course>
  <speed>0.99</speed>
  <fix>3d</fix>
</trkpt>
<trkpt lat="40.071283" lon="-105.2299218">
  <ele>1582.99</ele>
  <time>2026-09-02T20:50:48Z</time>
  <course>228.56</course>
  <speed>0.9915644204992432</speed>
  <fix>3d</fix>
</trkpt>
<trkpt lat="40.0712837" lon="-105.2299209">
  <ele>1582.99</ele>
  <time>2026-09-02T20:50:48Z</time>
  <course>228.57</course>
  <speed>0.99</speed>
  <fix>3d</fix>
</trkpt>
<trkpt lat="40.0712824" lon="-105.2299228">
  <ele>1582.99</ele>
  <time>2026-09-02T20:50:48Z</time>
  <course>228.54</course>
  <speed>0.9849365461794989</speed>
  <fix>3d</fix>
</trkpt>
<trkpt lat="40.0712837" lon="-105.2299209">
  <ele>1582.99</ele>
  <time>2026-09-02T20:50:48Z</time>
  <course>228.57</course>
  <speed>0.99</speed>
  <fix>3d</fix>
</trkpt>
<trkpt lat="40.0712819" lon="-105.2299235">
  <ele>1582.99</ele>
  <time>2026-09-02T20:50:48Z</time>
  <course>228.52</course>
  <speed>0.9915644204992432</speed>
  <fix>3d</fix>
</trkpt>
<trkpt lat="40.0712825" lon="-105.2299226">
  <ele>1582.99</ele>
  <time>2026-09-02T20:50:48Z</time>
  <course>228.53</course>
  <speed>0.99</speed>
  <fix>3d</fix>
</trkpt>
<trkpt lat="40.0712813" lon="-105.2299244">
  <ele>1582.99</ele>
  <time>2026-09-02T20:50:48Z</time>
  <course>228.5</course>
  <speed>0.9849365461794989</speed>
  <fix>3d</fix>
</trkpt>
<trkpt lat="40.0712825" lon="-105.2299226">
  <ele>1582.99</ele>
  <time>2026-09-02T20:50:48Z</time>
  <course>228.53</course>
  <speed>0.99</speed>
  <fix>3d</fix>
</trkpt>
<trkpt lat="40.0712807" lon="-105.2299252">
  <ele>1582.99</ele>
  <time>2026-09-02T20:50:48Z</time>
  <course>228.49</course>
  <speed>0.9915644204992432</speed>
  <fix>3d</fix>
</trkpt>
<trkpt lat="40.0712813" lon="-105.2299243">
  <ele>1582.99</ele>
  <time>2026-09-02T20:50:48Z</time>
  <course>228.49</course>
  <speed>0.99</speed>
  <fix>3d</fix>
</trkpt>
<trkpt lat="40.0712803" lon="-105.2299262">
  <ele>1582.99</ele>
  <time>2026-09-02T20:50:48Z</time>
  <course>228.47</course>
  <speed>0.9849365461794989</speed>
  <fix>3d</fix>
</trkpt>
<trkpt lat="40.0712813" lon="-105.2299243">
  <ele>1582.99</ele>
  <time>2026-09-02T20:50:48Z</time>
  <course>228.49</course>
  <speed>0.99</speed>
  <fix>3d</fix>
</trkpt>
<trkpt lat="40.0712797" lon="-105.2299269">
  <ele>1582.99</ele>
  <time>2026-09-02T20:50:48Z</time>
  <course>228.45</course>
  <speed>0.9915644204992432</speed>
  <fix>3d</fix>
</trkpt>
<trkpt lat="40.0712802" lon="-105.2299261">
  <ele>1582.99</ele>
  <time>2026-09-02T20:50:48Z</time>
  <course>228.45</course>
  <speed>1.0</speed>
  <fix>3d</fix>
</trkpt>
<trkpt lat="40.0712791" lon="-105.2299278">
  <ele>1582.99</ele>
  <time>2026-09-02T20:50:48Z</time>
  <course>228.43</course>
  <speed>0.9849365461794989</speed>
  <fix>3d</fix>
</trkpt>
<trkpt lat="40.0712802" lon="-105.2299261">
  <ele>1582.99</ele>
  <time>2026-09-02T20:50:48Z</time>
  <course>228.45</course>
  <speed>1.0</speed>
  <fix>3d</fix>
</trkpt>
<trkpt lat="40.0712785" lon="-105.2299288">
  <ele>1582.99</ele>
  <time>2026-09-02T20:50:48Z</time>
  <course>228.42</course>
  <speed>0.9915644204992432</speed>
  <fix>3d</fix>
</trkpt>
<trkpt lat="40.0712791" lon="-105.2299278">
  <ele>1582.99</ele>
  <time>2026-09-02T20:50:48Z</time>
  <course>228.42</course>
  <speed>1.0</speed>
  <fix>3d</fix>
</trkpt>
<trkpt lat="40.0712779" lon="-105.2299297">
  <ele>1582.99</ele>
  <time>2026-09-02T20:50:48Z</time>
  <course>228.41</course>
  <speed>0.9915644204992432</speed>
  <fix>3d</fix>
</trkpt>
<trkpt lat="40.0712791" lon="-105.2299278">
  <ele>1582.99</ele>
  <time>2026-09-02T20:50:48Z</time>
  <course>228.42</course>
  <speed>1.0</speed>
  <fix>3d</fix>
</trkpt>
<trkpt lat="40.0712773" lon="-105.2299305">
  <ele>1582.99</ele>
  <time>2026-09-02T20:50:48Z</time>
  <course>228.39</course>
  <speed>0.9915644204992432</speed>
  <fix>3d</fix>
</trkpt>
<trkpt lat="40.0712779" lon="-105.2299296">
  <ele>1582.99</ele>
  <time>2026-09-02T20:50:48Z</time>
  <course>228.39</course>
  <speed>1.0</speed>
  <fix>3d</fix>
</trkpt>
<trkpt lat="40.0712767" lon="-105.2299314">
  <ele>1582.99</ele>
  <time>2026-09-02T20:50:48Z</time>
  <course>228.38</course>
  <speed>0.9915644204992432</speed>
  <fix>3d</fix>
</trkpt>
<trkpt lat="40.0712779" lon="-105.2299296">
  <ele>1582.99</ele>
  <time>2026-09-02T20:50:48Z</time>
  <course>228.39</course>
  <speed>1.0</speed>
  <fix>3d</fix>
</trkpt>
<trkpt lat="40.071276" lon="-105.2299324">
  <ele>1582.99</ele>
  <time>2026-09-02T20:50:48Z</time>
  <course>228.36</course>
  <speed>0.9915644204992432</speed>
  <fix>3d</fix>
</trkpt>
<trkpt lat="40.0712767" lon="-105.2299314">
  <ele>1582.99</ele>
  <time>2026-09-02T20:50:48Z</time>
  <course>228.36</course>
  <speed>1.0</speed>
  <fix>3d</fix>
</trkpt>
<trkpt lat="40.0712754" lon="-105.2299333">
  <ele>1582.99</ele>
  <time>2026-09-02T20:50:48Z</time>
  <course>228.34</course>
  <speed>0.9849365461794989</speed>
  <fix>3d</fix>
</trkpt>
<trkpt lat="40.0712767" lon="-105.2299314">
  <ele>1582.99</ele>
  <time>2026-09-02T20:50:48Z</time>
  <course>228.36</course>
  <speed>1.0</speed>
  <fix>3d</fix>
</trkpt>
<trkpt lat="40.0712748" lon="-105.2299341">
  <ele>1582.99</ele>
  <time>2026-09-02T20:50:48Z</time>
  <course>228.33</course>
  <speed>0.9915644204992432</speed>
  <fix>3d</fix>
</trkpt>
<trkpt lat="40.0712755" lon="-105.2299331">
  <ele>1582.99</ele>
  <time>2026-09-02T20:50:48Z</time>
  <course>228.33</course>
  <speed>1.0</speed>
  <fix>3d</fix>
</trkpt>
<trkpt lat="40.0712742" lon="-105.229935">
  <ele>1582.99</ele>
  <time>2026-09-02T20:50:48Z</time>
  <course>228.32</course>
  <speed>0.9915644204992432</speed>
  <fix>3d</fix>
</trkpt>
<trkpt lat="40.0712755" lon="-105.2299331">
  <ele>1582.99</ele>
  <time>2026-09-02T20:50:48Z</time>
  <course>228.33</course>
  <speed>1.0</speed>
  <fix>3d</fix>
</trkpt>
<trkpt lat="40.0712736" lon="-105.229936">
  <ele>1582.99</ele>
  <time>2026-09-02T20:50:48Z</time>
  <course>228.31</course>
  <speed>0.9915644204992432</speed>
  <fix>3d</fix>
</trkpt>
<trkpt lat="40.0712743" lon="-105.2299348">
  <ele>1582.99</ele>
  <time>2026-09-02T20:50:48Z</time>
  <course>228.31</course>
  <speed>1.0</speed>
  <fix>3d</fix>
</trkpt>
<trkpt lat="40.071273" lon="-105.2299367">
  <ele>1582.99</ele>
  <time>2026-09-02T20:50:48Z</time>
  <course>228.3</course>
  <speed>0.9915644204992432</speed>
  <fix>3d</fix>
</trkpt>
<trkpt lat="40.0712743" lon="-105.2299348">
  <ele>1582.99</ele>
  <time>2026-09-02T20:50:48Z</time>
  <course>228.31</course>
  <speed>1.0</speed>
  <fix>3d</fix>
</trkpt>
<trkpt lat="40.0712724" lon="-105.2299376">
  <ele>1582.99</ele>
  <time>2026-09-02T20:50:48Z</time>
  <course>228.29</course>
  <speed>0.9915644204992432</speed>
  <fix>3d</fix>
</trkpt>
<trkpt lat="40.0712731" lon="-105.2299366">
  <ele>1582.99</ele>
  <time>2026-09-02T20:50:48Z</time>
  <course>228.29</course>
  <speed>1.0</speed>
  <fix>3d</fix>
</trkpt>
<trkpt lat="40.0712718" lon="-105.2299386">
  <ele>1582.99</ele>
  <time>2026-09-02T20:50:48Z</time>
  <course>228.28</course>
  <speed>0.9915644204992432</speed>
  <fix>3d</fix>
</trkpt>
<trkpt lat="40.0712731" lon="-105.2299366">
  <ele>1582.99</ele>
  <time>2026-09-02T20:50:48Z</time>
  <course>228.29</course>
  <speed>1.0</speed>
  <fix>3d</fix>
</trkpt>
<trkpt lat="40.0712712" lon="-105.2299395">
  <ele>1582.99</ele>
  <time>2026-09-02T20:50:48Z</time>
  <course>228.27</course>
  <speed>0.9915644204992432</speed>
  <fix>3d</fix>
</trkpt>
<trkpt lat="40.0712719" lon="-105.2299384">
  <ele>1582.99</ele>
  <time>2026-09-02T20:50:48Z</time>
  <course>228.27</course>
  <speed>0.99</speed>
  <fix>3d</fix>
</trkpt>
<trkpt lat="40.0712706" lon="-105.2299403">
  <ele>1582.99</ele>
  <time>2026-09-02T20:50:48Z</time>
  <course>228.26</course>
  <speed>0.9915644204992432</speed>
  <fix>3d</fix>
</trkpt>
<trkpt lat="40.0712719" lon="-105.2299384">
  <ele>1582.99</ele>
  <time>2026-09-02T20:50:48Z</time>
  <course>228.27</course>
  <speed>0.99</speed>
  <fix>3d</fix>
</trkpt>
<trkpt lat="40.07127" lon="-105.2299412">
  <ele>1582.99</ele>
  <time>2026-09-02T20:50:48Z</time>
  <course>228.25</course>
  <speed>0.9915644204992432</speed>
  <fix>3d</fix>
</trkpt>
<trkpt lat="40.0712707" lon="-105.2299401">
  <ele>1582.99</ele>
  <time>2026-09-02T20:50:48Z</time>
  <course>228.25</course>
  <speed>0.99</speed>
  <fix>3d</fix>
</trkpt>
<trkpt lat="40.0712695" lon="-105.2299419">
  <ele>1582.99</ele>
  <time>2026-09-02T20:50:48Z</time>
  <course>228.25</course>
  <speed>0.9915644204992432</speed>
  <fix>3d</fix>
</trkpt>
<trkpt lat="40.0712707" lon="-105.2299401">
  <ele>1582.99</ele>
  <time>2026-09-02T20:50:48Z</time>
  <course>228.25</course>
  <speed>0.99</speed>
  <fix>3d</fix>
</trkpt>
<trkpt lat="40.0712689" lon="-105.2299427">
  <ele>1582.99</ele>
  <time>2026-09-02T20:50:48Z</time>
  <course>228.24</course>
  <speed>0.9915644204992432</speed>
  <fix>3d</fix>
</trkpt>
<trkpt lat="40.0712695" lon="-105.2299419">
  <ele>1582.99</ele>
  <time>2026-09-02T20:50:48Z</time>
  <course>228.24</course>
  <speed>0.99</speed>
  <fix>3d</fix>
</trkpt>
<trkpt lat="40.0712683" lon="-105.2299436">
  <ele>1582.99</ele>
  <time>2026-09-02T20:50:48Z</time>
  <course>228.24</course>
  <speed>0.9915644204992432</speed>
  <fix>3d</fix>
</trkpt>
<trkpt lat="40.0712695" lon="-105.2299419">
  <ele>1582.99</ele>
  <time>2026-09-02T20:50:48Z</time>
  <course>228.24</course>
  <speed>0.99</speed>
  <fix>3d</fix>
</trkpt>
<trkpt lat="40.0712677" lon="-105.2299445">
  <ele>1582.99</ele>
  <time>2026-09-02T20:50:48Z</time>
  <course>228.23</course>
  <speed>0.9915644204992432</speed>
  <fix>3d</fix>
</trkpt>
<trkpt lat="40.0712683" lon="-105.2299436">
  <ele>1582.99</ele>
  <time>2026-09-02T20:50:48Z</time>
  <course>228.23</course>
  <speed>0.99</speed>
  <fix>3d</fix>
</trkpt>
<trkpt lat="40.0712671" lon="-105.2299453">
  <ele>1582.99</ele>
  <time>2026-09-02T20:50:48Z</time>
  <course>228.23</course>
  <speed>0.9915644204992432</speed>
  <fix>3d</fix>
</trkpt>
<trkpt lat="40.0712683" lon="-105.2299436">
  <ele>1582.99</ele>
  <time>2026-09-02T20:50:48Z</time>
  <course>228.23</course>
  <speed>0.99</speed>
  <fix>3d</fix>
</trkpt>
<trkpt lat="40.0712665" lon="-105.2299463">
  <ele>1582.99</ele>
  <time>2026-09-02T20:50:48Z</time>
  <course>228.22</course>
  <speed>0.9915644204992432</speed>
  <fix>3d</fix>
</trkpt>
<trkpt lat="40.0712671" lon="-105.2299453">
  <ele>1582.99</ele>
  <time>2026-09-02T20:50:48Z</time>
  <course>228.22</course>
  <speed>0.99</speed>
  <fix>3d</fix>
</trkpt>
<trkpt lat="40.0712659" lon="-105.2299472">
  <ele>1582.99</ele>
  <time>2026-09-02T20:50:48Z</time>
  <course>228.22</course>
  <speed>0.9915644204992432</speed>
  <fix>3d</fix>
</trkpt>
<trkpt lat="40.0712671" lon="-105.2299453">
  <ele>1582.99</ele>
  <time>2026-09-02T20:50:48Z</time>
  <course>228.22</course>
  <speed>0.99</speed>
  <fix>3d</fix>
</trkpt>
<trkpt lat="40.0712653" lon="-105.2299479">
  <ele>1582.99</ele>
  <time>2026-09-02T20:50:48Z</time>
  <course>228.22</course>
  <speed>0.9915644204992432</speed>
  <fix>3d</fix>
</trkpt>
<trkpt lat="40.0712659" lon="-105.2299471">
  <ele>1582.99</ele>
  <time>2026-09-02T20:50:48Z</time>
  <course>228.21</course>
  <speed>0.99</speed>
  <fix>3d</fix>
</trkpt>
<trkpt lat="40.0712647" lon="-105.2299489">
  <ele>1582.99</ele>
  <time>2026-09-02T20:50:48Z</time>
  <course>228.21</course>
  <speed>0.9915644204992432</speed>
  <fix>3d</fix>
</trkpt>
<trkpt lat="40.0712659" lon="-105.2299471">
  <ele>1582.99</ele>
  <time>2026-09-02T20:50:48Z</time>
  <course>228.21</course>
  <speed>0.99</speed>
  <fix>3d</fix>
</trkpt>
<trkpt lat="40.0712641" lon="-105.2299498">
  <ele>1582.99</ele>
  <time>2026-09-02T20:50:48Z</time>
  <course>228.21</course>
  <speed>0.9915644204992432</speed>
  <fix>3d</fix>
</trkpt>
<trkpt lat="40.0712647" lon="-105.2299489">
  <ele>1582.99</ele>
  <time>2026-09-02T20:50:48Z</time>
  <course>228.2</course>
  <speed>0.99</speed>
  <fix>3d</fix>
</trkpt>
<trkpt lat="40.0712634" lon="-105.2299508">
  <ele>1582.99</ele>
  <time>2026-09-02T20:50:48Z</time>
  <course>228.21</course>
  <speed>0.9915644204992432</speed>
  <fix>3d</fix>
</trkpt>
<trkpt lat="40.0712647" lon="-105.2299489">
  <ele>1582.99</ele>
  <time>2026-09-02T20:50:48Z</time>
  <course>228.2</course>
  <speed>0.99</speed>
  <fix>3d</fix>
</trkpt>
<trkpt lat="40.0712628" lon="-105.2299517">
  <ele>1582.99</ele>
  <time>2026-09-02T20:50:48Z</time>
  <course>228.2</course>
  <speed>0.9841239759298622</speed>
  <fix>3d</fix>
</trkpt>
<trkpt lat="40.0712635" lon="-105.2299506">
  <ele>1582.99</ele>
  <time>2026-09-02T20:50:48Z</time>
  <course>228.2</course>
  <speed>0.99</speed>
  <fix>3d</fix>
</trkpt>
<trkpt lat="40.0712622" lon="-105.2299525">
  <ele>1582.99</ele>
  <time>2026-09-02T20:50:48Z</time>
  <course>228.2</course>
  <speed>0.9915644204992432</speed>
  <fix>3d</fix>
</trkpt>
<trkpt lat="40.0712635" lon="-105.2299506">
  <ele>1582.99</ele>
  <time>2026-09-02T20:50:48Z</time>
  <course>228.2</course>
  <speed>0.99</speed>
  <fix>3d</fix>
</trkpt>
<trkpt lat="40.0712616" lon="-105.2299534">
  <ele>1582.99</ele>
  <time>2026-09-02T20:50:48Z</time>
  <course>228.19</course>
  <speed>0.9841239759298622</speed>
  <fix>3d</fix>
</trkpt>
<trkpt lat="40.0712623" lon="-105.2299524">
  <ele>1582.99</ele>
  <time>2026-09-02T20:50:48Z</time>
  <course>228.19</course>
  <speed>0.99</speed>
  <fix>3d</fix>
</trkpt>
<trkpt lat="40.071261" lon="-105.2299542">
  <ele>1582.99</ele>
  <time>2026-09-02T20:50:48Z</time>
  <course>228.19</course>
  <speed>0.9915644204992432</speed>
  <fix>3d</fix>
</trkpt>
<trkpt lat="40.0712623" lon="-105.2299524">
  <ele>1582.99</ele>
  <time>2026-09-02T20:50:48Z</time>
  <course>228.19</course>
  <speed>0.99</speed>
  <fix>3d</fix>
</trkpt>
<trkpt lat="40.0712604" lon="-105.2299551">
  <ele>1582.99</ele>
  <time>2026-09-02T20:50:48Z</time>
  <course>228.2</course>
  <speed>0.9915644204992432</speed>
  <fix>3d</fix>
</trkpt>
<trkpt lat="40.0712611" lon="-105.2299541">
  <ele>1582.99</ele>
  <time>2026-09-02T20:50:48Z</time>
  <course>228.18</course>
  <speed>0.99</speed>
  <fix>3d</fix>
</trkpt>
<trkpt lat="40.0712598" lon="-105.2299561">
  <ele>1582.99</ele>
  <time>2026-09-02T20:50:48Z</time>
  <course>228.2</course>
  <speed>0.9915644204992432</speed>
  <fix>3d</fix>
</trkpt>
<trkpt lat="40.0712611" lon="-105.2299541">
  <ele>1582.99</ele>
  <time>2026-09-02T20:50:48Z</time>
  <course>228.18</course>
  <speed>0.99</speed>
  <fix>3d</fix>
</trkpt>
<trkpt lat="40.0712592" lon="-105.2299568">
  <ele>1582.99</ele>
  <time>2026-09-02T20:50:48Z</time>
  <course>228.2</course>
  <speed>0.9915644204992432</speed>
  <fix>3d</fix>
</trkpt>
<trkpt lat="40.0712599" lon="-105.2299558">
  <ele>1582.99</ele>
  <time>2026-09-02T20:50:48Z</time>
  <course>228.19</course>
  <speed>0.99</speed>
  <fix>3d</fix>
</trkpt>
<trkpt lat="40.0712586" lon="-105.2299577">
  <ele>1582.99</ele>
  <time>2026-09-02T20:50:48Z</time>
  <course>228.2</course>
  <speed>0.9915644204992432</speed>
  <fix>3d</fix>
</trkpt>
<trkpt lat="40.0712599" lon="-105.2299558">
  <ele>1582.99</ele>
  <time>2026-09-02T20:50:48Z</time>
  <course>228.19</course>
  <speed>0.99</speed>
  <fix>3d</fix>
</trkpt>
<trkpt lat="40.071258" lon="-105.2299587">
  <ele>1582.99</ele>
  <time>2026-09-02T20:50:48Z</time>
  <course>228.2</course>
  <speed>0.9915644204992432</speed>
  <fix>3d</fix>
</trkpt>
<trkpt lat="40.0712587" lon="-105.2299576">
  <ele>1582.99</ele>
  <time>2026-09-02T20:50:48Z</time>
  <course>228.19</course>
  <speed>0.99</speed>
  <fix>3d</fix>
</trkpt>
<trkpt lat="40.0712574" lon="-105.2299596">
  <ele>1582.99</ele>
  <time>2026-09-02T20:50:48Z</time>
  <course>228.19</course>
  <speed>0.9915644204992432</speed>
  <fix>3d</fix>
</trkpt>
<trkpt lat="40.0712587" lon="-105.2299576">
  <ele>1582.99</ele>
  <time>2026-09-02T20:50:48Z</time>
  <course>228.19</course>
  <speed>0.99</speed>
  <fix>3d</fix>
</trkpt>
<trkpt lat="40.0712569" lon="-105.2299603">
  <ele>1582.99</ele>
  <time>2026-09-02T20:50:48Z</time>
  <course>228.19</course>
  <speed>0.9915644204992432</speed>
  <fix>3d</fix>
</trkpt>
<trkpt lat="40.0712575" lon="-105.2299594">
  <ele>1582.99</ele>
  <time>2026-09-02T20:50:48Z</time>
  <course>228.18</course>
  <speed>0.99</speed>
  <fix>3d</fix>
</trkpt>
<trkpt lat="40.0712563" lon="-105.2299611">
  <ele>1582.99</ele>
  <time>2026-09-02T20:50:48Z</time>
  <course>228.19</course>
  <speed>0.9915644204992432</speed>
  <fix>3d</fix>
</trkpt>
<trkpt lat="40.0712575" lon="-105.2299594">
  <ele>1582.99</ele>
  <time>2026-09-02T20:50:48Z</time>
  <course>228.18</course>
  <speed>0.99</speed>
  <fix>3d</fix>
</trkpt>
<trkpt lat="40.0712557" lon="-105.229962">
  <ele>1582.99</ele>
  <time>2026-09-02T20:50:48Z</time>
  <course>228.19</course>
  <speed>0.9915644204992432</speed>
  <fix>3d</fix>
</trkpt>
<trkpt lat="40.0712563" lon="-105.2299611">
  <ele>1582.99</ele>
  <time>2026-09-02T20:50:48Z</time>
  <course>228.18</course>
  <speed>0.99</speed>
  <fix>3d</fix>
</trkpt>
<trkpt lat="40.0712551" lon="-105.2299628">
  <ele>1582.99</ele>
  <time>2026-09-02T20:50:48Z</time>
  <course>228.19</course>
  <speed>0.9915644204992432</speed>
  <fix>3d</fix>
</trkpt>
<trkpt lat="40.0712563" lon="-105.2299611">
  <ele>1582.99</ele>
  <time>2026-09-02T20:50:48Z</time>
  <course>228.18</course>
  <speed>0.99</speed>
  <fix>3d</fix>
</trkpt>
<trkpt lat="40.0712545" lon="-105.2299637">
  <ele>1582.99</ele>
  <time>2026-09-02T20:50:48Z</time>
  <course>228.19</course>
  <speed>0.9915644204992432</speed>
  <fix>3d</fix>
</trkpt>
<trkpt lat="40.0712551" lon="-105.2299629">
  <ele>1582.99</ele>
  <time>2026-09-02T20:50:48Z</time>
  <course>228.18</course>
  <speed>0.99</speed>
  <fix>3d</fix>
</trkpt>
<trkpt lat="40.0712539" lon="-105.2299645">
  <ele>1582.99</ele>
  <time>2026-09-02T20:50:48Z</time>
  <course>228.19</course>
  <speed>0.9915644204992432</speed>
  <fix>3d</fix>
</trkpt>
<trkpt lat="40.0712551" lon="-105.2299629">
  <ele>1582.99</ele>
  <time>2026-09-02T20:50:48Z</time>
  <course>228.18</course>
  <speed>0.99</speed>
  <fix>3d</fix>
</trkpt>
<trkpt lat="40.0712533" lon="-105.2299654">
  <ele>1582.99</ele>
  <time>2026-09-02T20:50:48Z</time>
  <course>228.19</course>
  <speed>0.9915644204992432</speed>
  <fix>3d</fix>
</trkpt>
<trkpt lat="40.0712539" lon="-105.2299646">
  <ele>1582.99</ele>
  <time>2026-09-02T20:50:48Z</time>
  <course>228.18</course>
  <speed>1.0</speed>
  <fix>3d</fix>
</trkpt>
<trkpt lat="40.0712527" lon="-105.2299664">
  <ele>1582.99</ele>
  <time>2026-09-02T20:50:48Z</time>
  <course>228.19</course>
  <speed>0.9915644204992432</speed>
  <fix>3d</fix>
</trkpt>
<trkpt lat="40.0712539" lon="-105.2299646">
  <ele>1582.99</ele>
  <time>2026-09-02T20:50:48Z</time>
  <course>228.18</course>
  <speed>1.0</speed>
  <fix>3d</fix>
</trkpt>
<trkpt lat="40.0712521" lon="-105.2299673">
  <ele>1582.99</ele>
  <time>2026-09-02T20:50:48Z</time>
  <course>228.19</course>
  <speed>0.9915644204992432</speed>
  <fix>3d</fix>
</trkpt>
<trkpt lat="40.0712527" lon="-105.2299664">
  <ele>1582.99</ele>
  <time>2026-09-02T20:50:48Z</time>
  <course>228.18</course>
  <speed>1.0</speed>
  <fix>3d</fix>
</trkpt>
<trkpt lat="40.0712514" lon="-105.2299683">
  <ele>1582.99</ele>
  <time>2026-09-02T20:50:48Z</time>
  <course>228.19</course>
  <speed>0.9915644204992432</speed>
  <fix>3d</fix>
</trkpt>
<trkpt lat="40.0712527" lon="-105.2299664">
  <ele>1582.99</ele>
  <time>2026-09-02T20:50:48Z</time>
  <course>228.18</course>
  <speed>1.0</speed>
  <fix>3d</fix>
</trkpt>
<trkpt lat="40.0712508" lon="-105.2299692">
  <ele>1582.99</ele>
  <time>2026-09-02T20:50:48Z</time>
  <course>228.19</course>
  <speed>0.9915644204992432</speed>
  <fix>3d</fix>
</trkpt>
<trkpt lat="40.0712515" lon="-105.2299681">
  <ele>1582.99</ele>
  <time>2026-09-02T20:50:48Z</time>
  <course>228.18</course>
  <speed>0.99</speed>
  <fix>3d</fix>
</trkpt>
<trkpt lat="40.0712502" lon="-105.22997">
  <ele>1582.99</ele>
  <time>2026-09-02T20:50:48Z</time>
  <course>228.18</course>
  <speed>0.9915644204992432</speed>
  <fix>3d</fix>
</trkpt>
<trkpt lat="40.0712515" lon="-105.2299681">
  <ele>1582.99</ele>
  <time>2026-09-02T20:50:48Z</time>
  <course>228.18</course>
  <speed>0.99</speed>
  <fix>3d</fix>
</trkpt>
<trkpt lat="40.0712496" lon="-105.2299709">
  <ele>1582.99</ele>
  <time>2026-09-02T20:50:48Z</time>
  <course>228.18</course>
  <speed>0.9915644204992432</speed>
  <fix>3d</fix>
</trkpt>
<trkpt lat="40.0712503" lon="-105.2299698">
  <ele>1582.99</ele>
  <time>2026-09-02T20:50:48Z</time>
  <course>228.17</course>
  <speed>0.99</speed>
  <fix>3d</fix>
</trkpt>
<trkpt lat="40.071249" lon="-105.2299718">
  <ele>1582.99</ele>
  <time>2026-09-02T20:50:48Z</time>
  <course>228.18</course>
  <speed>0.9915644204992432</speed>
  <fix>3d</fix>
</trkpt>
<trkpt lat="40.0712503" lon="-105.2299698">
  <ele>1582.99</ele>
  <time>2026-09-02T20:50:48Z</time>
  <course>228.17</course>
  <speed>0.99</speed>
  <fix>3d</fix>
</trkpt>
<trkpt lat="40.0712484" lon="-105.2299726">
  <ele>1582.99</ele>
  <time>2026-09-02T20:50:48Z</time>
  <course>228.18</course>
  <speed>0.9915644204992432</speed>
  <fix>3d</fix>
</trkpt>
<trkpt lat="40.0712491" lon="-105.2299716">
  <ele>1582.99</ele>
  <time>2026-09-02T20:50:48Z</time>
  <course>228.17</course>
  <speed>0.99</speed>
  <fix>3d</fix>
</trkpt>
<trkpt lat="40.0712478" lon="-105.2299735">
  <ele>1582.99</ele>
  <time>2026-09-02T20:50:48Z</time>
  <course>228.18</course>
  <speed>0.9915644204992432</speed>
  <fix>3d</fix>
</trkpt>
<trkpt lat="40.0712491" lon="-105.2299716">
  <ele>1582.99</ele>
  <time>2026-09-02T20:50:48Z</time>
  <course>228.17</course>
  <speed>0.99</speed>
  <fix>3d</fix>
</trkpt>
<trkpt lat="40.0712472" lon="-105.2299743">
  <ele>1582.99</ele>
  <time>2026-09-02T20:50:48Z</time>
  <course>228.18</course>
  <speed>0.9915644204992432</speed>
  <fix>3d</fix>
</trkpt>
<trkpt lat="40.071248" lon="-105.2299733">
  <ele>1582.99</ele>
  <time>2026-09-02T20:50:48Z</time>
  <course>228.18</course>
  <speed>0.99</speed>
  <fix>3d</fix>
</trkpt>
<trkpt lat="40.0712466" lon="-105.2299752">
  <ele>1582.99</ele>
  <time>2026-09-02T20:50:48Z</time>
  <course>228.18</course>
  <speed>0.9915644204992432</speed>
  <fix>3d</fix>
</trkpt>
<trkpt lat="40.071248" lon="-105.2299733">
  <ele>1582.99</ele>
  <time>2026-09-02T20:50:48Z</time>
  <course>228.18</course>
  <speed>0.99</speed>
  <fix>3d</fix>
</trkpt>
<trkpt lat="40.071246" lon="-105.2299762">
  <ele>1582.99</ele>
  <time>2026-09-02T20:50:48Z</time>
  <course>228.18</course>
  <speed>0.9915644204992432</speed>
  <fix>3d</fix>
</trkpt>
<trkpt lat="40.0712468" lon="-105.2299751">
  <ele>1582.99</ele>
  <time>2026-09-02T20:50:48Z</time>
  <course>228.17</course>
  <speed>0.99</speed>
  <fix>3d</fix>
</trkpt>
<trkpt lat="40.0712454" lon="-105.2299771">
  <ele>1582.99</ele>
  <time>2026-09-02T20:50:48Z</time>
  <course>228.18</course>
  <speed>0.9915644204992432</speed>
  <fix>3d</fix>
</trkpt>
<trkpt lat="40.0712468" lon="-105.2299751">
  <ele>1582.99</ele>
  <time>2026-09-02T20:50:48Z</time>
  <course>228.17</course>
  <speed>0.99</speed>
  <fix>3d</fix>
</trkpt>
<trkpt lat="40.0712448" lon="-105.2299779">
  <ele>1582.99</ele>
  <time>2026-09-02T20:50:48Z</time>
  <course>228.18</course>
  <speed>0.9841239759298622</speed>
  <fix>3d</fix>
</trkpt>
<trkpt lat="40.0712456" lon="-105.2299769">
  <ele>1582.99</ele>
  <time>2026-09-02T20:50:48Z</time>
  <course>228.17</course>
  <speed>0.99</speed>
  <fix>3d</fix>
</trkpt>
<trkpt lat="40.0712444" lon="-105.2299786">
  <ele>1582.99</ele>
  <time>2026-09-02T20:50:48Z</time>
  <course>228.18</course>
  <speed>1.00568384694197</speed>
  <fix>3d</fix>
</trkpt>
<trkpt lat="40.0712456" lon="-105.2299769">
  <ele>1582.99</ele>
  <time>2026-09-02T20:50:48Z</time>
  <course>228.17</course>
  <speed>0.99</speed>
  <fix>3d</fix>
</trkpt>
<trkpt lat="40.0712438" lon="-105.2299795">
  <ele>1582.99</ele>
  <time>2026-09-02T20:50:48Z</time>
  <course>228.18</course>
  <speed>0.9774456506629922</speed>
  <fix>3d</fix>
</trkpt>
<trkpt lat="40.0712444" lon="-105.2299786">
  <ele>1582.99</ele>
  <time>2026-09-02T20:50:48Z</time>
  <course>228.17</course>
  <speed>0.99</speed>
  <fix>3d</fix>
</trkpt>
<trkpt lat="40.0712432" lon="-105.2299804">
  <ele>1582.99</ele>
  <time>2026-09-02T20:50:48Z</time>
  <course>228.18</course>
  <speed>1.00568384694197</speed>
  <fix>3d</fix>
</trkpt>
<trkpt lat="40.0712444" lon="-105.2299786">
  <ele>1582.99</ele>
  <time>2026-09-02T20:50:48Z</time>
  <course>228.17</course>
  <speed>0.99</speed>
  <fix>3d</fix>
</trkpt>
<trkpt lat="40.0712426" lon="-105.2299812">
  <ele>1582.99</ele>
  <time>2026-09-02T20:50:48Z</time>
  <course>228.17</course>
  <speed>0.9841239759298622</speed>
  <fix>3d</fix>
</trkpt>
<trkpt lat="40.0712432" lon="-105.2299803">
  <ele>1582.99</ele>
  <time>2026-09-02T20:50:48Z</time>
  <course>228.17</course>
  <speed>0.99</speed>
  <fix>3d</fix>
</trkpt>
<trkpt lat="40.071242" lon="-105.2299821">
  <ele>1582.99</ele>
  <time>2026-09-02T20:50:48Z</time>
  <course>228.17</course>
  <speed>1.00568384694197</speed>
  <fix>3d</fix>
</trkpt>
<trkpt lat="40.0712432" lon="-105.2299803">
  <ele>1582.99</ele>
  <time>2026-09-02T20:50:48Z</time>
  <course>228.17</course>
  <speed>0.99</speed>
  <fix>3d</fix>
</trkpt>
<trkpt lat="40.0712414" lon="-105.2299829">
  <ele>1582.99</ele>
  <time>2026-09-02T20:50:48Z</time>
  <course>228.18</course>
  <speed>0.9774456506629922</speed>
  <fix>3d</fix>
</trkpt>
<trkpt lat="40.071242" lon="-105.2299821">
  <ele>1582.99</ele>
  <time>2026-09-02T20:50:48Z</time>
  <course>228.17</course>
  <speed>0.99</speed>
  <fix>3d</fix>
</trkpt>
<trkpt lat="40.0712408" lon="-105.2299838">
  <ele>1582.99</ele>
  <time>2026-09-02T20:50:48Z</time>
  <course>228.18</course>
  <speed>1.00568384694197</speed>
  <fix>3d</fix>
</trkpt>
<trkpt lat="40.071242" lon="-105.2299821">
  <ele>1582.99</ele>
  <time>2026-09-02T20:50:48Z</time>
  <course>228.17</course>
  <speed>0.99</speed>
  <fix>3d</fix>
</trkpt>
<trkpt lat="40.0712402" lon="-105.2299846">
  <ele>1582.99</ele>
  <time>2026-09-02T20:50:48Z</time>
  <course>228.18</course>
  <speed>0.9774456506629922</speed>
  <fix>3d</fix>
</trkpt>
<trkpt lat="40.0712408" lon="-105.2299838">
  <ele>1582.99</ele>
  <time>2026-09-02T20:50:48Z</time>
  <course>228.17</course>
  <speed>0.98</speed>
  <fix>3d</fix>
</trkpt>
<trkpt lat="40.0712396" lon="-105.2299855">
  <ele>1582.99</ele>
  <time>2026-09-02T20:50:48Z</time>
  <course>228.18</course>
  <speed>1.00568384694197</speed>
  <fix>3d</fix>
</trkpt>
<trkpt lat="40.0712408" lon="-105.2299838">
  <ele>1582.99</ele>
  <time>2026-09-02T20:50:48Z</time>
  <course>228.17</course>
  <speed>0.98</speed>
  <fix>3d</fix>
</trkpt>
<trkpt lat="40.0712389" lon="-105.2299867">
  <ele>1582.99</ele>
  <time>2026-09-02T20:50:48Z</time>
  <course>228.18</course>
  <speed>0.9774456506629922</speed>
  <fix>3d</fix>
</trkpt>
<trkpt lat="40.0712396" lon="-105.2299855">
  <ele>1582.99</ele>
  <time>2026-09-02T20:50:48Z</time>
  <course>228.17</course>
  <speed>0.98</speed>
  <fix>3d</fix>
</trkpt>
<trkpt lat="40.0712383" lon="-105.2299874">
  <ele>1582.99</ele>
  <time>2026-09-02T20:50:48Z</time>
  <course>228.18</course>
  <speed>1.00568384694197</speed>
  <fix>3d</fix>
</trkpt>
<trkpt lat="40.0712396" lon="-105.2299855">
  <ele>1582.99</ele>
  <time>2026-09-02T20:50:48Z</time>
  <course>228.17</course>
  <speed>0.98</speed>
  <fix>3d</fix>
</trkpt>
<trkpt lat="40.0712377" lon="-105.2299884">
  <ele>1582.99</ele>
  <time>2026-09-02T20:50:48Z</time>
  <course>228.18</course>
  <speed>0.9774456506629922</speed>
  <fix>3d</fix>
</trkpt>
<trkpt lat="40.0712384" lon="-105.2299873">
  <ele>1582.99</ele>
  <time>2026-09-02T20:50:48Z</time>
  <course>228.17</course>
  <speed>0.98</speed>
  <fix>3d</fix>
</trkpt>
<trkpt lat="40.0712371" lon="-105.2299893">
  <ele>1582.99</ele>
  <time>2026-09-02T20:50:48Z</time>
  <course>228.18</course>
  <speed>1.00568384694197</speed>
  <fix>3d</fix>
</trkpt>
<trkpt lat="40.0712384" lon="-105.2299873">
  <ele>1582.99</ele>
  <time>2026-09-02T20:50:48Z</time>
  <course>228.17</course>
  <speed>0.98</speed>
  <fix>3d</fix>
</trkpt>
<trkpt lat="40.0712365" lon="-105.2299901">
  <ele>1582.99</ele>
  <time>2026-09-02T20:50:48Z</time>
  <course>228.18</course>
  <speed>0.9774456506629922</speed>
  <fix>3d</fix>
</trkpt>
<trkpt lat="40.0712372" lon="-105.2299891">
  <ele>1582.99</ele>
  <time>2026-09-02T20:50:48Z</time>
  <course>228.17</course>
  <speed>0.98</speed>
  <fix>3d</fix>
</trkpt>
<trkpt lat="40.0712359" lon="-105.229991">
  <ele>1582.99</ele>
  <time>2026-09-02T20:50:48Z</time>
  <course>228.18</course>
  <speed>1.00568384694197</speed>
  <fix>3d</fix>
</trkpt>
<trkpt lat="40.0712372" lon="-105.2299891">
  <ele>1582.99</ele>
  <time>2026-09-02T20:50:48Z</time>
  <course>228.17</course>
  <speed>0.98</speed>
  <fix>3d</fix>
</trkpt>
<trkpt lat="40.0712353" lon="-105.2299919">
  <ele>1582.99</ele>
  <time>2026-09-02T20:50:48Z</time>
  <course>228.18</course>
  <speed>0.9774456506629922</speed>
  <fix>3d</fix>
</trkpt>
<trkpt lat="40.071236" lon="-105.2299908">
  <ele>1582.99</ele>
  <time>2026-09-02T20:50:48Z</time>
  <course>228.17</course>
  <speed>0.98</speed>
  <fix>3d</fix>
</trkpt>
<trkpt lat="40.0712347" lon="-105.2299927">
  <ele>1582.99</ele>
  <time>2026-09-02T20:50:48Z</time>
  <course>228.18</course>
  <speed>1.00568384694197</speed>
  <fix>3d</fix>
</trkpt>
<trkpt lat="40.071236" lon="-105.2299908">
  <ele>1582.99</ele>
  <time>2026-09-02T20:50:48Z</time>
  <course>228.17</course>
  <speed>0.98</speed>
  <fix>3d</fix>
</trkpt>
<trkpt lat="40.0712341" lon="-105.2299937">
  <ele>1582.99</ele>
  <time>2026-09-02T20:50:48Z</time>
  <course>228.18</course>
  <speed>0.9774456506629922</speed>
  <fix>3d</fix>
</trkpt>
<trkpt lat="40.0712348" lon="-105.2299926">
  <ele>1582.99</ele>
  <time>2026-09-02T20:50:48Z</time>
  <course>228.17</course>
  <speed>0.98</speed>
  <fix>3d</fix>
</trkpt>
<trkpt lat="40.0712335" lon="-105.2299944">
  <ele>1582.99</ele>
  <time>2026-09-02T20:50:48Z</time>
  <course>228.18</course>
  <speed>1.00568384694197</speed>
  <fix>3d</fix>
</trkpt>
<trkpt lat="40.0712348" lon="-105.2299926">
  <ele>1582.99</ele>
  <time>2026-09-02T20:50:48Z</time>
  <course>228.17</course>
  <speed>0.98</speed>
  <fix>3d</fix>
</trkpt>
<trkpt lat="40.0712329" lon="-105.2299953">
  <ele>1582.99</ele>
  <time>2026-09-02T20:50:48Z</time>
  <course>228.18</course>
  <speed>0.9841239759298622</speed>
  <fix>3d</fix>
</trkpt>
<trkpt lat="40.0712336" lon="-105.2299943">
  <ele>1582.99</ele>
  <time>2026-09-02T20:50:48Z</time>
  <course>228.17</course>
  <speed>0.99</speed>
  <fix>3d</fix>
</trkpt>
<trkpt lat="40.0712324" lon="-105.229996">
  <ele>1582.99</ele>
  <time>2026-09-02T20:50:48Z</time>
  <course>228.18</course>
  <speed>1.00568384694197</speed>
  <fix>3d</fix>
</trkpt>
<trkpt lat="40.0712336" lon="-105.2299943">
  <ele>1582.99</ele>
  <time>2026-09-02T20:50:48Z</time>
  <course>228.17</course>
  <speed>0.99</speed>
  <fix>3d</fix>
</trkpt>
<trkpt lat="40.0712318" lon="-105.229997">
  <ele>1582.99</ele>
  <time>2026-09-02T20:50:48Z</time>
  <course>228.18</course>
  <speed>0.9774456506629922</speed>
  <fix>3d</fix>
</trkpt>
<trkpt lat="40.0712324" lon="-105.229996">
  <ele>1582.99</ele>
  <time>2026-09-02T20:50:48Z</time>
  <course>228.17</course>
  <speed>0.99</speed>
  <fix>3d</fix>
</trkpt>
<trkpt lat="40.0712312" lon="-105.2299979">
  <ele>1582.99</ele>
  <time>2026-09-02T20:50:48Z</time>
  <course>228.17</course>
  <speed>1.00568384694197</speed>
  <fix>3d</fix>
</trkpt>
<trkpt lat="40.0712324" lon="-105.229996">
  <ele>1582.99</ele>
  <time>2026-09-02T20:50:48Z</time>
  <course>228.17</course>
  <speed>0.99</speed>
  <fix>3d</fix>
</trkpt>
<trkpt lat="40.0712306" lon="-105.2299987">
  <ele>1582.99</ele>
  <time>2026-09-02T20:50:48Z</time>
  <course>228.17</course>
  <speed>0.9915644204992432</speed>
  <fix>3d</fix>
</trkpt>
<trkpt lat="40.0712312" lon="-105.2299978">
  <ele>1582.99</ele>
  <time>2026-09-02T20:50:48Z</time>
  <course>228.17</course>
  <speed>0.99</speed>
  <fix>3d</fix>
</trkpt>
<trkpt lat="40.07123" lon="-105.2299996">
  <ele>1582.99</ele>
  <time>2026-09-02T20:50:48Z</time>
  <course>228.17</course>
  <speed>0.9915644204992432</speed>
  <fix>3d</fix>
</trkpt>
<trkpt lat="40.0712312" lon="-105.2299978">
  <ele>1582.99</ele>
  <time>2026-09-02T20:50:48Z</time>
  <course>228.17</course>
  <speed>0.99</speed>
  <fix>3d</fix>
</trkpt>
<trkpt lat="40.0712294" lon="-105.2300004">
  <ele>1582.99</ele>
  <time>2026-09-02T20:50:48Z</time>
  <course>228.17</course>
  <speed>0.9915644204992432</speed>
  <fix>3d</fix>
</trkpt>
<trkpt lat="40.07123" lon="-105.2299995">
  <ele>1582.99</ele>
  <time>2026-09-02T20:50:48Z</time>
  <course>228.17</course>
  <speed>0.99</speed>
  <fix>3d</fix>
</trkpt>
<trkpt lat="40.0712288" lon="-105.2300013">
  <ele>1582.99</ele>
  <time>2026-09-02T20:50:48Z</time>
  <course>228.17</course>
  <speed>0.9915644204992432</speed>
  <fix>3d</fix>
</trkpt>
<trkpt lat="40.07123" lon="-105.2299995">
  <ele>1582.99</ele>
  <time>2026-09-02T20:50:48Z</time>
  <course>228.17</course>
  <speed>0.99</speed>
  <fix>3d</fix>
</trkpt>
<trkpt lat="40.0712282" lon="-105.2300022">
  <ele>1582.99</ele>
  <time>2026-09-02T20:50:48Z</time>
  <course>228.17</course>
  <speed>0.9915644204992432</speed>
  <fix>3d</fix>
</trkpt>
<trkpt lat="40.0712288" lon="-105.2300013">
  <ele>1582.99</ele>
  <time>2026-09-02T20:50:48Z</time>
  <course>228.16</course>
  <speed>0.99</speed>
  <fix>3d</fix>
</trkpt>
<trkpt lat="40.0712276" lon="-105.230003">
  <ele>1582.99</ele>
  <time>2026-09-02T20:50:48Z</time>
  <course>228.17</course>
  <speed>0.9915644204992432</speed>
  <fix>3d</fix>
</trkpt>
<trkpt lat="40.0712288" lon="-105.2300013">
  <ele>1582.99</ele>
  <time>2026-09-02T20:50:48Z</time>
  <course>228.16</course>
  <speed>0.99</speed>
  <fix>3d</fix>
</trkpt>
<trkpt lat="40.071227" lon="-105.2300039">
  <ele>1582.99</ele>
  <time>2026-09-02T20:50:48Z</time>
  <course>228.17</course>
  <speed>0.9915644204992432</speed>
  <fix>3d</fix>
</trkpt>
<trkpt lat="40.0712276" lon="-105.2300031">
  <ele>1582.99</ele>
  <time>2026-09-02T20:50:48Z</time>
  <course>228.16</course>
  <speed>0.99</speed>
  <fix>3d</fix>
</trkpt>
<trkpt lat="40.0712263" lon="-105.2300049">
  <ele>1582.99</ele>
  <time>2026-09-02T20:50:48Z</time>
  <course>228.17</course>
  <speed>0.9915644204992432</speed>
  <fix>3d</fix>
</trkpt>
<trkpt lat="40.0712276" lon="-105.2300031">
  <ele>1582.99</ele>
  <time>2026-09-02T20:50:48Z</time>
  <course>228.16</course>
  <speed>0.99</speed>
  <fix>3d</fix>
</trkpt>
<trkpt lat="40.0712257" lon="-105.2300059">
  <ele>1582.99</ele>
  <time>2026-09-02T20:50:48Z</time>
  <course>228.16</course>
  <speed>0.9915644204992432</speed>
  <fix>3d</fix>
</trkpt>
<trkpt lat="40.0712264" lon="-105.2300048">
  <ele>1582.99</ele>
  <time>2026-09-02T20:50:48Z</time>
  <course>228.16</course>
  <speed>0.99</speed>
  <fix>3d</fix>
</trkpt>
<trkpt lat="40.0712251" lon="-105.2300068">
  <ele>1582.99</ele>
  <time>2026-09-02T20:50:48Z</time>
  <course>228.16</course>
  <speed>0.9915644204992432</speed>
  <fix>3d</fix>
</trkpt>
<trkpt lat="40.0712264" lon="-105.2300048">
  <ele>1582.99</ele>
  <time>2026-09-02T20:50:48Z</time>
  <course>228.16</course>
  <speed>0.99</speed>
  <fix>3d</fix>
</trkpt>
<trkpt lat="40.0712245" lon="-105.2300077">
  <ele>1582.99</ele>
  <time>2026-09-02T20:50:48Z</time>
  <course>228.15</course>
  <speed>0.9915644204992432</speed>
  <fix>3d</fix>
</trkpt>
<trkpt lat="40.0712252" lon="-105.2300066">
  <ele>1582.99</ele>
  <time>2026-09-02T20:50:48Z</time>
  <course>228.15</course>
  <speed>0.99</speed>
  <fix>3d</fix>
</trkpt>
<trkpt lat="40.0712239" lon="-105.2300085">
  <ele>1582.99</ele>
  <time>2026-09-02T20:50:48Z</time>
  <course>228.15</course>
  <speed>0.9915644204992432</speed>
  <fix>3d</fix>
</trkpt>
<trkpt lat="40.0712252" lon="-105.2300066">
  <ele>1582.99</ele>
  <time>2026-09-02T20:50:48Z</time>
  <course>228.15</course>
  <speed>0.99</speed>
  <fix>3d</fix>
</trkpt>
<trkpt lat="40.0712233" lon="-105.2300094">
  <ele>1583.0</ele>
  <time>2026-09-02T20:50:48Z</time>
  <course>228.15</course>
  <speed>0.9915644204992432</speed>
  <fix>3d</fix>
</trkpt>
<trkpt lat="40.071224" lon="-105.2300083">
  <ele>1582.99</ele>
  <time>2026-09-02T20:50:48Z</time>
  <course>228.15</course>
  <speed>0.99</speed>
  <fix>3d</fix>
</trkpt>
<trkpt lat="40.0712227" lon="-105.2300102">
  <ele>1583.0</ele>
  <time>2026-09-02T20:50:48Z</time>
  <course>228.14</course>
  <speed>0.9915644204992432</speed>
  <fix>3d</fix>
</trkpt>
<trkpt lat="40.071224" lon="-105.2300083">
  <ele>1582.99</ele>
  <time>2026-09-02T20:50:48Z</time>
  <course>228.15</course>
  <speed>0.99</speed>
  <fix>3d</fix>
</trkpt>
<trkpt lat="40.0712221" lon="-105.2300111">
  <ele>1582.99</ele>
  <time>2026-09-02T20:50:48Z</time>
  <course>228.14</course>
  <speed>0.9915644204992432</speed>
  <fix>3d</fix>
</trkpt>
<trkpt lat="40.0712228" lon="-105.23001">
  <ele>1582.99</ele>
  <time>2026-09-02T20:50:48Z</time>
  <course>228.14</course>
  <speed>0.99</speed>
  <fix>3d</fix>
</trkpt>
<trkpt lat="40.0712215" lon="-105.230012">
  <ele>1582.99</ele>
  <time>2026-09-02T20:50:48Z</time>
  <course>228.14</course>
  <speed>0.9982484660644363</speed>
  <fix>3d</fix>
</trkpt>
<trkpt lat="40.0712228" lon="-105.23001">
  <ele>1582.99</ele>
  <time>2026-09-02T20:50:48Z</time>
  <course>228.14</course>
  <speed>0.99</speed>
  <fix>3d</fix>
</trkpt>
<trkpt lat="40.0712209" lon="-105.2300128">
  <ele>1582.99</ele>
  <time>2026-09-02T20:50:48Z</time>
  <course>228.14</course>
  <speed>0.9915644204992432</speed>
  <fix>3d</fix>
</trkpt>
<trkpt lat="40.0712216" lon="-105.2300118">
  <ele>1582.99</ele>
  <time>2026-09-02T20:50:48Z</time>
  <course>228.13</course>
  <speed>0.99</speed>
  <fix>3d</fix>
</trkpt>
<trkpt lat="40.0712203" lon="-105.2300138">
  <ele>1582.99</ele>
  <time>2026-09-02T20:50:48Z</time>
  <course>228.14</course>
  <speed>0.9915644204992432</speed>
  <fix>3d</fix>
</trkpt>
<trkpt lat="40.0712216" lon="-105.2300118">
  <ele>1582.99</ele>
  <time>2026-09-02T20:50:48Z</time>
  <course>228.13</course>
  <speed>0.99</speed>
  <fix>3d</fix>
</trkpt>
<trkpt lat="40.0712198" lon="-105.2300145">
  <ele>1582.99</ele>
  <time>2026-09-02T20:50:48Z</time>
  <course>228.14</course>
  <speed>0.9915644204992432</speed>
  <fix>3d</fix>
</trkpt>
<trkpt lat="40.0712204" lon="-105.2300135">
  <ele>1582.99</ele>
  <time>2026-09-02T20:50:48Z</time>
  <course>228.13</course>
  <speed>0.99</speed>
  <fix>3d</fix>
</trkpt>
<trkpt lat="40.0712192" lon="-105.2300152">
  <ele>1582.99</ele>
  <time>2026-09-02T20:50:48Z</time>
  <course>228.14</course>
  <speed>0.9982484660644363</speed>
  <fix>3d</fix>
</trkpt>
<trkpt lat="40.0712204" lon="-105.2300135">
  <ele>1582.99</ele>
  <time>2026-09-02T20:50:48Z</time>
  <course>228.13</course>
  <speed>0.99</speed>
  <fix>3d</fix>
</trkpt>
<trkpt lat="40.0712186" lon="-105.2300162">
  <ele>1582.99</ele>
  <time>2026-09-02T20:50:48Z</time>
  <course>228.13</course>
  <speed>0.9915644204992432</speed>
  <fix>3d</fix>
</trkpt>
<trkpt lat="40.0712192" lon="-105.2300153">
  <ele>1582.99</ele>
  <time>2026-09-02T20:50:48Z</time>
  <course>228.13</course>
  <speed>0.99</speed>
  <fix>3d</fix>
</trkpt>
<trkpt lat="40.0712179" lon="-105.2300171">
  <ele>1582.99</ele>
  <time>2026-09-02T20:50:48Z</time>
  <course>228.13</course>
  <speed>0.9982484660644363</speed>
  <fix>3d</fix>
</trkpt>
<trkpt lat="40.0712192" lon="-105.2300153">
  <ele>1582.99</ele>
  <time>2026-09-02T20:50:48Z</time>
  <course>228.13</course>
  <speed>0.99</speed>
  <fix>3d</fix>
</trkpt>
<trkpt lat="40.0712173" lon="-105.230018">
  <ele>1582.99</ele>
  <time>2026-09-02T20:50:48Z</time>
  <course>228.13</course>
  <speed>0.9841239759298622</speed>
  <fix>3d</fix>
</trkpt>
<trkpt lat="40.071218" lon="-105.2300171">
  <ele>1582.99</ele>
  <time>2026-09-02T20:50:48Z</time>
  <course>228.13</course>
  <speed>0.99</speed>
  <fix>3d</fix>
</trkpt>
<trkpt lat="40.0712167" lon="-105.2300188">
  <ele>1582.99</ele>
  <time>2026-09-02T20:50:48Z</time>
  <course>228.13</course>
  <speed>0.9982484660644363</speed>
  <fix>3d</fix>
</trkpt>
<trkpt lat="40.071218" lon="-105.2300171">
  <ele>1582.99</ele>
  <time>2026-09-02T20:50:48Z</time>
  <course>228.13</course>
  <speed>0.99</speed>
  <fix>3d</fix>
</trkpt>
<trkpt lat="40.0712161" lon="-105.2300197">
  <ele>1582.99</ele>
  <time>2026-09-02T20:50:48Z</time>
  <course>228.13</course>
  <speed>0.9915644204992432</speed>
  <fix>3d</fix>
</trkpt>
<trkpt lat="40.0712167" lon="-105.2300188">
  <ele>1582.99</ele>
  <time>2026-09-02T20:50:48Z</time>
  <course>228.13</course>
  <speed>0.99</speed>
  <fix>3d</fix>
</trkpt>
<trkpt lat="40.0712155" lon="-105.2300205">
  <ele>1582.99</ele>
  <time>2026-09-02T20:50:48Z</time>
  <course>228.13</course>
  <speed>0.9915644204992432</speed>
  <fix>3d</fix>
</trkpt>
<trkpt lat="40.0712167" lon="-105.2300188">
  <ele>1582.99</ele>
  <time>2026-09-02T20:50:48Z</time>
  <course>228.13</course>
  <speed>0.99</speed>
  <fix>3d</fix>
</trkpt>
<trkpt lat="40.0712149" lon="-105.2300214">
  <ele>1582.99</ele>
  <time>2026-09-02T20:50:48Z</time>
  <course>228.13</course>
  <speed>0.9915644204992432</speed>
  <fix>3d</fix>
</trkpt>
<trkpt lat="40.0712155" lon="-105.2300205">
  <ele>1582.99</ele>
  <time>2026-09-02T20:50:48Z</time>
  <course>228.12</course>
  <speed>0.99</speed>
  <fix>3d</fix>
</trkpt>
<trkpt lat="40.0712143" lon="-105.2300223">
  <ele>1582.99</ele>
  <time>2026-09-02T20:50:48Z</time>
  <course>228.13</course>
  <speed>0.9982484660644363</speed>
  <fix>3d</fix>
</trkpt>
<trkpt lat="40.0712155" lon="-105.2300205">
  <ele>1582.99</ele>
  <time>2026-09-02T20:50:48Z</time>
  <course>228.12</course>
  <speed>0.99</speed>
  <fix>3d</fix>
</trkpt>
<trkpt lat="40.0712137" lon="-105.2300233">
  <ele>1582.99</ele>
  <time>2026-09-02T20:50:48Z</time>
  <course>228.13</course>
  <speed>0.9915644204992432</speed>
  <fix>3d</fix>
</trkpt>
<trkpt lat="40.0712144" lon="-105.2300223">
  <ele>1582.99</ele>
  <time>2026-09-02T20:50:48Z</time>
  <course>228.12</course>
  <speed>0.99</speed>
  <fix>3d</fix>
</trkpt>
<trkpt lat="40.0712131" lon="-105.2300243">
  <ele>1582.99</ele>
  <time>2026-09-02T20:50:48Z</time>
  <course>228.13</course>
  <speed>0.9982484660644363</speed>
  <fix>3d</fix>
</trkpt>
<trkpt lat="40.0712144" lon="-105.2300223">
  <ele>1582.99</ele>
  <time>2026-09-02T20:50:48Z</time>
  <course>228.12</course>
  <speed>0.99</speed>
  <fix>3d</fix>
</trkpt>
<trkpt lat="40.0712125" lon="-105.230025">
  <ele>1582.99</ele>
  <time>2026-09-02T20:50:48Z</time>
  <course>228.13</course>
  <speed>0.9915644204992432</speed>
  <fix>3d</fix>
</trkpt>
<trkpt lat="40.0712132" lon="-105.2300241">
  <ele>1582.99</ele>
  <time>2026-09-02T20:50:48Z</time>
  <course>228.12</course>
  <speed>0.99</speed>
  <fix>3d</fix>
</trkpt>
<trkpt lat="40.0712119" lon="-105.230026">
  <ele>1582.99</ele>
  <time>2026-09-02T20:50:48Z</time>
  <course>228.13</course>
  <speed>0.9915644204992432</speed>
  <fix>3d</fix>
</trkpt>
<trkpt lat="40.0712132" lon="-105.2300241">
  <ele>1582.99</ele>
  <time>2026-09-02T20:50:48Z</time>
  <course>228.12</course>
  <speed>0.99</speed>
  <fix>3d</fix>
</trkpt>
<trkpt lat="40.0712113" lon="-105.2300269">
  <ele>1582.99</ele>
  <time>2026-09-02T20:50:48Z</time>
  <course>228.12</course>
  <speed>0.9915644204992432</speed>
  <fix>3d</fix>
</trkpt>
<trkpt lat="40.071212" lon="-105.2300258">
  <ele>1582.99</ele>
  <time>2026-09-02T20:50:48Z</time>
  <course>228.12</course>
  <speed>0.99</speed>
  <fix>3d</fix>
</trkpt>
<trkpt lat="40.0712107" lon="-105.2300278">
  <ele>1582.99</ele>
  <time>2026-09-02T20:50:48Z</time>
  <course>228.12</course>
  <speed>0.9915644204992432</speed>
  <fix>3d</fix>
</trkpt>
<trkpt lat="40.071212" lon="-105.2300258">
  <ele>1582.99</ele>
  <time>2026-09-02T20:50:48Z</time>
  <course>228.12</course>
  <speed>0.99</speed>
  <fix>3d</fix>
</trkpt>
<trkpt lat="40.07121" lon="-105.2300286">
  <ele>1582.99</ele>
  <time>2026-09-02T20:50:48Z</time>
  <course>228.11</course>
  <speed>0.9915644204992432</speed>
  <fix>3d</fix>
</trkpt>
<trkpt lat="40.0712108" lon="-105.2300276">
  <ele>1582.99</ele>
  <time>2026-09-02T20:50:48Z</time>
  <course>228.11</course>
  <speed>0.99</speed>
  <fix>3d</fix>
</trkpt>
<trkpt lat="40.0712094" lon="-105.2300295">
  <ele>1582.99</ele>
  <time>2026-09-02T20:50:48Z</time>
  <course>228.11</course>
  <speed>0.9915644204992432</speed>
  <fix>3d</fix>
</trkpt>
<trkpt lat="40.0712108" lon="-105.2300276">
  <ele>1582.99</ele>
  <time>2026-09-02T20:50:48Z</time>
  <course>228.11</course>
  <speed>0.99</speed>
  <fix>3d</fix>
</trkpt>
<trkpt lat="40.0712088" lon="-105.2300303">
  <ele>1582.99</ele>
  <time>2026-09-02T20:50:48Z</time>
  <course>228.11</course>
  <speed>0.9915644204992432</speed>
  <fix>3d</fix>
</trkpt>
<trkpt lat="40.0712097" lon="-105.2300293">
  <ele>1582.99</ele>
  <time>2026-09-02T20:50:48Z</time>
  <course>228.11</course>
  <speed>0.99</speed>
  <fix>3d</fix>
</trkpt>
<trkpt lat="40.0712082" lon="-105.2300312">
  <ele>1582.99</ele>
  <time>2026-09-02T20:50:48Z</time>
  <course>228.11</course>
  <speed>0.9915644204992432</speed>
  <fix>3d</fix>
</trkpt>
<trkpt lat="40.0712097" lon="-105.2300293">
  <ele>1582.99</ele>
  <time>2026-09-02T20:50:48Z</time>
  <course>228.11</course>
  <speed>0.99</speed>
  <fix>3d</fix>
</trkpt>
<trkpt lat="40.0712076" lon="-105.230032">
  <ele>1582.99</ele>
  <time>2026-09-02T20:50:48Z</time>
  <course>228.12</course>
  <speed>0.9915644204992432</speed>
  <fix>3d</fix>
</trkpt>
<trkpt lat="40.0712085" lon="-105.230031">
  <ele>1582.99</ele>
  <time>2026-09-02T20:50:48Z</time>
  <course>228.11</course>
  <speed>0.99</speed>
  <fix>3d</fix>
</trkpt>
<trkpt lat="40.0712073" lon="-105.2300327">
  <ele>1582.99</ele>
  <time>2026-09-02T20:50:48Z</time>
  <course>228.12</course>
  <speed>0.9982484660644363</speed>
  <fix>3d</fix>
</trkpt>
<trkpt lat="40.0712085" lon="-105.230031">
  <ele>1582.99</ele>
  <time>2026-09-02T20:50:48Z</time>
  <course>228.11</course>
  <speed>0.99</speed>
  <fix>3d</fix>
</trkpt>
<trkpt lat="40.0712067" lon="-105.2300336">
  <ele>1582.99</ele>
  <time>2026-09-02T20:50:48Z</time>
  <course>228.12</course>
  <speed>0.9915644204992432</speed>
  <fix>3d</fix>
</trkpt>
<trkpt lat="40.0712073" lon="-105.2300328">
  <ele>1582.99</ele>
  <time>2026-09-02T20:50:48Z</time>
  <course>228.12</course>
  <speed>0.99</speed>
  <fix>3d</fix>
</trkpt>
<trkpt lat="40.0712061" lon="-105.2300346">
  <ele>1582.99</ele>
  <time>2026-09-02T20:50:48Z</time>
  <course>228.12</course>
  <speed>0.9982484660644363</speed>
  <fix>3d</fix>
</trkpt>
<trkpt lat="40.0712073" lon="-105.2300328">
  <ele>1582.99</ele>
  <time>2026-09-02T20:50:48Z</time>
  <course>228.12</course>
  <speed>0.99</speed>
  <fix>3d</fix>
</trkpt>
<trkpt lat="40.0712055" lon="-105.2300353">
  <ele>1582.99</ele>
  <time>2026-09-02T20:50:48Z</time>
  <course>228.12</course>
  <speed>0.9915644204992432</speed>
  <fix>3d</fix>
</trkpt>
<trkpt lat="40.0712061" lon="-105.2300345">
  <ele>1582.99</ele>
  <time>2026-09-02T20:50:48Z</time>
  <course>228.12</course>
  <speed>0.99</speed>
  <fix>3d</fix>
</trkpt>
<trkpt lat="40.0712049" lon="-105.2300363">
  <ele>1582.99</ele>
  <time>2026-09-02T20:50:48Z</time>
  <course>228.12</course>
  <speed>0.9982484660644363</speed>
  <fix>3d</fix>
</trkpt>
<trkpt lat="40.0712061" lon="-105.2300345">
  <ele>1582.99</ele>
  <time>2026-09-02T20:50:48Z</time>
  <course>228.12</course>
  <speed>0.99</speed>
  <fix>3d</fix>
</trkpt>
<trkpt lat="40.0712043" lon="-105.2300372">
  <ele>1582.99</ele>
  <time>2026-09-02T20:50:48Z</time>
  <course>228.12</course>
  <speed>0.9915644204992432</speed>
  <fix>3d</fix>
</trkpt>
<trkpt lat="40.0712049" lon="-105.2300363">
  <ele>1582.99</ele>
  <time>2026-09-02T20:50:48Z</time>
  <course>228.12</course>
  <speed>0.99</speed>
  <fix>3d</fix>
</trkpt>
<trkpt lat="40.0712037" lon="-105.2300381">
  <ele>1582.99</ele>
  <time>2026-09-02T20:50:48Z</time>
  <course>228.12</course>
  <speed>0.9982484660644363</speed>
  <fix>3d</fix>
</trkpt>
<trkpt lat="40.0712049" lon="-105.2300363">
  <ele>1582.99</ele>
  <time>2026-09-02T20:50:48Z</time>
  <course>228.12</course>
  <speed>0.99</speed>
  <fix>3d</fix>
</trkpt>
<trkpt lat="40.0712031" lon="-105.2300389">
  <ele>1582.99</ele>
  <time>2026-09-02T20:50:48Z</time>
  <course>228.11</course>
  <speed>0.9915644204992432</speed>
  <fix>3d</fix>
</trkpt>
<trkpt lat="40.0712037" lon="-105.230038">
  <ele>1582.99</ele>
  <time>2026-09-02T20:50:48Z</time>
  <course>228.11</course>
  <speed>0.99</speed>
  <fix>3d</fix>
</trkpt>
<trkpt lat="40.0712025" lon="-105.2300398">
  <ele>1582.99</ele>
  <time>2026-09-02T20:50:48Z</time>
  <course>228.11</course>
  <speed>0.9982484660644363</speed>
  <fix>3d</fix>
</trkpt>
<trkpt lat="40.0712037" lon="-105.230038">
  <ele>1582.99</ele>
  <time>2026-09-02T20:50:48Z</time>
  <course>228.11</course>
  <speed>0.99</speed>
  <fix>3d</fix>
</trkpt>
<trkpt lat="40.0712019" lon="-105.2300406">
  <ele>1582.99</ele>
  <time>2026-09-02T20:50:48Z</time>
  <course>228.12</course>
  <speed>0.9915644204992432</speed>
  <fix>3d</fix>
</trkpt>
<trkpt lat="40.0712025" lon="-105.2300397">
  <ele>1582.99</ele>
  <time>2026-09-02T20:50:48Z</time>
  <course>228.11</course>
  <speed>0.99</speed>
  <fix>3d</fix>
</trkpt>
<trkpt lat="40.071201" lon="-105.2300417">
  <ele>1582.99</ele>
  <time>2026-09-02T20:50:48Z</time>
  <course>228.12</course>
  <speed>0.9915644204992432</speed>
  <fix>3d</fix>
</trkpt>
<trkpt lat="40.0712025" lon="-105.2300397">
  <ele>1582.99</ele>
  <time>2026-09-02T20:50:48Z</time>
  <course>228.11</course>
  <speed>0.99</speed>
  <fix>3d</fix>
</trkpt>
<trkpt lat="40.0712004" lon="-105.2300425">
  <ele>1582.99</ele>
  <time>2026-09-02T20:50:48Z</time>
  <course>228.12</course>
  <speed>0.9915644204992432</speed>
  <fix>3d</fix>
</trkpt>
<trkpt lat="40.0712013" lon="-105.2300415">
  <ele>1582.99</ele>
  <time>2026-09-02T20:50:48Z</time>
  <course>228.12</course>
  <speed>0.99</speed>
  <fix>3d</fix>
</trkpt>
<trkpt lat="40.0711998" lon="-105.2300434">
  <ele>1582.99</ele>
  <time>2026-09-02T20:50:48Z</time>
  <course>228.12</course>
  <speed>0.9915644204992432</speed>
  <fix>3d</fix>
</trkpt>
<trkpt lat="40.0712013" lon="-105.2300415">
  <ele>1582.99</ele>
  <time>2026-09-02T20:50:48Z</time>
  <course>228.12</course>
  <speed>0.99</speed>
  <fix>3d</fix>
</trkpt>
<trkpt lat="40.0711992" lon="-105.2300444">
  <ele>1582.99</ele>
  <time>2026-09-02T20:50:48Z</time>
  <course>228.12</course>
  <speed>0.9915644204992432</speed>
  <fix>3d</fix>
</trkpt>
<trkpt lat="40.0712001" lon="-105.2300433">
  <ele>1582.99</ele>
  <time>2026-09-02T20:50:48Z</time>
  <course>228.12</course>
  <speed>0.99</speed>
  <fix>3d</fix>
</trkpt>
<trkpt lat="40.0711986" lon="-105.2300451">
  <ele>1582.99</ele>
  <time>2026-09-02T20:50:48Z</time>
  <course>228.12</course>
  <speed>0.9915644204992432</speed>
  <fix>3d</fix>
</trkpt>
<trkpt lat="40.0712001" lon="-105.2300433">
  <ele>1582.99</ele>
  <time>2026-09-02T20:50:48Z</time>
  <course>228.12</course>
  <speed>0.99</speed>
  <fix>3d</fix>
</trkpt>
<trkpt lat="40.071198" lon="-105.2300461">
  <ele>1582.99</ele>
  <time>2026-09-02T20:50:48Z</time>
  <course>228.12</course>
  <speed>0.9915644204992432</speed>
  <fix>3d</fix>
</trkpt>
<trkpt lat="40.0711989" lon="-105.230045">
  <ele>1582.99</ele>
  <time>2026-09-02T20:50:48Z</time>
  <course>228.12</course>
  <speed>0.99</speed>
  <fix>3d</fix>
</trkpt>
<trkpt lat="40.0711974" lon="-105.230047">
  <ele>1582.99</ele>
  <time>2026-09-02T20:50:48Z</time>
  <course>228.13</course>
  <speed>0.9915644204992432</speed>
  <fix>3d</fix>
</trkpt>
<trkpt lat="40.0711989" lon="-105.230045">
  <ele>1582.99</ele>
  <time>2026-09-02T20:50:48Z</time>
  <course>228.12</course>
  <speed>0.99</speed>
  <fix>3d</fix>
</trkpt>
<trkpt lat="40.0711968" lon="-105.2300478">
  <ele>1582.99</ele>
  <time>2026-09-02T20:50:48Z</time>
  <course>228.13</course>
  <speed>0.9915644204992432</speed>
  <fix>3d</fix>
</trkpt>
<trkpt lat="40.0711977" lon="-105.2300468">
  <ele>1582.99</ele>
  <time>2026-09-02T20:50:48Z</time>
  <course>228.12</course>
  <speed>0.99</speed>
  <fix>3d</fix>
</trkpt>
<trkpt lat="40.0711962" lon="-105.2300487">
  <ele>1582.99</ele>
  <time>2026-09-02T20:50:48Z</time>
  <course>228.12</course>
  <speed>0.9915644204992432</speed>
  <fix>3d</fix>
</trkpt>
<trkpt lat="40.0711977" lon="-105.2300468">
  <ele>1582.99</ele>
  <time>2026-09-02T20:50:48Z</time>
  <course>228.12</course>
  <speed>0.99</speed>
  <fix>3d</fix>
</trkpt>
<trkpt lat="40.0711958" lon="-105.2300496">
  <ele>1582.99</ele>
  <time>2026-09-02T20:50:48Z</time>
  <course>228.12</course>
  <speed>0.9915644204992432</speed>
  <fix>3d</fix>
</trkpt>
<trkpt lat="40.0711965" lon="-105.2300485">
  <ele>1582.99</ele>
  <time>2026-09-02T20:50:48Z</time>
  <course>228.12</course>
  <speed>0.99</speed>
  <fix>3d</fix>
</trkpt>
<trkpt lat="40.0711951" lon="-105.2300504">
  <ele>1582.99</ele>
  <time>2026-09-02T20:50:48Z</time>
  <course>228.12</course>
  <speed>0.9915644204992432</speed>
  <fix>3d</fix>
</trkpt>
<trkpt lat="40.0711965" lon="-105.2300485">
  <ele>1582.99</ele>
  <time>2026-09-02T20:50:48Z</time>
  <course>228.12</course>
  <speed>0.99</speed>
  <fix>3d</fix>
</trkpt>
<trkpt lat="40.0711947" lon="-105.2300511">
  <ele>1582.99</ele>
  <time>2026-09-02T20:50:48Z</time>
  <course>228.13</course>
  <speed>0.9915644204992432</speed>
  <fix>3d</fix>
</trkpt>
<trkpt lat="40.0711953" lon="-105.2300502">
  <ele>1582.99</ele>
  <time>2026-09-02T20:50:48Z</time>
  <course>228.12</course>
  <speed>0.99</speed>
  <fix>3d</fix>
</trkpt>
<trkpt lat="40.0711941" lon="-105.230052">
  <ele>1582.99</ele>
  <time>2026-09-02T20:50:48Z</time>
  <course>228.13</course>
  <speed>0.9982484660644363</speed>
  <fix>3d</fix>
</trkpt>
<trkpt lat="40.0711953" lon="-105.2300502">
  <ele>1582.99</ele>
  <time>2026-09-02T20:50:48Z</time>
  <course>228.12</course>
  <speed>0.99</speed>
  <fix>3d</fix>
</trkpt>
<trkpt lat="40.0711935" lon="-105.2300528">
  <ele>1582.99</ele>
  <time>2026-09-02T20:50:48Z</time>
  <course>228.13</course>
  <speed>0.9915644204992432</speed>
  <fix>3d</fix>
</trkpt>
<trkpt lat="40.0711941" lon="-105.230052">
  <ele>1582.99</ele>
  <time>2026-09-02T20:50:48Z</time>
  <course>228.13</course>
  <speed>0.99</speed>
  <fix>3d</fix>
</trkpt>
<trkpt lat="40.0711929" lon="-105.2300537">
  <ele>1582.99</ele>
  <time>2026-09-02T20:50:48Z</time>
  <course>228.13</course>
  <speed>0.9915644204992432</speed>
  <fix>3d</fix>
</trkpt>
<trkpt lat="40.0711941" lon="-105.230052">
  <ele>1582.99</ele>
  <time>2026-09-02T20:50:48Z</time>
  <course>228.13</course>
  <speed>0.99</speed>
  <fix>3d</fix>
</trkpt>
<trkpt lat="40.0711923" lon="-105.2300547">
  <ele>1582.99</ele>
  <time>2026-09-02T20:50:48Z</time>
  <course>228.13</course>
  <speed>0.9915644204992432</speed>
  <fix>3d</fix>
</trkpt>
<trkpt lat="40.0711929" lon="-105.2300537">
  <ele>1582.99</ele>
  <time>2026-09-02T20:50:48Z</time>
  <course>228.13</course>
  <speed>0.99</speed>
  <fix>3d</fix>
</trkpt>
<trkpt lat="40.0711917" lon="-105.2300554">
  <ele>1582.99</ele>
  <time>2026-09-02T20:50:48Z</time>
  <course>228.1</course>
  <speed>0.9982484660644363</speed>
  <fix>3d</fix>
</trkpt>
<trkpt lat="40.0711929" lon="-105.2300537">
  <ele>1582.99</ele>
  <time>2026-09-02T20:50:48Z</time>
  <course>228.13</course>
  <speed>0.99</speed>
  <fix>3d</fix>
</trkpt>
<trkpt lat="40.0711911" lon="-105.2300564">
  <ele>1582.99</ele>
  <time>2026-09-02T20:50:48Z</time>
  <course>227.77</course>
  <speed>0.9841239759298622</speed>
  <fix>3d</fix>
</trkpt>
<trkpt lat="40.0711917" lon="-105.2300555">
  <ele>1582.99</ele>
  <time>2026-09-02T20:50:48Z</time>
  <course>227.95</course>
  <speed>0.99</speed>
  <fix>3d</fix>
</trkpt>
<trkpt lat="40.0711905" lon="-105.2300573">
  <ele>1582.99</ele>
  <time>2026-09-02T20:50:48Z</time>
  <course>227.11</course>
  <speed>0.9976472322419383</speed>
  <fix>3d</fix>
</trkpt>
<trkpt lat="40.0711917" lon="-105.2300555">
  <ele>1582.99</ele>
  <time>2026-09-02T20:50:48Z</time>
  <course>227.95</course>
  <speed>0.99</speed>
  <fix>3d</fix>
</trkpt>
<trkpt lat="40.0711898" lon="-105.230058">
  <ele>1582.99</ele>
  <time>2026-09-02T20:50:48Z</time>
  <course>226.08</course>
  <speed>0.9831073186585481</speed>
  <fix>3d</fix>
</trkpt>
<trkpt lat="40.0711904" lon="-105.2300572">
  <ele>1582.99</ele>
  <time>2026-09-02T20:50:48Z</time>
  <course>226.92</course>
  <speed>0.99</speed>
  <fix>3d</fix>
</trkpt>
<trkpt lat="40.0711892" lon="-105.2300588">
  <ele>1582.99</ele>
  <time>2026-09-02T20:50:48Z</time>
  <course>224.67</course>
  <speed>0.9758073580374357</speed>
  <fix>3d</fix>
</trkpt>
<trkpt lat="40.0711904" lon="-105.2300572">
  <ele>1582.99</ele>
  <time>2026-09-02T20:50:48Z</time>
  <course>226.92</course>
  <speed>0.99</speed>
  <fix>3d</fix>
</trkpt>
<trkpt lat="40.0711885" lon="-105.2300599">
  <ele>1582.99</ele>
  <time>2026-09-02T20:50:48Z</time>
  <course>222.42</course>
  <speed>0.94847245611035</speed>
  <fix>3d</fix>
</trkpt>
<trkpt lat="40.0711892" lon="-105.2300588">
  <ele>1582.99</ele>
  <time>2026-09-02T20:50:48Z</time>
  <course>224.48</course>
  <speed>0.97</speed>
  <fix>3d</fix>
</trkpt>
<trkpt lat="40.0711878" lon="-105.2300606">
  <ele>1582.99</ele>
  <time>2026-09-02T20:50:48Z</time>
  <course>220.04</course>
  <speed>0.9090654541890809</speed>
  <fix>3d</fix>
</trkpt>
<trkpt lat="40.0711892" lon="-105.2300588">
  <ele>1582.99</ele>
  <time>2026-09-02T20:50:48Z</time>
  <course>224.48</course>
  <speed>0.97</speed>
  <fix>3d</fix>
</trkpt>
<trkpt lat="40.0711872" lon="-105.2300612">
  <ele>1582.99</ele>
  <time>2026-09-02T20:50:48Z</time>
  <course>217.15</course>
  <speed>0.8780091115700337</speed>
  <fix>3d</fix>
</trkpt>
<trkpt lat="40.0711879" lon="-105.2300604">
  <ele>1582.99</ele>
  <time>2026-09-02T20:50:48Z</time>
  <course>220.37</course>
  <speed>0.91</speed>
  <fix>3d</fix>
</trkpt>
<trkpt lat="40.0711866" lon="-105.2300618">
  <ele>1582.99</ele>
  <time>2026-09-02T20:50:48Z</time>
  <course>213.71</course>
  <speed>0.8376156636548769</speed>
  <fix>3d</fix>
</trkpt>
<trkpt lat="40.0711879" lon="-105.2300604">
  <ele>1582.99</ele>
  <time>2026-09-02T20:50:48Z</time>
  <course>220.37</course>
  <speed>0.91</speed>
  <fix>3d</fix>
</trkpt>
<trkpt lat="40.071186" lon="-105.2300624">
  <ele>1582.99</ele>
  <time>2026-09-02T20:50:48Z</time>
  <course>209.71</course>
  <speed>0.8062257748298549</speed>
  <fix>3d</fix>
</trkpt>
<trkpt lat="40.0711867" lon="-105.2300616">
  <ele>1582.99</ele>
  <time>2026-09-02T20:50:48Z</time>
  <course>214.26</course>
  <speed>0.84</speed>
  <fix>3d</fix>
</trkpt>
<trkpt lat="40.0711852" lon="-105.2300628">
  <ele>1582.99</ele>
  <time>2026-09-02T20:50:48Z</time>
  <course>205.34</course>
  <speed>0.7605918747922567</speed>
  <fix>3d</fix>
</trkpt>
<trkpt lat="40.0711867" lon="-105.2300616">
  <ele>1582.99</ele>
  <time>2026-09-02T20:50:48Z</time>
  <course>214.26</course>
  <speed>0.84</speed>
  <fix>3d</fix>
</trkpt>
<trkpt lat="40.0711846" lon="-105.2300631">
  <ele>1582.99</ele>
  <time>2026-09-02T20:50:48Z</time>
  <course>200.98</course>
  <speed>0.7467261881037789</speed>
  <fix>3d</fix>
</trkpt>
<trkpt lat="40.0711854" lon="-105.2300626">
  <ele>1582.99</ele>
  <time>2026-09-02T20:50:48Z</time>
  <course>206.26</course>
  <speed>0.78</speed>
  <fix>3d</fix>
</trkpt>
<trkpt lat="40.071184" lon="-105.2300633">
  <ele>1582.99</ele>
  <time>2026-09-02T20:50:48Z</time>
  <course>196.81</course>
  <speed>0.7404052944165107</speed>
  <fix>3d</fix>
</trkpt>
<trkpt lat="40.0711854" lon="-105.2300626">
  <ele>1582.99</ele>
  <time>2026-09-02T20:50:48Z</time>
  <course>206.26</course>
  <speed>0.78</speed>
  <fix>3d</fix>
</trkpt>
<trkpt lat="40.0711833" lon="-105.2300636">
  <ele>1583.0</ele>
  <time>2026-09-02T20:50:48Z</time>
  <course>192.85</course>
  <speed>0.7592759709091287</speed>
  <fix>3d</fix>
</trkpt>
<trkpt lat="40.0711841" lon="-105.2300633">
  <ele>1582.99</ele>
  <time>2026-09-02T20:50:48Z</time>
  <course>197.61</course>
  <speed>0.75</speed>
  <fix>3d</fix>
</trkpt>
<trkpt lat="40.0711827" lon="-105.2300638">
  <ele>1582.99</ele>
  <time>2026-09-02T20:50:48Z</time>
  <course>189.15</course>
  <speed>0.7792945527847606</speed>
  <fix>3d</fix>
</trkpt>
<trkpt lat="40.0711841" lon="-105.2300633">
  <ele>1582.99</ele>
  <time>2026-09-02T20:50:48Z</time>
  <course>197.61</course>
  <speed>0.75</speed>
  <fix>3d</fix>
</trkpt>
<trkpt lat="40.071182" lon="-105.2300638">
  <ele>1582.99</ele>
  <time>2026-09-02T20:50:48Z</time>
  <course>185.71</course>
  <speed>0.8438009243891595</speed>
  <fix>3d</fix>
</trkpt>
<trkpt lat="40.0711828" lon="-105.2300637">
  <ele>1582.99</ele>
  <time>2026-09-02T20:50:48Z</time>
  <course>189.75</course>
  <speed>0.8</speed>
  <fix>3d</fix>
</trkpt>
<trkpt lat="40.0711814" lon="-105.230064">
  <ele>1582.99</ele>
  <time>2026-09-02T20:50:48Z</time>
  <course>183.22</course>
  <speed>0.8709190547921202</speed>
  <fix>3d</fix>
</trkpt>
<trkpt lat="40.0711828" lon="-105.2300637">
  <ele>1582.99</ele>
  <time>2026-09-02T20:50:48Z</time>
  <course>189.75</course>
  <speed>0.8</speed>
  <fix>3d</fix>
</trkpt>
<trkpt lat="40.0711804" lon="-105.230064">
  <ele>1582.99</ele>
  <time>2026-09-02T20:50:48Z</time>
  <course>180.41</course>
  <speed>0.93</speed>
  <fix>3d</fix>
</trkpt>
<trkpt lat="40.0711813" lon="-105.2300639">
  <ele>1582.99</ele>
  <time>2026-09-02T20:50:48Z</time>
  <course>183.16</course>
  <speed>0.88</speed>
  <fix>3d</fix>
</trkpt>
<trkpt lat="40.0711796" lon="-105.230064">
  <ele>1582.99</ele>
  <time>2026-09-02T20:50:48Z</time>
  <course>177.96</course>
  <speed>0.9804590761474953</speed>
  <fix>3d</fix>
</trkpt>
<trkpt lat="40.0711813" lon="-105.2300639">
  <ele>1582.99</ele>
  <time>2026-09-02T20:50:48Z</time>
  <course>183.16</course>
  <speed>0.88</speed>
  <fix>3d</fix>
</trkpt>
<trkpt lat="40.0711788" lon="-105.230064">
  <ele>1582.99</ele>
  <time>2026-09-02T20:50:48Z</time>
  <course>175.91</course>
  <speed>1.0124228365658294</speed>
  <fix>3d</fix>
</trkpt>
<trkpt lat="40.0711796" lon="-105.230064">
  <ele>1582.99</ele>
  <time>2026-09-02T20:50:48Z</time>
  <course>178.01</course>
  <speed>0.97</speed>
  <fix>3d</fix>
</trkpt>
<trkpt lat="40.0711778" lon="-105.2300638">
  <ele>1582.99</ele>
  <time>2026-09-02T20:50:48Z</time>
  <course>174.24</course>
  <speed>1.0447966309287182</speed>
  <fix>3d</fix>
</trkpt>
<trkpt lat="40.0711796" lon="-105.230064">
  <ele>1582.99</ele>
  <time>2026-09-02T20:50:48Z</time>
  <course>178.01</course>
  <speed>0.97</speed>
  <fix>3d</fix>
</trkpt>
<trkpt lat="40.0711769" lon="-105.2300638">
  <ele>1582.99</ele>
  <time>2026-09-02T20:50:48Z</time>
  <course>172.8</course>
  <speed>1.0480935072788113</speed>
  <fix>3d</fix>
</trkpt>
<trkpt lat="40.0711778" lon="-105.2300639">
  <ele>1582.99</ele>
  <time>2026-09-02T20:50:48Z</time>
  <course>174.28</course>
  <speed>1.03</speed>
  <fix>3d</fix>
</trkpt>
<trkpt lat="40.071176" lon="-105.2300636">
  <ele>1582.99</ele>
  <time>2026-09-02T20:50:48Z</time>
  <course>171.42</course>
  <speed>1.0621205204683695</speed>
  <fix>3d</fix>
</trkpt>
<trkpt lat="40.0711778" lon="-105.2300639">
  <ele>1582.99</ele>
  <time>2026-09-02T20:50:48Z</time>
  <course>174.28</course>
  <speed>1.03</speed>
  <fix>3d</fix>
</trkpt>
<trkpt lat="40.0711749" lon="-105.2300633">
  <ele>1583.0</ele>
  <time>2026-09-02T20:50:48Z</time>
  <course>170.12</course>
  <speed>1.055461984156701</speed>
  <fix>3d</fix>
</trkpt>
<trkpt lat="40.0711759" lon="-105.2300636">
  <ele>1582.99</ele>
  <time>2026-09-02T20:50:48Z</time>
  <course>171.41</course>
  <speed>1.05</speed>
  <fix>3d</fix>
</trkpt>
<trkpt lat="40.0711741" lon="-105.2300631">
  <ele>1583.0</ele>
  <time>2026-09-02T20:50:48Z</time>
  <course>168.91</course>
  <speed>1.0590561835898982</speed>
  <fix>3d</fix>
</trkpt>
<trkpt lat="40.0711759" lon="-105.2300636">
  <ele>1582.99</ele>
  <time>2026-09-02T20:50:48Z</time>
  <course>171.41</course>
  <speed>1.05</speed>
  <fix>3d</fix>
</trkpt>
<trkpt lat="40.071173" lon="-105.2300628">
  <ele>1582.99</ele>
  <time>2026-09-02T20:50:48Z</time>
  <course>167.54</course>
  <speed>1.0532331175955303</speed>
  <fix>3d</fix>
</trkpt>
<trkpt lat="40.071174" lon="-105.2300631">
  <ele>1582.99</ele>
  <time>2026-09-02T20:50:48Z</time>
  <course>168.9</course>
  <speed>1.05</speed>
  <fix>3d</fix>
</trkpt>
<trkpt lat="40.071172" lon="-105.2300626">
  <ele>1582.99</ele>
  <time>2026-09-02T20:50:48Z</time>
  <course>166.49</course>
  <speed>1.0381233067415452</speed>
  <fix>3d</fix>
</trkpt>
<trkpt lat="40.071174" lon="-105.2300631">
  <ele>1582.99</ele>
  <time>2026-09-02T20:50:48Z</time>
  <course>168.9</course>
  <speed>1.05</speed>
  <fix>3d</fix>
</trkpt>
<trkpt lat="40.0711711" lon="-105.2300623">
  <ele>1582.99</ele>
  <time>2026-09-02T20:50:48Z</time>
  <course>165.5</course>
  <speed>1.0307764064044151</speed>
  <fix>3d</fix>
</trkpt>
<trkpt lat="40.0711721" lon="-105.2300626">
  <ele>1582.99</ele>
  <time>2026-09-02T20:50:48Z</time>
  <course>166.69</course>
  <speed>1.04</speed>
  <fix>3d</fix>
</trkpt>
<trkpt lat="40.0711702" lon="-105.2300619">
  <ele>1582.99</ele>
  <time>2026-09-02T20:50:48Z</time>
  <course>164.58</course>
  <speed>1.0165136496870073</speed>
  <fix>3d</fix>
</trkpt>
<trkpt lat="40.0711721" lon="-105.2300626">
  <ele>1582.99</ele>
  <time>2026-09-02T20:50:48Z</time>
  <course>166.69</course>
  <speed>1.04</speed>
  <fix>3d</fix>
</trkpt>
<trkpt lat="40.0711693" lon="-105.2300616">
  <ele>1582.99</ele>
  <time>2026-09-02T20:50:48Z</time>
  <course>163.73</course>
  <speed>1.009603882718366</speed>
  <fix>3d</fix>
</trkpt>
<trkpt lat="40.0711704" lon="-105.230062">
  <ele>1582.99</ele>
  <time>2026-09-02T20:50:48Z</time>
  <course>164.76</course>
  <speed>1.02</speed>
  <fix>3d</fix>
</trkpt>
<trkpt lat="40.0711685" lon="-105.2300612">
  <ele>1582.99</ele>
  <time>2026-09-02T20:50:48Z</time>
  <course>162.95</course>
  <speed>0.9932774033471213</speed>
  <fix>3d</fix>
</trkpt>
<trkpt lat="40.0711704" lon="-105.230062">
  <ele>1582.99</ele>
  <time>2026-09-02T20:50:48Z</time>
  <course>164.76</course>
  <speed>1.02</speed>
  <fix>3d</fix>
</trkpt>
<trkpt lat="40.0711675" lon="-105.2300609">
  <ele>1582.99</ele>
  <time>2026-09-02T20:50:48Z</time>
  <course>162.23</course>
  <speed>0.9867117106835208</speed>
  <fix>3d</fix>
</trkpt>
<trkpt lat="40.0711686" lon="-105.2300614">
  <ele>1582.99</ele>
  <time>2026-09-02T20:50:48Z</time>
  <course>163.09</course>
  <speed>1.0</speed>
  <fix>3d</fix>
</trkpt>
<trkpt lat="40.0711668" lon="-105.2300606">
  <ele>1582.99</ele>
  <time>2026-09-02T20:50:48Z</time>
  <course>161.57</course>
  <speed>0.9897979591815695</speed>
  <fix>3d</fix>
</trkpt>
<trkpt lat="40.0711686" lon="-105.2300614">
  <ele>1582.99</ele>
  <time>2026-09-02T20:50:48Z</time>
  <course>163.09</course>
  <speed>1.0</speed>
  <fix>3d</fix>
</trkpt>
<trkpt lat="40.071166" lon="-105.2300602">
  <ele>1582.99</ele>
  <time>2026-09-02T20:50:48Z</time>
  <course>160.97</course>
  <speed>0.9835141076771599</speed>
  <fix>3d</fix>
</trkpt>
<trkpt lat="40.0711669" lon="-105.2300607">
  <ele>1582.99</ele>
  <time>2026-09-02T20:50:48Z</time>
  <course>161.67</course>
  <speed>0.98</speed>
  <fix>3d</fix>
</trkpt>
<trkpt lat="40.071165" lon="-105.2300599">
  <ele>1582.99</ele>
  <time>2026-09-02T20:50:48Z</time>
  <course>160.42</course>
  <speed>0.9868130522039117</speed>
  <fix>3d</fix>
</trkpt>
<trkpt lat="40.0711669" lon="-105.2300607">
  <ele>1582.99</ele>
  <time>2026-09-02T20:50:48Z</time>
  <course>161.67</course>
  <speed>0.98</speed>
  <fix>3d</fix>
</trkpt>
<trkpt lat="40.0711643" lon="-105.2300595">
  <ele>1582.99</ele>
  <time>2026-09-02T20:50:48Z</time>
  <course>159.92</course>
  <speed>0.9773944955850733</speed>
  <fix>3d</fix>
</trkpt>
<trkpt lat="40.0711652" lon="-105.2300598">
  <ele>1582.99</ele>
  <time>2026-09-02T20:50:48Z</time>
  <course>160.5</course>
  <speed>0.98</speed>
  <fix>3d</fix>
</trkpt>
<trkpt lat="40.0711633" lon="-105.230059">
  <ele>1582.99</ele>
  <time>2026-09-02T20:50:48Z</time>
  <course>159.47</course>
  <speed>0.9808159868191383</speed>
  <fix>3d</fix>
</trkpt>
<trkpt lat="40.0711652" lon="-105.2300598">
  <ele>1582.99</ele>
  <time>2026-09-02T20:50:48Z</time>
  <course>160.5</course>
  <speed>0.98</speed>
  <fix>3d</fix>
</trkpt>
<trkpt lat="40.0711627" lon="-105.2300587">
  <ele>1582.99</ele>
  <time>2026-09-02T20:50:48Z</time>
  <course>159.15</course>
  <speed>0.9714422267947797</speed>
  <fix>3d</fix>
</trkpt>
<trkpt lat="40.0711636" lon="-105.2300591">
  <ele>1582.99</ele>
  <time>2026-09-02T20:50:48Z</time>
  <course>159.53</course>
  <speed>0.97</speed>
  <fix>3d</fix>
</trkpt>
<trkpt lat="40.071162" lon="-105.2300583">
  <ele>1582.99</ele>
  <time>2026-09-02T20:50:48Z</time>
  <course>158.79</course>
  <speed>0.9879271228182774</speed>
  <fix>3d</fix>
</trkpt>
<trkpt lat="40.0711636" lon="-105.2300591">
  <ele>1582.99</ele>
  <time>2026-09-02T20:50:48Z</time>
  <course>159.53</course>
  <speed>0.97</speed>
  <fix>3d</fix>
</trkpt>
<trkpt lat="40.0711611" lon="-105.2300578">
  <ele>1582.99</ele>
  <time>2026-09-02T20:50:48Z</time>
  <course>158.47</course>
  <speed>0.9786214794290998</speed>
  <fix>3d</fix>
</trkpt>
<trkpt lat="40.0711619" lon="-105.2300583">
  <ele>1582.99</ele>
  <time>2026-09-02T20:50:48Z</time>
  <course>158.76</course>
  <speed>0.98</speed>
  <fix>3d</fix>
</trkpt>
<trkpt lat="40.0711602" lon="-105.2300575">
  <ele>1582.99</ele>
  <time>2026-09-02T20:50:48Z</time>
  <course>158.2</course>
  <speed>0.9879271228182774</speed>
  <fix>3d</fix>
</trkpt>
<trkpt lat="40.0711619" lon="-105.2300583">
  <ele>1582.99</ele>
  <time>2026-09-02T20:50:48Z</time>
  <course>158.76</course>
  <speed>0.98</speed>
  <fix>3d</fix>
</trkpt>
<trkpt lat="40.0711595" lon="-105.230057">
  <ele>1582.99</ele>
  <time>2026-09-02T20:50:48Z</time>
  <course>157.96</course>
  <speed>0.9786214794290998</speed>
  <fix>3d</fix>
</trkpt>
<trkpt lat="40.0711603" lon="-105.2300574">
  <ele>1582.99</ele>
  <time>2026-09-02T20:50:48Z</time>
  <course>158.17</course>
  <speed>0.98</speed>
  <fix>3d</fix>
</trkpt>
<trkpt lat="40.0711587" lon="-105.2300566">
  <ele>1582.99</ele>
  <time>2026-09-02T20:50:48Z</time>
  <course>157.77</course>
  <speed>0.9916148445843276</speed>
  <fix>3d</fix>
</trkpt>
<trkpt lat="40.0711603" lon="-105.2300574">
  <ele>1582.99</ele>
  <time>2026-09-02T20:50:48Z</time>
  <course>158.17</course>
  <speed>0.98</speed>
  <fix>3d</fix>
</trkpt>
<trkpt lat="40.0711578" lon="-105.2300561">
  <ele>1582.99</ele>
  <time>2026-09-02T20:50:48Z</time>
  <course>157.61</course>
  <speed>0.982344135219425</speed>
  <fix>3d</fix>
</trkpt>
<trkpt lat="40.0711586" lon="-105.2300566">
  <ele>1582.99</ele>
  <time>2026-09-02T20:50:48Z</time>
  <course>157.74</course>
  <speed>0.98</speed>
  <fix>3d</fix>
</trkpt>
<trkpt lat="40.071157" lon="-105.2300557">
  <ele>1582.99</ele>
  <time>2026-09-02T20:50:48Z</time>
  <course>157.49</course>
  <speed>0.9953893710503443</speed>
  <fix>3d</fix>
</trkpt>
<trkpt lat="40.0711586" lon="-105.2300566">
  <ele>1582.99</ele>
  <time>2026-09-02T20:50:48Z</time>
  <course>157.74</course>
  <speed>0.98</speed>
  <fix>3d</fix>
</trkpt>
<trkpt lat="40.0711562" lon="-105.2300552">
  <ele>1582.99</ele>
  <time>2026-09-02T20:50:48Z</time>
  <course>157.39</course>
  <speed>0.986154146165801</speed>
  <fix>3d</fix>
</trkpt>
<trkpt lat="40.071157" lon="-105.2300557">
  <ele>1582.99</ele>
  <time>2026-09-02T20:50:48Z</time>
  <course>157.45</course>
  <speed>0.99</speed>
  <fix>3d</fix>
</trkpt>
<trkpt lat="40.0711552" lon="-105.2300547">
  <ele>1582.99</ele>
  <time>2026-09-02T20:50:48Z</time>
  <course>157.31</course>
  <speed>0.986154146165801</speed>
  <fix>3d</fix>
</trkpt>
<trkpt lat="40.071157" lon="-105.2300557">
  <ele>1582.99</ele>
  <time>2026-09-02T20:50:48Z</time>
  <course>157.45</course>
  <speed>0.99</speed>
  <fix>3d</fix>
</trkpt>
<trkpt lat="40.0711544" lon="-105.2300542">
  <ele>1582.99</ele>
  <time>2026-09-02T20:50:48Z</time>
  <course>157.28</course>
  <speed>0.986154146165801</speed>
  <fix>3d</fix>
</trkpt>
<trkpt lat="40.0711553" lon="-105.2300548">
  <ele>1582.99</ele>
  <time>2026-09-02T20:50:48Z</time>
  <course>157.29</course>
  <speed>0.99</speed>
  <fix>3d</fix>
</trkpt>
<trkpt lat="40.0711535" lon="-105.2300537">
  <ele>1582.99</ele>
  <time>2026-09-02T20:50:49Z</time>
  <course>157.27</course>
  <speed>0.9953893710503443</speed>
  <fix>3d</fix>
</trkpt>
<trkpt lat="40.0711553" lon="-105.2300548">
  <ele>1582.99</ele>
  <time>2026-09-02T20:50:49Z</time>
  <course>157.29</course>
  <speed>0.99</speed>
  <fix>3d</fix>
</trkpt>
<trkpt lat="40.0711527" lon="-105.2300533">
  <ele>1582.99</ele>
  <time>2026-09-02T20:50:49Z</time>
  <course>157.29</course>
  <speed>0.986154146165801</speed>
  <fix>3d</fix>
</trkpt>
<trkpt lat="40.0711536" lon="-105.2300539">
  <ele>1582.99</ele>
  <time>2026-09-02T20:50:49Z</time>
  <course>157.23</course>
  <speed>0.99</speed>
  <fix>3d</fix>
</trkpt>
<trkpt lat="40.0711518" lon="-105.2300528">
  <ele>1582.99</ele>
  <time>2026-09-02T20:50:49Z</time>
  <course>157.32</course>
  <speed>0.9953893710503443</speed>
  <fix>3d</fix>
</trkpt>
<trkpt lat="40.0711536" lon="-105.2300539">
  <ele>1582.99</ele>
  <time>2026-09-02T20:50:49Z</time>
  <course>157.23</course>
  <speed>0.99</speed>
  <fix>3d</fix>
</trkpt>
<trkpt lat="40.0711511" lon="-105.2300525">
  <ele>1582.99</ele>
  <time>2026-09-02T20:50:49Z</time>
  <course>157.38</course>
  <speed>0.986154146165801</speed>
  <fix>3d</fix>
</trkpt>
<trkpt lat="40.071152" lon="-105.230053">
  <ele>1582.99</ele>
  <time>2026-09-02T20:50:49Z</time>
  <course>157.28</course>
  <speed>0.98</speed>
  <fix>3d</fix>
</trkpt>
<trkpt lat="40.0711503" lon="-105.230052">
  <ele>1582.99</ele>
  <time>2026-09-02T20:50:49Z</time>
  <course>157.46</course>
  <speed>0.9953893710503443</speed>
  <fix>3d</fix>
</trkpt>
<trkpt lat="40.071152" lon="-105.230053">
  <ele>1582.99</ele>
  <time>2026-09-02T20:50:49Z</time>
  <course>157.28</course>
  <speed>0.98</speed>
  <fix>3d</fix>
</trkpt>
<trkpt lat="40.0711493" lon="-105.2300516">
  <ele>1582.99</ele>
  <time>2026-09-02T20:50:49Z</time>
  <course>157.55</course>
  <speed>0.982344135219425</speed>
  <fix>3d</fix>
</trkpt>
<trkpt lat="40.0711503" lon="-105.2300521">
  <ele>1582.99</ele>
  <time>2026-09-02T20:50:49Z</time>
  <course>157.4</course>
  <speed>0.98</speed>
  <fix>3d</fix>
</trkpt>
<trkpt lat="40.0711486" lon="-105.2300511">
  <ele>1582.99</ele>
  <time>2026-09-02T20:50:49Z</time>
  <course>157.66</course>
  <speed>0.9916148445843276</speed>
  <fix>3d</fix>
</trkpt>
<trkpt lat="40.0711503" lon="-105.2300521">
  <ele>1582.99</ele>
  <time>2026-09-02T20:50:49Z</time>
  <course>157.4</course>
  <speed>0.98</speed>
  <fix>3d</fix>
</trkpt>
<trkpt lat="40.0711478" lon="-105.2300506">
  <ele>1582.99</ele>
  <time>2026-09-02T20:50:49Z</time>
  <course>157.79</course>
  <speed>0.982344135219425</speed>
  <fix>3d</fix>
</trkpt>
<trkpt lat="40.0711487" lon="-105.2300512">
  <ele>1582.99</ele>
  <time>2026-09-02T20:50:49Z</time>
  <course>157.6</course>
  <speed>0.99</speed>
  <fix>3d</fix>
</trkpt>
<trkpt lat="40.0711469" lon="-105.2300501">
  <ele>1582.99</ele>
  <time>2026-09-02T20:50:49Z</time>
  <course>157.92</course>
  <speed>0.9916148445843276</speed>
  <fix>3d</fix>
</trkpt>
<trkpt lat="40.0711487" lon="-105.2300512">
  <ele>1582.99</ele>
  <time>2026-09-02T20:50:49Z</time>
  <course>157.6</course>
  <speed>0.99</speed>
  <fix>3d</fix>
</trkpt>
<trkpt lat="40.0711462" lon="-105.2300499">
  <ele>1582.99</ele>
  <time>2026-09-02T20:50:49Z</time>
  <course>158.04</course>
  <speed>0.982344135219425</speed>
  <fix>3d</fix>
</trkpt>
<trkpt lat="40.0711471" lon="-105.2300503">
  <ele>1582.99</ele>
  <time>2026-09-02T20:50:49Z</time>
  <course>157.85</course>
  <speed>0.98</speed>
  <fix>3d</fix>
</trkpt>
<trkpt lat="40.0711455" lon="-105.2300494">
  <ele>1582.99</ele>
  <time>2026-09-02T20:50:49Z</time>
  <course>158.19</course>
  <speed>0.9916148445843276</speed>
  <fix>3d</fix>
</trkpt>
<trkpt lat="40.0711471" lon="-105.2300503">
  <ele>1582.99</ele>
  <time>2026-09-02T20:50:49Z</time>
  <course>157.85</course>
  <speed>0.98</speed>
  <fix>3d</fix>
</trkpt>
<trkpt lat="40.0711445" lon="-105.2300489">
  <ele>1582.99</ele>
  <time>2026-09-02T20:50:49Z</time>
  <course>158.36</course>
  <speed>0.9786214794290998</speed>
  <fix>3d</fix>
</trkpt>
<trkpt lat="40.0711454" lon="-105.2300494">
  <ele>1582.99</ele>
  <time>2026-09-02T20:50:49Z</time>
  <course>158.15</course>
  <speed>0.98</speed>
  <fix>3d</fix>
</trkpt>
<trkpt lat="40.0711438" lon="-105.2300485">
  <ele>1582.99</ele>
  <time>2026-09-02T20:50:49Z</time>
  <course>158.53</course>
  <speed>0.9879271228182774</speed>
  <fix>3d</fix>
</trkpt>
<trkpt lat="40.0711454" lon="-105.2300494">
  <ele>1582.99</ele>
  <time>2026-09-02T20:50:49Z</time>
  <course>158.15</course>
  <speed>0.98</speed>
  <fix>3d</fix>
</trkpt>
<trkpt lat="40.071143" lon="-105.2300482">
  <ele>1582.99</ele>
  <time>2026-09-02T20:50:49Z</time>
  <course>158.72</course>
  <speed>0.9843271813782245</speed>
  <fix>3d</fix>
</trkpt>
<trkpt lat="40.0711438" lon="-105.2300486">
  <ele>1582.99</ele>
  <time>2026-09-02T20:50:49Z</time>
  <course>158.49</course>
  <speed>0.98</speed>
  <fix>3d</fix>
</trkpt>
<trkpt lat="40.071142" lon="-105.2300477">
  <ele>1582.99</ele>
  <time>2026-09-02T20:50:49Z</time>
  <course>158.9</course>
  <speed>0.9972462083156798</speed>
  <fix>3d</fix>
</trkpt>
<trkpt lat="40.0711438" lon="-105.2300486">
  <ele>1582.99</ele>
  <time>2026-09-02T20:50:49Z</time>
  <course>158.49</course>
  <speed>0.98</speed>
  <fix>3d</fix>
</trkpt>
<trkpt lat="40.0711413" lon="-105.2300473">
  <ele>1582.99</ele>
  <time>2026-09-02T20:50:49Z</time>
  <course>159.09</course>
  <speed>0.9843271813782245</speed>
  <fix>3d</fix>
</trkpt>
<trkpt lat="40.0711421" lon="-105.2300477">
  <ele>1582.99</ele>
  <time>2026-09-02T20:50:49Z</time>
  <course>158.86</course>
  <speed>0.98</speed>
  <fix>3d</fix>
</trkpt>
<trkpt lat="40.0711405" lon="-105.2300468">
  <ele>1582.99</ele>
  <time>2026-09-02T20:50:49Z</time>
  <course>159.29</course>
  <speed>0.9936800289831733</speed>
  <fix>3d</fix>
</trkpt>
<trkpt lat="40.0711421" lon="-105.2300477">
  <ele>1582.99</ele>
  <time>2026-09-02T20:50:49Z</time>
  <course>158.86</course>
  <speed>0.98</speed>
  <fix>3d</fix>
</trkpt>
<trkpt lat="40.0711395" lon="-105.2300465">
  <ele>1582.99</ele>
  <time>2026-09-02T20:50:49Z</time>
  <course>159.49</course>
  <speed>0.9808159868191383</speed>
  <fix>3d</fix>
</trkpt>
<trkpt lat="40.0711404" lon="-105.2300468">
  <ele>1582.99</ele>
  <time>2026-09-02T20:50:49Z</time>
  <course>159.25</course>
  <speed>0.99</speed>
  <fix>3d</fix>
</trkpt>
<trkpt lat="40.0711388" lon="-105.2300461">
  <ele>1582.99</ele>
  <time>2026-09-02T20:50:49Z</time>
  <course>159.69</course>
  <speed>0.9902019995940222</speed>
  <fix>3d</fix>
</trkpt>
<trkpt lat="40.0711404" lon="-105.2300468">
  <ele>1582.99</ele>
  <time>2026-09-02T20:50:49Z</time>
  <course>159.25</course>
  <speed>0.99</speed>
  <fix>3d</fix>
</trkpt>
<trkpt lat="40.0711377" lon="-105.2300456">
  <ele>1582.99</ele>
  <time>2026-09-02T20:50:49Z</time>
  <course>159.94</course>
  <speed>0.9902019995940222</speed>
  <fix>3d</fix>
</trkpt>
<trkpt lat="40.0711388" lon="-105.2300461">
  <ele>1582.99</ele>
  <time>2026-09-02T20:50:49Z</time>
  <course>159.65</course>
  <speed>0.99</speed>
  <fix>3d</fix>
</trkpt>
<trkpt lat="40.0711369" lon="-105.2300451">
  <ele>1582.99</ele>
  <time>2026-09-02T20:50:49Z</time>
  <course>160.14</course>
  <speed>0.9995999199679839</speed>
  <fix>3d</fix>
</trkpt>
<trkpt lat="40.0711388" lon="-105.2300461">
  <ele>1582.99</ele>
  <time>2026-09-02T20:50:49Z</time>
  <course>159.65</course>
  <speed>0.99</speed>
  <fix>3d</fix>
</trkpt>
<trkpt lat="40.071136" lon="-105.2300448">
  <ele>1582.99</ele>
  <time>2026-09-02T20:50:49Z</time>
  <course>160.35</course>
  <speed>0.9868130522039117</speed>
  <fix>3d</fix>
</trkpt>
<trkpt lat="40.0711371" lon="-105.2300453">
  <ele>1582.99</ele>
  <time>2026-09-02T20:50:49Z</time>
  <course>160.06</course>
  <speed>0.99</speed>
  <fix>3d</fix>
</trkpt>
<trkpt lat="40.0711353" lon="-105.2300444">
  <ele>1582.99</ele>
  <time>2026-09-02T20:50:49Z</time>
  <course>160.55</course>
  <speed>0.9868130522039117</speed>
  <fix>3d</fix>
</trkpt>
<trkpt lat="40.0711371" lon="-105.2300453">
  <ele>1582.99</ele>
  <time>2026-09-02T20:50:49Z</time>
  <course>160.06</course>
  <speed>0.99</speed>
  <fix>3d</fix>
</trkpt>
<trkpt lat="40.0711344" lon="-105.2300439">
  <ele>1582.99</ele>
  <time>2026-09-02T20:50:49Z</time>
  <course>160.76</course>
  <speed>0.9929753269845127</speed>
  <fix>3d</fix>
</trkpt>
<trkpt lat="40.0711354" lon="-105.2300444">
  <ele>1582.99</ele>
  <time>2026-09-02T20:50:49Z</time>
  <course>160.47</course>
  <speed>0.99</speed>
  <fix>3d</fix>
</trkpt>
<trkpt lat="40.0711335" lon="-105.2300436">
  <ele>1582.99</ele>
  <time>2026-09-02T20:50:49Z</time>
  <course>160.96</course>
  <speed>0.9929753269845127</speed>
  <fix>3d</fix>
</trkpt>
<trkpt lat="40.0711354" lon="-105.2300444">
  <ele>1582.99</ele>
  <time>2026-09-02T20:50:49Z</time>
  <course>160.47</course>
  <speed>0.99</speed>
  <fix>3d</fix>
</trkpt>
<trkpt lat="40.0711327" lon="-105.2300432">
  <ele>1582.99</ele>
  <time>2026-09-02T20:50:49Z</time>
  <course>161.16</course>
  <speed>0.9929753269845127</speed>
  <fix>3d</fix>
</trkpt>
<trkpt lat="40.0711337" lon="-105.2300437">
  <ele>1582.99</ele>
  <time>2026-09-02T20:50:49Z</time>
  <course>160.88</course>
  <speed>0.99</speed>
  <fix>3d</fix>
</trkpt>
<trkpt lat="40.0711319" lon="-105.2300429">
  <ele>1582.99</ele>
  <time>2026-09-02T20:50:49Z</time>
  <course>161.36</course>
  <speed>0.9897979591815695</speed>
  <fix>3d</fix>
</trkpt>
<trkpt lat="40.0711337" lon="-105.2300437">
  <ele>1582.99</ele>
  <time>2026-09-02T20:50:49Z</time>
  <course>160.88</course>
  <speed>0.99</speed>
  <fix>3d</fix>
</trkpt>
<trkpt lat="40.071131" lon="-105.2300425">
  <ele>1582.99</ele>
  <time>2026-09-02T20:50:49Z</time>
  <course>161.56</course>
  <speed>0.9897979591815695</speed>
  <fix>3d</fix>
</trkpt>
<trkpt lat="40.071132" lon="-105.2300429">
  <ele>1582.99</ele>
  <time>2026-09-02T20:50:49Z</time>
  <course>161.28</course>
  <speed>0.99</speed>
  <fix>3d</fix>
</trkpt>
<trkpt lat="40.0711302" lon="-105.230042">
  <ele>1582.99</ele>
  <time>2026-09-02T20:50:49Z</time>
  <course>161.75</course>
  <speed>0.9897979591815695</speed>
  <fix>3d</fix>
</trkpt>
<trkpt lat="40.071132" lon="-105.2300429">
  <ele>1582.99</ele>
  <time>2026-09-02T20:50:49Z</time>
  <course>161.28</course>
  <speed>0.99</speed>
  <fix>3d</fix>
</trkpt>
<trkpt lat="40.0711292" lon="-105.2300418">
  <ele>1582.99</ele>
  <time>2026-09-02T20:50:49Z</time>
  <course>161.94</course>
  <speed>0.9867117106835208</speed>
  <fix>3d</fix>
</trkpt>
<trkpt lat="40.0711303" lon="-105.2300421">
  <ele>1582.99</ele>
  <time>2026-09-02T20:50:49Z</time>
  <course>161.67</course>
  <speed>0.99</speed>
  <fix>3d</fix>
</trkpt>
<trkpt lat="40.0711286" lon="-105.2300415">
  <ele>1582.99</ele>
  <time>2026-09-02T20:50:49Z</time>
  <course>162.09</course>
  <speed>0.9962429422585637</speed>
  <fix>3d</fix>
</trkpt>
<trkpt lat="40.0711303" lon="-105.2300421">
  <ele>1582.99</ele>
  <time>2026-09-02T20:50:49Z</time>
  <course>161.67</course>
  <speed>0.99</speed>
  <fix>3d</fix>
</trkpt>
<trkpt lat="40.0711278" lon="-105.230041">
  <ele>1582.99</ele>
  <time>2026-09-02T20:50:49Z</time>
  <course>162.27</course>
  <speed>0.9867117106835208</speed>
  <fix>3d</fix>
</trkpt>
<trkpt lat="40.0711286" lon="-105.2300414">
  <ele>1582.99</ele>
  <time>2026-09-02T20:50:49Z</time>
  <course>162.05</course>
  <speed>0.99</speed>
  <fix>3d</fix>
</trkpt>
<trkpt lat="40.0711268" lon="-105.2300408">
  <ele>1582.99</ele>
  <time>2026-09-02T20:50:49Z</time>
  <course>162.45</course>
  <speed>0.9962429422585637</speed>
  <fix>3d</fix>
</trkpt>
<trkpt lat="40.0711286" lon="-105.2300414">
  <ele>1582.99</ele>
  <time>2026-09-02T20:50:49Z</time>
  <course>162.05</course>
  <speed>0.99</speed>
  <fix>3d</fix>
</trkpt>
<trkpt lat="40.0711261" lon="-105.2300403">
  <ele>1582.99</ele>
  <time>2026-09-02T20:50:49Z</time>
  <course>162.62</course>
  <speed>0.9837174391053561</speed>
  <fix>3d</fix>
</trkpt>
<trkpt lat="40.0711269" lon="-105.2300407">
  <ele>1582.99</ele>
  <time>2026-09-02T20:50:49Z</time>
  <course>162.41</course>
  <speed>0.99</speed>
  <fix>3d</fix>
</trkpt>
<trkpt lat="40.0711252" lon="-105.2300401">
  <ele>1582.99</ele>
  <time>2026-09-02T20:50:49Z</time>
  <course>162.79</course>
  <speed>0.9932774033471213</speed>
  <fix>3d</fix>
</trkpt>
<trkpt lat="40.0711269" lon="-105.2300407">
  <ele>1582.99</ele>
  <time>2026-09-02T20:50:49Z</time>
  <course>162.41</course>
  <speed>0.99</speed>
  <fix>3d</fix>
</trkpt>
<trkpt lat="40.0711243" lon="-105.2300396">
  <ele>1582.99</ele>
  <time>2026-09-02T20:50:49Z</time>
  <course>162.95</course>
  <speed>0.9837174391053561</speed>
  <fix>3d</fix>
</trkpt>
<trkpt lat="40.0711252" lon="-105.23004">
  <ele>1582.99</ele>
  <time>2026-09-02T20:50:49Z</time>
  <course>162.75</course>
  <speed>0.99</speed>
  <fix>3d</fix>
</trkpt>
<trkpt lat="40.0711235" lon="-105.2300394">
  <ele>1582.99</ele>
  <time>2026-09-02T20:50:49Z</time>
  <course>163.11</course>
  <speed>0.9932774033471213</speed>
  <fix>3d</fix>
</trkpt>
<trkpt lat="40.0711252" lon="-105.23004">
  <ele>1582.99</ele>
  <time>2026-09-02T20:50:49Z</time>
  <course>162.75</course>
  <speed>0.99</speed>
  <fix>3d</fix>
</trkpt>
<trkpt lat="40.0711225" lon="-105.2300389">
  <ele>1582.99</ele>
  <time>2026-09-02T20:50:49Z</time>
  <course>163.26</course>
  <speed>0.9904039579888603</speed>
  <fix>3d</fix>
</trkpt>
<trkpt lat="40.0711235" lon="-105.2300393">
  <ele>1582.99</ele>
  <time>2026-09-02T20:50:49Z</time>
  <course>163.07</course>
  <speed>0.99</speed>
  <fix>3d</fix>
</trkpt>
<trkpt lat="40.0711218" lon="-105.2300387">
  <ele>1582.99</ele>
  <time>2026-09-02T20:50:49Z</time>
  <course>163.41</course>
  <speed>0.9904039579888603</speed>
  <fix>3d</fix>
</trkpt>
<trkpt lat="40.0711235" lon="-105.2300393">
  <ele>1582.99</ele>
  <time>2026-09-02T20:50:49Z</time>
  <course>163.07</course>
  <speed>0.99</speed>
  <fix>3d</fix>
</trkpt>
<trkpt lat="40.0711208" lon="-105.2300384">
  <ele>1582.99</ele>
  <time>2026-09-02T20:50:49Z</time>
  <course>163.56</course>
  <speed>0.9904039579888603</speed>
  <fix>3d</fix>
</trkpt>
<trkpt lat="40.0711217" lon="-105.2300387">
  <ele>1582.99</ele>
  <time>2026-09-02T20:50:49Z</time>
  <course>163.37</course>
  <speed>0.99</speed>
  <fix>3d</fix>
</trkpt>
<trkpt lat="40.0711199" lon="-105.2300379">
  <ele>1582.99</ele>
  <time>2026-09-02T20:50:49Z</time>
  <course>163.72</course>
  <speed>0.9876234100101111</speed>
  <fix>3d</fix>
</trkpt>
<trkpt lat="40.0711217" lon="-105.2300387">
  <ele>1582.99</ele>
  <time>2026-09-02T20:50:49Z</time>
  <course>163.37</course>
  <speed>0.99</speed>
  <fix>3d</fix>
</trkpt>
<trkpt lat="40.0711189" lon="-105.2300375">
  <ele>1582.99</ele>
  <time>2026-09-02T20:50:49Z</time>
  <course>163.85</course>
  <speed>0.9876234100101111</speed>
  <fix>3d</fix>
</trkpt>
<trkpt lat="40.07112" lon="-105.230038">
  <ele>1582.99</ele>
  <time>2026-09-02T20:50:49Z</time>
  <course>163.65</course>
  <speed>0.99</speed>
  <fix>3d</fix>
</trkpt>
<trkpt lat="40.0711182" lon="-105.2300372">
  <ele>1582.99</ele>
  <time>2026-09-02T20:50:49Z</time>
  <course>163.98</course>
  <speed>0.9972462083156798</speed>
  <fix>3d</fix>
</trkpt>
<trkpt lat="40.07112" lon="-105.230038">
  <ele>1582.99</ele>
  <time>2026-09-02T20:50:49Z</time>
  <course>163.65</course>
  <speed>0.99</speed>
  <fix>3d</fix>
</trkpt>
<trkpt lat="40.0711173" lon="-105.230037">
  <ele>1582.99</ele>
  <time>2026-09-02T20:50:49Z</time>
  <course>164.09</course>
  <speed>0.9876234100101111</speed>
  <fix>3d</fix>
</trkpt>
<trkpt lat="40.0711183" lon="-105.2300373">
  <ele>1582.99</ele>
  <time>2026-09-02T20:50:49Z</time>
  <course>163.91</course>
  <speed>0.99</speed>
  <fix>3d</fix>
</trkpt>
<trkpt lat="40.0711164" lon="-105.2300367">
  <ele>1582.99</ele>
  <time>2026-09-02T20:50:49Z</time>
  <course>164.2</course>
  <speed>0.9972462083156798</speed>
  <fix>3d</fix>
</trkpt>
<trkpt lat="40.0711183" lon="-105.2300373">
  <ele>1582.99</ele>
  <time>2026-09-02T20:50:49Z</time>
  <course>163.91</course>
  <speed>0.99</speed>
  <fix>3d</fix>
</trkpt>
<trkpt lat="40.0711156" lon="-105.2300363">
  <ele>1582.99</ele>
  <time>2026-09-02T20:50:49Z</time>
  <course>164.31</course>
  <speed>0.9849365461794989</speed>
  <fix>3d</fix>
</trkpt>
<trkpt lat="40.0711165" lon="-105.2300367">
  <ele>1582.99</ele>
  <time>2026-09-02T20:50:49Z</time>
  <course>164.15</course>
  <speed>0.99</speed>
  <fix>3d</fix>
</trkpt>
<trkpt lat="40.0711146" lon="-105.230036">
  <ele>1582.99</ele>
  <time>2026-09-02T20:50:49Z</time>
  <course>164.42</course>
  <speed>0.9945853407325085</speed>
  <fix>3d</fix>
</trkpt>
<trkpt lat="40.0711165" lon="-105.2300367">
  <ele>1582.99</ele>
  <time>2026-09-02T20:50:49Z</time>
  <course>164.15</course>
  <speed>0.99</speed>
  <fix>3d</fix>
</trkpt>
<trkpt lat="40.0711139" lon="-105.2300357">
  <ele>1582.99</ele>
  <time>2026-09-02T20:50:49Z</time>
  <course>164.51</course>
  <speed>0.9849365461794989</speed>
  <fix>3d</fix>
</trkpt>
<trkpt lat="40.0711148" lon="-105.230036">
  <ele>1582.99</ele>
  <time>2026-09-02T20:50:49Z</time>
  <course>164.36</course>
  <speed>0.99</speed>
  <fix>3d</fix>
</trkpt>
<trkpt lat="40.0711129" lon="-105.2300353">
  <ele>1582.99</ele>
  <time>2026-09-02T20:50:49Z</time>
  <course>164.6</course>
  <speed>1.0042410069301093</speed>
  <fix>3d</fix>
</trkpt>
<trkpt lat="40.0711148" lon="-105.230036">
  <ele>1582.99</ele>
  <time>2026-09-02T20:50:49Z</time>
  <course>164.36</course>
  <speed>0.99</speed>
  <fix>3d</fix>
</trkpt>
<trkpt lat="40.0711121" lon="-105.2300351">
  <ele>1582.99</ele>
  <time>2026-09-02T20:50:49Z</time>
  <course>164.69</course>
  <speed>0.9849365461794989</speed>
  <fix>3d</fix>
</trkpt>
<trkpt lat="40.0711131" lon="-105.2300354">
  <ele>1582.99</ele>
  <time>2026-09-02T20:50:49Z</time>
  <course>164.55</course>
  <speed>0.99</speed>
  <fix>3d</fix>
</trkpt>
<trkpt lat="40.0711113" lon="-105.2300348">
  <ele>1582.99</ele>
  <time>2026-09-02T20:50:49Z</time>
  <course>164.77</course>
  <speed>1.0042410069301093</speed>
  <fix>3d</fix>
</trkpt>
<trkpt lat="40.0711131" lon="-105.2300354">
  <ele>1582.99</ele>
  <time>2026-09-02T20:50:49Z</time>
  <course>164.55</course>
  <speed>0.99</speed>
  <fix>3d</fix>
</trkpt>
<trkpt lat="40.0711106" lon="-105.2300345">
  <ele>1582.99</ele>
  <time>2026-09-02T20:50:49Z</time>
  <course>164.83</course>
  <speed>0.9849365461794989</speed>
  <fix>3d</fix>
</trkpt>
<trkpt lat="40.0711114" lon="-105.2300348">
  <ele>1582.99</ele>
  <time>2026-09-02T20:50:49Z</time>
  <course>164.72</course>
  <speed>0.99</speed>
  <fix>3d</fix>
</trkpt>
<trkpt lat="40.0711097" lon="-105.2300341">
  <ele>1582.99</ele>
  <time>2026-09-02T20:50:49Z</time>
  <course>164.9</course>
  <speed>0.9945853407325085</speed>
  <fix>3d</fix>
</trkpt>
<trkpt lat="40.0711114" lon="-105.2300348">
  <ele>1582.99</ele>
  <time>2026-09-02T20:50:49Z</time>
  <course>164.72</course>
  <speed>0.99</speed>
  <fix>3d</fix>
</trkpt>
<trkpt lat="40.0711088" lon="-105.2300339">
  <ele>1582.99</ele>
  <time>2026-09-02T20:50:49Z</time>
  <course>164.97</course>
  <speed>0.9920181449953424</speed>
  <fix>3d</fix>
</trkpt>
<trkpt lat="40.0711096" lon="-105.2300342">
  <ele>1582.99</ele>
  <time>2026-09-02T20:50:49Z</time>
  <course>164.87</course>
  <speed>0.99</speed>
  <fix>3d</fix>
</trkpt>
<trkpt lat="40.0711079" lon="-105.2300336">
  <ele>1582.99</ele>
  <time>2026-09-02T20:50:49Z</time>
  <course>165.03</course>
  <speed>0.9920181449953424</speed>
  <fix>3d</fix>
</trkpt>
<trkpt lat="40.0711096" lon="-105.2300342">
  <ele>1582.99</ele>
  <time>2026-09-02T20:50:49Z</time>
  <course>164.87</course>
  <speed>0.99</speed>
  <fix>3d</fix>
</trkpt>
<trkpt lat="40.0711071" lon="-105.2300333">
  <ele>1582.99</ele>
  <time>2026-09-02T20:50:49Z</time>
  <course>165.09</course>
  <speed>0.9920181449953424</speed>
  <fix>3d</fix>
</trkpt>
<trkpt lat="40.0711079" lon="-105.2300336">
  <ele>1582.99</ele>
  <time>2026-09-02T20:50:49Z</time>
  <course>164.99</course>
  <speed>0.99</speed>
  <fix>3d</fix>
</trkpt>
<trkpt lat="40.0711061" lon="-105.2300329">
  <ele>1582.99</ele>
  <time>2026-09-02T20:50:49Z</time>
  <course>165.14</course>
  <speed>0.9920181449953424</speed>
  <fix>3d</fix>
</trkpt>
<trkpt lat="40.0711079" lon="-105.2300336">
  <ele>1582.99</ele>
  <time>2026-09-02T20:50:49Z</time>
  <course>164.99</course>
  <speed>0.99</speed>
  <fix>3d</fix>
</trkpt>
<trkpt lat="40.0711053" lon="-105.2300327">
  <ele>1582.99</ele>
  <time>2026-09-02T20:50:49Z</time>
  <course>165.19</course>
  <speed>0.9920181449953424</speed>
  <fix>3d</fix>
</trkpt>
<trkpt lat="40.0711062" lon="-105.2300329">
  <ele>1582.99</ele>
  <time>2026-09-02T20:50:49Z</time>
  <course>165.1</course>
  <speed>1.0</speed>
  <fix>3d</fix>
</trkpt>
<trkpt lat="40.0711044" lon="-105.2300324">
  <ele>1582.99</ele>
  <time>2026-09-02T20:50:49Z</time>
  <course>165.23</course>
  <speed>0.9920181449953424</speed>
  <fix>3d</fix>
</trkpt>
<trkpt lat="40.0711062" lon="-105.2300329">
  <ele>1582.99</ele>
  <time>2026-09-02T20:50:49Z</time>
  <course>165.1</course>
  <speed>1.0</speed>
  <fix>3d</fix>
</trkpt>
<trkpt lat="40.0711036" lon="-105.230032">
  <ele>1582.99</ele>
  <time>2026-09-02T20:50:49Z</time>
  <course>165.28</course>
  <speed>0.9920181449953424</speed>
  <fix>3d</fix>
</trkpt>
<trkpt lat="40.0711044" lon="-105.2300324">
  <ele>1582.99</ele>
  <time>2026-09-02T20:50:49Z</time>
  <course>165.2</course>
  <speed>0.99</speed>
  <fix>3d</fix>
</trkpt>
<trkpt lat="40.0711027" lon="-105.2300317">
  <ele>1582.99</ele>
  <time>2026-09-02T20:50:49Z</time>
  <course>165.31</course>
  <speed>0.9920181449953424</speed>
  <fix>3d</fix>
</trkpt>
<trkpt lat="40.0711044" lon="-105.2300324">
  <ele>1582.99</ele>
  <time>2026-09-02T20:50:49Z</time>
  <course>165.2</course>
  <speed>0.99</speed>
  <fix>3d</fix>
</trkpt>
<trkpt lat="40.0711017" lon="-105.2300315">
  <ele>1582.99</ele>
  <time>2026-09-02T20:50:49Z</time>
  <course>165.35</course>
  <speed>0.9920181449953424</speed>
  <fix>3d</fix>
</trkpt>
<trkpt lat="40.0711027" lon="-105.2300317">
  <ele>1582.99</ele>
  <time>2026-09-02T20:50:49Z</time>
  <course>165.28</course>
  <speed>0.99</speed>
  <fix>3d</fix>
</trkpt>
<trkpt lat="40.0711007" lon="-105.2300312">
  <ele>1582.99</ele>
  <time>2026-09-02T20:50:49Z</time>
  <course>165.39</course>
  <speed>0.9920181449953424</speed>
  <fix>3d</fix>
</trkpt>
<trkpt lat="40.0711027" lon="-105.2300317">
  <ele>1582.99</ele>
  <time>2026-09-02T20:50:49Z</time>
  <course>165.28</course>
  <speed>0.99</speed>
  <fix>3d</fix>
</trkpt>
<trkpt lat="40.0711" lon="-105.2300308">
  <ele>1582.99</ele>
  <time>2026-09-02T20:50:49Z</time>
  <course>165.41</course>
  <speed>0.9920181449953424</speed>
  <fix>3d</fix>
</trkpt>
<trkpt lat="40.071101" lon="-105.2300311">
  <ele>1582.99</ele>
  <time>2026-09-02T20:50:49Z</time>
  <course>165.34</course>
  <speed>1.0</speed>
  <fix>3d</fix>
</trkpt>
<trkpt lat="40.0710991" lon="-105.2300305">
  <ele>1582.99</ele>
  <time>2026-09-02T20:50:49Z</time>
  <course>165.43</course>
  <speed>1.0016985574512922</speed>
  <fix>3d</fix>
</trkpt>
<trkpt lat="40.071101" lon="-105.2300311">
  <ele>1582.99</ele>
  <time>2026-09-02T20:50:49Z</time>
  <course>165.34</course>
  <speed>1.0</speed>
  <fix>3d</fix>
</trkpt>
<trkpt lat="40.0710982" lon="-105.2300303">
  <ele>1582.99</ele>
  <time>2026-09-02T20:50:49Z</time>
  <course>165.45</course>
  <speed>0.9920181449953424</speed>
  <fix>3d</fix>
</trkpt>
<trkpt lat="40.0710992" lon="-105.2300305">
  <ele>1582.99</ele>
  <time>2026-09-02T20:50:49Z</time>
  <course>165.39</course>
  <speed>0.99</speed>
  <fix>3d</fix>
</trkpt>
<trkpt lat="40.0710974" lon="-105.23003">
  <ele>1582.99</ele>
  <time>2026-09-02T20:50:49Z</time>
  <course>165.46</course>
  <speed>1.0016985574512922</speed>
  <fix>3d</fix>
</trkpt>
<trkpt lat="40.0710992" lon="-105.2300305">
  <ele>1582.99</ele>
  <time>2026-09-02T20:50:49Z</time>
  <course>165.39</course>
  <speed>0.99</speed>
  <fix>3d</fix>
</trkpt>
<trkpt lat="40.0710964" lon="-105.2300296">
  <ele>1582.99</ele>
  <time>2026-09-02T20:50:49Z</time>
  <course>165.47</course>
  <speed>0.9920181449953424</speed>
  <fix>3d</fix>
</trkpt>
<trkpt lat="40.0710975" lon="-105.23003">
  <ele>1582.99</ele>
  <time>2026-09-02T20:50:49Z</time>
  <course>165.42</course>
  <speed>0.99</speed>
  <fix>3d</fix>
</trkpt>
<trkpt lat="40.0710956" lon="-105.2300293">
  <ele>1582.99</ele>
  <time>2026-09-02T20:50:49Z</time>
  <course>165.48</course>
  <speed>0.9920181449953424</speed>
  <fix>3d</fix>
</trkpt>
<trkpt lat="40.0710975" lon="-105.23003">
  <ele>1582.99</ele>
  <time>2026-09-02T20:50:49Z</time>
  <course>165.42</course>
  <speed>0.99</speed>
  <fix>3d</fix>
</trkpt>
<trkpt lat="40.0710948" lon="-105.2300291">
  <ele>1582.99</ele>
  <time>2026-09-02T20:50:49Z</time>
  <course>165.48</course>
  <speed>0.9920181449953424</speed>
  <fix>3d</fix>
</trkpt>
<trkpt lat="40.0710957" lon="-105.2300294">
  <ele>1582.99</ele>
  <time>2026-09-02T20:50:49Z</time>
  <course>165.44</course>
  <speed>0.99</speed>
  <fix>3d</fix>
</trkpt>
<trkpt lat="40.0710939" lon="-105.2300288">
  <ele>1582.99</ele>
  <time>2026-09-02T20:50:49Z</time>
  <course>165.48</course>
  <speed>1.0016985574512922</speed>
  <fix>3d</fix>
</trkpt>
<trkpt lat="40.0710957" lon="-105.2300294">
  <ele>1582.99</ele>
  <time>2026-09-02T20:50:49Z</time>
  <course>165.44</course>
  <speed>0.99</speed>
  <fix>3d</fix>
</trkpt>
<trkpt lat="40.071093" lon="-105.2300284">
  <ele>1582.99</ele>
  <time>2026-09-02T20:50:49Z</time>
  <course>165.48</course>
  <speed>0.9920181449953424</speed>
  <fix>3d</fix>
</trkpt>
<trkpt lat="40.071094" lon="-105.2300288">
  <ele>1582.99</ele>
  <time>2026-09-02T20:50:49Z</time>
  <course>165.45</course>
  <speed>0.99</speed>
  <fix>3d</fix>
</trkpt>
<trkpt lat="40.0710922" lon="-105.2300283">
  <ele>1582.99</ele>
  <time>2026-09-02T20:50:49Z</time>
  <course>165.49</course>
  <speed>0.9920181449953424</speed>
  <fix>3d</fix>
</trkpt>
<trkpt lat="40.071094" lon="-105.2300288">
  <ele>1582.99</ele>
  <time>2026-09-02T20:50:49Z</time>
  <course>165.45</course>
  <speed>0.99</speed>
  <fix>3d</fix>
</trkpt>
<trkpt lat="40.0710914" lon="-105.2300279">
  <ele>1582.99</ele>
  <time>2026-09-02T20:50:49Z</time>
  <course>165.5</course>
  <speed>0.9920181449953424</speed>
  <fix>3d</fix>
</trkpt>
<trkpt lat="40.0710923" lon="-105.2300282">
  <ele>1582.99</ele>
  <time>2026-09-02T20:50:49Z</time>
  <course>165.46</course>
  <speed>0.99</speed>
  <fix>3d</fix>
</trkpt>
<trkpt lat="40.0710906" lon="-105.2300276">
  <ele>1582.99</ele>
  <time>2026-09-02T20:50:49Z</time>
  <course>165.52</course>
  <speed>0.9920181449953424</speed>
  <fix>3d</fix>
</trkpt>
<trkpt lat="40.0710923" lon="-105.2300282">
  <ele>1582.99</ele>
  <time>2026-09-02T20:50:49Z</time>
  <course>165.46</course>
  <speed>0.99</speed>
  <fix>3d</fix>
</trkpt>
<trkpt lat="40.0710897" lon="-105.2300274">
  <ele>1582.99</ele>
  <time>2026-09-02T20:50:49Z</time>
  <course>165.55</course>
  <speed>0.9895453501482385</speed>
  <fix>3d</fix>
</trkpt>
<trkpt lat="40.0710905" lon="-105.2300276">
  <ele>1582.99</ele>
  <time>2026-09-02T20:50:49Z</time>
  <course>165.49</course>
  <speed>0.99</speed>
  <fix>3d</fix>
</trkpt>
<trkpt lat="40.0710888" lon="-105.2300271">
  <ele>1582.99</ele>
  <time>2026-09-02T20:50:49Z</time>
  <course>165.6</course>
  <speed>1.0016985574512922</speed>
  <fix>3d</fix>
</trkpt>
<trkpt lat="40.0710905" lon="-105.2300276">
  <ele>1582.99</ele>
  <time>2026-09-02T20:50:49Z</time>
  <course>165.49</course>
  <speed>0.99</speed>
  <fix>3d</fix>
</trkpt>
<trkpt lat="40.0710879" lon="-105.2300267">
  <ele>1582.99</ele>
  <time>2026-09-02T20:50:49Z</time>
  <course>165.66</course>
  <speed>0.9895453501482385</speed>
  <fix>3d</fix>
</trkpt>
<trkpt lat="40.0710888" lon="-105.2300271">
  <ele>1582.99</ele>
  <time>2026-09-02T20:50:49Z</time>
  <course>165.57</course>
  <speed>0.99</speed>
  <fix>3d</fix>
</trkpt>
<trkpt lat="40.0710871" lon="-105.2300264">
  <ele>1582.99</ele>
  <time>2026-09-02T20:50:49Z</time>
  <course>165.73</course>
  <speed>0.9992497185388645</speed>
  <fix>3d</fix>
</trkpt>
<trkpt lat="40.0710888" lon="-105.2300271">
  <ele>1582.99</ele>
  <time>2026-09-02T20:50:49Z</time>
  <course>165.57</course>
  <speed>0.99</speed>
  <fix>3d</fix>
</trkpt>
<trkpt lat="40.0710861" lon="-105.2300262">
  <ele>1582.99</ele>
  <time>2026-09-02T20:50:49Z</time>
  <course>165.81</course>
  <speed>0.9895453501482385</speed>
  <fix>3d</fix>
</trkpt>
<trkpt lat="40.0710871" lon="-105.2300264">
  <ele>1582.99</ele>
  <time>2026-09-02T20:50:49Z</time>
  <course>165.7</course>
  <speed>0.99</speed>
  <fix>3d</fix>
</trkpt>
<trkpt lat="40.0710854" lon="-105.2300259">
  <ele>1582.99</ele>
  <time>2026-09-02T20:50:49Z</time>
  <course>165.92</course>
  <speed>0.9992497185388645</speed>
  <fix>3d</fix>
</trkpt>
<trkpt lat="40.0710871" lon="-105.2300264">
  <ele>1582.99</ele>
  <time>2026-09-02T20:50:49Z</time>
  <course>165.7</course>
  <speed>0.99</speed>
  <fix>3d</fix>
</trkpt>
<trkpt lat="40.0710845" lon="-105.2300257">
  <ele>1582.99</ele>
  <time>2026-09-02T20:50:49Z</time>
  <course>166.03</course>
  <speed>0.9895453501482385</speed>
  <fix>3d</fix>
</trkpt>
<trkpt lat="40.0710853" lon="-105.2300259">
  <ele>1582.99</ele>
  <time>2026-09-02T20:50:49Z</time>
  <course>165.89</course>
  <speed>0.99</speed>
  <fix>3d</fix>
</trkpt>
<trkpt lat="40.0710834" lon="-105.2300253">
  <ele>1582.99</ele>
  <time>2026-09-02T20:50:49Z</time>
  <course>166.19</course>
  <speed>0.9968951800465282</speed>
  <fix>3d</fix>
</trkpt>
<trkpt lat="40.0710853" lon="-105.2300259">
  <ele>1582.99</ele>
  <time>2026-09-02T20:50:49Z</time>
  <course>165.89</course>
  <speed>0.99</speed>
  <fix>3d</fix>
</trkpt>
<trkpt lat="40.0710825" lon="-105.230025">
  <ele>1582.99</ele>
  <time>2026-09-02T20:50:49Z</time>
  <course>166.31</course>
  <speed>0.9968951800465282</speed>
  <fix>3d</fix>
</trkpt>
<trkpt lat="40.0710835" lon="-105.2300253">
  <ele>1582.99</ele>
  <time>2026-09-02T20:50:49Z</time>
  <course>166.13</course>
  <speed>0.99</speed>
  <fix>3d</fix>
</trkpt>
<trkpt lat="40.0710817" lon="-105.2300248">
  <ele>1582.99</ele>
  <time>2026-09-02T20:50:49Z</time>
  <course>166.43</course>
  <speed>0.9968951800465282</speed>
  <fix>3d</fix>
</trkpt>
<trkpt lat="40.0710835" lon="-105.2300253">
  <ele>1582.99</ele>
  <time>2026-09-02T20:50:49Z</time>
  <course>166.13</course>
  <speed>0.99</speed>
  <fix>3d</fix>
</trkpt>
<trkpt lat="40.0710808" lon="-105.2300245">
  <ele>1582.99</ele>
  <time>2026-09-02T20:50:49Z</time>
  <course>166.53</course>
  <speed>0.9871676655968833</speed>
  <fix>3d</fix>
</trkpt>
<trkpt lat="40.0710818" lon="-105.2300248">
  <ele>1582.99</ele>
  <time>2026-09-02T20:50:49Z</time>
  <course>166.37</course>
  <speed>1.0</speed>
  <fix>3d</fix>
</trkpt>
<trkpt lat="40.0710799" lon="-105.2300241">
  <ele>1582.99</ele>
  <time>2026-09-02T20:50:49Z</time>
  <course>166.62</course>
  <speed>0.9968951800465282</speed>
  <fix>3d</fix>
</trkpt>
<trkpt lat="40.0710818" lon="-105.2300248">
  <ele>1582.99</ele>
  <time>2026-09-02T20:50:49Z</time>
  <course>166.37</course>
  <speed>1.0</speed>
  <fix>3d</fix>
</trkpt>
<trkpt lat="40.0710791" lon="-105.2300238">
  <ele>1582.99</ele>
  <time>2026-09-02T20:50:49Z</time>
  <course>166.71</course>
  <speed>0.9968951800465282</speed>
  <fix>3d</fix>
</trkpt>
<trkpt lat="40.0710801" lon="-105.2300242">
  <ele>1582.99</ele>
  <time>2026-09-02T20:50:49Z</time>
  <course>166.57</course>
  <speed>1.0</speed>
  <fix>3d</fix>
</trkpt>
<trkpt lat="40.0710781" lon="-105.2300236">
  <ele>1582.99</ele>
  <time>2026-09-02T20:50:49Z</time>
  <course>166.78</course>
  <speed>0.9946356116689167</speed>
  <fix>3d</fix>
</trkpt>
<trkpt lat="40.0710801" lon="-105.2300242">
  <ele>1582.99</ele>
  <time>2026-09-02T20:50:49Z</time>
  <course>166.57</course>
  <speed>1.0</speed>
  <fix>3d</fix>
</trkpt>
<trkpt lat="40.0710773" lon="-105.2300233">
  <ele>1582.99</ele>
  <time>2026-09-02T20:50:49Z</time>
  <course>166.84</course>
  <speed>0.9946356116689167</speed>
  <fix>3d</fix>
</trkpt>
<trkpt lat="40.0710783" lon="-105.2300237">
  <ele>1582.99</ele>
  <time>2026-09-02T20:50:49Z</time>
  <course>166.73</course>
  <speed>1.0</speed>
  <fix>3d</fix>
</trkpt>
<trkpt lat="40.0710764" lon="-105.2300231">
  <ele>1582.99</ele>
  <time>2026-09-02T20:50:49Z</time>
  <course>166.89</course>
  <speed>0.9946356116689167</speed>
  <fix>3d</fix>
</trkpt>
<trkpt lat="40.0710783" lon="-105.2300237">
  <ele>1582.99</ele>
  <time>2026-09-02T20:50:49Z</time>
  <course>166.73</course>
  <speed>1.0</speed>
  <fix>3d</fix>
</trkpt>
<trkpt lat="40.0710756" lon="-105.2300229">
  <ele>1582.99</ele>
  <time>2026-09-02T20:50:49Z</time>
  <course>166.92</course>
  <speed>0.9848857801796105</speed>
  <fix>3d</fix>
</trkpt>
<trkpt lat="40.0710766" lon="-105.2300232">
  <ele>1582.99</ele>
  <time>2026-09-02T20:50:49Z</time>
  <course>166.84</course>
  <speed>0.99</speed>
  <fix>3d</fix>
</trkpt>
<trkpt lat="40.0710746" lon="-105.2300226">
  <ele>1582.99</ele>
  <time>2026-09-02T20:50:49Z</time>
  <course>166.94</course>
  <speed>0.9946356116689167</speed>
  <fix>3d</fix>
</trkpt>
<trkpt lat="40.0710766" lon="-105.2300232">
  <ele>1582.99</ele>
  <time>2026-09-02T20:50:49Z</time>
  <course>166.84</course>
  <speed>0.99</speed>
  <fix>3d</fix>
</trkpt>
<trkpt lat="40.0710739" lon="-105.2300224">
  <ele>1582.99</ele>
  <time>2026-09-02T20:50:49Z</time>
  <course>166.95</course>
  <speed>0.9946356116689167</speed>
  <fix>3d</fix>
</trkpt>
<trkpt lat="40.0710748" lon="-105.2300226">
  <ele>1582.99</ele>
  <time>2026-09-02T20:50:49Z</time>
  <course>166.9</course>
  <speed>0.99</speed>
  <fix>3d</fix>
</trkpt>
<trkpt lat="40.0710731" lon="-105.2300221">
  <ele>1582.99</ele>
  <time>2026-09-02T20:50:49Z</time>
  <course>166.96</course>
  <speed>0.9946356116689167</speed>
  <fix>3d</fix>
</trkpt>
<trkpt lat="40.0710748" lon="-105.2300226">
  <ele>1582.99</ele>
  <time>2026-09-02T20:50:49Z</time>
  <course>166.9</course>
  <speed>0.99</speed>
  <fix>3d</fix>
</trkpt>
<trkpt lat="40.0710721" lon="-105.2300219">
  <ele>1582.99</ele>
  <time>2026-09-02T20:50:49Z</time>
  <course>166.97</course>
  <speed>0.9946356116689167</speed>
  <fix>3d</fix>
</trkpt>
<trkpt lat="40.071073" lon="-105.2300221">
  <ele>1582.99</ele>
  <time>2026-09-02T20:50:49Z</time>
  <course>166.93</course>
  <speed>1.0</speed>
  <fix>3d</fix>
</trkpt>
<trkpt lat="40.0710714" lon="-105.2300216">
  <ele>1582.99</ele>
  <time>2026-09-02T20:50:49Z</time>
  <course>166.98</course>
  <speed>0.9946356116689167</speed>
  <fix>3d</fix>
</trkpt>
<trkpt lat="40.071073" lon="-105.2300221">
  <ele>1582.99</ele>
  <time>2026-09-02T20:50:49Z</time>
  <course>166.93</course>
  <speed>1.0</speed>
  <fix>3d</fix>
</trkpt>
<trkpt lat="40.0710705" lon="-105.2300212">
  <ele>1582.99</ele>
  <time>2026-09-02T20:50:49Z</time>
  <course>166.99</course>
  <speed>0.9946356116689167</speed>
  <fix>3d</fix>
</trkpt>
<trkpt lat="40.0710713" lon="-105.2300215">
  <ele>1582.99</ele>
  <time>2026-09-02T20:50:49Z</time>
  <course>166.95</course>
  <speed>1.0</speed>
  <fix>3d</fix>
</trkpt>
<trkpt lat="40.0710696" lon="-105.2300211">
  <ele>1582.99</ele>
  <time>2026-09-02T20:50:49Z</time>
  <course>166.99</course>
  <speed>0.9946356116689167</speed>
  <fix>3d</fix>
</trkpt>
<trkpt lat="40.0710713" lon="-105.2300215">
  <ele>1582.99</ele>
  <time>2026-09-02T20:50:49Z</time>
  <course>166.95</course>
  <speed>1.0</speed>
  <fix>3d</fix>
</trkpt>
<trkpt lat="40.0710687" lon="-105.2300207">
  <ele>1582.99</ele>
  <time>2026-09-02T20:50:49Z</time>
  <course>167.0</course>
  <speed>0.9946356116689167</speed>
  <fix>3d</fix>
</trkpt>
<trkpt lat="40.0710696" lon="-105.230021">
  <ele>1582.99</ele>
  <time>2026-09-02T20:50:49Z</time>
  <course>166.96</course>
  <speed>1.0</speed>
  <fix>3d</fix>
</trkpt>
<trkpt lat="40.0710678" lon="-105.2300205">
  <ele>1582.99</ele>
  <time>2026-09-02T20:50:49Z</time>
  <course>167.0</course>
  <speed>0.9946356116689167</speed>
  <fix>3d</fix>
</trkpt>
<trkpt lat="40.0710696" lon="-105.230021">
  <ele>1582.99</ele>
  <time>2026-09-02T20:50:49Z</time>
  <course>166.96</course>
  <speed>1.0</speed>
  <fix>3d</fix>
</trkpt>
<trkpt lat="40.071067" lon="-105.2300202">
  <ele>1582.99</ele>
  <time>2026-09-02T20:50:49Z</time>
  <course>167.0</course>
  <speed>0.9946356116689167</speed>
  <fix>3d</fix>
</trkpt>
<trkpt lat="40.0710678" lon="-105.2300205">
  <ele>1582.99</ele>
  <time>2026-09-02T20:50:49Z</time>
  <course>166.97</course>
  <speed>1.0</speed>
  <fix>3d</fix>
</trkpt>
<trkpt lat="40.0710659" lon="-105.23002">
  <ele>1582.99</ele>
  <time>2026-09-02T20:50:49Z</time>
  <course>167.0</course>
  <speed>0.9848857801796105</speed>
  <fix>3d</fix>
</trkpt>
<trkpt lat="40.0710678" lon="-105.2300205">
  <ele>1582.99</ele>
  <time>2026-09-02T20:50:49Z</time>
  <course>166.97</course>
  <speed>1.0</speed>
  <fix>3d</fix>
</trkpt>
<trkpt lat="40.0710651" lon="-105.2300197">
  <ele>1582.99</ele>
  <time>2026-09-02T20:50:49Z</time>
  <course>166.99</course>
  <speed>0.9946356116689167</speed>
  <fix>3d</fix>
</trkpt>
<trkpt lat="40.071066" lon="-105.23002">
  <ele>1582.99</ele>
  <time>2026-09-02T20:50:49Z</time>
  <course>166.97</course>
  <speed>1.0</speed>
  <fix>3d</fix>
</trkpt>
<trkpt lat="40.0710641" lon="-105.2300193">
  <ele>1582.99</ele>
  <time>2026-09-02T20:50:49Z</time>
  <course>166.99</course>
  <speed>0.9946356116689167</speed>
  <fix>3d</fix>
</trkpt>
<trkpt lat="40.071066" lon="-105.23002">
  <ele>1582.99</ele>
  <time>2026-09-02T20:50:49Z</time>
  <course>166.97</course>
  <speed>1.0</speed>
  <fix>3d</fix>
</trkpt>
<trkpt lat="40.0710633" lon="-105.2300192">
  <ele>1582.99</ele>
  <time>2026-09-02T20:50:49Z</time>
  <course>166.98</course>
  <speed>0.9946356116689167</speed>
  <fix>3d</fix>
</trkpt>
<trkpt lat="40.0710643" lon="-105.2300194">
  <ele>1582.99</ele>
  <time>2026-09-02T20:50:49Z</time>
  <course>166.96</course>
  <speed>1.0</speed>
  <fix>3d</fix>
</trkpt>
<trkpt lat="40.0710624" lon="-105.2300188">
  <ele>1582.99</ele>
  <time>2026-09-02T20:50:49Z</time>
  <course>166.97</course>
  <speed>0.9946356116689167</speed>
  <fix>3d</fix>
</trkpt>
<trkpt lat="40.0710643" lon="-105.2300194">
  <ele>1582.99</ele>
  <time>2026-09-02T20:50:49Z</time>
  <course>166.96</course>
  <speed>1.0</speed>
  <fix>3d</fix>
</trkpt>
<trkpt lat="40.0710616" lon="-105.2300185">
  <ele>1582.99</ele>
  <time>2026-09-02T20:50:49Z</time>
  <course>166.96</course>
  <speed>0.9946356116689167</speed>
  <fix>3d</fix>
</trkpt>
<trkpt lat="40.0710626" lon="-105.2300189">
  <ele>1582.99</ele>
  <time>2026-09-02T20:50:49Z</time>
  <course>166.94</course>
  <speed>1.0</speed>
  <fix>3d</fix>
</trkpt>
<trkpt lat="40.0710606" lon="-105.2300183">
  <ele>1582.99</ele>
  <time>2026-09-02T20:50:49Z</time>
  <course>166.96</course>
  <speed>0.9946356116689167</speed>
  <fix>3d</fix>
</trkpt>
<trkpt lat="40.0710626" lon="-105.2300189">
  <ele>1582.99</ele>
  <time>2026-09-02T20:50:49Z</time>
  <course>166.94</course>
  <speed>1.0</speed>
  <fix>3d</fix>
</trkpt>
<trkpt lat="40.0710598" lon="-105.2300181">
  <ele>1582.99</ele>
  <time>2026-09-02T20:50:49Z</time>
  <course>166.95</course>
  <speed>0.9946356116689167</speed>
  <fix>3d</fix>
</trkpt>
<trkpt lat="40.0710608" lon="-105.2300184">
  <ele>1582.99</ele>
  <time>2026-09-02T20:50:49Z</time>
  <course>166.92</course>
  <speed>1.0</speed>
  <fix>3d</fix>
</trkpt>
<trkpt lat="40.071059" lon="-105.2300178">
  <ele>1582.99</ele>
  <time>2026-09-02T20:50:49Z</time>
  <course>166.94</course>
  <speed>0.9946356116689167</speed>
  <fix>3d</fix>
</trkpt>
<trkpt lat="40.0710608" lon="-105.2300184">
  <ele>1582.99</ele>
  <time>2026-09-02T20:50:49Z</time>
  <course>166.92</course>
  <speed>1.0</speed>
  <fix>3d</fix>
</trkpt>
<trkpt lat="40.071058" lon="-105.2300176">
  <ele>1582.99</ele>
  <time>2026-09-02T20:50:49Z</time>
  <course>166.93</course>
  <speed>0.9946356116689167</speed>
  <fix>3d</fix>
</trkpt>
<trkpt lat="40.0710591" lon="-105.2300178">
  <ele>1582.99</ele>
  <time>2026-09-02T20:50:49Z</time>
  <course>166.91</course>
  <speed>1.0</speed>
  <fix>3d</fix>
</trkpt>
<trkpt lat="40.0710572" lon="-105.2300173">
  <ele>1582.99</ele>
  <time>2026-09-02T20:50:49Z</time>
  <course>166.91</course>
  <speed>0.9946356116689167</speed>
  <fix>3d</fix>
</trkpt>
<trkpt lat="40.0710591" lon="-105.2300178">
  <ele>1582.99</ele>
  <time>2026-09-02T20:50:49Z</time>
  <course>166.91</course>
  <speed>1.0</speed>
  <fix>3d</fix>
</trkpt>
<trkpt lat="40.0710565" lon="-105.2300171">
  <ele>1582.99</ele>
  <time>2026-09-02T20:50:49Z</time>
  <course>166.9</course>
  <speed>0.9946356116689167</speed>
  <fix>3d</fix>
</trkpt>
<trkpt lat="40.0710573" lon="-105.2300173">
  <ele>1582.99</ele>
  <time>2026-09-02T20:50:49Z</time>
  <course>166.88</course>
  <speed>1.0</speed>
  <fix>3d</fix>
</trkpt>
<trkpt lat="40.0710556" lon="-105.2300168">
  <ele>1582.99</ele>
  <time>2026-09-02T20:50:49Z</time>
  <course>166.89</course>
  <speed>0.9946356116689167</speed>
  <fix>3d</fix>
</trkpt>
<trkpt lat="40.0710573" lon="-105.2300173">
  <ele>1582.99</ele>
  <time>2026-09-02T20:50:49Z</time>
  <course>166.88</course>
  <speed>1.0</speed>
  <fix>3d</fix>
</trkpt>
<trkpt lat="40.0710547" lon="-105.2300164">
  <ele>1582.99</ele>
  <time>2026-09-02T20:50:49Z</time>
  <course>166.87</course>
  <speed>0.9946356116689167</speed>
  <fix>3d</fix>
</trkpt>
<trkpt lat="40.0710555" lon="-105.2300167">
  <ele>1582.99</ele>
  <time>2026-09-02T20:50:49Z</time>
  <course>166.85</course>
  <speed>1.0</speed>
  <fix>3d</fix>
</trkpt>
<trkpt lat="40.0710538" lon="-105.2300162">
  <ele>1582.99</ele>
  <time>2026-09-02T20:50:49Z</time>
  <course>166.86</course>
  <speed>0.9946356116689167</speed>
  <fix>3d</fix>
</trkpt>
<trkpt lat="40.0710555" lon="-105.2300167">
  <ele>1582.99</ele>
  <time>2026-09-02T20:50:49Z</time>
  <course>166.85</course>
  <speed>1.0</speed>
  <fix>3d</fix>
</trkpt>
<trkpt lat="40.071053" lon="-105.2300159">
  <ele>1582.99</ele>
  <time>2026-09-02T20:50:49Z</time>
  <course>166.85</course>
  <speed>0.9946356116689167</speed>
  <fix>3d</fix>
</trkpt>
<trkpt lat="40.0710538" lon="-105.2300162">
  <ele>1582.99</ele>
  <time>2026-09-02T20:50:49Z</time>
  <course>166.82</course>
  <speed>0.99</speed>
  <fix>3d</fix>
</trkpt>
<trkpt lat="40.071052" lon="-105.2300157">
  <ele>1582.99</ele>
  <time>2026-09-02T20:50:49Z</time>
  <course>166.83</course>
  <speed>0.9946356116689167</speed>
  <fix>3d</fix>
</trkpt>
<trkpt lat="40.0710538" lon="-105.2300162">
  <ele>1582.99</ele>
  <time>2026-09-02T20:50:49Z</time>
  <course>166.82</course>
  <speed>0.99</speed>
  <fix>3d</fix>
</trkpt>
<trkpt lat="40.0710512" lon="-105.2300154">
  <ele>1582.99</ele>
  <time>2026-09-02T20:50:49Z</time>
  <course>166.81</course>
  <speed>0.9946356116689167</speed>
  <fix>3d</fix>
</trkpt>
<trkpt lat="40.0710521" lon="-105.2300157">
  <ele>1582.99</ele>
  <time>2026-09-02T20:50:49Z</time>
  <course>166.79</course>
  <speed>1.0</speed>
  <fix>3d</fix>
</trkpt>
<trkpt lat="40.0710504" lon="-105.2300152">
  <ele>1582.99</ele>
  <time>2026-09-02T20:50:49Z</time>
  <course>166.8</course>
  <speed>0.9946356116689167</speed>
  <fix>3d</fix>
</trkpt>
<trkpt lat="40.0710521" lon="-105.2300157">
  <ele>1582.99</ele>
  <time>2026-09-02T20:50:49Z</time>
  <course>166.79</course>
  <speed>1.0</speed>
  <fix>3d</fix>
</trkpt>
<trkpt lat="40.0710495" lon="-105.2300149">
  <ele>1582.99</ele>
  <time>2026-09-02T20:50:49Z</time>
  <course>166.79</course>
  <speed>0.9946356116689167</speed>
  <fix>3d</fix>
</trkpt>
<trkpt lat="40.0710503" lon="-105.2300152">
  <ele>1582.99</ele>
  <time>2026-09-02T20:50:49Z</time>
  <course>166.76</course>
  <speed>1.0</speed>
  <fix>3d</fix>
</trkpt>
<trkpt lat="40.0710486" lon="-105.2300147">
  <ele>1582.99</ele>
  <time>2026-09-02T20:50:49Z</time>
  <course>166.77</course>
  <speed>0.9946356116689167</speed>
  <fix>3d</fix>
</trkpt>
<trkpt lat="40.0710503" lon="-105.2300152">
  <ele>1582.99</ele>
  <time>2026-09-02T20:50:49Z</time>
  <course>166.76</course>
  <speed>1.0</speed>
  <fix>3d</fix>
</trkpt>
<trkpt lat="40.0710476" lon="-105.2300142">
  <ele>1582.99</ele>
  <time>2026-09-02T20:50:49Z</time>
  <course>166.75</course>
  <speed>0.9946356116689167</speed>
  <fix>3d</fix>
</trkpt>
<trkpt lat="40.0710486" lon="-105.2300146">
  <ele>1582.99</ele>
  <time>2026-09-02T20:50:49Z</time>
  <course>166.73</course>
  <speed>0.99</speed>
  <fix>3d</fix>
</trkpt>
<trkpt lat="40.0710466" lon="-105.230014">
  <ele>1582.99</ele>
  <time>2026-09-02T20:50:49Z</time>
  <course>166.74</course>
  <speed>0.9968951800465282</speed>
  <fix>3d</fix>
</trkpt>
<trkpt lat="40.0710486" lon="-105.2300146">
  <ele>1582.99</ele>
  <time>2026-09-02T20:50:49Z</time>
  <course>166.73</course>
  <speed>0.99</speed>
  <fix>3d</fix>
</trkpt>
<trkpt lat="40.0710458" lon="-105.2300138">
  <ele>1582.99</ele>
  <time>2026-09-02T20:50:49Z</time>
  <course>166.72</course>
  <speed>0.9848857801796105</speed>
  <fix>3d</fix>
</trkpt>
<trkpt lat="40.0710469" lon="-105.2300141">
  <ele>1582.99</ele>
  <time>2026-09-02T20:50:49Z</time>
  <course>166.7</course>
  <speed>0.99</speed>
  <fix>3d</fix>
</trkpt>
<trkpt lat="40.071045" lon="-105.2300135">
  <ele>1582.99</ele>
  <time>2026-09-02T20:50:49Z</time>
  <course>166.71</course>
  <speed>0.9968951800465282</speed>
  <fix>3d</fix>
</trkpt>
<trkpt lat="40.0710469" lon="-105.2300141">
  <ele>1582.99</ele>
  <time>2026-09-02T20:50:49Z</time>
  <course>166.7</course>
  <speed>0.99</speed>
  <fix>3d</fix>
</trkpt>
<trkpt lat="40.0710441" lon="-105.2300133">
  <ele>1582.99</ele>
  <time>2026-09-02T20:50:49Z</time>
  <course>166.69</course>
  <speed>0.9968951800465282</speed>
  <fix>3d</fix>
</trkpt>
<trkpt lat="40.071045" lon="-105.2300135">
  <ele>1582.99</ele>
  <time>2026-09-02T20:50:49Z</time>
  <course>166.67</course>
  <speed>0.99</speed>
  <fix>3d</fix>
</trkpt>
<trkpt lat="40.0710432" lon="-105.230013">
  <ele>1582.99</ele>
  <time>2026-09-02T20:50:49Z</time>
  <course>166.68</course>
  <speed>0.9968951800465282</speed>
  <fix>3d</fix>
</trkpt>
<trkpt lat="40.071045" lon="-105.2300135">
  <ele>1582.99</ele>
  <time>2026-09-02T20:50:49Z</time>
  <course>166.67</course>
  <speed>0.99</speed>
  <fix>3d</fix>
</trkpt>
<trkpt lat="40.0710422" lon="-105.2300126">
  <ele>1582.99</ele>
  <time>2026-09-02T20:50:49Z</time>
  <course>166.66</course>
  <speed>0.9968951800465282</speed>
  <fix>3d</fix>
</trkpt>
<trkpt lat="40.0710433" lon="-105.230013">
  <ele>1582.99</ele>
  <time>2026-09-02T20:50:49Z</time>
  <course>166.64</course>
  <speed>1.0</speed>
  <fix>3d</fix>
</trkpt>
<trkpt lat="40.0710415" lon="-105.2300125">
  <ele>1582.99</ele>
  <time>2026-09-02T20:50:49Z</time>
  <course>166.64</course>
  <speed>0.9968951800465282</speed>
  <fix>3d</fix>
</trkpt>
<trkpt lat="40.0710433" lon="-105.230013">
  <ele>1582.99</ele>
  <time>2026-09-02T20:50:49Z</time>
  <course>166.64</course>
  <speed>1.0</speed>
  <fix>3d</fix>
</trkpt>
<trkpt lat="40.0710405" lon="-105.2300121">
  <ele>1582.99</ele>
  <time>2026-09-02T20:50:49Z</time>
  <course>166.62</course>
  <speed>0.9871676655968833</speed>
  <fix>3d</fix>
</trkpt>
<trkpt lat="40.0710416" lon="-105.2300124">
  <ele>1582.99</ele>
  <time>2026-09-02T20:50:49Z</time>
  <course>166.61</course>
  <speed>0.99</speed>
  <fix>3d</fix>
</trkpt>
<trkpt lat="40.0710397" lon="-105.2300118">
  <ele>1582.99</ele>
  <time>2026-09-02T20:50:49Z</time>
  <course>166.61</course>
  <speed>0.9968951800465282</speed>
  <fix>3d</fix>
</trkpt>
<trkpt lat="40.0710416" lon="-105.2300124">
  <ele>1582.99</ele>
  <time>2026-09-02T20:50:49Z</time>
  <course>166.61</course>
  <speed>0.99</speed>
  <fix>3d</fix>
</trkpt>
<trkpt lat="40.0710387" lon="-105.2300116">
  <ele>1582.99</ele>
  <time>2026-09-02T20:50:49Z</time>
  <course>166.59</course>
  <speed>0.9871676655968833</speed>
  <fix>3d</fix>
</trkpt>
<trkpt lat="40.0710399" lon="-105.2300119">
  <ele>1582.99</ele>
  <time>2026-09-02T20:50:49Z</time>
  <course>166.57</course>
  <speed>0.99</speed>
  <fix>3d</fix>
</trkpt>
<trkpt lat="40.071038" lon="-105.2300114">
  <ele>1582.99</ele>
  <time>2026-09-02T20:50:49Z</time>
  <course>166.58</course>
  <speed>0.9968951800465282</speed>
  <fix>3d</fix>
</trkpt>
<trkpt lat="40.0710399" lon="-105.2300119">
  <ele>1582.99</ele>
  <time>2026-09-02T20:50:49Z</time>
  <course>166.57</course>
  <speed>0.99</speed>
  <fix>3d</fix>
</trkpt>
<trkpt lat="40.0710373" lon="-105.2300111">
  <ele>1582.99</ele>
  <time>2026-09-02T20:50:49Z</time>
  <course>166.57</course>
  <speed>0.9968951800465282</speed>
  <fix>3d</fix>
</trkpt>
<trkpt lat="40.0710381" lon="-105.2300114">
  <ele>1582.99</ele>
  <time>2026-09-02T20:50:49Z</time>
  <course>166.55</course>
  <speed>0.99</speed>
  <fix>3d</fix>
</trkpt>
<trkpt lat="40.0710363" lon="-105.2300109">
  <ele>1582.99</ele>
  <time>2026-09-02T20:50:49Z</time>
  <course>166.56</course>
  <speed>0.9968951800465282</speed>
  <fix>3d</fix>
</trkpt>
<trkpt lat="40.0710381" lon="-105.2300114">
  <ele>1582.99</ele>
  <time>2026-09-02T20:50:49Z</time>
  <course>166.55</course>
  <speed>0.99</speed>
  <fix>3d</fix>
</trkpt>
<trkpt lat="40.0710355" lon="-105.2300106">
  <ele>1582.99</ele>
  <time>2026-09-02T20:50:49Z</time>
  <course>166.54</course>
  <speed>0.9968951800465282</speed>
  <fix>3d</fix>
</trkpt>
<trkpt lat="40.0710363" lon="-105.2300108">
  <ele>1582.99</ele>
  <time>2026-09-02T20:50:49Z</time>
  <course>166.52</course>
  <speed>0.99</speed>
  <fix>3d</fix>
</trkpt>
<trkpt lat="40.0710346" lon="-105.2300102">
  <ele>1582.99</ele>
  <time>2026-09-02T20:50:49Z</time>
  <course>166.53</course>
  <speed>0.9968951800465282</speed>
  <fix>3d</fix>
</trkpt>
<trkpt lat="40.0710363" lon="-105.2300108">
  <ele>1582.99</ele>
  <time>2026-09-02T20:50:49Z</time>
  <course>166.52</course>
  <speed>0.99</speed>
  <fix>3d</fix>
</trkpt>
<trkpt lat="40.0710337" lon="-105.2300099">
  <ele>1582.99</ele>
  <time>2026-09-02T20:50:49Z</time>
  <course>166.52</course>
  <speed>0.9871676655968833</speed>
  <fix>3d</fix>
</trkpt>
<trkpt lat="40.0710346" lon="-105.2300103">
  <ele>1582.99</ele>
  <time>2026-09-02T20:50:49Z</time>
  <course>166.49</course>
  <speed>0.99</speed>
  <fix>3d</fix>
</trkpt>
<trkpt lat="40.0710329" lon="-105.2300097">
  <ele>1582.99</ele>
  <time>2026-09-02T20:50:49Z</time>
  <course>166.5</course>
  <speed>0.9968951800465282</speed>
  <fix>3d</fix>
</trkpt>
<trkpt lat="40.0710346" lon="-105.2300103">
  <ele>1582.99</ele>
  <time>2026-09-02T20:50:49Z</time>
  <course>166.49</course>
  <speed>0.99</speed>
  <fix>3d</fix>
</trkpt>
<trkpt lat="40.0710319" lon="-105.2300095">
  <ele>1582.99</ele>
  <time>2026-09-02T20:50:49Z</time>
  <course>166.49</course>
  <speed>0.9871676655968833</speed>
  <fix>3d</fix>
</trkpt>
<trkpt lat="40.0710328" lon="-105.2300097">
  <ele>1582.99</ele>
  <time>2026-09-02T20:50:49Z</time>
  <course>166.46</course>
  <speed>0.99</speed>
  <fix>3d</fix>
</trkpt>
<trkpt lat="40.0710312" lon="-105.2300092">
  <ele>1582.99</ele>
  <time>2026-09-02T20:50:49Z</time>
  <course>166.48</course>
  <speed>0.9968951800465282</speed>
  <fix>3d</fix>
</trkpt>
<trkpt lat="40.0710328" lon="-105.2300097">
  <ele>1582.99</ele>
  <time>2026-09-02T20:50:49Z</time>
  <course>166.46</course>
  <speed>0.99</speed>
  <fix>3d</fix>
</trkpt>
<trkpt lat="40.0710302" lon="-105.230009">
  <ele>1582.99</ele>
  <time>2026-09-02T20:50:49Z</time>
  <course>166.47</course>
  <speed>0.9871676655968833</speed>
  <fix>3d</fix>
</trkpt>
<trkpt lat="40.0710311" lon="-105.2300092">
  <ele>1582.99</ele>
  <time>2026-09-02T20:50:49Z</time>
  <course>166.44</course>
  <speed>0.99</speed>
  <fix>3d</fix>
</trkpt>
<trkpt lat="40.0710292" lon="-105.2300085">
  <ele>1582.99</ele>
  <time>2026-09-02T20:50:49Z</time>
  <course>166.46</course>
  <speed>0.9968951800465282</speed>
  <fix>3d</fix>
</trkpt>
<trkpt lat="40.0710311" lon="-105.2300092">
  <ele>1582.99</ele>
  <time>2026-09-02T20:50:49Z</time>
  <course>166.44</course>
  <speed>0.99</speed>
  <fix>3d</fix>
</trkpt>
<trkpt lat="40.0710283" lon="-105.2300083">
  <ele>1582.99</ele>
  <time>2026-09-02T20:50:49Z</time>
  <course>166.45</course>
  <speed>0.9968951800465282</speed>
  <fix>3d</fix>
</trkpt>
<trkpt lat="40.0710294" lon="-105.2300086">
  <ele>1582.99</ele>
  <time>2026-09-02T20:50:49Z</time>
  <course>166.42</course>
  <speed>0.99</speed>
  <fix>3d</fix>
</trkpt>
<trkpt lat="40.0710275" lon="-105.230008">
  <ele>1582.99</ele>
  <time>2026-09-02T20:50:49Z</time>
  <course>166.44</course>
  <speed>0.9871676655968833</speed>
  <fix>3d</fix>
</trkpt>
<trkpt lat="40.0710294" lon="-105.2300086">
  <ele>1582.99</ele>
  <time>2026-09-02T20:50:49Z</time>
  <course>166.42</course>
  <speed>0.99</speed>
  <fix>3d</fix>
</trkpt>
<trkpt lat="40.0710265" lon="-105.2300078">
  <ele>1582.99</ele>
  <time>2026-09-02T20:50:49Z</time>
  <course>166.43</course>
  <speed>0.9968951800465282</speed>
  <fix>3d</fix>
</trkpt>
<trkpt lat="40.0710276" lon="-105.230008">
  <ele>1582.99</ele>
  <time>2026-09-02T20:50:49Z</time>
  <course>166.4</course>
  <speed>0.99</speed>
  <fix>3d</fix>
</trkpt>
<trkpt lat="40.0710257" lon="-105.2300075">
  <ele>1582.99</ele>
  <time>2026-09-02T20:50:49Z</time>
  <course>166.42</course>
  <speed>0.9871676655968833</speed>
  <fix>3d</fix>
</trkpt>
<trkpt lat="40.0710276" lon="-105.230008">
  <ele>1582.99</ele>
  <time>2026-09-02T20:50:49Z</time>
  <course>166.4</course>
  <speed>0.99</speed>
  <fix>3d</fix>
</trkpt>
<trkpt lat="40.0710249" lon="-105.2300071">
  <ele>1582.99</ele>
  <time>2026-09-02T20:50:49Z</time>
  <course>166.41</course>
  <speed>0.9968951800465282</speed>
  <fix>3d</fix>
</trkpt>
<trkpt lat="40.0710258" lon="-105.2300075">
  <ele>1582.99</ele>
  <time>2026-09-02T20:50:49Z</time>
  <course>166.38</course>
  <speed>1.0</speed>
  <fix>3d</fix>
</trkpt>
<trkpt lat="40.071024" lon="-105.230007">
  <ele>1582.99</ele>
  <time>2026-09-02T20:50:49Z</time>
  <course>166.4</course>
  <speed>0.9871676655968833</speed>
  <fix>3d</fix>
</trkpt>
<trkpt lat="40.0710258" lon="-105.2300075">
  <ele>1582.99</ele>
  <time>2026-09-02T20:50:49Z</time>
  <course>166.38</course>
  <speed>1.0</speed>
  <fix>3d</fix>
</trkpt>
<trkpt lat="40.0710231" lon="-105.2300066">
  <ele>1582.99</ele>
  <time>2026-09-02T20:50:49Z</time>
  <course>166.39</course>
  <speed>1.006628034578811</speed>
  <fix>3d</fix>
</trkpt>
<trkpt lat="40.0710241" lon="-105.230007">
  <ele>1582.99</ele>
  <time>2026-09-02T20:50:49Z</time>
  <course>166.36</course>
  <speed>1.0</speed>
  <fix>3d</fix>
</trkpt>
<trkpt lat="40.0710222" lon="-105.2300063">
  <ele>1582.99</ele>
  <time>2026-09-02T20:50:49Z</time>
  <course>166.39</course>
  <speed>0.9871676655968833</speed>
  <fix>3d</fix>
</trkpt>
<trkpt lat="40.0710241" lon="-105.230007">
  <ele>1582.99</ele>
  <time>2026-09-02T20:50:49Z</time>
  <course>166.36</course>
  <speed>1.0</speed>
  <fix>3d</fix>
</trkpt>
<trkpt lat="40.0710214" lon="-105.2300061">
  <ele>1582.99</ele>
  <time>2026-09-02T20:50:49Z</time>
  <course>166.38</course>
  <speed>0.9968951800465282</speed>
  <fix>3d</fix>
</trkpt>
<trkpt lat="40.0710224" lon="-105.2300064">
  <ele>1582.99</ele>
  <time>2026-09-02T20:50:49Z</time>
  <course>166.34</course>
  <speed>1.0</speed>
  <fix>3d</fix>
</trkpt>
<trkpt lat="40.0710204" lon="-105.2300059">
  <ele>1582.99</ele>
  <time>2026-09-02T20:50:49Z</time>
  <course>166.33</course>
  <speed>0.9968951800465282</speed>
  <fix>3d</fix>
</trkpt>
<trkpt lat="40.0710224" lon="-105.2300064">
  <ele>1582.99</ele>
  <time>2026-09-02T20:50:49Z</time>
  <course>166.34</course>
  <speed>1.0</speed>
  <fix>3d</fix>
</trkpt>
<trkpt lat="40.0710197" lon="-105.2300056">
  <ele>1582.99</ele>
  <time>2026-09-02T20:50:49Z</time>
  <course>166.09</course>
  <speed>0.9992497185388645</speed>
  <fix>3d</fix>
</trkpt>
<trkpt lat="40.0710206" lon="-105.2300059">
  <ele>1582.99</ele>
  <time>2026-09-02T20:50:49Z</time>
  <course>166.19</course>
  <speed>1.0</speed>
  <fix>3d</fix>
</trkpt>
<trkpt lat="40.0710189" lon="-105.2300053">
  <ele>1582.99</ele>
  <time>2026-09-02T20:50:49Z</time>
  <course>165.48</course>
  <speed>0.9920181449953424</speed>
  <fix>3d</fix>
</trkpt>
<trkpt lat="40.0710206" lon="-105.2300059">
  <ele>1582.99</ele>
  <time>2026-09-02T20:50:49Z</time>
  <course>166.19</course>
  <speed>1.0</speed>
  <fix>3d</fix>
</trkpt>
<trkpt lat="40.071018" lon="-105.2300049">
  <ele>1582.99</ele>
  <time>2026-09-02T20:50:49Z</time>
  <course>164.51</course>
  <speed>0.9945853407325085</speed>
  <fix>3d</fix>
</trkpt>
<trkpt lat="40.0710189" lon="-105.2300052">
  <ele>1582.99</ele>
  <time>2026-09-02T20:50:49Z</time>
  <course>165.25</course>
  <speed>1.0</speed>
  <fix>3d</fix>
</trkpt>
<trkpt lat="40.0710172" lon="-105.2300047">
  <ele>1583.0</ele>
  <time>2026-09-02T20:50:49Z</time>
  <course>163.16</course>
  <speed>1.002845950283492</speed>
  <fix>3d</fix>
</trkpt>
<trkpt lat="40.0710189" lon="-105.2300052">
  <ele>1582.99</ele>
  <time>2026-09-02T20:50:49Z</time>
  <course>165.25</course>
  <speed>1.0</speed>
  <fix>3d</fix>
</trkpt>
<trkpt lat="40.0710162" lon="-105.2300044">
  <ele>1582.99</ele>
  <time>2026-09-02T20:50:49Z</time>
  <course>161.39</course>
  <speed>0.9803060746521975</speed>
  <fix>3d</fix>
</trkpt>
<trkpt lat="40.0710172" lon="-105.2300047">
  <ele>1582.99</ele>
  <time>2026-09-02T20:50:49Z</time>
  <course>162.91</course>
  <speed>0.99</speed>
  <fix>3d</fix>
</trkpt>
<trkpt lat="40.0710155" lon="-105.2300039">
  <ele>1582.99</ele>
  <time>2026-09-02T20:50:49Z</time>
  <course>159.16</course>
  <speed>0.9620810776644555</speed>
  <fix>3d</fix>
</trkpt>
<trkpt lat="40.0710172" lon="-105.2300047">
  <ele>1582.99</ele>
  <time>2026-09-02T20:50:49Z</time>
  <course>162.91</course>
  <speed>0.99</speed>
  <fix>3d</fix>
</trkpt>
<trkpt lat="40.0710147" lon="-105.2300035">
  <ele>1582.99</ele>
  <time>2026-09-02T20:50:49Z</time>
  <course>156.43</course>
  <speed>0.9270382947861431</speed>
  <fix>3d</fix>
</trkpt>
<trkpt lat="40.0710155" lon="-105.2300039">
  <ele>1582.99</ele>
  <time>2026-09-02T20:50:49Z</time>
  <course>158.9</course>
  <speed>0.95</speed>
  <fix>3d</fix>
</trkpt>
<trkpt lat="40.071014" lon="-105.230003">
  <ele>1582.99</ele>
  <time>2026-09-02T20:50:49Z</time>
  <course>153.17</course>
  <speed>0.894427190999916</speed>
  <fix>3d</fix>
</trkpt>
<trkpt lat="40.0710155" lon="-105.2300039">
  <ele>1582.99</ele>
  <time>2026-09-02T20:50:49Z</time>
  <course>158.9</course>
  <speed>0.95</speed>
  <fix>3d</fix>
</trkpt>
<trkpt lat="40.0710133" lon="-105.2300025">
  <ele>1582.99</ele>
  <time>2026-09-02T20:50:49Z</time>
  <course>149.33</course>
  <speed>0.8386298349093002</speed>
  <fix>3d</fix>
</trkpt>
<trkpt lat="40.071014" lon="-105.230003">
  <ele>1582.99</ele>
  <time>2026-09-02T20:50:49Z</time>
  <course>152.96</course>
  <speed>0.88</speed>
  <fix>3d</fix>
</trkpt>
<trkpt lat="40.0710127" lon="-105.230002">
  <ele>1582.99</ele>
  <time>2026-09-02T20:50:49Z</time>
  <course>144.99</course>
  <speed>0.8044874144447506</speed>
  <fix>3d</fix>
</trkpt>
<trkpt lat="40.071014" lon="-105.230003">
  <ele>1582.99</ele>
  <time>2026-09-02T20:50:49Z</time>
  <course>152.96</course>
  <speed>0.88</speed>
  <fix>3d</fix>
</trkpt>
<trkpt lat="40.0710119" lon="-105.2300013">
  <ele>1582.99</ele>
  <time>2026-09-02T20:50:49Z</time>
  <course>139.61</course>
  <speed>0.7733692520394123</speed>
  <fix>3d</fix>
</trkpt>
<trkpt lat="40.0710127" lon="-105.230002">
  <ele>1582.99</ele>
  <time>2026-09-02T20:50:49Z</time>
  <course>144.99</course>
  <speed>0.81</speed>
  <fix>3d</fix>
</trkpt>
<trkpt lat="40.0710115" lon="-105.2300008">
  <ele>1582.99</ele>
  <time>2026-09-02T20:50:49Z</time>
  <course>135.31</course>
  <speed>0.7495331880577403</speed>
  <fix>3d</fix>
</trkpt>
<trkpt lat="40.0710127" lon="-105.230002">
  <ele>1582.99</ele>
  <time>2026-09-02T20:50:49Z</time>
  <course>144.99</course>
  <speed>0.81</speed>
  <fix>3d</fix>
</trkpt>
<trkpt lat="40.071011" lon="-105.2300001">
  <ele>1582.99</ele>
  <time>2026-09-02T20:50:49Z</time>
  <course>131.22</course>
  <speed>0.7657675887630658</speed>
  <fix>3d</fix>
</trkpt>
<trkpt lat="40.0710116" lon="-105.2300008">
  <ele>1582.99</ele>
  <time>2026-09-02T20:50:49Z</time>
  <course>136.18</course>
  <speed>0.77</speed>
  <fix>3d</fix>
</trkpt>
<trkpt lat="40.0710106" lon="-105.2299994">
  <ele>1582.99</ele>
  <time>2026-09-02T20:50:49Z</time>
  <course>127.39</course>
  <speed>0.7780102827083971</speed>
  <fix>3d</fix>
</trkpt>
<trkpt lat="40.0710116" lon="-105.2300008">
  <ele>1582.99</ele>
  <time>2026-09-02T20:50:49Z</time>
  <course>136.18</course>
  <speed>0.77</speed>
  <fix>3d</fix>
</trkpt>
<trkpt lat="40.0710101" lon="-105.2299986">
  <ele>1582.99</ele>
  <time>2026-09-02T20:50:49Z</time>
  <course>123.84</course>
  <speed>0.8292767933567176</speed>
  <fix>3d</fix>
</trkpt>
<trkpt lat="40.0710107" lon="-105.2299995">
  <ele>1582.99</ele>
  <time>2026-09-02T20:50:49Z</time>
  <course>128.0</course>
  <speed>0.79</speed>
  <fix>3d</fix>
</trkpt>
<trkpt lat="40.0710098" lon="-105.2299977">
  <ele>1582.99</ele>
  <time>2026-09-02T20:50:49Z</time>
  <course>120.62</course>
  <speed>0.8695401083331349</speed>
  <fix>3d</fix>
</trkpt>
<trkpt lat="40.0710107" lon="-105.2299995">
  <ele>1582.99</ele>
  <time>2026-09-02T20:50:49Z</time>
  <course>128.0</course>
  <speed>0.79</speed>
  <fix>3d</fix>
</trkpt>
<trkpt lat="40.0710094" lon="-105.2299968">
  <ele>1582.99</ele>
  <time>2026-09-02T20:50:49Z</time>
  <course>117.75</course>
  <speed>0.9347726996441434</speed>
  <fix>3d</fix>
</trkpt>
<trkpt lat="40.0710098" lon="-105.2299979">
  <ele>1582.99</ele>
  <time>2026-09-02T20:50:49Z</time>
  <course>121.1</course>
  <speed>0.88</speed>
  <fix>3d</fix>
</trkpt>
<trkpt lat="40.0710089" lon="-105.2299958">
  <ele>1582.99</ele>
  <time>2026-09-02T20:50:49Z</time>
  <course>115.26</course>
  <speed>0.9617692030835673</speed>
  <fix>3d</fix>
</trkpt>
<trkpt lat="40.0710098" lon="-105.2299979">
  <ele>1582.99</ele>
  <time>2026-09-02T20:50:49Z</time>
  <course>121.1</course>
  <speed>0.88</speed>
  <fix>3d</fix>
</trkpt>
<trkpt lat="40.0710086" lon="-105.2299948">
  <ele>1582.99</ele>
  <time>2026-09-02T20:50:49Z</time>
  <course>113.17</course>
  <speed>1.0084641788382966</speed>
  <fix>3d</fix>
</trkpt>
<trkpt lat="40.071009" lon="-105.229996">
  <ele>1582.99</ele>
  <time>2026-09-02T20:50:49Z</time>
  <course>115.73</course>
  <speed>0.97</speed>
  <fix>3d</fix>
</trkpt>
<trkpt lat="40.0710082" lon="-105.2299936">
  <ele>1582.99</ele>
  <time>2026-09-02T20:50:49Z</time>
  <course>111.47</course>
  <speed>1.0195096860746347</speed>
  <fix>3d</fix>
</trkpt>
<trkpt lat="40.071009" lon="-105.229996">
  <ele>1582.99</ele>
  <time>2026-09-02T20:50:49Z</time>
  <course>115.73</course>
  <speed>0.97</speed>
  <fix>3d</fix>
</trkpt>
<trkpt lat="40.0710079" lon="-105.2299925">
  <ele>1582.99</ele>
  <time>2026-09-02T20:50:49Z</time>
  <course>110.02</course>
  <speed>1.0534229919647664</speed>
  <fix>3d</fix>
</trkpt>
<trkpt lat="40.0710083" lon="-105.2299938">
  <ele>1582.99</ele>
  <time>2026-09-02T20:50:49Z</time>
  <course>111.81</course>
  <speed>1.02</speed>
  <fix>3d</fix>
</trkpt>
<trkpt lat="40.0710076" lon="-105.2299915">
  <ele>1582.99</ele>
  <time>2026-09-02T20:50:49Z</time>
  <course>108.89</course>
  <speed>1.0562196741208714</speed>
  <fix>3d</fix>
</trkpt>
<trkpt lat="40.0710083" lon="-105.2299938">
  <ele>1582.99</ele>
  <time>2026-09-02T20:50:49Z</time>
  <course>111.81</course>
  <speed>1.02</speed>
  <fix>3d</fix>
</trkpt>
<trkpt lat="40.0710074" lon="-105.2299903">
  <ele>1583.0</ele>
  <time>2026-09-02T20:50:49Z</time>
  <course>107.57</course>
  <speed>1.0565036677645754</speed>
  <fix>3d</fix>
</trkpt>
<trkpt lat="40.0710076" lon="-105.2299915">
  <ele>1582.99</ele>
  <time>2026-09-02T20:50:49Z</time>
  <course>108.85</course>
  <speed>1.05</speed>
  <fix>3d</fix>
</trkpt>
<trkpt lat="40.071007" lon="-105.2299891">
  <ele>1583.0</ele>
  <time>2026-09-02T20:50:49Z</time>
  <course>106.33</course>
  <speed>1.0508092119885513</speed>
  <fix>3d</fix>
</trkpt>
<trkpt lat="40.0710076" lon="-105.2299915">
  <ele>1582.99</ele>
  <time>2026-09-02T20:50:49Z</time>
  <course>108.85</course>
  <speed>1.05</speed>
  <fix>3d</fix>
</trkpt>
<trkpt lat="40.0710069" lon="-105.2299879">
  <ele>1582.99</ele>
  <time>2026-09-02T20:50:49Z</time>
  <course>105.16</course>
  <speed>1.0551303237041383</speed>
  <fix>3d</fix>
</trkpt>
<trkpt lat="40.0710071" lon="-105.2299891">
  <ele>1582.99</ele>
  <time>2026-09-02T20:50:49Z</time>
  <course>106.3</course>
  <speed>1.05</speed>
  <fix>3d</fix>
</trkpt>
<trkpt lat="40.0710065" lon="-105.2299867">
  <ele>1582.99</ele>
  <time>2026-09-02T20:50:49Z</time>
  <course>104.07</course>
  <speed>1.0404806581575652</speed>
  <fix>3d</fix>
</trkpt>
<trkpt lat="40.0710071" lon="-105.2299891">
  <ele>1582.99</ele>
  <time>2026-09-02T20:50:49Z</time>
  <course>106.3</course>
  <speed>1.05</speed>
  <fix>3d</fix>
</trkpt>
<trkpt lat="40.0710064" lon="-105.2299855">
  <ele>1582.99</ele>
  <time>2026-09-02T20:50:49Z</time>
  <course>103.04</course>
  <speed>1.035857133006285</speed>
  <fix>3d</fix>
</trkpt>
<trkpt lat="40.0710066" lon="-105.2299867">
  <ele>1582.99</ele>
  <time>2026-09-02T20:50:49Z</time>
  <course>104.04</course>
  <speed>1.04</speed>
  <fix>3d</fix>
</trkpt>
<trkpt lat="40.0710062" lon="-105.2299843">
  <ele>1582.99</ele>
  <time>2026-09-02T20:50:49Z</time>
  <course>102.09</course>
  <speed>1.0218121158021176</speed>
  <fix>3d</fix>
</trkpt>
<trkpt lat="40.0710066" lon="-105.2299867">
  <ele>1582.99</ele>
  <time>2026-09-02T20:50:49Z</time>
  <course>104.04</course>
  <speed>1.04</speed>
  <fix>3d</fix>
</trkpt>
<trkpt lat="40.0710059" lon="-105.2299833">
  <ele>1582.99</ele>
  <time>2026-09-02T20:50:49Z</time>
  <course>101.21</course>
  <speed>1.0178899744078433</speed>
  <fix>3d</fix>
</trkpt>
<trkpt lat="40.0710062" lon="-105.2299844">
  <ele>1582.99</ele>
  <time>2026-09-02T20:50:49Z</time>
  <course>102.07</course>
  <speed>1.03</speed>
  <fix>3d</fix>
</trkpt>
<trkpt lat="40.0710057" lon="-105.2299821">
  <ele>1582.99</ele>
  <time>2026-09-02T20:50:49Z</time>
  <course>100.39</course>
  <speed>0.9946356116689167</speed>
  <fix>3d</fix>
</trkpt>
<trkpt lat="40.0710062" lon="-105.2299844">
  <ele>1582.99</ele>
  <time>2026-09-02T20:50:49Z</time>
  <course>102.07</course>
  <speed>1.03</speed>
  <fix>3d</fix>
</trkpt>
<trkpt lat="40.0710057" lon="-105.2299809">
  <ele>1582.99</ele>
  <time>2026-09-02T20:50:49Z</time>
  <course>99.63</course>
  <speed>1.002845950283492</speed>
  <fix>3d</fix>
</trkpt>
<trkpt lat="40.0710058" lon="-105.2299821">
  <ele>1582.99</ele>
  <time>2026-09-02T20:50:49Z</time>
  <course>100.36</course>
  <speed>1.01</speed>
  <fix>3d</fix>
</trkpt>
<trkpt lat="40.0710055" lon="-105.2299795">
  <ele>1582.99</ele>
  <time>2026-09-02T20:50:49Z</time>
  <course>98.8</course>
  <speed>0.9815294188153507</speed>
  <fix>3d</fix>
</trkpt>
<trkpt lat="40.0710058" lon="-105.2299821">
  <ele>1582.99</ele>
  <time>2026-09-02T20:50:49Z</time>
  <course>100.36</course>
  <speed>1.01</speed>
  <fix>3d</fix>
</trkpt>
<trkpt lat="40.0710054" lon="-105.2299783">
  <ele>1582.99</ele>
  <time>2026-09-02T20:50:49Z</time>
  <course>98.18</course>
  <speed>0.9998499887483122</speed>
  <fix>3d</fix>
</trkpt>
<trkpt lat="40.0710055" lon="-105.2299797">
  <ele>1582.99</ele>
  <time>2026-09-02T20:50:49Z</time>
  <course>98.9</course>
  <speed>1.0</speed>
  <fix>3d</fix>
</trkpt>
<trkpt lat="40.0710052" lon="-105.2299771">
  <ele>1582.99</ele>
  <time>2026-09-02T20:50:49Z</time>
  <course>97.61</course>
  <speed>0.9773944955850733</speed>
  <fix>3d</fix>
</trkpt>
<trkpt lat="40.0710055" lon="-105.2299797">
  <ele>1582.99</ele>
  <time>2026-09-02T20:50:49Z</time>
  <course>98.9</course>
  <speed>1.0</speed>
  <fix>3d</fix>
</trkpt>
<trkpt lat="40.0710051" lon="-105.2299761">
  <ele>1582.99</ele>
  <time>2026-09-02T20:50:49Z</time>
  <course>97.09</course>
  <speed>0.9873196037757986</speed>
  <fix>3d</fix>
</trkpt>
<trkpt lat="40.0710052" lon="-105.2299774">
  <ele>1582.99</ele>
  <time>2026-09-02T20:50:49Z</time>
  <course>97.68</course>
  <speed>0.99</speed>
  <fix>3d</fix>
</trkpt>
<trkpt lat="40.071005" lon="-105.2299749">
  <ele>1582.99</ele>
  <time>2026-09-02T20:50:49Z</time>
  <course>96.62</course>
  <speed>0.9762171889492625</speed>
  <fix>3d</fix>
</trkpt>
<trkpt lat="40.0710052" lon="-105.2299774">
  <ele>1582.99</ele>
  <time>2026-09-02T20:50:49Z</time>
  <course>97.68</course>
  <speed>0.99</speed>
  <fix>3d</fix>
</trkpt>
<trkpt lat="40.0710049" lon="-105.2299738">
  <ele>1582.99</ele>
  <time>2026-09-02T20:50:49Z</time>
  <course>96.21</course>
  <speed>0.9950376877284599</speed>
  <fix>3d</fix>
</trkpt>
<trkpt lat="40.071005" lon="-105.2299751">
  <ele>1582.99</ele>
  <time>2026-09-02T20:50:49Z</time>
  <course>96.67</course>
  <speed>0.99</speed>
  <fix>3d</fix>
</trkpt>
<trkpt lat="40.0710049" lon="-105.2299726">
  <ele>1582.99</ele>
  <time>2026-09-02T20:50:49Z</time>
  <course>95.84</course>
  <speed>0.9741663102366043</speed>
  <fix>3d</fix>
</trkpt>
<trkpt lat="40.071005" lon="-105.2299751">
  <ele>1582.99</ele>
  <time>2026-09-02T20:50:49Z</time>
  <course>96.67</course>
  <speed>0.99</speed>
  <fix>3d</fix>
</trkpt>
<trkpt lat="40.0710048" lon="-105.2299714">
  <ele>1582.99</ele>
  <time>2026-09-02T20:50:49Z</time>
  <course>95.52</course>
  <speed>0.9940824915468535</speed>
  <fix>3d</fix>
</trkpt>
<trkpt lat="40.0710049" lon="-105.2299728">
  <ele>1582.99</ele>
  <time>2026-09-02T20:50:49Z</time>
  <course>95.86</course>
  <speed>0.99</speed>
  <fix>3d</fix>
</trkpt>
<trkpt lat="40.0710046" lon="-105.2299702">
  <ele>1582.99</ele>
  <time>2026-09-02T20:50:49Z</time>
  <course>95.23</course>
  <speed>0.9732933781753578</speed>
  <fix>3d</fix>
</trkpt>
<trkpt lat="40.0710049" lon="-105.2299728">
  <ele>1582.99</ele>
  <time>2026-09-02T20:50:49Z</time>
  <course>95.86</course>
  <speed>0.99</speed>
  <fix>3d</fix>
</trkpt>
<trkpt lat="40.0710045" lon="-105.2299692">
  <ele>1582.99</ele>
  <time>2026-09-02T20:50:49Z</time>
  <course>94.98</course>
  <speed>0.9932270636667125</speed>
  <fix>3d</fix>
</trkpt>
<trkpt lat="40.0710046" lon="-105.2299705">
  <ele>1582.99</ele>
  <time>2026-09-02T20:50:49Z</time>
  <course>95.24</course>
  <speed>1.0</speed>
  <fix>3d</fix>
</trkpt>
<trkpt lat="40.0710045" lon="-105.229968">
  <ele>1582.99</ele>
  <time>2026-09-02T20:50:49Z</time>
  <course>94.77</course>
  <speed>0.9732933781753578</speed>
  <fix>3d</fix>
</trkpt>
<trkpt lat="40.0710046" lon="-105.2299705">
  <ele>1582.99</ele>
  <time>2026-09-02T20:50:49Z</time>
  <course>95.24</course>
  <speed>1.0</speed>
  <fix>3d</fix>
</trkpt>
<trkpt lat="40.0710045" lon="-105.2299671">
  <ele>1582.99</ele>
  <time>2026-09-02T20:50:49Z</time>
  <course>94.63</course>
  <speed>0.9924716620639604</speed>
  <fix>3d</fix>
</trkpt>
<trkpt lat="40.0710045" lon="-105.2299682">
  <ele>1582.99</ele>
  <time>2026-09-02T20:50:49Z</time>
  <course>94.77</course>
  <speed>1.0</speed>
  <fix>3d</fix>
</trkpt>
<trkpt lat="40.0710044" lon="-105.2299659">
  <ele>1582.99</ele>
  <time>2026-09-02T20:50:49Z</time>
  <course>94.48</course>
  <speed>0.9824968193332739</speed>
  <fix>3d</fix>
</trkpt>
<trkpt lat="40.0710045" lon="-105.2299682">
  <ele>1582.99</ele>
  <time>2026-09-02T20:50:49Z</time>
  <course>94.77</course>
  <speed>1.0</speed>
  <fix>3d</fix>
</trkpt>
<trkpt lat="40.0710043" lon="-105.2299647">
  <ele>1582.99</ele>
  <time>2026-09-02T20:50:49Z</time>
  <course>94.37</course>
  <speed>0.9924716620639604</speed>
  <fix>3d</fix>
</trkpt>
<trkpt lat="40.0710044" lon="-105.2299659">
  <ele>1582.99</ele>
  <time>2026-09-02T20:50:49Z</time>
  <course>94.44</course>
  <speed>1.0</speed>
  <fix>3d</fix>
</trkpt>
<trkpt lat="40.0710043" lon="-105.2299635">
  <ele>1582.99</ele>
  <time>2026-09-02T20:50:49Z</time>
  <course>94.29</course>
  <speed>0.9824968193332739</speed>
  <fix>3d</fix>
</trkpt>
<trkpt lat="40.0710044" lon="-105.2299659">
  <ele>1582.99</ele>
  <time>2026-09-02T20:50:49Z</time>
  <course>94.44</course>
  <speed>1.0</speed>
  <fix>3d</fix>
</trkpt>
<trkpt lat="40.0710042" lon="-105.2299623">
  <ele>1582.99</ele>
  <time>2026-09-02T20:50:49Z</time>
  <course>94.24</course>
  <speed>1.0024470060806208</speed>
  <fix>3d</fix>
</trkpt>
<trkpt lat="40.0710042" lon="-105.2299635">
  <ele>1582.99</ele>
  <time>2026-09-02T20:50:49Z</time>
  <course>94.25</course>
  <speed>1.0</speed>
  <fix>3d</fix>
</trkpt>
<trkpt lat="40.071004" lon="-105.2299611">
  <ele>1582.99</ele>
  <time>2026-09-02T20:50:49Z</time>
  <course>94.21</course>
  <speed>0.9824968193332739</speed>
  <fix>3d</fix>
</trkpt>
<trkpt lat="40.0710042" lon="-105.2299635">
  <ele>1582.99</ele>
  <time>2026-09-02T20:50:49Z</time>
  <course>94.25</course>
  <speed>1.0</speed>
  <fix>3d</fix>
</trkpt>
<trkpt lat="40.071004" lon="-105.2299601">
  <ele>1582.99</ele>
  <time>2026-09-02T20:50:49Z</time>
  <course>94.2</course>
  <speed>0.9924716620639604</speed>
  <fix>3d</fix>
</trkpt>
<trkpt lat="40.0710041" lon="-105.2299612">
  <ele>1582.99</ele>
  <time>2026-09-02T20:50:49Z</time>
  <course>94.16</course>
  <speed>1.0</speed>
  <fix>3d</fix>
</trkpt>
<trkpt lat="40.0710039" lon="-105.2299589">
  <ele>1582.99</ele>
  <time>2026-09-02T20:50:49Z</time>
  <course>94.21</course>
  <speed>0.9824968193332739</speed>
  <fix>3d</fix>
</trkpt>
<trkpt lat="40.0710041" lon="-105.2299612">
  <ele>1582.99</ele>
  <time>2026-09-02T20:50:49Z</time>
  <course>94.16</course>
  <speed>1.0</speed>
  <fix>3d</fix>
</trkpt>
<trkpt lat="40.0710039" lon="-105.2299577">
  <ele>1582.99</ele>
  <time>2026-09-02T20:50:49Z</time>
  <course>94.25</course>
  <speed>0.9924716620639604</speed>
  <fix>3d</fix>
</trkpt>
<trkpt lat="40.071004" lon="-105.2299589">
  <ele>1582.99</ele>
  <time>2026-09-02T20:50:49Z</time>
  <course>94.17</course>
  <speed>1.0</speed>
  <fix>3d</fix>
</trkpt>
<trkpt lat="40.0710039" lon="-105.2299563">
  <ele>1582.99</ele>
  <time>2026-09-02T20:50:49Z</time>
  <course>94.33</course>
  <speed>0.9824968193332739</speed>
  <fix>3d</fix>
</trkpt>
<trkpt lat="40.071004" lon="-105.2299589">
  <ele>1582.99</ele>
  <time>2026-09-02T20:50:49Z</time>
  <course>94.17</course>
  <speed>1.0</speed>
  <fix>3d</fix>
</trkpt>
<trkpt lat="40.0710038" lon="-105.2299551">
  <ele>1582.99</ele>
  <time>2026-09-02T20:50:49Z</time>
  <course>94.41</course>
  <speed>0.9924716620639604</speed>
  <fix>3d</fix>
</trkpt>
<trkpt lat="40.0710038" lon="-105.2299566">
  <ele>1582.99</ele>
  <time>2026-09-02T20:50:49Z</time>
  <course>94.26</course>
  <speed>0.99</speed>
  <fix>3d</fix>
</trkpt>
<trkpt lat="40.0710037" lon="-105.2299539">
  <ele>1582.99</ele>
  <time>2026-09-02T20:50:49Z</time>
  <course>94.51</course>
  <speed>0.9824968193332739</speed>
  <fix>3d</fix>
</trkpt>
<trkpt lat="40.0710038" lon="-105.2299566">
  <ele>1582.99</ele>
  <time>2026-09-02T20:50:49Z</time>
  <course>94.26</course>
  <speed>0.99</speed>
  <fix>3d</fix>
</trkpt>
<trkpt lat="40.0710037" lon="-105.2299529">
  <ele>1582.99</ele>
  <time>2026-09-02T20:50:49Z</time>
  <course>94.62</course>
  <speed>0.9924716620639604</speed>
  <fix>3d</fix>
</trkpt>
<trkpt lat="40.0710037" lon="-105.2299542">
  <ele>1582.99</ele>
  <time>2026-09-02T20:50:49Z</time>
  <course>94.44</course>
  <speed>0.99</speed>
  <fix>3d</fix>
</trkpt>
<trkpt lat="40.0710036" lon="-105.2299517">
  <ele>1582.99</ele>
  <time>2026-09-02T20:50:49Z</time>
  <course>94.75</course>
  <speed>0.9832598842625484</speed>
  <fix>3d</fix>
</trkpt>
<trkpt lat="40.0710037" lon="-105.2299542">
  <ele>1582.99</ele>
  <time>2026-09-02T20:50:49Z</time>
  <course>94.44</course>
  <speed>0.99</speed>
  <fix>3d</fix>
</trkpt>
<trkpt lat="40.0710034" lon="-105.2299505">
  <ele>1582.99</ele>
  <time>2026-09-02T20:50:49Z</time>
  <course>94.88</course>
  <speed>0.9932270636667125</speed>
  <fix>3d</fix>
</trkpt>
<trkpt lat="40.0710036" lon="-105.2299519">
  <ele>1582.99</ele>
  <time>2026-09-02T20:50:49Z</time>
  <course>94.67</course>
  <speed>1.0</speed>
  <fix>3d</fix>
</trkpt>
<trkpt lat="40.0710033" lon="-105.2299494">
  <ele>1582.99</ele>
  <time>2026-09-02T20:50:49Z</time>
  <course>95.03</course>
  <speed>0.9832598842625484</speed>
  <fix>3d</fix>
</trkpt>
<trkpt lat="40.0710036" lon="-105.2299519">
  <ele>1582.99</ele>
  <time>2026-09-02T20:50:49Z</time>
  <course>94.67</course>
  <speed>1.0</speed>
  <fix>3d</fix>
</trkpt>
<trkpt lat="40.0710033" lon="-105.2299482">
  <ele>1582.99</ele>
  <time>2026-09-02T20:50:49Z</time>
  <course>95.17</course>
  <speed>0.9932270636667125</speed>
  <fix>3d</fix>
</trkpt>
<trkpt lat="40.0710034" lon="-105.2299496">
  <ele>1582.99</ele>
  <time>2026-09-02T20:50:49Z</time>
  <course>94.95</course>
  <speed>0.99</speed>
  <fix>3d</fix>
</trkpt>
<trkpt lat="40.0710033" lon="-105.229947">
  <ele>1582.99</ele>
  <time>2026-09-02T20:50:49Z</time>
  <course>95.34</course>
  <speed>0.9841239759298622</speed>
  <fix>3d</fix>
</trkpt>
<trkpt lat="40.0710034" lon="-105.2299496">
  <ele>1582.99</ele>
  <time>2026-09-02T20:50:49Z</time>
  <course>94.95</course>
  <speed>0.99</speed>
  <fix>3d</fix>
</trkpt>
<trkpt lat="40.0710032" lon="-105.2299458">
  <ele>1582.99</ele>
  <time>2026-09-02T20:50:49Z</time>
  <course>95.51</course>
  <speed>0.9940824915468535</speed>
  <fix>3d</fix>
</trkpt>
<trkpt lat="40.0710033" lon="-105.2299472">
  <ele>1582.99</ele>
  <time>2026-09-02T20:50:49Z</time>
  <course>95.26</course>
  <speed>0.99</speed>
  <fix>3d</fix>
</trkpt>
<trkpt lat="40.0710031" lon="-105.2299446">
  <ele>1582.99</ele>
  <time>2026-09-02T20:50:49Z</time>
  <course>95.69</course>
  <speed>0.9841239759298622</speed>
  <fix>3d</fix>
</trkpt>
<trkpt lat="40.0710033" lon="-105.2299472">
  <ele>1582.99</ele>
  <time>2026-09-02T20:50:49Z</time>
  <course>95.26</course>
  <speed>0.99</speed>
  <fix>3d</fix>
</trkpt>
<trkpt lat="40.071003" lon="-105.2299436">
  <ele>1582.99</ele>
  <time>2026-09-02T20:50:49Z</time>
  <course>95.88</course>
  <speed>0.9950376877284599</speed>
  <fix>3d</fix>
</trkpt>
<trkpt lat="40.0710031" lon="-105.2299449">
  <ele>1582.99</ele>
  <time>2026-09-02T20:50:49Z</time>
  <course>95.61</course>
  <speed>0.99</speed>
  <fix>3d</fix>
</trkpt>
<trkpt lat="40.0710028" lon="-105.2299426">
  <ele>1582.99</ele>
  <time>2026-09-02T20:50:49Z</time>
  <course>96.03</course>
  <speed>0.9850888284819801</speed>
  <fix>3d</fix>
</trkpt>
<trkpt lat="40.0710031" lon="-105.2299449">
  <ele>1582.99</ele>
  <time>2026-09-02T20:50:49Z</time>
  <course>95.61</course>
  <speed>0.99</speed>
  <fix>3d</fix>
</trkpt>
<trkpt lat="40.0710028" lon="-105.2299415">
  <ele>1582.99</ele>
  <time>2026-09-02T20:50:49Z</time>
  <course>96.22</course>
  <speed>0.9950376877284599</speed>
  <fix>3d</fix>
</trkpt>
<trkpt lat="40.0710029" lon="-105.2299426">
  <ele>1582.99</ele>
  <time>2026-09-02T20:50:49Z</time>
  <course>95.98</course>
  <speed>0.99</speed>
  <fix>3d</fix>
</trkpt>
<trkpt lat="40.0710027" lon="-105.2299403">
  <ele>1582.99</ele>
  <time>2026-09-02T20:50:49Z</time>
  <course>96.41</course>
  <speed>0.9850888284819801</speed>
  <fix>3d</fix>
</trkpt>
<trkpt lat="40.0710029" lon="-105.2299426">
  <ele>1582.99</ele>
  <time>2026-09-02T20:50:49Z</time>
  <course>95.98</course>
  <speed>0.99</speed>
  <fix>3d</fix>
</trkpt>
<trkpt lat="40.0710027" lon="-105.2299391">
  <ele>1582.99</ele>
  <time>2026-09-02T20:50:49Z</time>
  <course>96.6</course>
  <speed>0.9960923651951158</speed>
  <fix>3d</fix>
</trkpt>
<trkpt lat="40.0710028" lon="-105.2299403">
  <ele>1582.99</ele>
  <time>2026-09-02T20:50:49Z</time>
  <course>96.36</course>
  <speed>0.99</speed>
  <fix>3d</fix>
</trkpt>
<trkpt lat="40.0710025" lon="-105.2299379">
  <ele>1582.99</ele>
  <time>2026-09-02T20:50:49Z</time>
  <course>96.8</course>
  <speed>0.986154146165801</speed>
  <fix>3d</fix>
</trkpt>
<trkpt lat="40.0710028" lon="-105.2299403">
  <ele>1582.99</ele>
  <time>2026-09-02T20:50:49Z</time>
  <course>96.36</course>
  <speed>0.99</speed>
  <fix>3d</fix>
</trkpt>
<trkpt lat="40.0710024" lon="-105.2299367">
  <ele>1582.99</ele>
  <time>2026-09-02T20:50:49Z</time>
  <course>97.0</course>
  <speed>0.9972462083156798</speed>
  <fix>3d</fix>
</trkpt>
<trkpt lat="40.0710025" lon="-105.2299379">
  <ele>1582.99</ele>
  <time>2026-09-02T20:50:49Z</time>
  <course>96.75</course>
  <speed>0.99</speed>
  <fix>3d</fix>
</trkpt>
<trkpt lat="40.0710022" lon="-105.2299357">
  <ele>1582.99</ele>
  <time>2026-09-02T20:50:49Z</time>
  <course>97.21</course>
  <speed>0.9873196037757986</speed>
  <fix>3d</fix>
</trkpt>
<trkpt lat="40.0710025" lon="-105.2299379">
  <ele>1582.99</ele>
  <time>2026-09-02T20:50:49Z</time>
  <course>96.75</course>
  <speed>0.99</speed>
  <fix>3d</fix>
</trkpt>
<trkpt lat="40.0710021" lon="-105.2299345">
  <ele>1582.99</ele>
  <time>2026-09-02T20:50:49Z</time>
  <course>97.4</course>
  <speed>0.9873196037757986</speed>
  <fix>3d</fix>
</trkpt>
<trkpt lat="40.0710022" lon="-105.2299356">
  <ele>1582.99</ele>
  <time>2026-09-02T20:50:49Z</time>
  <course>97.15</course>
  <speed>0.99</speed>
  <fix>3d</fix>
</trkpt>
<trkpt lat="40.0710021" lon="-105.2299333">
  <ele>1582.99</ele>
  <time>2026-09-02T20:50:49Z</time>
  <course>97.59</course>
  <speed>0.9885848471426213</speed>
  <fix>3d</fix>
</trkpt>
<trkpt lat="40.0710022" lon="-105.2299356">
  <ele>1582.99</ele>
  <time>2026-09-02T20:50:49Z</time>
  <course>97.15</course>
  <speed>0.99</speed>
  <fix>3d</fix>
</trkpt>
<trkpt lat="40.071002" lon="-105.2299319">
  <ele>1582.99</ele>
  <time>2026-09-02T20:50:49Z</time>
  <course>97.82</course>
  <speed>0.9984988733093293</speed>
  <fix>3d</fix>
</trkpt>
<trkpt lat="40.0710021" lon="-105.2299333">
  <ele>1582.99</ele>
  <time>2026-09-02T20:50:49Z</time>
  <course>97.54</course>
  <speed>0.99</speed>
  <fix>3d</fix>
</trkpt>
<trkpt lat="40.0710018" lon="-105.2299307">
  <ele>1582.99</ele>
  <time>2026-09-02T20:50:49Z</time>
  <course>98.15</course>
  <speed>0.9899494936611666</speed>
  <fix>3d</fix>
</trkpt>
<trkpt lat="40.0710021" lon="-105.2299333">
  <ele>1582.99</ele>
  <time>2026-09-02T20:50:49Z</time>
  <course>97.54</course>
  <speed>0.99</speed>
  <fix>3d</fix>
</trkpt>
<trkpt lat="40.0710016" lon="-105.2299295">
  <ele>1582.99</ele>
  <time>2026-09-02T20:50:49Z</time>
  <course>98.84</course>
  <speed>0.9914131328563285</speed>
  <fix>3d</fix>
</trkpt>
<trkpt lat="40.0710018" lon="-105.229931">
  <ele>1582.99</ele>
  <time>2026-09-02T20:50:49Z</time>
  <course>98.18</course>
  <speed>0.99</speed>
  <fix>3d</fix>
</trkpt>
<trkpt lat="40.0710015" lon="-105.2299285">
  <ele>1582.99</ele>
  <time>2026-09-02T20:50:49Z</time>
  <course>99.89</course>
  <speed>1.0044899203078146</speed>
  <fix>3d</fix>
</trkpt>
<trkpt lat="40.0710018" lon="-105.229931">
  <ele>1582.99</ele>
  <time>2026-09-02T20:50:49Z</time>
  <course>98.18</course>
  <speed>0.99</speed>
  <fix>3d</fix>
</trkpt>
<trkpt lat="40.0710014" lon="-105.2299273">
  <ele>1582.99</ele>
  <time>2026-09-02T20:50:49Z</time>
  <course>101.36</course>
  <speed>0.9884331034521254</speed>
  <fix>3d</fix>
</trkpt>
<trkpt lat="40.0710015" lon="-105.2299287">
  <ele>1582.99</ele>
  <time>2026-09-02T20:50:49Z</time>
  <course>99.82</course>
  <speed>0.99</speed>
  <fix>3d</fix>
</trkpt>
<trkpt lat="40.0710012" lon="-105.2299262">
  <ele>1582.99</ele>
  <time>2026-09-02T20:50:49Z</time>
  <course>103.29</course>
  <speed>0.9654014708917736</speed>
  <fix>3d</fix>
</trkpt>
<trkpt lat="40.0710015" lon="-105.2299287">
  <ele>1582.99</ele>
  <time>2026-09-02T20:50:49Z</time>
  <course>99.82</course>
  <speed>0.99</speed>
  <fix>3d</fix>
</trkpt>
<trkpt lat="40.0710009" lon="-105.229925">
  <ele>1582.99</ele>
  <time>2026-09-02T20:50:49Z</time>
  <course>105.74</course>
  <speed>0.9244457799135652</speed>
  <fix>3d</fix>
</trkpt>
<trkpt lat="40.0710012" lon="-105.2299264">
  <ele>1582.99</ele>
  <time>2026-09-02T20:50:49Z</time>
  <course>103.03</course>
  <speed>0.97</speed>
  <fix>3d</fix>
</trkpt>
<trkpt lat="40.0710008" lon="-105.229924">
  <ele>1582.99</ele>
  <time>2026-09-02T20:50:49Z</time>
  <course>108.8</course>
  <speed>0.8538149682454624</speed>
  <fix>3d</fix>
</trkpt>
<trkpt lat="40.0710012" lon="-105.2299264">
  <ele>1582.99</ele>
  <time>2026-09-02T20:50:49Z</time>
  <course>103.03</course>
  <speed>0.97</speed>
  <fix>3d</fix>
</trkpt>
<trkpt lat="40.0710004" lon="-105.2299232">
  <ele>1582.99</ele>
  <time>2026-09-02T20:50:49Z</time>
  <course>112.54</course>
  <speed>0.7892401408950256</speed>
  <fix>3d</fix>
</trkpt>
<trkpt lat="40.0710007" lon="-105.2299243">
  <ele>1582.99</ele>
  <time>2026-09-02T20:50:49Z</time>
  <course>108.22</course>
  <speed>0.87</speed>
  <fix>3d</fix>
</trkpt>
<trkpt lat="40.0710002" lon="-105.2299223">
  <ele>1582.99</ele>
  <time>2026-09-02T20:50:49Z</time>
  <course>117.04</course>
  <speed>0.6931810730249349</speed>
  <fix>3d</fix>
</trkpt>
<trkpt lat="40.0710007" lon="-105.2299243">
  <ele>1582.99</ele>
  <time>2026-09-02T20:50:49Z</time>
  <course>108.22</course>
  <speed>0.87</speed>
  <fix>3d</fix>
</trkpt>
<trkpt lat="40.0709998" lon="-105.2299216">
  <ele>1582.99</ele>
  <time>2026-09-02T20:50:49Z</time>
  <course>122.35</course>
  <speed>0.6243396511515187</speed>
  <fix>3d</fix>
</trkpt>
<trkpt lat="40.0710002" lon="-105.2299226">
  <ele>1582.99</ele>
  <time>2026-09-02T20:50:49Z</time>
  <course>115.94</course>
  <speed>0.72</speed>
  <fix>3d</fix>
</trkpt>
<trkpt lat="40.0709997" lon="-105.2299213">
  <ele>1582.99</ele>
  <time>2026-09-02T20:50:49Z</time>
  <course>127.11</course>
  <speed>0.55</speed>
  <fix>3d</fix>
</trkpt>
<trkpt lat="40.0710002" lon="-105.2299226">
  <ele>1582.99</ele>
  <time>2026-09-02T20:50:49Z</time>
  <course>115.94</course>
  <speed>0.72</speed>
  <fix>3d</fix>
</trkpt>
<trkpt lat="40.0709994" lon="-105.2299208">
  <ele>1582.99</ele>
  <time>2026-09-02T20:50:49Z</time>
  <course>133.11</course>
  <speed>0.5093132631298737</speed>
  <fix>3d</fix>
</trkpt>
<trkpt lat="40.0709997" lon="-105.2299213">
  <ele>1582.99</ele>
  <time>2026-09-02T20:50:49Z</time>
  <course>126.47</course>
  <speed>0.57</speed>
  <fix>3d</fix>
</trkpt>
<trkpt lat="40.0709991" lon="-105.2299204">
  <ele>1582.99</ele>
  <time>2026-09-02T20:50:49Z</time>
  <course>138.99</course>
  <speed>0.4675467891024384</speed>
  <fix>3d</fix>
</trkpt>
<trkpt lat="40.0709997" lon="-105.2299213">
  <ele>1582.99</ele>
  <time>2026-09-02T20:50:49Z</time>
  <course>126.47</course>
  <speed>0.57</speed>
  <fix>3d</fix>
</trkpt>
<trkpt lat="40.0709986" lon="-105.2299201">
  <ele>1582.99</ele>
  <time>2026-09-02T20:50:49Z</time>
  <course>144.71</course>
  <speed>0.494064773081425</speed>
  <fix>3d</fix>
</trkpt>
<trkpt lat="40.070999" lon="-105.2299204">
  <ele>1582.99</ele>
  <time>2026-09-02T20:50:49Z</time>
  <course>138.75</course>
  <speed>0.5</speed>
  <fix>3d</fix>
</trkpt>
<trkpt lat="40.0709983" lon="-105.2299197">
  <ele>1582.99</ele>
  <time>2026-09-02T20:50:49Z</time>
  <course>150.16</course>
  <speed>0.5283937925449163</speed>
  <fix>3d</fix>
</trkpt>
<trkpt lat="40.070999" lon="-105.2299204">
  <ele>1582.99</ele>
  <time>2026-09-02T20:50:49Z</time>
  <course>138.75</course>
  <speed>0.5</speed>
  <fix>3d</fix>
</trkpt>
<trkpt lat="40.0709978" lon="-105.2299194">
  <ele>1582.99</ele>
  <time>2026-09-02T20:50:49Z</time>
  <course>155.29</course>
  <speed>0.6174139616173252</speed>
  <fix>3d</fix>
</trkpt>
<trkpt lat="40.0709983" lon="-105.2299197">
  <ele>1582.99</ele>
  <time>2026-09-02T20:50:49Z</time>
  <course>150.5</course>
  <speed>0.56</speed>
  <fix>3d</fix>
</trkpt>
<trkpt lat="40.0709972" lon="-105.229919">
  <ele>1582.99</ele>
  <time>2026-09-02T20:50:49Z</time>
  <course>160.04</course>
  <speed>0.7022819946431775</speed>
  <fix>3d</fix>
</trkpt>
<trkpt lat="40.0709983" lon="-105.2299197">
  <ele>1582.99</ele>
  <time>2026-09-02T20:50:49Z</time>
  <course>150.5</course>
  <speed>0.56</speed>
  <fix>3d</fix>
</trkpt>
<trkpt lat="40.0709966" lon="-105.2299187">
  <ele>1582.99</ele>
  <time>2026-09-02T20:50:49Z</time>
  <course>164.38</course>
  <speed>0.8393449827097318</speed>
  <fix>3d</fix>
</trkpt>
<trkpt lat="40.0709972" lon="-105.229919">
  <ele>1582.99</ele>
  <time>2026-09-02T20:50:49Z</time>
  <course>160.46</course>
  <speed>0.73</speed>
  <fix>3d</fix>
</trkpt>
<trkpt lat="40.0709958" lon="-105.2299185">
  <ele>1582.99</ele>
  <time>2026-09-02T20:50:49Z</time>
  <course>168.25</course>
  <speed>0.9080198235721508</speed>
  <fix>3d</fix>
</trkpt>
<trkpt lat="40.0709972" lon="-105.229919">
  <ele>1582.99</ele>
  <time>2026-09-02T20:50:49Z</time>
  <course>160.46</course>
  <speed>0.73</speed>
  <fix>3d</fix>
</trkpt>
<trkpt lat="40.0709949" lon="-105.2299183">
  <ele>1582.99</ele>
  <time>2026-09-02T20:50:49Z</time>
  <course>171.63</course>
  <speed>0.9998499887483122</speed>
  <fix>3d</fix>
</trkpt>
<trkpt lat="40.0709958" lon="-105.2299185">
  <ele>1582.99</ele>
  <time>2026-09-02T20:50:49Z</time>
  <course>168.29</course>
  <speed>0.92</speed>
  <fix>3d</fix>
</trkpt>
<trkpt lat="40.0709939" lon="-105.2299182">
  <ele>1582.99</ele>
  <time>2026-09-02T20:50:49Z</time>
  <course>175.08</course>
  <speed>1.0331021246711285</speed>
  <fix>3d</fix>
</trkpt>
<trkpt lat="40.0709958" lon="-105.2299185">
  <ele>1582.99</ele>
  <time>2026-09-02T20:50:49Z</time>
  <course>168.29</course>
  <speed>0.92</speed>
  <fix>3d</fix>
</trkpt>
<trkpt lat="40.0709929" lon="-105.229918">
  <ele>1582.99</ele>
  <time>2026-09-02T20:50:49Z</time>
  <course>177.43</course>
  <speed>1.111125555461668</speed>
  <fix>3d</fix>
</trkpt>
<trkpt lat="40.070994" lon="-105.2299183">
  <ele>1582.99</ele>
  <time>2026-09-02T20:50:49Z</time>
  <course>174.42</course>
  <speed>1.05</speed>
  <fix>3d</fix>
</trkpt>
<trkpt lat="40.0709918" lon="-105.229918">
  <ele>1582.99</ele>
  <time>2026-09-02T20:50:49Z</time>
  <course>179.48</course>
  <speed>1.0900458705944442</speed>
  <fix>3d</fix>
</trkpt>
<trkpt lat="40.070994" lon="-105.2299183">
  <ele>1582.99</ele>
  <time>2026-09-02T20:50:49Z</time>
  <course>174.42</course>
  <speed>1.05</speed>
  <fix>3d</fix>
</trkpt>
<trkpt lat="40.0709909" lon="-105.229918">
  <ele>1583.0</ele>
  <time>2026-09-02T20:50:49Z</time>
  <course>181.45</course>
  <speed>1.140175425099138</speed>
  <fix>3d</fix>
</trkpt>
<trkpt lat="40.0709921" lon="-105.2299181">
  <ele>1582.99</ele>
  <time>2026-09-02T20:50:49Z</time>
  <course>179.04</course>
  <speed>1.11</speed>
  <fix>3d</fix>
</trkpt>
<trkpt lat="40.0709899" lon="-105.2299182">
  <ele>1583.0</ele>
  <time>2026-09-02T20:50:49Z</time>
  <course>183.31</course>
  <speed>1.1016351483136329</speed>
  <fix>3d</fix>
</trkpt>
<trkpt lat="40.0709921" lon="-105.2299181">
  <ele>1582.99</ele>
  <time>2026-09-02T20:50:49Z</time>
  <course>179.04</course>
  <speed>1.11</speed>
  <fix>3d</fix>
</trkpt>
<trkpt lat="40.0709888" lon="-105.2299182">
  <ele>1582.99</ele>
  <time>2026-09-02T20:50:49Z</time>
  <course>185.05</course>
  <speed>1.1236102527122116</speed>
  <fix>3d</fix>
</trkpt>
<trkpt lat="40.0709901" lon="-105.2299181">
  <ele>1582.99</ele>
  <time>2026-09-02T20:50:49Z</time>
  <course>182.87</course>
  <speed>1.12</speed>
  <fix>3d</fix>
</trkpt>
<trkpt lat="40.0709879" lon="-105.2299183">
  <ele>1582.99</ele>
  <time>2026-09-02T20:50:49Z</time>
  <course>186.69</course>
  <speed>1.0767079455451232</speed>
  <fix>3d</fix>
</trkpt>
<trkpt lat="40.0709901" lon="-105.2299181">
  <ele>1582.99</ele>
  <time>2026-09-02T20:50:49Z</time>
  <course>182.87</course>
  <speed>1.12</speed>
  <fix>3d</fix>
</trkpt>
<trkpt lat="40.0709869" lon="-105.2299185">
  <ele>1582.99</ele>
  <time>2026-09-02T20:50:49Z</time>
  <course>188.24</course>
  <speed>1.0804628637764464</speed>
  <fix>3d</fix>
</trkpt>
<trkpt lat="40.070988" lon="-105.2299183">
  <ele>1582.99</ele>
  <time>2026-09-02T20:50:49Z</time>
  <course>186.3</course>
  <speed>1.1</speed>
  <fix>3d</fix>
</trkpt>
<trkpt lat="40.070986" lon="-105.2299187">
  <ele>1582.99</ele>
  <time>2026-09-02T20:50:49Z</time>
  <course>189.68</course>
  <speed>1.0340696301506973</speed>
  <fix>3d</fix>
</trkpt>
<trkpt lat="40.070988" lon="-105.2299183">
  <ele>1582.99</ele>
  <time>2026-09-02T20:50:49Z</time>
  <course>186.3</course>
  <speed>1.1</speed>
  <fix>3d</fix>
</trkpt>
<trkpt lat="40.0709851" lon="-105.2299189">
  <ele>1582.99</ele>
  <time>2026-09-02T20:50:49Z</time>
  <course>191.03</course>
  <speed>1.0394229168149025</speed>
  <fix>3d</fix>
</trkpt>
<trkpt lat="40.0709861" lon="-105.2299185">
  <ele>1582.99</ele>
  <time>2026-09-02T20:50:49Z</time>
  <course>189.33</course>
  <speed>1.06</speed>
  <fix>3d</fix>
</trkpt>
<trkpt lat="40.0709842" lon="-105.229919">
  <ele>1582.99</ele>
  <time>2026-09-02T20:50:49Z</time>
  <course>192.28</course>
  <speed>1.0022474744293448</speed>
  <fix>3d</fix>
</trkpt>
<trkpt lat="40.0709861" lon="-105.2299185">
  <ele>1582.99</ele>
  <time>2026-09-02T20:50:49Z</time>
  <course>189.33</course>
  <speed>1.06</speed>
  <fix>3d</fix>
</trkpt>
<trkpt lat="40.0709834" lon="-105.2299192">
  <ele>1582.99</ele>
  <time>2026-09-02T20:50:49Z</time>
  <course>193.22</course>
  <speed>1.006628034578811</speed>
  <fix>3d</fix>
</trkpt>
<trkpt lat="40.0709844" lon="-105.229919">
  <ele>1582.99</ele>
  <time>2026-09-02T20:50:49Z</time>
  <course>191.98</course>
  <speed>1.03</speed>
  <fix>3d</fix>
</trkpt>
<trkpt lat="40.0709826" lon="-105.2299196">
  <ele>1582.99</ele>
  <time>2026-09-02T20:50:49Z</time>
  <course>194.32</course>
  <speed>0.9798469268207153</speed>
  <fix>3d</fix>
</trkpt>
<trkpt lat="40.0709844" lon="-105.229919">
  <ele>1582.99</ele>
  <time>2026-09-02T20:50:49Z</time>
  <course>191.98</course>
  <speed>1.03</speed>
  <fix>3d</fix>
</trkpt>
<trkpt lat="40.0709818" lon="-105.2299199">
  <ele>1582.99</ele>
  <time>2026-09-02T20:50:49Z</time>
  <course>195.31</course>
  <speed>0.9849365461794989</speed>
  <fix>3d</fix>
</trkpt>
<trkpt lat="40.0709826" lon="-105.2299195">
  <ele>1582.99</ele>
  <time>2026-09-02T20:50:49Z</time>
  <course>194.25</course>
  <speed>1.0</speed>
  <fix>3d</fix>
</trkpt>
<trkpt lat="40.0709808" lon="-105.2299202">
  <ele>1582.99</ele>
  <time>2026-09-02T20:50:49Z</time>
  <course>196.24</course>
  <speed>0.9684007434941384</speed>
  <fix>3d</fix>
</trkpt>
<trkpt lat="40.0709826" lon="-105.2299195">
  <ele>1582.99</ele>
  <time>2026-09-02T20:50:49Z</time>
  <course>194.25</course>
  <speed>1.0</speed>
  <fix>3d</fix>
</trkpt>
<trkpt lat="40.0709801" lon="-105.2299204">
  <ele>1582.99</ele>
  <time>2026-09-02T20:50:49Z</time>
  <course>197.08</course>
  <speed>0.9712363255150623</speed>
  <fix>3d</fix>
</trkpt>
<trkpt lat="40.0709809" lon="-105.2299202">
  <ele>1582.99</ele>
  <time>2026-09-02T20:50:49Z</time>
  <course>196.19</course>
  <speed>0.98</speed>
  <fix>3d</fix>
</trkpt>
<trkpt lat="40.0709791" lon="-105.2299209">
  <ele>1583.0</ele>
  <time>2026-09-02T20:50:49Z</time>
  <course>197.85</course>
  <speed>0.9646242791885347</speed>
  <fix>3d</fix>
</trkpt>
<trkpt lat="40.0709809" lon="-105.2299202">
  <ele>1582.99</ele>
  <time>2026-09-02T20:50:49Z</time>
  <course>196.19</course>
  <speed>0.98</speed>
  <fix>3d</fix>
</trkpt>
<trkpt lat="40.0709784" lon="-105.2299211">
  <ele>1582.99</ele>
  <time>2026-09-02T20:50:49Z</time>
  <course>198.54</course>
  <speed>0.97082439194738</speed>
  <fix>3d</fix>
</trkpt>
<trkpt lat="40.0709792" lon="-105.2299208">
  <ele>1582.99</ele>
  <time>2026-09-02T20:50:49Z</time>
  <course>197.82</course>
  <speed>0.97</speed>
  <fix>3d</fix>
</trkpt>
<trkpt lat="40.0709776" lon="-105.2299216">
  <ele>1582.99</ele>
  <time>2026-09-02T20:50:49Z</time>
  <course>199.17</course>
  <speed>0.9613532129243653</speed>
  <fix>3d</fix>
</trkpt>
<trkpt lat="40.0709792" lon="-105.2299208">
  <ele>1582.99</ele>
  <time>2026-09-02T20:50:49Z</time>
  <course>197.82</course>
  <speed>0.97</speed>
  <fix>3d</fix>
</trkpt>
<trkpt lat="40.0709767" lon="-105.229922">
  <ele>1582.99</ele>
  <time>2026-09-02T20:50:49Z</time>
  <course>199.72</course>
  <speed>0.9773944955850733</speed>
  <fix>3d</fix>
</trkpt>
<trkpt lat="40.0709776" lon="-105.2299216">
  <ele>1582.99</ele>
  <time>2026-09-02T20:50:49Z</time>
  <course>199.14</course>
  <speed>0.97</speed>
  <fix>3d</fix>
</trkpt>
<trkpt lat="40.0709759" lon="-105.2299223">
  <ele>1582.99</ele>
  <time>2026-09-02T20:50:49Z</time>
  <course>200.21</course>
  <speed>0.9679876032264049</speed>
  <fix>3d</fix>
</trkpt>
<trkpt lat="40.0709776" lon="-105.2299216">
  <ele>1582.99</ele>
  <time>2026-09-02T20:50:49Z</time>
  <course>199.14</course>
  <speed>0.97</speed>
  <fix>3d</fix>
</trkpt>
<trkpt lat="40.0709748" lon="-105.2299228">
  <ele>1582.99</ele>
  <time>2026-09-02T20:50:49Z</time>
  <course>200.73</course>
  <speed>0.9843271813782245</speed>
  <fix>3d</fix>
</trkpt>
<trkpt lat="40.0709759" lon="-105.2299223">
  <ele>1582.99</ele>
  <time>2026-09-02T20:50:49Z</time>
  <course>200.19</course>
  <speed>0.98</speed>
  <fix>3d</fix>
</trkpt>
<trkpt lat="40.0709741" lon="-105.2299233">
  <ele>1582.99</ele>
  <time>2026-09-02T20:50:49Z</time>
  <course>201.1</course>
  <speed>0.9749871794028884</speed>
  <fix>3d</fix>
</trkpt>
<trkpt lat="40.0709759" lon="-105.2299223">
  <ele>1582.99</ele>
  <time>2026-09-02T20:50:49Z</time>
  <course>200.19</course>
  <speed>0.98</speed>
  <fix>3d</fix>
</trkpt>
<trkpt lat="40.0709733" lon="-105.2299237">
  <ele>1582.99</ele>
  <time>2026-09-02T20:50:49Z</time>
  <course>201.41</course>
  <speed>0.9879271228182774</speed>
  <fix>3d</fix>
</trkpt>
<trkpt lat="40.0709742" lon="-105.2299232">
  <ele>1582.99</ele>
  <time>2026-09-02T20:50:49Z</time>
  <course>201.01</course>
  <speed>0.98</speed>
  <fix>3d</fix>
</trkpt>
<trkpt lat="40.0709724" lon="-105.229924">
  <ele>1582.99</ele>
  <time>2026-09-02T20:50:49Z</time>
  <course>201.68</course>
  <speed>0.9786214794290998</speed>
  <fix>3d</fix>
</trkpt>
<trkpt lat="40.0709742" lon="-105.2299232">
  <ele>1582.99</ele>
  <time>2026-09-02T20:50:49Z</time>
  <course>201.01</course>
  <speed>0.98</speed>
  <fix>3d</fix>
</trkpt>
<trkpt lat="40.0709716" lon="-105.2299245">
  <ele>1582.99</ele>
  <time>2026-09-02T20:50:49Z</time>
  <course>201.9</course>
  <speed>0.9916148445843276</speed>
  <fix>3d</fix>
</trkpt>
<trkpt lat="40.0709726" lon="-105.229924">
  <ele>1582.99</ele>
  <time>2026-09-02T20:50:49Z</time>
  <course>201.61</course>
  <speed>0.99</speed>
  <fix>3d</fix>
</trkpt>
<trkpt lat="40.0709708" lon="-105.229925">
  <ele>1582.99</ele>
  <time>2026-09-02T20:50:49Z</time>
  <course>202.07</course>
  <speed>0.982344135219425</speed>
  <fix>3d</fix>
</trkpt>
<trkpt lat="40.0709726" lon="-105.229924">
  <ele>1582.99</ele>
  <time>2026-09-02T20:50:49Z</time>
  <course>201.61</course>
  <speed>0.99</speed>
  <fix>3d</fix>
</trkpt>
<trkpt lat="40.0709699" lon="-105.2299254">
  <ele>1582.99</ele>
  <time>2026-09-02T20:50:49Z</time>
  <course>202.2</course>
  <speed>0.982344135219425</speed>
  <fix>3d</fix>
</trkpt>
<trkpt lat="40.0709709" lon="-105.2299249">
  <ele>1582.99</ele>
  <time>2026-09-02T20:50:49Z</time>
  <course>202.03</course>
  <speed>0.99</speed>
  <fix>3d</fix>
</trkpt>
<trkpt lat="40.0709692" lon="-105.2299259">
  <ele>1582.99</ele>
  <time>2026-09-02T20:50:49Z</time>
  <course>202.29</course>
  <speed>0.982344135219425</speed>
  <fix>3d</fix>
</trkpt>
<trkpt lat="40.0709709" lon="-105.2299249">
  <ele>1582.99</ele>
  <time>2026-09-02T20:50:49Z</time>
  <course>202.03</course>
  <speed>0.99</speed>
  <fix>3d</fix>
</trkpt>
<trkpt lat="40.0709682" lon="-105.2299262">
  <ele>1582.99</ele>
  <time>2026-09-02T20:50:49Z</time>
  <course>202.34</course>
  <speed>0.982344135219425</speed>
  <fix>3d</fix>
</trkpt>
<trkpt lat="40.0709693" lon="-105.2299257">
  <ele>1582.99</ele>
  <time>2026-09-02T20:50:49Z</time>
  <course>202.27</course>
  <speed>0.99</speed>
  <fix>3d</fix>
</trkpt>
<trkpt lat="40.0709674" lon="-105.2299268">
  <ele>1582.99</ele>
  <time>2026-09-02T20:50:49Z</time>
  <course>202.37</course>
  <speed>0.982344135219425</speed>
  <fix>3d</fix>
</trkpt>
<trkpt lat="40.0709693" lon="-105.2299257">
  <ele>1582.99</ele>
  <time>2026-09-02T20:50:49Z</time>
  <course>202.27</course>
  <speed>0.99</speed>
  <fix>3d</fix>
</trkpt>
<trkpt lat="40.0709667" lon="-105.2299271">
  <ele>1582.99</ele>
  <time>2026-09-02T20:50:49Z</time>
  <course>202.35</course>
  <speed>0.982344135219425</speed>
  <fix>3d</fix>
</trkpt>
<trkpt lat="40.0709676" lon="-105.2299266">
  <ele>1582.99</ele>
  <time>2026-09-02T20:50:49Z</time>
  <course>202.36</course>
  <speed>0.99</speed>
  <fix>3d</fix>
</trkpt>
<trkpt lat="40.070966" lon="-105.2299276">
  <ele>1582.99</ele>
  <time>2026-09-02T20:50:49Z</time>
  <course>202.32</course>
  <speed>0.982344135219425</speed>
  <fix>3d</fix>
</trkpt>
<trkpt lat="40.0709676" lon="-105.2299266">
  <ele>1582.99</ele>
  <time>2026-09-02T20:50:49Z</time>
  <course>202.36</course>
  <speed>0.99</speed>
  <fix>3d</fix>
</trkpt>
<trkpt lat="40.0709651" lon="-105.229928">
  <ele>1582.99</ele>
  <time>2026-09-02T20:50:49Z</time>
  <course>202.25</course>
  <speed>0.982344135219425</speed>
  <fix>3d</fix>
</trkpt>
<trkpt lat="40.070966" lon="-105.2299275">
  <ele>1582.99</ele>
  <time>2026-09-02T20:50:49Z</time>
  <course>202.31</course>
  <speed>0.98</speed>
  <fix>3d</fix>
</trkpt>
<trkpt lat="40.0709644" lon="-105.2299283">
  <ele>1582.99</ele>
  <time>2026-09-02T20:50:49Z</time>
  <course>202.16</course>
  <speed>0.982344135219425</speed>
  <fix>3d</fix>
</trkpt>
<trkpt lat="40.070966" lon="-105.2299275">
  <ele>1582.99</ele>
  <time>2026-09-02T20:50:49Z</time>
  <course>202.31</course>
  <speed>0.98</speed>
  <fix>3d</fix>
</trkpt>
<trkpt lat="40.0709636" lon="-105.2299288">
  <ele>1582.99</ele>
  <time>2026-09-02T20:50:49Z</time>
  <course>202.04</course>
  <speed>0.9786214794290998</speed>
  <fix>3d</fix>
</trkpt>
<trkpt lat="40.0709643" lon="-105.2299284">
  <ele>1582.99</ele>
  <time>2026-09-02T20:50:49Z</time>
  <course>202.16</course>
  <speed>0.98</speed>
  <fix>3d</fix>
</trkpt>
<trkpt lat="40.0709626" lon="-105.2299293">
  <ele>1582.99</ele>
  <time>2026-09-02T20:50:49Z</time>
  <course>201.91</course>
  <speed>0.9916148445843276</speed>
  <fix>3d</fix>
</trkpt>
<trkpt lat="40.0709643" lon="-105.2299284">
  <ele>1582.99</ele>
  <time>2026-09-02T20:50:49Z</time>
  <course>202.16</course>
  <speed>0.98</speed>
  <fix>3d</fix>
</trkpt>
<trkpt lat="40.0709619" lon="-105.2299297">
  <ele>1582.99</ele>
  <time>2026-09-02T20:50:49Z</time>
  <course>201.75</course>
  <speed>0.9786214794290998</speed>
  <fix>3d</fix>
</trkpt>
<trkpt lat="40.0709627" lon="-105.2299293">
  <ele>1582.99</ele>
  <time>2026-09-02T20:50:49Z</time>
  <course>201.91</course>
  <speed>0.98</speed>
  <fix>3d</fix>
</trkpt>
<trkpt lat="40.0709611" lon="-105.2299302">
  <ele>1582.99</ele>
  <time>2026-09-02T20:50:49Z</time>
  <course>201.58</course>
  <speed>0.9879271228182774</speed>
  <fix>3d</fix>
</trkpt>
<trkpt lat="40.0709627" lon="-105.2299293">
  <ele>1582.99</ele>
  <time>2026-09-02T20:50:49Z</time>
  <course>201.91</course>
  <speed>0.98</speed>
  <fix>3d</fix>
</trkpt>
<trkpt lat="40.0709602" lon="-105.2299305">
  <ele>1582.99</ele>
  <time>2026-09-02T20:50:49Z</time>
  <course>201.39</course>
  <speed>0.9749871794028884</speed>
  <fix>3d</fix>
</trkpt>
<trkpt lat="40.0709611" lon="-105.2299301">
  <ele>1582.99</ele>
  <time>2026-09-02T20:50:49Z</time>
  <course>201.58</course>
  <speed>0.98</speed>
  <fix>3d</fix>
</trkpt>
<trkpt lat="40.0709594" lon="-105.2299309">
  <ele>1582.99</ele>
  <time>2026-09-02T20:50:49Z</time>
  <course>201.19</course>
  <speed>0.9843271813782245</speed>
  <fix>3d</fix>
</trkpt>
<trkpt lat="40.0709611" lon="-105.2299301">
  <ele>1582.99</ele>
  <time>2026-09-02T20:50:49Z</time>
  <course>201.58</course>
  <speed>0.98</speed>
  <fix>3d</fix>
</trkpt>
<trkpt lat="40.0709586" lon="-105.2299314">
  <ele>1582.99</ele>
  <time>2026-09-02T20:50:49Z</time>
  <course>200.97</course>
  <speed>0.9749871794028884</speed>
  <fix>3d</fix>
</trkpt>
<trkpt lat="40.0709594" lon="-105.2299309">
  <ele>1582.99</ele>
  <time>2026-09-02T20:50:49Z</time>
  <course>201.18</course>
  <speed>0.98</speed>
  <fix>3d</fix>
</trkpt>
<trkpt lat="40.0709576" lon="-105.2299319">
  <ele>1582.99</ele>
  <time>2026-09-02T20:50:49Z</time>
  <course>200.7</course>
  <speed>0.9936800289831733</speed>
  <fix>3d</fix>
</trkpt>
<trkpt lat="40.0709594" lon="-105.2299309">
  <ele>1582.99</ele>
  <time>2026-09-02T20:50:49Z</time>
  <course>201.18</course>
  <speed>0.98</speed>
  <fix>3d</fix>
</trkpt>
<trkpt lat="40.0709568" lon="-105.2299323">
  <ele>1582.99</ele>
  <time>2026-09-02T20:50:49Z</time>
  <course>200.45</course>
  <speed>0.9808159868191383</speed>
  <fix>3d</fix>
</trkpt>
<trkpt lat="40.0709577" lon="-105.2299318">
  <ele>1582.99</ele>
  <time>2026-09-02T20:50:49Z</time>
  <course>200.74</course>
  <speed>0.98</speed>
  <fix>3d</fix>
</trkpt>
<trkpt lat="40.0709559" lon="-105.2299326">
  <ele>1582.99</ele>
  <time>2026-09-02T20:50:49Z</time>
  <course>200.21</course>
  <speed>0.9902019995940222</speed>
  <fix>3d</fix>
</trkpt>
<trkpt lat="40.0709577" lon="-105.2299318">
  <ele>1582.99</ele>
  <time>2026-09-02T20:50:49Z</time>
  <course>200.74</course>
  <speed>0.98</speed>
  <fix>3d</fix>
</trkpt>
<trkpt lat="40.0709551" lon="-105.2299331">
  <ele>1582.99</ele>
  <time>2026-09-02T20:50:49Z</time>
  <course>199.96</course>
  <speed>0.9773944955850733</speed>
  <fix>3d</fix>
</trkpt>
<trkpt lat="40.0709561" lon="-105.2299327">
  <ele>1582.99</ele>
  <time>2026-09-02T20:50:49Z</time>
  <course>200.26</course>
  <speed>0.98</speed>
  <fix>3d</fix>
</trkpt>
<trkpt lat="40.0709542" lon="-105.2299335">
  <ele>1582.99</ele>
  <time>2026-09-02T20:50:49Z</time>
  <course>199.7</course>
  <speed>0.9868130522039117</speed>
  <fix>3d</fix>
</trkpt>
<trkpt lat="40.0709561" lon="-105.2299327">
  <ele>1582.99</ele>
  <time>2026-09-02T20:50:49Z</time>
  <course>200.26</course>
  <speed>0.98</speed>
  <fix>3d</fix>
</trkpt>
<trkpt lat="40.0709534" lon="-105.2299338">
  <ele>1582.99</ele>
  <time>2026-09-02T20:50:49Z</time>
  <course>199.44</course>
  <speed>0.9835141076771599</speed>
  <fix>3d</fix>
</trkpt>
<trkpt lat="40.0709544" lon="-105.2299334">
  <ele>1582.99</ele>
  <time>2026-09-02T20:50:49Z</time>
  <course>199.75</course>
  <speed>0.98</speed>
  <fix>3d</fix>
</trkpt>
<trkpt lat="40.0709526" lon="-105.2299343">
  <ele>1582.99</ele>
  <time>2026-09-02T20:50:49Z</time>
  <course>199.17</course>
  <speed>0.9929753269845127</speed>
  <fix>3d</fix>
</trkpt>
<trkpt lat="40.0709544" lon="-105.2299334">
  <ele>1582.99</ele>
  <time>2026-09-02T20:50:49Z</time>
  <course>199.75</course>
  <speed>0.98</speed>
  <fix>3d</fix>
</trkpt>
<trkpt lat="40.0709516" lon="-105.2299347">
  <ele>1582.99</ele>
  <time>2026-09-02T20:50:49Z</time>
  <course>198.9</course>
  <speed>0.9803060746521975</speed>
  <fix>3d</fix>
</trkpt>
<trkpt lat="40.0709527" lon="-105.2299342">
  <ele>1582.99</ele>
  <time>2026-09-02T20:50:49Z</time>
  <course>199.22</course>
  <speed>0.98</speed>
  <fix>3d</fix>
</trkpt>
<trkpt lat="40.0709509" lon="-105.229935">
  <ele>1582.99</ele>
  <time>2026-09-02T20:50:49Z</time>
  <course>198.63</course>
  <speed>0.9897979591815695</speed>
  <fix>3d</fix>
</trkpt>
<trkpt lat="40.0709527" lon="-105.2299342">
  <ele>1582.99</ele>
  <time>2026-09-02T20:50:49Z</time>
  <course>199.22</course>
  <speed>0.98</speed>
  <fix>3d</fix>
</trkpt>
<trkpt lat="40.0709501" lon="-105.2299354">
  <ele>1582.99</ele>
  <time>2026-09-02T20:50:49Z</time>
  <course>198.36</course>
  <speed>0.9803060746521975</speed>
  <fix>3d</fix>
</trkpt>
<trkpt lat="40.070951" lon="-105.229935">
  <ele>1582.99</ele>
  <time>2026-09-02T20:50:49Z</time>
  <course>198.68</course>
  <speed>0.98</speed>
  <fix>3d</fix>
</trkpt>
<trkpt lat="40.0709492" lon="-105.2299357">
  <ele>1582.99</ele>
  <time>2026-09-02T20:50:49Z</time>
  <course>198.09</course>
  <speed>0.9992997548283498</speed>
  <fix>3d</fix>
</trkpt>
<trkpt lat="40.070951" lon="-105.229935">
  <ele>1582.99</ele>
  <time>2026-09-02T20:50:49Z</time>
  <course>198.68</course>
  <speed>0.98</speed>
  <fix>3d</fix>
</trkpt>
<trkpt lat="40.0709485" lon="-105.229936">
  <ele>1582.99</ele>
  <time>2026-09-02T20:50:49Z</time>
  <course>197.87</course>
  <speed>0.9867117106835208</speed>
  <fix>3d</fix>
</trkpt>
<trkpt lat="40.0709493" lon="-105.2299357">
  <ele>1582.99</ele>
  <time>2026-09-02T20:50:49Z</time>
  <course>198.14</course>
  <speed>0.99</speed>
  <fix>3d</fix>
</trkpt>
<trkpt lat="40.0709477" lon="-105.2299364">
  <ele>1582.99</ele>
  <time>2026-09-02T20:50:49Z</time>
  <course>197.6</course>
  <speed>0.9962429422585637</speed>
  <fix>3d</fix>
</trkpt>
<trkpt lat="40.0709493" lon="-105.2299357">
  <ele>1582.99</ele>
  <time>2026-09-02T20:50:49Z</time>
  <course>198.14</course>
  <speed>0.99</speed>
  <fix>3d</fix>
</trkpt>
<trkpt lat="40.0709468" lon="-105.2299367">
  <ele>1582.99</ele>
  <time>2026-09-02T20:50:49Z</time>
  <course>197.33</course>
  <speed>0.9837174391053561</speed>
  <fix>3d</fix>
</trkpt>
<trkpt lat="40.0709476" lon="-105.2299364">
  <ele>1582.99</ele>
  <time>2026-09-02T20:50:49Z</time>
  <course>197.59</course>
  <speed>0.99</speed>
  <fix>3d</fix>
</trkpt>
<trkpt lat="40.070946" lon="-105.2299371">
  <ele>1582.99</ele>
  <time>2026-09-02T20:50:49Z</time>
  <course>197.07</course>
  <speed>0.9932774033471213</speed>
  <fix>3d</fix>
</trkpt>
<trkpt lat="40.0709476" lon="-105.2299364">
  <ele>1582.99</ele>
  <time>2026-09-02T20:50:49Z</time>
  <course>197.59</course>
  <speed>0.99</speed>
  <fix>3d</fix>
</trkpt>
<trkpt lat="40.070945" lon="-105.2299374">
  <ele>1582.99</ele>
  <time>2026-09-02T20:50:49Z</time>
  <course>196.81</course>
  <speed>0.9904039579888603</speed>
  <fix>3d</fix>
</trkpt>
<trkpt lat="40.0709459" lon="-105.2299371">
  <ele>1582.99</ele>
  <time>2026-09-02T20:50:49Z</time>
  <course>197.06</course>
  <speed>0.99</speed>
  <fix>3d</fix>
</trkpt>
<trkpt lat="40.0709443" lon="-105.2299378">
  <ele>1582.99</ele>
  <time>2026-09-02T20:50:49Z</time>
  <course>196.56</course>
  <speed>0.9904039579888603</speed>
  <fix>3d</fix>
</trkpt>
<trkpt lat="40.0709459" lon="-105.2299371">
  <ele>1582.99</ele>
  <time>2026-09-02T20:50:49Z</time>
  <course>197.06</course>
  <speed>0.99</speed>
  <fix>3d</fix>
</trkpt>
<trkpt lat="40.0709434" lon="-105.2299381">
  <ele>1582.99</ele>
  <time>2026-09-02T20:50:50Z</time>
  <course>196.31</course>
  <speed>0.9904039579888603</speed>
  <fix>3d</fix>
</trkpt>
<trkpt lat="40.0709442" lon="-105.2299378">
  <ele>1582.99</ele>
  <time>2026-09-02T20:50:50Z</time>
  <course>196.55</course>
  <speed>0.99</speed>
  <fix>3d</fix>
</trkpt>
<trkpt lat="40.0709425" lon="-105.2299384">
  <ele>1582.99</ele>
  <time>2026-09-02T20:50:50Z</time>
  <course>196.06</course>
  <speed>0.9876234100101111</speed>
  <fix>3d</fix>
</trkpt>
<trkpt lat="40.0709442" lon="-105.2299378">
  <ele>1582.99</ele>
  <time>2026-09-02T20:50:50Z</time>
  <course>196.55</course>
  <speed>0.99</speed>
  <fix>3d</fix>
</trkpt>
<trkpt lat="40.0709417" lon="-105.2299388">
  <ele>1582.99</ele>
  <time>2026-09-02T20:50:50Z</time>
  <course>195.82</course>
  <speed>0.9876234100101111</speed>
  <fix>3d</fix>
</trkpt>
<trkpt lat="40.0709425" lon="-105.2299385">
  <ele>1582.99</ele>
  <time>2026-09-02T20:50:50Z</time>
  <course>196.06</course>
  <speed>0.99</speed>
  <fix>3d</fix>
</trkpt>
<trkpt lat="40.0709407" lon="-105.2299391">
  <ele>1582.99</ele>
  <time>2026-09-02T20:50:50Z</time>
  <course>195.59</course>
  <speed>0.9945853407325085</speed>
  <fix>3d</fix>
</trkpt>
<trkpt lat="40.0709425" lon="-105.2299385">
  <ele>1582.99</ele>
  <time>2026-09-02T20:50:50Z</time>
  <course>196.06</course>
  <speed>0.99</speed>
  <fix>3d</fix>
</trkpt>
<trkpt lat="40.0709398" lon="-105.2299395">
  <ele>1582.99</ele>
  <time>2026-09-02T20:50:50Z</time>
  <course>195.32</course>
  <speed>0.9945853407325085</speed>
  <fix>3d</fix>
</trkpt>
<trkpt lat="40.0709408" lon="-105.2299391">
  <ele>1582.99</ele>
  <time>2026-09-02T20:50:50Z</time>
  <course>195.58</course>
  <speed>0.99</speed>
  <fix>3d</fix>
</trkpt>
<trkpt lat="40.0709389" lon="-105.2299398">
  <ele>1582.99</ele>
  <time>2026-09-02T20:50:50Z</time>
  <course>195.1</course>
  <speed>0.9920181449953424</speed>
  <fix>3d</fix>
</trkpt>
<trkpt lat="40.0709408" lon="-105.2299391">
  <ele>1582.99</ele>
  <time>2026-09-02T20:50:50Z</time>
  <course>195.58</course>
  <speed>0.99</speed>
  <fix>3d</fix>
</trkpt>
<trkpt lat="40.070938" lon="-105.22994">
  <ele>1582.99</ele>
  <time>2026-09-02T20:50:50Z</time>
  <course>194.89</course>
  <speed>0.9920181449953424</speed>
  <fix>3d</fix>
</trkpt>
<trkpt lat="40.070939" lon="-105.2299396">
  <ele>1582.99</ele>
  <time>2026-09-02T20:50:50Z</time>
  <course>195.14</course>
  <speed>0.99</speed>
  <fix>3d</fix>
</trkpt>
<trkpt lat="40.0709371" lon="-105.2299403">
  <ele>1582.99</ele>
  <time>2026-09-02T20:50:50Z</time>
  <course>194.68</course>
  <speed>0.9920181449953424</speed>
  <fix>3d</fix>
</trkpt>
<trkpt lat="40.070939" lon="-105.2299396">
  <ele>1582.99</ele>
  <time>2026-09-02T20:50:50Z</time>
  <course>195.14</course>
  <speed>0.99</speed>
  <fix>3d</fix>
</trkpt>
<trkpt lat="40.0709363" lon="-105.2299407">
  <ele>1582.99</ele>
  <time>2026-09-02T20:50:50Z</time>
  <course>194.48</course>
  <speed>0.9895453501482385</speed>
  <fix>3d</fix>
</trkpt>
<trkpt lat="40.0709373" lon="-105.2299403">
  <ele>1582.99</ele>
  <time>2026-09-02T20:50:50Z</time>
  <course>194.71</course>
  <speed>1.0</speed>
  <fix>3d</fix>
</trkpt>
<trkpt lat="40.0709353" lon="-105.229941">
  <ele>1582.99</ele>
  <time>2026-09-02T20:50:50Z</time>
  <course>194.29</course>
  <speed>0.9895453501482385</speed>
  <fix>3d</fix>
</trkpt>
<trkpt lat="40.0709373" lon="-105.2299403">
  <ele>1582.99</ele>
  <time>2026-09-02T20:50:50Z</time>
  <course>194.71</course>
  <speed>1.0</speed>
  <fix>3d</fix>
</trkpt>
<trkpt lat="40.0709346" lon="-105.2299412">
  <ele>1582.99</ele>
  <time>2026-09-02T20:50:50Z</time>
  <course>194.1</course>
  <speed>0.9895453501482385</speed>
  <fix>3d</fix>
</trkpt>
<trkpt lat="40.0709356" lon="-105.2299409">
  <ele>1582.99</ele>
  <time>2026-09-02T20:50:50Z</time>
  <course>194.32</course>
  <speed>1.0</speed>
  <fix>3d</fix>
</trkpt>
<trkpt lat="40.0709337" lon="-105.2299415">
  <ele>1582.99</ele>
  <time>2026-09-02T20:50:50Z</time>
  <course>193.92</course>
  <speed>0.9992497185388645</speed>
  <fix>3d</fix>
</trkpt>
<trkpt lat="40.0709356" lon="-105.2299409">
  <ele>1582.99</ele>
  <time>2026-09-02T20:50:50Z</time>
  <course>194.32</course>
  <speed>1.0</speed>
  <fix>3d</fix>
</trkpt>
<trkpt lat="40.0709328" lon="-105.2299417">
  <ele>1582.99</ele>
  <time>2026-09-02T20:50:50Z</time>
  <course>193.76</course>
  <speed>0.9871676655968833</speed>
  <fix>3d</fix>
</trkpt>
<trkpt lat="40.0709338" lon="-105.2299415">
  <ele>1582.99</ele>
  <time>2026-09-02T20:50:50Z</time>
  <course>193.95</course>
  <speed>1.0</speed>
  <fix>3d</fix>
</trkpt>
<trkpt lat="40.070932" lon="-105.229942">
  <ele>1582.99</ele>
  <time>2026-09-02T20:50:50Z</time>
  <course>193.6</course>
  <speed>0.9968951800465282</speed>
  <fix>3d</fix>
</trkpt>
<trkpt lat="40.0709338" lon="-105.2299415">
  <ele>1582.99</ele>
  <time>2026-09-02T20:50:50Z</time>
  <course>193.95</course>
  <speed>1.0</speed>
  <fix>3d</fix>
</trkpt>
<trkpt lat="40.070931" lon="-105.2299424">
  <ele>1582.99</ele>
  <time>2026-09-02T20:50:50Z</time>
  <course>193.44</course>
  <speed>0.9968951800465282</speed>
  <fix>3d</fix>
</trkpt>
<trkpt lat="40.0709321" lon="-105.229942">
  <ele>1582.99</ele>
  <time>2026-09-02T20:50:50Z</time>
  <course>193.61</course>
  <speed>1.0</speed>
  <fix>3d</fix>
</trkpt>
<trkpt lat="40.0709304" lon="-105.2299426">
  <ele>1582.99</ele>
  <time>2026-09-02T20:50:50Z</time>
  <course>193.32</course>
  <speed>0.9848857801796105</speed>
  <fix>3d</fix>
</trkpt>
<trkpt lat="40.0709321" lon="-105.229942">
  <ele>1582.99</ele>
  <time>2026-09-02T20:50:50Z</time>
  <course>193.61</course>
  <speed>1.0</speed>
  <fix>3d</fix>
</trkpt>
<trkpt lat="40.0709295" lon="-105.2299429">
  <ele>1582.99</ele>
  <time>2026-09-02T20:50:50Z</time>
  <course>193.18</course>
  <speed>0.9946356116689167</speed>
  <fix>3d</fix>
</trkpt>
<trkpt lat="40.0709303" lon="-105.2299425">
  <ele>1582.99</ele>
  <time>2026-09-02T20:50:50Z</time>
  <course>193.31</course>
  <speed>1.0</speed>
  <fix>3d</fix>
</trkpt>
<trkpt lat="40.0709285" lon="-105.2299431">
  <ele>1582.99</ele>
  <time>2026-09-02T20:50:50Z</time>
  <course>193.05</course>
  <speed>0.9848857801796105</speed>
  <fix>3d</fix>
</trkpt>
<trkpt lat="40.0709303" lon="-105.2299425">
  <ele>1582.99</ele>
  <time>2026-09-02T20:50:50Z</time>
  <course>193.31</course>
  <speed>1.0</speed>
  <fix>3d</fix>
</trkpt>
<trkpt lat="40.0709278" lon="-105.2299434">
  <ele>1582.99</ele>
  <time>2026-09-02T20:50:50Z</time>
  <course>192.93</course>
  <speed>0.9946356116689167</speed>
  <fix>3d</fix>
</trkpt>
<trkpt lat="40.0709286" lon="-105.2299431">
  <ele>1582.99</ele>
  <time>2026-09-02T20:50:50Z</time>
  <course>193.04</course>
  <speed>1.0</speed>
  <fix>3d</fix>
</trkpt>
<trkpt lat="40.0709268" lon="-105.2299436">
  <ele>1582.99</ele>
  <time>2026-09-02T20:50:50Z</time>
  <course>192.8</course>
  <speed>0.982700361249552</speed>
  <fix>3d</fix>
</trkpt>
<trkpt lat="40.0709286" lon="-105.2299431">
  <ele>1582.99</ele>
  <time>2026-09-02T20:50:50Z</time>
  <course>193.04</course>
  <speed>1.0</speed>
  <fix>3d</fix>
</trkpt>
<trkpt lat="40.070926" lon="-105.2299439">
  <ele>1582.99</ele>
  <time>2026-09-02T20:50:50Z</time>
  <course>192.69</course>
  <speed>1.0043903623591774</speed>
  <fix>3d</fix>
</trkpt>
<trkpt lat="40.0709269" lon="-105.2299436">
  <ele>1582.99</ele>
  <time>2026-09-02T20:50:50Z</time>
  <course>192.79</course>
  <speed>1.0</speed>
  <fix>3d</fix>
</trkpt>
<trkpt lat="40.070925" lon="-105.2299441">
  <ele>1582.99</ele>
  <time>2026-09-02T20:50:50Z</time>
  <course>192.58</course>
  <speed>0.9924716620639604</speed>
  <fix>3d</fix>
</trkpt>
<trkpt lat="40.0709269" lon="-105.2299436">
  <ele>1582.99</ele>
  <time>2026-09-02T20:50:50Z</time>
  <course>192.79</course>
  <speed>1.0</speed>
  <fix>3d</fix>
</trkpt>
<trkpt lat="40.0709243" lon="-105.2299443">
  <ele>1582.99</ele>
  <time>2026-09-02T20:50:50Z</time>
  <course>192.48</course>
  <speed>0.9924716620639604</speed>
  <fix>3d</fix>
</trkpt>
<trkpt lat="40.0709251" lon="-105.2299441">
  <ele>1582.99</ele>
  <time>2026-09-02T20:50:50Z</time>
  <course>192.57</course>
  <speed>1.0</speed>
  <fix>3d</fix>
</trkpt>
<trkpt lat="40.0709234" lon="-105.2299446">
  <ele>1582.99</ele>
  <time>2026-09-02T20:50:50Z</time>
  <course>192.39</course>
  <speed>0.9924716620639604</speed>
  <fix>3d</fix>
</trkpt>
<trkpt lat="40.0709251" lon="-105.2299441">
  <ele>1582.99</ele>
  <time>2026-09-02T20:50:50Z</time>
  <course>192.57</course>
  <speed>1.0</speed>
  <fix>3d</fix>
</trkpt>
<trkpt lat="40.0709223" lon="-105.229945">
  <ele>1582.99</ele>
  <time>2026-09-02T20:50:50Z</time>
  <course>192.3</course>
  <speed>0.9924716620639604</speed>
  <fix>3d</fix>
</trkpt>
<trkpt lat="40.0709234" lon="-105.2299446">
  <ele>1582.99</ele>
  <time>2026-09-02T20:50:50Z</time>
  <course>192.38</course>
  <speed>1.0</speed>
  <fix>3d</fix>
</trkpt>
<trkpt lat="40.0709215" lon="-105.2299451">
  <ele>1582.99</ele>
  <time>2026-09-02T20:50:50Z</time>
  <course>192.22</course>
  <speed>0.9924716620639604</speed>
  <fix>3d</fix>
</trkpt>
<trkpt lat="40.0709234" lon="-105.2299446">
  <ele>1582.99</ele>
  <time>2026-09-02T20:50:50Z</time>
  <course>192.38</course>
  <speed>1.0</speed>
  <fix>3d</fix>
</trkpt>
<trkpt lat="40.0709206" lon="-105.2299455">
  <ele>1582.99</ele>
  <time>2026-09-02T20:50:50Z</time>
  <course>192.15</course>
  <speed>0.9924716620639604</speed>
  <fix>3d</fix>
</trkpt>
<trkpt lat="40.0709215" lon="-105.2299451">
  <ele>1582.99</ele>
  <time>2026-09-02T20:50:50Z</time>
  <course>192.22</course>
  <speed>1.0</speed>
  <fix>3d</fix>
</trkpt>
<trkpt lat="40.0709197" lon="-105.2299457">
  <ele>1582.99</ele>
  <time>2026-09-02T20:50:50Z</time>
  <course>192.08</course>
  <speed>0.9904039579888603</speed>
  <fix>3d</fix>
</trkpt>
<trkpt lat="40.0709215" lon="-105.2299451">
  <ele>1582.99</ele>
  <time>2026-09-02T20:50:50Z</time>
  <course>192.22</course>
  <speed>1.0</speed>
  <fix>3d</fix>
</trkpt>
<trkpt lat="40.0709188" lon="-105.229946">
  <ele>1582.99</ele>
  <time>2026-09-02T20:50:50Z</time>
  <course>192.02</course>
  <speed>0.9904039579888603</speed>
  <fix>3d</fix>
</trkpt>
<trkpt lat="40.0709198" lon="-105.2299456">
  <ele>1582.99</ele>
  <time>2026-09-02T20:50:50Z</time>
  <course>192.08</course>
  <speed>1.0</speed>
  <fix>3d</fix>
</trkpt>
<trkpt lat="40.0709179" lon="-105.2299462">
  <ele>1582.99</ele>
  <time>2026-09-02T20:50:50Z</time>
  <course>191.97</course>
  <speed>1.000199980003999</speed>
  <fix>3d</fix>
</trkpt>
<trkpt lat="40.0709198" lon="-105.2299456">
  <ele>1582.99</ele>
  <time>2026-09-02T20:50:50Z</time>
  <course>192.08</course>
  <speed>1.0</speed>
  <fix>3d</fix>
</trkpt>
<trkpt lat="40.070917" lon="-105.2299465">
  <ele>1582.99</ele>
  <time>2026-09-02T20:50:50Z</time>
  <course>191.92</course>
  <speed>0.9904039579888603</speed>
  <fix>3d</fix>
</trkpt>
<trkpt lat="40.0709181" lon="-105.2299461">
  <ele>1582.99</ele>
  <time>2026-09-02T20:50:50Z</time>
  <course>191.96</course>
  <speed>1.0</speed>
  <fix>3d</fix>
</trkpt>
<trkpt lat="40.0709162" lon="-105.2299467">
  <ele>1582.99</ele>
  <time>2026-09-02T20:50:50Z</time>
  <course>191.87</course>
  <speed>0.9904039579888603</speed>
  <fix>3d</fix>
</trkpt>
<trkpt lat="40.0709181" lon="-105.2299461">
  <ele>1582.99</ele>
  <time>2026-09-02T20:50:50Z</time>
  <course>191.96</course>
  <speed>1.0</speed>
  <fix>3d</fix>
</trkpt>
<trkpt lat="40.0709152" lon="-105.2299469">
  <ele>1582.99</ele>
  <time>2026-09-02T20:50:50Z</time>
  <course>191.84</course>
  <speed>0.9904039579888603</speed>
  <fix>3d</fix>
</trkpt>
<trkpt lat="40.0709163" lon="-105.2299466">
  <ele>1582.99</ele>
  <time>2026-09-02T20:50:50Z</time>
  <course>191.87</course>
  <speed>1.0</speed>
  <fix>3d</fix>
</trkpt>
<trkpt lat="40.0709144" lon="-105.2299472">
  <ele>1583.0</ele>
  <time>2026-09-02T20:50:50Z</time>
  <course>191.8</course>
  <speed>1.000199980003999</speed>
  <fix>3d</fix>
</trkpt>
<trkpt lat="40.0709163" lon="-105.2299466">
  <ele>1582.99</ele>
  <time>2026-09-02T20:50:50Z</time>
  <course>191.87</course>
  <speed>1.0</speed>
  <fix>3d</fix>
</trkpt>
<trkpt lat="40.0709134" lon="-105.2299474">
  <ele>1582.99</ele>
  <time>2026-09-02T20:50:50Z</time>
  <course>191.78</course>
  <speed>0.9904039579888603</speed>
  <fix>3d</fix>
</trkpt>
<trkpt lat="40.0709145" lon="-105.2299471">
  <ele>1582.99</ele>
  <time>2026-09-02T20:50:50Z</time>
  <course>191.79</course>
  <speed>0.99</speed>
  <fix>3d</fix>
</trkpt>
<trkpt lat="40.0709127" lon="-105.2299477">
  <ele>1582.99</ele>
  <time>2026-09-02T20:50:50Z</time>
  <course>191.75</course>
  <speed>1.000199980003999</speed>
  <fix>3d</fix>
</trkpt>
<trkpt lat="40.0709145" lon="-105.2299471">
  <ele>1582.99</ele>
  <time>2026-09-02T20:50:50Z</time>
  <course>191.79</course>
  <speed>0.99</speed>
  <fix>3d</fix>
</trkpt>
<trkpt lat="40.070912" lon="-105.2299479">
  <ele>1582.99</ele>
  <time>2026-09-02T20:50:50Z</time>
  <course>191.74</course>
  <speed>0.9904039579888603</speed>
  <fix>3d</fix>
</trkpt>
<trkpt lat="40.0709128" lon="-105.2299476">
  <ele>1582.99</ele>
  <time>2026-09-02T20:50:50Z</time>
  <course>191.74</course>
  <speed>0.99</speed>
  <fix>3d</fix>
</trkpt>
<trkpt lat="40.070911" lon="-105.2299481">
  <ele>1582.99</ele>
  <time>2026-09-02T20:50:50Z</time>
  <course>191.72</course>
  <speed>1.000199980003999</speed>
  <fix>3d</fix>
</trkpt>
<trkpt lat="40.0709128" lon="-105.2299476">
  <ele>1582.99</ele>
  <time>2026-09-02T20:50:50Z</time>
  <course>191.74</course>
  <speed>0.99</speed>
  <fix>3d</fix>
</trkpt>
<trkpt lat="40.0709102" lon="-105.2299482">
  <ele>1582.99</ele>
  <time>2026-09-02T20:50:50Z</time>
  <course>191.59</course>
  <speed>0.9904039579888603</speed>
  <fix>3d</fix>
</trkpt>
<trkpt lat="40.0709111" lon="-105.2299481">
  <ele>1582.99</ele>
  <time>2026-09-02T20:50:50Z</time>
  <course>191.64</course>
  <speed>0.99</speed>
  <fix>3d</fix>
</trkpt>
<trkpt lat="40.0709092" lon="-105.2299486">
  <ele>1582.99</ele>
  <time>2026-09-02T20:50:50Z</time>
  <course>191.1</course>
  <speed>0.9982484660644363</speed>
  <fix>3d</fix>
</trkpt>
<trkpt lat="40.0709111" lon="-105.2299481">
  <ele>1582.99</ele>
  <time>2026-09-02T20:50:50Z</time>
  <course>191.64</course>
  <speed>0.99</speed>
  <fix>3d</fix>
</trkpt>
<trkpt lat="40.0709084" lon="-105.2299487">
  <ele>1582.99</ele>
  <time>2026-09-02T20:50:50Z</time>
  <course>190.28</course>
  <speed>0.9946356116689167</speed>
  <fix>3d</fix>
</trkpt>
<trkpt lat="40.0709092" lon="-105.2299485">
  <ele>1582.99</ele>
  <time>2026-09-02T20:50:50Z</time>
  <course>190.91</course>
  <speed>0.99</speed>
  <fix>3d</fix>
</trkpt>
<trkpt lat="40.0709076" lon="-105.2299489">
  <ele>1583.0</ele>
  <time>2026-09-02T20:50:50Z</time>
  <course>189.08</course>
  <speed>0.9914131328563285</speed>
  <fix>3d</fix>
</trkpt>
<trkpt lat="40.0709092" lon="-105.2299485">
  <ele>1582.99</ele>
  <time>2026-09-02T20:50:50Z</time>
  <course>190.91</course>
  <speed>0.99</speed>
  <fix>3d</fix>
</trkpt>
<trkpt lat="40.0709066" lon="-105.2299491">
  <ele>1583.0</ele>
  <time>2026-09-02T20:50:50Z</time>
  <course>187.49</course>
  <speed>1.0084145972763385</speed>
  <fix>3d</fix>
</trkpt>
<trkpt lat="40.0709075" lon="-105.2299489">
  <ele>1582.99</ele>
  <time>2026-09-02T20:50:50Z</time>
  <course>188.84</course>
  <speed>1.0</speed>
  <fix>3d</fix>
</trkpt>
<trkpt lat="40.0709058" lon="-105.2299493">
  <ele>1582.99</ele>
  <time>2026-09-02T20:50:50Z</time>
  <course>185.46</course>
  <speed>0.9940824915468535</speed>
  <fix>3d</fix>
</trkpt>
<trkpt lat="40.0709075" lon="-105.2299489">
  <ele>1582.99</ele>
  <time>2026-09-02T20:50:50Z</time>
  <course>188.84</course>
  <speed>1.0</speed>
  <fix>3d</fix>
</trkpt>
<trkpt lat="40.0709048" lon="-105.2299494">
  <ele>1582.99</ele>
  <time>2026-09-02T20:50:50Z</time>
  <course>182.96</course>
  <speed>0.97082439194738</speed>
  <fix>3d</fix>
</trkpt>
<trkpt lat="40.0709057" lon="-105.2299492">
  <ele>1582.99</ele>
  <time>2026-09-02T20:50:50Z</time>
  <course>185.21</course>
  <speed>0.99</speed>
  <fix>3d</fix>
</trkpt>
<trkpt lat="40.0709037" lon="-105.2299494">
  <ele>1582.99</ele>
  <time>2026-09-02T20:50:50Z</time>
  <course>179.27</course>
  <speed>0.9300537618869137</speed>
  <fix>3d</fix>
</trkpt>
<trkpt lat="40.0709057" lon="-105.2299492">
  <ele>1582.99</ele>
  <time>2026-09-02T20:50:50Z</time>
  <course>185.21</course>
  <speed>0.99</speed>
  <fix>3d</fix>
</trkpt>
<trkpt lat="40.070903" lon="-105.2299493">
  <ele>1582.99</ele>
  <time>2026-09-02T20:50:50Z</time>
  <course>175.61</course>
  <speed>0.9027181176868004</speed>
  <fix>3d</fix>
</trkpt>
<trkpt lat="40.070904" lon="-105.2299494">
  <ele>1582.99</ele>
  <time>2026-09-02T20:50:50Z</time>
  <course>179.71</course>
  <speed>0.94</speed>
  <fix>3d</fix>
</trkpt>
<trkpt lat="40.0709022" lon="-105.2299491">
  <ele>1582.99</ele>
  <time>2026-09-02T20:50:50Z</time>
  <course>171.41</course>
  <speed>0.8697700845625813</speed>
  <fix>3d</fix>
</trkpt>
<trkpt lat="40.070904" lon="-105.2299494">
  <ele>1582.99</ele>
  <time>2026-09-02T20:50:50Z</time>
  <course>179.71</course>
  <speed>0.94</speed>
  <fix>3d</fix>
</trkpt>
<trkpt lat="40.0709015" lon="-105.2299491">
  <ele>1582.99</ele>
  <time>2026-09-02T20:50:50Z</time>
  <course>167.02</course>
  <speed>0.8319855767980596</speed>
  <fix>3d</fix>
</trkpt>
<trkpt lat="40.0709023" lon="-105.2299492">
  <ele>1582.99</ele>
  <time>2026-09-02T20:50:50Z</time>
  <course>172.21</course>
  <speed>0.87</speed>
  <fix>3d</fix>
</trkpt>
<trkpt lat="40.0709007" lon="-105.2299489">
  <ele>1582.99</ele>
  <time>2026-09-02T20:50:50Z</time>
  <course>162.74</course>
  <speed>0.8256512580987205</speed>
  <fix>3d</fix>
</trkpt>
<trkpt lat="40.0709023" lon="-105.2299492">
  <ele>1582.99</ele>
  <time>2026-09-02T20:50:50Z</time>
  <course>172.21</course>
  <speed>0.87</speed>
  <fix>3d</fix>
</trkpt>
<trkpt lat="40.0709" lon="-105.2299486">
  <ele>1582.99</ele>
  <time>2026-09-02T20:50:50Z</time>
  <course>158.68</course>
  <speed>0.8170679286326198</speed>
  <fix>3d</fix>
</trkpt>
<trkpt lat="40.0709009" lon="-105.2299488">
  <ele>1582.99</ele>
  <time>2026-09-02T20:50:50Z</time>
  <course>163.6</course>
  <speed>0.82</speed>
  <fix>3d</fix>
</trkpt>
<trkpt lat="40.0708993" lon="-105.2299482">
  <ele>1582.99</ele>
  <time>2026-09-02T20:50:50Z</time>
  <course>154.86</course>
  <speed>0.8276472678623424</speed>
  <fix>3d</fix>
</trkpt>
<trkpt lat="40.0709009" lon="-105.2299488">
  <ele>1582.99</ele>
  <time>2026-09-02T20:50:50Z</time>
  <course>163.6</course>
  <speed>0.82</speed>
  <fix>3d</fix>
</trkpt>
<trkpt lat="40.0708987" lon="-105.2299477">
  <ele>1582.99</ele>
  <time>2026-09-02T20:50:50Z</time>
  <course>151.33</course>
  <speed>0.8635392289873113</speed>
  <fix>3d</fix>
</trkpt>
<trkpt lat="40.0708994" lon="-105.2299482">
  <ele>1582.99</ele>
  <time>2026-09-02T20:50:50Z</time>
  <course>155.49</course>
  <speed>0.83</speed>
  <fix>3d</fix>
</trkpt>
<trkpt lat="40.070898" lon="-105.2299472">
  <ele>1582.99</ele>
  <time>2026-09-02T20:50:50Z</time>
  <course>148.13</course>
  <speed>0.9073588044428731</speed>
  <fix>3d</fix>
</trkpt>
<trkpt lat="40.0708994" lon="-105.2299482">
  <ele>1582.99</ele>
  <time>2026-09-02T20:50:50Z</time>
  <course>155.49</course>
  <speed>0.83</speed>
  <fix>3d</fix>
</trkpt>
<trkpt lat="40.0708973" lon="-105.2299465">
  <ele>1582.99</ele>
  <time>2026-09-02T20:50:50Z</time>
  <course>145.28</course>
  <speed>0.9404786015641186</speed>
  <fix>3d</fix>
</trkpt>
<trkpt lat="40.070898" lon="-105.2299472">
  <ele>1582.99</ele>
  <time>2026-09-02T20:50:50Z</time>
  <course>148.61</course>
  <speed>0.9</speed>
  <fix>3d</fix>
</trkpt>
<trkpt lat="40.0708966" lon="-105.2299458">
  <ele>1582.99</ele>
  <time>2026-09-02T20:50:50Z</time>
  <course>142.81</course>
  <speed>0.970051545022222</speed>
  <fix>3d</fix>
</trkpt>
<trkpt lat="40.070898" lon="-105.2299472">
  <ele>1582.99</ele>
  <time>2026-09-02T20:50:50Z</time>
  <course>148.61</course>
  <speed>0.9</speed>
  <fix>3d</fix>
</trkpt>
<trkpt lat="40.070896" lon="-105.2299453">
  <ele>1582.99</ele>
  <time>2026-09-02T20:50:50Z</time>
  <course>141.09</course>
  <speed>0.9885848471426213</speed>
  <fix>3d</fix>
</trkpt>
<trkpt lat="40.0708967" lon="-105.229946">
  <ele>1582.99</ele>
  <time>2026-09-02T20:50:50Z</time>
  <course>143.24</course>
  <speed>0.97</speed>
  <fix>3d</fix>
</trkpt>
<trkpt lat="40.0708952" lon="-105.2299446">
  <ele>1582.99</ele>
  <time>2026-09-02T20:50:50Z</time>
  <course>139.31</course>
  <speed>1.0065783625729297</speed>
  <fix>3d</fix>
</trkpt>
<trkpt lat="40.0708967" lon="-105.229946">
  <ele>1582.99</ele>
  <time>2026-09-02T20:50:50Z</time>
  <course>143.24</course>
  <speed>0.97</speed>
  <fix>3d</fix>
</trkpt>
<trkpt lat="40.0708946" lon="-105.2299438">
  <ele>1582.99</ele>
  <time>2026-09-02T20:50:50Z</time>
  <course>137.9</course>
  <speed>1.026498904042279</speed>
  <fix>3d</fix>
</trkpt>
<trkpt lat="40.0708953" lon="-105.2299445">
  <ele>1582.99</ele>
  <time>2026-09-02T20:50:50Z</time>
  <course>139.33</course>
  <speed>1.01</speed>
  <fix>3d</fix>
</trkpt>
<trkpt lat="40.0708939" lon="-105.2299429">
  <ele>1582.99</ele>
  <time>2026-09-02T20:50:50Z</time>
  <course>136.59</course>
  <speed>1.0255242561733973</speed>
  <fix>3d</fix>
</trkpt>
<trkpt lat="40.0708953" lon="-105.2299445">
  <ele>1582.99</ele>
  <time>2026-09-02T20:50:50Z</time>
  <course>139.33</course>
  <speed>1.01</speed>
  <fix>3d</fix>
</trkpt>
<trkpt lat="40.0708933" lon="-105.229942">
  <ele>1583.0</ele>
  <time>2026-09-02T20:50:50Z</time>
  <course>135.36</course>
  <speed>1.039471019317037</speed>
  <fix>3d</fix>
</trkpt>
<trkpt lat="40.0708939" lon="-105.2299429">
  <ele>1582.99</ele>
  <time>2026-09-02T20:50:50Z</time>
  <course>136.49</course>
  <speed>1.03</speed>
  <fix>3d</fix>
</trkpt>
<trkpt lat="40.0708926" lon="-105.2299412">
  <ele>1583.0</ele>
  <time>2026-09-02T20:50:50Z</time>
  <course>134.2</course>
  <speed>1.0324727599312247</speed>
  <fix>3d</fix>
</trkpt>
<trkpt lat="40.0708939" lon="-105.2299429">
  <ele>1582.99</ele>
  <time>2026-09-02T20:50:50Z</time>
  <course>136.49</course>
  <speed>1.03</speed>
  <fix>3d</fix>
</trkpt>
<trkpt lat="40.070892" lon="-105.2299403">
  <ele>1583.0</ele>
  <time>2026-09-02T20:50:50Z</time>
  <course>133.12</course>
  <speed>1.0259142264341596</speed>
  <fix>3d</fix>
</trkpt>
<trkpt lat="40.0708926" lon="-105.2299411">
  <ele>1583.0</ele>
  <time>2026-09-02T20:50:50Z</time>
  <course>134.11</course>
  <speed>1.04</speed>
  <fix>3d</fix>
</trkpt>
<trkpt lat="40.0708914" lon="-105.2299393">
  <ele>1582.99</ele>
  <time>2026-09-02T20:50:50Z</time>
  <course>132.11</course>
  <speed>1.026498904042279</speed>
  <fix>3d</fix>
</trkpt>
<trkpt lat="40.0708926" lon="-105.2299411">
  <ele>1583.0</ele>
  <time>2026-09-02T20:50:50Z</time>
  <course>134.11</course>
  <speed>1.04</speed>
  <fix>3d</fix>
</trkpt>
<trkpt lat="40.0708908" lon="-105.2299384">
  <ele>1582.99</ele>
  <time>2026-09-02T20:50:50Z</time>
  <course>131.17</course>
  <speed>1.0206860437960343</speed>
  <fix>3d</fix>
</trkpt>
<trkpt lat="40.0708914" lon="-105.2299393">
  <ele>1582.99</ele>
  <time>2026-09-02T20:50:50Z</time>
  <course>132.01</course>
  <speed>1.03</speed>
  <fix>3d</fix>
</trkpt>
<trkpt lat="40.0708902" lon="-105.2299376">
  <ele>1582.99</ele>
  <time>2026-09-02T20:50:50Z</time>
  <course>130.29</course>
  <speed>1.015332457867865</speed>
  <fix>3d</fix>
</trkpt>
<trkpt lat="40.0708914" lon="-105.2299393">
  <ele>1582.99</ele>
  <time>2026-09-02T20:50:50Z</time>
  <course>132.01</course>
  <speed>1.03</speed>
  <fix>3d</fix>
</trkpt>
<trkpt lat="40.0708895" lon="-105.2299364">
  <ele>1582.99</ele>
  <time>2026-09-02T20:50:50Z</time>
  <course>129.32</course>
  <speed>1.002646498024104</speed>
  <fix>3d</fix>
</trkpt>
<trkpt lat="40.0708902" lon="-105.2299376">
  <ele>1582.99</ele>
  <time>2026-09-02T20:50:50Z</time>
  <course>130.19</course>
  <speed>1.02</speed>
  <fix>3d</fix>
</trkpt>
<trkpt lat="40.0708889" lon="-105.2299355">
  <ele>1582.99</ele>
  <time>2026-09-02T20:50:50Z</time>
  <course>128.58</course>
  <speed>1.0042410069301093</speed>
  <fix>3d</fix>
</trkpt>
<trkpt lat="40.0708902" lon="-105.2299376">
  <ele>1582.99</ele>
  <time>2026-09-02T20:50:50Z</time>
  <course>130.19</course>
  <speed>1.02</speed>
  <fix>3d</fix>
</trkpt>
<trkpt lat="40.0708883" lon="-105.2299347">
  <ele>1582.99</ele>
  <time>2026-09-02T20:50:50Z</time>
  <course>127.9</course>
  <speed>0.9902019995940222</speed>
  <fix>3d</fix>
</trkpt>
<trkpt lat="40.070889" lon="-105.2299357">
  <ele>1582.99</ele>
  <time>2026-09-02T20:50:50Z</time>
  <course>128.62</course>
  <speed>1.01</speed>
  <fix>3d</fix>
</trkpt>
<trkpt lat="40.0708878" lon="-105.2299336">
  <ele>1582.99</ele>
  <time>2026-09-02T20:50:50Z</time>
  <course>127.27</course>
  <speed>0.9920181449953424</speed>
  <fix>3d</fix>
</trkpt>
<trkpt lat="40.070889" lon="-105.2299357">
  <ele>1582.99</ele>
  <time>2026-09-02T20:50:50Z</time>
  <course>128.62</course>
  <speed>1.01</speed>
  <fix>3d</fix>
</trkpt>
<trkpt lat="40.0708872" lon="-105.2299328">
  <ele>1582.99</ele>
  <time>2026-09-02T20:50:50Z</time>
  <course>126.71</course>
  <speed>0.9860020283954795</speed>
  <fix>3d</fix>
</trkpt>
<trkpt lat="40.0708879" lon="-105.2299339">
  <ele>1582.99</ele>
  <time>2026-09-02T20:50:50Z</time>
  <course>127.28</course>
  <speed>0.99</speed>
  <fix>3d</fix>
</trkpt>
<trkpt lat="40.0708866" lon="-105.2299319">
  <ele>1582.99</ele>
  <time>2026-09-02T20:50:50Z</time>
  <course>126.19</course>
  <speed>0.98812954616285</speed>
  <fix>3d</fix>
</trkpt>
<trkpt lat="40.0708879" lon="-105.2299339">
  <ele>1582.99</ele>
  <time>2026-09-02T20:50:50Z</time>
  <course>127.28</course>
  <speed>0.99</speed>
  <fix>3d</fix>
</trkpt>
<trkpt lat="40.0708861" lon="-105.2299309">
  <ele>1582.99</ele>
  <time>2026-09-02T20:50:50Z</time>
  <course>125.72</course>
  <speed>0.9822932352408826</speed>
  <fix>3d</fix>
</trkpt>
<trkpt lat="40.0708868" lon="-105.229932">
  <ele>1582.99</ele>
  <time>2026-09-02T20:50:50Z</time>
  <course>126.16</course>
  <speed>0.99</speed>
  <fix>3d</fix>
</trkpt>
<trkpt lat="40.0708857" lon="-105.22993">
  <ele>1582.99</ele>
  <time>2026-09-02T20:50:50Z</time>
  <course>125.3</course>
  <speed>0.9904544411531506</speed>
  <fix>3d</fix>
</trkpt>
<trkpt lat="40.0708868" lon="-105.229932">
  <ele>1582.99</ele>
  <time>2026-09-02T20:50:50Z</time>
  <course>126.16</course>
  <speed>0.99</speed>
  <fix>3d</fix>
</trkpt>
<trkpt lat="40.0708852" lon="-105.229929">
  <ele>1582.99</ele>
  <time>2026-09-02T20:50:50Z</time>
  <course>124.93</course>
  <speed>0.984733466477097</speed>
  <fix>3d</fix>
</trkpt>
<trkpt lat="40.0708858" lon="-105.2299301">
  <ele>1582.99</ele>
  <time>2026-09-02T20:50:50Z</time>
  <course>125.26</course>
  <speed>0.98</speed>
  <fix>3d</fix>
</trkpt>
<trkpt lat="40.0708847" lon="-105.2299281">
  <ele>1582.99</ele>
  <time>2026-09-02T20:50:50Z</time>
  <course>124.6</course>
  <speed>0.984733466477097</speed>
  <fix>3d</fix>
</trkpt>
<trkpt lat="40.0708858" lon="-105.2299301">
  <ele>1582.99</ele>
  <time>2026-09-02T20:50:50Z</time>
  <course>125.26</course>
  <speed>0.98</speed>
  <fix>3d</fix>
</trkpt>
<trkpt lat="40.0708841" lon="-105.2299271">
  <ele>1582.99</ele>
  <time>2026-09-02T20:50:50Z</time>
  <course>124.31</course>
  <speed>0.979081201943945</speed>
  <fix>3d</fix>
</trkpt>
<trkpt lat="40.0708848" lon="-105.2299282">
  <ele>1582.99</ele>
  <time>2026-09-02T20:50:50Z</time>
  <course>124.53</course>
  <speed>0.98</speed>
  <fix>3d</fix>
</trkpt>
<trkpt lat="40.0708838" lon="-105.2299262">
  <ele>1582.99</ele>
  <time>2026-09-02T20:50:50Z</time>
  <course>124.11</course>
  <speed>0.9873702446397704</speed>
  <fix>3d</fix>
</trkpt>
<trkpt lat="40.0708848" lon="-105.2299282">
  <ele>1582.99</ele>
  <time>2026-09-02T20:50:50Z</time>
  <course>124.53</course>
  <speed>0.98</speed>
  <fix>3d</fix>
</trkpt>
<trkpt lat="40.0708833" lon="-105.2299254">
  <ele>1582.99</ele>
  <time>2026-09-02T20:50:50Z</time>
  <course>123.9</course>
  <speed>0.9873702446397704</speed>
  <fix>3d</fix>
</trkpt>
<trkpt lat="40.0708838" lon="-105.2299263">
  <ele>1582.99</ele>
  <time>2026-09-02T20:50:50Z</time>
  <course>123.98</course>
  <speed>0.99</speed>
  <fix>3d</fix>
</trkpt>
<trkpt lat="40.0708828" lon="-105.2299244">
  <ele>1582.99</ele>
  <time>2026-09-02T20:50:50Z</time>
  <course>123.71</course>
  <speed>0.9818350166906862</speed>
  <fix>3d</fix>
</trkpt>
<trkpt lat="40.0708838" lon="-105.2299263">
  <ele>1582.99</ele>
  <time>2026-09-02T20:50:50Z</time>
  <course>123.98</course>
  <speed>0.99</speed>
  <fix>3d</fix>
</trkpt>
<trkpt lat="40.0708823" lon="-105.2299233">
  <ele>1582.99</ele>
  <time>2026-09-02T20:50:50Z</time>
  <course>123.56</course>
  <speed>0.9818350166906862</speed>
  <fix>3d</fix>
</trkpt>
<trkpt lat="40.0708828" lon="-105.2299243">
  <ele>1582.99</ele>
  <time>2026-09-02T20:50:50Z</time>
  <course>123.58</course>
  <speed>0.99</speed>
  <fix>3d</fix>
</trkpt>
<trkpt lat="40.0708817" lon="-105.2299223">
  <ele>1582.99</ele>
  <time>2026-09-02T20:50:50Z</time>
  <course>123.44</course>
  <speed>0.9902019995940222</speed>
  <fix>3d</fix>
</trkpt>
<trkpt lat="40.0708828" lon="-105.2299243">
  <ele>1582.99</ele>
  <time>2026-09-02T20:50:50Z</time>
  <course>123.58</course>
  <speed>0.99</speed>
  <fix>3d</fix>
</trkpt>
<trkpt lat="40.0708812" lon="-105.2299214">
  <ele>1582.99</ele>
  <time>2026-09-02T20:50:50Z</time>
  <course>123.35</course>
  <speed>0.9902019995940222</speed>
  <fix>3d</fix>
</trkpt>
<trkpt lat="40.0708817" lon="-105.2299224">
  <ele>1582.99</ele>
  <time>2026-09-02T20:50:50Z</time>
  <course>123.31</course>
  <speed>0.99</speed>
  <fix>3d</fix>
</trkpt>
<trkpt lat="40.0708808" lon="-105.2299204">
  <ele>1582.99</ele>
  <time>2026-09-02T20:50:50Z</time>
  <course>123.28</course>
  <speed>0.9902019995940222</speed>
  <fix>3d</fix>
</trkpt>
<trkpt lat="40.0708817" lon="-105.2299224">
  <ele>1582.99</ele>
  <time>2026-09-02T20:50:50Z</time>
  <course>123.31</course>
  <speed>0.99</speed>
  <fix>3d</fix>
</trkpt>
<trkpt lat="40.0708803" lon="-105.2299195">
  <ele>1582.99</ele>
  <time>2026-09-02T20:50:50Z</time>
  <course>123.24</course>
  <speed>0.9902019995940222</speed>
  <fix>3d</fix>
</trkpt>
<trkpt lat="40.0708808" lon="-105.2299204">
  <ele>1582.99</ele>
  <time>2026-09-02T20:50:50Z</time>
  <course>123.15</course>
  <speed>0.99</speed>
  <fix>3d</fix>
</trkpt>
<trkpt lat="40.0708798" lon="-105.2299185">
  <ele>1582.99</ele>
  <time>2026-09-02T20:50:50Z</time>
  <course>123.22</course>
  <speed>0.9902019995940222</speed>
  <fix>3d</fix>
</trkpt>
<trkpt lat="40.0708808" lon="-105.2299204">
  <ele>1582.99</ele>
  <time>2026-09-02T20:50:50Z</time>
  <course>123.15</course>
  <speed>0.99</speed>
  <fix>3d</fix>
</trkpt>
<trkpt lat="40.0708793" lon="-105.2299175">
  <ele>1582.99</ele>
  <time>2026-09-02T20:50:50Z</time>
  <course>123.23</course>
  <speed>0.9902019995940222</speed>
  <fix>3d</fix>
</trkpt>
<trkpt lat="40.0708798" lon="-105.2299185">
  <ele>1582.99</ele>
  <time>2026-09-02T20:50:50Z</time>
  <course>123.09</course>
  <speed>0.99</speed>
  <fix>3d</fix>
</trkpt>
<trkpt lat="40.0708787" lon="-105.2299163">
  <ele>1582.99</ele>
  <time>2026-09-02T20:50:50Z</time>
  <course>123.27</course>
  <speed>0.9902019995940222</speed>
  <fix>3d</fix>
</trkpt>
<trkpt lat="40.0708798" lon="-105.2299185">
  <ele>1582.99</ele>
  <time>2026-09-02T20:50:50Z</time>
  <course>123.09</course>
  <speed>0.99</speed>
  <fix>3d</fix>
</trkpt>
<trkpt lat="40.0708782" lon="-105.2299154">
  <ele>1582.99</ele>
  <time>2026-09-02T20:50:50Z</time>
  <course>123.32</course>
  <speed>0.9818350166906862</speed>
  <fix>3d</fix>
</trkpt>
<trkpt lat="40.0708788" lon="-105.2299165">
  <ele>1582.99</ele>
  <time>2026-09-02T20:50:50Z</time>
  <course>123.12</course>
  <speed>0.99</speed>
  <fix>3d</fix>
</trkpt>
<trkpt lat="40.0708778" lon="-105.2299144">
  <ele>1582.99</ele>
  <time>2026-09-02T20:50:50Z</time>
  <course>123.39</course>
  <speed>0.9902019995940222</speed>
  <fix>3d</fix>
</trkpt>
<trkpt lat="40.0708788" lon="-105.2299165">
  <ele>1582.99</ele>
  <time>2026-09-02T20:50:50Z</time>
  <course>123.12</course>
  <speed>0.99</speed>
  <fix>3d</fix>
</trkpt>
<trkpt lat="40.0708773" lon="-105.2299134">
  <ele>1582.99</ele>
  <time>2026-09-02T20:50:50Z</time>
  <course>123.47</course>
  <speed>0.9902019995940222</speed>
  <fix>3d</fix>
</trkpt>
<trkpt lat="40.0708779" lon="-105.2299146">
  <ele>1582.99</ele>
  <time>2026-09-02T20:50:50Z</time>
  <course>123.24</course>
  <speed>0.99</speed>
  <fix>3d</fix>
</trkpt>
<trkpt lat="40.0708768" lon="-105.2299125">
  <ele>1582.99</ele>
  <time>2026-09-02T20:50:50Z</time>
  <course>123.57</course>
  <speed>0.9818350166906862</speed>
  <fix>3d</fix>
</trkpt>
<trkpt lat="40.0708779" lon="-105.2299146">
  <ele>1582.99</ele>
  <time>2026-09-02T20:50:50Z</time>
  <course>123.24</course>
  <speed>0.99</speed>
  <fix>3d</fix>
</trkpt>
<trkpt lat="40.0708762" lon="-105.2299115">
  <ele>1582.99</ele>
  <time>2026-09-02T20:50:50Z</time>
  <course>123.68</course>
  <speed>0.9818350166906862</speed>
  <fix>3d</fix>
</trkpt>
<trkpt lat="40.0708769" lon="-105.2299126">
  <ele>1582.99</ele>
  <time>2026-09-02T20:50:50Z</time>
  <course>123.41</course>
  <speed>0.99</speed>
  <fix>3d</fix>
</trkpt>
<trkpt lat="40.0708757" lon="-105.2299104">
  <ele>1582.99</ele>
  <time>2026-09-02T20:50:50Z</time>
  <course>123.8</course>
  <speed>0.9873702446397704</speed>
  <fix>3d</fix>
</trkpt>
<trkpt lat="40.0708769" lon="-105.2299126">
  <ele>1582.99</ele>
  <time>2026-09-02T20:50:50Z</time>
  <course>123.41</course>
  <speed>0.99</speed>
  <fix>3d</fix>
</trkpt>
<trkpt lat="40.0708753" lon="-105.2299096">
  <ele>1582.99</ele>
  <time>2026-09-02T20:50:50Z</time>
  <course>123.94</course>
  <speed>0.9873702446397704</speed>
  <fix>3d</fix>
</trkpt>
<trkpt lat="40.0708759" lon="-105.2299106">
  <ele>1582.99</ele>
  <time>2026-09-02T20:50:50Z</time>
  <course>123.64</course>
  <speed>0.99</speed>
  <fix>3d</fix>
</trkpt>
<trkpt lat="40.0708748" lon="-105.2299086">
  <ele>1582.99</ele>
  <time>2026-09-02T20:50:50Z</time>
  <course>124.07</course>
  <speed>0.9873702446397704</speed>
  <fix>3d</fix>
</trkpt>
<trkpt lat="40.0708759" lon="-105.2299106">
  <ele>1582.99</ele>
  <time>2026-09-02T20:50:50Z</time>
  <course>123.64</course>
  <speed>0.99</speed>
  <fix>3d</fix>
</trkpt>
<trkpt lat="40.0708743" lon="-105.2299075">
  <ele>1582.99</ele>
  <time>2026-09-02T20:50:50Z</time>
  <course>124.22</course>
  <speed>0.9873702446397704</speed>
  <fix>3d</fix>
</trkpt>
<trkpt lat="40.0708749" lon="-105.2299087">
  <ele>1582.99</ele>
  <time>2026-09-02T20:50:50Z</time>
  <course>123.91</course>
  <speed>0.99</speed>
  <fix>3d</fix>
</trkpt>
<trkpt lat="40.0708738" lon="-105.2299065">
  <ele>1582.99</ele>
  <time>2026-09-02T20:50:50Z</time>
  <course>124.38</course>
  <speed>0.9873702446397704</speed>
  <fix>3d</fix>
</trkpt>
<trkpt lat="40.0708749" lon="-105.2299087">
  <ele>1582.99</ele>
  <time>2026-09-02T20:50:50Z</time>
  <course>123.91</course>
  <speed>0.99</speed>
  <fix>3d</fix>
</trkpt>
<trkpt lat="40.0708733" lon="-105.2299058">
  <ele>1582.99</ele>
  <time>2026-09-02T20:50:50Z</time>
  <course>124.51</course>
  <speed>0.9929753269845127</speed>
  <fix>3d</fix>
</trkpt>
<trkpt lat="40.0708738" lon="-105.2299068">
  <ele>1582.99</ele>
  <time>2026-09-02T20:50:50Z</time>
  <course>124.21</course>
  <speed>0.99</speed>
  <fix>3d</fix>
</trkpt>
<trkpt lat="40.0708729" lon="-105.2299048">
  <ele>1582.99</ele>
  <time>2026-09-02T20:50:50Z</time>
  <course>124.68</course>
  <speed>0.984733466477097</speed>
  <fix>3d</fix>
</trkpt>
<trkpt lat="40.0708738" lon="-105.2299068">
  <ele>1582.99</ele>
  <time>2026-09-02T20:50:50Z</time>
  <course>124.21</course>
  <speed>0.99</speed>
  <fix>3d</fix>
</trkpt>
<trkpt lat="40.0708724" lon="-105.2299039">
  <ele>1582.99</ele>
  <time>2026-09-02T20:50:50Z</time>
  <course>124.86</course>
  <speed>0.984733466477097</speed>
  <fix>3d</fix>
</trkpt>
<trkpt lat="40.0708729" lon="-105.2299048">
  <ele>1582.99</ele>
  <time>2026-09-02T20:50:50Z</time>
  <course>124.54</course>
  <speed>0.99</speed>
  <fix>3d</fix>
</trkpt>
<trkpt lat="40.0708719" lon="-105.2299029">
  <ele>1582.99</ele>
  <time>2026-09-02T20:50:50Z</time>
  <course>125.03</course>
  <speed>0.984733466477097</speed>
  <fix>3d</fix>
</trkpt>
<trkpt lat="40.0708729" lon="-105.2299048">
  <ele>1582.99</ele>
  <time>2026-09-02T20:50:50Z</time>
  <course>124.54</course>
  <speed>0.99</speed>
  <fix>3d</fix>
</trkpt>
<trkpt lat="40.0708714" lon="-105.229902">
  <ele>1582.99</ele>
  <time>2026-09-02T20:50:50Z</time>
  <course>125.21</course>
  <speed>0.9904544411531506</speed>
  <fix>3d</fix>
</trkpt>
<trkpt lat="40.0708719" lon="-105.2299029">
  <ele>1582.99</ele>
  <time>2026-09-02T20:50:50Z</time>
  <course>124.89</course>
  <speed>0.99</speed>
  <fix>3d</fix>
</trkpt>
<trkpt lat="40.0708708" lon="-105.229901">
  <ele>1582.99</ele>
  <time>2026-09-02T20:50:50Z</time>
  <course>125.4</course>
  <speed>0.9822932352408826</speed>
  <fix>3d</fix>
</trkpt>
<trkpt lat="40.0708719" lon="-105.2299029">
  <ele>1582.99</ele>
  <time>2026-09-02T20:50:50Z</time>
  <course>124.89</course>
  <speed>0.99</speed>
  <fix>3d</fix>
</trkpt>
<trkpt lat="40.0708703" lon="-105.2299001">
  <ele>1582.99</ele>
  <time>2026-09-02T20:50:50Z</time>
  <course>125.59</course>
  <speed>0.9962429422585637</speed>
  <fix>3d</fix>
</trkpt>
<trkpt lat="40.0708709" lon="-105.229901">
  <ele>1582.99</ele>
  <time>2026-09-02T20:50:50Z</time>
  <course>125.26</course>
  <speed>1.0</speed>
  <fix>3d</fix>
</trkpt>
<trkpt lat="40.0708697" lon="-105.2298991">
  <ele>1582.99</ele>
  <time>2026-09-02T20:50:50Z</time>
  <course>125.77</course>
  <speed>0.9822932352408826</speed>
  <fix>3d</fix>
</trkpt>
<trkpt lat="40.0708709" lon="-105.229901">
  <ele>1582.99</ele>
  <time>2026-09-02T20:50:50Z</time>
  <course>125.26</course>
  <speed>1.0</speed>
  <fix>3d</fix>
</trkpt>
<trkpt lat="40.0708693" lon="-105.2298981">
  <ele>1582.99</ele>
  <time>2026-09-02T20:50:50Z</time>
  <course>125.96</course>
  <speed>0.9962429422585637</speed>
  <fix>3d</fix>
</trkpt>
<trkpt lat="40.0708698" lon="-105.2298991">
  <ele>1582.99</ele>
  <time>2026-09-02T20:50:50Z</time>
  <course>125.63</course>
  <speed>1.0</speed>
  <fix>3d</fix>
</trkpt>
<trkpt lat="40.0708688" lon="-105.2298972">
  <ele>1582.99</ele>
  <time>2026-09-02T20:50:50Z</time>
  <course>126.14</course>
  <speed>0.98812954616285</speed>
  <fix>3d</fix>
</trkpt>
<trkpt lat="40.0708698" lon="-105.2298991">
  <ele>1582.99</ele>
  <time>2026-09-02T20:50:50Z</time>
  <course>125.63</course>
  <speed>1.0</speed>
  <fix>3d</fix>
</trkpt>
<trkpt lat="40.0708681" lon="-105.229896">
  <ele>1582.99</ele>
  <time>2026-09-02T20:50:50Z</time>
  <course>126.36</course>
  <speed>0.9940321926376429</speed>
  <fix>3d</fix>
</trkpt>
<trkpt lat="40.0708688" lon="-105.2298972">
  <ele>1582.99</ele>
  <time>2026-09-02T20:50:50Z</time>
  <course>126.0</course>
  <speed>1.0</speed>
  <fix>3d</fix>
</trkpt>
<trkpt lat="40.0708676" lon="-105.2298952">
  <ele>1582.99</ele>
  <time>2026-09-02T20:50:50Z</time>
  <course>126.54</course>
  <speed>0.9800510190801294</speed>
  <fix>3d</fix>
</trkpt>
<trkpt lat="40.0708688" lon="-105.2298972">
  <ele>1582.99</ele>
  <time>2026-09-02T20:50:50Z</time>
  <course>126.0</course>
  <speed>1.0</speed>
  <fix>3d</fix>
</trkpt>
<trkpt lat="40.0708671" lon="-105.2298943">
  <ele>1582.99</ele>
  <time>2026-09-02T20:50:50Z</time>
  <course>126.73</course>
  <speed>0.9940321926376429</speed>
  <fix>3d</fix>
</trkpt>
<trkpt lat="40.0708677" lon="-105.2298953">
  <ele>1582.99</ele>
  <time>2026-09-02T20:50:50Z</time>
  <course>126.37</course>
  <speed>1.0</speed>
  <fix>3d</fix>
</trkpt>
<trkpt lat="40.0708665" lon="-105.2298933">
  <ele>1582.99</ele>
  <time>2026-09-02T20:50:50Z</time>
  <course>126.91</course>
  <speed>0.9860020283954795</speed>
  <fix>3d</fix>
</trkpt>
<trkpt lat="40.0708677" lon="-105.2298953">
  <ele>1582.99</ele>
  <time>2026-09-02T20:50:50Z</time>
  <course>126.37</course>
  <speed>1.0</speed>
  <fix>3d</fix>
</trkpt>
<trkpt lat="40.0708659" lon="-105.2298924">
  <ele>1582.99</ele>
  <time>2026-09-02T20:50:50Z</time>
  <course>127.08</course>
  <speed>0.9920181449953424</speed>
  <fix>3d</fix>
</trkpt>
<trkpt lat="40.0708666" lon="-105.2298935">
  <ele>1582.99</ele>
  <time>2026-09-02T20:50:50Z</time>
  <course>126.73</course>
  <speed>1.0</speed>
  <fix>3d</fix>
</trkpt>
<trkpt lat="40.0708654" lon="-105.2298914">
  <ele>1582.99</ele>
  <time>2026-09-02T20:50:50Z</time>
  <course>127.26</course>
  <speed>0.9920181449953424</speed>
  <fix>3d</fix>
</trkpt>
<trkpt lat="40.0708666" lon="-105.2298935">
  <ele>1582.99</ele>
  <time>2026-09-02T20:50:50Z</time>
  <course>126.73</course>
  <speed>1.0</speed>
  <fix>3d</fix>
</trkpt>
<trkpt lat="40.0708648" lon="-105.2298905">
  <ele>1582.99</ele>
  <time>2026-09-02T20:50:50Z</time>
  <course>127.43</course>
  <speed>0.9920181449953424</speed>
  <fix>3d</fix>
</trkpt>
<trkpt lat="40.0708655" lon="-105.2298916">
  <ele>1582.99</ele>
  <time>2026-09-02T20:50:50Z</time>
  <course>127.08</course>
  <speed>0.99</speed>
  <fix>3d</fix>
</trkpt>
<trkpt lat="40.0708644" lon="-105.2298895">
  <ele>1582.99</ele>
  <time>2026-09-02T20:50:50Z</time>
  <course>127.59</course>
  <speed>0.9920181449953424</speed>
  <fix>3d</fix>
</trkpt>
<trkpt lat="40.0708655" lon="-105.2298916">
  <ele>1582.99</ele>
  <time>2026-09-02T20:50:50Z</time>
  <course>127.08</course>
  <speed>0.99</speed>
  <fix>3d</fix>
</trkpt>
<trkpt lat="40.0708638" lon="-105.2298886">
  <ele>1582.99</ele>
  <time>2026-09-02T20:50:50Z</time>
  <course>127.75</course>
  <speed>0.9980981915623331</speed>
  <fix>3d</fix>
</trkpt>
<trkpt lat="40.0708644" lon="-105.2298897">
  <ele>1582.99</ele>
  <time>2026-09-02T20:50:50Z</time>
  <course>127.42</course>
  <speed>0.99</speed>
  <fix>3d</fix>
</trkpt>
<trkpt lat="40.0708633" lon="-105.2298876">
  <ele>1582.99</ele>
  <time>2026-09-02T20:50:50Z</time>
  <course>127.91</course>
  <speed>0.9902019995940222</speed>
  <fix>3d</fix>
</trkpt>
<trkpt lat="40.0708644" lon="-105.2298897">
  <ele>1582.99</ele>
  <time>2026-09-02T20:50:50Z</time>
  <course>127.42</course>
  <speed>0.99</speed>
  <fix>3d</fix>
</trkpt>
<trkpt lat="40.0708627" lon="-105.2298867">
  <ele>1582.99</ele>
  <time>2026-09-02T20:50:50Z</time>
  <course>128.06</course>
  <speed>0.9902019995940222</speed>
  <fix>3d</fix>
</trkpt>
<trkpt lat="40.0708633" lon="-105.2298879">
  <ele>1582.99</ele>
  <time>2026-09-02T20:50:50Z</time>
  <course>127.74</course>
  <speed>0.99</speed>
  <fix>3d</fix>
</trkpt>
<trkpt lat="40.0708623" lon="-105.2298859">
  <ele>1582.99</ele>
  <time>2026-09-02T20:50:50Z</time>
  <course>128.18</course>
  <speed>0.9980981915623331</speed>
  <fix>3d</fix>
</trkpt>
<trkpt lat="40.0708633" lon="-105.2298879">
  <ele>1582.99</ele>
  <time>2026-09-02T20:50:50Z</time>
  <course>127.74</course>
  <speed>0.99</speed>
  <fix>3d</fix>
</trkpt>
<trkpt lat="40.0708616" lon="-105.229885">
  <ele>1582.99</ele>
  <time>2026-09-02T20:50:50Z</time>
  <course>128.33</course>
  <speed>0.9902019995940222</speed>
  <fix>3d</fix>
</trkpt>
<trkpt lat="40.0708622" lon="-105.229886">
  <ele>1582.99</ele>
  <time>2026-09-02T20:50:50Z</time>
  <course>128.04</course>
  <speed>0.99</speed>
  <fix>3d</fix>
</trkpt>
<trkpt lat="40.0708611" lon="-105.2298842">
  <ele>1582.99</ele>
  <time>2026-09-02T20:50:50Z</time>
  <course>128.47</course>
  <speed>0.996393496566492</speed>
  <fix>3d</fix>
</trkpt>
<trkpt lat="40.0708622" lon="-105.229886">
  <ele>1582.99</ele>
  <time>2026-09-02T20:50:50Z</time>
  <course>128.04</course>
  <speed>0.99</speed>
  <fix>3d</fix>
</trkpt>
<trkpt lat="40.0708605" lon="-105.2298833">
  <ele>1582.99</ele>
  <time>2026-09-02T20:50:50Z</time>
  <course>128.61</course>
  <speed>0.982344135219425</speed>
  <fix>3d</fix>
</trkpt>
<trkpt lat="40.0708611" lon="-105.2298841">
  <ele>1582.99</ele>
  <time>2026-09-02T20:50:50Z</time>
  <course>128.32</course>
  <speed>0.99</speed>
  <fix>3d</fix>
</trkpt>
<trkpt lat="40.0708601" lon="-105.2298823">
  <ele>1582.99</ele>
  <time>2026-09-02T20:50:50Z</time>
  <course>128.73</course>
  <speed>0.996393496566492</speed>
  <fix>3d</fix>
</trkpt>
<trkpt lat="40.0708611" lon="-105.2298841">
  <ele>1582.99</ele>
  <time>2026-09-02T20:50:50Z</time>
  <course>128.32</course>
  <speed>0.99</speed>
  <fix>3d</fix>
</trkpt>
<trkpt lat="40.0708595" lon="-105.2298814">
  <ele>1582.99</ele>
  <time>2026-09-02T20:50:50Z</time>
  <course>128.86</course>
  <speed>0.982344135219425</speed>
  <fix>3d</fix>
</trkpt>
<trkpt lat="40.07086" lon="-105.2298823">
  <ele>1582.99</ele>
  <time>2026-09-02T20:50:50Z</time>
  <course>128.59</course>
  <speed>0.98</speed>
  <fix>3d</fix>
</trkpt>
<trkpt lat="40.0708589" lon="-105.2298804">
  <ele>1582.99</ele>
  <time>2026-09-02T20:50:50Z</time>
  <course>128.98</course>
  <speed>1.002646498024104</speed>
  <fix>3d</fix>
</trkpt>
<trkpt lat="40.07086" lon="-105.2298823">
  <ele>1582.99</ele>
  <time>2026-09-02T20:50:50Z</time>
  <course>128.59</course>
  <speed>0.98</speed>
  <fix>3d</fix>
</trkpt>
<trkpt lat="40.0708584" lon="-105.2298795">
  <ele>1582.99</ele>
  <time>2026-09-02T20:50:50Z</time>
  <course>129.09</course>
  <speed>0.9808159868191383</speed>
  <fix>3d</fix>
</trkpt>
<trkpt lat="40.0708589" lon="-105.2298805">
  <ele>1582.99</ele>
  <time>2026-09-02T20:50:50Z</time>
  <course>128.83</course>
  <speed>0.98</speed>
  <fix>3d</fix>
</trkpt>
<trkpt lat="40.0708578" lon="-105.2298787">
  <ele>1582.99</ele>
  <time>2026-09-02T20:50:50Z</time>
  <course>129.2</course>
  <speed>1.002646498024104</speed>
  <fix>3d</fix>
</trkpt>
<trkpt lat="40.0708589" lon="-105.2298805">
  <ele>1582.99</ele>
  <time>2026-09-02T20:50:50Z</time>
  <course>128.83</course>
  <speed>0.98</speed>
  <fix>3d</fix>
</trkpt>
<trkpt lat="40.0708573" lon="-105.2298778">
  <ele>1582.99</ele>
  <time>2026-09-02T20:50:50Z</time>
  <course>129.3</course>
  <speed>0.9808159868191383</speed>
  <fix>3d</fix>
</trkpt>
<trkpt lat="40.0708578" lon="-105.2298787">
  <ele>1582.99</ele>
  <time>2026-09-02T20:50:50Z</time>
  <course>129.05</course>
  <speed>0.98</speed>
  <fix>3d</fix>
</trkpt>
<trkpt lat="40.0708566" lon="-105.2298766">
  <ele>1582.99</ele>
  <time>2026-09-02T20:50:50Z</time>
  <course>129.42</course>
  <speed>0.9948869282486327</speed>
  <fix>3d</fix>
</trkpt>
<trkpt lat="40.0708578" lon="-105.2298787">
  <ele>1582.99</ele>
  <time>2026-09-02T20:50:50Z</time>
  <course>129.05</course>
  <speed>0.98</speed>
  <fix>3d</fix>
</trkpt>
<trkpt lat="40.070856" lon="-105.2298758">
  <ele>1582.99</ele>
  <time>2026-09-02T20:50:50Z</time>
  <course>129.52</course>
  <speed>0.9871676655968833</speed>
  <fix>3d</fix>
</trkpt>
<trkpt lat="40.0708567" lon="-105.2298768">
  <ele>1582.99</ele>
  <time>2026-09-02T20:50:50Z</time>
  <course>129.26</course>
  <speed>0.98</speed>
  <fix>3d</fix>
</trkpt>
<trkpt lat="40.0708554" lon="-105.2298749">
  <ele>1582.99</ele>
  <time>2026-09-02T20:50:50Z</time>
  <course>129.61</course>
  <speed>0.9948869282486327</speed>
  <fix>3d</fix>
</trkpt>
<trkpt lat="40.0708567" lon="-105.2298768">
  <ele>1582.99</ele>
  <time>2026-09-02T20:50:50Z</time>
  <course>129.26</course>
  <speed>0.98</speed>
  <fix>3d</fix>
</trkpt>
<trkpt lat="40.0708549" lon="-105.229874">
  <ele>1582.99</ele>
  <time>2026-09-02T20:50:50Z</time>
  <course>129.69</course>
  <speed>0.9871676655968833</speed>
  <fix>3d</fix>
</trkpt>
<trkpt lat="40.0708555" lon="-105.229875">
  <ele>1582.99</ele>
  <time>2026-09-02T20:50:50Z</time>
  <course>129.44</course>
  <speed>0.98</speed>
  <fix>3d</fix>
</trkpt>
<trkpt lat="40.0708543" lon="-105.229873">
  <ele>1582.99</ele>
  <time>2026-09-02T20:50:50Z</time>
  <course>129.76</course>
  <speed>1.0012492197250393</speed>
  <fix>3d</fix>
</trkpt>
<trkpt lat="40.0708555" lon="-105.229875">
  <ele>1582.99</ele>
  <time>2026-09-02T20:50:50Z</time>
  <course>129.44</course>
  <speed>0.98</speed>
  <fix>3d</fix>
</trkpt>
<trkpt lat="40.0708537" lon="-105.2298721">
  <ele>1582.99</ele>
  <time>2026-09-02T20:50:50Z</time>
  <course>129.83</course>
  <speed>0.9871676655968833</speed>
  <fix>3d</fix>
</trkpt>
<trkpt lat="40.0708544" lon="-105.2298733">
  <ele>1582.99</ele>
  <time>2026-09-02T20:50:50Z</time>
  <course>129.6</course>
  <speed>0.99</speed>
  <fix>3d</fix>
</trkpt>
<trkpt lat="40.0708531" lon="-105.2298713">
  <ele>1582.99</ele>
  <time>2026-09-02T20:50:50Z</time>
  <course>129.9</course>
  <speed>1.0012492197250393</speed>
  <fix>3d</fix>
</trkpt>
<trkpt lat="40.0708544" lon="-105.2298733">
  <ele>1582.99</ele>
  <time>2026-09-02T20:50:50Z</time>
  <course>129.6</course>
  <speed>0.99</speed>
  <fix>3d</fix>
</trkpt>
<trkpt lat="40.0708525" lon="-105.2298704">
  <ele>1582.99</ele>
  <time>2026-09-02T20:50:50Z</time>
  <course>129.97</course>
  <speed>0.9871676655968833</speed>
  <fix>3d</fix>
</trkpt>
<trkpt lat="40.0708532" lon="-105.2298715">
  <ele>1582.99</ele>
  <time>2026-09-02T20:50:50Z</time>
  <course>129.74</course>
  <speed>0.99</speed>
  <fix>3d</fix>
</trkpt>
<trkpt lat="40.0708519" lon="-105.2298694">
  <ele>1582.99</ele>
  <time>2026-09-02T20:50:50Z</time>
  <course>130.03</course>
  <speed>1.0012492197250393</speed>
  <fix>3d</fix>
</trkpt>
<trkpt lat="40.0708532" lon="-105.2298715">
  <ele>1582.99</ele>
  <time>2026-09-02T20:50:50Z</time>
  <course>129.74</course>
  <speed>0.99</speed>
  <fix>3d</fix>
</trkpt>
<trkpt lat="40.0708513" lon="-105.2298685">
  <ele>1582.99</ele>
  <time>2026-09-02T20:50:50Z</time>
  <course>130.08</course>
  <speed>0.9871676655968833</speed>
  <fix>3d</fix>
</trkpt>
<trkpt lat="40.070852" lon="-105.2298697">
  <ele>1582.99</ele>
  <time>2026-09-02T20:50:50Z</time>
  <course>129.87</course>
  <speed>0.99</speed>
  <fix>3d</fix>
</trkpt>
<trkpt lat="40.0708507" lon="-105.2298677">
  <ele>1582.99</ele>
  <time>2026-09-02T20:50:50Z</time>
  <course>130.15</course>
  <speed>1.0012492197250393</speed>
  <fix>3d</fix>
</trkpt>
<trkpt lat="40.070852" lon="-105.2298697">
  <ele>1582.99</ele>
  <time>2026-09-02T20:50:50Z</time>
  <course>129.87</course>
  <speed>0.99</speed>
  <fix>3d</fix>
</trkpt>
<trkpt lat="40.0708504" lon="-105.229867">
  <ele>1582.99</ele>
  <time>2026-09-02T20:50:50Z</time>
  <course>130.28</course>
  <speed>0.9794896630388705</speed>
  <fix>3d</fix>
</trkpt>
<trkpt lat="40.0708509" lon="-105.2298678">
  <ele>1582.99</ele>
  <time>2026-09-02T20:50:50Z</time>
  <course>130.03</course>
  <speed>0.98</speed>
  <fix>3d</fix>
</trkpt>
<trkpt lat="40.0708498" lon="-105.2298661">
  <ele>1582.99</ele>
  <time>2026-09-02T20:50:50Z</time>
  <course>130.53</course>
  <speed>1.007670581092849</speed>
  <fix>3d</fix>
</trkpt>
<trkpt lat="40.0708509" lon="-105.2298678">
  <ele>1582.99</ele>
  <time>2026-09-02T20:50:50Z</time>
  <course>130.03</course>
  <speed>0.98</speed>
  <fix>3d</fix>
</trkpt>
<trkpt lat="40.0708492" lon="-105.2298651">
  <ele>1582.99</ele>
  <time>2026-09-02T20:50:50Z</time>
  <course>130.88</course>
  <speed>0.9859513172565875</speed>
  <fix>3d</fix>
</trkpt>
<trkpt lat="40.0708498" lon="-105.2298661">
  <ele>1582.99</ele>
  <time>2026-09-02T20:50:50Z</time>
  <course>130.44</course>
  <speed>0.98</speed>
  <fix>3d</fix>
</trkpt>
<trkpt lat="40.0708486" lon="-105.2298642">
  <ele>1582.99</ele>
  <time>2026-09-02T20:50:50Z</time>
  <course>131.35</course>
  <speed>0.9990495483208028</speed>
  <fix>3d</fix>
</trkpt>
<trkpt lat="40.0708498" lon="-105.2298661">
  <ele>1582.99</ele>
  <time>2026-09-02T20:50:50Z</time>
  <course>130.44</course>
  <speed>0.98</speed>
  <fix>3d</fix>
</trkpt>
<trkpt lat="40.070848" lon="-105.2298634">
  <ele>1582.99</ele>
  <time>2026-09-02T20:50:50Z</time>
  <course>131.92</course>
  <speed>0.9915644204992432</speed>
  <fix>3d</fix>
</trkpt>
<trkpt lat="40.0708486" lon="-105.2298643">
  <ele>1582.99</ele>
  <time>2026-09-02T20:50:50Z</time>
  <course>131.26</course>
  <speed>0.99</speed>
  <fix>3d</fix>
</trkpt>
<trkpt lat="40.0708474" lon="-105.2298625">
  <ele>1582.99</ele>
  <time>2026-09-02T20:50:50Z</time>
  <course>132.61</course>
  <speed>0.9982484660644363</speed>
  <fix>3d</fix>
</trkpt>
<trkpt lat="40.0708486" lon="-105.2298643">
  <ele>1582.99</ele>
  <time>2026-09-02T20:50:50Z</time>
  <course>131.26</course>
  <speed>0.99</speed>
  <fix>3d</fix>
</trkpt>
<trkpt lat="40.0708468" lon="-105.2298617">
  <ele>1582.99</ele>
  <time>2026-09-02T20:50:50Z</time>
  <course>133.43</course>
  <speed>0.9903534722511957</speed>
  <fix>3d</fix>
</trkpt>
<trkpt lat="40.0708474" lon="-105.2298625">
  <ele>1582.99</ele>
  <time>2026-09-02T20:50:50Z</time>
  <course>132.54</course>
  <speed>0.99</speed>
  <fix>3d</fix>
</trkpt>
<trkpt lat="40.0708462" lon="-105.2298608">
  <ele>1582.99</ele>
  <time>2026-09-02T20:50:50Z</time>
  <course>134.37</course>
  <speed>1.0041912168506553</speed>
  <fix>3d</fix>
</trkpt>
<trkpt lat="40.0708474" lon="-105.2298625">
  <ele>1582.99</ele>
  <time>2026-09-02T20:50:50Z</time>
  <course>132.54</course>
  <speed>0.99</speed>
  <fix>3d</fix>
</trkpt>
<trkpt lat="40.0708456" lon="-105.22986">
  <ele>1582.99</ele>
  <time>2026-09-02T20:50:50Z</time>
  <course>135.44</course>
  <speed>0.9829038610159185</speed>
  <fix>3d</fix>
</trkpt>
<trkpt lat="40.0708462" lon="-105.2298608">
  <ele>1582.99</ele>
  <time>2026-09-02T20:50:50Z</time>
  <course>134.3</course>
  <speed>0.99</speed>
  <fix>3d</fix>
</trkpt>
<trkpt lat="40.0708447" lon="-105.2298589">
  <ele>1582.99</ele>
  <time>2026-09-02T20:50:50Z</time>
  <course>136.85</course>
  <speed>0.9903534722511957</speed>
  <fix>3d</fix>
</trkpt>
<trkpt lat="40.0708462" lon="-105.2298608">
  <ele>1582.99</ele>
  <time>2026-09-02T20:50:50Z</time>
  <course>134.3</course>
  <speed>0.99</speed>
  <fix>3d</fix>
</trkpt>
<trkpt lat="40.070844" lon="-105.2298582">
  <ele>1582.99</ele>
  <time>2026-09-02T20:50:50Z</time>
  <course>138.0</course>
  <speed>0.9841239759298622</speed>
  <fix>3d</fix>
</trkpt>
<trkpt lat="40.0708449" lon="-105.2298591">
  <ele>1582.99</ele>
  <time>2026-09-02T20:50:50Z</time>
  <course>136.48</course>
  <speed>0.99</speed>
  <fix>3d</fix>
</trkpt>
<trkpt lat="40.0708434" lon="-105.2298574">
  <ele>1582.99</ele>
  <time>2026-09-02T20:50:50Z</time>
  <course>139.07</course>
  <speed>0.9924716620639604</speed>
  <fix>3d</fix>
</trkpt>
<trkpt lat="40.0708449" lon="-105.2298591">
  <ele>1582.99</ele>
  <time>2026-09-02T20:50:50Z</time>
  <course>136.48</course>
  <speed>0.99</speed>
  <fix>3d</fix>
</trkpt>
<trkpt lat="40.0708428" lon="-105.2298567">
  <ele>1582.99</ele>
  <time>2026-09-02T20:50:50Z</time>
  <course>140.08</course>
  <speed>0.9935793878699377</speed>
  <fix>3d</fix>
</trkpt>
<trkpt lat="40.0708435" lon="-105.2298576">
  <ele>1582.99</ele>
  <time>2026-09-02T20:50:50Z</time>
  <course>138.71</course>
  <speed>0.99</speed>
  <fix>3d</fix>
</trkpt>
<trkpt lat="40.0708421" lon="-105.2298558">
  <ele>1582.99</ele>
  <time>2026-09-02T20:50:50Z</time>
  <course>141.01</course>
  <speed>0.9885848471426213</speed>
  <fix>3d</fix>
</trkpt>
<trkpt lat="40.0708435" lon="-105.2298576">
  <ele>1582.99</ele>
  <time>2026-09-02T20:50:50Z</time>
  <course>138.71</course>
  <speed>0.99</speed>
  <fix>3d</fix>
</trkpt>
<trkpt lat="40.0708414" lon="-105.2298551">
  <ele>1582.99</ele>
  <time>2026-09-02T20:50:50Z</time>
  <course>141.85</course>
  <speed>0.9902019995940222</speed>
  <fix>3d</fix>
</trkpt>
<trkpt lat="40.0708422" lon="-105.229856">
  <ele>1582.99</ele>
  <time>2026-09-02T20:50:50Z</time>
  <course>140.67</course>
  <speed>0.99</speed>
  <fix>3d</fix>
</trkpt>
<trkpt lat="40.0708407" lon="-105.2298545">
  <ele>1582.99</ele>
  <time>2026-09-02T20:50:50Z</time>
  <course>142.59</course>
  <speed>0.9920181449953424</speed>
  <fix>3d</fix>
</trkpt>
<trkpt lat="40.0708422" lon="-105.229856">
  <ele>1582.99</ele>
  <time>2026-09-02T20:50:50Z</time>
  <course>140.67</course>
  <speed>0.99</speed>
  <fix>3d</fix>
</trkpt>
<trkpt lat="40.0708399" lon="-105.2298538">
  <ele>1582.99</ele>
  <time>2026-09-02T20:50:50Z</time>
  <course>143.24</course>
  <speed>0.9860020283954795</speed>
  <fix>3d</fix>
</trkpt>
<trkpt lat="40.0708408" lon="-105.2298546">
  <ele>1582.99</ele>
  <time>2026-09-02T20:50:50Z</time>
  <course>142.29</course>
  <speed>0.99</speed>
  <fix>3d</fix>
</trkpt>
<trkpt lat="40.0708391" lon="-105.2298531">
  <ele>1582.99</ele>
  <time>2026-09-02T20:50:50Z</time>
  <course>143.79</course>
  <speed>0.9940321926376429</speed>
  <fix>3d</fix>
</trkpt>
<trkpt lat="40.0708408" lon="-105.2298546">
  <ele>1582.99</ele>
  <time>2026-09-02T20:50:50Z</time>
  <course>142.29</course>
  <speed>0.99</speed>
  <fix>3d</fix>
</trkpt>
<trkpt lat="40.0708385" lon="-105.2298524">
  <ele>1582.99</ele>
  <time>2026-09-02T20:50:50Z</time>
  <course>144.22</course>
  <speed>0.98812954616285</speed>
  <fix>3d</fix>
</trkpt>
<trkpt lat="40.0708393" lon="-105.2298531">
  <ele>1582.99</ele>
  <time>2026-09-02T20:50:50Z</time>
  <course>143.51</course>
  <speed>0.99</speed>
  <fix>3d</fix>
</trkpt>
<trkpt lat="40.0708378" lon="-105.2298517">
  <ele>1582.99</ele>
  <time>2026-09-02T20:50:50Z</time>
  <course>144.55</course>
  <speed>0.9962429422585637</speed>
  <fix>3d</fix>
</trkpt>
<trkpt lat="40.0708393" lon="-105.2298531">
  <ele>1582.99</ele>
  <time>2026-09-02T20:50:50Z</time>
  <course>143.51</course>
  <speed>0.99</speed>
  <fix>3d</fix>
</trkpt>
<trkpt lat="40.0708372" lon="-105.2298512">
  <ele>1582.99</ele>
  <time>2026-09-02T20:50:50Z</time>
  <course>144.79</course>
  <speed>0.9904544411531506</speed>
  <fix>3d</fix>
</trkpt>
<trkpt lat="40.0708379" lon="-105.2298518">
  <ele>1582.99</ele>
  <time>2026-09-02T20:50:50Z</time>
  <course>144.34</course>
  <speed>0.99</speed>
  <fix>3d</fix>
</trkpt>
<trkpt lat="40.0708365" lon="-105.2298505">
  <ele>1582.99</ele>
  <time>2026-09-02T20:50:50Z</time>
  <course>145.07</course>
  <speed>0.9904544411531506</speed>
  <fix>3d</fix>
</trkpt>
<trkpt lat="40.0708379" lon="-105.2298518">
  <ele>1582.99</ele>
  <time>2026-09-02T20:50:50Z</time>
  <course>144.34</course>
  <speed>0.99</speed>
  <fix>3d</fix>
</trkpt>
<trkpt lat="40.0708356" lon="-105.2298498">
  <ele>1582.99</ele>
  <time>2026-09-02T20:50:50Z</time>
  <course>145.33</course>
  <speed>0.984733466477097</speed>
  <fix>3d</fix>
</trkpt>
<trkpt lat="40.0708364" lon="-105.2298505">
  <ele>1582.99</ele>
  <time>2026-09-02T20:50:50Z</time>
  <course>144.94</course>
  <speed>0.99</speed>
  <fix>3d</fix>
</trkpt>
<trkpt lat="40.0708349" lon="-105.2298491">
  <ele>1582.99</ele>
  <time>2026-09-02T20:50:50Z</time>
  <course>145.57</course>
  <speed>0.9986490875177325</speed>
  <fix>3d</fix>
</trkpt>
<trkpt lat="40.0708364" lon="-105.2298505">
  <ele>1582.99</ele>
  <time>2026-09-02T20:50:50Z</time>
  <course>144.94</course>
  <speed>0.99</speed>
  <fix>3d</fix>
</trkpt>
<trkpt lat="40.0708342" lon="-105.2298484">
  <ele>1582.99</ele>
  <time>2026-09-02T20:50:50Z</time>
  <course>145.79</course>
  <speed>0.9873702446397704</speed>
  <fix>3d</fix>
</trkpt>
<trkpt lat="40.0708349" lon="-105.2298491">
  <ele>1582.99</ele>
  <time>2026-09-02T20:50:50Z</time>
  <course>145.44</course>
  <speed>0.99</speed>
  <fix>3d</fix>
</trkpt>
<trkpt lat="40.0708335" lon="-105.2298478">
  <ele>1582.99</ele>
  <time>2026-09-02T20:50:50Z</time>
  <course>146.0</course>
  <speed>1.0012492197250393</speed>
  <fix>3d</fix>
</trkpt>
<trkpt lat="40.0708349" lon="-105.2298491">
  <ele>1582.99</ele>
  <time>2026-09-02T20:50:50Z</time>
  <course>145.44</course>
  <speed>0.99</speed>
  <fix>3d</fix>
</trkpt>
<trkpt lat="40.0708328" lon="-105.2298472">
  <ele>1582.99</ele>
  <time>2026-09-02T20:50:50Z</time>
  <course>146.19</course>
  <speed>0.9873702446397704</speed>
  <fix>3d</fix>
</trkpt>
<trkpt lat="40.0708335" lon="-105.2298478">
  <ele>1582.99</ele>
  <time>2026-09-02T20:50:50Z</time>
  <course>145.87</course>
  <speed>0.99</speed>
  <fix>3d</fix>
</trkpt>
<trkpt lat="40.0708319" lon="-105.2298464">
  <ele>1582.99</ele>
  <time>2026-09-02T20:50:50Z</time>
  <course>146.37</course>
  <speed>0.9956907150315303</speed>
  <fix>3d</fix>
</trkpt>
<trkpt lat="40.0708335" lon="-105.2298478">
  <ele>1582.99</ele>
  <time>2026-09-02T20:50:50Z</time>
  <course>145.87</course>
  <speed>0.99</speed>
  <fix>3d</fix>
</trkpt>
<trkpt lat="40.0708312" lon="-105.2298459">
  <ele>1582.99</ele>
  <time>2026-09-02T20:50:50Z</time>
  <course>146.52</course>
  <speed>0.9956907150315303</speed>
  <fix>3d</fix>
</trkpt>
<trkpt lat="40.070832" lon="-105.2298465">
  <ele>1582.99</ele>
  <time>2026-09-02T20:50:50Z</time>
  <course>146.24</course>
  <speed>0.99</speed>
  <fix>3d</fix>
</trkpt>
<trkpt lat="40.0708305" lon="-105.2298452">
  <ele>1582.99</ele>
  <time>2026-09-02T20:50:50Z</time>
  <course>146.67</course>
  <speed>0.9956907150315303</speed>
  <fix>3d</fix>
</trkpt>
<trkpt lat="40.070832" lon="-105.2298465">
  <ele>1582.99</ele>
  <time>2026-09-02T20:50:50Z</time>
  <course>146.24</course>
  <speed>0.99</speed>
  <fix>3d</fix>
</trkpt>
<trkpt lat="40.0708295" lon="-105.2298443">
  <ele>1582.99</ele>
  <time>2026-09-02T20:50:50Z</time>
  <course>146.81</course>
  <speed>0.9818350166906862</speed>
  <fix>3d</fix>
</trkpt>
<trkpt lat="40.0708305" lon="-105.2298452">
  <ele>1582.99</ele>
  <time>2026-09-02T20:50:50Z</time>
  <course>146.53</course>
  <speed>0.99</speed>
  <fix>3d</fix>
</trkpt>
<trkpt lat="40.0708288" lon="-105.2298438">
  <ele>1582.99</ele>
  <time>2026-09-02T20:50:50Z</time>
  <course>146.93</course>
  <speed>1.004041831797859</speed>
  <fix>3d</fix>
</trkpt>
<trkpt lat="40.0708305" lon="-105.2298452">
  <ele>1582.99</ele>
  <time>2026-09-02T20:50:50Z</time>
  <course>146.53</course>
  <speed>0.99</speed>
  <fix>3d</fix>
</trkpt>
<trkpt lat="40.0708281" lon="-105.2298431">
  <ele>1582.99</ele>
  <time>2026-09-02T20:50:50Z</time>
  <course>147.02</course>
  <speed>0.9902019995940222</speed>
  <fix>3d</fix>
</trkpt>
<trkpt lat="40.070829" lon="-105.2298439">
  <ele>1582.99</ele>
  <time>2026-09-02T20:50:50Z</time>
  <course>146.77</course>
  <speed>0.99</speed>
  <fix>3d</fix>
</trkpt>
<trkpt lat="40.0708274" lon="-105.2298424">
  <ele>1582.99</ele>
  <time>2026-09-02T20:50:50Z</time>
  <course>147.11</course>
  <speed>0.9985990186255943</speed>
  <fix>3d</fix>
</trkpt>
<trkpt lat="40.070829" lon="-105.2298439">
  <ele>1582.99</ele>
  <time>2026-09-02T20:50:50Z</time>
  <course>146.77</course>
  <speed>0.99</speed>
  <fix>3d</fix>
</trkpt>
<trkpt lat="40.0708265" lon="-105.2298419">
  <ele>1582.99</ele>
  <time>2026-09-02T20:50:50Z</time>
  <course>147.18</course>
  <speed>0.9847842403288144</speed>
  <fix>3d</fix>
</trkpt>
<trkpt lat="40.0708275" lon="-105.2298426">
  <ele>1582.99</ele>
  <time>2026-09-02T20:50:50Z</time>
  <course>146.96</course>
  <speed>0.99</speed>
  <fix>3d</fix>
</trkpt>
<trkpt lat="40.0708258" lon="-105.2298412">
  <ele>1582.99</ele>
  <time>2026-09-02T20:50:50Z</time>
  <course>147.25</course>
  <speed>0.9985990186255943</speed>
  <fix>3d</fix>
</trkpt>
<trkpt lat="40.0708275" lon="-105.2298426">
  <ele>1582.99</ele>
  <time>2026-09-02T20:50:50Z</time>
  <course>146.96</course>
  <speed>0.99</speed>
  <fix>3d</fix>
</trkpt>
<trkpt lat="40.0708251" lon="-105.2298405">
  <ele>1582.99</ele>
  <time>2026-09-02T20:50:50Z</time>
  <course>147.29</course>
  <speed>0.9847842403288144</speed>
  <fix>3d</fix>
</trkpt>
<trkpt lat="40.0708259" lon="-105.2298413">
  <ele>1582.99</ele>
  <time>2026-09-02T20:50:50Z</time>
  <course>147.1</course>
  <speed>0.99</speed>
  <fix>3d</fix>
</trkpt>
<trkpt lat="40.0708243" lon="-105.22984">
  <ele>1582.99</ele>
  <time>2026-09-02T20:50:50Z</time>
  <course>147.33</course>
  <speed>0.9985990186255943</speed>
  <fix>3d</fix>
</trkpt>
<trkpt lat="40.0708259" lon="-105.2298413">
  <ele>1582.99</ele>
  <time>2026-09-02T20:50:50Z</time>
  <course>147.1</course>
  <speed>0.99</speed>
  <fix>3d</fix>
</trkpt>
<trkpt lat="40.0708236" lon="-105.2298393">
  <ele>1582.99</ele>
  <time>2026-09-02T20:50:50Z</time>
  <course>147.37</course>
  <speed>0.9847842403288144</speed>
  <fix>3d</fix>
</trkpt>
<trkpt lat="40.0708244" lon="-105.22984">
  <ele>1582.99</ele>
  <time>2026-09-02T20:50:50Z</time>
  <course>147.2</course>
  <speed>0.99</speed>
  <fix>3d</fix>
</trkpt>
<trkpt lat="40.0708227" lon="-105.2298387">
  <ele>1582.99</ele>
  <time>2026-09-02T20:50:50Z</time>
  <course>147.4</course>
  <speed>0.9847842403288144</speed>
  <fix>3d</fix>
</trkpt>
<trkpt lat="40.0708244" lon="-105.22984">
  <ele>1582.99</ele>
  <time>2026-09-02T20:50:50Z</time>
  <course>147.2</course>
  <speed>0.99</speed>
  <fix>3d</fix>
</trkpt>
<trkpt lat="40.0708221" lon="-105.2298381">
  <ele>1582.99</ele>
  <time>2026-09-02T20:50:50Z</time>
  <course>147.41</course>
  <speed>0.9985990186255943</speed>
  <fix>3d</fix>
</trkpt>
<trkpt lat="40.0708229" lon="-105.2298387">
  <ele>1582.99</ele>
  <time>2026-09-02T20:50:50Z</time>
  <course>147.26</course>
  <speed>0.99</speed>
  <fix>3d</fix>
</trkpt>
<trkpt lat="40.0708215" lon="-105.2298375">
  <ele>1582.99</ele>
  <time>2026-09-02T20:50:50Z</time>
  <course>147.42</course>
  <speed>0.9985990186255943</speed>
  <fix>3d</fix>
</trkpt>
<trkpt lat="40.0708229" lon="-105.2298387">
  <ele>1582.99</ele>
  <time>2026-09-02T20:50:50Z</time>
  <course>147.26</course>
  <speed>0.99</speed>
  <fix>3d</fix>
</trkpt>
<trkpt lat="40.0708207" lon="-105.2298369">
  <ele>1582.99</ele>
  <time>2026-09-02T20:50:50Z</time>
  <course>147.43</course>
  <speed>0.9847842403288144</speed>
  <fix>3d</fix>
</trkpt>
<trkpt lat="40.0708214" lon="-105.2298375">
  <ele>1582.99</ele>
  <time>2026-09-02T20:50:50Z</time>
  <course>147.29</course>
  <speed>0.99</speed>
  <fix>3d</fix>
</trkpt>
<trkpt lat="40.07082" lon="-105.2298363">
  <ele>1582.99</ele>
  <time>2026-09-02T20:50:50Z</time>
  <course>147.42</course>
  <speed>0.9985990186255943</speed>
  <fix>3d</fix>
</trkpt>
<trkpt lat="40.0708214" lon="-105.2298375">
  <ele>1582.99</ele>
  <time>2026-09-02T20:50:50Z</time>
  <course>147.29</course>
  <speed>0.99</speed>
  <fix>3d</fix>
</trkpt>
<trkpt lat="40.0708191" lon="-105.2298356">
  <ele>1582.99</ele>
  <time>2026-09-02T20:50:50Z</time>
  <course>147.41</course>
  <speed>0.9847842403288144</speed>
  <fix>3d</fix>
</trkpt>
<trkpt lat="40.0708199" lon="-105.2298362">
  <ele>1582.99</ele>
  <time>2026-09-02T20:50:50Z</time>
  <course>147.29</course>
  <speed>0.99</speed>
  <fix>3d</fix>
</trkpt>
<trkpt lat="40.0708184" lon="-105.229835">
  <ele>1582.99</ele>
  <time>2026-09-02T20:50:50Z</time>
  <course>147.4</course>
  <speed>0.9985990186255943</speed>
  <fix>3d</fix>
</trkpt>
<trkpt lat="40.0708199" lon="-105.2298362">
  <ele>1582.99</ele>
  <time>2026-09-02T20:50:50Z</time>
  <course>147.29</course>
  <speed>0.99</speed>
  <fix>3d</fix>
</trkpt>
<trkpt lat="40.0708177" lon="-105.2298344">
  <ele>1582.99</ele>
  <time>2026-09-02T20:50:50Z</time>
  <course>147.38</course>
  <speed>0.9847842403288144</speed>
  <fix>3d</fix>
</trkpt>
<trkpt lat="40.0708184" lon="-105.229835">
  <ele>1582.99</ele>
  <time>2026-09-02T20:50:50Z</time>
  <course>147.27</course>
  <speed>0.99</speed>
  <fix>3d</fix>
</trkpt>
<trkpt lat="40.0708168" lon="-105.2298337">
  <ele>1583.0</ele>
  <time>2026-09-02T20:50:50Z</time>
  <course>147.36</course>
  <speed>0.9985990186255943</speed>
  <fix>3d</fix>
</trkpt>
<trkpt lat="40.0708184" lon="-105.229835">
  <ele>1582.99</ele>
  <time>2026-09-02T20:50:50Z</time>
  <course>147.27</course>
  <speed>0.99</speed>
  <fix>3d</fix>
</trkpt>
<trkpt lat="40.0708161" lon="-105.229833">
  <ele>1582.99</ele>
  <time>2026-09-02T20:50:50Z</time>
  <course>147.32</course>
  <speed>0.9847842403288144</speed>
  <fix>3d</fix>
</trkpt>
<trkpt lat="40.0708169" lon="-105.2298337">
  <ele>1582.99</ele>
  <time>2026-09-02T20:50:50Z</time>
  <course>147.23</course>
  <speed>0.99</speed>
  <fix>3d</fix>
</trkpt>
<trkpt lat="40.0708154" lon="-105.2298325">
  <ele>1582.99</ele>
  <time>2026-09-02T20:50:50Z</time>
  <course>147.29</course>
  <speed>0.9985990186255943</speed>
  <fix>3d</fix>
</trkpt>
<trkpt lat="40.0708169" lon="-105.2298337">
  <ele>1582.99</ele>
  <time>2026-09-02T20:50:50Z</time>
  <course>147.23</course>
  <speed>0.99</speed>
  <fix>3d</fix>
</trkpt>
<trkpt lat="40.0708147" lon="-105.2298318">
  <ele>1582.99</ele>
  <time>2026-09-02T20:50:50Z</time>
  <course>147.26</course>
  <speed>0.9902019995940222</speed>
  <fix>3d</fix>
</trkpt>
<trkpt lat="40.0708154" lon="-105.2298324">
  <ele>1582.99</ele>
  <time>2026-09-02T20:50:50Z</time>
  <course>147.16</course>
  <speed>0.99</speed>
  <fix>3d</fix>
</trkpt>
<trkpt lat="40.0708137" lon="-105.2298311">
  <ele>1582.99</ele>
  <time>2026-09-02T20:50:50Z</time>
  <course>147.21</course>
  <speed>0.9902019995940222</speed>
  <fix>3d</fix>
</trkpt>
<trkpt lat="40.0708154" lon="-105.2298324">
  <ele>1582.99</ele>
  <time>2026-09-02T20:50:50Z</time>
  <course>147.16</course>
  <speed>0.99</speed>
  <fix>3d</fix>
</trkpt>
<trkpt lat="40.070813" lon="-105.2298304">
  <ele>1582.99</ele>
  <time>2026-09-02T20:50:50Z</time>
  <course>147.16</course>
  <speed>0.9902019995940222</speed>
  <fix>3d</fix>
</trkpt>
<trkpt lat="40.0708139" lon="-105.2298312">
  <ele>1582.99</ele>
  <time>2026-09-02T20:50:50Z</time>
  <course>147.08</course>
  <speed>0.99</speed>
  <fix>3d</fix>
</trkpt>
<trkpt lat="40.0708123" lon="-105.2298297">
  <ele>1582.99</ele>
  <time>2026-09-02T20:50:50Z</time>
  <course>147.11</course>
  <speed>0.9985990186255943</speed>
  <fix>3d</fix>
</trkpt>
<trkpt lat="40.0708139" lon="-105.2298312">
  <ele>1582.99</ele>
  <time>2026-09-02T20:50:50Z</time>
  <course>147.08</course>
  <speed>0.99</speed>
  <fix>3d</fix>
</trkpt>
<trkpt lat="40.0708115" lon="-105.2298292">
  <ele>1582.99</ele>
  <time>2026-09-02T20:50:50Z</time>
  <course>147.07</course>
  <speed>0.9902019995940222</speed>
  <fix>3d</fix>
</trkpt>
<trkpt lat="40.0708124" lon="-105.2298299">
  <ele>1582.99</ele>
  <time>2026-09-02T20:50:50Z</time>
  <course>146.99</course>
  <speed>0.99</speed>
  <fix>3d</fix>
</trkpt>
<trkpt lat="40.0708107" lon="-105.2298285">
  <ele>1582.99</ele>
  <time>2026-09-02T20:50:50Z</time>
  <course>147.02</course>
  <speed>0.9985990186255943</speed>
  <fix>3d</fix>
</trkpt>
<trkpt lat="40.0708124" lon="-105.2298299">
  <ele>1582.99</ele>
  <time>2026-09-02T20:50:50Z</time>
  <course>146.99</course>
  <speed>0.99</speed>
  <fix>3d</fix>
</trkpt>
<trkpt lat="40.07081" lon="-105.2298278">
  <ele>1582.99</ele>
  <time>2026-09-02T20:50:50Z</time>
  <course>146.95</course>
  <speed>0.9902019995940222</speed>
  <fix>3d</fix>
</trkpt>
<trkpt lat="40.0708109" lon="-105.2298286">
  <ele>1582.99</ele>
  <time>2026-09-02T20:50:50Z</time>
  <course>146.89</course>
  <speed>0.99</speed>
  <fix>3d</fix>
</trkpt>
<trkpt lat="40.0708093" lon="-105.2298271">
  <ele>1582.99</ele>
  <time>2026-09-02T20:50:50Z</time>
  <course>146.86</course>
  <speed>0.9956907150315303</speed>
  <fix>3d</fix>
</trkpt>
<trkpt lat="40.0708109" lon="-105.2298286">
  <ele>1582.99</ele>
  <time>2026-09-02T20:50:50Z</time>
  <course>146.89</course>
  <speed>0.99</speed>
  <fix>3d</fix>
</trkpt>
<trkpt lat="40.0708085" lon="-105.2298266">
  <ele>1582.99</ele>
  <time>2026-09-02T20:50:50Z</time>
  <course>146.75</course>
  <speed>0.9902019995940222</speed>
  <fix>3d</fix>
</trkpt>
<trkpt lat="40.0708094" lon="-105.2298273">
  <ele>1582.99</ele>
  <time>2026-09-02T20:50:50Z</time>
  <course>146.74</course>
  <speed>0.99</speed>
  <fix>3d</fix>
</trkpt>
<trkpt lat="40.0708078" lon="-105.2298259">
  <ele>1582.99</ele>
  <time>2026-09-02T20:50:50Z</time>
  <course>146.59</course>
  <speed>0.9956907150315303</speed>
  <fix>3d</fix>
</trkpt>
<trkpt lat="40.0708094" lon="-105.2298273">
  <ele>1582.99</ele>
  <time>2026-09-02T20:50:50Z</time>
  <course>146.74</course>
  <speed>0.99</speed>
  <fix>3d</fix>
</trkpt>
<trkpt lat="40.0708069" lon="-105.2298253">
  <ele>1582.99</ele>
  <time>2026-09-02T20:50:50Z</time>
  <course>146.42</course>
  <speed>0.9873702446397704</speed>
  <fix>3d</fix>
</trkpt>
<trkpt lat="40.0708079" lon="-105.229826">
  <ele>1582.99</ele>
  <time>2026-09-02T20:50:50Z</time>
  <course>146.48</course>
  <speed>0.99</speed>
  <fix>3d</fix>
</trkpt>
<trkpt lat="40.0708063" lon="-105.2298246">
  <ele>1582.99</ele>
  <time>2026-09-02T20:50:50Z</time>
  <course>146.21</course>
  <speed>0.9956907150315303</speed>
  <fix>3d</fix>
</trkpt>
<trkpt lat="40.0708079" lon="-105.229826">
  <ele>1582.99</ele>
  <time>2026-09-02T20:50:50Z</time>
  <course>146.48</course>
  <speed>0.99</speed>
  <fix>3d</fix>
</trkpt>
<trkpt lat="40.0708057" lon="-105.2298241">
  <ele>1582.99</ele>
  <time>2026-09-02T20:50:50Z</time>
  <course>146.02</course>
  <speed>0.9873702446397704</speed>
  <fix>3d</fix>
</trkpt>
<trkpt lat="40.0708064" lon="-105.2298247">
  <ele>1582.99</ele>
  <time>2026-09-02T20:50:50Z</time>
  <course>146.1</course>
  <speed>0.99</speed>
  <fix>3d</fix>
</trkpt>
<trkpt lat="40.0708049" lon="-105.2298234">
  <ele>1582.99</ele>
  <time>2026-09-02T20:50:50Z</time>
  <course>145.75</course>
  <speed>0.9929753269845127</speed>
  <fix>3d</fix>
</trkpt>
<trkpt lat="40.0708064" lon="-105.2298247">
  <ele>1582.99</ele>
  <time>2026-09-02T20:50:50Z</time>
  <course>146.1</course>
  <speed>0.99</speed>
  <fix>3d</fix>
</trkpt>
<trkpt lat="40.0708042" lon="-105.2298227">
  <ele>1582.99</ele>
  <time>2026-09-02T20:50:50Z</time>
  <course>145.46</course>
  <speed>0.984733466477097</speed>
  <fix>3d</fix>
</trkpt>
<trkpt lat="40.0708049" lon="-105.2298234">
  <ele>1582.99</ele>
  <time>2026-09-02T20:50:50Z</time>
  <course>145.6</course>
  <speed>0.99</speed>
  <fix>3d</fix>
</trkpt>
<trkpt lat="40.0708033" lon="-105.229822">
  <ele>1582.99</ele>
  <time>2026-09-02T20:50:50Z</time>
  <course>145.12</course>
  <speed>0.9986490875177325</speed>
  <fix>3d</fix>
</trkpt>
<trkpt lat="40.0708049" lon="-105.2298234">
  <ele>1582.99</ele>
  <time>2026-09-02T20:50:50Z</time>
  <course>145.6</course>
  <speed>0.99</speed>
  <fix>3d</fix>
</trkpt>
<trkpt lat="40.0708027" lon="-105.2298213">
  <ele>1582.99</ele>
  <time>2026-09-02T20:50:50Z</time>
  <course>144.78</course>
  <speed>1.0043903623591774</speed>
  <fix>3d</fix>
</trkpt>
<trkpt lat="40.0708034" lon="-105.229822">
  <ele>1582.99</ele>
  <time>2026-09-02T20:50:50Z</time>
  <course>144.97</course>
  <speed>1.0</speed>
  <fix>3d</fix>
</trkpt>
<trkpt lat="40.0708019" lon="-105.2298206">
  <ele>1582.99</ele>
  <time>2026-09-02T20:50:50Z</time>
  <course>144.46</course>
  <speed>1.0322790320451152</speed>
  <fix>3d</fix>
</trkpt>
<trkpt lat="40.0708034" lon="-105.229822">
  <ele>1582.99</ele>
  <time>2026-09-02T20:50:50Z</time>
  <course>144.97</course>
  <speed>1.0</speed>
  <fix>3d</fix>
</trkpt>
<trkpt lat="40.0708013" lon="-105.2298201">
  <ele>1582.99</ele>
  <time>2026-09-02T20:50:50Z</time>
  <course>144.15</course>
  <speed>0.866083136886985</speed>
  <fix>3d</fix>
</trkpt>
<trkpt lat="40.070802" lon="-105.2298207">
  <ele>1582.99</ele>
  <time>2026-09-02T20:50:50Z</time>
  <course>144.34</course>
  <speed>0.94</speed>
  <fix>3d</fix>
</trkpt>
<trkpt lat="40.0708007" lon="-105.2298194">
  <ele>1582.99</ele>
  <time>2026-09-02T20:50:50Z</time>
  <course>143.87</course>
  <speed>0.7940403012442127</speed>
  <fix>3d</fix>
</trkpt>
<trkpt lat="40.070802" lon="-105.2298207">
  <ele>1582.99</ele>
  <time>2026-09-02T20:50:50Z</time>
  <course>144.34</course>
  <speed>0.94</speed>
  <fix>3d</fix>
</trkpt>
<trkpt lat="40.0708001" lon="-105.2298189">
  <ele>1582.99</ele>
  <time>2026-09-02T20:50:50Z</time>
  <course>143.6</course>
  <speed>0.7360027173862879</speed>
  <fix>3d</fix>
</trkpt>
<trkpt lat="40.0708007" lon="-105.2298195">
  <ele>1582.99</ele>
  <time>2026-09-02T20:50:50Z</time>
  <course>143.72</course>
  <speed>0.8</speed>
  <fix>3d</fix>
</trkpt>
<trkpt lat="40.0707996" lon="-105.2298184">
  <ele>1582.99</ele>
  <time>2026-09-02T20:50:50Z</time>
  <course>143.35</course>
  <speed>0.7080254232723568</speed>
  <fix>3d</fix>
</trkpt>
<trkpt lat="40.0708007" lon="-105.2298195">
  <ele>1582.99</ele>
  <time>2026-09-02T20:50:50Z</time>
  <course>143.72</course>
  <speed>0.8</speed>
  <fix>3d</fix>
</trkpt>
<trkpt lat="40.070799" lon="-105.2298179">
  <ele>1582.99</ele>
  <time>2026-09-02T20:50:50Z</time>
  <course>143.08</course>
  <speed>0.6780117993073571</speed>
  <fix>3d</fix>
</trkpt>
<trkpt lat="40.0707996" lon="-105.2298184">
  <ele>1582.99</ele>
  <time>2026-09-02T20:50:50Z</time>
  <course>143.17</course>
  <speed>0.71</speed>
  <fix>3d</fix>
</trkpt>
<trkpt lat="40.0707984" lon="-105.2298174">
  <ele>1583.0</ele>
  <time>2026-09-02T20:50:50Z</time>
  <course>142.89</course>
  <speed>0.6780117993073571</speed>
  <fix>3d</fix>
</trkpt>
<trkpt lat="40.0707996" lon="-105.2298184">
  <ele>1582.99</ele>
  <time>2026-09-02T20:50:50Z</time>
  <course>143.17</course>
  <speed>0.71</speed>
  <fix>3d</fix>
</trkpt>
<trkpt lat="40.0707979" lon="-105.2298168">
  <ele>1583.0</ele>
  <time>2026-09-02T20:50:50Z</time>
  <course>142.72</course>
  <speed>0.6841052550594828</speed>
  <fix>3d</fix>
</trkpt>
<trkpt lat="40.0707985" lon="-105.2298175">
  <ele>1582.99</ele>
  <time>2026-09-02T20:50:50Z</time>
  <course>142.73</course>
  <speed>0.68</speed>
  <fix>3d</fix>
</trkpt>
<trkpt lat="40.0707975" lon="-105.2298163">
  <ele>1583.0</ele>
  <time>2026-09-02T20:50:50Z</time>
  <course>142.57</course>
  <speed>0.6920260110718383</speed>
  <fix>3d</fix>
</trkpt>
<trkpt lat="40.0707985" lon="-105.2298175">
  <ele>1582.99</ele>
  <time>2026-09-02T20:50:50Z</time>
  <course>142.73</course>
  <speed>0.68</speed>
  <fix>3d</fix>
</trkpt>
<trkpt lat="40.070797" lon="-105.2298158">
  <ele>1582.99</ele>
  <time>2026-09-02T20:50:50Z</time>
  <course>142.44</course>
  <speed>0.7200694410957876</speed>
  <fix>3d</fix>
</trkpt>
<trkpt lat="40.0707976" lon="-105.2298165">
  <ele>1582.99</ele>
  <time>2026-09-02T20:50:50Z</time>
  <course>142.4</course>
  <speed>0.7</speed>
  <fix>3d</fix>
</trkpt>
<trkpt lat="40.0707965" lon="-105.2298153">
  <ele>1582.99</ele>
  <time>2026-09-02T20:50:50Z</time>
  <course>142.33</course>
  <speed>0.7340980860893181</speed>
  <fix>3d</fix>
</trkpt>
<trkpt lat="40.0707976" lon="-105.2298165">
  <ele>1582.99</ele>
  <time>2026-09-02T20:50:50Z</time>
  <course>142.4</course>
  <speed>0.7</speed>
  <fix>3d</fix>
</trkpt>
<trkpt lat="40.0707959" lon="-105.2298148">
  <ele>1582.99</ele>
  <time>2026-09-02T20:50:50Z</time>
  <course>142.23</course>
  <speed>0.756042326857432</speed>
  <fix>3d</fix>
</trkpt>
<trkpt lat="40.0707965" lon="-105.2298154">
  <ele>1582.99</ele>
  <time>2026-09-02T20:50:50Z</time>
  <course>142.15</course>
  <speed>0.74</speed>
  <fix>3d</fix>
</trkpt>
<trkpt lat="40.0707954" lon="-105.2298141">
  <ele>1582.99</ele>
  <time>2026-09-02T20:50:50Z</time>
  <course>142.13</course>
  <speed>0.7840918313565064</speed>
  <fix>3d</fix>
</trkpt>
<trkpt lat="40.0707965" lon="-105.2298154">
  <ele>1582.99</ele>
  <time>2026-09-02T20:50:50Z</time>
  <course>142.15</course>
  <speed>0.74</speed>
  <fix>3d</fix>
</trkpt>
<trkpt lat="40.0707948" lon="-105.2298136">
  <ele>1582.99</ele>
  <time>2026-09-02T20:50:50Z</time>
  <course>142.05</course>
  <speed>0.7902531240052139</speed>
  <fix>3d</fix>
</trkpt>
<trkpt lat="40.0707954" lon="-105.2298143">
  <ele>1582.99</ele>
  <time>2026-09-02T20:50:50Z</time>
  <course>141.97</course>
  <speed>0.77</speed>
  <fix>3d</fix>
</trkpt>
<trkpt lat="40.0707942" lon="-105.2298131">
  <ele>1582.99</ele>
  <time>2026-09-02T20:50:50Z</time>
  <course>141.97</course>
  <speed>0.8121576201698781</speed>
  <fix>3d</fix>
</trkpt>
<trkpt lat="40.0707954" lon="-105.2298143">
  <ele>1582.99</ele>
  <time>2026-09-02T20:50:50Z</time>
  <course>141.97</course>
  <speed>0.77</speed>
  <fix>3d</fix>
</trkpt>
<trkpt lat="40.0707936" lon="-105.2298125">
  <ele>1582.99</ele>
  <time>2026-09-02T20:50:50Z</time>
  <course>141.9</course>
  <speed>0.8121576201698781</speed>
  <fix>3d</fix>
</trkpt>
<trkpt lat="40.0707943" lon="-105.2298132">
  <ele>1582.99</ele>
  <time>2026-09-02T20:50:50Z</time>
  <course>141.81</course>
  <speed>0.8</speed>
  <fix>3d</fix>
</trkpt>
<trkpt lat="40.0707932" lon="-105.229812">
  <ele>1582.99</ele>
  <time>2026-09-02T20:50:50Z</time>
  <course>141.84</course>
  <speed>0.8261961026293939</speed>
  <fix>3d</fix>
</trkpt>
<trkpt lat="40.0707943" lon="-105.2298132">
  <ele>1582.99</ele>
  <time>2026-09-02T20:50:50Z</time>
  <course>141.81</course>
  <speed>0.8</speed>
  <fix>3d</fix>
</trkpt>
<trkpt lat="40.0707926" lon="-105.2298113">
  <ele>1582.99</ele>
  <time>2026-09-02T20:50:50Z</time>
  <course>141.78</course>
  <speed>0.8261961026293939</speed>
  <fix>3d</fix>
</trkpt>
<trkpt lat="40.0707932" lon="-105.2298119">
  <ele>1582.99</ele>
  <time>2026-09-02T20:50:50Z</time>
  <course>141.67</course>
  <speed>0.82</speed>
  <fix>3d</fix>
</trkpt>
<trkpt lat="40.070792" lon="-105.2298108">
  <ele>1582.99</ele>
  <time>2026-09-02T20:50:50Z</time>
  <course>141.71</course>
  <speed>0.8402380615040002</speed>
  <fix>3d</fix>
</trkpt>
<trkpt lat="40.0707932" lon="-105.2298119">
  <ele>1582.99</ele>
  <time>2026-09-02T20:50:50Z</time>
  <course>141.67</course>
  <speed>0.82</speed>
  <fix>3d</fix>
</trkpt>
<trkpt lat="40.0707914" lon="-105.2298101">
  <ele>1582.99</ele>
  <time>2026-09-02T20:50:50Z</time>
  <course>141.64</course>
  <speed>0.8183520025025907</speed>
  <fix>3d</fix>
</trkpt>
<trkpt lat="40.070792" lon="-105.2298108">
  <ele>1582.99</ele>
  <time>2026-09-02T20:50:50Z</time>
  <course>141.53</course>
  <speed>0.83</speed>
  <fix>3d</fix>
</trkpt>
<trkpt lat="40.0707908" lon="-105.2298096">
  <ele>1582.99</ele>
  <time>2026-09-02T20:50:50Z</time>
  <course>141.57</course>
  <speed>0.8324061508662703</speed>
  <fix>3d</fix>
</trkpt>
<trkpt lat="40.070792" lon="-105.2298108">
  <ele>1582.99</ele>
  <time>2026-09-02T20:50:50Z</time>
  <course>141.53</course>
  <speed>0.83</speed>
  <fix>3d</fix>
</trkpt>
<trkpt lat="40.0707903" lon="-105.2298089">
  <ele>1582.99</ele>
  <time>2026-09-02T20:50:50Z</time>
  <course>141.5</course>
  <speed>0.8183520025025907</speed>
  <fix>3d</fix>
</trkpt>
<trkpt lat="40.0707908" lon="-105.2298095">
  <ele>1582.99</ele>
  <time>2026-09-02T20:50:50Z</time>
  <course>141.39</course>
  <speed>0.82</speed>
  <fix>3d</fix>
</trkpt>
<trkpt lat="40.0707897" lon="-105.2298083">
  <ele>1582.99</ele>
  <time>2026-09-02T20:50:50Z</time>
  <course>141.44</course>
  <speed>0.8246211251235321</speed>
  <fix>3d</fix>
</trkpt>
<trkpt lat="40.0707908" lon="-105.2298095">
  <ele>1582.99</ele>
  <time>2026-09-02T20:50:50Z</time>
  <course>141.39</course>
  <speed>0.82</speed>
  <fix>3d</fix>
</trkpt>
<trkpt lat="40.0707891" lon="-105.2298077">
  <ele>1582.99</ele>
  <time>2026-09-02T20:50:50Z</time>
  <course>141.38</course>
  <speed>0.8105553651663777</speed>
  <fix>3d</fix>
</trkpt>
<trkpt lat="40.0707897" lon="-105.2298083">
  <ele>1582.99</ele>
  <time>2026-09-02T20:50:50Z</time>
  <course>141.26</course>
  <speed>0.82</speed>
  <fix>3d</fix>
</trkpt>
<trkpt lat="40.0707885" lon="-105.2298071">
  <ele>1582.99</ele>
  <time>2026-09-02T20:50:50Z</time>
  <course>141.32</course>
  <speed>0.8105553651663777</speed>
  <fix>3d</fix>
</trkpt>
<trkpt lat="40.0707897" lon="-105.2298083">
  <ele>1582.99</ele>
  <time>2026-09-02T20:50:50Z</time>
  <course>141.26</course>
  <speed>0.82</speed>
  <fix>3d</fix>
</trkpt>
<trkpt lat="40.070788" lon="-105.2298065">
  <ele>1582.99</ele>
  <time>2026-09-02T20:50:50Z</time>
  <course>141.27</course>
  <speed>0.7964923100695951</speed>
  <fix>3d</fix>
</trkpt>
<trkpt lat="40.0707885" lon="-105.229807">
  <ele>1582.99</ele>
  <time>2026-09-02T20:50:50Z</time>
  <course>141.14</course>
  <speed>0.81</speed>
  <fix>3d</fix>
</trkpt>
<trkpt lat="40.0707873" lon="-105.2298058">
  <ele>1582.99</ele>
  <time>2026-09-02T20:50:50Z</time>
  <course>141.21</course>
  <speed>0.7964923100695951</speed>
  <fix>3d</fix>
</trkpt>
<trkpt lat="40.0707885" lon="-105.229807">
  <ele>1582.99</ele>
  <time>2026-09-02T20:50:50Z</time>
  <course>141.14</course>
  <speed>0.81</speed>
  <fix>3d</fix>
</trkpt>
<trkpt lat="40.0707867" lon="-105.2298052">
  <ele>1582.99</ele>
  <time>2026-09-02T20:50:50Z</time>
  <course>141.16</course>
  <speed>0.7964923100695951</speed>
  <fix>3d</fix>
</trkpt>
<trkpt lat="40.0707874" lon="-105.2298059">
  <ele>1582.99</ele>
  <time>2026-09-02T20:50:50Z</time>
  <course>141.04</course>
  <speed>0.8</speed>
  <fix>3d</fix>
</trkpt>
<trkpt lat="40.0707862" lon="-105.2298046">
  <ele>1582.99</ele>
  <time>2026-09-02T20:50:50Z</time>
  <course>141.11</course>
  <speed>0.7964923100695951</speed>
  <fix>3d</fix>
</trkpt>
<trkpt lat="40.0707874" lon="-105.2298059">
  <ele>1582.99</ele>
  <time>2026-09-02T20:50:50Z</time>
  <course>141.04</course>
  <speed>0.8</speed>
  <fix>3d</fix>
</trkpt>
<trkpt lat="40.0707856" lon="-105.229804">
  <ele>1582.99</ele>
  <time>2026-09-02T20:50:50Z</time>
  <course>141.08</course>
  <speed>0.7964923100695951</speed>
  <fix>3d</fix>
</trkpt>
<trkpt lat="40.0707862" lon="-105.2298047">
  <ele>1582.99</ele>
  <time>2026-09-02T20:50:50Z</time>
  <course>140.94</course>
  <speed>0.79</speed>
  <fix>3d</fix>
</trkpt>
<trkpt lat="40.070785" lon="-105.2298034">
  <ele>1582.99</ele>
  <time>2026-09-02T20:50:50Z</time>
  <course>141.04</course>
  <speed>0.7964923100695951</speed>
  <fix>3d</fix>
</trkpt>
<trkpt lat="40.0707862" lon="-105.2298047">
  <ele>1582.99</ele>
  <time>2026-09-02T20:50:50Z</time>
  <course>140.94</course>
  <speed>0.79</speed>
  <fix>3d</fix>
</trkpt>
<trkpt lat="40.0707844" lon="-105.2298028">
  <ele>1582.99</ele>
  <time>2026-09-02T20:50:50Z</time>
  <course>141.0</course>
  <speed>0.7887331614684399</speed>
  <fix>3d</fix>
</trkpt>
<trkpt lat="40.0707851" lon="-105.2298036">
  <ele>1582.99</ele>
  <time>2026-09-02T20:50:50Z</time>
  <course>140.86</course>
  <speed>0.79</speed>
  <fix>3d</fix>
</trkpt>
<trkpt lat="40.0707838" lon="-105.2298022">
  <ele>1582.99</ele>
  <time>2026-09-02T20:50:50Z</time>
  <course>140.97</course>
  <speed>0.7964923100695951</speed>
  <fix>3d</fix>
</trkpt>
<trkpt lat="40.0707851" lon="-105.2298036">
  <ele>1582.99</ele>
  <time>2026-09-02T20:50:50Z</time>
  <course>140.86</course>
  <speed>0.79</speed>
  <fix>3d</fix>
</trkpt>
<trkpt lat="40.0707833" lon="-105.2298017">
  <ele>1582.99</ele>
  <time>2026-09-02T20:50:50Z</time>
  <course>140.94</course>
  <speed>0.7887331614684399</speed>
  <fix>3d</fix>
</trkpt>
<trkpt lat="40.070784" lon="-105.2298023">
  <ele>1582.99</ele>
  <time>2026-09-02T20:50:50Z</time>
  <course>140.79</course>
  <speed>0.79</speed>
  <fix>3d</fix>
</trkpt>
<trkpt lat="40.0707827" lon="-105.229801">
  <ele>1582.99</ele>
  <time>2026-09-02T20:50:50Z</time>
  <course>140.92</course>
  <speed>0.7964923100695951</speed>
  <fix>3d</fix>
</trkpt>
<trkpt lat="40.070784" lon="-105.2298023">
  <ele>1582.99</ele>
  <time>2026-09-02T20:50:50Z</time>
  <course>140.79</course>
  <speed>0.79</speed>
  <fix>3d</fix>
</trkpt>
<trkpt lat="40.0707823" lon="-105.2298005">
  <ele>1582.99</ele>
  <time>2026-09-02T20:50:50Z</time>
  <course>140.89</course>
  <speed>0.7887331614684399</speed>
  <fix>3d</fix>
</trkpt>
<trkpt lat="40.0707829" lon="-105.2298012">
  <ele>1582.99</ele>
  <time>2026-09-02T20:50:50Z</time>
  <course>140.73</course>
  <speed>0.79</speed>
  <fix>3d</fix>
</trkpt>
<trkpt lat="40.0707817" lon="-105.2297998">
  <ele>1582.99</ele>
  <time>2026-09-02T20:50:50Z</time>
  <course>140.88</course>
  <speed>0.802807573457052</speed>
  <fix>3d</fix>
</trkpt>
<trkpt lat="40.0707829" lon="-105.2298012">
  <ele>1582.99</ele>
  <time>2026-09-02T20:50:50Z</time>
  <course>140.73</course>
  <speed>0.79</speed>
  <fix>3d</fix>
</trkpt>
<trkpt lat="40.0707813" lon="-105.2297993">
  <ele>1582.99</ele>
  <time>2026-09-02T20:50:50Z</time>
  <course>140.86</course>
  <speed>0.7887331614684399</speed>
  <fix>3d</fix>
</trkpt>
<trkpt lat="40.0707818" lon="-105.2297999">
  <ele>1582.99</ele>
  <time>2026-09-02T20:50:50Z</time>
  <course>140.69</course>
  <speed>0.79</speed>
  <fix>3d</fix>
</trkpt>
<trkpt lat="40.0707807" lon="-105.2297988">
  <ele>1582.99</ele>
  <time>2026-09-02T20:50:50Z</time>
  <course>140.84</course>
  <speed>0.802807573457052</speed>
  <fix>3d</fix>
</trkpt>
<trkpt lat="40.0707818" lon="-105.2297999">
  <ele>1582.99</ele>
  <time>2026-09-02T20:50:50Z</time>
  <course>140.69</course>
  <speed>0.79</speed>
  <fix>3d</fix>
</trkpt>
<trkpt lat="40.0707801" lon="-105.2297981">
  <ele>1582.99</ele>
  <time>2026-09-02T20:50:50Z</time>
  <course>140.83</course>
  <speed>0.7887331614684399</speed>
  <fix>3d</fix>
</trkpt>
<trkpt lat="40.0707807" lon="-105.2297988">
  <ele>1582.99</ele>
  <time>2026-09-02T20:50:50Z</time>
  <course>140.66</course>
  <speed>0.79</speed>
  <fix>3d</fix>
</trkpt>
<trkpt lat="40.0707796" lon="-105.2297976">
  <ele>1582.99</ele>
  <time>2026-09-02T20:50:50Z</time>
  <course>140.82</course>
  <speed>0.8105553651663777</speed>
  <fix>3d</fix>
</trkpt>
<trkpt lat="40.0707807" lon="-105.2297988">
  <ele>1582.99</ele>
  <time>2026-09-02T20:50:50Z</time>
  <course>140.66</course>
  <speed>0.79</speed>
  <fix>3d</fix>
</trkpt>
<trkpt lat="40.070779" lon="-105.2297969">
  <ele>1582.99</ele>
  <time>2026-09-02T20:50:50Z</time>
  <course>140.81</course>
  <speed>0.7887331614684399</speed>
  <fix>3d</fix>
</trkpt>
<trkpt lat="40.0707795" lon="-105.2297975">
  <ele>1582.99</ele>
  <time>2026-09-02T20:50:50Z</time>
  <course>140.63</course>
  <speed>0.79</speed>
  <fix>3d</fix>
</trkpt>
<trkpt lat="40.0707784" lon="-105.2297964">
  <ele>1582.99</ele>
  <time>2026-09-02T20:50:50Z</time>
  <course>140.8</course>
  <speed>0.802807573457052</speed>
  <fix>3d</fix>
</trkpt>
<trkpt lat="40.0707795" lon="-105.2297975">
  <ele>1582.99</ele>
  <time>2026-09-02T20:50:50Z</time>
  <course>140.63</course>
  <speed>0.79</speed>
  <fix>3d</fix>
</trkpt>
<trkpt lat="40.0707778" lon="-105.2297957">
  <ele>1582.99</ele>
  <time>2026-09-02T20:50:50Z</time>
  <course>140.79</course>
  <speed>0.7887331614684399</speed>
  <fix>3d</fix>
</trkpt>
<trkpt lat="40.0707784" lon="-105.2297964">
  <ele>1582.99</ele>
  <time>2026-09-02T20:50:50Z</time>
  <course>140.61</course>
  <speed>0.79</speed>
  <fix>3d</fix>
</trkpt>
<trkpt lat="40.0707772" lon="-105.2297952">
  <ele>1582.99</ele>
  <time>2026-09-02T20:50:50Z</time>
  <course>140.79</course>
  <speed>0.802807573457052</speed>
  <fix>3d</fix>
</trkpt>
<trkpt lat="40.0707784" lon="-105.2297964">
  <ele>1582.99</ele>
  <time>2026-09-02T20:50:50Z</time>
  <course>140.61</course>
  <speed>0.79</speed>
  <fix>3d</fix>
</trkpt>
<trkpt lat="40.0707768" lon="-105.2297945">
  <ele>1582.99</ele>
  <time>2026-09-02T20:50:50Z</time>
  <course>140.79</course>
  <speed>0.7887331614684399</speed>
  <fix>3d</fix>
</trkpt>
<trkpt lat="40.0707773" lon="-105.2297951">
  <ele>1582.99</ele>
  <time>2026-09-02T20:50:50Z</time>
  <course>140.6</course>
  <speed>0.79</speed>
  <fix>3d</fix>
</trkpt>
<trkpt lat="40.070776" lon="-105.2297938">
  <ele>1582.99</ele>
  <time>2026-09-02T20:50:50Z</time>
  <course>140.79</course>
  <speed>0.802807573457052</speed>
  <fix>3d</fix>
</trkpt>
<trkpt lat="40.0707773" lon="-105.2297951">
  <ele>1582.99</ele>
  <time>2026-09-02T20:50:50Z</time>
  <course>140.6</course>
  <speed>0.79</speed>
  <fix>3d</fix>
</trkpt>
<trkpt lat="40.0707756" lon="-105.2297933">
  <ele>1582.99</ele>
  <time>2026-09-02T20:50:50Z</time>
  <course>140.78</course>
  <speed>0.802807573457052</speed>
  <fix>3d</fix>
</trkpt>
<trkpt lat="40.0707762" lon="-105.229794">
  <ele>1582.99</ele>
  <time>2026-09-02T20:50:50Z</time>
  <course>140.59</course>
  <speed>0.79</speed>
  <fix>3d</fix>
</trkpt>
<trkpt lat="40.070775" lon="-105.2297926">
  <ele>1582.99</ele>
  <time>2026-09-02T20:50:50Z</time>
  <course>140.79</course>
  <speed>0.7887331614684399</speed>
  <fix>3d</fix>
</trkpt>
<trkpt lat="40.0707762" lon="-105.229794">
  <ele>1582.99</ele>
  <time>2026-09-02T20:50:50Z</time>
  <course>140.59</course>
  <speed>0.79</speed>
  <fix>3d</fix>
</trkpt>
<trkpt lat="40.0707744" lon="-105.2297921">
  <ele>1582.99</ele>
  <time>2026-09-02T20:50:50Z</time>
  <course>140.79</course>
  <speed>0.802807573457052</speed>
  <fix>3d</fix>
</trkpt>
<trkpt lat="40.0707751" lon="-105.2297927">
  <ele>1582.99</ele>
  <time>2026-09-02T20:50:50Z</time>
  <course>140.6</course>
  <speed>0.8</speed>
  <fix>3d</fix>
</trkpt>
<trkpt lat="40.0707739" lon="-105.2297914">
  <ele>1582.99</ele>
  <time>2026-09-02T20:50:50Z</time>
  <course>140.79</course>
  <speed>0.7887331614684399</speed>
  <fix>3d</fix>
</trkpt>
<trkpt lat="40.0707751" lon="-105.2297927">
  <ele>1582.99</ele>
  <time>2026-09-02T20:50:50Z</time>
  <course>140.6</course>
  <speed>0.8</speed>
  <fix>3d</fix>
</trkpt>
<trkpt lat="40.0707733" lon="-105.2297909">
  <ele>1582.99</ele>
  <time>2026-09-02T20:50:50Z</time>
  <course>140.8</course>
  <speed>0.802807573457052</speed>
  <fix>3d</fix>
</trkpt>
<trkpt lat="40.070774" lon="-105.2297916">
  <ele>1582.99</ele>
  <time>2026-09-02T20:50:50Z</time>
  <course>140.6</course>
  <speed>0.8</speed>
  <fix>3d</fix>
</trkpt>
<trkpt lat="40.0707728" lon="-105.2297902">
  <ele>1582.99</ele>
  <time>2026-09-02T20:50:50Z</time>
  <course>140.8</course>
  <speed>0.7887331614684399</speed>
  <fix>3d</fix>
</trkpt>
<trkpt lat="40.070774" lon="-105.2297916">
  <ele>1582.99</ele>
  <time>2026-09-02T20:50:50Z</time>
  <course>140.6</course>
  <speed>0.8</speed>
  <fix>3d</fix>
</trkpt>
<trkpt lat="40.0707722" lon="-105.2297897">
  <ele>1582.99</ele>
  <time>2026-09-02T20:50:50Z</time>
  <course>140.81</course>
  <speed>0.802807573457052</speed>
  <fix>3d</fix>
</trkpt>
<trkpt lat="40.0707728" lon="-105.2297903">
  <ele>1582.99</ele>
  <time>2026-09-02T20:50:50Z</time>
  <course>140.61</course>
  <speed>0.8</speed>
  <fix>3d</fix>
</trkpt>
<trkpt lat="40.0707717" lon="-105.229789">
  <ele>1582.99</ele>
  <time>2026-09-02T20:50:50Z</time>
  <course>140.81</course>
  <speed>0.7887331614684399</speed>
  <fix>3d</fix>
</trkpt>
<trkpt lat="40.0707728" lon="-105.2297903">
  <ele>1582.99</ele>
  <time>2026-09-02T20:50:50Z</time>
  <course>140.61</course>
  <speed>0.8</speed>
  <fix>3d</fix>
</trkpt>
<trkpt lat="40.070771" lon="-105.2297885">
  <ele>1582.99</ele>
  <time>2026-09-02T20:50:50Z</time>
  <course>140.82</course>
  <speed>0.7887331614684399</speed>
  <fix>3d</fix>
</trkpt>
<trkpt lat="40.0707717" lon="-105.2297892">
  <ele>1582.99</ele>
  <time>2026-09-02T20:50:50Z</time>
  <course>140.62</course>
  <speed>0.8</speed>
  <fix>3d</fix>
</trkpt>
<trkpt lat="40.0707704" lon="-105.2297878">
  <ele>1582.99</ele>
  <time>2026-09-02T20:50:50Z</time>
  <course>140.83</course>
  <speed>0.7964923100695951</speed>
  <fix>3d</fix>
</trkpt>
<trkpt lat="40.0707717" lon="-105.2297892">
  <ele>1582.99</ele>
  <time>2026-09-02T20:50:50Z</time>
  <course>140.62</course>
  <speed>0.8</speed>
  <fix>3d</fix>
</trkpt>
<trkpt lat="40.0707699" lon="-105.2297873">
  <ele>1582.99</ele>
  <time>2026-09-02T20:50:50Z</time>
  <course>140.84</course>
  <speed>0.7887331614684399</speed>
  <fix>3d</fix>
</trkpt>
<trkpt lat="40.0707706" lon="-105.2297879">
  <ele>1582.99</ele>
  <time>2026-09-02T20:50:50Z</time>
  <course>140.64</course>
  <speed>0.79</speed>
  <fix>3d</fix>
</trkpt>
<trkpt lat="40.0707695" lon="-105.2297868">
  <ele>1582.99</ele>
  <time>2026-09-02T20:50:50Z</time>
  <course>140.85</course>
  <speed>0.7964923100695951</speed>
  <fix>3d</fix>
</trkpt>
<trkpt lat="40.0707706" lon="-105.2297879">
  <ele>1582.99</ele>
  <time>2026-09-02T20:50:50Z</time>
  <course>140.64</course>
  <speed>0.79</speed>
  <fix>3d</fix>
</trkpt>
<trkpt lat="40.070769" lon="-105.2297861">
  <ele>1582.99</ele>
  <time>2026-09-02T20:50:50Z</time>
  <course>140.87</course>
  <speed>0.7887331614684399</speed>
  <fix>3d</fix>
</trkpt>
<trkpt lat="40.0707695" lon="-105.2297868">
  <ele>1582.99</ele>
  <time>2026-09-02T20:50:50Z</time>
  <course>140.66</course>
  <speed>0.79</speed>
  <fix>3d</fix>
</trkpt>
<trkpt lat="40.0707684" lon="-105.2297856">
  <ele>1582.99</ele>
  <time>2026-09-02T20:50:50Z</time>
  <course>140.88</course>
  <speed>0.802807573457052</speed>
  <fix>3d</fix>
</trkpt>
<trkpt lat="40.0707695" lon="-105.2297868">
  <ele>1582.99</ele>
  <time>2026-09-02T20:50:50Z</time>
  <course>140.66</course>
  <speed>0.79</speed>
  <fix>3d</fix>
</trkpt>
<trkpt lat="40.0707679" lon="-105.2297849">
  <ele>1582.99</ele>
  <time>2026-09-02T20:50:50Z</time>
  <course>140.89</course>
  <speed>0.7887331614684399</speed>
  <fix>3d</fix>
</trkpt>
<trkpt lat="40.0707684" lon="-105.2297855">
  <ele>1582.99</ele>
  <time>2026-09-02T20:50:50Z</time>
  <course>140.68</course>
  <speed>0.79</speed>
  <fix>3d</fix>
</trkpt>
<trkpt lat="40.0707673" lon="-105.2297844">
  <ele>1582.99</ele>
  <time>2026-09-02T20:50:50Z</time>
  <course>140.9</course>
  <speed>0.802807573457052</speed>
  <fix>3d</fix>
</trkpt>
<trkpt lat="40.0707684" lon="-105.2297855">
  <ele>1582.99</ele>
  <time>2026-09-02T20:50:50Z</time>
  <course>140.68</course>
  <speed>0.79</speed>
  <fix>3d</fix>
</trkpt>
<trkpt lat="40.0707668" lon="-105.2297837">
  <ele>1582.99</ele>
  <time>2026-09-02T20:50:50Z</time>
  <course>140.92</course>
  <speed>0.7887331614684399</speed>
  <fix>3d</fix>
</trkpt>
<trkpt lat="40.0707673" lon="-105.2297844">
  <ele>1582.99</ele>
  <time>2026-09-02T20:50:50Z</time>
  <course>140.71</course>
  <speed>0.79</speed>
  <fix>3d</fix>
</trkpt>
<trkpt lat="40.0707662" lon="-105.2297832">
  <ele>1582.99</ele>
  <time>2026-09-02T20:50:50Z</time>
  <course>140.93</course>
  <speed>0.802807573457052</speed>
  <fix>3d</fix>
</trkpt>
<trkpt lat="40.0707673" lon="-105.2297844">
  <ele>1582.99</ele>
  <time>2026-09-02T20:50:50Z</time>
  <course>140.71</course>
  <speed>0.79</speed>
  <fix>3d</fix>
</trkpt>
<trkpt lat="40.0707656" lon="-105.2297827">
  <ele>1582.99</ele>
  <time>2026-09-02T20:50:50Z</time>
  <course>140.95</course>
  <speed>0.7887331614684399</speed>
  <fix>3d</fix>
</trkpt>
<trkpt lat="40.0707662" lon="-105.2297832">
  <ele>1582.99</ele>
  <time>2026-09-02T20:50:50Z</time>
  <course>140.74</course>
  <speed>0.79</speed>
  <fix>3d</fix>
</trkpt>
<trkpt lat="40.070765" lon="-105.2297821">
  <ele>1582.99</ele>
  <time>2026-09-02T20:50:50Z</time>
  <course>140.97</course>
  <speed>0.802807573457052</speed>
  <fix>3d</fix>
</trkpt>
<trkpt lat="40.0707662" lon="-105.2297832">
  <ele>1582.99</ele>
  <time>2026-09-02T20:50:50Z</time>
  <course>140.74</course>
  <speed>0.79</speed>
  <fix>3d</fix>
</trkpt>
<trkpt lat="40.0707644" lon="-105.2297813">
  <ele>1582.99</ele>
  <time>2026-09-02T20:50:50Z</time>
  <course>140.98</course>
  <speed>0.7887331614684399</speed>
  <fix>3d</fix>
</trkpt>
<trkpt lat="40.070765" lon="-105.2297821">
  <ele>1582.99</ele>
  <time>2026-09-02T20:50:50Z</time>
  <course>140.77</course>
  <speed>0.79</speed>
  <fix>3d</fix>
</trkpt>
<trkpt lat="40.0707638" lon="-105.2297808">
  <ele>1582.99</ele>
  <time>2026-09-02T20:50:50Z</time>
  <course>141.0</course>
  <speed>0.7964923100695951</speed>
  <fix>3d</fix>
</trkpt>
<trkpt lat="40.070765" lon="-105.2297821">
  <ele>1582.99</ele>
  <time>2026-09-02T20:50:50Z</time>
  <course>140.77</course>
  <speed>0.79</speed>
  <fix>3d</fix>
</trkpt>
<trkpt lat="40.0707632" lon="-105.2297801">
  <ele>1582.99</ele>
  <time>2026-09-02T20:50:50Z</time>
  <course>141.01</course>
  <speed>0.7887331614684399</speed>
  <fix>3d</fix>
</trkpt>
<trkpt lat="40.0707639" lon="-105.2297809">
  <ele>1582.99</ele>
  <time>2026-09-02T20:50:50Z</time>
  <course>140.79</course>
  <speed>0.79</speed>
  <fix>3d</fix>
</trkpt>
<trkpt lat="40.0707626" lon="-105.2297796">
  <ele>1582.99</ele>
  <time>2026-09-02T20:50:50Z</time>
  <course>141.03</course>
  <speed>0.7964923100695951</speed>
  <fix>3d</fix>
</trkpt>
<trkpt lat="40.0707639" lon="-105.2297809">
  <ele>1582.99</ele>
  <time>2026-09-02T20:50:50Z</time>
  <course>140.79</course>
  <speed>0.79</speed>
  <fix>3d</fix>
</trkpt>
<trkpt lat="40.0707622" lon="-105.2297789">
  <ele>1582.99</ele>
  <time>2026-09-02T20:50:50Z</time>
  <course>141.04</course>
  <speed>0.7887331614684399</speed>
  <fix>3d</fix>
</trkpt>
<trkpt lat="40.0707628" lon="-105.2297797">
  <ele>1582.99</ele>
  <time>2026-09-02T20:50:50Z</time>
  <course>140.82</course>
  <speed>0.79</speed>
  <fix>3d</fix>
</trkpt>
<trkpt lat="40.0707616" lon="-105.2297784">
  <ele>1582.99</ele>
  <time>2026-09-02T20:50:50Z</time>
  <course>141.06</course>
  <speed>0.7964923100695951</speed>
  <fix>3d</fix>
</trkpt>
<trkpt lat="40.0707628" lon="-105.2297797">
  <ele>1582.99</ele>
  <time>2026-09-02T20:50:50Z</time>
  <course>140.82</course>
  <speed>0.79</speed>
  <fix>3d</fix>
</trkpt>
<trkpt lat="40.0707611" lon="-105.2297777">
  <ele>1582.99</ele>
  <time>2026-09-02T20:50:50Z</time>
  <course>141.07</course>
  <speed>0.7887331614684399</speed>
  <fix>3d</fix>
</trkpt>
<trkpt lat="40.0707617" lon="-105.2297785">
  <ele>1582.99</ele>
  <time>2026-09-02T20:50:50Z</time>
  <course>140.85</course>
  <speed>0.79</speed>
  <fix>3d</fix>
</trkpt>
<trkpt lat="40.0707605" lon="-105.2297772">
  <ele>1582.99</ele>
  <time>2026-09-02T20:50:50Z</time>
  <course>141.09</course>
  <speed>0.7964923100695951</speed>
  <fix>3d</fix>
</trkpt>
<trkpt lat="40.0707617" lon="-105.2297785">
  <ele>1582.99</ele>
  <time>2026-09-02T20:50:50Z</time>
  <course>140.85</course>
  <speed>0.79</speed>
  <fix>3d</fix>
</trkpt>
<trkpt lat="40.07076" lon="-105.2297765">
  <ele>1582.99</ele>
  <time>2026-09-02T20:50:50Z</time>
  <course>141.1</course>
  <speed>0.7887331614684399</speed>
  <fix>3d</fix>
</trkpt>
<trkpt lat="40.0707606" lon="-105.2297773">
  <ele>1582.99</ele>
  <time>2026-09-02T20:50:50Z</time>
  <course>140.88</course>
  <speed>0.79</speed>
  <fix>3d</fix>
</trkpt>
<trkpt lat="40.0707594" lon="-105.229776">
  <ele>1582.99</ele>
  <time>2026-09-02T20:50:50Z</time>
  <course>141.11</course>
  <speed>0.7964923100695951</speed>
  <fix>3d</fix>
</trkpt>
<trkpt lat="40.0707606" lon="-105.2297773">
  <ele>1582.99</ele>
  <time>2026-09-02T20:50:50Z</time>
  <course>140.88</course>
  <speed>0.79</speed>
  <fix>3d</fix>
</trkpt>
<trkpt lat="40.0707588" lon="-105.2297754">
  <ele>1582.99</ele>
  <time>2026-09-02T20:50:50Z</time>
  <course>141.13</course>
  <speed>0.7887331614684399</speed>
  <fix>3d</fix>
</trkpt>
<trkpt lat="40.0707595" lon="-105.2297761">
  <ele>1582.99</ele>
  <time>2026-09-02T20:50:50Z</time>
  <course>140.91</course>
  <speed>0.79</speed>
  <fix>3d</fix>
</trkpt>
<trkpt lat="40.0707583" lon="-105.2297749">
  <ele>1582.99</ele>
  <time>2026-09-02T20:50:50Z</time>
  <course>141.14</course>
  <speed>0.7964923100695951</speed>
  <fix>3d</fix>
</trkpt>
<trkpt lat="40.0707595" lon="-105.2297761">
  <ele>1582.99</ele>
  <time>2026-09-02T20:50:50Z</time>
  <course>140.91</course>
  <speed>0.79</speed>
  <fix>3d</fix>
</trkpt>
<trkpt lat="40.0707577" lon="-105.2297742">
  <ele>1582.99</ele>
  <time>2026-09-02T20:50:50Z</time>
  <course>141.16</course>
  <speed>0.7887331614684399</speed>
  <fix>3d</fix>
</trkpt>
<trkpt lat="40.0707583" lon="-105.2297749">
  <ele>1582.99</ele>
  <time>2026-09-02T20:50:50Z</time>
  <course>140.94</course>
  <speed>0.79</speed>
  <fix>3d</fix>
</trkpt>
<trkpt lat="40.0707572" lon="-105.2297737">
  <ele>1582.99</ele>
  <time>2026-09-02T20:50:50Z</time>
  <course>141.17</course>
  <speed>0.7964923100695951</speed>
  <fix>3d</fix>
</trkpt>
<trkpt lat="40.0707583" lon="-105.2297749">
  <ele>1582.99</ele>
  <time>2026-09-02T20:50:50Z</time>
  <course>140.94</course>
  <speed>0.79</speed>
  <fix>3d</fix>
</trkpt>
<trkpt lat="40.0707566" lon="-105.2297732">
  <ele>1582.99</ele>
  <time>2026-09-02T20:50:50Z</time>
  <course>141.19</course>
  <speed>0.7887331614684399</speed>
  <fix>3d</fix>
</trkpt>
<trkpt lat="40.0707572" lon="-105.2297737">
  <ele>1582.99</ele>
  <time>2026-09-02T20:50:50Z</time>
  <course>140.96</course>
  <speed>0.79</speed>
  <fix>3d</fix>
</trkpt>
<trkpt lat="40.0707562" lon="-105.2297725">
  <ele>1582.99</ele>
  <time>2026-09-02T20:50:50Z</time>
  <course>141.2</course>
  <speed>0.7964923100695951</speed>
  <fix>3d</fix>
</trkpt>
<trkpt lat="40.0707572" lon="-105.2297737">
  <ele>1582.99</ele>
  <time>2026-09-02T20:50:50Z</time>
  <course>140.96</course>
  <speed>0.79</speed>
  <fix>3d</fix>
</trkpt>
<trkpt lat="40.0707556" lon="-105.229772">
  <ele>1582.99</ele>
  <time>2026-09-02T20:50:50Z</time>
  <course>141.22</course>
  <speed>0.7964923100695951</speed>
  <fix>3d</fix>
</trkpt>
<trkpt lat="40.0707561" lon="-105.2297725">
  <ele>1582.99</ele>
  <time>2026-09-02T20:50:50Z</time>
  <course>140.99</course>
  <speed>0.79</speed>
  <fix>3d</fix>
</trkpt>
<trkpt lat="40.070755" lon="-105.2297713">
  <ele>1582.99</ele>
  <time>2026-09-02T20:50:50Z</time>
  <course>141.23</course>
  <speed>0.7964923100695951</speed>
  <fix>3d</fix>
</trkpt>
<trkpt lat="40.0707561" lon="-105.2297725">
  <ele>1582.99</ele>
  <time>2026-09-02T20:50:50Z</time>
  <course>140.99</course>
  <speed>0.79</speed>
  <fix>3d</fix>
</trkpt>
<trkpt lat="40.0707545" lon="-105.2297708">
  <ele>1582.99</ele>
  <time>2026-09-02T20:50:50Z</time>
  <course>141.25</course>
  <speed>0.7964923100695951</speed>
  <fix>3d</fix>
</trkpt>
<trkpt lat="40.070755" lon="-105.2297714">
  <ele>1582.99</ele>
  <time>2026-09-02T20:50:50Z</time>
  <course>141.02</course>
  <speed>0.8</speed>
  <fix>3d</fix>
</trkpt>
<trkpt lat="40.0707539" lon="-105.2297701">
  <ele>1582.99</ele>
  <time>2026-09-02T20:50:50Z</time>
  <course>141.26</course>
  <speed>0.7964923100695951</speed>
  <fix>3d</fix>
</trkpt>
<trkpt lat="40.070755" lon="-105.2297714">
  <ele>1582.99</ele>
  <time>2026-09-02T20:50:50Z</time>
  <course>141.02</course>
  <speed>0.8</speed>
  <fix>3d</fix>
</trkpt>
<trkpt lat="40.0707534" lon="-105.2297696">
  <ele>1582.99</ele>
  <time>2026-09-02T20:50:50Z</time>
  <course>141.27</course>
  <speed>0.7964923100695951</speed>
  <fix>3d</fix>
</trkpt>
<trkpt lat="40.0707539" lon="-105.2297701">
  <ele>1582.99</ele>
  <time>2026-09-02T20:50:50Z</time>
  <course>141.05</course>
  <speed>0.8</speed>
  <fix>3d</fix>
</trkpt>
<trkpt lat="40.0707527" lon="-105.2297689">
  <ele>1582.99</ele>
  <time>2026-09-02T20:50:50Z</time>
  <course>141.28</course>
  <speed>0.7887331614684399</speed>
  <fix>3d</fix>
</trkpt>
<trkpt lat="40.0707539" lon="-105.2297701">
  <ele>1582.99</ele>
  <time>2026-09-02T20:50:50Z</time>
  <course>141.05</course>
  <speed>0.8</speed>
  <fix>3d</fix>
</trkpt>
<trkpt lat="40.0707521" lon="-105.2297682">
  <ele>1582.99</ele>
  <time>2026-09-02T20:50:50Z</time>
  <course>141.3</course>
  <speed>0.7964923100695951</speed>
  <fix>3d</fix>
</trkpt>
<trkpt lat="40.0707528" lon="-105.229769">
  <ele>1582.99</ele>
  <time>2026-09-02T20:50:50Z</time>
  <course>141.07</course>
  <speed>0.8</speed>
  <fix>3d</fix>
</trkpt>
<trkpt lat="40.0707516" lon="-105.2297677">
  <ele>1582.99</ele>
  <time>2026-09-02T20:50:50Z</time>
  <course>141.31</course>
  <speed>0.7887331614684399</speed>
  <fix>3d</fix>
</trkpt>
<trkpt lat="40.0707528" lon="-105.229769">
  <ele>1582.99</ele>
  <time>2026-09-02T20:50:50Z</time>
  <course>141.07</course>
  <speed>0.8</speed>
  <fix>3d</fix>
</trkpt>
<trkpt lat="40.070751" lon="-105.229767">
  <ele>1582.99</ele>
  <time>2026-09-02T20:50:50Z</time>
  <course>141.32</course>
  <speed>0.7964923100695951</speed>
  <fix>3d</fix>
</trkpt>
<trkpt lat="40.0707516" lon="-105.2297678">
  <ele>1582.99</ele>
  <time>2026-09-02T20:50:50Z</time>
  <course>141.09</course>
  <speed>0.79</speed>
  <fix>3d</fix>
</trkpt>
<trkpt lat="40.0707504" lon="-105.2297665">
  <ele>1582.99</ele>
  <time>2026-09-02T20:50:50Z</time>
  <course>141.33</course>
  <speed>0.7902531240052139</speed>
  <fix>3d</fix>
</trkpt>
<trkpt lat="40.0707516" lon="-105.2297678">
  <ele>1582.99</ele>
  <time>2026-09-02T20:50:50Z</time>
  <course>141.09</course>
  <speed>0.79</speed>
  <fix>3d</fix>
</trkpt>
<trkpt lat="40.0707498" lon="-105.229766">
  <ele>1582.99</ele>
  <time>2026-09-02T20:50:50Z</time>
  <course>141.33</course>
  <speed>0.7964923100695951</speed>
  <fix>3d</fix>
</trkpt>
<trkpt lat="40.0707505" lon="-105.2297667">
  <ele>1582.99</ele>
  <time>2026-09-02T20:50:50Z</time>
  <course>141.11</course>
  <speed>0.79</speed>
  <fix>3d</fix>
</trkpt>
<trkpt lat="40.0707492" lon="-105.2297653">
  <ele>1582.99</ele>
  <time>2026-09-02T20:50:50Z</time>
  <course>141.35</course>
  <speed>0.7902531240052139</speed>
  <fix>3d</fix>
</trkpt>
<trkpt lat="40.0707505" lon="-105.2297667">
  <ele>1582.99</ele>
  <time>2026-09-02T20:50:50Z</time>
  <course>141.11</course>
  <speed>0.79</speed>
  <fix>3d</fix>
</trkpt>
<trkpt lat="40.0707487" lon="-105.2297648">
  <ele>1582.99</ele>
  <time>2026-09-02T20:50:50Z</time>
  <course>141.35</course>
  <speed>0.7964923100695951</speed>
  <fix>3d</fix>
</trkpt>
<trkpt lat="40.0707494" lon="-105.2297654">
  <ele>1582.99</ele>
  <time>2026-09-02T20:50:50Z</time>
  <course>141.13</course>
  <speed>0.8</speed>
  <fix>3d</fix>
</trkpt>
<trkpt lat="40.0707482" lon="-105.2297641">
  <ele>1582.99</ele>
  <time>2026-09-02T20:50:50Z</time>
  <course>141.36</course>
  <speed>0.7902531240052139</speed>
  <fix>3d</fix>
</trkpt>
<trkpt lat="40.0707494" lon="-105.2297654">
  <ele>1582.99</ele>
  <time>2026-09-02T20:50:50Z</time>
  <course>141.13</course>
  <speed>0.8</speed>
  <fix>3d</fix>
</trkpt>
<trkpt lat="40.0707477" lon="-105.2297636">
  <ele>1582.99</ele>
  <time>2026-09-02T20:50:50Z</time>
  <course>141.37</course>
  <speed>0.7964923100695951</speed>
  <fix>3d</fix>
</trkpt>
<trkpt lat="40.0707483" lon="-105.2297643">
  <ele>1582.99</ele>
  <time>2026-09-02T20:50:50Z</time>
  <course>141.14</course>
  <speed>0.8</speed>
  <fix>3d</fix>
</trkpt>
<trkpt lat="40.0707471" lon="-105.2297629">
  <ele>1582.99</ele>
  <time>2026-09-02T20:50:50Z</time>
  <course>141.38</course>
  <speed>0.7964923100695951</speed>
  <fix>3d</fix>
</trkpt>
<trkpt lat="40.0707483" lon="-105.2297643">
  <ele>1582.99</ele>
  <time>2026-09-02T20:50:50Z</time>
  <course>141.14</course>
  <speed>0.8</speed>
  <fix>3d</fix>
</trkpt>
<trkpt lat="40.0707466" lon="-105.2297624">
  <ele>1582.99</ele>
  <time>2026-09-02T20:50:50Z</time>
  <course>141.39</course>
  <speed>0.7964923100695951</speed>
  <fix>3d</fix>
</trkpt>
<trkpt lat="40.0707472" lon="-105.229763">
  <ele>1582.99</ele>
  <time>2026-09-02T20:50:50Z</time>
  <course>141.16</course>
  <speed>0.8</speed>
  <fix>3d</fix>
</trkpt>
<trkpt lat="40.0707461" lon="-105.2297619">
  <ele>1582.99</ele>
  <time>2026-09-02T20:50:50Z</time>
  <course>141.39</course>
  <speed>0.7964923100695951</speed>
  <fix>3d</fix>
</trkpt>
<trkpt lat="40.0707472" lon="-105.229763">
  <ele>1582.99</ele>
  <time>2026-09-02T20:50:50Z</time>
  <course>141.16</course>
  <speed>0.8</speed>
  <fix>3d</fix>
</trkpt>
<trkpt lat="40.0707455" lon="-105.2297614">
  <ele>1582.99</ele>
  <time>2026-09-02T20:50:50Z</time>
  <course>141.4</course>
  <speed>0.7902531240052139</speed>
  <fix>3d</fix>
</trkpt>
<trkpt lat="40.070746" lon="-105.2297619">
  <ele>1582.99</ele>
  <time>2026-09-02T20:50:51Z</time>
  <course>141.18</course>
  <speed>0.79</speed>
  <fix>3d</fix>
</trkpt>
<trkpt lat="40.0707449" lon="-105.2297607">
  <ele>1582.99</ele>
  <time>2026-09-02T20:50:51Z</time>
  <course>141.41</course>
  <speed>0.7964923100695951</speed>
  <fix>3d</fix>
</trkpt>
<trkpt lat="40.070746" lon="-105.2297619">
  <ele>1582.99</ele>
  <time>2026-09-02T20:50:51Z</time>
  <course>141.18</course>
  <speed>0.79</speed>
  <fix>3d</fix>
</trkpt>
<trkpt lat="40.0707443" lon="-105.2297602">
  <ele>1582.99</ele>
  <time>2026-09-02T20:50:51Z</time>
  <course>141.42</course>
  <speed>0.7902531240052139</speed>
  <fix>3d</fix>
</trkpt>
<trkpt lat="40.0707449" lon="-105.2297608">
  <ele>1582.99</ele>
  <time>2026-09-02T20:50:51Z</time>
  <course>141.19</course>
  <speed>0.79</speed>
  <fix>3d</fix>
</trkpt>
<trkpt lat="40.0707437" lon="-105.2297596">
  <ele>1582.99</ele>
  <time>2026-09-02T20:50:51Z</time>
  <course>141.42</course>
  <speed>0.7964923100695951</speed>
  <fix>3d</fix>
</trkpt>
<trkpt lat="40.0707449" lon="-105.2297608">
  <ele>1582.99</ele>
  <time>2026-09-02T20:50:51Z</time>
  <course>141.19</course>
  <speed>0.79</speed>
  <fix>3d</fix>
</trkpt>
<trkpt lat="40.0707432" lon="-105.229759">
  <ele>1582.99</ele>
  <time>2026-09-02T20:50:51Z</time>
  <course>141.43</course>
  <speed>0.7964923100695951</speed>
  <fix>3d</fix>
</trkpt>
<trkpt lat="40.0707438" lon="-105.2297596">
  <ele>1582.99</ele>
  <time>2026-09-02T20:50:51Z</time>
  <course>141.2</course>
  <speed>0.79</speed>
  <fix>3d</fix>
</trkpt>
<trkpt lat="40.0707426" lon="-105.2297584">
  <ele>1582.99</ele>
  <time>2026-09-02T20:50:51Z</time>
  <course>141.43</course>
  <speed>0.7964923100695951</speed>
  <fix>3d</fix>
</trkpt>
<trkpt lat="40.0707438" lon="-105.2297596">
  <ele>1582.99</ele>
  <time>2026-09-02T20:50:51Z</time>
  <course>141.2</course>
  <speed>0.79</speed>
  <fix>3d</fix>
</trkpt>
<trkpt lat="40.0707422" lon="-105.2297578">
  <ele>1582.99</ele>
  <time>2026-09-02T20:50:51Z</time>
  <course>141.44</course>
  <speed>0.7964923100695951</speed>
  <fix>3d</fix>
</trkpt>
<trkpt lat="40.0707427" lon="-105.2297584">
  <ele>1582.99</ele>
  <time>2026-09-02T20:50:51Z</time>
  <course>141.21</course>
  <speed>0.79</speed>
  <fix>3d</fix>
</trkpt>
<trkpt lat="40.0707416" lon="-105.2297572">
  <ele>1582.99</ele>
  <time>2026-09-02T20:50:51Z</time>
  <course>141.44</course>
  <speed>0.7964923100695951</speed>
  <fix>3d</fix>
</trkpt>
<trkpt lat="40.0707427" lon="-105.2297584">
  <ele>1582.99</ele>
  <time>2026-09-02T20:50:51Z</time>
  <course>141.21</course>
  <speed>0.79</speed>
  <fix>3d</fix>
</trkpt>
<trkpt lat="40.0707408" lon="-105.2297564">
  <ele>1582.99</ele>
  <time>2026-09-02T20:50:51Z</time>
  <course>141.45</course>
  <speed>0.7964923100695951</speed>
  <fix>3d</fix>
</trkpt>
<trkpt lat="40.0707416" lon="-105.2297572">
  <ele>1582.99</ele>
  <time>2026-09-02T20:50:51Z</time>
  <course>141.22</course>
  <speed>0.79</speed>
  <fix>3d</fix>
</trkpt>
<trkpt lat="40.0707404" lon="-105.2297559">
  <ele>1582.99</ele>
  <time>2026-09-02T20:50:51Z</time>
  <course>141.45</course>
  <speed>0.7902531240052139</speed>
  <fix>3d</fix>
</trkpt>
<trkpt lat="40.0707416" lon="-105.2297572">
  <ele>1582.99</ele>
  <time>2026-09-02T20:50:51Z</time>
  <course>141.22</course>
  <speed>0.79</speed>
  <fix>3d</fix>
</trkpt>
<trkpt lat="40.0707398" lon="-105.2297554">
  <ele>1582.99</ele>
  <time>2026-09-02T20:50:51Z</time>
  <course>141.46</course>
  <speed>0.7964923100695951</speed>
  <fix>3d</fix>
</trkpt>
<trkpt lat="40.0707404" lon="-105.2297561">
  <ele>1582.99</ele>
  <time>2026-09-02T20:50:51Z</time>
  <course>141.23</course>
  <speed>0.79</speed>
  <fix>3d</fix>
</trkpt>
<trkpt lat="40.0707392" lon="-105.2297548">
  <ele>1582.99</ele>
  <time>2026-09-02T20:50:51Z</time>
  <course>141.47</course>
  <speed>0.7902531240052139</speed>
  <fix>3d</fix>
</trkpt>
<trkpt lat="40.0707404" lon="-105.2297561">
  <ele>1582.99</ele>
  <time>2026-09-02T20:50:51Z</time>
  <course>141.23</course>
  <speed>0.79</speed>
  <fix>3d</fix>
</trkpt>
<trkpt lat="40.0707387" lon="-105.2297542">
  <ele>1582.99</ele>
  <time>2026-09-02T20:50:51Z</time>
  <course>141.47</course>
  <speed>0.7964923100695951</speed>
  <fix>3d</fix>
</trkpt>
<trkpt lat="40.0707393" lon="-105.2297548">
  <ele>1582.99</ele>
  <time>2026-09-02T20:50:51Z</time>
  <course>141.25</course>
  <speed>0.79</speed>
  <fix>3d</fix>
</trkpt>
<trkpt lat="40.0707381" lon="-105.2297536">
  <ele>1582.99</ele>
  <time>2026-09-02T20:50:51Z</time>
  <course>141.48</course>
  <speed>0.7902531240052139</speed>
  <fix>3d</fix>
</trkpt>
<trkpt lat="40.0707393" lon="-105.2297548">
  <ele>1582.99</ele>
  <time>2026-09-02T20:50:51Z</time>
  <course>141.25</course>
  <speed>0.79</speed>
  <fix>3d</fix>
</trkpt>
<trkpt lat="40.0707376" lon="-105.229753">
  <ele>1582.99</ele>
  <time>2026-09-02T20:50:51Z</time>
  <course>141.48</course>
  <speed>0.7964923100695951</speed>
  <fix>3d</fix>
</trkpt>
<trkpt lat="40.0707382" lon="-105.2297537">
  <ele>1582.99</ele>
  <time>2026-09-02T20:50:51Z</time>
  <course>141.26</course>
  <speed>0.8</speed>
  <fix>3d</fix>
</trkpt>
<trkpt lat="40.070737" lon="-105.2297524">
  <ele>1582.99</ele>
  <time>2026-09-02T20:50:51Z</time>
  <course>141.49</course>
  <speed>0.7902531240052139</speed>
  <fix>3d</fix>
</trkpt>
<trkpt lat="40.0707382" lon="-105.2297537">
  <ele>1582.99</ele>
  <time>2026-09-02T20:50:51Z</time>
  <course>141.26</course>
  <speed>0.8</speed>
  <fix>3d</fix>
</trkpt>
<trkpt lat="40.0707364" lon="-105.2297517">
  <ele>1582.99</ele>
  <time>2026-09-02T20:50:51Z</time>
  <course>141.49</course>
  <speed>0.7902531240052139</speed>
  <fix>3d</fix>
</trkpt>
<trkpt lat="40.0707371" lon="-105.2297524">
  <ele>1582.99</ele>
  <time>2026-09-02T20:50:51Z</time>
  <course>141.26</course>
  <speed>0.79</speed>
  <fix>3d</fix>
</trkpt>
<trkpt lat="40.0707358" lon="-105.2297512">
  <ele>1582.99</ele>
  <time>2026-09-02T20:50:51Z</time>
  <course>141.5</course>
  <speed>0.7902531240052139</speed>
  <fix>3d</fix>
</trkpt>
<trkpt lat="40.0707371" lon="-105.2297524">
  <ele>1582.99</ele>
  <time>2026-09-02T20:50:51Z</time>
  <course>141.26</course>
  <speed>0.79</speed>
  <fix>3d</fix>
</trkpt>
<trkpt lat="40.0707352" lon="-105.2297507">
  <ele>1582.99</ele>
  <time>2026-09-02T20:50:51Z</time>
  <course>141.5</course>
  <speed>0.7964923100695951</speed>
  <fix>3d</fix>
</trkpt>
<trkpt lat="40.0707359" lon="-105.2297513">
  <ele>1582.99</ele>
  <time>2026-09-02T20:50:51Z</time>
  <course>141.27</course>
  <speed>0.79</speed>
  <fix>3d</fix>
</trkpt>
<trkpt lat="40.0707349" lon="-105.2297502">
  <ele>1582.99</ele>
  <time>2026-09-02T20:50:51Z</time>
  <course>141.5</course>
  <speed>0.7964923100695951</speed>
  <fix>3d</fix>
</trkpt>
<trkpt lat="40.0707359" lon="-105.2297513">
  <ele>1582.99</ele>
  <time>2026-09-02T20:50:51Z</time>
  <course>141.27</course>
  <speed>0.79</speed>
  <fix>3d</fix>
</trkpt>
<trkpt lat="40.0707343" lon="-105.2297495">
  <ele>1582.99</ele>
  <time>2026-09-02T20:50:51Z</time>
  <course>141.51</course>
  <speed>0.7902531240052139</speed>
  <fix>3d</fix>
</trkpt>
<trkpt lat="40.0707348" lon="-105.2297501">
  <ele>1582.99</ele>
  <time>2026-09-02T20:50:51Z</time>
  <course>141.28</course>
  <speed>0.79</speed>
  <fix>3d</fix>
</trkpt>
<trkpt lat="40.0707337" lon="-105.229749">
  <ele>1582.99</ele>
  <time>2026-09-02T20:50:51Z</time>
  <course>141.51</course>
  <speed>0.7964923100695951</speed>
  <fix>3d</fix>
</trkpt>
<trkpt lat="40.0707348" lon="-105.2297501">
  <ele>1582.99</ele>
  <time>2026-09-02T20:50:51Z</time>
  <course>141.28</course>
  <speed>0.79</speed>
  <fix>3d</fix>
</trkpt>
<trkpt lat="40.0707332" lon="-105.2297483">
  <ele>1582.99</ele>
  <time>2026-09-02T20:50:51Z</time>
  <course>141.51</course>
  <speed>0.7902531240052139</speed>
  <fix>3d</fix>
</trkpt>
<trkpt lat="40.0707337" lon="-105.229749">
  <ele>1582.99</ele>
  <time>2026-09-02T20:50:51Z</time>
  <course>141.28</course>
  <speed>0.79</speed>
  <fix>3d</fix>
</trkpt>
<trkpt lat="40.0707326" lon="-105.2297478">
  <ele>1582.99</ele>
  <time>2026-09-02T20:50:51Z</time>
  <course>141.51</course>
  <speed>0.7902531240052139</speed>
  <fix>3d</fix>
</trkpt>
<trkpt lat="40.0707337" lon="-105.229749">
  <ele>1582.99</ele>
  <time>2026-09-02T20:50:51Z</time>
  <course>141.28</course>
  <speed>0.79</speed>
  <fix>3d</fix>
</trkpt>
<trkpt lat="40.0707321" lon="-105.2297471">
  <ele>1582.99</ele>
  <time>2026-09-02T20:50:51Z</time>
  <course>141.51</course>
  <speed>0.7964923100695951</speed>
  <fix>3d</fix>
</trkpt>
<trkpt lat="40.0707326" lon="-105.2297477">
  <ele>1582.99</ele>
  <time>2026-09-02T20:50:51Z</time>
  <course>141.28</course>
  <speed>0.8</speed>
  <fix>3d</fix>
</trkpt>
<trkpt lat="40.0707315" lon="-105.2297466">
  <ele>1582.99</ele>
  <time>2026-09-02T20:50:51Z</time>
  <course>141.51</course>
  <speed>0.7902531240052139</speed>
  <fix>3d</fix>
</trkpt>
<trkpt lat="40.0707326" lon="-105.2297477">
  <ele>1582.99</ele>
  <time>2026-09-02T20:50:51Z</time>
  <course>141.28</course>
  <speed>0.8</speed>
  <fix>3d</fix>
</trkpt>
<trkpt lat="40.0707309" lon="-105.2297461">
  <ele>1582.99</ele>
  <time>2026-09-02T20:50:51Z</time>
  <course>141.51</course>
  <speed>0.7964923100695951</speed>
  <fix>3d</fix>
</trkpt>
<trkpt lat="40.0707315" lon="-105.2297466">
  <ele>1582.99</ele>
  <time>2026-09-02T20:50:51Z</time>
  <course>141.28</course>
  <speed>0.8</speed>
  <fix>3d</fix>
</trkpt>
<trkpt lat="40.0707303" lon="-105.2297454">
  <ele>1582.99</ele>
  <time>2026-09-02T20:50:51Z</time>
  <course>141.51</course>
  <speed>0.7902531240052139</speed>
  <fix>3d</fix>
</trkpt>
<trkpt lat="40.0707315" lon="-105.2297466">
  <ele>1582.99</ele>
  <time>2026-09-02T20:50:51Z</time>
  <course>141.28</course>
  <speed>0.8</speed>
  <fix>3d</fix>
</trkpt>
<trkpt lat="40.0707297" lon="-105.2297449">
  <ele>1582.99</ele>
  <time>2026-09-02T20:50:51Z</time>
  <course>141.51</course>
  <speed>0.7964923100695951</speed>
  <fix>3d</fix>
</trkpt>
<trkpt lat="40.0707303" lon="-105.2297455">
  <ele>1582.99</ele>
  <time>2026-09-02T20:50:51Z</time>
  <course>141.29</course>
  <speed>0.8</speed>
  <fix>3d</fix>
</trkpt>
<trkpt lat="40.0707291" lon="-105.2297442">
  <ele>1582.99</ele>
  <time>2026-09-02T20:50:51Z</time>
  <course>141.51</course>
  <speed>0.7902531240052139</speed>
  <fix>3d</fix>
</trkpt>
<trkpt lat="40.0707303" lon="-105.2297455">
  <ele>1582.99</ele>
  <time>2026-09-02T20:50:51Z</time>
  <course>141.29</course>
  <speed>0.8</speed>
  <fix>3d</fix>
</trkpt>
<trkpt lat="40.0707285" lon="-105.2297435">
  <ele>1582.99</ele>
  <time>2026-09-02T20:50:51Z</time>
  <course>141.51</course>
  <speed>0.7964923100695951</speed>
  <fix>3d</fix>
</trkpt>
<trkpt lat="40.0707292" lon="-105.2297442">
  <ele>1582.99</ele>
  <time>2026-09-02T20:50:51Z</time>
  <course>141.29</course>
  <speed>0.8</speed>
  <fix>3d</fix>
</trkpt>
<trkpt lat="40.0707279" lon="-105.229743">
  <ele>1582.99</ele>
  <time>2026-09-02T20:50:51Z</time>
  <course>141.51</course>
  <speed>0.7902531240052139</speed>
  <fix>3d</fix>
</trkpt>
<trkpt lat="40.0707292" lon="-105.2297442">
  <ele>1582.99</ele>
  <time>2026-09-02T20:50:51Z</time>
  <course>141.29</course>
  <speed>0.8</speed>
  <fix>3d</fix>
</trkpt>
<trkpt lat="40.0707274" lon="-105.2297423">
  <ele>1582.99</ele>
  <time>2026-09-02T20:50:51Z</time>
  <course>141.49</course>
  <speed>0.7964923100695951</speed>
  <fix>3d</fix>
</trkpt>
<trkpt lat="40.0707281" lon="-105.2297431">
  <ele>1582.99</ele>
  <time>2026-09-02T20:50:51Z</time>
  <course>141.28</course>
  <speed>0.8</speed>
  <fix>3d</fix>
</trkpt>
<trkpt lat="40.0707268" lon="-105.2297418">
  <ele>1583.0</ele>
  <time>2026-09-02T20:50:51Z</time>
  <course>141.21</course>
  <speed>0.7887331614684399</speed>
  <fix>3d</fix>
</trkpt>
<trkpt lat="40.0707281" lon="-105.2297431">
  <ele>1582.99</ele>
  <time>2026-09-02T20:50:51Z</time>
  <course>141.28</course>
  <speed>0.8</speed>
  <fix>3d</fix>
</trkpt>
<trkpt lat="40.0707264" lon="-105.2297411">
  <ele>1582.99</ele>
  <time>2026-09-02T20:50:51Z</time>
  <course>140.54</course>
  <speed>0.7951100552753688</speed>
  <fix>3d</fix>
</trkpt>
<trkpt lat="40.070727" lon="-105.2297419">
  <ele>1582.99</ele>
  <time>2026-09-02T20:50:51Z</time>
  <course>140.87</course>
  <speed>0.8</speed>
  <fix>3d</fix>
</trkpt>
<trkpt lat="40.0707258" lon="-105.2297406">
  <ele>1582.99</ele>
  <time>2026-09-02T20:50:51Z</time>
  <course>139.47</course>
  <speed>0.7939773296511683</speed>
  <fix>3d</fix>
</trkpt>
<trkpt lat="40.070727" lon="-105.2297419">
  <ele>1582.99</ele>
  <time>2026-09-02T20:50:51Z</time>
  <course>140.87</course>
  <speed>0.8</speed>
  <fix>3d</fix>
</trkpt>
<trkpt lat="40.0707253" lon="-105.2297399">
  <ele>1583.0</ele>
  <time>2026-09-02T20:50:51Z</time>
  <course>137.95</course>
  <speed>0.8072174428244225</speed>
  <fix>3d</fix>
</trkpt>
<trkpt lat="40.0707259" lon="-105.2297407">
  <ele>1582.99</ele>
  <time>2026-09-02T20:50:51Z</time>
  <course>139.25</course>
  <speed>0.81</speed>
  <fix>3d</fix>
</trkpt>
<trkpt lat="40.0707247" lon="-105.2297394">
  <ele>1582.99</ele>
  <time>2026-09-02T20:50:51Z</time>
  <course>135.93</course>
  <speed>0.7638062581571324</speed>
  <fix>3d</fix>
</trkpt>
<trkpt lat="40.0707259" lon="-105.2297407">
  <ele>1582.99</ele>
  <time>2026-09-02T20:50:51Z</time>
  <course>139.25</course>
  <speed>0.81</speed>
  <fix>3d</fix>
</trkpt>
<trkpt lat="40.0707242" lon="-105.2297387">
  <ele>1582.99</ele>
  <time>2026-09-02T20:50:51Z</time>
  <course>133.34</course>
  <speed>0.7427651041883968</speed>
  <fix>3d</fix>
</trkpt>
<trkpt lat="40.0707248" lon="-105.2297394">
  <ele>1582.99</ele>
  <time>2026-09-02T20:50:51Z</time>
  <course>135.92</course>
  <speed>0.78</speed>
  <fix>3d</fix>
</trkpt>
<trkpt lat="40.0707237" lon="-105.229738">
  <ele>1582.99</ele>
  <time>2026-09-02T20:50:51Z</time>
  <course>130.11</course>
  <speed>0.6747592163134936</speed>
  <fix>3d</fix>
</trkpt>
<trkpt lat="40.0707248" lon="-105.2297394">
  <ele>1582.99</ele>
  <time>2026-09-02T20:50:51Z</time>
  <course>135.92</course>
  <speed>0.78</speed>
  <fix>3d</fix>
</trkpt>
<trkpt lat="40.0707235" lon="-105.2297375">
  <ele>1582.99</ele>
  <time>2026-09-02T20:50:51Z</time>
  <course>126.99</course>
  <speed>0.6360031446463138</speed>
  <fix>3d</fix>
</trkpt>
<trkpt lat="40.0707239" lon="-105.2297382">
  <ele>1582.99</ele>
  <time>2026-09-02T20:50:51Z</time>
  <course>130.43</course>
  <speed>0.69</speed>
  <fix>3d</fix>
</trkpt>
<trkpt lat="40.0707231" lon="-105.229737">
  <ele>1582.99</ele>
  <time>2026-09-02T20:50:51Z</time>
  <course>122.49</course>
  <speed>0.552268050859363</speed>
  <fix>3d</fix>
</trkpt>
<trkpt lat="40.0707239" lon="-105.2297382">
  <ele>1582.99</ele>
  <time>2026-09-02T20:50:51Z</time>
  <course>130.43</course>
  <speed>0.69</speed>
  <fix>3d</fix>
</trkpt>
<trkpt lat="40.070723" lon="-105.2297365">
  <ele>1582.99</ele>
  <time>2026-09-02T20:50:51Z</time>
  <course>117.63</course>
  <speed>0.49648766349225637</speed>
  <fix>3d</fix>
</trkpt>
<trkpt lat="40.0707232" lon="-105.229737">
  <ele>1582.99</ele>
  <time>2026-09-02T20:50:51Z</time>
  <course>122.51</course>
  <speed>0.57</speed>
  <fix>3d</fix>
</trkpt>
<trkpt lat="40.0707228" lon="-105.2297359">
  <ele>1582.99</ele>
  <time>2026-09-02T20:50:51Z</time>
  <course>112.83</course>
  <speed>0.44011362169330775</speed>
  <fix>3d</fix>
</trkpt>
<trkpt lat="40.0707232" lon="-105.229737">
  <ele>1582.99</ele>
  <time>2026-09-02T20:50:51Z</time>
  <course>122.51</course>
  <speed>0.57</speed>
  <fix>3d</fix>
</trkpt>
<trkpt lat="40.0707227" lon="-105.2297354">
  <ele>1582.99</ele>
  <time>2026-09-02T20:50:51Z</time>
  <course>108.15</course>
  <speed>0.417612260356422</speed>
  <fix>3d</fix>
</trkpt>
<trkpt lat="40.0707228" lon="-105.229736">
  <ele>1582.99</ele>
  <time>2026-09-02T20:50:51Z</time>
  <course>112.86</course>
  <speed>0.46</speed>
  <fix>3d</fix>
</trkpt>
<trkpt lat="40.0707225" lon="-105.2297351">
  <ele>1582.99</ele>
  <time>2026-09-02T20:50:51Z</time>
  <course>103.65</course>
  <speed>0.4197618372363071</speed>
  <fix>3d</fix>
</trkpt>
<trkpt lat="40.0707228" lon="-105.229736">
  <ele>1582.99</ele>
  <time>2026-09-02T20:50:51Z</time>
  <course>112.86</course>
  <speed>0.46</speed>
  <fix>3d</fix>
</trkpt>
<trkpt lat="40.0707224" lon="-105.2297346">
  <ele>1583.0</ele>
  <time>2026-09-02T20:50:51Z</time>
  <course>99.39</course>
  <speed>0.455411901469428</speed>
  <fix>3d</fix>
</trkpt>
<trkpt lat="40.0707225" lon="-105.229735">
  <ele>1582.99</ele>
  <time>2026-09-02T20:50:51Z</time>
  <course>103.21</course>
  <speed>0.44</speed>
  <fix>3d</fix>
</trkpt>
<trkpt lat="40.0707224" lon="-105.2297339">
  <ele>1582.99</ele>
  <time>2026-09-02T20:50:51Z</time>
  <course>95.42</course>
  <speed>0.4916299421312742</speed>
  <fix>3d</fix>
</trkpt>
<trkpt lat="40.0707225" lon="-105.229735">
  <ele>1582.99</ele>
  <time>2026-09-02T20:50:51Z</time>
  <course>103.21</course>
  <speed>0.44</speed>
  <fix>3d</fix>
</trkpt>
<trkpt lat="40.0707224" lon="-105.2297334">
  <ele>1582.99</ele>
  <time>2026-09-02T20:50:51Z</time>
  <course>91.77</course>
  <speed>0.570087712549569</speed>
  <fix>3d</fix>
</trkpt>
<trkpt lat="40.0707224" lon="-105.229734">
  <ele>1582.99</ele>
  <time>2026-09-02T20:50:51Z</time>
  <course>94.81</course>
  <speed>0.51</speed>
  <fix>3d</fix>
</trkpt>
<trkpt lat="40.0707224" lon="-105.2297327">
  <ele>1582.99</ele>
  <time>2026-09-02T20:50:51Z</time>
  <course>88.52</course>
  <speed>0.6200806399170998</speed>
  <fix>3d</fix>
</trkpt>
<trkpt lat="40.0707224" lon="-105.229734">
  <ele>1582.99</ele>
  <time>2026-09-02T20:50:51Z</time>
  <course>94.81</course>
  <speed>0.51</speed>
  <fix>3d</fix>
</trkpt>
<trkpt lat="40.0707224" lon="-105.2297317">
  <ele>1582.99</ele>
  <time>2026-09-02T20:50:51Z</time>
  <course>85.12</course>
  <speed>0.6926037828369117</speed>
  <fix>3d</fix>
</trkpt>
<trkpt lat="40.0707224" lon="-105.2297326">
  <ele>1582.99</ele>
  <time>2026-09-02T20:50:51Z</time>
  <course>88.2</course>
  <speed>0.63</speed>
  <fix>3d</fix>
</trkpt>
<trkpt lat="40.0707225" lon="-105.2297308">
  <ele>1582.99</ele>
  <time>2026-09-02T20:50:51Z</time>
  <course>82.74</course>
  <speed>0.7256031973468694</speed>
  <fix>3d</fix>
</trkpt>
<trkpt lat="40.0707224" lon="-105.2297326">
  <ele>1582.99</ele>
  <time>2026-09-02T20:50:51Z</time>
  <course>88.2</course>
  <speed>0.63</speed>
  <fix>3d</fix>
</trkpt>
<trkpt lat="40.0707227" lon="-105.2297299">
  <ele>1582.99</ele>
  <time>2026-09-02T20:50:51Z</time>
  <course>80.65</course>
  <speed>0.7792945527847606</speed>
  <fix>3d</fix>
</trkpt>
<trkpt lat="40.0707225" lon="-105.229731">
  <ele>1582.99</ele>
  <time>2026-09-02T20:50:51Z</time>
  <course>83.03</course>
  <speed>0.72</speed>
  <fix>3d</fix>
</trkpt>
<trkpt lat="40.0707227" lon="-105.2297291">
  <ele>1582.99</ele>
  <time>2026-09-02T20:50:51Z</time>
  <course>78.63</course>
  <speed>0.7942921376924236</speed>
  <fix>3d</fix>
</trkpt>
<trkpt lat="40.0707225" lon="-105.229731">
  <ele>1582.99</ele>
  <time>2026-09-02T20:50:51Z</time>
  <course>83.03</course>
  <speed>0.72</speed>
  <fix>3d</fix>
</trkpt>
<trkpt lat="40.0707229" lon="-105.2297282">
  <ele>1582.99</ele>
  <time>2026-09-02T20:50:51Z</time>
  <course>76.67</course>
  <speed>0.8222530024268686</speed>
  <fix>3d</fix>
</trkpt>
<trkpt lat="40.0707227" lon="-105.2297292">
  <ele>1582.99</ele>
  <time>2026-09-02T20:50:51Z</time>
  <course>78.81</course>
  <speed>0.79</speed>
  <fix>3d</fix>
</trkpt>
<trkpt lat="40.070723" lon="-105.2297272">
  <ele>1582.99</ele>
  <time>2026-09-02T20:50:51Z</time>
  <course>74.78</course>
  <speed>0.8174350127074322</speed>
  <fix>3d</fix>
</trkpt>
<trkpt lat="40.0707227" lon="-105.2297292">
  <ele>1582.99</ele>
  <time>2026-09-02T20:50:51Z</time>
  <course>78.81</course>
  <speed>0.79</speed>
  <fix>3d</fix>
</trkpt>
<trkpt lat="40.0707231" lon="-105.2297263">
  <ele>1583.0</ele>
  <time>2026-09-02T20:50:51Z</time>
  <course>72.96</course>
  <speed>0.8381527307120105</speed>
  <fix>3d</fix>
</trkpt>
<trkpt lat="40.070723" lon="-105.2297273">
  <ele>1582.99</ele>
  <time>2026-09-02T20:50:51Z</time>
  <course>75.0</course>
  <speed>0.83</speed>
  <fix>3d</fix>
</trkpt>
<trkpt lat="40.0707235" lon="-105.2297253">
  <ele>1583.0</ele>
  <time>2026-09-02T20:50:51Z</time>
  <course>71.21</course>
  <speed>0.8254089895318564</speed>
  <fix>3d</fix>
</trkpt>
<trkpt lat="40.070723" lon="-105.2297273">
  <ele>1582.99</ele>
  <time>2026-09-02T20:50:51Z</time>
  <course>75.0</course>
  <speed>0.83</speed>
  <fix>3d</fix>
</trkpt>
<trkpt lat="40.0707236" lon="-105.2297244">
  <ele>1583.0</ele>
  <time>2026-09-02T20:50:51Z</time>
  <course>69.53</course>
  <speed>0.8415461959987698</speed>
  <fix>3d</fix>
</trkpt>
<trkpt lat="40.0707234" lon="-105.2297255">
  <ele>1582.99</ele>
  <time>2026-09-02T20:50:51Z</time>
  <course>71.44</course>
  <speed>0.84</speed>
  <fix>3d</fix>
</trkpt>
<trkpt lat="40.070724" lon="-105.2297234">
  <ele>1582.99</ele>
  <time>2026-09-02T20:50:51Z</time>
  <course>67.91</course>
  <speed>0.8207923001588161</speed>
  <fix>3d</fix>
</trkpt>
<trkpt lat="40.0707234" lon="-105.2297255">
  <ele>1582.99</ele>
  <time>2026-09-02T20:50:51Z</time>
  <course>71.44</course>
  <speed>0.84</speed>
  <fix>3d</fix>
</trkpt>
<trkpt lat="40.0707242" lon="-105.2297226">
  <ele>1582.99</ele>
  <time>2026-09-02T20:50:51Z</time>
  <course>66.37</course>
  <speed>0.8285529554590945</speed>
  <fix>3d</fix>
</trkpt>
<trkpt lat="40.0707239" lon="-105.2297236">
  <ele>1582.99</ele>
  <time>2026-09-02T20:50:51Z</time>
  <course>68.14</course>
  <speed>0.83</speed>
  <fix>3d</fix>
</trkpt>
<trkpt lat="40.0707245" lon="-105.2297219">
  <ele>1582.99</ele>
  <time>2026-09-02T20:50:51Z</time>
  <course>65.17</course>
  <speed>0.8052949770115296</speed>
  <fix>3d</fix>
</trkpt>
<trkpt lat="40.0707239" lon="-105.2297236">
  <ele>1582.99</ele>
  <time>2026-09-02T20:50:51Z</time>
  <course>68.14</course>
  <speed>0.83</speed>
  <fix>3d</fix>
</trkpt>
<trkpt lat="40.0707248" lon="-105.229721">
  <ele>1582.99</ele>
  <time>2026-09-02T20:50:51Z</time>
  <course>63.76</course>
  <speed>0.8139410298049853</speed>
  <fix>3d</fix>
</trkpt>
<trkpt lat="40.0707245" lon="-105.2297218">
  <ele>1582.99</ele>
  <time>2026-09-02T20:50:51Z</time>
  <course>65.1</course>
  <speed>0.82</speed>
  <fix>3d</fix>
</trkpt>
<trkpt lat="40.0707252" lon="-105.2297201">
  <ele>1582.99</ele>
  <time>2026-09-02T20:50:51Z</time>
  <course>62.4</course>
  <speed>0.7917701686727027</speed>
  <fix>3d</fix>
</trkpt>
<trkpt lat="40.0707245" lon="-105.2297218">
  <ele>1582.99</ele>
  <time>2026-09-02T20:50:51Z</time>
  <course>65.1</course>
  <speed>0.82</speed>
  <fix>3d</fix>
</trkpt>
<trkpt lat="40.0707254" lon="-105.2297193">
  <ele>1582.99</ele>
  <time>2026-09-02T20:50:51Z</time>
  <course>61.13</course>
  <speed>0.7964923100695951</speed>
  <fix>3d</fix>
</trkpt>
<trkpt lat="40.0707252" lon="-105.2297201">
  <ele>1582.99</ele>
  <time>2026-09-02T20:50:51Z</time>
  <course>62.34</course>
  <speed>0.8</speed>
  <fix>3d</fix>
</trkpt>
<trkpt lat="40.0707259" lon="-105.2297184">
  <ele>1582.99</ele>
  <time>2026-09-02T20:50:51Z</time>
  <course>59.91</course>
  <speed>0.7839005038906405</speed>
  <fix>3d</fix>
</trkpt>
<trkpt lat="40.0707252" lon="-105.2297201">
  <ele>1582.99</ele>
  <time>2026-09-02T20:50:51Z</time>
  <course>62.34</course>
  <speed>0.8</speed>
  <fix>3d</fix>
</trkpt>
<trkpt lat="40.0707261" lon="-105.2297177">
  <ele>1582.99</ele>
  <time>2026-09-02T20:50:51Z</time>
  <course>58.76</course>
  <speed>0.7940403012442127</speed>
  <fix>3d</fix>
</trkpt>
<trkpt lat="40.0707258" lon="-105.2297184">
  <ele>1582.99</ele>
  <time>2026-09-02T20:50:51Z</time>
  <course>59.84</course>
  <speed>0.8</speed>
  <fix>3d</fix>
</trkpt>
<trkpt lat="40.0707266" lon="-105.2297169">
  <ele>1582.99</ele>
  <time>2026-09-02T20:50:51Z</time>
  <course>57.67</course>
  <speed>0.7769813382572325</speed>
  <fix>3d</fix>
</trkpt>
<trkpt lat="40.0707258" lon="-105.2297184">
  <ele>1582.99</ele>
  <time>2026-09-02T20:50:51Z</time>
  <course>59.84</course>
  <speed>0.8</speed>
  <fix>3d</fix>
</trkpt>
<trkpt lat="40.070727" lon="-105.2297162">
  <ele>1582.99</ele>
  <time>2026-09-02T20:50:51Z</time>
  <course>56.64</course>
  <speed>0.7877182237323191</speed>
  <fix>3d</fix>
</trkpt>
<trkpt lat="40.0707266" lon="-105.2297169">
  <ele>1582.99</ele>
  <time>2026-09-02T20:50:51Z</time>
  <course>57.61</course>
  <speed>0.79</speed>
  <fix>3d</fix>
</trkpt>
<trkpt lat="40.0707273" lon="-105.2297153">
  <ele>1582.99</ele>
  <time>2026-09-02T20:50:51Z</time>
  <course>55.68</course>
  <speed>0.776659513557904</speed>
  <fix>3d</fix>
</trkpt>
<trkpt lat="40.0707266" lon="-105.2297169">
  <ele>1582.99</ele>
  <time>2026-09-02T20:50:51Z</time>
  <course>57.61</course>
  <speed>0.79</speed>
  <fix>3d</fix>
</trkpt>
<trkpt lat="40.0707279" lon="-105.2297145">
  <ele>1582.99</ele>
  <time>2026-09-02T20:50:51Z</time>
  <course>54.61</course>
  <speed>0.7881624198095213</speed>
  <fix>3d</fix>
</trkpt>
<trkpt lat="40.0707273" lon="-105.2297154">
  <ele>1582.99</ele>
  <time>2026-09-02T20:50:51Z</time>
  <course>55.62</course>
  <speed>0.79</speed>
  <fix>3d</fix>
</trkpt>
<trkpt lat="40.0707283" lon="-105.2297136">
  <ele>1582.99</ele>
  <time>2026-09-02T20:50:51Z</time>
  <course>53.78</course>
  <speed>0.7800640999302557</speed>
  <fix>3d</fix>
</trkpt>
<trkpt lat="40.0707273" lon="-105.2297154">
  <ele>1582.99</ele>
  <time>2026-09-02T20:50:51Z</time>
  <course>55.62</course>
  <speed>0.79</speed>
  <fix>3d</fix>
</trkpt>
<trkpt lat="40.0707286" lon="-105.2297129">
  <ele>1582.99</ele>
  <time>2026-09-02T20:50:51Z</time>
  <course>53.0</course>
  <speed>0.7920227269466451</speed>
  <fix>3d</fix>
</trkpt>
<trkpt lat="40.0707282" lon="-105.2297138">
  <ele>1582.99</ele>
  <time>2026-09-02T20:50:51Z</time>
  <course>53.88</course>
  <speed>0.79</speed>
  <fix>3d</fix>
</trkpt>
<trkpt lat="40.0707291" lon="-105.2297122">
  <ele>1582.99</ele>
  <time>2026-09-02T20:50:51Z</time>
  <course>52.28</course>
  <speed>0.7840918313565064</speed>
  <fix>3d</fix>
</trkpt>
<trkpt lat="40.0707282" lon="-105.2297138">
  <ele>1582.99</ele>
  <time>2026-09-02T20:50:51Z</time>
  <course>53.88</course>
  <speed>0.79</speed>
  <fix>3d</fix>
</trkpt>
<trkpt lat="40.0707296" lon="-105.2297114">
  <ele>1582.99</ele>
  <time>2026-09-02T20:50:51Z</time>
  <course>51.61</course>
  <speed>0.7902531240052139</speed>
  <fix>3d</fix>
</trkpt>
<trkpt lat="40.070729" lon="-105.2297124">
  <ele>1582.99</ele>
  <time>2026-09-02T20:50:51Z</time>
  <course>52.37</course>
  <speed>0.79</speed>
  <fix>3d</fix>
</trkpt>
<trkpt lat="40.0707301" lon="-105.2297107">
  <ele>1582.99</ele>
  <time>2026-09-02T20:50:51Z</time>
  <course>50.99</course>
  <speed>0.7824321056807422</speed>
  <fix>3d</fix>
</trkpt>
<trkpt lat="40.070729" lon="-105.2297124">
  <ele>1582.99</ele>
  <time>2026-09-02T20:50:51Z</time>
  <course>52.37</course>
  <speed>0.79</speed>
  <fix>3d</fix>
</trkpt>
<trkpt lat="40.0707304" lon="-105.22971">
  <ele>1582.99</ele>
  <time>2026-09-02T20:50:51Z</time>
  <course>50.42</course>
  <speed>0.7951100552753688</speed>
  <fix>3d</fix>
</trkpt>
<trkpt lat="40.0707299" lon="-105.2297109">
  <ele>1582.99</ele>
  <time>2026-09-02T20:50:51Z</time>
  <course>51.06</course>
  <speed>0.79</speed>
  <fix>3d</fix>
</trkpt>
<trkpt lat="40.0707309" lon="-105.2297093">
  <ele>1582.99</ele>
  <time>2026-09-02T20:50:51Z</time>
  <course>49.91</course>
  <speed>0.7874642849044012</speed>
  <fix>3d</fix>
</trkpt>
<trkpt lat="40.0707299" lon="-105.2297109">
  <ele>1582.99</ele>
  <time>2026-09-02T20:50:51Z</time>
  <course>51.06</course>
  <speed>0.79</speed>
  <fix>3d</fix>
</trkpt>
<trkpt lat="40.0707314" lon="-105.2297086">
  <ele>1582.99</ele>
  <time>2026-09-02T20:50:51Z</time>
  <course>49.44</course>
  <speed>0.7939773296511683</speed>
  <fix>3d</fix>
</trkpt>
<trkpt lat="40.0707308" lon="-105.2297095">
  <ele>1582.99</ele>
  <time>2026-09-02T20:50:51Z</time>
  <course>49.96</course>
  <speed>0.79</speed>
  <fix>3d</fix>
</trkpt>
<trkpt lat="40.0707319" lon="-105.2297078">
  <ele>1582.99</ele>
  <time>2026-09-02T20:50:51Z</time>
  <course>49.01</course>
  <speed>0.7864477096412705</speed>
  <fix>3d</fix>
</trkpt>
<trkpt lat="40.0707308" lon="-105.2297095">
  <ele>1582.99</ele>
  <time>2026-09-02T20:50:51Z</time>
  <course>49.96</course>
  <speed>0.79</speed>
  <fix>3d</fix>
</trkpt>
<trkpt lat="40.0707324" lon="-105.2297071">
  <ele>1582.99</ele>
  <time>2026-09-02T20:50:51Z</time>
  <course>48.62</course>
  <speed>0.7939773296511683</speed>
  <fix>3d</fix>
</trkpt>
<trkpt lat="40.0707318" lon="-105.2297081">
  <ele>1582.99</ele>
  <time>2026-09-02T20:50:51Z</time>
  <course>49.05</course>
  <speed>0.79</speed>
  <fix>3d</fix>
</trkpt>
<trkpt lat="40.0707328" lon="-105.2297064">
  <ele>1582.99</ele>
  <time>2026-09-02T20:50:51Z</time>
  <course>48.28</course>
  <speed>0.7789736837660179</speed>
  <fix>3d</fix>
</trkpt>
<trkpt lat="40.0707318" lon="-105.2297081">
  <ele>1582.99</ele>
  <time>2026-09-02T20:50:51Z</time>
  <course>49.05</course>
  <speed>0.79</speed>
  <fix>3d</fix>
</trkpt>
<trkpt lat="40.0707332" lon="-105.2297059">
  <ele>1582.99</ele>
  <time>2026-09-02T20:50:51Z</time>
  <course>48.03</course>
  <speed>0.7930952023559341</speed>
  <fix>3d</fix>
</trkpt>
<trkpt lat="40.0707327" lon="-105.2297067">
  <ele>1582.99</ele>
  <time>2026-09-02T20:50:51Z</time>
  <course>48.31</course>
  <speed>0.79</speed>
  <fix>3d</fix>
</trkpt>
<trkpt lat="40.0707337" lon="-105.2297052">
  <ele>1582.99</ele>
  <time>2026-09-02T20:50:51Z</time>
  <course>47.76</course>
  <speed>0.7856844150166147</speed>
  <fix>3d</fix>
</trkpt>
<trkpt lat="40.0707327" lon="-105.2297067">
  <ele>1582.99</ele>
  <time>2026-09-02T20:50:51Z</time>
  <course>48.31</course>
  <speed>0.79</speed>
  <fix>3d</fix>
</trkpt>
<trkpt lat="40.0707341" lon="-105.2297045">
  <ele>1582.99</ele>
  <time>2026-09-02T20:50:51Z</time>
  <course>47.52</course>
  <speed>0.7856844150166147</speed>
  <fix>3d</fix>
</trkpt>
<trkpt lat="40.0707337" lon="-105.2297052">
  <ele>1582.99</ele>
  <time>2026-09-02T20:50:51Z</time>
  <course>47.72</course>
  <speed>0.79</speed>
  <fix>3d</fix>
</trkpt>
<trkpt lat="40.0707346" lon="-105.2297038">
  <ele>1582.99</ele>
  <time>2026-09-02T20:50:51Z</time>
  <course>47.33</course>
  <speed>0.7856844150166147</speed>
  <fix>3d</fix>
</trkpt>
<trkpt lat="40.0707337" lon="-105.2297052">
  <ele>1582.99</ele>
  <time>2026-09-02T20:50:51Z</time>
  <course>47.72</course>
  <speed>0.79</speed>
  <fix>3d</fix>
</trkpt>
<trkpt lat="40.0707352" lon="-105.2297031">
  <ele>1582.99</ele>
  <time>2026-09-02T20:50:51Z</time>
  <course>47.16</course>
  <speed>0.7856844150166147</speed>
  <fix>3d</fix>
</trkpt>
<trkpt lat="40.0707347" lon="-105.2297038">
  <ele>1582.99</ele>
  <time>2026-09-02T20:50:51Z</time>
  <course>47.29</course>
  <speed>0.79</speed>
  <fix>3d</fix>
</trkpt>
<trkpt lat="40.0707356" lon="-105.2297025">
  <ele>1582.99</ele>
  <time>2026-09-02T20:50:51Z</time>
  <course>47.04</course>
  <speed>0.792464510246358</speed>
  <fix>3d</fix>
</trkpt>
<trkpt lat="40.0707347" lon="-105.2297038">
  <ele>1582.99</ele>
  <time>2026-09-02T20:50:51Z</time>
  <course>47.29</course>
  <speed>0.79</speed>
  <fix>3d</fix>
</trkpt>
<trkpt lat="40.0707361" lon="-105.2297019">
  <ele>1582.99</ele>
  <time>2026-09-02T20:50:51Z</time>
  <course>46.93</course>
  <speed>0.7783315488916018</speed>
  <fix>3d</fix>
</trkpt>
<trkpt lat="40.0707356" lon="-105.2297025">
  <ele>1582.99</ele>
  <time>2026-09-02T20:50:51Z</time>
  <course>47.0</course>
  <speed>0.79</speed>
  <fix>3d</fix>
</trkpt>
<trkpt lat="40.0707365" lon="-105.2297011">
  <ele>1582.99</ele>
  <time>2026-09-02T20:50:51Z</time>
  <course>46.86</course>
  <speed>0.785175139698144</speed>
  <fix>3d</fix>
</trkpt>
<trkpt lat="40.0707356" lon="-105.2297025">
  <ele>1582.99</ele>
  <time>2026-09-02T20:50:51Z</time>
  <course>47.0</course>
  <speed>0.79</speed>
  <fix>3d</fix>
</trkpt>
<trkpt lat="40.070737" lon="-105.2297004">
  <ele>1582.99</ele>
  <time>2026-09-02T20:50:51Z</time>
  <course>46.81</course>
  <speed>0.785175139698144</speed>
  <fix>3d</fix>
</trkpt>
<trkpt lat="40.0707365" lon="-105.2297011">
  <ele>1582.99</ele>
  <time>2026-09-02T20:50:51Z</time>
  <course>46.82</course>
  <speed>0.78</speed>
  <fix>3d</fix>
</trkpt>
<trkpt lat="40.0707376" lon="-105.2296997">
  <ele>1582.99</ele>
  <time>2026-09-02T20:50:51Z</time>
  <course>46.79</course>
  <speed>0.785175139698144</speed>
  <fix>3d</fix>
</trkpt>
<trkpt lat="40.0707365" lon="-105.2297011">
  <ele>1582.99</ele>
  <time>2026-09-02T20:50:51Z</time>
  <course>46.82</course>
  <speed>0.78</speed>
  <fix>3d</fix>
</trkpt>
<trkpt lat="40.0707382" lon="-105.229699">
  <ele>1583.0</ele>
  <time>2026-09-02T20:50:51Z</time>
  <course>46.8</course>
  <speed>0.785175139698144</speed>
  <fix>3d</fix>
</trkpt>
<trkpt lat="40.0707376" lon="-105.2296998">
  <ele>1582.99</ele>
  <time>2026-09-02T20:50:51Z</time>
  <course>46.75</course>
  <speed>0.79</speed>
  <fix>3d</fix>
</trkpt>
<trkpt lat="40.0707387" lon="-105.2296983">
  <ele>1583.0</ele>
  <time>2026-09-02T20:50:51Z</time>
  <course>46.83</course>
  <speed>0.7783315488916018</speed>
  <fix>3d</fix>
</trkpt>
<trkpt lat="40.0707376" lon="-105.2296998">
  <ele>1582.99</ele>
  <time>2026-09-02T20:50:51Z</time>
  <course>46.75</course>
  <speed>0.79</speed>
  <fix>3d</fix>
</trkpt>
<trkpt lat="40.0707391" lon="-105.2296976">
  <ele>1582.99</ele>
  <time>2026-09-02T20:50:51Z</time>
  <course>46.89</course>
  <speed>0.785175139698144</speed>
  <fix>3d</fix>
</trkpt>
<trkpt lat="40.0707385" lon="-105.2296985">
  <ele>1582.99</ele>
  <time>2026-09-02T20:50:51Z</time>
  <course>46.79</course>
  <speed>0.79</speed>
  <fix>3d</fix>
</trkpt>
<trkpt lat="40.0707395" lon="-105.229697">
  <ele>1582.99</ele>
  <time>2026-09-02T20:50:51Z</time>
  <course>46.96</course>
  <speed>0.7783315488916018</speed>
  <fix>3d</fix>
</trkpt>
<trkpt lat="40.0707385" lon="-105.2296985">
  <ele>1582.99</ele>
  <time>2026-09-02T20:50:51Z</time>
  <course>46.79</course>
  <speed>0.79</speed>
  <fix>3d</fix>
</trkpt>
<trkpt lat="40.07074" lon="-105.2296963">
  <ele>1582.99</ele>
  <time>2026-09-02T20:50:51Z</time>
  <course>47.06</course>
  <speed>0.7783315488916018</speed>
  <fix>3d</fix>
</trkpt>
<trkpt lat="40.0707395" lon="-105.2296971">
  <ele>1582.99</ele>
  <time>2026-09-02T20:50:51Z</time>
  <course>46.91</course>
  <speed>0.78</speed>
  <fix>3d</fix>
</trkpt>
<trkpt lat="40.0707406" lon="-105.2296956">
  <ele>1582.99</ele>
  <time>2026-09-02T20:50:51Z</time>
  <course>47.16</course>
  <speed>0.7856844150166147</speed>
  <fix>3d</fix>
</trkpt>
<trkpt lat="40.0707395" lon="-105.2296971">
  <ele>1582.99</ele>
  <time>2026-09-02T20:50:51Z</time>
  <course>46.91</course>
  <speed>0.78</speed>
  <fix>3d</fix>
</trkpt>
<trkpt lat="40.0707411" lon="-105.2296949">
  <ele>1582.99</ele>
  <time>2026-09-02T20:50:51Z</time>
  <course>47.29</course>
  <speed>0.7856844150166147</speed>
  <fix>3d</fix>
</trkpt>
<trkpt lat="40.0707405" lon="-105.2296957">
  <ele>1582.99</ele>
  <time>2026-09-02T20:50:51Z</time>
  <course>47.1</course>
  <speed>0.78</speed>
  <fix>3d</fix>
</trkpt>
<trkpt lat="40.0707416" lon="-105.2296942">
  <ele>1582.99</ele>
  <time>2026-09-02T20:50:51Z</time>
  <course>47.43</course>
  <speed>0.7856844150166147</speed>
  <fix>3d</fix>
</trkpt>
<trkpt lat="40.0707405" lon="-105.2296957">
  <ele>1582.99</ele>
  <time>2026-09-02T20:50:51Z</time>
  <course>47.1</course>
  <speed>0.78</speed>
  <fix>3d</fix>
</trkpt>
<trkpt lat="40.0707419" lon="-105.2296935">
  <ele>1582.99</ele>
  <time>2026-09-02T20:50:51Z</time>
  <course>47.58</course>
  <speed>0.7856844150166147</speed>
  <fix>3d</fix>
</trkpt>
<trkpt lat="40.0707414" lon="-105.2296944">
  <ele>1582.99</ele>
  <time>2026-09-02T20:50:51Z</time>
  <course>47.36</course>
  <speed>0.78</speed>
  <fix>3d</fix>
</trkpt>
<trkpt lat="40.0707425" lon="-105.2296928">
  <ele>1582.99</ele>
  <time>2026-09-02T20:50:51Z</time>
  <course>47.75</course>
  <speed>0.7856844150166147</speed>
  <fix>3d</fix>
</trkpt>
<trkpt lat="40.0707414" lon="-105.2296944">
  <ele>1582.99</ele>
  <time>2026-09-02T20:50:51Z</time>
  <course>47.36</course>
  <speed>0.78</speed>
  <fix>3d</fix>
</trkpt>
<trkpt lat="40.0707429" lon="-105.2296923">
  <ele>1582.99</ele>
  <time>2026-09-02T20:50:51Z</time>
  <course>47.89</course>
  <speed>0.7856844150166147</speed>
  <fix>3d</fix>
</trkpt>
<trkpt lat="40.0707424" lon="-105.229693">
  <ele>1582.99</ele>
  <time>2026-09-02T20:50:51Z</time>
  <course>47.67</course>
  <speed>0.79</speed>
  <fix>3d</fix>
</trkpt>
<trkpt lat="40.0707434" lon="-105.2296916">
  <ele>1582.99</ele>
  <time>2026-09-02T20:50:51Z</time>
  <course>48.08</course>
  <speed>0.7856844150166147</speed>
  <fix>3d</fix>
</trkpt>
<trkpt lat="40.0707424" lon="-105.229693">
  <ele>1582.99</ele>
  <time>2026-09-02T20:50:51Z</time>
  <course>47.67</course>
  <speed>0.79</speed>
  <fix>3d</fix>
</trkpt>
<trkpt lat="40.0707438" lon="-105.2296909">
  <ele>1582.99</ele>
  <time>2026-09-02T20:50:51Z</time>
  <course>48.28</course>
  <speed>0.7789736837660179</speed>
  <fix>3d</fix>
</trkpt>
<trkpt lat="40.0707434" lon="-105.2296916">
  <ele>1582.99</ele>
  <time>2026-09-02T20:50:51Z</time>
  <course>48.03</course>
  <speed>0.79</speed>
  <fix>3d</fix>
</trkpt>
<trkpt lat="40.0707443" lon="-105.2296903">
  <ele>1582.99</ele>
  <time>2026-09-02T20:50:51Z</time>
  <course>48.49</course>
  <speed>0.7864477096412705</speed>
  <fix>3d</fix>
</trkpt>
<trkpt lat="40.0707434" lon="-105.2296916">
  <ele>1582.99</ele>
  <time>2026-09-02T20:50:51Z</time>
  <course>48.03</course>
  <speed>0.79</speed>
  <fix>3d</fix>
</trkpt>
<trkpt lat="40.0707448" lon="-105.2296896">
  <ele>1582.99</ele>
  <time>2026-09-02T20:50:51Z</time>
  <course>48.7</course>
  <speed>0.7864477096412705</speed>
  <fix>3d</fix>
</trkpt>
<trkpt lat="40.0707443" lon="-105.2296902">
  <ele>1582.99</ele>
  <time>2026-09-02T20:50:51Z</time>
  <course>48.43</course>
  <speed>0.79</speed>
  <fix>3d</fix>
</trkpt>
<trkpt lat="40.0707453" lon="-105.2296889">
  <ele>1582.99</ele>
  <time>2026-09-02T20:50:51Z</time>
  <course>48.91</course>
  <speed>0.7864477096412705</speed>
  <fix>3d</fix>
</trkpt>
<trkpt lat="40.0707443" lon="-105.2296902">
  <ele>1582.99</ele>
  <time>2026-09-02T20:50:51Z</time>
  <course>48.43</course>
  <speed>0.79</speed>
  <fix>3d</fix>
</trkpt>
<trkpt lat="40.0707456" lon="-105.2296882">
  <ele>1582.99</ele>
  <time>2026-09-02T20:50:51Z</time>
  <course>49.15</course>
  <speed>0.7798717843338097</speed>
  <fix>3d</fix>
</trkpt>
<trkpt lat="40.0707452" lon="-105.2296889">
  <ele>1582.99</ele>
  <time>2026-09-02T20:50:51Z</time>
  <course>48.87</course>
  <speed>0.79</speed>
  <fix>3d</fix>
</trkpt>
<trkpt lat="40.0707461" lon="-105.2296875">
  <ele>1582.99</ele>
  <time>2026-09-02T20:50:51Z</time>
  <course>49.38</course>
  <speed>0.7874642849044012</speed>
  <fix>3d</fix>
</trkpt>
<trkpt lat="40.0707452" lon="-105.2296889">
  <ele>1582.99</ele>
  <time>2026-09-02T20:50:51Z</time>
  <course>48.87</course>
  <speed>0.79</speed>
  <fix>3d</fix>
</trkpt>
<trkpt lat="40.0707467" lon="-105.2296868">
  <ele>1582.99</ele>
  <time>2026-09-02T20:50:51Z</time>
  <course>49.61</course>
  <speed>0.7874642849044012</speed>
  <fix>3d</fix>
</trkpt>
<trkpt lat="40.0707462" lon="-105.2296875">
  <ele>1582.99</ele>
  <time>2026-09-02T20:50:51Z</time>
  <course>49.32</course>
  <speed>0.79</speed>
  <fix>3d</fix>
</trkpt>
<trkpt lat="40.0707471" lon="-105.229686">
  <ele>1582.99</ele>
  <time>2026-09-02T20:50:51Z</time>
  <course>49.85</course>
  <speed>0.7874642849044012</speed>
  <fix>3d</fix>
</trkpt>
<trkpt lat="40.0707462" lon="-105.2296875">
  <ele>1582.99</ele>
  <time>2026-09-02T20:50:51Z</time>
  <course>49.32</course>
  <speed>0.79</speed>
  <fix>3d</fix>
</trkpt>
<trkpt lat="40.0707477" lon="-105.2296851">
  <ele>1582.99</ele>
  <time>2026-09-02T20:50:51Z</time>
  <course>50.14</course>
  <speed>0.7810249675906654</speed>
  <fix>3d</fix>
</trkpt>
<trkpt lat="40.0707471" lon="-105.229686">
  <ele>1582.99</ele>
  <time>2026-09-02T20:50:51Z</time>
  <course>49.79</course>
  <speed>0.79</speed>
  <fix>3d</fix>
</trkpt>
<trkpt lat="40.070748" lon="-105.2296844">
  <ele>1582.99</ele>
  <time>2026-09-02T20:50:51Z</time>
  <course>50.39</course>
  <speed>0.7887331614684399</speed>
  <fix>3d</fix>
</trkpt>
<trkpt lat="40.0707471" lon="-105.229686">
  <ele>1582.99</ele>
  <time>2026-09-02T20:50:51Z</time>
  <course>49.79</course>
  <speed>0.79</speed>
  <fix>3d</fix>
</trkpt>
<trkpt lat="40.0707486" lon="-105.2296837">
  <ele>1582.99</ele>
  <time>2026-09-02T20:50:51Z</time>
  <course>50.63</course>
  <speed>0.7887331614684399</speed>
  <fix>3d</fix>
</trkpt>
<trkpt lat="40.070748" lon="-105.2296846">
  <ele>1582.99</ele>
  <time>2026-09-02T20:50:51Z</time>
  <course>50.28</course>
  <speed>0.79</speed>
  <fix>3d</fix>
</trkpt>
<trkpt lat="40.070749" lon="-105.229683">
  <ele>1582.99</ele>
  <time>2026-09-02T20:50:51Z</time>
  <course>50.88</course>
  <speed>0.7887331614684399</speed>
  <fix>3d</fix>
</trkpt>
<trkpt lat="40.070748" lon="-105.2296846">
  <ele>1582.99</ele>
  <time>2026-09-02T20:50:51Z</time>
  <course>50.28</course>
  <speed>0.79</speed>
  <fix>3d</fix>
</trkpt>
<trkpt lat="40.0707495" lon="-105.2296822">
  <ele>1582.99</ele>
  <time>2026-09-02T20:50:51Z</time>
  <course>51.13</course>
  <speed>0.7964923100695951</speed>
  <fix>3d</fix>
</trkpt>
<trkpt lat="40.0707489" lon="-105.2296832">
  <ele>1582.99</ele>
  <time>2026-09-02T20:50:51Z</time>
  <course>50.77</course>
  <speed>0.79</speed>
  <fix>3d</fix>
</trkpt>
<trkpt lat="40.0707498" lon="-105.2296815">
  <ele>1582.99</ele>
  <time>2026-09-02T20:50:51Z</time>
  <course>51.37</course>
  <speed>0.7824321056807422</speed>
  <fix>3d</fix>
</trkpt>
<trkpt lat="40.0707489" lon="-105.2296832">
  <ele>1582.99</ele>
  <time>2026-09-02T20:50:51Z</time>
  <course>50.77</course>
  <speed>0.79</speed>
  <fix>3d</fix>
</trkpt>
<trkpt lat="40.0707504" lon="-105.2296808">
  <ele>1582.99</ele>
  <time>2026-09-02T20:50:51Z</time>
  <course>51.62</course>
  <speed>0.8043009387039157</speed>
  <fix>3d</fix>
</trkpt>
<trkpt lat="40.0707498" lon="-105.2296817">
  <ele>1582.99</ele>
  <time>2026-09-02T20:50:51Z</time>
  <course>51.26</course>
  <speed>0.79</speed>
  <fix>3d</fix>
</trkpt>
<trkpt lat="40.0707508" lon="-105.2296801">
  <ele>1582.99</ele>
  <time>2026-09-02T20:50:51Z</time>
  <course>51.86</course>
  <speed>0.7762087348130012</speed>
  <fix>3d</fix>
</trkpt>
<trkpt lat="40.0707498" lon="-105.2296817">
  <ele>1582.99</ele>
  <time>2026-09-02T20:50:51Z</time>
  <course>51.26</course>
  <speed>0.79</speed>
  <fix>3d</fix>
</trkpt>
<trkpt lat="40.0707513" lon="-105.2296794">
  <ele>1582.99</ele>
  <time>2026-09-02T20:50:51Z</time>
  <course>52.1</course>
  <speed>0.7981227975693966</speed>
  <fix>3d</fix>
</trkpt>
<trkpt lat="40.0707507" lon="-105.2296802">
  <ele>1582.99</ele>
  <time>2026-09-02T20:50:51Z</time>
  <course>51.75</course>
  <speed>0.8</speed>
  <fix>3d</fix>
</trkpt>
<trkpt lat="40.0707516" lon="-105.2296786">
  <ele>1582.99</ele>
  <time>2026-09-02T20:50:51Z</time>
  <course>52.35</course>
  <speed>0.7840918313565064</speed>
  <fix>3d</fix>
</trkpt>
<trkpt lat="40.0707507" lon="-105.2296802">
  <ele>1582.99</ele>
  <time>2026-09-02T20:50:51Z</time>
  <course>51.75</course>
  <speed>0.8</speed>
  <fix>3d</fix>
</trkpt>
<trkpt lat="40.0707522" lon="-105.2296779">
  <ele>1582.99</ele>
  <time>2026-09-02T20:50:51Z</time>
  <course>52.58</course>
  <speed>0.7920227269466451</speed>
  <fix>3d</fix>
</trkpt>
<trkpt lat="40.0707516" lon="-105.2296787">
  <ele>1582.99</ele>
  <time>2026-09-02T20:50:51Z</time>
  <course>52.23</course>
  <speed>0.8</speed>
  <fix>3d</fix>
</trkpt>
<trkpt lat="40.0707525" lon="-105.2296772">
  <ele>1582.99</ele>
  <time>2026-09-02T20:50:51Z</time>
  <course>52.77</course>
  <speed>0.7920227269466451</speed>
  <fix>3d</fix>
</trkpt>
<trkpt lat="40.0707516" lon="-105.2296787">
  <ele>1582.99</ele>
  <time>2026-09-02T20:50:51Z</time>
  <course>52.23</course>
  <speed>0.8</speed>
  <fix>3d</fix>
</trkpt>
<trkpt lat="40.0707528" lon="-105.2296765">
  <ele>1582.99</ele>
  <time>2026-09-02T20:50:51Z</time>
  <course>53.0</course>
  <speed>0.7920227269466451</speed>
  <fix>3d</fix>
</trkpt>
<trkpt lat="40.0707525" lon="-105.2296772">
  <ele>1582.99</ele>
  <time>2026-09-02T20:50:51Z</time>
  <course>52.7</course>
  <speed>0.79</speed>
  <fix>3d</fix>
</trkpt>
<trkpt lat="40.0707534" lon="-105.2296758">
  <ele>1582.99</ele>
  <time>2026-09-02T20:50:51Z</time>
  <course>53.22</course>
  <speed>0.7860025445251434</speed>
  <fix>3d</fix>
</trkpt>
<trkpt lat="40.0707525" lon="-105.2296772">
  <ele>1582.99</ele>
  <time>2026-09-02T20:50:51Z</time>
  <course>52.7</course>
  <speed>0.79</speed>
  <fix>3d</fix>
</trkpt>
<trkpt lat="40.0707538" lon="-105.2296751">
  <ele>1582.99</ele>
  <time>2026-09-02T20:50:51Z</time>
  <course>53.44</course>
  <speed>0.7940403012442127</speed>
  <fix>3d</fix>
</trkpt>
<trkpt lat="40.0707533" lon="-105.2296758">
  <ele>1582.99</ele>
  <time>2026-09-02T20:50:51Z</time>
  <course>53.15</course>
  <speed>0.8</speed>
  <fix>3d</fix>
</trkpt>
<trkpt lat="40.0707541" lon="-105.2296743">
  <ele>1582.99</ele>
  <time>2026-09-02T20:50:51Z</time>
  <course>53.66</course>
  <speed>0.7860025445251434</speed>
  <fix>3d</fix>
</trkpt>
<trkpt lat="40.0707533" lon="-105.2296758">
  <ele>1582.99</ele>
  <time>2026-09-02T20:50:51Z</time>
  <course>53.15</course>
  <speed>0.8</speed>
  <fix>3d</fix>
</trkpt>
<trkpt lat="40.0707546" lon="-105.2296736">
  <ele>1582.99</ele>
  <time>2026-09-02T20:50:51Z</time>
  <course>53.87</course>
  <speed>0.7940403012442127</speed>
  <fix>3d</fix>
</trkpt>
<trkpt lat="40.0707541" lon="-105.2296743">
  <ele>1582.99</ele>
  <time>2026-09-02T20:50:51Z</time>
  <course>53.58</course>
  <speed>0.8</speed>
  <fix>3d</fix>
</trkpt>
<trkpt lat="40.0707551" lon="-105.2296727">
  <ele>1582.99</ele>
  <time>2026-09-02T20:50:51Z</time>
  <course>54.08</course>
  <speed>0.7881624198095213</speed>
  <fix>3d</fix>
</trkpt>
<trkpt lat="40.0707541" lon="-105.2296743">
  <ele>1582.99</ele>
  <time>2026-09-02T20:50:51Z</time>
  <course>53.58</course>
  <speed>0.8</speed>
  <fix>3d</fix>
</trkpt>
<trkpt lat="40.0707555" lon="-105.2296719">
  <ele>1582.99</ele>
  <time>2026-09-02T20:50:51Z</time>
  <course>54.28</course>
  <speed>0.7881624198095213</speed>
  <fix>3d</fix>
</trkpt>
<trkpt lat="40.070755" lon="-105.2296728">
  <ele>1582.99</ele>
  <time>2026-09-02T20:50:51Z</time>
  <course>54.0</course>
  <speed>0.8</speed>
  <fix>3d</fix>
</trkpt>
<trkpt lat="40.0707558" lon="-105.2296712">
  <ele>1582.99</ele>
  <time>2026-09-02T20:50:51Z</time>
  <course>54.48</course>
  <speed>0.7881624198095213</speed>
  <fix>3d</fix>
</trkpt>
<trkpt lat="40.070755" lon="-105.2296728">
  <ele>1582.99</ele>
  <time>2026-09-02T20:50:51Z</time>
  <course>54.0</course>
  <speed>0.8</speed>
  <fix>3d</fix>
</trkpt>
<trkpt lat="40.0707563" lon="-105.2296705">
  <ele>1582.99</ele>
  <time>2026-09-02T20:50:51Z</time>
  <course>54.67</course>
  <speed>0.7963039620647382</speed>
  <fix>3d</fix>
</trkpt>
<trkpt lat="40.0707558" lon="-105.2296712">
  <ele>1582.99</ele>
  <time>2026-09-02T20:50:51Z</time>
  <course>54.4</course>
  <speed>0.8</speed>
  <fix>3d</fix>
</trkpt>
<trkpt lat="40.0707568" lon="-105.2296695">
  <ele>1582.99</ele>
  <time>2026-09-02T20:50:51Z</time>
  <course>54.89</course>
  <speed>0.7823681997627461</speed>
  <fix>3d</fix>
</trkpt>
<trkpt lat="40.0707558" lon="-105.2296712">
  <ele>1582.99</ele>
  <time>2026-09-02T20:50:51Z</time>
  <course>54.4</course>
  <speed>0.8</speed>
  <fix>3d</fix>
</trkpt>
<trkpt lat="40.0707571" lon="-105.2296688">
  <ele>1582.99</ele>
  <time>2026-09-02T20:50:51Z</time>
  <course>55.07</course>
  <speed>0.7905694150420949</speed>
  <fix>3d</fix>
</trkpt>
<trkpt lat="40.0707567" lon="-105.2296697">
  <ele>1582.99</ele>
  <time>2026-09-02T20:50:51Z</time>
  <course>54.77</course>
  <speed>0.8</speed>
  <fix>3d</fix>
</trkpt>
<trkpt lat="40.0707576" lon="-105.2296681">
  <ele>1582.99</ele>
  <time>2026-09-02T20:50:51Z</time>
  <course>55.24</course>
  <speed>0.7905694150420949</speed>
  <fix>3d</fix>
</trkpt>
<trkpt lat="40.0707567" lon="-105.2296697">
  <ele>1582.99</ele>
  <time>2026-09-02T20:50:51Z</time>
  <course>54.77</course>
  <speed>0.8</speed>
  <fix>3d</fix>
</trkpt>
<trkpt lat="40.070758" lon="-105.2296672">
  <ele>1582.99</ele>
  <time>2026-09-02T20:50:51Z</time>
  <course>55.41</course>
  <speed>0.7988116173416608</speed>
  <fix>3d</fix>
</trkpt>
<trkpt lat="40.0707575" lon="-105.2296681">
  <ele>1582.99</ele>
  <time>2026-09-02T20:50:51Z</time>
  <course>55.13</course>
  <speed>0.8</speed>
  <fix>3d</fix>
</trkpt>
<trkpt lat="40.0707584" lon="-105.2296664">
  <ele>1582.99</ele>
  <time>2026-09-02T20:50:51Z</time>
  <course>55.57</course>
  <speed>0.7905694150420949</speed>
  <fix>3d</fix>
</trkpt>
<trkpt lat="40.0707575" lon="-105.2296681">
  <ele>1582.99</ele>
  <time>2026-09-02T20:50:51Z</time>
  <course>55.13</course>
  <speed>0.8</speed>
  <fix>3d</fix>
</trkpt>
<trkpt lat="40.0707589" lon="-105.2296657">
  <ele>1582.99</ele>
  <time>2026-09-02T20:50:51Z</time>
  <course>55.73</course>
  <speed>0.7988116173416608</speed>
  <fix>3d</fix>
</trkpt>
<trkpt lat="40.0707584" lon="-105.2296666">
  <ele>1582.99</ele>
  <time>2026-09-02T20:50:51Z</time>
  <course>55.46</course>
  <speed>0.8</speed>
  <fix>3d</fix>
</trkpt>
<trkpt lat="40.0707593" lon="-105.229665">
  <ele>1582.99</ele>
  <time>2026-09-02T20:50:51Z</time>
  <course>55.88</course>
  <speed>0.7849203781276163</speed>
  <fix>3d</fix>
</trkpt>
<trkpt lat="40.0707584" lon="-105.2296666">
  <ele>1582.99</ele>
  <time>2026-09-02T20:50:51Z</time>
  <course>55.46</course>
  <speed>0.8</speed>
  <fix>3d</fix>
</trkpt>
<trkpt lat="40.0707596" lon="-105.2296642">
  <ele>1582.99</ele>
  <time>2026-09-02T20:50:51Z</time>
  <course>56.02</course>
  <speed>0.7932212806020776</speed>
  <fix>3d</fix>
</trkpt>
<trkpt lat="40.0707592" lon="-105.2296651">
  <ele>1582.99</ele>
  <time>2026-09-02T20:50:51Z</time>
  <course>55.77</course>
  <speed>0.8</speed>
  <fix>3d</fix>
</trkpt>
<trkpt lat="40.0707601" lon="-105.2296633">
  <ele>1582.99</ele>
  <time>2026-09-02T20:50:51Z</time>
  <course>56.16</course>
  <speed>0.7932212806020776</speed>
  <fix>3d</fix>
</trkpt>
<trkpt lat="40.0707592" lon="-105.2296651">
  <ele>1582.99</ele>
  <time>2026-09-02T20:50:51Z</time>
  <course>55.77</course>
  <speed>0.8</speed>
  <fix>3d</fix>
</trkpt>
<trkpt lat="40.0707605" lon="-105.2296626">
  <ele>1582.99</ele>
  <time>2026-09-02T20:50:51Z</time>
  <course>56.29</course>
  <speed>0.7932212806020776</speed>
  <fix>3d</fix>
</trkpt>
<trkpt lat="40.0707599" lon="-105.2296635">
  <ele>1582.99</ele>
  <time>2026-09-02T20:50:51Z</time>
  <course>56.05</course>
  <speed>0.8</speed>
  <fix>3d</fix>
</trkpt>
<trkpt lat="40.0707608" lon="-105.2296619">
  <ele>1582.99</ele>
  <time>2026-09-02T20:50:51Z</time>
  <course>56.42</course>
  <speed>0.7793587107359485</speed>
  <fix>3d</fix>
</trkpt>
<trkpt lat="40.0707599" lon="-105.2296635">
  <ele>1582.99</ele>
  <time>2026-09-02T20:50:51Z</time>
  <course>56.05</course>
  <speed>0.8</speed>
  <fix>3d</fix>
</trkpt>
<trkpt lat="40.0707612" lon="-105.2296612">
  <ele>1582.99</ele>
  <time>2026-09-02T20:50:51Z</time>
  <course>56.51</course>
  <speed>0.7932212806020776</speed>
  <fix>3d</fix>
</trkpt>
<trkpt lat="40.0707608" lon="-105.2296619">
  <ele>1582.99</ele>
  <time>2026-09-02T20:50:51Z</time>
  <course>56.3</course>
  <speed>0.8</speed>
  <fix>3d</fix>
</trkpt>
<trkpt lat="40.0707616" lon="-105.2296604">
  <ele>1582.99</ele>
  <time>2026-09-02T20:50:51Z</time>
  <course>56.62</course>
  <speed>0.7877182237323191</speed>
  <fix>3d</fix>
</trkpt>
<trkpt lat="40.0707608" lon="-105.2296619">
  <ele>1582.99</ele>
  <time>2026-09-02T20:50:51Z</time>
  <course>56.3</course>
  <speed>0.8</speed>
  <fix>3d</fix>
</trkpt>
<trkpt lat="40.0707619" lon="-105.2296597">
  <ele>1582.99</ele>
  <time>2026-09-02T20:50:51Z</time>
  <course>56.73</course>
  <speed>0.7877182237323191</speed>
  <fix>3d</fix>
</trkpt>
<trkpt lat="40.0707616" lon="-105.2296604">
  <ele>1582.99</ele>
  <time>2026-09-02T20:50:51Z</time>
  <course>56.54</course>
  <speed>0.8</speed>
  <fix>3d</fix>
</trkpt>
<trkpt lat="40.0707624" lon="-105.2296588">
  <ele>1582.99</ele>
  <time>2026-09-02T20:50:51Z</time>
  <course>56.84</course>
  <speed>0.7877182237323191</speed>
  <fix>3d</fix>
</trkpt>
<trkpt lat="40.0707616" lon="-105.2296604">
  <ele>1582.99</ele>
  <time>2026-09-02T20:50:51Z</time>
  <course>56.54</course>
  <speed>0.8</speed>
  <fix>3d</fix>
</trkpt>
<trkpt lat="40.0707628" lon="-105.2296581">
  <ele>1582.99</ele>
  <time>2026-09-02T20:50:51Z</time>
  <course>56.94</course>
  <speed>0.7961155694998057</speed>
  <fix>3d</fix>
</trkpt>
<trkpt lat="40.0707623" lon="-105.2296589">
  <ele>1582.99</ele>
  <time>2026-09-02T20:50:51Z</time>
  <course>56.75</course>
  <speed>0.8</speed>
  <fix>3d</fix>
</trkpt>
<trkpt lat="40.0707631" lon="-105.2296573">
  <ele>1582.99</ele>
  <time>2026-09-02T20:50:51Z</time>
  <course>57.03</course>
  <speed>0.7877182237323191</speed>
  <fix>3d</fix>
</trkpt>
<trkpt lat="40.0707623" lon="-105.2296589">
  <ele>1582.99</ele>
  <time>2026-09-02T20:50:51Z</time>
  <course>56.75</course>
  <speed>0.8</speed>
  <fix>3d</fix>
</trkpt>
<trkpt lat="40.0707636" lon="-105.2296564">
  <ele>1582.99</ele>
  <time>2026-09-02T20:50:51Z</time>
  <course>57.11</course>
  <speed>0.7961155694998057</speed>
  <fix>3d</fix>
</trkpt>
<trkpt lat="40.0707632" lon="-105.2296572">
  <ele>1582.99</ele>
  <time>2026-09-02T20:50:51Z</time>
  <course>56.94</course>
  <speed>0.8</speed>
  <fix>3d</fix>
</trkpt>
<trkpt lat="40.0707638" lon="-105.2296557">
  <ele>1582.99</ele>
  <time>2026-09-02T20:50:51Z</time>
  <course>57.19</course>
  <speed>0.7877182237323191</speed>
  <fix>3d</fix>
</trkpt>
<trkpt lat="40.0707632" lon="-105.2296572">
  <ele>1582.99</ele>
  <time>2026-09-02T20:50:51Z</time>
  <course>56.94</course>
  <speed>0.8</speed>
  <fix>3d</fix>
</trkpt>
<trkpt lat="40.0707643" lon="-105.2296549">
  <ele>1582.99</ele>
  <time>2026-09-02T20:50:51Z</time>
  <course>57.27</course>
  <speed>0.7961155694998057</speed>
  <fix>3d</fix>
</trkpt>
<trkpt lat="40.0707639" lon="-105.2296557">
  <ele>1582.99</ele>
  <time>2026-09-02T20:50:51Z</time>
  <course>57.1</course>
  <speed>0.8</speed>
  <fix>3d</fix>
</trkpt>
<trkpt lat="40.0707647" lon="-105.2296542">
  <ele>1582.99</ele>
  <time>2026-09-02T20:50:51Z</time>
  <course>57.33</course>
  <speed>0.7877182237323191</speed>
  <fix>3d</fix>
</trkpt>
<trkpt lat="40.0707639" lon="-105.2296557">
  <ele>1582.99</ele>
  <time>2026-09-02T20:50:51Z</time>
  <course>57.1</course>
  <speed>0.8</speed>
  <fix>3d</fix>
</trkpt>
<trkpt lat="40.0707651" lon="-105.2296532">
  <ele>1582.99</ele>
  <time>2026-09-02T20:50:51Z</time>
  <course>57.41</course>
  <speed>0.7961155694998057</speed>
  <fix>3d</fix>
</trkpt>
<trkpt lat="40.0707647" lon="-105.2296541">
  <ele>1582.99</ele>
  <time>2026-09-02T20:50:51Z</time>
  <course>57.25</course>
  <speed>0.8</speed>
  <fix>3d</fix>
</trkpt>
<trkpt lat="40.0707656" lon="-105.2296523">
  <ele>1582.99</ele>
  <time>2026-09-02T20:50:51Z</time>
  <course>57.47</course>
  <speed>0.7823042886243178</speed>
  <fix>3d</fix>
</trkpt>
<trkpt lat="40.0707647" lon="-105.2296541">
  <ele>1582.99</ele>
  <time>2026-09-02T20:50:51Z</time>
  <course>57.25</course>
  <speed>0.8</speed>
  <fix>3d</fix>
</trkpt>
<trkpt lat="40.070766" lon="-105.2296516">
  <ele>1582.99</ele>
  <time>2026-09-02T20:50:51Z</time>
  <course>57.53</course>
  <speed>0.8045495634204272</speed>
  <fix>3d</fix>
</trkpt>
<trkpt lat="40.0707654" lon="-105.2296526">
  <ele>1582.99</ele>
  <time>2026-09-02T20:50:51Z</time>
  <course>57.37</course>
  <speed>0.8</speed>
  <fix>3d</fix>
</trkpt>
<trkpt lat="40.0707662" lon="-105.2296508">
  <ele>1582.99</ele>
  <time>2026-09-02T20:50:51Z</time>
  <course>57.57</course>
  <speed>0.7823042886243178</speed>
  <fix>3d</fix>
</trkpt>
<trkpt lat="40.0707654" lon="-105.2296526">
  <ele>1582.99</ele>
  <time>2026-09-02T20:50:51Z</time>
  <course>57.37</course>
  <speed>0.8</speed>
  <fix>3d</fix>
</trkpt>
<trkpt lat="40.0707667" lon="-105.2296499">
  <ele>1582.99</ele>
  <time>2026-09-02T20:50:51Z</time>
  <course>57.62</course>
  <speed>0.8045495634204272</speed>
  <fix>3d</fix>
</trkpt>
<trkpt lat="40.0707663" lon="-105.2296509">
  <ele>1582.99</ele>
  <time>2026-09-02T20:50:51Z</time>
  <course>57.47</course>
  <speed>0.8</speed>
  <fix>3d</fix>
</trkpt>
<trkpt lat="40.0707671" lon="-105.2296492">
  <ele>1582.99</ele>
  <time>2026-09-02T20:50:51Z</time>
  <course>57.66</course>
  <speed>0.7823042886243178</speed>
  <fix>3d</fix>
</trkpt>
<trkpt lat="40.0707663" lon="-105.2296509">
  <ele>1582.99</ele>
  <time>2026-09-02T20:50:51Z</time>
  <course>57.47</course>
  <speed>0.8</speed>
  <fix>3d</fix>
</trkpt>
<trkpt lat="40.0707674" lon="-105.2296485">
  <ele>1582.99</ele>
  <time>2026-09-02T20:50:51Z</time>
  <course>57.7</course>
  <speed>0.7961155694998057</speed>
  <fix>3d</fix>
</trkpt>
<trkpt lat="40.070767" lon="-105.2296494">
  <ele>1582.99</ele>
  <time>2026-09-02T20:50:51Z</time>
  <course>57.56</course>
  <speed>0.8</speed>
  <fix>3d</fix>
</trkpt>
<trkpt lat="40.0707679" lon="-105.2296477">
  <ele>1582.99</ele>
  <time>2026-09-02T20:50:51Z</time>
  <course>57.73</course>
  <speed>0.7907591289387687</speed>
  <fix>3d</fix>
</trkpt>
<trkpt lat="40.070767" lon="-105.2296494">
  <ele>1582.99</ele>
  <time>2026-09-02T20:50:51Z</time>
  <course>57.56</course>
  <speed>0.8</speed>
  <fix>3d</fix>
</trkpt>
<trkpt lat="40.0707683" lon="-105.2296468">
  <ele>1582.99</ele>
  <time>2026-09-02T20:50:51Z</time>
  <course>57.76</course>
  <speed>0.7907591289387687</speed>
  <fix>3d</fix>
</trkpt>
<trkpt lat="40.0707678" lon="-105.2296478">
  <ele>1582.99</ele>
  <time>2026-09-02T20:50:51Z</time>
  <course>57.63</course>
  <speed>0.8</speed>
  <fix>3d</fix>
</trkpt>
<trkpt lat="40.0707686" lon="-105.2296461">
  <ele>1582.99</ele>
  <time>2026-09-02T20:50:51Z</time>
  <course>57.79</course>
  <speed>0.7907591289387687</speed>
  <fix>3d</fix>
</trkpt>
<trkpt lat="40.0707678" lon="-105.2296478">
  <ele>1582.99</ele>
  <time>2026-09-02T20:50:51Z</time>
  <course>57.63</course>
  <speed>0.8</speed>
  <fix>3d</fix>
</trkpt>
<trkpt lat="40.070769" lon="-105.2296453">
  <ele>1582.99</ele>
  <time>2026-09-02T20:50:51Z</time>
  <course>57.81</course>
  <speed>0.7907591289387687</speed>
  <fix>3d</fix>
</trkpt>
<trkpt lat="40.0707685" lon="-105.2296461">
  <ele>1582.99</ele>
  <time>2026-09-02T20:50:51Z</time>
  <course>57.69</course>
  <speed>0.8</speed>
  <fix>3d</fix>
</trkpt>
<trkpt lat="40.0707692" lon="-105.2296446">
  <ele>1582.99</ele>
  <time>2026-09-02T20:50:51Z</time>
  <course>57.82</course>
  <speed>0.7907591289387687</speed>
  <fix>3d</fix>
</trkpt>
<trkpt lat="40.0707685" lon="-105.2296461">
  <ele>1582.99</ele>
  <time>2026-09-02T20:50:51Z</time>
  <course>57.69</course>
  <speed>0.8</speed>
  <fix>3d</fix>
</trkpt>
<trkpt lat="40.0707697" lon="-105.2296439">
  <ele>1582.99</ele>
  <time>2026-09-02T20:50:51Z</time>
  <course>57.83</course>
  <speed>0.7907591289387687</speed>
  <fix>3d</fix>
</trkpt>
<trkpt lat="40.0707693" lon="-105.2296446">
  <ele>1582.99</ele>
  <time>2026-09-02T20:50:51Z</time>
  <course>57.73</course>
  <speed>0.8</speed>
  <fix>3d</fix>
</trkpt>
<trkpt lat="40.0707701" lon="-105.229643">
  <ele>1582.99</ele>
  <time>2026-09-02T20:50:51Z</time>
  <course>57.85</course>
  <speed>0.7907591289387687</speed>
  <fix>3d</fix>
</trkpt>
<trkpt lat="40.0707693" lon="-105.2296446">
  <ele>1582.99</ele>
  <time>2026-09-02T20:50:51Z</time>
  <course>57.73</course>
  <speed>0.8</speed>
  <fix>3d</fix>
</trkpt>
<trkpt lat="40.0707704" lon="-105.2296423">
  <ele>1582.99</ele>
  <time>2026-09-02T20:50:51Z</time>
  <course>57.85</course>
  <speed>0.7907591289387687</speed>
  <fix>3d</fix>
</trkpt>
<trkpt lat="40.0707701" lon="-105.2296431">
  <ele>1582.99</ele>
  <time>2026-09-02T20:50:51Z</time>
  <course>57.75</course>
  <speed>0.8</speed>
  <fix>3d</fix>
</trkpt>
<trkpt lat="40.0707709" lon="-105.2296415">
  <ele>1582.99</ele>
  <time>2026-09-02T20:50:51Z</time>
  <course>57.85</course>
  <speed>0.7907591289387687</speed>
  <fix>3d</fix>
</trkpt>
<trkpt lat="40.0707701" lon="-105.2296431">
  <ele>1582.99</ele>
  <time>2026-09-02T20:50:51Z</time>
  <course>57.75</course>
  <speed>0.8</speed>
  <fix>3d</fix>
</trkpt>
<trkpt lat="40.0707712" lon="-105.2296406">
  <ele>1582.99</ele>
  <time>2026-09-02T20:50:51Z</time>
  <course>57.86</course>
  <speed>0.7907591289387687</speed>
  <fix>3d</fix>
</trkpt>
<trkpt lat="40.0707709" lon="-105.2296414">
  <ele>1582.99</ele>
  <time>2026-09-02T20:50:51Z</time>
  <course>57.76</course>
  <speed>0.8</speed>
  <fix>3d</fix>
</trkpt>
<trkpt lat="40.0707716" lon="-105.2296399">
  <ele>1582.99</ele>
  <time>2026-09-02T20:50:51Z</time>
  <course>57.85</course>
  <speed>0.7907591289387687</speed>
  <fix>3d</fix>
</trkpt>
<trkpt lat="40.0707709" lon="-105.2296414">
  <ele>1582.99</ele>
  <time>2026-09-02T20:50:51Z</time>
  <course>57.76</course>
  <speed>0.8</speed>
  <fix>3d</fix>
</trkpt>
<trkpt lat="40.070772" lon="-105.2296391">
  <ele>1582.99</ele>
  <time>2026-09-02T20:50:51Z</time>
  <course>57.85</course>
  <speed>0.7907591289387687</speed>
  <fix>3d</fix>
</trkpt>
<trkpt lat="40.0707716" lon="-105.2296399">
  <ele>1582.99</ele>
  <time>2026-09-02T20:50:51Z</time>
  <course>57.76</course>
  <speed>0.8</speed>
  <fix>3d</fix>
</trkpt>
<trkpt lat="40.0707723" lon="-105.2296382">
  <ele>1582.99</ele>
  <time>2026-09-02T20:50:51Z</time>
  <course>57.84</course>
  <speed>0.7907591289387687</speed>
  <fix>3d</fix>
</trkpt>
<trkpt lat="40.0707716" lon="-105.2296399">
  <ele>1582.99</ele>
  <time>2026-09-02T20:50:51Z</time>
  <course>57.76</course>
  <speed>0.8</speed>
  <fix>3d</fix>
</trkpt>
<trkpt lat="40.0707728" lon="-105.2296375">
  <ele>1582.99</ele>
  <time>2026-09-02T20:50:51Z</time>
  <course>57.83</course>
  <speed>0.7907591289387687</speed>
  <fix>3d</fix>
</trkpt>
<trkpt lat="40.0707723" lon="-105.2296383">
  <ele>1582.99</ele>
  <time>2026-09-02T20:50:51Z</time>
  <course>57.75</course>
  <speed>0.8</speed>
  <fix>3d</fix>
</trkpt>
<trkpt lat="40.0707733" lon="-105.2296365">
  <ele>1582.99</ele>
  <time>2026-09-02T20:50:51Z</time>
  <course>57.82</course>
  <speed>0.7907591289387687</speed>
  <fix>3d</fix>
</trkpt>
<trkpt lat="40.0707723" lon="-105.2296383">
  <ele>1582.99</ele>
  <time>2026-09-02T20:50:51Z</time>
  <course>57.75</course>
  <speed>0.8</speed>
  <fix>3d</fix>
</trkpt>
<trkpt lat="40.0707735" lon="-105.2296358">
  <ele>1582.99</ele>
  <time>2026-09-02T20:50:51Z</time>
  <course>57.8</course>
  <speed>0.7907591289387687</speed>
  <fix>3d</fix>
</trkpt>
<trkpt lat="40.0707732" lon="-105.2296366">
  <ele>1582.99</ele>
  <time>2026-09-02T20:50:51Z</time>
  <course>57.73</course>
  <speed>0.8</speed>
  <fix>3d</fix>
</trkpt>
<trkpt lat="40.070774" lon="-105.229635">
  <ele>1582.99</ele>
  <time>2026-09-02T20:50:51Z</time>
  <course>57.79</course>
  <speed>0.7907591289387687</speed>
  <fix>3d</fix>
</trkpt>
<trkpt lat="40.0707732" lon="-105.2296366">
  <ele>1582.99</ele>
  <time>2026-09-02T20:50:51Z</time>
  <course>57.73</course>
  <speed>0.8</speed>
  <fix>3d</fix>
</trkpt>
<trkpt lat="40.0707744" lon="-105.2296341">
  <ele>1582.99</ele>
  <time>2026-09-02T20:50:51Z</time>
  <course>57.77</course>
  <speed>0.7907591289387687</speed>
  <fix>3d</fix>
</trkpt>
<trkpt lat="40.0707739" lon="-105.2296351">
  <ele>1582.99</ele>
  <time>2026-09-02T20:50:51Z</time>
  <course>57.7</course>
  <speed>0.8</speed>
  <fix>3d</fix>
</trkpt>
<trkpt lat="40.0707747" lon="-105.2296334">
  <ele>1582.99</ele>
  <time>2026-09-02T20:50:51Z</time>
  <course>57.75</course>
  <speed>0.7907591289387687</speed>
  <fix>3d</fix>
</trkpt>
<trkpt lat="40.0707739" lon="-105.2296351">
  <ele>1582.99</ele>
  <time>2026-09-02T20:50:51Z</time>
  <course>57.7</course>
  <speed>0.8</speed>
  <fix>3d</fix>
</trkpt>
<trkpt lat="40.0707752" lon="-105.2296326">
  <ele>1582.99</ele>
  <time>2026-09-02T20:50:51Z</time>
  <course>57.73</course>
  <speed>0.7907591289387687</speed>
  <fix>3d</fix>
</trkpt>
<trkpt lat="40.0707747" lon="-105.2296335">
  <ele>1582.99</ele>
  <time>2026-09-02T20:50:51Z</time>
  <course>57.66</course>
  <speed>0.79</speed>
  <fix>3d</fix>
</trkpt>
<trkpt lat="40.0707756" lon="-105.2296317">
  <ele>1582.99</ele>
  <time>2026-09-02T20:50:51Z</time>
  <course>57.71</course>
  <speed>0.7907591289387687</speed>
  <fix>3d</fix>
</trkpt>
<trkpt lat="40.0707747" lon="-105.2296335">
  <ele>1582.99</ele>
  <time>2026-09-02T20:50:51Z</time>
  <course>57.66</course>
  <speed>0.79</speed>
  <fix>3d</fix>
</trkpt>
<trkpt lat="40.0707759" lon="-105.229631">
  <ele>1582.99</ele>
  <time>2026-09-02T20:50:51Z</time>
  <course>57.69</course>
  <speed>0.7907591289387687</speed>
  <fix>3d</fix>
</trkpt>
<trkpt lat="40.0707754" lon="-105.2296318">
  <ele>1582.99</ele>
  <time>2026-09-02T20:50:51Z</time>
  <course>57.62</course>
  <speed>0.79</speed>
  <fix>3d</fix>
</trkpt>
<trkpt lat="40.0707763" lon="-105.2296301">
  <ele>1582.99</ele>
  <time>2026-09-02T20:50:51Z</time>
  <course>57.66</course>
  <speed>0.7961155694998057</speed>
  <fix>3d</fix>
</trkpt>
<trkpt lat="40.0707754" lon="-105.2296318">
  <ele>1582.99</ele>
  <time>2026-09-02T20:50:51Z</time>
  <course>57.62</course>
  <speed>0.79</speed>
  <fix>3d</fix>
</trkpt>
<trkpt lat="40.0707766" lon="-105.2296293">
  <ele>1582.99</ele>
  <time>2026-09-02T20:50:51Z</time>
  <course>57.64</course>
  <speed>0.7907591289387687</speed>
  <fix>3d</fix>
</trkpt>
<trkpt lat="40.0707762" lon="-105.2296303">
  <ele>1582.99</ele>
  <time>2026-09-02T20:50:51Z</time>
  <course>57.57</course>
  <speed>0.79</speed>
  <fix>3d</fix>
</trkpt>
<trkpt lat="40.0707771" lon="-105.2296286">
  <ele>1582.99</ele>
  <time>2026-09-02T20:50:51Z</time>
  <course>57.61</course>
  <speed>0.7907591289387687</speed>
  <fix>3d</fix>
</trkpt>
<trkpt lat="40.0707762" lon="-105.2296303">
  <ele>1582.99</ele>
  <time>2026-09-02T20:50:51Z</time>
  <course>57.57</course>
  <speed>0.79</speed>
  <fix>3d</fix>
</trkpt>
<trkpt lat="40.0707774" lon="-105.2296279">
  <ele>1582.99</ele>
  <time>2026-09-02T20:50:51Z</time>
  <course>57.59</course>
  <speed>0.7907591289387687</speed>
  <fix>3d</fix>
</trkpt>
<trkpt lat="40.0707769" lon="-105.2296288">
  <ele>1582.99</ele>
  <time>2026-09-02T20:50:51Z</time>
  <course>57.52</course>
  <speed>0.79</speed>
  <fix>3d</fix>
</trkpt>
<trkpt lat="40.0707777" lon="-105.2296272">
  <ele>1582.99</ele>
  <time>2026-09-02T20:50:51Z</time>
  <course>57.55</course>
  <speed>0.7961155694998057</speed>
  <fix>3d</fix>
</trkpt>
<trkpt lat="40.0707769" lon="-105.2296288">
  <ele>1582.99</ele>
  <time>2026-09-02T20:50:51Z</time>
  <course>57.52</course>
  <speed>0.79</speed>
  <fix>3d</fix>
</trkpt>
<trkpt lat="40.0707782" lon="-105.2296264">
  <ele>1582.99</ele>
  <time>2026-09-02T20:50:51Z</time>
  <course>57.52</course>
  <speed>0.7907591289387687</speed>
  <fix>3d</fix>
</trkpt>
<trkpt lat="40.0707778" lon="-105.2296272">
  <ele>1582.99</ele>
  <time>2026-09-02T20:50:51Z</time>
  <course>57.46</course>
  <speed>0.79</speed>
  <fix>3d</fix>
</trkpt>
<trkpt lat="40.0707786" lon="-105.2296255">
  <ele>1582.99</ele>
  <time>2026-09-02T20:50:51Z</time>
  <course>57.5</course>
  <speed>0.7961155694998057</speed>
  <fix>3d</fix>
</trkpt>
<trkpt lat="40.0707778" lon="-105.2296272">
  <ele>1582.99</ele>
  <time>2026-09-02T20:50:51Z</time>
  <course>57.46</course>
  <speed>0.79</speed>
  <fix>3d</fix>
</trkpt>
<trkpt lat="40.070779" lon="-105.2296248">
  <ele>1582.99</ele>
  <time>2026-09-02T20:50:51Z</time>
  <course>57.46</course>
  <speed>0.7961155694998057</speed>
  <fix>3d</fix>
</trkpt>
<trkpt lat="40.0707786" lon="-105.2296255">
  <ele>1582.99</ele>
  <time>2026-09-02T20:50:51Z</time>
  <course>57.4</course>
  <speed>0.79</speed>
  <fix>3d</fix>
</trkpt>
<trkpt lat="40.0707793" lon="-105.229624">
  <ele>1582.99</ele>
  <time>2026-09-02T20:50:51Z</time>
  <course>57.43</course>
  <speed>0.7961155694998057</speed>
  <fix>3d</fix>
</trkpt>
<trkpt lat="40.0707786" lon="-105.2296255">
  <ele>1582.99</ele>
  <time>2026-09-02T20:50:51Z</time>
  <course>57.4</course>
  <speed>0.79</speed>
  <fix>3d</fix>
</trkpt>
<trkpt lat="40.0707796" lon="-105.2296231">
  <ele>1582.99</ele>
  <time>2026-09-02T20:50:51Z</time>
  <course>57.41</course>
  <speed>0.7961155694998057</speed>
  <fix>3d</fix>
</trkpt>
<trkpt lat="40.0707793" lon="-105.229624">
  <ele>1582.99</ele>
  <time>2026-09-02T20:50:51Z</time>
  <course>57.34</course>
  <speed>0.79</speed>
  <fix>3d</fix>
</trkpt>
<trkpt lat="40.0707801" lon="-105.2296224">
  <ele>1582.99</ele>
  <time>2026-09-02T20:50:51Z</time>
  <course>57.37</course>
  <speed>0.7961155694998057</speed>
  <fix>3d</fix>
</trkpt>
<trkpt lat="40.0707793" lon="-105.229624">
  <ele>1582.99</ele>
  <time>2026-09-02T20:50:51Z</time>
  <course>57.34</course>
  <speed>0.79</speed>
  <fix>3d</fix>
</trkpt>
<trkpt lat="40.0707805" lon="-105.2296217">
  <ele>1582.99</ele>
  <time>2026-09-02T20:50:51Z</time>
  <course>57.34</course>
  <speed>0.7877182237323191</speed>
  <fix>3d</fix>
</trkpt>
<trkpt lat="40.07078" lon="-105.2296224">
  <ele>1582.99</ele>
  <time>2026-09-02T20:50:51Z</time>
  <course>57.28</course>
  <speed>0.79</speed>
  <fix>3d</fix>
</trkpt>
<trkpt lat="40.0707809" lon="-105.2296207">
  <ele>1582.99</ele>
  <time>2026-09-02T20:50:51Z</time>
  <course>57.3</course>
  <speed>0.7961155694998057</speed>
  <fix>3d</fix>
</trkpt>
<trkpt lat="40.07078" lon="-105.2296224">
  <ele>1582.99</ele>
  <time>2026-09-02T20:50:51Z</time>
  <course>57.28</course>
  <speed>0.79</speed>
  <fix>3d</fix>
</trkpt>
<trkpt lat="40.0707814" lon="-105.2296198">
  <ele>1582.99</ele>
  <time>2026-09-02T20:50:51Z</time>
  <course>57.26</course>
  <speed>0.7877182237323191</speed>
  <fix>3d</fix>
</trkpt>
<trkpt lat="40.0707809" lon="-105.2296208">
  <ele>1582.99</ele>
  <time>2026-09-02T20:50:51Z</time>
  <course>57.21</course>
  <speed>0.79</speed>
  <fix>3d</fix>
</trkpt>
<trkpt lat="40.0707818" lon="-105.229619">
  <ele>1582.99</ele>
  <time>2026-09-02T20:50:51Z</time>
  <course>57.23</course>
  <speed>0.7961155694998057</speed>
  <fix>3d</fix>
</trkpt>
<trkpt lat="40.0707809" lon="-105.2296208">
  <ele>1582.99</ele>
  <time>2026-09-02T20:50:51Z</time>
  <course>57.21</course>
  <speed>0.79</speed>
  <fix>3d</fix>
</trkpt>
<trkpt lat="40.070782" lon="-105.2296183">
  <ele>1582.99</ele>
  <time>2026-09-02T20:50:51Z</time>
  <course>57.2</course>
  <speed>0.7877182237323191</speed>
  <fix>3d</fix>
</trkpt>
<trkpt lat="40.0707817" lon="-105.2296193">
  <ele>1582.99</ele>
  <time>2026-09-02T20:50:51Z</time>
  <course>57.15</course>
  <speed>0.79</speed>
  <fix>3d</fix>
</trkpt>
<trkpt lat="40.0707825" lon="-105.2296176">
  <ele>1582.99</ele>
  <time>2026-09-02T20:50:51Z</time>
  <course>57.17</course>
  <speed>0.7961155694998057</speed>
  <fix>3d</fix>
</trkpt>
<trkpt lat="40.0707817" lon="-105.2296193">
  <ele>1582.99</ele>
  <time>2026-09-02T20:50:51Z</time>
  <course>57.15</course>
  <speed>0.79</speed>
  <fix>3d</fix>
</trkpt>
<trkpt lat="40.0707829" lon="-105.2296168">
  <ele>1582.99</ele>
  <time>2026-09-02T20:50:51Z</time>
  <course>57.13</course>
  <speed>0.7877182237323191</speed>
  <fix>3d</fix>
</trkpt>
<trkpt lat="40.0707824" lon="-105.2296177">
  <ele>1582.99</ele>
  <time>2026-09-02T20:50:51Z</time>
  <course>57.08</course>
  <speed>0.79</speed>
  <fix>3d</fix>
</trkpt>
<trkpt lat="40.0707832" lon="-105.2296159">
  <ele>1582.99</ele>
  <time>2026-09-02T20:50:51Z</time>
  <course>57.1</course>
  <speed>0.7961155694998057</speed>
  <fix>3d</fix>
</trkpt>
<trkpt lat="40.0707824" lon="-105.2296177">
  <ele>1582.99</ele>
  <time>2026-09-02T20:50:51Z</time>
  <course>57.08</course>
  <speed>0.79</speed>
  <fix>3d</fix>
</trkpt>
<trkpt lat="40.0707837" lon="-105.2296152">
  <ele>1582.99</ele>
  <time>2026-09-02T20:50:51Z</time>
  <course>57.06</course>
  <speed>0.7877182237323191</speed>
  <fix>3d</fix>
</trkpt>
<trkpt lat="40.0707832" lon="-105.229616">
  <ele>1582.99</ele>
  <time>2026-09-02T20:50:51Z</time>
  <course>57.01</course>
  <speed>0.79</speed>
  <fix>3d</fix>
</trkpt>
<trkpt lat="40.0707841" lon="-105.2296143">
  <ele>1582.99</ele>
  <time>2026-09-02T20:50:51Z</time>
  <course>57.03</course>
  <speed>0.7961155694998057</speed>
  <fix>3d</fix>
</trkpt>
<trkpt lat="40.0707832" lon="-105.229616">
  <ele>1582.99</ele>
  <time>2026-09-02T20:50:51Z</time>
  <course>57.01</course>
  <speed>0.79</speed>
  <fix>3d</fix>
</trkpt>
<trkpt lat="40.0707844" lon="-105.2296135">
  <ele>1582.99</ele>
  <time>2026-09-02T20:50:51Z</time>
  <course>57.0</course>
  <speed>0.7877182237323191</speed>
  <fix>3d</fix>
</trkpt>
<trkpt lat="40.070784" lon="-105.2296145">
  <ele>1582.99</ele>
  <time>2026-09-02T20:50:51Z</time>
  <course>56.95</course>
  <speed>0.79</speed>
  <fix>3d</fix>
</trkpt>
<trkpt lat="40.0707849" lon="-105.2296128">
  <ele>1582.99</ele>
  <time>2026-09-02T20:50:51Z</time>
  <course>56.97</course>
  <speed>0.7961155694998057</speed>
  <fix>3d</fix>
</trkpt>
<trkpt lat="40.070784" lon="-105.2296145">
  <ele>1582.99</ele>
  <time>2026-09-02T20:50:51Z</time>
  <course>56.95</course>
  <speed>0.79</speed>
  <fix>3d</fix>
</trkpt>
<trkpt lat="40.0707853" lon="-105.2296119">
  <ele>1582.99</ele>
  <time>2026-09-02T20:50:51Z</time>
  <course>56.94</course>
  <speed>0.7877182237323191</speed>
  <fix>3d</fix>
</trkpt>
<trkpt lat="40.0707848" lon="-105.229613">
  <ele>1582.99</ele>
  <time>2026-09-02T20:50:51Z</time>
  <course>56.88</course>
  <speed>0.79</speed>
  <fix>3d</fix>
</trkpt>
<trkpt lat="40.0707856" lon="-105.2296114">
  <ele>1582.99</ele>
  <time>2026-09-02T20:50:51Z</time>
  <course>56.91</course>
  <speed>0.8015609770940699</speed>
  <fix>3d</fix>
</trkpt>
<trkpt lat="40.0707848" lon="-105.229613">
  <ele>1582.99</ele>
  <time>2026-09-02T20:50:51Z</time>
  <course>56.88</course>
  <speed>0.79</speed>
  <fix>3d</fix>
</trkpt>
<trkpt lat="40.070786" lon="-105.2296106">
  <ele>1582.99</ele>
  <time>2026-09-02T20:50:51Z</time>
  <course>56.88</course>
  <speed>0.7877182237323191</speed>
  <fix>3d</fix>
</trkpt>
<trkpt lat="40.0707855" lon="-105.2296114">
  <ele>1582.99</ele>
  <time>2026-09-02T20:50:51Z</time>
  <course>56.82</course>
  <speed>0.79</speed>
  <fix>3d</fix>
</trkpt>
<trkpt lat="40.0707863" lon="-105.2296097">
  <ele>1582.99</ele>
  <time>2026-09-02T20:50:51Z</time>
  <course>56.86</course>
  <speed>0.7961155694998057</speed>
  <fix>3d</fix>
</trkpt>
<trkpt lat="40.0707855" lon="-105.2296114">
  <ele>1582.99</ele>
  <time>2026-09-02T20:50:51Z</time>
  <course>56.82</course>
  <speed>0.79</speed>
  <fix>3d</fix>
</trkpt>
<trkpt lat="40.0707868" lon="-105.229609">
  <ele>1582.99</ele>
  <time>2026-09-02T20:50:51Z</time>
  <course>56.82</course>
  <speed>0.7877182237323191</speed>
  <fix>3d</fix>
</trkpt>
<trkpt lat="40.0707864" lon="-105.2296098">
  <ele>1582.99</ele>
  <time>2026-09-02T20:50:51Z</time>
  <course>56.76</course>
  <speed>0.79</speed>
  <fix>3d</fix>
</trkpt>
<trkpt lat="40.0707872" lon="-105.2296083">
  <ele>1582.99</ele>
  <time>2026-09-02T20:50:51Z</time>
  <course>56.8</course>
  <speed>0.8015609770940699</speed>
  <fix>3d</fix>
</trkpt>
<trkpt lat="40.0707864" lon="-105.2296098">
  <ele>1582.99</ele>
  <time>2026-09-02T20:50:51Z</time>
  <course>56.76</course>
  <speed>0.79</speed>
  <fix>3d</fix>
</trkpt>
<trkpt lat="40.0707875" lon="-105.2296075">
  <ele>1582.99</ele>
  <time>2026-09-02T20:50:51Z</time>
  <course>56.77</course>
  <speed>0.7877182237323191</speed>
  <fix>3d</fix>
</trkpt>
<trkpt lat="40.0707872" lon="-105.2296083">
  <ele>1582.99</ele>
  <time>2026-09-02T20:50:51Z</time>
  <course>56.71</course>
  <speed>0.79</speed>
  <fix>3d</fix>
</trkpt>
<trkpt lat="40.070788" lon="-105.2296066">
  <ele>1582.99</ele>
  <time>2026-09-02T20:50:51Z</time>
  <course>56.75</course>
  <speed>0.8015609770940699</speed>
  <fix>3d</fix>
</trkpt>
<trkpt lat="40.0707872" lon="-105.2296083">
  <ele>1582.99</ele>
  <time>2026-09-02T20:50:51Z</time>
  <course>56.71</course>
  <speed>0.79</speed>
  <fix>3d</fix>
</trkpt>
<trkpt lat="40.0707884" lon="-105.2296059">
  <ele>1582.99</ele>
  <time>2026-09-02T20:50:51Z</time>
  <course>56.72</course>
  <speed>0.7877182237323191</speed>
  <fix>3d</fix>
</trkpt>
<trkpt lat="40.0707879" lon="-105.2296067">
  <ele>1582.99</ele>
  <time>2026-09-02T20:50:51Z</time>
  <course>56.65</course>
  <speed>0.79</speed>
  <fix>3d</fix>
</trkpt>
<trkpt lat="40.0707887" lon="-105.2296051">
  <ele>1582.99</ele>
  <time>2026-09-02T20:50:51Z</time>
  <course>56.69</course>
  <speed>0.8015609770940699</speed>
  <fix>3d</fix>
</trkpt>
<trkpt lat="40.0707879" lon="-105.2296067">
  <ele>1582.99</ele>
  <time>2026-09-02T20:50:51Z</time>
  <course>56.65</course>
  <speed>0.79</speed>
  <fix>3d</fix>
</trkpt>
<trkpt lat="40.0707892" lon="-105.2296042">
  <ele>1582.99</ele>
  <time>2026-09-02T20:50:51Z</time>
  <course>56.66</course>
  <speed>0.7932212806020776</speed>
  <fix>3d</fix>
</trkpt>
<trkpt lat="40.0707887" lon="-105.229605">
  <ele>1582.99</ele>
  <time>2026-09-02T20:50:51Z</time>
  <course>56.6</course>
  <speed>0.79</speed>
  <fix>3d</fix>
</trkpt>
<trkpt lat="40.0707896" lon="-105.2296034">
  <ele>1582.99</ele>
  <time>2026-09-02T20:50:51Z</time>
  <course>56.64</course>
  <speed>0.7877182237323191</speed>
  <fix>3d</fix>
</trkpt>
<trkpt lat="40.0707887" lon="-105.229605">
  <ele>1582.99</ele>
  <time>2026-09-02T20:50:51Z</time>
  <course>56.6</course>
  <speed>0.79</speed>
  <fix>3d</fix>
</trkpt>
<trkpt lat="40.0707899" lon="-105.2296025">
  <ele>1582.99</ele>
  <time>2026-09-02T20:50:51Z</time>
  <course>56.61</course>
  <speed>0.7877182237323191</speed>
  <fix>3d</fix>
</trkpt>
<trkpt lat="40.0707895" lon="-105.2296035">
  <ele>1582.99</ele>
  <time>2026-09-02T20:50:51Z</time>
  <course>56.55</course>
  <speed>0.79</speed>
  <fix>3d</fix>
</trkpt>
<trkpt lat="40.0707904" lon="-105.2296018">
  <ele>1582.99</ele>
  <time>2026-09-02T20:50:51Z</time>
  <course>56.59</course>
  <speed>0.7932212806020776</speed>
  <fix>3d</fix>
</trkpt>
<trkpt lat="40.0707895" lon="-105.2296035">
  <ele>1582.99</ele>
  <time>2026-09-02T20:50:51Z</time>
  <course>56.55</course>
  <speed>0.79</speed>
  <fix>3d</fix>
</trkpt>
<trkpt lat="40.0707908" lon="-105.2296011">
  <ele>1582.99</ele>
  <time>2026-09-02T20:50:51Z</time>
  <course>56.57</course>
  <speed>0.7932212806020776</speed>
  <fix>3d</fix>
</trkpt>
<trkpt lat="40.0707903" lon="-105.229602">
  <ele>1582.99</ele>
  <time>2026-09-02T20:50:51Z</time>
  <course>56.5</course>
  <speed>0.79</speed>
  <fix>3d</fix>
</trkpt>
<trkpt lat="40.0707911" lon="-105.2296003">
  <ele>1582.99</ele>
  <time>2026-09-02T20:50:51Z</time>
  <course>56.55</course>
  <speed>0.7932212806020776</speed>
  <fix>3d</fix>
</trkpt>
<trkpt lat="40.0707903" lon="-105.229602">
  <ele>1582.99</ele>
  <time>2026-09-02T20:50:51Z</time>
  <course>56.5</course>
  <speed>0.79</speed>
  <fix>3d</fix>
</trkpt>
<trkpt lat="40.0707916" lon="-105.2295994">
  <ele>1582.99</ele>
  <time>2026-09-02T20:50:51Z</time>
  <course>56.52</course>
  <speed>0.7932212806020776</speed>
  <fix>3d</fix>
</trkpt>
<trkpt lat="40.070791" lon="-105.2296004">
  <ele>1582.99</ele>
  <time>2026-09-02T20:50:51Z</time>
  <course>56.46</course>
  <speed>0.79</speed>
  <fix>3d</fix>
</trkpt>
<trkpt lat="40.070792" lon="-105.2295987">
  <ele>1582.99</ele>
  <time>2026-09-02T20:50:51Z</time>
  <course>56.5</course>
  <speed>0.7932212806020776</speed>
  <fix>3d</fix>
</trkpt>
<trkpt lat="40.070791" lon="-105.2296004">
  <ele>1582.99</ele>
  <time>2026-09-02T20:50:51Z</time>
  <course>56.46</course>
  <speed>0.79</speed>
  <fix>3d</fix>
</trkpt>
<trkpt lat="40.0707923" lon="-105.2295979">
  <ele>1582.99</ele>
  <time>2026-09-02T20:50:51Z</time>
  <course>56.48</course>
  <speed>0.7932212806020776</speed>
  <fix>3d</fix>
</trkpt>
<trkpt lat="40.0707919" lon="-105.2295988">
  <ele>1582.99</ele>
  <time>2026-09-02T20:50:51Z</time>
  <course>56.41</course>
  <speed>0.8</speed>
  <fix>3d</fix>
</trkpt>
<trkpt lat="40.0707928" lon="-105.2295972">
  <ele>1582.99</ele>
  <time>2026-09-02T20:50:51Z</time>
  <course>56.46</course>
  <speed>0.7932212806020776</speed>
  <fix>3d</fix>
</trkpt>
<trkpt lat="40.0707919" lon="-105.2295988">
  <ele>1582.99</ele>
  <time>2026-09-02T20:50:51Z</time>
  <course>56.41</course>
  <speed>0.8</speed>
  <fix>3d</fix>
</trkpt>
<trkpt lat="40.0707932" lon="-105.2295963">
  <ele>1582.99</ele>
  <time>2026-09-02T20:50:51Z</time>
  <course>56.44</course>
  <speed>0.7932212806020776</speed>
  <fix>3d</fix>
</trkpt>
<trkpt lat="40.0707927" lon="-105.2295973">
  <ele>1582.99</ele>
  <time>2026-09-02T20:50:51Z</time>
  <course>56.37</course>
  <speed>0.8</speed>
  <fix>3d</fix>
</trkpt>
<trkpt lat="40.0707935" lon="-105.2295956">
  <ele>1582.99</ele>
  <time>2026-09-02T20:50:51Z</time>
  <course>56.43</course>
  <speed>0.7932212806020776</speed>
  <fix>3d</fix>
</trkpt>
<trkpt lat="40.0707927" lon="-105.2295973">
  <ele>1582.99</ele>
  <time>2026-09-02T20:50:51Z</time>
  <course>56.37</course>
  <speed>0.8</speed>
  <fix>3d</fix>
</trkpt>
<trkpt lat="40.0707939" lon="-105.2295949">
  <ele>1582.99</ele>
  <time>2026-09-02T20:50:51Z</time>
  <course>56.4</course>
  <speed>0.7932212806020776</speed>
  <fix>3d</fix>
</trkpt>
<trkpt lat="40.0707934" lon="-105.2295957">
  <ele>1582.99</ele>
  <time>2026-09-02T20:50:51Z</time>
  <course>56.33</course>
  <speed>0.79</speed>
  <fix>3d</fix>
</trkpt>
<trkpt lat="40.0707942" lon="-105.2295941">
  <ele>1582.99</ele>
  <time>2026-09-02T20:50:51Z</time>
  <course>56.39</course>
  <speed>0.7932212806020776</speed>
  <fix>3d</fix>
</trkpt>
<trkpt lat="40.0707934" lon="-105.2295957">
  <ele>1582.99</ele>
  <time>2026-09-02T20:50:51Z</time>
  <course>56.33</course>
  <speed>0.79</speed>
  <fix>3d</fix>
</trkpt>
<trkpt lat="40.0707947" lon="-105.2295934">
  <ele>1582.99</ele>
  <time>2026-09-02T20:50:51Z</time>
  <course>56.38</course>
  <speed>0.7932212806020776</speed>
  <fix>3d</fix>
</trkpt>
<trkpt lat="40.0707943" lon="-105.2295941">
  <ele>1582.99</ele>
  <time>2026-09-02T20:50:51Z</time>
  <course>56.3</course>
  <speed>0.79</speed>
  <fix>3d</fix>
</trkpt>
<trkpt lat="40.0707951" lon="-105.2295925">
  <ele>1582.99</ele>
  <time>2026-09-02T20:50:51Z</time>
  <course>56.36</course>
  <speed>0.7932212806020776</speed>
  <fix>3d</fix>
</trkpt>
<trkpt lat="40.0707943" lon="-105.2295941">
  <ele>1582.99</ele>
  <time>2026-09-02T20:50:51Z</time>
  <course>56.3</course>
  <speed>0.79</speed>
  <fix>3d</fix>
</trkpt>
<trkpt lat="40.0707954" lon="-105.2295918">
  <ele>1582.99</ele>
  <time>2026-09-02T20:50:51Z</time>
  <course>56.35</course>
  <speed>0.7932212806020776</speed>
  <fix>3d</fix>
</trkpt>
<trkpt lat="40.0707951" lon="-105.2295925">
  <ele>1582.99</ele>
  <time>2026-09-02T20:50:51Z</time>
  <course>56.27</course>
  <speed>0.79</speed>
  <fix>3d</fix>
</trkpt>
<trkpt lat="40.0707959" lon="-105.229591">
  <ele>1582.99</ele>
  <time>2026-09-02T20:50:51Z</time>
  <course>56.33</course>
  <speed>0.7932212806020776</speed>
  <fix>3d</fix>
</trkpt>
<trkpt lat="40.0707951" lon="-105.2295925">
  <ele>1582.99</ele>
  <time>2026-09-02T20:50:51Z</time>
  <course>56.27</course>
  <speed>0.79</speed>
  <fix>3d</fix>
</trkpt>
<trkpt lat="40.0707963" lon="-105.2295903">
  <ele>1582.99</ele>
  <time>2026-09-02T20:50:51Z</time>
  <course>56.32</course>
  <speed>0.7932212806020776</speed>
  <fix>3d</fix>
</trkpt>
<trkpt lat="40.0707958" lon="-105.229591">
  <ele>1582.99</ele>
  <time>2026-09-02T20:50:51Z</time>
  <course>56.24</course>
  <speed>0.79</speed>
  <fix>3d</fix>
</trkpt>
<trkpt lat="40.0707966" lon="-105.2295894">
  <ele>1582.99</ele>
  <time>2026-09-02T20:50:51Z</time>
  <course>56.31</course>
  <speed>0.7932212806020776</speed>
  <fix>3d</fix>
</trkpt>
<trkpt lat="40.0707958" lon="-105.229591">
  <ele>1582.99</ele>
  <time>2026-09-02T20:50:51Z</time>
  <course>56.24</course>
  <speed>0.79</speed>
  <fix>3d</fix>
</trkpt>
<trkpt lat="40.0707971" lon="-105.2295886">
  <ele>1582.99</ele>
  <time>2026-09-02T20:50:51Z</time>
  <course>56.3</course>
  <speed>0.7932212806020776</speed>
  <fix>3d</fix>
</trkpt>
<trkpt lat="40.0707967" lon="-105.2295895">
  <ele>1582.99</ele>
  <time>2026-09-02T20:50:51Z</time>
  <course>56.22</course>
  <speed>0.79</speed>
  <fix>3d</fix>
</trkpt>
<trkpt lat="40.0707976" lon="-105.2295877">
  <ele>1582.99</ele>
  <time>2026-09-02T20:50:51Z</time>
  <course>56.28</course>
  <speed>0.7932212806020776</speed>
  <fix>3d</fix>
</trkpt>
<trkpt lat="40.0707967" lon="-105.2295895">
  <ele>1582.99</ele>
  <time>2026-09-02T20:50:51Z</time>
  <course>56.22</course>
  <speed>0.79</speed>
  <fix>3d</fix>
</trkpt>
<trkpt lat="40.0707979" lon="-105.229587">
  <ele>1582.99</ele>
  <time>2026-09-02T20:50:51Z</time>
  <course>56.27</course>
  <speed>0.7932212806020776</speed>
  <fix>3d</fix>
</trkpt>
<trkpt lat="40.0707975" lon="-105.2295879">
  <ele>1582.99</ele>
  <time>2026-09-02T20:50:51Z</time>
  <course>56.19</course>
  <speed>0.79</speed>
  <fix>3d</fix>
</trkpt>
<trkpt lat="40.0707984" lon="-105.2295862">
  <ele>1582.99</ele>
  <time>2026-09-02T20:50:51Z</time>
  <course>56.26</course>
  <speed>0.7932212806020776</speed>
  <fix>3d</fix>
</trkpt>
<trkpt lat="40.0707975" lon="-105.2295879">
  <ele>1582.99</ele>
  <time>2026-09-02T20:50:51Z</time>
  <course>56.19</course>
  <speed>0.79</speed>
  <fix>3d</fix>
</trkpt>
<trkpt lat="40.0707988" lon="-105.2295853">
  <ele>1582.99</ele>
  <time>2026-09-02T20:50:51Z</time>
  <course>56.25</course>
  <speed>0.7932212806020776</speed>
  <fix>3d</fix>
</trkpt>
<trkpt lat="40.0707982" lon="-105.2295863">
  <ele>1582.99</ele>
  <time>2026-09-02T20:50:51Z</time>
  <course>56.17</course>
  <speed>0.79</speed>
  <fix>3d</fix>
</trkpt>
<trkpt lat="40.0707991" lon="-105.2295846">
  <ele>1582.99</ele>
  <time>2026-09-02T20:50:51Z</time>
  <course>56.24</course>
  <speed>0.7932212806020776</speed>
  <fix>3d</fix>
</trkpt>
<trkpt lat="40.0707982" lon="-105.2295863">
  <ele>1582.99</ele>
  <time>2026-09-02T20:50:51Z</time>
  <course>56.17</course>
  <speed>0.79</speed>
  <fix>3d</fix>
</trkpt>
<trkpt lat="40.0707996" lon="-105.2295839">
  <ele>1582.99</ele>
  <time>2026-09-02T20:50:51Z</time>
  <course>56.23</course>
  <speed>0.7932212806020776</speed>
  <fix>3d</fix>
</trkpt>
<trkpt lat="40.0707991" lon="-105.2295848">
  <ele>1582.99</ele>
  <time>2026-09-02T20:50:51Z</time>
  <course>56.15</course>
  <speed>0.79</speed>
  <fix>3d</fix>
</trkpt>
<trkpt lat="40.0708" lon="-105.2295831">
  <ele>1582.99</ele>
  <time>2026-09-02T20:50:51Z</time>
  <course>56.22</course>
  <speed>0.7932212806020776</speed>
  <fix>3d</fix>
</trkpt>
<trkpt lat="40.0707991" lon="-105.2295848">
  <ele>1582.99</ele>
  <time>2026-09-02T20:50:51Z</time>
  <course>56.15</course>
  <speed>0.79</speed>
  <fix>3d</fix>
</trkpt>
<trkpt lat="40.0708003" lon="-105.2295822">
  <ele>1582.99</ele>
  <time>2026-09-02T20:50:51Z</time>
  <course>56.21</course>
  <speed>0.7932212806020776</speed>
  <fix>3d</fix>
</trkpt>
<trkpt lat="40.0707999" lon="-105.2295832">
  <ele>1582.99</ele>
  <time>2026-09-02T20:50:51Z</time>
  <course>56.13</course>
  <speed>0.79</speed>
  <fix>3d</fix>
</trkpt>
<trkpt lat="40.0708008" lon="-105.2295815">
  <ele>1582.99</ele>
  <time>2026-09-02T20:50:51Z</time>
  <course>56.21</course>
  <speed>0.7932212806020776</speed>
  <fix>3d</fix>
</trkpt>
<trkpt lat="40.0707999" lon="-105.2295832">
  <ele>1582.99</ele>
  <time>2026-09-02T20:50:51Z</time>
  <course>56.13</course>
  <speed>0.79</speed>
  <fix>3d</fix>
</trkpt>
<trkpt lat="40.0708012" lon="-105.2295807">
  <ele>1582.99</ele>
  <time>2026-09-02T20:50:51Z</time>
  <course>56.2</course>
  <speed>0.7932212806020776</speed>
  <fix>3d</fix>
</trkpt>
<trkpt lat="40.0708006" lon="-105.2295817">
  <ele>1582.99</ele>
  <time>2026-09-02T20:50:51Z</time>
  <course>56.11</course>
  <speed>0.79</speed>
  <fix>3d</fix>
</trkpt>
<trkpt lat="40.0708015" lon="-105.22958">
  <ele>1582.99</ele>
  <time>2026-09-02T20:50:51Z</time>
  <course>56.19</course>
  <speed>0.7932212806020776</speed>
  <fix>3d</fix>
</trkpt>
<trkpt lat="40.0708006" lon="-105.2295817">
  <ele>1582.99</ele>
  <time>2026-09-02T20:50:51Z</time>
  <course>56.11</course>
  <speed>0.79</speed>
  <fix>3d</fix>
</trkpt>
<trkpt lat="40.0708019" lon="-105.2295793">
  <ele>1582.99</ele>
  <time>2026-09-02T20:50:51Z</time>
  <course>56.19</course>
  <speed>0.7932212806020776</speed>
  <fix>3d</fix>
</trkpt>
<trkpt lat="40.0708015" lon="-105.22958">
  <ele>1582.99</ele>
  <time>2026-09-02T20:50:51Z</time>
  <course>56.1</course>
  <speed>0.79</speed>
  <fix>3d</fix>
</trkpt>
<trkpt lat="40.0708022" lon="-105.2295786">
  <ele>1582.99</ele>
  <time>2026-09-02T20:50:51Z</time>
  <course>56.18</course>
  <speed>0.7932212806020776</speed>
  <fix>3d</fix>
</trkpt>
<trkpt lat="40.0708015" lon="-105.22958">
  <ele>1582.99</ele>
  <time>2026-09-02T20:50:51Z</time>
  <course>56.1</course>
  <speed>0.79</speed>
  <fix>3d</fix>
</trkpt>
<trkpt lat="40.0708027" lon="-105.2295778">
  <ele>1582.99</ele>
  <time>2026-09-02T20:50:51Z</time>
  <course>56.17</course>
  <speed>0.7932212806020776</speed>
  <fix>3d</fix>
</trkpt>
<trkpt lat="40.0708022" lon="-105.2295785">
  <ele>1582.99</ele>
  <time>2026-09-02T20:50:51Z</time>
  <course>56.08</course>
  <speed>0.79</speed>
  <fix>3d</fix>
</trkpt>
<trkpt lat="40.0708031" lon="-105.2295769">
  <ele>1582.99</ele>
  <time>2026-09-02T20:50:51Z</time>
  <course>56.17</course>
  <speed>0.7932212806020776</speed>
  <fix>3d</fix>
</trkpt>
<trkpt lat="40.0708022" lon="-105.2295785">
  <ele>1582.99</ele>
  <time>2026-09-02T20:50:51Z</time>
  <course>56.08</course>
  <speed>0.79</speed>
  <fix>3d</fix>
</trkpt>
<trkpt lat="40.0708034" lon="-105.2295762">
  <ele>1582.99</ele>
  <time>2026-09-02T20:50:51Z</time>
  <course>56.17</course>
  <speed>0.7932212806020776</speed>
  <fix>3d</fix>
</trkpt>
<trkpt lat="40.0708031" lon="-105.229577">
  <ele>1582.99</ele>
  <time>2026-09-02T20:50:51Z</time>
  <course>56.08</course>
  <speed>0.79</speed>
  <fix>3d</fix>
</trkpt>
<trkpt lat="40.0708039" lon="-105.2295755">
  <ele>1582.99</ele>
  <time>2026-09-02T20:50:51Z</time>
  <course>56.16</course>
  <speed>0.7932212806020776</speed>
  <fix>3d</fix>
</trkpt>
<trkpt lat="40.0708031" lon="-105.229577">
  <ele>1582.99</ele>
  <time>2026-09-02T20:50:51Z</time>
  <course>56.08</course>
  <speed>0.79</speed>
  <fix>3d</fix>
</trkpt>
<trkpt lat="40.0708043" lon="-105.2295747">
  <ele>1582.99</ele>
  <time>2026-09-02T20:50:51Z</time>
  <course>56.16</course>
  <speed>0.7932212806020776</speed>
  <fix>3d</fix>
</trkpt>
<trkpt lat="40.0708039" lon="-105.2295754">
  <ele>1582.99</ele>
  <time>2026-09-02T20:50:51Z</time>
  <course>56.07</course>
  <speed>0.79</speed>
  <fix>3d</fix>
</trkpt>
<trkpt lat="40.0708046" lon="-105.2295738">
  <ele>1582.99</ele>
  <time>2026-09-02T20:50:51Z</time>
  <course>56.16</course>
  <speed>0.7932212806020776</speed>
  <fix>3d</fix>
</trkpt>
<trkpt lat="40.0708039" lon="-105.2295754">
  <ele>1582.99</ele>
  <time>2026-09-02T20:50:51Z</time>
  <course>56.07</course>
  <speed>0.79</speed>
  <fix>3d</fix>
</trkpt>
<trkpt lat="40.0708051" lon="-105.2295731">
  <ele>1582.99</ele>
  <time>2026-09-02T20:50:51Z</time>
  <course>56.16</course>
  <speed>0.7932212806020776</speed>
  <fix>3d</fix>
</trkpt>
<trkpt lat="40.0708046" lon="-105.2295738">
  <ele>1582.99</ele>
  <time>2026-09-02T20:50:51Z</time>
  <course>56.07</course>
  <speed>0.79</speed>
  <fix>3d</fix>
</trkpt>
<trkpt lat="40.0708055" lon="-105.2295723">
  <ele>1582.99</ele>
  <time>2026-09-02T20:50:51Z</time>
  <course>56.16</course>
  <speed>0.7932212806020776</speed>
  <fix>3d</fix>
</trkpt>
<trkpt lat="40.0708046" lon="-105.2295738">
  <ele>1582.99</ele>
  <time>2026-09-02T20:50:51Z</time>
  <course>56.07</course>
  <speed>0.79</speed>
  <fix>3d</fix>
</trkpt>
<trkpt lat="40.070806" lon="-105.2295714">
  <ele>1582.99</ele>
  <time>2026-09-02T20:50:51Z</time>
  <course>56.15</course>
  <speed>0.7932212806020776</speed>
  <fix>3d</fix>
</trkpt>
<trkpt lat="40.0708055" lon="-105.2295723">
  <ele>1582.99</ele>
  <time>2026-09-02T20:50:51Z</time>
  <course>56.06</course>
  <speed>0.79</speed>
  <fix>3d</fix>
</trkpt>
<trkpt lat="40.0708063" lon="-105.2295705">
  <ele>1582.99</ele>
  <time>2026-09-02T20:50:51Z</time>
  <course>56.15</course>
  <speed>0.7932212806020776</speed>
  <fix>3d</fix>
</trkpt>
<trkpt lat="40.0708055" lon="-105.2295723">
  <ele>1582.99</ele>
  <time>2026-09-02T20:50:51Z</time>
  <course>56.06</course>
  <speed>0.79</speed>
  <fix>3d</fix>
</trkpt>
<trkpt lat="40.0708068" lon="-105.2295697">
  <ele>1582.99</ele>
  <time>2026-09-02T20:50:51Z</time>
  <course>56.15</course>
  <speed>0.7932212806020776</speed>
  <fix>3d</fix>
</trkpt>
<trkpt lat="40.0708063" lon="-105.2295708">
  <ele>1582.99</ele>
  <time>2026-09-02T20:50:51Z</time>
  <course>56.06</course>
  <speed>0.79</speed>
  <fix>3d</fix>
</trkpt>
<trkpt lat="40.0708072" lon="-105.229569">
  <ele>1582.99</ele>
  <time>2026-09-02T20:50:51Z</time>
  <course>56.15</course>
  <speed>0.7932212806020776</speed>
  <fix>3d</fix>
</trkpt>
<trkpt lat="40.0708063" lon="-105.2295708">
  <ele>1582.99</ele>
  <time>2026-09-02T20:50:51Z</time>
  <course>56.06</course>
  <speed>0.79</speed>
  <fix>3d</fix>
</trkpt>
<trkpt lat="40.0708075" lon="-105.2295683">
  <ele>1582.99</ele>
  <time>2026-09-02T20:50:51Z</time>
  <course>56.15</course>
  <speed>0.7932212806020776</speed>
  <fix>3d</fix>
</trkpt>
<trkpt lat="40.070807" lon="-105.2295691">
  <ele>1582.99</ele>
  <time>2026-09-02T20:50:51Z</time>
  <course>56.05</course>
  <speed>0.79</speed>
  <fix>3d</fix>
</trkpt>
<trkpt lat="40.070808" lon="-105.2295675">
  <ele>1582.99</ele>
  <time>2026-09-02T20:50:51Z</time>
  <course>56.15</course>
  <speed>0.7932212806020776</speed>
  <fix>3d</fix>
</trkpt>
<trkpt lat="40.070807" lon="-105.2295691">
  <ele>1582.99</ele>
  <time>2026-09-02T20:50:51Z</time>
  <course>56.05</course>
  <speed>0.79</speed>
  <fix>3d</fix>
</trkpt>
<trkpt lat="40.0708084" lon="-105.2295666">
  <ele>1582.99</ele>
  <time>2026-09-02T20:50:51Z</time>
  <course>56.14</course>
  <speed>0.7932212806020776</speed>
  <fix>3d</fix>
</trkpt>
<trkpt lat="40.0708079" lon="-105.2295676">
  <ele>1582.99</ele>
  <time>2026-09-02T20:50:51Z</time>
  <course>56.05</course>
  <speed>0.79</speed>
  <fix>3d</fix>
</trkpt>
<trkpt lat="40.0708087" lon="-105.2295659">
  <ele>1582.99</ele>
  <time>2026-09-02T20:50:51Z</time>
  <course>56.14</course>
  <speed>0.7932212806020776</speed>
  <fix>3d</fix>
</trkpt>
<trkpt lat="40.0708079" lon="-105.2295676">
  <ele>1582.99</ele>
  <time>2026-09-02T20:50:51Z</time>
  <course>56.05</course>
  <speed>0.79</speed>
  <fix>3d</fix>
</trkpt>
<trkpt lat="40.0708092" lon="-105.2295652">
  <ele>1582.99</ele>
  <time>2026-09-02T20:50:51Z</time>
  <course>56.14</course>
  <speed>0.7932212806020776</speed>
  <fix>3d</fix>
</trkpt>
<trkpt lat="40.0708087" lon="-105.2295661">
  <ele>1582.99</ele>
  <time>2026-09-02T20:50:51Z</time>
  <course>56.05</course>
  <speed>0.8</speed>
  <fix>3d</fix>
</trkpt>
<trkpt lat="40.0708095" lon="-105.2295644">
  <ele>1582.99</ele>
  <time>2026-09-02T20:50:51Z</time>
  <course>56.14</course>
  <speed>0.7932212806020776</speed>
  <fix>3d</fix>
</trkpt>
<trkpt lat="40.0708087" lon="-105.2295661">
  <ele>1582.99</ele>
  <time>2026-09-02T20:50:51Z</time>
  <course>56.05</course>
  <speed>0.8</speed>
  <fix>3d</fix>
</trkpt>
<trkpt lat="40.07081" lon="-105.2295635">
  <ele>1582.99</ele>
  <time>2026-09-02T20:50:51Z</time>
  <course>56.14</course>
  <speed>0.7932212806020776</speed>
  <fix>3d</fix>
</trkpt>
<trkpt lat="40.0708094" lon="-105.2295645">
  <ele>1582.99</ele>
  <time>2026-09-02T20:50:51Z</time>
  <course>56.05</course>
  <speed>0.8</speed>
  <fix>3d</fix>
</trkpt>
<trkpt lat="40.0708103" lon="-105.229563">
  <ele>1582.99</ele>
  <time>2026-09-02T20:50:51Z</time>
  <course>56.14</course>
  <speed>0.7932212806020776</speed>
  <fix>3d</fix>
</trkpt>
<trkpt lat="40.0708094" lon="-105.2295645">
  <ele>1582.99</ele>
  <time>2026-09-02T20:50:51Z</time>
  <course>56.05</course>
  <speed>0.8</speed>
  <fix>3d</fix>
</trkpt>
<trkpt lat="40.0708106" lon="-105.2295621">
  <ele>1582.99</ele>
  <time>2026-09-02T20:50:51Z</time>
  <course>56.14</course>
  <speed>0.7932212806020776</speed>
  <fix>3d</fix>
</trkpt>
<trkpt lat="40.0708103" lon="-105.2295629">
  <ele>1582.99</ele>
  <time>2026-09-02T20:50:51Z</time>
  <course>56.05</course>
  <speed>0.79</speed>
  <fix>3d</fix>
</trkpt>
<trkpt lat="40.0708111" lon="-105.2295614">
  <ele>1582.99</ele>
  <time>2026-09-02T20:50:51Z</time>
  <course>56.15</course>
  <speed>0.7932212806020776</speed>
  <fix>3d</fix>
</trkpt>
<trkpt lat="40.0708103" lon="-105.2295629">
  <ele>1582.99</ele>
  <time>2026-09-02T20:50:51Z</time>
  <course>56.05</course>
  <speed>0.79</speed>
  <fix>3d</fix>
</trkpt>
<trkpt lat="40.0708115" lon="-105.2295606">
  <ele>1582.99</ele>
  <time>2026-09-02T20:50:51Z</time>
  <course>56.15</course>
  <speed>0.7932212806020776</speed>
  <fix>3d</fix>
</trkpt>
<trkpt lat="40.0708111" lon="-105.2295614">
  <ele>1582.99</ele>
  <time>2026-09-02T20:50:51Z</time>
  <course>56.05</course>
  <speed>0.79</speed>
  <fix>3d</fix>
</trkpt>
<trkpt lat="40.0708118" lon="-105.2295599">
  <ele>1582.99</ele>
  <time>2026-09-02T20:50:51Z</time>
  <course>56.15</course>
  <speed>0.7932212806020776</speed>
  <fix>3d</fix>
</trkpt>
<trkpt lat="40.0708111" lon="-105.2295614">
  <ele>1582.99</ele>
  <time>2026-09-02T20:50:51Z</time>
  <course>56.05</course>
  <speed>0.79</speed>
  <fix>3d</fix>
</trkpt>
<trkpt lat="40.0708123" lon="-105.229559">
  <ele>1582.99</ele>
  <time>2026-09-02T20:50:51Z</time>
  <course>56.14</course>
  <speed>0.7932212806020776</speed>
  <fix>3d</fix>
</trkpt>
<trkpt lat="40.0708118" lon="-105.2295598">
  <ele>1582.99</ele>
  <time>2026-09-02T20:50:51Z</time>
  <course>56.05</course>
  <speed>0.8</speed>
  <fix>3d</fix>
</trkpt>
<trkpt lat="40.0708127" lon="-105.2295582">
  <ele>1582.99</ele>
  <time>2026-09-02T20:50:51Z</time>
  <course>56.15</course>
  <speed>0.7932212806020776</speed>
  <fix>3d</fix>
</trkpt>
<trkpt lat="40.0708118" lon="-105.2295598">
  <ele>1582.99</ele>
  <time>2026-09-02T20:50:51Z</time>
  <course>56.05</course>
  <speed>0.8</speed>
  <fix>3d</fix>
</trkpt>
<trkpt lat="40.070813" lon="-105.2295575">
  <ele>1582.99</ele>
  <time>2026-09-02T20:50:51Z</time>
  <course>56.15</course>
  <speed>0.7932212806020776</speed>
  <fix>3d</fix>
</trkpt>
<trkpt lat="40.0708127" lon="-105.2295582">
  <ele>1582.99</ele>
  <time>2026-09-02T20:50:51Z</time>
  <course>56.05</course>
  <speed>0.8</speed>
  <fix>3d</fix>
</trkpt>
<trkpt lat="40.0708135" lon="-105.2295568">
  <ele>1582.99</ele>
  <time>2026-09-02T20:50:51Z</time>
  <course>56.15</course>
  <speed>0.7849203781276163</speed>
  <fix>3d</fix>
</trkpt>
<trkpt lat="40.0708127" lon="-105.2295582">
  <ele>1582.99</ele>
  <time>2026-09-02T20:50:51Z</time>
  <course>56.05</course>
  <speed>0.8</speed>
  <fix>3d</fix>
</trkpt>
<trkpt lat="40.0708139" lon="-105.229556">
  <ele>1582.99</ele>
  <time>2026-09-02T20:50:51Z</time>
  <course>56.15</course>
  <speed>0.807093550959243</speed>
  <fix>3d</fix>
</trkpt>
<trkpt lat="40.0708135" lon="-105.2295567">
  <ele>1582.99</ele>
  <time>2026-09-02T20:50:51Z</time>
  <course>56.05</course>
  <speed>0.8</speed>
  <fix>3d</fix>
</trkpt>
<trkpt lat="40.0708143" lon="-105.2295549">
  <ele>1582.99</ele>
  <time>2026-09-02T20:50:51Z</time>
  <course>56.15</course>
  <speed>0.7932212806020776</speed>
  <fix>3d</fix>
</trkpt>
<trkpt lat="40.0708135" lon="-105.2295567">
  <ele>1582.99</ele>
  <time>2026-09-02T20:50:51Z</time>
  <course>56.05</course>
  <speed>0.8</speed>
  <fix>3d</fix>
</trkpt>
<trkpt lat="40.0708148" lon="-105.2295542">
  <ele>1582.99</ele>
  <time>2026-09-02T20:50:51Z</time>
  <course>56.15</course>
  <speed>0.7932212806020776</speed>
  <fix>3d</fix>
</trkpt>
<trkpt lat="40.0708142" lon="-105.2295551">
  <ele>1582.99</ele>
  <time>2026-09-02T20:50:51Z</time>
  <course>56.06</course>
  <speed>0.8</speed>
  <fix>3d</fix>
</trkpt>
<trkpt lat="40.0708152" lon="-105.2295535">
  <ele>1582.99</ele>
  <time>2026-09-02T20:50:51Z</time>
  <course>56.15</course>
  <speed>0.7932212806020776</speed>
  <fix>3d</fix>
</trkpt>
<trkpt lat="40.0708142" lon="-105.2295551">
  <ele>1582.99</ele>
  <time>2026-09-02T20:50:51Z</time>
  <course>56.06</course>
  <speed>0.8</speed>
  <fix>3d</fix>
</trkpt>
<trkpt lat="40.0708155" lon="-105.2295527">
  <ele>1582.99</ele>
  <time>2026-09-02T20:50:51Z</time>
  <course>56.15</course>
  <speed>0.7932212806020776</speed>
  <fix>3d</fix>
</trkpt>
<trkpt lat="40.0708151" lon="-105.2295536">
  <ele>1582.99</ele>
  <time>2026-09-02T20:50:51Z</time>
  <course>56.06</course>
  <speed>0.8</speed>
  <fix>3d</fix>
</trkpt>
<trkpt lat="40.070816" lon="-105.2295518">
  <ele>1582.99</ele>
  <time>2026-09-02T20:50:51Z</time>
  <course>56.15</course>
  <speed>0.7932212806020776</speed>
  <fix>3d</fix>
</trkpt>
<trkpt lat="40.0708151" lon="-105.2295536">
  <ele>1582.99</ele>
  <time>2026-09-02T20:50:51Z</time>
  <course>56.06</course>
  <speed>0.8</speed>
  <fix>3d</fix>
</trkpt>
<trkpt lat="40.0708164" lon="-105.2295511">
  <ele>1582.99</ele>
  <time>2026-09-02T20:50:51Z</time>
  <course>56.15</course>
  <speed>0.7849203781276163</speed>
  <fix>3d</fix>
</trkpt>
<trkpt lat="40.0708159" lon="-105.2295521">
  <ele>1582.99</ele>
  <time>2026-09-02T20:50:51Z</time>
  <course>56.06</course>
  <speed>0.79</speed>
  <fix>3d</fix>
</trkpt>
<trkpt lat="40.0708167" lon="-105.2295503">
  <ele>1582.99</ele>
  <time>2026-09-02T20:50:51Z</time>
  <course>56.16</course>
  <speed>0.7932212806020776</speed>
  <fix>3d</fix>
</trkpt>
<trkpt lat="40.0708159" lon="-105.2295521">
  <ele>1582.99</ele>
  <time>2026-09-02T20:50:51Z</time>
  <course>56.06</course>
  <speed>0.79</speed>
  <fix>3d</fix>
</trkpt>
<trkpt lat="40.0708172" lon="-105.2295496">
  <ele>1582.99</ele>
  <time>2026-09-02T20:50:51Z</time>
  <course>56.16</course>
  <speed>0.7932212806020776</speed>
  <fix>3d</fix>
</trkpt>
<trkpt lat="40.0708168" lon="-105.2295504">
  <ele>1582.99</ele>
  <time>2026-09-02T20:50:51Z</time>
  <course>56.06</course>
  <speed>0.79</speed>
  <fix>3d</fix>
</trkpt>
<trkpt lat="40.0708176" lon="-105.2295487">
  <ele>1582.99</ele>
  <time>2026-09-02T20:50:51Z</time>
  <course>56.16</course>
  <speed>0.7932212806020776</speed>
  <fix>3d</fix>
</trkpt>
<trkpt lat="40.0708168" lon="-105.2295504">
  <ele>1582.99</ele>
  <time>2026-09-02T20:50:51Z</time>
  <course>56.06</course>
  <speed>0.79</speed>
  <fix>3d</fix>
</trkpt>
<trkpt lat="40.0708179" lon="-105.229548">
  <ele>1582.99</ele>
  <time>2026-09-02T20:50:51Z</time>
  <course>56.16</course>
  <speed>0.7932212806020776</speed>
  <fix>3d</fix>
</trkpt>
<trkpt lat="40.0708176" lon="-105.2295489">
  <ele>1582.99</ele>
  <time>2026-09-02T20:50:51Z</time>
  <course>56.06</course>
  <speed>0.8</speed>
  <fix>3d</fix>
</trkpt>
<trkpt lat="40.0708184" lon="-105.2295472">
  <ele>1582.99</ele>
  <time>2026-09-02T20:50:51Z</time>
  <course>56.16</course>
  <speed>0.7932212806020776</speed>
  <fix>3d</fix>
</trkpt>
<trkpt lat="40.0708176" lon="-105.2295489">
  <ele>1582.99</ele>
  <time>2026-09-02T20:50:51Z</time>
  <course>56.06</course>
  <speed>0.8</speed>
  <fix>3d</fix>
</trkpt>
<trkpt lat="40.0708188" lon="-105.2295465">
  <ele>1582.99</ele>
  <time>2026-09-02T20:50:51Z</time>
  <course>56.16</course>
  <speed>0.7932212806020776</speed>
  <fix>3d</fix>
</trkpt>
<trkpt lat="40.0708183" lon="-105.2295474">
  <ele>1582.99</ele>
  <time>2026-09-02T20:50:51Z</time>
  <course>56.07</course>
  <speed>0.79</speed>
  <fix>3d</fix>
</trkpt>
<trkpt lat="40.0708191" lon="-105.2295458">
  <ele>1582.99</ele>
  <time>2026-09-02T20:50:51Z</time>
  <course>56.17</course>
  <speed>0.7932212806020776</speed>
  <fix>3d</fix>
</trkpt>
<trkpt lat="40.0708183" lon="-105.2295474">
  <ele>1582.99</ele>
  <time>2026-09-02T20:50:51Z</time>
  <course>56.07</course>
  <speed>0.79</speed>
  <fix>3d</fix>
</trkpt>
<trkpt lat="40.0708196" lon="-105.2295451">
  <ele>1582.99</ele>
  <time>2026-09-02T20:50:51Z</time>
  <course>56.17</course>
  <speed>0.7932212806020776</speed>
  <fix>3d</fix>
</trkpt>
<trkpt lat="40.0708192" lon="-105.2295458">
  <ele>1582.99</ele>
  <time>2026-09-02T20:50:51Z</time>
  <course>56.07</course>
  <speed>0.79</speed>
  <fix>3d</fix>
</trkpt>
<trkpt lat="40.07082" lon="-105.2295443">
  <ele>1582.99</ele>
  <time>2026-09-02T20:50:51Z</time>
  <course>56.17</course>
  <speed>0.7932212806020776</speed>
  <fix>3d</fix>
</trkpt>
<trkpt lat="40.0708192" lon="-105.2295458">
  <ele>1582.99</ele>
  <time>2026-09-02T20:50:51Z</time>
  <course>56.07</course>
  <speed>0.79</speed>
  <fix>3d</fix>
</trkpt>
<trkpt lat="40.0708203" lon="-105.2295434">
  <ele>1582.99</ele>
  <time>2026-09-02T20:50:51Z</time>
  <course>56.17</course>
  <speed>0.7932212806020776</speed>
  <fix>3d</fix>
</trkpt>
<trkpt lat="40.07082" lon="-105.2295442">
  <ele>1582.99</ele>
  <time>2026-09-02T20:50:51Z</time>
  <course>56.07</course>
  <speed>0.8</speed>
  <fix>3d</fix>
</trkpt>
<trkpt lat="40.0708208" lon="-105.2295427">
  <ele>1582.99</ele>
  <time>2026-09-02T20:50:51Z</time>
  <course>56.17</course>
  <speed>0.7849203781276163</speed>
  <fix>3d</fix>
</trkpt>
<trkpt lat="40.07082" lon="-105.2295442">
  <ele>1582.99</ele>
  <time>2026-09-02T20:50:51Z</time>
  <course>56.07</course>
  <speed>0.8</speed>
  <fix>3d</fix>
</trkpt>
<trkpt lat="40.0708212" lon="-105.229542">
  <ele>1582.99</ele>
  <time>2026-09-02T20:50:51Z</time>
  <course>56.17</course>
  <speed>0.7932212806020776</speed>
  <fix>3d</fix>
</trkpt>
<trkpt lat="40.0708207" lon="-105.2295427">
  <ele>1582.99</ele>
  <time>2026-09-02T20:50:51Z</time>
  <course>56.08</course>
  <speed>0.8</speed>
  <fix>3d</fix>
</trkpt>
<trkpt lat="40.0708215" lon="-105.2295412">
  <ele>1582.99</ele>
  <time>2026-09-02T20:50:51Z</time>
  <course>56.17</course>
  <speed>0.7932212806020776</speed>
  <fix>3d</fix>
</trkpt>
<trkpt lat="40.0708207" lon="-105.2295427">
  <ele>1582.99</ele>
  <time>2026-09-02T20:50:51Z</time>
  <course>56.08</course>
  <speed>0.8</speed>
  <fix>3d</fix>
</trkpt>
<trkpt lat="40.070822" lon="-105.2295403">
  <ele>1582.99</ele>
  <time>2026-09-02T20:50:51Z</time>
  <course>56.17</course>
  <speed>0.7932212806020776</speed>
  <fix>3d</fix>
</trkpt>
<trkpt lat="40.0708216" lon="-105.2295412">
  <ele>1582.99</ele>
  <time>2026-09-02T20:50:51Z</time>
  <course>56.08</course>
  <speed>0.8</speed>
  <fix>3d</fix>
</trkpt>
<trkpt lat="40.0708224" lon="-105.2295396">
  <ele>1582.99</ele>
  <time>2026-09-02T20:50:51Z</time>
  <course>56.17</course>
  <speed>0.7932212806020776</speed>
  <fix>3d</fix>
</trkpt>
<trkpt lat="40.0708216" lon="-105.2295412">
  <ele>1582.99</ele>
  <time>2026-09-02T20:50:51Z</time>
  <course>56.08</course>
  <speed>0.8</speed>
  <fix>3d</fix>
</trkpt>
<trkpt lat="40.0708227" lon="-105.2295386">
  <ele>1582.99</ele>
  <time>2026-09-02T20:50:51Z</time>
  <course>56.17</course>
  <speed>0.7932212806020776</speed>
  <fix>3d</fix>
</trkpt>
<trkpt lat="40.0708224" lon="-105.2295396">
  <ele>1582.99</ele>
  <time>2026-09-02T20:50:51Z</time>
  <course>56.08</course>
  <speed>0.8</speed>
  <fix>3d</fix>
</trkpt>
<trkpt lat="40.0708233" lon="-105.2295379">
  <ele>1582.99</ele>
  <time>2026-09-02T20:50:51Z</time>
  <course>56.18</course>
  <speed>0.7932212806020776</speed>
  <fix>3d</fix>
</trkpt>
<trkpt lat="40.0708224" lon="-105.2295396">
  <ele>1582.99</ele>
  <time>2026-09-02T20:50:51Z</time>
  <course>56.08</course>
  <speed>0.8</speed>
  <fix>3d</fix>
</trkpt>
<trkpt lat="40.0708237" lon="-105.2295371">
  <ele>1582.99</ele>
  <time>2026-09-02T20:50:51Z</time>
  <course>56.22</course>
  <speed>0.7932212806020776</speed>
  <fix>3d</fix>
</trkpt>
<trkpt lat="40.0708231" lon="-105.229538">
  <ele>1582.99</ele>
  <time>2026-09-02T20:50:51Z</time>
  <course>56.09</course>
  <speed>0.8</speed>
  <fix>3d</fix>
</trkpt>
<trkpt lat="40.070824" lon="-105.2295362">
  <ele>1582.99</ele>
  <time>2026-09-02T20:50:51Z</time>
  <course>56.27</course>
  <speed>0.7932212806020776</speed>
  <fix>3d</fix>
</trkpt>
<trkpt lat="40.0708231" lon="-105.229538">
  <ele>1582.99</ele>
  <time>2026-09-02T20:50:51Z</time>
  <course>56.09</course>
  <speed>0.8</speed>
  <fix>3d</fix>
</trkpt>
<trkpt lat="40.0708245" lon="-105.2295355">
  <ele>1582.99</ele>
  <time>2026-09-02T20:50:51Z</time>
  <course>56.34</course>
  <speed>0.7932212806020776</speed>
  <fix>3d</fix>
</trkpt>
<trkpt lat="40.070824" lon="-105.2295365">
  <ele>1582.99</ele>
  <time>2026-09-02T20:50:51Z</time>
  <course>56.17</course>
  <speed>0.8</speed>
  <fix>3d</fix>
</trkpt>
<trkpt lat="40.0708247" lon="-105.2295348">
  <ele>1582.99</ele>
  <time>2026-09-02T20:50:51Z</time>
  <course>56.44</course>
  <speed>0.7932212806020776</speed>
  <fix>3d</fix>
</trkpt>
<trkpt lat="40.070824" lon="-105.2295365">
  <ele>1582.99</ele>
  <time>2026-09-02T20:50:51Z</time>
  <course>56.17</course>
  <speed>0.8</speed>
  <fix>3d</fix>
</trkpt>
<trkpt lat="40.0708252" lon="-105.229534">
  <ele>1582.99</ele>
  <time>2026-09-02T20:50:51Z</time>
  <course>56.55</course>
  <speed>0.7932212806020776</speed>
  <fix>3d</fix>
</trkpt>
<trkpt lat="40.0708247" lon="-105.2295349">
  <ele>1582.99</ele>
  <time>2026-09-02T20:50:51Z</time>
  <course>56.33</course>
  <speed>0.8</speed>
  <fix>3d</fix>
</trkpt>
<trkpt lat="40.0708256" lon="-105.2295331">
  <ele>1582.99</ele>
  <time>2026-09-02T20:50:51Z</time>
  <course>56.7</course>
  <speed>0.7932212806020776</speed>
  <fix>3d</fix>
</trkpt>
<trkpt lat="40.0708247" lon="-105.2295349">
  <ele>1582.99</ele>
  <time>2026-09-02T20:50:51Z</time>
  <course>56.33</course>
  <speed>0.8</speed>
  <fix>3d</fix>
</trkpt>
<trkpt lat="40.0708259" lon="-105.2295324">
  <ele>1582.99</ele>
  <time>2026-09-02T20:50:52Z</time>
  <course>56.87</course>
  <speed>0.7877182237323191</speed>
  <fix>3d</fix>
</trkpt>
<trkpt lat="40.0708256" lon="-105.2295333">
  <ele>1582.99</ele>
  <time>2026-09-02T20:50:52Z</time>
  <course>56.58</course>
  <speed>0.8</speed>
  <fix>3d</fix>
</trkpt>
<trkpt lat="40.0708264" lon="-105.2295316">
  <ele>1582.99</ele>
  <time>2026-09-02T20:50:52Z</time>
  <course>57.06</course>
  <speed>0.7877182237323191</speed>
  <fix>3d</fix>
</trkpt>
<trkpt lat="40.0708256" lon="-105.2295333">
  <ele>1582.99</ele>
  <time>2026-09-02T20:50:52Z</time>
  <course>56.58</course>
  <speed>0.8</speed>
  <fix>3d</fix>
</trkpt>
<trkpt lat="40.0708268" lon="-105.2295309">
  <ele>1582.99</ele>
  <time>2026-09-02T20:50:52Z</time>
  <course>57.25</course>
  <speed>0.7961155694998057</speed>
  <fix>3d</fix>
</trkpt>
<trkpt lat="40.0708263" lon="-105.2295317">
  <ele>1582.99</ele>
  <time>2026-09-02T20:50:52Z</time>
  <course>56.92</course>
  <speed>0.8</speed>
  <fix>3d</fix>
</trkpt>
<trkpt lat="40.070827" lon="-105.2295302">
  <ele>1582.99</ele>
  <time>2026-09-02T20:50:52Z</time>
  <course>57.41</course>
  <speed>0.7961155694998057</speed>
  <fix>3d</fix>
</trkpt>
<trkpt lat="40.0708263" lon="-105.2295317">
  <ele>1582.99</ele>
  <time>2026-09-02T20:50:52Z</time>
  <course>56.92</course>
  <speed>0.8</speed>
  <fix>3d</fix>
</trkpt>
<trkpt lat="40.0708275" lon="-105.2295293">
  <ele>1582.99</ele>
  <time>2026-09-02T20:50:52Z</time>
  <course>57.59</course>
  <speed>0.7961155694998057</speed>
  <fix>3d</fix>
</trkpt>
<trkpt lat="40.0708271" lon="-105.2295302">
  <ele>1582.99</ele>
  <time>2026-09-02T20:50:52Z</time>
  <course>57.3</course>
  <speed>0.8</speed>
  <fix>3d</fix>
</trkpt>
<trkpt lat="40.0708279" lon="-105.2295286">
  <ele>1582.99</ele>
  <time>2026-09-02T20:50:52Z</time>
  <course>57.75</course>
  <speed>0.7907591289387687</speed>
  <fix>3d</fix>
</trkpt>
<trkpt lat="40.0708271" lon="-105.2295302">
  <ele>1582.99</ele>
  <time>2026-09-02T20:50:52Z</time>
  <course>57.3</course>
  <speed>0.8</speed>
  <fix>3d</fix>
</trkpt>
<trkpt lat="40.0708282" lon="-105.2295278">
  <ele>1582.99</ele>
  <time>2026-09-02T20:50:52Z</time>
  <course>57.91</course>
  <speed>0.7992496481075234</speed>
  <fix>3d</fix>
</trkpt>
<trkpt lat="40.0708279" lon="-105.2295286">
  <ele>1582.99</ele>
  <time>2026-09-02T20:50:52Z</time>
  <course>57.65</course>
  <speed>0.8</speed>
  <fix>3d</fix>
</trkpt>
<trkpt lat="40.0708287" lon="-105.2295269">
  <ele>1582.99</ele>
  <time>2026-09-02T20:50:52Z</time>
  <course>58.05</course>
  <speed>0.7907591289387687</speed>
  <fix>3d</fix>
</trkpt>
<trkpt lat="40.0708279" lon="-105.2295286">
  <ele>1582.99</ele>
  <time>2026-09-02T20:50:52Z</time>
  <course>57.65</course>
  <speed>0.8</speed>
  <fix>3d</fix>
</trkpt>
<trkpt lat="40.0708291" lon="-105.2295262">
  <ele>1582.99</ele>
  <time>2026-09-02T20:50:52Z</time>
  <course>58.17</course>
  <speed>0.7992496481075234</speed>
  <fix>3d</fix>
</trkpt>
<trkpt lat="40.0708286" lon="-105.229527">
  <ele>1582.99</ele>
  <time>2026-09-02T20:50:52Z</time>
  <course>57.94</course>
  <speed>0.8</speed>
  <fix>3d</fix>
</trkpt>
<trkpt lat="40.0708294" lon="-105.2295255">
  <ele>1582.99</ele>
  <time>2026-09-02T20:50:52Z</time>
  <course>58.28</course>
  <speed>0.7907591289387687</speed>
  <fix>3d</fix>
</trkpt>
<trkpt lat="40.0708286" lon="-105.229527">
  <ele>1582.99</ele>
  <time>2026-09-02T20:50:52Z</time>
  <course>57.94</course>
  <speed>0.8</speed>
  <fix>3d</fix>
</trkpt>
<trkpt lat="40.0708298" lon="-105.2295247">
  <ele>1582.99</ele>
  <time>2026-09-02T20:50:52Z</time>
  <course>58.37</course>
  <speed>0.7992496481075234</speed>
  <fix>3d</fix>
</trkpt>
<trkpt lat="40.0708294" lon="-105.2295255">
  <ele>1582.99</ele>
  <time>2026-09-02T20:50:52Z</time>
  <course>58.17</course>
  <speed>0.8</speed>
  <fix>3d</fix>
</trkpt>
<trkpt lat="40.0708301" lon="-105.2295238">
  <ele>1582.99</ele>
  <time>2026-09-02T20:50:52Z</time>
  <course>58.44</course>
  <speed>0.7854934754662193</speed>
  <fix>3d</fix>
</trkpt>
<trkpt lat="40.0708294" lon="-105.2295255">
  <ele>1582.99</ele>
  <time>2026-09-02T20:50:52Z</time>
  <course>58.17</course>
  <speed>0.8</speed>
  <fix>3d</fix>
</trkpt>
<trkpt lat="40.0708306" lon="-105.2295228">
  <ele>1582.99</ele>
  <time>2026-09-02T20:50:52Z</time>
  <course>58.53</course>
  <speed>0.7992496481075234</speed>
  <fix>3d</fix>
</trkpt>
<trkpt lat="40.0708302" lon="-105.2295239">
  <ele>1582.99</ele>
  <time>2026-09-02T20:50:52Z</time>
  <course>58.34</course>
  <speed>0.8</speed>
  <fix>3d</fix>
</trkpt>
<trkpt lat="40.070831" lon="-105.2295221">
  <ele>1582.99</ele>
  <time>2026-09-02T20:50:52Z</time>
  <course>58.6</course>
  <speed>0.7940403012442127</speed>
  <fix>3d</fix>
</trkpt>
<trkpt lat="40.0708302" lon="-105.2295239">
  <ele>1582.99</ele>
  <time>2026-09-02T20:50:52Z</time>
  <course>58.34</course>
  <speed>0.8</speed>
  <fix>3d</fix>
</trkpt>
<trkpt lat="40.0708313" lon="-105.2295213">
  <ele>1582.99</ele>
  <time>2026-09-02T20:50:52Z</time>
  <course>58.67</course>
  <speed>0.7940403012442127</speed>
  <fix>3d</fix>
</trkpt>
<trkpt lat="40.0708309" lon="-105.2295222">
  <ele>1582.99</ele>
  <time>2026-09-02T20:50:52Z</time>
  <course>58.48</course>
  <speed>0.79</speed>
  <fix>3d</fix>
</trkpt>
<trkpt lat="40.0708318" lon="-105.2295204">
  <ele>1582.99</ele>
  <time>2026-09-02T20:50:52Z</time>
  <course>58.73</course>
  <speed>0.7940403012442127</speed>
  <fix>3d</fix>
</trkpt>
<trkpt lat="40.0708309" lon="-105.2295222">
  <ele>1582.99</ele>
  <time>2026-09-02T20:50:52Z</time>
  <course>58.48</course>
  <speed>0.79</speed>
  <fix>3d</fix>
</trkpt>
<trkpt lat="40.070832" lon="-105.2295197">
  <ele>1582.99</ele>
  <time>2026-09-02T20:50:52Z</time>
  <course>58.79</course>
  <speed>0.7940403012442127</speed>
  <fix>3d</fix>
</trkpt>
<trkpt lat="40.0708317" lon="-105.2295207">
  <ele>1582.99</ele>
  <time>2026-09-02T20:50:52Z</time>
  <course>58.61</course>
  <speed>0.8</speed>
  <fix>3d</fix>
</trkpt>
<trkpt lat="40.0708325" lon="-105.2295189">
  <ele>1582.99</ele>
  <time>2026-09-02T20:50:52Z</time>
  <course>58.85</course>
  <speed>0.7940403012442127</speed>
  <fix>3d</fix>
</trkpt>
<trkpt lat="40.0708317" lon="-105.2295207">
  <ele>1582.99</ele>
  <time>2026-09-02T20:50:52Z</time>
  <course>58.61</course>
  <speed>0.8</speed>
  <fix>3d</fix>
</trkpt>
<trkpt lat="40.0708329" lon="-105.229518">
  <ele>1582.99</ele>
  <time>2026-09-02T20:50:52Z</time>
  <course>58.9</course>
  <speed>0.7940403012442127</speed>
  <fix>3d</fix>
</trkpt>
<trkpt lat="40.0708324" lon="-105.229519">
  <ele>1582.99</ele>
  <time>2026-09-02T20:50:52Z</time>
  <course>58.73</course>
  <speed>0.8</speed>
  <fix>3d</fix>
</trkpt>
<trkpt lat="40.0708332" lon="-105.2295173">
  <ele>1582.99</ele>
  <time>2026-09-02T20:50:52Z</time>
  <course>58.95</course>
  <speed>0.7940403012442127</speed>
  <fix>3d</fix>
</trkpt>
<trkpt lat="40.0708324" lon="-105.229519">
  <ele>1582.99</ele>
  <time>2026-09-02T20:50:52Z</time>
  <course>58.73</course>
  <speed>0.8</speed>
  <fix>3d</fix>
</trkpt>
<trkpt lat="40.0708336" lon="-105.2295164">
  <ele>1582.99</ele>
  <time>2026-09-02T20:50:52Z</time>
  <course>59.0</course>
  <speed>0.7940403012442127</speed>
  <fix>3d</fix>
</trkpt>
<trkpt lat="40.0708331" lon="-105.2295173">
  <ele>1582.99</ele>
  <time>2026-09-02T20:50:52Z</time>
  <course>58.84</course>
  <speed>0.8</speed>
  <fix>3d</fix>
</trkpt>
<trkpt lat="40.070834" lon="-105.2295156">
  <ele>1582.99</ele>
  <time>2026-09-02T20:50:52Z</time>
  <course>59.05</course>
  <speed>0.7940403012442127</speed>
  <fix>3d</fix>
</trkpt>
<trkpt lat="40.0708331" lon="-105.2295173">
  <ele>1582.99</ele>
  <time>2026-09-02T20:50:52Z</time>
  <course>58.84</course>
  <speed>0.8</speed>
  <fix>3d</fix>
</trkpt>
<trkpt lat="40.0708343" lon="-105.2295149">
  <ele>1582.99</ele>
  <time>2026-09-02T20:50:52Z</time>
  <course>59.09</course>
  <speed>0.7940403012442127</speed>
  <fix>3d</fix>
</trkpt>
<trkpt lat="40.0708339" lon="-105.2295158">
  <ele>1582.99</ele>
  <time>2026-09-02T20:50:52Z</time>
  <course>58.93</course>
  <speed>0.8</speed>
  <fix>3d</fix>
</trkpt>
<trkpt lat="40.0708347" lon="-105.2295142">
  <ele>1582.99</ele>
  <time>2026-09-02T20:50:52Z</time>
  <course>59.12</course>
  <speed>0.7940403012442127</speed>
  <fix>3d</fix>
</trkpt>
<trkpt lat="40.0708339" lon="-105.2295158">
  <ele>1582.99</ele>
  <time>2026-09-02T20:50:52Z</time>
  <course>58.93</course>
  <speed>0.8</speed>
  <fix>3d</fix>
</trkpt>
<trkpt lat="40.0708349" lon="-105.2295134">
  <ele>1583.0</ele>
  <time>2026-09-02T20:50:52Z</time>
  <course>59.15</course>
  <speed>0.7940403012442127</speed>
  <fix>3d</fix>
</trkpt>
<trkpt lat="40.0708346" lon="-105.2295142">
  <ele>1582.99</ele>
  <time>2026-09-02T20:50:52Z</time>
  <course>59.01</course>
  <speed>0.8</speed>
  <fix>3d</fix>
</trkpt>
<trkpt lat="40.0708354" lon="-105.2295125">
  <ele>1583.0</ele>
  <time>2026-09-02T20:50:52Z</time>
  <course>59.19</course>
  <speed>0.7889233169326408</speed>
  <fix>3d</fix>
</trkpt>
<trkpt lat="40.0708346" lon="-105.2295142">
  <ele>1582.99</ele>
  <time>2026-09-02T20:50:52Z</time>
  <course>59.01</course>
  <speed>0.8</speed>
  <fix>3d</fix>
</trkpt>
<trkpt lat="40.0708358" lon="-105.2295118">
  <ele>1582.99</ele>
  <time>2026-09-02T20:50:52Z</time>
  <course>59.22</course>
  <speed>0.7940403012442127</speed>
  <fix>3d</fix>
</trkpt>
<trkpt lat="40.0708353" lon="-105.2295125">
  <ele>1582.99</ele>
  <time>2026-09-02T20:50:52Z</time>
  <course>59.08</course>
  <speed>0.8</speed>
  <fix>3d</fix>
</trkpt>
<trkpt lat="40.0708361" lon="-105.229511">
  <ele>1582.99</ele>
  <time>2026-09-02T20:50:52Z</time>
  <course>59.26</course>
  <speed>0.7889233169326408</speed>
  <fix>3d</fix>
</trkpt>
<trkpt lat="40.0708353" lon="-105.2295125">
  <ele>1582.99</ele>
  <time>2026-09-02T20:50:52Z</time>
  <course>59.08</course>
  <speed>0.8</speed>
  <fix>3d</fix>
</trkpt>
<trkpt lat="40.0708365" lon="-105.2295101">
  <ele>1582.99</ele>
  <time>2026-09-02T20:50:52Z</time>
  <course>59.28</course>
  <speed>0.8026207074328446</speed>
  <fix>3d</fix>
</trkpt>
<trkpt lat="40.0708361" lon="-105.229511">
  <ele>1582.99</ele>
  <time>2026-09-02T20:50:52Z</time>
  <course>59.15</course>
  <speed>0.8</speed>
  <fix>3d</fix>
</trkpt>
<trkpt lat="40.0708368" lon="-105.2295094">
  <ele>1582.99</ele>
  <time>2026-09-02T20:50:52Z</time>
  <course>59.32</course>
  <speed>0.7889233169326408</speed>
  <fix>3d</fix>
</trkpt>
<trkpt lat="40.0708361" lon="-105.229511">
  <ele>1582.99</ele>
  <time>2026-09-02T20:50:52Z</time>
  <course>59.15</course>
  <speed>0.8</speed>
  <fix>3d</fix>
</trkpt>
<trkpt lat="40.0708372" lon="-105.2295085">
  <ele>1582.99</ele>
  <time>2026-09-02T20:50:52Z</time>
  <course>59.34</course>
  <speed>0.8026207074328446</speed>
  <fix>3d</fix>
</trkpt>
<trkpt lat="40.0708368" lon="-105.2295093">
  <ele>1582.99</ele>
  <time>2026-09-02T20:50:52Z</time>
  <course>59.21</course>
  <speed>0.8</speed>
  <fix>3d</fix>
</trkpt>
<trkpt lat="40.0708376" lon="-105.2295077">
  <ele>1582.99</ele>
  <time>2026-09-02T20:50:52Z</time>
  <course>59.37</course>
  <speed>0.7889233169326408</speed>
  <fix>3d</fix>
</trkpt>
<trkpt lat="40.0708368" lon="-105.2295093">
  <ele>1582.99</ele>
  <time>2026-09-02T20:50:52Z</time>
  <course>59.21</course>
  <speed>0.8</speed>
  <fix>3d</fix>
</trkpt>
<trkpt lat="40.0708379" lon="-105.229507">
  <ele>1582.99</ele>
  <time>2026-09-02T20:50:52Z</time>
  <course>59.39</course>
  <speed>0.8026207074328446</speed>
  <fix>3d</fix>
</trkpt>
<trkpt lat="40.0708376" lon="-105.2295077">
  <ele>1582.99</ele>
  <time>2026-09-02T20:50:52Z</time>
  <course>59.26</course>
  <speed>0.8</speed>
  <fix>3d</fix>
</trkpt>
<trkpt lat="40.0708384" lon="-105.229506">
  <ele>1582.99</ele>
  <time>2026-09-02T20:50:52Z</time>
  <course>59.41</course>
  <speed>0.7889233169326408</speed>
  <fix>3d</fix>
</trkpt>
<trkpt lat="40.0708376" lon="-105.2295077">
  <ele>1582.99</ele>
  <time>2026-09-02T20:50:52Z</time>
  <course>59.26</course>
  <speed>0.8</speed>
  <fix>3d</fix>
</trkpt>
<trkpt lat="40.0708388" lon="-105.2295051">
  <ele>1582.99</ele>
  <time>2026-09-02T20:50:52Z</time>
  <course>59.43</course>
  <speed>0.7975587752636166</speed>
  <fix>3d</fix>
</trkpt>
<trkpt lat="40.0708383" lon="-105.2295062">
  <ele>1582.99</ele>
  <time>2026-09-02T20:50:52Z</time>
  <course>59.3</course>
  <speed>0.8</speed>
  <fix>3d</fix>
</trkpt>
<trkpt lat="40.0708391" lon="-105.2295044">
  <ele>1582.99</ele>
  <time>2026-09-02T20:50:52Z</time>
  <course>59.45</course>
  <speed>0.7889233169326408</speed>
  <fix>3d</fix>
</trkpt>
<trkpt lat="40.0708383" lon="-105.2295062">
  <ele>1582.99</ele>
  <time>2026-09-02T20:50:52Z</time>
  <course>59.3</course>
  <speed>0.8</speed>
  <fix>3d</fix>
</trkpt>
<trkpt lat="40.0708395" lon="-105.2295036">
  <ele>1582.99</ele>
  <time>2026-09-02T20:50:52Z</time>
  <course>59.46</course>
  <speed>0.7889233169326408</speed>
  <fix>3d</fix>
</trkpt>
<trkpt lat="40.070839" lon="-105.2295045">
  <ele>1582.99</ele>
  <time>2026-09-02T20:50:52Z</time>
  <course>59.33</course>
  <speed>0.8</speed>
  <fix>3d</fix>
</trkpt>
<trkpt lat="40.0708398" lon="-105.2295027">
  <ele>1582.99</ele>
  <time>2026-09-02T20:50:52Z</time>
  <course>59.47</course>
  <speed>0.7889233169326408</speed>
  <fix>3d</fix>
</trkpt>
<trkpt lat="40.070839" lon="-105.2295045">
  <ele>1582.99</ele>
  <time>2026-09-02T20:50:52Z</time>
  <course>59.33</course>
  <speed>0.8</speed>
  <fix>3d</fix>
</trkpt>
<trkpt lat="40.0708403" lon="-105.229502">
  <ele>1582.99</ele>
  <time>2026-09-02T20:50:52Z</time>
  <course>59.48</course>
  <speed>0.8026207074328446</speed>
  <fix>3d</fix>
</trkpt>
<trkpt lat="40.0708398" lon="-105.2295029">
  <ele>1582.99</ele>
  <time>2026-09-02T20:50:52Z</time>
  <course>59.36</course>
  <speed>0.8</speed>
  <fix>3d</fix>
</trkpt>
<trkpt lat="40.0708405" lon="-105.2295012">
  <ele>1582.99</ele>
  <time>2026-09-02T20:50:52Z</time>
  <course>59.49</course>
  <speed>0.7889233169326408</speed>
  <fix>3d</fix>
</trkpt>
<trkpt lat="40.0708398" lon="-105.2295029">
  <ele>1582.99</ele>
  <time>2026-09-02T20:50:52Z</time>
  <course>59.36</course>
  <speed>0.8</speed>
  <fix>3d</fix>
</trkpt>
<trkpt lat="40.070841" lon="-105.2295003">
  <ele>1582.99</ele>
  <time>2026-09-02T20:50:52Z</time>
  <course>59.5</course>
  <speed>0.7889233169326408</speed>
  <fix>3d</fix>
</trkpt>
<trkpt lat="40.0708405" lon="-105.2295013">
  <ele>1582.99</ele>
  <time>2026-09-02T20:50:52Z</time>
  <course>59.38</course>
  <speed>0.8</speed>
  <fix>3d</fix>
</trkpt>
<trkpt lat="40.0708413" lon="-105.2294994">
  <ele>1582.99</ele>
  <time>2026-09-02T20:50:52Z</time>
  <course>59.51</course>
  <speed>0.7889233169326408</speed>
  <fix>3d</fix>
</trkpt>
<trkpt lat="40.0708405" lon="-105.2295013">
  <ele>1582.99</ele>
  <time>2026-09-02T20:50:52Z</time>
  <course>59.38</course>
  <speed>0.8</speed>
  <fix>3d</fix>
</trkpt>
<trkpt lat="40.0708416" lon="-105.2294986">
  <ele>1582.99</ele>
  <time>2026-09-02T20:50:52Z</time>
  <course>59.51</course>
  <speed>0.7889233169326408</speed>
  <fix>3d</fix>
</trkpt>
<trkpt lat="40.0708412" lon="-105.2294996">
  <ele>1582.99</ele>
  <time>2026-09-02T20:50:52Z</time>
  <course>59.4</course>
  <speed>0.8</speed>
  <fix>3d</fix>
</trkpt>
<trkpt lat="40.0708421" lon="-105.2294979">
  <ele>1582.99</ele>
  <time>2026-09-02T20:50:52Z</time>
  <course>59.52</course>
  <speed>0.7889233169326408</speed>
  <fix>3d</fix>
</trkpt>
<trkpt lat="40.0708412" lon="-105.2294996">
  <ele>1582.99</ele>
  <time>2026-09-02T20:50:52Z</time>
  <course>59.4</course>
  <speed>0.8</speed>
  <fix>3d</fix>
</trkpt>
<trkpt lat="40.0708423" lon="-105.2294972">
  <ele>1582.99</ele>
  <time>2026-09-02T20:50:52Z</time>
  <course>59.53</course>
  <speed>0.7975587752636166</speed>
  <fix>3d</fix>
</trkpt>
<trkpt lat="40.070842" lon="-105.2294981">
  <ele>1582.99</ele>
  <time>2026-09-02T20:50:52Z</time>
  <course>59.41</course>
  <speed>0.8</speed>
  <fix>3d</fix>
</trkpt>
<trkpt lat="40.0708427" lon="-105.2294965">
  <ele>1582.99</ele>
  <time>2026-09-02T20:50:52Z</time>
  <course>59.53</course>
  <speed>0.7889233169326408</speed>
  <fix>3d</fix>
</trkpt>
<trkpt lat="40.070842" lon="-105.2294981">
  <ele>1582.99</ele>
  <time>2026-09-02T20:50:52Z</time>
  <course>59.41</course>
  <speed>0.8</speed>
  <fix>3d</fix>
</trkpt>
<trkpt lat="40.0708431" lon="-105.2294957">
  <ele>1582.99</ele>
  <time>2026-09-02T20:50:52Z</time>
  <course>59.53</course>
  <speed>0.7975587752636166</speed>
  <fix>3d</fix>
</trkpt>
<trkpt lat="40.0708427" lon="-105.2294965">
  <ele>1582.99</ele>
  <time>2026-09-02T20:50:52Z</time>
  <course>59.42</course>
  <speed>0.8</speed>
  <fix>3d</fix>
</trkpt>
<trkpt lat="40.0708434" lon="-105.2294948">
  <ele>1582.99</ele>
  <time>2026-09-02T20:50:52Z</time>
  <course>59.53</course>
  <speed>0.7889233169326408</speed>
  <fix>3d</fix>
</trkpt>
<trkpt lat="40.0708427" lon="-105.2294965">
  <ele>1582.99</ele>
  <time>2026-09-02T20:50:52Z</time>
  <course>59.42</course>
  <speed>0.8</speed>
  <fix>3d</fix>
</trkpt>
<trkpt lat="40.0708438" lon="-105.2294939">
  <ele>1582.99</ele>
  <time>2026-09-02T20:50:52Z</time>
  <course>59.53</course>
  <speed>0.7975587752636166</speed>
  <fix>3d</fix>
</trkpt>
<trkpt lat="40.0708434" lon="-105.2294948">
  <ele>1582.99</ele>
  <time>2026-09-02T20:50:52Z</time>
  <course>59.42</course>
  <speed>0.8</speed>
  <fix>3d</fix>
</trkpt>
<trkpt lat="40.0708441" lon="-105.2294931">
  <ele>1582.99</ele>
  <time>2026-09-02T20:50:52Z</time>
  <course>59.53</course>
  <speed>0.7889233169326408</speed>
  <fix>3d</fix>
</trkpt>
<trkpt lat="40.0708434" lon="-105.2294948">
  <ele>1582.99</ele>
  <time>2026-09-02T20:50:52Z</time>
  <course>59.42</course>
  <speed>0.8</speed>
  <fix>3d</fix>
</trkpt>
<trkpt lat="40.0708446" lon="-105.2294924">
  <ele>1582.99</ele>
  <time>2026-09-02T20:50:52Z</time>
  <course>59.53</course>
  <speed>0.7975587752636166</speed>
  <fix>3d</fix>
</trkpt>
<trkpt lat="40.0708441" lon="-105.2294931">
  <ele>1582.99</ele>
  <time>2026-09-02T20:50:52Z</time>
  <course>59.42</course>
  <speed>0.8</speed>
  <fix>3d</fix>
</trkpt>
<trkpt lat="40.0708449" lon="-105.2294915">
  <ele>1582.99</ele>
  <time>2026-09-02T20:50:52Z</time>
  <course>59.53</course>
  <speed>0.7889233169326408</speed>
  <fix>3d</fix>
</trkpt>
<trkpt lat="40.0708441" lon="-105.2294931">
  <ele>1582.99</ele>
  <time>2026-09-02T20:50:52Z</time>
  <course>59.42</course>
  <speed>0.8</speed>
  <fix>3d</fix>
</trkpt>
<trkpt lat="40.0708452" lon="-105.2294907">
  <ele>1582.99</ele>
  <time>2026-09-02T20:50:52Z</time>
  <course>59.53</course>
  <speed>0.7975587752636166</speed>
  <fix>3d</fix>
</trkpt>
<trkpt lat="40.0708449" lon="-105.2294915">
  <ele>1582.99</ele>
  <time>2026-09-02T20:50:52Z</time>
  <course>59.42</course>
  <speed>0.8</speed>
  <fix>3d</fix>
</trkpt>
<trkpt lat="40.0708457" lon="-105.22949">
  <ele>1582.99</ele>
  <time>2026-09-02T20:50:52Z</time>
  <course>59.52</course>
  <speed>0.7889233169326408</speed>
  <fix>3d</fix>
</trkpt>
<trkpt lat="40.0708449" lon="-105.2294915">
  <ele>1582.99</ele>
  <time>2026-09-02T20:50:52Z</time>
  <course>59.42</course>
  <speed>0.8</speed>
  <fix>3d</fix>
</trkpt>
<trkpt lat="40.0708461" lon="-105.229489">
  <ele>1582.99</ele>
  <time>2026-09-02T20:50:52Z</time>
  <course>59.52</course>
  <speed>0.7975587752636166</speed>
  <fix>3d</fix>
</trkpt>
<trkpt lat="40.0708456" lon="-105.22949">
  <ele>1582.99</ele>
  <time>2026-09-02T20:50:52Z</time>
  <course>59.41</course>
  <speed>0.8</speed>
  <fix>3d</fix>
</trkpt>
<trkpt lat="40.0708464" lon="-105.2294881">
  <ele>1582.99</ele>
  <time>2026-09-02T20:50:52Z</time>
  <course>59.51</course>
  <speed>0.7889233169326408</speed>
  <fix>3d</fix>
</trkpt>
<trkpt lat="40.0708456" lon="-105.22949">
  <ele>1582.99</ele>
  <time>2026-09-02T20:50:52Z</time>
  <course>59.41</course>
  <speed>0.8</speed>
  <fix>3d</fix>
</trkpt>
<trkpt lat="40.0708468" lon="-105.2294874">
  <ele>1582.99</ele>
  <time>2026-09-02T20:50:52Z</time>
  <course>59.5</course>
  <speed>0.7975587752636166</speed>
  <fix>3d</fix>
</trkpt>
<trkpt lat="40.0708463" lon="-105.2294883">
  <ele>1582.99</ele>
  <time>2026-09-02T20:50:52Z</time>
  <course>59.4</course>
  <speed>0.8</speed>
  <fix>3d</fix>
</trkpt>
<trkpt lat="40.0708471" lon="-105.2294866">
  <ele>1582.99</ele>
  <time>2026-09-02T20:50:52Z</time>
  <course>59.5</course>
  <speed>0.7889233169326408</speed>
  <fix>3d</fix>
</trkpt>
<trkpt lat="40.0708463" lon="-105.2294883">
  <ele>1582.99</ele>
  <time>2026-09-02T20:50:52Z</time>
  <course>59.4</course>
  <speed>0.8</speed>
  <fix>3d</fix>
</trkpt>
<trkpt lat="40.0708476" lon="-105.2294857">
  <ele>1582.99</ele>
  <time>2026-09-02T20:50:52Z</time>
  <course>59.49</course>
  <speed>0.7975587752636166</speed>
  <fix>3d</fix>
</trkpt>
<trkpt lat="40.0708471" lon="-105.2294867">
  <ele>1582.99</ele>
  <time>2026-09-02T20:50:52Z</time>
  <course>59.39</course>
  <speed>0.8</speed>
  <fix>3d</fix>
</trkpt>
<trkpt lat="40.0708478" lon="-105.229485">
  <ele>1582.99</ele>
  <time>2026-09-02T20:50:52Z</time>
  <course>59.49</course>
  <speed>0.7889233169326408</speed>
  <fix>3d</fix>
</trkpt>
<trkpt lat="40.0708471" lon="-105.2294867">
  <ele>1582.99</ele>
  <time>2026-09-02T20:50:52Z</time>
  <course>59.39</course>
  <speed>0.8</speed>
  <fix>3d</fix>
</trkpt>
<trkpt lat="40.0708483" lon="-105.2294842">
  <ele>1582.99</ele>
  <time>2026-09-02T20:50:52Z</time>
  <course>59.48</course>
  <speed>0.7975587752636166</speed>
  <fix>3d</fix>
</trkpt>
<trkpt lat="40.0708478" lon="-105.2294851">
  <ele>1582.99</ele>
  <time>2026-09-02T20:50:52Z</time>
  <course>59.38</course>
  <speed>0.8</speed>
  <fix>3d</fix>
</trkpt>
<trkpt lat="40.0708487" lon="-105.2294833">
  <ele>1582.99</ele>
  <time>2026-09-02T20:50:52Z</time>
  <course>59.48</course>
  <speed>0.7889233169326408</speed>
  <fix>3d</fix>
</trkpt>
<trkpt lat="40.0708478" lon="-105.2294851">
  <ele>1582.99</ele>
  <time>2026-09-02T20:50:52Z</time>
  <course>59.38</course>
  <speed>0.8</speed>
  <fix>3d</fix>
</trkpt>
<trkpt lat="40.0708489" lon="-105.2294826">
  <ele>1582.99</ele>
  <time>2026-09-02T20:50:52Z</time>
  <course>59.46</course>
  <speed>0.7889233169326408</speed>
  <fix>3d</fix>
</trkpt>
<trkpt lat="40.0708486" lon="-105.2294834">
  <ele>1582.99</ele>
  <time>2026-09-02T20:50:52Z</time>
  <course>59.36</course>
  <speed>0.8</speed>
  <fix>3d</fix>
</trkpt>
<trkpt lat="40.0708494" lon="-105.2294818">
  <ele>1582.99</ele>
  <time>2026-09-02T20:50:52Z</time>
  <course>59.46</course>
  <speed>0.7889233169326408</speed>
  <fix>3d</fix>
</trkpt>
<trkpt lat="40.0708486" lon="-105.2294834">
  <ele>1582.99</ele>
  <time>2026-09-02T20:50:52Z</time>
  <course>59.36</course>
  <speed>0.8</speed>
  <fix>3d</fix>
</trkpt>
<trkpt lat="40.0708498" lon="-105.2294809">
  <ele>1582.99</ele>
  <time>2026-09-02T20:50:52Z</time>
  <course>59.45</course>
  <speed>0.7889233169326408</speed>
  <fix>3d</fix>
</trkpt>
<trkpt lat="40.0708493" lon="-105.2294819">
  <ele>1582.99</ele>
  <time>2026-09-02T20:50:52Z</time>
  <course>59.35</course>
  <speed>0.8</speed>
  <fix>3d</fix>
</trkpt>
<trkpt lat="40.0708501" lon="-105.2294802">
  <ele>1582.99</ele>
  <time>2026-09-02T20:50:52Z</time>
  <course>59.45</course>
  <speed>0.7889233169326408</speed>
  <fix>3d</fix>
</trkpt>
<trkpt lat="40.0708493" lon="-105.2294819">
  <ele>1582.99</ele>
  <time>2026-09-02T20:50:52Z</time>
  <course>59.35</course>
  <speed>0.8</speed>
  <fix>3d</fix>
</trkpt>
<trkpt lat="40.0708504" lon="-105.2294795">
  <ele>1582.99</ele>
  <time>2026-09-02T20:50:52Z</time>
  <course>59.44</course>
  <speed>0.7889233169326408</speed>
  <fix>3d</fix>
</trkpt>
<trkpt lat="40.07085" lon="-105.2294803">
  <ele>1582.99</ele>
  <time>2026-09-02T20:50:52Z</time>
  <course>59.34</course>
  <speed>0.8</speed>
  <fix>3d</fix>
</trkpt>
<trkpt lat="40.0708507" lon="-105.2294787">
  <ele>1582.99</ele>
  <time>2026-09-02T20:50:52Z</time>
  <course>59.44</course>
  <speed>0.7889233169326408</speed>
  <fix>3d</fix>
</trkpt>
<trkpt lat="40.07085" lon="-105.2294803">
  <ele>1582.99</ele>
  <time>2026-09-02T20:50:52Z</time>
  <course>59.34</course>
  <speed>0.8</speed>
  <fix>3d</fix>
</trkpt>
<trkpt lat="40.0708512" lon="-105.2294778">
  <ele>1582.99</ele>
  <time>2026-09-02T20:50:52Z</time>
  <course>59.43</course>
  <speed>0.8026207074328446</speed>
  <fix>3d</fix>
</trkpt>
<trkpt lat="40.0708508" lon="-105.2294786">
  <ele>1582.99</ele>
  <time>2026-09-02T20:50:52Z</time>
  <course>59.32</course>
  <speed>0.8</speed>
  <fix>3d</fix>
</trkpt>
<trkpt lat="40.0708514" lon="-105.2294771">
  <ele>1582.99</ele>
  <time>2026-09-02T20:50:52Z</time>
  <course>59.42</course>
  <speed>0.7889233169326408</speed>
  <fix>3d</fix>
</trkpt>
<trkpt lat="40.0708508" lon="-105.2294786">
  <ele>1582.99</ele>
  <time>2026-09-02T20:50:52Z</time>
  <course>59.32</course>
  <speed>0.8</speed>
  <fix>3d</fix>
</trkpt>
<trkpt lat="40.0708519" lon="-105.2294763">
  <ele>1582.99</ele>
  <time>2026-09-02T20:50:52Z</time>
  <course>59.41</course>
  <speed>0.8026207074328446</speed>
  <fix>3d</fix>
</trkpt>
<trkpt lat="40.0708515" lon="-105.2294771">
  <ele>1582.99</ele>
  <time>2026-09-02T20:50:52Z</time>
  <course>59.31</course>
  <speed>0.8</speed>
  <fix>3d</fix>
</trkpt>
<trkpt lat="40.0708523" lon="-105.2294754">
  <ele>1582.99</ele>
  <time>2026-09-02T20:50:52Z</time>
  <course>59.4</course>
  <speed>0.7889233169326408</speed>
  <fix>3d</fix>
</trkpt>
<trkpt lat="40.0708515" lon="-105.2294771">
  <ele>1582.99</ele>
  <time>2026-09-02T20:50:52Z</time>
  <course>59.31</course>
  <speed>0.8</speed>
  <fix>3d</fix>
</trkpt>
<trkpt lat="40.0708525" lon="-105.2294745">
  <ele>1582.99</ele>
  <time>2026-09-02T20:50:52Z</time>
  <course>59.39</course>
  <speed>0.8026207074328446</speed>
  <fix>3d</fix>
</trkpt>
<trkpt lat="40.0708522" lon="-105.2294754">
  <ele>1582.99</ele>
  <time>2026-09-02T20:50:52Z</time>
  <course>59.29</course>
  <speed>0.8</speed>
  <fix>3d</fix>
</trkpt>
<trkpt lat="40.070853" lon="-105.2294737">
  <ele>1582.99</ele>
  <time>2026-09-02T20:50:52Z</time>
  <course>59.38</course>
  <speed>0.7889233169326408</speed>
  <fix>3d</fix>
</trkpt>
<trkpt lat="40.0708522" lon="-105.2294754">
  <ele>1582.99</ele>
  <time>2026-09-02T20:50:52Z</time>
  <course>59.29</course>
  <speed>0.8</speed>
  <fix>3d</fix>
</trkpt>
<trkpt lat="40.0708534" lon="-105.229473">
  <ele>1582.99</ele>
  <time>2026-09-02T20:50:52Z</time>
  <course>59.37</course>
  <speed>0.8026207074328446</speed>
  <fix>3d</fix>
</trkpt>
<trkpt lat="40.070853" lon="-105.2294737">
  <ele>1582.99</ele>
  <time>2026-09-02T20:50:52Z</time>
  <course>59.27</course>
  <speed>0.8</speed>
  <fix>3d</fix>
</trkpt>
<trkpt lat="40.0708537" lon="-105.2294721">
  <ele>1582.99</ele>
  <time>2026-09-02T20:50:52Z</time>
  <course>59.36</course>
  <speed>0.7889233169326408</speed>
  <fix>3d</fix>
</trkpt>
<trkpt lat="40.070853" lon="-105.2294737">
  <ele>1582.99</ele>
  <time>2026-09-02T20:50:52Z</time>
  <course>59.27</course>
  <speed>0.8</speed>
  <fix>3d</fix>
</trkpt>
<trkpt lat="40.0708542" lon="-105.2294713">
  <ele>1582.99</ele>
  <time>2026-09-02T20:50:52Z</time>
  <course>59.35</course>
  <speed>0.8026207074328446</speed>
  <fix>3d</fix>
</trkpt>
<trkpt lat="40.0708537" lon="-105.2294722">
  <ele>1582.99</ele>
  <time>2026-09-02T20:50:52Z</time>
  <course>59.25</course>
  <speed>0.8</speed>
  <fix>3d</fix>
</trkpt>
<trkpt lat="40.0708544" lon="-105.2294704">
  <ele>1582.99</ele>
  <time>2026-09-02T20:50:52Z</time>
  <course>59.34</course>
  <speed>0.7889233169326408</speed>
  <fix>3d</fix>
</trkpt>
<trkpt lat="40.0708537" lon="-105.2294722">
  <ele>1582.99</ele>
  <time>2026-09-02T20:50:52Z</time>
  <course>59.25</course>
  <speed>0.8</speed>
  <fix>3d</fix>
</trkpt>
<trkpt lat="40.0708549" lon="-105.2294696">
  <ele>1582.99</ele>
  <time>2026-09-02T20:50:52Z</time>
  <course>59.33</course>
  <speed>0.8026207074328446</speed>
  <fix>3d</fix>
</trkpt>
<trkpt lat="40.0708544" lon="-105.2294705">
  <ele>1582.99</ele>
  <time>2026-09-02T20:50:52Z</time>
  <course>59.23</course>
  <speed>0.8</speed>
  <fix>3d</fix>
</trkpt>
<trkpt lat="40.0708553" lon="-105.2294687">
  <ele>1582.99</ele>
  <time>2026-09-02T20:50:52Z</time>
  <course>59.32</course>
  <speed>0.7889233169326408</speed>
  <fix>3d</fix>
</trkpt>
<trkpt lat="40.0708544" lon="-105.2294705">
  <ele>1582.99</ele>
  <time>2026-09-02T20:50:52Z</time>
  <course>59.23</course>
  <speed>0.8</speed>
  <fix>3d</fix>
</trkpt>
<trkpt lat="40.0708556" lon="-105.229468">
  <ele>1582.99</ele>
  <time>2026-09-02T20:50:52Z</time>
  <course>59.31</course>
  <speed>0.8026207074328446</speed>
  <fix>3d</fix>
</trkpt>
<trkpt lat="40.0708551" lon="-105.229469">
  <ele>1582.99</ele>
  <time>2026-09-02T20:50:52Z</time>
  <course>59.21</course>
  <speed>0.8</speed>
  <fix>3d</fix>
</trkpt>
<trkpt lat="40.070856" lon="-105.2294672">
  <ele>1582.99</ele>
  <time>2026-09-02T20:50:52Z</time>
  <course>59.3</course>
  <speed>0.7889233169326408</speed>
  <fix>3d</fix>
</trkpt>
<trkpt lat="40.0708551" lon="-105.229469">
  <ele>1582.99</ele>
  <time>2026-09-02T20:50:52Z</time>
  <course>59.21</course>
  <speed>0.8</speed>
  <fix>3d</fix>
</trkpt>
<trkpt lat="40.0708563" lon="-105.2294663">
  <ele>1582.99</ele>
  <time>2026-09-02T20:50:52Z</time>
  <course>59.29</course>
  <speed>0.8026207074328446</speed>
  <fix>3d</fix>
</trkpt>
<trkpt lat="40.0708559" lon="-105.2294674">
  <ele>1582.99</ele>
  <time>2026-09-02T20:50:52Z</time>
  <course>59.19</course>
  <speed>0.8</speed>
  <fix>3d</fix>
</trkpt>
<trkpt lat="40.0708567" lon="-105.2294656">
  <ele>1582.99</ele>
  <time>2026-09-02T20:50:52Z</time>
  <course>59.28</course>
  <speed>0.7889233169326408</speed>
  <fix>3d</fix>
</trkpt>
<trkpt lat="40.0708559" lon="-105.2294674">
  <ele>1582.99</ele>
  <time>2026-09-02T20:50:52Z</time>
  <course>59.19</course>
  <speed>0.8</speed>
  <fix>3d</fix>
</trkpt>
<trkpt lat="40.0708571" lon="-105.2294647">
  <ele>1582.99</ele>
  <time>2026-09-02T20:50:52Z</time>
  <course>59.28</course>
  <speed>0.7940403012442127</speed>
  <fix>3d</fix>
</trkpt>
<trkpt lat="40.0708566" lon="-105.2294657">
  <ele>1582.99</ele>
  <time>2026-09-02T20:50:52Z</time>
  <course>59.17</course>
  <speed>0.8</speed>
  <fix>3d</fix>
</trkpt>
<trkpt lat="40.0708574" lon="-105.2294639">
  <ele>1582.99</ele>
  <time>2026-09-02T20:50:52Z</time>
  <course>59.27</course>
  <speed>0.7889233169326408</speed>
  <fix>3d</fix>
</trkpt>
<trkpt lat="40.0708566" lon="-105.2294657">
  <ele>1582.99</ele>
  <time>2026-09-02T20:50:52Z</time>
  <course>59.17</course>
  <speed>0.8</speed>
  <fix>3d</fix>
</trkpt>
<trkpt lat="40.0708578" lon="-105.2294632">
  <ele>1582.99</ele>
  <time>2026-09-02T20:50:52Z</time>
  <course>59.26</course>
  <speed>0.8026207074328446</speed>
  <fix>3d</fix>
</trkpt>
<trkpt lat="40.0708573" lon="-105.2294641">
  <ele>1582.99</ele>
  <time>2026-09-02T20:50:52Z</time>
  <course>59.16</course>
  <speed>0.8</speed>
  <fix>3d</fix>
</trkpt>
<trkpt lat="40.070858" lon="-105.2294625">
  <ele>1582.99</ele>
  <time>2026-09-02T20:50:52Z</time>
  <course>59.25</course>
  <speed>0.7889233169326408</speed>
  <fix>3d</fix>
</trkpt>
<trkpt lat="40.0708573" lon="-105.2294641">
  <ele>1582.99</ele>
  <time>2026-09-02T20:50:52Z</time>
  <course>59.16</course>
  <speed>0.8</speed>
  <fix>3d</fix>
</trkpt>
<trkpt lat="40.0708585" lon="-105.2294617">
  <ele>1582.99</ele>
  <time>2026-09-02T20:50:52Z</time>
  <course>59.25</course>
  <speed>0.7940403012442127</speed>
  <fix>3d</fix>
</trkpt>
<trkpt lat="40.0708581" lon="-105.2294625">
  <ele>1582.99</ele>
  <time>2026-09-02T20:50:52Z</time>
  <course>59.14</course>
  <speed>0.8</speed>
  <fix>3d</fix>
</trkpt>
<trkpt lat="40.0708589" lon="-105.2294608">
  <ele>1582.99</ele>
  <time>2026-09-02T20:50:52Z</time>
  <course>59.24</course>
  <speed>0.7889233169326408</speed>
  <fix>3d</fix>
</trkpt>
<trkpt lat="40.0708581" lon="-105.2294625">
  <ele>1582.99</ele>
  <time>2026-09-02T20:50:52Z</time>
  <course>59.14</course>
  <speed>0.8</speed>
  <fix>3d</fix>
</trkpt>
<trkpt lat="40.0708592" lon="-105.2294601">
  <ele>1582.99</ele>
  <time>2026-09-02T20:50:52Z</time>
  <course>59.23</course>
  <speed>0.7940403012442127</speed>
  <fix>3d</fix>
</trkpt>
<trkpt lat="40.0708588" lon="-105.2294608">
  <ele>1582.99</ele>
  <time>2026-09-02T20:50:52Z</time>
  <course>59.13</course>
  <speed>0.8</speed>
  <fix>3d</fix>
</trkpt>
<trkpt lat="40.0708596" lon="-105.2294593">
  <ele>1582.99</ele>
  <time>2026-09-02T20:50:52Z</time>
  <course>59.23</course>
  <speed>0.7889233169326408</speed>
  <fix>3d</fix>
</trkpt>
<trkpt lat="40.0708588" lon="-105.2294608">
  <ele>1582.99</ele>
  <time>2026-09-02T20:50:52Z</time>
  <course>59.13</course>
  <speed>0.8</speed>
  <fix>3d</fix>
</trkpt>
<trkpt lat="40.0708599" lon="-105.2294584">
  <ele>1582.99</ele>
  <time>2026-09-02T20:50:52Z</time>
  <course>59.22</course>
  <speed>0.7940403012442127</speed>
  <fix>3d</fix>
</trkpt>
<trkpt lat="40.0708596" lon="-105.2294593">
  <ele>1582.99</ele>
  <time>2026-09-02T20:50:52Z</time>
  <course>59.11</course>
  <speed>0.8</speed>
  <fix>3d</fix>
</trkpt>
<trkpt lat="40.0708604" lon="-105.2294577">
  <ele>1582.99</ele>
  <time>2026-09-02T20:50:52Z</time>
  <course>59.21</course>
  <speed>0.7889233169326408</speed>
  <fix>3d</fix>
</trkpt>
<trkpt lat="40.0708596" lon="-105.2294593">
  <ele>1582.99</ele>
  <time>2026-09-02T20:50:52Z</time>
  <course>59.11</course>
  <speed>0.8</speed>
  <fix>3d</fix>
</trkpt>
<trkpt lat="40.0708607" lon="-105.2294568">
  <ele>1582.99</ele>
  <time>2026-09-02T20:50:52Z</time>
  <course>59.21</course>
  <speed>0.7940403012442127</speed>
  <fix>3d</fix>
</trkpt>
<trkpt lat="40.0708603" lon="-105.2294576">
  <ele>1582.99</ele>
  <time>2026-09-02T20:50:52Z</time>
  <course>59.1</course>
  <speed>0.8</speed>
  <fix>3d</fix>
</trkpt>
<trkpt lat="40.070861" lon="-105.229456">
  <ele>1582.99</ele>
  <time>2026-09-02T20:50:52Z</time>
  <course>59.2</course>
  <speed>0.7889233169326408</speed>
  <fix>3d</fix>
</trkpt>
<trkpt lat="40.0708603" lon="-105.2294576">
  <ele>1582.99</ele>
  <time>2026-09-02T20:50:52Z</time>
  <course>59.1</course>
  <speed>0.8</speed>
  <fix>3d</fix>
</trkpt>
<trkpt lat="40.0708615" lon="-105.2294551">
  <ele>1582.99</ele>
  <time>2026-09-02T20:50:52Z</time>
  <course>59.2</course>
  <speed>0.7889233169326408</speed>
  <fix>3d</fix>
</trkpt>
<trkpt lat="40.0708611" lon="-105.229456">
  <ele>1582.99</ele>
  <time>2026-09-02T20:50:52Z</time>
  <course>59.09</course>
  <speed>0.8</speed>
  <fix>3d</fix>
</trkpt>
<trkpt lat="40.0708619" lon="-105.2294543">
  <ele>1582.99</ele>
  <time>2026-09-02T20:50:52Z</time>
  <course>59.19</course>
  <speed>0.7940403012442127</speed>
  <fix>3d</fix>
</trkpt>
<trkpt lat="40.0708611" lon="-105.229456">
  <ele>1582.99</ele>
  <time>2026-09-02T20:50:52Z</time>
  <course>59.09</course>
  <speed>0.8</speed>
  <fix>3d</fix>
</trkpt>
<trkpt lat="40.0708623" lon="-105.2294534">
  <ele>1582.99</ele>
  <time>2026-09-02T20:50:52Z</time>
  <course>59.19</course>
  <speed>0.7889233169326408</speed>
  <fix>3d</fix>
</trkpt>
<trkpt lat="40.0708618" lon="-105.2294545">
  <ele>1582.99</ele>
  <time>2026-09-02T20:50:52Z</time>
  <course>59.08</course>
  <speed>0.8</speed>
  <fix>3d</fix>
</trkpt>
<trkpt lat="40.0708626" lon="-105.2294527">
  <ele>1582.99</ele>
  <time>2026-09-02T20:50:52Z</time>
  <course>59.18</course>
  <speed>0.7940403012442127</speed>
  <fix>3d</fix>
</trkpt>
<trkpt lat="40.0708618" lon="-105.2294545">
  <ele>1582.99</ele>
  <time>2026-09-02T20:50:52Z</time>
  <course>59.08</course>
  <speed>0.8</speed>
  <fix>3d</fix>
</trkpt>
<trkpt lat="40.0708629" lon="-105.2294519">
  <ele>1582.99</ele>
  <time>2026-09-02T20:50:52Z</time>
  <course>59.18</course>
  <speed>0.7889233169326408</speed>
  <fix>3d</fix>
</trkpt>
<trkpt lat="40.0708625" lon="-105.2294528">
  <ele>1582.99</ele>
  <time>2026-09-02T20:50:52Z</time>
  <course>59.07</course>
  <speed>0.8</speed>
  <fix>3d</fix>
</trkpt>
<trkpt lat="40.0708634" lon="-105.229451">
  <ele>1582.99</ele>
  <time>2026-09-02T20:50:52Z</time>
  <course>59.18</course>
  <speed>0.7940403012442127</speed>
  <fix>3d</fix>
</trkpt>
<trkpt lat="40.0708625" lon="-105.2294528">
  <ele>1582.99</ele>
  <time>2026-09-02T20:50:52Z</time>
  <course>59.07</course>
  <speed>0.8</speed>
  <fix>3d</fix>
</trkpt>
<trkpt lat="40.0708638" lon="-105.2294503">
  <ele>1582.99</ele>
  <time>2026-09-02T20:50:52Z</time>
  <course>59.17</course>
  <speed>0.7940403012442127</speed>
  <fix>3d</fix>
</trkpt>
<trkpt lat="40.0708633" lon="-105.2294512">
  <ele>1582.99</ele>
  <time>2026-09-02T20:50:52Z</time>
  <course>59.06</course>
  <speed>0.8</speed>
  <fix>3d</fix>
</trkpt>
<trkpt lat="40.0708641" lon="-105.2294495">
  <ele>1582.99</ele>
  <time>2026-09-02T20:50:52Z</time>
  <course>59.17</course>
  <speed>0.7940403012442127</speed>
  <fix>3d</fix>
</trkpt>
<trkpt lat="40.0708633" lon="-105.2294512">
  <ele>1582.99</ele>
  <time>2026-09-02T20:50:52Z</time>
  <course>59.06</course>
  <speed>0.8</speed>
  <fix>3d</fix>
</trkpt>
<trkpt lat="40.0708645" lon="-105.2294486">
  <ele>1582.99</ele>
  <time>2026-09-02T20:50:52Z</time>
  <course>59.16</course>
  <speed>0.7940403012442127</speed>
  <fix>3d</fix>
</trkpt>
<trkpt lat="40.070864" lon="-105.2294496">
  <ele>1582.99</ele>
  <time>2026-09-02T20:50:52Z</time>
  <course>59.05</course>
  <speed>0.79</speed>
  <fix>3d</fix>
</trkpt>
<trkpt lat="40.0708648" lon="-105.2294479">
  <ele>1582.99</ele>
  <time>2026-09-02T20:50:52Z</time>
  <course>59.16</course>
  <speed>0.7940403012442127</speed>
  <fix>3d</fix>
</trkpt>
<trkpt lat="40.070864" lon="-105.2294496">
  <ele>1582.99</ele>
  <time>2026-09-02T20:50:52Z</time>
  <course>59.05</course>
  <speed>0.79</speed>
  <fix>3d</fix>
</trkpt>
<trkpt lat="40.0708652" lon="-105.2294471">
  <ele>1582.99</ele>
  <time>2026-09-02T20:50:52Z</time>
  <course>59.16</course>
  <speed>0.7940403012442127</speed>
  <fix>3d</fix>
</trkpt>
<trkpt lat="40.0708647" lon="-105.2294479">
  <ele>1582.99</ele>
  <time>2026-09-02T20:50:52Z</time>
  <course>59.05</course>
  <speed>0.79</speed>
  <fix>3d</fix>
</trkpt>
<trkpt lat="40.0708654" lon="-105.2294464">
  <ele>1582.99</ele>
  <time>2026-09-02T20:50:52Z</time>
  <course>59.16</course>
  <speed>0.7940403012442127</speed>
  <fix>3d</fix>
</trkpt>
<trkpt lat="40.0708647" lon="-105.2294479">
  <ele>1582.99</ele>
  <time>2026-09-02T20:50:52Z</time>
  <course>59.05</course>
  <speed>0.79</speed>
  <fix>3d</fix>
</trkpt>
<trkpt lat="40.0708659" lon="-105.2294455">
  <ele>1582.99</ele>
  <time>2026-09-02T20:50:52Z</time>
  <course>59.15</course>
  <speed>0.7940403012442127</speed>
  <fix>3d</fix>
</trkpt>
<trkpt lat="40.0708655" lon="-105.2294464">
  <ele>1582.99</ele>
  <time>2026-09-02T20:50:52Z</time>
  <course>59.04</course>
  <speed>0.8</speed>
  <fix>3d</fix>
</trkpt>
<trkpt lat="40.0708663" lon="-105.2294448">
  <ele>1582.99</ele>
  <time>2026-09-02T20:50:52Z</time>
  <course>59.15</course>
  <speed>0.7940403012442127</speed>
  <fix>3d</fix>
</trkpt>
<trkpt lat="40.0708655" lon="-105.2294464">
  <ele>1582.99</ele>
  <time>2026-09-02T20:50:52Z</time>
  <course>59.04</course>
  <speed>0.8</speed>
  <fix>3d</fix>
</trkpt>
<trkpt lat="40.0708665" lon="-105.229444">
  <ele>1582.99</ele>
  <time>2026-09-02T20:50:52Z</time>
  <course>59.15</course>
  <speed>0.7940403012442127</speed>
  <fix>3d</fix>
</trkpt>
<trkpt lat="40.0708662" lon="-105.2294448">
  <ele>1582.99</ele>
  <time>2026-09-02T20:50:52Z</time>
  <course>59.04</course>
  <speed>0.8</speed>
  <fix>3d</fix>
</trkpt>
<trkpt lat="40.070867" lon="-105.2294431">
  <ele>1582.99</ele>
  <time>2026-09-02T20:50:52Z</time>
  <course>59.15</course>
  <speed>0.7940403012442127</speed>
  <fix>3d</fix>
</trkpt>
<trkpt lat="40.0708662" lon="-105.2294448">
  <ele>1582.99</ele>
  <time>2026-09-02T20:50:52Z</time>
  <course>59.04</course>
  <speed>0.8</speed>
  <fix>3d</fix>
</trkpt>
<trkpt lat="40.0708674" lon="-105.2294424">
  <ele>1582.99</ele>
  <time>2026-09-02T20:50:52Z</time>
  <course>59.15</course>
  <speed>0.7940403012442127</speed>
  <fix>3d</fix>
</trkpt>
<trkpt lat="40.0708669" lon="-105.2294431">
  <ele>1582.99</ele>
  <time>2026-09-02T20:50:52Z</time>
  <course>59.03</course>
  <speed>0.8</speed>
  <fix>3d</fix>
</trkpt>
<trkpt lat="40.0708677" lon="-105.2294416">
  <ele>1582.99</ele>
  <time>2026-09-02T20:50:52Z</time>
  <course>59.14</course>
  <speed>0.7940403012442127</speed>
  <fix>3d</fix>
</trkpt>
<trkpt lat="40.0708669" lon="-105.2294431">
  <ele>1582.99</ele>
  <time>2026-09-02T20:50:52Z</time>
  <course>59.03</course>
  <speed>0.8</speed>
  <fix>3d</fix>
</trkpt>
<trkpt lat="40.0708681" lon="-105.2294407">
  <ele>1582.99</ele>
  <time>2026-09-02T20:50:52Z</time>
  <course>59.14</course>
  <speed>0.7940403012442127</speed>
  <fix>3d</fix>
</trkpt>
<trkpt lat="40.0708677" lon="-105.2294416">
  <ele>1582.99</ele>
  <time>2026-09-02T20:50:52Z</time>
  <course>59.03</course>
  <speed>0.8</speed>
  <fix>3d</fix>
</trkpt>
<trkpt lat="40.0708684" lon="-105.22944">
  <ele>1582.99</ele>
  <time>2026-09-02T20:50:52Z</time>
  <course>59.14</course>
  <speed>0.7940403012442127</speed>
  <fix>3d</fix>
</trkpt>
<trkpt lat="40.0708677" lon="-105.2294416">
  <ele>1582.99</ele>
  <time>2026-09-02T20:50:52Z</time>
  <course>59.03</course>
  <speed>0.8</speed>
  <fix>3d</fix>
</trkpt>
<trkpt lat="40.0708689" lon="-105.229439">
  <ele>1582.99</ele>
  <time>2026-09-02T20:50:52Z</time>
  <course>59.14</course>
  <speed>0.7940403012442127</speed>
  <fix>3d</fix>
</trkpt>
<trkpt lat="40.0708685" lon="-105.22944">
  <ele>1582.99</ele>
  <time>2026-09-02T20:50:52Z</time>
  <course>59.03</course>
  <speed>0.8</speed>
  <fix>3d</fix>
</trkpt>
<trkpt lat="40.0708693" lon="-105.2294381">
  <ele>1582.99</ele>
  <time>2026-09-02T20:50:52Z</time>
  <course>59.13</course>
  <speed>0.7940403012442127</speed>
  <fix>3d</fix>
</trkpt>
<trkpt lat="40.0708685" lon="-105.22944">
  <ele>1582.99</ele>
  <time>2026-09-02T20:50:52Z</time>
  <course>59.03</course>
  <speed>0.8</speed>
  <fix>3d</fix>
</trkpt>
<trkpt lat="40.0708696" lon="-105.2294374">
  <ele>1582.99</ele>
  <time>2026-09-02T20:50:52Z</time>
  <course>59.13</course>
  <speed>0.7940403012442127</speed>
  <fix>3d</fix>
</trkpt>
<trkpt lat="40.0708692" lon="-105.2294383">
  <ele>1582.99</ele>
  <time>2026-09-02T20:50:52Z</time>
  <course>59.02</course>
  <speed>0.8</speed>
  <fix>3d</fix>
</trkpt>
<trkpt lat="40.07087" lon="-105.2294366">
  <ele>1582.99</ele>
  <time>2026-09-02T20:50:52Z</time>
  <course>59.13</course>
  <speed>0.7940403012442127</speed>
  <fix>3d</fix>
</trkpt>
<trkpt lat="40.0708692" lon="-105.2294383">
  <ele>1582.99</ele>
  <time>2026-09-02T20:50:52Z</time>
  <course>59.02</course>
  <speed>0.8</speed>
  <fix>3d</fix>
</trkpt>
<trkpt lat="40.0708703" lon="-105.2294357">
  <ele>1582.99</ele>
  <time>2026-09-02T20:50:52Z</time>
  <course>59.13</course>
  <speed>0.7940403012442127</speed>
  <fix>3d</fix>
</trkpt>
<trkpt lat="40.0708699" lon="-105.2294368">
  <ele>1582.99</ele>
  <time>2026-09-02T20:50:52Z</time>
  <course>59.02</course>
  <speed>0.8</speed>
  <fix>3d</fix>
</trkpt>
<trkpt lat="40.0708708" lon="-105.229435">
  <ele>1582.99</ele>
  <time>2026-09-02T20:50:52Z</time>
  <course>59.13</course>
  <speed>0.7940403012442127</speed>
  <fix>3d</fix>
</trkpt>
<trkpt lat="40.0708699" lon="-105.2294368">
  <ele>1582.99</ele>
  <time>2026-09-02T20:50:52Z</time>
  <course>59.02</course>
  <speed>0.8</speed>
  <fix>3d</fix>
</trkpt>
<trkpt lat="40.0708711" lon="-105.2294342">
  <ele>1582.99</ele>
  <time>2026-09-02T20:50:52Z</time>
  <course>59.13</course>
  <speed>0.7940403012442127</speed>
  <fix>3d</fix>
</trkpt>
<trkpt lat="40.0708707" lon="-105.2294351">
  <ele>1582.99</ele>
  <time>2026-09-02T20:50:52Z</time>
  <course>59.01</course>
  <speed>0.8</speed>
  <fix>3d</fix>
</trkpt>
<trkpt lat="40.0708714" lon="-105.2294333">
  <ele>1582.99</ele>
  <time>2026-09-02T20:50:52Z</time>
  <course>59.13</course>
  <speed>0.7940403012442127</speed>
  <fix>3d</fix>
</trkpt>
<trkpt lat="40.0708707" lon="-105.2294351">
  <ele>1582.99</ele>
  <time>2026-09-02T20:50:52Z</time>
  <course>59.01</course>
  <speed>0.8</speed>
  <fix>3d</fix>
</trkpt>
<trkpt lat="40.0708719" lon="-105.2294326">
  <ele>1582.99</ele>
  <time>2026-09-02T20:50:52Z</time>
  <course>59.13</course>
  <speed>0.7940403012442127</speed>
  <fix>3d</fix>
</trkpt>
<trkpt lat="40.0708714" lon="-105.2294335">
  <ele>1582.99</ele>
  <time>2026-09-02T20:50:52Z</time>
  <course>59.01</course>
  <speed>0.8</speed>
  <fix>3d</fix>
</trkpt>
<trkpt lat="40.0708723" lon="-105.2294318">
  <ele>1582.99</ele>
  <time>2026-09-02T20:50:52Z</time>
  <course>59.13</course>
  <speed>0.7940403012442127</speed>
  <fix>3d</fix>
</trkpt>
<trkpt lat="40.0708714" lon="-105.2294335">
  <ele>1582.99</ele>
  <time>2026-09-02T20:50:52Z</time>
  <course>59.01</course>
  <speed>0.8</speed>
  <fix>3d</fix>
</trkpt>
<trkpt lat="40.0708726" lon="-105.2294309">
  <ele>1582.99</ele>
  <time>2026-09-02T20:50:52Z</time>
  <course>59.13</course>
  <speed>0.7940403012442127</speed>
  <fix>3d</fix>
</trkpt>
<trkpt lat="40.0708721" lon="-105.2294319">
  <ele>1582.99</ele>
  <time>2026-09-02T20:50:52Z</time>
  <course>59.02</course>
  <speed>0.8</speed>
  <fix>3d</fix>
</trkpt>
<trkpt lat="40.070873" lon="-105.2294302">
  <ele>1582.99</ele>
  <time>2026-09-02T20:50:52Z</time>
  <course>59.13</course>
  <speed>0.7940403012442127</speed>
  <fix>3d</fix>
</trkpt>
<trkpt lat="40.0708721" lon="-105.2294319">
  <ele>1582.99</ele>
  <time>2026-09-02T20:50:52Z</time>
  <course>59.02</course>
  <speed>0.8</speed>
  <fix>3d</fix>
</trkpt>
<trkpt lat="40.0708732" lon="-105.2294295">
  <ele>1582.99</ele>
  <time>2026-09-02T20:50:52Z</time>
  <course>59.13</course>
  <speed>0.7940403012442127</speed>
  <fix>3d</fix>
</trkpt>
<trkpt lat="40.0708729" lon="-105.2294302">
  <ele>1582.99</ele>
  <time>2026-09-02T20:50:52Z</time>
  <course>59.02</course>
  <speed>0.8</speed>
  <fix>3d</fix>
</trkpt>
<trkpt lat="40.0708737" lon="-105.2294287">
  <ele>1582.99</ele>
  <time>2026-09-02T20:50:52Z</time>
  <course>59.13</course>
  <speed>0.7940403012442127</speed>
  <fix>3d</fix>
</trkpt>
<trkpt lat="40.0708729" lon="-105.2294302">
  <ele>1582.99</ele>
  <time>2026-09-02T20:50:52Z</time>
  <course>59.02</course>
  <speed>0.8</speed>
  <fix>3d</fix>
</trkpt>
<trkpt lat="40.0708739" lon="-105.2294278">
  <ele>1582.99</ele>
  <time>2026-09-02T20:50:52Z</time>
  <course>59.13</course>
  <speed>0.7940403012442127</speed>
  <fix>3d</fix>
</trkpt>
<trkpt lat="40.0708736" lon="-105.2294287">
  <ele>1582.99</ele>
  <time>2026-09-02T20:50:52Z</time>
  <course>59.01</course>
  <speed>0.79</speed>
  <fix>3d</fix>
</trkpt>
<trkpt lat="40.0708744" lon="-105.2294271">
  <ele>1582.99</ele>
  <time>2026-09-02T20:50:52Z</time>
  <course>59.13</course>
  <speed>0.7940403012442127</speed>
  <fix>3d</fix>
</trkpt>
<trkpt lat="40.0708736" lon="-105.2294287">
  <ele>1582.99</ele>
  <time>2026-09-02T20:50:52Z</time>
  <course>59.01</course>
  <speed>0.79</speed>
  <fix>3d</fix>
</trkpt>
<trkpt lat="40.0708748" lon="-105.2294263">
  <ele>1582.99</ele>
  <time>2026-09-02T20:50:52Z</time>
  <course>59.13</course>
  <speed>0.7940403012442127</speed>
  <fix>3d</fix>
</trkpt>
<trkpt lat="40.0708743" lon="-105.2294271">
  <ele>1582.99</ele>
  <time>2026-09-02T20:50:52Z</time>
  <course>59.01</course>
  <speed>0.79</speed>
  <fix>3d</fix>
</trkpt>
<trkpt lat="40.070875" lon="-105.2294254">
  <ele>1582.99</ele>
  <time>2026-09-02T20:50:52Z</time>
  <course>59.13</course>
  <speed>0.7940403012442127</speed>
  <fix>3d</fix>
</trkpt>
<trkpt lat="40.0708743" lon="-105.2294271">
  <ele>1582.99</ele>
  <time>2026-09-02T20:50:52Z</time>
  <course>59.01</course>
  <speed>0.79</speed>
  <fix>3d</fix>
</trkpt>
<trkpt lat="40.0708755" lon="-105.2294247">
  <ele>1582.99</ele>
  <time>2026-09-02T20:50:52Z</time>
  <course>59.13</course>
  <speed>0.7940403012442127</speed>
  <fix>3d</fix>
</trkpt>
<trkpt lat="40.0708751" lon="-105.2294254">
  <ele>1582.99</ele>
  <time>2026-09-02T20:50:52Z</time>
  <course>59.01</course>
  <speed>0.79</speed>
  <fix>3d</fix>
</trkpt>
<trkpt lat="40.0708759" lon="-105.2294239">
  <ele>1582.99</ele>
  <time>2026-09-02T20:50:52Z</time>
  <course>59.13</course>
  <speed>0.7940403012442127</speed>
  <fix>3d</fix>
</trkpt>
<trkpt lat="40.0708751" lon="-105.2294254">
  <ele>1582.99</ele>
  <time>2026-09-02T20:50:52Z</time>
  <course>59.01</course>
  <speed>0.79</speed>
  <fix>3d</fix>
</trkpt>
<trkpt lat="40.0708762" lon="-105.229423">
  <ele>1582.99</ele>
  <time>2026-09-02T20:50:52Z</time>
  <course>59.13</course>
  <speed>0.7940403012442127</speed>
  <fix>3d</fix>
</trkpt>
<trkpt lat="40.0708759" lon="-105.2294239">
  <ele>1582.99</ele>
  <time>2026-09-02T20:50:52Z</time>
  <course>59.01</course>
  <speed>0.79</speed>
  <fix>3d</fix>
</trkpt>
<trkpt lat="40.0708767" lon="-105.229422">
  <ele>1582.99</ele>
  <time>2026-09-02T20:50:52Z</time>
  <course>59.13</course>
  <speed>0.7940403012442127</speed>
  <fix>3d</fix>
</trkpt>
<trkpt lat="40.0708759" lon="-105.2294239">
  <ele>1582.99</ele>
  <time>2026-09-02T20:50:52Z</time>
  <course>59.01</course>
  <speed>0.79</speed>
  <fix>3d</fix>
</trkpt>
<trkpt lat="40.0708771" lon="-105.2294213">
  <ele>1582.99</ele>
  <time>2026-09-02T20:50:52Z</time>
  <course>59.13</course>
  <speed>0.7940403012442127</speed>
  <fix>3d</fix>
</trkpt>
<trkpt lat="40.0708766" lon="-105.2294223">
  <ele>1582.99</ele>
  <time>2026-09-02T20:50:52Z</time>
  <course>59.02</course>
  <speed>0.79</speed>
  <fix>3d</fix>
</trkpt>
<trkpt lat="40.0708774" lon="-105.2294204">
  <ele>1582.99</ele>
  <time>2026-09-02T20:50:52Z</time>
  <course>59.13</course>
  <speed>0.7940403012442127</speed>
  <fix>3d</fix>
</trkpt>
<trkpt lat="40.0708766" lon="-105.2294223">
  <ele>1582.99</ele>
  <time>2026-09-02T20:50:52Z</time>
  <course>59.02</course>
  <speed>0.79</speed>
  <fix>3d</fix>
</trkpt>
<trkpt lat="40.0708778" lon="-105.2294196">
  <ele>1582.99</ele>
  <time>2026-09-02T20:50:52Z</time>
  <course>59.14</course>
  <speed>0.7940403012442127</speed>
  <fix>3d</fix>
</trkpt>
<trkpt lat="40.0708773" lon="-105.2294206">
  <ele>1582.99</ele>
  <time>2026-09-02T20:50:52Z</time>
  <course>59.02</course>
  <speed>0.79</speed>
  <fix>3d</fix>
</trkpt>
<trkpt lat="40.0708781" lon="-105.2294189">
  <ele>1582.99</ele>
  <time>2026-09-02T20:50:52Z</time>
  <course>59.14</course>
  <speed>0.7940403012442127</speed>
  <fix>3d</fix>
</trkpt>
<trkpt lat="40.0708773" lon="-105.2294206">
  <ele>1582.99</ele>
  <time>2026-09-02T20:50:52Z</time>
  <course>59.02</course>
  <speed>0.79</speed>
  <fix>3d</fix>
</trkpt>
<trkpt lat="40.0708785" lon="-105.229418">
  <ele>1582.99</ele>
  <time>2026-09-02T20:50:52Z</time>
  <course>59.14</course>
  <speed>0.7940403012442127</speed>
  <fix>3d</fix>
</trkpt>
<trkpt lat="40.0708781" lon="-105.229419">
  <ele>1582.99</ele>
  <time>2026-09-02T20:50:52Z</time>
  <course>59.02</course>
  <speed>0.79</speed>
  <fix>3d</fix>
</trkpt>
<trkpt lat="40.0708788" lon="-105.2294173">
  <ele>1582.99</ele>
  <time>2026-09-02T20:50:52Z</time>
  <course>59.14</course>
  <speed>0.7940403012442127</speed>
  <fix>3d</fix>
</trkpt>
<trkpt lat="40.0708781" lon="-105.229419">
  <ele>1582.99</ele>
  <time>2026-09-02T20:50:52Z</time>
  <course>59.02</course>
  <speed>0.79</speed>
  <fix>3d</fix>
</trkpt>
<trkpt lat="40.0708793" lon="-105.2294165">
  <ele>1582.99</ele>
  <time>2026-09-02T20:50:52Z</time>
  <course>59.14</course>
  <speed>0.7940403012442127</speed>
  <fix>3d</fix>
</trkpt>
<trkpt lat="40.0708788" lon="-105.2294173">
  <ele>1582.99</ele>
  <time>2026-09-02T20:50:52Z</time>
  <course>59.02</course>
  <speed>0.79</speed>
  <fix>3d</fix>
</trkpt>
<trkpt lat="40.0708797" lon="-105.2294156">
  <ele>1582.99</ele>
  <time>2026-09-02T20:50:52Z</time>
  <course>59.14</course>
  <speed>0.7940403012442127</speed>
  <fix>3d</fix>
</trkpt>
<trkpt lat="40.0708788" lon="-105.2294173">
  <ele>1582.99</ele>
  <time>2026-09-02T20:50:52Z</time>
  <course>59.02</course>
  <speed>0.79</speed>
  <fix>3d</fix>
</trkpt>
<trkpt lat="40.0708799" lon="-105.2294149">
  <ele>1582.99</ele>
  <time>2026-09-02T20:50:52Z</time>
  <course>59.14</course>
  <speed>0.7940403012442127</speed>
  <fix>3d</fix>
</trkpt>
<trkpt lat="40.0708796" lon="-105.2294158">
  <ele>1582.99</ele>
  <time>2026-09-02T20:50:52Z</time>
  <course>59.02</course>
  <speed>0.79</speed>
  <fix>3d</fix>
</trkpt>
<trkpt lat="40.0708804" lon="-105.2294141">
  <ele>1582.99</ele>
  <time>2026-09-02T20:50:52Z</time>
  <course>59.14</course>
  <speed>0.7940403012442127</speed>
  <fix>3d</fix>
</trkpt>
<trkpt lat="40.0708796" lon="-105.2294158">
  <ele>1582.99</ele>
  <time>2026-09-02T20:50:52Z</time>
  <course>59.02</course>
  <speed>0.79</speed>
  <fix>3d</fix>
</trkpt>
<trkpt lat="40.0708806" lon="-105.2294134">
  <ele>1582.99</ele>
  <time>2026-09-02T20:50:52Z</time>
  <course>59.14</course>
  <speed>0.7940403012442127</speed>
  <fix>3d</fix>
</trkpt>
<trkpt lat="40.0708803" lon="-105.2294141">
  <ele>1582.99</ele>
  <time>2026-09-02T20:50:52Z</time>
  <course>59.03</course>
  <speed>0.79</speed>
  <fix>3d</fix>
</trkpt>
<trkpt lat="40.0708811" lon="-105.2294125">
  <ele>1582.99</ele>
  <time>2026-09-02T20:50:52Z</time>
  <course>59.14</course>
  <speed>0.7940403012442127</speed>
  <fix>3d</fix>
</trkpt>
<trkpt lat="40.0708803" lon="-105.2294141">
  <ele>1582.99</ele>
  <time>2026-09-02T20:50:52Z</time>
  <course>59.03</course>
  <speed>0.79</speed>
  <fix>3d</fix>
</trkpt>
<trkpt lat="40.0708814" lon="-105.2294118">
  <ele>1582.99</ele>
  <time>2026-09-02T20:50:52Z</time>
  <course>59.14</course>
  <speed>0.7940403012442127</speed>
  <fix>3d</fix>
</trkpt>
<trkpt lat="40.070881" lon="-105.2294125">
  <ele>1582.99</ele>
  <time>2026-09-02T20:50:52Z</time>
  <course>59.03</course>
  <speed>0.79</speed>
  <fix>3d</fix>
</trkpt>
<trkpt lat="40.0708817" lon="-105.229411">
  <ele>1582.99</ele>
  <time>2026-09-02T20:50:52Z</time>
  <course>59.15</course>
  <speed>0.8026207074328446</speed>
  <fix>3d</fix>
</trkpt>
<trkpt lat="40.070881" lon="-105.2294125">
  <ele>1582.99</ele>
  <time>2026-09-02T20:50:52Z</time>
  <course>59.03</course>
  <speed>0.79</speed>
  <fix>3d</fix>
</trkpt>
<trkpt lat="40.0708822" lon="-105.2294101">
  <ele>1582.99</ele>
  <time>2026-09-02T20:50:52Z</time>
  <course>59.15</course>
  <speed>0.7940403012442127</speed>
  <fix>3d</fix>
</trkpt>
<trkpt lat="40.0708817" lon="-105.229411">
  <ele>1582.99</ele>
  <time>2026-09-02T20:50:52Z</time>
  <course>59.03</course>
  <speed>0.79</speed>
  <fix>3d</fix>
</trkpt>
<trkpt lat="40.0708824" lon="-105.2294094">
  <ele>1582.99</ele>
  <time>2026-09-02T20:50:52Z</time>
  <course>59.15</course>
  <speed>0.7940403012442127</speed>
  <fix>3d</fix>
</trkpt>
<trkpt lat="40.0708817" lon="-105.229411">
  <ele>1582.99</ele>
  <time>2026-09-02T20:50:52Z</time>
  <course>59.03</course>
  <speed>0.79</speed>
  <fix>3d</fix>
</trkpt>
<trkpt lat="40.0708829" lon="-105.2294086">
  <ele>1582.99</ele>
  <time>2026-09-02T20:50:52Z</time>
  <course>59.15</course>
  <speed>0.7940403012442127</speed>
  <fix>3d</fix>
</trkpt>
<trkpt lat="40.0708825" lon="-105.2294094">
  <ele>1582.99</ele>
  <time>2026-09-02T20:50:52Z</time>
  <course>59.03</course>
  <speed>0.79</speed>
  <fix>3d</fix>
</trkpt>
<trkpt lat="40.0708833" lon="-105.2294077">
  <ele>1582.99</ele>
  <time>2026-09-02T20:50:52Z</time>
  <course>59.15</course>
  <speed>0.7940403012442127</speed>
  <fix>3d</fix>
</trkpt>
<trkpt lat="40.0708825" lon="-105.2294094">
  <ele>1582.99</ele>
  <time>2026-09-02T20:50:52Z</time>
  <course>59.03</course>
  <speed>0.79</speed>
  <fix>3d</fix>
</trkpt>
<trkpt lat="40.0708835" lon="-105.229407">
  <ele>1582.99</ele>
  <time>2026-09-02T20:50:52Z</time>
  <course>59.15</course>
  <speed>0.7940403012442127</speed>
  <fix>3d</fix>
</trkpt>
<trkpt lat="40.0708832" lon="-105.2294077">
  <ele>1582.99</ele>
  <time>2026-09-02T20:50:52Z</time>
  <course>59.04</course>
  <speed>0.79</speed>
  <fix>3d</fix>
</trkpt>
<trkpt lat="40.070884" lon="-105.2294062">
  <ele>1582.99</ele>
  <time>2026-09-02T20:50:52Z</time>
  <course>59.16</course>
  <speed>0.7940403012442127</speed>
  <fix>3d</fix>
</trkpt>
<trkpt lat="40.0708832" lon="-105.2294077">
  <ele>1582.99</ele>
  <time>2026-09-02T20:50:52Z</time>
  <course>59.04</course>
  <speed>0.79</speed>
  <fix>3d</fix>
</trkpt>
<trkpt lat="40.0708845" lon="-105.2294052">
  <ele>1582.99</ele>
  <time>2026-09-02T20:50:52Z</time>
  <course>59.16</course>
  <speed>0.7940403012442127</speed>
  <fix>3d</fix>
</trkpt>
<trkpt lat="40.0708839" lon="-105.2294062">
  <ele>1582.99</ele>
  <time>2026-09-02T20:50:52Z</time>
  <course>59.04</course>
  <speed>0.79</speed>
  <fix>3d</fix>
</trkpt>
<trkpt lat="40.0708847" lon="-105.2294043">
  <ele>1582.99</ele>
  <time>2026-09-02T20:50:52Z</time>
  <course>59.16</course>
  <speed>0.7940403012442127</speed>
  <fix>3d</fix>
</trkpt>
<trkpt lat="40.0708839" lon="-105.2294062">
  <ele>1582.99</ele>
  <time>2026-09-02T20:50:52Z</time>
  <course>59.04</course>
  <speed>0.79</speed>
  <fix>3d</fix>
</trkpt>
<trkpt lat="40.0708852" lon="-105.2294036">
  <ele>1582.99</ele>
  <time>2026-09-02T20:50:52Z</time>
  <course>59.16</course>
  <speed>0.7940403012442127</speed>
  <fix>3d</fix>
</trkpt>
<trkpt lat="40.0708847" lon="-105.2294046">
  <ele>1582.99</ele>
  <time>2026-09-02T20:50:52Z</time>
  <course>59.04</course>
  <speed>0.79</speed>
  <fix>3d</fix>
</trkpt>
<trkpt lat="40.0708855" lon="-105.2294027">
  <ele>1582.99</ele>
  <time>2026-09-02T20:50:52Z</time>
  <course>59.16</course>
  <speed>0.7940403012442127</speed>
  <fix>3d</fix>
</trkpt>
<trkpt lat="40.0708847" lon="-105.2294046">
  <ele>1582.99</ele>
  <time>2026-09-02T20:50:52Z</time>
  <course>59.04</course>
  <speed>0.79</speed>
  <fix>3d</fix>
</trkpt>
<trkpt lat="40.0708859" lon="-105.2294019">
  <ele>1582.99</ele>
  <time>2026-09-02T20:50:52Z</time>
  <course>59.16</course>
  <speed>0.7940403012442127</speed>
  <fix>3d</fix>
</trkpt>
<trkpt lat="40.0708855" lon="-105.2294029">
  <ele>1582.99</ele>
  <time>2026-09-02T20:50:52Z</time>
  <course>59.04</course>
  <speed>0.79</speed>
  <fix>3d</fix>
</trkpt>
<trkpt lat="40.0708863" lon="-105.2294012">
  <ele>1582.99</ele>
  <time>2026-09-02T20:50:52Z</time>
  <course>59.16</course>
  <speed>0.7940403012442127</speed>
  <fix>3d</fix>
</trkpt>
<trkpt lat="40.0708855" lon="-105.2294029">
  <ele>1582.99</ele>
  <time>2026-09-02T20:50:52Z</time>
  <course>59.04</course>
  <speed>0.79</speed>
  <fix>3d</fix>
</trkpt>
<trkpt lat="40.0708866" lon="-105.2294003">
  <ele>1582.99</ele>
  <time>2026-09-02T20:50:52Z</time>
  <course>59.16</course>
  <speed>0.7940403012442127</speed>
  <fix>3d</fix>
</trkpt>
<trkpt lat="40.0708862" lon="-105.2294013">
  <ele>1582.99</ele>
  <time>2026-09-02T20:50:52Z</time>
  <course>59.04</course>
  <speed>0.79</speed>
  <fix>3d</fix>
</trkpt>
<trkpt lat="40.070887" lon="-105.2293995">
  <ele>1582.99</ele>
  <time>2026-09-02T20:50:52Z</time>
  <course>59.16</course>
  <speed>0.7940403012442127</speed>
  <fix>3d</fix>
</trkpt>
<trkpt lat="40.0708862" lon="-105.2294013">
  <ele>1582.99</ele>
  <time>2026-09-02T20:50:52Z</time>
  <course>59.04</course>
  <speed>0.79</speed>
  <fix>3d</fix>
</trkpt>
<trkpt lat="40.0708873" lon="-105.2293988">
  <ele>1582.99</ele>
  <time>2026-09-02T20:50:52Z</time>
  <course>59.16</course>
  <speed>0.7940403012442127</speed>
  <fix>3d</fix>
</trkpt>
<trkpt lat="40.0708869" lon="-105.2293996">
  <ele>1582.99</ele>
  <time>2026-09-02T20:50:52Z</time>
  <course>59.05</course>
  <speed>0.8</speed>
  <fix>3d</fix>
</trkpt>
<trkpt lat="40.0708878" lon="-105.2293979">
  <ele>1582.99</ele>
  <time>2026-09-02T20:50:52Z</time>
  <course>59.16</course>
  <speed>0.7940403012442127</speed>
  <fix>3d</fix>
</trkpt>
<trkpt lat="40.0708869" lon="-105.2293996">
  <ele>1582.99</ele>
  <time>2026-09-02T20:50:52Z</time>
  <course>59.05</course>
  <speed>0.8</speed>
  <fix>3d</fix>
</trkpt>
<trkpt lat="40.0708882" lon="-105.2293971">
  <ele>1582.99</ele>
  <time>2026-09-02T20:50:52Z</time>
  <course>59.17</course>
  <speed>0.7940403012442127</speed>
  <fix>3d</fix>
</trkpt>
<trkpt lat="40.0708877" lon="-105.2293981">
  <ele>1582.99</ele>
  <time>2026-09-02T20:50:52Z</time>
  <course>59.05</course>
  <speed>0.8</speed>
  <fix>3d</fix>
</trkpt>
<trkpt lat="40.0708884" lon="-105.2293964">
  <ele>1582.99</ele>
  <time>2026-09-02T20:50:52Z</time>
  <course>59.17</course>
  <speed>0.7940403012442127</speed>
  <fix>3d</fix>
</trkpt>
<trkpt lat="40.0708877" lon="-105.2293981">
  <ele>1582.99</ele>
  <time>2026-09-02T20:50:52Z</time>
  <course>59.05</course>
  <speed>0.8</speed>
  <fix>3d</fix>
</trkpt>
<trkpt lat="40.0708888" lon="-105.2293957">
  <ele>1582.99</ele>
  <time>2026-09-02T20:50:52Z</time>
  <course>59.17</course>
  <speed>0.7940403012442127</speed>
  <fix>3d</fix>
</trkpt>
<trkpt lat="40.0708884" lon="-105.2293965">
  <ele>1582.99</ele>
  <time>2026-09-02T20:50:52Z</time>
  <course>59.05</course>
  <speed>0.8</speed>
  <fix>3d</fix>
</trkpt>
<trkpt lat="40.0708891" lon="-105.2293948">
  <ele>1582.99</ele>
  <time>2026-09-02T20:50:52Z</time>
  <course>59.17</course>
  <speed>0.7940403012442127</speed>
  <fix>3d</fix>
</trkpt>
<trkpt lat="40.0708884" lon="-105.2293965">
  <ele>1582.99</ele>
  <time>2026-09-02T20:50:52Z</time>
  <course>59.05</course>
  <speed>0.8</speed>
  <fix>3d</fix>
</trkpt>
<trkpt lat="40.0708896" lon="-105.229394">
  <ele>1582.99</ele>
  <time>2026-09-02T20:50:52Z</time>
  <course>59.17</course>
  <speed>0.7940403012442127</speed>
  <fix>3d</fix>
</trkpt>
<trkpt lat="40.0708891" lon="-105.2293948">
  <ele>1582.99</ele>
  <time>2026-09-02T20:50:52Z</time>
  <course>59.05</course>
  <speed>0.8</speed>
  <fix>3d</fix>
</trkpt>
<trkpt lat="40.0708899" lon="-105.2293933">
  <ele>1582.99</ele>
  <time>2026-09-02T20:50:52Z</time>
  <course>59.17</course>
  <speed>0.7940403012442127</speed>
  <fix>3d</fix>
</trkpt>
<trkpt lat="40.0708891" lon="-105.2293948">
  <ele>1582.99</ele>
  <time>2026-09-02T20:50:52Z</time>
  <course>59.05</course>
  <speed>0.8</speed>
  <fix>3d</fix>
</trkpt>
<trkpt lat="40.0708902" lon="-105.2293924">
  <ele>1582.99</ele>
  <time>2026-09-02T20:50:52Z</time>
  <course>59.18</course>
  <speed>0.7940403012442127</speed>
  <fix>3d</fix>
</trkpt>
<trkpt lat="40.0708899" lon="-105.2293933">
  <ele>1582.99</ele>
  <time>2026-09-02T20:50:52Z</time>
  <course>59.06</course>
  <speed>0.8</speed>
  <fix>3d</fix>
</trkpt>
<trkpt lat="40.0708907" lon="-105.2293916">
  <ele>1582.99</ele>
  <time>2026-09-02T20:50:52Z</time>
  <course>59.18</course>
  <speed>0.7889233169326408</speed>
  <fix>3d</fix>
</trkpt>
<trkpt lat="40.0708899" lon="-105.2293933">
  <ele>1582.99</ele>
  <time>2026-09-02T20:50:52Z</time>
  <course>59.06</course>
  <speed>0.8</speed>
  <fix>3d</fix>
</trkpt>
<trkpt lat="40.0708909" lon="-105.2293909">
  <ele>1582.99</ele>
  <time>2026-09-02T20:50:52Z</time>
  <course>59.18</course>
  <speed>0.7940403012442127</speed>
  <fix>3d</fix>
</trkpt>
<trkpt lat="40.0708906" lon="-105.2293916">
  <ele>1582.99</ele>
  <time>2026-09-02T20:50:52Z</time>
  <course>59.06</course>
  <speed>0.8</speed>
  <fix>3d</fix>
</trkpt>
<trkpt lat="40.0708914" lon="-105.22939">
  <ele>1582.99</ele>
  <time>2026-09-02T20:50:52Z</time>
  <course>59.18</course>
  <speed>0.7889233169326408</speed>
  <fix>3d</fix>
</trkpt>
<trkpt lat="40.0708906" lon="-105.2293916">
  <ele>1582.99</ele>
  <time>2026-09-02T20:50:52Z</time>
  <course>59.06</course>
  <speed>0.8</speed>
  <fix>3d</fix>
</trkpt>
<trkpt lat="40.0708918" lon="-105.2293892">
  <ele>1582.99</ele>
  <time>2026-09-02T20:50:52Z</time>
  <course>59.18</course>
  <speed>0.7940403012442127</speed>
  <fix>3d</fix>
</trkpt>
<trkpt lat="40.0708913" lon="-105.22939">
  <ele>1582.99</ele>
  <time>2026-09-02T20:50:52Z</time>
  <course>59.06</course>
  <speed>0.8</speed>
  <fix>3d</fix>
</trkpt>
<trkpt lat="40.0708921" lon="-105.2293883">
  <ele>1582.99</ele>
  <time>2026-09-02T20:50:52Z</time>
  <course>59.18</course>
  <speed>0.7889233169326408</speed>
  <fix>3d</fix>
</trkpt>
<trkpt lat="40.0708913" lon="-105.22939">
  <ele>1582.99</ele>
  <time>2026-09-02T20:50:52Z</time>
  <course>59.06</course>
  <speed>0.8</speed>
  <fix>3d</fix>
</trkpt>
<trkpt lat="40.0708926" lon="-105.2293875">
  <ele>1582.99</ele>
  <time>2026-09-02T20:50:52Z</time>
  <course>59.18</course>
  <speed>0.7940403012442127</speed>
  <fix>3d</fix>
</trkpt>
<trkpt lat="40.0708921" lon="-105.2293884">
  <ele>1582.99</ele>
  <time>2026-09-02T20:50:52Z</time>
  <course>59.06</course>
  <speed>0.8</speed>
  <fix>3d</fix>
</trkpt>
<trkpt lat="40.070893" lon="-105.2293866">
  <ele>1582.99</ele>
  <time>2026-09-02T20:50:52Z</time>
  <course>59.18</course>
  <speed>0.7889233169326408</speed>
  <fix>3d</fix>
</trkpt>
<trkpt lat="40.0708921" lon="-105.2293884">
  <ele>1582.99</ele>
  <time>2026-09-02T20:50:52Z</time>
  <course>59.06</course>
  <speed>0.8</speed>
  <fix>3d</fix>
</trkpt>
<trkpt lat="40.0708933" lon="-105.2293859">
  <ele>1582.99</ele>
  <time>2026-09-02T20:50:52Z</time>
  <course>59.18</course>
  <speed>0.7940403012442127</speed>
  <fix>3d</fix>
</trkpt>
<trkpt lat="40.0708929" lon="-105.2293867">
  <ele>1582.99</ele>
  <time>2026-09-02T20:50:52Z</time>
  <course>59.07</course>
  <speed>0.8</speed>
  <fix>3d</fix>
</trkpt>
<trkpt lat="40.0708937" lon="-105.2293851">
  <ele>1582.99</ele>
  <time>2026-09-02T20:50:52Z</time>
  <course>59.18</course>
  <speed>0.7889233169326408</speed>
  <fix>3d</fix>
</trkpt>
<trkpt lat="40.0708929" lon="-105.2293867">
  <ele>1582.99</ele>
  <time>2026-09-02T20:50:52Z</time>
  <course>59.07</course>
  <speed>0.8</speed>
  <fix>3d</fix>
</trkpt>
<trkpt lat="40.070894" lon="-105.2293842">
  <ele>1582.99</ele>
  <time>2026-09-02T20:50:52Z</time>
  <course>59.19</course>
  <speed>0.7940403012442127</speed>
  <fix>3d</fix>
</trkpt>
<trkpt lat="40.0708936" lon="-105.2293852">
  <ele>1582.99</ele>
  <time>2026-09-02T20:50:52Z</time>
  <course>59.07</course>
  <speed>0.8</speed>
  <fix>3d</fix>
</trkpt>
<trkpt lat="40.0708944" lon="-105.2293835">
  <ele>1582.99</ele>
  <time>2026-09-02T20:50:52Z</time>
  <course>59.19</course>
  <speed>0.7889233169326408</speed>
  <fix>3d</fix>
</trkpt>
<trkpt lat="40.0708936" lon="-105.2293852">
  <ele>1582.99</ele>
  <time>2026-09-02T20:50:52Z</time>
  <course>59.07</course>
  <speed>0.8</speed>
  <fix>3d</fix>
</trkpt>
<trkpt lat="40.0708948" lon="-105.2293827">
  <ele>1582.99</ele>
  <time>2026-09-02T20:50:52Z</time>
  <course>59.19</course>
  <speed>0.7940403012442127</speed>
  <fix>3d</fix>
</trkpt>
<trkpt lat="40.0708943" lon="-105.2293836">
  <ele>1582.99</ele>
  <time>2026-09-02T20:50:52Z</time>
  <course>59.07</course>
  <speed>0.8</speed>
  <fix>3d</fix>
</trkpt>
<trkpt lat="40.0708951" lon="-105.2293818">
  <ele>1582.99</ele>
  <time>2026-09-02T20:50:52Z</time>
  <course>59.19</course>
  <speed>0.7889233169326408</speed>
  <fix>3d</fix>
</trkpt>
<trkpt lat="40.0708943" lon="-105.2293836">
  <ele>1582.99</ele>
  <time>2026-09-02T20:50:52Z</time>
  <course>59.07</course>
  <speed>0.8</speed>
  <fix>3d</fix>
</trkpt>
<trkpt lat="40.0708955" lon="-105.2293809">
  <ele>1582.99</ele>
  <time>2026-09-02T20:50:52Z</time>
  <course>59.19</course>
  <speed>0.7940403012442127</speed>
  <fix>3d</fix>
</trkpt>
<trkpt lat="40.0708951" lon="-105.2293819">
  <ele>1582.99</ele>
  <time>2026-09-02T20:50:52Z</time>
  <course>59.07</course>
  <speed>0.8</speed>
  <fix>3d</fix>
</trkpt>
<trkpt lat="40.0708958" lon="-105.2293802">
  <ele>1582.99</ele>
  <time>2026-09-02T20:50:52Z</time>
  <course>59.19</course>
  <speed>0.7889233169326408</speed>
  <fix>3d</fix>
</trkpt>
<trkpt lat="40.0708951" lon="-105.2293819">
  <ele>1582.99</ele>
  <time>2026-09-02T20:50:52Z</time>
  <course>59.07</course>
  <speed>0.8</speed>
  <fix>3d</fix>
</trkpt>
<trkpt lat="40.0708962" lon="-105.2293796">
  <ele>1582.99</ele>
  <time>2026-09-02T20:50:52Z</time>
  <course>59.19</course>
  <speed>0.7889233169326408</speed>
  <fix>3d</fix>
</trkpt>
<trkpt lat="40.0708958" lon="-105.2293804">
  <ele>1582.99</ele>
  <time>2026-09-02T20:50:52Z</time>
  <course>59.07</course>
  <speed>0.79</speed>
  <fix>3d</fix>
</trkpt>
<trkpt lat="40.0708966" lon="-105.2293787">
  <ele>1582.99</ele>
  <time>2026-09-02T20:50:52Z</time>
  <course>59.19</course>
  <speed>0.7940403012442127</speed>
  <fix>3d</fix>
</trkpt>
<trkpt lat="40.0708958" lon="-105.2293804">
  <ele>1582.99</ele>
  <time>2026-09-02T20:50:52Z</time>
  <course>59.07</course>
  <speed>0.79</speed>
  <fix>3d</fix>
</trkpt>
<trkpt lat="40.0708969" lon="-105.229378">
  <ele>1582.99</ele>
  <time>2026-09-02T20:50:52Z</time>
  <course>59.19</course>
  <speed>0.7889233169326408</speed>
  <fix>3d</fix>
</trkpt>
<trkpt lat="40.0708965" lon="-105.2293788">
  <ele>1582.99</ele>
  <time>2026-09-02T20:50:52Z</time>
  <course>59.08</course>
  <speed>0.79</speed>
  <fix>3d</fix>
</trkpt>
<trkpt lat="40.0708973" lon="-105.2293772">
  <ele>1582.99</ele>
  <time>2026-09-02T20:50:52Z</time>
  <course>59.19</course>
  <speed>0.7940403012442127</speed>
  <fix>3d</fix>
</trkpt>
<trkpt lat="40.0708965" lon="-105.2293788">
  <ele>1582.99</ele>
  <time>2026-09-02T20:50:52Z</time>
  <course>59.08</course>
  <speed>0.79</speed>
  <fix>3d</fix>
</trkpt>
<trkpt lat="40.0708976" lon="-105.2293763">
  <ele>1582.99</ele>
  <time>2026-09-02T20:50:52Z</time>
  <course>59.2</course>
  <speed>0.7889233169326408</speed>
  <fix>3d</fix>
</trkpt>
<trkpt lat="40.0708973" lon="-105.2293771">
  <ele>1582.99</ele>
  <time>2026-09-02T20:50:52Z</time>
  <course>59.08</course>
  <speed>0.79</speed>
  <fix>3d</fix>
</trkpt>
<trkpt lat="40.0708981" lon="-105.2293756">
  <ele>1582.99</ele>
  <time>2026-09-02T20:50:52Z</time>
  <course>59.2</course>
  <speed>0.7940403012442127</speed>
  <fix>3d</fix>
</trkpt>
<trkpt lat="40.0708973" lon="-105.2293771">
  <ele>1582.99</ele>
  <time>2026-09-02T20:50:52Z</time>
  <course>59.08</course>
  <speed>0.79</speed>
  <fix>3d</fix>
</trkpt>
<trkpt lat="40.0708984" lon="-105.2293748">
  <ele>1582.99</ele>
  <time>2026-09-02T20:50:52Z</time>
  <course>59.2</course>
  <speed>0.7889233169326408</speed>
  <fix>3d</fix>
</trkpt>
<trkpt lat="40.070898" lon="-105.2293756">
  <ele>1582.99</ele>
  <time>2026-09-02T20:50:52Z</time>
  <course>59.08</course>
  <speed>0.79</speed>
  <fix>3d</fix>
</trkpt>
<trkpt lat="40.0708987" lon="-105.2293739">
  <ele>1582.99</ele>
  <time>2026-09-02T20:50:52Z</time>
  <course>59.2</course>
  <speed>0.7940403012442127</speed>
  <fix>3d</fix>
</trkpt>
<trkpt lat="40.070898" lon="-105.2293756">
  <ele>1582.99</ele>
  <time>2026-09-02T20:50:52Z</time>
  <course>59.08</course>
  <speed>0.79</speed>
  <fix>3d</fix>
</trkpt>
<trkpt lat="40.0708992" lon="-105.229373">
  <ele>1582.99</ele>
  <time>2026-09-02T20:50:52Z</time>
  <course>59.2</course>
  <speed>0.7889233169326408</speed>
  <fix>3d</fix>
</trkpt>
<trkpt lat="40.0708987" lon="-105.2293739">
  <ele>1582.99</ele>
  <time>2026-09-02T20:50:52Z</time>
  <course>59.08</course>
  <speed>0.79</speed>
  <fix>3d</fix>
</trkpt>
<trkpt lat="40.0708994" lon="-105.2293723">
  <ele>1582.99</ele>
  <time>2026-09-02T20:50:52Z</time>
  <course>59.2</course>
  <speed>0.7940403012442127</speed>
  <fix>3d</fix>
</trkpt>
<trkpt lat="40.0708987" lon="-105.2293739">
  <ele>1582.99</ele>
  <time>2026-09-02T20:50:52Z</time>
  <course>59.08</course>
  <speed>0.79</speed>
  <fix>3d</fix>
</trkpt>
<trkpt lat="40.0709" lon="-105.2293713">
  <ele>1582.99</ele>
  <time>2026-09-02T20:50:52Z</time>
  <course>59.2</course>
  <speed>0.7889233169326408</speed>
  <fix>3d</fix>
</trkpt>
<trkpt lat="40.0708995" lon="-105.2293723">
  <ele>1582.99</ele>
  <time>2026-09-02T20:50:52Z</time>
  <course>59.09</course>
  <speed>0.79</speed>
  <fix>3d</fix>
</trkpt>
<trkpt lat="40.0709003" lon="-105.2293706">
  <ele>1582.99</ele>
  <time>2026-09-02T20:50:52Z</time>
  <course>59.21</course>
  <speed>0.7940403012442127</speed>
  <fix>3d</fix>
</trkpt>
<trkpt lat="40.0708995" lon="-105.2293723">
  <ele>1582.99</ele>
  <time>2026-09-02T20:50:52Z</time>
  <course>59.09</course>
  <speed>0.79</speed>
  <fix>3d</fix>
</trkpt>
<trkpt lat="40.0709006" lon="-105.2293698">
  <ele>1582.99</ele>
  <time>2026-09-02T20:50:52Z</time>
  <course>59.25</course>
  <speed>0.7940403012442127</speed>
  <fix>3d</fix>
</trkpt>
<trkpt lat="40.0709002" lon="-105.2293707">
  <ele>1582.99</ele>
  <time>2026-09-02T20:50:52Z</time>
  <course>59.1</course>
  <speed>0.79</speed>
  <fix>3d</fix>
</trkpt>
<trkpt lat="40.0709011" lon="-105.2293689">
  <ele>1582.99</ele>
  <time>2026-09-02T20:50:52Z</time>
  <course>59.32</course>
  <speed>0.7889233169326408</speed>
  <fix>3d</fix>
</trkpt>
<trkpt lat="40.0709002" lon="-105.2293707">
  <ele>1582.99</ele>
  <time>2026-09-02T20:50:52Z</time>
  <course>59.1</course>
  <speed>0.79</speed>
  <fix>3d</fix>
</trkpt>
<trkpt lat="40.0709013" lon="-105.2293681">
  <ele>1582.99</ele>
  <time>2026-09-02T20:50:52Z</time>
  <course>59.43</course>
  <speed>0.7889233169326408</speed>
  <fix>3d</fix>
</trkpt>
<trkpt lat="40.070901" lon="-105.229369">
  <ele>1582.99</ele>
  <time>2026-09-02T20:50:52Z</time>
  <course>59.21</course>
  <speed>0.79</speed>
  <fix>3d</fix>
</trkpt>
<trkpt lat="40.0709018" lon="-105.2293672">
  <ele>1582.99</ele>
  <time>2026-09-02T20:50:52Z</time>
  <course>59.57</course>
  <speed>0.7889233169326408</speed>
  <fix>3d</fix>
</trkpt>
<trkpt lat="40.070901" lon="-105.229369">
  <ele>1582.99</ele>
  <time>2026-09-02T20:50:52Z</time>
  <course>59.21</course>
  <speed>0.79</speed>
  <fix>3d</fix>
</trkpt>
<trkpt lat="40.0709022" lon="-105.2293665">
  <ele>1582.99</ele>
  <time>2026-09-02T20:50:52Z</time>
  <course>59.74</course>
  <speed>0.7889233169326408</speed>
  <fix>3d</fix>
</trkpt>
<trkpt lat="40.0709017" lon="-105.2293675">
  <ele>1582.99</ele>
  <time>2026-09-02T20:50:52Z</time>
  <course>59.44</course>
  <speed>0.79</speed>
  <fix>3d</fix>
</trkpt>
<trkpt lat="40.0709024" lon="-105.2293656">
  <ele>1582.99</ele>
  <time>2026-09-02T20:50:52Z</time>
  <course>59.96</course>
  <speed>0.7975587752636166</speed>
  <fix>3d</fix>
</trkpt>
<trkpt lat="40.0709017" lon="-105.2293675">
  <ele>1582.99</ele>
  <time>2026-09-02T20:50:52Z</time>
  <course>59.44</course>
  <speed>0.79</speed>
  <fix>3d</fix>
</trkpt>
<trkpt lat="40.0709029" lon="-105.2293648">
  <ele>1582.99</ele>
  <time>2026-09-02T20:50:52Z</time>
  <course>60.22</course>
  <speed>0.7925906888173744</speed>
  <fix>3d</fix>
</trkpt>
<trkpt lat="40.0709024" lon="-105.2293659">
  <ele>1582.99</ele>
  <time>2026-09-02T20:50:52Z</time>
  <course>59.82</course>
  <speed>0.79</speed>
  <fix>3d</fix>
</trkpt>
<trkpt lat="40.0709033" lon="-105.2293641">
  <ele>1582.99</ele>
  <time>2026-09-02T20:50:52Z</time>
  <course>60.52</course>
  <speed>0.7925906888173744</speed>
  <fix>3d</fix>
</trkpt>
<trkpt lat="40.0709024" lon="-105.2293659">
  <ele>1582.99</ele>
  <time>2026-09-02T20:50:52Z</time>
  <course>59.82</course>
  <speed>0.79</speed>
  <fix>3d</fix>
</trkpt>
<trkpt lat="40.0709036" lon="-105.2293632">
  <ele>1582.99</ele>
  <time>2026-09-02T20:50:52Z</time>
  <course>60.85</course>
  <speed>0.7430343195303969</speed>
  <fix>3d</fix>
</trkpt>
<trkpt lat="40.0709031" lon="-105.2293642">
  <ele>1582.99</ele>
  <time>2026-09-02T20:50:52Z</time>
  <course>60.35</course>
  <speed>0.78</speed>
  <fix>3d</fix>
</trkpt>
<trkpt lat="40.0709039" lon="-105.2293626">
  <ele>1582.99</ele>
  <time>2026-09-02T20:50:52Z</time>
  <course>61.11</course>
  <speed>0.8324061508662703</speed>
  <fix>3d</fix>
</trkpt>
<trkpt lat="40.0709031" lon="-105.2293642">
  <ele>1582.99</ele>
  <time>2026-09-02T20:50:52Z</time>
  <course>60.35</course>
  <speed>0.78</speed>
  <fix>3d</fix>
</trkpt>
<trkpt lat="40.0709042" lon="-105.2293617">
  <ele>1582.99</ele>
  <time>2026-09-02T20:50:52Z</time>
  <course>61.41</course>
  <speed>0.8188406438373709</speed>
  <fix>3d</fix>
</trkpt>
<trkpt lat="40.0709039" lon="-105.2293625">
  <ele>1582.99</ele>
  <time>2026-09-02T20:50:52Z</time>
  <course>60.99</course>
  <speed>0.79</speed>
  <fix>3d</fix>
</trkpt>
<trkpt lat="40.0709046" lon="-105.2293608">
  <ele>1582.99</ele>
  <time>2026-09-02T20:50:52Z</time>
  <course>61.7</course>
  <speed>0.8635392289873113</speed>
  <fix>3d</fix>
</trkpt>
<trkpt lat="40.0709039" lon="-105.2293625">
  <ele>1582.99</ele>
  <time>2026-09-02T20:50:52Z</time>
  <course>60.99</course>
  <speed>0.79</speed>
  <fix>3d</fix>
</trkpt>
<trkpt lat="40.0709049" lon="-105.22936">
  <ele>1582.99</ele>
  <time>2026-09-02T20:50:52Z</time>
  <course>61.97</course>
  <speed>0.8364807230295268</speed>
  <fix>3d</fix>
</trkpt>
<trkpt lat="40.0709046" lon="-105.2293608">
  <ele>1582.99</ele>
  <time>2026-09-02T20:50:52Z</time>
  <course>61.58</course>
  <speed>0.83</speed>
  <fix>3d</fix>
</trkpt>
<trkpt lat="40.0709053" lon="-105.2293591">
  <ele>1582.99</ele>
  <time>2026-09-02T20:50:52Z</time>
  <course>62.21</course>
  <speed>0.8723531395025755</speed>
  <fix>3d</fix>
</trkpt>
<trkpt lat="40.0709046" lon="-105.2293608">
  <ele>1582.99</ele>
  <time>2026-09-02T20:50:52Z</time>
  <course>61.58</course>
  <speed>0.83</speed>
  <fix>3d</fix>
</trkpt>
<trkpt lat="40.0709057" lon="-105.2293581">
  <ele>1582.99</ele>
  <time>2026-09-02T20:50:52Z</time>
  <course>62.42</course>
  <speed>0.8364807230295268</speed>
  <fix>3d</fix>
</trkpt>
<trkpt lat="40.0709053" lon="-105.2293591">
  <ele>1582.99</ele>
  <time>2026-09-02T20:50:52Z</time>
  <course>62.08</course>
  <speed>0.83</speed>
  <fix>3d</fix>
</trkpt>
<trkpt lat="40.070906" lon="-105.2293572">
  <ele>1582.99</ele>
  <time>2026-09-02T20:50:52Z</time>
  <course>62.61</course>
  <speed>0.8676981041814025</speed>
  <fix>3d</fix>
</trkpt>
<trkpt lat="40.0709053" lon="-105.2293591">
  <ele>1582.99</ele>
  <time>2026-09-02T20:50:52Z</time>
  <course>62.08</course>
  <speed>0.83</speed>
  <fix>3d</fix>
</trkpt>
<trkpt lat="40.0709064" lon="-105.2293564">
  <ele>1582.99</ele>
  <time>2026-09-02T20:50:52Z</time>
  <course>62.76</course>
  <speed>0.8229823813423954</speed>
  <fix>3d</fix>
</trkpt>
<trkpt lat="40.070906" lon="-105.2293573">
  <ele>1582.99</ele>
  <time>2026-09-02T20:50:52Z</time>
  <course>62.47</course>
  <speed>0.83</speed>
  <fix>3d</fix>
</trkpt>
<trkpt lat="40.0709067" lon="-105.2293555">
  <ele>1582.99</ele>
  <time>2026-09-02T20:50:52Z</time>
  <course>62.89</course>
  <speed>0.8407734534343958</speed>
  <fix>3d</fix>
</trkpt>
<trkpt lat="40.070906" lon="-105.2293573">
  <ele>1582.99</ele>
  <time>2026-09-02T20:50:52Z</time>
  <course>62.47</course>
  <speed>0.83</speed>
  <fix>3d</fix>
</trkpt>
<trkpt lat="40.0709071" lon="-105.2293547">
  <ele>1582.99</ele>
  <time>2026-09-02T20:50:52Z</time>
  <course>63.01</course>
  <speed>0.8095060222135473</speed>
  <fix>3d</fix>
</trkpt>
<trkpt lat="40.0709067" lon="-105.2293555">
  <ele>1582.99</ele>
  <time>2026-09-02T20:50:52Z</time>
  <course>62.76</course>
  <speed>0.82</speed>
  <fix>3d</fix>
</trkpt>
<trkpt lat="40.0709074" lon="-105.2293536">
  <ele>1582.99</ele>
  <time>2026-09-02T20:50:52Z</time>
  <course>63.15</course>
  <speed>0.8407734534343958</speed>
  <fix>3d</fix>
</trkpt>
<trkpt lat="40.0709067" lon="-105.2293555">
  <ele>1582.99</ele>
  <time>2026-09-02T20:50:52Z</time>
  <course>62.76</course>
  <speed>0.82</speed>
  <fix>3d</fix>
</trkpt>
<trkpt lat="40.0709078" lon="-105.2293528">
  <ele>1582.99</ele>
  <time>2026-09-02T20:50:52Z</time>
  <course>63.27</course>
  <speed>0.7960527620704547</speed>
  <fix>3d</fix>
</trkpt>
<trkpt lat="40.0709074" lon="-105.2293538">
  <ele>1582.99</ele>
  <time>2026-09-02T20:50:52Z</time>
  <course>63.0</course>
  <speed>0.81</speed>
  <fix>3d</fix>
</trkpt>
<trkpt lat="40.0709082" lon="-105.2293519">
  <ele>1582.99</ele>
  <time>2026-09-02T20:50:52Z</time>
  <course>63.39</course>
  <speed>0.8497058314499201</speed>
  <fix>3d</fix>
</trkpt>
<trkpt lat="40.0709074" lon="-105.2293538">
  <ele>1582.99</ele>
  <time>2026-09-02T20:50:52Z</time>
  <course>63.0</course>
  <speed>0.81</speed>
  <fix>3d</fix>
</trkpt>
<trkpt lat="40.0709085" lon="-105.229351">
  <ele>1582.99</ele>
  <time>2026-09-02T20:50:52Z</time>
  <course>63.5</course>
  <speed>0.836301381082203</speed>
  <fix>3d</fix>
</trkpt>
<trkpt lat="40.0709081" lon="-105.2293521">
  <ele>1582.99</ele>
  <time>2026-09-02T20:50:52Z</time>
  <course>63.24</course>
  <speed>0.83</speed>
  <fix>3d</fix>
</trkpt>
<trkpt lat="40.0709089" lon="-105.22935">
  <ele>1582.99</ele>
  <time>2026-09-02T20:50:52Z</time>
  <course>63.61</course>
  <speed>0.9167878707749137</speed>
  <fix>3d</fix>
</trkpt>
<trkpt lat="40.0709081" lon="-105.2293521">
  <ele>1582.99</ele>
  <time>2026-09-02T20:50:52Z</time>
  <course>63.24</course>
  <speed>0.83</speed>
  <fix>3d</fix>
</trkpt>
<trkpt lat="40.0709092" lon="-105.229349">
  <ele>1582.99</ele>
  <time>2026-09-02T20:50:52Z</time>
  <course>63.72</course>
  <speed>0.9481033698917013</speed>
  <fix>3d</fix>
</trkpt>
<trkpt lat="40.0709088" lon="-105.2293502">
  <ele>1582.99</ele>
  <time>2026-09-02T20:50:52Z</time>
  <course>63.48</course>
  <speed>0.9</speed>
  <fix>3d</fix>
</trkpt>
<trkpt lat="40.0709097" lon="-105.229348">
  <ele>1582.99</ele>
  <time>2026-09-02T20:50:52Z</time>
  <course>63.81</course>
  <speed>1.0599056561788884</speed>
  <fix>3d</fix>
</trkpt>
<trkpt lat="40.0709088" lon="-105.2293502">
  <ele>1582.99</ele>
  <time>2026-09-02T20:50:52Z</time>
  <course>63.48</course>
  <speed>0.9</speed>
  <fix>3d</fix>
</trkpt>
<trkpt lat="40.0709101" lon="-105.2293469">
  <ele>1582.99</ele>
  <time>2026-09-02T20:50:52Z</time>
  <course>63.89</course>
  <speed>1.113597772986279</speed>
  <fix>3d</fix>
</trkpt>
<trkpt lat="40.0709095" lon="-105.2293482">
  <ele>1582.99</ele>
  <time>2026-09-02T20:50:52Z</time>
  <course>63.69</course>
  <speed>1.03</speed>
  <fix>3d</fix>
</trkpt>
<trkpt lat="40.0709106" lon="-105.2293456">
  <ele>1582.99</ele>
  <time>2026-09-02T20:50:52Z</time>
  <course>63.96</course>
  <speed>1.2253978945632311</speed>
  <fix>3d</fix>
</trkpt>
<trkpt lat="40.0709095" lon="-105.2293482">
  <ele>1582.99</ele>
  <time>2026-09-02T20:50:52Z</time>
  <course>63.69</course>
  <speed>1.03</speed>
  <fix>3d</fix>
</trkpt>
<trkpt lat="40.070911" lon="-105.2293442">
  <ele>1582.99</ele>
  <time>2026-09-02T20:50:52Z</time>
  <course>64.03</course>
  <speed>1.2701181047445942</speed>
  <fix>3d</fix>
</trkpt>
<trkpt lat="40.0709104" lon="-105.2293458">
  <ele>1582.99</ele>
  <time>2026-09-02T20:50:52Z</time>
  <course>63.86</course>
  <speed>1.19</speed>
  <fix>3d</fix>
</trkpt>
<trkpt lat="40.0709115" lon="-105.2293428">
  <ele>1582.99</ele>
  <time>2026-09-02T20:50:52Z</time>
  <course>64.09</course>
  <speed>1.3551752654177245</speed>
  <fix>3d</fix>
</trkpt>
<trkpt lat="40.0709104" lon="-105.2293458">
  <ele>1582.99</ele>
  <time>2026-09-02T20:50:52Z</time>
  <course>63.86</course>
  <speed>1.19</speed>
  <fix>3d</fix>
</trkpt>
<trkpt lat="40.070912" lon="-105.2293416">
  <ele>1582.99</ele>
  <time>2026-09-02T20:50:52Z</time>
  <course>64.13</course>
  <speed>1.3461797799699713</speed>
  <fix>3d</fix>
</trkpt>
<trkpt lat="40.0709114" lon="-105.2293431">
  <ele>1582.99</ele>
  <time>2026-09-02T20:50:52Z</time>
  <course>64.0</course>
  <speed>1.31</speed>
  <fix>3d</fix>
</trkpt>
<trkpt lat="40.0709126" lon="-105.2293402">
  <ele>1582.99</ele>
  <time>2026-09-02T20:50:52Z</time>
  <course>64.18</course>
  <speed>1.377534028617805</speed>
  <fix>3d</fix>
</trkpt>
<trkpt lat="40.0709114" lon="-105.2293431">
  <ele>1582.99</ele>
  <time>2026-09-02T20:50:52Z</time>
  <course>64.0</course>
  <speed>1.31</speed>
  <fix>3d</fix>
</trkpt>
<trkpt lat="40.0709131" lon="-105.2293387">
  <ele>1583.0</ele>
  <time>2026-09-02T20:50:52Z</time>
  <course>64.23</course>
  <speed>1.3328165665236908</speed>
  <fix>3d</fix>
</trkpt>
<trkpt lat="40.0709125" lon="-105.2293402">
  <ele>1582.99</ele>
  <time>2026-09-02T20:50:52Z</time>
  <course>64.1</course>
  <speed>1.34</speed>
  <fix>3d</fix>
</trkpt>
<trkpt lat="40.0709136" lon="-105.2293373">
  <ele>1583.0</ele>
  <time>2026-09-02T20:50:52Z</time>
  <course>64.27</course>
  <speed>1.3418271125595878</speed>
  <fix>3d</fix>
</trkpt>
<trkpt lat="40.0709125" lon="-105.2293402">
  <ele>1582.99</ele>
  <time>2026-09-02T20:50:52Z</time>
  <course>64.1</course>
  <speed>1.34</speed>
  <fix>3d</fix>
</trkpt>
<trkpt lat="40.070914" lon="-105.2293359">
  <ele>1582.99</ele>
  <time>2026-09-02T20:50:52Z</time>
  <course>64.31</course>
  <speed>1.2880993750483694</speed>
  <fix>3d</fix>
</trkpt>
<trkpt lat="40.0709136" lon="-105.2293373">
  <ele>1582.99</ele>
  <time>2026-09-02T20:50:52Z</time>
  <course>64.19</course>
  <speed>1.31</speed>
  <fix>3d</fix>
</trkpt>
<trkpt lat="40.0709145" lon="-105.2293347">
  <ele>1582.99</ele>
  <time>2026-09-02T20:50:52Z</time>
  <course>64.34</course>
  <speed>1.2747548783981961</speed>
  <fix>3d</fix>
</trkpt>
<trkpt lat="40.0709136" lon="-105.2293373">
  <ele>1582.99</ele>
  <time>2026-09-02T20:50:52Z</time>
  <course>64.19</course>
  <speed>1.31</speed>
  <fix>3d</fix>
</trkpt>
<trkpt lat="40.0709151" lon="-105.2293334">
  <ele>1582.99</ele>
  <time>2026-09-02T20:50:52Z</time>
  <course>64.37</course>
  <speed>1.2300406497347964</speed>
  <fix>3d</fix>
</trkpt>
<trkpt lat="40.0709145" lon="-105.2293347">
  <ele>1582.99</ele>
  <time>2026-09-02T20:50:52Z</time>
  <course>64.26</course>
  <speed>1.26</speed>
  <fix>3d</fix>
</trkpt>
<trkpt lat="40.0709156" lon="-105.229332">
  <ele>1582.99</ele>
  <time>2026-09-02T20:50:52Z</time>
  <course>64.4</course>
  <speed>1.2167168939404105</speed>
  <fix>3d</fix>
</trkpt>
<trkpt lat="40.0709145" lon="-105.2293347">
  <ele>1582.99</ele>
  <time>2026-09-02T20:50:52Z</time>
  <course>64.26</course>
  <speed>1.26</speed>
  <fix>3d</fix>
</trkpt>
<trkpt lat="40.0709161" lon="-105.2293308">
  <ele>1582.99</ele>
  <time>2026-09-02T20:50:52Z</time>
  <course>64.42</course>
  <speed>1.1763077828527702</speed>
  <fix>3d</fix>
</trkpt>
<trkpt lat="40.0709156" lon="-105.229332">
  <ele>1582.99</ele>
  <time>2026-09-02T20:50:52Z</time>
  <course>64.31</course>
  <speed>1.2</speed>
  <fix>3d</fix>
</trkpt>
<trkpt lat="40.0709165" lon="-105.2293292">
  <ele>1582.99</ele>
  <time>2026-09-02T20:50:52Z</time>
  <course>64.45</course>
  <speed>1.1629703349613008</speed>
  <fix>3d</fix>
</trkpt>
<trkpt lat="40.0709156" lon="-105.229332">
  <ele>1582.99</ele>
  <time>2026-09-02T20:50:52Z</time>
  <course>64.31</course>
  <speed>1.2</speed>
  <fix>3d</fix>
</trkpt>
<trkpt lat="40.070917" lon="-105.229328">
  <ele>1582.99</ele>
  <time>2026-09-02T20:50:52Z</time>
  <course>64.47</course>
  <speed>1.1406138698087096</speed>
  <fix>3d</fix>
</trkpt>
<trkpt lat="40.0709165" lon="-105.2293295">
  <ele>1582.99</ele>
  <time>2026-09-02T20:50:52Z</time>
  <course>64.35</course>
  <speed>1.16</speed>
  <fix>3d</fix>
</trkpt>
<trkpt lat="40.0709175" lon="-105.2293268">
  <ele>1582.99</ele>
  <time>2026-09-02T20:50:52Z</time>
  <course>64.48</course>
  <speed>1.1406138698087096</speed>
  <fix>3d</fix>
</trkpt>
<trkpt lat="40.0709165" lon="-105.2293295">
  <ele>1582.99</ele>
  <time>2026-09-02T20:50:52Z</time>
  <course>64.35</course>
  <speed>1.16</speed>
  <fix>3d</fix>
</trkpt>
<trkpt lat="40.0709179" lon="-105.2293256">
  <ele>1582.99</ele>
  <time>2026-09-02T20:50:52Z</time>
  <course>64.5</course>
  <speed>1.127297653683356</speed>
  <fix>3d</fix>
</trkpt>
<trkpt lat="40.0709174" lon="-105.229327">
  <ele>1582.99</ele>
  <time>2026-09-02T20:50:52Z</time>
  <course>64.39</course>
  <speed>1.14</speed>
  <fix>3d</fix>
</trkpt>
<trkpt lat="40.0709183" lon="-105.2293244">
  <ele>1583.0</ele>
  <time>2026-09-02T20:50:52Z</time>
  <course>64.51</course>
  <speed>1.1406138698087096</speed>
  <fix>3d</fix>
</trkpt>
<trkpt lat="40.0709174" lon="-105.229327">
  <ele>1582.99</ele>
  <time>2026-09-02T20:50:52Z</time>
  <course>64.39</course>
  <speed>1.14</speed>
  <fix>3d</fix>
</trkpt>
<trkpt lat="40.0709188" lon="-105.2293232">
  <ele>1583.0</ele>
  <time>2026-09-02T20:50:52Z</time>
  <course>64.52</course>
  <speed>1.131591799192624</speed>
  <fix>3d</fix>
</trkpt>
<trkpt lat="40.0709183" lon="-105.2293246">
  <ele>1582.99</ele>
  <time>2026-09-02T20:50:52Z</time>
  <course>64.41</course>
  <speed>1.13</speed>
  <fix>3d</fix>
</trkpt>
<trkpt lat="40.0709193" lon="-105.229322">
  <ele>1582.99</ele>
  <time>2026-09-02T20:50:52Z</time>
  <course>64.52</course>
  <speed>1.1496521212958293</speed>
  <fix>3d</fix>
</trkpt>
<trkpt lat="40.0709183" lon="-105.2293246">
  <ele>1582.99</ele>
  <time>2026-09-02T20:50:52Z</time>
  <course>64.41</course>
  <speed>1.13</speed>
  <fix>3d</fix>
</trkpt>
<trkpt lat="40.0709197" lon="-105.2293208">
  <ele>1582.99</ele>
  <time>2026-09-02T20:50:52Z</time>
  <course>64.53</course>
  <speed>1.1406138698087096</speed>
  <fix>3d</fix>
</trkpt>
<trkpt lat="40.0709191" lon="-105.2293222">
  <ele>1582.99</ele>
  <time>2026-09-02T20:50:52Z</time>
  <course>64.43</course>
  <speed>1.14</speed>
  <fix>3d</fix>
</trkpt>
<trkpt lat="40.0709201" lon="-105.2293196">
  <ele>1582.99</ele>
  <time>2026-09-02T20:50:52Z</time>
  <course>64.53</course>
  <speed>1.1629703349613008</speed>
  <fix>3d</fix>
</trkpt>
<trkpt lat="40.0709191" lon="-105.2293222">
  <ele>1582.99</ele>
  <time>2026-09-02T20:50:52Z</time>
  <course>64.43</course>
  <speed>1.14</speed>
  <fix>3d</fix>
</trkpt>
<trkpt lat="40.0709206" lon="-105.2293182">
  <ele>1582.99</ele>
  <time>2026-09-02T20:50:52Z</time>
  <course>64.53</course>
  <speed>1.1629703349613008</speed>
  <fix>3d</fix>
</trkpt>
<trkpt lat="40.07092" lon="-105.2293198">
  <ele>1582.99</ele>
  <time>2026-09-02T20:50:52Z</time>
  <course>64.44</course>
  <speed>1.15</speed>
  <fix>3d</fix>
</trkpt>
<trkpt lat="40.0709211" lon="-105.229317">
  <ele>1582.99</ele>
  <time>2026-09-02T20:50:52Z</time>
  <course>64.53</course>
  <speed>1.1720068259186889</speed>
  <fix>3d</fix>
</trkpt>
<trkpt lat="40.07092" lon="-105.2293198">
  <ele>1582.99</ele>
  <time>2026-09-02T20:50:52Z</time>
  <course>64.44</course>
  <speed>1.15</speed>
  <fix>3d</fix>
</trkpt>
<trkpt lat="40.0709215" lon="-105.2293158">
  <ele>1582.99</ele>
  <time>2026-09-02T20:50:52Z</time>
  <course>64.53</course>
  <speed>1.1720068259186889</speed>
  <fix>3d</fix>
</trkpt>
<trkpt lat="40.0709209" lon="-105.2293173">
  <ele>1582.99</ele>
  <time>2026-09-02T20:50:52Z</time>
  <course>64.44</course>
  <speed>1.17</speed>
  <fix>3d</fix>
</trkpt>
<trkpt lat="40.0709218" lon="-105.2293148">
  <ele>1582.99</ele>
  <time>2026-09-02T20:50:52Z</time>
  <course>64.52</course>
  <speed>1.1853269591129698</speed>
  <fix>3d</fix>
</trkpt>
<trkpt lat="40.0709209" lon="-105.2293173">
  <ele>1582.99</ele>
  <time>2026-09-02T20:50:52Z</time>
  <course>64.44</course>
  <speed>1.17</speed>
  <fix>3d</fix>
</trkpt>
<trkpt lat="40.0709224" lon="-105.2293136">
  <ele>1582.99</ele>
  <time>2026-09-02T20:50:52Z</time>
  <course>64.52</course>
  <speed>1.1853269591129698</speed>
  <fix>3d</fix>
</trkpt>
<trkpt lat="40.0709219" lon="-105.2293148">
  <ele>1582.99</ele>
  <time>2026-09-02T20:50:52Z</time>
  <course>64.43</course>
  <speed>1.18</speed>
  <fix>3d</fix>
</trkpt>
<trkpt lat="40.0709228" lon="-105.2293122">
  <ele>1582.99</ele>
  <time>2026-09-02T20:50:52Z</time>
  <course>64.51</course>
  <speed>1.1943617542436629</speed>
  <fix>3d</fix>
</trkpt>
<trkpt lat="40.0709219" lon="-105.2293148">
  <ele>1582.99</ele>
  <time>2026-09-02T20:50:52Z</time>
  <course>64.43</course>
  <speed>1.18</speed>
  <fix>3d</fix>
</trkpt>
<trkpt lat="40.0709232" lon="-105.229311">
  <ele>1582.99</ele>
  <time>2026-09-02T20:50:52Z</time>
  <course>64.5</course>
  <speed>1.1853269591129698</speed>
  <fix>3d</fix>
</trkpt>
<trkpt lat="40.0709228" lon="-105.2293123">
  <ele>1582.99</ele>
  <time>2026-09-02T20:50:52Z</time>
  <course>64.42</course>
  <speed>1.18</speed>
  <fix>3d</fix>
</trkpt>
<trkpt lat="40.0709237" lon="-105.2293098">
  <ele>1582.99</ele>
  <time>2026-09-02T20:50:52Z</time>
  <course>64.5</course>
  <speed>1.1943617542436629</speed>
  <fix>3d</fix>
</trkpt>
<trkpt lat="40.0709228" lon="-105.2293123">
  <ele>1582.99</ele>
  <time>2026-09-02T20:50:52Z</time>
  <course>64.42</course>
  <speed>1.18</speed>
  <fix>3d</fix>
</trkpt>
<trkpt lat="40.0709242" lon="-105.2293085">
  <ele>1582.99</ele>
  <time>2026-09-02T20:50:52Z</time>
  <course>64.49</course>
  <speed>1.1853269591129698</speed>
  <fix>3d</fix>
</trkpt>
<trkpt lat="40.0709237" lon="-105.2293098">
  <ele>1582.99</ele>
  <time>2026-09-02T20:50:52Z</time>
  <course>64.41</course>
  <speed>1.19</speed>
  <fix>3d</fix>
</trkpt>
<trkpt lat="40.0709247" lon="-105.2293073">
  <ele>1582.99</ele>
  <time>2026-09-02T20:50:52Z</time>
  <course>64.48</course>
  <speed>1.1943617542436629</speed>
  <fix>3d</fix>
</trkpt>
<trkpt lat="40.0709237" lon="-105.2293098">
  <ele>1582.99</ele>
  <time>2026-09-02T20:50:52Z</time>
  <course>64.41</course>
  <speed>1.19</speed>
  <fix>3d</fix>
</trkpt>
<trkpt lat="40.070925" lon="-105.2293059">
  <ele>1582.99</ele>
  <time>2026-09-02T20:50:52Z</time>
  <course>64.47</course>
  <speed>1.1853269591129698</speed>
  <fix>3d</fix>
</trkpt>
<trkpt lat="40.0709246" lon="-105.2293072">
  <ele>1582.99</ele>
  <time>2026-09-02T20:50:52Z</time>
  <course>64.39</course>
  <speed>1.19</speed>
  <fix>3d</fix>
</trkpt>
<trkpt lat="40.0709255" lon="-105.2293047">
  <ele>1582.99</ele>
  <time>2026-09-02T20:50:52Z</time>
  <course>64.46</course>
  <speed>1.1943617542436629</speed>
  <fix>3d</fix>
</trkpt>
<trkpt lat="40.0709246" lon="-105.2293072">
  <ele>1582.99</ele>
  <time>2026-09-02T20:50:52Z</time>
  <course>64.39</course>
  <speed>1.19</speed>
  <fix>3d</fix>
</trkpt>
<trkpt lat="40.0709261" lon="-105.2293031">
  <ele>1582.99</ele>
  <time>2026-09-02T20:50:52Z</time>
  <course>64.44</course>
  <speed>1.1853269591129698</speed>
  <fix>3d</fix>
</trkpt>
<trkpt lat="40.0709255" lon="-105.2293047">
  <ele>1582.99</ele>
  <time>2026-09-02T20:50:52Z</time>
  <course>64.37</course>
  <speed>1.19</speed>
  <fix>3d</fix>
</trkpt>
<trkpt lat="40.0709266" lon="-105.2293019">
  <ele>1582.99</ele>
  <time>2026-09-02T20:50:52Z</time>
  <course>64.43</course>
  <speed>1.1943617542436629</speed>
  <fix>3d</fix>
</trkpt>
<trkpt lat="40.0709255" lon="-105.2293047">
  <ele>1582.99</ele>
  <time>2026-09-02T20:50:52Z</time>
  <course>64.37</course>
  <speed>1.19</speed>
  <fix>3d</fix>
</trkpt>
<trkpt lat="40.0709271" lon="-105.2293007">
  <ele>1582.99</ele>
  <time>2026-09-02T20:50:52Z</time>
  <course>64.42</course>
  <speed>1.1853269591129698</speed>
  <fix>3d</fix>
</trkpt>
<trkpt lat="40.0709265" lon="-105.2293022">
  <ele>1582.99</ele>
  <time>2026-09-02T20:50:52Z</time>
  <course>64.34</course>
  <speed>1.18</speed>
  <fix>3d</fix>
</trkpt>
<trkpt lat="40.0709276" lon="-105.2292994">
  <ele>1582.99</ele>
  <time>2026-09-02T20:50:52Z</time>
  <course>64.4</course>
  <speed>1.1853269591129698</speed>
  <fix>3d</fix>
</trkpt>
<trkpt lat="40.0709265" lon="-105.2293022">
  <ele>1582.99</ele>
  <time>2026-09-02T20:50:52Z</time>
  <course>64.34</course>
  <speed>1.18</speed>
  <fix>3d</fix>
</trkpt>
<trkpt lat="40.0709279" lon="-105.2292982">
  <ele>1582.99</ele>
  <time>2026-09-02T20:50:52Z</time>
  <course>64.39</course>
  <speed>1.1853269591129698</speed>
  <fix>3d</fix>
</trkpt>
<trkpt lat="40.0709274" lon="-105.2292996">
  <ele>1582.99</ele>
  <time>2026-09-02T20:50:52Z</time>
  <course>64.32</course>
  <speed>1.18</speed>
  <fix>3d</fix>
</trkpt>
<trkpt lat="40.0709285" lon="-105.2292969">
  <ele>1582.99</ele>
  <time>2026-09-02T20:50:52Z</time>
  <course>64.38</course>
  <speed>1.1853269591129698</speed>
  <fix>3d</fix>
</trkpt>
<trkpt lat="40.0709274" lon="-105.2292996">
  <ele>1582.99</ele>
  <time>2026-09-02T20:50:52Z</time>
  <course>64.32</course>
  <speed>1.18</speed>
  <fix>3d</fix>
</trkpt>
<trkpt lat="40.070929" lon="-105.2292956">
  <ele>1582.99</ele>
  <time>2026-09-02T20:50:52Z</time>
  <course>64.37</course>
  <speed>1.1853269591129698</speed>
  <fix>3d</fix>
</trkpt>
<trkpt lat="40.0709284" lon="-105.2292971">
  <ele>1582.99</ele>
  <time>2026-09-02T20:50:52Z</time>
  <course>64.29</course>
  <speed>1.19</speed>
  <fix>3d</fix>
</trkpt>
<trkpt lat="40.0709294" lon="-105.2292944">
  <ele>1582.99</ele>
  <time>2026-09-02T20:50:52Z</time>
  <course>64.35</course>
  <speed>1.1853269591129698</speed>
  <fix>3d</fix>
</trkpt>
<trkpt lat="40.0709284" lon="-105.2292971">
  <ele>1582.99</ele>
  <time>2026-09-02T20:50:52Z</time>
  <course>64.29</course>
  <speed>1.19</speed>
  <fix>3d</fix>
</trkpt>
<trkpt lat="40.0709298" lon="-105.229293">
  <ele>1582.99</ele>
  <time>2026-09-02T20:50:52Z</time>
  <course>64.34</course>
  <speed>1.1853269591129698</speed>
  <fix>3d</fix>
</trkpt>
<trkpt lat="40.0709293" lon="-105.2292946">
  <ele>1582.99</ele>
  <time>2026-09-02T20:50:52Z</time>
  <course>64.27</course>
  <speed>1.19</speed>
  <fix>3d</fix>
</trkpt>
<trkpt lat="40.0709303" lon="-105.2292918">
  <ele>1582.99</ele>
  <time>2026-09-02T20:50:52Z</time>
  <course>64.32</course>
  <speed>1.1853269591129698</speed>
  <fix>3d</fix>
</trkpt>
<trkpt lat="40.0709293" lon="-105.2292946">
  <ele>1582.99</ele>
  <time>2026-09-02T20:50:52Z</time>
  <course>64.27</course>
  <speed>1.19</speed>
  <fix>3d</fix>
</trkpt>
<trkpt lat="40.0709308" lon="-105.2292906">
  <ele>1582.99</ele>
  <time>2026-09-02T20:50:52Z</time>
  <course>64.31</course>
  <speed>1.1853269591129698</speed>
  <fix>3d</fix>
</trkpt>
<trkpt lat="40.0709302" lon="-105.2292921">
  <ele>1582.99</ele>
  <time>2026-09-02T20:50:52Z</time>
  <course>64.24</course>
  <speed>1.19</speed>
  <fix>3d</fix>
</trkpt>
<trkpt lat="40.0709311" lon="-105.2292896">
  <ele>1582.99</ele>
  <time>2026-09-02T20:50:52Z</time>
  <course>64.3</course>
  <speed>1.1853269591129698</speed>
  <fix>3d</fix>
</trkpt>
<trkpt lat="40.0709302" lon="-105.2292921">
  <ele>1582.99</ele>
  <time>2026-09-02T20:50:52Z</time>
  <course>64.24</course>
  <speed>1.19</speed>
  <fix>3d</fix>
</trkpt>
<trkpt lat="40.0709316" lon="-105.2292882">
  <ele>1582.99</ele>
  <time>2026-09-02T20:50:52Z</time>
  <course>64.29</course>
  <speed>1.189663818059539</speed>
  <fix>3d</fix>
</trkpt>
<trkpt lat="40.0709311" lon="-105.2292895">
  <ele>1582.99</ele>
  <time>2026-09-02T20:50:52Z</time>
  <course>64.21</course>
  <speed>1.19</speed>
  <fix>3d</fix>
</trkpt>
<trkpt lat="40.0709321" lon="-105.229287">
  <ele>1582.99</ele>
  <time>2026-09-02T20:50:52Z</time>
  <course>64.27</course>
  <speed>1.1853269591129698</speed>
  <fix>3d</fix>
</trkpt>
<trkpt lat="40.0709311" lon="-105.2292895">
  <ele>1582.99</ele>
  <time>2026-09-02T20:50:52Z</time>
  <course>64.21</course>
  <speed>1.19</speed>
  <fix>3d</fix>
</trkpt>
<trkpt lat="40.0709326" lon="-105.2292858">
  <ele>1582.99</ele>
  <time>2026-09-02T20:50:52Z</time>
  <course>64.26</course>
  <speed>1.189663818059539</speed>
  <fix>3d</fix>
</trkpt>
<trkpt lat="40.0709321" lon="-105.229287">
  <ele>1582.99</ele>
  <time>2026-09-02T20:50:52Z</time>
  <course>64.19</course>
  <speed>1.19</speed>
  <fix>3d</fix>
</trkpt>
<trkpt lat="40.0709331" lon="-105.2292844">
  <ele>1582.99</ele>
  <time>2026-09-02T20:50:52Z</time>
  <course>64.25</course>
  <speed>1.1853269591129698</speed>
  <fix>3d</fix>
</trkpt>
<trkpt lat="40.0709321" lon="-105.229287">
  <ele>1582.99</ele>
  <time>2026-09-02T20:50:52Z</time>
  <course>64.19</course>
  <speed>1.19</speed>
  <fix>3d</fix>
</trkpt>
<trkpt lat="40.0709334" lon="-105.2292832">
  <ele>1582.99</ele>
  <time>2026-09-02T20:50:52Z</time>
  <course>64.23</course>
  <speed>1.189663818059539</speed>
  <fix>3d</fix>
</trkpt>
<trkpt lat="40.070933" lon="-105.2292845">
  <ele>1582.99</ele>
  <time>2026-09-02T20:50:52Z</time>
  <course>64.16</course>
  <speed>1.19</speed>
  <fix>3d</fix>
</trkpt>
<trkpt lat="40.070934" lon="-105.229282">
  <ele>1582.99</ele>
  <time>2026-09-02T20:50:52Z</time>
  <course>64.22</course>
  <speed>1.1853269591129698</speed>
  <fix>3d</fix>
</trkpt>
<trkpt lat="40.070933" lon="-105.2292845">
  <ele>1582.99</ele>
  <time>2026-09-02T20:50:52Z</time>
  <course>64.16</course>
  <speed>1.19</speed>
  <fix>3d</fix>
</trkpt>
<trkpt lat="40.0709345" lon="-105.2292808">
  <ele>1582.99</ele>
  <time>2026-09-02T20:50:52Z</time>
  <course>64.21</course>
  <speed>1.1986659251017358</speed>
  <fix>3d</fix>
</trkpt>
<trkpt lat="40.0709339" lon="-105.229282">
  <ele>1582.99</ele>
  <time>2026-09-02T20:50:52Z</time>
  <course>64.14</course>
  <speed>1.2</speed>
  <fix>3d</fix>
</trkpt>
<trkpt lat="40.0709349" lon="-105.2292794">
  <ele>1582.99</ele>
  <time>2026-09-02T20:50:52Z</time>
  <course>64.2</course>
  <speed>1.189663818059539</speed>
  <fix>3d</fix>
</trkpt>
<trkpt lat="40.0709339" lon="-105.229282">
  <ele>1582.99</ele>
  <time>2026-09-02T20:50:52Z</time>
  <course>64.14</course>
  <speed>1.2</speed>
  <fix>3d</fix>
</trkpt>
<trkpt lat="40.0709353" lon="-105.2292782">
  <ele>1582.99</ele>
  <time>2026-09-02T20:50:52Z</time>
  <course>64.19</course>
  <speed>1.1986659251017358</speed>
  <fix>3d</fix>
</trkpt>
<trkpt lat="40.0709349" lon="-105.2292794">
  <ele>1582.99</ele>
  <time>2026-09-02T20:50:52Z</time>
  <course>64.11</course>
  <speed>1.2</speed>
  <fix>3d</fix>
</trkpt>
<trkpt lat="40.0709359" lon="-105.2292767">
  <ele>1582.99</ele>
  <time>2026-09-02T20:50:52Z</time>
  <course>64.17</course>
  <speed>1.189663818059539</speed>
  <fix>3d</fix>
</trkpt>
<trkpt lat="40.0709349" lon="-105.2292794">
  <ele>1582.99</ele>
  <time>2026-09-02T20:50:52Z</time>
  <course>64.11</course>
  <speed>1.2</speed>
  <fix>3d</fix>
</trkpt>
<trkpt lat="40.0709364" lon="-105.2292753">
  <ele>1582.99</ele>
  <time>2026-09-02T20:50:52Z</time>
  <course>64.16</course>
  <speed>1.189663818059539</speed>
  <fix>3d</fix>
</trkpt>
<trkpt lat="40.0709358" lon="-105.2292769">
  <ele>1582.99</ele>
  <time>2026-09-02T20:50:52Z</time>
  <course>64.09</course>
  <speed>1.2</speed>
  <fix>3d</fix>
</trkpt>
<trkpt lat="40.0709369" lon="-105.2292741">
  <ele>1582.99</ele>
  <time>2026-09-02T20:50:52Z</time>
  <course>64.15</course>
  <speed>1.189663818059539</speed>
  <fix>3d</fix>
</trkpt>
<trkpt lat="40.0709358" lon="-105.2292769">
  <ele>1582.99</ele>
  <time>2026-09-02T20:50:52Z</time>
  <course>64.09</course>
  <speed>1.2</speed>
  <fix>3d</fix>
</trkpt>
<trkpt lat="40.0709374" lon="-105.2292729">
  <ele>1582.99</ele>
  <time>2026-09-02T20:50:52Z</time>
  <course>64.14</course>
  <speed>1.189663818059539</speed>
  <fix>3d</fix>
</trkpt>
<trkpt lat="40.0709368" lon="-105.2292744">
  <ele>1582.99</ele>
  <time>2026-09-02T20:50:52Z</time>
  <course>64.07</course>
  <speed>1.2</speed>
  <fix>3d</fix>
</trkpt>
<trkpt lat="40.0709377" lon="-105.2292717">
  <ele>1582.99</ele>
  <time>2026-09-02T20:50:52Z</time>
  <course>64.13</course>
  <speed>1.189663818059539</speed>
  <fix>3d</fix>
</trkpt>
<trkpt lat="40.0709368" lon="-105.2292744">
  <ele>1582.99</ele>
  <time>2026-09-02T20:50:52Z</time>
  <course>64.07</course>
  <speed>1.2</speed>
  <fix>3d</fix>
</trkpt>
<trkpt lat="40.0709383" lon="-105.2292703">
  <ele>1582.99</ele>
  <time>2026-09-02T20:50:52Z</time>
  <course>64.12</course>
  <speed>1.189663818059539</speed>
  <fix>3d</fix>
</trkpt>
<trkpt lat="40.0709377" lon="-105.2292718">
  <ele>1582.99</ele>
  <time>2026-09-02T20:50:52Z</time>
  <course>64.05</course>
  <speed>1.19</speed>
  <fix>3d</fix>
</trkpt>
<trkpt lat="40.0709388" lon="-105.2292691">
  <ele>1582.99</ele>
  <time>2026-09-02T20:50:52Z</time>
  <course>64.11</course>
  <speed>1.189663818059539</speed>
  <fix>3d</fix>
</trkpt>
<trkpt lat="40.0709377" lon="-105.2292718">
  <ele>1582.99</ele>
  <time>2026-09-02T20:50:52Z</time>
  <course>64.05</course>
  <speed>1.19</speed>
  <fix>3d</fix>
</trkpt>
<trkpt lat="40.0709393" lon="-105.2292679">
  <ele>1582.99</ele>
  <time>2026-09-02T20:50:52Z</time>
  <course>64.1</course>
  <speed>1.189663818059539</speed>
  <fix>3d</fix>
</trkpt>
<trkpt lat="40.0709387" lon="-105.2292693">
  <ele>1582.99</ele>
  <time>2026-09-02T20:50:52Z</time>
  <course>64.03</course>
  <speed>1.19</speed>
  <fix>3d</fix>
</trkpt>
<trkpt lat="40.0709396" lon="-105.2292665">
  <ele>1582.99</ele>
  <time>2026-09-02T20:50:52Z</time>
  <course>64.1</course>
  <speed>1.189663818059539</speed>
  <fix>3d</fix>
</trkpt>
<trkpt lat="40.0709387" lon="-105.2292693">
  <ele>1582.99</ele>
  <time>2026-09-02T20:50:52Z</time>
  <course>64.03</course>
  <speed>1.19</speed>
  <fix>3d</fix>
</trkpt>
<trkpt lat="40.0709401" lon="-105.2292653">
  <ele>1582.99</ele>
  <time>2026-09-02T20:50:52Z</time>
  <course>64.09</course>
  <speed>1.189663818059539</speed>
  <fix>3d</fix>
</trkpt>
<trkpt lat="40.0709396" lon="-105.2292668">
  <ele>1582.99</ele>
  <time>2026-09-02T20:50:52Z</time>
  <course>64.01</course>
  <speed>1.19</speed>
  <fix>3d</fix>
</trkpt>
<trkpt lat="40.0709407" lon="-105.2292641">
  <ele>1582.99</ele>
  <time>2026-09-02T20:50:52Z</time>
  <course>64.08</course>
  <speed>1.189663818059539</speed>
  <fix>3d</fix>
</trkpt>
<trkpt lat="40.0709396" lon="-105.2292668">
  <ele>1582.99</ele>
  <time>2026-09-02T20:50:52Z</time>
  <course>64.01</course>
  <speed>1.19</speed>
  <fix>3d</fix>
</trkpt>
<trkpt lat="40.0709411" lon="-105.2292631">
  <ele>1582.99</ele>
  <time>2026-09-02T20:50:52Z</time>
  <course>64.07</course>
  <speed>1.189663818059539</speed>
  <fix>3d</fix>
</trkpt>
<trkpt lat="40.0709406" lon="-105.2292643">
  <ele>1582.99</ele>
  <time>2026-09-02T20:50:52Z</time>
  <course>64.0</course>
  <speed>1.19</speed>
  <fix>3d</fix>
</trkpt>
<trkpt lat="40.0709414" lon="-105.2292617">
  <ele>1582.99</ele>
  <time>2026-09-02T20:50:52Z</time>
  <course>64.07</course>
  <speed>1.189663818059539</speed>
  <fix>3d</fix>
</trkpt>
<trkpt lat="40.0709406" lon="-105.2292643">
  <ele>1582.99</ele>
  <time>2026-09-02T20:50:52Z</time>
  <course>64.0</course>
  <speed>1.19</speed>
  <fix>3d</fix>
</trkpt>
<trkpt lat="40.0709419" lon="-105.2292605">
  <ele>1582.99</ele>
  <time>2026-09-02T20:50:52Z</time>
  <course>64.06</course>
  <speed>1.189663818059539</speed>
  <fix>3d</fix>
</trkpt>
<trkpt lat="40.0709415" lon="-105.2292617">
  <ele>1582.99</ele>
  <time>2026-09-02T20:50:52Z</time>
  <course>63.98</course>
  <speed>1.19</speed>
  <fix>3d</fix>
</trkpt>
<trkpt lat="40.0709425" lon="-105.2292593">
  <ele>1582.99</ele>
  <time>2026-09-02T20:50:52Z</time>
  <course>64.06</course>
  <speed>1.189663818059539</speed>
  <fix>3d</fix>
</trkpt>
<trkpt lat="40.0709415" lon="-105.2292617">
  <ele>1582.99</ele>
  <time>2026-09-02T20:50:52Z</time>
  <course>63.98</course>
  <speed>1.19</speed>
  <fix>3d</fix>
</trkpt>
<trkpt lat="40.0709429" lon="-105.229258">
  <ele>1582.99</ele>
  <time>2026-09-02T20:50:52Z</time>
  <course>64.05</course>
  <speed>1.189663818059539</speed>
  <fix>3d</fix>
</trkpt>
<trkpt lat="40.0709424" lon="-105.2292592">
  <ele>1582.99</ele>
  <time>2026-09-02T20:50:52Z</time>
  <course>63.97</course>
  <speed>1.2</speed>
  <fix>3d</fix>
</trkpt>
<trkpt lat="40.0709434" lon="-105.2292566">
  <ele>1582.99</ele>
  <time>2026-09-02T20:50:52Z</time>
  <course>64.05</course>
  <speed>1.189663818059539</speed>
  <fix>3d</fix>
</trkpt>
<trkpt lat="40.0709424" lon="-105.2292592">
  <ele>1582.99</ele>
  <time>2026-09-02T20:50:52Z</time>
  <course>63.97</course>
  <speed>1.2</speed>
  <fix>3d</fix>
</trkpt>
<trkpt lat="40.0709438" lon="-105.2292554">
  <ele>1582.99</ele>
  <time>2026-09-02T20:50:52Z</time>
  <course>64.05</course>
  <speed>1.189663818059539</speed>
  <fix>3d</fix>
</trkpt>
<trkpt lat="40.0709434" lon="-105.2292567">
  <ele>1582.99</ele>
  <time>2026-09-02T20:50:52Z</time>
  <course>63.97</course>
  <speed>1.2</speed>
  <fix>3d</fix>
</trkpt>
<trkpt lat="40.0709443" lon="-105.2292542">
  <ele>1582.99</ele>
  <time>2026-09-02T20:50:52Z</time>
  <course>64.05</course>
  <speed>1.189663818059539</speed>
  <fix>3d</fix>
</trkpt>
<trkpt lat="40.0709434" lon="-105.2292567">
  <ele>1582.99</ele>
  <time>2026-09-02T20:50:52Z</time>
  <course>63.97</course>
  <speed>1.2</speed>
  <fix>3d</fix>
</trkpt>
<trkpt lat="40.0709448" lon="-105.2292528">
  <ele>1582.99</ele>
  <time>2026-09-02T20:50:52Z</time>
  <course>64.04</course>
  <speed>1.189663818059539</speed>
  <fix>3d</fix>
</trkpt>
<trkpt lat="40.0709443" lon="-105.2292541">
  <ele>1582.99</ele>
  <time>2026-09-02T20:50:52Z</time>
  <course>63.96</course>
  <speed>1.2</speed>
  <fix>3d</fix>
</trkpt>
<trkpt lat="40.0709453" lon="-105.2292516">
  <ele>1582.99</ele>
  <time>2026-09-02T20:50:52Z</time>
  <course>64.03</course>
  <speed>1.189663818059539</speed>
  <fix>3d</fix>
</trkpt>
<trkpt lat="40.0709443" lon="-105.2292541">
  <ele>1582.99</ele>
  <time>2026-09-02T20:50:52Z</time>
  <course>63.96</course>
  <speed>1.2</speed>
  <fix>3d</fix>
</trkpt>
<trkpt lat="40.0709459" lon="-105.2292502">
  <ele>1582.99</ele>
  <time>2026-09-02T20:50:52Z</time>
  <course>64.03</course>
  <speed>1.189663818059539</speed>
  <fix>3d</fix>
</trkpt>
<trkpt lat="40.0709453" lon="-105.2292516">
  <ele>1582.99</ele>
  <time>2026-09-02T20:50:52Z</time>
  <course>63.95</course>
  <speed>1.2</speed>
  <fix>3d</fix>
</trkpt>
<trkpt lat="40.0709462" lon="-105.2292489">
  <ele>1582.99</ele>
  <time>2026-09-02T20:50:52Z</time>
  <course>64.03</course>
  <speed>1.189663818059539</speed>
  <fix>3d</fix>
</trkpt>
<trkpt lat="40.0709453" lon="-105.2292516">
  <ele>1582.99</ele>
  <time>2026-09-02T20:50:52Z</time>
  <course>63.95</course>
  <speed>1.2</speed>
  <fix>3d</fix>
</trkpt>
<trkpt lat="40.0709468" lon="-105.2292475">
  <ele>1582.99</ele>
  <time>2026-09-02T20:50:52Z</time>
  <course>64.03</course>
  <speed>1.189663818059539</speed>
  <fix>3d</fix>
</trkpt>
<trkpt lat="40.0709462" lon="-105.2292491">
  <ele>1582.99</ele>
  <time>2026-09-02T20:50:52Z</time>
  <course>63.95</course>
  <speed>1.2</speed>
  <fix>3d</fix>
</trkpt>
<trkpt lat="40.0709473" lon="-105.2292463">
  <ele>1582.99</ele>
  <time>2026-09-02T20:50:53Z</time>
  <course>64.02</course>
  <speed>1.189663818059539</speed>
  <fix>3d</fix>
</trkpt>
<trkpt lat="40.0709462" lon="-105.2292491">
  <ele>1582.99</ele>
  <time>2026-09-02T20:50:53Z</time>
  <course>63.95</course>
  <speed>1.2</speed>
  <fix>3d</fix>
</trkpt>
<trkpt lat="40.0709478" lon="-105.2292451">
  <ele>1582.99</ele>
  <time>2026-09-02T20:50:53Z</time>
  <course>64.02</course>
  <speed>1.189663818059539</speed>
  <fix>3d</fix>
</trkpt>
<trkpt lat="40.0709472" lon="-105.2292466">
  <ele>1582.99</ele>
  <time>2026-09-02T20:50:53Z</time>
  <course>63.94</course>
  <speed>1.19</speed>
  <fix>3d</fix>
</trkpt>
<trkpt lat="40.0709481" lon="-105.2292439">
  <ele>1582.99</ele>
  <time>2026-09-02T20:50:53Z</time>
  <course>64.02</course>
  <speed>1.189663818059539</speed>
  <fix>3d</fix>
</trkpt>
<trkpt lat="40.0709472" lon="-105.2292466">
  <ele>1582.99</ele>
  <time>2026-09-02T20:50:53Z</time>
  <course>63.94</course>
  <speed>1.19</speed>
  <fix>3d</fix>
</trkpt>
<trkpt lat="40.0709486" lon="-105.2292425">
  <ele>1582.99</ele>
  <time>2026-09-02T20:50:53Z</time>
  <course>64.02</course>
  <speed>1.189663818059539</speed>
  <fix>3d</fix>
</trkpt>
<trkpt lat="40.0709481" lon="-105.229244">
  <ele>1582.99</ele>
  <time>2026-09-02T20:50:53Z</time>
  <course>63.93</course>
  <speed>1.19</speed>
  <fix>3d</fix>
</trkpt>
<trkpt lat="40.0709492" lon="-105.2292413">
  <ele>1582.99</ele>
  <time>2026-09-02T20:50:53Z</time>
  <course>64.01</course>
  <speed>1.189663818059539</speed>
  <fix>3d</fix>
</trkpt>
<trkpt lat="40.0709481" lon="-105.229244">
  <ele>1582.99</ele>
  <time>2026-09-02T20:50:53Z</time>
  <course>63.93</course>
  <speed>1.19</speed>
  <fix>3d</fix>
</trkpt>
<trkpt lat="40.0709496" lon="-105.2292401">
  <ele>1582.99</ele>
  <time>2026-09-02T20:50:53Z</time>
  <course>64.01</course>
  <speed>1.189663818059539</speed>
  <fix>3d</fix>
</trkpt>
<trkpt lat="40.0709491" lon="-105.2292415">
  <ele>1582.99</ele>
  <time>2026-09-02T20:50:53Z</time>
  <course>63.93</course>
  <speed>1.19</speed>
  <fix>3d</fix>
</trkpt>
<trkpt lat="40.0709501" lon="-105.2292387">
  <ele>1582.99</ele>
  <time>2026-09-02T20:50:53Z</time>
  <course>64.01</course>
  <speed>1.189663818059539</speed>
  <fix>3d</fix>
</trkpt>
<trkpt lat="40.0709491" lon="-105.2292415">
  <ele>1582.99</ele>
  <time>2026-09-02T20:50:53Z</time>
  <course>63.93</course>
  <speed>1.19</speed>
  <fix>3d</fix>
</trkpt>
<trkpt lat="40.0709505" lon="-105.2292375">
  <ele>1582.99</ele>
  <time>2026-09-02T20:50:53Z</time>
  <course>64.01</course>
  <speed>1.189663818059539</speed>
  <fix>3d</fix>
</trkpt>
<trkpt lat="40.07095" lon="-105.229239">
  <ele>1582.99</ele>
  <time>2026-09-02T20:50:53Z</time>
  <course>63.93</course>
  <speed>1.19</speed>
  <fix>3d</fix>
</trkpt>
<trkpt lat="40.070951" lon="-105.2292365">
  <ele>1582.99</ele>
  <time>2026-09-02T20:50:53Z</time>
  <course>64.01</course>
  <speed>1.189663818059539</speed>
  <fix>3d</fix>
</trkpt>
<trkpt lat="40.07095" lon="-105.229239">
  <ele>1582.99</ele>
  <time>2026-09-02T20:50:53Z</time>
  <course>63.93</course>
  <speed>1.19</speed>
  <fix>3d</fix>
</trkpt>
<trkpt lat="40.0709515" lon="-105.2292351">
  <ele>1582.99</ele>
  <time>2026-09-02T20:50:53Z</time>
  <course>64.01</course>
  <speed>1.189663818059539</speed>
  <fix>3d</fix>
</trkpt>
<trkpt lat="40.0709509" lon="-105.2292364">
  <ele>1582.99</ele>
  <time>2026-09-02T20:50:53Z</time>
  <course>63.92</course>
  <speed>1.19</speed>
  <fix>3d</fix>
</trkpt>
<trkpt lat="40.0709519" lon="-105.2292339">
  <ele>1582.99</ele>
  <time>2026-09-02T20:50:53Z</time>
  <course>64.0</course>
  <speed>1.189663818059539</speed>
  <fix>3d</fix>
</trkpt>
<trkpt lat="40.0709509" lon="-105.2292364">
  <ele>1582.99</ele>
  <time>2026-09-02T20:50:53Z</time>
  <course>63.92</course>
  <speed>1.19</speed>
  <fix>3d</fix>
</trkpt>
<trkpt lat="40.0709523" lon="-105.2292327">
  <ele>1582.99</ele>
  <time>2026-09-02T20:50:53Z</time>
  <course>64.0</course>
  <speed>1.189663818059539</speed>
  <fix>3d</fix>
</trkpt>
<trkpt lat="40.0709519" lon="-105.2292339">
  <ele>1582.99</ele>
  <time>2026-09-02T20:50:53Z</time>
  <course>63.92</course>
  <speed>1.19</speed>
  <fix>3d</fix>
</trkpt>
<trkpt lat="40.0709528" lon="-105.2292315">
  <ele>1582.99</ele>
  <time>2026-09-02T20:50:53Z</time>
  <course>64.0</course>
  <speed>1.189663818059539</speed>
  <fix>3d</fix>
</trkpt>
<trkpt lat="40.0709519" lon="-105.2292339">
  <ele>1582.99</ele>
  <time>2026-09-02T20:50:53Z</time>
  <course>63.92</course>
  <speed>1.19</speed>
  <fix>3d</fix>
</trkpt>
<trkpt lat="40.0709533" lon="-105.2292301">
  <ele>1582.99</ele>
  <time>2026-09-02T20:50:53Z</time>
  <course>64.0</course>
  <speed>1.189663818059539</speed>
  <fix>3d</fix>
</trkpt>
<trkpt lat="40.0709528" lon="-105.2292314">
  <ele>1582.99</ele>
  <time>2026-09-02T20:50:53Z</time>
  <course>63.92</course>
  <speed>1.19</speed>
  <fix>3d</fix>
</trkpt>
<trkpt lat="40.0709538" lon="-105.2292289">
  <ele>1582.99</ele>
  <time>2026-09-02T20:50:53Z</time>
  <course>64.0</course>
  <speed>1.189663818059539</speed>
  <fix>3d</fix>
</trkpt>
<trkpt lat="40.0709528" lon="-105.2292314">
  <ele>1582.99</ele>
  <time>2026-09-02T20:50:53Z</time>
  <course>63.92</course>
  <speed>1.19</speed>
  <fix>3d</fix>
</trkpt>
<trkpt lat="40.0709542" lon="-105.2292277">
  <ele>1582.99</ele>
  <time>2026-09-02T20:50:53Z</time>
  <course>64.0</course>
  <speed>1.189663818059539</speed>
  <fix>3d</fix>
</trkpt>
<trkpt lat="40.0709538" lon="-105.2292289">
  <ele>1582.99</ele>
  <time>2026-09-02T20:50:53Z</time>
  <course>63.92</course>
  <speed>1.2</speed>
  <fix>3d</fix>
</trkpt>
<trkpt lat="40.0709547" lon="-105.2292264">
  <ele>1582.99</ele>
  <time>2026-09-02T20:50:53Z</time>
  <course>64.0</course>
  <speed>1.189663818059539</speed>
  <fix>3d</fix>
</trkpt>
<trkpt lat="40.0709538" lon="-105.2292289">
  <ele>1582.99</ele>
  <time>2026-09-02T20:50:53Z</time>
  <course>63.92</course>
  <speed>1.2</speed>
  <fix>3d</fix>
</trkpt>
<trkpt lat="40.0709552" lon="-105.229225">
  <ele>1582.99</ele>
  <time>2026-09-02T20:50:53Z</time>
  <course>64.0</course>
  <speed>1.189663818059539</speed>
  <fix>3d</fix>
</trkpt>
<trkpt lat="40.0709547" lon="-105.2292263">
  <ele>1582.99</ele>
  <time>2026-09-02T20:50:53Z</time>
  <course>63.92</course>
  <speed>1.2</speed>
  <fix>3d</fix>
</trkpt>
<trkpt lat="40.0709558" lon="-105.2292236">
  <ele>1582.99</ele>
  <time>2026-09-02T20:50:53Z</time>
  <course>64.0</course>
  <speed>1.189663818059539</speed>
  <fix>3d</fix>
</trkpt>
<trkpt lat="40.0709547" lon="-105.2292263">
  <ele>1582.99</ele>
  <time>2026-09-02T20:50:53Z</time>
  <course>63.92</course>
  <speed>1.2</speed>
  <fix>3d</fix>
</trkpt>
<trkpt lat="40.0709563" lon="-105.2292224">
  <ele>1582.99</ele>
  <time>2026-09-02T20:50:53Z</time>
  <course>64.0</course>
  <speed>1.189663818059539</speed>
  <fix>3d</fix>
</trkpt>
<trkpt lat="40.0709557" lon="-105.2292238">
  <ele>1582.99</ele>
  <time>2026-09-02T20:50:53Z</time>
  <course>63.92</course>
  <speed>1.2</speed>
  <fix>3d</fix>
</trkpt>
<trkpt lat="40.0709568" lon="-105.229221">
  <ele>1582.99</ele>
  <time>2026-09-02T20:50:53Z</time>
  <course>64.0</course>
  <speed>1.189663818059539</speed>
  <fix>3d</fix>
</trkpt>
<trkpt lat="40.0709557" lon="-105.2292238">
  <ele>1582.99</ele>
  <time>2026-09-02T20:50:53Z</time>
  <course>63.92</course>
  <speed>1.2</speed>
  <fix>3d</fix>
</trkpt>
<trkpt lat="40.0709571" lon="-105.2292198">
  <ele>1582.99</ele>
  <time>2026-09-02T20:50:53Z</time>
  <course>64.0</course>
  <speed>1.189663818059539</speed>
  <fix>3d</fix>
</trkpt>
<trkpt lat="40.0709566" lon="-105.2292213">
  <ele>1582.99</ele>
  <time>2026-09-02T20:50:53Z</time>
  <course>63.92</course>
  <speed>1.19</speed>
  <fix>3d</fix>
</trkpt>
<trkpt lat="40.0709577" lon="-105.2292186">
  <ele>1582.99</ele>
  <time>2026-09-02T20:50:53Z</time>
  <course>64.0</course>
  <speed>1.189663818059539</speed>
  <fix>3d</fix>
</trkpt>
<trkpt lat="40.0709566" lon="-105.2292213">
  <ele>1582.99</ele>
  <time>2026-09-02T20:50:53Z</time>
  <course>63.92</course>
  <speed>1.19</speed>
  <fix>3d</fix>
</trkpt>
<trkpt lat="40.0709582" lon="-105.2292173">
  <ele>1582.99</ele>
  <time>2026-09-02T20:50:53Z</time>
  <course>64.0</course>
  <speed>1.189663818059539</speed>
  <fix>3d</fix>
</trkpt>
<trkpt lat="40.0709576" lon="-105.2292187">
  <ele>1582.99</ele>
  <time>2026-09-02T20:50:53Z</time>
  <course>63.92</course>
  <speed>1.19</speed>
  <fix>3d</fix>
</trkpt>
<trkpt lat="40.0709586" lon="-105.2292159">
  <ele>1582.99</ele>
  <time>2026-09-02T20:50:53Z</time>
  <course>64.0</course>
  <speed>1.189663818059539</speed>
  <fix>3d</fix>
</trkpt>
<trkpt lat="40.0709576" lon="-105.2292187">
  <ele>1582.99</ele>
  <time>2026-09-02T20:50:53Z</time>
  <course>63.92</course>
  <speed>1.19</speed>
  <fix>3d</fix>
</trkpt>
<trkpt lat="40.070959" lon="-105.2292148">
  <ele>1582.99</ele>
  <time>2026-09-02T20:50:53Z</time>
  <course>64.0</course>
  <speed>1.189663818059539</speed>
  <fix>3d</fix>
</trkpt>
<trkpt lat="40.0709585" lon="-105.2292162">
  <ele>1582.99</ele>
  <time>2026-09-02T20:50:53Z</time>
  <course>63.92</course>
  <speed>1.19</speed>
  <fix>3d</fix>
</trkpt>
<trkpt lat="40.0709595" lon="-105.2292135">
  <ele>1582.99</ele>
  <time>2026-09-02T20:50:53Z</time>
  <course>64.01</course>
  <speed>1.189663818059539</speed>
  <fix>3d</fix>
</trkpt>
<trkpt lat="40.0709585" lon="-105.2292162">
  <ele>1582.99</ele>
  <time>2026-09-02T20:50:53Z</time>
  <course>63.92</course>
  <speed>1.19</speed>
  <fix>3d</fix>
</trkpt>
<trkpt lat="40.0709601" lon="-105.2292121">
  <ele>1582.99</ele>
  <time>2026-09-02T20:50:53Z</time>
  <course>64.01</course>
  <speed>1.189663818059539</speed>
  <fix>3d</fix>
</trkpt>
<trkpt lat="40.0709595" lon="-105.2292137">
  <ele>1582.99</ele>
  <time>2026-09-02T20:50:53Z</time>
  <course>63.92</course>
  <speed>1.19</speed>
  <fix>3d</fix>
</trkpt>
<trkpt lat="40.0709605" lon="-105.2292109">
  <ele>1582.99</ele>
  <time>2026-09-02T20:50:53Z</time>
  <course>64.01</course>
  <speed>1.189663818059539</speed>
  <fix>3d</fix>
</trkpt>
<trkpt lat="40.0709595" lon="-105.2292137">
  <ele>1582.99</ele>
  <time>2026-09-02T20:50:53Z</time>
  <course>63.92</course>
  <speed>1.19</speed>
  <fix>3d</fix>
</trkpt>
<trkpt lat="40.0709608" lon="-105.22921">
  <ele>1582.99</ele>
  <time>2026-09-02T20:50:53Z</time>
  <course>64.01</course>
  <speed>1.189663818059539</speed>
  <fix>3d</fix>
</trkpt>
<trkpt lat="40.0709604" lon="-105.2292112">
  <ele>1582.99</ele>
  <time>2026-09-02T20:50:53Z</time>
  <course>63.93</course>
  <speed>1.2</speed>
  <fix>3d</fix>
</trkpt>
<trkpt lat="40.0709614" lon="-105.2292087">
  <ele>1582.99</ele>
  <time>2026-09-02T20:50:53Z</time>
  <course>64.01</course>
  <speed>1.189663818059539</speed>
  <fix>3d</fix>
</trkpt>
<trkpt lat="40.0709604" lon="-105.2292112">
  <ele>1582.99</ele>
  <time>2026-09-02T20:50:53Z</time>
  <course>63.93</course>
  <speed>1.2</speed>
  <fix>3d</fix>
</trkpt>
<trkpt lat="40.0709619" lon="-105.2292073">
  <ele>1582.99</ele>
  <time>2026-09-02T20:50:53Z</time>
  <course>64.01</course>
  <speed>1.189663818059539</speed>
  <fix>3d</fix>
</trkpt>
<trkpt lat="40.0709614" lon="-105.2292086">
  <ele>1582.99</ele>
  <time>2026-09-02T20:50:53Z</time>
  <course>63.93</course>
  <speed>1.2</speed>
  <fix>3d</fix>
</trkpt>
<trkpt lat="40.0709623" lon="-105.2292061">
  <ele>1582.99</ele>
  <time>2026-09-02T20:50:53Z</time>
  <course>64.01</course>
  <speed>1.189663818059539</speed>
  <fix>3d</fix>
</trkpt>
<trkpt lat="40.0709614" lon="-105.2292086">
  <ele>1582.99</ele>
  <time>2026-09-02T20:50:53Z</time>
  <course>63.93</course>
  <speed>1.2</speed>
  <fix>3d</fix>
</trkpt>
<trkpt lat="40.0709627" lon="-105.2292049">
  <ele>1582.99</ele>
  <time>2026-09-02T20:50:53Z</time>
  <course>64.01</course>
  <speed>1.189663818059539</speed>
  <fix>3d</fix>
</trkpt>
<trkpt lat="40.0709623" lon="-105.2292061">
  <ele>1582.99</ele>
  <time>2026-09-02T20:50:53Z</time>
  <course>63.93</course>
  <speed>1.2</speed>
  <fix>3d</fix>
</trkpt>
<trkpt lat="40.0709632" lon="-105.2292035">
  <ele>1582.99</ele>
  <time>2026-09-02T20:50:53Z</time>
  <course>64.02</course>
  <speed>1.189663818059539</speed>
  <fix>3d</fix>
</trkpt>
<trkpt lat="40.0709623" lon="-105.2292061">
  <ele>1582.99</ele>
  <time>2026-09-02T20:50:53Z</time>
  <course>63.93</course>
  <speed>1.2</speed>
  <fix>3d</fix>
</trkpt>
<trkpt lat="40.0709638" lon="-105.2292023">
  <ele>1582.99</ele>
  <time>2026-09-02T20:50:53Z</time>
  <course>64.02</course>
  <speed>1.189663818059539</speed>
  <fix>3d</fix>
</trkpt>
<trkpt lat="40.0709633" lon="-105.2292036">
  <ele>1582.99</ele>
  <time>2026-09-02T20:50:53Z</time>
  <course>63.93</course>
  <speed>1.2</speed>
  <fix>3d</fix>
</trkpt>
<trkpt lat="40.0709642" lon="-105.2292011">
  <ele>1582.99</ele>
  <time>2026-09-02T20:50:53Z</time>
  <course>64.02</course>
  <speed>1.189663818059539</speed>
  <fix>3d</fix>
</trkpt>
<trkpt lat="40.0709633" lon="-105.2292036">
  <ele>1582.99</ele>
  <time>2026-09-02T20:50:53Z</time>
  <course>63.93</course>
  <speed>1.2</speed>
  <fix>3d</fix>
</trkpt>
<trkpt lat="40.0709647" lon="-105.2291997">
  <ele>1582.99</ele>
  <time>2026-09-02T20:50:53Z</time>
  <course>64.02</course>
  <speed>1.189663818059539</speed>
  <fix>3d</fix>
</trkpt>
<trkpt lat="40.0709642" lon="-105.229201">
  <ele>1582.99</ele>
  <time>2026-09-02T20:50:53Z</time>
  <course>63.94</course>
  <speed>1.2</speed>
  <fix>3d</fix>
</trkpt>
<trkpt lat="40.0709651" lon="-105.2291985">
  <ele>1582.99</ele>
  <time>2026-09-02T20:50:53Z</time>
  <course>64.02</course>
  <speed>1.189663818059539</speed>
  <fix>3d</fix>
</trkpt>
<trkpt lat="40.0709642" lon="-105.229201">
  <ele>1582.99</ele>
  <time>2026-09-02T20:50:53Z</time>
  <course>63.94</course>
  <speed>1.2</speed>
  <fix>3d</fix>
</trkpt>
<trkpt lat="40.0709657" lon="-105.229197">
  <ele>1582.99</ele>
  <time>2026-09-02T20:50:53Z</time>
  <course>64.02</course>
  <speed>1.189663818059539</speed>
  <fix>3d</fix>
</trkpt>
<trkpt lat="40.0709651" lon="-105.2291985">
  <ele>1582.99</ele>
  <time>2026-09-02T20:50:53Z</time>
  <course>63.94</course>
  <speed>1.2</speed>
  <fix>3d</fix>
</trkpt>
<trkpt lat="40.0709662" lon="-105.2291958">
  <ele>1582.99</ele>
  <time>2026-09-02T20:50:53Z</time>
  <course>64.03</course>
  <speed>1.189663818059539</speed>
  <fix>3d</fix>
</trkpt>
<trkpt lat="40.0709651" lon="-105.2291985">
  <ele>1582.99</ele>
  <time>2026-09-02T20:50:53Z</time>
  <course>63.94</course>
  <speed>1.2</speed>
  <fix>3d</fix>
</trkpt>
<trkpt lat="40.0709667" lon="-105.2291944">
  <ele>1582.99</ele>
  <time>2026-09-02T20:50:53Z</time>
  <course>64.03</course>
  <speed>1.1986659251017358</speed>
  <fix>3d</fix>
</trkpt>
<trkpt lat="40.0709661" lon="-105.229196">
  <ele>1582.99</ele>
  <time>2026-09-02T20:50:53Z</time>
  <course>63.94</course>
  <speed>1.2</speed>
  <fix>3d</fix>
</trkpt>
<trkpt lat="40.0709672" lon="-105.2291932">
  <ele>1582.99</ele>
  <time>2026-09-02T20:50:53Z</time>
  <course>64.03</course>
  <speed>1.189663818059539</speed>
  <fix>3d</fix>
</trkpt>
<trkpt lat="40.0709661" lon="-105.229196">
  <ele>1582.99</ele>
  <time>2026-09-02T20:50:53Z</time>
  <course>63.94</course>
  <speed>1.2</speed>
  <fix>3d</fix>
</trkpt>
<trkpt lat="40.0709675" lon="-105.229192">
  <ele>1582.99</ele>
  <time>2026-09-02T20:50:53Z</time>
  <course>64.03</course>
  <speed>1.189663818059539</speed>
  <fix>3d</fix>
</trkpt>
<trkpt lat="40.0709671" lon="-105.2291935">
  <ele>1582.99</ele>
  <time>2026-09-02T20:50:53Z</time>
  <course>63.95</course>
  <speed>1.2</speed>
  <fix>3d</fix>
</trkpt>
<trkpt lat="40.070968" lon="-105.2291906">
  <ele>1582.99</ele>
  <time>2026-09-02T20:50:53Z</time>
  <course>64.03</course>
  <speed>1.189663818059539</speed>
  <fix>3d</fix>
</trkpt>
<trkpt lat="40.0709671" lon="-105.2291935">
  <ele>1582.99</ele>
  <time>2026-09-02T20:50:53Z</time>
  <course>63.95</course>
  <speed>1.2</speed>
  <fix>3d</fix>
</trkpt>
<trkpt lat="40.0709686" lon="-105.2291894">
  <ele>1582.99</ele>
  <time>2026-09-02T20:50:53Z</time>
  <course>64.03</course>
  <speed>1.189663818059539</speed>
  <fix>3d</fix>
</trkpt>
<trkpt lat="40.070968" lon="-105.2291909">
  <ele>1582.99</ele>
  <time>2026-09-02T20:50:53Z</time>
  <course>63.95</course>
  <speed>1.2</speed>
  <fix>3d</fix>
</trkpt>
<trkpt lat="40.0709691" lon="-105.2291882">
  <ele>1582.99</ele>
  <time>2026-09-02T20:50:53Z</time>
  <course>64.04</course>
  <speed>1.189663818059539</speed>
  <fix>3d</fix>
</trkpt>
<trkpt lat="40.070968" lon="-105.2291909">
  <ele>1582.99</ele>
  <time>2026-09-02T20:50:53Z</time>
  <course>63.95</course>
  <speed>1.2</speed>
  <fix>3d</fix>
</trkpt>
<trkpt lat="40.0709694" lon="-105.2291869">
  <ele>1582.99</ele>
  <time>2026-09-02T20:50:53Z</time>
  <course>64.05</course>
  <speed>1.1986659251017358</speed>
  <fix>3d</fix>
</trkpt>
<trkpt lat="40.0709689" lon="-105.2291884">
  <ele>1582.99</ele>
  <time>2026-09-02T20:50:53Z</time>
  <course>63.95</course>
  <speed>1.2</speed>
  <fix>3d</fix>
</trkpt>
<trkpt lat="40.0709699" lon="-105.2291857">
  <ele>1582.99</ele>
  <time>2026-09-02T20:50:53Z</time>
  <course>64.05</course>
  <speed>1.189663818059539</speed>
  <fix>3d</fix>
</trkpt>
<trkpt lat="40.0709689" lon="-105.2291884">
  <ele>1582.99</ele>
  <time>2026-09-02T20:50:53Z</time>
  <course>63.95</course>
  <speed>1.2</speed>
  <fix>3d</fix>
</trkpt>
<trkpt lat="40.0709705" lon="-105.2291844">
  <ele>1582.99</ele>
  <time>2026-09-02T20:50:53Z</time>
  <course>64.05</course>
  <speed>1.1986659251017358</speed>
  <fix>3d</fix>
</trkpt>
<trkpt lat="40.0709698" lon="-105.2291859">
  <ele>1582.99</ele>
  <time>2026-09-02T20:50:53Z</time>
  <course>63.96</course>
  <speed>1.2</speed>
  <fix>3d</fix>
</trkpt>
<trkpt lat="40.0709709" lon="-105.2291834">
  <ele>1582.99</ele>
  <time>2026-09-02T20:50:53Z</time>
  <course>64.05</course>
  <speed>1.189663818059539</speed>
  <fix>3d</fix>
</trkpt>
<trkpt lat="40.0709698" lon="-105.2291859">
  <ele>1582.99</ele>
  <time>2026-09-02T20:50:53Z</time>
  <course>63.96</course>
  <speed>1.2</speed>
  <fix>3d</fix>
</trkpt>
<trkpt lat="40.0709712" lon="-105.229182">
  <ele>1582.99</ele>
  <time>2026-09-02T20:50:53Z</time>
  <course>64.06</course>
  <speed>1.189663818059539</speed>
  <fix>3d</fix>
</trkpt>
<trkpt lat="40.0709708" lon="-105.2291833">
  <ele>1582.99</ele>
  <time>2026-09-02T20:50:53Z</time>
  <course>63.97</course>
  <speed>1.2</speed>
  <fix>3d</fix>
</trkpt>
<trkpt lat="40.0709717" lon="-105.2291808">
  <ele>1582.99</ele>
  <time>2026-09-02T20:50:53Z</time>
  <course>64.06</course>
  <speed>1.189663818059539</speed>
  <fix>3d</fix>
</trkpt>
<trkpt lat="40.0709708" lon="-105.2291833">
  <ele>1582.99</ele>
  <time>2026-09-02T20:50:53Z</time>
  <course>63.97</course>
  <speed>1.2</speed>
  <fix>3d</fix>
</trkpt>
<trkpt lat="40.0709723" lon="-105.2291796">
  <ele>1583.0</ele>
  <time>2026-09-02T20:50:53Z</time>
  <course>64.06</course>
  <speed>1.189663818059539</speed>
  <fix>3d</fix>
</trkpt>
<trkpt lat="40.0709717" lon="-105.2291808">
  <ele>1582.99</ele>
  <time>2026-09-02T20:50:53Z</time>
  <course>63.97</course>
  <speed>1.19</speed>
  <fix>3d</fix>
</trkpt>
<trkpt lat="40.0709728" lon="-105.2291783">
  <ele>1582.99</ele>
  <time>2026-09-02T20:50:53Z</time>
  <course>64.06</course>
  <speed>1.189663818059539</speed>
  <fix>3d</fix>
</trkpt>
<trkpt lat="40.0709717" lon="-105.2291808">
  <ele>1582.99</ele>
  <time>2026-09-02T20:50:53Z</time>
  <course>63.97</course>
  <speed>1.19</speed>
  <fix>3d</fix>
</trkpt>
<trkpt lat="40.0709732" lon="-105.2291771">
  <ele>1582.99</ele>
  <time>2026-09-02T20:50:53Z</time>
  <course>64.07</course>
  <speed>1.189663818059539</speed>
  <fix>3d</fix>
</trkpt>
<trkpt lat="40.0709727" lon="-105.2291783">
  <ele>1582.99</ele>
  <time>2026-09-02T20:50:53Z</time>
  <course>63.98</course>
  <speed>1.19</speed>
  <fix>3d</fix>
</trkpt>
<trkpt lat="40.0709736" lon="-105.2291757">
  <ele>1582.99</ele>
  <time>2026-09-02T20:50:53Z</time>
  <course>64.06</course>
  <speed>1.189663818059539</speed>
  <fix>3d</fix>
</trkpt>
<trkpt lat="40.0709727" lon="-105.2291783">
  <ele>1582.99</ele>
  <time>2026-09-02T20:50:53Z</time>
  <course>63.98</course>
  <speed>1.19</speed>
  <fix>3d</fix>
</trkpt>
<trkpt lat="40.0709741" lon="-105.2291745">
  <ele>1582.99</ele>
  <time>2026-09-02T20:50:53Z</time>
  <course>64.07</course>
  <speed>1.189663818059539</speed>
  <fix>3d</fix>
</trkpt>
<trkpt lat="40.0709736" lon="-105.2291758">
  <ele>1582.99</ele>
  <time>2026-09-02T20:50:53Z</time>
  <course>63.98</course>
  <speed>1.2</speed>
  <fix>3d</fix>
</trkpt>
<trkpt lat="40.0709746" lon="-105.2291733">
  <ele>1582.99</ele>
  <time>2026-09-02T20:50:53Z</time>
  <course>64.07</course>
  <speed>1.189663818059539</speed>
  <fix>3d</fix>
</trkpt>
<trkpt lat="40.0709736" lon="-105.2291758">
  <ele>1582.99</ele>
  <time>2026-09-02T20:50:53Z</time>
  <course>63.98</course>
  <speed>1.2</speed>
  <fix>3d</fix>
</trkpt>
<trkpt lat="40.0709752" lon="-105.2291717">
  <ele>1583.0</ele>
  <time>2026-09-02T20:50:53Z</time>
  <course>64.07</course>
  <speed>1.189663818059539</speed>
  <fix>3d</fix>
</trkpt>
<trkpt lat="40.0709746" lon="-105.2291732">
  <ele>1582.99</ele>
  <time>2026-09-02T20:50:53Z</time>
  <course>63.98</course>
  <speed>1.2</speed>
  <fix>3d</fix>
</trkpt>
<trkpt lat="40.0709757" lon="-105.2291705">
  <ele>1582.99</ele>
  <time>2026-09-02T20:50:53Z</time>
  <course>64.07</course>
  <speed>1.189663818059539</speed>
  <fix>3d</fix>
</trkpt>
<trkpt lat="40.0709746" lon="-105.2291732">
  <ele>1582.99</ele>
  <time>2026-09-02T20:50:53Z</time>
  <course>63.98</course>
  <speed>1.2</speed>
  <fix>3d</fix>
</trkpt>
<trkpt lat="40.0709761" lon="-105.2291692">
  <ele>1582.99</ele>
  <time>2026-09-02T20:50:53Z</time>
  <course>64.07</course>
  <speed>1.189663818059539</speed>
  <fix>3d</fix>
</trkpt>
<trkpt lat="40.0709756" lon="-105.2291707">
  <ele>1582.99</ele>
  <time>2026-09-02T20:50:53Z</time>
  <course>63.98</course>
  <speed>1.2</speed>
  <fix>3d</fix>
</trkpt>
<trkpt lat="40.0709766" lon="-105.2291678">
  <ele>1582.99</ele>
  <time>2026-09-02T20:50:53Z</time>
  <course>64.07</course>
  <speed>1.1986659251017358</speed>
  <fix>3d</fix>
</trkpt>
<trkpt lat="40.0709756" lon="-105.2291707">
  <ele>1582.99</ele>
  <time>2026-09-02T20:50:53Z</time>
  <course>63.98</course>
  <speed>1.2</speed>
  <fix>3d</fix>
</trkpt>
<trkpt lat="40.0709771" lon="-105.2291666">
  <ele>1582.99</ele>
  <time>2026-09-02T20:50:53Z</time>
  <course>64.07</course>
  <speed>1.189663818059539</speed>
  <fix>3d</fix>
</trkpt>
<trkpt lat="40.0709765" lon="-105.2291682">
  <ele>1582.99</ele>
  <time>2026-09-02T20:50:53Z</time>
  <course>63.99</course>
  <speed>1.19</speed>
  <fix>3d</fix>
</trkpt>
<trkpt lat="40.0709776" lon="-105.2291654">
  <ele>1582.99</ele>
  <time>2026-09-02T20:50:53Z</time>
  <course>64.07</course>
  <speed>1.2030378215168467</speed>
  <fix>3d</fix>
</trkpt>
<trkpt lat="40.0709765" lon="-105.2291682">
  <ele>1582.99</ele>
  <time>2026-09-02T20:50:53Z</time>
  <course>63.99</course>
  <speed>1.19</speed>
  <fix>3d</fix>
</trkpt>
<trkpt lat="40.0709779" lon="-105.229164">
  <ele>1582.99</ele>
  <time>2026-09-02T20:50:53Z</time>
  <course>64.08</course>
  <speed>1.189663818059539</speed>
  <fix>3d</fix>
</trkpt>
<trkpt lat="40.0709775" lon="-105.2291656">
  <ele>1582.99</ele>
  <time>2026-09-02T20:50:53Z</time>
  <course>63.99</course>
  <speed>1.19</speed>
  <fix>3d</fix>
</trkpt>
<trkpt lat="40.0709784" lon="-105.2291628">
  <ele>1582.99</ele>
  <time>2026-09-02T20:50:53Z</time>
  <course>64.08</course>
  <speed>1.1986659251017358</speed>
  <fix>3d</fix>
</trkpt>
<trkpt lat="40.0709775" lon="-105.2291656">
  <ele>1582.99</ele>
  <time>2026-09-02T20:50:53Z</time>
  <course>63.99</course>
  <speed>1.19</speed>
  <fix>3d</fix>
</trkpt>
<trkpt lat="40.070979" lon="-105.2291616">
  <ele>1582.99</ele>
  <time>2026-09-02T20:50:53Z</time>
  <course>64.08</course>
  <speed>1.189663818059539</speed>
  <fix>3d</fix>
</trkpt>
<trkpt lat="40.0709784" lon="-105.2291631">
  <ele>1582.99</ele>
  <time>2026-09-02T20:50:53Z</time>
  <course>63.99</course>
  <speed>1.19</speed>
  <fix>3d</fix>
</trkpt>
<trkpt lat="40.0709795" lon="-105.2291602">
  <ele>1582.99</ele>
  <time>2026-09-02T20:50:53Z</time>
  <course>64.08</course>
  <speed>1.1986659251017358</speed>
  <fix>3d</fix>
</trkpt>
<trkpt lat="40.0709784" lon="-105.2291631">
  <ele>1582.99</ele>
  <time>2026-09-02T20:50:53Z</time>
  <course>63.99</course>
  <speed>1.19</speed>
  <fix>3d</fix>
</trkpt>
<trkpt lat="40.0709799" lon="-105.229159">
  <ele>1582.99</ele>
  <time>2026-09-02T20:50:53Z</time>
  <course>64.08</course>
  <speed>1.189663818059539</speed>
  <fix>3d</fix>
</trkpt>
<trkpt lat="40.0709793" lon="-105.2291606">
  <ele>1582.99</ele>
  <time>2026-09-02T20:50:53Z</time>
  <course>64.0</course>
  <speed>1.19</speed>
  <fix>3d</fix>
</trkpt>
<trkpt lat="40.0709802" lon="-105.229158">
  <ele>1582.99</ele>
  <time>2026-09-02T20:50:53Z</time>
  <course>64.08</course>
  <speed>1.1986659251017358</speed>
  <fix>3d</fix>
</trkpt>
<trkpt lat="40.0709793" lon="-105.2291606">
  <ele>1582.99</ele>
  <time>2026-09-02T20:50:53Z</time>
  <course>64.0</course>
  <speed>1.19</speed>
  <fix>3d</fix>
</trkpt>
<trkpt lat="40.0709808" lon="-105.2291568">
  <ele>1582.99</ele>
  <time>2026-09-02T20:50:53Z</time>
  <course>64.08</course>
  <speed>1.189663818059539</speed>
  <fix>3d</fix>
</trkpt>
<trkpt lat="40.0709803" lon="-105.229158">
  <ele>1582.99</ele>
  <time>2026-09-02T20:50:53Z</time>
  <course>64.0</course>
  <speed>1.19</speed>
  <fix>3d</fix>
</trkpt>
<trkpt lat="40.0709813" lon="-105.2291554">
  <ele>1582.99</ele>
  <time>2026-09-02T20:50:53Z</time>
  <course>64.08</course>
  <speed>1.1986659251017358</speed>
  <fix>3d</fix>
</trkpt>
<trkpt lat="40.0709803" lon="-105.229158">
  <ele>1582.99</ele>
  <time>2026-09-02T20:50:53Z</time>
  <course>64.0</course>
  <speed>1.19</speed>
  <fix>3d</fix>
</trkpt>
<trkpt lat="40.0709817" lon="-105.2291542">
  <ele>1582.99</ele>
  <time>2026-09-02T20:50:53Z</time>
  <course>64.08</course>
  <speed>1.189663818059539</speed>
  <fix>3d</fix>
</trkpt>
<trkpt lat="40.0709812" lon="-105.2291555">
  <ele>1582.99</ele>
  <time>2026-09-02T20:50:53Z</time>
  <course>64.0</course>
  <speed>1.19</speed>
  <fix>3d</fix>
</trkpt>
<trkpt lat="40.0709821" lon="-105.229153">
  <ele>1582.99</ele>
  <time>2026-09-02T20:50:53Z</time>
  <course>64.08</course>
  <speed>1.189663818059539</speed>
  <fix>3d</fix>
</trkpt>
<trkpt lat="40.0709812" lon="-105.2291555">
  <ele>1582.99</ele>
  <time>2026-09-02T20:50:53Z</time>
  <course>64.0</course>
  <speed>1.19</speed>
  <fix>3d</fix>
</trkpt>
<trkpt lat="40.0709826" lon="-105.2291516">
  <ele>1582.99</ele>
  <time>2026-09-02T20:50:53Z</time>
  <course>64.08</course>
  <speed>1.189663818059539</speed>
  <fix>3d</fix>
</trkpt>
<trkpt lat="40.0709821" lon="-105.229153">
  <ele>1582.99</ele>
  <time>2026-09-02T20:50:53Z</time>
  <course>64.0</course>
  <speed>1.19</speed>
  <fix>3d</fix>
</trkpt>
<trkpt lat="40.0709832" lon="-105.2291504">
  <ele>1582.99</ele>
  <time>2026-09-02T20:50:53Z</time>
  <course>64.09</course>
  <speed>1.189663818059539</speed>
  <fix>3d</fix>
</trkpt>
<trkpt lat="40.0709821" lon="-105.229153">
  <ele>1582.99</ele>
  <time>2026-09-02T20:50:53Z</time>
  <course>64.0</course>
  <speed>1.19</speed>
  <fix>3d</fix>
</trkpt>
<trkpt lat="40.0709836" lon="-105.2291492">
  <ele>1582.99</ele>
  <time>2026-09-02T20:50:53Z</time>
  <course>64.08</course>
  <speed>1.1986659251017358</speed>
  <fix>3d</fix>
</trkpt>
<trkpt lat="40.0709831" lon="-105.2291504">
  <ele>1582.99</ele>
  <time>2026-09-02T20:50:53Z</time>
  <course>64.0</course>
  <speed>1.2</speed>
  <fix>3d</fix>
</trkpt>
<trkpt lat="40.070984" lon="-105.2291479">
  <ele>1582.99</ele>
  <time>2026-09-02T20:50:53Z</time>
  <course>64.08</course>
  <speed>1.189663818059539</speed>
  <fix>3d</fix>
</trkpt>
<trkpt lat="40.0709831" lon="-105.2291504">
  <ele>1582.99</ele>
  <time>2026-09-02T20:50:53Z</time>
  <course>64.0</course>
  <speed>1.2</speed>
  <fix>3d</fix>
</trkpt>
<trkpt lat="40.0709845" lon="-105.2291467">
  <ele>1582.99</ele>
  <time>2026-09-02T20:50:53Z</time>
  <course>64.09</course>
  <speed>1.189663818059539</speed>
  <fix>3d</fix>
</trkpt>
<trkpt lat="40.070984" lon="-105.2291479">
  <ele>1582.99</ele>
  <time>2026-09-02T20:50:53Z</time>
  <course>64.0</course>
  <speed>1.2</speed>
  <fix>3d</fix>
</trkpt>
<trkpt lat="40.0709851" lon="-105.2291451">
  <ele>1582.99</ele>
  <time>2026-09-02T20:50:53Z</time>
  <course>64.09</course>
  <speed>1.189663818059539</speed>
  <fix>3d</fix>
</trkpt>
<trkpt lat="40.070984" lon="-105.2291479">
  <ele>1582.99</ele>
  <time>2026-09-02T20:50:53Z</time>
  <course>64.0</course>
  <speed>1.2</speed>
  <fix>3d</fix>
</trkpt>
<trkpt lat="40.0709856" lon="-105.2291439">
  <ele>1582.99</ele>
  <time>2026-09-02T20:50:53Z</time>
  <course>64.08</course>
  <speed>1.1986659251017358</speed>
  <fix>3d</fix>
</trkpt>
<trkpt lat="40.070985" lon="-105.2291453">
  <ele>1582.99</ele>
  <time>2026-09-02T20:50:53Z</time>
  <course>64.0</course>
  <speed>1.2</speed>
  <fix>3d</fix>
</trkpt>
<trkpt lat="40.0709861" lon="-105.2291425">
  <ele>1582.99</ele>
  <time>2026-09-02T20:50:53Z</time>
  <course>64.09</course>
  <speed>1.189663818059539</speed>
  <fix>3d</fix>
</trkpt>
<trkpt lat="40.070985" lon="-105.2291453">
  <ele>1582.99</ele>
  <time>2026-09-02T20:50:53Z</time>
  <course>64.0</course>
  <speed>1.2</speed>
  <fix>3d</fix>
</trkpt>
<trkpt lat="40.0709866" lon="-105.2291413">
  <ele>1582.99</ele>
  <time>2026-09-02T20:50:53Z</time>
  <course>64.09</course>
  <speed>1.1986659251017358</speed>
  <fix>3d</fix>
</trkpt>
<trkpt lat="40.070986" lon="-105.2291428">
  <ele>1582.99</ele>
  <time>2026-09-02T20:50:53Z</time>
  <course>64.0</course>
  <speed>1.2</speed>
  <fix>3d</fix>
</trkpt>
<trkpt lat="40.0709869" lon="-105.2291401">
  <ele>1582.99</ele>
  <time>2026-09-02T20:50:53Z</time>
  <course>64.09</course>
  <speed>1.189663818059539</speed>
  <fix>3d</fix>
</trkpt>
<trkpt lat="40.070986" lon="-105.2291428">
  <ele>1582.99</ele>
  <time>2026-09-02T20:50:53Z</time>
  <course>64.0</course>
  <speed>1.2</speed>
  <fix>3d</fix>
</trkpt>
<trkpt lat="40.0709875" lon="-105.2291388">
  <ele>1582.99</ele>
  <time>2026-09-02T20:50:53Z</time>
  <course>64.09</course>
  <speed>1.1986659251017358</speed>
  <fix>3d</fix>
</trkpt>
<trkpt lat="40.0709869" lon="-105.2291403">
  <ele>1582.99</ele>
  <time>2026-09-02T20:50:53Z</time>
  <course>64.01</course>
  <speed>1.2</speed>
  <fix>3d</fix>
</trkpt>
<trkpt lat="40.070988" lon="-105.2291376">
  <ele>1582.99</ele>
  <time>2026-09-02T20:50:53Z</time>
  <course>64.09</course>
  <speed>1.189663818059539</speed>
  <fix>3d</fix>
</trkpt>
<trkpt lat="40.0709869" lon="-105.2291403">
  <ele>1582.99</ele>
  <time>2026-09-02T20:50:53Z</time>
  <course>64.01</course>
  <speed>1.2</speed>
  <fix>3d</fix>
</trkpt>
<trkpt lat="40.0709884" lon="-105.2291362">
  <ele>1582.99</ele>
  <time>2026-09-02T20:50:53Z</time>
  <course>64.09</course>
  <speed>1.1986659251017358</speed>
  <fix>3d</fix>
</trkpt>
<trkpt lat="40.0709879" lon="-105.2291377">
  <ele>1582.99</ele>
  <time>2026-09-02T20:50:53Z</time>
  <course>64.01</course>
  <speed>1.2</speed>
  <fix>3d</fix>
</trkpt>
<trkpt lat="40.0709888" lon="-105.229135">
  <ele>1582.99</ele>
  <time>2026-09-02T20:50:53Z</time>
  <course>64.09</course>
  <speed>1.189663818059539</speed>
  <fix>3d</fix>
</trkpt>
<trkpt lat="40.0709879" lon="-105.2291377">
  <ele>1582.99</ele>
  <time>2026-09-02T20:50:53Z</time>
  <course>64.01</course>
  <speed>1.2</speed>
  <fix>3d</fix>
</trkpt>
<trkpt lat="40.0709893" lon="-105.2291338">
  <ele>1582.99</ele>
  <time>2026-09-02T20:50:53Z</time>
  <course>64.1</course>
  <speed>1.1986659251017358</speed>
  <fix>3d</fix>
</trkpt>
<trkpt lat="40.0709888" lon="-105.2291352">
  <ele>1582.99</ele>
  <time>2026-09-02T20:50:53Z</time>
  <course>64.01</course>
  <speed>1.2</speed>
  <fix>3d</fix>
</trkpt>
<trkpt lat="40.0709899" lon="-105.2291324">
  <ele>1582.99</ele>
  <time>2026-09-02T20:50:53Z</time>
  <course>64.07</course>
  <speed>1.189663818059539</speed>
  <fix>3d</fix>
</trkpt>
<trkpt lat="40.0709888" lon="-105.2291352">
  <ele>1582.99</ele>
  <time>2026-09-02T20:50:53Z</time>
  <course>64.01</course>
  <speed>1.2</speed>
  <fix>3d</fix>
</trkpt>
<trkpt lat="40.0709902" lon="-105.2291315">
  <ele>1582.99</ele>
  <time>2026-09-02T20:50:53Z</time>
  <course>63.85</course>
  <speed>1.2030378215168467</speed>
  <fix>3d</fix>
</trkpt>
<trkpt lat="40.0709897" lon="-105.2291327">
  <ele>1582.99</ele>
  <time>2026-09-02T20:50:53Z</time>
  <course>63.89</course>
  <speed>1.2</speed>
  <fix>3d</fix>
</trkpt>
<trkpt lat="40.0709906" lon="-105.2291302">
  <ele>1582.99</ele>
  <time>2026-09-02T20:50:53Z</time>
  <course>63.3</course>
  <speed>1.1985407794480754</speed>
  <fix>3d</fix>
</trkpt>
<trkpt lat="40.0709897" lon="-105.2291327">
  <ele>1582.99</ele>
  <time>2026-09-02T20:50:53Z</time>
  <course>63.89</course>
  <speed>1.2</speed>
  <fix>3d</fix>
</trkpt>
<trkpt lat="40.0709912" lon="-105.2291288">
  <ele>1582.99</ele>
  <time>2026-09-02T20:50:53Z</time>
  <course>62.4</course>
  <speed>1.2076837334335508</speed>
  <fix>3d</fix>
</trkpt>
<trkpt lat="40.0709906" lon="-105.2291301">
  <ele>1582.99</ele>
  <time>2026-09-02T20:50:53Z</time>
  <course>63.03</course>
  <speed>1.21</speed>
  <fix>3d</fix>
</trkpt>
<trkpt lat="40.0709917" lon="-105.2291276">
  <ele>1582.99</ele>
  <time>2026-09-02T20:50:53Z</time>
  <course>61.08</course>
  <speed>1.1636150566231085</speed>
  <fix>3d</fix>
</trkpt>
<trkpt lat="40.0709906" lon="-105.2291301">
  <ele>1582.99</ele>
  <time>2026-09-02T20:50:53Z</time>
  <course>63.03</course>
  <speed>1.21</speed>
  <fix>3d</fix>
</trkpt>
<trkpt lat="40.0709922" lon="-105.2291264">
  <ele>1582.99</ele>
  <time>2026-09-02T20:50:53Z</time>
  <course>59.27</course>
  <speed>1.1438968484964018</speed>
  <fix>3d</fix>
</trkpt>
<trkpt lat="40.0709917" lon="-105.2291276">
  <ele>1582.99</ele>
  <time>2026-09-02T20:50:53Z</time>
  <course>60.78</course>
  <speed>1.18</speed>
  <fix>3d</fix>
</trkpt>
<trkpt lat="40.0709928" lon="-105.2291254">
  <ele>1582.99</ele>
  <time>2026-09-02T20:50:53Z</time>
  <course>56.84</course>
  <speed>1.0761505470890214</speed>
  <fix>3d</fix>
</trkpt>
<trkpt lat="40.0709917" lon="-105.2291276">
  <ele>1582.99</ele>
  <time>2026-09-02T20:50:53Z</time>
  <course>60.78</course>
  <speed>1.18</speed>
  <fix>3d</fix>
</trkpt>
<trkpt lat="40.0709933" lon="-105.2291243">
  <ele>1582.99</ele>
  <time>2026-09-02T20:50:53Z</time>
  <course>53.7</course>
  <speed>1.016070863670443</speed>
  <fix>3d</fix>
</trkpt>
<trkpt lat="40.0709927" lon="-105.2291254">
  <ele>1582.99</ele>
  <time>2026-09-02T20:50:53Z</time>
  <course>56.55</course>
  <speed>1.08</speed>
  <fix>3d</fix>
</trkpt>
<trkpt lat="40.0709937" lon="-105.2291235">
  <ele>1582.99</ele>
  <time>2026-09-02T20:50:53Z</time>
  <course>49.87</course>
  <speed>0.9078546139112804</speed>
  <fix>3d</fix>
</trkpt>
<trkpt lat="40.0709927" lon="-105.2291254">
  <ele>1582.99</ele>
  <time>2026-09-02T20:50:53Z</time>
  <course>56.55</course>
  <speed>1.08</speed>
  <fix>3d</fix>
</trkpt>
<trkpt lat="40.0709943" lon="-105.2291228">
  <ele>1582.99</ele>
  <time>2026-09-02T20:50:53Z</time>
  <course>45.25</course>
  <speed>0.8343860018001261</speed>
  <fix>3d</fix>
</trkpt>
<trkpt lat="40.0709938" lon="-105.2291236">
  <ele>1582.99</ele>
  <time>2026-09-02T20:50:53Z</time>
  <course>49.78</course>
  <speed>0.92</speed>
  <fix>3d</fix>
</trkpt>
<trkpt lat="40.0709948" lon="-105.2291221">
  <ele>1582.99</ele>
  <time>2026-09-02T20:50:53Z</time>
  <course>39.83</course>
  <speed>0.7247068372797375</speed>
  <fix>3d</fix>
</trkpt>
<trkpt lat="40.0709938" lon="-105.2291236">
  <ele>1582.99</ele>
  <time>2026-09-02T20:50:53Z</time>
  <course>49.78</course>
  <speed>0.92</speed>
  <fix>3d</fix>
</trkpt>
<trkpt lat="40.0709954" lon="-105.2291216">
  <ele>1582.99</ele>
  <time>2026-09-02T20:50:53Z</time>
  <course>32.43</course>
  <speed>0.6243396511515187</speed>
  <fix>3d</fix>
</trkpt>
<trkpt lat="40.0709949" lon="-105.2291222">
  <ele>1582.99</ele>
  <time>2026-09-02T20:50:53Z</time>
  <course>40.1</course>
  <speed>0.74</speed>
  <fix>3d</fix>
</trkpt>
<trkpt lat="40.0709959" lon="-105.2291212">
  <ele>1582.99</ele>
  <time>2026-09-02T20:50:53Z</time>
  <course>25.82</course>
  <speed>0.563648826841678</speed>
  <fix>3d</fix>
</trkpt>
<trkpt lat="40.0709949" lon="-105.2291222">
  <ele>1582.99</ele>
  <time>2026-09-02T20:50:53Z</time>
  <course>40.1</course>
  <speed>0.74</speed>
  <fix>3d</fix>
</trkpt>
<trkpt lat="40.0709964" lon="-105.2291209">
  <ele>1582.99</ele>
  <time>2026-09-02T20:50:53Z</time>
  <course>19.25</course>
  <speed>0.5502726596879042</speed>
  <fix>3d</fix>
</trkpt>
<trkpt lat="40.0709958" lon="-105.2291214">
  <ele>1582.99</ele>
  <time>2026-09-02T20:50:53Z</time>
  <course>27.62</course>
  <speed>0.6</speed>
  <fix>3d</fix>
</trkpt>
<trkpt lat="40.0709969" lon="-105.2291207">
  <ele>1583.0</ele>
  <time>2026-09-02T20:50:53Z</time>
  <course>12.92</course>
  <speed>0.5727128425310541</speed>
  <fix>3d</fix>
</trkpt>
<trkpt lat="40.0709958" lon="-105.2291214">
  <ele>1582.99</ele>
  <time>2026-09-02T20:50:53Z</time>
  <course>27.62</course>
  <speed>0.6</speed>
  <fix>3d</fix>
</trkpt>
<trkpt lat="40.0709973" lon="-105.2291207">
  <ele>1582.99</ele>
  <time>2026-09-02T20:50:53Z</time>
  <course>6.89</course>
  <speed>0.6338769596696191</speed>
  <fix>3d</fix>
</trkpt>
<trkpt lat="40.0709967" lon="-105.2291209">
  <ele>1582.99</ele>
  <time>2026-09-02T20:50:53Z</time>
  <course>13.92</course>
  <speed>0.59</speed>
  <fix>3d</fix>
</trkpt>
<trkpt lat="40.0709979" lon="-105.2291207">
  <ele>1582.99</ele>
  <time>2026-09-02T20:50:53Z</time>
  <course>1.25</course>
  <speed>0.7300684899377592</speed>
  <fix>3d</fix>
</trkpt>
<trkpt lat="40.0709967" lon="-105.2291209">
  <ele>1582.99</ele>
  <time>2026-09-02T20:50:53Z</time>
  <course>13.92</course>
  <speed>0.59</speed>
  <fix>3d</fix>
</trkpt>
<trkpt lat="40.0709988" lon="-105.2291207">
  <ele>1582.99</ele>
  <time>2026-09-02T20:50:53Z</time>
  <course>356.1</course>
  <speed>0.8514693182963201</speed>
  <fix>3d</fix>
</trkpt>
<trkpt lat="40.0709979" lon="-105.2291207">
  <ele>1582.99</ele>
  <time>2026-09-02T20:50:53Z</time>
  <course>1.83</course>
  <speed>0.73</speed>
  <fix>3d</fix>
</trkpt>
<trkpt lat="40.0709996" lon="-105.2291207">
  <ele>1582.99</ele>
  <time>2026-09-02T20:50:53Z</time>
  <course>351.58</course>
  <speed>0.9800510190801294</speed>
  <fix>3d</fix>
</trkpt>
<trkpt lat="40.0709979" lon="-105.2291207">
  <ele>1582.99</ele>
  <time>2026-09-02T20:50:53Z</time>
  <course>1.83</course>
  <speed>0.73</speed>
  <fix>3d</fix>
</trkpt>
<trkpt lat="40.0710004" lon="-105.2291209">
  <ele>1582.99</ele>
  <time>2026-09-02T20:50:53Z</time>
  <course>347.65</course>
  <speed>1.1140017953306898</speed>
  <fix>3d</fix>
</trkpt>
<trkpt lat="40.0709995" lon="-105.2291208">
  <ele>1582.99</ele>
  <time>2026-09-02T20:50:53Z</time>
  <course>352.19</course>
  <speed>0.97</speed>
  <fix>3d</fix>
</trkpt>
<trkpt lat="40.0710015" lon="-105.2291212">
  <ele>1582.99</ele>
  <time>2026-09-02T20:50:53Z</time>
  <course>344.25</course>
  <speed>1.225275479229059</speed>
  <fix>3d</fix>
</trkpt>
<trkpt lat="40.0709995" lon="-105.2291208">
  <ele>1582.99</ele>
  <time>2026-09-02T20:50:53Z</time>
  <course>352.19</course>
  <speed>0.97</speed>
  <fix>3d</fix>
</trkpt>
<trkpt lat="40.0710027" lon="-105.2291216">
  <ele>1582.99</ele>
  <time>2026-09-02T20:50:53Z</time>
  <course>341.32</course>
  <speed>1.3281566172707193</speed>
  <fix>3d</fix>
</trkpt>
<trkpt lat="40.0710014" lon="-105.2291212">
  <ele>1582.99</ele>
  <time>2026-09-02T20:50:53Z</time>
  <course>344.86</course>
  <speed>1.21</speed>
  <fix>3d</fix>
</trkpt>
<trkpt lat="40.0710036" lon="-105.2291221">
  <ele>1582.99</ele>
  <time>2026-09-02T20:50:53Z</time>
  <course>339.27</course>
  <speed>1.344804818551748</speed>
  <fix>3d</fix>
</trkpt>
<trkpt lat="40.0710014" lon="-105.2291212">
  <ele>1582.99</ele>
  <time>2026-09-02T20:50:53Z</time>
  <course>344.86</course>
  <speed>1.21</speed>
  <fix>3d</fix>
</trkpt>
<trkpt lat="40.0710048" lon="-105.2291226">
  <ele>1582.99</ele>
  <time>2026-09-02T20:50:53Z</time>
  <course>337.13</course>
  <speed>1.420774436706967</speed>
  <fix>3d</fix>
</trkpt>
<trkpt lat="40.0710036" lon="-105.2291221">
  <ele>1582.99</ele>
  <time>2026-09-02T20:50:53Z</time>
  <course>339.47</course>
  <speed>1.37</speed>
  <fix>3d</fix>
</trkpt>
<trkpt lat="40.0710058" lon="-105.2291233">
  <ele>1583.0</ele>
  <time>2026-09-02T20:50:53Z</time>
  <course>335.34</course>
  <speed>1.3961733416735902</speed>
  <fix>3d</fix>
</trkpt>
<trkpt lat="40.0710036" lon="-105.2291221">
  <ele>1582.99</ele>
  <time>2026-09-02T20:50:53Z</time>
  <course>339.47</course>
  <speed>1.37</speed>
  <fix>3d</fix>
</trkpt>
<trkpt lat="40.071007" lon="-105.229124">
  <ele>1583.0</ele>
  <time>2026-09-02T20:50:53Z</time>
  <course>333.65</course>
  <speed>1.4176741515595181</speed>
  <fix>3d</fix>
</trkpt>
<trkpt lat="40.0710059" lon="-105.2291233">
  <ele>1582.99</ele>
  <time>2026-09-02T20:50:53Z</time>
  <course>335.45</course>
  <speed>1.42</speed>
  <fix>3d</fix>
</trkpt>
<trkpt lat="40.0710082" lon="-105.2291249">
  <ele>1583.0</ele>
  <time>2026-09-02T20:50:53Z</time>
  <course>332.08</course>
  <speed>1.377679207943562</speed>
  <fix>3d</fix>
</trkpt>
<trkpt lat="40.0710059" lon="-105.2291233">
  <ele>1582.99</ele>
  <time>2026-09-02T20:50:53Z</time>
  <course>335.45</course>
  <speed>1.42</speed>
  <fix>3d</fix>
</trkpt>
<trkpt lat="40.0710093" lon="-105.2291255">
  <ele>1582.99</ele>
  <time>2026-09-02T20:50:53Z</time>
  <course>330.61</course>
  <speed>1.3656500283747663</speed>
  <fix>3d</fix>
</trkpt>
<trkpt lat="40.0710081" lon="-105.2291248">
  <ele>1582.99</ele>
  <time>2026-09-02T20:50:53Z</time>
  <course>332.22</course>
  <speed>1.39</speed>
  <fix>3d</fix>
</trkpt>
<trkpt lat="40.0710103" lon="-105.2291264">
  <ele>1582.99</ele>
  <time>2026-09-02T20:50:53Z</time>
  <course>329.25</course>
  <speed>1.3136970731489053</speed>
  <fix>3d</fix>
</trkpt>
<trkpt lat="40.0710081" lon="-105.2291248">
  <ele>1582.99</ele>
  <time>2026-09-02T20:50:53Z</time>
  <course>332.22</course>
  <speed>1.39</speed>
  <fix>3d</fix>
</trkpt>
<trkpt lat="40.0710112" lon="-105.2291271">
  <ele>1582.99</ele>
  <time>2026-09-02T20:50:53Z</time>
  <course>327.99</course>
  <speed>1.293213052826177</speed>
  <fix>3d</fix>
</trkpt>
<trkpt lat="40.0710103" lon="-105.2291263">
  <ele>1582.99</ele>
  <time>2026-09-02T20:50:53Z</time>
  <course>329.4</course>
  <speed>1.33</speed>
  <fix>3d</fix>
</trkpt>
<trkpt lat="40.0710123" lon="-105.2291279">
  <ele>1582.99</ele>
  <time>2026-09-02T20:50:53Z</time>
  <course>326.84</course>
  <speed>1.2425779653607254</speed>
  <fix>3d</fix>
</trkpt>
<trkpt lat="40.0710103" lon="-105.2291263">
  <ele>1582.99</ele>
  <time>2026-09-02T20:50:53Z</time>
  <course>329.4</course>
  <speed>1.33</speed>
  <fix>3d</fix>
</trkpt>
<trkpt lat="40.0710131" lon="-105.2291288">
  <ele>1582.99</ele>
  <time>2026-09-02T20:50:53Z</time>
  <course>325.77</course>
  <speed>1.2314625451064274</speed>
  <fix>3d</fix>
</trkpt>
<trkpt lat="40.0710122" lon="-105.229128">
  <ele>1582.99</ele>
  <time>2026-09-02T20:50:53Z</time>
  <course>326.97</course>
  <speed>1.26</speed>
  <fix>3d</fix>
</trkpt>
<trkpt lat="40.0710143" lon="-105.2291298">
  <ele>1582.99</ele>
  <time>2026-09-02T20:50:53Z</time>
  <course>324.6</course>
  <speed>1.1764352935882194</speed>
  <fix>3d</fix>
</trkpt>
<trkpt lat="40.0710122" lon="-105.229128">
  <ele>1582.99</ele>
  <time>2026-09-02T20:50:53Z</time>
  <course>326.97</course>
  <speed>1.26</speed>
  <fix>3d</fix>
</trkpt>
<trkpt lat="40.0710152" lon="-105.2291305">
  <ele>1582.99</ele>
  <time>2026-09-02T20:50:53Z</time>
  <course>323.73</course>
  <speed>1.1741379816699569</speed>
  <fix>3d</fix>
</trkpt>
<trkpt lat="40.0710141" lon="-105.2291296">
  <ele>1582.99</ele>
  <time>2026-09-02T20:50:53Z</time>
  <course>324.91</course>
  <speed>1.21</speed>
  <fix>3d</fix>
</trkpt>
<trkpt lat="40.071016" lon="-105.2291314">
  <ele>1582.99</ele>
  <time>2026-09-02T20:50:53Z</time>
  <course>322.93</course>
  <speed>1.1420157617125957</speed>
  <fix>3d</fix>
</trkpt>
<trkpt lat="40.0710141" lon="-105.2291296">
  <ele>1582.99</ele>
  <time>2026-09-02T20:50:53Z</time>
  <course>324.91</course>
  <speed>1.21</speed>
  <fix>3d</fix>
</trkpt>
<trkpt lat="40.0710167" lon="-105.2291322">
  <ele>1582.99</ele>
  <time>2026-09-02T20:50:53Z</time>
  <course>322.22</course>
  <speed>1.1480853626799707</speed>
  <fix>3d</fix>
</trkpt>
<trkpt lat="40.0710158" lon="-105.2291313">
  <ele>1582.99</ele>
  <time>2026-09-02T20:50:53Z</time>
  <course>323.2</course>
  <speed>1.17</speed>
  <fix>3d</fix>
</trkpt>
<trkpt lat="40.0710176" lon="-105.2291331">
  <ele>1582.99</ele>
  <time>2026-09-02T20:50:53Z</time>
  <course>321.58</course>
  <speed>1.1322985472038725</speed>
  <fix>3d</fix>
</trkpt>
<trkpt lat="40.0710158" lon="-105.2291313">
  <ele>1582.99</ele>
  <time>2026-09-02T20:50:53Z</time>
  <course>323.2</course>
  <speed>1.17</speed>
  <fix>3d</fix>
</trkpt>
<trkpt lat="40.0710184" lon="-105.2291338">
  <ele>1582.99</ele>
  <time>2026-09-02T20:50:53Z</time>
  <course>321.01</course>
  <speed>1.1385077953180645</speed>
  <fix>3d</fix>
</trkpt>
<trkpt lat="40.0710174" lon="-105.2291329">
  <ele>1582.99</ele>
  <time>2026-09-02T20:50:53Z</time>
  <course>321.8</course>
  <speed>1.15</speed>
  <fix>3d</fix>
</trkpt>
<trkpt lat="40.0710191" lon="-105.2291348">
  <ele>1583.0</ele>
  <time>2026-09-02T20:50:53Z</time>
  <course>320.5</course>
  <speed>1.1370136322841515</speed>
  <fix>3d</fix>
</trkpt>
<trkpt lat="40.0710174" lon="-105.2291329">
  <ele>1582.99</ele>
  <time>2026-09-02T20:50:53Z</time>
  <course>321.8</course>
  <speed>1.15</speed>
  <fix>3d</fix>
</trkpt>
<trkpt lat="40.07102" lon="-105.2291355">
  <ele>1582.99</ele>
  <time>2026-09-02T20:50:53Z</time>
  <course>320.06</course>
  <speed>1.1433722053644648</speed>
  <fix>3d</fix>
</trkpt>
<trkpt lat="40.0710191" lon="-105.2291346">
  <ele>1582.99</ele>
  <time>2026-09-02T20:50:53Z</time>
  <course>320.69</course>
  <speed>1.14</speed>
  <fix>3d</fix>
</trkpt>
<trkpt lat="40.0710208" lon="-105.2291365">
  <ele>1582.99</ele>
  <time>2026-09-02T20:50:53Z</time>
  <course>319.69</course>
  <speed>1.1421471008587292</speed>
  <fix>3d</fix>
</trkpt>
<trkpt lat="40.0710191" lon="-105.2291346">
  <ele>1582.99</ele>
  <time>2026-09-02T20:50:53Z</time>
  <course>320.69</course>
  <speed>1.14</speed>
  <fix>3d</fix>
</trkpt>
<trkpt lat="40.0710216" lon="-105.2291374">
  <ele>1582.99</ele>
  <time>2026-09-02T20:50:53Z</time>
  <course>319.36</course>
  <speed>1.1562439189029277</speed>
  <fix>3d</fix>
</trkpt>
<trkpt lat="40.0710206" lon="-105.2291363">
  <ele>1582.99</ele>
  <time>2026-09-02T20:50:53Z</time>
  <course>319.84</course>
  <speed>1.15</speed>
  <fix>3d</fix>
</trkpt>
<trkpt lat="40.0710223" lon="-105.2291382">
  <ele>1582.99</ele>
  <time>2026-09-02T20:50:53Z</time>
  <course>319.1</course>
  <speed>1.1627553482998907</speed>
  <fix>3d</fix>
</trkpt>
<trkpt lat="40.0710206" lon="-105.2291363">
  <ele>1582.99</ele>
  <time>2026-09-02T20:50:53Z</time>
  <course>319.84</course>
  <speed>1.15</speed>
  <fix>3d</fix>
</trkpt>
<trkpt lat="40.0710229" lon="-105.2291389">
  <ele>1582.99</ele>
  <time>2026-09-02T20:50:53Z</time>
  <course>318.92</course>
  <speed>1.1693160394008115</speed>
  <fix>3d</fix>
</trkpt>
<trkpt lat="40.0710222" lon="-105.2291381">
  <ele>1582.99</ele>
  <time>2026-09-02T20:50:53Z</time>
  <course>319.23</course>
  <speed>1.16</speed>
  <fix>3d</fix>
</trkpt>
<trkpt lat="40.0710238" lon="-105.2291398">
  <ele>1582.99</ele>
  <time>2026-09-02T20:50:53Z</time>
  <course>318.75</course>
  <speed>1.1693160394008115</speed>
  <fix>3d</fix>
</trkpt>
<trkpt lat="40.0710222" lon="-105.2291381">
  <ele>1582.99</ele>
  <time>2026-09-02T20:50:53Z</time>
  <course>319.23</course>
  <speed>1.16</speed>
  <fix>3d</fix>
</trkpt>
<trkpt lat="40.0710246" lon="-105.2291408">
  <ele>1582.99</ele>
  <time>2026-09-02T20:50:53Z</time>
  <course>318.62</course>
  <speed>1.183427226321923</speed>
  <fix>3d</fix>
</trkpt>
<trkpt lat="40.0710238" lon="-105.2291398">
  <ele>1582.99</ele>
  <time>2026-09-02T20:50:53Z</time>
  <course>318.83</course>
  <speed>1.18</speed>
  <fix>3d</fix>
</trkpt>
<trkpt lat="40.0710253" lon="-105.2291417">
  <ele>1582.99</ele>
  <time>2026-09-02T20:50:53Z</time>
  <course>318.53</course>
  <speed>1.175925167687128</speed>
  <fix>3d</fix>
</trkpt>
<trkpt lat="40.0710238" lon="-105.2291398">
  <ele>1582.99</ele>
  <time>2026-09-02T20:50:53Z</time>
  <course>318.83</course>
  <speed>1.18</speed>
  <fix>3d</fix>
</trkpt>
<trkpt lat="40.0710262" lon="-105.2291427">
  <ele>1582.99</ele>
  <time>2026-09-02T20:50:53Z</time>
  <course>318.48</course>
  <speed>1.183427226321923</speed>
  <fix>3d</fix>
</trkpt>
<trkpt lat="40.0710253" lon="-105.2291417">
  <ele>1582.99</ele>
  <time>2026-09-02T20:50:53Z</time>
  <course>318.61</course>
  <speed>1.18</speed>
  <fix>3d</fix>
</trkpt>
<trkpt lat="40.071027" lon="-105.2291436">
  <ele>1582.99</ele>
  <time>2026-09-02T20:50:53Z</time>
  <course>318.47</course>
  <speed>1.183427226321923</speed>
  <fix>3d</fix>
</trkpt>
<trkpt lat="40.0710253" lon="-105.2291417">
  <ele>1582.99</ele>
  <time>2026-09-02T20:50:53Z</time>
  <course>318.61</course>
  <speed>1.18</speed>
  <fix>3d</fix>
</trkpt>
<trkpt lat="40.0710277" lon="-105.2291444">
  <ele>1582.99</ele>
  <time>2026-09-02T20:50:53Z</time>
  <course>318.5</course>
  <speed>1.183427226321923</speed>
  <fix>3d</fix>
</trkpt>
<trkpt lat="40.071027" lon="-105.2291435">
  <ele>1582.99</ele>
  <time>2026-09-02T20:50:53Z</time>
  <course>318.55</course>
  <speed>1.19</speed>
  <fix>3d</fix>
</trkpt>
<trkpt lat="40.0710286" lon="-105.2291453">
  <ele>1582.99</ele>
  <time>2026-09-02T20:50:53Z</time>
  <course>318.55</course>
  <speed>1.175925167687128</speed>
  <fix>3d</fix>
</trkpt>
<trkpt lat="40.071027" lon="-105.2291435">
  <ele>1582.99</ele>
  <time>2026-09-02T20:50:53Z</time>
  <course>318.55</course>
  <speed>1.19</speed>
  <fix>3d</fix>
</trkpt>
<trkpt lat="40.0710294" lon="-105.2291463">
  <ele>1582.99</ele>
  <time>2026-09-02T20:50:53Z</time>
  <course>318.64</course>
  <speed>1.183427226321923</speed>
  <fix>3d</fix>
</trkpt>
<trkpt lat="40.0710286" lon="-105.2291453">
  <ele>1582.99</ele>
  <time>2026-09-02T20:50:53Z</time>
  <course>318.63</course>
  <speed>1.19</speed>
  <fix>3d</fix>
</trkpt>
<trkpt lat="40.0710301" lon="-105.2291472">
  <ele>1582.99</ele>
  <time>2026-09-02T20:50:53Z</time>
  <course>318.75</course>
  <speed>1.176860229593982</speed>
  <fix>3d</fix>
</trkpt>
<trkpt lat="40.0710286" lon="-105.2291453">
  <ele>1582.99</ele>
  <time>2026-09-02T20:50:53Z</time>
  <course>318.63</course>
  <speed>1.19</speed>
  <fix>3d</fix>
</trkpt>
<trkpt lat="40.0710312" lon="-105.2291484">
  <ele>1582.99</ele>
  <time>2026-09-02T20:50:53Z</time>
  <course>318.92</course>
  <speed>1.183427226321923</speed>
  <fix>3d</fix>
</trkpt>
<trkpt lat="40.0710301" lon="-105.2291472">
  <ele>1582.99</ele>
  <time>2026-09-02T20:50:53Z</time>
  <course>318.83</course>
  <speed>1.19</speed>
  <fix>3d</fix>
</trkpt>
<trkpt lat="40.0710319" lon="-105.2291492">
  <ele>1582.99</ele>
  <time>2026-09-02T20:50:53Z</time>
  <course>319.08</course>
  <speed>1.176860229593982</speed>
  <fix>3d</fix>
</trkpt>
<trkpt lat="40.0710301" lon="-105.2291472">
  <ele>1582.99</ele>
  <time>2026-09-02T20:50:53Z</time>
  <course>318.83</course>
  <speed>1.19</speed>
  <fix>3d</fix>
</trkpt>
<trkpt lat="40.0710328" lon="-105.2291501">
  <ele>1582.99</ele>
  <time>2026-09-02T20:50:53Z</time>
  <course>319.27</course>
  <speed>1.1844407963254222</speed>
  <fix>3d</fix>
</trkpt>
<trkpt lat="40.0710318" lon="-105.2291491">
  <ele>1582.99</ele>
  <time>2026-09-02T20:50:53Z</time>
  <course>319.12</course>
  <speed>1.18</speed>
  <fix>3d</fix>
</trkpt>
<trkpt lat="40.0710336" lon="-105.2291511">
  <ele>1582.99</ele>
  <time>2026-09-02T20:50:53Z</time>
  <course>319.47</course>
  <speed>1.170341830406826</speed>
  <fix>3d</fix>
</trkpt>
<trkpt lat="40.0710318" lon="-105.2291491">
  <ele>1582.99</ele>
  <time>2026-09-02T20:50:53Z</time>
  <course>319.12</course>
  <speed>1.18</speed>
  <fix>3d</fix>
</trkpt>
<trkpt lat="40.0710343" lon="-105.229152">
  <ele>1582.99</ele>
  <time>2026-09-02T20:50:53Z</time>
  <course>319.69</course>
  <speed>1.1779643458101778</speed>
  <fix>3d</fix>
</trkpt>
<trkpt lat="40.0710334" lon="-105.2291508">
  <ele>1582.99</ele>
  <time>2026-09-02T20:50:53Z</time>
  <course>319.5</course>
  <speed>1.18</speed>
  <fix>3d</fix>
</trkpt>
<trkpt lat="40.0710352" lon="-105.2291528">
  <ele>1582.99</ele>
  <time>2026-09-02T20:50:53Z</time>
  <course>319.93</course>
  <speed>1.1715374513859982</speed>
  <fix>3d</fix>
</trkpt>
<trkpt lat="40.0710334" lon="-105.2291508">
  <ele>1582.99</ele>
  <time>2026-09-02T20:50:53Z</time>
  <course>319.5</course>
  <speed>1.18</speed>
  <fix>3d</fix>
</trkpt>
<trkpt lat="40.071036" lon="-105.2291537">
  <ele>1582.99</ele>
  <time>2026-09-02T20:50:53Z</time>
  <course>320.17</course>
  <speed>1.1792370414806346</speed>
  <fix>3d</fix>
</trkpt>
<trkpt lat="40.071035" lon="-105.2291526">
  <ele>1582.99</ele>
  <time>2026-09-02T20:50:53Z</time>
  <course>319.95</course>
  <speed>1.18</speed>
  <fix>3d</fix>
</trkpt>
<trkpt lat="40.0710368" lon="-105.2291546">
  <ele>1582.99</ele>
  <time>2026-09-02T20:50:53Z</time>
  <course>320.42</course>
  <speed>1.1651609330903607</speed>
  <fix>3d</fix>
</trkpt>
<trkpt lat="40.071035" lon="-105.2291526">
  <ele>1582.99</ele>
  <time>2026-09-02T20:50:53Z</time>
  <course>319.95</course>
  <speed>1.18</speed>
  <fix>3d</fix>
</trkpt>
<trkpt lat="40.0710377" lon="-105.2291554">
  <ele>1582.99</ele>
  <time>2026-09-02T20:50:53Z</time>
  <course>320.69</course>
  <speed>1.1792370414806346</speed>
  <fix>3d</fix>
</trkpt>
<trkpt lat="40.0710366" lon="-105.2291544">
  <ele>1582.99</ele>
  <time>2026-09-02T20:50:53Z</time>
  <course>320.44</course>
  <speed>1.18</speed>
  <fix>3d</fix>
</trkpt>
<trkpt lat="40.0710385" lon="-105.2291563">
  <ele>1582.99</ele>
  <time>2026-09-02T20:50:53Z</time>
  <course>320.96</course>
  <speed>1.1729023829799308</speed>
  <fix>3d</fix>
</trkpt>
<trkpt lat="40.0710366" lon="-105.2291544">
  <ele>1582.99</ele>
  <time>2026-09-02T20:50:53Z</time>
  <course>320.44</course>
  <speed>1.18</speed>
  <fix>3d</fix>
</trkpt>
<trkpt lat="40.0710392" lon="-105.2291573">
  <ele>1582.99</ele>
  <time>2026-09-02T20:50:53Z</time>
  <course>321.23</course>
  <speed>1.1806777714516352</speed>
  <fix>3d</fix>
</trkpt>
<trkpt lat="40.0710383" lon="-105.2291562">
  <ele>1582.99</ele>
  <time>2026-09-02T20:50:53Z</time>
  <course>320.97</course>
  <speed>1.18</speed>
  <fix>3d</fix>
</trkpt>
<trkpt lat="40.0710399" lon="-105.229158">
  <ele>1582.99</ele>
  <time>2026-09-02T20:50:53Z</time>
  <course>321.46</course>
  <speed>1.1744360348695029</speed>
  <fix>3d</fix>
</trkpt>
<trkpt lat="40.0710383" lon="-105.2291562">
  <ele>1582.99</ele>
  <time>2026-09-02T20:50:53Z</time>
  <course>320.97</course>
  <speed>1.18</speed>
  <fix>3d</fix>
</trkpt>
<trkpt lat="40.0710408" lon="-105.2291587">
  <ele>1582.99</ele>
  <time>2026-09-02T20:50:53Z</time>
  <course>321.75</course>
  <speed>1.182285921425101</speed>
  <fix>3d</fix>
</trkpt>
<trkpt lat="40.0710399" lon="-105.2291579">
  <ele>1582.99</ele>
  <time>2026-09-02T20:50:53Z</time>
  <course>321.53</course>
  <speed>1.19</speed>
  <fix>3d</fix>
</trkpt>
<trkpt lat="40.0710416" lon="-105.2291597">
  <ele>1582.99</ele>
  <time>2026-09-02T20:50:53Z</time>
  <course>322.04</course>
  <speed>1.1761377470347596</speed>
  <fix>3d</fix>
</trkpt>
<trkpt lat="40.0710399" lon="-105.2291579">
  <ele>1582.99</ele>
  <time>2026-09-02T20:50:53Z</time>
  <course>321.53</course>
  <speed>1.19</speed>
  <fix>3d</fix>
</trkpt>
<trkpt lat="40.0710425" lon="-105.2291606">
  <ele>1582.99</ele>
  <time>2026-09-02T20:50:53Z</time>
  <course>322.33</course>
  <speed>1.1840608092492548</speed>
  <fix>3d</fix>
</trkpt>
<trkpt lat="40.0710416" lon="-105.2291597">
  <ele>1582.99</ele>
  <time>2026-09-02T20:50:53Z</time>
  <course>322.11</course>
  <speed>1.19</speed>
  <fix>3d</fix>
</trkpt>
<trkpt lat="40.0710434" lon="-105.2291614">
  <ele>1582.99</ele>
  <time>2026-09-02T20:50:53Z</time>
  <course>322.62</course>
  <speed>1.1780067911519017</speed>
  <fix>3d</fix>
</trkpt>
<trkpt lat="40.0710416" lon="-105.2291597">
  <ele>1582.99</ele>
  <time>2026-09-02T20:50:53Z</time>
  <course>322.11</course>
  <speed>1.19</speed>
  <fix>3d</fix>
</trkpt>
<trkpt lat="40.0710441" lon="-105.2291621">
  <ele>1582.99</ele>
  <time>2026-09-02T20:50:53Z</time>
  <course>322.91</course>
  <speed>1.1920151005754918</speed>
  <fix>3d</fix>
</trkpt>
<trkpt lat="40.0710433" lon="-105.2291614">
  <ele>1582.99</ele>
  <time>2026-09-02T20:50:53Z</time>
  <course>322.69</course>
  <speed>1.19</speed>
  <fix>3d</fix>
</trkpt>
<trkpt lat="40.0710451" lon="-105.229163">
  <ele>1582.99</ele>
  <time>2026-09-02T20:50:53Z</time>
  <course>323.2</course>
  <speed>1.186001686339442</speed>
  <fix>3d</fix>
</trkpt>
<trkpt lat="40.0710433" lon="-105.2291614">
  <ele>1582.99</ele>
  <time>2026-09-02T20:50:53Z</time>
  <course>322.69</course>
  <speed>1.19</speed>
  <fix>3d</fix>
</trkpt>
<trkpt lat="40.0710459" lon="-105.2291638">
  <ele>1582.99</ele>
  <time>2026-09-02T20:50:53Z</time>
  <course>323.49</course>
  <speed>1.194026800369238</speed>
  <fix>3d</fix>
</trkpt>
<trkpt lat="40.071045" lon="-105.229163">
  <ele>1582.99</ele>
  <time>2026-09-02T20:50:53Z</time>
  <course>323.27</course>
  <speed>1.19</speed>
  <fix>3d</fix>
</trkpt>
<trkpt lat="40.0710468" lon="-105.2291647">
  <ele>1582.99</ele>
  <time>2026-09-02T20:50:53Z</time>
  <course>323.77</course>
  <speed>1.1800423721205946</speed>
  <fix>3d</fix>
</trkpt>
<trkpt lat="40.071045" lon="-105.229163">
  <ele>1582.99</ele>
  <time>2026-09-02T20:50:53Z</time>
  <course>323.27</course>
  <speed>1.19</speed>
  <fix>3d</fix>
</trkpt>
<trkpt lat="40.0710477" lon="-105.2291657">
  <ele>1582.99</ele>
  <time>2026-09-02T20:50:53Z</time>
  <course>324.11</course>
  <speed>1.196202324023825</speed>
  <fix>3d</fix>
</trkpt>
<trkpt lat="40.0710468" lon="-105.2291647">
  <ele>1582.99</ele>
  <time>2026-09-02T20:50:53Z</time>
  <course>323.84</course>
  <speed>1.19</speed>
  <fix>3d</fix>
</trkpt>
<trkpt lat="40.0710487" lon="-105.2291664">
  <ele>1582.99</ele>
  <time>2026-09-02T20:50:53Z</time>
  <course>324.39</course>
  <speed>1.182243629714282</speed>
  <fix>3d</fix>
</trkpt>
<trkpt lat="40.0710468" lon="-105.2291647">
  <ele>1582.99</ele>
  <time>2026-09-02T20:50:53Z</time>
  <course>323.84</course>
  <speed>1.19</speed>
  <fix>3d</fix>
</trkpt>
<trkpt lat="40.0710495" lon="-105.2291674">
  <ele>1582.99</ele>
  <time>2026-09-02T20:50:53Z</time>
  <course>324.66</course>
  <speed>1.1903780911962385</speed>
  <fix>3d</fix>
</trkpt>
<trkpt lat="40.0710485" lon="-105.2291664">
  <ele>1582.99</ele>
  <time>2026-09-02T20:50:53Z</time>
  <course>324.4</course>
  <speed>1.19</speed>
  <fix>3d</fix>
</trkpt>
<trkpt lat="40.0710505" lon="-105.2291681">
  <ele>1582.99</ele>
  <time>2026-09-02T20:50:53Z</time>
  <course>324.93</course>
  <speed>1.1846096403457131</speed>
  <fix>3d</fix>
</trkpt>
<trkpt lat="40.0710485" lon="-105.2291664">
  <ele>1582.99</ele>
  <time>2026-09-02T20:50:53Z</time>
  <course>324.4</course>
  <speed>1.19</speed>
  <fix>3d</fix>
</trkpt>
<trkpt lat="40.0710513" lon="-105.229169">
  <ele>1582.99</ele>
  <time>2026-09-02T20:50:53Z</time>
  <course>325.19</course>
  <speed>1.1928118040998756</speed>
  <fix>3d</fix>
</trkpt>
<trkpt lat="40.0710502" lon="-105.2291679">
  <ele>1582.99</ele>
  <time>2026-09-02T20:50:53Z</time>
  <course>324.94</course>
  <speed>1.19</speed>
  <fix>3d</fix>
</trkpt>
<trkpt lat="40.0710521" lon="-105.2291697">
  <ele>1582.99</ele>
  <time>2026-09-02T20:50:53Z</time>
  <course>325.44</course>
  <speed>1.1871394189394942</speed>
  <fix>3d</fix>
</trkpt>
<trkpt lat="40.0710502" lon="-105.2291679">
  <ele>1582.99</ele>
  <time>2026-09-02T20:50:53Z</time>
  <course>324.94</course>
  <speed>1.19</speed>
  <fix>3d</fix>
</trkpt>
<trkpt lat="40.0710531" lon="-105.2291705">
  <ele>1582.99</ele>
  <time>2026-09-02T20:50:53Z</time>
  <course>325.69</course>
  <speed>1.1954078801814885</speed>
  <fix>3d</fix>
</trkpt>
<trkpt lat="40.071052" lon="-105.2291696">
  <ele>1582.99</ele>
  <time>2026-09-02T20:50:53Z</time>
  <course>325.46</course>
  <speed>1.19</speed>
  <fix>3d</fix>
</trkpt>
<trkpt lat="40.0710539" lon="-105.2291712">
  <ele>1582.99</ele>
  <time>2026-09-02T20:50:53Z</time>
  <course>325.94</course>
  <speed>1.1815244390193544</speed>
  <fix>3d</fix>
</trkpt>
<trkpt lat="40.071052" lon="-105.2291696">
  <ele>1582.99</ele>
  <time>2026-09-02T20:50:53Z</time>
  <course>325.46</course>
  <speed>1.19</speed>
  <fix>3d</fix>
</trkpt>
<trkpt lat="40.0710549" lon="-105.2291721">
  <ele>1582.99</ele>
  <time>2026-09-02T20:50:53Z</time>
  <course>326.17</course>
  <speed>1.1898319209031165</speed>
  <fix>3d</fix>
</trkpt>
<trkpt lat="40.0710538" lon="-105.2291712">
  <ele>1582.99</ele>
  <time>2026-09-02T20:50:53Z</time>
  <course>325.96</course>
  <speed>1.19</speed>
  <fix>3d</fix>
</trkpt>
<trkpt lat="40.0710557" lon="-105.2291729">
  <ele>1582.99</ele>
  <time>2026-09-02T20:50:53Z</time>
  <course>326.4</course>
  <speed>1.1898319209031165</speed>
  <fix>3d</fix>
</trkpt>
<trkpt lat="40.0710538" lon="-105.2291712">
  <ele>1582.99</ele>
  <time>2026-09-02T20:50:53Z</time>
  <course>325.96</course>
  <speed>1.19</speed>
  <fix>3d</fix>
</trkpt>
<trkpt lat="40.0710567" lon="-105.2291736">
  <ele>1582.99</ele>
  <time>2026-09-02T20:50:53Z</time>
  <course>326.62</course>
  <speed>1.1926860441876563</speed>
  <fix>3d</fix>
</trkpt>
<trkpt lat="40.0710555" lon="-105.2291727">
  <ele>1582.99</ele>
  <time>2026-09-02T20:50:53Z</time>
  <course>326.43</course>
  <speed>1.19</speed>
  <fix>3d</fix>
</trkpt>
<trkpt lat="40.0710575" lon="-105.2291745">
  <ele>1582.99</ele>
  <time>2026-09-02T20:50:53Z</time>
  <course>326.84</course>
  <speed>1.1843141475132348</speed>
  <fix>3d</fix>
</trkpt>
<trkpt lat="40.0710555" lon="-105.2291727">
  <ele>1582.99</ele>
  <time>2026-09-02T20:50:53Z</time>
  <course>326.43</course>
  <speed>1.19</speed>
  <fix>3d</fix>
</trkpt>
<trkpt lat="40.0710583" lon="-105.229175">
  <ele>1582.99</ele>
  <time>2026-09-02T20:50:53Z</time>
  <course>327.0</course>
  <speed>1.1926860441876563</speed>
  <fix>3d</fix>
</trkpt>
<trkpt lat="40.0710574" lon="-105.2291743">
  <ele>1582.99</ele>
  <time>2026-09-02T20:50:53Z</time>
  <course>326.86</course>
  <speed>1.19</speed>
  <fix>3d</fix>
</trkpt>
<trkpt lat="40.0710592" lon="-105.2291757">
  <ele>1582.99</ele>
  <time>2026-09-02T20:50:53Z</time>
  <course>327.2</course>
  <speed>1.1872657663724664</speed>
  <fix>3d</fix>
</trkpt>
<trkpt lat="40.0710574" lon="-105.2291743">
  <ele>1582.99</ele>
  <time>2026-09-02T20:50:53Z</time>
  <course>326.86</course>
  <speed>1.19</speed>
  <fix>3d</fix>
</trkpt>
<trkpt lat="40.07106" lon="-105.2291765">
  <ele>1582.99</ele>
  <time>2026-09-02T20:50:53Z</time>
  <course>327.39</course>
  <speed>1.1957006314291216</speed>
  <fix>3d</fix>
</trkpt>
<trkpt lat="40.0710591" lon="-105.2291758">
  <ele>1582.99</ele>
  <time>2026-09-02T20:50:53Z</time>
  <course>327.27</course>
  <speed>1.2</speed>
  <fix>3d</fix>
</trkpt>
<trkpt lat="40.071061" lon="-105.2291772">
  <ele>1582.99</ele>
  <time>2026-09-02T20:50:53Z</time>
  <course>327.56</course>
  <speed>1.181905241548577</speed>
  <fix>3d</fix>
</trkpt>
<trkpt lat="40.0710591" lon="-105.2291758">
  <ele>1582.99</ele>
  <time>2026-09-02T20:50:53Z</time>
  <course>327.27</course>
  <speed>1.2</speed>
  <fix>3d</fix>
</trkpt>
<trkpt lat="40.0710618" lon="-105.2291781">
  <ele>1582.99</ele>
  <time>2026-09-02T20:50:53Z</time>
  <course>327.74</course>
  <speed>1.1957006314291216</speed>
  <fix>3d</fix>
</trkpt>
<trkpt lat="40.071061" lon="-105.2291773">
  <ele>1582.99</ele>
  <time>2026-09-02T20:50:53Z</time>
  <course>327.63</course>
  <speed>1.2</speed>
  <fix>3d</fix>
</trkpt>
<trkpt lat="40.0710628" lon="-105.2291788">
  <ele>1582.99</ele>
  <time>2026-09-02T20:50:53Z</time>
  <course>327.9</course>
  <speed>1.1903780911962385</speed>
  <fix>3d</fix>
</trkpt>
<trkpt lat="40.071061" lon="-105.2291773">
  <ele>1582.99</ele>
  <time>2026-09-02T20:50:53Z</time>
  <course>327.63</course>
  <speed>1.2</speed>
  <fix>3d</fix>
</trkpt>
<trkpt lat="40.0710638" lon="-105.2291796">
  <ele>1582.99</ele>
  <time>2026-09-02T20:50:53Z</time>
  <course>328.05</course>
  <speed>1.1903780911962385</speed>
  <fix>3d</fix>
</trkpt>
<trkpt lat="40.0710628" lon="-105.2291788">
  <ele>1582.99</ele>
  <time>2026-09-02T20:50:53Z</time>
  <course>327.97</course>
  <speed>1.2</speed>
  <fix>3d</fix>
</trkpt>
<trkpt lat="40.0710647" lon="-105.2291803">
  <ele>1582.99</ele>
  <time>2026-09-02T20:50:53Z</time>
  <course>328.2</course>
  <speed>1.1851160280748885</speed>
  <fix>3d</fix>
</trkpt>
<trkpt lat="40.0710628" lon="-105.2291788">
  <ele>1582.99</ele>
  <time>2026-09-02T20:50:53Z</time>
  <course>327.97</course>
  <speed>1.2</speed>
  <fix>3d</fix>
</trkpt>
<trkpt lat="40.0710656" lon="-105.229181">
  <ele>1582.99</ele>
  <time>2026-09-02T20:50:53Z</time>
  <course>328.34</course>
  <speed>1.1851160280748885</speed>
  <fix>3d</fix>
</trkpt>
<trkpt lat="40.0710646" lon="-105.2291803">
  <ele>1582.99</ele>
  <time>2026-09-02T20:50:53Z</time>
  <course>328.27</course>
  <speed>1.19</speed>
  <fix>3d</fix>
</trkpt>
<trkpt lat="40.0710666" lon="-105.2291819">
  <ele>1582.99</ele>
  <time>2026-09-02T20:50:53Z</time>
  <course>328.5</course>
  <speed>1.193649864910142</speed>
  <fix>3d</fix>
</trkpt>
<trkpt lat="40.0710646" lon="-105.2291803">
  <ele>1582.99</ele>
  <time>2026-09-02T20:50:53Z</time>
  <course>328.27</course>
  <speed>1.19</speed>
  <fix>3d</fix>
</trkpt>
<trkpt lat="40.0710676" lon="-105.2291827">
  <ele>1582.99</ele>
  <time>2026-09-02T20:50:53Z</time>
  <course>328.62</course>
  <speed>1.193649864910142</speed>
  <fix>3d</fix>
</trkpt>
<trkpt lat="40.0710665" lon="-105.2291817">
  <ele>1582.99</ele>
  <time>2026-09-02T20:50:53Z</time>
  <course>328.54</course>
  <speed>1.19</speed>
  <fix>3d</fix>
</trkpt>
<trkpt lat="40.0710684" lon="-105.2291834">
  <ele>1582.99</ele>
  <time>2026-09-02T20:50:53Z</time>
  <course>328.73</course>
  <speed>1.193649864910142</speed>
  <fix>3d</fix>
</trkpt>
<trkpt lat="40.0710665" lon="-105.2291817">
  <ele>1582.99</ele>
  <time>2026-09-02T20:50:53Z</time>
  <course>328.54</course>
  <speed>1.19</speed>
  <fix>3d</fix>
</trkpt>
<trkpt lat="40.0710695" lon="-105.2291841">
  <ele>1582.99</ele>
  <time>2026-09-02T20:50:53Z</time>
  <course>328.84</course>
  <speed>1.1884864324004711</speed>
  <fix>3d</fix>
</trkpt>
<trkpt lat="40.0710683" lon="-105.2291832">
  <ele>1582.99</ele>
  <time>2026-09-02T20:50:53Z</time>
  <course>328.78</course>
  <speed>1.19</speed>
  <fix>3d</fix>
</trkpt>
<trkpt lat="40.0710703" lon="-105.2291848">
  <ele>1582.99</ele>
  <time>2026-09-02T20:50:53Z</time>
  <course>328.93</course>
  <speed>1.1884864324004711</speed>
  <fix>3d</fix>
</trkpt>
<trkpt lat="40.0710683" lon="-105.2291832">
  <ele>1582.99</ele>
  <time>2026-09-02T20:50:53Z</time>
  <course>328.78</course>
  <speed>1.19</speed>
  <fix>3d</fix>
</trkpt>
<trkpt lat="40.0710713" lon="-105.2291855">
  <ele>1582.99</ele>
  <time>2026-09-02T20:50:53Z</time>
  <course>329.03</course>
  <speed>1.1970797801316335</speed>
  <fix>3d</fix>
</trkpt>
<trkpt lat="40.0710701" lon="-105.2291846">
  <ele>1582.99</ele>
  <time>2026-09-02T20:50:53Z</time>
  <course>328.99</course>
  <speed>1.2</speed>
  <fix>3d</fix>
</trkpt>
<trkpt lat="40.0710721" lon="-105.2291863">
  <ele>1582.99</ele>
  <time>2026-09-02T20:50:53Z</time>
  <course>329.11</course>
  <speed>1.1884864324004711</speed>
  <fix>3d</fix>
</trkpt>
<trkpt lat="40.0710701" lon="-105.2291846">
  <ele>1582.99</ele>
  <time>2026-09-02T20:50:53Z</time>
  <course>328.99</course>
  <speed>1.2</speed>
  <fix>3d</fix>
</trkpt>
<trkpt lat="40.0710731" lon="-105.229187">
  <ele>1582.99</ele>
  <time>2026-09-02T20:50:53Z</time>
  <course>329.19</course>
  <speed>1.1970797801316335</speed>
  <fix>3d</fix>
</trkpt>
<trkpt lat="40.071072" lon="-105.2291861">
  <ele>1582.99</ele>
  <time>2026-09-02T20:50:53Z</time>
  <course>329.17</course>
  <speed>1.2</speed>
  <fix>3d</fix>
</trkpt>
<trkpt lat="40.0710741" lon="-105.2291877">
  <ele>1582.99</ele>
  <time>2026-09-02T20:50:53Z</time>
  <course>329.26</course>
  <speed>1.1970797801316335</speed>
  <fix>3d</fix>
</trkpt>
<trkpt lat="40.071072" lon="-105.2291861">
  <ele>1582.99</ele>
  <time>2026-09-02T20:50:53Z</time>
  <course>329.17</course>
  <speed>1.2</speed>
  <fix>3d</fix>
</trkpt>
<trkpt lat="40.071075" lon="-105.2291884">
  <ele>1582.99</ele>
  <time>2026-09-02T20:50:53Z</time>
  <course>329.33</course>
  <speed>1.1970797801316335</speed>
  <fix>3d</fix>
</trkpt>
<trkpt lat="40.0710739" lon="-105.2291875">
  <ele>1582.99</ele>
  <time>2026-09-02T20:50:53Z</time>
  <course>329.32</course>
  <speed>1.2</speed>
  <fix>3d</fix>
</trkpt>
<trkpt lat="40.0710758" lon="-105.2291891">
  <ele>1582.99</ele>
  <time>2026-09-02T20:50:53Z</time>
  <course>329.39</course>
  <speed>1.1833849753989611</speed>
  <fix>3d</fix>
</trkpt>
<trkpt lat="40.0710739" lon="-105.2291875">
  <ele>1582.99</ele>
  <time>2026-09-02T20:50:53Z</time>
  <course>329.32</course>
  <speed>1.2</speed>
  <fix>3d</fix>
</trkpt>
<trkpt lat="40.0710767" lon="-105.2291896">
  <ele>1582.99</ele>
  <time>2026-09-02T20:50:53Z</time>
  <course>329.43</course>
  <speed>1.1920151005754918</speed>
  <fix>3d</fix>
</trkpt>
<trkpt lat="40.0710757" lon="-105.2291889">
  <ele>1582.99</ele>
  <time>2026-09-02T20:50:53Z</time>
  <course>329.45</course>
  <speed>1.19</speed>
  <fix>3d</fix>
</trkpt>
<trkpt lat="40.0710775" lon="-105.2291905">
  <ele>1582.99</ele>
  <time>2026-09-02T20:50:53Z</time>
  <course>329.48</course>
  <speed>1.1920151005754918</speed>
  <fix>3d</fix>
</trkpt>
<trkpt lat="40.0710757" lon="-105.2291889">
  <ele>1582.99</ele>
  <time>2026-09-02T20:50:53Z</time>
  <course>329.45</course>
  <speed>1.19</speed>
  <fix>3d</fix>
</trkpt>
<trkpt lat="40.0710785" lon="-105.2291911">
  <ele>1582.99</ele>
  <time>2026-09-02T20:50:53Z</time>
  <course>329.52</course>
  <speed>1.1920151005754918</speed>
  <fix>3d</fix>
</trkpt>
<trkpt lat="40.0710775" lon="-105.2291904">
  <ele>1582.99</ele>
  <time>2026-09-02T20:50:53Z</time>
  <course>329.55</course>
  <speed>1.2</speed>
  <fix>3d</fix>
</trkpt>
<trkpt lat="40.0710794" lon="-105.2291918">
  <ele>1582.99</ele>
  <time>2026-09-02T20:50:53Z</time>
  <course>329.56</course>
  <speed>1.1920151005754918</speed>
  <fix>3d</fix>
</trkpt>
<trkpt lat="40.0710775" lon="-105.2291904">
  <ele>1582.99</ele>
  <time>2026-09-02T20:50:53Z</time>
  <course>329.55</course>
  <speed>1.2</speed>
  <fix>3d</fix>
</trkpt>
<trkpt lat="40.0710804" lon="-105.2291925">
  <ele>1582.99</ele>
  <time>2026-09-02T20:50:53Z</time>
  <course>329.59</course>
  <speed>1.1920151005754918</speed>
  <fix>3d</fix>
</trkpt>
<trkpt lat="40.0710794" lon="-105.2291918">
  <ele>1582.99</ele>
  <time>2026-09-02T20:50:53Z</time>
  <course>329.63</course>
  <speed>1.2</speed>
  <fix>3d</fix>
</trkpt>
<trkpt lat="40.0710812" lon="-105.2291932">
  <ele>1582.99</ele>
  <time>2026-09-02T20:50:53Z</time>
  <course>329.61</course>
  <speed>1.1920151005754918</speed>
  <fix>3d</fix>
</trkpt>
<trkpt lat="40.0710794" lon="-105.2291918">
  <ele>1582.99</ele>
  <time>2026-09-02T20:50:53Z</time>
  <course>329.63</course>
  <speed>1.2</speed>
  <fix>3d</fix>
</trkpt>
<trkpt lat="40.0710823" lon="-105.2291939">
  <ele>1582.99</ele>
  <time>2026-09-02T20:50:53Z</time>
  <course>329.63</course>
  <speed>1.1920151005754918</speed>
  <fix>3d</fix>
</trkpt>
<trkpt lat="40.0710813" lon="-105.2291932">
  <ele>1582.99</ele>
  <time>2026-09-02T20:50:53Z</time>
  <course>329.68</course>
  <speed>1.19</speed>
  <fix>3d</fix>
</trkpt>
<trkpt lat="40.0710831" lon="-105.2291946">
  <ele>1582.99</ele>
  <time>2026-09-02T20:50:53Z</time>
  <course>329.65</course>
  <speed>1.1920151005754918</speed>
  <fix>3d</fix>
</trkpt>
<trkpt lat="40.0710813" lon="-105.2291932">
  <ele>1582.99</ele>
  <time>2026-09-02T20:50:53Z</time>
  <course>329.68</course>
  <speed>1.19</speed>
  <fix>3d</fix>
</trkpt>
<trkpt lat="40.0710841" lon="-105.2291954">
  <ele>1582.99</ele>
  <time>2026-09-02T20:50:53Z</time>
  <course>329.66</course>
  <speed>1.1920151005754918</speed>
  <fix>3d</fix>
</trkpt>
<trkpt lat="40.0710832" lon="-105.2291946">
  <ele>1582.99</ele>
  <time>2026-09-02T20:50:53Z</time>
  <course>329.72</course>
  <speed>1.19</speed>
  <fix>3d</fix>
</trkpt>
<trkpt lat="40.0710849" lon="-105.2291961">
  <ele>1582.99</ele>
  <time>2026-09-02T20:50:53Z</time>
  <course>329.67</course>
  <speed>1.1920151005754918</speed>
  <fix>3d</fix>
</trkpt>
<trkpt lat="40.0710832" lon="-105.2291946">
  <ele>1582.99</ele>
  <time>2026-09-02T20:50:53Z</time>
  <course>329.72</course>
  <speed>1.19</speed>
  <fix>3d</fix>
</trkpt>
<trkpt lat="40.0710861" lon="-105.229197">
  <ele>1582.99</ele>
  <time>2026-09-02T20:50:53Z</time>
  <course>329.68</course>
  <speed>1.1920151005754918</speed>
  <fix>3d</fix>
</trkpt>
<trkpt lat="40.071085" lon="-105.2291961">
  <ele>1582.99</ele>
  <time>2026-09-02T20:50:53Z</time>
  <course>329.74</course>
  <speed>1.19</speed>
  <fix>3d</fix>
</trkpt>
<trkpt lat="40.0710871" lon="-105.2291977">
  <ele>1582.99</ele>
  <time>2026-09-02T20:50:53Z</time>
  <course>329.67</course>
  <speed>1.1920151005754918</speed>
  <fix>3d</fix>
</trkpt>
<trkpt lat="40.071085" lon="-105.2291961">
  <ele>1582.99</ele>
  <time>2026-09-02T20:50:53Z</time>
  <course>329.74</course>
  <speed>1.19</speed>
  <fix>3d</fix>
</trkpt>
<trkpt lat="40.0710879" lon="-105.2291984">
  <ele>1582.99</ele>
  <time>2026-09-02T20:50:53Z</time>
  <course>329.67</course>
  <speed>1.1920151005754918</speed>
  <fix>3d</fix>
</trkpt>
<trkpt lat="40.0710869" lon="-105.2291975">
  <ele>1582.99</ele>
  <time>2026-09-02T20:50:53Z</time>
  <course>329.75</course>
  <speed>1.19</speed>
  <fix>3d</fix>
</trkpt>
<trkpt lat="40.071089" lon="-105.229199">
  <ele>1582.99</ele>
  <time>2026-09-02T20:50:53Z</time>
  <course>329.66</course>
  <speed>1.1920151005754918</speed>
  <fix>3d</fix>
</trkpt>
<trkpt lat="40.0710869" lon="-105.2291975">
  <ele>1582.99</ele>
  <time>2026-09-02T20:50:53Z</time>
  <course>329.75</course>
  <speed>1.19</speed>
  <fix>3d</fix>
</trkpt>
<trkpt lat="40.0710898" lon="-105.2291997">
  <ele>1582.99</ele>
  <time>2026-09-02T20:50:53Z</time>
  <course>329.65</course>
  <speed>1.1920151005754918</speed>
  <fix>3d</fix>
</trkpt>
<trkpt lat="40.0710887" lon="-105.229199">
  <ele>1582.99</ele>
  <time>2026-09-02T20:50:53Z</time>
  <course>329.73</course>
  <speed>1.19</speed>
  <fix>3d</fix>
</trkpt>
<trkpt lat="40.0710908" lon="-105.2292004">
  <ele>1582.99</ele>
  <time>2026-09-02T20:50:53Z</time>
  <course>329.63</course>
  <speed>1.2006664815842907</speed>
  <fix>3d</fix>
</trkpt>
<trkpt lat="40.0710887" lon="-105.229199">
  <ele>1582.99</ele>
  <time>2026-09-02T20:50:53Z</time>
  <course>329.73</course>
  <speed>1.19</speed>
  <fix>3d</fix>
</trkpt>
<trkpt lat="40.0710916" lon="-105.2292013">
  <ele>1582.99</ele>
  <time>2026-09-02T20:50:53Z</time>
  <course>329.62</course>
  <speed>1.1920151005754918</speed>
  <fix>3d</fix>
</trkpt>
<trkpt lat="40.0710906" lon="-105.2292004">
  <ele>1582.99</ele>
  <time>2026-09-02T20:50:53Z</time>
  <course>329.71</course>
  <speed>1.19</speed>
  <fix>3d</fix>
</trkpt>
<trkpt lat="40.0710927" lon="-105.229202">
  <ele>1582.99</ele>
  <time>2026-09-02T20:50:53Z</time>
  <course>329.6</course>
  <speed>1.1920151005754918</speed>
  <fix>3d</fix>
</trkpt>
<trkpt lat="40.0710906" lon="-105.2292004">
  <ele>1582.99</ele>
  <time>2026-09-02T20:50:53Z</time>
  <course>329.71</course>
  <speed>1.19</speed>
  <fix>3d</fix>
</trkpt>
<trkpt lat="40.0710936" lon="-105.2292027">
  <ele>1582.99</ele>
  <time>2026-09-02T20:50:53Z</time>
  <course>329.58</course>
  <speed>1.1920151005754918</speed>
  <fix>3d</fix>
</trkpt>
<trkpt lat="40.0710924" lon="-105.2292018">
  <ele>1582.99</ele>
  <time>2026-09-02T20:50:53Z</time>
  <course>329.67</course>
  <speed>1.19</speed>
  <fix>3d</fix>
</trkpt>
<trkpt lat="40.0710945" lon="-105.2292033">
  <ele>1582.99</ele>
  <time>2026-09-02T20:50:53Z</time>
  <course>329.56</course>
  <speed>1.1920151005754918</speed>
  <fix>3d</fix>
</trkpt>
<trkpt lat="40.0710924" lon="-105.2292018">
  <ele>1582.99</ele>
  <time>2026-09-02T20:50:53Z</time>
  <course>329.67</course>
  <speed>1.19</speed>
  <fix>3d</fix>
</trkpt>
<trkpt lat="40.0710955" lon="-105.229204">
  <ele>1582.99</ele>
  <time>2026-09-02T20:50:53Z</time>
  <course>329.53</course>
  <speed>1.1920151005754918</speed>
  <fix>3d</fix>
</trkpt>
<trkpt lat="40.0710943" lon="-105.2292032">
  <ele>1582.99</ele>
  <time>2026-09-02T20:50:53Z</time>
  <course>329.63</course>
  <speed>1.19</speed>
  <fix>3d</fix>
</trkpt>
<trkpt lat="40.0710962" lon="-105.2292047">
  <ele>1582.99</ele>
  <time>2026-09-02T20:50:53Z</time>
  <course>329.5</course>
  <speed>1.1920151005754918</speed>
  <fix>3d</fix>
</trkpt>
<trkpt lat="40.0710943" lon="-105.2292032">
  <ele>1582.99</ele>
  <time>2026-09-02T20:50:53Z</time>
  <course>329.63</course>
  <speed>1.19</speed>
  <fix>3d</fix>
</trkpt>
<trkpt lat="40.071097" lon="-105.2292054">
  <ele>1582.99</ele>
  <time>2026-09-02T20:50:53Z</time>
  <course>329.47</course>
  <speed>1.1920151005754918</speed>
  <fix>3d</fix>
</trkpt>
<trkpt lat="40.0710962" lon="-105.2292047">
  <ele>1582.99</ele>
  <time>2026-09-02T20:50:53Z</time>
  <course>329.58</course>
  <speed>1.19</speed>
  <fix>3d</fix>
</trkpt>
<trkpt lat="40.0710981" lon="-105.2292061">
  <ele>1582.99</ele>
  <time>2026-09-02T20:50:53Z</time>
  <course>329.44</course>
  <speed>1.1920151005754918</speed>
  <fix>3d</fix>
</trkpt>
<trkpt lat="40.0710962" lon="-105.2292047">
  <ele>1582.99</ele>
  <time>2026-09-02T20:50:53Z</time>
  <course>329.58</course>
  <speed>1.19</speed>
  <fix>3d</fix>
</trkpt>
<trkpt lat="40.0710989" lon="-105.2292068">
  <ele>1582.99</ele>
  <time>2026-09-02T20:50:53Z</time>
  <course>329.41</course>
  <speed>1.1920151005754918</speed>
  <fix>3d</fix>
</trkpt>
<trkpt lat="40.071098" lon="-105.2292061">
  <ele>1582.99</ele>
  <time>2026-09-02T20:50:53Z</time>
  <course>329.51</course>
  <speed>1.19</speed>
  <fix>3d</fix>
</trkpt>
<trkpt lat="40.0710999" lon="-105.2292075">
  <ele>1582.99</ele>
  <time>2026-09-02T20:50:53Z</time>
  <course>329.38</course>
  <speed>1.1970797801316335</speed>
  <fix>3d</fix>
</trkpt>
<trkpt lat="40.071098" lon="-105.2292061">
  <ele>1582.99</ele>
  <time>2026-09-02T20:50:53Z</time>
  <course>329.51</course>
  <speed>1.19</speed>
  <fix>3d</fix>
</trkpt>
<trkpt lat="40.0711009" lon="-105.2292082">
  <ele>1582.99</ele>
  <time>2026-09-02T20:50:53Z</time>
  <course>329.34</course>
  <speed>1.1970797801316335</speed>
  <fix>3d</fix>
</trkpt>
<trkpt lat="40.0710999" lon="-105.2292075">
  <ele>1582.99</ele>
  <time>2026-09-02T20:50:53Z</time>
  <course>329.45</course>
  <speed>1.19</speed>
  <fix>3d</fix>
</trkpt>
<trkpt lat="40.0711018" lon="-105.229209">
  <ele>1582.99</ele>
  <time>2026-09-02T20:50:53Z</time>
  <course>329.3</course>
  <speed>1.1833849753989611</speed>
  <fix>3d</fix>
</trkpt>
<trkpt lat="40.0710999" lon="-105.2292075">
  <ele>1582.99</ele>
  <time>2026-09-02T20:50:53Z</time>
  <course>329.45</course>
  <speed>1.19</speed>
  <fix>3d</fix>
</trkpt>
<trkpt lat="40.0711027" lon="-105.2292097">
  <ele>1582.99</ele>
  <time>2026-09-02T20:50:53Z</time>
  <course>329.26</course>
  <speed>1.1970797801316335</speed>
  <fix>3d</fix>
</trkpt>
<trkpt lat="40.0711017" lon="-105.2292089">
  <ele>1582.99</ele>
  <time>2026-09-02T20:50:53Z</time>
  <course>329.37</course>
  <speed>1.2</speed>
  <fix>3d</fix>
</trkpt>
<trkpt lat="40.0711036" lon="-105.2292104">
  <ele>1582.99</ele>
  <time>2026-09-02T20:50:53Z</time>
  <course>329.22</course>
  <speed>1.1970797801316335</speed>
  <fix>3d</fix>
</trkpt>
<trkpt lat="40.0711017" lon="-105.2292089">
  <ele>1582.99</ele>
  <time>2026-09-02T20:50:53Z</time>
  <course>329.37</course>
  <speed>1.2</speed>
  <fix>3d</fix>
</trkpt>
<trkpt lat="40.0711046" lon="-105.2292111">
  <ele>1582.99</ele>
  <time>2026-09-02T20:50:53Z</time>
  <course>329.19</course>
  <speed>1.1970797801316335</speed>
  <fix>3d</fix>
</trkpt>
<trkpt lat="40.0711036" lon="-105.2292104">
  <ele>1582.99</ele>
  <time>2026-09-02T20:50:53Z</time>
  <course>329.3</course>
  <speed>1.2</speed>
  <fix>3d</fix>
</trkpt>
<trkpt lat="40.0711056" lon="-105.2292119">
  <ele>1582.99</ele>
  <time>2026-09-02T20:50:53Z</time>
  <course>329.14</course>
  <speed>1.1884864324004711</speed>
  <fix>3d</fix>
</trkpt>
<trkpt lat="40.0711036" lon="-105.2292104">
  <ele>1582.99</ele>
  <time>2026-09-02T20:50:53Z</time>
  <course>329.3</course>
  <speed>1.2</speed>
  <fix>3d</fix>
</trkpt>
<trkpt lat="40.0711066" lon="-105.2292126">
  <ele>1582.99</ele>
  <time>2026-09-02T20:50:53Z</time>
  <course>329.1</course>
  <speed>1.1970797801316335</speed>
  <fix>3d</fix>
</trkpt>
<trkpt lat="40.0711055" lon="-105.2292118">
  <ele>1582.99</ele>
  <time>2026-09-02T20:50:53Z</time>
  <course>329.22</course>
  <speed>1.2</speed>
  <fix>3d</fix>
</trkpt>
<trkpt lat="40.0711074" lon="-105.2292133">
  <ele>1582.99</ele>
  <time>2026-09-02T20:50:53Z</time>
  <course>329.06</course>
  <speed>1.1884864324004711</speed>
  <fix>3d</fix>
</trkpt>
<trkpt lat="40.0711055" lon="-105.2292118">
  <ele>1582.99</ele>
  <time>2026-09-02T20:50:53Z</time>
  <course>329.22</course>
  <speed>1.2</speed>
  <fix>3d</fix>
</trkpt>
<trkpt lat="40.0711084" lon="-105.229214">
  <ele>1582.99</ele>
  <time>2026-09-02T20:50:53Z</time>
  <course>329.01</course>
  <speed>1.1970797801316335</speed>
  <fix>3d</fix>
</trkpt>
<trkpt lat="40.0711073" lon="-105.2292133">
  <ele>1582.99</ele>
  <time>2026-09-02T20:50:53Z</time>
  <course>329.13</course>
  <speed>1.2</speed>
  <fix>3d</fix>
</trkpt>
<trkpt lat="40.0711094" lon="-105.2292149">
  <ele>1582.99</ele>
  <time>2026-09-02T20:50:53Z</time>
  <course>328.97</course>
  <speed>1.1884864324004711</speed>
  <fix>3d</fix>
</trkpt>
<trkpt lat="40.0711073" lon="-105.2292133">
  <ele>1582.99</ele>
  <time>2026-09-02T20:50:53Z</time>
  <course>329.13</course>
  <speed>1.2</speed>
  <fix>3d</fix>
</trkpt>
<trkpt lat="40.0711103" lon="-105.2292155">
  <ele>1582.99</ele>
  <time>2026-09-02T20:50:53Z</time>
  <course>328.93</course>
  <speed>1.2022063050907694</speed>
  <fix>3d</fix>
</trkpt>
<trkpt lat="40.0711091" lon="-105.2292147">
  <ele>1582.99</ele>
  <time>2026-09-02T20:50:53Z</time>
  <course>329.05</course>
  <speed>1.2</speed>
  <fix>3d</fix>
</trkpt>
<trkpt lat="40.0711112" lon="-105.2292162">
  <ele>1582.99</ele>
  <time>2026-09-02T20:50:53Z</time>
  <course>328.89</course>
  <speed>1.1884864324004711</speed>
  <fix>3d</fix>
</trkpt>
<trkpt lat="40.0711091" lon="-105.2292147">
  <ele>1582.99</ele>
  <time>2026-09-02T20:50:53Z</time>
  <course>329.05</course>
  <speed>1.2</speed>
  <fix>3d</fix>
</trkpt>
<trkpt lat="40.0711121" lon="-105.2292171">
  <ele>1582.99</ele>
  <time>2026-09-02T20:50:53Z</time>
  <course>328.85</course>
  <speed>1.2022063050907694</speed>
  <fix>3d</fix>
</trkpt>
<trkpt lat="40.071111" lon="-105.2292162">
  <ele>1582.99</ele>
  <time>2026-09-02T20:50:53Z</time>
  <course>328.97</course>
  <speed>1.2</speed>
  <fix>3d</fix>
</trkpt>
<trkpt lat="40.0711131" lon="-105.2292178">
  <ele>1582.99</ele>
  <time>2026-09-02T20:50:53Z</time>
  <course>328.81</course>
  <speed>1.1884864324004711</speed>
  <fix>3d</fix>
</trkpt>
<trkpt lat="40.071111" lon="-105.2292162">
  <ele>1582.99</ele>
  <time>2026-09-02T20:50:53Z</time>
  <course>328.97</course>
  <speed>1.2</speed>
  <fix>3d</fix>
</trkpt>
<trkpt lat="40.071114" lon="-105.2292185">
  <ele>1582.99</ele>
  <time>2026-09-02T20:50:53Z</time>
  <course>328.77</course>
  <speed>1.2022063050907694</speed>
  <fix>3d</fix>
</trkpt>
<trkpt lat="40.0711129" lon="-105.2292176">
  <ele>1582.99</ele>
  <time>2026-09-02T20:50:53Z</time>
  <course>328.89</course>
  <speed>1.2</speed>
  <fix>3d</fix>
</trkpt>
<trkpt lat="40.0711149" lon="-105.2292191">
  <ele>1582.99</ele>
  <time>2026-09-02T20:50:53Z</time>
  <course>328.73</course>
  <speed>1.1884864324004711</speed>
  <fix>3d</fix>
</trkpt>
<trkpt lat="40.0711129" lon="-105.2292176">
  <ele>1582.99</ele>
  <time>2026-09-02T20:50:53Z</time>
  <course>328.89</course>
  <speed>1.2</speed>
  <fix>3d</fix>
</trkpt>
<trkpt lat="40.0711157" lon="-105.2292198">
  <ele>1582.99</ele>
  <time>2026-09-02T20:50:53Z</time>
  <course>328.69</course>
  <speed>1.2022063050907694</speed>
  <fix>3d</fix>
</trkpt>
<trkpt lat="40.0711147" lon="-105.2292191">
  <ele>1582.99</ele>
  <time>2026-09-02T20:50:53Z</time>
  <course>328.8</course>
  <speed>1.2</speed>
  <fix>3d</fix>
</trkpt>
<trkpt lat="40.0711165" lon="-105.2292205">
  <ele>1582.99</ele>
  <time>2026-09-02T20:50:53Z</time>
  <course>328.65</course>
  <speed>1.193649864910142</speed>
  <fix>3d</fix>
</trkpt>
<trkpt lat="40.0711147" lon="-105.2292191">
  <ele>1582.99</ele>
  <time>2026-09-02T20:50:53Z</time>
  <course>328.8</course>
  <speed>1.2</speed>
  <fix>3d</fix>
</trkpt>
<trkpt lat="40.0711175" lon="-105.2292212">
  <ele>1582.99</ele>
  <time>2026-09-02T20:50:53Z</time>
  <course>328.62</course>
  <speed>1.2022063050907694</speed>
  <fix>3d</fix>
</trkpt>
<trkpt lat="40.0711165" lon="-105.2292205">
  <ele>1582.99</ele>
  <time>2026-09-02T20:50:53Z</time>
  <course>328.72</course>
  <speed>1.2</speed>
  <fix>3d</fix>
</trkpt>
<trkpt lat="40.0711183" lon="-105.2292219">
  <ele>1582.99</ele>
  <time>2026-09-02T20:50:53Z</time>
  <course>328.58</course>
  <speed>1.193649864910142</speed>
  <fix>3d</fix>
</trkpt>
<trkpt lat="40.0711165" lon="-105.2292205">
  <ele>1582.99</ele>
  <time>2026-09-02T20:50:53Z</time>
  <course>328.72</course>
  <speed>1.2</speed>
  <fix>3d</fix>
</trkpt>
<trkpt lat="40.0711193" lon="-105.2292228">
  <ele>1582.99</ele>
  <time>2026-09-02T20:50:53Z</time>
  <course>328.54</course>
  <speed>1.193649864910142</speed>
  <fix>3d</fix>
</trkpt>
<trkpt lat="40.0711184" lon="-105.229222">
  <ele>1582.99</ele>
  <time>2026-09-02T20:50:53Z</time>
  <course>328.65</course>
  <speed>1.2</speed>
  <fix>3d</fix>
</trkpt>
<trkpt lat="40.0711202" lon="-105.2292234">
  <ele>1582.99</ele>
  <time>2026-09-02T20:50:53Z</time>
  <course>328.5</course>
  <speed>1.193649864910142</speed>
  <fix>3d</fix>
</trkpt>
<trkpt lat="40.0711184" lon="-105.229222">
  <ele>1582.99</ele>
  <time>2026-09-02T20:50:53Z</time>
  <course>328.65</course>
  <speed>1.2</speed>
  <fix>3d</fix>
</trkpt>
<trkpt lat="40.0711212" lon="-105.2292241">
  <ele>1582.99</ele>
  <time>2026-09-02T20:50:53Z</time>
  <course>328.47</course>
  <speed>1.193649864910142</speed>
  <fix>3d</fix>
</trkpt>
<trkpt lat="40.0711202" lon="-105.2292234">
  <ele>1582.99</ele>
  <time>2026-09-02T20:50:53Z</time>
  <course>328.57</course>
  <speed>1.2</speed>
  <fix>3d</fix>
</trkpt>
<trkpt lat="40.071122" lon="-105.229225">
  <ele>1582.99</ele>
  <time>2026-09-02T20:50:53Z</time>
  <course>328.43</course>
  <speed>1.1851160280748885</speed>
  <fix>3d</fix>
</trkpt>
<trkpt lat="40.0711202" lon="-105.2292234">
  <ele>1582.99</ele>
  <time>2026-09-02T20:50:53Z</time>
  <course>328.57</course>
  <speed>1.2</speed>
  <fix>3d</fix>
</trkpt>
<trkpt lat="40.071123" lon="-105.2292257">
  <ele>1582.99</ele>
  <time>2026-09-02T20:50:53Z</time>
  <course>328.38</course>
  <speed>1.1988744721612852</speed>
  <fix>3d</fix>
</trkpt>
<trkpt lat="40.071122" lon="-105.2292249">
  <ele>1582.99</ele>
  <time>2026-09-02T20:50:53Z</time>
  <course>328.49</course>
  <speed>1.2</speed>
  <fix>3d</fix>
</trkpt>
<trkpt lat="40.0711238" lon="-105.2292264">
  <ele>1582.99</ele>
  <time>2026-09-02T20:50:53Z</time>
  <course>328.3</course>
  <speed>1.1851160280748885</speed>
  <fix>3d</fix>
</trkpt>
<trkpt lat="40.071122" lon="-105.2292249">
  <ele>1582.99</ele>
  <time>2026-09-02T20:50:53Z</time>
  <course>328.49</course>
  <speed>1.2</speed>
  <fix>3d</fix>
</trkpt>
<trkpt lat="40.0711249" lon="-105.2292272">
  <ele>1582.99</ele>
  <time>2026-09-02T20:50:53Z</time>
  <course>328.18</course>
  <speed>1.1988744721612852</speed>
  <fix>3d</fix>
</trkpt>
<trkpt lat="40.0711239" lon="-105.2292264">
  <ele>1582.99</ele>
  <time>2026-09-02T20:50:53Z</time>
  <course>328.36</course>
  <speed>1.2</speed>
  <fix>3d</fix>
</trkpt>
<trkpt lat="40.0711259" lon="-105.2292281">
  <ele>1582.99</ele>
  <time>2026-09-02T20:50:53Z</time>
  <course>328.04</course>
  <speed>1.1903780911962385</speed>
  <fix>3d</fix>
</trkpt>
<trkpt lat="40.0711239" lon="-105.2292264">
  <ele>1582.99</ele>
  <time>2026-09-02T20:50:53Z</time>
  <course>328.36</course>
  <speed>1.2</speed>
  <fix>3d</fix>
</trkpt>
<trkpt lat="40.0711268" lon="-105.2292288">
  <ele>1582.99</ele>
  <time>2026-09-02T20:50:53Z</time>
  <course>327.88</course>
  <speed>1.1903780911962385</speed>
  <fix>3d</fix>
</trkpt>
<trkpt lat="40.0711257" lon="-105.2292279">
  <ele>1582.99</ele>
  <time>2026-09-02T20:50:53Z</time>
  <course>328.12</course>
  <speed>1.2</speed>
  <fix>3d</fix>
</trkpt>
<trkpt lat="40.0711278" lon="-105.2292296">
  <ele>1582.99</ele>
  <time>2026-09-02T20:50:53Z</time>
  <course>327.68</course>
  <speed>1.1957006314291216</speed>
  <fix>3d</fix>
</trkpt>
<trkpt lat="40.0711257" lon="-105.2292279">
  <ele>1582.99</ele>
  <time>2026-09-02T20:50:53Z</time>
  <course>328.12</course>
  <speed>1.2</speed>
  <fix>3d</fix>
</trkpt>
<trkpt lat="40.0711286" lon="-105.2292303">
  <ele>1582.99</ele>
  <time>2026-09-02T20:50:53Z</time>
  <course>327.46</course>
  <speed>1.1957006314291216</speed>
  <fix>3d</fix>
</trkpt>
<trkpt lat="40.0711275" lon="-105.2292294">
  <ele>1582.99</ele>
  <time>2026-09-02T20:50:53Z</time>
  <course>327.77</course>
  <speed>1.2</speed>
  <fix>3d</fix>
</trkpt>
<trkpt lat="40.0711296" lon="-105.229231">
  <ele>1582.99</ele>
  <time>2026-09-02T20:50:53Z</time>
  <course>327.2</course>
  <speed>1.1872657663724664</speed>
  <fix>3d</fix>
</trkpt>
<trkpt lat="40.0711275" lon="-105.2292294">
  <ele>1582.99</ele>
  <time>2026-09-02T20:50:53Z</time>
  <course>327.77</course>
  <speed>1.2</speed>
  <fix>3d</fix>
</trkpt>
<trkpt lat="40.0711304" lon="-105.2292317">
  <ele>1582.99</ele>
  <time>2026-09-02T20:50:53Z</time>
  <course>326.9</course>
  <speed>1.1926860441876563</speed>
  <fix>3d</fix>
</trkpt>
<trkpt lat="40.0711294" lon="-105.2292309">
  <ele>1582.99</ele>
  <time>2026-09-02T20:50:53Z</time>
  <course>327.3</course>
  <speed>1.19</speed>
  <fix>3d</fix>
</trkpt>
<trkpt lat="40.0711314" lon="-105.2292325">
  <ele>1582.99</ele>
  <time>2026-09-02T20:50:53Z</time>
  <course>326.58</course>
  <speed>1.1981652640600127</speed>
  <fix>3d</fix>
</trkpt>
<trkpt lat="40.0711294" lon="-105.2292309">
  <ele>1582.99</ele>
  <time>2026-09-02T20:50:53Z</time>
  <course>327.3</course>
  <speed>1.19</speed>
  <fix>3d</fix>
</trkpt>
<trkpt lat="40.0711322" lon="-105.2292334">
  <ele>1582.99</ele>
  <time>2026-09-02T20:50:53Z</time>
  <course>326.23</course>
  <speed>1.1898319209031165</speed>
  <fix>3d</fix>
</trkpt>
<trkpt lat="40.0711311" lon="-105.2292324">
  <ele>1582.99</ele>
  <time>2026-09-02T20:50:53Z</time>
  <course>326.69</course>
  <speed>1.19</speed>
  <fix>3d</fix>
</trkpt>
<trkpt lat="40.0711332" lon="-105.2292341">
  <ele>1582.99</ele>
  <time>2026-09-02T20:50:53Z</time>
  <course>325.88</course>
  <speed>1.1954078801814885</speed>
  <fix>3d</fix>
</trkpt>
<trkpt lat="40.0711311" lon="-105.2292324">
  <ele>1582.99</ele>
  <time>2026-09-02T20:50:53Z</time>
  <course>326.69</course>
  <speed>1.19</speed>
  <fix>3d</fix>
</trkpt>
<trkpt lat="40.071134" lon="-105.2292349">
  <ele>1582.99</ele>
  <time>2026-09-02T20:50:53Z</time>
  <course>325.53</course>
  <speed>1.1871394189394942</speed>
  <fix>3d</fix>
</trkpt>
<trkpt lat="40.071133" lon="-105.2292339">
  <ele>1582.99</ele>
  <time>2026-09-02T20:50:53Z</time>
  <course>326.01</course>
  <speed>1.19</speed>
  <fix>3d</fix>
</trkpt>
<trkpt lat="40.0711347" lon="-105.2292356">
  <ele>1582.99</ele>
  <time>2026-09-02T20:50:53Z</time>
  <course>325.27</course>
  <speed>1.1928118040998756</speed>
  <fix>3d</fix>
</trkpt>
<trkpt lat="40.071133" lon="-105.2292339">
  <ele>1582.99</ele>
  <time>2026-09-02T20:50:53Z</time>
  <course>326.01</course>
  <speed>1.19</speed>
  <fix>3d</fix>
</trkpt>
<trkpt lat="40.0711357" lon="-105.2292363">
  <ele>1582.99</ele>
  <time>2026-09-02T20:50:53Z</time>
  <course>324.96</course>
  <speed>1.1928118040998756</speed>
  <fix>3d</fix>
</trkpt>
<trkpt lat="40.0711347" lon="-105.2292356">
  <ele>1582.99</ele>
  <time>2026-09-02T20:50:53Z</time>
  <course>325.34</course>
  <speed>1.19</speed>
  <fix>3d</fix>
</trkpt>
<trkpt lat="40.0711365" lon="-105.2292372">
  <ele>1583.0</ele>
  <time>2026-09-02T20:50:53Z</time>
  <course>324.67</course>
  <speed>1.1985407794480754</speed>
  <fix>3d</fix>
</trkpt>
<trkpt lat="40.0711347" lon="-105.2292356">
  <ele>1582.99</ele>
  <time>2026-09-02T20:50:53Z</time>
  <course>325.34</course>
  <speed>1.19</speed>
  <fix>3d</fix>
</trkpt>
<trkpt lat="40.0711374" lon="-105.229238">
  <ele>1582.99</ele>
  <time>2026-09-02T20:50:53Z</time>
  <course>324.41</course>
  <speed>1.1903780911962385</speed>
  <fix>3d</fix>
</trkpt>
<trkpt lat="40.0711365" lon="-105.2292372">
  <ele>1582.99</ele>
  <time>2026-09-02T20:50:53Z</time>
  <course>324.74</course>
  <speed>1.19</speed>
  <fix>3d</fix>
</trkpt>
<trkpt lat="40.0711383" lon="-105.2292387">
  <ele>1582.99</ele>
  <time>2026-09-02T20:50:53Z</time>
  <course>324.16</course>
  <speed>1.196202324023825</speed>
  <fix>3d</fix>
</trkpt>
<trkpt lat="40.0711365" lon="-105.2292372">
  <ele>1582.99</ele>
  <time>2026-09-02T20:50:53Z</time>
  <course>324.74</course>
  <speed>1.19</speed>
  <fix>3d</fix>
</trkpt>
<trkpt lat="40.0711392" lon="-105.2292396">
  <ele>1582.99</ele>
  <time>2026-09-02T20:50:53Z</time>
  <course>323.94</course>
  <speed>1.1881077392223316</speed>
  <fix>3d</fix>
</trkpt>
<trkpt lat="40.0711383" lon="-105.2292388">
  <ele>1582.99</ele>
  <time>2026-09-02T20:50:53Z</time>
  <course>324.23</course>
  <speed>1.19</speed>
  <fix>3d</fix>
</trkpt>
<trkpt lat="40.0711401" lon="-105.2292404">
  <ele>1582.99</ele>
  <time>2026-09-02T20:50:53Z</time>
  <course>323.75</course>
  <speed>1.1881077392223316</speed>
  <fix>3d</fix>
</trkpt>
<trkpt lat="40.0711383" lon="-105.2292388">
  <ele>1582.99</ele>
  <time>2026-09-02T20:50:53Z</time>
  <course>324.23</course>
  <speed>1.19</speed>
  <fix>3d</fix>
</trkpt>
<trkpt lat="40.0711408" lon="-105.2292413">
  <ele>1582.99</ele>
  <time>2026-09-02T20:50:53Z</time>
  <course>323.58</course>
  <speed>1.194026800369238</speed>
  <fix>3d</fix>
</trkpt>
<trkpt lat="40.07114" lon="-105.2292405">
  <ele>1582.99</ele>
  <time>2026-09-02T20:50:53Z</time>
  <course>323.82</course>
  <speed>1.19</speed>
  <fix>3d</fix>
</trkpt>
<trkpt lat="40.0711418" lon="-105.2292422">
  <ele>1582.99</ele>
  <time>2026-09-02T20:50:53Z</time>
  <course>323.45</course>
  <speed>1.194026800369238</speed>
  <fix>3d</fix>
</trkpt>
<trkpt lat="40.07114" lon="-105.2292405">
  <ele>1582.99</ele>
  <time>2026-09-02T20:50:53Z</time>
  <course>323.82</course>
  <speed>1.19</speed>
  <fix>3d</fix>
</trkpt>
<trkpt lat="40.0711426" lon="-105.229243">
  <ele>1582.99</ele>
  <time>2026-09-02T20:50:53Z</time>
  <course>323.34</course>
  <speed>1.186001686339442</speed>
  <fix>3d</fix>
</trkpt>
<trkpt lat="40.0711417" lon="-105.2292421">
  <ele>1582.99</ele>
  <time>2026-09-02T20:50:53Z</time>
  <course>323.52</course>
  <speed>1.19</speed>
  <fix>3d</fix>
</trkpt>
<trkpt lat="40.0711437" lon="-105.229244">
  <ele>1582.99</ele>
  <time>2026-09-02T20:50:53Z</time>
  <course>323.21</course>
  <speed>1.194026800369238</speed>
  <fix>3d</fix>
</trkpt>
<trkpt lat="40.0711417" lon="-105.2292421">
  <ele>1582.99</ele>
  <time>2026-09-02T20:50:53Z</time>
  <course>323.52</course>
  <speed>1.19</speed>
  <fix>3d</fix>
</trkpt>
<trkpt lat="40.0711445" lon="-105.2292449">
  <ele>1582.99</ele>
  <time>2026-09-02T20:50:53Z</time>
  <course>323.11</course>
  <speed>1.186001686339442</speed>
  <fix>3d</fix>
</trkpt>
<trkpt lat="40.0711435" lon="-105.2292438">
  <ele>1582.99</ele>
  <time>2026-09-02T20:50:53Z</time>
  <course>323.3</course>
  <speed>1.19</speed>
  <fix>3d</fix>
</trkpt>
<trkpt lat="40.0711454" lon="-105.2292456">
  <ele>1582.99</ele>
  <time>2026-09-02T20:50:53Z</time>
  <course>323.02</course>
  <speed>1.2</speed>
  <fix>3d</fix>
</trkpt>
<trkpt lat="40.0711435" lon="-105.2292438">
  <ele>1582.99</ele>
  <time>2026-09-02T20:50:53Z</time>
  <course>323.3</course>
  <speed>1.19</speed>
  <fix>3d</fix>
</trkpt>
<trkpt lat="40.0711462" lon="-105.2292466">
  <ele>1582.99</ele>
  <time>2026-09-02T20:50:53Z</time>
  <course>322.93</course>
  <speed>1.1920151005754918</speed>
  <fix>3d</fix>
</trkpt>
<trkpt lat="40.0711452" lon="-105.2292455">
  <ele>1582.99</ele>
  <time>2026-09-02T20:50:53Z</time>
  <course>323.1</course>
  <speed>1.19</speed>
  <fix>3d</fix>
</trkpt>
<trkpt lat="40.0711471" lon="-105.2292473">
  <ele>1582.99</ele>
  <time>2026-09-02T20:50:53Z</time>
  <course>322.85</course>
  <speed>1.1920151005754918</speed>
  <fix>3d</fix>
</trkpt>
<trkpt lat="40.0711452" lon="-105.2292455">
  <ele>1582.99</ele>
  <time>2026-09-02T20:50:53Z</time>
  <course>323.1</course>
  <speed>1.19</speed>
  <fix>3d</fix>
</trkpt>
<trkpt lat="40.071148" lon="-105.2292483">
  <ele>1582.99</ele>
  <time>2026-09-02T20:50:53Z</time>
  <course>322.77</course>
  <speed>1.1920151005754918</speed>
  <fix>3d</fix>
</trkpt>
<trkpt lat="40.0711469" lon="-105.2292472">
  <ele>1582.99</ele>
  <time>2026-09-02T20:50:53Z</time>
  <course>322.92</course>
  <speed>1.19</speed>
  <fix>3d</fix>
</trkpt>
<trkpt lat="40.0711489" lon="-105.229249">
  <ele>1582.99</ele>
  <time>2026-09-02T20:50:53Z</time>
  <course>322.7</course>
  <speed>1.1920151005754918</speed>
  <fix>3d</fix>
</trkpt>
<trkpt lat="40.0711469" lon="-105.2292472">
  <ele>1582.99</ele>
  <time>2026-09-02T20:50:53Z</time>
  <course>322.92</course>
  <speed>1.19</speed>
  <fix>3d</fix>
</trkpt>
<trkpt lat="40.0711497" lon="-105.2292499">
  <ele>1582.99</ele>
  <time>2026-09-02T20:50:53Z</time>
  <course>322.63</course>
  <speed>1.1920151005754918</speed>
  <fix>3d</fix>
</trkpt>
<trkpt lat="40.0711486" lon="-105.2292489">
  <ele>1582.99</ele>
  <time>2026-09-02T20:50:53Z</time>
  <course>322.77</course>
  <speed>1.19</speed>
  <fix>3d</fix>
</trkpt>
<trkpt lat="40.0711505" lon="-105.2292507">
  <ele>1583.0</ele>
  <time>2026-09-02T20:50:53Z</time>
  <course>322.57</course>
  <speed>1.1920151005754918</speed>
  <fix>3d</fix>
</trkpt>
<trkpt lat="40.0711486" lon="-105.2292489">
  <ele>1582.99</ele>
  <time>2026-09-02T20:50:53Z</time>
  <course>322.77</course>
  <speed>1.19</speed>
  <fix>3d</fix>
</trkpt>
<trkpt lat="40.0711514" lon="-105.2292516">
  <ele>1583.0</ele>
  <time>2026-09-02T20:50:53Z</time>
  <course>322.52</course>
  <speed>1.1920151005754918</speed>
  <fix>3d</fix>
</trkpt>
<trkpt lat="40.0711504" lon="-105.2292506">
  <ele>1582.99</ele>
  <time>2026-09-02T20:50:53Z</time>
  <course>322.64</course>
  <speed>1.19</speed>
  <fix>3d</fix>
</trkpt>
<trkpt lat="40.0711523" lon="-105.2292525">
  <ele>1582.99</ele>
  <time>2026-09-02T20:50:53Z</time>
  <course>322.47</course>
  <speed>1.1980818002123228</speed>
  <fix>3d</fix>
</trkpt>
<trkpt lat="40.0711504" lon="-105.2292506">
  <ele>1582.99</ele>
  <time>2026-09-02T20:50:53Z</time>
  <course>322.64</course>
  <speed>1.19</speed>
  <fix>3d</fix>
</trkpt>
<trkpt lat="40.0711529" lon="-105.2292532">
  <ele>1582.99</ele>
  <time>2026-09-02T20:50:53Z</time>
  <course>322.43</course>
  <speed>1.1920151005754918</speed>
  <fix>3d</fix>
</trkpt>
<trkpt lat="40.0711521" lon="-105.2292523">
  <ele>1582.99</ele>
  <time>2026-09-02T20:50:53Z</time>
  <course>322.54</course>
  <speed>1.19</speed>
  <fix>3d</fix>
</trkpt>
<trkpt lat="40.0711538" lon="-105.229254">
  <ele>1582.99</ele>
  <time>2026-09-02T20:50:53Z</time>
  <course>322.39</course>
  <speed>1.1980818002123228</speed>
  <fix>3d</fix>
</trkpt>
<trkpt lat="40.0711521" lon="-105.2292523">
  <ele>1582.99</ele>
  <time>2026-09-02T20:50:53Z</time>
  <course>322.54</course>
  <speed>1.19</speed>
  <fix>3d</fix>
</trkpt>
<trkpt lat="40.0711547" lon="-105.2292549">
  <ele>1582.99</ele>
  <time>2026-09-02T20:50:53Z</time>
  <course>322.35</course>
  <speed>1.1980818002123228</speed>
  <fix>3d</fix>
</trkpt>
<trkpt lat="40.0711538" lon="-105.229254">
  <ele>1582.99</ele>
  <time>2026-09-02T20:50:53Z</time>
  <course>322.44</course>
  <speed>1.19</speed>
  <fix>3d</fix>
</trkpt>
<trkpt lat="40.0711554" lon="-105.2292557">
  <ele>1582.99</ele>
  <time>2026-09-02T20:50:53Z</time>
  <course>322.31</course>
  <speed>1.1840608092492548</speed>
  <fix>3d</fix>
</trkpt>
<trkpt lat="40.0711538" lon="-105.229254">
  <ele>1582.99</ele>
  <time>2026-09-02T20:50:53Z</time>
  <course>322.44</course>
  <speed>1.19</speed>
  <fix>3d</fix>
</trkpt>
<trkpt lat="40.0711564" lon="-105.2292566">
  <ele>1582.99</ele>
  <time>2026-09-02T20:50:53Z</time>
  <course>322.28</course>
  <speed>1.1980818002123228</speed>
  <fix>3d</fix>
</trkpt>
<trkpt lat="40.0711555" lon="-105.2292558">
  <ele>1582.99</ele>
  <time>2026-09-02T20:50:53Z</time>
  <course>322.37</course>
  <speed>1.2</speed>
  <fix>3d</fix>
</trkpt>
<trkpt lat="40.0711571" lon="-105.2292574">
  <ele>1582.99</ele>
  <time>2026-09-02T20:50:53Z</time>
  <course>322.26</course>
  <speed>1.1901680553602503</speed>
  <fix>3d</fix>
</trkpt>
<trkpt lat="40.0711555" lon="-105.2292558">
  <ele>1582.99</ele>
  <time>2026-09-02T20:50:53Z</time>
  <course>322.37</course>
  <speed>1.2</speed>
  <fix>3d</fix>
</trkpt>
<trkpt lat="40.0711581" lon="-105.2292583">
  <ele>1582.99</ele>
  <time>2026-09-02T20:50:53Z</time>
  <course>322.23</course>
  <speed>1.1980818002123228</speed>
  <fix>3d</fix>
</trkpt>
<trkpt lat="40.0711572" lon="-105.2292575">
  <ele>1582.99</ele>
  <time>2026-09-02T20:50:53Z</time>
  <course>322.31</course>
  <speed>1.2</speed>
  <fix>3d</fix>
</trkpt>
<trkpt lat="40.071159" lon="-105.2292592">
  <ele>1582.99</ele>
  <time>2026-09-02T20:50:53Z</time>
  <course>322.22</course>
  <speed>1.1901680553602503</speed>
  <fix>3d</fix>
</trkpt>
<trkpt lat="40.0711572" lon="-105.2292575">
  <ele>1582.99</ele>
  <time>2026-09-02T20:50:53Z</time>
  <course>322.31</course>
  <speed>1.2</speed>
  <fix>3d</fix>
</trkpt>
<trkpt lat="40.0711597" lon="-105.22926">
  <ele>1582.99</ele>
  <time>2026-09-02T20:50:53Z</time>
  <course>322.19</course>
  <speed>1.1980818002123228</speed>
  <fix>3d</fix>
</trkpt>
<trkpt lat="40.0711589" lon="-105.2292592">
  <ele>1582.99</ele>
  <time>2026-09-02T20:50:53Z</time>
  <course>322.27</course>
  <speed>1.2</speed>
  <fix>3d</fix>
</trkpt>
<trkpt lat="40.0711608" lon="-105.2292611">
  <ele>1582.99</ele>
  <time>2026-09-02T20:50:53Z</time>
  <course>322.17</course>
  <speed>1.1901680553602503</speed>
  <fix>3d</fix>
</trkpt>
<trkpt lat="40.0711589" lon="-105.2292592">
  <ele>1582.99</ele>
  <time>2026-09-02T20:50:53Z</time>
  <course>322.27</course>
  <speed>1.2</speed>
  <fix>3d</fix>
</trkpt>
<trkpt lat="40.0711617" lon="-105.2292619">
  <ele>1582.99</ele>
  <time>2026-09-02T20:50:53Z</time>
  <course>322.16</course>
  <speed>1.1901680553602503</speed>
  <fix>3d</fix>
</trkpt>
<trkpt lat="40.0711606" lon="-105.2292609">
  <ele>1582.99</ele>
  <time>2026-09-02T20:50:53Z</time>
  <course>322.23</course>
  <speed>1.2</speed>
  <fix>3d</fix>
</trkpt>
<trkpt lat="40.0711625" lon="-105.2292629">
  <ele>1582.99</ele>
  <time>2026-09-02T20:50:53Z</time>
  <course>322.15</course>
  <speed>1.1980818002123228</speed>
  <fix>3d</fix>
</trkpt>
<trkpt lat="40.0711606" lon="-105.2292609">
  <ele>1582.99</ele>
  <time>2026-09-02T20:50:53Z</time>
  <course>322.23</course>
  <speed>1.2</speed>
  <fix>3d</fix>
</trkpt>
<trkpt lat="40.0711633" lon="-105.2292636">
  <ele>1582.99</ele>
  <time>2026-09-02T20:50:53Z</time>
  <course>322.14</course>
  <speed>1.1901680553602503</speed>
  <fix>3d</fix>
</trkpt>
<trkpt lat="40.0711623" lon="-105.2292626">
  <ele>1582.99</ele>
  <time>2026-09-02T20:50:53Z</time>
  <course>322.21</course>
  <speed>1.19</speed>
  <fix>3d</fix>
</trkpt>
<trkpt lat="40.0711642" lon="-105.2292645">
  <ele>1582.99</ele>
  <time>2026-09-02T20:50:53Z</time>
  <course>322.14</course>
  <speed>1.1980818002123228</speed>
  <fix>3d</fix>
</trkpt>
<trkpt lat="40.0711623" lon="-105.2292626">
  <ele>1582.99</ele>
  <time>2026-09-02T20:50:53Z</time>
  <course>322.21</course>
  <speed>1.19</speed>
  <fix>3d</fix>
</trkpt>
<trkpt lat="40.071165" lon="-105.2292653">
  <ele>1582.99</ele>
  <time>2026-09-02T20:50:53Z</time>
  <course>322.13</course>
  <speed>1.1901680553602503</speed>
  <fix>3d</fix>
</trkpt>
<trkpt lat="40.071164" lon="-105.2292644">
  <ele>1582.99</ele>
  <time>2026-09-02T20:50:53Z</time>
  <course>322.19</course>
  <speed>1.19</speed>
  <fix>3d</fix>
</trkpt>
<trkpt lat="40.0711658" lon="-105.2292662">
  <ele>1582.99</ele>
  <time>2026-09-02T20:50:53Z</time>
  <course>322.13</course>
  <speed>1.1901680553602503</speed>
  <fix>3d</fix>
</trkpt>
<trkpt lat="40.071164" lon="-105.2292644">
  <ele>1582.99</ele>
  <time>2026-09-02T20:50:53Z</time>
  <course>322.19</course>
  <speed>1.19</speed>
  <fix>3d</fix>
</trkpt>
<trkpt lat="40.0711668" lon="-105.2292672">
  <ele>1582.99</ele>
  <time>2026-09-02T20:50:53Z</time>
  <course>322.14</course>
  <speed>1.1980818002123228</speed>
  <fix>3d</fix>
</trkpt>
<trkpt lat="40.0711657" lon="-105.2292661">
  <ele>1582.99</ele>
  <time>2026-09-02T20:50:53Z</time>
  <course>322.19</course>
  <speed>1.2</speed>
  <fix>3d</fix>
</trkpt>
<trkpt lat="40.0711675" lon="-105.2292679">
  <ele>1582.99</ele>
  <time>2026-09-02T20:50:53Z</time>
  <course>322.14</course>
  <speed>1.1901680553602503</speed>
  <fix>3d</fix>
</trkpt>
<trkpt lat="40.0711657" lon="-105.2292661">
  <ele>1582.99</ele>
  <time>2026-09-02T20:50:53Z</time>
  <course>322.19</course>
  <speed>1.2</speed>
  <fix>3d</fix>
</trkpt>
<trkpt lat="40.0711685" lon="-105.2292688">
  <ele>1582.99</ele>
  <time>2026-09-02T20:50:53Z</time>
  <course>322.14</course>
  <speed>1.1980818002123228</speed>
  <fix>3d</fix>
</trkpt>
<trkpt lat="40.0711674" lon="-105.2292678">
  <ele>1582.99</ele>
  <time>2026-09-02T20:50:53Z</time>
  <course>322.19</course>
  <speed>1.2</speed>
  <fix>3d</fix>
</trkpt>
<trkpt lat="40.0711693" lon="-105.2292698">
  <ele>1582.99</ele>
  <time>2026-09-02T20:50:53Z</time>
  <course>322.14</course>
  <speed>1.1901680553602503</speed>
  <fix>3d</fix>
</trkpt>
<trkpt lat="40.0711674" lon="-105.2292678">
  <ele>1582.99</ele>
  <time>2026-09-02T20:50:53Z</time>
  <course>322.19</course>
  <speed>1.2</speed>
  <fix>3d</fix>
</trkpt>
<trkpt lat="40.0711702" lon="-105.2292705">
  <ele>1582.99</ele>
  <time>2026-09-02T20:50:53Z</time>
  <course>322.15</course>
  <speed>1.1901680553602503</speed>
  <fix>3d</fix>
</trkpt>
<trkpt lat="40.0711691" lon="-105.2292696">
  <ele>1582.99</ele>
  <time>2026-09-02T20:50:53Z</time>
  <course>322.2</course>
  <speed>1.2</speed>
  <fix>3d</fix>
</trkpt>
<trkpt lat="40.0711709" lon="-105.2292712">
  <ele>1582.99</ele>
  <time>2026-09-02T20:50:53Z</time>
  <course>322.16</course>
  <speed>1.1901680553602503</speed>
  <fix>3d</fix>
</trkpt>
<trkpt lat="40.0711691" lon="-105.2292696">
  <ele>1582.99</ele>
  <time>2026-09-02T20:50:53Z</time>
  <course>322.2</course>
  <speed>1.2</speed>
  <fix>3d</fix>
</trkpt>
<trkpt lat="40.0711717" lon="-105.2292722">
  <ele>1582.99</ele>
  <time>2026-09-02T20:50:53Z</time>
  <course>322.16</course>
  <speed>1.1980818002123228</speed>
  <fix>3d</fix>
</trkpt>
<trkpt lat="40.0711708" lon="-105.2292713">
  <ele>1582.99</ele>
  <time>2026-09-02T20:50:53Z</time>
  <course>322.21</course>
  <speed>1.2</speed>
  <fix>3d</fix>
</trkpt>
<trkpt lat="40.0711726" lon="-105.2292729">
  <ele>1582.99</ele>
  <time>2026-09-02T20:50:53Z</time>
  <course>322.18</course>
  <speed>1.1901680553602503</speed>
  <fix>3d</fix>
</trkpt>
<trkpt lat="40.0711708" lon="-105.2292713">
  <ele>1582.99</ele>
  <time>2026-09-02T20:50:53Z</time>
  <course>322.21</course>
  <speed>1.2</speed>
  <fix>3d</fix>
</trkpt>
<trkpt lat="40.0711734" lon="-105.2292739">
  <ele>1582.99</ele>
  <time>2026-09-02T20:50:53Z</time>
  <course>322.19</course>
  <speed>1.1980818002123228</speed>
  <fix>3d</fix>
</trkpt>
<trkpt lat="40.0711725" lon="-105.229273">
  <ele>1582.99</ele>
  <time>2026-09-02T20:50:53Z</time>
  <course>322.23</course>
  <speed>1.2</speed>
  <fix>3d</fix>
</trkpt>
<trkpt lat="40.0711742" lon="-105.2292748">
  <ele>1582.99</ele>
  <time>2026-09-02T20:50:53Z</time>
  <course>322.2</course>
  <speed>1.1901680553602503</speed>
  <fix>3d</fix>
</trkpt>
<trkpt lat="40.0711725" lon="-105.229273">
  <ele>1582.99</ele>
  <time>2026-09-02T20:50:53Z</time>
  <course>322.23</course>
  <speed>1.2</speed>
  <fix>3d</fix>
</trkpt>
<trkpt lat="40.0711751" lon="-105.2292755">
  <ele>1582.99</ele>
  <time>2026-09-02T20:50:53Z</time>
  <course>322.21</course>
  <speed>1.1980818002123228</speed>
  <fix>3d</fix>
</trkpt>
<trkpt lat="40.0711742" lon="-105.2292747">
  <ele>1582.99</ele>
  <time>2026-09-02T20:50:53Z</time>
  <course>322.25</course>
  <speed>1.2</speed>
  <fix>3d</fix>
</trkpt>
<trkpt lat="40.071176" lon="-105.2292765">
  <ele>1582.99</ele>
  <time>2026-09-02T20:50:53Z</time>
  <course>322.23</course>
  <speed>1.1901680553602503</speed>
  <fix>3d</fix>
</trkpt>
<trkpt lat="40.0711742" lon="-105.2292747">
  <ele>1582.99</ele>
  <time>2026-09-02T20:50:53Z</time>
  <course>322.25</course>
  <speed>1.2</speed>
  <fix>3d</fix>
</trkpt>
<trkpt lat="40.0711767" lon="-105.2292774">
  <ele>1582.99</ele>
  <time>2026-09-02T20:50:54Z</time>
  <course>322.24</course>
  <speed>1.1980818002123228</speed>
  <fix>3d</fix>
</trkpt>
<trkpt lat="40.0711759" lon="-105.2292765">
  <ele>1582.99</ele>
  <time>2026-09-02T20:50:54Z</time>
  <course>322.28</course>
  <speed>1.2</speed>
  <fix>3d</fix>
</trkpt>
<trkpt lat="40.0711777" lon="-105.2292782">
  <ele>1582.99</ele>
  <time>2026-09-02T20:50:54Z</time>
  <course>322.26</course>
  <speed>1.1901680553602503</speed>
  <fix>3d</fix>
</trkpt>
<trkpt lat="40.0711759" lon="-105.2292765">
  <ele>1582.99</ele>
  <time>2026-09-02T20:50:54Z</time>
  <course>322.28</course>
  <speed>1.2</speed>
  <fix>3d</fix>
</trkpt>
<trkpt lat="40.0711787" lon="-105.2292791">
  <ele>1582.99</ele>
  <time>2026-09-02T20:50:54Z</time>
  <course>322.27</course>
  <speed>1.1980818002123228</speed>
  <fix>3d</fix>
</trkpt>
<trkpt lat="40.0711776" lon="-105.2292782">
  <ele>1582.99</ele>
  <time>2026-09-02T20:50:54Z</time>
  <course>322.31</course>
  <speed>1.2</speed>
  <fix>3d</fix>
</trkpt>
<trkpt lat="40.0711796" lon="-105.2292801">
  <ele>1582.99</ele>
  <time>2026-09-02T20:50:54Z</time>
  <course>322.29</course>
  <speed>1.1901680553602503</speed>
  <fix>3d</fix>
</trkpt>
<trkpt lat="40.0711776" lon="-105.2292782">
  <ele>1582.99</ele>
  <time>2026-09-02T20:50:54Z</time>
  <course>322.31</course>
  <speed>1.2</speed>
  <fix>3d</fix>
</trkpt>
<trkpt lat="40.0711803" lon="-105.229281">
  <ele>1582.99</ele>
  <time>2026-09-02T20:50:54Z</time>
  <course>322.31</course>
  <speed>1.1980818002123228</speed>
  <fix>3d</fix>
</trkpt>
<trkpt lat="40.0711793" lon="-105.2292799">
  <ele>1582.99</ele>
  <time>2026-09-02T20:50:54Z</time>
  <course>322.34</course>
  <speed>1.2</speed>
  <fix>3d</fix>
</trkpt>
<trkpt lat="40.0711813" lon="-105.2292818">
  <ele>1582.99</ele>
  <time>2026-09-02T20:50:54Z</time>
  <course>322.32</course>
  <speed>1.1840608092492548</speed>
  <fix>3d</fix>
</trkpt>
<trkpt lat="40.0711793" lon="-105.2292799">
  <ele>1582.99</ele>
  <time>2026-09-02T20:50:54Z</time>
  <course>322.34</course>
  <speed>1.2</speed>
  <fix>3d</fix>
</trkpt>
<trkpt lat="40.0711821" lon="-105.2292827">
  <ele>1582.99</ele>
  <time>2026-09-02T20:50:54Z</time>
  <course>322.34</course>
  <speed>1.1980818002123228</speed>
  <fix>3d</fix>
</trkpt>
<trkpt lat="40.0711811" lon="-105.2292816">
  <ele>1582.99</ele>
  <time>2026-09-02T20:50:54Z</time>
  <course>322.37</course>
  <speed>1.2</speed>
  <fix>3d</fix>
</trkpt>
<trkpt lat="40.071183" lon="-105.2292834">
  <ele>1582.99</ele>
  <time>2026-09-02T20:50:54Z</time>
  <course>322.35</course>
  <speed>1.1840608092492548</speed>
  <fix>3d</fix>
</trkpt>
<trkpt lat="40.0711811" lon="-105.2292816">
  <ele>1582.99</ele>
  <time>2026-09-02T20:50:54Z</time>
  <course>322.37</course>
  <speed>1.2</speed>
  <fix>3d</fix>
</trkpt>
<trkpt lat="40.0711838" lon="-105.2292844">
  <ele>1582.99</ele>
  <time>2026-09-02T20:50:54Z</time>
  <course>322.37</course>
  <speed>1.1980818002123228</speed>
  <fix>3d</fix>
</trkpt>
<trkpt lat="40.0711828" lon="-105.2292833">
  <ele>1582.99</ele>
  <time>2026-09-02T20:50:54Z</time>
  <course>322.4</course>
  <speed>1.2</speed>
  <fix>3d</fix>
</trkpt>
<trkpt lat="40.0711846" lon="-105.2292853">
  <ele>1582.99</ele>
  <time>2026-09-02T20:50:54Z</time>
  <course>322.38</course>
  <speed>1.1840608092492548</speed>
  <fix>3d</fix>
</trkpt>
<trkpt lat="40.0711828" lon="-105.2292833">
  <ele>1582.99</ele>
  <time>2026-09-02T20:50:54Z</time>
  <course>322.4</course>
  <speed>1.2</speed>
  <fix>3d</fix>
</trkpt>
<trkpt lat="40.0711855" lon="-105.2292861">
  <ele>1582.99</ele>
  <time>2026-09-02T20:50:54Z</time>
  <course>322.39</course>
  <speed>1.1980818002123228</speed>
  <fix>3d</fix>
</trkpt>
<trkpt lat="40.0711845" lon="-105.2292851">
  <ele>1582.99</ele>
  <time>2026-09-02T20:50:54Z</time>
  <course>322.43</course>
  <speed>1.2</speed>
  <fix>3d</fix>
</trkpt>
<trkpt lat="40.0711863" lon="-105.229287">
  <ele>1582.99</ele>
  <time>2026-09-02T20:50:54Z</time>
  <course>322.41</course>
  <speed>1.1840608092492548</speed>
  <fix>3d</fix>
</trkpt>
<trkpt lat="40.0711845" lon="-105.2292851">
  <ele>1582.99</ele>
  <time>2026-09-02T20:50:54Z</time>
  <course>322.43</course>
  <speed>1.2</speed>
  <fix>3d</fix>
</trkpt>
<trkpt lat="40.0711873" lon="-105.2292878">
  <ele>1582.99</ele>
  <time>2026-09-02T20:50:54Z</time>
  <course>322.42</course>
  <speed>1.1980818002123228</speed>
  <fix>3d</fix>
</trkpt>
<trkpt lat="40.0711862" lon="-105.2292868">
  <ele>1582.99</ele>
  <time>2026-09-02T20:50:54Z</time>
  <course>322.46</course>
  <speed>1.2</speed>
  <fix>3d</fix>
</trkpt>
<trkpt lat="40.0711879" lon="-105.2292885">
  <ele>1582.99</ele>
  <time>2026-09-02T20:50:54Z</time>
  <course>322.43</course>
  <speed>1.1840608092492548</speed>
  <fix>3d</fix>
</trkpt>
<trkpt lat="40.0711862" lon="-105.2292868">
  <ele>1582.99</ele>
  <time>2026-09-02T20:50:54Z</time>
  <course>322.46</course>
  <speed>1.2</speed>
  <fix>3d</fix>
</trkpt>
<trkpt lat="40.0711888" lon="-105.2292894">
  <ele>1582.99</ele>
  <time>2026-09-02T20:50:54Z</time>
  <course>322.45</course>
  <speed>1.1980818002123228</speed>
  <fix>3d</fix>
</trkpt>
<trkpt lat="40.0711879" lon="-105.2292885">
  <ele>1582.99</ele>
  <time>2026-09-02T20:50:54Z</time>
  <course>322.49</course>
  <speed>1.2</speed>
  <fix>3d</fix>
</trkpt>
<trkpt lat="40.0711897" lon="-105.2292902">
  <ele>1582.99</ele>
  <time>2026-09-02T20:50:54Z</time>
  <course>322.46</course>
  <speed>1.1840608092492548</speed>
  <fix>3d</fix>
</trkpt>
<trkpt lat="40.0711879" lon="-105.2292885">
  <ele>1582.99</ele>
  <time>2026-09-02T20:50:54Z</time>
  <course>322.49</course>
  <speed>1.2</speed>
  <fix>3d</fix>
</trkpt>
<trkpt lat="40.0711905" lon="-105.2292911">
  <ele>1582.99</ele>
  <time>2026-09-02T20:50:54Z</time>
  <course>322.48</course>
  <speed>1.1980818002123228</speed>
  <fix>3d</fix>
</trkpt>
<trkpt lat="40.0711896" lon="-105.2292902">
  <ele>1582.99</ele>
  <time>2026-09-02T20:50:54Z</time>
  <course>322.52</course>
  <speed>1.2</speed>
  <fix>3d</fix>
</trkpt>
<trkpt lat="40.0711913" lon="-105.229292">
  <ele>1582.99</ele>
  <time>2026-09-02T20:50:54Z</time>
  <course>322.49</course>
  <speed>1.1840608092492548</speed>
  <fix>3d</fix>
</trkpt>
<trkpt lat="40.0711896" lon="-105.2292902">
  <ele>1582.99</ele>
  <time>2026-09-02T20:50:54Z</time>
  <course>322.52</course>
  <speed>1.2</speed>
  <fix>3d</fix>
</trkpt>
<trkpt lat="40.0711922" lon="-105.2292928">
  <ele>1582.99</ele>
  <time>2026-09-02T20:50:54Z</time>
  <course>322.5</course>
  <speed>1.1980818002123228</speed>
  <fix>3d</fix>
</trkpt>
<trkpt lat="40.0711913" lon="-105.2292919">
  <ele>1582.99</ele>
  <time>2026-09-02T20:50:54Z</time>
  <course>322.54</course>
  <speed>1.2</speed>
  <fix>3d</fix>
</trkpt>
<trkpt lat="40.071193" lon="-105.2292937">
  <ele>1582.99</ele>
  <time>2026-09-02T20:50:54Z</time>
  <course>322.51</course>
  <speed>1.1920151005754918</speed>
  <fix>3d</fix>
</trkpt>
<trkpt lat="40.0711913" lon="-105.2292919">
  <ele>1582.99</ele>
  <time>2026-09-02T20:50:54Z</time>
  <course>322.54</course>
  <speed>1.2</speed>
  <fix>3d</fix>
</trkpt>
<trkpt lat="40.0711939" lon="-105.2292945">
  <ele>1582.99</ele>
  <time>2026-09-02T20:50:54Z</time>
  <course>322.53</course>
  <speed>1.1920151005754918</speed>
  <fix>3d</fix>
</trkpt>
<trkpt lat="40.071193" lon="-105.2292936">
  <ele>1582.99</ele>
  <time>2026-09-02T20:50:54Z</time>
  <course>322.57</course>
  <speed>1.2</speed>
  <fix>3d</fix>
</trkpt>
<trkpt lat="40.0711948" lon="-105.2292954">
  <ele>1582.99</ele>
  <time>2026-09-02T20:50:54Z</time>
  <course>322.54</course>
  <speed>1.1840608092492548</speed>
  <fix>3d</fix>
</trkpt>
<trkpt lat="40.071193" lon="-105.2292936">
  <ele>1582.99</ele>
  <time>2026-09-02T20:50:54Z</time>
  <course>322.57</course>
  <speed>1.2</speed>
  <fix>3d</fix>
</trkpt>
<trkpt lat="40.0711955" lon="-105.2292961">
  <ele>1582.99</ele>
  <time>2026-09-02T20:50:54Z</time>
  <course>322.55</course>
  <speed>1.1980818002123228</speed>
  <fix>3d</fix>
</trkpt>
<trkpt lat="40.0711947" lon="-105.2292953">
  <ele>1582.99</ele>
  <time>2026-09-02T20:50:54Z</time>
  <course>322.59</course>
  <speed>1.2</speed>
  <fix>3d</fix>
</trkpt>
<trkpt lat="40.0711967" lon="-105.2292973">
  <ele>1582.99</ele>
  <time>2026-09-02T20:50:54Z</time>
  <course>322.56</course>
  <speed>1.1840608092492548</speed>
  <fix>3d</fix>
</trkpt>
<trkpt lat="40.0711947" lon="-105.2292953">
  <ele>1582.99</ele>
  <time>2026-09-02T20:50:54Z</time>
  <course>322.59</course>
  <speed>1.2</speed>
  <fix>3d</fix>
</trkpt>
<trkpt lat="40.0711974" lon="-105.2292981">
  <ele>1582.99</ele>
  <time>2026-09-02T20:50:54Z</time>
  <course>322.57</course>
  <speed>1.1980818002123228</speed>
  <fix>3d</fix>
</trkpt>
<trkpt lat="40.0711965" lon="-105.229297">
  <ele>1582.99</ele>
  <time>2026-09-02T20:50:54Z</time>
  <course>322.62</course>
  <speed>1.2</speed>
  <fix>3d</fix>
</trkpt>
<trkpt lat="40.0711984" lon="-105.229299">
  <ele>1582.99</ele>
  <time>2026-09-02T20:50:54Z</time>
  <course>322.58</course>
  <speed>1.1920151005754918</speed>
  <fix>3d</fix>
</trkpt>
<trkpt lat="40.0711965" lon="-105.229297">
  <ele>1582.99</ele>
  <time>2026-09-02T20:50:54Z</time>
  <course>322.62</course>
  <speed>1.2</speed>
  <fix>3d</fix>
</trkpt>
<trkpt lat="40.0711991" lon="-105.2292997">
  <ele>1582.99</ele>
  <time>2026-09-02T20:50:54Z</time>
  <course>322.59</course>
  <speed>1.1980818002123228</speed>
  <fix>3d</fix>
</trkpt>
<trkpt lat="40.0711982" lon="-105.2292988">
  <ele>1582.99</ele>
  <time>2026-09-02T20:50:54Z</time>
  <course>322.64</course>
  <speed>1.2</speed>
  <fix>3d</fix>
</trkpt>
<trkpt lat="40.0712001" lon="-105.2293007">
  <ele>1582.99</ele>
  <time>2026-09-02T20:50:54Z</time>
  <course>322.6</course>
  <speed>1.1920151005754918</speed>
  <fix>3d</fix>
</trkpt>
<trkpt lat="40.0711982" lon="-105.2292988">
  <ele>1582.99</ele>
  <time>2026-09-02T20:50:54Z</time>
  <course>322.64</course>
  <speed>1.2</speed>
  <fix>3d</fix>
</trkpt>
<trkpt lat="40.0712009" lon="-105.2293014">
  <ele>1582.99</ele>
  <time>2026-09-02T20:50:54Z</time>
  <course>322.61</course>
  <speed>1.1980818002123228</speed>
  <fix>3d</fix>
</trkpt>
<trkpt lat="40.0711999" lon="-105.2293005">
  <ele>1582.99</ele>
  <time>2026-09-02T20:50:54Z</time>
  <course>322.65</course>
  <speed>1.2</speed>
  <fix>3d</fix>
</trkpt>
<trkpt lat="40.0712018" lon="-105.2293024">
  <ele>1582.99</ele>
  <time>2026-09-02T20:50:54Z</time>
  <course>322.61</course>
  <speed>1.1840608092492548</speed>
  <fix>3d</fix>
</trkpt>
<trkpt lat="40.0711999" lon="-105.2293005">
  <ele>1582.99</ele>
  <time>2026-09-02T20:50:54Z</time>
  <course>322.65</course>
  <speed>1.2</speed>
  <fix>3d</fix>
</trkpt>
<trkpt lat="40.0712027" lon="-105.2293031">
  <ele>1582.99</ele>
  <time>2026-09-02T20:50:54Z</time>
  <course>322.62</course>
  <speed>1.1980818002123228</speed>
  <fix>3d</fix>
</trkpt>
<trkpt lat="40.0712016" lon="-105.2293022">
  <ele>1582.99</ele>
  <time>2026-09-02T20:50:54Z</time>
  <course>322.66</course>
  <speed>1.2</speed>
  <fix>3d</fix>
</trkpt>
<trkpt lat="40.0712034" lon="-105.229304">
  <ele>1582.99</ele>
  <time>2026-09-02T20:50:54Z</time>
  <course>322.62</course>
  <speed>1.1920151005754918</speed>
  <fix>3d</fix>
</trkpt>
<trkpt lat="40.0712016" lon="-105.2293022">
  <ele>1582.99</ele>
  <time>2026-09-02T20:50:54Z</time>
  <course>322.66</course>
  <speed>1.2</speed>
  <fix>3d</fix>
</trkpt>
<trkpt lat="40.0712044" lon="-105.2293048">
  <ele>1582.99</ele>
  <time>2026-09-02T20:50:54Z</time>
  <course>322.63</course>
  <speed>1.1920151005754918</speed>
  <fix>3d</fix>
</trkpt>
<trkpt lat="40.0712033" lon="-105.2293039">
  <ele>1582.99</ele>
  <time>2026-09-02T20:50:54Z</time>
  <course>322.68</course>
  <speed>1.2</speed>
  <fix>3d</fix>
</trkpt>
<trkpt lat="40.0712052" lon="-105.2293057">
  <ele>1582.99</ele>
  <time>2026-09-02T20:50:54Z</time>
  <course>322.63</course>
  <speed>1.1920151005754918</speed>
  <fix>3d</fix>
</trkpt>
<trkpt lat="40.0712033" lon="-105.2293039">
  <ele>1582.99</ele>
  <time>2026-09-02T20:50:54Z</time>
  <course>322.68</course>
  <speed>1.2</speed>
  <fix>3d</fix>
</trkpt>
<trkpt lat="40.0712058" lon="-105.2293064">
  <ele>1582.99</ele>
  <time>2026-09-02T20:50:54Z</time>
  <course>322.63</course>
  <speed>1.1920151005754918</speed>
  <fix>3d</fix>
</trkpt>
<trkpt lat="40.071205" lon="-105.2293056">
  <ele>1582.99</ele>
  <time>2026-09-02T20:50:54Z</time>
  <course>322.68</course>
  <speed>1.2</speed>
  <fix>3d</fix>
</trkpt>
<trkpt lat="40.0712068" lon="-105.2293073">
  <ele>1582.99</ele>
  <time>2026-09-02T20:50:54Z</time>
  <course>322.63</course>
  <speed>1.1920151005754918</speed>
  <fix>3d</fix>
</trkpt>
<trkpt lat="40.071205" lon="-105.2293056">
  <ele>1582.99</ele>
  <time>2026-09-02T20:50:54Z</time>
  <course>322.68</course>
  <speed>1.2</speed>
  <fix>3d</fix>
</trkpt>
<trkpt lat="40.0712076" lon="-105.2293081">
  <ele>1582.99</ele>
  <time>2026-09-02T20:50:54Z</time>
  <course>322.64</course>
  <speed>1.1920151005754918</speed>
  <fix>3d</fix>
</trkpt>
<trkpt lat="40.0712067" lon="-105.2293073">
  <ele>1582.99</ele>
  <time>2026-09-02T20:50:54Z</time>
  <course>322.69</course>
  <speed>1.2</speed>
  <fix>3d</fix>
</trkpt>
<trkpt lat="40.0712085" lon="-105.229309">
  <ele>1582.99</ele>
  <time>2026-09-02T20:50:54Z</time>
  <course>322.64</course>
  <speed>1.1920151005754918</speed>
  <fix>3d</fix>
</trkpt>
<trkpt lat="40.0712067" lon="-105.2293073">
  <ele>1582.99</ele>
  <time>2026-09-02T20:50:54Z</time>
  <course>322.69</course>
  <speed>1.2</speed>
  <fix>3d</fix>
</trkpt>
<trkpt lat="40.0712094" lon="-105.2293098">
  <ele>1582.99</ele>
  <time>2026-09-02T20:50:54Z</time>
  <course>322.64</course>
  <speed>1.1920151005754918</speed>
  <fix>3d</fix>
</trkpt>
<trkpt lat="40.0712085" lon="-105.229309">
  <ele>1582.99</ele>
  <time>2026-09-02T20:50:54Z</time>
  <course>322.69</course>
  <speed>1.2</speed>
  <fix>3d</fix>
</trkpt>
<trkpt lat="40.0712101" lon="-105.2293107">
  <ele>1582.99</ele>
  <time>2026-09-02T20:50:54Z</time>
  <course>322.64</course>
  <speed>1.1920151005754918</speed>
  <fix>3d</fix>
</trkpt>
<trkpt lat="40.0712085" lon="-105.229309">
  <ele>1582.99</ele>
  <time>2026-09-02T20:50:54Z</time>
  <course>322.69</course>
  <speed>1.2</speed>
  <fix>3d</fix>
</trkpt>
<trkpt lat="40.0712111" lon="-105.2293115">
  <ele>1582.99</ele>
  <time>2026-09-02T20:50:54Z</time>
  <course>322.64</course>
  <speed>1.1920151005754918</speed>
  <fix>3d</fix>
</trkpt>
<trkpt lat="40.0712102" lon="-105.2293107">
  <ele>1582.99</ele>
  <time>2026-09-02T20:50:54Z</time>
  <course>322.69</course>
  <speed>1.2</speed>
  <fix>3d</fix>
</trkpt>
<trkpt lat="40.0712119" lon="-105.2293124">
  <ele>1582.99</ele>
  <time>2026-09-02T20:50:54Z</time>
  <course>322.64</course>
  <speed>1.1920151005754918</speed>
  <fix>3d</fix>
</trkpt>
<trkpt lat="40.0712102" lon="-105.2293107">
  <ele>1582.99</ele>
  <time>2026-09-02T20:50:54Z</time>
  <course>322.69</course>
  <speed>1.2</speed>
  <fix>3d</fix>
</trkpt>
<trkpt lat="40.0712128" lon="-105.2293133">
  <ele>1582.99</ele>
  <time>2026-09-02T20:50:54Z</time>
  <course>322.64</course>
  <speed>1.1920151005754918</speed>
  <fix>3d</fix>
</trkpt>
<trkpt lat="40.0712119" lon="-105.2293124">
  <ele>1582.99</ele>
  <time>2026-09-02T20:50:54Z</time>
  <course>322.69</course>
  <speed>1.2</speed>
  <fix>3d</fix>
</trkpt>
<trkpt lat="40.0712136" lon="-105.2293141">
  <ele>1582.99</ele>
  <time>2026-09-02T20:50:54Z</time>
  <course>322.64</course>
  <speed>1.1920151005754918</speed>
  <fix>3d</fix>
</trkpt>
<trkpt lat="40.0712119" lon="-105.2293124">
  <ele>1582.99</ele>
  <time>2026-09-02T20:50:54Z</time>
  <course>322.69</course>
  <speed>1.2</speed>
  <fix>3d</fix>
</trkpt>
<trkpt lat="40.0712147" lon="-105.2293152">
  <ele>1582.99</ele>
  <time>2026-09-02T20:50:54Z</time>
  <course>322.64</course>
  <speed>1.1920151005754918</speed>
  <fix>3d</fix>
</trkpt>
<trkpt lat="40.0712136" lon="-105.2293141">
  <ele>1582.99</ele>
  <time>2026-09-02T20:50:54Z</time>
  <course>322.7</course>
  <speed>1.2</speed>
  <fix>3d</fix>
</trkpt>
<trkpt lat="40.0712155" lon="-105.229316">
  <ele>1582.99</ele>
  <time>2026-09-02T20:50:54Z</time>
  <course>322.65</course>
  <speed>1.1920151005754918</speed>
  <fix>3d</fix>
</trkpt>
<trkpt lat="40.0712136" lon="-105.2293141">
  <ele>1582.99</ele>
  <time>2026-09-02T20:50:54Z</time>
  <course>322.7</course>
  <speed>1.2</speed>
  <fix>3d</fix>
</trkpt>
<trkpt lat="40.0712164" lon="-105.2293169">
  <ele>1582.99</ele>
  <time>2026-09-02T20:50:54Z</time>
  <course>322.65</course>
  <speed>1.1920151005754918</speed>
  <fix>3d</fix>
</trkpt>
<trkpt lat="40.0712153" lon="-105.2293158">
  <ele>1582.99</ele>
  <time>2026-09-02T20:50:54Z</time>
  <course>322.7</course>
  <speed>1.2</speed>
  <fix>3d</fix>
</trkpt>
<trkpt lat="40.0712172" lon="-105.2293177">
  <ele>1582.99</ele>
  <time>2026-09-02T20:50:54Z</time>
  <course>322.65</course>
  <speed>1.1920151005754918</speed>
  <fix>3d</fix>
</trkpt>
<trkpt lat="40.0712153" lon="-105.2293158">
  <ele>1582.99</ele>
  <time>2026-09-02T20:50:54Z</time>
  <course>322.7</course>
  <speed>1.2</speed>
  <fix>3d</fix>
</trkpt>
<trkpt lat="40.071218" lon="-105.2293186">
  <ele>1582.99</ele>
  <time>2026-09-02T20:50:54Z</time>
  <course>322.65</course>
  <speed>1.1920151005754918</speed>
  <fix>3d</fix>
</trkpt>
<trkpt lat="40.071217" lon="-105.2293175">
  <ele>1582.99</ele>
  <time>2026-09-02T20:50:54Z</time>
  <course>322.7</course>
  <speed>1.19</speed>
  <fix>3d</fix>
</trkpt>
<trkpt lat="40.071219" lon="-105.2293194">
  <ele>1582.99</ele>
  <time>2026-09-02T20:50:54Z</time>
  <course>322.65</course>
  <speed>1.1920151005754918</speed>
  <fix>3d</fix>
</trkpt>
<trkpt lat="40.071217" lon="-105.2293175">
  <ele>1582.99</ele>
  <time>2026-09-02T20:50:54Z</time>
  <course>322.7</course>
  <speed>1.19</speed>
  <fix>3d</fix>
</trkpt>
<trkpt lat="40.0712198" lon="-105.2293203">
  <ele>1582.99</ele>
  <time>2026-09-02T20:50:54Z</time>
  <course>322.65</course>
  <speed>1.1920151005754918</speed>
  <fix>3d</fix>
</trkpt>
<trkpt lat="40.0712187" lon="-105.2293192">
  <ele>1582.99</ele>
  <time>2026-09-02T20:50:54Z</time>
  <course>322.71</course>
  <speed>1.19</speed>
  <fix>3d</fix>
</trkpt>
<trkpt lat="40.0712207" lon="-105.2293212">
  <ele>1582.99</ele>
  <time>2026-09-02T20:50:54Z</time>
  <course>322.65</course>
  <speed>1.1920151005754918</speed>
  <fix>3d</fix>
</trkpt>
<trkpt lat="40.0712187" lon="-105.2293192">
  <ele>1582.99</ele>
  <time>2026-09-02T20:50:54Z</time>
  <course>322.71</course>
  <speed>1.19</speed>
  <fix>3d</fix>
</trkpt>
<trkpt lat="40.0712215" lon="-105.229322">
  <ele>1582.99</ele>
  <time>2026-09-02T20:50:54Z</time>
  <course>322.65</course>
  <speed>1.1920151005754918</speed>
  <fix>3d</fix>
</trkpt>
<trkpt lat="40.0712205" lon="-105.229321">
  <ele>1582.99</ele>
  <time>2026-09-02T20:50:54Z</time>
  <course>322.71</course>
  <speed>1.19</speed>
  <fix>3d</fix>
</trkpt>
<trkpt lat="40.0712223" lon="-105.2293229">
  <ele>1582.99</ele>
  <time>2026-09-02T20:50:54Z</time>
  <course>322.66</course>
  <speed>1.1920151005754918</speed>
  <fix>3d</fix>
</trkpt>
<trkpt lat="40.0712205" lon="-105.229321">
  <ele>1582.99</ele>
  <time>2026-09-02T20:50:54Z</time>
  <course>322.71</course>
  <speed>1.19</speed>
  <fix>3d</fix>
</trkpt>
<trkpt lat="40.0712232" lon="-105.2293237">
  <ele>1582.99</ele>
  <time>2026-09-02T20:50:54Z</time>
  <course>322.66</course>
  <speed>1.1920151005754918</speed>
  <fix>3d</fix>
</trkpt>
<trkpt lat="40.0712222" lon="-105.2293227">
  <ele>1582.99</ele>
  <time>2026-09-02T20:50:54Z</time>
  <course>322.71</course>
  <speed>1.19</speed>
  <fix>3d</fix>
</trkpt>
<trkpt lat="40.0712239" lon="-105.2293244">
  <ele>1582.99</ele>
  <time>2026-09-02T20:50:54Z</time>
  <course>322.66</course>
  <speed>1.1920151005754918</speed>
  <fix>3d</fix>
</trkpt>
<trkpt lat="40.0712222" lon="-105.2293227">
  <ele>1582.99</ele>
  <time>2026-09-02T20:50:54Z</time>
  <course>322.71</course>
  <speed>1.19</speed>
  <fix>3d</fix>
</trkpt>
<trkpt lat="40.0712247" lon="-105.2293253">
  <ele>1582.99</ele>
  <time>2026-09-02T20:50:54Z</time>
  <course>322.66</course>
  <speed>1.1920151005754918</speed>
  <fix>3d</fix>
</trkpt>
<trkpt lat="40.0712239" lon="-105.2293244">
  <ele>1582.99</ele>
  <time>2026-09-02T20:50:54Z</time>
  <course>322.71</course>
  <speed>1.19</speed>
  <fix>3d</fix>
</trkpt>
<trkpt lat="40.0712257" lon="-105.2293261">
  <ele>1582.99</ele>
  <time>2026-09-02T20:50:54Z</time>
  <course>322.66</course>
  <speed>1.1920151005754918</speed>
  <fix>3d</fix>
</trkpt>
<trkpt lat="40.0712239" lon="-105.2293244">
  <ele>1582.99</ele>
  <time>2026-09-02T20:50:54Z</time>
  <course>322.71</course>
  <speed>1.19</speed>
  <fix>3d</fix>
</trkpt>
<trkpt lat="40.0712265" lon="-105.229327">
  <ele>1582.99</ele>
  <time>2026-09-02T20:50:54Z</time>
  <course>322.66</course>
  <speed>1.1920151005754918</speed>
  <fix>3d</fix>
</trkpt>
<trkpt lat="40.0712256" lon="-105.2293261">
  <ele>1582.99</ele>
  <time>2026-09-02T20:50:54Z</time>
  <course>322.71</course>
  <speed>1.19</speed>
  <fix>3d</fix>
</trkpt>
<trkpt lat="40.0712274" lon="-105.2293277">
  <ele>1582.99</ele>
  <time>2026-09-02T20:50:54Z</time>
  <course>322.65</course>
  <speed>1.1920151005754918</speed>
  <fix>3d</fix>
</trkpt>
<trkpt lat="40.0712256" lon="-105.2293261">
  <ele>1582.99</ele>
  <time>2026-09-02T20:50:54Z</time>
  <course>322.71</course>
  <speed>1.19</speed>
  <fix>3d</fix>
</trkpt>
<trkpt lat="40.0712282" lon="-105.2293287">
  <ele>1582.99</ele>
  <time>2026-09-02T20:50:54Z</time>
  <course>322.65</course>
  <speed>1.1920151005754918</speed>
  <fix>3d</fix>
</trkpt>
<trkpt lat="40.0712273" lon="-105.2293278">
  <ele>1582.99</ele>
  <time>2026-09-02T20:50:54Z</time>
  <course>322.71</course>
  <speed>1.19</speed>
  <fix>3d</fix>
</trkpt>
<trkpt lat="40.071229" lon="-105.2293294">
  <ele>1582.99</ele>
  <time>2026-09-02T20:50:54Z</time>
  <course>322.65</course>
  <speed>1.1920151005754918</speed>
  <fix>3d</fix>
</trkpt>
<trkpt lat="40.0712273" lon="-105.2293278">
  <ele>1582.99</ele>
  <time>2026-09-02T20:50:54Z</time>
  <course>322.71</course>
  <speed>1.19</speed>
  <fix>3d</fix>
</trkpt>
<trkpt lat="40.0712299" lon="-105.2293304">
  <ele>1582.99</ele>
  <time>2026-09-02T20:50:54Z</time>
  <course>322.65</course>
  <speed>1.1920151005754918</speed>
  <fix>3d</fix>
</trkpt>
<trkpt lat="40.071229" lon="-105.2293295">
  <ele>1582.99</ele>
  <time>2026-09-02T20:50:54Z</time>
  <course>322.71</course>
  <speed>1.19</speed>
  <fix>3d</fix>
</trkpt>
<trkpt lat="40.0712307" lon="-105.2293311">
  <ele>1582.99</ele>
  <time>2026-09-02T20:50:54Z</time>
  <course>322.65</course>
  <speed>1.1920151005754918</speed>
  <fix>3d</fix>
</trkpt>
<trkpt lat="40.071229" lon="-105.2293295">
  <ele>1582.99</ele>
  <time>2026-09-02T20:50:54Z</time>
  <course>322.71</course>
  <speed>1.19</speed>
  <fix>3d</fix>
</trkpt>
<trkpt lat="40.0712317" lon="-105.229332">
  <ele>1582.99</ele>
  <time>2026-09-02T20:50:54Z</time>
  <course>322.64</course>
  <speed>1.1920151005754918</speed>
  <fix>3d</fix>
</trkpt>
<trkpt lat="40.0712307" lon="-105.2293312">
  <ele>1582.99</ele>
  <time>2026-09-02T20:50:54Z</time>
  <course>322.7</course>
  <speed>1.19</speed>
  <fix>3d</fix>
</trkpt>
<trkpt lat="40.0712326" lon="-105.229333">
  <ele>1582.99</ele>
  <time>2026-09-02T20:50:54Z</time>
  <course>322.64</course>
  <speed>1.1920151005754918</speed>
  <fix>3d</fix>
</trkpt>
<trkpt lat="40.0712307" lon="-105.2293312">
  <ele>1582.99</ele>
  <time>2026-09-02T20:50:54Z</time>
  <course>322.7</course>
  <speed>1.19</speed>
  <fix>3d</fix>
</trkpt>
<trkpt lat="40.0712335" lon="-105.229334">
  <ele>1582.99</ele>
  <time>2026-09-02T20:50:54Z</time>
  <course>322.64</course>
  <speed>1.1920151005754918</speed>
  <fix>3d</fix>
</trkpt>
<trkpt lat="40.0712325" lon="-105.2293329">
  <ele>1582.99</ele>
  <time>2026-09-02T20:50:54Z</time>
  <course>322.7</course>
  <speed>1.19</speed>
  <fix>3d</fix>
</trkpt>
<trkpt lat="40.0712344" lon="-105.2293347">
  <ele>1582.99</ele>
  <time>2026-09-02T20:50:54Z</time>
  <course>322.63</course>
  <speed>1.1920151005754918</speed>
  <fix>3d</fix>
</trkpt>
<trkpt lat="40.0712325" lon="-105.2293329">
  <ele>1582.99</ele>
  <time>2026-09-02T20:50:54Z</time>
  <course>322.7</course>
  <speed>1.19</speed>
  <fix>3d</fix>
</trkpt>
<trkpt lat="40.0712353" lon="-105.2293356">
  <ele>1582.99</ele>
  <time>2026-09-02T20:50:54Z</time>
  <course>322.63</course>
  <speed>1.1920151005754918</speed>
  <fix>3d</fix>
</trkpt>
<trkpt lat="40.0712342" lon="-105.2293346">
  <ele>1582.99</ele>
  <time>2026-09-02T20:50:54Z</time>
  <course>322.69</course>
  <speed>1.19</speed>
  <fix>3d</fix>
</trkpt>
<trkpt lat="40.0712361" lon="-105.2293365">
  <ele>1582.99</ele>
  <time>2026-09-02T20:50:54Z</time>
  <course>322.63</course>
  <speed>1.1920151005754918</speed>
  <fix>3d</fix>
</trkpt>
<trkpt lat="40.0712342" lon="-105.2293346">
  <ele>1582.99</ele>
  <time>2026-09-02T20:50:54Z</time>
  <course>322.69</course>
  <speed>1.19</speed>
  <fix>3d</fix>
</trkpt>
<trkpt lat="40.0712369" lon="-105.2293373">
  <ele>1582.99</ele>
  <time>2026-09-02T20:50:54Z</time>
  <course>322.62</course>
  <speed>1.1920151005754918</speed>
  <fix>3d</fix>
</trkpt>
<trkpt lat="40.0712359" lon="-105.2293363">
  <ele>1582.99</ele>
  <time>2026-09-02T20:50:54Z</time>
  <course>322.68</course>
  <speed>1.19</speed>
  <fix>3d</fix>
</trkpt>
<trkpt lat="40.0712378" lon="-105.2293382">
  <ele>1582.99</ele>
  <time>2026-09-02T20:50:54Z</time>
  <course>322.62</course>
  <speed>1.1920151005754918</speed>
  <fix>3d</fix>
</trkpt>
<trkpt lat="40.0712359" lon="-105.2293363">
  <ele>1582.99</ele>
  <time>2026-09-02T20:50:54Z</time>
  <course>322.68</course>
  <speed>1.19</speed>
  <fix>3d</fix>
</trkpt>
<trkpt lat="40.0712386" lon="-105.229339">
  <ele>1582.99</ele>
  <time>2026-09-02T20:50:54Z</time>
  <course>322.62</course>
  <speed>1.1920151005754918</speed>
  <fix>3d</fix>
</trkpt>
<trkpt lat="40.0712376" lon="-105.229338">
  <ele>1582.99</ele>
  <time>2026-09-02T20:50:54Z</time>
  <course>322.68</course>
  <speed>1.19</speed>
  <fix>3d</fix>
</trkpt>
<trkpt lat="40.0712395" lon="-105.2293399">
  <ele>1582.99</ele>
  <time>2026-09-02T20:50:54Z</time>
  <course>322.62</course>
  <speed>1.1920151005754918</speed>
  <fix>3d</fix>
</trkpt>
<trkpt lat="40.0712376" lon="-105.229338">
  <ele>1582.99</ele>
  <time>2026-09-02T20:50:54Z</time>
  <course>322.68</course>
  <speed>1.19</speed>
  <fix>3d</fix>
</trkpt>
<trkpt lat="40.0712404" lon="-105.2293407">
  <ele>1582.99</ele>
  <time>2026-09-02T20:50:54Z</time>
  <course>322.61</course>
  <speed>1.1920151005754918</speed>
  <fix>3d</fix>
</trkpt>
<trkpt lat="40.0712393" lon="-105.2293397">
  <ele>1582.99</ele>
  <time>2026-09-02T20:50:54Z</time>
  <course>322.67</course>
  <speed>1.19</speed>
  <fix>3d</fix>
</trkpt>
<trkpt lat="40.0712412" lon="-105.2293416">
  <ele>1582.99</ele>
  <time>2026-09-02T20:50:54Z</time>
  <course>322.61</course>
  <speed>1.1920151005754918</speed>
  <fix>3d</fix>
</trkpt>
<trkpt lat="40.0712393" lon="-105.2293397">
  <ele>1582.99</ele>
  <time>2026-09-02T20:50:54Z</time>
  <course>322.67</course>
  <speed>1.19</speed>
  <fix>3d</fix>
</trkpt>
<trkpt lat="40.0712418" lon="-105.2293423">
  <ele>1582.99</ele>
  <time>2026-09-02T20:50:54Z</time>
  <course>322.61</course>
  <speed>1.1920151005754918</speed>
  <fix>3d</fix>
</trkpt>
<trkpt lat="40.071241" lon="-105.2293414">
  <ele>1582.99</ele>
  <time>2026-09-02T20:50:54Z</time>
  <course>322.67</course>
  <speed>1.19</speed>
  <fix>3d</fix>
</trkpt>
<trkpt lat="40.0712428" lon="-105.2293431">
  <ele>1582.99</ele>
  <time>2026-09-02T20:50:54Z</time>
  <course>322.61</course>
  <speed>1.1920151005754918</speed>
  <fix>3d</fix>
</trkpt>
<trkpt lat="40.071241" lon="-105.2293414">
  <ele>1582.99</ele>
  <time>2026-09-02T20:50:54Z</time>
  <course>322.67</course>
  <speed>1.19</speed>
  <fix>3d</fix>
</trkpt>
<trkpt lat="40.0712436" lon="-105.229344">
  <ele>1582.99</ele>
  <time>2026-09-02T20:50:54Z</time>
  <course>322.6</course>
  <speed>1.1920151005754918</speed>
  <fix>3d</fix>
</trkpt>
<trkpt lat="40.0712427" lon="-105.2293431">
  <ele>1582.99</ele>
  <time>2026-09-02T20:50:54Z</time>
  <course>322.66</course>
  <speed>1.19</speed>
  <fix>3d</fix>
</trkpt>
<trkpt lat="40.0712445" lon="-105.2293449">
  <ele>1582.99</ele>
  <time>2026-09-02T20:50:54Z</time>
  <course>322.6</course>
  <speed>1.1920151005754918</speed>
  <fix>3d</fix>
</trkpt>
<trkpt lat="40.0712427" lon="-105.2293431">
  <ele>1582.99</ele>
  <time>2026-09-02T20:50:54Z</time>
  <course>322.66</course>
  <speed>1.19</speed>
  <fix>3d</fix>
</trkpt>
<trkpt lat="40.0712453" lon="-105.2293457">
  <ele>1582.99</ele>
  <time>2026-09-02T20:50:54Z</time>
  <course>322.6</course>
  <speed>1.1920151005754918</speed>
  <fix>3d</fix>
</trkpt>
<trkpt lat="40.0712445" lon="-105.2293449">
  <ele>1582.99</ele>
  <time>2026-09-02T20:50:54Z</time>
  <course>322.65</course>
  <speed>1.19</speed>
  <fix>3d</fix>
</trkpt>
<trkpt lat="40.0712462" lon="-105.2293466">
  <ele>1582.99</ele>
  <time>2026-09-02T20:50:54Z</time>
  <course>322.62</course>
  <speed>1.1980818002123228</speed>
  <fix>3d</fix>
</trkpt>
<trkpt lat="40.0712445" lon="-105.2293449">
  <ele>1582.99</ele>
  <time>2026-09-02T20:50:54Z</time>
  <course>322.65</course>
  <speed>1.19</speed>
  <fix>3d</fix>
</trkpt>
<trkpt lat="40.0712471" lon="-105.2293474">
  <ele>1582.99</ele>
  <time>2026-09-02T20:50:54Z</time>
  <course>322.66</course>
  <speed>1.1840608092492548</speed>
  <fix>3d</fix>
</trkpt>
<trkpt lat="40.0712462" lon="-105.2293466">
  <ele>1582.99</ele>
  <time>2026-09-02T20:50:54Z</time>
  <course>322.68</course>
  <speed>1.19</speed>
  <fix>3d</fix>
</trkpt>
<trkpt lat="40.0712478" lon="-105.2293483">
  <ele>1582.99</ele>
  <time>2026-09-02T20:50:54Z</time>
  <course>322.72</course>
  <speed>1.2060265337047937</speed>
  <fix>3d</fix>
</trkpt>
<trkpt lat="40.0712462" lon="-105.2293466">
  <ele>1582.99</ele>
  <time>2026-09-02T20:50:54Z</time>
  <course>322.68</course>
  <speed>1.19</speed>
  <fix>3d</fix>
</trkpt>
<trkpt lat="40.0712488" lon="-105.2293492">
  <ele>1582.99</ele>
  <time>2026-09-02T20:50:54Z</time>
  <course>322.81</course>
  <speed>1.1920151005754918</speed>
  <fix>3d</fix>
</trkpt>
<trkpt lat="40.0712479" lon="-105.2293483">
  <ele>1582.99</ele>
  <time>2026-09-02T20:50:54Z</time>
  <course>322.79</course>
  <speed>1.19</speed>
  <fix>3d</fix>
</trkpt>
<trkpt lat="40.0712496" lon="-105.22935">
  <ele>1582.99</ele>
  <time>2026-09-02T20:50:54Z</time>
  <course>322.91</course>
  <speed>1.2</speed>
  <fix>3d</fix>
</trkpt>
<trkpt lat="40.0712479" lon="-105.2293483">
  <ele>1582.99</ele>
  <time>2026-09-02T20:50:54Z</time>
  <course>322.79</course>
  <speed>1.19</speed>
  <fix>3d</fix>
</trkpt>
<trkpt lat="40.0712507" lon="-105.229351">
  <ele>1582.99</ele>
  <time>2026-09-02T20:50:54Z</time>
  <course>323.07</course>
  <speed>1.186001686339442</speed>
  <fix>3d</fix>
</trkpt>
<trkpt lat="40.0712496" lon="-105.22935">
  <ele>1582.99</ele>
  <time>2026-09-02T20:50:54Z</time>
  <course>322.98</course>
  <speed>1.19</speed>
  <fix>3d</fix>
</trkpt>
<trkpt lat="40.0712515" lon="-105.2293519">
  <ele>1582.99</ele>
  <time>2026-09-02T20:50:54Z</time>
  <course>323.23</course>
  <speed>1.2</speed>
  <fix>3d</fix>
</trkpt>
<trkpt lat="40.0712496" lon="-105.22935">
  <ele>1582.99</ele>
  <time>2026-09-02T20:50:54Z</time>
  <course>322.98</course>
  <speed>1.19</speed>
  <fix>3d</fix>
</trkpt>
<trkpt lat="40.0712524" lon="-105.2293526">
  <ele>1582.99</ele>
  <time>2026-09-02T20:50:54Z</time>
  <course>323.42</course>
  <speed>1.1800423721205946</speed>
  <fix>3d</fix>
</trkpt>
<trkpt lat="40.0712513" lon="-105.2293517">
  <ele>1582.99</ele>
  <time>2026-09-02T20:50:54Z</time>
  <course>323.27</course>
  <speed>1.19</speed>
  <fix>3d</fix>
</trkpt>
<trkpt lat="40.0712532" lon="-105.2293536">
  <ele>1582.99</ele>
  <time>2026-09-02T20:50:54Z</time>
  <course>323.63</course>
  <speed>1.194026800369238</speed>
  <fix>3d</fix>
</trkpt>
<trkpt lat="40.0712513" lon="-105.2293517">
  <ele>1582.99</ele>
  <time>2026-09-02T20:50:54Z</time>
  <course>323.27</course>
  <speed>1.19</speed>
  <fix>3d</fix>
</trkpt>
<trkpt lat="40.0712542" lon="-105.2293543">
  <ele>1582.99</ele>
  <time>2026-09-02T20:50:54Z</time>
  <course>323.86</course>
  <speed>1.1881077392223316</speed>
  <fix>3d</fix>
</trkpt>
<trkpt lat="40.0712531" lon="-105.2293533">
  <ele>1582.99</ele>
  <time>2026-09-02T20:50:54Z</time>
  <course>323.66</course>
  <speed>1.19</speed>
  <fix>3d</fix>
</trkpt>
<trkpt lat="40.071255" lon="-105.2293552">
  <ele>1582.99</ele>
  <time>2026-09-02T20:50:54Z</time>
  <course>324.1</course>
  <speed>1.196202324023825</speed>
  <fix>3d</fix>
</trkpt>
<trkpt lat="40.0712531" lon="-105.2293533">
  <ele>1582.99</ele>
  <time>2026-09-02T20:50:54Z</time>
  <course>323.66</course>
  <speed>1.19</speed>
  <fix>3d</fix>
</trkpt>
<trkpt lat="40.0712559" lon="-105.229356">
  <ele>1582.99</ele>
  <time>2026-09-02T20:50:54Z</time>
  <course>324.34</course>
  <speed>1.1903780911962385</speed>
  <fix>3d</fix>
</trkpt>
<trkpt lat="40.0712548" lon="-105.229355">
  <ele>1582.99</ele>
  <time>2026-09-02T20:50:54Z</time>
  <course>324.11</course>
  <speed>1.19</speed>
  <fix>3d</fix>
</trkpt>
<trkpt lat="40.0712568" lon="-105.2293567">
  <ele>1582.99</ele>
  <time>2026-09-02T20:50:54Z</time>
  <course>324.57</course>
  <speed>1.1903780911962385</speed>
  <fix>3d</fix>
</trkpt>
<trkpt lat="40.0712548" lon="-105.229355">
  <ele>1582.99</ele>
  <time>2026-09-02T20:50:54Z</time>
  <course>324.11</course>
  <speed>1.19</speed>
  <fix>3d</fix>
</trkpt>
<trkpt lat="40.0712576" lon="-105.2293577">
  <ele>1582.99</ele>
  <time>2026-09-02T20:50:54Z</time>
  <course>324.79</course>
  <speed>1.1985407794480754</speed>
  <fix>3d</fix>
</trkpt>
<trkpt lat="40.0712566" lon="-105.2293567">
  <ele>1582.99</ele>
  <time>2026-09-02T20:50:54Z</time>
  <course>324.58</course>
  <speed>1.19</speed>
  <fix>3d</fix>
</trkpt>
<trkpt lat="40.0712586" lon="-105.2293584">
  <ele>1582.99</ele>
  <time>2026-09-02T20:50:54Z</time>
  <course>324.99</course>
  <speed>1.1928118040998756</speed>
  <fix>3d</fix>
</trkpt>
<trkpt lat="40.0712566" lon="-105.2293567">
  <ele>1582.99</ele>
  <time>2026-09-02T20:50:54Z</time>
  <course>324.58</course>
  <speed>1.19</speed>
  <fix>3d</fix>
</trkpt>
<trkpt lat="40.0712593" lon="-105.2293593">
  <ele>1582.99</ele>
  <time>2026-09-02T20:50:54Z</time>
  <course>325.17</course>
  <speed>1.1928118040998756</speed>
  <fix>3d</fix>
</trkpt>
<trkpt lat="40.0712584" lon="-105.2293583">
  <ele>1582.99</ele>
  <time>2026-09-02T20:50:54Z</time>
  <course>325.0</course>
  <speed>1.2</speed>
  <fix>3d</fix>
</trkpt>
<trkpt lat="40.0712602" lon="-105.2293598">
  <ele>1582.99</ele>
  <time>2026-09-02T20:50:54Z</time>
  <course>325.31</course>
  <speed>1.1928118040998756</speed>
  <fix>3d</fix>
</trkpt>
<trkpt lat="40.0712584" lon="-105.2293583">
  <ele>1582.99</ele>
  <time>2026-09-02T20:50:54Z</time>
  <course>325.0</course>
  <speed>1.2</speed>
  <fix>3d</fix>
</trkpt>
<trkpt lat="40.071261" lon="-105.2293607">
  <ele>1582.99</ele>
  <time>2026-09-02T20:50:54Z</time>
  <course>325.46</course>
  <speed>1.1871394189394942</speed>
  <fix>3d</fix>
</trkpt>
<trkpt lat="40.0712601" lon="-105.2293598">
  <ele>1582.99</ele>
  <time>2026-09-02T20:50:54Z</time>
  <course>325.35</course>
  <speed>1.2</speed>
  <fix>3d</fix>
</trkpt>
<trkpt lat="40.0712618" lon="-105.2293615">
  <ele>1582.99</ele>
  <time>2026-09-02T20:50:54Z</time>
  <course>325.6</course>
  <speed>1.1954078801814885</speed>
  <fix>3d</fix>
</trkpt>
<trkpt lat="40.0712601" lon="-105.2293598">
  <ele>1582.99</ele>
  <time>2026-09-02T20:50:54Z</time>
  <course>325.35</course>
  <speed>1.2</speed>
  <fix>3d</fix>
</trkpt>
<trkpt lat="40.0712628" lon="-105.2293622">
  <ele>1582.99</ele>
  <time>2026-09-02T20:50:54Z</time>
  <course>325.71</course>
  <speed>1.1954078801814885</speed>
  <fix>3d</fix>
</trkpt>
<trkpt lat="40.0712618" lon="-105.2293615">
  <ele>1582.99</ele>
  <time>2026-09-02T20:50:54Z</time>
  <course>325.64</course>
  <speed>1.2</speed>
  <fix>3d</fix>
</trkpt>
<trkpt lat="40.0712636" lon="-105.2293631">
  <ele>1582.99</ele>
  <time>2026-09-02T20:50:54Z</time>
  <course>325.8</course>
  <speed>1.1954078801814885</speed>
  <fix>3d</fix>
</trkpt>
<trkpt lat="40.0712618" lon="-105.2293615">
  <ele>1582.99</ele>
  <time>2026-09-02T20:50:54Z</time>
  <course>325.64</course>
  <speed>1.2</speed>
  <fix>3d</fix>
</trkpt>
<trkpt lat="40.0712646" lon="-105.2293639">
  <ele>1582.99</ele>
  <time>2026-09-02T20:50:54Z</time>
  <course>325.87</course>
  <speed>1.1954078801814885</speed>
  <fix>3d</fix>
</trkpt>
<trkpt lat="40.0712637" lon="-105.2293631">
  <ele>1582.99</ele>
  <time>2026-09-02T20:50:54Z</time>
  <course>325.85</course>
  <speed>1.2</speed>
  <fix>3d</fix>
</trkpt>
<trkpt lat="40.0712654" lon="-105.2293646">
  <ele>1582.99</ele>
  <time>2026-09-02T20:50:54Z</time>
  <course>325.94</course>
  <speed>1.1898319209031165</speed>
  <fix>3d</fix>
</trkpt>
<trkpt lat="40.0712637" lon="-105.2293631">
  <ele>1582.99</ele>
  <time>2026-09-02T20:50:54Z</time>
  <course>325.85</course>
  <speed>1.2</speed>
  <fix>3d</fix>
</trkpt>
<trkpt lat="40.0712664" lon="-105.2293655">
  <ele>1582.99</ele>
  <time>2026-09-02T20:50:54Z</time>
  <course>326.01</course>
  <speed>1.1954078801814885</speed>
  <fix>3d</fix>
</trkpt>
<trkpt lat="40.0712654" lon="-105.2293646">
  <ele>1582.99</ele>
  <time>2026-09-02T20:50:54Z</time>
  <course>326.0</course>
  <speed>1.2</speed>
  <fix>3d</fix>
</trkpt>
<trkpt lat="40.0712672" lon="-105.2293663">
  <ele>1582.99</ele>
  <time>2026-09-02T20:50:54Z</time>
  <course>326.07</course>
  <speed>1.1898319209031165</speed>
  <fix>3d</fix>
</trkpt>
<trkpt lat="40.0712654" lon="-105.2293646">
  <ele>1582.99</ele>
  <time>2026-09-02T20:50:54Z</time>
  <course>326.0</course>
  <speed>1.2</speed>
  <fix>3d</fix>
</trkpt>
<trkpt lat="40.0712684" lon="-105.2293672">
  <ele>1583.0</ele>
  <time>2026-09-02T20:50:54Z</time>
  <course>326.14</course>
  <speed>1.1898319209031165</speed>
  <fix>3d</fix>
</trkpt>
<trkpt lat="40.0712673" lon="-105.2293662">
  <ele>1582.99</ele>
  <time>2026-09-02T20:50:54Z</time>
  <course>326.13</course>
  <speed>1.2</speed>
  <fix>3d</fix>
</trkpt>
<trkpt lat="40.0712693" lon="-105.2293679">
  <ele>1582.99</ele>
  <time>2026-09-02T20:50:54Z</time>
  <course>326.19</course>
  <speed>1.1898319209031165</speed>
  <fix>3d</fix>
</trkpt>
<trkpt lat="40.0712673" lon="-105.2293662">
  <ele>1582.99</ele>
  <time>2026-09-02T20:50:54Z</time>
  <course>326.13</course>
  <speed>1.2</speed>
  <fix>3d</fix>
</trkpt>
<trkpt lat="40.0712701" lon="-105.2293687">
  <ele>1582.99</ele>
  <time>2026-09-02T20:50:54Z</time>
  <course>326.23</course>
  <speed>1.1981652640600127</speed>
  <fix>3d</fix>
</trkpt>
<trkpt lat="40.071269" lon="-105.2293678">
  <ele>1582.99</ele>
  <time>2026-09-02T20:50:54Z</time>
  <course>326.23</course>
  <speed>1.2</speed>
  <fix>3d</fix>
</trkpt>
<trkpt lat="40.0712709" lon="-105.2293694">
  <ele>1582.99</ele>
  <time>2026-09-02T20:50:54Z</time>
  <course>326.27</course>
  <speed>1.1898319209031165</speed>
  <fix>3d</fix>
</trkpt>
<trkpt lat="40.071269" lon="-105.2293678">
  <ele>1582.99</ele>
  <time>2026-09-02T20:50:54Z</time>
  <course>326.23</course>
  <speed>1.2</speed>
  <fix>3d</fix>
</trkpt>
<trkpt lat="40.0712719" lon="-105.2293703">
  <ele>1582.99</ele>
  <time>2026-09-02T20:50:54Z</time>
  <course>326.31</course>
  <speed>1.1981652640600127</speed>
  <fix>3d</fix>
</trkpt>
<trkpt lat="40.0712709" lon="-105.2293694">
  <ele>1582.99</ele>
  <time>2026-09-02T20:50:54Z</time>
  <course>326.32</course>
  <speed>1.2</speed>
  <fix>3d</fix>
</trkpt>
<trkpt lat="40.0712727" lon="-105.2293711">
  <ele>1582.99</ele>
  <time>2026-09-02T20:50:54Z</time>
  <course>326.35</course>
  <speed>1.1898319209031165</speed>
  <fix>3d</fix>
</trkpt>
<trkpt lat="40.0712709" lon="-105.2293694">
  <ele>1582.99</ele>
  <time>2026-09-02T20:50:54Z</time>
  <course>326.32</course>
  <speed>1.2</speed>
  <fix>3d</fix>
</trkpt>
<trkpt lat="40.0712737" lon="-105.2293718">
  <ele>1582.99</ele>
  <time>2026-09-02T20:50:54Z</time>
  <course>326.39</course>
  <speed>1.1981652640600127</speed>
  <fix>3d</fix>
</trkpt>
<trkpt lat="40.0712726" lon="-105.2293709">
  <ele>1582.99</ele>
  <time>2026-09-02T20:50:54Z</time>
  <course>326.4</course>
  <speed>1.2</speed>
  <fix>3d</fix>
</trkpt>
<trkpt lat="40.0712745" lon="-105.2293727">
  <ele>1582.99</ele>
  <time>2026-09-02T20:50:54Z</time>
  <course>326.42</course>
  <speed>1.1898319209031165</speed>
  <fix>3d</fix>
</trkpt>
<trkpt lat="40.0712726" lon="-105.2293709">
  <ele>1582.99</ele>
  <time>2026-09-02T20:50:54Z</time>
  <course>326.4</course>
  <speed>1.2</speed>
  <fix>3d</fix>
</trkpt>
<trkpt lat="40.0712755" lon="-105.2293734">
  <ele>1582.99</ele>
  <time>2026-09-02T20:50:54Z</time>
  <course>326.44</course>
  <speed>1.1981652640600127</speed>
  <fix>3d</fix>
</trkpt>
<trkpt lat="40.0712745" lon="-105.2293725">
  <ele>1582.99</ele>
  <time>2026-09-02T20:50:54Z</time>
  <course>326.47</course>
  <speed>1.2</speed>
  <fix>3d</fix>
</trkpt>
<trkpt lat="40.0712763" lon="-105.2293742">
  <ele>1582.99</ele>
  <time>2026-09-02T20:50:54Z</time>
  <course>326.46</course>
  <speed>1.1898319209031165</speed>
  <fix>3d</fix>
</trkpt>
<trkpt lat="40.0712745" lon="-105.2293725">
  <ele>1582.99</ele>
  <time>2026-09-02T20:50:54Z</time>
  <course>326.47</course>
  <speed>1.2</speed>
  <fix>3d</fix>
</trkpt>
<trkpt lat="40.0712773" lon="-105.2293749">
  <ele>1582.99</ele>
  <time>2026-09-02T20:50:54Z</time>
  <course>326.49</course>
  <speed>1.1981652640600127</speed>
  <fix>3d</fix>
</trkpt>
<trkpt lat="40.0712762" lon="-105.229374">
  <ele>1582.99</ele>
  <time>2026-09-02T20:50:54Z</time>
  <course>326.52</course>
  <speed>1.2</speed>
  <fix>3d</fix>
</trkpt>
<trkpt lat="40.0712781" lon="-105.2293758">
  <ele>1582.99</ele>
  <time>2026-09-02T20:50:54Z</time>
  <course>326.51</course>
  <speed>1.1843141475132348</speed>
  <fix>3d</fix>
</trkpt>
<trkpt lat="40.0712762" lon="-105.229374">
  <ele>1582.99</ele>
  <time>2026-09-02T20:50:54Z</time>
  <course>326.52</course>
  <speed>1.2</speed>
  <fix>3d</fix>
</trkpt>
<trkpt lat="40.0712789" lon="-105.2293763">
  <ele>1582.99</ele>
  <time>2026-09-02T20:50:54Z</time>
  <course>326.52</course>
  <speed>1.1981652640600127</speed>
  <fix>3d</fix>
</trkpt>
<trkpt lat="40.0712781" lon="-105.2293756">
  <ele>1582.99</ele>
  <time>2026-09-02T20:50:54Z</time>
  <course>326.56</course>
  <speed>1.2</speed>
  <fix>3d</fix>
</trkpt>
<trkpt lat="40.0712799" lon="-105.2293772">
  <ele>1582.99</ele>
  <time>2026-09-02T20:50:54Z</time>
  <course>326.54</course>
  <speed>1.1981652640600127</speed>
  <fix>3d</fix>
</trkpt>
<trkpt lat="40.0712781" lon="-105.2293756">
  <ele>1582.99</ele>
  <time>2026-09-02T20:50:54Z</time>
  <course>326.56</course>
  <speed>1.2</speed>
  <fix>3d</fix>
</trkpt>
<trkpt lat="40.0712807" lon="-105.2293778">
  <ele>1582.99</ele>
  <time>2026-09-02T20:50:54Z</time>
  <course>326.55</course>
  <speed>1.1981652640600127</speed>
  <fix>3d</fix>
</trkpt>
<trkpt lat="40.0712798" lon="-105.2293771">
  <ele>1582.99</ele>
  <time>2026-09-02T20:50:54Z</time>
  <course>326.59</course>
  <speed>1.2</speed>
  <fix>3d</fix>
</trkpt>
<trkpt lat="40.0712817" lon="-105.2293787">
  <ele>1582.99</ele>
  <time>2026-09-02T20:50:54Z</time>
  <course>326.56</course>
  <speed>1.1981652640600127</speed>
  <fix>3d</fix>
</trkpt>
<trkpt lat="40.0712798" lon="-105.2293771">
  <ele>1582.99</ele>
  <time>2026-09-02T20:50:54Z</time>
  <course>326.59</course>
  <speed>1.2</speed>
  <fix>3d</fix>
</trkpt>
<trkpt lat="40.0712825" lon="-105.2293794">
  <ele>1582.99</ele>
  <time>2026-09-02T20:50:54Z</time>
  <course>326.57</course>
  <speed>1.1843141475132348</speed>
  <fix>3d</fix>
</trkpt>
<trkpt lat="40.0712817" lon="-105.2293786">
  <ele>1582.99</ele>
  <time>2026-09-02T20:50:54Z</time>
  <course>326.62</course>
  <speed>1.19</speed>
  <fix>3d</fix>
</trkpt>
<trkpt lat="40.0712835" lon="-105.2293802">
  <ele>1582.99</ele>
  <time>2026-09-02T20:50:54Z</time>
  <course>326.57</course>
  <speed>1.1981652640600127</speed>
  <fix>3d</fix>
</trkpt>
<trkpt lat="40.0712817" lon="-105.2293786">
  <ele>1582.99</ele>
  <time>2026-09-02T20:50:54Z</time>
  <course>326.62</course>
  <speed>1.19</speed>
  <fix>3d</fix>
</trkpt>
<trkpt lat="40.0712843" lon="-105.2293809">
  <ele>1582.99</ele>
  <time>2026-09-02T20:50:54Z</time>
  <course>326.58</course>
  <speed>1.1843141475132348</speed>
  <fix>3d</fix>
</trkpt>
<trkpt lat="40.0712834" lon="-105.2293802">
  <ele>1582.99</ele>
  <time>2026-09-02T20:50:54Z</time>
  <course>326.63</course>
  <speed>1.19</speed>
  <fix>3d</fix>
</trkpt>
<trkpt lat="40.0712853" lon="-105.2293818">
  <ele>1582.99</ele>
  <time>2026-09-02T20:50:54Z</time>
  <course>326.58</course>
  <speed>1.1981652640600127</speed>
  <fix>3d</fix>
</trkpt>
<trkpt lat="40.0712834" lon="-105.2293802">
  <ele>1582.99</ele>
  <time>2026-09-02T20:50:54Z</time>
  <course>326.63</course>
  <speed>1.19</speed>
  <fix>3d</fix>
</trkpt>
<trkpt lat="40.0712861" lon="-105.2293825">
  <ele>1582.99</ele>
  <time>2026-09-02T20:50:54Z</time>
  <course>326.58</course>
  <speed>1.1926860441876563</speed>
  <fix>3d</fix>
</trkpt>
<trkpt lat="40.0712853" lon="-105.2293818">
  <ele>1582.99</ele>
  <time>2026-09-02T20:50:54Z</time>
  <course>326.64</course>
  <speed>1.19</speed>
  <fix>3d</fix>
</trkpt>
<trkpt lat="40.0712872" lon="-105.2293835">
  <ele>1582.99</ele>
  <time>2026-09-02T20:50:54Z</time>
  <course>326.58</course>
  <speed>1.1981652640600127</speed>
  <fix>3d</fix>
</trkpt>
<trkpt lat="40.0712853" lon="-105.2293818">
  <ele>1582.99</ele>
  <time>2026-09-02T20:50:54Z</time>
  <course>326.64</course>
  <speed>1.19</speed>
  <fix>3d</fix>
</trkpt>
<trkpt lat="40.071288" lon="-105.2293842">
  <ele>1582.99</ele>
  <time>2026-09-02T20:50:54Z</time>
  <course>326.58</course>
  <speed>1.1926860441876563</speed>
  <fix>3d</fix>
</trkpt>
<trkpt lat="40.071287" lon="-105.2293833">
  <ele>1582.99</ele>
  <time>2026-09-02T20:50:54Z</time>
  <course>326.64</course>
  <speed>1.19</speed>
  <fix>3d</fix>
</trkpt>
<trkpt lat="40.071289" lon="-105.2293851">
  <ele>1582.99</ele>
  <time>2026-09-02T20:50:54Z</time>
  <course>326.58</course>
  <speed>1.1981652640600127</speed>
  <fix>3d</fix>
</trkpt>
<trkpt lat="40.071287" lon="-105.2293833">
  <ele>1582.99</ele>
  <time>2026-09-02T20:50:54Z</time>
  <course>326.64</course>
  <speed>1.19</speed>
  <fix>3d</fix>
</trkpt>
<trkpt lat="40.0712898" lon="-105.2293857">
  <ele>1582.99</ele>
  <time>2026-09-02T20:50:54Z</time>
  <course>326.57</course>
  <speed>1.1926860441876563</speed>
  <fix>3d</fix>
</trkpt>
<trkpt lat="40.0712889" lon="-105.2293848">
  <ele>1582.99</ele>
  <time>2026-09-02T20:50:54Z</time>
  <course>326.63</course>
  <speed>1.19</speed>
  <fix>3d</fix>
</trkpt>
<trkpt lat="40.0712908" lon="-105.2293866">
  <ele>1582.99</ele>
  <time>2026-09-02T20:50:54Z</time>
  <course>326.57</course>
  <speed>1.1981652640600127</speed>
  <fix>3d</fix>
</trkpt>
<trkpt lat="40.0712889" lon="-105.2293848">
  <ele>1582.99</ele>
  <time>2026-09-02T20:50:54Z</time>
  <course>326.63</course>
  <speed>1.19</speed>
  <fix>3d</fix>
</trkpt>
<trkpt lat="40.0712916" lon="-105.2293873">
  <ele>1582.99</ele>
  <time>2026-09-02T20:50:54Z</time>
  <course>326.56</course>
  <speed>1.1926860441876563</speed>
  <fix>3d</fix>
</trkpt>
<trkpt lat="40.0712906" lon="-105.2293864">
  <ele>1582.99</ele>
  <time>2026-09-02T20:50:54Z</time>
  <course>326.63</course>
  <speed>1.19</speed>
  <fix>3d</fix>
</trkpt>
<trkpt lat="40.0712926" lon="-105.2293881">
  <ele>1582.99</ele>
  <time>2026-09-02T20:50:54Z</time>
  <course>326.56</course>
  <speed>1.1981652640600127</speed>
  <fix>3d</fix>
</trkpt>
<trkpt lat="40.0712906" lon="-105.2293864">
  <ele>1582.99</ele>
  <time>2026-09-02T20:50:54Z</time>
  <course>326.63</course>
  <speed>1.19</speed>
  <fix>3d</fix>
</trkpt>
<trkpt lat="40.0712934" lon="-105.2293888">
  <ele>1582.99</ele>
  <time>2026-09-02T20:50:54Z</time>
  <course>326.55</course>
  <speed>1.1926860441876563</speed>
  <fix>3d</fix>
</trkpt>
<trkpt lat="40.0712925" lon="-105.229388">
  <ele>1582.99</ele>
  <time>2026-09-02T20:50:54Z</time>
  <course>326.61</course>
  <speed>1.19</speed>
  <fix>3d</fix>
</trkpt>
<trkpt lat="40.0712944" lon="-105.2293897">
  <ele>1582.99</ele>
  <time>2026-09-02T20:50:54Z</time>
  <course>326.54</course>
  <speed>1.1981652640600127</speed>
  <fix>3d</fix>
</trkpt>
<trkpt lat="40.0712925" lon="-105.229388">
  <ele>1582.99</ele>
  <time>2026-09-02T20:50:54Z</time>
  <course>326.61</course>
  <speed>1.19</speed>
  <fix>3d</fix>
</trkpt>
<trkpt lat="40.0712952" lon="-105.2293904">
  <ele>1582.99</ele>
  <time>2026-09-02T20:50:54Z</time>
  <course>326.53</course>
  <speed>1.1981652640600127</speed>
  <fix>3d</fix>
</trkpt>
<trkpt lat="40.0712943" lon="-105.2293895">
  <ele>1582.99</ele>
  <time>2026-09-02T20:50:54Z</time>
  <course>326.6</course>
  <speed>1.2</speed>
  <fix>3d</fix>
</trkpt>
<trkpt lat="40.0712962" lon="-105.2293912">
  <ele>1582.99</ele>
  <time>2026-09-02T20:50:54Z</time>
  <course>326.52</course>
  <speed>1.1981652640600127</speed>
  <fix>3d</fix>
</trkpt>
<trkpt lat="40.0712943" lon="-105.2293895">
  <ele>1582.99</ele>
  <time>2026-09-02T20:50:54Z</time>
  <course>326.6</course>
  <speed>1.2</speed>
  <fix>3d</fix>
</trkpt>
<trkpt lat="40.071297" lon="-105.2293919">
  <ele>1582.99</ele>
  <time>2026-09-02T20:50:54Z</time>
  <course>326.52</course>
  <speed>1.1843141475132348</speed>
  <fix>3d</fix>
</trkpt>
<trkpt lat="40.0712961" lon="-105.229391">
  <ele>1582.99</ele>
  <time>2026-09-02T20:50:54Z</time>
  <course>326.58</course>
  <speed>1.19</speed>
  <fix>3d</fix>
</trkpt>
<trkpt lat="40.0712979" lon="-105.2293926">
  <ele>1582.99</ele>
  <time>2026-09-02T20:50:54Z</time>
  <course>326.5</course>
  <speed>1.1981652640600127</speed>
  <fix>3d</fix>
</trkpt>
<trkpt lat="40.0712961" lon="-105.229391">
  <ele>1582.99</ele>
  <time>2026-09-02T20:50:54Z</time>
  <course>326.58</course>
  <speed>1.19</speed>
  <fix>3d</fix>
</trkpt>
<trkpt lat="40.0712988" lon="-105.2293933">
  <ele>1582.99</ele>
  <time>2026-09-02T20:50:54Z</time>
  <course>326.5</course>
  <speed>1.1981652640600127</speed>
  <fix>3d</fix>
</trkpt>
<trkpt lat="40.0712979" lon="-105.2293926">
  <ele>1582.99</ele>
  <time>2026-09-02T20:50:54Z</time>
  <course>326.57</course>
  <speed>1.19</speed>
  <fix>3d</fix>
</trkpt>
<trkpt lat="40.0712997" lon="-105.2293942">
  <ele>1582.99</ele>
  <time>2026-09-02T20:50:54Z</time>
  <course>326.49</course>
  <speed>1.1981652640600127</speed>
  <fix>3d</fix>
</trkpt>
<trkpt lat="40.0712979" lon="-105.2293926">
  <ele>1582.99</ele>
  <time>2026-09-02T20:50:54Z</time>
  <course>326.57</course>
  <speed>1.19</speed>
  <fix>3d</fix>
</trkpt>
<trkpt lat="40.0713006" lon="-105.229395">
  <ele>1582.99</ele>
  <time>2026-09-02T20:50:54Z</time>
  <course>326.47</course>
  <speed>1.1843141475132348</speed>
  <fix>3d</fix>
</trkpt>
<trkpt lat="40.0712997" lon="-105.2293942">
  <ele>1582.99</ele>
  <time>2026-09-02T20:50:54Z</time>
  <course>326.54</course>
  <speed>1.19</speed>
  <fix>3d</fix>
</trkpt>
<trkpt lat="40.0713015" lon="-105.2293957">
  <ele>1582.99</ele>
  <time>2026-09-02T20:50:54Z</time>
  <course>326.46</course>
  <speed>1.1981652640600127</speed>
  <fix>3d</fix>
</trkpt>
<trkpt lat="40.0712997" lon="-105.2293942">
  <ele>1582.99</ele>
  <time>2026-09-02T20:50:54Z</time>
  <course>326.54</course>
  <speed>1.19</speed>
  <fix>3d</fix>
</trkpt>
<trkpt lat="40.0713024" lon="-105.2293964">
  <ele>1582.99</ele>
  <time>2026-09-02T20:50:54Z</time>
  <course>326.45</course>
  <speed>1.1843141475132348</speed>
  <fix>3d</fix>
</trkpt>
<trkpt lat="40.0713015" lon="-105.2293957">
  <ele>1582.99</ele>
  <time>2026-09-02T20:50:54Z</time>
  <course>326.52</course>
  <speed>1.19</speed>
  <fix>3d</fix>
</trkpt>
<trkpt lat="40.0713032" lon="-105.2293973">
  <ele>1582.99</ele>
  <time>2026-09-02T20:50:54Z</time>
  <course>326.44</course>
  <speed>1.1981652640600127</speed>
  <fix>3d</fix>
</trkpt>
<trkpt lat="40.0713015" lon="-105.2293957">
  <ele>1582.99</ele>
  <time>2026-09-02T20:50:54Z</time>
  <course>326.52</course>
  <speed>1.19</speed>
  <fix>3d</fix>
</trkpt>
<trkpt lat="40.0713042" lon="-105.2293981">
  <ele>1582.99</ele>
  <time>2026-09-02T20:50:54Z</time>
  <course>326.43</course>
  <speed>1.1843141475132348</speed>
  <fix>3d</fix>
</trkpt>
<trkpt lat="40.0713032" lon="-105.2293972">
  <ele>1582.99</ele>
  <time>2026-09-02T20:50:54Z</time>
  <course>326.5</course>
  <speed>1.19</speed>
  <fix>3d</fix>
</trkpt>
<trkpt lat="40.071305" lon="-105.2293988">
  <ele>1582.99</ele>
  <time>2026-09-02T20:50:54Z</time>
  <course>326.42</course>
  <speed>1.1981652640600127</speed>
  <fix>3d</fix>
</trkpt>
<trkpt lat="40.0713032" lon="-105.2293972">
  <ele>1582.99</ele>
  <time>2026-09-02T20:50:54Z</time>
  <course>326.5</course>
  <speed>1.19</speed>
  <fix>3d</fix>
</trkpt>
<trkpt lat="40.0713061" lon="-105.2293998">
  <ele>1582.99</ele>
  <time>2026-09-02T20:50:54Z</time>
  <course>326.41</course>
  <speed>1.1898319209031165</speed>
  <fix>3d</fix>
</trkpt>
<trkpt lat="40.071305" lon="-105.2293989">
  <ele>1582.99</ele>
  <time>2026-09-02T20:50:54Z</time>
  <course>326.47</course>
  <speed>1.19</speed>
  <fix>3d</fix>
</trkpt>
<trkpt lat="40.071307" lon="-105.2294005">
  <ele>1582.99</ele>
  <time>2026-09-02T20:50:54Z</time>
  <course>326.4</course>
  <speed>1.1981652640600127</speed>
  <fix>3d</fix>
</trkpt>
<trkpt lat="40.071305" lon="-105.2293989">
  <ele>1582.99</ele>
  <time>2026-09-02T20:50:54Z</time>
  <course>326.47</course>
  <speed>1.19</speed>
  <fix>3d</fix>
</trkpt>
<trkpt lat="40.0713079" lon="-105.2294014">
  <ele>1582.99</ele>
  <time>2026-09-02T20:50:54Z</time>
  <course>326.39</course>
  <speed>1.1898319209031165</speed>
  <fix>3d</fix>
</trkpt>
<trkpt lat="40.0713068" lon="-105.2294004">
  <ele>1582.99</ele>
  <time>2026-09-02T20:50:54Z</time>
  <course>326.45</course>
  <speed>1.19</speed>
  <fix>3d</fix>
</trkpt>
<trkpt lat="40.0713088" lon="-105.2294021">
  <ele>1582.99</ele>
  <time>2026-09-02T20:50:54Z</time>
  <course>326.38</course>
  <speed>1.1981652640600127</speed>
  <fix>3d</fix>
</trkpt>
<trkpt lat="40.0713068" lon="-105.2294004">
  <ele>1582.99</ele>
  <time>2026-09-02T20:50:54Z</time>
  <course>326.45</course>
  <speed>1.19</speed>
  <fix>3d</fix>
</trkpt>
<trkpt lat="40.0713097" lon="-105.2294029">
  <ele>1582.99</ele>
  <time>2026-09-02T20:50:54Z</time>
  <course>326.36</course>
  <speed>1.1898319209031165</speed>
  <fix>3d</fix>
</trkpt>
<trkpt lat="40.0713085" lon="-105.2294019">
  <ele>1582.99</ele>
  <time>2026-09-02T20:50:54Z</time>
  <course>326.43</course>
  <speed>1.19</speed>
  <fix>3d</fix>
</trkpt>
<trkpt lat="40.0713105" lon="-105.2294036">
  <ele>1582.99</ele>
  <time>2026-09-02T20:50:54Z</time>
  <course>326.35</course>
  <speed>1.1981652640600127</speed>
  <fix>3d</fix>
</trkpt>
<trkpt lat="40.0713085" lon="-105.2294019">
  <ele>1582.99</ele>
  <time>2026-09-02T20:50:54Z</time>
  <course>326.43</course>
  <speed>1.19</speed>
  <fix>3d</fix>
</trkpt>
<trkpt lat="40.0713115" lon="-105.2294045">
  <ele>1582.99</ele>
  <time>2026-09-02T20:50:54Z</time>
  <course>326.34</course>
  <speed>1.1898319209031165</speed>
  <fix>3d</fix>
</trkpt>
<trkpt lat="40.0713104" lon="-105.2294035">
  <ele>1582.99</ele>
  <time>2026-09-02T20:50:54Z</time>
  <course>326.41</course>
  <speed>1.19</speed>
  <fix>3d</fix>
</trkpt>
<trkpt lat="40.0713123" lon="-105.2294053">
  <ele>1582.99</ele>
  <time>2026-09-02T20:50:54Z</time>
  <course>326.33</course>
  <speed>1.1898319209031165</speed>
  <fix>3d</fix>
</trkpt>
<trkpt lat="40.0713104" lon="-105.2294035">
  <ele>1582.99</ele>
  <time>2026-09-02T20:50:54Z</time>
  <course>326.41</course>
  <speed>1.19</speed>
  <fix>3d</fix>
</trkpt>
<trkpt lat="40.0713133" lon="-105.229406">
  <ele>1582.99</ele>
  <time>2026-09-02T20:50:54Z</time>
  <course>326.32</course>
  <speed>1.1898319209031165</speed>
  <fix>3d</fix>
</trkpt>
<trkpt lat="40.0713121" lon="-105.229405">
  <ele>1582.99</ele>
  <time>2026-09-02T20:50:54Z</time>
  <course>326.39</course>
  <speed>1.19</speed>
  <fix>3d</fix>
</trkpt>
<trkpt lat="40.0713141" lon="-105.2294067">
  <ele>1582.99</ele>
  <time>2026-09-02T20:50:54Z</time>
  <course>326.31</course>
  <speed>1.1898319209031165</speed>
  <fix>3d</fix>
</trkpt>
<trkpt lat="40.0713121" lon="-105.229405">
  <ele>1582.99</ele>
  <time>2026-09-02T20:50:54Z</time>
  <course>326.39</course>
  <speed>1.19</speed>
  <fix>3d</fix>
</trkpt>
<trkpt lat="40.0713151" lon="-105.2294076">
  <ele>1582.99</ele>
  <time>2026-09-02T20:50:54Z</time>
  <course>326.3</course>
  <speed>1.1898319209031165</speed>
  <fix>3d</fix>
</trkpt>
<trkpt lat="40.071314" lon="-105.2294066">
  <ele>1582.99</ele>
  <time>2026-09-02T20:50:54Z</time>
  <course>326.37</course>
  <speed>1.19</speed>
  <fix>3d</fix>
</trkpt>
<trkpt lat="40.0713158" lon="-105.2294082">
  <ele>1582.99</ele>
  <time>2026-09-02T20:50:54Z</time>
  <course>326.29</course>
  <speed>1.1981652640600127</speed>
  <fix>3d</fix>
</trkpt>
<trkpt lat="40.071314" lon="-105.2294066">
  <ele>1582.99</ele>
  <time>2026-09-02T20:50:54Z</time>
  <course>326.37</course>
  <speed>1.19</speed>
  <fix>3d</fix>
</trkpt>
<trkpt lat="40.0713166" lon="-105.2294089">
  <ele>1582.99</ele>
  <time>2026-09-02T20:50:54Z</time>
  <course>326.28</course>
  <speed>1.1898319209031165</speed>
  <fix>3d</fix>
</trkpt>
<trkpt lat="40.0713157" lon="-105.2294082">
  <ele>1582.99</ele>
  <time>2026-09-02T20:50:54Z</time>
  <course>326.35</course>
  <speed>1.19</speed>
  <fix>3d</fix>
</trkpt>
<trkpt lat="40.0713176" lon="-105.2294098">
  <ele>1582.99</ele>
  <time>2026-09-02T20:50:54Z</time>
  <course>326.27</course>
  <speed>1.1981652640600127</speed>
  <fix>3d</fix>
</trkpt>
<trkpt lat="40.0713157" lon="-105.2294082">
  <ele>1582.99</ele>
  <time>2026-09-02T20:50:54Z</time>
  <course>326.35</course>
  <speed>1.19</speed>
  <fix>3d</fix>
</trkpt>
<trkpt lat="40.0713184" lon="-105.2294106">
  <ele>1582.99</ele>
  <time>2026-09-02T20:50:54Z</time>
  <course>326.27</course>
  <speed>1.1898319209031165</speed>
  <fix>3d</fix>
</trkpt>
<trkpt lat="40.0713176" lon="-105.2294097">
  <ele>1582.99</ele>
  <time>2026-09-02T20:50:54Z</time>
  <course>326.33</course>
  <speed>1.19</speed>
  <fix>3d</fix>
</trkpt>
<trkpt lat="40.0713194" lon="-105.2294113">
  <ele>1582.99</ele>
  <time>2026-09-02T20:50:54Z</time>
  <course>326.26</course>
  <speed>1.1981652640600127</speed>
  <fix>3d</fix>
</trkpt>
<trkpt lat="40.0713176" lon="-105.2294097">
  <ele>1582.99</ele>
  <time>2026-09-02T20:50:54Z</time>
  <course>326.33</course>
  <speed>1.19</speed>
  <fix>3d</fix>
</trkpt>
<trkpt lat="40.0713202" lon="-105.229412">
  <ele>1582.99</ele>
  <time>2026-09-02T20:50:54Z</time>
  <course>326.25</course>
  <speed>1.1898319209031165</speed>
  <fix>3d</fix>
</trkpt>
<trkpt lat="40.0713193" lon="-105.2294113">
  <ele>1582.99</ele>
  <time>2026-09-02T20:50:54Z</time>
  <course>326.31</course>
  <speed>1.19</speed>
  <fix>3d</fix>
</trkpt>
<trkpt lat="40.0713212" lon="-105.2294129">
  <ele>1582.99</ele>
  <time>2026-09-02T20:50:54Z</time>
  <course>326.24</course>
  <speed>1.1898319209031165</speed>
  <fix>3d</fix>
</trkpt>
<trkpt lat="40.0713193" lon="-105.2294113">
  <ele>1582.99</ele>
  <time>2026-09-02T20:50:54Z</time>
  <course>326.31</course>
  <speed>1.19</speed>
  <fix>3d</fix>
</trkpt>
<trkpt lat="40.071322" lon="-105.2294137">
  <ele>1582.99</ele>
  <time>2026-09-02T20:50:54Z</time>
  <course>326.23</course>
  <speed>1.1898319209031165</speed>
  <fix>3d</fix>
</trkpt>
<trkpt lat="40.0713212" lon="-105.2294129">
  <ele>1582.99</ele>
  <time>2026-09-02T20:50:54Z</time>
  <course>326.29</course>
  <speed>1.19</speed>
  <fix>3d</fix>
</trkpt>
<trkpt lat="40.071323" lon="-105.2294144">
  <ele>1582.99</ele>
  <time>2026-09-02T20:50:54Z</time>
  <course>326.22</course>
  <speed>1.1898319209031165</speed>
  <fix>3d</fix>
</trkpt>
<trkpt lat="40.0713212" lon="-105.2294129">
  <ele>1582.99</ele>
  <time>2026-09-02T20:50:54Z</time>
  <course>326.29</course>
  <speed>1.19</speed>
  <fix>3d</fix>
</trkpt>
<trkpt lat="40.0713238" lon="-105.2294153">
  <ele>1582.99</ele>
  <time>2026-09-02T20:50:54Z</time>
  <course>326.22</course>
  <speed>1.1898319209031165</speed>
  <fix>3d</fix>
</trkpt>
<trkpt lat="40.0713229" lon="-105.2294144">
  <ele>1582.99</ele>
  <time>2026-09-02T20:50:54Z</time>
  <course>326.27</course>
  <speed>1.19</speed>
  <fix>3d</fix>
</trkpt>
<trkpt lat="40.071325" lon="-105.2294161">
  <ele>1582.99</ele>
  <time>2026-09-02T20:50:54Z</time>
  <course>326.21</course>
  <speed>1.1898319209031165</speed>
  <fix>3d</fix>
</trkpt>
<trkpt lat="40.0713229" lon="-105.2294144">
  <ele>1582.99</ele>
  <time>2026-09-02T20:50:54Z</time>
  <course>326.27</course>
  <speed>1.19</speed>
  <fix>3d</fix>
</trkpt>
<trkpt lat="40.0713259" lon="-105.229417">
  <ele>1582.99</ele>
  <time>2026-09-02T20:50:54Z</time>
  <course>326.2</course>
  <speed>1.1981652640600127</speed>
  <fix>3d</fix>
</trkpt>
<trkpt lat="40.0713248" lon="-105.229416">
  <ele>1582.99</ele>
  <time>2026-09-02T20:50:54Z</time>
  <course>326.26</course>
  <speed>1.19</speed>
  <fix>3d</fix>
</trkpt>
<trkpt lat="40.0713268" lon="-105.2294177">
  <ele>1582.99</ele>
  <time>2026-09-02T20:50:54Z</time>
  <course>326.2</course>
  <speed>1.1898319209031165</speed>
  <fix>3d</fix>
</trkpt>
<trkpt lat="40.0713248" lon="-105.229416">
  <ele>1582.99</ele>
  <time>2026-09-02T20:50:54Z</time>
  <course>326.26</course>
  <speed>1.19</speed>
  <fix>3d</fix>
</trkpt>
<trkpt lat="40.0713277" lon="-105.2294185">
  <ele>1582.99</ele>
  <time>2026-09-02T20:50:54Z</time>
  <course>326.19</course>
  <speed>1.1981652640600127</speed>
  <fix>3d</fix>
</trkpt>
<trkpt lat="40.0713265" lon="-105.2294176">
  <ele>1582.99</ele>
  <time>2026-09-02T20:50:54Z</time>
  <course>326.25</course>
  <speed>1.19</speed>
  <fix>3d</fix>
</trkpt>
<trkpt lat="40.0713286" lon="-105.2294192">
  <ele>1582.99</ele>
  <time>2026-09-02T20:50:54Z</time>
  <course>326.19</course>
  <speed>1.1898319209031165</speed>
  <fix>3d</fix>
</trkpt>
<trkpt lat="40.0713265" lon="-105.2294176">
  <ele>1582.99</ele>
  <time>2026-09-02T20:50:54Z</time>
  <course>326.25</course>
  <speed>1.19</speed>
  <fix>3d</fix>
</trkpt>
<trkpt lat="40.0713295" lon="-105.2294201">
  <ele>1582.99</ele>
  <time>2026-09-02T20:50:54Z</time>
  <course>326.19</course>
  <speed>1.1981652640600127</speed>
  <fix>3d</fix>
</trkpt>
<trkpt lat="40.0713284" lon="-105.2294192">
  <ele>1582.99</ele>
  <time>2026-09-02T20:50:54Z</time>
  <course>326.24</course>
  <speed>1.2</speed>
  <fix>3d</fix>
</trkpt>
<trkpt lat="40.0713304" lon="-105.2294208">
  <ele>1582.99</ele>
  <time>2026-09-02T20:50:54Z</time>
  <course>326.19</course>
  <speed>1.1898319209031165</speed>
  <fix>3d</fix>
</trkpt>
<trkpt lat="40.0713284" lon="-105.2294192">
  <ele>1582.99</ele>
  <time>2026-09-02T20:50:54Z</time>
  <course>326.24</course>
  <speed>1.2</speed>
  <fix>3d</fix>
</trkpt>
<trkpt lat="40.0713311" lon="-105.2294216">
  <ele>1582.99</ele>
  <time>2026-09-02T20:50:54Z</time>
  <course>326.18</course>
  <speed>1.1981652640600127</speed>
  <fix>3d</fix>
</trkpt>
<trkpt lat="40.0713301" lon="-105.2294207">
  <ele>1582.99</ele>
  <time>2026-09-02T20:50:54Z</time>
  <course>326.23</course>
  <speed>1.2</speed>
  <fix>3d</fix>
</trkpt>
<trkpt lat="40.0713321" lon="-105.2294225">
  <ele>1582.99</ele>
  <time>2026-09-02T20:50:54Z</time>
  <course>326.18</course>
  <speed>1.1898319209031165</speed>
  <fix>3d</fix>
</trkpt>
<trkpt lat="40.0713301" lon="-105.2294207">
  <ele>1582.99</ele>
  <time>2026-09-02T20:50:54Z</time>
  <course>326.23</course>
  <speed>1.2</speed>
  <fix>3d</fix>
</trkpt>
<trkpt lat="40.0713329" lon="-105.2294232">
  <ele>1582.99</ele>
  <time>2026-09-02T20:50:54Z</time>
  <course>326.17</course>
  <speed>1.2037026210821342</speed>
  <fix>3d</fix>
</trkpt>
<trkpt lat="40.071332" lon="-105.2294223">
  <ele>1582.99</ele>
  <time>2026-09-02T20:50:54Z</time>
  <course>326.23</course>
  <speed>1.2</speed>
  <fix>3d</fix>
</trkpt>
<trkpt lat="40.0713339" lon="-105.229424">
  <ele>1582.99</ele>
  <time>2026-09-02T20:50:54Z</time>
  <course>326.17</course>
  <speed>1.1898319209031165</speed>
  <fix>3d</fix>
</trkpt>
<trkpt lat="40.071332" lon="-105.2294223">
  <ele>1582.99</ele>
  <time>2026-09-02T20:50:54Z</time>
  <course>326.23</course>
  <speed>1.2</speed>
  <fix>3d</fix>
</trkpt>
<trkpt lat="40.0713347" lon="-105.2294247">
  <ele>1582.99</ele>
  <time>2026-09-02T20:50:54Z</time>
  <course>326.16</course>
  <speed>1.1898319209031165</speed>
  <fix>3d</fix>
</trkpt>
<trkpt lat="40.0713338" lon="-105.2294239">
  <ele>1582.99</ele>
  <time>2026-09-02T20:50:54Z</time>
  <course>326.22</course>
  <speed>1.2</speed>
  <fix>3d</fix>
</trkpt>
<trkpt lat="40.0713356" lon="-105.2294254">
  <ele>1582.99</ele>
  <time>2026-09-02T20:50:54Z</time>
  <course>326.16</course>
  <speed>1.1898319209031165</speed>
  <fix>3d</fix>
</trkpt>
<trkpt lat="40.0713338" lon="-105.2294239">
  <ele>1582.99</ele>
  <time>2026-09-02T20:50:54Z</time>
  <course>326.22</course>
  <speed>1.2</speed>
  <fix>3d</fix>
</trkpt>
<trkpt lat="40.0713364" lon="-105.2294261">
  <ele>1582.99</ele>
  <time>2026-09-02T20:50:54Z</time>
  <course>326.15</course>
  <speed>1.1898319209031165</speed>
  <fix>3d</fix>
</trkpt>
<trkpt lat="40.0713355" lon="-105.2294254">
  <ele>1582.99</ele>
  <time>2026-09-02T20:50:54Z</time>
  <course>326.21</course>
  <speed>1.2</speed>
  <fix>3d</fix>
</trkpt>
<trkpt lat="40.0713372" lon="-105.229427">
  <ele>1582.99</ele>
  <time>2026-09-02T20:50:54Z</time>
  <course>326.15</course>
  <speed>1.1898319209031165</speed>
  <fix>3d</fix>
</trkpt>
<trkpt lat="40.0713355" lon="-105.2294254">
  <ele>1582.99</ele>
  <time>2026-09-02T20:50:54Z</time>
  <course>326.21</course>
  <speed>1.2</speed>
  <fix>3d</fix>
</trkpt>
<trkpt lat="40.0713382" lon="-105.2294278">
  <ele>1582.99</ele>
  <time>2026-09-02T20:50:54Z</time>
  <course>326.15</course>
  <speed>1.1898319209031165</speed>
  <fix>3d</fix>
</trkpt>
<trkpt lat="40.0713372" lon="-105.2294269">
  <ele>1582.99</ele>
  <time>2026-09-02T20:50:54Z</time>
  <course>326.2</course>
  <speed>1.2</speed>
  <fix>3d</fix>
</trkpt>
<trkpt lat="40.071339" lon="-105.2294285">
  <ele>1582.99</ele>
  <time>2026-09-02T20:50:54Z</time>
  <course>326.15</course>
  <speed>1.1898319209031165</speed>
  <fix>3d</fix>
</trkpt>
<trkpt lat="40.0713372" lon="-105.2294269">
  <ele>1582.99</ele>
  <time>2026-09-02T20:50:54Z</time>
  <course>326.2</course>
  <speed>1.2</speed>
  <fix>3d</fix>
</trkpt>
<trkpt lat="40.07134" lon="-105.2294294">
  <ele>1582.99</ele>
  <time>2026-09-02T20:50:54Z</time>
  <course>326.15</course>
  <speed>1.1898319209031165</speed>
  <fix>3d</fix>
</trkpt>
<trkpt lat="40.0713391" lon="-105.2294286">
  <ele>1582.99</ele>
  <time>2026-09-02T20:50:54Z</time>
  <course>326.2</course>
  <speed>1.19</speed>
  <fix>3d</fix>
</trkpt>
<trkpt lat="40.0713408" lon="-105.2294301">
  <ele>1582.99</ele>
  <time>2026-09-02T20:50:54Z</time>
  <course>326.15</course>
  <speed>1.1898319209031165</speed>
  <fix>3d</fix>
</trkpt>
<trkpt lat="40.0713391" lon="-105.2294286">
  <ele>1582.99</ele>
  <time>2026-09-02T20:50:54Z</time>
  <course>326.2</course>
  <speed>1.19</speed>
  <fix>3d</fix>
</trkpt>
<trkpt lat="40.0713418" lon="-105.2294309">
  <ele>1582.99</ele>
  <time>2026-09-02T20:50:54Z</time>
  <course>326.15</course>
  <speed>1.1898319209031165</speed>
  <fix>3d</fix>
</trkpt>
<trkpt lat="40.0713408" lon="-105.2294301">
  <ele>1582.99</ele>
  <time>2026-09-02T20:50:54Z</time>
  <course>326.2</course>
  <speed>1.19</speed>
  <fix>3d</fix>
</trkpt>
<trkpt lat="40.0713426" lon="-105.2294316">
  <ele>1582.99</ele>
  <time>2026-09-02T20:50:54Z</time>
  <course>326.15</course>
  <speed>1.1898319209031165</speed>
  <fix>3d</fix>
</trkpt>
<trkpt lat="40.0713408" lon="-105.2294301">
  <ele>1582.99</ele>
  <time>2026-09-02T20:50:54Z</time>
  <course>326.2</course>
  <speed>1.19</speed>
  <fix>3d</fix>
</trkpt>
<trkpt lat="40.0713438" lon="-105.2294326">
  <ele>1582.99</ele>
  <time>2026-09-02T20:50:54Z</time>
  <course>326.15</course>
  <speed>1.1898319209031165</speed>
  <fix>3d</fix>
</trkpt>
<trkpt lat="40.0713427" lon="-105.2294316">
  <ele>1582.99</ele>
  <time>2026-09-02T20:50:54Z</time>
  <course>326.2</course>
  <speed>1.19</speed>
  <fix>3d</fix>
</trkpt>
<trkpt lat="40.0713447" lon="-105.2294333">
  <ele>1582.99</ele>
  <time>2026-09-02T20:50:54Z</time>
  <course>326.15</course>
  <speed>1.1898319209031165</speed>
  <fix>3d</fix>
</trkpt>
<trkpt lat="40.0713427" lon="-105.2294316">
  <ele>1582.99</ele>
  <time>2026-09-02T20:50:54Z</time>
  <course>326.2</course>
  <speed>1.19</speed>
  <fix>3d</fix>
</trkpt>
<trkpt lat="40.0713456" lon="-105.2294342">
  <ele>1582.99</ele>
  <time>2026-09-02T20:50:54Z</time>
  <course>326.14</course>
  <speed>1.1898319209031165</speed>
  <fix>3d</fix>
</trkpt>
<trkpt lat="40.0713444" lon="-105.2294333">
  <ele>1582.99</ele>
  <time>2026-09-02T20:50:54Z</time>
  <course>326.19</course>
  <speed>1.2</speed>
  <fix>3d</fix>
</trkpt>
<trkpt lat="40.0713465" lon="-105.229435">
  <ele>1582.99</ele>
  <time>2026-09-02T20:50:54Z</time>
  <course>326.14</course>
  <speed>1.1898319209031165</speed>
  <fix>3d</fix>
</trkpt>
<trkpt lat="40.0713444" lon="-105.2294333">
  <ele>1582.99</ele>
  <time>2026-09-02T20:50:54Z</time>
  <course>326.19</course>
  <speed>1.2</speed>
  <fix>3d</fix>
</trkpt>
<trkpt lat="40.0713474" lon="-105.2294357">
  <ele>1582.99</ele>
  <time>2026-09-02T20:50:54Z</time>
  <course>326.14</course>
  <speed>1.1898319209031165</speed>
  <fix>3d</fix>
</trkpt>
<trkpt lat="40.0713463" lon="-105.2294348">
  <ele>1582.99</ele>
  <time>2026-09-02T20:50:54Z</time>
  <course>326.19</course>
  <speed>1.2</speed>
  <fix>3d</fix>
</trkpt>
<trkpt lat="40.0713482" lon="-105.2294366">
  <ele>1582.99</ele>
  <time>2026-09-02T20:50:54Z</time>
  <course>326.14</course>
  <speed>1.1898319209031165</speed>
  <fix>3d</fix>
</trkpt>
<trkpt lat="40.0713463" lon="-105.2294348">
  <ele>1582.99</ele>
  <time>2026-09-02T20:50:54Z</time>
  <course>326.19</course>
  <speed>1.2</speed>
  <fix>3d</fix>
</trkpt>
<trkpt lat="40.0713492" lon="-105.2294373">
  <ele>1582.99</ele>
  <time>2026-09-02T20:50:54Z</time>
  <course>326.14</course>
  <speed>1.1898319209031165</speed>
  <fix>3d</fix>
</trkpt>
<trkpt lat="40.071348" lon="-105.2294364">
  <ele>1582.99</ele>
  <time>2026-09-02T20:50:54Z</time>
  <course>326.19</course>
  <speed>1.19</speed>
  <fix>3d</fix>
</trkpt>
<trkpt lat="40.07135" lon="-105.2294381">
  <ele>1582.99</ele>
  <time>2026-09-02T20:50:54Z</time>
  <course>326.14</course>
  <speed>1.1898319209031165</speed>
  <fix>3d</fix>
</trkpt>
<trkpt lat="40.071348" lon="-105.2294364">
  <ele>1582.99</ele>
  <time>2026-09-02T20:50:54Z</time>
  <course>326.19</course>
  <speed>1.19</speed>
  <fix>3d</fix>
</trkpt>
<trkpt lat="40.071351" lon="-105.2294388">
  <ele>1582.99</ele>
  <time>2026-09-02T20:50:54Z</time>
  <course>326.15</course>
  <speed>1.1898319209031165</speed>
  <fix>3d</fix>
</trkpt>
<trkpt lat="40.0713499" lon="-105.2294379">
  <ele>1582.99</ele>
  <time>2026-09-02T20:50:54Z</time>
  <course>326.19</course>
  <speed>1.19</speed>
  <fix>3d</fix>
</trkpt>
<trkpt lat="40.0713517" lon="-105.2294397">
  <ele>1582.99</ele>
  <time>2026-09-02T20:50:54Z</time>
  <course>326.15</course>
  <speed>1.1898319209031165</speed>
  <fix>3d</fix>
</trkpt>
<trkpt lat="40.0713499" lon="-105.2294379">
  <ele>1582.99</ele>
  <time>2026-09-02T20:50:54Z</time>
  <course>326.19</course>
  <speed>1.19</speed>
  <fix>3d</fix>
</trkpt>
<trkpt lat="40.0713527" lon="-105.2294405">
  <ele>1582.99</ele>
  <time>2026-09-02T20:50:54Z</time>
  <course>326.15</course>
  <speed>1.1898319209031165</speed>
  <fix>3d</fix>
</trkpt>
<trkpt lat="40.0713516" lon="-105.2294395">
  <ele>1582.99</ele>
  <time>2026-09-02T20:50:54Z</time>
  <course>326.2</course>
  <speed>1.19</speed>
  <fix>3d</fix>
</trkpt>
<trkpt lat="40.0713535" lon="-105.229441">
  <ele>1582.99</ele>
  <time>2026-09-02T20:50:54Z</time>
  <course>326.15</course>
  <speed>1.1898319209031165</speed>
  <fix>3d</fix>
</trkpt>
<trkpt lat="40.0713516" lon="-105.2294395">
  <ele>1582.99</ele>
  <time>2026-09-02T20:50:54Z</time>
  <course>326.2</course>
  <speed>1.19</speed>
  <fix>3d</fix>
</trkpt>
<trkpt lat="40.0713544" lon="-105.2294419">
  <ele>1582.99</ele>
  <time>2026-09-02T20:50:54Z</time>
  <course>326.15</course>
  <speed>1.1898319209031165</speed>
  <fix>3d</fix>
</trkpt>
<trkpt lat="40.0713535" lon="-105.2294411">
  <ele>1582.99</ele>
  <time>2026-09-02T20:50:54Z</time>
  <course>326.2</course>
  <speed>1.19</speed>
  <fix>3d</fix>
</trkpt>
<trkpt lat="40.0713553" lon="-105.2294426">
  <ele>1582.99</ele>
  <time>2026-09-02T20:50:54Z</time>
  <course>326.15</course>
  <speed>1.1898319209031165</speed>
  <fix>3d</fix>
</trkpt>
<trkpt lat="40.0713535" lon="-105.2294411">
  <ele>1582.99</ele>
  <time>2026-09-02T20:50:54Z</time>
  <course>326.2</course>
  <speed>1.19</speed>
  <fix>3d</fix>
</trkpt>
<trkpt lat="40.0713561" lon="-105.2294435">
  <ele>1582.99</ele>
  <time>2026-09-02T20:50:54Z</time>
  <course>326.15</course>
  <speed>1.1898319209031165</speed>
  <fix>3d</fix>
</trkpt>
<trkpt lat="40.0713552" lon="-105.2294426">
  <ele>1582.99</ele>
  <time>2026-09-02T20:50:54Z</time>
  <course>326.2</course>
  <speed>1.2</speed>
  <fix>3d</fix>
</trkpt>
<trkpt lat="40.0713571" lon="-105.2294441">
  <ele>1582.99</ele>
  <time>2026-09-02T20:50:54Z</time>
  <course>326.15</course>
  <speed>1.1898319209031165</speed>
  <fix>3d</fix>
</trkpt>
<trkpt lat="40.0713552" lon="-105.2294426">
  <ele>1582.99</ele>
  <time>2026-09-02T20:50:54Z</time>
  <course>326.2</course>
  <speed>1.2</speed>
  <fix>3d</fix>
</trkpt>
<trkpt lat="40.0713578" lon="-105.229445">
  <ele>1582.99</ele>
  <time>2026-09-02T20:50:54Z</time>
  <course>326.15</course>
  <speed>1.1898319209031165</speed>
  <fix>3d</fix>
</trkpt>
<trkpt lat="40.071357" lon="-105.2294442">
  <ele>1582.99</ele>
  <time>2026-09-02T20:50:54Z</time>
  <course>326.2</course>
  <speed>1.2</speed>
  <fix>3d</fix>
</trkpt>
<trkpt lat="40.0713588" lon="-105.2294457">
  <ele>1582.99</ele>
  <time>2026-09-02T20:50:54Z</time>
  <course>326.15</course>
  <speed>1.1898319209031165</speed>
  <fix>3d</fix>
</trkpt>
<trkpt lat="40.071357" lon="-105.2294442">
  <ele>1582.99</ele>
  <time>2026-09-02T20:50:54Z</time>
  <course>326.2</course>
  <speed>1.2</speed>
  <fix>3d</fix>
</trkpt>
<trkpt lat="40.0713596" lon="-105.2294465">
  <ele>1582.99</ele>
  <time>2026-09-02T20:50:54Z</time>
  <course>326.15</course>
  <speed>1.1898319209031165</speed>
  <fix>3d</fix>
</trkpt>
<trkpt lat="40.0713588" lon="-105.2294457">
  <ele>1582.99</ele>
  <time>2026-09-02T20:50:54Z</time>
  <course>326.2</course>
  <speed>1.2</speed>
  <fix>3d</fix>
</trkpt>
<trkpt lat="40.0713606" lon="-105.2294474">
  <ele>1582.99</ele>
  <time>2026-09-02T20:50:54Z</time>
  <course>326.16</course>
  <speed>1.1898319209031165</speed>
  <fix>3d</fix>
</trkpt>
<trkpt lat="40.0713588" lon="-105.2294457">
  <ele>1582.99</ele>
  <time>2026-09-02T20:50:54Z</time>
  <course>326.2</course>
  <speed>1.2</speed>
  <fix>3d</fix>
</trkpt>
<trkpt lat="40.0713614" lon="-105.2294481">
  <ele>1582.99</ele>
  <time>2026-09-02T20:50:54Z</time>
  <course>326.16</course>
  <speed>1.1898319209031165</speed>
  <fix>3d</fix>
</trkpt>
<trkpt lat="40.0713605" lon="-105.2294474">
  <ele>1582.99</ele>
  <time>2026-09-02T20:50:54Z</time>
  <course>326.21</course>
  <speed>1.2</speed>
  <fix>3d</fix>
</trkpt>
<trkpt lat="40.0713626" lon="-105.2294491">
  <ele>1582.99</ele>
  <time>2026-09-02T20:50:54Z</time>
  <course>326.16</course>
  <speed>1.1898319209031165</speed>
  <fix>3d</fix>
</trkpt>
<trkpt lat="40.0713605" lon="-105.2294474">
  <ele>1582.99</ele>
  <time>2026-09-02T20:50:54Z</time>
  <course>326.21</course>
  <speed>1.2</speed>
  <fix>3d</fix>
</trkpt>
<trkpt lat="40.0713634" lon="-105.2294498">
  <ele>1582.99</ele>
  <time>2026-09-02T20:50:54Z</time>
  <course>326.16</course>
  <speed>1.1898319209031165</speed>
  <fix>3d</fix>
</trkpt>
<trkpt lat="40.0713624" lon="-105.2294489">
  <ele>1582.99</ele>
  <time>2026-09-02T20:50:54Z</time>
  <course>326.21</course>
  <speed>1.2</speed>
  <fix>3d</fix>
</trkpt>
<trkpt lat="40.0713644" lon="-105.2294507">
  <ele>1582.99</ele>
  <time>2026-09-02T20:50:54Z</time>
  <course>326.16</course>
  <speed>1.1898319209031165</speed>
  <fix>3d</fix>
</trkpt>
<trkpt lat="40.0713624" lon="-105.2294489">
  <ele>1582.99</ele>
  <time>2026-09-02T20:50:54Z</time>
  <course>326.21</course>
  <speed>1.2</speed>
  <fix>3d</fix>
</trkpt>
<trkpt lat="40.0713652" lon="-105.2294514">
  <ele>1582.99</ele>
  <time>2026-09-02T20:50:54Z</time>
  <course>326.17</course>
  <speed>1.2037026210821342</speed>
  <fix>3d</fix>
</trkpt>
<trkpt lat="40.0713642" lon="-105.2294504">
  <ele>1582.99</ele>
  <time>2026-09-02T20:50:54Z</time>
  <course>326.21</course>
  <speed>1.2</speed>
  <fix>3d</fix>
</trkpt>
<trkpt lat="40.0713662" lon="-105.2294522">
  <ele>1582.99</ele>
  <time>2026-09-02T20:50:54Z</time>
  <course>326.16</course>
  <speed>1.1898319209031165</speed>
  <fix>3d</fix>
</trkpt>
<trkpt lat="40.0713642" lon="-105.2294504">
  <ele>1582.99</ele>
  <time>2026-09-02T20:50:54Z</time>
  <course>326.21</course>
  <speed>1.2</speed>
  <fix>3d</fix>
</trkpt>
<trkpt lat="40.071367" lon="-105.2294529">
  <ele>1582.99</ele>
  <time>2026-09-02T20:50:54Z</time>
  <course>326.17</course>
  <speed>1.2037026210821342</speed>
  <fix>3d</fix>
</trkpt>
<trkpt lat="40.071366" lon="-105.2294521">
  <ele>1582.99</ele>
  <time>2026-09-02T20:50:54Z</time>
  <course>326.22</course>
  <speed>1.2</speed>
  <fix>3d</fix>
</trkpt>
<trkpt lat="40.071368" lon="-105.2294538">
  <ele>1582.99</ele>
  <time>2026-09-02T20:50:54Z</time>
  <course>326.17</course>
  <speed>1.1898319209031165</speed>
  <fix>3d</fix>
</trkpt>
<trkpt lat="40.071366" lon="-105.2294521">
  <ele>1582.99</ele>
  <time>2026-09-02T20:50:54Z</time>
  <course>326.22</course>
  <speed>1.2</speed>
  <fix>3d</fix>
</trkpt>
<trkpt lat="40.0713688" lon="-105.2294546">
  <ele>1582.99</ele>
  <time>2026-09-02T20:50:54Z</time>
  <course>326.18</course>
  <speed>1.1981652640600127</speed>
  <fix>3d</fix>
</trkpt>
<trkpt lat="40.0713678" lon="-105.2294536">
  <ele>1582.99</ele>
  <time>2026-09-02T20:50:54Z</time>
  <course>326.22</course>
  <speed>1.2</speed>
  <fix>3d</fix>
</trkpt>
<trkpt lat="40.0713698" lon="-105.2294553">
  <ele>1582.99</ele>
  <time>2026-09-02T20:50:54Z</time>
  <course>326.17</course>
  <speed>1.1898319209031165</speed>
  <fix>3d</fix>
</trkpt>
<trkpt lat="40.0713678" lon="-105.2294536">
  <ele>1582.99</ele>
  <time>2026-09-02T20:50:54Z</time>
  <course>326.22</course>
  <speed>1.2</speed>
  <fix>3d</fix>
</trkpt>
<trkpt lat="40.0713706" lon="-105.229456">
  <ele>1582.99</ele>
  <time>2026-09-02T20:50:54Z</time>
  <course>326.18</course>
  <speed>1.1981652640600127</speed>
  <fix>3d</fix>
</trkpt>
<trkpt lat="40.0713696" lon="-105.2294551">
  <ele>1582.99</ele>
  <time>2026-09-02T20:50:54Z</time>
  <course>326.23</course>
  <speed>1.2</speed>
  <fix>3d</fix>
</trkpt>
<trkpt lat="40.0713716" lon="-105.2294568">
  <ele>1582.99</ele>
  <time>2026-09-02T20:50:54Z</time>
  <course>326.18</course>
  <speed>1.1898319209031165</speed>
  <fix>3d</fix>
</trkpt>
<trkpt lat="40.0713696" lon="-105.2294551">
  <ele>1582.99</ele>
  <time>2026-09-02T20:50:54Z</time>
  <course>326.23</course>
  <speed>1.2</speed>
  <fix>3d</fix>
</trkpt>
<trkpt lat="40.0713723" lon="-105.2294575">
  <ele>1582.99</ele>
  <time>2026-09-02T20:50:54Z</time>
  <course>326.18</course>
  <speed>1.1981652640600127</speed>
  <fix>3d</fix>
</trkpt>
<trkpt lat="40.0713714" lon="-105.2294568">
  <ele>1582.99</ele>
  <time>2026-09-02T20:50:54Z</time>
  <course>326.23</course>
  <speed>1.2</speed>
  <fix>3d</fix>
</trkpt>
<trkpt lat="40.0713731" lon="-105.2294582">
  <ele>1582.99</ele>
  <time>2026-09-02T20:50:54Z</time>
  <course>326.18</course>
  <speed>1.1898319209031165</speed>
  <fix>3d</fix>
</trkpt>
<trkpt lat="40.0713714" lon="-105.2294568">
  <ele>1582.99</ele>
  <time>2026-09-02T20:50:54Z</time>
  <course>326.23</course>
  <speed>1.2</speed>
  <fix>3d</fix>
</trkpt>
<trkpt lat="40.0713741" lon="-105.2294591">
  <ele>1582.99</ele>
  <time>2026-09-02T20:50:54Z</time>
  <course>326.18</course>
  <speed>1.1981652640600127</speed>
  <fix>3d</fix>
</trkpt>
<trkpt lat="40.0713731" lon="-105.2294583">
  <ele>1582.99</ele>
  <time>2026-09-02T20:50:54Z</time>
  <course>326.23</course>
  <speed>1.2</speed>
  <fix>3d</fix>
</trkpt>
<trkpt lat="40.0713749" lon="-105.2294599">
  <ele>1582.99</ele>
  <time>2026-09-02T20:50:54Z</time>
  <course>326.18</course>
  <speed>1.1898319209031165</speed>
  <fix>3d</fix>
</trkpt>
<trkpt lat="40.0713731" lon="-105.2294583">
  <ele>1582.99</ele>
  <time>2026-09-02T20:50:54Z</time>
  <course>326.23</course>
  <speed>1.2</speed>
  <fix>3d</fix>
</trkpt>
<trkpt lat="40.0713759" lon="-105.2294606">
  <ele>1582.99</ele>
  <time>2026-09-02T20:50:54Z</time>
  <course>326.19</course>
  <speed>1.1898319209031165</speed>
  <fix>3d</fix>
</trkpt>
<trkpt lat="40.071375" lon="-105.2294599">
  <ele>1582.99</ele>
  <time>2026-09-02T20:50:54Z</time>
  <course>326.23</course>
  <speed>1.2</speed>
  <fix>3d</fix>
</trkpt>
<trkpt lat="40.0713767" lon="-105.2294615">
  <ele>1582.99</ele>
  <time>2026-09-02T20:50:54Z</time>
  <course>326.19</course>
  <speed>1.1898319209031165</speed>
  <fix>3d</fix>
</trkpt>
<trkpt lat="40.071375" lon="-105.2294599">
  <ele>1582.99</ele>
  <time>2026-09-02T20:50:54Z</time>
  <course>326.23</course>
  <speed>1.2</speed>
  <fix>3d</fix>
</trkpt>
<trkpt lat="40.0713777" lon="-105.2294623">
  <ele>1582.99</ele>
  <time>2026-09-02T20:50:54Z</time>
  <course>326.19</course>
  <speed>1.1898319209031165</speed>
  <fix>3d</fix>
</trkpt>
<trkpt lat="40.0713767" lon="-105.2294614">
  <ele>1582.99</ele>
  <time>2026-09-02T20:50:54Z</time>
  <course>326.24</course>
  <speed>1.19</speed>
  <fix>3d</fix>
</trkpt>
<trkpt lat="40.0713785" lon="-105.229463">
  <ele>1582.99</ele>
  <time>2026-09-02T20:50:54Z</time>
  <course>326.19</course>
  <speed>1.1981652640600127</speed>
  <fix>3d</fix>
</trkpt>
<trkpt lat="40.0713767" lon="-105.2294614">
  <ele>1582.99</ele>
  <time>2026-09-02T20:50:54Z</time>
  <course>326.24</course>
  <speed>1.19</speed>
  <fix>3d</fix>
</trkpt>
<trkpt lat="40.0713795" lon="-105.2294637">
  <ele>1582.99</ele>
  <time>2026-09-02T20:50:54Z</time>
  <course>326.19</course>
  <speed>1.1898319209031165</speed>
  <fix>3d</fix>
</trkpt>
<trkpt lat="40.0713786" lon="-105.229463">
  <ele>1582.99</ele>
  <time>2026-09-02T20:50:54Z</time>
  <course>326.24</course>
  <speed>1.19</speed>
  <fix>3d</fix>
</trkpt>
<trkpt lat="40.0713804" lon="-105.2294647">
  <ele>1582.99</ele>
  <time>2026-09-02T20:50:54Z</time>
  <course>326.19</course>
  <speed>1.1981652640600127</speed>
  <fix>3d</fix>
</trkpt>
<trkpt lat="40.0713786" lon="-105.229463">
  <ele>1582.99</ele>
  <time>2026-09-02T20:50:54Z</time>
  <course>326.24</course>
  <speed>1.19</speed>
  <fix>3d</fix>
</trkpt>
<trkpt lat="40.0713814" lon="-105.2294654">
  <ele>1582.99</ele>
  <time>2026-09-02T20:50:54Z</time>
  <course>326.19</course>
  <speed>1.1898319209031165</speed>
  <fix>3d</fix>
</trkpt>
<trkpt lat="40.0713803" lon="-105.2294646">
  <ele>1582.99</ele>
  <time>2026-09-02T20:50:54Z</time>
  <course>326.24</course>
  <speed>1.19</speed>
  <fix>3d</fix>
</trkpt>
<trkpt lat="40.0713822" lon="-105.2294663">
  <ele>1582.99</ele>
  <time>2026-09-02T20:50:54Z</time>
  <course>326.19</course>
  <speed>1.1981652640600127</speed>
  <fix>3d</fix>
</trkpt>
<trkpt lat="40.0713803" lon="-105.2294646">
  <ele>1582.99</ele>
  <time>2026-09-02T20:50:54Z</time>
  <course>326.24</course>
  <speed>1.19</speed>
  <fix>3d</fix>
</trkpt>
<trkpt lat="40.0713832" lon="-105.229467">
  <ele>1582.99</ele>
  <time>2026-09-02T20:50:54Z</time>
  <course>326.19</course>
  <speed>1.1898319209031165</speed>
  <fix>3d</fix>
</trkpt>
<trkpt lat="40.071382" lon="-105.2294661">
  <ele>1582.99</ele>
  <time>2026-09-02T20:50:54Z</time>
  <course>326.24</course>
  <speed>1.19</speed>
  <fix>3d</fix>
</trkpt>
<trkpt lat="40.071384" lon="-105.2294678">
  <ele>1582.99</ele>
  <time>2026-09-02T20:50:54Z</time>
  <course>326.19</course>
  <speed>1.1981652640600127</speed>
  <fix>3d</fix>
</trkpt>
<trkpt lat="40.071382" lon="-105.2294661">
  <ele>1582.99</ele>
  <time>2026-09-02T20:50:54Z</time>
  <course>326.24</course>
  <speed>1.19</speed>
  <fix>3d</fix>
</trkpt>
<trkpt lat="40.071385" lon="-105.2294687">
  <ele>1582.99</ele>
  <time>2026-09-02T20:50:54Z</time>
  <course>326.19</course>
  <speed>1.1898319209031165</speed>
  <fix>3d</fix>
</trkpt>
<trkpt lat="40.0713839" lon="-105.2294676">
  <ele>1582.99</ele>
  <time>2026-09-02T20:50:54Z</time>
  <course>326.24</course>
  <speed>1.19</speed>
  <fix>3d</fix>
</trkpt>
<trkpt lat="40.0713858" lon="-105.2294694">
  <ele>1582.99</ele>
  <time>2026-09-02T20:50:54Z</time>
  <course>326.19</course>
  <speed>1.1981652640600127</speed>
  <fix>3d</fix>
</trkpt>
<trkpt lat="40.0713839" lon="-105.2294676">
  <ele>1582.99</ele>
  <time>2026-09-02T20:50:54Z</time>
  <course>326.24</course>
  <speed>1.19</speed>
  <fix>3d</fix>
</trkpt>
<trkpt lat="40.0713868" lon="-105.2294702">
  <ele>1582.99</ele>
  <time>2026-09-02T20:50:54Z</time>
  <course>326.19</course>
  <speed>1.1898319209031165</speed>
  <fix>3d</fix>
</trkpt>
<trkpt lat="40.0713856" lon="-105.2294693">
  <ele>1582.99</ele>
  <time>2026-09-02T20:50:54Z</time>
  <course>326.24</course>
  <speed>1.19</speed>
  <fix>3d</fix>
</trkpt>
<trkpt lat="40.0713876" lon="-105.2294709">
  <ele>1582.99</ele>
  <time>2026-09-02T20:50:54Z</time>
  <course>326.19</course>
  <speed>1.1981652640600127</speed>
  <fix>3d</fix>
</trkpt>
<trkpt lat="40.0713856" lon="-105.2294693">
  <ele>1582.99</ele>
  <time>2026-09-02T20:50:54Z</time>
  <course>326.24</course>
  <speed>1.19</speed>
  <fix>3d</fix>
</trkpt>
<trkpt lat="40.0713886" lon="-105.2294718">
  <ele>1582.99</ele>
  <time>2026-09-02T20:50:54Z</time>
  <course>326.19</course>
  <speed>1.1898319209031165</speed>
  <fix>3d</fix>
</trkpt>
<trkpt lat="40.0713875" lon="-105.2294709">
  <ele>1582.99</ele>
  <time>2026-09-02T20:50:54Z</time>
  <course>326.24</course>
  <speed>1.2</speed>
  <fix>3d</fix>
</trkpt>
<trkpt lat="40.0713894" lon="-105.2294725">
  <ele>1582.99</ele>
  <time>2026-09-02T20:50:54Z</time>
  <course>326.2</course>
  <speed>1.1898319209031165</speed>
  <fix>3d</fix>
</trkpt>
<trkpt lat="40.0713875" lon="-105.2294709">
  <ele>1582.99</ele>
  <time>2026-09-02T20:50:54Z</time>
  <course>326.24</course>
  <speed>1.2</speed>
  <fix>3d</fix>
</trkpt>
<trkpt lat="40.0713901" lon="-105.2294732">
  <ele>1582.99</ele>
  <time>2026-09-02T20:50:54Z</time>
  <course>326.2</course>
  <speed>1.1981652640600127</speed>
  <fix>3d</fix>
</trkpt>
<trkpt lat="40.0713892" lon="-105.2294724">
  <ele>1582.99</ele>
  <time>2026-09-02T20:50:54Z</time>
  <course>326.24</course>
  <speed>1.2</speed>
  <fix>3d</fix>
</trkpt>
<trkpt lat="40.0713911" lon="-105.229474">
  <ele>1582.99</ele>
  <time>2026-09-02T20:50:54Z</time>
  <course>326.2</course>
  <speed>1.1898319209031165</speed>
  <fix>3d</fix>
</trkpt>
<trkpt lat="40.0713892" lon="-105.2294724">
  <ele>1582.99</ele>
  <time>2026-09-02T20:50:54Z</time>
  <course>326.24</course>
  <speed>1.2</speed>
  <fix>3d</fix>
</trkpt>
<trkpt lat="40.0713919" lon="-105.2294747">
  <ele>1582.99</ele>
  <time>2026-09-02T20:50:54Z</time>
  <course>326.2</course>
  <speed>1.1981652640600127</speed>
  <fix>3d</fix>
</trkpt>
<trkpt lat="40.0713911" lon="-105.229474">
  <ele>1582.99</ele>
  <time>2026-09-02T20:50:54Z</time>
  <course>326.25</course>
  <speed>1.2</speed>
  <fix>3d</fix>
</trkpt>
<trkpt lat="40.0713929" lon="-105.2294756">
  <ele>1582.99</ele>
  <time>2026-09-02T20:50:54Z</time>
  <course>326.2</course>
  <speed>1.1898319209031165</speed>
  <fix>3d</fix>
</trkpt>
<trkpt lat="40.0713911" lon="-105.229474">
  <ele>1582.99</ele>
  <time>2026-09-02T20:50:54Z</time>
  <course>326.25</course>
  <speed>1.2</speed>
  <fix>3d</fix>
</trkpt>
<trkpt lat="40.0713937" lon="-105.2294763">
  <ele>1582.99</ele>
  <time>2026-09-02T20:50:54Z</time>
  <course>326.14</course>
  <speed>1.1898319209031165</speed>
  <fix>3d</fix>
</trkpt>
<trkpt lat="40.0713928" lon="-105.2294755">
  <ele>1582.99</ele>
  <time>2026-09-02T20:50:54Z</time>
  <course>326.22</course>
  <speed>1.2</speed>
  <fix>3d</fix>
</trkpt>
<trkpt lat="40.0713947" lon="-105.2294771">
  <ele>1582.99</ele>
  <time>2026-09-02T20:50:54Z</time>
  <course>325.81</course>
  <speed>1.1871394189394942</speed>
  <fix>3d</fix>
</trkpt>
<trkpt lat="40.0713928" lon="-105.2294755">
  <ele>1582.99</ele>
  <time>2026-09-02T20:50:54Z</time>
  <course>326.22</course>
  <speed>1.2</speed>
  <fix>3d</fix>
</trkpt>
<trkpt lat="40.0713955" lon="-105.2294778">
  <ele>1582.99</ele>
  <time>2026-09-02T20:50:54Z</time>
  <course>325.2</course>
  <speed>1.1928118040998756</speed>
  <fix>3d</fix>
</trkpt>
<trkpt lat="40.0713947" lon="-105.2294771">
  <ele>1582.99</ele>
  <time>2026-09-02T20:50:54Z</time>
  <course>325.71</course>
  <speed>1.2</speed>
  <fix>3d</fix>
</trkpt>
<trkpt lat="40.0713965" lon="-105.2294787">
  <ele>1582.99</ele>
  <time>2026-09-02T20:50:54Z</time>
  <course>324.29</course>
  <speed>1.196202324023825</speed>
  <fix>3d</fix>
</trkpt>
<trkpt lat="40.0713947" lon="-105.2294771">
  <ele>1582.99</ele>
  <time>2026-09-02T20:50:54Z</time>
  <course>325.71</course>
  <speed>1.2</speed>
  <fix>3d</fix>
</trkpt>
<trkpt lat="40.0713973" lon="-105.2294795">
  <ele>1582.99</ele>
  <time>2026-09-02T20:50:54Z</time>
  <course>323.03</course>
  <speed>1.1920151005754918</speed>
  <fix>3d</fix>
</trkpt>
<trkpt lat="40.0713964" lon="-105.2294787">
  <ele>1582.99</ele>
  <time>2026-09-02T20:50:54Z</time>
  <course>324.15</course>
  <speed>1.2</speed>
  <fix>3d</fix>
</trkpt>
<trkpt lat="40.0713982" lon="-105.2294804">
  <ele>1582.99</ele>
  <time>2026-09-02T20:50:54Z</time>
  <course>321.4</course>
  <speed>1.1744360348695029</speed>
  <fix>3d</fix>
</trkpt>
<trkpt lat="40.0713964" lon="-105.2294787">
  <ele>1582.99</ele>
  <time>2026-09-02T20:50:54Z</time>
  <course>324.15</course>
  <speed>1.2</speed>
  <fix>3d</fix>
</trkpt>
<trkpt lat="40.0713991" lon="-105.2294814">
  <ele>1582.99</ele>
  <time>2026-09-02T20:50:54Z</time>
  <course>318.86</course>
  <speed>1.1410959644131602</speed>
  <fix>3d</fix>
</trkpt>
<trkpt lat="40.0713981" lon="-105.2294804">
  <ele>1582.99</ele>
  <time>2026-09-02T20:50:54Z</time>
  <course>321.24</course>
  <speed>1.17</speed>
  <fix>3d</fix>
</trkpt>
<trkpt lat="40.0713998" lon="-105.2294824">
  <ele>1582.99</ele>
  <time>2026-09-02T20:50:54Z</time>
  <course>316.21</course>
  <speed>1.1175866856758807</speed>
  <fix>3d</fix>
</trkpt>
<trkpt lat="40.0713981" lon="-105.2294804">
  <ele>1582.99</ele>
  <time>2026-09-02T20:50:54Z</time>
  <course>321.24</course>
  <speed>1.17</speed>
  <fix>3d</fix>
</trkpt>
<trkpt lat="40.0714005" lon="-105.2294833">
  <ele>1582.99</ele>
  <time>2026-09-02T20:50:54Z</time>
  <course>313.02</course>
  <speed>1.0683164325236227</speed>
  <fix>3d</fix>
</trkpt>
<trkpt lat="40.0713997" lon="-105.2294821">
  <ele>1582.99</ele>
  <time>2026-09-02T20:50:54Z</time>
  <course>316.62</course>
  <speed>1.12</speed>
  <fix>3d</fix>
</trkpt>
<trkpt lat="40.0714011" lon="-105.2294842">
  <ele>1582.99</ele>
  <time>2026-09-02T20:50:54Z</time>
  <course>309.25</course>
  <speed>1.0307764064044151</speed>
  <fix>3d</fix>
</trkpt>
<trkpt lat="40.0713997" lon="-105.2294821">
  <ele>1582.99</ele>
  <time>2026-09-02T20:50:54Z</time>
  <course>316.62</course>
  <speed>1.12</speed>
  <fix>3d</fix>
</trkpt>
<trkpt lat="40.0714017" lon="-105.2294852">
  <ele>1582.99</ele>
  <time>2026-09-02T20:50:54Z</time>
  <course>304.99</course>
  <speed>0.9904544411531506</speed>
  <fix>3d</fix>
</trkpt>
<trkpt lat="40.071401" lon="-105.229484">
  <ele>1582.99</ele>
  <time>2026-09-02T20:50:54Z</time>
  <course>309.92</course>
  <speed>1.04</speed>
  <fix>3d</fix>
</trkpt>
<trkpt lat="40.0714022" lon="-105.229486">
  <ele>1582.99</ele>
  <time>2026-09-02T20:50:54Z</time>
  <course>300.52</course>
  <speed>0.9638464608017192</speed>
  <fix>3d</fix>
</trkpt>
<trkpt lat="40.071401" lon="-105.229484">
  <ele>1582.99</ele>
  <time>2026-09-02T20:50:54Z</time>
  <course>309.92</course>
  <speed>1.04</speed>
  <fix>3d</fix>
</trkpt>
<trkpt lat="40.0714026" lon="-105.2294871">
  <ele>1582.99</ele>
  <time>2026-09-02T20:50:54Z</time>
  <course>296.0</course>
  <speed>0.952732911156112</speed>
  <fix>3d</fix>
</trkpt>
<trkpt lat="40.0714021" lon="-105.2294859">
  <ele>1582.99</ele>
  <time>2026-09-02T20:50:54Z</time>
  <course>301.41</course>
  <speed>0.97</speed>
  <fix>3d</fix>
</trkpt>
<trkpt lat="40.0714029" lon="-105.2294881">
  <ele>1582.99</ele>
  <time>2026-09-02T20:50:54Z</time>
  <course>291.74</course>
  <speed>0.9470480452437458</speed>
  <fix>3d</fix>
</trkpt>
<trkpt lat="40.0714021" lon="-105.2294859">
  <ele>1582.99</ele>
  <time>2026-09-02T20:50:54Z</time>
  <course>301.41</course>
  <speed>0.97</speed>
  <fix>3d</fix>
</trkpt>
<trkpt lat="40.0714033" lon="-105.2294891">
  <ele>1583.0</ele>
  <time>2026-09-02T20:50:54Z</time>
  <course>287.79</course>
  <speed>0.9741663102366043</speed>
  <fix>3d</fix>
</trkpt>
<trkpt lat="40.0714028" lon="-105.2294879">
  <ele>1582.99</ele>
  <time>2026-09-02T20:50:54Z</time>
  <course>292.6</course>
  <speed>0.96</speed>
  <fix>3d</fix>
</trkpt>
<trkpt lat="40.0714034" lon="-105.2294903">
  <ele>1582.99</ele>
  <time>2026-09-02T20:50:54Z</time>
  <course>284.18</course>
  <speed>0.9992497185388645</speed>
  <fix>3d</fix>
</trkpt>
<trkpt lat="40.0714028" lon="-105.2294879">
  <ele>1582.99</ele>
  <time>2026-09-02T20:50:54Z</time>
  <course>292.6</course>
  <speed>0.96</speed>
  <fix>3d</fix>
</trkpt>
<trkpt lat="40.0714037" lon="-105.2294915">
  <ele>1582.99</ele>
  <time>2026-09-02T20:50:54Z</time>
  <course>280.92</course>
  <speed>1.0473776778220931</speed>
  <fix>3d</fix>
</trkpt>
<trkpt lat="40.0714034" lon="-105.2294901">
  <ele>1582.99</ele>
  <time>2026-09-02T20:50:54Z</time>
  <course>284.84</course>
  <speed>1.01</speed>
  <fix>3d</fix>
</trkpt>
<trkpt lat="40.0714039" lon="-105.2294924">
  <ele>1582.99</ele>
  <time>2026-09-02T20:50:54Z</time>
  <course>278.53</course>
  <speed>1.0917875251164946</speed>
  <fix>3d</fix>
</trkpt>
<trkpt lat="40.0714034" lon="-105.2294901">
  <ele>1582.99</ele>
  <time>2026-09-02T20:50:54Z</time>
  <course>284.84</course>
  <speed>1.01</speed>
  <fix>3d</fix>
</trkpt>
<trkpt lat="40.071404" lon="-105.2294939">
  <ele>1582.99</ele>
  <time>2026-09-02T20:50:54Z</time>
  <course>275.89</course>
  <speed>1.155248890932166</speed>
  <fix>3d</fix>
</trkpt>
<trkpt lat="40.0714038" lon="-105.2294925">
  <ele>1582.99</ele>
  <time>2026-09-02T20:50:54Z</time>
  <course>278.5</course>
  <speed>1.1</speed>
  <fix>3d</fix>
</trkpt>
<trkpt lat="40.071404" lon="-105.2294952">
  <ele>1582.99</ele>
  <time>2026-09-02T20:50:54Z</time>
  <course>273.57</course>
  <speed>1.192057045614848</speed>
  <fix>3d</fix>
</trkpt>
<trkpt lat="40.0714038" lon="-105.2294925">
  <ele>1582.99</ele>
  <time>2026-09-02T20:50:54Z</time>
  <course>278.5</course>
  <speed>1.1</speed>
  <fix>3d</fix>
</trkpt>
<trkpt lat="40.071404" lon="-105.2294967">
  <ele>1582.99</ele>
  <time>2026-09-02T20:50:54Z</time>
  <course>271.6</course>
  <speed>1.2303657992645927</speed>
  <fix>3d</fix>
</trkpt>
<trkpt lat="40.071404" lon="-105.2294953">
  <ele>1582.99</ele>
  <time>2026-09-02T20:50:54Z</time>
  <course>273.6</course>
  <speed>1.19</speed>
  <fix>3d</fix>
</trkpt>
<trkpt lat="40.071404" lon="-105.2294982">
  <ele>1582.99</ele>
  <time>2026-09-02T20:50:54Z</time>
  <course>269.96</course>
  <speed>1.25</speed>
  <fix>3d</fix>
</trkpt>
<trkpt lat="40.071404" lon="-105.2294953">
  <ele>1582.99</ele>
  <time>2026-09-02T20:50:54Z</time>
  <course>273.6</course>
  <speed>1.19</speed>
  <fix>3d</fix>
</trkpt>
<trkpt lat="40.071404" lon="-105.2294996">
  <ele>1582.99</ele>
  <time>2026-09-02T20:50:54Z</time>
  <course>268.65</course>
  <speed>1.2703542812932147</speed>
  <fix>3d</fix>
</trkpt>
<trkpt lat="40.071404" lon="-105.2294981">
  <ele>1582.99</ele>
  <time>2026-09-02T20:50:54Z</time>
  <course>270.03</course>
  <speed>1.25</speed>
  <fix>3d</fix>
</trkpt>
<trkpt lat="40.071404" lon="-105.229501">
  <ele>1583.0</ele>
  <time>2026-09-02T20:50:54Z</time>
  <course>267.49</course>
  <speed>1.2709838708654018</speed>
  <fix>3d</fix>
</trkpt>
<trkpt lat="40.071404" lon="-105.2294981">
  <ele>1582.99</ele>
  <time>2026-09-02T20:50:54Z</time>
  <course>270.03</course>
  <speed>1.25</speed>
  <fix>3d</fix>
</trkpt>
<trkpt lat="40.071404" lon="-105.2295025">
  <ele>1583.0</ele>
  <time>2026-09-02T20:50:54Z</time>
  <course>266.39</course>
  <speed>1.27251719045363</speed>
  <fix>3d</fix>
</trkpt>
<trkpt lat="40.071404" lon="-105.229501">
  <ele>1582.99</ele>
  <time>2026-09-02T20:50:54Z</time>
  <course>267.45</course>
  <speed>1.27</speed>
  <fix>3d</fix>
</trkpt>
<trkpt lat="40.0714039" lon="-105.2295041">
  <ele>1583.0</ele>
  <time>2026-09-02T20:50:54Z</time>
  <course>265.36</course>
  <speed>1.2639620247459968</speed>
  <fix>3d</fix>
</trkpt>
<trkpt lat="40.071404" lon="-105.229501">
  <ele>1582.99</ele>
  <time>2026-09-02T20:50:54Z</time>
  <course>267.45</course>
  <speed>1.27</speed>
  <fix>3d</fix>
</trkpt>
<trkpt lat="40.0714039" lon="-105.2295056">
  <ele>1582.99</ele>
  <time>2026-09-02T20:50:54Z</time>
  <course>264.4</course>
  <speed>1.2557467897629682</speed>
  <fix>3d</fix>
</trkpt>
<trkpt lat="40.0714039" lon="-105.229504">
  <ele>1582.99</ele>
  <time>2026-09-02T20:50:54Z</time>
  <course>265.33</course>
  <speed>1.27</speed>
  <fix>3d</fix>
</trkpt>
<trkpt lat="40.0714038" lon="-105.2295073">
  <ele>1582.99</ele>
  <time>2026-09-02T20:50:54Z</time>
  <course>263.34</course>
  <speed>1.2379418403139946</speed>
  <fix>3d</fix>
</trkpt>
<trkpt lat="40.0714039" lon="-105.229504">
  <ele>1582.99</ele>
  <time>2026-09-02T20:50:54Z</time>
  <course>265.33</course>
  <speed>1.27</speed>
  <fix>3d</fix>
</trkpt>
<trkpt lat="40.0714035" lon="-105.2295087">
  <ele>1582.99</ele>
  <time>2026-09-02T20:50:54Z</time>
  <course>262.52</course>
  <speed>1.2304470732217618</speed>
  <fix>3d</fix>
</trkpt>
<trkpt lat="40.0714038" lon="-105.229507">
  <ele>1582.99</ele>
  <time>2026-09-02T20:50:54Z</time>
  <course>263.48</course>
  <speed>1.24</speed>
  <fix>3d</fix>
</trkpt>
<trkpt lat="40.0714034" lon="-105.2295101">
  <ele>1582.99</ele>
  <time>2026-09-02T20:50:54Z</time>
  <course>261.78</course>
  <speed>1.2119818480488889</speed>
  <fix>3d</fix>
</trkpt>
<trkpt lat="40.0714038" lon="-105.229507">
  <ele>1582.99</ele>
  <time>2026-09-02T20:50:54Z</time>
  <course>263.48</course>
  <speed>1.24</speed>
  <fix>3d</fix>
</trkpt>
<trkpt lat="40.0714033" lon="-105.2295116">
  <ele>1582.99</ele>
  <time>2026-09-02T20:50:54Z</time>
  <course>261.1</course>
  <speed>1.2035364556173611</speed>
  <fix>3d</fix>
</trkpt>
<trkpt lat="40.0714035" lon="-105.2295099">
  <ele>1582.99</ele>
  <time>2026-09-02T20:50:54Z</time>
  <course>261.88</course>
  <speed>1.22</speed>
  <fix>3d</fix>
</trkpt>
<trkpt lat="40.0714031" lon="-105.229513">
  <ele>1582.99</ele>
  <time>2026-09-02T20:50:54Z</time>
  <course>260.46</course>
  <speed>1.1968291440301746</speed>
  <fix>3d</fix>
</trkpt>
<trkpt lat="40.0714035" lon="-105.2295099">
  <ele>1582.99</ele>
  <time>2026-09-02T20:50:54Z</time>
  <course>261.88</course>
  <speed>1.22</speed>
  <fix>3d</fix>
</trkpt>
<trkpt lat="40.0714029" lon="-105.2295144">
  <ele>1582.99</ele>
  <time>2026-09-02T20:50:54Z</time>
  <course>259.89</course>
  <speed>1.1886967653695368</speed>
  <fix>3d</fix>
</trkpt>
<trkpt lat="40.0714032" lon="-105.2295128">
  <ele>1582.99</ele>
  <time>2026-09-02T20:50:54Z</time>
  <course>260.53</course>
  <speed>1.2</speed>
  <fix>3d</fix>
</trkpt>
<trkpt lat="40.0714028" lon="-105.2295158">
  <ele>1582.99</ele>
  <time>2026-09-02T20:50:54Z</time>
  <course>259.37</course>
  <speed>1.1806777714516352</speed>
  <fix>3d</fix>
</trkpt>
<trkpt lat="40.0714032" lon="-105.2295128">
  <ele>1582.99</ele>
  <time>2026-09-02T20:50:54Z</time>
  <course>260.53</course>
  <speed>1.2</speed>
  <fix>3d</fix>
</trkpt>
<trkpt lat="40.0714026" lon="-105.2295171">
  <ele>1582.99</ele>
  <time>2026-09-02T20:50:54Z</time>
  <course>258.9</course>
  <speed>1.1806777714516352</speed>
  <fix>3d</fix>
</trkpt>
<trkpt lat="40.0714028" lon="-105.2295155">
  <ele>1582.99</ele>
  <time>2026-09-02T20:50:54Z</time>
  <course>259.4</course>
  <speed>1.18</speed>
  <fix>3d</fix>
</trkpt>
<trkpt lat="40.0714023" lon="-105.2295185">
  <ele>1582.99</ele>
  <time>2026-09-02T20:50:54Z</time>
  <course>258.48</course>
  <speed>1.1727744881263404</speed>
  <fix>3d</fix>
</trkpt>
<trkpt lat="40.0714028" lon="-105.2295155">
  <ele>1582.99</ele>
  <time>2026-09-02T20:50:54Z</time>
  <course>259.4</course>
  <speed>1.18</speed>
  <fix>3d</fix>
</trkpt>
<trkpt lat="40.0714021" lon="-105.2295199">
  <ele>1582.99</ele>
  <time>2026-09-02T20:50:54Z</time>
  <course>258.11</course>
  <speed>1.1747765745025733</speed>
  <fix>3d</fix>
</trkpt>
<trkpt lat="40.0714023" lon="-105.2295182">
  <ele>1582.99</ele>
  <time>2026-09-02T20:50:54Z</time>
  <course>258.49</course>
  <speed>1.18</speed>
  <fix>3d</fix>
</trkpt>
<trkpt lat="40.0714019" lon="-105.2295211">
  <ele>1583.0</ele>
  <time>2026-09-02T20:50:54Z</time>
  <course>257.77</course>
  <speed>1.176860229593982</speed>
  <fix>3d</fix>
</trkpt>
<trkpt lat="40.0714023" lon="-105.2295182">
  <ele>1582.99</ele>
  <time>2026-09-02T20:50:54Z</time>
  <course>258.49</course>
  <speed>1.18</speed>
  <fix>3d</fix>
</trkpt>
<trkpt lat="40.0714016" lon="-105.2295223">
  <ele>1583.0</ele>
  <time>2026-09-02T20:50:54Z</time>
  <course>257.54</course>
  <speed>1.176860229593982</speed>
  <fix>3d</fix>
</trkpt>
<trkpt lat="40.0714019" lon="-105.2295209">
  <ele>1582.99</ele>
  <time>2026-09-02T20:50:54Z</time>
  <course>257.77</course>
  <speed>1.18</speed>
  <fix>3d</fix>
</trkpt>
<trkpt lat="40.0714015" lon="-105.2295237">
  <ele>1582.99</ele>
  <time>2026-09-02T20:50:54Z</time>
  <course>257.29</course>
  <speed>1.1790250209389113</speed>
  <fix>3d</fix>
</trkpt>
<trkpt lat="40.0714019" lon="-105.2295209">
  <ele>1582.99</ele>
  <time>2026-09-02T20:50:54Z</time>
  <course>257.77</course>
  <speed>1.18</speed>
  <fix>3d</fix>
</trkpt>
<trkpt lat="40.0714013" lon="-105.229525">
  <ele>1582.99</ele>
  <time>2026-09-02T20:50:54Z</time>
  <course>257.07</course>
  <speed>1.1790250209389113</speed>
  <fix>3d</fix>
</trkpt>
<trkpt lat="40.0714014" lon="-105.2295236">
  <ele>1582.99</ele>
  <time>2026-09-02T20:50:54Z</time>
  <course>257.21</course>
  <speed>1.18</speed>
  <fix>3d</fix>
</trkpt>
<trkpt lat="40.071401" lon="-105.2295264">
  <ele>1582.99</ele>
  <time>2026-09-02T20:50:54Z</time>
  <course>256.89</course>
  <speed>1.1812705024675763</speed>
  <fix>3d</fix>
</trkpt>
<trkpt lat="40.0714014" lon="-105.2295236">
  <ele>1582.99</ele>
  <time>2026-09-02T20:50:54Z</time>
  <course>257.21</course>
  <speed>1.18</speed>
  <fix>3d</fix>
</trkpt>
<trkpt lat="40.0714008" lon="-105.2295276">
  <ele>1582.99</ele>
  <time>2026-09-02T20:50:54Z</time>
  <course>256.74</course>
  <speed>1.1812705024675763</speed>
  <fix>3d</fix>
</trkpt>
<trkpt lat="40.071401" lon="-105.2295263">
  <ele>1582.99</ele>
  <time>2026-09-02T20:50:54Z</time>
  <course>256.82</course>
  <speed>1.18</speed>
  <fix>3d</fix>
</trkpt>
<trkpt lat="40.0714004" lon="-105.229529">
  <ele>1582.99</ele>
  <time>2026-09-02T20:50:54Z</time>
  <course>256.63</course>
  <speed>1.1812705024675763</speed>
  <fix>3d</fix>
</trkpt>
<trkpt lat="40.071401" lon="-105.2295263">
  <ele>1582.99</ele>
  <time>2026-09-02T20:50:54Z</time>
  <course>256.82</course>
  <speed>1.18</speed>
  <fix>3d</fix>
</trkpt>
<trkpt lat="40.0714003" lon="-105.2295305">
  <ele>1582.99</ele>
  <time>2026-09-02T20:50:54Z</time>
  <course>256.55</course>
  <speed>1.1812705024675763</speed>
  <fix>3d</fix>
</trkpt>
<trkpt lat="40.0714005" lon="-105.229529">
  <ele>1582.99</ele>
  <time>2026-09-02T20:50:54Z</time>
  <course>256.56</course>
  <speed>1.19</speed>
  <fix>3d</fix>
</trkpt>
<trkpt lat="40.0714" lon="-105.2295317">
  <ele>1582.99</ele>
  <time>2026-09-02T20:50:54Z</time>
  <course>256.49</course>
  <speed>1.1835962149314267</speed>
  <fix>3d</fix>
</trkpt>
<trkpt lat="40.0714005" lon="-105.229529">
  <ele>1582.99</ele>
  <time>2026-09-02T20:50:54Z</time>
  <course>256.56</course>
  <speed>1.19</speed>
  <fix>3d</fix>
</trkpt>
<trkpt lat="40.0713997" lon="-105.2295331">
  <ele>1582.99</ele>
  <time>2026-09-02T20:50:54Z</time>
  <course>256.46</course>
  <speed>1.1933147112141038</speed>
  <fix>3d</fix>
</trkpt>
<trkpt lat="40.0714" lon="-105.2295318">
  <ele>1582.99</ele>
  <time>2026-09-02T20:50:54Z</time>
  <course>256.42</course>
  <speed>1.19</speed>
  <fix>3d</fix>
</trkpt>
<trkpt lat="40.0713995" lon="-105.2295345">
  <ele>1582.99</ele>
  <time>2026-09-02T20:50:54Z</time>
  <course>256.46</course>
  <speed>1.1835962149314267</speed>
  <fix>3d</fix>
</trkpt>
<trkpt lat="40.0714" lon="-105.2295318">
  <ele>1582.99</ele>
  <time>2026-09-02T20:50:54Z</time>
  <course>256.42</course>
  <speed>1.19</speed>
  <fix>3d</fix>
</trkpt>
<trkpt lat="40.0713991" lon="-105.2295362">
  <ele>1582.99</ele>
  <time>2026-09-02T20:50:54Z</time>
  <course>256.48</course>
  <speed>1.1933147112141038</speed>
  <fix>3d</fix>
</trkpt>
<trkpt lat="40.0713995" lon="-105.2295345">
  <ele>1582.99</ele>
  <time>2026-09-02T20:50:54Z</time>
  <course>256.38</course>
  <speed>1.19</speed>
  <fix>3d</fix>
</trkpt>
<trkpt lat="40.071399" lon="-105.2295374">
  <ele>1582.99</ele>
  <time>2026-09-02T20:50:54Z</time>
  <course>256.53</course>
  <speed>1.1812705024675763</speed>
  <fix>3d</fix>
</trkpt>
<trkpt lat="40.0713995" lon="-105.2295345">
  <ele>1582.99</ele>
  <time>2026-09-02T20:50:54Z</time>
  <course>256.38</course>
  <speed>1.19</speed>
  <fix>3d</fix>
</trkpt>
<trkpt lat="40.0713986" lon="-105.2295389">
  <ele>1582.99</ele>
  <time>2026-09-02T20:50:54Z</time>
  <course>256.59</course>
  <speed>1.1933147112141038</speed>
  <fix>3d</fix>
</trkpt>
<trkpt lat="40.071399" lon="-105.2295372">
  <ele>1582.99</ele>
  <time>2026-09-02T20:50:54Z</time>
  <course>256.44</course>
  <speed>1.19</speed>
  <fix>3d</fix>
</trkpt>
<trkpt lat="40.0713985" lon="-105.2295403">
  <ele>1582.99</ele>
  <time>2026-09-02T20:50:54Z</time>
  <course>256.67</course>
  <speed>1.1812705024675763</speed>
  <fix>3d</fix>
</trkpt>
<trkpt lat="40.071399" lon="-105.2295372">
  <ele>1582.99</ele>
  <time>2026-09-02T20:50:54Z</time>
  <course>256.44</course>
  <speed>1.19</speed>
  <fix>3d</fix>
</trkpt>
<trkpt lat="40.0713982" lon="-105.2295415">
  <ele>1582.99</ele>
  <time>2026-09-02T20:50:54Z</time>
  <course>256.76</course>
  <speed>1.1910079764636339</speed>
  <fix>3d</fix>
</trkpt>
<trkpt lat="40.0713985" lon="-105.22954">
  <ele>1582.99</ele>
  <time>2026-09-02T20:50:54Z</time>
  <course>256.57</course>
  <speed>1.19</speed>
  <fix>3d</fix>
</trkpt>
<trkpt lat="40.0713979" lon="-105.2295429">
  <ele>1582.99</ele>
  <time>2026-09-02T20:50:54Z</time>
  <course>256.87</course>
  <speed>1.1910079764636339</speed>
  <fix>3d</fix>
</trkpt>
<trkpt lat="40.0713985" lon="-105.22954">
  <ele>1582.99</ele>
  <time>2026-09-02T20:50:54Z</time>
  <course>256.57</course>
  <speed>1.19</speed>
  <fix>3d</fix>
</trkpt>
<trkpt lat="40.0713977" lon="-105.2295444">
  <ele>1582.99</ele>
  <time>2026-09-02T20:50:54Z</time>
  <course>256.99</course>
  <speed>1.1910079764636339</speed>
  <fix>3d</fix>
</trkpt>
<trkpt lat="40.071398" lon="-105.2295427">
  <ele>1582.99</ele>
  <time>2026-09-02T20:50:54Z</time>
  <course>256.76</course>
  <speed>1.19</speed>
  <fix>3d</fix>
</trkpt>
<trkpt lat="40.0713974" lon="-105.2295456">
  <ele>1582.99</ele>
  <time>2026-09-02T20:50:54Z</time>
  <course>257.13</course>
  <speed>1.1790250209389113</speed>
  <fix>3d</fix>
</trkpt>
<trkpt lat="40.071398" lon="-105.2295427">
  <ele>1582.99</ele>
  <time>2026-09-02T20:50:54Z</time>
  <course>256.76</course>
  <speed>1.19</speed>
  <fix>3d</fix>
</trkpt>
<trkpt lat="40.0713972" lon="-105.229547">
  <ele>1582.99</ele>
  <time>2026-09-02T20:50:54Z</time>
  <course>257.27</course>
  <speed>1.1887808881370865</speed>
  <fix>3d</fix>
</trkpt>
<trkpt lat="40.0713975" lon="-105.2295454">
  <ele>1582.99</ele>
  <time>2026-09-02T20:50:54Z</time>
  <course>257.02</course>
  <speed>1.19</speed>
  <fix>3d</fix>
</trkpt>
<trkpt lat="40.071397" lon="-105.2295484">
  <ele>1582.99</ele>
  <time>2026-09-02T20:50:54Z</time>
  <course>257.43</course>
  <speed>1.1887808881370865</speed>
  <fix>3d</fix>
</trkpt>
<trkpt lat="40.0713975" lon="-105.2295454">
  <ele>1582.99</ele>
  <time>2026-09-02T20:50:54Z</time>
  <course>257.02</course>
  <speed>1.19</speed>
  <fix>3d</fix>
</trkpt>
<trkpt lat="40.0713967" lon="-105.2295498">
  <ele>1582.99</ele>
  <time>2026-09-02T20:50:54Z</time>
  <course>257.59</course>
  <speed>1.1866338946785566</speed>
  <fix>3d</fix>
</trkpt>
<trkpt lat="40.071397" lon="-105.2295482">
  <ele>1582.99</ele>
  <time>2026-09-02T20:50:54Z</time>
  <course>257.31</course>
  <speed>1.19</speed>
  <fix>3d</fix>
</trkpt>
<trkpt lat="40.0713966" lon="-105.2295508">
  <ele>1582.99</ele>
  <time>2026-09-02T20:50:54Z</time>
  <course>257.73</course>
  <speed>1.1866338946785566</speed>
  <fix>3d</fix>
</trkpt>
<trkpt lat="40.071397" lon="-105.2295482">
  <ele>1582.99</ele>
  <time>2026-09-02T20:50:54Z</time>
  <course>257.31</course>
  <speed>1.19</speed>
  <fix>3d</fix>
</trkpt>
<trkpt lat="40.0713964" lon="-105.2295523">
  <ele>1582.99</ele>
  <time>2026-09-02T20:50:54Z</time>
  <course>257.9</course>
  <speed>1.1866338946785566</speed>
  <fix>3d</fix>
</trkpt>
<trkpt lat="40.0713966" lon="-105.2295509">
  <ele>1582.99</ele>
  <time>2026-09-02T20:50:54Z</time>
  <course>257.64</course>
  <speed>1.19</speed>
  <fix>3d</fix>
</trkpt>
<trkpt lat="40.0713961" lon="-105.2295537">
  <ele>1582.99</ele>
  <time>2026-09-02T20:50:54Z</time>
  <course>258.08</course>
  <speed>1.1943617542436629</speed>
  <fix>3d</fix>
</trkpt>
<trkpt lat="40.0713966" lon="-105.2295509">
  <ele>1582.99</ele>
  <time>2026-09-02T20:50:54Z</time>
  <course>257.64</course>
  <speed>1.19</speed>
  <fix>3d</fix>
</trkpt>
<trkpt lat="40.0713959" lon="-105.2295549">
  <ele>1582.99</ele>
  <time>2026-09-02T20:50:55Z</time>
  <course>258.27</course>
  <speed>1.1845674315968677</speed>
  <fix>3d</fix>
</trkpt>
<trkpt lat="40.0713961" lon="-105.2295536">
  <ele>1582.99</ele>
  <time>2026-09-02T20:50:55Z</time>
  <course>257.99</course>
  <speed>1.19</speed>
  <fix>3d</fix>
</trkpt>
<trkpt lat="40.0713956" lon="-105.2295563">
  <ele>1582.99</ele>
  <time>2026-09-02T20:50:55Z</time>
  <course>258.45</course>
  <speed>1.1943617542436629</speed>
  <fix>3d</fix>
</trkpt>
<trkpt lat="40.0713961" lon="-105.2295536">
  <ele>1582.99</ele>
  <time>2026-09-02T20:50:55Z</time>
  <course>257.99</course>
  <speed>1.19</speed>
  <fix>3d</fix>
</trkpt>
<trkpt lat="40.0713955" lon="-105.2295578">
  <ele>1582.99</ele>
  <time>2026-09-02T20:50:55Z</time>
  <course>258.65</course>
  <speed>1.1825819210524064</speed>
  <fix>3d</fix>
</trkpt>
<trkpt lat="40.0713956" lon="-105.2295563">
  <ele>1582.99</ele>
  <time>2026-09-02T20:50:55Z</time>
  <course>258.37</course>
  <speed>1.19</speed>
  <fix>3d</fix>
</trkpt>
<trkpt lat="40.0713953" lon="-105.2295592">
  <ele>1582.99</ele>
  <time>2026-09-02T20:50:55Z</time>
  <course>258.84</course>
  <speed>1.1923925528113635</speed>
  <fix>3d</fix>
</trkpt>
<trkpt lat="40.0713956" lon="-105.2295563">
  <ele>1582.99</ele>
  <time>2026-09-02T20:50:55Z</time>
  <course>258.37</course>
  <speed>1.19</speed>
  <fix>3d</fix>
</trkpt>
<trkpt lat="40.071395" lon="-105.2295604">
  <ele>1582.99</ele>
  <time>2026-09-02T20:50:55Z</time>
  <course>259.04</course>
  <speed>1.190504094911059</speed>
  <fix>3d</fix>
</trkpt>
<trkpt lat="40.0713953" lon="-105.2295591">
  <ele>1582.99</ele>
  <time>2026-09-02T20:50:55Z</time>
  <course>258.75</course>
  <speed>1.19</speed>
  <fix>3d</fix>
</trkpt>
<trkpt lat="40.0713949" lon="-105.2295618">
  <ele>1582.99</ele>
  <time>2026-09-02T20:50:55Z</time>
  <course>259.23</course>
  <speed>1.190504094911059</speed>
  <fix>3d</fix>
</trkpt>
<trkpt lat="40.0713953" lon="-105.2295591">
  <ele>1582.99</ele>
  <time>2026-09-02T20:50:55Z</time>
  <course>258.75</course>
  <speed>1.19</speed>
  <fix>3d</fix>
</trkpt>
<trkpt lat="40.0713947" lon="-105.2295633">
  <ele>1582.99</ele>
  <time>2026-09-02T20:50:55Z</time>
  <course>259.42</course>
  <speed>1.190504094911059</speed>
  <fix>3d</fix>
</trkpt>
<trkpt lat="40.0713949" lon="-105.2295618">
  <ele>1582.99</ele>
  <time>2026-09-02T20:50:55Z</time>
  <course>259.14</course>
  <speed>1.19</speed>
  <fix>3d</fix>
</trkpt>
<trkpt lat="40.0713943" lon="-105.2295649">
  <ele>1582.99</ele>
  <time>2026-09-02T20:50:55Z</time>
  <course>259.65</course>
  <speed>1.1886967653695368</speed>
  <fix>3d</fix>
</trkpt>
<trkpt lat="40.0713949" lon="-105.2295618">
  <ele>1582.99</ele>
  <time>2026-09-02T20:50:55Z</time>
  <course>259.14</course>
  <speed>1.19</speed>
  <fix>3d</fix>
</trkpt>
<trkpt lat="40.0713942" lon="-105.2295663">
  <ele>1582.99</ele>
  <time>2026-09-02T20:50:55Z</time>
  <course>259.85</course>
  <speed>1.1985407794480754</speed>
  <fix>3d</fix>
</trkpt>
<trkpt lat="40.0713944" lon="-105.2295646">
  <ele>1582.99</ele>
  <time>2026-09-02T20:50:55Z</time>
  <course>259.53</course>
  <speed>1.19</speed>
  <fix>3d</fix>
</trkpt>
<trkpt lat="40.071394" lon="-105.2295676">
  <ele>1582.99</ele>
  <time>2026-09-02T20:50:55Z</time>
  <course>260.04</course>
  <speed>1.1869709347747317</speed>
  <fix>3d</fix>
</trkpt>
<trkpt lat="40.0713944" lon="-105.2295646">
  <ele>1582.99</ele>
  <time>2026-09-02T20:50:55Z</time>
  <course>259.53</course>
  <speed>1.19</speed>
  <fix>3d</fix>
</trkpt>
<trkpt lat="40.0713938" lon="-105.229569">
  <ele>1582.99</ele>
  <time>2026-09-02T20:50:55Z</time>
  <course>260.23</course>
  <speed>1.1869709347747317</speed>
  <fix>3d</fix>
</trkpt>
<trkpt lat="40.0713941" lon="-105.2295673">
  <ele>1582.99</ele>
  <time>2026-09-02T20:50:55Z</time>
  <course>259.92</course>
  <speed>1.19</speed>
  <fix>3d</fix>
</trkpt>
<trkpt lat="40.0713937" lon="-105.2295705">
  <ele>1582.99</ele>
  <time>2026-09-02T20:50:55Z</time>
  <course>260.42</course>
  <speed>1.1869709347747317</speed>
  <fix>3d</fix>
</trkpt>
<trkpt lat="40.0713941" lon="-105.2295673">
  <ele>1582.99</ele>
  <time>2026-09-02T20:50:55Z</time>
  <course>259.92</course>
  <speed>1.19</speed>
  <fix>3d</fix>
</trkpt>
<trkpt lat="40.0713935" lon="-105.2295719">
  <ele>1582.99</ele>
  <time>2026-09-02T20:50:55Z</time>
  <course>260.59</course>
  <speed>1.195198728245642</speed>
  <fix>3d</fix>
</trkpt>
<trkpt lat="40.0713937" lon="-105.2295702">
  <ele>1582.99</ele>
  <time>2026-09-02T20:50:55Z</time>
  <course>260.29</course>
  <speed>1.19</speed>
  <fix>3d</fix>
</trkpt>
<trkpt lat="40.0713932" lon="-105.2295731">
  <ele>1582.99</ele>
  <time>2026-09-02T20:50:55Z</time>
  <course>260.77</course>
  <speed>1.195198728245642</speed>
  <fix>3d</fix>
</trkpt>
<trkpt lat="40.0713937" lon="-105.2295702">
  <ele>1582.99</ele>
  <time>2026-09-02T20:50:55Z</time>
  <course>260.29</course>
  <speed>1.19</speed>
  <fix>3d</fix>
</trkpt>
<trkpt lat="40.0713931" lon="-105.2295745">
  <ele>1582.99</ele>
  <time>2026-09-02T20:50:55Z</time>
  <course>260.95</course>
  <speed>1.1837651794169315</speed>
  <fix>3d</fix>
</trkpt>
<trkpt lat="40.0713933" lon="-105.2295729">
  <ele>1582.99</ele>
  <time>2026-09-02T20:50:55Z</time>
  <course>260.65</course>
  <speed>1.19</speed>
  <fix>3d</fix>
</trkpt>
<trkpt lat="40.071393" lon="-105.229576">
  <ele>1582.99</ele>
  <time>2026-09-02T20:50:55Z</time>
  <course>261.12</course>
  <speed>1.193649864910142</speed>
  <fix>3d</fix>
</trkpt>
<trkpt lat="40.0713933" lon="-105.2295729">
  <ele>1582.99</ele>
  <time>2026-09-02T20:50:55Z</time>
  <course>260.65</course>
  <speed>1.19</speed>
  <fix>3d</fix>
</trkpt>
<trkpt lat="40.0713928" lon="-105.2295774">
  <ele>1582.99</ele>
  <time>2026-09-02T20:50:55Z</time>
  <course>261.29</course>
  <speed>1.193649864910142</speed>
  <fix>3d</fix>
</trkpt>
<trkpt lat="40.071393" lon="-105.2295757">
  <ele>1582.99</ele>
  <time>2026-09-02T20:50:55Z</time>
  <course>261.0</course>
  <speed>1.19</speed>
  <fix>3d</fix>
</trkpt>
<trkpt lat="40.0713925" lon="-105.2295788">
  <ele>1582.99</ele>
  <time>2026-09-02T20:50:55Z</time>
  <course>261.45</course>
  <speed>1.1921828718783036</speed>
  <fix>3d</fix>
</trkpt>
<trkpt lat="40.071393" lon="-105.2295757">
  <ele>1582.99</ele>
  <time>2026-09-02T20:50:55Z</time>
  <course>261.0</course>
  <speed>1.19</speed>
  <fix>3d</fix>
</trkpt>
<trkpt lat="40.0713924" lon="-105.2295798">
  <ele>1582.99</ele>
  <time>2026-09-02T20:50:55Z</time>
  <course>261.58</course>
  <speed>1.1921828718783036</speed>
  <fix>3d</fix>
</trkpt>
<trkpt lat="40.0713926" lon="-105.2295785">
  <ele>1582.99</ele>
  <time>2026-09-02T20:50:55Z</time>
  <course>261.33</course>
  <speed>1.19</speed>
  <fix>3d</fix>
</trkpt>
<trkpt lat="40.0713924" lon="-105.2295812">
  <ele>1582.99</ele>
  <time>2026-09-02T20:50:55Z</time>
  <course>261.73</course>
  <speed>1.1921828718783036</speed>
  <fix>3d</fix>
</trkpt>
<trkpt lat="40.0713926" lon="-105.2295785">
  <ele>1582.99</ele>
  <time>2026-09-02T20:50:55Z</time>
  <course>261.33</course>
  <speed>1.19</speed>
  <fix>3d</fix>
</trkpt>
<trkpt lat="40.0713922" lon="-105.2295827">
  <ele>1582.99</ele>
  <time>2026-09-02T20:50:55Z</time>
  <course>261.88</course>
  <speed>1.1921828718783036</speed>
  <fix>3d</fix>
</trkpt>
<trkpt lat="40.0713923" lon="-105.2295812">
  <ele>1582.99</ele>
  <time>2026-09-02T20:50:55Z</time>
  <course>261.64</course>
  <speed>1.19</speed>
  <fix>3d</fix>
</trkpt>
<trkpt lat="40.0713921" lon="-105.2295841">
  <ele>1582.99</ele>
  <time>2026-09-02T20:50:55Z</time>
  <course>262.02</course>
  <speed>1.1907980517283356</speed>
  <fix>3d</fix>
</trkpt>
<trkpt lat="40.0713923" lon="-105.2295812">
  <ele>1582.99</ele>
  <time>2026-09-02T20:50:55Z</time>
  <course>261.64</course>
  <speed>1.19</speed>
  <fix>3d</fix>
</trkpt>
<trkpt lat="40.0713918" lon="-105.2295855">
  <ele>1582.99</ele>
  <time>2026-09-02T20:50:55Z</time>
  <course>262.16</course>
  <speed>1.1907980517283356</speed>
  <fix>3d</fix>
</trkpt>
<trkpt lat="40.071392" lon="-105.2295841">
  <ele>1582.99</ele>
  <time>2026-09-02T20:50:55Z</time>
  <course>261.93</course>
  <speed>1.19</speed>
  <fix>3d</fix>
</trkpt>
<trkpt lat="40.0713918" lon="-105.2295869">
  <ele>1583.0</ele>
  <time>2026-09-02T20:50:55Z</time>
  <course>262.3</course>
  <speed>1.1907980517283356</speed>
  <fix>3d</fix>
</trkpt>
<trkpt lat="40.071392" lon="-105.2295841">
  <ele>1582.99</ele>
  <time>2026-09-02T20:50:55Z</time>
  <course>261.93</course>
  <speed>1.19</speed>
  <fix>3d</fix>
</trkpt>
<trkpt lat="40.0713916" lon="-105.2295882">
  <ele>1583.0</ele>
  <time>2026-09-02T20:50:55Z</time>
  <course>262.42</course>
  <speed>1.1894956914591999</speed>
  <fix>3d</fix>
</trkpt>
<trkpt lat="40.0713917" lon="-105.2295868">
  <ele>1582.99</ele>
  <time>2026-09-02T20:50:55Z</time>
  <course>262.21</course>
  <speed>1.19</speed>
  <fix>3d</fix>
</trkpt>
<trkpt lat="40.0713915" lon="-105.2295896">
  <ele>1582.99</ele>
  <time>2026-09-02T20:50:55Z</time>
  <course>262.54</course>
  <speed>1.1894956914591999</speed>
  <fix>3d</fix>
</trkpt>
<trkpt lat="40.0713917" lon="-105.2295868">
  <ele>1582.99</ele>
  <time>2026-09-02T20:50:55Z</time>
  <course>262.21</course>
  <speed>1.19</speed>
  <fix>3d</fix>
</trkpt>
<trkpt lat="40.0713912" lon="-105.229591">
  <ele>1582.99</ele>
  <time>2026-09-02T20:50:55Z</time>
  <course>262.65</course>
  <speed>1.1994165248152953</speed>
  <fix>3d</fix>
</trkpt>
<trkpt lat="40.0713914" lon="-105.2295896">
  <ele>1582.99</ele>
  <time>2026-09-02T20:50:55Z</time>
  <course>262.45</course>
  <speed>1.2</speed>
  <fix>3d</fix>
</trkpt>
<trkpt lat="40.0713912" lon="-105.2295927">
  <ele>1582.99</ele>
  <time>2026-09-02T20:50:55Z</time>
  <course>262.79</course>
  <speed>1.1894956914591999</speed>
  <fix>3d</fix>
</trkpt>
<trkpt lat="40.0713914" lon="-105.2295896">
  <ele>1582.99</ele>
  <time>2026-09-02T20:50:55Z</time>
  <course>262.45</course>
  <speed>1.2</speed>
  <fix>3d</fix>
</trkpt>
<trkpt lat="40.071391" lon="-105.2295941">
  <ele>1582.99</ele>
  <time>2026-09-02T20:50:55Z</time>
  <course>262.89</course>
  <speed>1.1994165248152953</speed>
  <fix>3d</fix>
</trkpt>
<trkpt lat="40.0713911" lon="-105.2295925">
  <ele>1582.99</ele>
  <time>2026-09-02T20:50:55Z</time>
  <course>262.68</course>
  <speed>1.2</speed>
  <fix>3d</fix>
</trkpt>
<trkpt lat="40.0713909" lon="-105.2295955">
  <ele>1582.99</ele>
  <time>2026-09-02T20:50:55Z</time>
  <course>262.99</course>
  <speed>1.188276062201036</speed>
  <fix>3d</fix>
</trkpt>
<trkpt lat="40.0713911" lon="-105.2295925">
  <ele>1582.99</ele>
  <time>2026-09-02T20:50:55Z</time>
  <course>262.68</course>
  <speed>1.2</speed>
  <fix>3d</fix>
</trkpt>
<trkpt lat="40.0713907" lon="-105.2295968">
  <ele>1582.99</ele>
  <time>2026-09-02T20:50:55Z</time>
  <course>263.08</course>
  <speed>1.1982069938036581</speed>
  <fix>3d</fix>
</trkpt>
<trkpt lat="40.0713909" lon="-105.2295953">
  <ele>1582.99</ele>
  <time>2026-09-02T20:50:55Z</time>
  <course>262.88</course>
  <speed>1.2</speed>
  <fix>3d</fix>
</trkpt>
<trkpt lat="40.0713906" lon="-105.2295982">
  <ele>1582.99</ele>
  <time>2026-09-02T20:50:55Z</time>
  <course>263.18</course>
  <speed>1.188276062201036</speed>
  <fix>3d</fix>
</trkpt>
<trkpt lat="40.0713909" lon="-105.2295953">
  <ele>1582.99</ele>
  <time>2026-09-02T20:50:55Z</time>
  <course>262.88</course>
  <speed>1.2</speed>
  <fix>3d</fix>
</trkpt>
<trkpt lat="40.0713905" lon="-105.2295997">
  <ele>1582.99</ele>
  <time>2026-09-02T20:50:55Z</time>
  <course>263.25</course>
  <speed>1.1982069938036581</speed>
  <fix>3d</fix>
</trkpt>
<trkpt lat="40.0713906" lon="-105.2295981">
  <ele>1582.99</ele>
  <time>2026-09-02T20:50:55Z</time>
  <course>263.07</course>
  <speed>1.2</speed>
  <fix>3d</fix>
</trkpt>
<trkpt lat="40.0713904" lon="-105.2296011">
  <ele>1582.99</ele>
  <time>2026-09-02T20:50:55Z</time>
  <course>263.33</course>
  <speed>1.188276062201036</speed>
  <fix>3d</fix>
</trkpt>
<trkpt lat="40.0713906" lon="-105.2295981">
  <ele>1582.99</ele>
  <time>2026-09-02T20:50:55Z</time>
  <course>263.07</course>
  <speed>1.2</speed>
  <fix>3d</fix>
</trkpt>
<trkpt lat="40.0713903" lon="-105.2296025">
  <ele>1582.99</ele>
  <time>2026-09-02T20:50:55Z</time>
  <course>263.4</course>
  <speed>1.1970797801316335</speed>
  <fix>3d</fix>
</trkpt>
<trkpt lat="40.0713904" lon="-105.2296009">
  <ele>1582.99</ele>
  <time>2026-09-02T20:50:55Z</time>
  <course>263.23</course>
  <speed>1.2</speed>
  <fix>3d</fix>
</trkpt>
<trkpt lat="40.07139" lon="-105.2296039">
  <ele>1582.99</ele>
  <time>2026-09-02T20:50:55Z</time>
  <course>263.47</course>
  <speed>1.1871394189394942</speed>
  <fix>3d</fix>
</trkpt>
<trkpt lat="40.0713904" lon="-105.2296009">
  <ele>1582.99</ele>
  <time>2026-09-02T20:50:55Z</time>
  <course>263.23</course>
  <speed>1.2</speed>
  <fix>3d</fix>
</trkpt>
<trkpt lat="40.07139" lon="-105.2296052">
  <ele>1582.99</ele>
  <time>2026-09-02T20:50:55Z</time>
  <course>263.53</course>
  <speed>1.1970797801316335</speed>
  <fix>3d</fix>
</trkpt>
<trkpt lat="40.0713901" lon="-105.2296037">
  <ele>1582.99</ele>
  <time>2026-09-02T20:50:55Z</time>
  <course>263.37</course>
  <speed>1.2</speed>
  <fix>3d</fix>
</trkpt>
<trkpt lat="40.0713899" lon="-105.2296066">
  <ele>1582.99</ele>
  <time>2026-09-02T20:50:55Z</time>
  <course>263.58</course>
  <speed>1.1871394189394942</speed>
  <fix>3d</fix>
</trkpt>
<trkpt lat="40.0713901" lon="-105.2296037">
  <ele>1582.99</ele>
  <time>2026-09-02T20:50:55Z</time>
  <course>263.37</course>
  <speed>1.2</speed>
  <fix>3d</fix>
</trkpt>
<trkpt lat="40.0713898" lon="-105.229608">
  <ele>1582.99</ele>
  <time>2026-09-02T20:50:55Z</time>
  <course>263.63</course>
  <speed>1.1970797801316335</speed>
  <fix>3d</fix>
</trkpt>
<trkpt lat="40.0713899" lon="-105.2296064">
  <ele>1582.99</ele>
  <time>2026-09-02T20:50:55Z</time>
  <course>263.49</course>
  <speed>1.19</speed>
  <fix>3d</fix>
</trkpt>
<trkpt lat="40.0713897" lon="-105.2296092">
  <ele>1582.99</ele>
  <time>2026-09-02T20:50:55Z</time>
  <course>263.67</course>
  <speed>1.1970797801316335</speed>
  <fix>3d</fix>
</trkpt>
<trkpt lat="40.0713899" lon="-105.2296064">
  <ele>1582.99</ele>
  <time>2026-09-02T20:50:55Z</time>
  <course>263.49</course>
  <speed>1.19</speed>
  <fix>3d</fix>
</trkpt>
<trkpt lat="40.0713894" lon="-105.2296107">
  <ele>1582.99</ele>
  <time>2026-09-02T20:50:55Z</time>
  <course>263.72</course>
  <speed>1.1970797801316335</speed>
  <fix>3d</fix>
</trkpt>
<trkpt lat="40.0713896" lon="-105.2296092">
  <ele>1582.99</ele>
  <time>2026-09-02T20:50:55Z</time>
  <course>263.59</course>
  <speed>1.19</speed>
  <fix>3d</fix>
</trkpt>
<trkpt lat="40.0713894" lon="-105.2296121">
  <ele>1582.99</ele>
  <time>2026-09-02T20:50:55Z</time>
  <course>263.77</course>
  <speed>1.1970797801316335</speed>
  <fix>3d</fix>
</trkpt>
<trkpt lat="40.0713896" lon="-105.2296092">
  <ele>1582.99</ele>
  <time>2026-09-02T20:50:55Z</time>
  <course>263.59</course>
  <speed>1.19</speed>
  <fix>3d</fix>
</trkpt>
<trkpt lat="40.0713893" lon="-105.2296133">
  <ele>1582.99</ele>
  <time>2026-09-02T20:50:55Z</time>
  <course>263.8</course>
  <speed>1.1970797801316335</speed>
  <fix>3d</fix>
</trkpt>
<trkpt lat="40.0713894" lon="-105.229612">
  <ele>1582.99</ele>
  <time>2026-09-02T20:50:55Z</time>
  <course>263.67</course>
  <speed>1.19</speed>
  <fix>3d</fix>
</trkpt>
<trkpt lat="40.0713892" lon="-105.2296147">
  <ele>1582.99</ele>
  <time>2026-09-02T20:50:55Z</time>
  <course>263.83</course>
  <speed>1.1970797801316335</speed>
  <fix>3d</fix>
</trkpt>
<trkpt lat="40.0713894" lon="-105.229612">
  <ele>1582.99</ele>
  <time>2026-09-02T20:50:55Z</time>
  <course>263.67</course>
  <speed>1.19</speed>
  <fix>3d</fix>
</trkpt>
<trkpt lat="40.0713891" lon="-105.2296162">
  <ele>1582.99</ele>
  <time>2026-09-02T20:50:55Z</time>
  <course>263.85</course>
  <speed>1.1960351165413163</speed>
  <fix>3d</fix>
</trkpt>
<trkpt lat="40.0713892" lon="-105.2296147">
  <ele>1582.99</ele>
  <time>2026-09-02T20:50:55Z</time>
  <course>263.74</course>
  <speed>1.19</speed>
  <fix>3d</fix>
</trkpt>
<trkpt lat="40.0713889" lon="-105.2296176">
  <ele>1582.99</ele>
  <time>2026-09-02T20:50:55Z</time>
  <course>263.88</course>
  <speed>1.1960351165413163</speed>
  <fix>3d</fix>
</trkpt>
<trkpt lat="40.0713892" lon="-105.2296147">
  <ele>1582.99</ele>
  <time>2026-09-02T20:50:55Z</time>
  <course>263.74</course>
  <speed>1.19</speed>
  <fix>3d</fix>
</trkpt>
<trkpt lat="40.0713888" lon="-105.229619">
  <ele>1582.99</ele>
  <time>2026-09-02T20:50:55Z</time>
  <course>263.9</course>
  <speed>1.1960351165413163</speed>
  <fix>3d</fix>
</trkpt>
<trkpt lat="40.0713889" lon="-105.2296176">
  <ele>1582.99</ele>
  <time>2026-09-02T20:50:55Z</time>
  <course>263.79</course>
  <speed>1.19</speed>
  <fix>3d</fix>
</trkpt>
<trkpt lat="40.0713887" lon="-105.2296204">
  <ele>1582.99</ele>
  <time>2026-09-02T20:50:55Z</time>
  <course>263.92</course>
  <speed>1.1960351165413163</speed>
  <fix>3d</fix>
</trkpt>
<trkpt lat="40.0713889" lon="-105.2296176">
  <ele>1582.99</ele>
  <time>2026-09-02T20:50:55Z</time>
  <course>263.79</course>
  <speed>1.19</speed>
  <fix>3d</fix>
</trkpt>
<trkpt lat="40.0713886" lon="-105.2296221">
  <ele>1582.99</ele>
  <time>2026-09-02T20:50:55Z</time>
  <course>263.94</course>
  <speed>1.1960351165413163</speed>
  <fix>3d</fix>
</trkpt>
<trkpt lat="40.0713887" lon="-105.2296203">
  <ele>1582.99</ele>
  <time>2026-09-02T20:50:55Z</time>
  <course>263.83</course>
  <speed>1.19</speed>
  <fix>3d</fix>
</trkpt>
<trkpt lat="40.0713885" lon="-105.2296234">
  <ele>1582.99</ele>
  <time>2026-09-02T20:50:55Z</time>
  <course>263.94</course>
  <speed>1.1960351165413163</speed>
  <fix>3d</fix>
</trkpt>
<trkpt lat="40.0713887" lon="-105.2296203">
  <ele>1582.99</ele>
  <time>2026-09-02T20:50:55Z</time>
  <course>263.83</course>
  <speed>1.19</speed>
  <fix>3d</fix>
</trkpt>
<trkpt lat="40.0713883" lon="-105.2296248">
  <ele>1582.99</ele>
  <time>2026-09-02T20:50:55Z</time>
  <course>263.95</course>
  <speed>1.1960351165413163</speed>
  <fix>3d</fix>
</trkpt>
<trkpt lat="40.0713885" lon="-105.2296231">
  <ele>1582.99</ele>
  <time>2026-09-02T20:50:55Z</time>
  <course>263.86</course>
  <speed>1.2</speed>
  <fix>3d</fix>
</trkpt>
<trkpt lat="40.0713882" lon="-105.2296262">
  <ele>1582.99</ele>
  <time>2026-09-02T20:50:55Z</time>
  <course>263.96</course>
  <speed>1.1960351165413163</speed>
  <fix>3d</fix>
</trkpt>
<trkpt lat="40.0713885" lon="-105.2296231">
  <ele>1582.99</ele>
  <time>2026-09-02T20:50:55Z</time>
  <course>263.86</course>
  <speed>1.2</speed>
  <fix>3d</fix>
</trkpt>
<trkpt lat="40.0713881" lon="-105.2296277">
  <ele>1582.99</ele>
  <time>2026-09-02T20:50:55Z</time>
  <course>263.96</course>
  <speed>1.1960351165413163</speed>
  <fix>3d</fix>
</trkpt>
<trkpt lat="40.0713882" lon="-105.229626">
  <ele>1582.99</ele>
  <time>2026-09-02T20:50:55Z</time>
  <course>263.87</course>
  <speed>1.2</speed>
  <fix>3d</fix>
</trkpt>
<trkpt lat="40.071388" lon="-105.2296291">
  <ele>1582.99</ele>
  <time>2026-09-02T20:50:55Z</time>
  <course>263.96</course>
  <speed>1.1960351165413163</speed>
  <fix>3d</fix>
</trkpt>
<trkpt lat="40.0713882" lon="-105.229626">
  <ele>1582.99</ele>
  <time>2026-09-02T20:50:55Z</time>
  <course>263.87</course>
  <speed>1.2</speed>
  <fix>3d</fix>
</trkpt>
<trkpt lat="40.0713879" lon="-105.2296305">
  <ele>1582.99</ele>
  <time>2026-09-02T20:50:55Z</time>
  <course>263.96</course>
  <speed>1.1960351165413163</speed>
  <fix>3d</fix>
</trkpt>
<trkpt lat="40.071388" lon="-105.2296289">
  <ele>1582.99</ele>
  <time>2026-09-02T20:50:55Z</time>
  <course>263.87</course>
  <speed>1.2</speed>
  <fix>3d</fix>
</trkpt>
<trkpt lat="40.0713877" lon="-105.2296319">
  <ele>1582.99</ele>
  <time>2026-09-02T20:50:55Z</time>
  <course>263.96</course>
  <speed>1.1960351165413163</speed>
  <fix>3d</fix>
</trkpt>
<trkpt lat="40.071388" lon="-105.2296289">
  <ele>1582.99</ele>
  <time>2026-09-02T20:50:55Z</time>
  <course>263.87</course>
  <speed>1.2</speed>
  <fix>3d</fix>
</trkpt>
<trkpt lat="40.0713876" lon="-105.2296332">
  <ele>1582.99</ele>
  <time>2026-09-02T20:50:55Z</time>
  <course>263.95</course>
  <speed>1.1960351165413163</speed>
  <fix>3d</fix>
</trkpt>
<trkpt lat="40.0713877" lon="-105.2296317">
  <ele>1582.99</ele>
  <time>2026-09-02T20:50:55Z</time>
  <course>263.87</course>
  <speed>1.2</speed>
  <fix>3d</fix>
</trkpt>
<trkpt lat="40.0713875" lon="-105.2296346">
  <ele>1582.99</ele>
  <time>2026-09-02T20:50:55Z</time>
  <course>263.95</course>
  <speed>1.1960351165413163</speed>
  <fix>3d</fix>
</trkpt>
<trkpt lat="40.0713877" lon="-105.2296317">
  <ele>1582.99</ele>
  <time>2026-09-02T20:50:55Z</time>
  <course>263.87</course>
  <speed>1.2</speed>
  <fix>3d</fix>
</trkpt>
<trkpt lat="40.0713874" lon="-105.229636">
  <ele>1582.99</ele>
  <time>2026-09-02T20:50:55Z</time>
  <course>263.93</course>
  <speed>1.1960351165413163</speed>
  <fix>3d</fix>
</trkpt>
<trkpt lat="40.0713875" lon="-105.2296345">
  <ele>1582.99</ele>
  <time>2026-09-02T20:50:55Z</time>
  <course>263.86</course>
  <speed>1.2</speed>
  <fix>3d</fix>
</trkpt>
<trkpt lat="40.0713873" lon="-105.2296372">
  <ele>1582.99</ele>
  <time>2026-09-02T20:50:55Z</time>
  <course>263.92</course>
  <speed>1.1960351165413163</speed>
  <fix>3d</fix>
</trkpt>
<trkpt lat="40.0713875" lon="-105.2296345">
  <ele>1582.99</ele>
  <time>2026-09-02T20:50:55Z</time>
  <course>263.86</course>
  <speed>1.2</speed>
  <fix>3d</fix>
</trkpt>
<trkpt lat="40.0713871" lon="-105.2296387">
  <ele>1582.99</ele>
  <time>2026-09-02T20:50:55Z</time>
  <course>263.91</course>
  <speed>1.1960351165413163</speed>
  <fix>3d</fix>
</trkpt>
<trkpt lat="40.0713873" lon="-105.2296372">
  <ele>1582.99</ele>
  <time>2026-09-02T20:50:55Z</time>
  <course>263.83</course>
  <speed>1.2</speed>
  <fix>3d</fix>
</trkpt>
<trkpt lat="40.071387" lon="-105.2296401">
  <ele>1582.99</ele>
  <time>2026-09-02T20:50:55Z</time>
  <course>263.89</course>
  <speed>1.186086000254619</speed>
  <fix>3d</fix>
</trkpt>
<trkpt lat="40.0713873" lon="-105.2296372">
  <ele>1582.99</ele>
  <time>2026-09-02T20:50:55Z</time>
  <course>263.83</course>
  <speed>1.2</speed>
  <fix>3d</fix>
</trkpt>
<trkpt lat="40.071387" lon="-105.2296415">
  <ele>1582.99</ele>
  <time>2026-09-02T20:50:55Z</time>
  <course>263.88</course>
  <speed>1.1970797801316335</speed>
  <fix>3d</fix>
</trkpt>
<trkpt lat="40.071387" lon="-105.2296401">
  <ele>1582.99</ele>
  <time>2026-09-02T20:50:55Z</time>
  <course>263.8</course>
  <speed>1.2</speed>
  <fix>3d</fix>
</trkpt>
<trkpt lat="40.0713869" lon="-105.2296429">
  <ele>1582.99</ele>
  <time>2026-09-02T20:50:55Z</time>
  <course>263.86</course>
  <speed>1.1960351165413163</speed>
  <fix>3d</fix>
</trkpt>
<trkpt lat="40.071387" lon="-105.2296401">
  <ele>1582.99</ele>
  <time>2026-09-02T20:50:55Z</time>
  <course>263.8</course>
  <speed>1.2</speed>
  <fix>3d</fix>
</trkpt>
<trkpt lat="40.0713868" lon="-105.2296442">
  <ele>1582.99</ele>
  <time>2026-09-02T20:50:55Z</time>
  <course>263.83</course>
  <speed>1.1970797801316335</speed>
  <fix>3d</fix>
</trkpt>
<trkpt lat="40.0713869" lon="-105.2296428">
  <ele>1582.99</ele>
  <time>2026-09-02T20:50:55Z</time>
  <course>263.76</course>
  <speed>1.2</speed>
  <fix>3d</fix>
</trkpt>
<trkpt lat="40.0713865" lon="-105.2296456">
  <ele>1582.99</ele>
  <time>2026-09-02T20:50:55Z</time>
  <course>263.81</course>
  <speed>1.1970797801316335</speed>
  <fix>3d</fix>
</trkpt>
<trkpt lat="40.0713869" lon="-105.2296428">
  <ele>1582.99</ele>
  <time>2026-09-02T20:50:55Z</time>
  <course>263.76</course>
  <speed>1.2</speed>
  <fix>3d</fix>
</trkpt>
<trkpt lat="40.0713864" lon="-105.229647">
  <ele>1582.99</ele>
  <time>2026-09-02T20:50:55Z</time>
  <course>263.79</course>
  <speed>1.1970797801316335</speed>
  <fix>3d</fix>
</trkpt>
<trkpt lat="40.0713866" lon="-105.2296456">
  <ele>1582.99</ele>
  <time>2026-09-02T20:50:55Z</time>
  <course>263.72</course>
  <speed>1.19</speed>
  <fix>3d</fix>
</trkpt>
<trkpt lat="40.0713864" lon="-105.2296485">
  <ele>1582.99</ele>
  <time>2026-09-02T20:50:55Z</time>
  <course>263.77</course>
  <speed>1.1970797801316335</speed>
  <fix>3d</fix>
</trkpt>
<trkpt lat="40.0713866" lon="-105.2296456">
  <ele>1582.99</ele>
  <time>2026-09-02T20:50:55Z</time>
  <course>263.72</course>
  <speed>1.19</speed>
  <fix>3d</fix>
</trkpt>
<trkpt lat="40.0713863" lon="-105.2296499">
  <ele>1582.99</ele>
  <time>2026-09-02T20:50:55Z</time>
  <course>263.75</course>
  <speed>1.1970797801316335</speed>
  <fix>3d</fix>
</trkpt>
<trkpt lat="40.0713863" lon="-105.2296485">
  <ele>1582.99</ele>
  <time>2026-09-02T20:50:55Z</time>
  <course>263.68</course>
  <speed>1.19</speed>
  <fix>3d</fix>
</trkpt>
<trkpt lat="40.0713861" lon="-105.2296514">
  <ele>1582.99</ele>
  <time>2026-09-02T20:50:55Z</time>
  <course>263.72</course>
  <speed>1.1970797801316335</speed>
  <fix>3d</fix>
</trkpt>
<trkpt lat="40.0713863" lon="-105.2296485">
  <ele>1582.99</ele>
  <time>2026-09-02T20:50:55Z</time>
  <course>263.68</course>
  <speed>1.19</speed>
  <fix>3d</fix>
</trkpt>
<trkpt lat="40.0713859" lon="-105.2296528">
  <ele>1582.99</ele>
  <time>2026-09-02T20:50:55Z</time>
  <course>263.69</course>
  <speed>1.1970797801316335</speed>
  <fix>3d</fix>
</trkpt>
<trkpt lat="40.0713861" lon="-105.2296513">
  <ele>1582.99</ele>
  <time>2026-09-02T20:50:55Z</time>
  <course>263.63</course>
  <speed>1.19</speed>
  <fix>3d</fix>
</trkpt>
<trkpt lat="40.0713858" lon="-105.2296542">
  <ele>1582.99</ele>
  <time>2026-09-02T20:50:55Z</time>
  <course>263.67</course>
  <speed>1.1970797801316335</speed>
  <fix>3d</fix>
</trkpt>
<trkpt lat="40.0713861" lon="-105.2296513">
  <ele>1582.99</ele>
  <time>2026-09-02T20:50:55Z</time>
  <course>263.63</course>
  <speed>1.19</speed>
  <fix>3d</fix>
</trkpt>
<trkpt lat="40.0713858" lon="-105.2296557">
  <ele>1582.99</ele>
  <time>2026-09-02T20:50:55Z</time>
  <course>263.64</course>
  <speed>1.1871394189394942</speed>
  <fix>3d</fix>
</trkpt>
<trkpt lat="40.0713858" lon="-105.229654">
  <ele>1582.99</ele>
  <time>2026-09-02T20:50:55Z</time>
  <course>263.58</course>
  <speed>1.19</speed>
  <fix>3d</fix>
</trkpt>
<trkpt lat="40.0713857" lon="-105.2296571">
  <ele>1582.99</ele>
  <time>2026-09-02T20:50:55Z</time>
  <course>263.62</course>
  <speed>1.1970797801316335</speed>
  <fix>3d</fix>
</trkpt>
<trkpt lat="40.0713858" lon="-105.229654">
  <ele>1582.99</ele>
  <time>2026-09-02T20:50:55Z</time>
  <course>263.58</course>
  <speed>1.19</speed>
  <fix>3d</fix>
</trkpt>
<trkpt lat="40.0713855" lon="-105.2296585">
  <ele>1582.99</ele>
  <time>2026-09-02T20:50:55Z</time>
  <course>263.59</course>
  <speed>1.1871394189394942</speed>
  <fix>3d</fix>
</trkpt>
<trkpt lat="40.0713857" lon="-105.2296568">
  <ele>1582.99</ele>
  <time>2026-09-02T20:50:55Z</time>
  <course>263.53</course>
  <speed>1.19</speed>
  <fix>3d</fix>
</trkpt>
<trkpt lat="40.0713853" lon="-105.2296599">
  <ele>1582.99</ele>
  <time>2026-09-02T20:50:55Z</time>
  <course>263.56</course>
  <speed>1.1970797801316335</speed>
  <fix>3d</fix>
</trkpt>
<trkpt lat="40.0713857" lon="-105.2296568">
  <ele>1582.99</ele>
  <time>2026-09-02T20:50:55Z</time>
  <course>263.53</course>
  <speed>1.19</speed>
  <fix>3d</fix>
</trkpt>
<trkpt lat="40.0713852" lon="-105.2296612">
  <ele>1582.99</ele>
  <time>2026-09-02T20:50:55Z</time>
  <course>263.54</course>
  <speed>1.1871394189394942</speed>
  <fix>3d</fix>
</trkpt>
<trkpt lat="40.0713854" lon="-105.2296597">
  <ele>1582.99</ele>
  <time>2026-09-02T20:50:55Z</time>
  <course>263.47</course>
  <speed>1.19</speed>
  <fix>3d</fix>
</trkpt>
<trkpt lat="40.0713852" lon="-105.2296626">
  <ele>1582.99</ele>
  <time>2026-09-02T20:50:55Z</time>
  <course>263.51</course>
  <speed>1.1970797801316335</speed>
  <fix>3d</fix>
</trkpt>
<trkpt lat="40.0713854" lon="-105.2296597">
  <ele>1582.99</ele>
  <time>2026-09-02T20:50:55Z</time>
  <course>263.47</course>
  <speed>1.19</speed>
  <fix>3d</fix>
</trkpt>
<trkpt lat="40.071385" lon="-105.229664">
  <ele>1582.99</ele>
  <time>2026-09-02T20:50:55Z</time>
  <course>263.49</course>
  <speed>1.1871394189394942</speed>
  <fix>3d</fix>
</trkpt>
<trkpt lat="40.0713851" lon="-105.2296624">
  <ele>1582.99</ele>
  <time>2026-09-02T20:50:55Z</time>
  <course>263.42</course>
  <speed>1.19</speed>
  <fix>3d</fix>
</trkpt>
<trkpt lat="40.0713849" lon="-105.2296655">
  <ele>1582.99</ele>
  <time>2026-09-02T20:50:55Z</time>
  <course>263.46</course>
  <speed>1.1970797801316335</speed>
  <fix>3d</fix>
</trkpt>
<trkpt lat="40.0713851" lon="-105.2296624">
  <ele>1582.99</ele>
  <time>2026-09-02T20:50:55Z</time>
  <course>263.42</course>
  <speed>1.19</speed>
  <fix>3d</fix>
</trkpt>
<trkpt lat="40.0713848" lon="-105.2296667">
  <ele>1582.99</ele>
  <time>2026-09-02T20:50:55Z</time>
  <course>263.44</course>
  <speed>1.1970797801316335</speed>
  <fix>3d</fix>
</trkpt>
<trkpt lat="40.0713849" lon="-105.2296652">
  <ele>1582.99</ele>
  <time>2026-09-02T20:50:55Z</time>
  <course>263.37</course>
  <speed>1.2</speed>
  <fix>3d</fix>
</trkpt>
<trkpt lat="40.0713846" lon="-105.2296679">
  <ele>1582.99</ele>
  <time>2026-09-02T20:50:55Z</time>
  <course>263.41</course>
  <speed>1.1871394189394942</speed>
  <fix>3d</fix>
</trkpt>
<trkpt lat="40.0713849" lon="-105.2296652">
  <ele>1582.99</ele>
  <time>2026-09-02T20:50:55Z</time>
  <course>263.37</course>
  <speed>1.2</speed>
  <fix>3d</fix>
</trkpt>
<trkpt lat="40.0713845" lon="-105.2296695">
  <ele>1582.99</ele>
  <time>2026-09-02T20:50:55Z</time>
  <course>263.39</course>
  <speed>1.1982069938036581</speed>
  <fix>3d</fix>
</trkpt>
<trkpt lat="40.0713846" lon="-105.2296681">
  <ele>1582.99</ele>
  <time>2026-09-02T20:50:55Z</time>
  <course>263.32</course>
  <speed>1.2</speed>
  <fix>3d</fix>
</trkpt>
<trkpt lat="40.0713844" lon="-105.2296707">
  <ele>1582.99</ele>
  <time>2026-09-02T20:50:55Z</time>
  <course>263.36</course>
  <speed>1.188276062201036</speed>
  <fix>3d</fix>
</trkpt>
<trkpt lat="40.0713846" lon="-105.2296681">
  <ele>1582.99</ele>
  <time>2026-09-02T20:50:55Z</time>
  <course>263.32</course>
  <speed>1.2</speed>
  <fix>3d</fix>
</trkpt>
<trkpt lat="40.0713843" lon="-105.2296722">
  <ele>1582.99</ele>
  <time>2026-09-02T20:50:55Z</time>
  <course>263.34</course>
  <speed>1.1982069938036581</speed>
  <fix>3d</fix>
</trkpt>
<trkpt lat="40.0713844" lon="-105.2296708">
  <ele>1582.99</ele>
  <time>2026-09-02T20:50:55Z</time>
  <course>263.26</course>
  <speed>1.2</speed>
  <fix>3d</fix>
</trkpt>
<trkpt lat="40.0713842" lon="-105.2296736">
  <ele>1582.99</ele>
  <time>2026-09-02T20:50:55Z</time>
  <course>263.31</course>
  <speed>1.188276062201036</speed>
  <fix>3d</fix>
</trkpt>
<trkpt lat="40.0713844" lon="-105.2296708">
  <ele>1582.99</ele>
  <time>2026-09-02T20:50:55Z</time>
  <course>263.26</course>
  <speed>1.2</speed>
  <fix>3d</fix>
</trkpt>
<trkpt lat="40.071384" lon="-105.229675">
  <ele>1582.99</ele>
  <time>2026-09-02T20:50:55Z</time>
  <course>263.28</course>
  <speed>1.1982069938036581</speed>
  <fix>3d</fix>
</trkpt>
<trkpt lat="40.0713842" lon="-105.2296736">
  <ele>1582.99</ele>
  <time>2026-09-02T20:50:55Z</time>
  <course>263.21</course>
  <speed>1.2</speed>
  <fix>3d</fix>
</trkpt>
<trkpt lat="40.0713839" lon="-105.2296763">
  <ele>1582.99</ele>
  <time>2026-09-02T20:50:55Z</time>
  <course>263.26</course>
  <speed>1.188276062201036</speed>
  <fix>3d</fix>
</trkpt>
<trkpt lat="40.0713842" lon="-105.2296736">
  <ele>1582.99</ele>
  <time>2026-09-02T20:50:55Z</time>
  <course>263.21</course>
  <speed>1.2</speed>
  <fix>3d</fix>
</trkpt>
<trkpt lat="40.0713838" lon="-105.2296777">
  <ele>1582.99</ele>
  <time>2026-09-02T20:50:55Z</time>
  <course>263.24</course>
  <speed>1.1982069938036581</speed>
  <fix>3d</fix>
</trkpt>
<trkpt lat="40.0713839" lon="-105.2296763">
  <ele>1582.99</ele>
  <time>2026-09-02T20:50:55Z</time>
  <course>263.16</course>
  <speed>1.2</speed>
  <fix>3d</fix>
</trkpt>
<trkpt lat="40.0713837" lon="-105.2296791">
  <ele>1582.99</ele>
  <time>2026-09-02T20:50:55Z</time>
  <course>263.21</course>
  <speed>1.188276062201036</speed>
  <fix>3d</fix>
</trkpt>
<trkpt lat="40.0713839" lon="-105.2296763">
  <ele>1582.99</ele>
  <time>2026-09-02T20:50:55Z</time>
  <course>263.16</course>
  <speed>1.2</speed>
  <fix>3d</fix>
</trkpt>
<trkpt lat="40.0713834" lon="-105.2296808">
  <ele>1582.99</ele>
  <time>2026-09-02T20:50:55Z</time>
  <course>263.18</course>
  <speed>1.1982069938036581</speed>
  <fix>3d</fix>
</trkpt>
<trkpt lat="40.0713836" lon="-105.2296791">
  <ele>1582.99</ele>
  <time>2026-09-02T20:50:55Z</time>
  <course>263.11</course>
  <speed>1.2</speed>
  <fix>3d</fix>
</trkpt>
<trkpt lat="40.0713833" lon="-105.2296822">
  <ele>1582.99</ele>
  <time>2026-09-02T20:50:55Z</time>
  <course>263.16</course>
  <speed>1.188276062201036</speed>
  <fix>3d</fix>
</trkpt>
<trkpt lat="40.0713836" lon="-105.2296791">
  <ele>1582.99</ele>
  <time>2026-09-02T20:50:55Z</time>
  <course>263.11</course>
  <speed>1.2</speed>
  <fix>3d</fix>
</trkpt>
<trkpt lat="40.0713833" lon="-105.2296837">
  <ele>1582.99</ele>
  <time>2026-09-02T20:50:55Z</time>
  <course>263.13</course>
  <speed>1.1982069938036581</speed>
  <fix>3d</fix>
</trkpt>
<trkpt lat="40.0713834" lon="-105.229682">
  <ele>1582.99</ele>
  <time>2026-09-02T20:50:55Z</time>
  <course>263.06</course>
  <speed>1.2</speed>
  <fix>3d</fix>
</trkpt>
<trkpt lat="40.0713831" lon="-105.2296851">
  <ele>1582.99</ele>
  <time>2026-09-02T20:50:55Z</time>
  <course>263.11</course>
  <speed>1.188276062201036</speed>
  <fix>3d</fix>
</trkpt>
<trkpt lat="40.0713834" lon="-105.229682">
  <ele>1582.99</ele>
  <time>2026-09-02T20:50:55Z</time>
  <course>263.06</course>
  <speed>1.2</speed>
  <fix>3d</fix>
</trkpt>
<trkpt lat="40.071383" lon="-105.2296865">
  <ele>1582.99</ele>
  <time>2026-09-02T20:50:55Z</time>
  <course>263.09</course>
  <speed>1.1982069938036581</speed>
  <fix>3d</fix>
</trkpt>
<trkpt lat="40.0713831" lon="-105.2296848">
  <ele>1582.99</ele>
  <time>2026-09-02T20:50:55Z</time>
  <course>263.02</course>
  <speed>1.2</speed>
  <fix>3d</fix>
</trkpt>
<trkpt lat="40.0713828" lon="-105.2296879">
  <ele>1582.99</ele>
  <time>2026-09-02T20:50:55Z</time>
  <course>263.06</course>
  <speed>1.188276062201036</speed>
  <fix>3d</fix>
</trkpt>
<trkpt lat="40.0713831" lon="-105.2296848">
  <ele>1582.99</ele>
  <time>2026-09-02T20:50:55Z</time>
  <course>263.02</course>
  <speed>1.2</speed>
  <fix>3d</fix>
</trkpt>
<trkpt lat="40.0713827" lon="-105.2296892">
  <ele>1582.99</ele>
  <time>2026-09-02T20:50:55Z</time>
  <course>263.04</course>
  <speed>1.1982069938036581</speed>
  <fix>3d</fix>
</trkpt>
<trkpt lat="40.0713828" lon="-105.2296875">
  <ele>1582.99</ele>
  <time>2026-09-02T20:50:55Z</time>
  <course>262.97</course>
  <speed>1.2</speed>
  <fix>3d</fix>
</trkpt>
<trkpt lat="40.0713826" lon="-105.2296906">
  <ele>1582.99</ele>
  <time>2026-09-02T20:50:55Z</time>
  <course>263.03</course>
  <speed>1.188276062201036</speed>
  <fix>3d</fix>
</trkpt>
<trkpt lat="40.0713828" lon="-105.2296875">
  <ele>1582.99</ele>
  <time>2026-09-02T20:50:55Z</time>
  <course>262.97</course>
  <speed>1.2</speed>
  <fix>3d</fix>
</trkpt>
<trkpt lat="40.0713825" lon="-105.2296921">
  <ele>1582.99</ele>
  <time>2026-09-02T20:50:55Z</time>
  <course>263.0</course>
  <speed>1.1982069938036581</speed>
  <fix>3d</fix>
</trkpt>
<trkpt lat="40.0713826" lon="-105.2296904">
  <ele>1582.99</ele>
  <time>2026-09-02T20:50:55Z</time>
  <course>262.93</course>
  <speed>1.2</speed>
  <fix>3d</fix>
</trkpt>
<trkpt lat="40.0713822" lon="-105.2296935">
  <ele>1582.99</ele>
  <time>2026-09-02T20:50:55Z</time>
  <course>262.98</course>
  <speed>1.188276062201036</speed>
  <fix>3d</fix>
</trkpt>
<trkpt lat="40.0713826" lon="-105.2296904">
  <ele>1582.99</ele>
  <time>2026-09-02T20:50:55Z</time>
  <course>262.93</course>
  <speed>1.2</speed>
  <fix>3d</fix>
</trkpt>
<trkpt lat="40.0713821" lon="-105.2296949">
  <ele>1582.99</ele>
  <time>2026-09-02T20:50:55Z</time>
  <course>262.97</course>
  <speed>1.1982069938036581</speed>
  <fix>3d</fix>
</trkpt>
<trkpt lat="40.0713823" lon="-105.2296932">
  <ele>1582.99</ele>
  <time>2026-09-02T20:50:55Z</time>
  <course>262.89</course>
  <speed>1.2</speed>
  <fix>3d</fix>
</trkpt>
<trkpt lat="40.0713821" lon="-105.2296959">
  <ele>1582.99</ele>
  <time>2026-09-02T20:50:55Z</time>
  <course>262.95</course>
  <speed>1.188276062201036</speed>
  <fix>3d</fix>
</trkpt>
<trkpt lat="40.0713823" lon="-105.2296932">
  <ele>1582.99</ele>
  <time>2026-09-02T20:50:55Z</time>
  <course>262.89</course>
  <speed>1.2</speed>
  <fix>3d</fix>
</trkpt>
<trkpt lat="40.071382" lon="-105.2296973">
  <ele>1582.99</ele>
  <time>2026-09-02T20:50:55Z</time>
  <course>262.94</course>
  <speed>1.1982069938036581</speed>
  <fix>3d</fix>
</trkpt>
<trkpt lat="40.071382" lon="-105.2296959">
  <ele>1582.99</ele>
  <time>2026-09-02T20:50:55Z</time>
  <course>262.85</course>
  <speed>1.2</speed>
  <fix>3d</fix>
</trkpt>
<trkpt lat="40.0713818" lon="-105.2296988">
  <ele>1582.99</ele>
  <time>2026-09-02T20:50:55Z</time>
  <course>262.91</course>
  <speed>1.1994165248152953</speed>
  <fix>3d</fix>
</trkpt>
<trkpt lat="40.071382" lon="-105.2296959">
  <ele>1582.99</ele>
  <time>2026-09-02T20:50:55Z</time>
  <course>262.85</course>
  <speed>1.2</speed>
  <fix>3d</fix>
</trkpt>
<trkpt lat="40.0713816" lon="-105.2297002">
  <ele>1582.99</ele>
  <time>2026-09-02T20:50:55Z</time>
  <course>262.9</course>
  <speed>1.188276062201036</speed>
  <fix>3d</fix>
</trkpt>
<trkpt lat="40.0713818" lon="-105.2296988">
  <ele>1582.99</ele>
  <time>2026-09-02T20:50:55Z</time>
  <course>262.81</course>
  <speed>1.19</speed>
  <fix>3d</fix>
</trkpt>
<trkpt lat="40.0713815" lon="-105.2297016">
  <ele>1582.99</ele>
  <time>2026-09-02T20:50:55Z</time>
  <course>262.89</course>
  <speed>1.1994165248152953</speed>
  <fix>3d</fix>
</trkpt>
<trkpt lat="40.0713818" lon="-105.2296988">
  <ele>1582.99</ele>
  <time>2026-09-02T20:50:55Z</time>
  <course>262.81</course>
  <speed>1.19</speed>
  <fix>3d</fix>
</trkpt>
<trkpt lat="40.0713814" lon="-105.229703">
  <ele>1582.99</ele>
  <time>2026-09-02T20:50:55Z</time>
  <course>262.87</course>
  <speed>1.1894956914591999</speed>
  <fix>3d</fix>
</trkpt>
<trkpt lat="40.0713815" lon="-105.2297016">
  <ele>1582.99</ele>
  <time>2026-09-02T20:50:55Z</time>
  <course>262.78</course>
  <speed>1.19</speed>
  <fix>3d</fix>
</trkpt>
<trkpt lat="40.0713813" lon="-105.2297043">
  <ele>1582.99</ele>
  <time>2026-09-02T20:50:55Z</time>
  <course>262.85</course>
  <speed>1.1994165248152953</speed>
  <fix>3d</fix>
</trkpt>
<trkpt lat="40.0713815" lon="-105.2297016">
  <ele>1582.99</ele>
  <time>2026-09-02T20:50:55Z</time>
  <course>262.78</course>
  <speed>1.19</speed>
  <fix>3d</fix>
</trkpt>
<trkpt lat="40.071381" lon="-105.2297057">
  <ele>1582.99</ele>
  <time>2026-09-02T20:50:55Z</time>
  <course>262.84</course>
  <speed>1.1894956914591999</speed>
  <fix>3d</fix>
</trkpt>
<trkpt lat="40.0713812" lon="-105.2297044">
  <ele>1582.99</ele>
  <time>2026-09-02T20:50:55Z</time>
  <course>262.75</course>
  <speed>1.19</speed>
  <fix>3d</fix>
</trkpt>
<trkpt lat="40.0713809" lon="-105.2297071">
  <ele>1582.99</ele>
  <time>2026-09-02T20:50:55Z</time>
  <course>262.83</course>
  <speed>1.1994165248152953</speed>
  <fix>3d</fix>
</trkpt>
<trkpt lat="40.0713812" lon="-105.2297044">
  <ele>1582.99</ele>
  <time>2026-09-02T20:50:55Z</time>
  <course>262.75</course>
  <speed>1.19</speed>
  <fix>3d</fix>
</trkpt>
<trkpt lat="40.0713809" lon="-105.2297086">
  <ele>1582.99</ele>
  <time>2026-09-02T20:50:55Z</time>
  <course>262.82</course>
  <speed>1.1894956914591999</speed>
  <fix>3d</fix>
</trkpt>
<trkpt lat="40.071381" lon="-105.2297071">
  <ele>1582.99</ele>
  <time>2026-09-02T20:50:55Z</time>
  <course>262.72</course>
  <speed>1.19</speed>
  <fix>3d</fix>
</trkpt>
<trkpt lat="40.0713807" lon="-105.2297102">
  <ele>1582.99</ele>
  <time>2026-09-02T20:50:55Z</time>
  <course>262.81</course>
  <speed>1.1994165248152953</speed>
  <fix>3d</fix>
</trkpt>
<trkpt lat="40.071381" lon="-105.2297071">
  <ele>1582.99</ele>
  <time>2026-09-02T20:50:55Z</time>
  <course>262.72</course>
  <speed>1.19</speed>
  <fix>3d</fix>
</trkpt>
<trkpt lat="40.0713806" lon="-105.2297117">
  <ele>1582.99</ele>
  <time>2026-09-02T20:50:55Z</time>
  <course>262.79</course>
  <speed>1.1894956914591999</speed>
  <fix>3d</fix>
</trkpt>
<trkpt lat="40.0713807" lon="-105.22971">
  <ele>1582.99</ele>
  <time>2026-09-02T20:50:55Z</time>
  <course>262.7</course>
  <speed>1.19</speed>
  <fix>3d</fix>
</trkpt>
<trkpt lat="40.0713803" lon="-105.2297131">
  <ele>1582.99</ele>
  <time>2026-09-02T20:50:55Z</time>
  <course>262.78</course>
  <speed>1.1994165248152953</speed>
  <fix>3d</fix>
</trkpt>
<trkpt lat="40.0713807" lon="-105.22971">
  <ele>1582.99</ele>
  <time>2026-09-02T20:50:55Z</time>
  <course>262.7</course>
  <speed>1.19</speed>
  <fix>3d</fix>
</trkpt>
<trkpt lat="40.0713803" lon="-105.2297145">
  <ele>1582.99</ele>
  <time>2026-09-02T20:50:55Z</time>
  <course>262.77</course>
  <speed>1.1894956914591999</speed>
  <fix>3d</fix>
</trkpt>
<trkpt lat="40.0713804" lon="-105.2297127">
  <ele>1582.99</ele>
  <time>2026-09-02T20:50:55Z</time>
  <course>262.67</course>
  <speed>1.19</speed>
  <fix>3d</fix>
</trkpt>
<trkpt lat="40.0713802" lon="-105.2297159">
  <ele>1582.99</ele>
  <time>2026-09-02T20:50:55Z</time>
  <course>262.76</course>
  <speed>1.1994165248152953</speed>
  <fix>3d</fix>
</trkpt>
<trkpt lat="40.0713804" lon="-105.2297127">
  <ele>1582.99</ele>
  <time>2026-09-02T20:50:55Z</time>
  <course>262.67</course>
  <speed>1.19</speed>
  <fix>3d</fix>
</trkpt>
<trkpt lat="40.07138" lon="-105.2297172">
  <ele>1582.99</ele>
  <time>2026-09-02T20:50:55Z</time>
  <course>262.75</course>
  <speed>1.1894956914591999</speed>
  <fix>3d</fix>
</trkpt>
<trkpt lat="40.0713802" lon="-105.2297155">
  <ele>1582.99</ele>
  <time>2026-09-02T20:50:55Z</time>
  <course>262.65</course>
  <speed>1.19</speed>
  <fix>3d</fix>
</trkpt>
<trkpt lat="40.0713798" lon="-105.2297186">
  <ele>1582.99</ele>
  <time>2026-09-02T20:50:55Z</time>
  <course>262.74</course>
  <speed>1.1994165248152953</speed>
  <fix>3d</fix>
</trkpt>
<trkpt lat="40.0713802" lon="-105.2297155">
  <ele>1582.99</ele>
  <time>2026-09-02T20:50:55Z</time>
  <course>262.65</course>
  <speed>1.19</speed>
  <fix>3d</fix>
</trkpt>
<trkpt lat="40.0713797" lon="-105.22972">
  <ele>1582.99</ele>
  <time>2026-09-02T20:50:55Z</time>
  <course>262.74</course>
  <speed>1.1894956914591999</speed>
  <fix>3d</fix>
</trkpt>
<trkpt lat="40.0713799" lon="-105.2297184">
  <ele>1582.99</ele>
  <time>2026-09-02T20:50:55Z</time>
  <course>262.63</course>
  <speed>1.19</speed>
  <fix>3d</fix>
</trkpt>
<trkpt lat="40.0713796" lon="-105.2297213">
  <ele>1582.99</ele>
  <time>2026-09-02T20:50:55Z</time>
  <course>262.72</course>
  <speed>1.1994165248152953</speed>
  <fix>3d</fix>
</trkpt>
<trkpt lat="40.0713799" lon="-105.2297184">
  <ele>1582.99</ele>
  <time>2026-09-02T20:50:55Z</time>
  <course>262.63</course>
  <speed>1.19</speed>
  <fix>3d</fix>
</trkpt>
<trkpt lat="40.0713795" lon="-105.2297227">
  <ele>1583.0</ele>
  <time>2026-09-02T20:50:55Z</time>
  <course>262.71</course>
  <speed>1.1994165248152953</speed>
  <fix>3d</fix>
</trkpt>
<trkpt lat="40.0713796" lon="-105.2297212">
  <ele>1582.99</ele>
  <time>2026-09-02T20:50:55Z</time>
  <course>262.62</course>
  <speed>1.19</speed>
  <fix>3d</fix>
</trkpt>
<trkpt lat="40.0713792" lon="-105.2297241">
  <ele>1582.99</ele>
  <time>2026-09-02T20:50:55Z</time>
  <course>262.71</course>
  <speed>1.1994165248152953</speed>
  <fix>3d</fix>
</trkpt>
<trkpt lat="40.0713796" lon="-105.2297212">
  <ele>1582.99</ele>
  <time>2026-09-02T20:50:55Z</time>
  <course>262.62</course>
  <speed>1.19</speed>
  <fix>3d</fix>
</trkpt>
<trkpt lat="40.0713791" lon="-105.2297253">
  <ele>1582.99</ele>
  <time>2026-09-02T20:50:55Z</time>
  <course>262.71</course>
  <speed>1.1894956914591999</speed>
  <fix>3d</fix>
</trkpt>
<trkpt lat="40.0713793" lon="-105.229724">
  <ele>1582.99</ele>
  <time>2026-09-02T20:50:55Z</time>
  <course>262.6</course>
  <speed>1.19</speed>
  <fix>3d</fix>
</trkpt>
<trkpt lat="40.0713791" lon="-105.2297268">
  <ele>1582.99</ele>
  <time>2026-09-02T20:50:55Z</time>
  <course>262.7</course>
  <speed>1.1994165248152953</speed>
  <fix>3d</fix>
</trkpt>
<trkpt lat="40.0713793" lon="-105.229724">
  <ele>1582.99</ele>
  <time>2026-09-02T20:50:55Z</time>
  <course>262.6</course>
  <speed>1.19</speed>
  <fix>3d</fix>
</trkpt>
<trkpt lat="40.0713789" lon="-105.2297282">
  <ele>1582.99</ele>
  <time>2026-09-02T20:50:55Z</time>
  <course>262.69</course>
  <speed>1.1994165248152953</speed>
  <fix>3d</fix>
</trkpt>
<trkpt lat="40.071379" lon="-105.2297268">
  <ele>1582.99</ele>
  <time>2026-09-02T20:50:55Z</time>
  <course>262.59</course>
  <speed>1.19</speed>
  <fix>3d</fix>
</trkpt>
<trkpt lat="40.0713788" lon="-105.2297296">
  <ele>1582.99</ele>
  <time>2026-09-02T20:50:55Z</time>
  <course>262.68</course>
  <speed>1.1994165248152953</speed>
  <fix>3d</fix>
</trkpt>
<trkpt lat="40.071379" lon="-105.2297268">
  <ele>1582.99</ele>
  <time>2026-09-02T20:50:55Z</time>
  <course>262.59</course>
  <speed>1.19</speed>
  <fix>3d</fix>
</trkpt>
<trkpt lat="40.0713786" lon="-105.2297308">
  <ele>1582.99</ele>
  <time>2026-09-02T20:50:55Z</time>
  <course>262.67</course>
  <speed>1.1994165248152953</speed>
  <fix>3d</fix>
</trkpt>
<trkpt lat="40.0713788" lon="-105.2297295">
  <ele>1582.99</ele>
  <time>2026-09-02T20:50:55Z</time>
  <course>262.57</course>
  <speed>1.2</speed>
  <fix>3d</fix>
</trkpt>
<trkpt lat="40.0713785" lon="-105.2297323">
  <ele>1582.99</ele>
  <time>2026-09-02T20:50:55Z</time>
  <course>262.67</course>
  <speed>1.1894956914591999</speed>
  <fix>3d</fix>
</trkpt>
<trkpt lat="40.0713788" lon="-105.2297295">
  <ele>1582.99</ele>
  <time>2026-09-02T20:50:55Z</time>
  <course>262.57</course>
  <speed>1.2</speed>
  <fix>3d</fix>
</trkpt>
<trkpt lat="40.0713784" lon="-105.2297337">
  <ele>1582.99</ele>
  <time>2026-09-02T20:50:55Z</time>
  <course>262.66</course>
  <speed>1.1894956914591999</speed>
  <fix>3d</fix>
</trkpt>
<trkpt lat="40.0713785" lon="-105.2297323">
  <ele>1582.99</ele>
  <time>2026-09-02T20:50:55Z</time>
  <course>262.56</course>
  <speed>1.2</speed>
  <fix>3d</fix>
</trkpt>
<trkpt lat="40.0713782" lon="-105.2297351">
  <ele>1582.99</ele>
  <time>2026-09-02T20:50:55Z</time>
  <course>262.66</course>
  <speed>1.1894956914591999</speed>
  <fix>3d</fix>
</trkpt>
<trkpt lat="40.0713785" lon="-105.2297323">
  <ele>1582.99</ele>
  <time>2026-09-02T20:50:55Z</time>
  <course>262.56</course>
  <speed>1.2</speed>
  <fix>3d</fix>
</trkpt>
<trkpt lat="40.071378" lon="-105.2297365">
  <ele>1582.99</ele>
  <time>2026-09-02T20:50:55Z</time>
  <course>262.65</course>
  <speed>1.1894956914591999</speed>
  <fix>3d</fix>
</trkpt>
<trkpt lat="40.0713782" lon="-105.2297351">
  <ele>1582.99</ele>
  <time>2026-09-02T20:50:55Z</time>
  <course>262.54</course>
  <speed>1.2</speed>
  <fix>3d</fix>
</trkpt>
<trkpt lat="40.0713779" lon="-105.2297378">
  <ele>1582.99</ele>
  <time>2026-09-02T20:50:55Z</time>
  <course>262.65</course>
  <speed>1.1894956914591999</speed>
  <fix>3d</fix>
</trkpt>
<trkpt lat="40.0713782" lon="-105.2297351">
  <ele>1582.99</ele>
  <time>2026-09-02T20:50:55Z</time>
  <course>262.54</course>
  <speed>1.2</speed>
  <fix>3d</fix>
</trkpt>
<trkpt lat="40.0713778" lon="-105.2297396">
  <ele>1582.99</ele>
  <time>2026-09-02T20:50:55Z</time>
  <course>262.64</course>
  <speed>1.1894956914591999</speed>
  <fix>3d</fix>
</trkpt>
<trkpt lat="40.0713779" lon="-105.2297379">
  <ele>1582.99</ele>
  <time>2026-09-02T20:50:55Z</time>
  <course>262.53</course>
  <speed>1.2</speed>
  <fix>3d</fix>
</trkpt>
<trkpt lat="40.0713777" lon="-105.2297409">
  <ele>1582.99</ele>
  <time>2026-09-02T20:50:55Z</time>
  <course>262.64</course>
  <speed>1.1894956914591999</speed>
  <fix>3d</fix>
</trkpt>
<trkpt lat="40.0713779" lon="-105.2297379">
  <ele>1582.99</ele>
  <time>2026-09-02T20:50:55Z</time>
  <course>262.53</course>
  <speed>1.2</speed>
  <fix>3d</fix>
</trkpt>
<trkpt lat="40.0713774" lon="-105.2297423">
  <ele>1582.99</ele>
  <time>2026-09-02T20:50:55Z</time>
  <course>262.63</course>
  <speed>1.1894956914591999</speed>
  <fix>3d</fix>
</trkpt>
<trkpt lat="40.0713776" lon="-105.2297406">
  <ele>1582.99</ele>
  <time>2026-09-02T20:50:55Z</time>
  <course>262.53</course>
  <speed>1.2</speed>
  <fix>3d</fix>
</trkpt>
<trkpt lat="40.0713773" lon="-105.2297438">
  <ele>1582.99</ele>
  <time>2026-09-02T20:50:55Z</time>
  <course>262.63</course>
  <speed>1.1894956914591999</speed>
  <fix>3d</fix>
</trkpt>
<trkpt lat="40.0713776" lon="-105.2297406">
  <ele>1582.99</ele>
  <time>2026-09-02T20:50:55Z</time>
  <course>262.53</course>
  <speed>1.2</speed>
  <fix>3d</fix>
</trkpt>
<trkpt lat="40.0713772" lon="-105.2297452">
  <ele>1582.99</ele>
  <time>2026-09-02T20:50:55Z</time>
  <course>262.63</course>
  <speed>1.1994165248152953</speed>
  <fix>3d</fix>
</trkpt>
<trkpt lat="40.0713773" lon="-105.2297435">
  <ele>1582.99</ele>
  <time>2026-09-02T20:50:55Z</time>
  <course>262.52</course>
  <speed>1.19</speed>
  <fix>3d</fix>
</trkpt>
<trkpt lat="40.0713771" lon="-105.2297466">
  <ele>1582.99</ele>
  <time>2026-09-02T20:50:55Z</time>
  <course>262.63</course>
  <speed>1.1894956914591999</speed>
  <fix>3d</fix>
</trkpt>
<trkpt lat="40.0713773" lon="-105.2297435">
  <ele>1582.99</ele>
  <time>2026-09-02T20:50:55Z</time>
  <course>262.52</course>
  <speed>1.19</speed>
  <fix>3d</fix>
</trkpt>
<trkpt lat="40.071377" lon="-105.229748">
  <ele>1582.99</ele>
  <time>2026-09-02T20:50:55Z</time>
  <course>262.63</course>
  <speed>1.1894956914591999</speed>
  <fix>3d</fix>
</trkpt>
<trkpt lat="40.0713771" lon="-105.2297462">
  <ele>1582.99</ele>
  <time>2026-09-02T20:50:55Z</time>
  <course>262.52</course>
  <speed>1.19</speed>
  <fix>3d</fix>
</trkpt>
<trkpt lat="40.0713767" lon="-105.2297493">
  <ele>1582.99</ele>
  <time>2026-09-02T20:50:55Z</time>
  <course>262.62</course>
  <speed>1.1894956914591999</speed>
  <fix>3d</fix>
</trkpt>
<trkpt lat="40.0713771" lon="-105.2297462">
  <ele>1582.99</ele>
  <time>2026-09-02T20:50:55Z</time>
  <course>262.52</course>
  <speed>1.19</speed>
  <fix>3d</fix>
</trkpt>
<trkpt lat="40.0713766" lon="-105.2297507">
  <ele>1582.99</ele>
  <time>2026-09-02T20:50:55Z</time>
  <course>262.62</course>
  <speed>1.1994165248152953</speed>
  <fix>3d</fix>
</trkpt>
<trkpt lat="40.0713768" lon="-105.229749">
  <ele>1582.99</ele>
  <time>2026-09-02T20:50:55Z</time>
  <course>262.51</course>
  <speed>1.2</speed>
  <fix>3d</fix>
</trkpt>
<trkpt lat="40.0713765" lon="-105.2297521">
  <ele>1582.99</ele>
  <time>2026-09-02T20:50:55Z</time>
  <course>262.62</course>
  <speed>1.1894956914591999</speed>
  <fix>3d</fix>
</trkpt>
<trkpt lat="40.0713768" lon="-105.229749">
  <ele>1582.99</ele>
  <time>2026-09-02T20:50:55Z</time>
  <course>262.51</course>
  <speed>1.2</speed>
  <fix>3d</fix>
</trkpt>
<trkpt lat="40.0713764" lon="-105.2297536">
  <ele>1582.99</ele>
  <time>2026-09-02T20:50:55Z</time>
  <course>262.61</course>
  <speed>1.1994165248152953</speed>
  <fix>3d</fix>
</trkpt>
<trkpt lat="40.0713765" lon="-105.2297519">
  <ele>1582.99</ele>
  <time>2026-09-02T20:50:55Z</time>
  <course>262.5</course>
  <speed>1.2</speed>
  <fix>3d</fix>
</trkpt>
<trkpt lat="40.0713763" lon="-105.2297547">
  <ele>1582.99</ele>
  <time>2026-09-02T20:50:55Z</time>
  <course>262.61</course>
  <speed>1.1894956914591999</speed>
  <fix>3d</fix>
</trkpt>
<trkpt lat="40.0713765" lon="-105.2297519">
  <ele>1582.99</ele>
  <time>2026-09-02T20:50:55Z</time>
  <course>262.5</course>
  <speed>1.2</speed>
  <fix>3d</fix>
</trkpt>
<trkpt lat="40.071376" lon="-105.229756">
  <ele>1582.99</ele>
  <time>2026-09-02T20:50:55Z</time>
  <course>262.61</course>
  <speed>1.1994165248152953</speed>
  <fix>3d</fix>
</trkpt>
<trkpt lat="40.0713762" lon="-105.2297547">
  <ele>1582.99</ele>
  <time>2026-09-02T20:50:55Z</time>
  <course>262.5</course>
  <speed>1.2</speed>
  <fix>3d</fix>
</trkpt>
<trkpt lat="40.071376" lon="-105.2297574">
  <ele>1582.99</ele>
  <time>2026-09-02T20:50:55Z</time>
  <course>262.61</course>
  <speed>1.1894956914591999</speed>
  <fix>3d</fix>
</trkpt>
<trkpt lat="40.0713762" lon="-105.2297547">
  <ele>1582.99</ele>
  <time>2026-09-02T20:50:55Z</time>
  <course>262.5</course>
  <speed>1.2</speed>
  <fix>3d</fix>
</trkpt>
<trkpt lat="40.0713759" lon="-105.2297588">
  <ele>1582.99</ele>
  <time>2026-09-02T20:50:55Z</time>
  <course>262.6</course>
  <speed>1.1894956914591999</speed>
  <fix>3d</fix>
</trkpt>
<trkpt lat="40.071376" lon="-105.2297574">
  <ele>1582.99</ele>
  <time>2026-09-02T20:50:55Z</time>
  <course>262.49</course>
  <speed>1.2</speed>
  <fix>3d</fix>
</trkpt>
<trkpt lat="40.0713757" lon="-105.2297603">
  <ele>1582.99</ele>
  <time>2026-09-02T20:50:55Z</time>
  <course>262.6</course>
  <speed>1.1894956914591999</speed>
  <fix>3d</fix>
</trkpt>
<trkpt lat="40.071376" lon="-105.2297574">
  <ele>1582.99</ele>
  <time>2026-09-02T20:50:55Z</time>
  <course>262.49</course>
  <speed>1.2</speed>
  <fix>3d</fix>
</trkpt>
<trkpt lat="40.0713755" lon="-105.2297617">
  <ele>1582.99</ele>
  <time>2026-09-02T20:50:55Z</time>
  <course>262.6</course>
  <speed>1.1994165248152953</speed>
  <fix>3d</fix>
</trkpt>
<trkpt lat="40.0713757" lon="-105.2297603">
  <ele>1582.99</ele>
  <time>2026-09-02T20:50:55Z</time>
  <course>262.48</course>
  <speed>1.2</speed>
  <fix>3d</fix>
</trkpt>
<trkpt lat="40.0713754" lon="-105.2297631">
  <ele>1582.99</ele>
  <time>2026-09-02T20:50:55Z</time>
  <course>262.6</course>
  <speed>1.1894956914591999</speed>
  <fix>3d</fix>
</trkpt>
<trkpt lat="40.0713757" lon="-105.2297603">
  <ele>1582.99</ele>
  <time>2026-09-02T20:50:55Z</time>
  <course>262.48</course>
  <speed>1.2</speed>
  <fix>3d</fix>
</trkpt>
<trkpt lat="40.0713753" lon="-105.2297645">
  <ele>1582.99</ele>
  <time>2026-09-02T20:50:55Z</time>
  <course>262.6</course>
  <speed>1.1994165248152953</speed>
  <fix>3d</fix>
</trkpt>
<trkpt lat="40.0713754" lon="-105.2297631">
  <ele>1582.99</ele>
  <time>2026-09-02T20:50:55Z</time>
  <course>262.48</course>
  <speed>1.2</speed>
  <fix>3d</fix>
</trkpt>
<trkpt lat="40.0713752" lon="-105.2297658">
  <ele>1582.99</ele>
  <time>2026-09-02T20:50:55Z</time>
  <course>262.6</course>
  <speed>1.1894956914591999</speed>
  <fix>3d</fix>
</trkpt>
<trkpt lat="40.0713754" lon="-105.2297631">
  <ele>1582.99</ele>
  <time>2026-09-02T20:50:55Z</time>
  <course>262.48</course>
  <speed>1.2</speed>
  <fix>3d</fix>
</trkpt>
<trkpt lat="40.0713749" lon="-105.2297675">
  <ele>1582.99</ele>
  <time>2026-09-02T20:50:55Z</time>
  <course>262.59</course>
  <speed>1.1994165248152953</speed>
  <fix>3d</fix>
</trkpt>
<trkpt lat="40.0713751" lon="-105.2297658">
  <ele>1582.99</ele>
  <time>2026-09-02T20:50:55Z</time>
  <course>262.48</course>
  <speed>1.2</speed>
  <fix>3d</fix>
</trkpt>
<trkpt lat="40.0713748" lon="-105.2297689">
  <ele>1582.99</ele>
  <time>2026-09-02T20:50:55Z</time>
  <course>262.6</course>
  <speed>1.1894956914591999</speed>
  <fix>3d</fix>
</trkpt>
<trkpt lat="40.0713751" lon="-105.2297658">
  <ele>1582.99</ele>
  <time>2026-09-02T20:50:55Z</time>
  <course>262.48</course>
  <speed>1.2</speed>
  <fix>3d</fix>
</trkpt>
<trkpt lat="40.0713747" lon="-105.2297703">
  <ele>1582.99</ele>
  <time>2026-09-02T20:50:55Z</time>
  <course>262.59</course>
  <speed>1.1894956914591999</speed>
  <fix>3d</fix>
</trkpt>
<trkpt lat="40.0713748" lon="-105.2297686">
  <ele>1582.99</ele>
  <time>2026-09-02T20:50:55Z</time>
  <course>262.48</course>
  <speed>1.2</speed>
  <fix>3d</fix>
</trkpt>
<trkpt lat="40.0713746" lon="-105.2297717">
  <ele>1582.99</ele>
  <time>2026-09-02T20:50:55Z</time>
  <course>262.59</course>
  <speed>1.1894956914591999</speed>
  <fix>3d</fix>
</trkpt>
<trkpt lat="40.0713748" lon="-105.2297686">
  <ele>1582.99</ele>
  <time>2026-09-02T20:50:55Z</time>
  <course>262.48</course>
  <speed>1.2</speed>
  <fix>3d</fix>
</trkpt>
<trkpt lat="40.0713743" lon="-105.229773">
  <ele>1582.99</ele>
  <time>2026-09-02T20:50:55Z</time>
  <course>262.59</course>
  <speed>1.1994165248152953</speed>
  <fix>3d</fix>
</trkpt>
<trkpt lat="40.0713745" lon="-105.2297714">
  <ele>1582.99</ele>
  <time>2026-09-02T20:50:55Z</time>
  <course>262.47</course>
  <speed>1.2</speed>
  <fix>3d</fix>
</trkpt>
<trkpt lat="40.0713742" lon="-105.2297744">
  <ele>1582.99</ele>
  <time>2026-09-02T20:50:55Z</time>
  <course>262.59</course>
  <speed>1.1894956914591999</speed>
  <fix>3d</fix>
</trkpt>
<trkpt lat="40.0713745" lon="-105.2297714">
  <ele>1582.99</ele>
  <time>2026-09-02T20:50:55Z</time>
  <course>262.47</course>
  <speed>1.2</speed>
  <fix>3d</fix>
</trkpt>
<trkpt lat="40.0713741" lon="-105.2297758">
  <ele>1582.99</ele>
  <time>2026-09-02T20:50:55Z</time>
  <course>262.59</course>
  <speed>1.1894956914591999</speed>
  <fix>3d</fix>
</trkpt>
<trkpt lat="40.0713743" lon="-105.2297742">
  <ele>1582.99</ele>
  <time>2026-09-02T20:50:55Z</time>
  <course>262.47</course>
  <speed>1.2</speed>
  <fix>3d</fix>
</trkpt>
<trkpt lat="40.071374" lon="-105.2297773">
  <ele>1582.99</ele>
  <time>2026-09-02T20:50:55Z</time>
  <course>262.58</course>
  <speed>1.1894956914591999</speed>
  <fix>3d</fix>
</trkpt>
<trkpt lat="40.0713743" lon="-105.2297742">
  <ele>1582.99</ele>
  <time>2026-09-02T20:50:55Z</time>
  <course>262.47</course>
  <speed>1.2</speed>
  <fix>3d</fix>
</trkpt>
<trkpt lat="40.0713739" lon="-105.2297787">
  <ele>1582.99</ele>
  <time>2026-09-02T20:50:55Z</time>
  <course>262.58</course>
  <speed>1.1894956914591999</speed>
  <fix>3d</fix>
</trkpt>
<trkpt lat="40.071374" lon="-105.229777">
  <ele>1582.99</ele>
  <time>2026-09-02T20:50:55Z</time>
  <course>262.47</course>
  <speed>1.2</speed>
  <fix>3d</fix>
</trkpt>
<trkpt lat="40.0713736" lon="-105.2297801">
  <ele>1582.99</ele>
  <time>2026-09-02T20:50:55Z</time>
  <course>262.58</course>
  <speed>1.1894956914591999</speed>
  <fix>3d</fix>
</trkpt>
<trkpt lat="40.071374" lon="-105.229777">
  <ele>1582.99</ele>
  <time>2026-09-02T20:50:55Z</time>
  <course>262.47</course>
  <speed>1.2</speed>
  <fix>3d</fix>
</trkpt>
<trkpt lat="40.0713736" lon="-105.2297815">
  <ele>1582.99</ele>
  <time>2026-09-02T20:50:55Z</time>
  <course>262.58</course>
  <speed>1.1994165248152953</speed>
  <fix>3d</fix>
</trkpt>
<trkpt lat="40.0713737" lon="-105.2297797">
  <ele>1582.99</ele>
  <time>2026-09-02T20:50:55Z</time>
  <course>262.47</course>
  <speed>1.2</speed>
  <fix>3d</fix>
</trkpt>
<trkpt lat="40.0713734" lon="-105.2297828">
  <ele>1582.99</ele>
  <time>2026-09-02T20:50:55Z</time>
  <course>262.58</course>
  <speed>1.1894956914591999</speed>
  <fix>3d</fix>
</trkpt>
<trkpt lat="40.0713737" lon="-105.2297797">
  <ele>1582.99</ele>
  <time>2026-09-02T20:50:55Z</time>
  <course>262.47</course>
  <speed>1.2</speed>
  <fix>3d</fix>
</trkpt>
<trkpt lat="40.0713733" lon="-105.229784">
  <ele>1582.99</ele>
  <time>2026-09-02T20:50:55Z</time>
  <course>262.58</course>
  <speed>1.1994165248152953</speed>
  <fix>3d</fix>
</trkpt>
<trkpt lat="40.0713734" lon="-105.2297825">
  <ele>1582.99</ele>
  <time>2026-09-02T20:50:55Z</time>
  <course>262.46</course>
  <speed>1.2</speed>
  <fix>3d</fix>
</trkpt>
<trkpt lat="40.0713731" lon="-105.2297854">
  <ele>1582.99</ele>
  <time>2026-09-02T20:50:55Z</time>
  <course>262.58</course>
  <speed>1.1894956914591999</speed>
  <fix>3d</fix>
</trkpt>
<trkpt lat="40.0713734" lon="-105.2297825">
  <ele>1582.99</ele>
  <time>2026-09-02T20:50:55Z</time>
  <course>262.46</course>
  <speed>1.2</speed>
  <fix>3d</fix>
</trkpt>
<trkpt lat="40.071373" lon="-105.2297868">
  <ele>1582.99</ele>
  <time>2026-09-02T20:50:55Z</time>
  <course>262.58</course>
  <speed>1.1994165248152953</speed>
  <fix>3d</fix>
</trkpt>
<trkpt lat="40.0713731" lon="-105.2297854">
  <ele>1582.99</ele>
  <time>2026-09-02T20:50:55Z</time>
  <course>262.46</course>
  <speed>1.2</speed>
  <fix>3d</fix>
</trkpt>
<trkpt lat="40.0713729" lon="-105.2297882">
  <ele>1582.99</ele>
  <time>2026-09-02T20:50:55Z</time>
  <course>262.57</course>
  <speed>1.1894956914591999</speed>
  <fix>3d</fix>
</trkpt>
<trkpt lat="40.0713731" lon="-105.2297854">
  <ele>1582.99</ele>
  <time>2026-09-02T20:50:55Z</time>
  <course>262.46</course>
  <speed>1.2</speed>
  <fix>3d</fix>
</trkpt>
<trkpt lat="40.0713728" lon="-105.2297895">
  <ele>1582.99</ele>
  <time>2026-09-02T20:50:55Z</time>
  <course>262.57</course>
  <speed>1.1994165248152953</speed>
  <fix>3d</fix>
</trkpt>
<trkpt lat="40.0713729" lon="-105.2297882">
  <ele>1582.99</ele>
  <time>2026-09-02T20:50:55Z</time>
  <course>262.46</course>
  <speed>1.2</speed>
  <fix>3d</fix>
</trkpt>
<trkpt lat="40.0713725" lon="-105.2297909">
  <ele>1582.99</ele>
  <time>2026-09-02T20:50:55Z</time>
  <course>262.57</course>
  <speed>1.1894956914591999</speed>
  <fix>3d</fix>
</trkpt>
<trkpt lat="40.0713729" lon="-105.2297882">
  <ele>1582.99</ele>
  <time>2026-09-02T20:50:55Z</time>
  <course>262.46</course>
  <speed>1.2</speed>
  <fix>3d</fix>
</trkpt>
<trkpt lat="40.0713724" lon="-105.2297923">
  <ele>1582.99</ele>
  <time>2026-09-02T20:50:55Z</time>
  <course>262.57</course>
  <speed>1.1994165248152953</speed>
  <fix>3d</fix>
</trkpt>
<trkpt lat="40.0713726" lon="-105.2297909">
  <ele>1582.99</ele>
  <time>2026-09-02T20:50:55Z</time>
  <course>262.45</course>
  <speed>1.2</speed>
  <fix>3d</fix>
</trkpt>
<trkpt lat="40.0713723" lon="-105.2297938">
  <ele>1582.99</ele>
  <time>2026-09-02T20:50:55Z</time>
  <course>262.57</course>
  <speed>1.1894956914591999</speed>
  <fix>3d</fix>
</trkpt>
<trkpt lat="40.0713726" lon="-105.2297909">
  <ele>1582.99</ele>
  <time>2026-09-02T20:50:55Z</time>
  <course>262.45</course>
  <speed>1.2</speed>
  <fix>3d</fix>
</trkpt>
<trkpt lat="40.0713722" lon="-105.2297952">
  <ele>1582.99</ele>
  <time>2026-09-02T20:50:55Z</time>
  <course>262.57</course>
  <speed>1.1994165248152953</speed>
  <fix>3d</fix>
</trkpt>
<trkpt lat="40.0713723" lon="-105.2297938">
  <ele>1582.99</ele>
  <time>2026-09-02T20:50:55Z</time>
  <course>262.45</course>
  <speed>1.2</speed>
  <fix>3d</fix>
</trkpt>
<trkpt lat="40.0713719" lon="-105.2297969">
  <ele>1582.99</ele>
  <time>2026-09-02T20:50:55Z</time>
  <course>262.56</course>
  <speed>1.1994165248152953</speed>
  <fix>3d</fix>
</trkpt>
<trkpt lat="40.0713723" lon="-105.2297938">
  <ele>1582.99</ele>
  <time>2026-09-02T20:50:55Z</time>
  <course>262.45</course>
  <speed>1.2</speed>
  <fix>3d</fix>
</trkpt>
<trkpt lat="40.0713718" lon="-105.2297983">
  <ele>1582.99</ele>
  <time>2026-09-02T20:50:55Z</time>
  <course>262.56</course>
  <speed>1.1894956914591999</speed>
  <fix>3d</fix>
</trkpt>
<trkpt lat="40.071372" lon="-105.2297965">
  <ele>1582.99</ele>
  <time>2026-09-02T20:50:55Z</time>
  <course>262.45</course>
  <speed>1.2</speed>
  <fix>3d</fix>
</trkpt>
<trkpt lat="40.0713717" lon="-105.2297997">
  <ele>1582.99</ele>
  <time>2026-09-02T20:50:55Z</time>
  <course>262.56</course>
  <speed>1.1994165248152953</speed>
  <fix>3d</fix>
</trkpt>
<trkpt lat="40.071372" lon="-105.2297965">
  <ele>1582.99</ele>
  <time>2026-09-02T20:50:55Z</time>
  <course>262.45</course>
  <speed>1.2</speed>
  <fix>3d</fix>
</trkpt>
<trkpt lat="40.0713716" lon="-105.229801">
  <ele>1582.99</ele>
  <time>2026-09-02T20:50:55Z</time>
  <course>262.56</course>
  <speed>1.1894956914591999</speed>
  <fix>3d</fix>
</trkpt>
<trkpt lat="40.0713717" lon="-105.2297993">
  <ele>1582.99</ele>
  <time>2026-09-02T20:50:55Z</time>
  <course>262.44</course>
  <speed>1.19</speed>
  <fix>3d</fix>
</trkpt>
<trkpt lat="40.0713715" lon="-105.2298024">
  <ele>1582.99</ele>
  <time>2026-09-02T20:50:55Z</time>
  <course>262.56</course>
  <speed>1.1894956914591999</speed>
  <fix>3d</fix>
</trkpt>
<trkpt lat="40.0713717" lon="-105.2297993">
  <ele>1582.99</ele>
  <time>2026-09-02T20:50:55Z</time>
  <course>262.44</course>
  <speed>1.19</speed>
  <fix>3d</fix>
</trkpt>
<trkpt lat="40.0713712" lon="-105.2298038">
  <ele>1582.99</ele>
  <time>2026-09-02T20:50:55Z</time>
  <course>262.56</course>
  <speed>1.1994165248152953</speed>
  <fix>3d</fix>
</trkpt>
<trkpt lat="40.0713714" lon="-105.2298022">
  <ele>1582.99</ele>
  <time>2026-09-02T20:50:55Z</time>
  <course>262.44</course>
  <speed>1.2</speed>
  <fix>3d</fix>
</trkpt>
<trkpt lat="40.0713712" lon="-105.2298052">
  <ele>1582.99</ele>
  <time>2026-09-02T20:50:55Z</time>
  <course>262.56</course>
  <speed>1.1894956914591999</speed>
  <fix>3d</fix>
</trkpt>
<trkpt lat="40.0713714" lon="-105.2298022">
  <ele>1582.99</ele>
  <time>2026-09-02T20:50:55Z</time>
  <course>262.44</course>
  <speed>1.2</speed>
  <fix>3d</fix>
</trkpt>
<trkpt lat="40.071371" lon="-105.2298065">
  <ele>1582.99</ele>
  <time>2026-09-02T20:50:55Z</time>
  <course>262.56</course>
  <speed>1.1994165248152953</speed>
  <fix>3d</fix>
</trkpt>
<trkpt lat="40.0713712" lon="-105.229805">
  <ele>1582.99</ele>
  <time>2026-09-02T20:50:55Z</time>
  <course>262.44</course>
  <speed>1.2</speed>
  <fix>3d</fix>
</trkpt>
<trkpt lat="40.0713709" lon="-105.2298079">
  <ele>1582.99</ele>
  <time>2026-09-02T20:50:55Z</time>
  <course>262.56</course>
  <speed>1.1894956914591999</speed>
  <fix>3d</fix>
</trkpt>
<trkpt lat="40.0713712" lon="-105.229805">
  <ele>1582.99</ele>
  <time>2026-09-02T20:50:55Z</time>
  <course>262.44</course>
  <speed>1.2</speed>
  <fix>3d</fix>
</trkpt>
<trkpt lat="40.0713706" lon="-105.2298093">
  <ele>1582.99</ele>
  <time>2026-09-02T20:50:55Z</time>
  <course>262.56</course>
  <speed>1.1994165248152953</speed>
  <fix>3d</fix>
</trkpt>
<trkpt lat="40.0713709" lon="-105.2298078">
  <ele>1582.99</ele>
  <time>2026-09-02T20:50:55Z</time>
  <course>262.44</course>
  <speed>1.2</speed>
  <fix>3d</fix>
</trkpt>
<trkpt lat="40.0713706" lon="-105.2298108">
  <ele>1582.99</ele>
  <time>2026-09-02T20:50:55Z</time>
  <course>262.56</course>
  <speed>1.1894956914591999</speed>
  <fix>3d</fix>
</trkpt>
<trkpt lat="40.0713709" lon="-105.2298078">
  <ele>1582.99</ele>
  <time>2026-09-02T20:50:55Z</time>
  <course>262.44</course>
  <speed>1.2</speed>
  <fix>3d</fix>
</trkpt>
<trkpt lat="40.0713705" lon="-105.2298119">
  <ele>1582.99</ele>
  <time>2026-09-02T20:50:55Z</time>
  <course>262.56</course>
  <speed>1.1894956914591999</speed>
  <fix>3d</fix>
</trkpt>
<trkpt lat="40.0713706" lon="-105.2298105">
  <ele>1582.99</ele>
  <time>2026-09-02T20:50:55Z</time>
  <course>262.44</course>
  <speed>1.19</speed>
  <fix>3d</fix>
</trkpt>
<trkpt lat="40.0713703" lon="-105.2298132">
  <ele>1582.99</ele>
  <time>2026-09-02T20:50:55Z</time>
  <course>262.56</course>
  <speed>1.1894956914591999</speed>
  <fix>3d</fix>
</trkpt>
<trkpt lat="40.0713706" lon="-105.2298105">
  <ele>1582.99</ele>
  <time>2026-09-02T20:50:55Z</time>
  <course>262.44</course>
  <speed>1.19</speed>
  <fix>3d</fix>
</trkpt>
<trkpt lat="40.0713701" lon="-105.2298146">
  <ele>1582.99</ele>
  <time>2026-09-02T20:50:55Z</time>
  <course>262.56</course>
  <speed>1.1994165248152953</speed>
  <fix>3d</fix>
</trkpt>
<trkpt lat="40.0713703" lon="-105.2298132">
  <ele>1582.99</ele>
  <time>2026-09-02T20:50:55Z</time>
  <course>262.44</course>
  <speed>1.2</speed>
  <fix>3d</fix>
</trkpt>
<trkpt lat="40.07137" lon="-105.2298162">
  <ele>1583.0</ele>
  <time>2026-09-02T20:50:55Z</time>
  <course>262.56</course>
  <speed>1.2106196760337244</speed>
  <fix>3d</fix>
</trkpt>
<trkpt lat="40.0713703" lon="-105.2298132">
  <ele>1582.99</ele>
  <time>2026-09-02T20:50:55Z</time>
  <course>262.44</course>
  <speed>1.2</speed>
  <fix>3d</fix>
</trkpt>
<trkpt lat="40.0713699" lon="-105.2298175">
  <ele>1582.99</ele>
  <time>2026-09-02T20:50:55Z</time>
  <course>262.57</course>
  <speed>1.1696580696938743</speed>
  <fix>3d</fix>
</trkpt>
<trkpt lat="40.07137" lon="-105.229816">
  <ele>1582.99</ele>
  <time>2026-09-02T20:50:55Z</time>
  <course>262.44</course>
  <speed>1.18</speed>
  <fix>3d</fix>
</trkpt>
<trkpt lat="40.0713698" lon="-105.2298189">
  <ele>1582.99</ele>
  <time>2026-09-02T20:50:55Z</time>
  <course>262.57</course>
  <speed>1.149826073804208</speed>
  <fix>3d</fix>
</trkpt>
<trkpt lat="40.07137" lon="-105.229816">
  <ele>1582.99</ele>
  <time>2026-09-02T20:50:55Z</time>
  <course>262.44</course>
  <speed>1.18</speed>
  <fix>3d</fix>
</trkpt>
<trkpt lat="40.0713697" lon="-105.2298201">
  <ele>1582.99</ele>
  <time>2026-09-02T20:50:55Z</time>
  <course>262.58</course>
  <speed>1.0692053123698928</speed>
  <fix>3d</fix>
</trkpt>
<trkpt lat="40.0713698" lon="-105.2298188">
  <ele>1582.99</ele>
  <time>2026-09-02T20:50:55Z</time>
  <course>262.44</course>
  <speed>1.12</speed>
  <fix>3d</fix>
</trkpt>
<trkpt lat="40.0713694" lon="-105.2298213">
  <ele>1582.99</ele>
  <time>2026-09-02T20:50:55Z</time>
  <course>262.58</course>
  <speed>1.0183319694480775</speed>
  <fix>3d</fix>
</trkpt>
<trkpt lat="40.0713698" lon="-105.2298188">
  <ele>1582.99</ele>
  <time>2026-09-02T20:50:55Z</time>
  <course>262.44</course>
  <speed>1.12</speed>
  <fix>3d</fix>
</trkpt>
<trkpt lat="40.0713693" lon="-105.2298225">
  <ele>1582.99</ele>
  <time>2026-09-02T20:50:55Z</time>
  <course>262.59</course>
  <speed>0.906697303403953</speed>
  <fix>3d</fix>
</trkpt>
<trkpt lat="40.0713695" lon="-105.2298213">
  <ele>1582.99</ele>
  <time>2026-09-02T20:50:55Z</time>
  <course>262.44</course>
  <speed>0.99</speed>
  <fix>3d</fix>
</trkpt>
<trkpt lat="40.0713693" lon="-105.2298235">
  <ele>1582.99</ele>
  <time>2026-09-02T20:50:55Z</time>
  <course>262.62</course>
  <speed>0.8062257748298549</speed>
  <fix>3d</fix>
</trkpt>
<trkpt lat="40.0713695" lon="-105.2298213">
  <ele>1582.99</ele>
  <time>2026-09-02T20:50:55Z</time>
  <course>262.44</course>
  <speed>0.99</speed>
  <fix>3d</fix>
</trkpt>
<trkpt lat="40.0713692" lon="-105.2298244">
  <ele>1582.99</ele>
  <time>2026-09-02T20:50:55Z</time>
  <course>262.63</course>
  <speed>0.6449806198638839</speed>
  <fix>3d</fix>
</trkpt>
<trkpt lat="40.0713693" lon="-105.2298234">
  <ele>1582.99</ele>
  <time>2026-09-02T20:50:55Z</time>
  <course>262.43</course>
  <speed>0.79</speed>
  <fix>3d</fix>
</trkpt>
<trkpt lat="40.0713691" lon="-105.2298251">
  <ele>1582.99</ele>
  <time>2026-09-02T20:50:55Z</time>
  <course>262.65</course>
  <speed>0.523450093132096</speed>
  <fix>3d</fix>
</trkpt>
<trkpt lat="40.0713693" lon="-105.2298234">
  <ele>1582.99</ele>
  <time>2026-09-02T20:50:55Z</time>
  <course>262.43</course>
  <speed>0.79</speed>
  <fix>3d</fix>
</trkpt>
<trkpt lat="40.0713691" lon="-105.2298256">
  <ele>1582.99</ele>
  <time>2026-09-02T20:50:55Z</time>
  <course>262.67</course>
  <speed>0.3622154055254967</speed>
  <fix>3d</fix>
</trkpt>
<trkpt lat="40.0713691" lon="-105.229825">
  <ele>1582.99</ele>
  <time>2026-09-02T20:50:55Z</time>
  <course>262.39</course>
  <speed>0.53</speed>
  <fix>3d</fix>
</trkpt>
<trkpt lat="40.0713691" lon="-105.2298259">
  <ele>1582.99</ele>
  <time>2026-09-02T20:50:55Z</time>
  <course>262.69</course>
  <speed>0.2220360331117452</speed>
  <fix>3d</fix>
</trkpt>
<trkpt lat="40.0713691" lon="-105.229825">
  <ele>1582.99</ele>
  <time>2026-09-02T20:50:55Z</time>
  <course>262.39</course>
  <speed>0.53</speed>
  <fix>3d</fix>
</trkpt>
<trkpt lat="40.071369" lon="-105.2298261">
  <ele>1582.99</ele>
  <time>2026-09-02T20:50:55Z</time>
  <course>262.71</course>
  <speed>0.09055385138137417</speed>
  <fix>3d</fix>
</trkpt>
<trkpt lat="40.071369" lon="-105.2298259">
  <ele>1582.99</ele>
  <time>2026-09-02T20:50:55Z</time>
  <course>262.15</course>
  <speed>0.25</speed>
  <fix>3d</fix>
</trkpt>
<trkpt lat="40.071369" lon="-105.2298263">
  <ele>1582.99</ele>
  <time>2026-09-02T20:50:55Z</time>
  <course>262.73</course>
  <speed>0.0</speed>
  <fix>3d</fix>
</trkpt>
<trkpt lat="40.071369" lon="-105.2298259">
  <ele>1582.99</ele>
  <time>2026-09-02T20:50:55Z</time>
  <course>262.15</course>
  <speed>0.25</speed>
  <fix>3d</fix>
</trkpt>
<trkpt lat="40.071369" lon="-105.2298261">
  <ele>1582.99</ele>
  <time>2026-09-02T20:50:55Z</time>
  <course>262.76</course>
  <speed>0.1004987562112089</speed>
  <fix>3d</fix>
</trkpt>
<trkpt lat="40.071369" lon="-105.2298261">
  <ele>1582.99</ele>
  <time>2026-09-02T20:50:55Z</time>
  <course>252.19</course>
  <speed>0.01</speed>
  <fix>3d</fix>
</trkpt>
<trkpt lat="40.071369" lon="-105.2298261">
  <ele>1582.99</ele>
  <time>2026-09-02T20:50:55Z</time>
  <course>262.78</course>
  <speed>0.12041594578792296</speed>
  <fix>3d</fix>
</trkpt>
<trkpt lat="40.071369" lon="-105.2298261">
  <ele>1582.99</ele>
  <time>2026-09-02T20:50:55Z</time>
  <course>252.19</course>
  <speed>0.01</speed>
  <fix>3d</fix>
</trkpt>
<trkpt lat="40.0713691" lon="-105.2298259">
  <ele>1582.99</ele>
  <time>2026-09-02T20:50:55Z</time>
  <course>262.8</course>
  <speed>0.18110770276274835</speed>
  <fix>3d</fix>
</trkpt>
<trkpt lat="40.071369" lon="-105.229826">
  <ele>1582.99</ele>
  <time>2026-09-02T20:50:55Z</time>
  <course>83.76</course>
  <speed>0.13</speed>
  <fix>3d</fix>
</trkpt>
<trkpt lat="40.0713691" lon="-105.2298256">
  <ele>1583.0</ele>
  <time>2026-09-02T20:50:55Z</time>
  <course>262.82</course>
  <speed>0.15033296378372907</speed>
  <fix>3d</fix>
</trkpt>
<trkpt lat="40.071369" lon="-105.229826">
  <ele>1582.99</ele>
  <time>2026-09-02T20:50:55Z</time>
  <course>83.76</course>
  <speed>0.13</speed>
  <fix>3d</fix>
</trkpt>
<trkpt lat="40.0713691" lon="-105.2298256">
  <ele>1583.0</ele>
  <time>2026-09-02T20:50:55Z</time>
  <course>262.84</course>
  <speed>0.15033296378372907</speed>
  <fix>3d</fix>
</trkpt>
<trkpt lat="40.0713691" lon="-105.2298257">
  <ele>1582.99</ele>
  <time>2026-09-02T20:50:55Z</time>
  <course>83.6</course>
  <speed>0.16</speed>
  <fix>3d</fix>
</trkpt>
<trkpt lat="40.0713691" lon="-105.2298254">
  <ele>1583.0</ele>
  <time>2026-09-02T20:50:55Z</time>
  <course>262.85</course>
  <speed>0.11045361017187261</speed>
  <fix>3d</fix>
</trkpt>
<trkpt lat="40.0713691" lon="-105.2298257">
  <ele>1582.99</ele>
  <time>2026-09-02T20:50:55Z</time>
  <course>83.6</course>
  <speed>0.16</speed>
  <fix>3d</fix>
</trkpt>
<trkpt lat="40.0713691" lon="-105.2298254">
  <ele>1582.99</ele>
  <time>2026-09-02T20:50:55Z</time>
  <course>262.87</course>
  <speed>0.09</speed>
  <fix>3d</fix>
</trkpt>
<trkpt lat="40.0713691" lon="-105.2298255">
  <ele>1582.99</ele>
  <time>2026-09-02T20:50:55Z</time>
  <course>83.91</course>
  <speed>0.12</speed>
  <fix>3d</fix>
</trkpt>
<trkpt lat="40.0713691" lon="-105.2298253">
  <ele>1582.99</ele>
  <time>2026-09-02T20:50:55Z</time>
  <course>262.89</course>
  <speed>0.03</speed>
  <fix>3d</fix>
</trkpt>
<trkpt lat="40.0713691" lon="-105.2298255">
  <ele>1582.99</ele>
  <time>2026-09-02T20:50:55Z</time>
  <course>83.91</course>
  <speed>0.12</speed>
  <fix>3d</fix>
</trkpt>
<trkpt lat="40.0713691" lon="-105.2298253">
  <ele>1582.99</ele>
  <time>2026-09-02T20:50:55Z</time>
  <course>262.91</course>
  <speed>0.0</speed>
  <fix>3d</fix>
</trkpt>
<trkpt lat="40.0713691" lon="-105.2298253">
  <ele>1582.99</ele>
  <time>2026-09-02T20:50:55Z</time>
  <course>85.7</course>
  <speed>0.04</speed>
  <fix>3d</fix>
</trkpt>
<trkpt lat="40.0713691" lon="-105.2298253">
  <ele>1582.99</ele>
  <time>2026-09-02T20:50:55Z</time>
  <course>262.93</course>
  <speed>0.04</speed>
  <fix>3d</fix>
</trkpt>
<trkpt lat="40.0713691" lon="-105.2298253">
  <ele>1582.99</ele>
  <time>2026-09-02T20:50:55Z</time>
  <course>85.7</course>
  <speed>0.04</speed>
  <fix>3d</fix>
</trkpt>
<trkpt lat="40.0713691" lon="-105.2298254">
  <ele>1582.99</ele>
  <time>2026-09-02T20:50:55Z</time>
  <course>262.95</course>
  <speed>0.07071067811865475</speed>
  <fix>3d</fix>
</trkpt>
<trkpt lat="40.0713691" lon="-105.2298253">
  <ele>1582.99</ele>
  <time>2026-09-02T20:50:55Z</time>
  <course>259.39</course>
  <speed>0.03</speed>
  <fix>3d</fix>
</trkpt>
<trkpt lat="40.0713691" lon="-105.2298254">
  <ele>1582.99</ele>
  <time>2026-09-02T20:50:55Z</time>
  <course>262.97</course>
  <speed>0.11045361017187261</speed>
  <fix>3d</fix>
</trkpt>
<trkpt lat="40.0713691" lon="-105.2298253">
  <ele>1582.99</ele>
  <time>2026-09-02T20:50:55Z</time>
  <course>259.39</course>
  <speed>0.03</speed>
  <fix>3d</fix>
</trkpt>
<trkpt lat="40.0713691" lon="-105.2298256">
  <ele>1582.99</ele>
  <time>2026-09-02T20:50:55Z</time>
  <course>262.98</course>
  <speed>0.130384048104053</speed>
  <fix>3d</fix>
</trkpt>
<trkpt lat="40.0713691" lon="-105.2298255">
  <ele>1582.99</ele>
  <time>2026-09-02T20:50:55Z</time>
  <course>261.69</course>
  <speed>0.1</speed>
  <fix>3d</fix>
</trkpt>
<trkpt lat="40.0713691" lon="-105.2298256">
  <ele>1582.99</ele>
  <time>2026-09-02T20:50:55Z</time>
  <course>263.0</course>
  <speed>0.130384048104053</speed>
  <fix>3d</fix>
</trkpt>
<trkpt lat="40.0713691" lon="-105.2298255">
  <ele>1582.99</ele>
  <time>2026-09-02T20:50:55Z</time>
  <course>261.69</course>
  <speed>0.1</speed>
  <fix>3d</fix>
</trkpt>
<trkpt lat="40.071369" lon="-105.2298259">
  <ele>1582.99</ele>
  <time>2026-09-02T20:50:55Z</time>
  <course>262.99</course>
  <speed>0.18110770276274835</speed>
  <fix>3d</fix>
</trkpt>
<trkpt lat="40.071369" lon="-105.2298257">
  <ele>1582.99</ele>
  <time>2026-09-02T20:50:55Z</time>
  <course>262.13</course>
  <speed>0.15</speed>
  <fix>3d</fix>
</trkpt>
<trkpt lat="40.071369" lon="-105.2298259">
  <ele>1582.99</ele>
  <time>2026-09-02T20:50:55Z</time>
  <course>0.0</course>
  <speed>0.35128336140500593</speed>
  <fix>3d</fix>
</trkpt>
<trkpt lat="40.071369" lon="-105.2298257">
  <ele>1582.99</ele>
  <time>2026-09-02T20:50:55Z</time>
  <course>262.13</course>
  <speed>0.15</speed>
  <fix>3d</fix>
</trkpt>
<trkpt lat="40.0713692" lon="-105.2298259">
  <ele>1582.99</ele>
  <time>2026-09-02T20:50:55Z</time>
  <course>0.0</course>
  <speed>0.02</speed>
  <fix>3d</fix>
</trkpt>
<trkpt lat="40.0713691" lon="-105.2298259">
  <ele>1582.99</ele>
  <time>2026-09-02T20:50:55Z</time>
  <course>272.42</course>
  <speed>0.09</speed>
  <fix>3d</fix>
</trkpt>
<trkpt lat="40.0713691" lon="-105.2298259">
  <ele>1582.99</ele>
  <time>2026-09-02T20:50:55Z</time>
  <course>0.0</course>
  <speed>0.140356688476182</speed>
  <fix>3d</fix>
</trkpt>
<trkpt lat="40.0713691" lon="-105.2298259">
  <ele>1582.99</ele>
  <time>2026-09-02T20:50:55Z</time>
  <course>272.42</course>
  <speed>0.09</speed>
  <fix>3d</fix>
</trkpt>
<trkpt lat="40.071369" lon="-105.2298259">
  <ele>1583.0</ele>
  <time>2026-09-02T20:50:55Z</time>
  <course>0.0</course>
  <speed>0.1004987562112089</speed>
  <fix>3d</fix>
</trkpt>
<trkpt lat="40.0713691" lon="-105.2298259">
  <ele>1582.99</ele>
  <time>2026-09-02T20:50:55Z</time>
  <course>171.28</course>
  <speed>0.04</speed>
  <fix>3d</fix>
</trkpt>
<trkpt lat="40.071369" lon="-105.2298259">
  <ele>1583.0</ele>
  <time>2026-09-02T20:50:55Z</time>
  <course>0.0</course>
  <speed>0.02</speed>
  <fix>3d</fix>
</trkpt>
<trkpt lat="40.0713691" lon="-105.2298259">
  <ele>1582.99</ele>
  <time>2026-09-02T20:50:55Z</time>
  <course>171.28</course>
  <speed>0.04</speed>
  <fix>3d</fix>
</trkpt>
<trkpt lat="40.071369" lon="-105.2298259">
  <ele>1583.0</ele>
  <time>2026-09-02T20:50:55Z</time>
  <course>0.0</course>
  <speed>0.01</speed>
  <fix>3d</fix>
</trkpt>
<trkpt lat="40.071369" lon="-105.2298259">
  <ele>1583.0</ele>
  <time>2026-09-02T20:50:55Z</time>
  <course>173.99</course>
  <speed>0.05</speed>
  <fix>3d</fix>
</trkpt>
<trkpt lat="40.071369" lon="-105.2298259">
  <ele>1583.0</ele>
  <time>2026-09-02T20:50:55Z</time>
  <course>0.0</course>
  <speed>0.02</speed>
  <fix>3d</fix>
</trkpt>
<trkpt lat="40.071369" lon="-105.2298259">
  <ele>1583.0</ele>
  <time>2026-09-02T20:50:55Z</time>
  <course>173.99</course>
  <speed>0.05</speed>
  <fix>3d</fix>
</trkpt>
<trkpt lat="40.071369" lon="-105.2298259">
  <ele>1582.99</ele>
  <time>2026-09-02T20:50:55Z</time>
  <course>0.0</course>
  <speed>0.01</speed>
  <fix>3d</fix>
</trkpt>
<trkpt lat="40.071369" lon="-105.2298259">
  <ele>1582.99</ele>
  <time>2026-09-02T20:50:55Z</time>
  <course>352.72</course>
  <speed>0.01</speed>
  <fix>3d</fix>
</trkpt>
<trkpt lat="40.071369" lon="-105.2298259">
  <ele>1582.99</ele>
  <time>2026-09-02T20:50:55Z</time>
  <course>0.0</course>
  <speed>0.0</speed>
  <fix>3d</fix>
</trkpt>
<trkpt lat="40.071369" lon="-105.2298259">
  <ele>1582.99</ele>
  <time>2026-09-02T20:50:55Z</time>
  <course>352.72</course>
  <speed>0.01</speed>
  <fix>3d</fix>
</trkpt>
<trkpt lat="40.071369" lon="-105.2298259">
  <ele>1582.99</ele>
  <time>2026-09-02T20:50:55Z</time>
  <course>0.0</course>
  <speed>0.0</speed>
  <fix>3d</fix>
</trkpt>
<trkpt lat="40.071369" lon="-105.2298259">
  <ele>1582.99</ele>
  <time>2026-09-02T20:50:55Z</time>
  <course>354.32</course>
  <speed>0.0</speed>
  <fix>3d</fix>
</trkpt>
<trkpt lat="40.071369" lon="-105.2298259">
  <ele>1583.0</ele>
  <time>2026-09-02T20:50:55Z</time>
  <course>0.0</course>
  <speed>0.0</speed>
  <fix>3d</fix>
</trkpt>
<trkpt lat="40.071369" lon="-105.2298259">
  <ele>1582.99</ele>
  <time>2026-09-02T20:50:55Z</time>
  <course>354.32</course>
  <speed>0.0</speed>
  <fix>3d</fix>
</trkpt>
<trkpt lat="40.071369" lon="-105.2298259">
  <ele>1583.0</ele>
  <time>2026-09-02T20:50:55Z</time>
  <course>0.0</course>
  <speed>0.0</speed>
  <fix>3d</fix>
</trkpt>
<trkpt lat="40.071369" lon="-105.2298259">
  <ele>1582.99</ele>
  <time>2026-09-02T20:50:55Z</time>
  <course>173.19</course>
  <speed>0.0</speed>
  <fix>3d</fix>
</trkpt>
<trkpt lat="40.071369" lon="-105.2298259">
  <ele>1583.0</ele>
  <time>2026-09-02T20:50:55Z</time>
  <course>0.0</course>
  <speed>0.0</speed>
  <fix>3d</fix>
</trkpt>
<trkpt lat="40.071369" lon="-105.2298259">
  <ele>1582.99</ele>
  <time>2026-09-02T20:50:55Z</time>
  <course>173.19</course>
  <speed>0.0</speed>
  <fix>3d</fix>
</trkpt>
<trkpt lat="40.071369" lon="-105.2298259">
  <ele>1583.0</ele>
  <time>2026-09-02T20:50:55Z</time>
  <course>0.0</course>
  <speed>0.0</speed>
  <fix>3d</fix>
</trkpt>
<trkpt lat="40.071369" lon="-105.2298259">
  <ele>1583.0</ele>
  <time>2026-09-02T20:50:55Z</time>
  <course>174.96</course>
  <speed>0.0</speed>
  <fix>3d</fix>
</trkpt>
<trkpt lat="40.071369" lon="-105.2298259">
  <ele>1582.99</ele>
  <time>2026-09-02T20:50:55Z</time>
  <course>0.0</course>
  <speed>0.0</speed>
  <fix>3d</fix>
</trkpt>
<trkpt lat="40.071369" lon="-105.2298259">
  <ele>1583.0</ele>
  <time>2026-09-02T20:50:55Z</time>
  <course>174.96</course>
  <speed>0.0</speed>
  <fix>3d</fix>
</trkpt>
<trkpt lat="40.071369" lon="-105.2298259">
  <ele>1582.99</ele>
  <time>2026-09-02T20:50:55Z</time>
  <course>0.0</course>
  <speed>0.0</speed>
  <fix>3d</fix>
</trkpt>
<trkpt lat="40.071369" lon="-105.2298259">
  <ele>1582.99</ele>
  <time>2026-09-02T20:50:55Z</time>
  <course>353.46</course>
  <speed>0.0</speed>
  <fix>3d</fix>
</trkpt>
<trkpt lat="40.071369" lon="-105.2298259">
  <ele>1582.99</ele>
  <time>2026-09-02T20:50:55Z</time>
  <course>0.0</course>
  <speed>0.0</speed>
  <fix>3d</fix>
</trkpt>
<trkpt lat="40.071369" lon="-105.2298259">
  <ele>1582.99</ele>
  <time>2026-09-02T20:50:55Z</time>
  <course>353.46</course>
  <speed>0.0</speed>
  <fix>3d</fix>
</trkpt>
<trkpt lat="40.071369" lon="-105.2298259">
  <ele>1582.99</ele>
  <time>2026-09-02T20:50:55Z</time>
  <course>0.0</course>
  <speed>0.0</speed>
  <fix>3d</fix>
</trkpt>
<trkpt lat="40.071369" lon="-105.2298259">
  <ele>1582.99</ele>
  <time>2026-09-02T20:50:55Z</time>
  <course>357.97</course>
  <speed>0.0</speed>
  <fix>3d</fix>
</trkpt>
<trkpt lat="40.071369" lon="-105.2298259">
  <ele>1583.0</ele>
  <time>2026-09-02T20:50:55Z</time>
  <course>0.0</course>
  <speed>0.0</speed>
  <fix>3d</fix>
</trkpt>
<trkpt lat="40.071369" lon="-105.2298259">
  <ele>1582.99</ele>
  <time>2026-09-02T20:50:55Z</time>
  <course>357.97</course>
  <speed>0.0</speed>
  <fix>3d</fix>
</trkpt>
<trkpt lat="40.071369" lon="-105.2298259">
  <ele>1583.0</ele>
  <time>2026-09-02T20:50:55Z</time>
  <course>0.0</course>
  <speed>0.0</speed>
  <fix>3d</fix>
</trkpt>
<trkpt lat="40.071369" lon="-105.2298259">
  <ele>1582.99</ele>
  <time>2026-09-02T20:50:55Z</time>
  <course>173.69</course>
  <speed>0.0</speed>
  <fix>3d</fix>
</trkpt>
<trkpt lat="40.071369" lon="-105.2298259">
  <ele>1583.0</ele>
  <time>2026-09-02T20:50:55Z</time>
  <course>0.0</course>
  <speed>0.0</speed>
  <fix>3d</fix>
</trkpt>
<trkpt lat="40.071369" lon="-105.2298259">
  <ele>1582.99</ele>
  <time>2026-09-02T20:50:55Z</time>
  <course>173.69</course>
  <speed>0.0</speed>
  <fix>3d</fix>
</trkpt>
<trkpt lat="40.071369" lon="-105.2298259">
  <ele>1582.99</ele>
  <time>2026-09-02T20:50:55Z</time>
  <course>0.0</course>
  <speed>0.0</speed>
  <fix>3d</fix>
</trkpt>
<trkpt lat="40.071369" lon="-105.2298259">
  <ele>1582.99</ele>
  <time>2026-09-02T20:50:55Z</time>
  <course>349.89</course>
  <speed>0.0</speed>
  <fix>3d</fix>
</trkpt>
<trkpt lat="40.071369" lon="-105.2298259">
  <ele>1582.99</ele>
  <time>2026-09-02T20:50:55Z</time>
  <course>0.0</course>
  <speed>0.0</speed>
  <fix>3d</fix>
</trkpt>
<trkpt lat="40.071369" lon="-105.2298259">
  <ele>1582.99</ele>
  <time>2026-09-02T20:50:55Z</time>
  <course>349.89</course>
  <speed>0.0</speed>
  <fix>3d</fix>
</trkpt>
<trkpt lat="40.071369" lon="-105.2298259">
  <ele>1582.99</ele>
  <time>2026-09-02T20:50:55Z</time>
  <course>0.0</course>
  <speed>0.0</speed>
  <fix>3d</fix>
</trkpt>
<trkpt lat="40.071369" lon="-105.2298259">
  <ele>1582.99</ele>
  <time>2026-09-02T20:50:55Z</time>
  <course>353.91</course>
  <speed>0.0</speed>
  <fix>3d</fix>
</trkpt>
<trkpt lat="40.071369" lon="-105.2298259">
  <ele>1582.99</ele>
  <time>2026-09-02T20:50:55Z</time>
  <course>0.0</course>
  <speed>0.0</speed>
  <fix>3d</fix>
</trkpt>
<trkpt lat="40.071369" lon="-105.2298259">
  <ele>1582.99</ele>
  <time>2026-09-02T20:50:55Z</time>
  <course>353.91</course>
  <speed>0.0</speed>
  <fix>3d</fix>
</trkpt>
<trkpt lat="40.071369" lon="-105.2298259">
  <ele>1583.0</ele>
  <time>2026-09-02T20:50:55Z</time>
  <course>0.0</course>
  <speed>0.0</speed>
  <fix>3d</fix>
</trkpt>
<trkpt lat="40.071369" lon="-105.2298259">
  <ele>1582.99</ele>
  <time>2026-09-02T20:50:55Z</time>
  <course>172.46</course>
  <speed>0.0</speed>
  <fix>3d</fix>
</trkpt>
<trkpt lat="40.071369" lon="-105.2298259">
  <ele>1583.0</ele>
  <time>2026-09-02T20:50:55Z</time>
  <course>0.0</course>
  <speed>0.0</speed>
  <fix>3d</fix>
</trkpt>
<trkpt lat="40.071369" lon="-105.2298259">
  <ele>1582.99</ele>
  <time>2026-09-02T20:50:55Z</time>
  <course>172.46</course>
  <speed>0.0</speed>
  <fix>3d</fix>
</trkpt>
<trkpt lat="40.071369" lon="-105.2298259">
  <ele>1583.0</ele>
  <time>2026-09-02T20:50:55Z</time>
  <course>0.0</course>
  <speed>0.0</speed>
  <fix>3d</fix>
</trkpt>
<trkpt lat="40.071369" lon="-105.2298259">
  <ele>1583.0</ele>
  <time>2026-09-02T20:50:55Z</time>
  <course>174.21</course>
  <speed>0.0</speed>
  <fix>3d</fix>
</trkpt>
<trkpt lat="40.071369" lon="-105.2298259">
  <ele>1582.99</ele>
  <time>2026-09-02T20:50:55Z</time>
  <course>0.0</course>
  <speed>0.0</speed>
  <fix>3d</fix>
</trkpt>
<trkpt lat="40.071369" lon="-105.2298259">
  <ele>1583.0</ele>
  <time>2026-09-02T20:50:55Z</time>
  <course>174.21</course>
  <speed>0.0</speed>
  <fix>3d</fix>
</trkpt>
<trkpt lat="40.071369" lon="-105.2298259">
  <ele>1582.99</ele>
  <time>2026-09-02T20:50:55Z</time>
  <course>0.0</course>
  <speed>0.0</speed>
  <fix>3d</fix>
</trkpt>
<trkpt lat="40.071369" lon="-105.2298259">
  <ele>1582.99</ele>
  <time>2026-09-02T20:50:55Z</time>
  <course>353.08</course>
  <speed>0.0</speed>
  <fix>3d</fix>
</trkpt>
<trkpt lat="40.071369" lon="-105.2298259">
  <ele>1583.0</ele>
  <time>2026-09-02T20:50:55Z</time>
  <course>0.0</course>
  <speed>0.0</speed>
  <fix>3d</fix>
</trkpt>
<trkpt lat="40.071369" lon="-105.2298259">
  <ele>1582.99</ele>
  <time>2026-09-02T20:50:55Z</time>
  <course>173.39</course>
  <speed>0.0</speed>
  <fix>3d</fix>
</trkpt>
<trkpt lat="40.071369" lon="-105.2298259">
  <ele>1582.99</ele>
  <time>2026-09-02T20:50:55Z</time>
  <course>0.0</course>
  <speed>0.0</speed>
  <fix>3d</fix>
</trkpt>
<trkpt lat="40.071369" lon="-105.2298259">
  <ele>1583.0</ele>
  <time>2026-09-02T20:50:55Z</time>
  <course>176.28</course>
  <speed>0.0</speed>
  <fix>3d</fix>
</trkpt>
<trkpt lat="40.071369" lon="-105.2298259">
  <ele>1582.99</ele>
  <time>2026-09-02T20:50:55Z</time>
  <course>0.0</course>
  <speed>0.0</speed>
  <fix>3d</fix>
</trkpt>
<trkpt lat="40.071369" lon="-105.2298259">
  <ele>1582.99</ele>
  <time>2026-09-02T20:50:55Z</time>
  <course>353.62</course>
  <speed>0.0</speed>
  <fix>3d</fix>
</trkpt>
<trkpt lat="40.071369" lon="-105.2298259">
  <ele>1582.99</ele>
  <time>2026-09-02T20:50:55Z</time>
  <course>0.0</course>
  <speed>0.0</speed>
  <fix>3d</fix>
</trkpt>
<trkpt lat="40.071369" lon="-105.2298259">
  <ele>1582.99</ele>
  <time>2026-09-02T20:50:55Z</time>
  <course>353.62</course>
  <speed>0.0</speed>
  <fix>3d</fix>
</trkpt>
<trkpt lat="40.071369" lon="-105.2298259">
  <ele>1583.0</ele>
  <time>2026-09-02T20:50:55Z</time>
  <course>0.0</course>
  <speed>0.0</speed>
  <fix>3d</fix>
</trkpt>
<trkpt lat="40.071369" lon="-105.2298259">
  <ele>1582.99</ele>
  <time>2026-09-02T20:50:55Z</time>
  <course>165.06</course>
  <speed>0.0</speed>
  <fix>3d</fix>
</trkpt>
<trkpt lat="40.071369" lon="-105.2298259">
  <ele>1583.0</ele>
  <time>2026-09-02T20:50:55Z</time>
  <course>0.0</course>
  <speed>0.0</speed>
  <fix>3d</fix>
</trkpt>
<trkpt lat="40.071369" lon="-105.2298259">
  <ele>1582.99</ele>
  <time>2026-09-02T20:50:55Z</time>
  <course>165.06</course>
  <speed>0.0</speed>
  <fix>3d</fix>
</trkpt>
<trkpt lat="40.071369" lon="-105.2298259">
  <ele>1583.0</ele>
  <time>2026-09-02T20:50:55Z</time>
  <course>0.0</course>
  <speed>0.0</speed>
  <fix>3d</fix>
</trkpt>
<trkpt lat="40.071369" lon="-105.2298259">
  <ele>1583.0</ele>
  <time>2026-09-02T20:50:55Z</time>
  <course>173.84</course>
  <speed>0.0</speed>
  <fix>3d</fix>
</trkpt>
<trkpt lat="40.071369" lon="-105.2298259">
  <ele>1583.0</ele>
  <time>2026-09-02T20:50:55Z</time>
  <course>0.0</course>
  <speed>0.0</speed>
  <fix>3d</fix>
</trkpt>
<trkpt lat="40.071369" lon="-105.2298259">
  <ele>1583.0</ele>
  <time>2026-09-02T20:50:55Z</time>
  <course>173.84</course>
  <speed>0.0</speed>
  <fix>3d</fix>
</trkpt>
<trkpt lat="40.071369" lon="-105.2298259">
  <ele>1583.0</ele>
  <time>2026-09-02T20:50:55Z</time>
  <course>0.0</course>
  <speed>0.0</speed>
  <fix>3d</fix>
</trkpt>
<trkpt lat="40.071369" lon="-105.2298259">
  <ele>1583.0</ele>
  <time>2026-09-02T20:50:55Z</time>
  <course>352.12</course>
  <speed>0.0</speed>
  <fix>3d</fix>
</trkpt>
<trkpt lat="40.071369" lon="-105.2298259">
  <ele>1583.0</ele>
  <time>2026-09-02T20:50:55Z</time>
  <course>0.0</course>
  <speed>0.0</speed>
  <fix>3d</fix>
</trkpt>
<trkpt lat="40.071369" lon="-105.2298259">
  <ele>1583.0</ele>
  <time>2026-09-02T20:50:55Z</time>
  <course>352.12</course>
  <speed>0.0</speed>
  <fix>3d</fix>
</trkpt>
<trkpt lat="40.071369" lon="-105.2298259">
  <ele>1583.0</ele>
  <time>2026-09-02T20:50:55Z</time>
  <course>0.0</course>
  <speed>0.0</speed>
  <fix>3d</fix>
</trkpt>
<trkpt lat="40.071369" lon="-105.2298259">
  <ele>1583.0</ele>
  <time>2026-09-02T20:50:55Z</time>
  <course>354.1</course>
  <speed>0.0</speed>
  <fix>3d</fix>
</trkpt>
<trkpt lat="40.071369" lon="-105.2298259">
  <ele>1583.0</ele>
  <time>2026-09-02T20:50:55Z</time>
  <course>0.0</course>
  <speed>0.0</speed>
  <fix>3d</fix>
</trkpt>
<trkpt lat="40.071369" lon="-105.2298259">
  <ele>1583.0</ele>
  <time>2026-09-02T20:50:55Z</time>
  <course>354.1</course>
  <speed>0.0</speed>
  <fix>3d</fix>
</trkpt>
<trkpt lat="40.071369" lon="-105.2298259">
  <ele>1583.0</ele>
  <time>2026-09-02T20:50:55Z</time>
  <course>0.0</course>
  <speed>0.0</speed>
  <fix>3d</fix>
</trkpt>
<trkpt lat="40.071369" lon="-105.2298259">
  <ele>1583.0</ele>
  <time>2026-09-02T20:50:55Z</time>
  <course>172.94</course>
  <speed>0.0</speed>
  <fix>3d</fix>
</trkpt>
<trkpt lat="40.071369" lon="-105.2298259">
  <ele>1583.0</ele>
  <time>2026-09-02T20:50:55Z</time>
  <course>0.0</course>
  <speed>0.0</speed>
  <fix>3d</fix>
</trkpt>
<trkpt lat="40.071369" lon="-105.2298259">
  <ele>1583.0</ele>
  <time>2026-09-02T20:50:55Z</time>
  <course>172.94</course>
  <speed>0.0</speed>
  <fix>3d</fix>
</trkpt>
<trkpt lat="40.071369" lon="-105.2298259">
  <ele>1583.0</ele>
  <time>2026-09-02T20:50:55Z</time>
  <course>0.0</course>
  <speed>0.0</speed>
  <fix>3d</fix>
</trkpt>
<trkpt lat="40.071369" lon="-105.2298259">
  <ele>1583.0</ele>
  <time>2026-09-02T20:50:55Z</time>
  <course>174.51</course>
  <speed>0.0</speed>
  <fix>3d</fix>
</trkpt>
<trkpt lat="40.071369" lon="-105.2298259">
  <ele>1583.0</ele>
  <time>2026-09-02T20:50:55Z</time>
  <course>0.0</course>
  <speed>0.0</speed>
  <fix>3d</fix>
</trkpt>
<trkpt lat="40.071369" lon="-105.2298259">
  <ele>1583.0</ele>
  <time>2026-09-02T20:50:55Z</time>
  <course>174.51</course>
  <speed>0.0</speed>
  <fix>3d</fix>
</trkpt>
<trkpt lat="40.071369" lon="-105.2298259">
  <ele>1583.0</ele>
  <time>2026-09-02T20:50:55Z</time>
  <course>0.0</course>
  <speed>0.0</speed>
  <fix>3d</fix>
</trkpt>
<trkpt lat="40.071369" lon="-105.2298259">
  <ele>1583.0</ele>
  <time>2026-09-02T20:50:55Z</time>
  <course>353.31</course>
  <speed>0.0</speed>
  <fix>3d</fix>
</trkpt>
<trkpt lat="40.071369" lon="-105.2298259">
  <ele>1583.0</ele>
  <time>2026-09-02T20:50:55Z</time>
  <course>0.0</course>
  <speed>0.0</speed>
  <fix>3d</fix>
</trkpt>
<trkpt lat="40.071369" lon="-105.2298259">
  <ele>1583.0</ele>
  <time>2026-09-02T20:50:55Z</time>
  <course>353.31</course>
  <speed>0.0</speed>
  <fix>3d</fix>
</trkpt>
<trkpt lat="40.071369" lon="-105.2298259">
  <ele>1583.0</ele>
  <time>2026-09-02T20:50:55Z</time>
  <course>0.0</course>
  <speed>0.0</speed>
  <fix>3d</fix>
</trkpt>
<trkpt lat="40.071369" lon="-105.2298259">
  <ele>1583.0</ele>
  <time>2026-09-02T20:50:55Z</time>
  <course>355.52</course>
  <speed>0.0</speed>
  <fix>3d</fix>
</trkpt>
<trkpt lat="40.071369" lon="-105.2298259">
  <ele>1583.0</ele>
  <time>2026-09-02T20:50:56Z</time>
  <course>0.0</course>
  <speed>0.0</speed>
  <fix>3d</fix>
</trkpt>
<trkpt lat="40.071369" lon="-105.2298259">
  <ele>1583.0</ele>
  <time>2026-09-02T20:50:56Z</time>
  <course>355.52</course>
  <speed>0.0</speed>
  <fix>3d</fix>
</trkpt>
<trkpt lat="40.071369" lon="-105.2298259">
  <ele>1583.0</ele>
  <time>2026-09-02T20:50:56Z</time>
  <course>0.0</course>
  <speed>0.0</speed>
  <fix>3d</fix>
</trkpt>
<trkpt lat="40.071369" lon="-105.2298259">
  <ele>1583.0</ele>
  <time>2026-09-02T20:50:56Z</time>
  <course>173.56</course>
  <speed>0.0</speed>
  <fix>3d</fix>
</trkpt>
<trkpt lat="40.071369" lon="-105.2298259">
  <ele>1583.0</ele>
  <time>2026-09-02T20:50:56Z</time>
  <course>0.0</course>
  <speed>0.0</speed>
  <fix>3d</fix>
</trkpt>
<trkpt lat="40.071369" lon="-105.2298259">
  <ele>1583.0</ele>
  <time>2026-09-02T20:50:56Z</time>
  <course>173.56</course>
  <speed>0.0</speed>
  <fix>3d</fix>
</trkpt>
<trkpt lat="40.071369" lon="-105.2298259">
  <ele>1583.0</ele>
  <time>2026-09-02T20:50:56Z</time>
  <course>0.0</course>
  <speed>0.0</speed>
  <fix>3d</fix>
</trkpt>
<trkpt lat="40.071369" lon="-105.2298259">
  <ele>1583.0</ele>
  <time>2026-09-02T20:50:56Z</time>
  <course>202.89</course>
  <speed>0.0</speed>
  <fix>3d</fix>
</trkpt>
<trkpt lat="40.071369" lon="-105.2298259">
  <ele>1583.0</ele>
  <time>2026-09-02T20:50:56Z</time>
  <course>0.0</course>
  <speed>0.0</speed>
  <fix>3d</fix>
</trkpt>
<trkpt lat="40.071369" lon="-105.2298259">
  <ele>1583.0</ele>
  <time>2026-09-02T20:50:56Z</time>
  <course>202.89</course>
  <speed>0.0</speed>
  <fix>3d</fix>
</trkpt>
<trkpt lat="40.071369" lon="-105.2298259">
  <ele>1583.0</ele>
  <time>2026-09-02T20:50:56Z</time>
  <course>0.0</course>
  <speed>0.0</speed>
  <fix>3d</fix>
</trkpt>
<trkpt lat="40.071369" lon="-105.2298259">
  <ele>1583.0</ele>
  <time>2026-09-02T20:50:56Z</time>
  <course>353.78</course>
  <speed>0.0</speed>
  <fix>3d</fix>
</trkpt>
<trkpt lat="40.071369" lon="-105.2298259">
  <ele>1583.0</ele>
  <time>2026-09-02T20:50:56Z</time>
  <course>0.0</course>
  <speed>0.0</speed>
  <fix>3d</fix>
</trkpt>
<trkpt lat="40.071369" lon="-105.2298259">
  <ele>1583.0</ele>
  <time>2026-09-02T20:50:56Z</time>
  <course>353.78</course>
  <speed>0.0</speed>
  <fix>3d</fix>
</trkpt>
<trkpt lat="40.071369" lon="-105.2298259">
  <ele>1583.0</ele>
  <time>2026-09-02T20:50:56Z</time>
  <course>0.0</course>
  <speed>0.0</speed>
  <fix>3d</fix>
</trkpt>
<trkpt lat="40.071369" lon="-105.2298259">
  <ele>1583.0</ele>
  <time>2026-09-02T20:50:56Z</time>
  <course>171.65</course>
  <speed>0.0</speed>
  <fix>3d</fix>
</trkpt>
<trkpt lat="40.071369" lon="-105.2298259">
  <ele>1583.0</ele>
  <time>2026-09-02T20:50:56Z</time>
  <course>0.0</course>
  <speed>0.0</speed>
  <fix>3d</fix>
</trkpt>
<trkpt lat="40.071369" lon="-105.2298259">
  <ele>1583.0</ele>
  <time>2026-09-02T20:50:56Z</time>
  <course>171.65</course>
  <speed>0.0</speed>
  <fix>3d</fix>
</trkpt>
<trkpt lat="40.0713749" lon="-105.229789">
  <ele>1583.0</ele>
  <time>2026-09-02T20:50:56Z</time>
  <course>0.0</course>
  <speed>0.0</speed>
  <fix>3d</fix>
</trkpt>
<trkpt lat="40.0713749" lon="-105.229789">
  <ele>1583.0</ele>
  <time>2026-09-02T20:50:56Z</time>
  <course>0.0</course>
  <speed>0.0</speed>
  <fix>3d</fix>
</trkpt>
<trkpt lat="40.0713749" lon="-105.229789">
  <ele>1583.0</ele>
  <time>2026-09-02T20:50:56Z</time>
  <course>0.0</course>
  <speed>0.0</speed>
  <fix>3d</fix>
</trkpt>
<trkpt lat="40.0713749" lon="-105.229789">
  <ele>1583.0</ele>
  <time>2026-09-02T20:50:56Z</time>
  <course>0.0</course>
  <speed>0.0</speed>
  <fix>3d</fix>
</trkpt>
<trkpt lat="40.0713749" lon="-105.229789">
  <ele>1583.0</ele>
  <time>2026-09-02T20:50:56Z</time>
  <course>0.0</course>
  <speed>0.0</speed>
  <fix>3d</fix>
</trkpt>
<trkpt lat="40.0713749" lon="-105.229789">
  <ele>1583.0</ele>
  <time>2026-09-02T20:50:56Z</time>
  <course>0.0</course>
  <speed>0.0</speed>
  <fix>3d</fix>
</trkpt>
<trkpt lat="40.0713749" lon="-105.229789">
  <ele>1583.0</ele>
  <time>2026-09-02T20:50:56Z</time>
  <course>0.0</course>
  <speed>0.0</speed>
  <fix>3d</fix>
</trkpt>
<trkpt lat="40.0713749" lon="-105.229789">
  <ele>1583.0</ele>
  <time>2026-09-02T20:50:56Z</time>
  <course>0.0</course>
  <speed>0.0</speed>
  <fix>3d</fix>
</trkpt>
<trkpt lat="40.0713749" lon="-105.229789">
  <ele>1583.0</ele>
  <time>2026-09-02T20:50:56Z</time>
  <course>0.0</course>
  <speed>0.0</speed>
  <fix>3d</fix>
</trkpt>
<trkpt lat="40.0713749" lon="-105.229789">
  <ele>1583.0</ele>
  <time>2026-09-02T20:50:56Z</time>
  <course>0.0</course>
  <speed>0.0</speed>
  <fix>3d</fix>
</trkpt>
<trkpt lat="40.0713749" lon="-105.229789">
  <ele>1583.0</ele>
  <time>2026-09-02T20:50:56Z</time>
  <course>0.0</course>
  <speed>0.0</speed>
  <fix>3d</fix>
</trkpt>
<trkpt lat="40.0713749" lon="-105.229789">
  <ele>1583.0</ele>
  <time>2026-09-02T20:50:56Z</time>
  <course>0.0</course>
  <speed>0.0</speed>
  <fix>3d</fix>
</trkpt>
<trkpt lat="40.0713749" lon="-105.229789">
  <ele>1583.0</ele>
  <time>2026-09-02T20:50:56Z</time>
  <course>0.0</course>
  <speed>0.0</speed>
  <fix>3d</fix>
</trkpt>
<trkpt lat="40.0713749" lon="-105.229789">
  <ele>1583.0</ele>
  <time>2026-09-02T20:50:56Z</time>
  <course>0.0</course>
  <speed>0.0</speed>
  <fix>3d</fix>
</trkpt>
<trkpt lat="40.0713749" lon="-105.229789">
  <ele>1583.0</ele>
  <time>2026-09-02T20:50:56Z</time>
  <course>0.0</course>
  <speed>0.0</speed>
  <fix>3d</fix>
</trkpt>
<trkpt lat="40.0713749" lon="-105.229789">
  <ele>1583.0</ele>
  <time>2026-09-02T20:50:56Z</time>
  <course>0.0</course>
  <speed>0.0</speed>
  <fix>3d</fix>
</trkpt>
<trkpt lat="40.0713749" lon="-105.229789">
  <ele>1583.0</ele>
  <time>2026-09-02T20:50:56Z</time>
  <course>0.0</course>
  <speed>0.0</speed>
  <fix>3d</fix>
</trkpt>
<trkpt lat="40.0713749" lon="-105.229789">
  <ele>1583.0</ele>
  <time>2026-09-02T20:50:56Z</time>
  <course>0.0</course>
  <speed>0.0</speed>
  <fix>3d</fix>
</trkpt>
<trkpt lat="40.0713749" lon="-105.229789">
  <ele>1583.0</ele>
  <time>2026-09-02T20:50:56Z</time>
  <course>0.0</course>
  <speed>0.0</speed>
  <fix>3d</fix>
</trkpt>
<trkpt lat="40.0713749" lon="-105.229789">
  <ele>1583.0</ele>
  <time>2026-09-02T20:50:56Z</time>
  <course>0.0</course>
  <speed>0.0</speed>
  <fix>3d</fix>
</trkpt>
<trkpt lat="40.0713749" lon="-105.229789">
  <ele>1583.0</ele>
  <time>2026-09-02T20:50:56Z</time>
  <course>0.0</course>
  <speed>0.0</speed>
  <fix>3d</fix>
</trkpt>
<trkpt lat="40.0713749" lon="-105.229789">
  <ele>1583.0</ele>
  <time>2026-09-02T20:50:56Z</time>
  <course>0.0</course>
  <speed>0.0</speed>
  <fix>3d</fix>
</trkpt>
<trkpt lat="40.0713749" lon="-105.229789">
  <ele>1583.0</ele>
  <time>2026-09-02T20:50:56Z</time>
  <course>0.0</course>
  <speed>0.0</speed>
  <fix>3d</fix>
</trkpt>
<trkpt lat="40.0713749" lon="-105.229789">
  <ele>1583.0</ele>
  <time>2026-09-02T20:50:56Z</time>
  <course>0.0</course>
  <speed>0.0</speed>
  <fix>3d</fix>
</trkpt>
<trkpt lat="40.0713749" lon="-105.229789">
  <ele>1583.0</ele>
  <time>2026-09-02T20:50:56Z</time>
  <course>0.0</course>
  <speed>0.0</speed>
  <fix>3d</fix>
</trkpt>
<trkpt lat="40.0713749" lon="-105.229789">
  <ele>1583.0</ele>
  <time>2026-09-02T20:50:56Z</time>
  <course>0.0</course>
  <speed>0.0</speed>
  <fix>3d</fix>
</trkpt>
<trkpt lat="40.0713749" lon="-105.229789">
  <ele>1583.0</ele>
  <time>2026-09-02T20:50:56Z</time>
  <course>0.0</course>
  <speed>0.0</speed>
  <fix>3d</fix>
</trkpt>
<trkpt lat="40.0713749" lon="-105.229789">
  <ele>1583.0</ele>
  <time>2026-09-02T20:50:56Z</time>
  <course>0.0</course>
  <speed>0.0</speed>
  <fix>3d</fix>
</trkpt>
<trkpt lat="40.0713749" lon="-105.229789">
  <ele>1583.0</ele>
  <time>2026-09-02T20:50:56Z</time>
  <course>0.0</course>
  <speed>0.0</speed>
  <fix>3d</fix>
</trkpt>
<trkpt lat="40.0713749" lon="-105.229789">
  <ele>1583.0</ele>
  <time>2026-09-02T20:50:56Z</time>
  <course>0.0</course>
  <speed>0.0</speed>
  <fix>3d</fix>
</trkpt>
<trkpt lat="40.0713749" lon="-105.229789">
  <ele>1583.0</ele>
  <time>2026-09-02T20:50:56Z</time>
  <course>0.0</course>
  <speed>0.0</speed>
  <fix>3d</fix>
</trkpt>
<trkpt lat="40.0713749" lon="-105.229789">
  <ele>1583.0</ele>
  <time>2026-09-02T20:50:56Z</time>
  <course>0.0</course>
  <speed>0.0</speed>
  <fix>3d</fix>
</trkpt>
<trkpt lat="40.0713749" lon="-105.229789">
  <ele>1583.0</ele>
  <time>2026-09-02T20:50:56Z</time>
  <course>0.0</course>
  <speed>0.0</speed>
  <fix>3d</fix>
</trkpt>
<trkpt lat="40.0713749" lon="-105.229789">
  <ele>1583.0</ele>
  <time>2026-09-02T20:50:56Z</time>
  <course>0.0</course>
  <speed>0.0</speed>
  <fix>3d</fix>
</trkpt>
<trkpt lat="40.0713749" lon="-105.229789">
  <ele>1583.0</ele>
  <time>2026-09-02T20:50:56Z</time>
  <course>0.0</course>
  <speed>0.0</speed>
  <fix>3d</fix>
</trkpt>
<trkpt lat="40.0713749" lon="-105.229789">
  <ele>1583.0</ele>
  <time>2026-09-02T20:50:56Z</time>
  <course>0.0</course>
  <speed>0.0</speed>
  <fix>3d</fix>
</trkpt>
<trkpt lat="40.0713749" lon="-105.229789">
  <ele>1583.0</ele>
  <time>2026-09-02T20:50:56Z</time>
  <course>0.0</course>
  <speed>0.0</speed>
  <fix>3d</fix>
</trkpt>
<trkpt lat="40.0713749" lon="-105.229789">
  <ele>1583.0</ele>
  <time>2026-09-02T20:50:56Z</time>
  <course>0.0</course>
  <speed>0.0</speed>
  <fix>3d</fix>
</trkpt>
<trkpt lat="40.0713749" lon="-105.229789">
  <ele>1583.0</ele>
  <time>2026-09-02T20:50:56Z</time>
  <course>0.0</course>
  <speed>0.0</speed>
  <fix>3d</fix>
</trkpt>
<trkpt lat="40.0713749" lon="-105.229789">
  <ele>1583.0</ele>
  <time>2026-09-02T20:50:56Z</time>
  <course>0.0</course>
  <speed>0.0</speed>
  <fix>3d</fix>
</trkpt>
<trkpt lat="40.0713749" lon="-105.229789">
  <ele>1583.0</ele>
  <time>2026-09-02T20:50:56Z</time>
  <course>0.0</course>
  <speed>0.0</speed>
  <fix>3d</fix>
</trkpt>
<trkpt lat="40.0713749" lon="-105.229789">
  <ele>1583.0</ele>
  <time>2026-09-02T20:50:56Z</time>
  <course>0.0</course>
  <speed>0.0</speed>
  <fix>3d</fix>
</trkpt>
<trkpt lat="40.0713749" lon="-105.229789">
  <ele>1583.0</ele>
  <time>2026-09-02T20:50:56Z</time>
  <course>0.0</course>
  <speed>0.0</speed>
  <fix>3d</fix>
</trkpt>
<trkpt lat="40.0713749" lon="-105.229789">
  <ele>1583.0</ele>
  <time>2026-09-02T20:50:56Z</time>
  <course>0.0</course>
  <speed>0.0</speed>
  <fix>3d</fix>
</trkpt>
<trkpt lat="40.0713749" lon="-105.229789">
  <ele>1583.0</ele>
  <time>2026-09-02T20:50:56Z</time>
  <course>0.0</course>
  <speed>0.0</speed>
  <fix>3d</fix>
</trkpt>
<trkpt lat="40.0713749" lon="-105.229789">
  <ele>1583.0</ele>
  <time>2026-09-02T20:50:56Z</time>
  <course>0.0</course>
  <speed>0.0</speed>
  <fix>3d</fix>
</trkpt>
<trkpt lat="40.0713749" lon="-105.229789">
  <ele>1583.0</ele>
  <time>2026-09-02T20:50:56Z</time>
  <course>0.0</course>
  <speed>0.0</speed>
  <fix>3d</fix>
</trkpt>
<trkpt lat="40.0713749" lon="-105.229789">
  <ele>1583.0</ele>
  <time>2026-09-02T20:50:56Z</time>
  <course>0.0</course>
  <speed>0.0</speed>
  <fix>3d</fix>
</trkpt>
<trkpt lat="40.0713749" lon="-105.229789">
  <ele>1583.0</ele>
  <time>2026-09-02T20:50:56Z</time>
  <course>0.0</course>
  <speed>0.0</speed>
  <fix>3d</fix>
</trkpt>
<trkpt lat="40.0713749" lon="-105.229789">
  <ele>1583.0</ele>
  <time>2026-09-02T20:50:56Z</time>
  <course>0.0</course>
  <speed>0.0</speed>
  <fix>3d</fix>
</trkpt>
<trkpt lat="40.0713749" lon="-105.229789">
  <ele>1583.0</ele>
  <time>2026-09-02T20:50:56Z</time>
  <course>0.0</course>
  <speed>0.0</speed>
  <fix>3d</fix>
</trkpt>
<trkpt lat="40.0713749" lon="-105.229789">
  <ele>1583.0</ele>
  <time>2026-09-02T20:50:56Z</time>
  <course>0.0</course>
  <speed>0.0</speed>
  <fix>3d</fix>
</trkpt>
<trkpt lat="40.0713749" lon="-105.229789">
  <ele>1583.0</ele>
  <time>2026-09-02T20:50:56Z</time>
  <course>0.0</course>
  <speed>0.0</speed>
  <fix>3d</fix>
</trkpt>
<trkpt lat="40.0713749" lon="-105.229789">
  <ele>1583.0</ele>
  <time>2026-09-02T20:50:56Z</time>
  <course>0.0</course>
  <speed>0.0</speed>
  <fix>3d</fix>
</trkpt>
<trkpt lat="40.0713749" lon="-105.229789">
  <ele>1583.0</ele>
  <time>2026-09-02T20:50:56Z</time>
  <course>0.0</course>
  <speed>0.0</speed>
  <fix>3d</fix>
</trkpt>
<trkpt lat="40.0713749" lon="-105.229789">
  <ele>1583.0</ele>
  <time>2026-09-02T20:50:56Z</time>
  <course>0.0</course>
  <speed>0.0</speed>
  <fix>3d</fix>
</trkpt>
<trkpt lat="39.655741" lon="-104.1383097">
  <ele>1566.58</ele>
  <time>2026-09-02T20:50:56Z</time>
  <course>0.0</course>
  <speed>0.0</speed>
  <fix>3d</fix>
</trkpt>
<trkpt lat="40.0713749" lon="-105.229789">
  <ele>1583.0</ele>
  <time>2026-09-02T20:50:56Z</time>
  <course>0.0</course>
  <speed>0.0</speed>
  <fix>3d</fix>
</trkpt>
<trkpt lat="40.0713749" lon="-105.229789">
  <ele>1583.0</ele>
  <time>2026-09-02T20:50:56Z</time>
  <course>0.0</course>
  <speed>0.0</speed>
  <fix>3d</fix>
</trkpt>
<trkpt lat="40.0713749" lon="-105.229789">
  <ele>1583.0</ele>
  <time>2026-09-02T20:50:56Z</time>
  <course>0.0</course>
  <speed>0.0</speed>
  <fix>3d</fix>
</trkpt>
<trkpt lat="40.0713749" lon="-105.229789">
  <ele>1583.0</ele>
  <time>2026-09-02T20:50:56Z</time>
  <course>0.0</course>
  <speed>0.0</speed>
  <fix>3d</fix>
</trkpt>
<trkpt lat="40.0713749" lon="-105.229789">
  <ele>1583.0</ele>
  <time>2026-09-02T20:50:56Z</time>
  <course>0.0</course>
  <speed>0.0</speed>
  <fix>3d</fix>
</trkpt>
<trkpt lat="40.0713749" lon="-105.229789">
  <ele>1583.0</ele>
  <time>2026-09-02T20:50:56Z</time>
  <course>0.0</course>
  <speed>0.0</speed>
  <fix>3d</fix>
</trkpt>
<trkpt lat="40.0713749" lon="-105.229789">
  <ele>1583.0</ele>
  <time>2026-09-02T20:50:56Z</time>
  <course>0.0</course>
  <speed>0.0</speed>
  <fix>3d</fix>
</trkpt>
<trkpt lat="40.0713749" lon="-105.229789">
  <ele>1583.0</ele>
  <time>2026-09-02T20:50:56Z</time>
  <course>0.0</course>
  <speed>0.0</speed>
  <fix>3d</fix>
</trkpt>
<trkpt lat="40.0713749" lon="-105.229789">
  <ele>1583.0</ele>
  <time>2026-09-02T20:50:56Z</time>
  <course>0.0</course>
  <speed>0.0</speed>
  <fix>3d</fix>
</trkpt>
<trkpt lat="40.0713749" lon="-105.229789">
  <ele>1583.0</ele>
  <time>2026-09-02T20:50:56Z</time>
  <course>0.0</course>
  <speed>0.0</speed>
  <fix>3d</fix>
</trkpt>
<trkpt lat="40.0713749" lon="-105.229789">
  <ele>1583.0</ele>
  <time>2026-09-02T20:50:56Z</time>
  <course>0.0</course>
  <speed>0.0</speed>
  <fix>3d</fix>
</trkpt>
<trkpt lat="40.0713749" lon="-105.229789">
  <ele>1583.0</ele>
  <time>2026-09-02T20:50:56Z</time>
  <course>0.0</course>
  <speed>0.0</speed>
  <fix>3d</fix>
</trkpt>
<trkpt lat="40.0713749" lon="-105.229789">
  <ele>1583.0</ele>
  <time>2026-09-02T20:50:56Z</time>
  <course>0.0</course>
  <speed>0.0</speed>
  <fix>3d</fix>
</trkpt>
<trkpt lat="40.0713749" lon="-105.229789">
  <ele>1583.0</ele>
  <time>2026-09-02T20:50:56Z</time>
  <course>0.0</course>
  <speed>0.0</speed>
  <fix>3d</fix>
</trkpt>
<trkpt lat="40.0713749" lon="-105.229789">
  <ele>1583.0</ele>
  <time>2026-09-02T20:50:56Z</time>
  <course>0.0</course>
  <speed>0.0</speed>
  <fix>3d</fix>
</trkpt>
<trkpt lat="40.0713749" lon="-105.229789">
  <ele>1583.0</ele>
  <time>2026-09-02T20:50:56Z</time>
  <course>0.0</course>
  <speed>0.0</speed>
  <fix>3d</fix>
</trkpt>
<trkpt lat="40.0713749" lon="-105.229789">
  <ele>1583.0</ele>
  <time>2026-09-02T20:50:56Z</time>
  <course>0.0</course>
  <speed>0.0</speed>
  <fix>3d</fix>
</trkpt>
<trkpt lat="40.0713749" lon="-105.229789">
  <ele>1583.0</ele>
  <time>2026-09-02T20:50:56Z</time>
  <course>0.0</course>
  <speed>0.0</speed>
  <fix>3d</fix>
</trkpt>
<trkpt lat="40.0713749" lon="-105.229789">
  <ele>1583.0</ele>
  <time>2026-09-02T20:50:56Z</time>
  <course>0.0</course>
  <speed>0.0</speed>
  <fix>3d</fix>
</trkpt>
<trkpt lat="40.0713749" lon="-105.229789">
  <ele>1583.0</ele>
  <time>2026-09-02T20:50:56Z</time>
  <course>0.0</course>
  <speed>0.0</speed>
  <fix>3d</fix>
</trkpt>
<trkpt lat="40.0713749" lon="-105.229789">
  <ele>1583.0</ele>
  <time>2026-09-02T20:50:56Z</time>
  <course>0.0</course>
  <speed>0.0</speed>
  <fix>3d</fix>
</trkpt>
<trkpt lat="40.0713749" lon="-105.229789">
  <ele>1583.0</ele>
  <time>2026-09-02T20:50:56Z</time>
  <course>0.0</course>
  <speed>0.0</speed>
  <fix>3d</fix>
</trkpt>
<trkpt lat="40.0713749" lon="-105.229789">
  <ele>1583.0</ele>
  <time>2026-09-02T20:50:56Z</time>
  <course>0.0</course>
  <speed>0.0</speed>
  <fix>3d</fix>
</trkpt>
<trkpt lat="40.0713749" lon="-105.229789">
  <ele>1583.0</ele>
  <time>2026-09-02T20:50:56Z</time>
  <course>0.0</course>
  <speed>0.0</speed>
  <fix>3d</fix>
</trkpt>
<trkpt lat="40.0713749" lon="-105.229789">
  <ele>1583.0</ele>
  <time>2026-09-02T20:50:56Z</time>
  <course>0.0</course>
  <speed>0.0</speed>
  <fix>3d</fix>
</trkpt>
<trkpt lat="40.0713749" lon="-105.229789">
  <ele>1583.0</ele>
  <time>2026-09-02T20:50:56Z</time>
  <course>0.0</course>
  <speed>0.0</speed>
  <fix>3d</fix>
</trkpt>
<trkpt lat="40.0713749" lon="-105.229789">
  <ele>1583.0</ele>
  <time>2026-09-02T20:50:56Z</time>
  <course>0.0</course>
  <speed>0.0</speed>
  <fix>3d</fix>
</trkpt>
<trkpt lat="40.0713749" lon="-105.229789">
  <ele>1583.0</ele>
  <time>2026-09-02T20:50:56Z</time>
  <course>0.0</course>
  <speed>0.0</speed>
  <fix>3d</fix>
</trkpt>
<trkpt lat="40.0713749" lon="-105.229789">
  <ele>1583.0</ele>
  <time>2026-09-02T20:50:56Z</time>
  <course>0.0</course>
  <speed>0.0</speed>
  <fix>3d</fix>
</trkpt>
<trkpt lat="40.0713749" lon="-105.229789">
  <ele>1583.0</ele>
  <time>2026-09-02T20:50:56Z</time>
  <course>0.0</course>
  <speed>0.0</speed>
  <fix>3d</fix>
</trkpt>
<trkpt lat="40.0713749" lon="-105.229789">
  <ele>1583.0</ele>
  <time>2026-09-02T20:50:56Z</time>
  <course>0.0</course>
  <speed>0.0</speed>
  <fix>3d</fix>
</trkpt>
<trkpt lat="40.0713749" lon="-105.229789">
  <ele>1583.0</ele>
  <time>2026-09-02T20:50:56Z</time>
  <course>0.0</course>
  <speed>0.0</speed>
  <fix>3d</fix>
</trkpt>
<trkpt lat="40.0713749" lon="-105.229789">
  <ele>1583.0</ele>
  <time>2026-09-02T20:50:56Z</time>
  <course>0.0</course>
  <speed>0.0</speed>
  <fix>3d</fix>
</trkpt>
<trkpt lat="40.0713749" lon="-105.229789">
  <ele>1583.0</ele>
  <time>2026-09-02T20:50:56Z</time>
  <course>0.0</course>
  <speed>0.0</speed>
  <fix>3d</fix>
</trkpt>
<trkpt lat="40.0713749" lon="-105.229789">
  <ele>1583.0</ele>
  <time>2026-09-02T20:50:56Z</time>
  <course>0.0</course>
  <speed>0.0</speed>
  <fix>3d</fix>
</trkpt>
<trkpt lat="40.0713749" lon="-105.229789">
  <ele>1583.0</ele>
  <time>2026-09-02T20:50:56Z</time>
  <course>0.0</course>
  <speed>0.0</speed>
  <fix>3d</fix>
</trkpt>
<trkpt lat="40.0713749" lon="-105.229789">
  <ele>1583.0</ele>
  <time>2026-09-02T20:50:56Z</time>
  <course>0.0</course>
  <speed>0.0</speed>
  <fix>3d</fix>
</trkpt>
<trkpt lat="40.0713749" lon="-105.229789">
  <ele>1583.0</ele>
  <time>2026-09-02T20:50:56Z</time>
  <course>0.0</course>
  <speed>0.0</speed>
  <fix>3d</fix>
</trkpt>
<trkpt lat="40.0713749" lon="-105.229789">
  <ele>1583.0</ele>
  <time>2026-09-02T20:50:56Z</time>
  <course>0.0</course>
  <speed>0.0</speed>
  <fix>3d</fix>
</trkpt>
<trkpt lat="40.0713749" lon="-105.229789">
  <ele>1583.0</ele>
  <time>2026-09-02T20:50:56Z</time>
  <course>0.0</course>
  <speed>0.0</speed>
  <fix>3d</fix>
</trkpt>
<trkpt lat="40.0713749" lon="-105.229789">
  <ele>1583.0</ele>
  <time>2026-09-02T20:50:56Z</time>
  <course>0.0</course>
  <speed>0.0</speed>
  <fix>3d</fix>
</trkpt>
<trkpt lat="40.0713749" lon="-105.229789">
  <ele>1583.0</ele>
  <time>2026-09-02T20:50:56Z</time>
  <course>0.0</course>
  <speed>0.0</speed>
  <fix>3d</fix>
</trkpt>
<trkpt lat="40.0713749" lon="-105.229789">
  <ele>1583.0</ele>
  <time>2026-09-02T20:50:56Z</time>
  <course>0.0</course>
  <speed>0.0</speed>
  <fix>3d</fix>
</trkpt>
<trkpt lat="40.0713749" lon="-105.229789">
  <ele>1583.0</ele>
  <time>2026-09-02T20:50:56Z</time>
  <course>0.0</course>
  <speed>0.0</speed>
  <fix>3d</fix>
</trkpt>
<trkpt lat="40.0713749" lon="-105.229789">
  <ele>1583.0</ele>
  <time>2026-09-02T20:50:56Z</time>
  <course>0.0</course>
  <speed>0.0</speed>
  <fix>3d</fix>
</trkpt>
<trkpt lat="40.0713749" lon="-105.229789">
  <ele>1583.0</ele>
  <time>2026-09-02T20:50:56Z</time>
  <course>0.0</course>
  <speed>0.0</speed>
  <fix>3d</fix>
</trkpt>
<trkpt lat="40.0713749" lon="-105.229789">
  <ele>1583.0</ele>
  <time>2026-09-02T20:50:56Z</time>
  <course>0.0</course>
  <speed>0.0</speed>
  <fix>3d</fix>
</trkpt>
<trkpt lat="40.0713749" lon="-105.229789">
  <ele>1583.0</ele>
  <time>2026-09-02T20:50:56Z</time>
  <course>0.0</course>
  <speed>0.0</speed>
  <fix>3d</fix>
</trkpt>
<trkpt lat="40.0713749" lon="-105.229789">
  <ele>1583.0</ele>
  <time>2026-09-02T20:50:56Z</time>
  <course>0.0</course>
  <speed>0.0</speed>
  <fix>3d</fix>
</trkpt>
<trkpt lat="40.0713749" lon="-105.229789">
  <ele>1583.0</ele>
  <time>2026-09-02T20:50:56Z</time>
  <course>0.0</course>
  <speed>0.0</speed>
  <fix>3d</fix>
</trkpt>
<trkpt lat="40.0713749" lon="-105.229789">
  <ele>1583.0</ele>
  <time>2026-09-02T20:50:56Z</time>
  <course>0.0</course>
  <speed>0.0</speed>
  <fix>3d</fix>
</trkpt>
<trkpt lat="40.0713749" lon="-105.229789">
  <ele>1583.0</ele>
  <time>2026-09-02T20:50:56Z</time>
  <course>0.0</course>
  <speed>0.0</speed>
  <fix>3d</fix>
</trkpt>
<trkpt lat="40.0713749" lon="-105.229789">
  <ele>1583.0</ele>
  <time>2026-09-02T20:50:56Z</time>
  <course>0.0</course>
  <speed>0.0</speed>
  <fix>3d</fix>
</trkpt>
<trkpt lat="40.0713749" lon="-105.229789">
  <ele>1583.0</ele>
  <time>2026-09-02T20:50:56Z</time>
  <course>0.0</course>
  <speed>0.0</speed>
  <fix>3d</fix>
</trkpt>
<trkpt lat="40.0713749" lon="-105.229789">
  <ele>1583.0</ele>
  <time>2026-09-02T20:50:56Z</time>
  <course>0.0</course>
  <speed>0.0</speed>
  <fix>3d</fix>
</trkpt>
<trkpt lat="40.0713749" lon="-105.229789">
  <ele>1583.0</ele>
  <time>2026-09-02T20:50:56Z</time>
  <course>0.0</course>
  <speed>0.0</speed>
  <fix>3d</fix>
</trkpt>
<trkpt lat="40.0713749" lon="-105.229789">
  <ele>1583.0</ele>
  <time>2026-09-02T20:50:56Z</time>
  <course>0.0</course>
  <speed>0.0</speed>
  <fix>3d</fix>
</trkpt>
<trkpt lat="40.0713749" lon="-105.229789">
  <ele>1583.0</ele>
  <time>2026-09-02T20:50:56Z</time>
  <course>0.0</course>
  <speed>0.0</speed>
  <fix>3d</fix>
</trkpt>
<trkpt lat="40.0713749" lon="-105.229789">
  <ele>1583.0</ele>
  <time>2026-09-02T20:50:56Z</time>
  <course>0.0</course>
  <speed>0.0</speed>
  <fix>3d</fix>
</trkpt>
<trkpt lat="40.0713749" lon="-105.229789">
  <ele>1583.0</ele>
  <time>2026-09-02T20:50:56Z</time>
  <course>0.0</course>
  <speed>0.0</speed>
  <fix>3d</fix>
</trkpt>
<trkpt lat="40.0713749" lon="-105.229789">
  <ele>1583.0</ele>
  <time>2026-09-02T20:50:56Z</time>
  <course>0.0</course>
  <speed>0.0</speed>
  <fix>3d</fix>
</trkpt>
<trkpt lat="40.0713749" lon="-105.229789">
  <ele>1583.0</ele>
  <time>2026-09-02T20:50:56Z</time>
  <course>0.0</course>
  <speed>0.0</speed>
  <fix>3d</fix>
</trkpt>
<trkpt lat="40.0713749" lon="-105.229789">
  <ele>1583.0</ele>
  <time>2026-09-02T20:50:56Z</time>
  <course>0.0</course>
  <speed>0.0</speed>
  <fix>3d</fix>
</trkpt>
<trkpt lat="40.0713749" lon="-105.229789">
  <ele>1583.0</ele>
  <time>2026-09-02T20:50:56Z</time>
  <course>0.0</course>
  <speed>0.0</speed>
  <fix>3d</fix>
</trkpt>
<trkpt lat="40.0713749" lon="-105.229789">
  <ele>1583.0</ele>
  <time>2026-09-02T20:50:56Z</time>
  <course>0.0</course>
  <speed>0.0</speed>
  <fix>3d</fix>
</trkpt>
<trkpt lat="40.0713749" lon="-105.229789">
  <ele>1583.0</ele>
  <time>2026-09-02T20:50:56Z</time>
  <course>0.0</course>
  <speed>0.0</speed>
  <fix>3d</fix>
</trkpt>
<trkpt lat="40.0713749" lon="-105.229789">
  <ele>1583.0</ele>
  <time>2026-09-02T20:50:56Z</time>
  <course>0.0</course>
  <speed>0.0</speed>
  <fix>3d</fix>
</trkpt>
<trkpt lat="40.0713749" lon="-105.229789">
  <ele>1583.0</ele>
  <time>2026-09-02T20:50:56Z</time>
  <course>0.0</course>
  <speed>0.0</speed>
  <fix>3d</fix>
</trkpt>
<trkpt lat="40.0713749" lon="-105.229789">
  <ele>1583.0</ele>
  <time>2026-09-02T20:50:56Z</time>
  <course>0.0</course>
  <speed>0.0</speed>
  <fix>3d</fix>
</trkpt>
<trkpt lat="40.0713749" lon="-105.229789">
  <ele>1583.0</ele>
  <time>2026-09-02T20:50:56Z</time>
  <course>0.0</course>
  <speed>0.0</speed>
  <fix>3d</fix>
</trkpt>
<trkpt lat="40.0713749" lon="-105.229789">
  <ele>1583.0</ele>
  <time>2026-09-02T20:50:56Z</time>
  <course>0.0</course>
  <speed>0.0</speed>
  <fix>3d</fix>
</trkpt>
<trkpt lat="40.0713749" lon="-105.229789">
  <ele>1583.0</ele>
  <time>2026-09-02T20:50:56Z</time>
  <course>0.0</course>
  <speed>0.0</speed>
  <fix>3d</fix>
</trkpt>
<trkpt lat="40.0713749" lon="-105.229789">
  <ele>1583.0</ele>
  <time>2026-09-02T20:50:56Z</time>
  <course>0.0</course>
  <speed>0.0</speed>
  <fix>3d</fix>
</trkpt>
<trkpt lat="40.0713749" lon="-105.229789">
  <ele>1583.0</ele>
  <time>2026-09-02T20:50:56Z</time>
  <course>0.0</course>
  <speed>0.0</speed>
  <fix>3d</fix>
</trkpt>
<trkpt lat="40.0713749" lon="-105.229789">
  <ele>1583.0</ele>
  <time>2026-09-02T20:50:56Z</time>
  <course>0.0</course>
  <speed>0.0</speed>
  <fix>3d</fix>
</trkpt>
<trkpt lat="40.0713749" lon="-105.229789">
  <ele>1583.0</ele>
  <time>2026-09-02T20:50:56Z</time>
  <course>0.0</course>
  <speed>0.0</speed>
  <fix>3d</fix>
</trkpt>
<trkpt lat="40.0713749" lon="-105.229789">
  <ele>1583.0</ele>
  <time>2026-09-02T20:50:56Z</time>
  <course>0.0</course>
  <speed>0.0</speed>
  <fix>3d</fix>
</trkpt>
<trkpt lat="40.0713749" lon="-105.229789">
  <ele>1583.0</ele>
  <time>2026-09-02T20:50:56Z</time>
  <course>0.0</course>
  <speed>0.0</speed>
  <fix>3d</fix>
</trkpt>
<trkpt lat="40.0713749" lon="-105.229789">
  <ele>1583.0</ele>
  <time>2026-09-02T20:50:56Z</time>
  <course>0.0</course>
  <speed>0.0</speed>
  <fix>3d</fix>
</trkpt>
<trkpt lat="40.0713749" lon="-105.229789">
  <ele>1583.0</ele>
  <time>2026-09-02T20:50:56Z</time>
  <course>0.0</course>
  <speed>0.0</speed>
  <fix>3d</fix>
</trkpt>
<trkpt lat="40.0713749" lon="-105.229789">
  <ele>1583.0</ele>
  <time>2026-09-02T20:50:56Z</time>
  <course>0.0</course>
  <speed>0.0</speed>
  <fix>3d</fix>
</trkpt>
<trkpt lat="40.0713749" lon="-105.229789">
  <ele>1583.0</ele>
  <time>2026-09-02T20:50:56Z</time>
  <course>0.0</course>
  <speed>0.0</speed>
  <fix>3d</fix>
</trkpt>
<trkpt lat="40.0713749" lon="-105.229789">
  <ele>1583.0</ele>
  <time>2026-09-02T20:50:56Z</time>
  <course>0.0</course>
  <speed>0.0</speed>
  <fix>3d</fix>
</trkpt>
<trkpt lat="40.0713749" lon="-105.229789">
  <ele>1583.0</ele>
  <time>2026-09-02T20:50:56Z</time>
  <course>0.0</course>
  <speed>0.0</speed>
  <fix>3d</fix>
</trkpt>
<trkpt lat="40.0713749" lon="-105.229789">
  <ele>1583.0</ele>
  <time>2026-09-02T20:50:56Z</time>
  <course>0.0</course>
  <speed>0.0</speed>
  <fix>3d</fix>
</trkpt>
<trkpt lat="40.0713749" lon="-105.229789">
  <ele>1583.0</ele>
  <time>2026-09-02T20:50:56Z</time>
  <course>0.0</course>
  <speed>0.0</speed>
  <fix>3d</fix>
</trkpt>
<trkpt lat="40.0713749" lon="-105.229789">
  <ele>1583.0</ele>
  <time>2026-09-02T20:50:56Z</time>
  <course>0.0</course>
  <speed>0.06</speed>
  <fix>3d</fix>
</trkpt>
<trkpt lat="40.0713749" lon="-105.229789">
  <ele>1583.0</ele>
  <time>2026-09-02T20:50:56Z</time>
  <course>0.0</course>
  <speed>0.0</speed>
  <fix>3d</fix>
</trkpt>
<trkpt lat="40.0713749" lon="-105.229789">
  <ele>1582.99</ele>
  <time>2026-09-02T20:50:56Z</time>
  <course>0.0</course>
  <speed>0.05</speed>
  <fix>3d</fix>
</trkpt>
<trkpt lat="40.0713749" lon="-105.229789">
  <ele>1583.0</ele>
  <time>2026-09-02T20:50:56Z</time>
  <course>0.0</course>
  <speed>0.0</speed>
  <fix>3d</fix>
</trkpt>
<trkpt lat="40.0713749" lon="-105.229789">
  <ele>1582.99</ele>
  <time>2026-09-02T20:50:56Z</time>
  <course>0.0</course>
  <speed>0.14</speed>
  <fix>3d</fix>
</trkpt>
<trkpt lat="40.0713749" lon="-105.229789">
  <ele>1582.99</ele>
  <time>2026-09-02T20:50:56Z</time>
  <course>0.0</course>
  <speed>0.03</speed>
  <fix>3d</fix>
</trkpt>
<trkpt lat="40.0713751" lon="-105.229789">
  <ele>1582.99</ele>
  <time>2026-09-02T20:50:56Z</time>
  <course>0.0</course>
  <speed>0.15</speed>
  <fix>3d</fix>
</trkpt>
<trkpt lat="40.0713749" lon="-105.229789">
  <ele>1582.99</ele>
  <time>2026-09-02T20:50:56Z</time>
  <course>0.0</course>
  <speed>0.03</speed>
  <fix>3d</fix>
</trkpt>
<trkpt lat="40.0713754" lon="-105.229789">
  <ele>1582.99</ele>
  <time>2026-09-02T20:50:56Z</time>
  <course>0.0</course>
  <speed>0.2</speed>
  <fix>3d</fix>
</trkpt>
<trkpt lat="40.071375" lon="-105.229789">
  <ele>1582.99</ele>
  <time>2026-09-02T20:50:56Z</time>
  <course>0.0</course>
  <speed>0.12</speed>
  <fix>3d</fix>
</trkpt>
<trkpt lat="40.0713754" lon="-105.229789">
  <ele>1582.99</ele>
  <time>2026-09-02T20:50:56Z</time>
  <course>0.0</course>
  <speed>0.2</speed>
  <fix>3d</fix>
</trkpt>
<trkpt lat="40.071375" lon="-105.229789">
  <ele>1582.99</ele>
  <time>2026-09-02T20:50:56Z</time>
  <course>0.0</course>
  <speed>0.12</speed>
  <fix>3d</fix>
</trkpt>
<trkpt lat="40.0713757" lon="-105.229789">
  <ele>1582.99</ele>
  <time>2026-09-02T20:50:56Z</time>
  <course>0.0</course>
  <speed>0.22</speed>
  <fix>3d</fix>
</trkpt>
<trkpt lat="40.0713753" lon="-105.229789">
  <ele>1582.99</ele>
  <time>2026-09-02T20:50:56Z</time>
  <course>0.0</course>
  <speed>0.19</speed>
  <fix>3d</fix>
</trkpt>
<trkpt lat="40.0713759" lon="-105.229789">
  <ele>1582.99</ele>
  <time>2026-09-02T20:50:56Z</time>
  <course>0.0</course>
  <speed>0.21</speed>
  <fix>3d</fix>
</trkpt>
<trkpt lat="40.0713753" lon="-105.229789">
  <ele>1582.99</ele>
  <time>2026-09-02T20:50:56Z</time>
  <course>0.0</course>
  <speed>0.19</speed>
  <fix>3d</fix>
</trkpt>
<trkpt lat="40.071376" lon="-105.229789">
  <ele>1582.99</ele>
  <time>2026-09-02T20:50:56Z</time>
  <course>0.0</course>
  <speed>0.21</speed>
  <fix>3d</fix>
</trkpt>
<trkpt lat="40.0713757" lon="-105.229789">
  <ele>1582.99</ele>
  <time>2026-09-02T20:50:56Z</time>
  <course>0.0</course>
  <speed>0.22</speed>
  <fix>3d</fix>
</trkpt>
<trkpt lat="40.0713763" lon="-105.229789">
  <ele>1582.99</ele>
  <time>2026-09-02T20:50:56Z</time>
  <course>0.0</course>
  <speed>0.19</speed>
  <fix>3d</fix>
</trkpt>
<trkpt lat="40.071376" lon="-105.229789">
  <ele>1582.99</ele>
  <time>2026-09-02T20:50:56Z</time>
  <course>0.0</course>
  <speed>0.21</speed>
  <fix>3d</fix>
</trkpt>
<trkpt lat="40.0713765" lon="-105.229789">
  <ele>1582.99</ele>
  <time>2026-09-02T20:50:56Z</time>
  <course>0.0</course>
  <speed>0.18</speed>
  <fix>3d</fix>
</trkpt>
<trkpt lat="40.071376" lon="-105.229789">
  <ele>1582.99</ele>
  <time>2026-09-02T20:50:56Z</time>
  <course>0.0</course>
  <speed>0.21</speed>
  <fix>3d</fix>
</trkpt>
<trkpt lat="40.0713766" lon="-105.229789">
  <ele>1582.99</ele>
  <time>2026-09-02T20:50:56Z</time>
  <course>0.0</course>
  <speed>0.16</speed>
  <fix>3d</fix>
</trkpt>
<trkpt lat="40.0713764" lon="-105.229789">
  <ele>1582.99</ele>
  <time>2026-09-02T20:50:56Z</time>
  <course>359.99</course>
  <speed>0.18</speed>
  <fix>3d</fix>
</trkpt>
<trkpt lat="40.0713767" lon="-105.229789">
  <ele>1582.99</ele>
  <time>2026-09-02T20:50:56Z</time>
  <course>0.0</course>
  <speed>0.15</speed>
  <fix>3d</fix>
</trkpt>
<trkpt lat="40.0713764" lon="-105.229789">
  <ele>1582.99</ele>
  <time>2026-09-02T20:50:56Z</time>
  <course>359.99</course>
  <speed>0.18</speed>
  <fix>3d</fix>
</trkpt>
<trkpt lat="40.0713769" lon="-105.229789">
  <ele>1582.99</ele>
  <time>2026-09-02T20:50:56Z</time>
  <course>0.0</course>
  <speed>0.14</speed>
  <fix>3d</fix>
</trkpt>
<trkpt lat="40.0713767" lon="-105.229789">
  <ele>1582.99</ele>
  <time>2026-09-02T20:50:56Z</time>
  <course>359.99</course>
  <speed>0.15</speed>
  <fix>3d</fix>
</trkpt>
<trkpt lat="40.071377" lon="-105.229789">
  <ele>1582.99</ele>
  <time>2026-09-02T20:50:56Z</time>
  <course>0.0</course>
  <speed>0.12</speed>
  <fix>3d</fix>
</trkpt>
<trkpt lat="40.0713767" lon="-105.229789">
  <ele>1582.99</ele>
  <time>2026-09-02T20:50:56Z</time>
  <course>359.99</course>
  <speed>0.15</speed>
  <fix>3d</fix>
</trkpt>
<trkpt lat="40.0713771" lon="-105.229789">
  <ele>1582.99</ele>
  <time>2026-09-02T20:50:56Z</time>
  <course>0.0</course>
  <speed>0.12</speed>
  <fix>3d</fix>
</trkpt>
<trkpt lat="40.071377" lon="-105.229789">
  <ele>1582.99</ele>
  <time>2026-09-02T20:50:56Z</time>
  <course>359.99</course>
  <speed>0.13</speed>
  <fix>3d</fix>
</trkpt>
<trkpt lat="40.0713772" lon="-105.229789">
  <ele>1582.99</ele>
  <time>2026-09-02T20:50:56Z</time>
  <course>0.0</course>
  <speed>0.11</speed>
  <fix>3d</fix>
</trkpt>
<trkpt lat="40.071377" lon="-105.229789">
  <ele>1582.99</ele>
  <time>2026-09-02T20:50:56Z</time>
  <course>359.99</course>
  <speed>0.13</speed>
  <fix>3d</fix>
</trkpt>
<trkpt lat="40.0713773" lon="-105.229789">
  <ele>1582.99</ele>
  <time>2026-09-02T20:50:56Z</time>
  <course>0.0</course>
  <speed>0.11</speed>
  <fix>3d</fix>
</trkpt>
<trkpt lat="40.0713772" lon="-105.229789">
  <ele>1582.99</ele>
  <time>2026-09-02T20:50:56Z</time>
  <course>359.99</course>
  <speed>0.11</speed>
  <fix>3d</fix>
</trkpt>
<trkpt lat="40.0713774" lon="-105.229789">
  <ele>1582.99</ele>
  <time>2026-09-02T20:50:56Z</time>
  <course>0.0</course>
  <speed>0.1</speed>
  <fix>3d</fix>
</trkpt>
<trkpt lat="40.0713772" lon="-105.229789">
  <ele>1582.99</ele>
  <time>2026-09-02T20:50:56Z</time>
  <course>359.99</course>
  <speed>0.11</speed>
  <fix>3d</fix>
</trkpt>
<trkpt lat="40.0713776" lon="-105.229789">
  <ele>1582.99</ele>
  <time>2026-09-02T20:50:56Z</time>
  <course>0.0</course>
  <speed>0.11</speed>
  <fix>3d</fix>
</trkpt>
<trkpt lat="40.0713774" lon="-105.229789">
  <ele>1582.99</ele>
  <time>2026-09-02T20:50:56Z</time>
  <course>359.99</course>
  <speed>0.11</speed>
  <fix>3d</fix>
</trkpt>
<trkpt lat="40.0713777" lon="-105.229789">
  <ele>1582.99</ele>
  <time>2026-09-02T20:50:56Z</time>
  <course>0.0</course>
  <speed>0.11</speed>
  <fix>3d</fix>
</trkpt>
<trkpt lat="40.0713774" lon="-105.229789">
  <ele>1582.99</ele>
  <time>2026-09-02T20:50:56Z</time>
  <course>359.99</course>
  <speed>0.11</speed>
  <fix>3d</fix>
</trkpt>
<trkpt lat="40.0713778" lon="-105.229789">
  <ele>1582.99</ele>
  <time>2026-09-02T20:50:56Z</time>
  <course>359.99</course>
  <speed>0.11</speed>
  <fix>3d</fix>
</trkpt>
<trkpt lat="40.0713777" lon="-105.229789">
  <ele>1582.99</ele>
  <time>2026-09-02T20:50:56Z</time>
  <course>359.98</course>
  <speed>0.11</speed>
  <fix>3d</fix>
</trkpt>
<trkpt lat="40.0713779" lon="-105.229789">
  <ele>1582.99</ele>
  <time>2026-09-02T20:50:56Z</time>
  <course>359.99</course>
  <speed>0.12</speed>
  <fix>3d</fix>
</trkpt>
<trkpt lat="40.0713777" lon="-105.229789">
  <ele>1582.99</ele>
  <time>2026-09-02T20:50:56Z</time>
  <course>359.98</course>
  <speed>0.11</speed>
  <fix>3d</fix>
</trkpt>
<trkpt lat="40.0713779" lon="-105.229789">
  <ele>1582.99</ele>
  <time>2026-09-02T20:50:56Z</time>
  <course>359.99</course>
  <speed>0.11</speed>
  <fix>3d</fix>
</trkpt>
<trkpt lat="40.0713777" lon="-105.229789">
  <ele>1582.99</ele>
  <time>2026-09-02T20:50:56Z</time>
  <course>359.98</course>
  <speed>0.11</speed>
  <fix>3d</fix>
</trkpt>
<trkpt lat="40.071378" lon="-105.229789">
  <ele>1582.99</ele>
  <time>2026-09-02T20:50:56Z</time>
  <course>359.99</course>
  <speed>0.12</speed>
  <fix>3d</fix>
</trkpt>
<trkpt lat="40.0713779" lon="-105.229789">
  <ele>1582.99</ele>
  <time>2026-09-02T20:50:56Z</time>
  <course>359.98</course>
  <speed>0.11</speed>
  <fix>3d</fix>
</trkpt>
<trkpt lat="40.0713782" lon="-105.229789">
  <ele>1582.99</ele>
  <time>2026-09-02T20:50:56Z</time>
  <course>359.99</course>
  <speed>0.13</speed>
  <fix>3d</fix>
</trkpt>
<trkpt lat="40.0713779" lon="-105.229789">
  <ele>1582.99</ele>
  <time>2026-09-02T20:50:56Z</time>
  <course>359.98</course>
  <speed>0.11</speed>
  <fix>3d</fix>
</trkpt>
<trkpt lat="40.0713783" lon="-105.229789">
  <ele>1582.99</ele>
  <time>2026-09-02T20:50:56Z</time>
  <course>359.99</course>
  <speed>0.12</speed>
  <fix>3d</fix>
</trkpt>
<trkpt lat="40.071378" lon="-105.229789">
  <ele>1582.99</ele>
  <time>2026-09-02T20:50:56Z</time>
  <course>359.98</course>
  <speed>0.12</speed>
  <fix>3d</fix>
</trkpt>
<trkpt lat="40.0713785" lon="-105.229789">
  <ele>1582.99</ele>
  <time>2026-09-02T20:50:56Z</time>
  <course>359.99</course>
  <speed>0.13</speed>
  <fix>3d</fix>
</trkpt>
<trkpt lat="40.071378" lon="-105.229789">
  <ele>1582.99</ele>
  <time>2026-09-02T20:50:56Z</time>
  <course>359.98</course>
  <speed>0.12</speed>
  <fix>3d</fix>
</trkpt>
<trkpt lat="40.0713785" lon="-105.229789">
  <ele>1582.99</ele>
  <time>2026-09-02T20:50:56Z</time>
  <course>359.99</course>
  <speed>0.13</speed>
  <fix>3d</fix>
</trkpt>
<trkpt lat="40.0713783" lon="-105.229789">
  <ele>1582.99</ele>
  <time>2026-09-02T20:50:56Z</time>
  <course>359.98</course>
  <speed>0.13</speed>
  <fix>3d</fix>
</trkpt>
<trkpt lat="40.0713786" lon="-105.229789">
  <ele>1582.99</ele>
  <time>2026-09-02T20:50:56Z</time>
  <course>359.99</course>
  <speed>0.13</speed>
  <fix>3d</fix>
</trkpt>
<trkpt lat="40.0713786" lon="-105.229789">
  <ele>1582.99</ele>
  <time>2026-09-02T20:50:56Z</time>
  <course>359.98</course>
  <speed>0.14</speed>
  <fix>3d</fix>
</trkpt>
<trkpt lat="40.0713788" lon="-105.229789">
  <ele>1582.99</ele>
  <time>2026-09-02T20:50:56Z</time>
  <course>359.99</course>
  <speed>0.13</speed>
  <fix>3d</fix>
</trkpt>
<trkpt lat="40.0713786" lon="-105.229789">
  <ele>1582.99</ele>
  <time>2026-09-02T20:50:56Z</time>
  <course>359.98</course>
  <speed>0.14</speed>
  <fix>3d</fix>
</trkpt>
<trkpt lat="40.0713789" lon="-105.229789">
  <ele>1582.99</ele>
  <time>2026-09-02T20:50:56Z</time>
  <course>359.99</course>
  <speed>0.14</speed>
  <fix>3d</fix>
</trkpt>
<trkpt lat="40.0713788" lon="-105.229789">
  <ele>1582.99</ele>
  <time>2026-09-02T20:50:56Z</time>
  <course>359.98</course>
  <speed>0.14</speed>
  <fix>3d</fix>
</trkpt>
<trkpt lat="40.0713791" lon="-105.229789">
  <ele>1582.99</ele>
  <time>2026-09-02T20:50:56Z</time>
  <course>359.99</course>
  <speed>0.13</speed>
  <fix>3d</fix>
</trkpt>
<trkpt lat="40.0713788" lon="-105.229789">
  <ele>1582.99</ele>
  <time>2026-09-02T20:50:56Z</time>
  <course>359.98</course>
  <speed>0.14</speed>
  <fix>3d</fix>
</trkpt>
<trkpt lat="40.0713791" lon="-105.229789">
  <ele>1582.99</ele>
  <time>2026-09-02T20:50:56Z</time>
  <course>359.99</course>
  <speed>0.14</speed>
  <fix>3d</fix>
</trkpt>
<trkpt lat="40.071379" lon="-105.229789">
  <ele>1582.99</ele>
  <time>2026-09-02T20:50:56Z</time>
  <course>359.98</course>
  <speed>0.14</speed>
  <fix>3d</fix>
</trkpt>
<trkpt lat="40.0713792" lon="-105.229789">
  <ele>1582.99</ele>
  <time>2026-09-02T20:50:56Z</time>
  <course>359.98</course>
  <speed>0.13</speed>
  <fix>3d</fix>
</trkpt>
<trkpt lat="40.071379" lon="-105.229789">
  <ele>1582.99</ele>
  <time>2026-09-02T20:50:56Z</time>
  <course>359.98</course>
  <speed>0.14</speed>
  <fix>3d</fix>
</trkpt>
<trkpt lat="40.0713794" lon="-105.229789">
  <ele>1582.99</ele>
  <time>2026-09-02T20:50:56Z</time>
  <course>359.98</course>
  <speed>0.13</speed>
  <fix>3d</fix>
</trkpt>
<trkpt lat="40.0713792" lon="-105.229789">
  <ele>1582.99</ele>
  <time>2026-09-02T20:50:56Z</time>
  <course>359.97</course>
  <speed>0.14</speed>
  <fix>3d</fix>
</trkpt>
<trkpt lat="40.0713796" lon="-105.229789">
  <ele>1582.99</ele>
  <time>2026-09-02T20:50:56Z</time>
  <course>359.98</course>
  <speed>0.13</speed>
  <fix>3d</fix>
</trkpt>
<trkpt lat="40.0713792" lon="-105.229789">
  <ele>1582.99</ele>
  <time>2026-09-02T20:50:56Z</time>
  <course>359.97</course>
  <speed>0.14</speed>
  <fix>3d</fix>
</trkpt>
<trkpt lat="40.0713797" lon="-105.229789">
  <ele>1582.99</ele>
  <time>2026-09-02T20:50:56Z</time>
  <course>359.98</course>
  <speed>0.13</speed>
  <fix>3d</fix>
</trkpt>
<trkpt lat="40.0713795" lon="-105.229789">
  <ele>1582.99</ele>
  <time>2026-09-02T20:50:56Z</time>
  <course>359.97</course>
  <speed>0.13</speed>
  <fix>3d</fix>
</trkpt>
<trkpt lat="40.0713797" lon="-105.229789">
  <ele>1582.99</ele>
  <time>2026-09-02T20:50:56Z</time>
  <course>359.98</course>
  <speed>0.13</speed>
  <fix>3d</fix>
</trkpt>
<trkpt lat="40.0713795" lon="-105.229789">
  <ele>1582.99</ele>
  <time>2026-09-02T20:50:56Z</time>
  <course>359.97</course>
  <speed>0.13</speed>
  <fix>3d</fix>
</trkpt>
<trkpt lat="40.0713798" lon="-105.229789">
  <ele>1582.99</ele>
  <time>2026-09-02T20:50:56Z</time>
  <course>359.98</course>
  <speed>0.13</speed>
  <fix>3d</fix>
</trkpt>
<trkpt lat="40.0713798" lon="-105.229789">
  <ele>1582.99</ele>
  <time>2026-09-02T20:50:56Z</time>
  <course>359.97</course>
  <speed>0.13</speed>
  <fix>3d</fix>
</trkpt>
<trkpt lat="40.0713801" lon="-105.229789">
  <ele>1582.99</ele>
  <time>2026-09-02T20:50:56Z</time>
  <course>359.97</course>
  <speed>0.13</speed>
  <fix>3d</fix>
</trkpt>
<trkpt lat="40.0713798" lon="-105.229789">
  <ele>1582.99</ele>
  <time>2026-09-02T20:50:56Z</time>
  <course>359.97</course>
  <speed>0.13</speed>
  <fix>3d</fix>
</trkpt>
<trkpt lat="40.0713802" lon="-105.229789">
  <ele>1582.99</ele>
  <time>2026-09-02T20:50:56Z</time>
  <course>359.97</course>
  <speed>0.13</speed>
  <fix>3d</fix>
</trkpt>
<trkpt lat="40.07138" lon="-105.229789">
  <ele>1582.99</ele>
  <time>2026-09-02T20:50:56Z</time>
  <course>359.96</course>
  <speed>0.13</speed>
  <fix>3d</fix>
</trkpt>
<trkpt lat="40.0713803" lon="-105.229789">
  <ele>1582.99</ele>
  <time>2026-09-02T20:50:56Z</time>
  <course>359.97</course>
  <speed>0.13</speed>
  <fix>3d</fix>
</trkpt>
<trkpt lat="40.07138" lon="-105.229789">
  <ele>1582.99</ele>
  <time>2026-09-02T20:50:56Z</time>
  <course>359.96</course>
  <speed>0.13</speed>
  <fix>3d</fix>
</trkpt>
<trkpt lat="40.0713803" lon="-105.229789">
  <ele>1582.99</ele>
  <time>2026-09-02T20:50:56Z</time>
  <course>359.97</course>
  <speed>0.13</speed>
  <fix>3d</fix>
</trkpt>
<trkpt lat="40.07138" lon="-105.229789">
  <ele>1582.99</ele>
  <time>2026-09-02T20:50:56Z</time>
  <course>359.96</course>
  <speed>0.13</speed>
  <fix>3d</fix>
</trkpt>
<trkpt lat="40.0713806" lon="-105.229789">
  <ele>1582.99</ele>
  <time>2026-09-02T20:50:56Z</time>
  <course>359.97</course>
  <speed>0.13</speed>
  <fix>3d</fix>
</trkpt>
<trkpt lat="40.0713803" lon="-105.229789">
  <ele>1582.99</ele>
  <time>2026-09-02T20:50:56Z</time>
  <course>359.96</course>
  <speed>0.13</speed>
  <fix>3d</fix>
</trkpt>
<trkpt lat="40.0713807" lon="-105.229789">
  <ele>1582.99</ele>
  <time>2026-09-02T20:50:56Z</time>
  <course>359.97</course>
  <speed>0.13</speed>
  <fix>3d</fix>
</trkpt>
<trkpt lat="40.0713803" lon="-105.229789">
  <ele>1582.99</ele>
  <time>2026-09-02T20:50:56Z</time>
  <course>359.96</course>
  <speed>0.13</speed>
  <fix>3d</fix>
</trkpt>
<trkpt lat="40.0713808" lon="-105.229789">
  <ele>1582.99</ele>
  <time>2026-09-02T20:50:56Z</time>
  <course>359.97</course>
  <speed>0.13</speed>
  <fix>3d</fix>
</trkpt>
<trkpt lat="40.0713805" lon="-105.229789">
  <ele>1582.99</ele>
  <time>2026-09-02T20:50:56Z</time>
  <course>359.96</course>
  <speed>0.13</speed>
  <fix>3d</fix>
</trkpt>
<trkpt lat="40.0713809" lon="-105.229789">
  <ele>1582.99</ele>
  <time>2026-09-02T20:50:56Z</time>
  <course>359.97</course>
  <speed>0.13</speed>
  <fix>3d</fix>
</trkpt>
<trkpt lat="40.0713805" lon="-105.229789">
  <ele>1582.99</ele>
  <time>2026-09-02T20:50:56Z</time>
  <course>359.96</course>
  <speed>0.13</speed>
  <fix>3d</fix>
</trkpt>
<trkpt lat="40.071381" lon="-105.229789">
  <ele>1582.99</ele>
  <time>2026-09-02T20:50:56Z</time>
  <course>359.97</course>
  <speed>0.13</speed>
  <fix>3d</fix>
</trkpt>
<trkpt lat="40.0713808" lon="-105.229789">
  <ele>1582.99</ele>
  <time>2026-09-02T20:50:56Z</time>
  <course>359.96</course>
  <speed>0.13</speed>
  <fix>3d</fix>
</trkpt>
<trkpt lat="40.0713812" lon="-105.229789">
  <ele>1582.99</ele>
  <time>2026-09-02T20:50:56Z</time>
  <course>359.97</course>
  <speed>0.13</speed>
  <fix>3d</fix>
</trkpt>
<trkpt lat="40.071381" lon="-105.229789">
  <ele>1582.99</ele>
  <time>2026-09-02T20:50:56Z</time>
  <course>359.96</course>
  <speed>0.13</speed>
  <fix>3d</fix>
</trkpt>
<trkpt lat="40.0713813" lon="-105.229789">
  <ele>1582.99</ele>
  <time>2026-09-02T20:50:56Z</time>
  <course>359.97</course>
  <speed>0.13</speed>
  <fix>3d</fix>
</trkpt>
<trkpt lat="40.071381" lon="-105.229789">
  <ele>1582.99</ele>
  <time>2026-09-02T20:50:56Z</time>
  <course>359.96</course>
  <speed>0.13</speed>
  <fix>3d</fix>
</trkpt>
<trkpt lat="40.0713814" lon="-105.229789">
  <ele>1582.99</ele>
  <time>2026-09-02T20:50:56Z</time>
  <course>359.97</course>
  <speed>0.13</speed>
  <fix>3d</fix>
</trkpt>
<trkpt lat="40.0713813" lon="-105.229789">
  <ele>1582.99</ele>
  <time>2026-09-02T20:50:56Z</time>
  <course>359.96</course>
  <speed>0.13</speed>
  <fix>3d</fix>
</trkpt>
<trkpt lat="40.0713815" lon="-105.229789">
  <ele>1582.99</ele>
  <time>2026-09-02T20:50:56Z</time>
  <course>359.96</course>
  <speed>0.13</speed>
  <fix>3d</fix>
</trkpt>
<trkpt lat="40.0713813" lon="-105.229789">
  <ele>1582.99</ele>
  <time>2026-09-02T20:50:56Z</time>
  <course>359.96</course>
  <speed>0.13</speed>
  <fix>3d</fix>
</trkpt>
<trkpt lat="40.0713816" lon="-105.229789">
  <ele>1582.99</ele>
  <time>2026-09-02T20:50:56Z</time>
  <course>359.96</course>
  <speed>0.13</speed>
  <fix>3d</fix>
</trkpt>
<trkpt lat="40.0713815" lon="-105.229789">
  <ele>1582.99</ele>
  <time>2026-09-02T20:50:56Z</time>
  <course>359.96</course>
  <speed>0.13</speed>
  <fix>3d</fix>
</trkpt>
<trkpt lat="40.0713818" lon="-105.229789">
  <ele>1582.99</ele>
  <time>2026-09-02T20:50:56Z</time>
  <course>359.96</course>
  <speed>0.13</speed>
  <fix>3d</fix>
</trkpt>
<trkpt lat="40.0713815" lon="-105.229789">
  <ele>1582.99</ele>
  <time>2026-09-02T20:50:56Z</time>
  <course>359.96</course>
  <speed>0.13</speed>
  <fix>3d</fix>
</trkpt>
<trkpt lat="40.0713819" lon="-105.229789">
  <ele>1582.99</ele>
  <time>2026-09-02T20:50:56Z</time>
  <course>359.96</course>
  <speed>0.13</speed>
  <fix>3d</fix>
</trkpt>
<trkpt lat="40.0713818" lon="-105.229789">
  <ele>1582.99</ele>
  <time>2026-09-02T20:50:56Z</time>
  <course>359.95</course>
  <speed>0.13</speed>
  <fix>3d</fix>
</trkpt>
<trkpt lat="40.071382" lon="-105.229789">
  <ele>1582.99</ele>
  <time>2026-09-02T20:50:56Z</time>
  <course>359.96</course>
  <speed>0.14</speed>
  <fix>3d</fix>
</trkpt>
<trkpt lat="40.0713818" lon="-105.229789">
  <ele>1582.99</ele>
  <time>2026-09-02T20:50:56Z</time>
  <course>359.95</course>
  <speed>0.13</speed>
  <fix>3d</fix>
</trkpt>
<trkpt lat="40.0713821" lon="-105.229789">
  <ele>1582.99</ele>
  <time>2026-09-02T20:50:56Z</time>
  <course>359.96</course>
  <speed>0.13</speed>
  <fix>3d</fix>
</trkpt>
<trkpt lat="40.071382" lon="-105.229789">
  <ele>1582.99</ele>
  <time>2026-09-02T20:50:56Z</time>
  <course>359.95</course>
  <speed>0.13</speed>
  <fix>3d</fix>
</trkpt>
<trkpt lat="40.0713822" lon="-105.229789">
  <ele>1582.99</ele>
  <time>2026-09-02T20:50:56Z</time>
  <course>359.96</course>
  <speed>0.14</speed>
  <fix>3d</fix>
</trkpt>
<trkpt lat="40.071382" lon="-105.229789">
  <ele>1582.99</ele>
  <time>2026-09-02T20:50:56Z</time>
  <course>359.95</course>
  <speed>0.13</speed>
  <fix>3d</fix>
</trkpt>
<trkpt lat="40.0713824" lon="-105.229789">
  <ele>1582.99</ele>
  <time>2026-09-02T20:50:56Z</time>
  <course>359.96</course>
  <speed>0.13</speed>
  <fix>3d</fix>
</trkpt>
<trkpt lat="40.0713822" lon="-105.229789">
  <ele>1582.99</ele>
  <time>2026-09-02T20:50:56Z</time>
  <course>359.95</course>
  <speed>0.13</speed>
  <fix>3d</fix>
</trkpt>
<trkpt lat="40.0713825" lon="-105.229789">
  <ele>1582.99</ele>
  <time>2026-09-02T20:50:56Z</time>
  <course>359.96</course>
  <speed>0.14</speed>
  <fix>3d</fix>
</trkpt>
<trkpt lat="40.0713822" lon="-105.229789">
  <ele>1582.99</ele>
  <time>2026-09-02T20:50:56Z</time>
  <course>359.95</course>
  <speed>0.13</speed>
  <fix>3d</fix>
</trkpt>
<trkpt lat="40.0713827" lon="-105.229789">
  <ele>1582.99</ele>
  <time>2026-09-02T20:50:56Z</time>
  <course>359.96</course>
  <speed>0.13</speed>
  <fix>3d</fix>
</trkpt>
<trkpt lat="40.0713825" lon="-105.229789">
  <ele>1582.99</ele>
  <time>2026-09-02T20:50:56Z</time>
  <course>359.95</course>
  <speed>0.13</speed>
  <fix>3d</fix>
</trkpt>
<trkpt lat="40.0713827" lon="-105.229789">
  <ele>1582.99</ele>
  <time>2026-09-02T20:50:56Z</time>
  <course>359.95</course>
  <speed>0.14</speed>
  <fix>3d</fix>
</trkpt>
<trkpt lat="40.0713825" lon="-105.229789">
  <ele>1582.99</ele>
  <time>2026-09-02T20:50:56Z</time>
  <course>359.95</course>
  <speed>0.13</speed>
  <fix>3d</fix>
</trkpt>
<trkpt lat="40.0713828" lon="-105.229789">
  <ele>1582.99</ele>
  <time>2026-09-02T20:50:56Z</time>
  <course>359.95</course>
  <speed>0.13</speed>
  <fix>3d</fix>
</trkpt>
<trkpt lat="40.0713825" lon="-105.229789">
  <ele>1582.99</ele>
  <time>2026-09-02T20:50:56Z</time>
  <course>359.95</course>
  <speed>0.13</speed>
  <fix>3d</fix>
</trkpt>
<trkpt lat="40.071383" lon="-105.229789">
  <ele>1582.99</ele>
  <time>2026-09-02T20:50:56Z</time>
  <course>359.95</course>
  <speed>0.14</speed>
  <fix>3d</fix>
</trkpt>
<trkpt lat="40.0713827" lon="-105.229789">
  <ele>1582.99</ele>
  <time>2026-09-02T20:50:56Z</time>
  <course>359.95</course>
  <speed>0.13</speed>
  <fix>3d</fix>
</trkpt>
<trkpt lat="40.0713832" lon="-105.229789">
  <ele>1582.99</ele>
  <time>2026-09-02T20:50:56Z</time>
  <course>359.95</course>
  <speed>0.13</speed>
  <fix>3d</fix>
</trkpt>
<trkpt lat="40.0713827" lon="-105.229789">
  <ele>1582.99</ele>
  <time>2026-09-02T20:50:56Z</time>
  <course>359.95</course>
  <speed>0.13</speed>
  <fix>3d</fix>
</trkpt>
<trkpt lat="40.0713833" lon="-105.229789">
  <ele>1582.99</ele>
  <time>2026-09-02T20:50:56Z</time>
  <course>359.95</course>
  <speed>0.14</speed>
  <fix>3d</fix>
</trkpt>
<trkpt lat="40.071383" lon="-105.229789">
  <ele>1582.99</ele>
  <time>2026-09-02T20:50:56Z</time>
  <course>359.94</course>
  <speed>0.13</speed>
  <fix>3d</fix>
</trkpt>
<trkpt lat="40.0713833" lon="-105.229789">
  <ele>1582.99</ele>
  <time>2026-09-02T20:50:56Z</time>
  <course>359.95</course>
  <speed>0.13</speed>
  <fix>3d</fix>
</trkpt>
<trkpt lat="40.071383" lon="-105.229789">
  <ele>1582.99</ele>
  <time>2026-09-02T20:50:56Z</time>
  <course>359.94</course>
  <speed>0.13</speed>
  <fix>3d</fix>
</trkpt>
<trkpt lat="40.0713834" lon="-105.229789">
  <ele>1582.99</ele>
  <time>2026-09-02T20:50:56Z</time>
  <course>359.95</course>
  <speed>0.14</speed>
  <fix>3d</fix>
</trkpt>
<trkpt lat="40.0713832" lon="-105.229789">
  <ele>1582.99</ele>
  <time>2026-09-02T20:50:56Z</time>
  <course>359.94</course>
  <speed>0.13</speed>
  <fix>3d</fix>
</trkpt>
<trkpt lat="40.0713837" lon="-105.229789">
  <ele>1582.99</ele>
  <time>2026-09-02T20:50:57Z</time>
  <course>359.94</course>
  <speed>0.13</speed>
  <fix>3d</fix>
</trkpt>
<trkpt lat="40.0713832" lon="-105.229789">
  <ele>1582.99</ele>
  <time>2026-09-02T20:50:57Z</time>
  <course>359.94</course>
  <speed>0.13</speed>
  <fix>3d</fix>
</trkpt>
<trkpt lat="40.0713838" lon="-105.229789">
  <ele>1582.99</ele>
  <time>2026-09-02T20:50:57Z</time>
  <course>359.94</course>
  <speed>0.13</speed>
  <fix>3d</fix>
</trkpt>
<trkpt lat="40.0713835" lon="-105.229789">
  <ele>1582.99</ele>
  <time>2026-09-02T20:50:57Z</time>
  <course>359.93</course>
  <speed>0.13</speed>
  <fix>3d</fix>
</trkpt>
<trkpt lat="40.0713839" lon="-105.229789">
  <ele>1582.99</ele>
  <time>2026-09-02T20:50:57Z</time>
  <course>359.94</course>
  <speed>0.13</speed>
  <fix>3d</fix>
</trkpt>
<trkpt lat="40.0713838" lon="-105.229789">
  <ele>1582.99</ele>
  <time>2026-09-02T20:50:57Z</time>
  <course>359.93</course>
  <speed>0.13</speed>
  <fix>3d</fix>
</trkpt>
<trkpt lat="40.0713839" lon="-105.229789">
  <ele>1582.99</ele>
  <time>2026-09-02T20:50:57Z</time>
  <course>359.94</course>
  <speed>0.13</speed>
  <fix>3d</fix>
</trkpt>
<trkpt lat="40.0713838" lon="-105.229789">
  <ele>1582.99</ele>
  <time>2026-09-02T20:50:57Z</time>
  <course>359.93</course>
  <speed>0.13</speed>
  <fix>3d</fix>
</trkpt>
<trkpt lat="40.0713842" lon="-105.229789">
  <ele>1582.99</ele>
  <time>2026-09-02T20:50:57Z</time>
  <course>359.94</course>
  <speed>0.13</speed>
  <fix>3d</fix>
</trkpt>
<trkpt lat="40.071384" lon="-105.229789">
  <ele>1582.99</ele>
  <time>2026-09-02T20:50:57Z</time>
  <course>359.93</course>
  <speed>0.13</speed>
  <fix>3d</fix>
</trkpt>
<trkpt lat="40.0713843" lon="-105.229789">
  <ele>1582.99</ele>
  <time>2026-09-02T20:50:57Z</time>
  <course>359.94</course>
  <speed>0.13</speed>
  <fix>3d</fix>
</trkpt>
<trkpt lat="40.071384" lon="-105.229789">
  <ele>1582.99</ele>
  <time>2026-09-02T20:50:57Z</time>
  <course>359.93</course>
  <speed>0.13</speed>
  <fix>3d</fix>
</trkpt>
<trkpt lat="40.0713844" lon="-105.229789">
  <ele>1582.99</ele>
  <time>2026-09-02T20:50:57Z</time>
  <course>359.94</course>
  <speed>0.14</speed>
  <fix>3d</fix>
</trkpt>
<trkpt lat="40.0713843" lon="-105.229789">
  <ele>1582.99</ele>
  <time>2026-09-02T20:50:57Z</time>
  <course>359.93</course>
  <speed>0.14</speed>
  <fix>3d</fix>
</trkpt>
<trkpt lat="40.0713845" lon="-105.229789">
  <ele>1582.99</ele>
  <time>2026-09-02T20:50:57Z</time>
  <course>359.94</course>
  <speed>0.13</speed>
  <fix>3d</fix>
</trkpt>
<trkpt lat="40.0713843" lon="-105.229789">
  <ele>1582.99</ele>
  <time>2026-09-02T20:50:57Z</time>
  <course>359.93</course>
  <speed>0.14</speed>
  <fix>3d</fix>
</trkpt>
<trkpt lat="40.0713846" lon="-105.229789">
  <ele>1582.99</ele>
  <time>2026-09-02T20:50:57Z</time>
  <course>359.94</course>
  <speed>0.14</speed>
  <fix>3d</fix>
</trkpt>
<trkpt lat="40.0713845" lon="-105.229789">
  <ele>1582.99</ele>
  <time>2026-09-02T20:50:57Z</time>
  <course>359.93</course>
  <speed>0.14</speed>
  <fix>3d</fix>
</trkpt>
<trkpt lat="40.0713848" lon="-105.229789">
  <ele>1582.99</ele>
  <time>2026-09-02T20:50:57Z</time>
  <course>359.94</course>
  <speed>0.13</speed>
  <fix>3d</fix>
</trkpt>
<trkpt lat="40.0713845" lon="-105.229789">
  <ele>1582.99</ele>
  <time>2026-09-02T20:50:57Z</time>
  <course>359.93</course>
  <speed>0.14</speed>
  <fix>3d</fix>
</trkpt>
<trkpt lat="40.0713849" lon="-105.229789">
  <ele>1582.99</ele>
  <time>2026-09-02T20:50:57Z</time>
  <course>359.94</course>
  <speed>0.14</speed>
  <fix>3d</fix>
</trkpt>
<trkpt lat="40.0713848" lon="-105.229789">
  <ele>1582.99</ele>
  <time>2026-09-02T20:50:57Z</time>
  <course>359.93</course>
  <speed>0.14</speed>
  <fix>3d</fix>
</trkpt>
<trkpt lat="40.071385" lon="-105.229789">
  <ele>1582.99</ele>
  <time>2026-09-02T20:50:57Z</time>
  <course>359.94</course>
  <speed>0.13</speed>
  <fix>3d</fix>
</trkpt>
<trkpt lat="40.0713848" lon="-105.229789">
  <ele>1582.99</ele>
  <time>2026-09-02T20:50:57Z</time>
  <course>359.93</course>
  <speed>0.14</speed>
  <fix>3d</fix>
</trkpt>
<trkpt lat="40.0713852" lon="-105.229789">
  <ele>1582.99</ele>
  <time>2026-09-02T20:50:57Z</time>
  <course>359.93</course>
  <speed>0.14</speed>
  <fix>3d</fix>
</trkpt>
<trkpt lat="40.071385" lon="-105.229789">
  <ele>1582.99</ele>
  <time>2026-09-02T20:50:57Z</time>
  <course>359.92</course>
  <speed>0.14</speed>
  <fix>3d</fix>
</trkpt>
<trkpt lat="40.0713852" lon="-105.229789">
  <ele>1582.99</ele>
  <time>2026-09-02T20:50:57Z</time>
  <course>359.93</course>
  <speed>0.13</speed>
  <fix>3d</fix>
</trkpt>
<trkpt lat="40.071385" lon="-105.229789">
  <ele>1582.99</ele>
  <time>2026-09-02T20:50:57Z</time>
  <course>359.92</course>
  <speed>0.14</speed>
  <fix>3d</fix>
</trkpt>
<trkpt lat="40.0713853" lon="-105.229789">
  <ele>1582.99</ele>
  <time>2026-09-02T20:50:57Z</time>
  <course>359.93</course>
  <speed>0.14</speed>
  <fix>3d</fix>
</trkpt>
<trkpt lat="40.0713853" lon="-105.229789">
  <ele>1582.99</ele>
  <time>2026-09-02T20:50:57Z</time>
  <course>359.92</course>
  <speed>0.14</speed>
  <fix>3d</fix>
</trkpt>
<trkpt lat="40.0713855" lon="-105.229789">
  <ele>1582.99</ele>
  <time>2026-09-02T20:50:57Z</time>
  <course>359.93</course>
  <speed>0.13</speed>
  <fix>3d</fix>
</trkpt>
<trkpt lat="40.0713853" lon="-105.229789">
  <ele>1582.99</ele>
  <time>2026-09-02T20:50:57Z</time>
  <course>359.92</course>
  <speed>0.14</speed>
  <fix>3d</fix>
</trkpt>
<trkpt lat="40.0713857" lon="-105.229789">
  <ele>1582.99</ele>
  <time>2026-09-02T20:50:57Z</time>
  <course>359.93</course>
  <speed>0.14</speed>
  <fix>3d</fix>
</trkpt>
<trkpt lat="40.0713853" lon="-105.229789">
  <ele>1582.99</ele>
  <time>2026-09-02T20:50:57Z</time>
  <course>359.92</course>
  <speed>0.14</speed>
  <fix>3d</fix>
</trkpt>
<trkpt lat="40.0713858" lon="-105.229789">
  <ele>1582.99</ele>
  <time>2026-09-02T20:50:57Z</time>
  <course>359.93</course>
  <speed>0.13</speed>
  <fix>3d</fix>
</trkpt>
<trkpt lat="40.0713855" lon="-105.229789">
  <ele>1582.99</ele>
  <time>2026-09-02T20:50:57Z</time>
  <course>359.92</course>
  <speed>0.14</speed>
  <fix>3d</fix>
</trkpt>
<trkpt lat="40.0713858" lon="-105.229789">
  <ele>1582.99</ele>
  <time>2026-09-02T20:50:57Z</time>
  <course>359.93</course>
  <speed>0.14</speed>
  <fix>3d</fix>
</trkpt>
<trkpt lat="40.0713855" lon="-105.229789">
  <ele>1582.99</ele>
  <time>2026-09-02T20:50:57Z</time>
  <course>359.92</course>
  <speed>0.14</speed>
  <fix>3d</fix>
</trkpt>
<trkpt lat="40.0713859" lon="-105.229789">
  <ele>1582.99</ele>
  <time>2026-09-02T20:50:57Z</time>
  <course>359.93</course>
  <speed>0.13</speed>
  <fix>3d</fix>
</trkpt>
<trkpt lat="40.0713858" lon="-105.229789">
  <ele>1582.99</ele>
  <time>2026-09-02T20:50:57Z</time>
  <course>359.92</course>
  <speed>0.14</speed>
  <fix>3d</fix>
</trkpt>
<trkpt lat="40.0713862" lon="-105.229789">
  <ele>1582.99</ele>
  <time>2026-09-02T20:50:57Z</time>
  <course>359.93</course>
  <speed>0.14</speed>
  <fix>3d</fix>
</trkpt>
<trkpt lat="40.0713858" lon="-105.229789">
  <ele>1582.99</ele>
  <time>2026-09-02T20:50:57Z</time>
  <course>359.92</course>
  <speed>0.14</speed>
  <fix>3d</fix>
</trkpt>
<trkpt lat="40.0713863" lon="-105.229789">
  <ele>1582.99</ele>
  <time>2026-09-02T20:50:57Z</time>
  <course>359.92</course>
  <speed>0.13</speed>
  <fix>3d</fix>
</trkpt>
<trkpt lat="40.071386" lon="-105.229789">
  <ele>1582.99</ele>
  <time>2026-09-02T20:50:57Z</time>
  <course>359.92</course>
  <speed>0.14</speed>
  <fix>3d</fix>
</trkpt>
<trkpt lat="40.0713864" lon="-105.229789">
  <ele>1582.99</ele>
  <time>2026-09-02T20:50:57Z</time>
  <course>359.92</course>
  <speed>0.14</speed>
  <fix>3d</fix>
</trkpt>
<trkpt lat="40.0713863" lon="-105.229789">
  <ele>1582.99</ele>
  <time>2026-09-02T20:50:57Z</time>
  <course>359.91</course>
  <speed>0.14</speed>
  <fix>3d</fix>
</trkpt>
<trkpt lat="40.0713865" lon="-105.229789">
  <ele>1582.99</ele>
  <time>2026-09-02T20:50:57Z</time>
  <course>359.92</course>
  <speed>0.13</speed>
  <fix>3d</fix>
</trkpt>
<trkpt lat="40.0713863" lon="-105.229789">
  <ele>1582.99</ele>
  <time>2026-09-02T20:50:57Z</time>
  <course>359.91</course>
  <speed>0.14</speed>
  <fix>3d</fix>
</trkpt>
<trkpt lat="40.0713867" lon="-105.229789">
  <ele>1582.99</ele>
  <time>2026-09-02T20:50:57Z</time>
  <course>359.92</course>
  <speed>0.14</speed>
  <fix>3d</fix>
</trkpt>
<trkpt lat="40.0713865" lon="-105.229789">
  <ele>1582.99</ele>
  <time>2026-09-02T20:50:57Z</time>
  <course>359.91</course>
  <speed>0.14</speed>
  <fix>3d</fix>
</trkpt>
<trkpt lat="40.0713868" lon="-105.229789">
  <ele>1582.99</ele>
  <time>2026-09-02T20:50:57Z</time>
  <course>359.92</course>
  <speed>0.13</speed>
  <fix>3d</fix>
</trkpt>
<trkpt lat="40.0713865" lon="-105.229789">
  <ele>1582.99</ele>
  <time>2026-09-02T20:50:57Z</time>
  <course>359.91</course>
  <speed>0.14</speed>
  <fix>3d</fix>
</trkpt>
<trkpt lat="40.0713869" lon="-105.229789">
  <ele>1582.99</ele>
  <time>2026-09-02T20:50:57Z</time>
  <course>359.92</course>
  <speed>0.14</speed>
  <fix>3d</fix>
</trkpt>
<trkpt lat="40.0713868" lon="-105.229789">
  <ele>1582.99</ele>
  <time>2026-09-02T20:50:57Z</time>
  <course>359.91</course>
  <speed>0.14</speed>
  <fix>3d</fix>
</trkpt>
<trkpt lat="40.071387" lon="-105.229789">
  <ele>1582.99</ele>
  <time>2026-09-02T20:50:57Z</time>
  <course>359.92</course>
  <speed>0.13</speed>
  <fix>3d</fix>
</trkpt>
<trkpt lat="40.0713868" lon="-105.229789">
  <ele>1582.99</ele>
  <time>2026-09-02T20:50:57Z</time>
  <course>359.91</course>
  <speed>0.14</speed>
  <fix>3d</fix>
</trkpt>
<trkpt lat="40.0713871" lon="-105.229789">
  <ele>1582.99</ele>
  <time>2026-09-02T20:50:57Z</time>
  <course>359.92</course>
  <speed>0.13</speed>
  <fix>3d</fix>
</trkpt>
<trkpt lat="40.071387" lon="-105.229789">
  <ele>1582.99</ele>
  <time>2026-09-02T20:50:57Z</time>
  <course>359.91</course>
  <speed>0.14</speed>
  <fix>3d</fix>
</trkpt>
<trkpt lat="40.0713873" lon="-105.229789">
  <ele>1582.99</ele>
  <time>2026-09-02T20:50:57Z</time>
  <course>359.91</course>
  <speed>0.14</speed>
  <fix>3d</fix>
</trkpt>
<trkpt lat="40.071387" lon="-105.229789">
  <ele>1582.99</ele>
  <time>2026-09-02T20:50:57Z</time>
  <course>359.91</course>
  <speed>0.14</speed>
  <fix>3d</fix>
</trkpt>
<trkpt lat="40.0713874" lon="-105.229789">
  <ele>1582.99</ele>
  <time>2026-09-02T20:50:57Z</time>
  <course>359.91</course>
  <speed>0.13</speed>
  <fix>3d</fix>
</trkpt>
<trkpt lat="40.0713873" lon="-105.229789">
  <ele>1582.99</ele>
  <time>2026-09-02T20:50:57Z</time>
  <course>359.9</course>
  <speed>0.13</speed>
  <fix>3d</fix>
</trkpt>
<trkpt lat="40.0713876" lon="-105.229789">
  <ele>1582.99</ele>
  <time>2026-09-02T20:50:57Z</time>
  <course>359.91</course>
  <speed>0.14</speed>
  <fix>3d</fix>
</trkpt>
<trkpt lat="40.0713873" lon="-105.229789">
  <ele>1582.99</ele>
  <time>2026-09-02T20:50:57Z</time>
  <course>359.9</course>
  <speed>0.13</speed>
  <fix>3d</fix>
</trkpt>
<trkpt lat="40.0713876" lon="-105.229789">
  <ele>1582.99</ele>
  <time>2026-09-02T20:50:57Z</time>
  <course>359.91</course>
  <speed>0.13</speed>
  <fix>3d</fix>
</trkpt>
<trkpt lat="40.0713875" lon="-105.229789">
  <ele>1582.99</ele>
  <time>2026-09-02T20:50:57Z</time>
  <course>359.9</course>
  <speed>0.13</speed>
  <fix>3d</fix>
</trkpt>
<trkpt lat="40.0713877" lon="-105.229789">
  <ele>1582.99</ele>
  <time>2026-09-02T20:50:57Z</time>
  <course>359.91</course>
  <speed>0.14</speed>
  <fix>3d</fix>
</trkpt>
<trkpt lat="40.0713875" lon="-105.229789">
  <ele>1582.99</ele>
  <time>2026-09-02T20:50:57Z</time>
  <course>359.9</course>
  <speed>0.13</speed>
  <fix>3d</fix>
</trkpt>
<trkpt lat="40.0713879" lon="-105.229789">
  <ele>1582.99</ele>
  <time>2026-09-02T20:50:57Z</time>
  <course>359.9</course>
  <speed>0.13</speed>
  <fix>3d</fix>
</trkpt>
<trkpt lat="40.0713877" lon="-105.229789">
  <ele>1582.99</ele>
  <time>2026-09-02T20:50:57Z</time>
  <course>359.9</course>
  <speed>0.13</speed>
  <fix>3d</fix>
</trkpt>
<trkpt lat="40.0713881" lon="-105.229789">
  <ele>1582.99</ele>
  <time>2026-09-02T20:50:57Z</time>
  <course>359.9</course>
  <speed>0.14</speed>
  <fix>3d</fix>
</trkpt>
<trkpt lat="40.0713877" lon="-105.229789">
  <ele>1582.99</ele>
  <time>2026-09-02T20:50:57Z</time>
  <course>359.9</course>
  <speed>0.13</speed>
  <fix>3d</fix>
</trkpt>
<trkpt lat="40.0713882" lon="-105.229789">
  <ele>1582.99</ele>
  <time>2026-09-02T20:50:57Z</time>
  <course>359.9</course>
  <speed>0.13</speed>
  <fix>3d</fix>
</trkpt>
<trkpt lat="40.0713877" lon="-105.229789">
  <ele>1582.99</ele>
  <time>2026-09-02T20:50:57Z</time>
  <course>359.9</course>
  <speed>0.13</speed>
  <fix>3d</fix>
</trkpt>
<trkpt lat="40.0713883" lon="-105.229789">
  <ele>1582.99</ele>
  <time>2026-09-02T20:50:57Z</time>
  <course>0.0</course>
  <speed>1.13</speed>
  <fix>3d</fix>
</trkpt>
<trkpt lat="40.071388" lon="-105.229789">
  <ele>1582.99</ele>
  <time>2026-09-02T20:50:57Z</time>
  <course>359.89</course>
  <speed>0.13</speed>
  <fix>3d</fix>
</trkpt>
<trkpt lat="40.0713888" lon="-105.229789">
  <ele>1582.99</ele>
  <time>2026-09-02T20:50:57Z</time>
  <course>0.0</course>
  <speed>0.07</speed>
  <fix>3d</fix>
</trkpt>
<trkpt lat="40.071388" lon="-105.229789">
  <ele>1582.99</ele>
  <time>2026-09-02T20:50:57Z</time>
  <course>359.89</course>
  <speed>0.13</speed>
  <fix>3d</fix>
</trkpt>
<trkpt lat="40.0713887" lon="-105.229789">
  <ele>1582.99</ele>
  <time>2026-09-02T20:50:57Z</time>
  <course>0.0</course>
  <speed>0.35</speed>
  <fix>3d</fix>
</trkpt>
<trkpt lat="40.0713885" lon="-105.229789">
  <ele>1582.99</ele>
  <time>2026-09-02T20:50:57Z</time>
  <course>359.93</course>
  <speed>0.1</speed>
  <fix>3d</fix>
</trkpt>
<trkpt lat="40.0713883" lon="-105.229789">
  <ele>1583.0</ele>
  <time>2026-09-02T20:50:57Z</time>
  <course>0.0</course>
  <speed>0.3</speed>
  <fix>3d</fix>
</trkpt>
<trkpt lat="40.0713885" lon="-105.229789">
  <ele>1582.99</ele>
  <time>2026-09-02T20:50:57Z</time>
  <course>359.93</course>
  <speed>0.1</speed>
  <fix>3d</fix>
</trkpt>
<trkpt lat="40.0713882" lon="-105.229789">
  <ele>1583.0</ele>
  <time>2026-09-02T20:50:57Z</time>
  <course>0.0</course>
  <speed>0.1</speed>
  <fix>3d</fix>
</trkpt>
<trkpt lat="40.0713886" lon="-105.229789">
  <ele>1582.99</ele>
  <time>2026-09-02T20:50:57Z</time>
  <course>179.98</course>
  <speed>0.11</speed>
  <fix>3d</fix>
</trkpt>
<trkpt lat="40.0713882" lon="-105.229789">
  <ele>1583.0</ele>
  <time>2026-09-02T20:50:57Z</time>
  <course>0.0</course>
  <speed>0.02</speed>
  <fix>3d</fix>
</trkpt>
<trkpt lat="40.0713886" lon="-105.229789">
  <ele>1582.99</ele>
  <time>2026-09-02T20:50:57Z</time>
  <course>179.98</course>
  <speed>0.11</speed>
  <fix>3d</fix>
</trkpt>
<trkpt lat="40.0713882" lon="-105.229789">
  <ele>1582.99</ele>
  <time>2026-09-02T20:50:57Z</time>
  <course>0.0</course>
  <speed>0.06</speed>
  <fix>3d</fix>
</trkpt>
<trkpt lat="40.0713883" lon="-105.229789">
  <ele>1583.0</ele>
  <time>2026-09-02T20:50:57Z</time>
  <course>179.98</course>
  <speed>0.13</speed>
  <fix>3d</fix>
</trkpt>
<trkpt lat="40.0713882" lon="-105.229789">
  <ele>1582.99</ele>
  <time>2026-09-02T20:50:57Z</time>
  <course>0.0</course>
  <speed>0.03</speed>
  <fix>3d</fix>
</trkpt>
<trkpt lat="40.0713882" lon="-105.229789">
  <ele>1582.99</ele>
  <time>2026-09-02T20:50:57Z</time>
  <course>359.98</course>
  <speed>0.03</speed>
  <fix>3d</fix>
</trkpt>
<trkpt lat="40.0713882" lon="-105.229789">
  <ele>1582.99</ele>
  <time>2026-09-02T20:50:57Z</time>
  <course>0.0</course>
  <speed>0.0</speed>
  <fix>3d</fix>
</trkpt>
<trkpt lat="40.0713882" lon="-105.229789">
  <ele>1582.99</ele>
  <time>2026-09-02T20:50:57Z</time>
  <course>359.98</course>
  <speed>0.03</speed>
  <fix>3d</fix>
</trkpt>
<trkpt lat="40.0713882" lon="-105.229789">
  <ele>1582.99</ele>
  <time>2026-09-02T20:50:57Z</time>
  <course>0.0</course>
  <speed>0.0</speed>
  <fix>3d</fix>
</trkpt>
<trkpt lat="40.0713882" lon="-105.229789">
  <ele>1582.99</ele>
  <time>2026-09-02T20:50:57Z</time>
  <course>359.98</course>
  <speed>0.01</speed>
  <fix>3d</fix>
</trkpt>
<trkpt lat="40.0713882" lon="-105.229789">
  <ele>1583.0</ele>
  <time>2026-09-02T20:50:57Z</time>
  <course>0.0</course>
  <speed>0.0</speed>
  <fix>3d</fix>
</trkpt>
<trkpt lat="40.0713882" lon="-105.229789">
  <ele>1582.99</ele>
  <time>2026-09-02T20:50:57Z</time>
  <course>359.98</course>
  <speed>0.01</speed>
  <fix>3d</fix>
</trkpt>
<trkpt lat="40.0713882" lon="-105.229789">
  <ele>1583.0</ele>
  <time>2026-09-02T20:50:57Z</time>
  <course>0.0</course>
  <speed>0.0</speed>
  <fix>3d</fix>
</trkpt>
<trkpt lat="40.0713882" lon="-105.229789">
  <ele>1582.99</ele>
  <time>2026-09-02T20:50:57Z</time>
  <course>179.98</course>
  <speed>0.0</speed>
  <fix>3d</fix>
</trkpt>
<trkpt lat="40.0713882" lon="-105.229789">
  <ele>1583.0</ele>
  <time>2026-09-02T20:50:57Z</time>
  <course>0.0</course>
  <speed>0.0</speed>
  <fix>3d</fix>
</trkpt>
<trkpt lat="40.0713882" lon="-105.229789">
  <ele>1582.99</ele>
  <time>2026-09-02T20:50:57Z</time>
  <course>179.98</course>
  <speed>0.0</speed>
  <fix>3d</fix>
</trkpt>
<trkpt lat="40.0713882" lon="-105.229789">
  <ele>1583.0</ele>
  <time>2026-09-02T20:50:57Z</time>
  <course>0.0</course>
  <speed>0.0</speed>
  <fix>3d</fix>
</trkpt>
<trkpt lat="40.0713882" lon="-105.229789">
  <ele>1583.0</ele>
  <time>2026-09-02T20:50:57Z</time>
  <course>179.99</course>
  <speed>0.0</speed>
  <fix>3d</fix>
</trkpt>
<trkpt lat="40.0713882" lon="-105.229789">
  <ele>1582.99</ele>
  <time>2026-09-02T20:50:57Z</time>
  <course>0.0</course>
  <speed>0.0</speed>
  <fix>3d</fix>
</trkpt>
<trkpt lat="40.0713882" lon="-105.229789">
  <ele>1583.0</ele>
  <time>2026-09-02T20:50:57Z</time>
  <course>179.99</course>
  <speed>0.0</speed>
  <fix>3d</fix>
</trkpt>
<trkpt lat="40.0713882" lon="-105.229789">
  <ele>1582.99</ele>
  <time>2026-09-02T20:50:57Z</time>
  <course>0.0</course>
  <speed>0.0</speed>
  <fix>3d</fix>
</trkpt>
<trkpt lat="40.0713882" lon="-105.229789">
  <ele>1582.99</ele>
  <time>2026-09-02T20:50:57Z</time>
  <course>359.98</course>
  <speed>0.0</speed>
  <fix>3d</fix>
</trkpt>
<trkpt lat="40.0713882" lon="-105.229789">
  <ele>1582.99</ele>
  <time>2026-09-02T20:50:57Z</time>
  <course>0.0</course>
  <speed>0.0</speed>
  <fix>3d</fix>
</trkpt>
<trkpt lat="40.0713882" lon="-105.229789">
  <ele>1582.99</ele>
  <time>2026-09-02T20:50:57Z</time>
  <course>359.98</course>
  <speed>0.0</speed>
  <fix>3d</fix>
</trkpt>
<trkpt lat="40.0713749" lon="-105.229789">
  <ele>1583.0</ele>
  <time>2026-09-02T20:50:57Z</time>
  <course>0.0</course>
  <speed>0.0</speed>
  <fix>3d</fix>
</trkpt>
<trkpt lat="40.0713749" lon="-105.229789">
  <ele>1583.0</ele>
  <time>2026-09-02T20:50:57Z</time>
  <course>0.0</course>
  <speed>0.0</speed>
  <fix>3d</fix>
</trkpt>
<trkpt lat="40.0713749" lon="-105.229789">
  <ele>1583.0</ele>
  <time>2026-09-02T20:50:57Z</time>
  <course>0.0</course>
  <speed>0.0</speed>
  <fix>3d</fix>
</trkpt>
<trkpt lat="40.0713749" lon="-105.229789">
  <ele>1583.0</ele>
  <time>2026-09-02T20:50:57Z</time>
  <course>0.0</course>
  <speed>0.0</speed>
  <fix>3d</fix>
</trkpt>
<trkpt lat="40.0713749" lon="-105.229789">
  <ele>1583.0</ele>
  <time>2026-09-02T20:50:57Z</time>
  <course>0.0</course>
  <speed>0.0</speed>
  <fix>3d</fix>
</trkpt>
<trkpt lat="40.0713749" lon="-105.229789">
  <ele>1583.0</ele>
  <time>2026-09-02T20:50:57Z</time>
  <course>0.0</course>
  <speed>0.0</speed>
  <fix>3d</fix>
</trkpt>
<trkpt lat="40.0713749" lon="-105.229789">
  <ele>1583.0</ele>
  <time>2026-09-02T20:50:57Z</time>
  <course>0.0</course>
  <speed>0.0</speed>
  <fix>3d</fix>
</trkpt>
<trkpt lat="40.0713749" lon="-105.229789">
  <ele>1583.0</ele>
  <time>2026-09-02T20:50:57Z</time>
  <course>0.0</course>
  <speed>0.0</speed>
  <fix>3d</fix>
</trkpt>
<trkpt lat="40.0713749" lon="-105.229789">
  <ele>1583.0</ele>
  <time>2026-09-02T20:50:57Z</time>
  <course>0.0</course>
  <speed>0.0</speed>
  <fix>3d</fix>
</trkpt>
<trkpt lat="40.0713749" lon="-105.229789">
  <ele>1583.0</ele>
  <time>2026-09-02T20:50:57Z</time>
  <course>0.0</course>
  <speed>0.0</speed>
  <fix>3d</fix>
</trkpt>
<trkpt lat="40.0713749" lon="-105.229789">
  <ele>1583.0</ele>
  <time>2026-09-02T20:50:57Z</time>
  <course>0.0</course>
  <speed>0.0</speed>
  <fix>3d</fix>
</trkpt>
<trkpt lat="40.0713749" lon="-105.229789">
  <ele>1583.0</ele>
  <time>2026-09-02T20:50:57Z</time>
  <course>0.0</course>
  <speed>0.0</speed>
  <fix>3d</fix>
</trkpt>
<trkpt lat="40.0713749" lon="-105.229789">
  <ele>1583.0</ele>
  <time>2026-09-02T20:50:57Z</time>
  <course>0.0</course>
  <speed>0.0</speed>
  <fix>3d</fix>
</trkpt>
<trkpt lat="40.0713749" lon="-105.229789">
  <ele>1583.0</ele>
  <time>2026-09-02T20:50:57Z</time>
  <course>0.0</course>
  <speed>0.0</speed>
  <fix>3d</fix>
</trkpt>
<trkpt lat="40.0713749" lon="-105.229789">
  <ele>1583.0</ele>
  <time>2026-09-02T20:50:57Z</time>
  <course>0.0</course>
  <speed>0.0</speed>
  <fix>3d</fix>
</trkpt>
<trkpt lat="40.0713749" lon="-105.229789">
  <ele>1583.0</ele>
  <time>2026-09-02T20:50:57Z</time>
  <course>0.0</course>
  <speed>0.0</speed>
  <fix>3d</fix>
</trkpt>
<trkpt lat="40.0713749" lon="-105.229789">
  <ele>1583.0</ele>
  <time>2026-09-02T20:50:57Z</time>
  <course>0.0</course>
  <speed>0.0</speed>
  <fix>3d</fix>
</trkpt>
<trkpt lat="40.0713749" lon="-105.229789">
  <ele>1583.0</ele>
  <time>2026-09-02T20:50:57Z</time>
  <course>0.0</course>
  <speed>0.0</speed>
  <fix>3d</fix>
</trkpt>
<trkpt lat="40.0713749" lon="-105.229789">
  <ele>1583.0</ele>
  <time>2026-09-02T20:50:57Z</time>
  <course>0.0</course>
  <speed>0.0</speed>
  <fix>3d</fix>
</trkpt>
<trkpt lat="40.0713749" lon="-105.229789">
  <ele>1583.0</ele>
  <time>2026-09-02T20:50:57Z</time>
  <course>0.0</course>
  <speed>0.0</speed>
  <fix>3d</fix>
</trkpt>
<trkpt lat="40.0713749" lon="-105.229789">
  <ele>1583.0</ele>
  <time>2026-09-02T20:50:57Z</time>
  <course>0.0</course>
  <speed>0.0</speed>
  <fix>3d</fix>
</trkpt>
<trkpt lat="40.0713749" lon="-105.229789">
  <ele>1583.0</ele>
  <time>2026-09-02T20:50:57Z</time>
  <course>0.0</course>
  <speed>0.0</speed>
  <fix>3d</fix>
</trkpt>
<trkpt lat="40.0713749" lon="-105.229789">
  <ele>1583.0</ele>
  <time>2026-09-02T20:50:57Z</time>
  <course>0.0</course>
  <speed>0.0</speed>
  <fix>3d</fix>
</trkpt>
<trkpt lat="40.0713749" lon="-105.229789">
  <ele>1583.0</ele>
  <time>2026-09-02T20:50:57Z</time>
  <course>0.0</course>
  <speed>0.0</speed>
  <fix>3d</fix>
</trkpt>
<trkpt lat="40.0713749" lon="-105.229789">
  <ele>1583.0</ele>
  <time>2026-09-02T20:50:57Z</time>
  <course>0.0</course>
  <speed>0.0</speed>
  <fix>3d</fix>
</trkpt>
<trkpt lat="40.0713749" lon="-105.229789">
  <ele>1583.0</ele>
  <time>2026-09-02T20:50:57Z</time>
  <course>0.0</course>
  <speed>0.0</speed>
  <fix>3d</fix>
</trkpt>
<trkpt lat="40.0713749" lon="-105.229789">
  <ele>1583.0</ele>
  <time>2026-09-02T20:50:57Z</time>
  <course>0.0</course>
  <speed>0.0</speed>
  <fix>3d</fix>
</trkpt>
<trkpt lat="40.0713749" lon="-105.229789">
  <ele>1583.0</ele>
  <time>2026-09-02T20:50:57Z</time>
  <course>0.0</course>
  <speed>0.0</speed>
  <fix>3d</fix>
</trkpt>
<trkpt lat="40.0713749" lon="-105.229789">
  <ele>1583.0</ele>
  <time>2026-09-02T20:50:57Z</time>
  <course>0.0</course>
  <speed>0.0</speed>
  <fix>3d</fix>
</trkpt>
<trkpt lat="40.0713749" lon="-105.229789">
  <ele>1583.0</ele>
  <time>2026-09-02T20:50:57Z</time>
  <course>0.0</course>
  <speed>0.0</speed>
  <fix>3d</fix>
</trkpt>
<trkpt lat="40.0713749" lon="-105.229789">
  <ele>1583.0</ele>
  <time>2026-09-02T20:50:57Z</time>
  <course>0.0</course>
  <speed>0.0</speed>
  <fix>3d</fix>
</trkpt>
<trkpt lat="40.0713749" lon="-105.229789">
  <ele>1583.0</ele>
  <time>2026-09-02T20:50:57Z</time>
  <course>0.0</course>
  <speed>0.0</speed>
  <fix>3d</fix>
</trkpt>
<trkpt lat="40.0713749" lon="-105.229789">
  <ele>1583.0</ele>
  <time>2026-09-02T20:50:57Z</time>
  <course>0.0</course>
  <speed>0.0</speed>
  <fix>3d</fix>
</trkpt>
<trkpt lat="40.0713749" lon="-105.229789">
  <ele>1583.0</ele>
  <time>2026-09-02T20:50:57Z</time>
  <course>0.0</course>
  <speed>0.0</speed>
  <fix>3d</fix>
</trkpt>
<trkpt lat="40.0713749" lon="-105.229789">
  <ele>1583.0</ele>
  <time>2026-09-02T20:50:57Z</time>
  <course>0.0</course>
  <speed>0.0</speed>
  <fix>3d</fix>
</trkpt>
<trkpt lat="40.0713749" lon="-105.229789">
  <ele>1583.0</ele>
  <time>2026-09-02T20:50:57Z</time>
  <course>0.0</course>
  <speed>0.0</speed>
  <fix>3d</fix>
</trkpt>
<trkpt lat="40.0713749" lon="-105.229789">
  <ele>1583.0</ele>
  <time>2026-09-02T20:50:57Z</time>
  <course>0.0</course>
  <speed>0.0</speed>
  <fix>3d</fix>
</trkpt>
<trkpt lat="40.0713749" lon="-105.229789">
  <ele>1583.0</ele>
  <time>2026-09-02T20:50:57Z</time>
  <course>0.0</course>
  <speed>0.0</speed>
  <fix>3d</fix>
</trkpt>
<trkpt lat="40.0713749" lon="-105.229789">
  <ele>1583.0</ele>
  <time>2026-09-02T20:50:57Z</time>
  <course>0.0</course>
  <speed>0.0</speed>
  <fix>3d</fix>
</trkpt>
<trkpt lat="40.0713749" lon="-105.229789">
  <ele>1583.0</ele>
  <time>2026-09-02T20:50:57Z</time>
  <course>0.0</course>
  <speed>0.0</speed>
  <fix>3d</fix>
</trkpt>
<trkpt lat="40.0713749" lon="-105.229789">
  <ele>1583.0</ele>
  <time>2026-09-02T20:50:57Z</time>
  <course>0.0</course>
  <speed>0.0</speed>
  <fix>3d</fix>
</trkpt>
<trkpt lat="40.0713749" lon="-105.229789">
  <ele>1583.0</ele>
  <time>2026-09-02T20:50:57Z</time>
  <course>0.0</course>
  <speed>0.0</speed>
  <fix>3d</fix>
</trkpt>
<trkpt lat="40.0713749" lon="-105.229789">
  <ele>1583.0</ele>
  <time>2026-09-02T20:50:57Z</time>
  <course>0.0</course>
  <speed>0.0</speed>
  <fix>3d</fix>
</trkpt>
<trkpt lat="40.0713749" lon="-105.229789">
  <ele>1583.0</ele>
  <time>2026-09-02T20:50:57Z</time>
  <course>0.0</course>
  <speed>0.0</speed>
  <fix>3d</fix>
</trkpt>
<trkpt lat="40.0713749" lon="-105.229789">
  <ele>1583.0</ele>
  <time>2026-09-02T20:50:57Z</time>
  <course>0.0</course>
  <speed>0.0</speed>
  <fix>3d</fix>
</trkpt>
<trkpt lat="40.0713749" lon="-105.229789">
  <ele>1583.0</ele>
  <time>2026-09-02T20:50:57Z</time>
  <course>0.0</course>
  <speed>0.0</speed>
  <fix>3d</fix>
</trkpt>
<trkpt lat="40.0713749" lon="-105.229789">
  <ele>1583.0</ele>
  <time>2026-09-02T20:50:57Z</time>
  <course>0.0</course>
  <speed>0.0</speed>
  <fix>3d</fix>
</trkpt>
<trkpt lat="40.0713749" lon="-105.229789">
  <ele>1583.0</ele>
  <time>2026-09-02T20:50:57Z</time>
  <course>0.0</course>
  <speed>0.0</speed>
  <fix>3d</fix>
</trkpt>
<trkpt lat="40.0713749" lon="-105.229789">
  <ele>1583.0</ele>
  <time>2026-09-02T20:50:57Z</time>
  <course>0.0</course>
  <speed>0.0</speed>
  <fix>3d</fix>
</trkpt>
<trkpt lat="39.655741" lon="-104.1383097">
  <ele>1566.58</ele>
  <time>2026-09-02T20:50:57Z</time>
  <course>0.0</course>
  <speed>0.0</speed>
  <fix>3d</fix>
</trkpt>
<trkpt lat="40.0713749" lon="-105.229789">
  <ele>1583.0</ele>
  <time>2026-09-02T20:50:57Z</time>
  <course>0.0</course>
  <speed>0.0</speed>
  <fix>3d</fix>
</trkpt>
<trkpt lat="40.0713749" lon="-105.229789">
  <ele>1583.0</ele>
  <time>2026-09-02T20:50:57Z</time>
  <course>0.0</course>
  <speed>0.0</speed>
  <fix>3d</fix>
</trkpt>
<trkpt lat="40.0713749" lon="-105.229789">
  <ele>1583.0</ele>
  <time>2026-09-02T20:50:57Z</time>
  <course>0.0</course>
  <speed>0.0</speed>
  <fix>3d</fix>
</trkpt>
<trkpt lat="40.0713749" lon="-105.229789">
  <ele>1583.0</ele>
  <time>2026-09-02T20:50:57Z</time>
  <course>0.0</course>
  <speed>0.0</speed>
  <fix>3d</fix>
</trkpt>
<trkpt lat="40.0713749" lon="-105.229789">
  <ele>1583.0</ele>
  <time>2026-09-02T20:50:57Z</time>
  <course>0.0</course>
  <speed>0.0</speed>
  <fix>3d</fix>
</trkpt>
<trkpt lat="40.0713749" lon="-105.229789">
  <ele>1583.0</ele>
  <time>2026-09-02T20:50:57Z</time>
  <course>0.0</course>
  <speed>0.0</speed>
  <fix>3d</fix>
</trkpt>
<trkpt lat="40.0713749" lon="-105.229789">
  <ele>1583.0</ele>
  <time>2026-09-02T20:50:57Z</time>
  <course>0.0</course>
  <speed>0.0</speed>
  <fix>3d</fix>
</trkpt>
<trkpt lat="40.0713749" lon="-105.229789">
  <ele>1583.0</ele>
  <time>2026-09-02T20:50:57Z</time>
  <course>0.0</course>
  <speed>0.0</speed>
  <fix>3d</fix>
</trkpt>
<trkpt lat="40.0713749" lon="-105.229789">
  <ele>1583.0</ele>
  <time>2026-09-02T20:50:57Z</time>
  <course>0.0</course>
  <speed>0.0</speed>
  <fix>3d</fix>
</trkpt>
<trkpt lat="40.0713749" lon="-105.229789">
  <ele>1583.0</ele>
  <time>2026-09-02T20:50:57Z</time>
  <course>0.0</course>
  <speed>0.0</speed>
  <fix>3d</fix>
</trkpt>
<trkpt lat="40.0713749" lon="-105.229789">
  <ele>1583.0</ele>
  <time>2026-09-02T20:50:57Z</time>
  <course>0.0</course>
  <speed>0.0</speed>
  <fix>3d</fix>
</trkpt>
<trkpt lat="40.0713749" lon="-105.229789">
  <ele>1583.0</ele>
  <time>2026-09-02T20:50:57Z</time>
  <course>0.0</course>
  <speed>0.0</speed>
  <fix>3d</fix>
</trkpt>
<trkpt lat="40.0713749" lon="-105.229789">
  <ele>1583.0</ele>
  <time>2026-09-02T20:50:57Z</time>
  <course>0.0</course>
  <speed>0.0</speed>
  <fix>3d</fix>
</trkpt>
<trkpt lat="40.0713749" lon="-105.229789">
  <ele>1583.0</ele>
  <time>2026-09-02T20:50:57Z</time>
  <course>0.0</course>
  <speed>0.0</speed>
  <fix>3d</fix>
</trkpt>
<trkpt lat="40.0713749" lon="-105.229789">
  <ele>1583.0</ele>
  <time>2026-09-02T20:50:57Z</time>
  <course>0.0</course>
  <speed>0.0</speed>
  <fix>3d</fix>
</trkpt>
<trkpt lat="40.0713749" lon="-105.229789">
  <ele>1583.0</ele>
  <time>2026-09-02T20:50:57Z</time>
  <course>0.0</course>
  <speed>0.0</speed>
  <fix>3d</fix>
</trkpt>
<trkpt lat="40.0713749" lon="-105.229789">
  <ele>1583.0</ele>
  <time>2026-09-02T20:50:57Z</time>
  <course>0.0</course>
  <speed>0.0</speed>
  <fix>3d</fix>
</trkpt>
<trkpt lat="40.0713749" lon="-105.229789">
  <ele>1583.0</ele>
  <time>2026-09-02T20:50:57Z</time>
  <course>0.0</course>
  <speed>0.0</speed>
  <fix>3d</fix>
</trkpt>
<trkpt lat="40.0713749" lon="-105.229789">
  <ele>1583.0</ele>
  <time>2026-09-02T20:50:57Z</time>
  <course>0.0</course>
  <speed>0.0</speed>
  <fix>3d</fix>
</trkpt>
<trkpt lat="40.0713749" lon="-105.229789">
  <ele>1583.0</ele>
  <time>2026-09-02T20:50:57Z</time>
  <course>0.0</course>
  <speed>0.0</speed>
  <fix>3d</fix>
</trkpt>
<trkpt lat="40.0713749" lon="-105.229789">
  <ele>1583.0</ele>
  <time>2026-09-02T20:50:57Z</time>
  <course>0.0</course>
  <speed>0.0</speed>
  <fix>3d</fix>
</trkpt>
<trkpt lat="40.0713749" lon="-105.229789">
  <ele>1583.0</ele>
  <time>2026-09-02T20:50:57Z</time>
  <course>0.0</course>
  <speed>0.0</speed>
  <fix>3d</fix>
</trkpt>
<trkpt lat="40.0713749" lon="-105.229789">
  <ele>1583.0</ele>
  <time>2026-09-02T20:50:57Z</time>
  <course>0.0</course>
  <speed>0.0</speed>
  <fix>3d</fix>
</trkpt>
<trkpt lat="40.0713749" lon="-105.229789">
  <ele>1583.0</ele>
  <time>2026-09-02T20:50:57Z</time>
  <course>0.0</course>
  <speed>0.0</speed>
  <fix>3d</fix>
</trkpt>
<trkpt lat="40.0713749" lon="-105.229789">
  <ele>1583.0</ele>
  <time>2026-09-02T20:50:57Z</time>
  <course>0.0</course>
  <speed>0.0</speed>
  <fix>3d</fix>
</trkpt>
<trkpt lat="40.0713749" lon="-105.229789">
  <ele>1583.0</ele>
  <time>2026-09-02T20:50:57Z</time>
  <course>0.0</course>
  <speed>0.0</speed>
  <fix>3d</fix>
</trkpt>
<trkpt lat="40.0713749" lon="-105.229789">
  <ele>1583.0</ele>
  <time>2026-09-02T20:50:57Z</time>
  <course>0.0</course>
  <speed>0.0</speed>
  <fix>3d</fix>
</trkpt>
<trkpt lat="40.0713749" lon="-105.229789">
  <ele>1583.0</ele>
  <time>2026-09-02T20:50:57Z</time>
  <course>0.0</course>
  <speed>0.0</speed>
  <fix>3d</fix>
</trkpt>
<trkpt lat="40.0713749" lon="-105.229789">
  <ele>1583.0</ele>
  <time>2026-09-02T20:50:57Z</time>
  <course>0.0</course>
  <speed>0.0</speed>
  <fix>3d</fix>
</trkpt>
<trkpt lat="40.0713749" lon="-105.229789">
  <ele>1583.0</ele>
  <time>2026-09-02T20:50:57Z</time>
  <course>0.0</course>
  <speed>0.0</speed>
  <fix>3d</fix>
</trkpt>
<trkpt lat="40.0713749" lon="-105.229789">
  <ele>1583.0</ele>
  <time>2026-09-02T20:50:57Z</time>
  <course>0.0</course>
  <speed>0.0</speed>
  <fix>3d</fix>
</trkpt>
<trkpt lat="40.0713749" lon="-105.229789">
  <ele>1583.0</ele>
  <time>2026-09-02T20:50:57Z</time>
  <course>0.0</course>
  <speed>0.0</speed>
  <fix>3d</fix>
</trkpt>
<trkpt lat="40.0713749" lon="-105.229789">
  <ele>1583.0</ele>
  <time>2026-09-02T20:50:57Z</time>
  <course>0.0</course>
  <speed>0.0</speed>
  <fix>3d</fix>
</trkpt>
<trkpt lat="40.0713749" lon="-105.229789">
  <ele>1583.0</ele>
  <time>2026-09-02T20:50:57Z</time>
  <course>0.0</course>
  <speed>0.0</speed>
  <fix>3d</fix>
</trkpt>
<trkpt lat="40.0713749" lon="-105.229789">
  <ele>1583.0</ele>
  <time>2026-09-02T20:50:57Z</time>
  <course>0.0</course>
  <speed>0.0</speed>
  <fix>3d</fix>
</trkpt>
<trkpt lat="40.0713749" lon="-105.229789">
  <ele>1583.0</ele>
  <time>2026-09-02T20:50:57Z</time>
  <course>0.0</course>
  <speed>0.0</speed>
  <fix>3d</fix>
</trkpt>
<trkpt lat="40.0713749" lon="-105.229789">
  <ele>1583.0</ele>
  <time>2026-09-02T20:50:57Z</time>
  <course>0.0</course>
  <speed>0.0</speed>
  <fix>3d</fix>
</trkpt>
<trkpt lat="40.0713749" lon="-105.229789">
  <ele>1583.0</ele>
  <time>2026-09-02T20:50:57Z</time>
  <course>0.0</course>
  <speed>0.0</speed>
  <fix>3d</fix>
</trkpt>
<trkpt lat="40.0713749" lon="-105.229789">
  <ele>1583.0</ele>
  <time>2026-09-02T20:50:57Z</time>
  <course>0.0</course>
  <speed>0.0</speed>
  <fix>3d</fix>
</trkpt>
<trkpt lat="40.0713749" lon="-105.229789">
  <ele>1583.0</ele>
  <time>2026-09-02T20:50:57Z</time>
  <course>0.0</course>
  <speed>0.0</speed>
  <fix>3d</fix>
</trkpt>
<trkpt lat="40.0713749" lon="-105.229789">
  <ele>1583.0</ele>
  <time>2026-09-02T20:50:57Z</time>
  <course>0.0</course>
  <speed>0.0</speed>
  <fix>3d</fix>
</trkpt>
<trkpt lat="40.0713749" lon="-105.229789">
  <ele>1583.0</ele>
  <time>2026-09-02T20:50:57Z</time>
  <course>0.0</course>
  <speed>0.0</speed>
  <fix>3d</fix>
</trkpt>
<trkpt lat="40.0713749" lon="-105.229789">
  <ele>1583.0</ele>
  <time>2026-09-02T20:50:57Z</time>
  <course>0.0</course>
  <speed>0.0</speed>
  <fix>3d</fix>
</trkpt>
<trkpt lat="40.0713749" lon="-105.229789">
  <ele>1583.0</ele>
  <time>2026-09-02T20:50:57Z</time>
  <course>0.0</course>
  <speed>0.0</speed>
  <fix>3d</fix>
</trkpt>
<trkpt lat="40.0713749" lon="-105.229789">
  <ele>1583.0</ele>
  <time>2026-09-02T20:50:57Z</time>
  <course>0.0</course>
  <speed>0.0</speed>
  <fix>3d</fix>
</trkpt>
<trkpt lat="40.0713749" lon="-105.229789">
  <ele>1583.0</ele>
  <time>2026-09-02T20:50:57Z</time>
  <course>0.0</course>
  <speed>0.0</speed>
  <fix>3d</fix>
</trkpt>
<trkpt lat="40.0713749" lon="-105.229789">
  <ele>1583.0</ele>
  <time>2026-09-02T20:50:57Z</time>
  <course>0.0</course>
  <speed>0.0</speed>
  <fix>3d</fix>
</trkpt>
<trkpt lat="40.0713749" lon="-105.229789">
  <ele>1583.0</ele>
  <time>2026-09-02T20:50:57Z</time>
  <course>0.0</course>
  <speed>0.0</speed>
  <fix>3d</fix>
</trkpt>
<trkpt lat="40.0713749" lon="-105.229789">
  <ele>1583.0</ele>
  <time>2026-09-02T20:50:58Z</time>
  <course>0.0</course>
  <speed>0.0</speed>
  <fix>3d</fix>
</trkpt>
<trkpt lat="40.0713749" lon="-105.229789">
  <ele>1583.0</ele>
  <time>2026-09-02T20:50:58Z</time>
  <course>0.0</course>
  <speed>0.0</speed>
  <fix>3d</fix>
</trkpt>
<trkpt lat="40.0713749" lon="-105.229789">
  <ele>1583.0</ele>
  <time>2026-09-02T20:50:58Z</time>
  <course>0.0</course>
  <speed>0.0</speed>
  <fix>3d</fix>
</trkpt>
<trkpt lat="40.0713749" lon="-105.229789">
  <ele>1583.0</ele>
  <time>2026-09-02T20:50:58Z</time>
  <course>0.0</course>
  <speed>0.0</speed>
  <fix>3d</fix>
</trkpt>
<trkpt lat="40.0713749" lon="-105.229789">
  <ele>1583.0</ele>
  <time>2026-09-02T20:50:58Z</time>
  <course>0.0</course>
  <speed>0.0</speed>
  <fix>3d</fix>
</trkpt>
<trkpt lat="40.0713749" lon="-105.229789">
  <ele>1583.0</ele>
  <time>2026-09-02T20:50:58Z</time>
  <course>0.0</course>
  <speed>0.0</speed>
  <fix>3d</fix>
</trkpt>
<trkpt lat="40.0713749" lon="-105.229789">
  <ele>1583.0</ele>
  <time>2026-09-02T20:50:58Z</time>
  <course>0.0</course>
  <speed>0.0</speed>
  <fix>3d</fix>
</trkpt>
<trkpt lat="40.0713749" lon="-105.229789">
  <ele>1583.0</ele>
  <time>2026-09-02T20:50:58Z</time>
  <course>0.0</course>
  <speed>0.0</speed>
  <fix>3d</fix>
</trkpt>
<trkpt lat="40.0713749" lon="-105.229789">
  <ele>1583.0</ele>
  <time>2026-09-02T20:50:58Z</time>
  <course>0.0</course>
  <speed>0.0</speed>
  <fix>3d</fix>
</trkpt>
<trkpt lat="40.0713749" lon="-105.229789">
  <ele>1583.0</ele>
  <time>2026-09-02T20:50:58Z</time>
  <course>0.0</course>
  <speed>0.0</speed>
  <fix>3d</fix>
</trkpt>
<trkpt lat="40.0713749" lon="-105.229789">
  <ele>1583.0</ele>
  <time>2026-09-02T20:50:58Z</time>
  <course>0.0</course>
  <speed>0.0</speed>
  <fix>3d</fix>
</trkpt>
<trkpt lat="40.0713749" lon="-105.229789">
  <ele>1583.0</ele>
  <time>2026-09-02T20:50:58Z</time>
  <course>0.0</course>
  <speed>0.0</speed>
  <fix>3d</fix>
</trkpt>
<trkpt lat="40.0713749" lon="-105.229789">
  <ele>1583.0</ele>
  <time>2026-09-02T20:50:58Z</time>
  <course>0.0</course>
  <speed>0.0</speed>
  <fix>3d</fix>
</trkpt>
<trkpt lat="40.0713749" lon="-105.229789">
  <ele>1583.0</ele>
  <time>2026-09-02T20:50:58Z</time>
  <course>0.0</course>
  <speed>0.0</speed>
  <fix>3d</fix>
</trkpt>
<trkpt lat="40.0713749" lon="-105.229789">
  <ele>1583.0</ele>
  <time>2026-09-02T20:50:58Z</time>
  <course>0.0</course>
  <speed>0.0</speed>
  <fix>3d</fix>
</trkpt>
<trkpt lat="40.0713749" lon="-105.229789">
  <ele>1583.0</ele>
  <time>2026-09-02T20:50:58Z</time>
  <course>0.0</course>
  <speed>0.0</speed>
  <fix>3d</fix>
</trkpt>
<trkpt lat="40.0713749" lon="-105.229789">
  <ele>1583.0</ele>
  <time>2026-09-02T20:50:58Z</time>
  <course>0.0</course>
  <speed>0.0</speed>
  <fix>3d</fix>
</trkpt>
<trkpt lat="40.0713749" lon="-105.229789">
  <ele>1583.0</ele>
  <time>2026-09-02T20:50:58Z</time>
  <course>0.0</course>
  <speed>0.0</speed>
  <fix>3d</fix>
</trkpt>
<trkpt lat="40.0713749" lon="-105.229789">
  <ele>1583.0</ele>
  <time>2026-09-02T20:50:58Z</time>
  <course>0.0</course>
  <speed>0.0</speed>
  <fix>3d</fix>
</trkpt>
<trkpt lat="40.0713749" lon="-105.229789">
  <ele>1583.0</ele>
  <time>2026-09-02T20:50:58Z</time>
  <course>0.0</course>
  <speed>0.0</speed>
  <fix>3d</fix>
</trkpt>
<trkpt lat="40.0713749" lon="-105.229789">
  <ele>1583.0</ele>
  <time>2026-09-02T20:50:58Z</time>
  <course>0.0</course>
  <speed>0.0</speed>
  <fix>3d</fix>
</trkpt>
<trkpt lat="40.0713749" lon="-105.229789">
  <ele>1583.0</ele>
  <time>2026-09-02T20:50:58Z</time>
  <course>0.0</course>
  <speed>0.0</speed>
  <fix>3d</fix>
</trkpt>
<trkpt lat="40.0713749" lon="-105.229789">
  <ele>1583.0</ele>
  <time>2026-09-02T20:50:58Z</time>
  <course>0.0</course>
  <speed>0.0</speed>
  <fix>3d</fix>
</trkpt>
<trkpt lat="40.0713749" lon="-105.229789">
  <ele>1583.0</ele>
  <time>2026-09-02T20:50:58Z</time>
  <course>0.0</course>
  <speed>0.0</speed>
  <fix>3d</fix>
</trkpt>
<trkpt lat="40.0713749" lon="-105.229789">
  <ele>1583.0</ele>
  <time>2026-09-02T20:50:58Z</time>
  <course>0.0</course>
  <speed>0.0</speed>
  <fix>3d</fix>
</trkpt>
<trkpt lat="40.0713749" lon="-105.229789">
  <ele>1583.0</ele>
  <time>2026-09-02T20:50:58Z</time>
  <course>0.0</course>
  <speed>0.0</speed>
  <fix>3d</fix>
</trkpt>
<trkpt lat="40.0713749" lon="-105.229789">
  <ele>1583.0</ele>
  <time>2026-09-02T20:50:58Z</time>
  <course>0.0</course>
  <speed>0.0</speed>
  <fix>3d</fix>
</trkpt>
<trkpt lat="40.0713749" lon="-105.229789">
  <ele>1583.0</ele>
  <time>2026-09-02T20:50:58Z</time>
  <course>0.0</course>
  <speed>0.0</speed>
  <fix>3d</fix>
</trkpt>
<trkpt lat="40.0713749" lon="-105.229789">
  <ele>1583.0</ele>
  <time>2026-09-02T20:50:58Z</time>
  <course>0.0</course>
  <speed>0.0</speed>
  <fix>3d</fix>
</trkpt>
<trkpt lat="40.0713749" lon="-105.229789">
  <ele>1583.0</ele>
  <time>2026-09-02T20:50:58Z</time>
  <course>0.0</course>
  <speed>0.0</speed>
  <fix>3d</fix>
</trkpt>
<trkpt lat="40.0713749" lon="-105.229789">
  <ele>1583.0</ele>
  <time>2026-09-02T20:50:58Z</time>
  <course>0.0</course>
  <speed>0.0</speed>
  <fix>3d</fix>
</trkpt>
<trkpt lat="40.0713749" lon="-105.229789">
  <ele>1583.0</ele>
  <time>2026-09-02T20:50:58Z</time>
  <course>0.0</course>
  <speed>0.0</speed>
  <fix>3d</fix>
</trkpt>
<trkpt lat="40.0713749" lon="-105.229789">
  <ele>1583.0</ele>
  <time>2026-09-02T20:50:58Z</time>
  <course>0.0</course>
  <speed>0.0</speed>
  <fix>3d</fix>
</trkpt>
<trkpt lat="40.0713749" lon="-105.229789">
  <ele>1583.0</ele>
  <time>2026-09-02T20:50:58Z</time>
  <course>0.0</course>
  <speed>0.0</speed>
  <fix>3d</fix>
</trkpt>
<trkpt lat="40.0713749" lon="-105.229789">
  <ele>1583.0</ele>
  <time>2026-09-02T20:50:58Z</time>
  <course>0.0</course>
  <speed>0.0</speed>
  <fix>3d</fix>
</trkpt>
<trkpt lat="40.0713749" lon="-105.229789">
  <ele>1583.0</ele>
  <time>2026-09-02T20:50:58Z</time>
  <course>0.0</course>
  <speed>0.0</speed>
  <fix>3d</fix>
</trkpt>
<trkpt lat="40.0713749" lon="-105.229789">
  <ele>1583.0</ele>
  <time>2026-09-02T20:50:58Z</time>
  <course>0.0</course>
  <speed>0.0</speed>
  <fix>3d</fix>
</trkpt>
<trkpt lat="40.0713749" lon="-105.229789">
  <ele>1583.0</ele>
  <time>2026-09-02T20:50:58Z</time>
  <course>0.0</course>
  <speed>0.0</speed>
  <fix>3d</fix>
</trkpt>
<trkpt lat="40.0713749" lon="-105.229789">
  <ele>1583.0</ele>
  <time>2026-09-02T20:50:58Z</time>
  <course>0.0</course>
  <speed>0.0</speed>
  <fix>3d</fix>
</trkpt>
<trkpt lat="40.0713749" lon="-105.229789">
  <ele>1583.0</ele>
  <time>2026-09-02T20:50:58Z</time>
  <course>0.0</course>
  <speed>0.0</speed>
  <fix>3d</fix>
</trkpt>
<trkpt lat="40.0713749" lon="-105.229789">
  <ele>1583.0</ele>
  <time>2026-09-02T20:50:58Z</time>
  <course>0.0</course>
  <speed>0.0</speed>
  <fix>3d</fix>
</trkpt>
<trkpt lat="40.0713749" lon="-105.229789">
  <ele>1583.0</ele>
  <time>2026-09-02T20:50:58Z</time>
  <course>0.0</course>
  <speed>0.0</speed>
  <fix>3d</fix>
</trkpt>
<trkpt lat="40.0713749" lon="-105.229789">
  <ele>1583.0</ele>
  <time>2026-09-02T20:50:58Z</time>
  <course>0.0</course>
  <speed>0.0</speed>
  <fix>3d</fix>
</trkpt>
<trkpt lat="40.0713749" lon="-105.229789">
  <ele>1583.0</ele>
  <time>2026-09-02T20:50:58Z</time>
  <course>0.0</course>
  <speed>0.0</speed>
  <fix>3d</fix>
</trkpt>
<trkpt lat="40.0713749" lon="-105.229789">
  <ele>1583.0</ele>
  <time>2026-09-02T20:50:58Z</time>
  <course>0.0</course>
  <speed>0.0</speed>
  <fix>3d</fix>
</trkpt>
<trkpt lat="40.0713749" lon="-105.229789">
  <ele>1583.0</ele>
  <time>2026-09-02T20:50:58Z</time>
  <course>0.0</course>
  <speed>0.0</speed>
  <fix>3d</fix>
</trkpt>
<trkpt lat="40.0713749" lon="-105.229789">
  <ele>1583.0</ele>
  <time>2026-09-02T20:50:58Z</time>
  <course>0.0</course>
  <speed>0.0</speed>
  <fix>3d</fix>
</trkpt>
<trkpt lat="40.0713749" lon="-105.229789">
  <ele>1583.0</ele>
  <time>2026-09-02T20:50:58Z</time>
  <course>0.0</course>
  <speed>0.0</speed>
  <fix>3d</fix>
</trkpt>
<trkpt lat="40.0713749" lon="-105.229789">
  <ele>1583.0</ele>
  <time>2026-09-02T20:50:58Z</time>
  <course>0.0</course>
  <speed>0.0</speed>
  <fix>3d</fix>
</trkpt>
<trkpt lat="40.0713749" lon="-105.229789">
  <ele>1583.0</ele>
  <time>2026-09-02T20:50:58Z</time>
  <course>0.0</course>
  <speed>0.0</speed>
  <fix>3d</fix>
</trkpt>
<trkpt lat="40.0713749" lon="-105.229789">
  <ele>1583.0</ele>
  <time>2026-09-02T20:50:58Z</time>
  <course>0.0</course>
  <speed>0.0</speed>
  <fix>3d</fix>
</trkpt>
<trkpt lat="40.0713749" lon="-105.229789">
  <ele>1583.0</ele>
  <time>2026-09-02T20:50:58Z</time>
  <course>0.0</course>
  <speed>0.0</speed>
  <fix>3d</fix>
</trkpt>
<trkpt lat="40.0713749" lon="-105.229789">
  <ele>1583.0</ele>
  <time>2026-09-02T20:50:58Z</time>
  <course>0.0</course>
  <speed>0.0</speed>
  <fix>3d</fix>
</trkpt>
<trkpt lat="40.0713749" lon="-105.229789">
  <ele>1583.0</ele>
  <time>2026-09-02T20:50:58Z</time>
  <course>0.0</course>
  <speed>0.0</speed>
  <fix>3d</fix>
</trkpt>
<trkpt lat="40.0713749" lon="-105.229789">
  <ele>1583.0</ele>
  <time>2026-09-02T20:50:58Z</time>
  <course>0.0</course>
  <speed>0.0</speed>
  <fix>3d</fix>
</trkpt>
<trkpt lat="40.0713749" lon="-105.229789">
  <ele>1583.0</ele>
  <time>2026-09-02T20:50:58Z</time>
  <course>0.0</course>
  <speed>0.0</speed>
  <fix>3d</fix>
</trkpt>
<trkpt lat="40.0713749" lon="-105.229789">
  <ele>1583.0</ele>
  <time>2026-09-02T20:50:58Z</time>
  <course>0.0</course>
  <speed>0.0</speed>
  <fix>3d</fix>
</trkpt>
<trkpt lat="40.0713749" lon="-105.229789">
  <ele>1583.0</ele>
  <time>2026-09-02T20:50:58Z</time>
  <course>0.0</course>
  <speed>0.0</speed>
  <fix>3d</fix>
</trkpt>
<trkpt lat="40.0713749" lon="-105.229789">
  <ele>1583.0</ele>
  <time>2026-09-02T20:50:58Z</time>
  <course>0.0</course>
  <speed>0.0</speed>
  <fix>3d</fix>
</trkpt>
<trkpt lat="40.0713749" lon="-105.229789">
  <ele>1583.0</ele>
  <time>2026-09-02T20:50:58Z</time>
  <course>0.0</course>
  <speed>0.0</speed>
  <fix>3d</fix>
</trkpt>
<trkpt lat="40.0713749" lon="-105.229789">
  <ele>1583.0</ele>
  <time>2026-09-02T20:50:58Z</time>
  <course>0.0</course>
  <speed>0.0</speed>
  <fix>3d</fix>
</trkpt>
<trkpt lat="40.0713749" lon="-105.229789">
  <ele>1583.0</ele>
  <time>2026-09-02T20:50:58Z</time>
  <course>0.0</course>
  <speed>0.0</speed>
  <fix>3d</fix>
</trkpt>
<trkpt lat="40.0713749" lon="-105.229789">
  <ele>1583.0</ele>
  <time>2026-09-02T20:50:58Z</time>
  <course>0.0</course>
  <speed>0.0</speed>
  <fix>3d</fix>
</trkpt>
<trkpt lat="40.0713749" lon="-105.229789">
  <ele>1583.0</ele>
  <time>2026-09-02T20:50:58Z</time>
  <course>0.0</course>
  <speed>0.0</speed>
  <fix>3d</fix>
</trkpt>
<trkpt lat="40.0713749" lon="-105.229789">
  <ele>1583.0</ele>
  <time>2026-09-02T20:50:58Z</time>
  <course>0.0</course>
  <speed>0.0</speed>
  <fix>3d</fix>
</trkpt>
<trkpt lat="40.0713749" lon="-105.229789">
  <ele>1583.0</ele>
  <time>2026-09-02T20:50:58Z</time>
  <course>0.0</course>
  <speed>0.0</speed>
  <fix>3d</fix>
</trkpt>
<trkpt lat="40.0713749" lon="-105.229789">
  <ele>1583.0</ele>
  <time>2026-09-02T20:50:58Z</time>
  <course>0.0</course>
  <speed>0.0</speed>
  <fix>3d</fix>
</trkpt>
<trkpt lat="40.0713749" lon="-105.229789">
  <ele>1583.0</ele>
  <time>2026-09-02T20:50:58Z</time>
  <course>0.0</course>
  <speed>0.0</speed>
  <fix>3d</fix>
</trkpt>
<trkpt lat="40.0713749" lon="-105.229789">
  <ele>1583.0</ele>
  <time>2026-09-02T20:50:58Z</time>
  <course>0.0</course>
  <speed>0.0</speed>
  <fix>3d</fix>
</trkpt>
<trkpt lat="40.0713749" lon="-105.229789">
  <ele>1583.0</ele>
  <time>2026-09-02T20:50:58Z</time>
  <course>0.0</course>
  <speed>0.0</speed>
  <fix>3d</fix>
</trkpt>
<trkpt lat="40.0713749" lon="-105.229789">
  <ele>1583.0</ele>
  <time>2026-09-02T20:50:58Z</time>
  <course>0.0</course>
  <speed>0.0</speed>
  <fix>3d</fix>
</trkpt>
<trkpt lat="40.0713749" lon="-105.229789">
  <ele>1583.0</ele>
  <time>2026-09-02T20:50:58Z</time>
  <course>0.0</course>
  <speed>0.0</speed>
  <fix>3d</fix>
</trkpt>
<trkpt lat="40.0713749" lon="-105.229789">
  <ele>1583.0</ele>
  <time>2026-09-02T20:50:58Z</time>
  <course>0.0</course>
  <speed>0.0</speed>
  <fix>3d</fix>
</trkpt>
<trkpt lat="40.0713749" lon="-105.229789">
  <ele>1583.0</ele>
  <time>2026-09-02T20:50:58Z</time>
  <course>0.0</course>
  <speed>0.0</speed>
  <fix>3d</fix>
</trkpt>
<trkpt lat="40.0713749" lon="-105.229789">
  <ele>1583.0</ele>
  <time>2026-09-02T20:50:58Z</time>
  <course>0.0</course>
  <speed>0.0</speed>
  <fix>3d</fix>
</trkpt>
<trkpt lat="40.0713749" lon="-105.229789">
  <ele>1583.0</ele>
  <time>2026-09-02T20:50:58Z</time>
  <course>0.0</course>
  <speed>0.0</speed>
  <fix>3d</fix>
</trkpt>
<trkpt lat="40.0713749" lon="-105.229789">
  <ele>1583.0</ele>
  <time>2026-09-02T20:50:58Z</time>
  <course>0.0</course>
  <speed>0.0</speed>
  <fix>3d</fix>
</trkpt>
<trkpt lat="40.0713749" lon="-105.229789">
  <ele>1583.0</ele>
  <time>2026-09-02T20:50:58Z</time>
  <course>0.0</course>
  <speed>0.0</speed>
  <fix>3d</fix>
</trkpt>
<trkpt lat="40.0713749" lon="-105.229789">
  <ele>1583.0</ele>
  <time>2026-09-02T20:50:58Z</time>
  <course>0.0</course>
  <speed>0.0</speed>
  <fix>3d</fix>
</trkpt>
<trkpt lat="40.0713749" lon="-105.229789">
  <ele>1583.0</ele>
  <time>2026-09-02T20:50:58Z</time>
  <course>0.0</course>
  <speed>0.0</speed>
  <fix>3d</fix>
</trkpt>
<trkpt lat="40.0713749" lon="-105.229789">
  <ele>1583.0</ele>
  <time>2026-09-02T20:50:58Z</time>
  <course>0.0</course>
  <speed>0.0</speed>
  <fix>3d</fix>
</trkpt>
<trkpt lat="40.0713749" lon="-105.229789">
  <ele>1583.0</ele>
  <time>2026-09-02T20:50:58Z</time>
  <course>0.0</course>
  <speed>0.0</speed>
  <fix>3d</fix>
</trkpt>
<trkpt lat="40.0713749" lon="-105.229789">
  <ele>1583.0</ele>
  <time>2026-09-02T20:50:58Z</time>
  <course>0.0</course>
  <speed>0.0</speed>
  <fix>3d</fix>
</trkpt>
<trkpt lat="40.0713749" lon="-105.229789">
  <ele>1583.0</ele>
  <time>2026-09-02T20:50:58Z</time>
  <course>0.0</course>
  <speed>0.0</speed>
  <fix>3d</fix>
</trkpt>
<trkpt lat="40.0713749" lon="-105.229789">
  <ele>1583.0</ele>
  <time>2026-09-02T20:50:58Z</time>
  <course>0.0</course>
  <speed>0.0</speed>
  <fix>3d</fix>
</trkpt>
<trkpt lat="40.0713749" lon="-105.229789">
  <ele>1583.0</ele>
  <time>2026-09-02T20:50:58Z</time>
  <course>0.0</course>
  <speed>0.0</speed>
  <fix>3d</fix>
</trkpt>
<trkpt lat="40.0713749" lon="-105.229789">
  <ele>1583.0</ele>
  <time>2026-09-02T20:50:58Z</time>
  <course>0.0</course>
  <speed>0.0</speed>
  <fix>3d</fix>
</trkpt>
<trkpt lat="40.0713749" lon="-105.229789">
  <ele>1583.0</ele>
  <time>2026-09-02T20:50:58Z</time>
  <course>0.0</course>
  <speed>0.0</speed>
  <fix>3d</fix>
</trkpt>
<trkpt lat="40.0713749" lon="-105.229789">
  <ele>1583.0</ele>
  <time>2026-09-02T20:50:58Z</time>
  <course>0.0</course>
  <speed>0.0</speed>
  <fix>3d</fix>
</trkpt>
<trkpt lat="40.0713749" lon="-105.229789">
  <ele>1583.0</ele>
  <time>2026-09-02T20:50:58Z</time>
  <course>0.0</course>
  <speed>0.0</speed>
  <fix>3d</fix>
</trkpt>
<trkpt lat="40.0713749" lon="-105.229789">
  <ele>1583.0</ele>
  <time>2026-09-02T20:50:58Z</time>
  <course>0.0</course>
  <speed>0.0</speed>
  <fix>3d</fix>
</trkpt>
<trkpt lat="40.0713749" lon="-105.229789">
  <ele>1583.0</ele>
  <time>2026-09-02T20:50:58Z</time>
  <course>0.0</course>
  <speed>0.0</speed>
  <fix>3d</fix>
</trkpt>
<trkpt lat="40.0713749" lon="-105.229789">
  <ele>1583.0</ele>
  <time>2026-09-02T20:50:58Z</time>
  <course>0.0</course>
  <speed>0.0</speed>
  <fix>3d</fix>
</trkpt>
<trkpt lat="40.0713749" lon="-105.229789">
  <ele>1583.0</ele>
  <time>2026-09-02T20:50:58Z</time>
  <course>0.0</course>
  <speed>0.0</speed>
  <fix>3d</fix>
</trkpt>
<trkpt lat="40.0713749" lon="-105.229789">
  <ele>1583.0</ele>
  <time>2026-09-02T20:50:58Z</time>
  <course>0.0</course>
  <speed>0.0</speed>
  <fix>3d</fix>
</trkpt>
<trkpt lat="40.0713749" lon="-105.229789">
  <ele>1583.0</ele>
  <time>2026-09-02T20:50:58Z</time>
  <course>0.0</course>
  <speed>0.0</speed>
  <fix>3d</fix>
</trkpt>
<trkpt lat="40.0713749" lon="-105.229789">
  <ele>1583.0</ele>
  <time>2026-09-02T20:50:58Z</time>
  <course>0.0</course>
  <speed>0.0</speed>
  <fix>3d</fix>
</trkpt>
<trkpt lat="40.0713749" lon="-105.229789">
  <ele>1583.0</ele>
  <time>2026-09-02T20:50:58Z</time>
  <course>0.0</course>
  <speed>0.0</speed>
  <fix>3d</fix>
</trkpt>
<trkpt lat="40.0713749" lon="-105.229789">
  <ele>1583.0</ele>
  <time>2026-09-02T20:50:58Z</time>
  <course>0.0</course>
  <speed>0.0</speed>
  <fix>3d</fix>
</trkpt>
<trkpt lat="40.0713749" lon="-105.229789">
  <ele>1583.0</ele>
  <time>2026-09-02T20:50:58Z</time>
  <course>0.0</course>
  <speed>0.0</speed>
  <fix>3d</fix>
</trkpt>
<trkpt lat="40.0713749" lon="-105.229789">
  <ele>1583.0</ele>
  <time>2026-09-02T20:50:58Z</time>
  <course>0.0</course>
  <speed>0.0</speed>
  <fix>3d</fix>
</trkpt>
<trkpt lat="40.0713749" lon="-105.229789">
  <ele>1583.0</ele>
  <time>2026-09-02T20:50:58Z</time>
  <course>0.0</course>
  <speed>0.0</speed>
  <fix>3d</fix>
</trkpt>
<trkpt lat="40.0713749" lon="-105.229789">
  <ele>1583.0</ele>
  <time>2026-09-02T20:50:58Z</time>
  <course>0.0</course>
  <speed>0.0</speed>
  <fix>3d</fix>
</trkpt>
<trkpt lat="40.0713749" lon="-105.229789">
  <ele>1583.0</ele>
  <time>2026-09-02T20:50:58Z</time>
  <course>0.0</course>
  <speed>0.0</speed>
  <fix>3d</fix>
</trkpt>
<trkpt lat="40.0713749" lon="-105.229789">
  <ele>1583.0</ele>
  <time>2026-09-02T20:50:58Z</time>
  <course>0.0</course>
  <speed>0.0</speed>
  <fix>3d</fix>
</trkpt>
<trkpt lat="40.0713749" lon="-105.229789">
  <ele>1583.0</ele>
  <time>2026-09-02T20:50:58Z</time>
  <course>0.0</course>
  <speed>0.0</speed>
  <fix>3d</fix>
</trkpt>
<trkpt lat="40.0713749" lon="-105.229789">
  <ele>1583.0</ele>
  <time>2026-09-02T20:50:58Z</time>
  <course>0.0</course>
  <speed>0.0</speed>
  <fix>3d</fix>
</trkpt>
<trkpt lat="40.0713749" lon="-105.229789">
  <ele>1583.0</ele>
  <time>2026-09-02T20:50:58Z</time>
  <course>0.0</course>
  <speed>0.0</speed>
  <fix>3d</fix>
</trkpt>
<trkpt lat="40.0713749" lon="-105.229789">
  <ele>1583.0</ele>
  <time>2026-09-02T20:50:58Z</time>
  <course>0.0</course>
  <speed>0.0</speed>
  <fix>3d</fix>
</trkpt>
<trkpt lat="40.0713749" lon="-105.229789">
  <ele>1583.0</ele>
  <time>2026-09-02T20:50:58Z</time>
  <course>0.0</course>
  <speed>0.0</speed>
  <fix>3d</fix>
</trkpt>
<trkpt lat="40.0713749" lon="-105.229789">
  <ele>1583.0</ele>
  <time>2026-09-02T20:50:58Z</time>
  <course>0.0</course>
  <speed>0.0</speed>
  <fix>3d</fix>
</trkpt>
<trkpt lat="40.0713749" lon="-105.229789">
  <ele>1583.0</ele>
  <time>2026-09-02T20:50:58Z</time>
  <course>0.0</course>
  <speed>0.0</speed>
  <fix>3d</fix>
</trkpt>
<trkpt lat="40.0713749" lon="-105.229789">
  <ele>1583.0</ele>
  <time>2026-09-02T20:50:58Z</time>
  <course>0.0</course>
  <speed>0.0</speed>
  <fix>3d</fix>
</trkpt>
<trkpt lat="40.0713749" lon="-105.229789">
  <ele>1583.0</ele>
  <time>2026-09-02T20:50:58Z</time>
  <course>0.0</course>
  <speed>0.0</speed>
  <fix>3d</fix>
</trkpt>
<trkpt lat="40.0713749" lon="-105.229789">
  <ele>1583.0</ele>
  <time>2026-09-02T20:50:58Z</time>
  <course>0.0</course>
  <speed>0.0</speed>
  <fix>3d</fix>
</trkpt>
<trkpt lat="40.0713749" lon="-105.229789">
  <ele>1583.0</ele>
  <time>2026-09-02T20:50:58Z</time>
  <course>0.0</course>
  <speed>0.0</speed>
  <fix>3d</fix>
</trkpt>
<trkpt lat="40.0713749" lon="-105.229789">
  <ele>1583.0</ele>
  <time>2026-09-02T20:50:58Z</time>
  <course>0.0</course>
  <speed>0.0</speed>
  <fix>3d</fix>
</trkpt>
<trkpt lat="40.0713749" lon="-105.229789">
  <ele>1583.0</ele>
  <time>2026-09-02T20:50:58Z</time>
  <course>0.0</course>
  <speed>0.0</speed>
  <fix>3d</fix>
</trkpt>
<trkpt lat="40.0713749" lon="-105.229789">
  <ele>1583.0</ele>
  <time>2026-09-02T20:50:58Z</time>
  <course>0.0</course>
  <speed>0.0</speed>
  <fix>3d</fix>
</trkpt>
<trkpt lat="40.0713749" lon="-105.229789">
  <ele>1583.0</ele>
  <time>2026-09-02T20:50:58Z</time>
  <course>0.0</course>
  <speed>0.0</speed>
  <fix>3d</fix>
</trkpt>
<trkpt lat="40.0713749" lon="-105.229789">
  <ele>1583.0</ele>
  <time>2026-09-02T20:50:58Z</time>
  <course>0.0</course>
  <speed>0.0</speed>
  <fix>3d</fix>
</trkpt>
<trkpt lat="40.0713749" lon="-105.229789">
  <ele>1583.0</ele>
  <time>2026-09-02T20:50:58Z</time>
  <course>0.0</course>
  <speed>0.0</speed>
  <fix>3d</fix>
</trkpt>
<trkpt lat="40.0713749" lon="-105.229789">
  <ele>1583.0</ele>
  <time>2026-09-02T20:50:58Z</time>
  <course>0.0</course>
  <speed>0.0</speed>
  <fix>3d</fix>
</trkpt>
<trkpt lat="40.0713749" lon="-105.229789">
  <ele>1583.0</ele>
  <time>2026-09-02T20:50:58Z</time>
  <course>0.0</course>
  <speed>0.0</speed>
  <fix>3d</fix>
</trkpt>
<trkpt lat="40.0713749" lon="-105.229789">
  <ele>1583.0</ele>
  <time>2026-09-02T20:50:58Z</time>
  <course>0.0</course>
  <speed>0.0</speed>
  <fix>3d</fix>
</trkpt>
<trkpt lat="40.0713749" lon="-105.229789">
  <ele>1583.0</ele>
  <time>2026-09-02T20:50:58Z</time>
  <course>0.0</course>
  <speed>0.0</speed>
  <fix>3d</fix>
</trkpt>
<trkpt lat="40.0713749" lon="-105.229789">
  <ele>1583.0</ele>
  <time>2026-09-02T20:50:58Z</time>
  <course>0.0</course>
  <speed>0.0</speed>
  <fix>3d</fix>
</trkpt>
<trkpt lat="40.0713749" lon="-105.229789">
  <ele>1583.0</ele>
  <time>2026-09-02T20:50:58Z</time>
  <course>0.0</course>
  <speed>0.0</speed>
  <fix>3d</fix>
</trkpt>
<trkpt lat="40.0713749" lon="-105.229789">
  <ele>1583.0</ele>
  <time>2026-09-02T20:50:58Z</time>
  <course>0.0</course>
  <speed>0.0</speed>
  <fix>3d</fix>
</trkpt>
<trkpt lat="40.0713749" lon="-105.229789">
  <ele>1583.0</ele>
  <time>2026-09-02T20:50:58Z</time>
  <course>0.0</course>
  <speed>0.0</speed>
  <fix>3d</fix>
</trkpt>
<trkpt lat="40.0713749" lon="-105.229789">
  <ele>1583.0</ele>
  <time>2026-09-02T20:50:58Z</time>
  <course>0.0</course>
  <speed>0.0</speed>
  <fix>3d</fix>
</trkpt>
<trkpt lat="40.0713749" lon="-105.229789">
  <ele>1583.0</ele>
  <time>2026-09-02T20:50:58Z</time>
  <course>0.0</course>
  <speed>0.0</speed>
  <fix>3d</fix>
</trkpt>
<trkpt lat="40.0713749" lon="-105.229789">
  <ele>1583.0</ele>
  <time>2026-09-02T20:50:58Z</time>
  <course>0.0</course>
  <speed>0.0</speed>
  <fix>3d</fix>
</trkpt>
<trkpt lat="40.0713749" lon="-105.229789">
  <ele>1583.0</ele>
  <time>2026-09-02T20:50:58Z</time>
  <course>0.0</course>
  <speed>0.0</speed>
  <fix>3d</fix>
</trkpt>
<trkpt lat="40.0713749" lon="-105.229789">
  <ele>1583.0</ele>
  <time>2026-09-02T20:50:58Z</time>
  <course>0.0</course>
  <speed>0.0</speed>
  <fix>3d</fix>
</trkpt>
<trkpt lat="40.0713749" lon="-105.229789">
  <ele>1583.0</ele>
  <time>2026-09-02T20:50:58Z</time>
  <course>0.0</course>
  <speed>0.0</speed>
  <fix>3d</fix>
</trkpt>
<trkpt lat="40.0713749" lon="-105.229789">
  <ele>1583.0</ele>
  <time>2026-09-02T20:50:58Z</time>
  <course>0.0</course>
  <speed>0.0</speed>
  <fix>3d</fix>
</trkpt>
<trkpt lat="40.0713749" lon="-105.229789">
  <ele>1583.0</ele>
  <time>2026-09-02T20:50:58Z</time>
  <course>0.0</course>
  <speed>0.0</speed>
  <fix>3d</fix>
</trkpt>
<trkpt lat="40.0713749" lon="-105.229789">
  <ele>1583.0</ele>
  <time>2026-09-02T20:50:58Z</time>
  <course>0.0</course>
  <speed>0.0</speed>
  <fix>3d</fix>
</trkpt>
<trkpt lat="40.0713749" lon="-105.229789">
  <ele>1583.0</ele>
  <time>2026-09-02T20:50:58Z</time>
  <course>0.0</course>
  <speed>0.0</speed>
  <fix>3d</fix>
</trkpt>
<trkpt lat="40.0713749" lon="-105.229789">
  <ele>1583.0</ele>
  <time>2026-09-02T20:50:58Z</time>
  <course>0.0</course>
  <speed>0.0</speed>
  <fix>3d</fix>
</trkpt>
<trkpt lat="40.0713749" lon="-105.229789">
  <ele>1583.0</ele>
  <time>2026-09-02T20:50:58Z</time>
  <course>0.0</course>
  <speed>0.0</speed>
  <fix>3d</fix>
</trkpt>
<trkpt lat="40.0713749" lon="-105.229789">
  <ele>1583.0</ele>
  <time>2026-09-02T20:50:58Z</time>
  <course>0.0</course>
  <speed>0.0</speed>
  <fix>3d</fix>
</trkpt>
<trkpt lat="40.0713749" lon="-105.229789">
  <ele>1583.0</ele>
  <time>2026-09-02T20:50:58Z</time>
  <course>0.0</course>
  <speed>0.0</speed>
  <fix>3d</fix>
</trkpt>
<trkpt lat="40.0713749" lon="-105.229789">
  <ele>1583.0</ele>
  <time>2026-09-02T20:50:58Z</time>
  <course>0.0</course>
  <speed>0.0</speed>
  <fix>3d</fix>
</trkpt>
<trkpt lat="40.0713749" lon="-105.229789">
  <ele>1583.0</ele>
  <time>2026-09-02T20:50:58Z</time>
  <course>0.0</course>
  <speed>0.0</speed>
  <fix>3d</fix>
</trkpt>
<trkpt lat="40.0713749" lon="-105.229789">
  <ele>1583.0</ele>
  <time>2026-09-02T20:50:58Z</time>
  <course>0.0</course>
  <speed>0.0</speed>
  <fix>3d</fix>
</trkpt>
<trkpt lat="40.0713749" lon="-105.229789">
  <ele>1583.0</ele>
  <time>2026-09-02T20:50:58Z</time>
  <course>0.0</course>
  <speed>0.0</speed>
  <fix>3d</fix>
</trkpt>
<trkpt lat="40.0713749" lon="-105.229789">
  <ele>1583.0</ele>
  <time>2026-09-02T20:50:58Z</time>
  <course>0.0</course>
  <speed>0.0</speed>
  <fix>3d</fix>
</trkpt>
<trkpt lat="40.0713749" lon="-105.229789">
  <ele>1583.0</ele>
  <time>2026-09-02T20:50:58Z</time>
  <course>0.0</course>
  <speed>0.0</speed>
  <fix>3d</fix>
</trkpt>
<trkpt lat="40.0713749" lon="-105.229789">
  <ele>1583.0</ele>
  <time>2026-09-02T20:50:58Z</time>
  <course>0.0</course>
  <speed>0.0</speed>
  <fix>3d</fix>
</trkpt>
<trkpt lat="40.0713749" lon="-105.229789">
  <ele>1583.0</ele>
  <time>2026-09-02T20:50:58Z</time>
  <course>0.0</course>
  <speed>0.0</speed>
  <fix>3d</fix>
</trkpt>
<trkpt lat="40.0713749" lon="-105.229789">
  <ele>1583.0</ele>
  <time>2026-09-02T20:50:58Z</time>
  <course>0.0</course>
  <speed>0.0</speed>
  <fix>3d</fix>
</trkpt>
<trkpt lat="40.0713749" lon="-105.229789">
  <ele>1583.0</ele>
  <time>2026-09-02T20:50:58Z</time>
  <course>0.0</course>
  <speed>0.0</speed>
  <fix>3d</fix>
</trkpt>
<trkpt lat="40.0713749" lon="-105.229789">
  <ele>1583.0</ele>
  <time>2026-09-02T20:50:58Z</time>
  <course>0.0</course>
  <speed>0.0</speed>
  <fix>3d</fix>
</trkpt>
<trkpt lat="40.0713749" lon="-105.229789">
  <ele>1583.0</ele>
  <time>2026-09-02T20:50:58Z</time>
  <course>0.0</course>
  <speed>0.0</speed>
  <fix>3d</fix>
</trkpt>
<trkpt lat="40.0713749" lon="-105.229789">
  <ele>1583.0</ele>
  <time>2026-09-02T20:50:58Z</time>
  <course>0.0</course>
  <speed>0.0</speed>
  <fix>3d</fix>
</trkpt>
<trkpt lat="40.0713749" lon="-105.229789">
  <ele>1583.0</ele>
  <time>2026-09-02T20:50:58Z</time>
  <course>0.0</course>
  <speed>0.0</speed>
  <fix>3d</fix>
</trkpt>
<trkpt lat="40.0713749" lon="-105.229789">
  <ele>1583.0</ele>
  <time>2026-09-02T20:50:58Z</time>
  <course>0.0</course>
  <speed>0.0</speed>
  <fix>3d</fix>
</trkpt>
<trkpt lat="40.0713749" lon="-105.229789">
  <ele>1583.0</ele>
  <time>2026-09-02T20:50:58Z</time>
  <course>0.0</course>
  <speed>0.0</speed>
  <fix>3d</fix>
</trkpt>
<trkpt lat="40.0713749" lon="-105.229789">
  <ele>1583.0</ele>
  <time>2026-09-02T20:50:58Z</time>
  <course>0.0</course>
  <speed>0.0</speed>
  <fix>3d</fix>
</trkpt>
<trkpt lat="40.0713749" lon="-105.229789">
  <ele>1583.0</ele>
  <time>2026-09-02T20:50:58Z</time>
  <course>0.0</course>
  <speed>0.0</speed>
  <fix>3d</fix>
</trkpt>
<trkpt lat="40.0713749" lon="-105.229789">
  <ele>1583.0</ele>
  <time>2026-09-02T20:50:58Z</time>
  <course>0.0</course>
  <speed>0.0</speed>
  <fix>3d</fix>
</trkpt>
<trkpt lat="40.0713749" lon="-105.229789">
  <ele>1583.0</ele>
  <time>2026-09-02T20:50:58Z</time>
  <course>0.0</course>
  <speed>0.0</speed>
  <fix>3d</fix>
</trkpt>
<trkpt lat="40.0713749" lon="-105.229789">
  <ele>1583.0</ele>
  <time>2026-09-02T20:50:58Z</time>
  <course>0.0</course>
  <speed>0.0</speed>
  <fix>3d</fix>
</trkpt>
<trkpt lat="40.0713749" lon="-105.229789">
  <ele>1583.0</ele>
  <time>2026-09-02T20:50:58Z</time>
  <course>0.0</course>
  <speed>0.0</speed>
  <fix>3d</fix>
</trkpt>
<trkpt lat="40.0713749" lon="-105.229789">
  <ele>1583.0</ele>
  <time>2026-09-02T20:50:58Z</time>
  <course>0.0</course>
  <speed>0.0</speed>
  <fix>3d</fix>
</trkpt>
<trkpt lat="40.0713749" lon="-105.229789">
  <ele>1583.0</ele>
  <time>2026-09-02T20:50:58Z</time>
  <course>0.0</course>
  <speed>0.0</speed>
  <fix>3d</fix>
</trkpt>
<trkpt lat="40.0713749" lon="-105.229789">
  <ele>1583.0</ele>
  <time>2026-09-02T20:50:58Z</time>
  <course>0.0</course>
  <speed>0.0</speed>
  <fix>3d</fix>
</trkpt>
<trkpt lat="40.0713749" lon="-105.229789">
  <ele>1583.0</ele>
  <time>2026-09-02T20:50:58Z</time>
  <course>0.0</course>
  <speed>0.0</speed>
  <fix>3d</fix>
</trkpt>
<trkpt lat="40.0713749" lon="-105.229789">
  <ele>1583.0</ele>
  <time>2026-09-02T20:50:58Z</time>
  <course>0.0</course>
  <speed>0.0</speed>
  <fix>3d</fix>
</trkpt>
<trkpt lat="40.0713749" lon="-105.229789">
  <ele>1583.0</ele>
  <time>2026-09-02T20:50:58Z</time>
  <course>0.0</course>
  <speed>0.0</speed>
  <fix>3d</fix>
</trkpt>
<trkpt lat="40.0713749" lon="-105.229789">
  <ele>1583.0</ele>
  <time>2026-09-02T20:50:58Z</time>
  <course>0.0</course>
  <speed>0.0</speed>
  <fix>3d</fix>
</trkpt>
<trkpt lat="40.0713749" lon="-105.229789">
  <ele>1583.0</ele>
  <time>2026-09-02T20:50:58Z</time>
  <course>0.0</course>
  <speed>0.0</speed>
  <fix>3d</fix>
</trkpt>
<trkpt lat="40.0713749" lon="-105.229789">
  <ele>1583.0</ele>
  <time>2026-09-02T20:50:58Z</time>
  <course>0.0</course>
  <speed>0.0</speed>
  <fix>3d</fix>
</trkpt>
<trkpt lat="40.0713749" lon="-105.229789">
  <ele>1583.0</ele>
  <time>2026-09-02T20:50:58Z</time>
  <course>0.0</course>
  <speed>0.0</speed>
  <fix>3d</fix>
</trkpt>
<trkpt lat="40.0713749" lon="-105.229789">
  <ele>1583.0</ele>
  <time>2026-09-02T20:50:58Z</time>
  <course>0.0</course>
  <speed>0.0</speed>
  <fix>3d</fix>
</trkpt>
<trkpt lat="40.0713749" lon="-105.229789">
  <ele>1583.0</ele>
  <time>2026-09-02T20:50:58Z</time>
  <course>0.0</course>
  <speed>0.0</speed>
  <fix>3d</fix>
</trkpt>
<trkpt lat="40.0713749" lon="-105.229789">
  <ele>1583.0</ele>
  <time>2026-09-02T20:50:58Z</time>
  <course>0.0</course>
  <speed>0.0</speed>
  <fix>3d</fix>
</trkpt>
<trkpt lat="40.0713749" lon="-105.229789">
  <ele>1583.0</ele>
  <time>2026-09-02T20:50:58Z</time>
  <course>0.0</course>
  <speed>0.0</speed>
  <fix>3d</fix>
</trkpt>
<trkpt lat="40.0713749" lon="-105.229789">
  <ele>1583.0</ele>
  <time>2026-09-02T20:50:58Z</time>
  <course>0.0</course>
  <speed>0.0</speed>
  <fix>3d</fix>
</trkpt>
<trkpt lat="40.0713749" lon="-105.229789">
  <ele>1583.0</ele>
  <time>2026-09-02T20:50:58Z</time>
  <course>0.0</course>
  <speed>0.0</speed>
  <fix>3d</fix>
</trkpt>
<trkpt lat="40.0713749" lon="-105.229789">
  <ele>1583.0</ele>
  <time>2026-09-02T20:50:58Z</time>
  <course>0.0</course>
  <speed>0.0</speed>
  <fix>3d</fix>
</trkpt>
<trkpt lat="40.0713749" lon="-105.229789">
  <ele>1583.0</ele>
  <time>2026-09-02T20:50:58Z</time>
  <course>0.0</course>
  <speed>0.0</speed>
  <fix>3d</fix>
</trkpt>
<trkpt lat="40.0713749" lon="-105.229789">
  <ele>1583.0</ele>
  <time>2026-09-02T20:50:58Z</time>
  <course>0.0</course>
  <speed>0.0</speed>
  <fix>3d</fix>
</trkpt>
<trkpt lat="40.0713749" lon="-105.229789">
  <ele>1583.0</ele>
  <time>2026-09-02T20:50:58Z</time>
  <course>0.0</course>
  <speed>0.0</speed>
  <fix>3d</fix>
</trkpt>
<trkpt lat="40.0713749" lon="-105.229789">
  <ele>1583.0</ele>
  <time>2026-09-02T20:50:58Z</time>
  <course>0.0</course>
  <speed>0.0</speed>
  <fix>3d</fix>
</trkpt>
<trkpt lat="40.0713749" lon="-105.229789">
  <ele>1583.0</ele>
  <time>2026-09-02T20:50:58Z</time>
  <course>0.0</course>
  <speed>0.0</speed>
  <fix>3d</fix>
</trkpt>
<trkpt lat="40.0713749" lon="-105.229789">
  <ele>1583.0</ele>
  <time>2026-09-02T20:50:58Z</time>
  <course>0.0</course>
  <speed>0.0</speed>
  <fix>3d</fix>
</trkpt>
<trkpt lat="40.0713749" lon="-105.229789">
  <ele>1583.0</ele>
  <time>2026-09-02T20:50:58Z</time>
  <course>0.0</course>
  <speed>0.0</speed>
  <fix>3d</fix>
</trkpt>
<trkpt lat="40.0713749" lon="-105.229789">
  <ele>1583.0</ele>
  <time>2026-09-02T20:50:58Z</time>
  <course>0.0</course>
  <speed>0.0</speed>
  <fix>3d</fix>
</trkpt>
<trkpt lat="39.655741" lon="-104.1383097">
  <ele>1566.58</ele>
  <time>2026-09-02T20:50:58Z</time>
  <course>0.0</course>
  <speed>0.0</speed>
  <fix>3d</fix>
</trkpt>
<trkpt lat="40.0713749" lon="-105.229789">
  <ele>1583.0</ele>
  <time>2026-09-02T20:50:58Z</time>
  <course>0.0</course>
  <speed>0.0</speed>
  <fix>3d</fix>
</trkpt>
<trkpt lat="40.0713749" lon="-105.229789">
  <ele>1583.0</ele>
  <time>2026-09-02T20:50:58Z</time>
  <course>0.0</course>
  <speed>0.0</speed>
  <fix>3d</fix>
</trkpt>
<trkpt lat="40.0713749" lon="-105.229789">
  <ele>1583.0</ele>
  <time>2026-09-02T20:50:58Z</time>
  <course>0.0</course>
  <speed>0.0</speed>
  <fix>3d</fix>
</trkpt>
<trkpt lat="40.0713749" lon="-105.229789">
  <ele>1583.0</ele>
  <time>2026-09-02T20:50:58Z</time>
  <course>0.0</course>
  <speed>0.0</speed>
  <fix>3d</fix>
</trkpt>
<trkpt lat="40.0713749" lon="-105.229789">
  <ele>1583.0</ele>
  <time>2026-09-02T20:50:58Z</time>
  <course>0.0</course>
  <speed>0.0</speed>
  <fix>3d</fix>
</trkpt>
<trkpt lat="40.0713749" lon="-105.229789">
  <ele>1583.0</ele>
  <time>2026-09-02T20:50:58Z</time>
  <course>0.0</course>
  <speed>0.0</speed>
  <fix>3d</fix>
</trkpt>
<trkpt lat="40.0713749" lon="-105.229789">
  <ele>1583.0</ele>
  <time>2026-09-02T20:50:58Z</time>
  <course>0.0</course>
  <speed>0.0</speed>
  <fix>3d</fix>
</trkpt>
<trkpt lat="40.0713749" lon="-105.229789">
  <ele>1583.0</ele>
  <time>2026-09-02T20:50:58Z</time>
  <course>0.0</course>
  <speed>0.0</speed>
  <fix>3d</fix>
</trkpt>
<trkpt lat="40.0713749" lon="-105.229789">
  <ele>1583.0</ele>
  <time>2026-09-02T20:50:58Z</time>
  <course>0.0</course>
  <speed>0.0</speed>
  <fix>3d</fix>
</trkpt>
<trkpt lat="40.0713749" lon="-105.229789">
  <ele>1583.0</ele>
  <time>2026-09-02T20:50:58Z</time>
  <course>0.0</course>
  <speed>0.0</speed>
  <fix>3d</fix>
</trkpt>
<trkpt lat="40.0713749" lon="-105.229789">
  <ele>1583.0</ele>
  <time>2026-09-02T20:50:58Z</time>
  <course>0.0</course>
  <speed>0.0</speed>
  <fix>3d</fix>
</trkpt>
<trkpt lat="40.0713749" lon="-105.229789">
  <ele>1583.0</ele>
  <time>2026-09-02T20:50:58Z</time>
  <course>0.0</course>
  <speed>0.0</speed>
  <fix>3d</fix>
</trkpt>
<trkpt lat="40.0713749" lon="-105.229789">
  <ele>1583.0</ele>
  <time>2026-09-02T20:50:58Z</time>
  <course>0.0</course>
  <speed>0.0</speed>
  <fix>3d</fix>
</trkpt>
<trkpt lat="40.0713749" lon="-105.229789">
  <ele>1583.0</ele>
  <time>2026-09-02T20:50:58Z</time>
  <course>0.0</course>
  <speed>0.0</speed>
  <fix>3d</fix>
</trkpt>
<trkpt lat="40.0713749" lon="-105.229789">
  <ele>1583.0</ele>
  <time>2026-09-02T20:50:58Z</time>
  <course>0.0</course>
  <speed>0.0</speed>
  <fix>3d</fix>
</trkpt>
<trkpt lat="40.0713749" lon="-105.229789">
  <ele>1583.0</ele>
  <time>2026-09-02T20:50:58Z</time>
  <course>0.0</course>
  <speed>0.0</speed>
  <fix>3d</fix>
</trkpt>
<trkpt lat="40.0713749" lon="-105.229789">
  <ele>1583.0</ele>
  <time>2026-09-02T20:50:58Z</time>
  <course>0.0</course>
  <speed>0.0</speed>
  <fix>3d</fix>
</trkpt>
<trkpt lat="40.0713749" lon="-105.229789">
  <ele>1583.0</ele>
  <time>2026-09-02T20:50:58Z</time>
  <course>0.0</course>
  <speed>0.0</speed>
  <fix>3d</fix>
</trkpt>
<trkpt lat="40.0713749" lon="-105.229789">
  <ele>1583.0</ele>
  <time>2026-09-02T20:50:58Z</time>
  <course>0.0</course>
  <speed>0.0</speed>
  <fix>3d</fix>
</trkpt>
<trkpt lat="40.0713749" lon="-105.229789">
  <ele>1583.0</ele>
  <time>2026-09-02T20:50:58Z</time>
  <course>0.0</course>
  <speed>0.0</speed>
  <fix>3d</fix>
</trkpt>
<trkpt lat="40.0713749" lon="-105.229789">
  <ele>1583.0</ele>
  <time>2026-09-02T20:50:58Z</time>
  <course>0.0</course>
  <speed>0.0</speed>
  <fix>3d</fix>
</trkpt>
<trkpt lat="40.0713749" lon="-105.229789">
  <ele>1583.0</ele>
  <time>2026-09-02T20:50:58Z</time>
  <course>0.0</course>
  <speed>0.0</speed>
  <fix>3d</fix>
</trkpt>
<trkpt lat="40.0713749" lon="-105.229789">
  <ele>1583.0</ele>
  <time>2026-09-02T20:50:58Z</time>
  <course>0.0</course>
  <speed>0.0</speed>
  <fix>3d</fix>
</trkpt>
<trkpt lat="40.0713749" lon="-105.229789">
  <ele>1583.0</ele>
  <time>2026-09-02T20:50:58Z</time>
  <course>0.0</course>
  <speed>0.0</speed>
  <fix>3d</fix>
</trkpt>
<trkpt lat="40.0713749" lon="-105.229789">
  <ele>1583.0</ele>
  <time>2026-09-02T20:50:58Z</time>
  <course>0.0</course>
  <speed>0.0</speed>
  <fix>3d</fix>
</trkpt>
<trkpt lat="40.0713749" lon="-105.229789">
  <ele>1583.0</ele>
  <time>2026-09-02T20:50:58Z</time>
  <course>0.0</course>
  <speed>0.0</speed>
  <fix>3d</fix>
</trkpt>
<trkpt lat="40.0713749" lon="-105.229789">
  <ele>1583.0</ele>
  <time>2026-09-02T20:50:58Z</time>
  <course>0.0</course>
  <speed>0.0</speed>
  <fix>3d</fix>
</trkpt>
<trkpt lat="40.0713749" lon="-105.229789">
  <ele>1583.0</ele>
  <time>2026-09-02T20:50:58Z</time>
  <course>0.0</course>
  <speed>0.0</speed>
  <fix>3d</fix>
</trkpt>
<trkpt lat="40.0713749" lon="-105.229789">
  <ele>1583.0</ele>
  <time>2026-09-02T20:50:58Z</time>
  <course>0.0</course>
  <speed>0.0</speed>
  <fix>3d</fix>
</trkpt>
<trkpt lat="40.0713749" lon="-105.229789">
  <ele>1583.0</ele>
  <time>2026-09-02T20:50:58Z</time>
  <course>0.0</course>
  <speed>0.0</speed>
  <fix>3d</fix>
</trkpt>
<trkpt lat="40.0713749" lon="-105.229789">
  <ele>1583.0</ele>
  <time>2026-09-02T20:50:58Z</time>
  <course>0.0</course>
  <speed>0.0</speed>
  <fix>3d</fix>
</trkpt>
<trkpt lat="40.0713749" lon="-105.229789">
  <ele>1583.0</ele>
  <time>2026-09-02T20:50:58Z</time>
  <course>0.0</course>
  <speed>0.0</speed>
  <fix>3d</fix>
</trkpt>
<trkpt lat="40.0713749" lon="-105.229789">
  <ele>1583.0</ele>
  <time>2026-09-02T20:50:58Z</time>
  <course>0.0</course>
  <speed>0.0</speed>
  <fix>3d</fix>
</trkpt>
<trkpt lat="40.0713749" lon="-105.229789">
  <ele>1583.0</ele>
  <time>2026-09-02T20:50:58Z</time>
  <course>0.0</course>
  <speed>0.0</speed>
  <fix>3d</fix>
</trkpt>
<trkpt lat="40.0713749" lon="-105.229789">
  <ele>1583.0</ele>
  <time>2026-09-02T20:50:58Z</time>
  <course>0.0</course>
  <speed>0.0</speed>
  <fix>3d</fix>
</trkpt>
<trkpt lat="40.0713749" lon="-105.229789">
  <ele>1583.0</ele>
  <time>2026-09-02T20:50:58Z</time>
  <course>0.0</course>
  <speed>0.0</speed>
  <fix>3d</fix>
</trkpt>
<trkpt lat="40.0713749" lon="-105.229789">
  <ele>1583.0</ele>
  <time>2026-09-02T20:50:58Z</time>
  <course>0.0</course>
  <speed>0.0</speed>
  <fix>3d</fix>
</trkpt>
<trkpt lat="40.0713749" lon="-105.229789">
  <ele>1583.0</ele>
  <time>2026-09-02T20:50:59Z</time>
  <course>0.0</course>
  <speed>0.0</speed>
  <fix>3d</fix>
</trkpt>
<trkpt lat="40.0713749" lon="-105.229789">
  <ele>1583.0</ele>
  <time>2026-09-02T20:50:59Z</time>
  <course>0.0</course>
  <speed>0.0</speed>
  <fix>3d</fix>
</trkpt>
<trkpt lat="40.0713749" lon="-105.229789">
  <ele>1583.0</ele>
  <time>2026-09-02T20:50:59Z</time>
  <course>0.0</course>
  <speed>0.0</speed>
  <fix>3d</fix>
</trkpt>
<trkpt lat="40.0713749" lon="-105.229789">
  <ele>1583.0</ele>
  <time>2026-09-02T20:50:59Z</time>
  <course>0.0</course>
  <speed>0.0</speed>
  <fix>3d</fix>
</trkpt>
<trkpt lat="40.0713749" lon="-105.229789">
  <ele>1583.0</ele>
  <time>2026-09-02T20:50:59Z</time>
  <course>0.0</course>
  <speed>0.0</speed>
  <fix>3d</fix>
</trkpt>
<trkpt lat="39.655741" lon="-104.1383097">
  <ele>1566.58</ele>
  <time>2026-09-02T20:50:59Z</time>
  <course>0.0</course>
  <speed>0.0</speed>
  <fix>3d</fix>
</trkpt>
<trkpt lat="40.0713749" lon="-105.229789">
  <ele>1583.0</ele>
  <time>2026-09-02T20:50:59Z</time>
  <course>0.0</course>
  <speed>0.0</speed>
  <fix>3d</fix>
</trkpt>
<trkpt lat="40.0713749" lon="-105.229789">
  <ele>1583.0</ele>
  <time>2026-09-02T20:50:59Z</time>
  <course>0.0</course>
  <speed>0.0</speed>
  <fix>3d</fix>
</trkpt>
<trkpt lat="40.0713749" lon="-105.229789">
  <ele>1583.0</ele>
  <time>2026-09-02T20:50:59Z</time>
  <course>0.0</course>
  <speed>0.0</speed>
  <fix>3d</fix>
</trkpt>
<trkpt lat="40.0713749" lon="-105.229789">
  <ele>1583.0</ele>
  <time>2026-09-02T20:50:59Z</time>
  <course>0.0</course>
  <speed>0.0</speed>
  <fix>3d</fix>
</trkpt>
<trkpt lat="40.0713749" lon="-105.229789">
  <ele>1583.0</ele>
  <time>2026-09-02T20:50:59Z</time>
  <course>0.0</course>
  <speed>0.0</speed>
  <fix>3d</fix>
</trkpt>
<trkpt lat="40.0713749" lon="-105.229789">
  <ele>1583.0</ele>
  <time>2026-09-02T20:50:59Z</time>
  <course>0.0</course>
  <speed>0.0</speed>
  <fix>3d</fix>
</trkpt>
<trkpt lat="40.0713749" lon="-105.229789">
  <ele>1583.0</ele>
  <time>2026-09-02T20:50:59Z</time>
  <course>0.0</course>
  <speed>0.0</speed>
  <fix>3d</fix>
</trkpt>
<trkpt lat="40.0713749" lon="-105.229789">
  <ele>1583.0</ele>
  <time>2026-09-02T20:50:59Z</time>
  <course>0.0</course>
  <speed>0.0</speed>
  <fix>3d</fix>
</trkpt>
<trkpt lat="40.0713749" lon="-105.229789">
  <ele>1583.0</ele>
  <time>2026-09-02T20:50:59Z</time>
  <course>0.0</course>
  <speed>0.0</speed>
  <fix>3d</fix>
</trkpt>
<trkpt lat="40.0713749" lon="-105.229789">
  <ele>1583.0</ele>
  <time>2026-09-02T20:50:59Z</time>
  <course>0.0</course>
  <speed>0.0</speed>
  <fix>3d</fix>
</trkpt>
<trkpt lat="40.0713749" lon="-105.229789">
  <ele>1583.0</ele>
  <time>2026-09-02T20:51:00Z</time>
  <course>0.0</course>
  <speed>0.0</speed>
  <fix>3d</fix>
</trkpt>
<trkpt lat="40.0713749" lon="-105.229789">
  <ele>1583.0</ele>
  <time>2026-09-02T20:51:00Z</time>
  <course>0.0</course>
  <speed>0.0</speed>
  <fix>3d</fix>
</trkpt>
<trkpt lat="40.0713749" lon="-105.229789">
  <ele>1583.0</ele>
  <time>2026-09-02T20:51:00Z</time>
  <course>0.0</course>
  <speed>0.0</speed>
  <fix>3d</fix>
</trkpt>
<trkpt lat="40.0713749" lon="-105.229789">
  <ele>1583.0</ele>
  <time>2026-09-02T20:51:00Z</time>
  <course>0.0</course>
  <speed>0.0</speed>
  <fix>3d</fix>
</trkpt>
<trkpt lat="40.0713749" lon="-105.229789">
  <ele>1583.0</ele>
  <time>2026-09-02T20:51:00Z</time>
  <course>0.0</course>
  <speed>0.0</speed>
  <fix>3d</fix>
</trkpt>
<trkpt lat="40.0713749" lon="-105.229789">
  <ele>1583.0</ele>
  <time>2026-09-02T20:51:00Z</time>
  <course>0.0</course>
  <speed>0.0</speed>
  <fix>3d</fix>
</trkpt>
<trkpt lat="40.0713749" lon="-105.229789">
  <ele>1583.0</ele>
  <time>2026-09-02T20:51:00Z</time>
  <course>0.0</course>
  <speed>0.0</speed>
  <fix>3d</fix>
</trkpt>
<trkpt lat="40.0713749" lon="-105.229789">
  <ele>1583.0</ele>
  <time>2026-09-02T20:51:00Z</time>
  <course>0.0</course>
  <speed>0.0</speed>
  <fix>3d</fix>
</trkpt>
<trkpt lat="40.0713749" lon="-105.229789">
  <ele>1583.0</ele>
  <time>2026-09-02T20:51:00Z</time>
  <course>0.0</course>
  <speed>0.0</speed>
  <fix>3d</fix>
</trkpt>
<trkpt lat="40.0713749" lon="-105.229789">
  <ele>1583.0</ele>
  <time>2026-09-02T20:51:00Z</time>
  <course>0.0</course>
  <speed>0.0</speed>
  <fix>3d</fix>
</trkpt>
<trkpt lat="40.0713749" lon="-105.229789">
  <ele>1583.0</ele>
  <time>2026-09-02T20:51:00Z</time>
  <course>0.0</course>
  <speed>0.0</speed>
  <fix>3d</fix>
</trkpt>
<trkpt lat="40.0713749" lon="-105.229789">
  <ele>1583.0</ele>
  <time>2026-09-02T20:51:00Z</time>
  <course>0.0</course>
  <speed>0.0</speed>
  <fix>3d</fix>
</trkpt>
<trkpt lat="40.0713749" lon="-105.229789">
  <ele>1583.0</ele>
  <time>2026-09-02T20:51:00Z</time>
  <course>0.0</course>
  <speed>0.0</speed>
  <fix>3d</fix>
</trkpt>
<trkpt lat="40.0713749" lon="-105.229789">
  <ele>1583.0</ele>
  <time>2026-09-02T20:51:00Z</time>
  <course>0.0</course>
  <speed>0.0</speed>
  <fix>3d</fix>
</trkpt>
<trkpt lat="40.0713749" lon="-105.229789">
  <ele>1583.0</ele>
  <time>2026-09-02T20:51:00Z</time>
  <course>0.0</course>
  <speed>0.0</speed>
  <fix>3d</fix>
</trkpt>
<trkpt lat="40.0713749" lon="-105.229789">
  <ele>1583.0</ele>
  <time>2026-09-02T20:51:00Z</time>
  <course>0.0</course>
  <speed>0.0</speed>
  <fix>3d</fix>
</trkpt>
<trkpt lat="40.0713749" lon="-105.229789">
  <ele>1583.0</ele>
  <time>2026-09-02T20:51:00Z</time>
  <course>0.0</course>
  <speed>0.0</speed>
  <fix>3d</fix>
</trkpt>
<trkpt lat="40.0713749" lon="-105.229789">
  <ele>1583.0</ele>
  <time>2026-09-02T20:51:00Z</time>
  <course>0.0</course>
  <speed>0.0</speed>
  <fix>3d</fix>
</trkpt>
<trkpt lat="40.0713749" lon="-105.229789">
  <ele>1583.0</ele>
  <time>2026-09-02T20:51:00Z</time>
  <course>0.0</course>
  <speed>0.0</speed>
  <fix>3d</fix>
</trkpt>
<trkpt lat="40.0713749" lon="-105.229789">
  <ele>1583.0</ele>
  <time>2026-09-02T20:51:00Z</time>
  <course>0.0</course>
  <speed>0.0</speed>
  <fix>3d</fix>
</trkpt>
<trkpt lat="40.0713749" lon="-105.229789">
  <ele>1583.0</ele>
  <time>2026-09-02T20:51:01Z</time>
  <course>0.0</course>
  <speed>0.0</speed>
  <fix>3d</fix>
</trkpt>
<trkpt lat="40.0713749" lon="-105.229789">
  <ele>1583.0</ele>
  <time>2026-09-02T20:51:01Z</time>
  <course>0.0</course>
  <speed>0.0</speed>
  <fix>3d</fix>
</trkpt>
<trkpt lat="40.0713749" lon="-105.229789">
  <ele>1583.0</ele>
  <time>2026-09-02T20:51:01Z</time>
  <course>0.0</course>
  <speed>0.0</speed>
  <fix>3d</fix>
</trkpt>
<trkpt lat="40.0713749" lon="-105.229789">
  <ele>1583.0</ele>
  <time>2026-09-02T20:51:01Z</time>
  <course>0.0</course>
  <speed>0.0</speed>
  <fix>3d</fix>
</trkpt>
<trkpt lat="40.0713749" lon="-105.229789">
  <ele>1583.0</ele>
  <time>2026-09-02T20:51:01Z</time>
  <course>0.0</course>
  <speed>0.0</speed>
  <fix>3d</fix>
</trkpt>
<trkpt lat="40.0713749" lon="-105.229789">
  <ele>1583.0</ele>
  <time>2026-09-02T20:51:01Z</time>
  <course>0.0</course>
  <speed>0.0</speed>
  <fix>3d</fix>
</trkpt>
<trkpt lat="40.0713749" lon="-105.229789">
  <ele>1583.0</ele>
  <time>2026-09-02T20:51:01Z</time>
  <course>0.0</course>
  <speed>0.0</speed>
  <fix>3d</fix>
</trkpt>
<trkpt lat="40.0713749" lon="-105.229789">
  <ele>1583.0</ele>
  <time>2026-09-02T20:51:01Z</time>
  <course>0.0</course>
  <speed>0.0</speed>
  <fix>3d</fix>
</trkpt>
<trkpt lat="40.0713749" lon="-105.229789">
  <ele>1583.0</ele>
  <time>2026-09-02T20:51:01Z</time>
  <course>0.0</course>
  <speed>0.0</speed>
  <fix>3d</fix>
</trkpt>
<trkpt lat="40.0713749" lon="-105.229789">
  <ele>1583.0</ele>
  <time>2026-09-02T20:51:01Z</time>
  <course>0.0</course>
  <speed>0.0</speed>
  <fix>3d</fix>
</trkpt>
<trkpt lat="40.0713749" lon="-105.229789">
  <ele>1583.0</ele>
  <time>2026-09-02T20:51:01Z</time>
  <course>0.0</course>
  <speed>0.0</speed>
  <fix>3d</fix>
</trkpt>
<trkpt lat="40.0713749" lon="-105.229789">
  <ele>1583.0</ele>
  <time>2026-09-02T20:51:01Z</time>
  <course>0.0</course>
  <speed>0.0</speed>
  <fix>3d</fix>
</trkpt>
<trkpt lat="40.0713749" lon="-105.229789">
  <ele>1583.0</ele>
  <time>2026-09-02T20:51:01Z</time>
  <course>0.0</course>
  <speed>0.0</speed>
  <fix>3d</fix>
</trkpt>
<trkpt lat="40.0713749" lon="-105.229789">
  <ele>1583.0</ele>
  <time>2026-09-02T20:51:01Z</time>
  <course>0.0</course>
  <speed>0.0</speed>
  <fix>3d</fix>
</trkpt>
<trkpt lat="40.0713749" lon="-105.229789">
  <ele>1583.0</ele>
  <time>2026-09-02T20:51:01Z</time>
  <course>0.0</course>
  <speed>0.0</speed>
  <fix>3d</fix>
</trkpt>
<trkpt lat="40.0713749" lon="-105.229789">
  <ele>1583.0</ele>
  <time>2026-09-02T20:51:01Z</time>
  <course>0.0</course>
  <speed>0.0</speed>
  <fix>3d</fix>
</trkpt>
<trkpt lat="40.0713749" lon="-105.229789">
  <ele>1583.0</ele>
  <time>2026-09-02T20:51:01Z</time>
  <course>0.0</course>
  <speed>0.0</speed>
  <fix>3d</fix>
</trkpt>
<trkpt lat="40.0713749" lon="-105.229789">
  <ele>1583.0</ele>
  <time>2026-09-02T20:51:01Z</time>
  <course>0.0</course>
  <speed>0.0</speed>
  <fix>3d</fix>
</trkpt>
<trkpt lat="40.0713749" lon="-105.229789">
  <ele>1583.0</ele>
  <time>2026-09-02T20:51:01Z</time>
  <course>0.0</course>
  <speed>0.0</speed>
  <fix>3d</fix>
</trkpt>
<trkpt lat="40.0713749" lon="-105.229789">
  <ele>1583.0</ele>
  <time>2026-09-02T20:51:01Z</time>
  <course>0.0</course>
  <speed>0.0</speed>
  <fix>3d</fix>
</trkpt>
<trkpt lat="40.0713749" lon="-105.229789">
  <ele>1583.0</ele>
  <time>2026-09-02T20:51:01Z</time>
  <course>0.0</course>
  <speed>0.0</speed>
  <fix>3d</fix>
</trkpt>
<trkpt lat="40.0713749" lon="-105.229789">
  <ele>1583.0</ele>
  <time>2026-09-02T20:51:01Z</time>
  <course>0.0</course>
  <speed>0.0</speed>
  <fix>3d</fix>
</trkpt>
<trkpt lat="40.0713749" lon="-105.229789">
  <ele>1583.0</ele>
  <time>2026-09-02T20:51:01Z</time>
  <course>0.0</course>
  <speed>0.0</speed>
  <fix>3d</fix>
</trkpt>
<trkpt lat="40.0713749" lon="-105.229789">
  <ele>1583.0</ele>
  <time>2026-09-02T20:51:01Z</time>
  <course>0.0</course>
  <speed>0.0</speed>
  <fix>3d</fix>
</trkpt>
<trkpt lat="40.0713749" lon="-105.229789">
  <ele>1583.0</ele>
  <time>2026-09-02T20:51:01Z</time>
  <course>0.0</course>
  <speed>0.0</speed>
  <fix>3d</fix>
</trkpt>
<trkpt lat="40.0713749" lon="-105.229789">
  <ele>1583.0</ele>
  <time>2026-09-02T20:51:01Z</time>
  <course>0.0</course>
  <speed>0.0</speed>
  <fix>3d</fix>
</trkpt>
<trkpt lat="40.0713749" lon="-105.229789">
  <ele>1583.0</ele>
  <time>2026-09-02T20:51:01Z</time>
  <course>0.0</course>
  <speed>0.0</speed>
  <fix>3d</fix>
</trkpt>
<trkpt lat="40.0713749" lon="-105.229789">
  <ele>1583.0</ele>
  <time>2026-09-02T20:51:01Z</time>
  <course>0.0</course>
  <speed>0.0</speed>
  <fix>3d</fix>
</trkpt>
<trkpt lat="40.0713749" lon="-105.229789">
  <ele>1583.0</ele>
  <time>2026-09-02T20:51:01Z</time>
  <course>0.0</course>
  <speed>0.0</speed>
  <fix>3d</fix>
</trkpt>
<trkpt lat="40.0713749" lon="-105.229789">
  <ele>1583.0</ele>
  <time>2026-09-02T20:51:01Z</time>
  <course>0.0</course>
  <speed>0.0</speed>
  <fix>3d</fix>
</trkpt>
<trkpt lat="40.0713749" lon="-105.229789">
  <ele>1583.0</ele>
  <time>2026-09-02T20:51:01Z</time>
  <course>0.0</course>
  <speed>0.0</speed>
  <fix>3d</fix>
</trkpt>
<trkpt lat="40.0713749" lon="-105.229789">
  <ele>1583.0</ele>
  <time>2026-09-02T20:51:01Z</time>
  <course>0.0</course>
  <speed>0.0</speed>
  <fix>3d</fix>
</trkpt>
<trkpt lat="40.0713749" lon="-105.229789">
  <ele>1583.0</ele>
  <time>2026-09-02T20:51:01Z</time>
  <course>0.0</course>
  <speed>0.0</speed>
  <fix>3d</fix>
</trkpt>
<trkpt lat="40.0713749" lon="-105.229789">
  <ele>1583.0</ele>
  <time>2026-09-02T20:51:01Z</time>
  <course>0.0</course>
  <speed>0.0</speed>
  <fix>3d</fix>
</trkpt>
<trkpt lat="40.0713749" lon="-105.229789">
  <ele>1583.0</ele>
  <time>2026-09-02T20:51:01Z</time>
  <course>0.0</course>
  <speed>0.0</speed>
  <fix>3d</fix>
</trkpt>
<trkpt lat="40.0713749" lon="-105.229789">
  <ele>1583.0</ele>
  <time>2026-09-02T20:51:01Z</time>
  <course>0.0</course>
  <speed>0.0</speed>
  <fix>3d</fix>
</trkpt>
<trkpt lat="40.0713749" lon="-105.229789">
  <ele>1583.0</ele>
  <time>2026-09-02T20:51:01Z</time>
  <course>0.0</course>
  <speed>0.0</speed>
  <fix>3d</fix>
</trkpt>
<trkpt lat="40.0713749" lon="-105.229789">
  <ele>1583.0</ele>
  <time>2026-09-02T20:51:01Z</time>
  <course>0.0</course>
  <speed>0.0</speed>
  <fix>3d</fix>
</trkpt>
<trkpt lat="40.0713749" lon="-105.229789">
  <ele>1583.0</ele>
  <time>2026-09-02T20:51:01Z</time>
  <course>0.0</course>
  <speed>0.0</speed>
  <fix>3d</fix>
</trkpt>
<trkpt lat="40.0713749" lon="-105.229789">
  <ele>1583.0</ele>
  <time>2026-09-02T20:51:01Z</time>
  <course>0.0</course>
  <speed>0.0</speed>
  <fix>3d</fix>
</trkpt>
<trkpt lat="40.0713749" lon="-105.229789">
  <ele>1583.0</ele>
  <time>2026-09-02T20:51:01Z</time>
  <course>0.0</course>
  <speed>0.0</speed>
  <fix>3d</fix>
</trkpt>
<trkpt lat="40.0713749" lon="-105.229789">
  <ele>1583.0</ele>
  <time>2026-09-02T20:51:01Z</time>
  <course>0.0</course>
  <speed>0.0</speed>
  <fix>3d</fix>
</trkpt>
<trkpt lat="40.0713749" lon="-105.229789">
  <ele>1583.0</ele>
  <time>2026-09-02T20:51:01Z</time>
  <course>0.0</course>
  <speed>0.0</speed>
  <fix>3d</fix>
</trkpt>
<trkpt lat="40.0713749" lon="-105.229789">
  <ele>1583.0</ele>
  <time>2026-09-02T20:51:01Z</time>
  <course>0.0</course>
  <speed>0.0</speed>
  <fix>3d</fix>
</trkpt>
<trkpt lat="40.0713749" lon="-105.229789">
  <ele>1583.0</ele>
  <time>2026-09-02T20:51:01Z</time>
  <course>0.0</course>
  <speed>0.0</speed>
  <fix>3d</fix>
</trkpt>
<trkpt lat="40.0713749" lon="-105.229789">
  <ele>1583.0</ele>
  <time>2026-09-02T20:51:01Z</time>
  <course>0.0</course>
  <speed>0.0</speed>
  <fix>3d</fix>
</trkpt>
<trkpt lat="40.0713749" lon="-105.229789">
  <ele>1583.0</ele>
  <time>2026-09-02T20:51:01Z</time>
  <course>0.0</course>
  <speed>0.0</speed>
  <fix>3d</fix>
</trkpt>
<trkpt lat="40.0713749" lon="-105.229789">
  <ele>1583.0</ele>
  <time>2026-09-02T20:51:01Z</time>
  <course>0.0</course>
  <speed>0.0</speed>
  <fix>3d</fix>
</trkpt>
<trkpt lat="40.0713749" lon="-105.229789">
  <ele>1583.0</ele>
  <time>2026-09-02T20:51:01Z</time>
  <course>0.0</course>
  <speed>0.0</speed>
  <fix>3d</fix>
</trkpt>
<trkpt lat="40.0713749" lon="-105.229789">
  <ele>1583.0</ele>
  <time>2026-09-02T20:51:01Z</time>
  <course>0.0</course>
  <speed>0.0</speed>
  <fix>3d</fix>
</trkpt>
<trkpt lat="40.0713749" lon="-105.229789">
  <ele>1583.0</ele>
  <time>2026-09-02T20:51:01Z</time>
  <course>0.0</course>
  <speed>0.0</speed>
  <fix>3d</fix>
</trkpt>
<trkpt lat="40.0713749" lon="-105.229789">
  <ele>1583.0</ele>
  <time>2026-09-02T20:51:01Z</time>
  <course>0.0</course>
  <speed>0.0</speed>
  <fix>3d</fix>
</trkpt>
<trkpt lat="40.0713749" lon="-105.229789">
  <ele>1583.0</ele>
  <time>2026-09-02T20:51:01Z</time>
  <course>0.0</course>
  <speed>0.0</speed>
  <fix>3d</fix>
</trkpt>
<trkpt lat="40.0713749" lon="-105.229789">
  <ele>1583.0</ele>
  <time>2026-09-02T20:51:01Z</time>
  <course>0.0</course>
  <speed>0.0</speed>
  <fix>3d</fix>
</trkpt>
<trkpt lat="40.0713749" lon="-105.229789">
  <ele>1583.0</ele>
  <time>2026-09-02T20:51:01Z</time>
  <course>0.0</course>
  <speed>0.0</speed>
  <fix>3d</fix>
</trkpt>
<trkpt lat="40.0713749" lon="-105.229789">
  <ele>1583.0</ele>
  <time>2026-09-02T20:51:01Z</time>
  <course>0.0</course>
  <speed>0.0</speed>
  <fix>3d</fix>
</trkpt>
<trkpt lat="40.0713749" lon="-105.229789">
  <ele>1583.0</ele>
  <time>2026-09-02T20:51:01Z</time>
  <course>0.0</course>
  <speed>0.0</speed>
  <fix>3d</fix>
</trkpt>
<trkpt lat="40.0713749" lon="-105.229789">
  <ele>1583.0</ele>
  <time>2026-09-02T20:51:01Z</time>
  <course>0.0</course>
  <speed>0.0</speed>
  <fix>3d</fix>
</trkpt>
<trkpt lat="40.0713749" lon="-105.229789">
  <ele>1583.0</ele>
  <time>2026-09-02T20:51:01Z</time>
  <course>0.0</course>
  <speed>0.0</speed>
  <fix>3d</fix>
</trkpt>
<trkpt lat="40.0713749" lon="-105.229789">
  <ele>1583.0</ele>
  <time>2026-09-02T20:51:01Z</time>
  <course>0.0</course>
  <speed>0.0</speed>
  <fix>3d</fix>
</trkpt>
<trkpt lat="40.0713749" lon="-105.229789">
  <ele>1583.0</ele>
  <time>2026-09-02T20:51:01Z</time>
  <course>0.0</course>
  <speed>0.0</speed>
  <fix>3d</fix>
</trkpt>
<trkpt lat="40.0713749" lon="-105.229789">
  <ele>1583.0</ele>
  <time>2026-09-02T20:51:01Z</time>
  <course>0.0</course>
  <speed>0.0</speed>
  <fix>3d</fix>
</trkpt>
<trkpt lat="40.0713749" lon="-105.229789">
  <ele>1583.0</ele>
  <time>2026-09-02T20:51:01Z</time>
  <course>0.0</course>
  <speed>0.0</speed>
  <fix>3d</fix>
</trkpt>
<trkpt lat="40.0713749" lon="-105.229789">
  <ele>1583.0</ele>
  <time>2026-09-02T20:51:01Z</time>
  <course>0.0</course>
  <speed>0.0</speed>
  <fix>3d</fix>
</trkpt>
<trkpt lat="40.0713749" lon="-105.229789">
  <ele>1583.0</ele>
  <time>2026-09-02T20:51:01Z</time>
  <course>0.0</course>
  <speed>0.0</speed>
  <fix>3d</fix>
</trkpt>
<trkpt lat="40.0713749" lon="-105.229789">
  <ele>1583.0</ele>
  <time>2026-09-02T20:51:01Z</time>
  <course>0.0</course>
  <speed>0.0</speed>
  <fix>3d</fix>
</trkpt>
<trkpt lat="40.0713749" lon="-105.229789">
  <ele>1583.0</ele>
  <time>2026-09-02T20:51:01Z</time>
  <course>0.0</course>
  <speed>0.0</speed>
  <fix>3d</fix>
</trkpt>
<trkpt lat="40.0713749" lon="-105.229789">
  <ele>1583.0</ele>
  <time>2026-09-02T20:51:01Z</time>
  <course>0.0</course>
  <speed>0.0</speed>
  <fix>3d</fix>
</trkpt>
<trkpt lat="40.0713749" lon="-105.229789">
  <ele>1583.0</ele>
  <time>2026-09-02T20:51:01Z</time>
  <course>0.0</course>
  <speed>0.0</speed>
  <fix>3d</fix>
</trkpt>
<trkpt lat="40.0713749" lon="-105.229789">
  <ele>1583.0</ele>
  <time>2026-09-02T20:51:01Z</time>
  <course>0.0</course>
  <speed>0.0</speed>
  <fix>3d</fix>
</trkpt>
<trkpt lat="40.0713749" lon="-105.229789">
  <ele>1583.0</ele>
  <time>2026-09-02T20:51:01Z</time>
  <course>0.0</course>
  <speed>0.0</speed>
  <fix>3d</fix>
</trkpt>
<trkpt lat="40.0713749" lon="-105.229789">
  <ele>1583.0</ele>
  <time>2026-09-02T20:51:01Z</time>
  <course>0.0</course>
  <speed>0.0</speed>
  <fix>3d</fix>
</trkpt>
<trkpt lat="40.0713749" lon="-105.229789">
  <ele>1583.0</ele>
  <time>2026-09-02T20:51:01Z</time>
  <course>0.0</course>
  <speed>0.0</speed>
  <fix>3d</fix>
</trkpt>
<trkpt lat="40.0713749" lon="-105.229789">
  <ele>1583.0</ele>
  <time>2026-09-02T20:51:01Z</time>
  <course>0.0</course>
  <speed>0.0</speed>
  <fix>3d</fix>
</trkpt>
<trkpt lat="40.0713749" lon="-105.229789">
  <ele>1583.0</ele>
  <time>2026-09-02T20:51:01Z</time>
  <course>0.0</course>
  <speed>0.0</speed>
  <fix>3d</fix>
</trkpt>
<trkpt lat="40.0713749" lon="-105.229789">
  <ele>1583.0</ele>
  <time>2026-09-02T20:51:01Z</time>
  <course>0.0</course>
  <speed>0.0</speed>
  <fix>3d</fix>
</trkpt>
<trkpt lat="40.0713749" lon="-105.229789">
  <ele>1583.0</ele>
  <time>2026-09-02T20:51:01Z</time>
  <course>0.0</course>
  <speed>0.0</speed>
  <fix>3d</fix>
</trkpt>
<trkpt lat="40.0713749" lon="-105.229789">
  <ele>1583.0</ele>
  <time>2026-09-02T20:51:01Z</time>
  <course>0.0</course>
  <speed>0.0</speed>
  <fix>3d</fix>
</trkpt>
<trkpt lat="40.0713749" lon="-105.229789">
  <ele>1583.0</ele>
  <time>2026-09-02T20:51:01Z</time>
  <course>0.0</course>
  <speed>0.0</speed>
  <fix>3d</fix>
</trkpt>
<trkpt lat="40.0713749" lon="-105.229789">
  <ele>1583.0</ele>
  <time>2026-09-02T20:51:01Z</time>
  <course>0.0</course>
  <speed>0.0</speed>
  <fix>3d</fix>
</trkpt>
<trkpt lat="40.0713749" lon="-105.229789">
  <ele>1583.0</ele>
  <time>2026-09-02T20:51:01Z</time>
  <course>0.0</course>
  <speed>0.0</speed>
  <fix>3d</fix>
</trkpt>
<trkpt lat="40.0713749" lon="-105.229789">
  <ele>1583.0</ele>
  <time>2026-09-02T20:51:01Z</time>
  <course>0.0</course>
  <speed>0.0</speed>
  <fix>3d</fix>
</trkpt>
<trkpt lat="40.0713749" lon="-105.229789">
  <ele>1583.0</ele>
  <time>2026-09-02T20:51:01Z</time>
  <course>0.0</course>
  <speed>0.0</speed>
  <fix>3d</fix>
</trkpt>
<trkpt lat="40.0713749" lon="-105.229789">
  <ele>1583.0</ele>
  <time>2026-09-02T20:51:01Z</time>
  <course>0.0</course>
  <speed>0.0</speed>
  <fix>3d</fix>
</trkpt>
<trkpt lat="40.0713749" lon="-105.229789">
  <ele>1583.0</ele>
  <time>2026-09-02T20:51:01Z</time>
  <course>0.0</course>
  <speed>0.0</speed>
  <fix>3d</fix>
</trkpt>
<trkpt lat="40.0713749" lon="-105.229789">
  <ele>1583.0</ele>
  <time>2026-09-02T20:51:01Z</time>
  <course>0.0</course>
  <speed>0.0</speed>
  <fix>3d</fix>
</trkpt>
<trkpt lat="40.0713749" lon="-105.229789">
  <ele>1583.0</ele>
  <time>2026-09-02T20:51:01Z</time>
  <course>0.0</course>
  <speed>0.0</speed>
  <fix>3d</fix>
</trkpt>
<trkpt lat="40.0713749" lon="-105.229789">
  <ele>1583.0</ele>
  <time>2026-09-02T20:51:01Z</time>
  <course>0.0</course>
  <speed>0.0</speed>
  <fix>3d</fix>
</trkpt>
<trkpt lat="40.0713749" lon="-105.229789">
  <ele>1583.0</ele>
  <time>2026-09-02T20:51:01Z</time>
  <course>0.0</course>
  <speed>0.0</speed>
  <fix>3d</fix>
</trkpt>
<trkpt lat="40.0713749" lon="-105.229789">
  <ele>1583.0</ele>
  <time>2026-09-02T20:51:01Z</time>
  <course>0.0</course>
  <speed>0.0</speed>
  <fix>3d</fix>
</trkpt>
<trkpt lat="40.0713749" lon="-105.229789">
  <ele>1583.0</ele>
  <time>2026-09-02T20:51:01Z</time>
  <course>0.0</course>
  <speed>0.0</speed>
  <fix>3d</fix>
</trkpt>
<trkpt lat="40.0713749" lon="-105.229789">
  <ele>1583.0</ele>
  <time>2026-09-02T20:51:01Z</time>
  <course>0.0</course>
  <speed>0.0</speed>
  <fix>3d</fix>
</trkpt>
<trkpt lat="40.0713749" lon="-105.229789">
  <ele>1583.0</ele>
  <time>2026-09-02T20:51:01Z</time>
  <course>0.0</course>
  <speed>0.0</speed>
  <fix>3d</fix>
</trkpt>
<trkpt lat="40.0713749" lon="-105.229789">
  <ele>1583.0</ele>
  <time>2026-09-02T20:51:01Z</time>
  <course>0.0</course>
  <speed>0.0</speed>
  <fix>3d</fix>
</trkpt>
<trkpt lat="40.0713749" lon="-105.229789">
  <ele>1583.0</ele>
  <time>2026-09-02T20:51:01Z</time>
  <course>0.0</course>
  <speed>0.0</speed>
  <fix>3d</fix>
</trkpt>
<trkpt lat="40.0713749" lon="-105.229789">
  <ele>1583.0</ele>
  <time>2026-09-02T20:51:01Z</time>
  <course>0.0</course>
  <speed>0.0</speed>
  <fix>3d</fix>
</trkpt>
<trkpt lat="40.0713749" lon="-105.229789">
  <ele>1583.0</ele>
  <time>2026-09-02T20:51:01Z</time>
  <course>0.0</course>
  <speed>0.0</speed>
  <fix>3d</fix>
</trkpt>
<trkpt lat="40.0713749" lon="-105.229789">
  <ele>1583.0</ele>
  <time>2026-09-02T20:51:01Z</time>
  <course>0.0</course>
  <speed>0.0</speed>
  <fix>3d</fix>
</trkpt>
<trkpt lat="40.0713749" lon="-105.229789">
  <ele>1583.0</ele>
  <time>2026-09-02T20:51:01Z</time>
  <course>0.0</course>
  <speed>0.0</speed>
  <fix>3d</fix>
</trkpt>
<trkpt lat="40.0713749" lon="-105.229789">
  <ele>1583.0</ele>
  <time>2026-09-02T20:51:01Z</time>
  <course>0.0</course>
  <speed>0.0</speed>
  <fix>3d</fix>
</trkpt>
<trkpt lat="40.0713749" lon="-105.229789">
  <ele>1583.0</ele>
  <time>2026-09-02T20:51:01Z</time>
  <course>0.0</course>
  <speed>0.0</speed>
  <fix>3d</fix>
</trkpt>
<trkpt lat="40.0713749" lon="-105.229789">
  <ele>1583.0</ele>
  <time>2026-09-02T20:51:01Z</time>
  <course>0.0</course>
  <speed>0.0</speed>
  <fix>3d</fix>
</trkpt>
<trkpt lat="40.0713749" lon="-105.229789">
  <ele>1583.0</ele>
  <time>2026-09-02T20:51:01Z</time>
  <course>0.0</course>
  <speed>0.0</speed>
  <fix>3d</fix>
</trkpt>
<trkpt lat="40.0713749" lon="-105.229789">
  <ele>1583.0</ele>
  <time>2026-09-02T20:51:01Z</time>
  <course>0.0</course>
  <speed>0.0</speed>
  <fix>3d</fix>
</trkpt>
<trkpt lat="40.0713749" lon="-105.229789">
  <ele>1583.0</ele>
  <time>2026-09-02T20:51:01Z</time>
  <course>0.0</course>
  <speed>0.0</speed>
  <fix>3d</fix>
</trkpt>
<trkpt lat="40.0713749" lon="-105.229789">
  <ele>1583.0</ele>
  <time>2026-09-02T20:51:01Z</time>
  <course>0.0</course>
  <speed>0.0</speed>
  <fix>3d</fix>
</trkpt>
<trkpt lat="40.0713749" lon="-105.229789">
  <ele>1583.0</ele>
  <time>2026-09-02T20:51:01Z</time>
  <course>0.0</course>
  <speed>0.0</speed>
  <fix>3d</fix>
</trkpt>
<trkpt lat="40.0713749" lon="-105.229789">
  <ele>1583.0</ele>
  <time>2026-09-02T20:51:01Z</time>
  <course>0.0</course>
  <speed>0.0</speed>
  <fix>3d</fix>
</trkpt>
<trkpt lat="40.0713749" lon="-105.229789">
  <ele>1583.0</ele>
  <time>2026-09-02T20:51:01Z</time>
  <course>0.0</course>
  <speed>0.0</speed>
  <fix>3d</fix>
</trkpt>
<trkpt lat="40.0713749" lon="-105.229789">
  <ele>1583.0</ele>
  <time>2026-09-02T20:51:01Z</time>
  <course>0.0</course>
  <speed>0.0</speed>
  <fix>3d</fix>
</trkpt>
<trkpt lat="40.0713749" lon="-105.229789">
  <ele>1583.0</ele>
  <time>2026-09-02T20:51:01Z</time>
  <course>0.0</course>
  <speed>0.0</speed>
  <fix>3d</fix>
</trkpt>
<trkpt lat="40.0713749" lon="-105.229789">
  <ele>1583.0</ele>
  <time>2026-09-02T20:51:01Z</time>
  <course>0.0</course>
  <speed>0.0</speed>
  <fix>3d</fix>
</trkpt>
<trkpt lat="40.0713749" lon="-105.229789">
  <ele>1583.0</ele>
  <time>2026-09-02T20:51:01Z</time>
  <course>0.0</course>
  <speed>0.0</speed>
  <fix>3d</fix>
</trkpt>
<trkpt lat="40.0713749" lon="-105.229789">
  <ele>1583.0</ele>
  <time>2026-09-02T20:51:01Z</time>
  <course>0.0</course>
  <speed>0.0</speed>
  <fix>3d</fix>
</trkpt>
<trkpt lat="40.0713749" lon="-105.229789">
  <ele>1583.0</ele>
  <time>2026-09-02T20:51:01Z</time>
  <course>0.0</course>
  <speed>0.0</speed>
  <fix>3d</fix>
</trkpt>
<trkpt lat="40.0713749" lon="-105.229789">
  <ele>1583.0</ele>
  <time>2026-09-02T20:51:01Z</time>
  <course>0.0</course>
  <speed>0.0</speed>
  <fix>3d</fix>
</trkpt>
<trkpt lat="40.0713749" lon="-105.229789">
  <ele>1583.0</ele>
  <time>2026-09-02T20:51:01Z</time>
  <course>0.0</course>
  <speed>0.0</speed>
  <fix>3d</fix>
</trkpt>
<trkpt lat="40.0713749" lon="-105.229789">
  <ele>1583.0</ele>
  <time>2026-09-02T20:51:01Z</time>
  <course>0.0</course>
  <speed>0.0</speed>
  <fix>3d</fix>
</trkpt>
<trkpt lat="40.0713749" lon="-105.229789">
  <ele>1583.0</ele>
  <time>2026-09-02T20:51:01Z</time>
  <course>0.0</course>
  <speed>0.0</speed>
  <fix>3d</fix>
</trkpt>
<trkpt lat="40.0713749" lon="-105.229789">
  <ele>1583.0</ele>
  <time>2026-09-02T20:51:01Z</time>
  <course>0.0</course>
  <speed>0.0</speed>
  <fix>3d</fix>
</trkpt>
<trkpt lat="40.0713749" lon="-105.229789">
  <ele>1583.0</ele>
  <time>2026-09-02T20:51:01Z</time>
  <course>0.0</course>
  <speed>0.0</speed>
  <fix>3d</fix>
</trkpt>
<trkpt lat="40.0713749" lon="-105.229789">
  <ele>1583.0</ele>
  <time>2026-09-02T20:51:01Z</time>
  <course>0.0</course>
  <speed>0.0</speed>
  <fix>3d</fix>
</trkpt>
<trkpt lat="40.0713749" lon="-105.229789">
  <ele>1583.0</ele>
  <time>2026-09-02T20:51:01Z</time>
  <course>0.0</course>
  <speed>0.0</speed>
  <fix>3d</fix>
</trkpt>
<trkpt lat="40.0713749" lon="-105.229789">
  <ele>1583.0</ele>
  <time>2026-09-02T20:51:01Z</time>
  <course>0.0</course>
  <speed>0.0</speed>
  <fix>3d</fix>
</trkpt>
<trkpt lat="40.0713749" lon="-105.229789">
  <ele>1583.0</ele>
  <time>2026-09-02T20:51:01Z</time>
  <course>0.0</course>
  <speed>0.0</speed>
  <fix>3d</fix>
</trkpt>
<trkpt lat="40.0713749" lon="-105.229789">
  <ele>1583.0</ele>
  <time>2026-09-02T20:51:01Z</time>
  <course>0.0</course>
  <speed>0.0</speed>
  <fix>3d</fix>
</trkpt>
<trkpt lat="40.0713749" lon="-105.229789">
  <ele>1583.0</ele>
  <time>2026-09-02T20:51:01Z</time>
  <course>0.0</course>
  <speed>0.0</speed>
  <fix>3d</fix>
</trkpt>
<trkpt lat="40.0713749" lon="-105.229789">
  <ele>1583.0</ele>
  <time>2026-09-02T20:51:01Z</time>
  <course>0.0</course>
  <speed>0.0</speed>
  <fix>3d</fix>
</trkpt>
<trkpt lat="40.0713749" lon="-105.229789">
  <ele>1583.0</ele>
  <time>2026-09-02T20:51:01Z</time>
  <course>0.0</course>
  <speed>0.0</speed>
  <fix>3d</fix>
</trkpt>
<trkpt lat="40.0713749" lon="-105.229789">
  <ele>1583.0</ele>
  <time>2026-09-02T20:51:02Z</time>
  <course>0.0</course>
  <speed>0.0</speed>
  <fix>3d</fix>
</trkpt>
<trkpt lat="40.0713749" lon="-105.229789">
  <ele>1583.0</ele>
  <time>2026-09-02T20:51:02Z</time>
  <course>0.0</course>
  <speed>0.0</speed>
  <fix>3d</fix>
</trkpt>
<trkpt lat="40.0713749" lon="-105.229789">
  <ele>1583.0</ele>
  <time>2026-09-02T20:51:02Z</time>
  <course>0.0</course>
  <speed>0.0</speed>
  <fix>3d</fix>
</trkpt>
<trkpt lat="39.655741" lon="-104.1383097">
  <ele>1566.58</ele>
  <time>2026-09-02T20:51:02Z</time>
  <course>0.0</course>
  <speed>0.0</speed>
  <fix>3d</fix>
</trkpt>
<trkpt lat="40.0713749" lon="-105.229789">
  <ele>1583.0</ele>
  <time>2026-09-02T20:51:02Z</time>
  <course>0.0</course>
  <speed>0.0</speed>
  <fix>3d</fix>
</trkpt>
<trkpt lat="40.0713749" lon="-105.229789">
  <ele>1583.0</ele>
  <time>2026-09-02T20:51:02Z</time>
  <course>0.0</course>
  <speed>0.0</speed>
  <fix>3d</fix>
</trkpt>
<trkpt lat="40.0713749" lon="-105.229789">
  <ele>1583.0</ele>
  <time>2026-09-02T20:51:02Z</time>
  <course>0.0</course>
  <speed>0.0</speed>
  <fix>3d</fix>
</trkpt>
<trkpt lat="40.0713749" lon="-105.229789">
  <ele>1583.0</ele>
  <time>2026-09-02T20:51:02Z</time>
  <course>0.0</course>
  <speed>0.0</speed>
  <fix>3d</fix>
</trkpt>
<trkpt lat="40.0713749" lon="-105.229789">
  <ele>1583.0</ele>
  <time>2026-09-02T20:51:02Z</time>
  <course>0.0</course>
  <speed>0.0</speed>
  <fix>3d</fix>
</trkpt>
<trkpt lat="40.0713749" lon="-105.229789">
  <ele>1583.0</ele>
  <time>2026-09-02T20:51:02Z</time>
  <course>0.0</course>
  <speed>0.0</speed>
  <fix>3d</fix>
</trkpt>
<trkpt lat="40.0713749" lon="-105.229789">
  <ele>1583.0</ele>
  <time>2026-09-02T20:51:02Z</time>
  <course>0.0</course>
  <speed>0.0</speed>
  <fix>3d</fix>
</trkpt>
<trkpt lat="40.0713749" lon="-105.229789">
  <ele>1583.0</ele>
  <time>2026-09-02T20:51:02Z</time>
  <course>0.0</course>
  <speed>0.0</speed>
  <fix>3d</fix>
</trkpt>
<trkpt lat="40.0713749" lon="-105.229789">
  <ele>1583.0</ele>
  <time>2026-09-02T20:51:02Z</time>
  <course>0.0</course>
  <speed>0.0</speed>
  <fix>3d</fix>
</trkpt>
<trkpt lat="40.0713749" lon="-105.229789">
  <ele>1583.0</ele>
  <time>2026-09-02T20:51:02Z</time>
  <course>0.0</course>
  <speed>0.0</speed>
  <fix>3d</fix>
</trkpt>
<trkpt lat="40.0713749" lon="-105.229789">
  <ele>1583.0</ele>
  <time>2026-09-02T20:51:02Z</time>
  <course>0.0</course>
  <speed>0.0</speed>
  <fix>3d</fix>
</trkpt>
<trkpt lat="40.0713749" lon="-105.229789">
  <ele>1583.0</ele>
  <time>2026-09-02T20:51:02Z</time>
  <course>0.0</course>
  <speed>0.0</speed>
  <fix>3d</fix>
</trkpt>
<trkpt lat="40.0713749" lon="-105.229789">
  <ele>1583.0</ele>
  <time>2026-09-02T20:51:02Z</time>
  <course>0.0</course>
  <speed>0.0</speed>
  <fix>3d</fix>
</trkpt>
<trkpt lat="40.0713749" lon="-105.229789">
  <ele>1583.0</ele>
  <time>2026-09-02T20:51:02Z</time>
  <course>0.0</course>
  <speed>0.0</speed>
  <fix>3d</fix>
</trkpt>
<trkpt lat="40.0713749" lon="-105.229789">
  <ele>1583.0</ele>
  <time>2026-09-02T20:51:03Z</time>
  <course>0.0</course>
  <speed>0.0</speed>
  <fix>3d</fix>
</trkpt>
<trkpt lat="40.0713749" lon="-105.229789">
  <ele>1583.0</ele>
  <time>2026-09-02T20:51:03Z</time>
  <course>0.0</course>
  <speed>0.0</speed>
  <fix>3d</fix>
</trkpt>
<trkpt lat="40.0713749" lon="-105.229789">
  <ele>1583.0</ele>
  <time>2026-09-02T20:51:03Z</time>
  <course>0.0</course>
  <speed>0.0</speed>
  <fix>3d</fix>
</trkpt>
<trkpt lat="40.0713749" lon="-105.229789">
  <ele>1583.0</ele>
  <time>2026-09-02T20:51:03Z</time>
  <course>0.0</course>
  <speed>0.0</speed>
  <fix>3d</fix>
</trkpt>
<trkpt lat="40.0713749" lon="-105.229789">
  <ele>1583.0</ele>
  <time>2026-09-02T20:51:03Z</time>
  <course>0.0</course>
  <speed>0.0</speed>
  <fix>3d</fix>
</trkpt>
<trkpt lat="40.0713749" lon="-105.229789">
  <ele>1583.0</ele>
  <time>2026-09-02T20:51:03Z</time>
  <course>0.0</course>
  <speed>0.0</speed>
  <fix>3d</fix>
</trkpt>
<trkpt lat="40.0713749" lon="-105.229789">
  <ele>1583.0</ele>
  <time>2026-09-02T20:51:03Z</time>
  <course>0.0</course>
  <speed>0.0</speed>
  <fix>3d</fix>
</trkpt>
<trkpt lat="40.0713749" lon="-105.229789">
  <ele>1583.0</ele>
  <time>2026-09-02T20:51:03Z</time>
  <course>0.0</course>
  <speed>0.0</speed>
  <fix>3d</fix>
</trkpt>
<trkpt lat="40.0713749" lon="-105.229789">
  <ele>1583.0</ele>
  <time>2026-09-02T20:51:03Z</time>
  <course>0.0</course>
  <speed>0.0</speed>
  <fix>3d</fix>
</trkpt>
<trkpt lat="40.0713749" lon="-105.229789">
  <ele>1583.0</ele>
  <time>2026-09-02T20:51:03Z</time>
  <course>0.0</course>
  <speed>0.0</speed>
  <fix>3d</fix>
</trkpt>
<trkpt lat="40.0713749" lon="-105.229789">
  <ele>1583.0</ele>
  <time>2026-09-02T20:51:03Z</time>
  <course>0.0</course>
  <speed>0.0</speed>
  <fix>3d</fix>
</trkpt>
<trkpt lat="40.0713749" lon="-105.229789">
  <ele>1583.0</ele>
  <time>2026-09-02T20:51:03Z</time>
  <course>0.0</course>
  <speed>0.0</speed>
  <fix>3d</fix>
</trkpt>
<trkpt lat="40.0713749" lon="-105.229789">
  <ele>1583.0</ele>
  <time>2026-09-02T20:51:03Z</time>
  <course>0.0</course>
  <speed>0.0</speed>
  <fix>3d</fix>
</trkpt>
<trkpt lat="40.0713749" lon="-105.229789">
  <ele>1583.0</ele>
  <time>2026-09-02T20:51:03Z</time>
  <course>0.0</course>
  <speed>0.0</speed>
  <fix>3d</fix>
</trkpt>
<trkpt lat="40.0713749" lon="-105.229789">
  <ele>1583.0</ele>
  <time>2026-09-02T20:51:03Z</time>
  <course>0.0</course>
  <speed>0.0</speed>
  <fix>3d</fix>
</trkpt>
<trkpt lat="40.0713749" lon="-105.229789">
  <ele>1583.0</ele>
  <time>2026-09-02T20:51:03Z</time>
  <course>0.0</course>
  <speed>0.0</speed>
  <fix>3d</fix>
</trkpt>
<trkpt lat="40.0713749" lon="-105.229789">
  <ele>1583.0</ele>
  <time>2026-09-02T20:51:03Z</time>
  <course>0.0</course>
  <speed>0.0</speed>
  <fix>3d</fix>
</trkpt>
<trkpt lat="40.0713749" lon="-105.229789">
  <ele>1583.0</ele>
  <time>2026-09-02T20:51:03Z</time>
  <course>0.0</course>
  <speed>0.0</speed>
  <fix>3d</fix>
</trkpt>
<trkpt lat="40.0713749" lon="-105.229789">
  <ele>1583.0</ele>
  <time>2026-09-02T20:51:03Z</time>
  <course>0.0</course>
  <speed>0.0</speed>
  <fix>3d</fix>
</trkpt>
<trkpt lat="40.0713749" lon="-105.229789">
  <ele>1583.0</ele>
  <time>2026-09-02T20:51:03Z</time>
  <course>0.0</course>
  <speed>0.0</speed>
  <fix>3d</fix>
</trkpt>
<trkpt lat="40.0713749" lon="-105.229789">
  <ele>1583.0</ele>
  <time>2026-09-02T20:51:04Z</time>
  <course>0.0</course>
  <speed>0.0</speed>
  <fix>3d</fix>
</trkpt>
<trkpt lat="40.0713749" lon="-105.229789">
  <ele>1583.0</ele>
  <time>2026-09-02T20:51:04Z</time>
  <course>0.0</course>
  <speed>0.0</speed>
  <fix>3d</fix>
</trkpt>
<trkpt lat="40.0713749" lon="-105.229789">
  <ele>1583.0</ele>
  <time>2026-09-02T20:51:04Z</time>
  <course>0.0</course>
  <speed>0.0</speed>
  <fix>3d</fix>
</trkpt>
<trkpt lat="40.0713749" lon="-105.229789">
  <ele>1583.0</ele>
  <time>2026-09-02T20:51:04Z</time>
  <course>0.0</course>
  <speed>0.0</speed>
  <fix>3d</fix>
</trkpt>
<trkpt lat="40.0713749" lon="-105.229789">
  <ele>1583.0</ele>
  <time>2026-09-02T20:51:04Z</time>
  <course>0.0</course>
  <speed>0.0</speed>
  <fix>3d</fix>
</trkpt>
<trkpt lat="40.0713749" lon="-105.229789">
  <ele>1583.0</ele>
  <time>2026-09-02T20:51:04Z</time>
  <course>0.0</course>
  <speed>0.0</speed>
  <fix>3d</fix>
</trkpt>
<trkpt lat="40.0713749" lon="-105.229789">
  <ele>1583.0</ele>
  <time>2026-09-02T20:51:04Z</time>
  <course>0.0</course>
  <speed>0.0</speed>
  <fix>3d</fix>
</trkpt>
<trkpt lat="40.0713749" lon="-105.229789">
  <ele>1583.0</ele>
  <time>2026-09-02T20:51:04Z</time>
  <course>0.0</course>
  <speed>0.0</speed>
  <fix>3d</fix>
</trkpt>
<trkpt lat="40.0713749" lon="-105.229789">
  <ele>1583.0</ele>
  <time>2026-09-02T20:51:04Z</time>
  <course>0.0</course>
  <speed>0.0</speed>
  <fix>3d</fix>
</trkpt>
<trkpt lat="40.0713749" lon="-105.229789">
  <ele>1583.0</ele>
  <time>2026-09-02T20:51:04Z</time>
  <course>0.0</course>
  <speed>0.0</speed>
  <fix>3d</fix>
</trkpt>
<trkpt lat="40.0713749" lon="-105.229789">
  <ele>1583.0</ele>
  <time>2026-09-02T20:51:04Z</time>
  <course>0.0</course>
  <speed>0.0</speed>
  <fix>3d</fix>
</trkpt>
<trkpt lat="40.0713749" lon="-105.229789">
  <ele>1583.0</ele>
  <time>2026-09-02T20:51:04Z</time>
  <course>0.0</course>
  <speed>0.0</speed>
  <fix>3d</fix>
</trkpt>
<trkpt lat="40.0713749" lon="-105.229789">
  <ele>1583.0</ele>
  <time>2026-09-02T20:51:04Z</time>
  <course>0.0</course>
  <speed>0.0</speed>
  <fix>3d</fix>
</trkpt>
<trkpt lat="40.0713749" lon="-105.229789">
  <ele>1583.0</ele>
  <time>2026-09-02T20:51:04Z</time>
  <course>0.0</course>
  <speed>0.0</speed>
  <fix>3d</fix>
</trkpt>
<trkpt lat="40.0713749" lon="-105.229789">
  <ele>1583.0</ele>
  <time>2026-09-02T20:51:04Z</time>
  <course>0.0</course>
  <speed>0.0</speed>
  <fix>3d</fix>
</trkpt>
<trkpt lat="40.0713749" lon="-105.229789">
  <ele>1583.0</ele>
  <time>2026-09-02T20:51:04Z</time>
  <course>0.0</course>
  <speed>0.0</speed>
  <fix>3d</fix>
</trkpt>
<trkpt lat="40.0713749" lon="-105.229789">
  <ele>1583.0</ele>
  <time>2026-09-02T20:51:04Z</time>
  <course>0.0</course>
  <speed>0.0</speed>
  <fix>3d</fix>
</trkpt>
<trkpt lat="40.0713749" lon="-105.229789">
  <ele>1583.0</ele>
  <time>2026-09-02T20:51:04Z</time>
  <course>0.0</course>
  <speed>0.0</speed>
  <fix>3d</fix>
</trkpt>
<trkpt lat="40.0713749" lon="-105.229789">
  <ele>1583.0</ele>
  <time>2026-09-02T20:51:04Z</time>
  <course>0.0</course>
  <speed>0.0</speed>
  <fix>3d</fix>
</trkpt>
<trkpt lat="40.0713749" lon="-105.229789">
  <ele>1583.0</ele>
  <time>2026-09-02T20:51:04Z</time>
  <course>0.0</course>
  <speed>0.0</speed>
  <fix>3d</fix>
</trkpt>
<trkpt lat="40.0713749" lon="-105.229789">
  <ele>1583.0</ele>
  <time>2026-09-02T20:51:04Z</time>
  <course>0.0</course>
  <speed>0.0</speed>
  <fix>3d</fix>
</trkpt>
<trkpt lat="40.0713749" lon="-105.229789">
  <ele>1583.0</ele>
  <time>2026-09-02T20:51:04Z</time>
  <course>0.0</course>
  <speed>0.0</speed>
  <fix>3d</fix>
</trkpt>
<trkpt lat="40.0713749" lon="-105.229789">
  <ele>1583.0</ele>
  <time>2026-09-02T20:51:04Z</time>
  <course>0.0</course>
  <speed>0.0</speed>
  <fix>3d</fix>
</trkpt>
<trkpt lat="40.0713749" lon="-105.229789">
  <ele>1583.0</ele>
  <time>2026-09-02T20:51:04Z</time>
  <course>0.0</course>
  <speed>0.0</speed>
  <fix>3d</fix>
</trkpt>
<trkpt lat="40.0713749" lon="-105.229789">
  <ele>1583.0</ele>
  <time>2026-09-02T20:51:04Z</time>
  <course>0.0</course>
  <speed>0.0</speed>
  <fix>3d</fix>
</trkpt>
<trkpt lat="40.0713749" lon="-105.229789">
  <ele>1583.0</ele>
  <time>2026-09-02T20:51:04Z</time>
  <course>0.0</course>
  <speed>0.0</speed>
  <fix>3d</fix>
</trkpt>
<trkpt lat="40.0713749" lon="-105.229789">
  <ele>1583.0</ele>
  <time>2026-09-02T20:51:04Z</time>
  <course>0.0</course>
  <speed>0.0</speed>
  <fix>3d</fix>
</trkpt>
<trkpt lat="40.0713749" lon="-105.229789">
  <ele>1583.0</ele>
  <time>2026-09-02T20:51:04Z</time>
  <course>0.0</course>
  <speed>0.0</speed>
  <fix>3d</fix>
</trkpt>
<trkpt lat="40.0713749" lon="-105.229789">
  <ele>1583.0</ele>
  <time>2026-09-02T20:51:04Z</time>
  <course>0.0</course>
  <speed>0.0</speed>
  <fix>3d</fix>
</trkpt>
<trkpt lat="40.0713749" lon="-105.229789">
  <ele>1583.0</ele>
  <time>2026-09-02T20:51:04Z</time>
  <course>0.0</course>
  <speed>0.0</speed>
  <fix>3d</fix>
</trkpt>
<trkpt lat="40.0713749" lon="-105.229789">
  <ele>1583.0</ele>
  <time>2026-09-02T20:51:04Z</time>
  <course>0.0</course>
  <speed>0.0</speed>
  <fix>3d</fix>
</trkpt>
<trkpt lat="40.0713749" lon="-105.229789">
  <ele>1583.0</ele>
  <time>2026-09-02T20:51:04Z</time>
  <course>0.0</course>
  <speed>0.0</speed>
  <fix>3d</fix>
</trkpt>
<trkpt lat="40.0713749" lon="-105.229789">
  <ele>1583.0</ele>
  <time>2026-09-02T20:51:04Z</time>
  <course>0.0</course>
  <speed>0.0</speed>
  <fix>3d</fix>
</trkpt>
<trkpt lat="40.0713749" lon="-105.229789">
  <ele>1583.0</ele>
  <time>2026-09-02T20:51:04Z</time>
  <course>0.0</course>
  <speed>0.0</speed>
  <fix>3d</fix>
</trkpt>
<trkpt lat="40.0713749" lon="-105.229789">
  <ele>1583.0</ele>
  <time>2026-09-02T20:51:04Z</time>
  <course>0.0</course>
  <speed>0.0</speed>
  <fix>3d</fix>
</trkpt>
<trkpt lat="40.0713749" lon="-105.229789">
  <ele>1583.0</ele>
  <time>2026-09-02T20:51:04Z</time>
  <course>0.0</course>
  <speed>0.0</speed>
  <fix>3d</fix>
</trkpt>
<trkpt lat="40.0713749" lon="-105.229789">
  <ele>1583.0</ele>
  <time>2026-09-02T20:51:04Z</time>
  <course>0.0</course>
  <speed>0.0</speed>
  <fix>3d</fix>
</trkpt>
<trkpt lat="40.0713749" lon="-105.229789">
  <ele>1583.0</ele>
  <time>2026-09-02T20:51:04Z</time>
  <course>0.0</course>
  <speed>0.0</speed>
  <fix>3d</fix>
</trkpt>
<trkpt lat="40.0713749" lon="-105.229789">
  <ele>1583.0</ele>
  <time>2026-09-02T20:51:04Z</time>
  <course>0.0</course>
  <speed>0.0</speed>
  <fix>3d</fix>
</trkpt>
<trkpt lat="40.0713749" lon="-105.229789">
  <ele>1583.0</ele>
  <time>2026-09-02T20:51:04Z</time>
  <course>0.0</course>
  <speed>0.0</speed>
  <fix>3d</fix>
</trkpt>
<trkpt lat="40.0713749" lon="-105.229789">
  <ele>1583.0</ele>
  <time>2026-09-02T20:51:04Z</time>
  <course>0.0</course>
  <speed>0.0</speed>
  <fix>3d</fix>
</trkpt>
<trkpt lat="40.0713749" lon="-105.229789">
  <ele>1583.0</ele>
  <time>2026-09-02T20:51:04Z</time>
  <course>0.0</course>
  <speed>0.0</speed>
  <fix>3d</fix>
</trkpt>
<trkpt lat="40.0713749" lon="-105.229789">
  <ele>1583.0</ele>
  <time>2026-09-02T20:51:04Z</time>
  <course>0.0</course>
  <speed>0.0</speed>
  <fix>3d</fix>
</trkpt>
<trkpt lat="40.0713749" lon="-105.229789">
  <ele>1583.0</ele>
  <time>2026-09-02T20:51:04Z</time>
  <course>0.0</course>
  <speed>0.0</speed>
  <fix>3d</fix>
</trkpt>
<trkpt lat="40.0713749" lon="-105.229789">
  <ele>1583.0</ele>
  <time>2026-09-02T20:51:04Z</time>
  <course>0.0</course>
  <speed>0.0</speed>
  <fix>3d</fix>
</trkpt>
<trkpt lat="40.0713749" lon="-105.229789">
  <ele>1583.0</ele>
  <time>2026-09-02T20:51:04Z</time>
  <course>0.0</course>
  <speed>0.0</speed>
  <fix>3d</fix>
</trkpt>
<trkpt lat="40.0713749" lon="-105.229789">
  <ele>1583.0</ele>
  <time>2026-09-02T20:51:04Z</time>
  <course>0.0</course>
  <speed>0.0</speed>
  <fix>3d</fix>
</trkpt>
<trkpt lat="40.0713749" lon="-105.229789">
  <ele>1583.0</ele>
  <time>2026-09-02T20:51:04Z</time>
  <course>0.0</course>
  <speed>0.0</speed>
  <fix>3d</fix>
</trkpt>
<trkpt lat="40.0713749" lon="-105.229789">
  <ele>1583.0</ele>
  <time>2026-09-02T20:51:04Z</time>
  <course>0.0</course>
  <speed>0.0</speed>
  <fix>3d</fix>
</trkpt>
<trkpt lat="40.0713749" lon="-105.229789">
  <ele>1583.0</ele>
  <time>2026-09-02T20:51:04Z</time>
  <course>0.0</course>
  <speed>0.0</speed>
  <fix>3d</fix>
</trkpt>
<trkpt lat="40.0713749" lon="-105.229789">
  <ele>1583.0</ele>
  <time>2026-09-02T20:51:04Z</time>
  <course>0.0</course>
  <speed>0.0</speed>
  <fix>3d</fix>
</trkpt>
<trkpt lat="40.0713749" lon="-105.229789">
  <ele>1583.0</ele>
  <time>2026-09-02T20:51:04Z</time>
  <course>0.0</course>
  <speed>0.0</speed>
  <fix>3d</fix>
</trkpt>
<trkpt lat="40.0713749" lon="-105.229789">
  <ele>1583.0</ele>
  <time>2026-09-02T20:51:04Z</time>
  <course>0.0</course>
  <speed>0.0</speed>
  <fix>3d</fix>
</trkpt>
<trkpt lat="40.0713749" lon="-105.229789">
  <ele>1583.0</ele>
  <time>2026-09-02T20:51:04Z</time>
  <course>0.0</course>
  <speed>0.0</speed>
  <fix>3d</fix>
</trkpt>
<trkpt lat="40.0713749" lon="-105.229789">
  <ele>1583.0</ele>
  <time>2026-09-02T20:51:04Z</time>
  <course>0.0</course>
  <speed>0.0</speed>
  <fix>3d</fix>
</trkpt>
<trkpt lat="40.0713749" lon="-105.229789">
  <ele>1583.0</ele>
  <time>2026-09-02T20:51:04Z</time>
  <course>0.0</course>
  <speed>0.0</speed>
  <fix>3d</fix>
</trkpt>
<trkpt lat="40.0713749" lon="-105.229789">
  <ele>1583.0</ele>
  <time>2026-09-02T20:51:04Z</time>
  <course>0.0</course>
  <speed>0.0</speed>
  <fix>3d</fix>
</trkpt>
<trkpt lat="40.0713749" lon="-105.229789">
  <ele>1583.0</ele>
  <time>2026-09-02T20:51:04Z</time>
  <course>0.0</course>
  <speed>0.0</speed>
  <fix>3d</fix>
</trkpt>
<trkpt lat="40.0713749" lon="-105.229789">
  <ele>1583.0</ele>
  <time>2026-09-02T20:51:04Z</time>
  <course>0.0</course>
  <speed>0.0</speed>
  <fix>3d</fix>
</trkpt>
<trkpt lat="40.0713749" lon="-105.229789">
  <ele>1583.0</ele>
  <time>2026-09-02T20:51:04Z</time>
  <course>0.0</course>
  <speed>0.0</speed>
  <fix>3d</fix>
</trkpt>
<trkpt lat="40.0713749" lon="-105.229789">
  <ele>1583.0</ele>
  <time>2026-09-02T20:51:04Z</time>
  <course>0.0</course>
  <speed>0.0</speed>
  <fix>3d</fix>
</trkpt>
<trkpt lat="40.0713749" lon="-105.229789">
  <ele>1583.0</ele>
  <time>2026-09-02T20:51:04Z</time>
  <course>0.0</course>
  <speed>0.0</speed>
  <fix>3d</fix>
</trkpt>
<trkpt lat="40.0713749" lon="-105.229789">
  <ele>1583.0</ele>
  <time>2026-09-02T20:51:04Z</time>
  <course>0.0</course>
  <speed>0.0</speed>
  <fix>3d</fix>
</trkpt>
<trkpt lat="40.0713749" lon="-105.229789">
  <ele>1583.0</ele>
  <time>2026-09-02T20:51:04Z</time>
  <course>0.0</course>
  <speed>0.0</speed>
  <fix>3d</fix>
</trkpt>
<trkpt lat="40.0713749" lon="-105.229789">
  <ele>1583.0</ele>
  <time>2026-09-02T20:51:04Z</time>
  <course>0.0</course>
  <speed>0.0</speed>
  <fix>3d</fix>
</trkpt>
<trkpt lat="40.0713749" lon="-105.229789">
  <ele>1583.0</ele>
  <time>2026-09-02T20:51:04Z</time>
  <course>0.0</course>
  <speed>0.0</speed>
  <fix>3d</fix>
</trkpt>
<trkpt lat="40.0713749" lon="-105.229789">
  <ele>1583.0</ele>
  <time>2026-09-02T20:51:04Z</time>
  <course>0.0</course>
  <speed>0.0</speed>
  <fix>3d</fix>
</trkpt>
<trkpt lat="40.0713749" lon="-105.229789">
  <ele>1583.0</ele>
  <time>2026-09-02T20:51:04Z</time>
  <course>0.0</course>
  <speed>0.0</speed>
  <fix>3d</fix>
</trkpt>
<trkpt lat="39.655741" lon="-104.1383097">
  <ele>1566.58</ele>
  <time>2026-09-02T20:51:04Z</time>
  <course>0.0</course>
  <speed>0.0</speed>
  <fix>3d</fix>
</trkpt>
<trkpt lat="40.0713749" lon="-105.229789">
  <ele>1583.0</ele>
  <time>2026-09-02T20:51:04Z</time>
  <course>0.0</course>
  <speed>0.0</speed>
  <fix>3d</fix>
</trkpt>
<trkpt lat="40.0713749" lon="-105.229789">
  <ele>1583.0</ele>
  <time>2026-09-02T20:51:04Z</time>
  <course>0.0</course>
  <speed>0.0</speed>
  <fix>3d</fix>
</trkpt>
<trkpt lat="40.0713749" lon="-105.229789">
  <ele>1583.0</ele>
  <time>2026-09-02T20:51:04Z</time>
  <course>0.0</course>
  <speed>0.0</speed>
  <fix>3d</fix>
</trkpt>
<trkpt lat="40.0713749" lon="-105.229789">
  <ele>1583.0</ele>
  <time>2026-09-02T20:51:04Z</time>
  <course>0.0</course>
  <speed>0.0</speed>
  <fix>3d</fix>
</trkpt>
<trkpt lat="40.0713749" lon="-105.229789">
  <ele>1583.0</ele>
  <time>2026-09-02T20:51:04Z</time>
  <course>0.0</course>
  <speed>0.0</speed>
  <fix>3d</fix>
</trkpt>
<trkpt lat="40.0713749" lon="-105.229789">
  <ele>1583.0</ele>
  <time>2026-09-02T20:51:04Z</time>
  <course>0.0</course>
  <speed>0.0</speed>
  <fix>3d</fix>
</trkpt>
<trkpt lat="40.0713749" lon="-105.229789">
  <ele>1583.0</ele>
  <time>2026-09-02T20:51:04Z</time>
  <course>0.0</course>
  <speed>0.0</speed>
  <fix>3d</fix>
</trkpt>
<trkpt lat="40.0713749" lon="-105.229789">
  <ele>1583.0</ele>
  <time>2026-09-02T20:51:04Z</time>
  <course>0.0</course>
  <speed>0.0</speed>
  <fix>3d</fix>
</trkpt>
<trkpt lat="40.0713749" lon="-105.229789">
  <ele>1583.0</ele>
  <time>2026-09-02T20:51:04Z</time>
  <course>0.0</course>
  <speed>0.0</speed>
  <fix>3d</fix>
</trkpt>
<trkpt lat="40.0713749" lon="-105.229789">
  <ele>1583.0</ele>
  <time>2026-09-02T20:51:04Z</time>
  <course>0.0</course>
  <speed>0.0</speed>
  <fix>3d</fix>
</trkpt>
<trkpt lat="40.0713749" lon="-105.229789">
  <ele>1583.0</ele>
  <time>2026-09-02T20:51:04Z</time>
  <course>0.0</course>
  <speed>0.0</speed>
  <fix>3d</fix>
</trkpt>
<trkpt lat="40.0713749" lon="-105.229789">
  <ele>1583.0</ele>
  <time>2026-09-02T20:51:04Z</time>
  <course>0.0</course>
  <speed>0.0</speed>
  <fix>3d</fix>
</trkpt>
<trkpt lat="40.0713749" lon="-105.229789">
  <ele>1583.0</ele>
  <time>2026-09-02T20:51:04Z</time>
  <course>0.0</course>
  <speed>0.0</speed>
  <fix>3d</fix>
</trkpt>
<trkpt lat="40.0713749" lon="-105.229789">
  <ele>1583.0</ele>
  <time>2026-09-02T20:51:04Z</time>
  <course>0.0</course>
  <speed>0.0</speed>
  <fix>3d</fix>
</trkpt>
<trkpt lat="40.0713749" lon="-105.229789">
  <ele>1583.0</ele>
  <time>2026-09-02T20:51:04Z</time>
  <course>0.0</course>
  <speed>0.0</speed>
  <fix>3d</fix>
</trkpt>
<trkpt lat="40.0713749" lon="-105.229789">
  <ele>1583.0</ele>
  <time>2026-09-02T20:51:04Z</time>
  <course>0.0</course>
  <speed>0.0</speed>
  <fix>3d</fix>
</trkpt>
<trkpt lat="40.0713749" lon="-105.229789">
  <ele>1583.0</ele>
  <time>2026-09-02T20:51:05Z</time>
  <course>0.0</course>
  <speed>0.0</speed>
  <fix>3d</fix>
</trkpt>
<trkpt lat="40.0713749" lon="-105.229789">
  <ele>1583.0</ele>
  <time>2026-09-02T20:51:05Z</time>
  <course>0.0</course>
  <speed>0.0</speed>
  <fix>3d</fix>
</trkpt>
<trkpt lat="40.0713749" lon="-105.229789">
  <ele>1583.0</ele>
  <time>2026-09-02T20:51:05Z</time>
  <course>0.0</course>
  <speed>0.0</speed>
  <fix>3d</fix>
</trkpt>
<trkpt lat="40.0713749" lon="-105.229789">
  <ele>1583.0</ele>
  <time>2026-09-02T20:51:05Z</time>
  <course>0.0</course>
  <speed>0.0</speed>
  <fix>3d</fix>
</trkpt>
<trkpt lat="40.0713749" lon="-105.229789">
  <ele>1583.0</ele>
  <time>2026-09-02T20:51:05Z</time>
  <course>0.0</course>
  <speed>0.0</speed>
  <fix>3d</fix>
</trkpt>
<trkpt lat="40.0713749" lon="-105.229789">
  <ele>1583.0</ele>
  <time>2026-09-02T20:51:05Z</time>
  <course>0.0</course>
  <speed>0.0</speed>
  <fix>3d</fix>
</trkpt>
<trkpt lat="40.0713749" lon="-105.229789">
  <ele>1583.0</ele>
  <time>2026-09-02T20:51:05Z</time>
  <course>0.0</course>
  <speed>0.0</speed>
  <fix>3d</fix>
</trkpt>
<trkpt lat="40.0713749" lon="-105.229789">
  <ele>1583.0</ele>
  <time>2026-09-02T20:51:05Z</time>
  <course>0.0</course>
  <speed>0.0</speed>
  <fix>3d</fix>
</trkpt>
<trkpt lat="40.0713749" lon="-105.229789">
  <ele>1583.0</ele>
  <time>2026-09-02T20:51:05Z</time>
  <course>0.0</course>
  <speed>0.0</speed>
  <fix>3d</fix>
</trkpt>
<trkpt lat="40.0713749" lon="-105.229789">
  <ele>1583.0</ele>
  <time>2026-09-02T20:51:05Z</time>
  <course>0.0</course>
  <speed>0.0</speed>
  <fix>3d</fix>
</trkpt>
<trkpt lat="40.0713749" lon="-105.229789">
  <ele>1583.0</ele>
  <time>2026-09-02T20:51:05Z</time>
  <course>0.0</course>
  <speed>0.0</speed>
  <fix>3d</fix>
</trkpt>
<trkpt lat="40.0713749" lon="-105.229789">
  <ele>1583.0</ele>
  <time>2026-09-02T20:51:05Z</time>
  <course>0.0</course>
  <speed>0.0</speed>
  <fix>3d</fix>
</trkpt>
<trkpt lat="40.0713749" lon="-105.229789">
  <ele>1583.0</ele>
  <time>2026-09-02T20:51:05Z</time>
  <course>0.0</course>
  <speed>0.0</speed>
  <fix>3d</fix>
</trkpt>
<trkpt lat="40.0713749" lon="-105.229789">
  <ele>1583.0</ele>
  <time>2026-09-02T20:51:05Z</time>
  <course>0.0</course>
  <speed>0.0</speed>
  <fix>3d</fix>
</trkpt>
<trkpt lat="40.0713749" lon="-105.229789">
  <ele>1583.0</ele>
  <time>2026-09-02T20:51:05Z</time>
  <course>0.0</course>
  <speed>0.0</speed>
  <fix>3d</fix>
</trkpt>
<trkpt lat="40.0713749" lon="-105.229789">
  <ele>1583.0</ele>
  <time>2026-09-02T20:51:05Z</time>
  <course>0.0</course>
  <speed>0.0</speed>
  <fix>3d</fix>
</trkpt>
<trkpt lat="40.0713749" lon="-105.229789">
  <ele>1583.0</ele>
  <time>2026-09-02T20:51:05Z</time>
  <course>0.0</course>
  <speed>0.0</speed>
  <fix>3d</fix>
</trkpt>
<trkpt lat="40.0713749" lon="-105.229789">
  <ele>1583.0</ele>
  <time>2026-09-02T20:51:05Z</time>
  <course>0.0</course>
  <speed>0.0</speed>
  <fix>3d</fix>
</trkpt>
<trkpt lat="40.0713749" lon="-105.229789">
  <ele>1583.0</ele>
  <time>2026-09-02T20:51:05Z</time>
  <course>0.0</course>
  <speed>0.0</speed>
  <fix>3d</fix>
</trkpt>
<trkpt lat="40.0713749" lon="-105.229789">
  <ele>1583.0</ele>
  <time>2026-09-02T20:51:05Z</time>
  <course>0.0</course>
  <speed>0.0</speed>
  <fix>3d</fix>
</trkpt>
<trkpt lat="40.0713749" lon="-105.229789">
  <ele>1583.0</ele>
  <time>2026-09-02T20:51:05Z</time>
  <course>0.0</course>
  <speed>0.0</speed>
  <fix>3d</fix>
</trkpt>
<trkpt lat="40.0713749" lon="-105.229789">
  <ele>1583.0</ele>
  <time>2026-09-02T20:51:05Z</time>
  <course>0.0</course>
  <speed>0.0</speed>
  <fix>3d</fix>
</trkpt>
<trkpt lat="40.0713749" lon="-105.229789">
  <ele>1583.0</ele>
  <time>2026-09-02T20:51:05Z</time>
  <course>0.0</course>
  <speed>0.0</speed>
  <fix>3d</fix>
</trkpt>
<trkpt lat="40.0713749" lon="-105.229789">
  <ele>1583.0</ele>
  <time>2026-09-02T20:51:05Z</time>
  <course>0.0</course>
  <speed>0.0</speed>
  <fix>3d</fix>
</trkpt>
<trkpt lat="40.0713749" lon="-105.229789">
  <ele>1583.0</ele>
  <time>2026-09-02T20:51:05Z</time>
  <course>0.0</course>
  <speed>0.0</speed>
  <fix>3d</fix>
</trkpt>
<trkpt lat="40.0713749" lon="-105.229789">
  <ele>1583.0</ele>
  <time>2026-09-02T20:51:05Z</time>
  <course>0.0</course>
  <speed>0.0</speed>
  <fix>3d</fix>
</trkpt>
<trkpt lat="39.655741" lon="-104.1383097">
  <ele>1566.58</ele>
  <time>2026-09-02T20:51:05Z</time>
  <course>0.0</course>
  <speed>0.0</speed>
  <fix>3d</fix>
</trkpt>
<trkpt lat="40.0713749" lon="-105.229789">
  <ele>1583.0</ele>
  <time>2026-09-02T20:51:05Z</time>
  <course>0.0</course>
  <speed>0.0</speed>
  <fix>3d</fix>
</trkpt>
<trkpt lat="40.0713749" lon="-105.229789">
  <ele>1583.0</ele>
  <time>2026-09-02T20:51:05Z</time>
  <course>0.0</course>
  <speed>0.0</speed>
  <fix>3d</fix>
</trkpt>
<trkpt lat="40.0713749" lon="-105.229789">
  <ele>1583.0</ele>
  <time>2026-09-02T20:51:06Z</time>
  <course>0.0</course>
  <speed>0.0</speed>
  <fix>3d</fix>
</trkpt>
<trkpt lat="40.0713749" lon="-105.229789">
  <ele>1583.0</ele>
  <time>2026-09-02T20:51:06Z</time>
  <course>0.0</course>
  <speed>0.0</speed>
  <fix>3d</fix>
</trkpt>
<trkpt lat="40.0713749" lon="-105.229789">
  <ele>1583.0</ele>
  <time>2026-09-02T20:51:06Z</time>
  <course>0.0</course>
  <speed>0.0</speed>
  <fix>3d</fix>
</trkpt>
<trkpt lat="40.0713749" lon="-105.229789">
  <ele>1583.0</ele>
  <time>2026-09-02T20:51:06Z</time>
  <course>0.0</course>
  <speed>0.0</speed>
  <fix>3d</fix>
</trkpt>
<trkpt lat="40.0713749" lon="-105.229789">
  <ele>1583.0</ele>
  <time>2026-09-02T20:51:06Z</time>
  <course>0.0</course>
  <speed>0.0</speed>
  <fix>3d</fix>
</trkpt>
<trkpt lat="40.0713749" lon="-105.229789">
  <ele>1583.0</ele>
  <time>2026-09-02T20:51:06Z</time>
  <course>0.0</course>
  <speed>0.0</speed>
  <fix>3d</fix>
</trkpt>
<trkpt lat="40.0713749" lon="-105.229789">
  <ele>1583.0</ele>
  <time>2026-09-02T20:51:06Z</time>
  <course>0.0</course>
  <speed>0.0</speed>
  <fix>3d</fix>
</trkpt>
<trkpt lat="40.0713749" lon="-105.229789">
  <ele>1583.0</ele>
  <time>2026-09-02T20:51:06Z</time>
  <course>0.0</course>
  <speed>0.0</speed>
  <fix>3d</fix>
</trkpt>
<trkpt lat="40.0713749" lon="-105.229789">
  <ele>1583.0</ele>
  <time>2026-09-02T20:51:06Z</time>
  <course>0.0</course>
  <speed>0.0</speed>
  <fix>3d</fix>
</trkpt>
<trkpt lat="40.0713749" lon="-105.229789">
  <ele>1583.0</ele>
  <time>2026-09-02T20:51:06Z</time>
  <course>0.0</course>
  <speed>0.0</speed>
  <fix>3d</fix>
</trkpt>
<trkpt lat="40.0713749" lon="-105.229789">
  <ele>1583.0</ele>
  <time>2026-09-02T20:51:06Z</time>
  <course>0.0</course>
  <speed>0.0</speed>
  <fix>3d</fix>
</trkpt>
<trkpt lat="40.0713749" lon="-105.229789">
  <ele>1583.0</ele>
  <time>2026-09-02T20:51:06Z</time>
  <course>0.0</course>
  <speed>0.0</speed>
  <fix>3d</fix>
</trkpt>
<trkpt lat="40.0713749" lon="-105.229789">
  <ele>1583.0</ele>
  <time>2026-09-02T20:51:06Z</time>
  <course>0.0</course>
  <speed>0.0</speed>
  <fix>3d</fix>
</trkpt>
<trkpt lat="40.0713749" lon="-105.229789">
  <ele>1583.0</ele>
  <time>2026-09-02T20:51:06Z</time>
  <course>0.0</course>
  <speed>0.0</speed>
  <fix>3d</fix>
</trkpt>
<trkpt lat="40.0713749" lon="-105.229789">
  <ele>1583.0</ele>
  <time>2026-09-02T20:51:06Z</time>
  <course>0.0</course>
  <speed>0.0</speed>
  <fix>3d</fix>
</trkpt>
<trkpt lat="40.0713749" lon="-105.229789">
  <ele>1583.0</ele>
  <time>2026-09-02T20:51:06Z</time>
  <course>0.0</course>
  <speed>0.0</speed>
  <fix>3d</fix>
</trkpt>
<trkpt lat="40.0713749" lon="-105.229789">
  <ele>1583.0</ele>
  <time>2026-09-02T20:51:06Z</time>
  <course>0.0</course>
  <speed>0.0</speed>
  <fix>3d</fix>
</trkpt>
<trkpt lat="40.0713749" lon="-105.229789">
  <ele>1583.0</ele>
  <time>2026-09-02T20:51:06Z</time>
  <course>0.0</course>
  <speed>0.0</speed>
  <fix>3d</fix>
</trkpt>
<trkpt lat="40.0713749" lon="-105.229789">
  <ele>1583.0</ele>
  <time>2026-09-02T20:51:06Z</time>
  <course>0.0</course>
  <speed>0.0</speed>
  <fix>3d</fix>
</trkpt>
<trkpt lat="40.0713749" lon="-105.229789">
  <ele>1583.0</ele>
  <time>2026-09-02T20:51:06Z</time>
  <course>0.0</course>
  <speed>0.0</speed>
  <fix>3d</fix>
</trkpt>
<trkpt lat="40.0713749" lon="-105.229789">
  <ele>1583.0</ele>
  <time>2026-09-02T20:51:07Z</time>
  <course>0.0</course>
  <speed>0.0</speed>
  <fix>3d</fix>
</trkpt>
<trkpt lat="40.0713749" lon="-105.229789">
  <ele>1583.0</ele>
  <time>2026-09-02T20:51:07Z</time>
  <course>0.0</course>
  <speed>0.0</speed>
  <fix>3d</fix>
</trkpt>
<trkpt lat="40.0713749" lon="-105.229789">
  <ele>1583.0</ele>
  <time>2026-09-02T20:51:07Z</time>
  <course>0.0</course>
  <speed>0.0</speed>
  <fix>3d</fix>
</trkpt>
<trkpt lat="40.0713749" lon="-105.229789">
  <ele>1583.0</ele>
  <time>2026-09-02T20:51:07Z</time>
  <course>0.0</course>
  <speed>0.0</speed>
  <fix>3d</fix>
</trkpt>
<trkpt lat="40.0713749" lon="-105.229789">
  <ele>1583.0</ele>
  <time>2026-09-02T20:51:07Z</time>
  <course>0.0</course>
  <speed>0.0</speed>
  <fix>3d</fix>
</trkpt>
<trkpt lat="40.0713749" lon="-105.229789">
  <ele>1583.0</ele>
  <time>2026-09-02T20:51:07Z</time>
  <course>0.0</course>
  <speed>0.0</speed>
  <fix>3d</fix>
</trkpt>
<trkpt lat="40.0713749" lon="-105.229789">
  <ele>1583.0</ele>
  <time>2026-09-02T20:51:07Z</time>
  <course>0.0</course>
  <speed>0.0</speed>
  <fix>3d</fix>
</trkpt>
<trkpt lat="40.0713749" lon="-105.229789">
  <ele>1583.0</ele>
  <time>2026-09-02T20:51:07Z</time>
  <course>0.0</course>
  <speed>0.0</speed>
  <fix>3d</fix>
</trkpt>
<trkpt lat="40.0713749" lon="-105.229789">
  <ele>1583.0</ele>
  <time>2026-09-02T20:51:07Z</time>
  <course>0.0</course>
  <speed>0.0</speed>
  <fix>3d</fix>
</trkpt>
<trkpt lat="40.0713749" lon="-105.229789">
  <ele>1583.0</ele>
  <time>2026-09-02T20:51:07Z</time>
  <course>0.0</course>
  <speed>0.0</speed>
  <fix>3d</fix>
</trkpt>
<trkpt lat="40.0713749" lon="-105.229789">
  <ele>1583.0</ele>
  <time>2026-09-02T20:51:07Z</time>
  <course>0.0</course>
  <speed>0.0</speed>
  <fix>3d</fix>
</trkpt>
<trkpt lat="40.0713749" lon="-105.229789">
  <ele>1583.0</ele>
  <time>2026-09-02T20:51:07Z</time>
  <course>0.0</course>
  <speed>0.0</speed>
  <fix>3d</fix>
</trkpt>
<trkpt lat="40.0713749" lon="-105.229789">
  <ele>1583.0</ele>
  <time>2026-09-02T20:51:07Z</time>
  <course>0.0</course>
  <speed>0.0</speed>
  <fix>3d</fix>
</trkpt>
<trkpt lat="40.0713749" lon="-105.229789">
  <ele>1583.0</ele>
  <time>2026-09-02T20:51:07Z</time>
  <course>0.0</course>
  <speed>0.0</speed>
  <fix>3d</fix>
</trkpt>
<trkpt lat="40.0713749" lon="-105.229789">
  <ele>1583.0</ele>
  <time>2026-09-02T20:51:07Z</time>
  <course>0.0</course>
  <speed>0.0</speed>
  <fix>3d</fix>
</trkpt>
<trkpt lat="40.0713749" lon="-105.229789">
  <ele>1583.0</ele>
  <time>2026-09-02T20:51:07Z</time>
  <course>0.0</course>
  <speed>0.0</speed>
  <fix>3d</fix>
</trkpt>
<trkpt lat="40.0713749" lon="-105.229789">
  <ele>1583.0</ele>
  <time>2026-09-02T20:51:07Z</time>
  <course>0.0</course>
  <speed>0.0</speed>
  <fix>3d</fix>
</trkpt>
<trkpt lat="40.0713749" lon="-105.229789">
  <ele>1583.0</ele>
  <time>2026-09-02T20:51:07Z</time>
  <course>0.0</course>
  <speed>0.0</speed>
  <fix>3d</fix>
</trkpt>
<trkpt lat="40.0713749" lon="-105.229789">
  <ele>1583.0</ele>
  <time>2026-09-02T20:51:07Z</time>
  <course>0.0</course>
  <speed>0.0</speed>
  <fix>3d</fix>
</trkpt>
<trkpt lat="40.0713749" lon="-105.229789">
  <ele>1583.0</ele>
  <time>2026-09-02T20:51:07Z</time>
  <course>0.0</course>
  <speed>0.0</speed>
  <fix>3d</fix>
</trkpt>
<trkpt lat="40.0713749" lon="-105.229789">
  <ele>1583.0</ele>
  <time>2026-09-02T20:51:07Z</time>
  <course>0.0</course>
  <speed>0.0</speed>
  <fix>3d</fix>
</trkpt>
<trkpt lat="40.0713749" lon="-105.229789">
  <ele>1583.0</ele>
  <time>2026-09-02T20:51:07Z</time>
  <course>0.0</course>
  <speed>0.0</speed>
  <fix>3d</fix>
</trkpt>
<trkpt lat="40.0713749" lon="-105.229789">
  <ele>1583.0</ele>
  <time>2026-09-02T20:51:07Z</time>
  <course>0.0</course>
  <speed>0.0</speed>
  <fix>3d</fix>
</trkpt>
<trkpt lat="40.0713749" lon="-105.229789">
  <ele>1583.0</ele>
  <time>2026-09-02T20:51:07Z</time>
  <course>0.0</course>
  <speed>0.0</speed>
  <fix>3d</fix>
</trkpt>
<trkpt lat="40.0713749" lon="-105.229789">
  <ele>1583.0</ele>
  <time>2026-09-02T20:51:07Z</time>
  <course>0.0</course>
  <speed>0.0</speed>
  <fix>3d</fix>
</trkpt>
<trkpt lat="40.0713749" lon="-105.229789">
  <ele>1583.0</ele>
  <time>2026-09-02T20:51:07Z</time>
  <course>0.0</course>
  <speed>0.0</speed>
  <fix>3d</fix>
</trkpt>
<trkpt lat="40.0713749" lon="-105.229789">
  <ele>1583.0</ele>
  <time>2026-09-02T20:51:07Z</time>
  <course>0.0</course>
  <speed>0.0</speed>
  <fix>3d</fix>
</trkpt>
<trkpt lat="40.0713749" lon="-105.229789">
  <ele>1583.0</ele>
  <time>2026-09-02T20:51:07Z</time>
  <course>0.0</course>
  <speed>0.0</speed>
  <fix>3d</fix>
</trkpt>
<trkpt lat="40.0713749" lon="-105.229789">
  <ele>1583.0</ele>
  <time>2026-09-02T20:51:07Z</time>
  <course>0.0</course>
  <speed>0.0</speed>
  <fix>3d</fix>
</trkpt>
<trkpt lat="40.0713749" lon="-105.229789">
  <ele>1583.0</ele>
  <time>2026-09-02T20:51:07Z</time>
  <course>0.0</course>
  <speed>0.0</speed>
  <fix>3d</fix>
</trkpt>
<trkpt lat="40.0713749" lon="-105.229789">
  <ele>1583.0</ele>
  <time>2026-09-02T20:51:07Z</time>
  <course>0.0</course>
  <speed>0.0</speed>
  <fix>3d</fix>
</trkpt>
<trkpt lat="40.0713749" lon="-105.229789">
  <ele>1583.0</ele>
  <time>2026-09-02T20:51:07Z</time>
  <course>0.0</course>
  <speed>0.0</speed>
  <fix>3d</fix>
</trkpt>
<trkpt lat="40.0713749" lon="-105.229789">
  <ele>1583.0</ele>
  <time>2026-09-02T20:51:07Z</time>
  <course>0.0</course>
  <speed>0.0</speed>
  <fix>3d</fix>
</trkpt>
<trkpt lat="40.0713749" lon="-105.229789">
  <ele>1583.0</ele>
  <time>2026-09-02T20:51:07Z</time>
  <course>0.0</course>
  <speed>0.0</speed>
  <fix>3d</fix>
</trkpt>
<trkpt lat="40.0713749" lon="-105.229789">
  <ele>1583.0</ele>
  <time>2026-09-02T20:51:07Z</time>
  <course>0.0</course>
  <speed>0.0</speed>
  <fix>3d</fix>
</trkpt>
<trkpt lat="40.0713749" lon="-105.229789">
  <ele>1583.0</ele>
  <time>2026-09-02T20:51:07Z</time>
  <course>0.0</course>
  <speed>0.0</speed>
  <fix>3d</fix>
</trkpt>
<trkpt lat="40.0713749" lon="-105.229789">
  <ele>1583.0</ele>
  <time>2026-09-02T20:51:07Z</time>
  <course>0.0</course>
  <speed>0.0</speed>
  <fix>3d</fix>
</trkpt>
<trkpt lat="40.0713749" lon="-105.229789">
  <ele>1583.0</ele>
  <time>2026-09-02T20:51:07Z</time>
  <course>0.0</course>
  <speed>0.0</speed>
  <fix>3d</fix>
</trkpt>
<trkpt lat="40.0713749" lon="-105.229789">
  <ele>1583.0</ele>
  <time>2026-09-02T20:51:07Z</time>
  <course>0.0</course>
  <speed>0.0</speed>
  <fix>3d</fix>
</trkpt>
<trkpt lat="40.0713749" lon="-105.229789">
  <ele>1583.0</ele>
  <time>2026-09-02T20:51:07Z</time>
  <course>0.0</course>
  <speed>0.0</speed>
  <fix>3d</fix>
</trkpt>
<trkpt lat="40.0713749" lon="-105.229789">
  <ele>1583.0</ele>
  <time>2026-09-02T20:51:07Z</time>
  <course>0.0</course>
  <speed>0.0</speed>
  <fix>3d</fix>
</trkpt>
<trkpt lat="40.0713749" lon="-105.229789">
  <ele>1583.0</ele>
  <time>2026-09-02T20:51:07Z</time>
  <course>0.0</course>
  <speed>0.0</speed>
  <fix>3d</fix>
</trkpt>
<trkpt lat="40.0713749" lon="-105.229789">
  <ele>1583.0</ele>
  <time>2026-09-02T20:51:07Z</time>
  <course>0.0</course>
  <speed>0.0</speed>
  <fix>3d</fix>
</trkpt>
<trkpt lat="40.0713749" lon="-105.229789">
  <ele>1583.0</ele>
  <time>2026-09-02T20:51:07Z</time>
  <course>0.0</course>
  <speed>0.0</speed>
  <fix>3d</fix>
</trkpt>
<trkpt lat="40.0713749" lon="-105.229789">
  <ele>1583.0</ele>
  <time>2026-09-02T20:51:07Z</time>
  <course>0.0</course>
  <speed>0.0</speed>
  <fix>3d</fix>
</trkpt>
<trkpt lat="40.0713749" lon="-105.229789">
  <ele>1583.0</ele>
  <time>2026-09-02T20:51:07Z</time>
  <course>0.0</course>
  <speed>0.0</speed>
  <fix>3d</fix>
</trkpt>
<trkpt lat="40.0713749" lon="-105.229789">
  <ele>1583.0</ele>
  <time>2026-09-02T20:51:07Z</time>
  <course>0.0</course>
  <speed>0.0</speed>
  <fix>3d</fix>
</trkpt>
<trkpt lat="40.0713749" lon="-105.229789">
  <ele>1583.0</ele>
  <time>2026-09-02T20:51:07Z</time>
  <course>0.0</course>
  <speed>0.0</speed>
  <fix>3d</fix>
</trkpt>
<trkpt lat="40.0713749" lon="-105.229789">
  <ele>1583.0</ele>
  <time>2026-09-02T20:51:07Z</time>
  <course>0.0</course>
  <speed>0.0</speed>
  <fix>3d</fix>
</trkpt>
<trkpt lat="40.0713749" lon="-105.229789">
  <ele>1583.0</ele>
  <time>2026-09-02T20:51:07Z</time>
  <course>0.0</course>
  <speed>0.0</speed>
  <fix>3d</fix>
</trkpt>
<trkpt lat="40.0713749" lon="-105.229789">
  <ele>1583.0</ele>
  <time>2026-09-02T20:51:07Z</time>
  <course>0.0</course>
  <speed>0.0</speed>
  <fix>3d</fix>
</trkpt>
<trkpt lat="40.0713749" lon="-105.229789">
  <ele>1583.0</ele>
  <time>2026-09-02T20:51:07Z</time>
  <course>0.0</course>
  <speed>0.0</speed>
  <fix>3d</fix>
</trkpt>
<trkpt lat="40.0713749" lon="-105.229789">
  <ele>1583.0</ele>
  <time>2026-09-02T20:51:07Z</time>
  <course>0.0</course>
  <speed>0.0</speed>
  <fix>3d</fix>
</trkpt>
<trkpt lat="40.0713749" lon="-105.229789">
  <ele>1583.0</ele>
  <time>2026-09-02T20:51:07Z</time>
  <course>0.0</course>
  <speed>0.0</speed>
  <fix>3d</fix>
</trkpt>
<trkpt lat="40.0713749" lon="-105.229789">
  <ele>1583.0</ele>
  <time>2026-09-02T20:51:07Z</time>
  <course>0.0</course>
  <speed>0.0</speed>
  <fix>3d</fix>
</trkpt>
<trkpt lat="40.0713749" lon="-105.229789">
  <ele>1583.0</ele>
  <time>2026-09-02T20:51:07Z</time>
  <course>0.0</course>
  <speed>0.0</speed>
  <fix>3d</fix>
</trkpt>
<trkpt lat="40.0713749" lon="-105.229789">
  <ele>1583.0</ele>
  <time>2026-09-02T20:51:07Z</time>
  <course>0.0</course>
  <speed>0.0</speed>
  <fix>3d</fix>
</trkpt>
<trkpt lat="40.0713749" lon="-105.229789">
  <ele>1583.0</ele>
  <time>2026-09-02T20:51:07Z</time>
  <course>0.0</course>
  <speed>0.0</speed>
  <fix>3d</fix>
</trkpt>
<trkpt lat="40.0713749" lon="-105.229789">
  <ele>1583.0</ele>
  <time>2026-09-02T20:51:07Z</time>
  <course>0.0</course>
  <speed>0.0</speed>
  <fix>3d</fix>
</trkpt>
<trkpt lat="40.0713749" lon="-105.229789">
  <ele>1583.0</ele>
  <time>2026-09-02T20:51:07Z</time>
  <course>0.0</course>
  <speed>0.0</speed>
  <fix>3d</fix>
</trkpt>
<trkpt lat="40.0713749" lon="-105.229789">
  <ele>1583.0</ele>
  <time>2026-09-02T20:51:07Z</time>
  <course>0.0</course>
  <speed>0.0</speed>
  <fix>3d</fix>
</trkpt>
<trkpt lat="40.0713749" lon="-105.229789">
  <ele>1583.0</ele>
  <time>2026-09-02T20:51:07Z</time>
  <course>0.0</course>
  <speed>0.0</speed>
  <fix>3d</fix>
</trkpt>
<trkpt lat="40.0713749" lon="-105.229789">
  <ele>1583.0</ele>
  <time>2026-09-02T20:51:07Z</time>
  <course>0.0</course>
  <speed>0.0</speed>
  <fix>3d</fix>
</trkpt>
<trkpt lat="40.0713749" lon="-105.229789">
  <ele>1583.0</ele>
  <time>2026-09-02T20:51:07Z</time>
  <course>0.0</course>
  <speed>0.0</speed>
  <fix>3d</fix>
</trkpt>
<trkpt lat="40.0713749" lon="-105.229789">
  <ele>1583.0</ele>
  <time>2026-09-02T20:51:07Z</time>
  <course>0.0</course>
  <speed>0.0</speed>
  <fix>3d</fix>
</trkpt>
<trkpt lat="40.0713749" lon="-105.229789">
  <ele>1583.0</ele>
  <time>2026-09-02T20:51:07Z</time>
  <course>0.0</course>
  <speed>0.0</speed>
  <fix>3d</fix>
</trkpt>
<trkpt lat="40.0713749" lon="-105.229789">
  <ele>1583.0</ele>
  <time>2026-09-02T20:51:07Z</time>
  <course>0.0</course>
  <speed>0.0</speed>
  <fix>3d</fix>
</trkpt>
<trkpt lat="40.0713749" lon="-105.229789">
  <ele>1583.0</ele>
  <time>2026-09-02T20:51:07Z</time>
  <course>0.0</course>
  <speed>0.0</speed>
  <fix>3d</fix>
</trkpt>
<trkpt lat="40.0713749" lon="-105.229789">
  <ele>1583.0</ele>
  <time>2026-09-02T20:51:07Z</time>
  <course>0.0</course>
  <speed>0.0</speed>
  <fix>3d</fix>
</trkpt>
<trkpt lat="40.0713749" lon="-105.229789">
  <ele>1583.0</ele>
  <time>2026-09-02T20:51:07Z</time>
  <course>0.0</course>
  <speed>0.0</speed>
  <fix>3d</fix>
</trkpt>
<trkpt lat="40.0713749" lon="-105.229789">
  <ele>1583.0</ele>
  <time>2026-09-02T20:51:07Z</time>
  <course>0.0</course>
  <speed>0.0</speed>
  <fix>3d</fix>
</trkpt>
<trkpt lat="40.0713749" lon="-105.229789">
  <ele>1583.0</ele>
  <time>2026-09-02T20:51:07Z</time>
  <course>0.0</course>
  <speed>0.0</speed>
  <fix>3d</fix>
</trkpt>
<trkpt lat="40.0713749" lon="-105.229789">
  <ele>1583.0</ele>
  <time>2026-09-02T20:51:07Z</time>
  <course>0.0</course>
  <speed>0.0</speed>
  <fix>3d</fix>
</trkpt>
<trkpt lat="40.0713749" lon="-105.229789">
  <ele>1583.0</ele>
  <time>2026-09-02T20:51:07Z</time>
  <course>0.0</course>
  <speed>0.0</speed>
  <fix>3d</fix>
</trkpt>
<trkpt lat="40.0713749" lon="-105.229789">
  <ele>1583.0</ele>
  <time>2026-09-02T20:51:07Z</time>
  <course>0.0</course>
  <speed>0.0</speed>
  <fix>3d</fix>
</trkpt>
<trkpt lat="40.0713749" lon="-105.229789">
  <ele>1583.0</ele>
  <time>2026-09-02T20:51:07Z</time>
  <course>0.0</course>
  <speed>0.0</speed>
  <fix>3d</fix>
</trkpt>
<trkpt lat="40.0713749" lon="-105.229789">
  <ele>1583.0</ele>
  <time>2026-09-02T20:51:07Z</time>
  <course>0.0</course>
  <speed>0.0</speed>
  <fix>3d</fix>
</trkpt>
<trkpt lat="40.0713749" lon="-105.229789">
  <ele>1583.0</ele>
  <time>2026-09-02T20:51:07Z</time>
  <course>0.0</course>
  <speed>0.0</speed>
  <fix>3d</fix>
</trkpt>
<trkpt lat="40.0713749" lon="-105.229789">
  <ele>1583.0</ele>
  <time>2026-09-02T20:51:07Z</time>
  <course>0.0</course>
  <speed>0.0</speed>
  <fix>3d</fix>
</trkpt>
<trkpt lat="40.0713749" lon="-105.229789">
  <ele>1583.0</ele>
  <time>2026-09-02T20:51:07Z</time>
  <course>0.0</course>
  <speed>0.0</speed>
  <fix>3d</fix>
</trkpt>
<trkpt lat="40.0713749" lon="-105.229789">
  <ele>1583.0</ele>
  <time>2026-09-02T20:51:07Z</time>
  <course>0.0</course>
  <speed>0.0</speed>
  <fix>3d</fix>
</trkpt>
<trkpt lat="40.0713749" lon="-105.229789">
  <ele>1583.0</ele>
  <time>2026-09-02T20:51:07Z</time>
  <course>0.0</course>
  <speed>0.0</speed>
  <fix>3d</fix>
</trkpt>
<trkpt lat="40.0713749" lon="-105.229789">
  <ele>1583.0</ele>
  <time>2026-09-02T20:51:07Z</time>
  <course>0.0</course>
  <speed>0.0</speed>
  <fix>3d</fix>
</trkpt>
<trkpt lat="40.0713749" lon="-105.229789">
  <ele>1583.0</ele>
  <time>2026-09-02T20:51:07Z</time>
  <course>0.0</course>
  <speed>0.0</speed>
  <fix>3d</fix>
</trkpt>
<trkpt lat="40.0713749" lon="-105.229789">
  <ele>1583.0</ele>
  <time>2026-09-02T20:51:07Z</time>
  <course>0.0</course>
  <speed>0.0</speed>
  <fix>3d</fix>
</trkpt>
<trkpt lat="40.0713749" lon="-105.229789">
  <ele>1583.0</ele>
  <time>2026-09-02T20:51:07Z</time>
  <course>0.0</course>
  <speed>0.0</speed>
  <fix>3d</fix>
</trkpt>
<trkpt lat="40.0713749" lon="-105.229789">
  <ele>1583.0</ele>
  <time>2026-09-02T20:51:07Z</time>
  <course>0.0</course>
  <speed>0.0</speed>
  <fix>3d</fix>
</trkpt>
<trkpt lat="40.0713749" lon="-105.229789">
  <ele>1583.0</ele>
  <time>2026-09-02T20:51:07Z</time>
  <course>0.0</course>
  <speed>0.0</speed>
  <fix>3d</fix>
</trkpt>
<trkpt lat="40.0713749" lon="-105.229789">
  <ele>1583.0</ele>
  <time>2026-09-02T20:51:07Z</time>
  <course>0.0</course>
  <speed>0.0</speed>
  <fix>3d</fix>
</trkpt>
<trkpt lat="40.0713749" lon="-105.229789">
  <ele>1583.0</ele>
  <time>2026-09-02T20:51:07Z</time>
  <course>0.0</course>
  <speed>0.0</speed>
  <fix>3d</fix>
</trkpt>
<trkpt lat="40.0713749" lon="-105.229789">
  <ele>1583.0</ele>
  <time>2026-09-02T20:51:07Z</time>
  <course>0.0</course>
  <speed>0.0</speed>
  <fix>3d</fix>
</trkpt>
<trkpt lat="40.0713749" lon="-105.229789">
  <ele>1583.0</ele>
  <time>2026-09-02T20:51:07Z</time>
  <course>0.0</course>
  <speed>0.0</speed>
  <fix>3d</fix>
</trkpt>
<trkpt lat="40.0713749" lon="-105.229789">
  <ele>1583.0</ele>
  <time>2026-09-02T20:51:07Z</time>
  <course>0.0</course>
  <speed>0.0</speed>
  <fix>3d</fix>
</trkpt>
<trkpt lat="40.0713749" lon="-105.229789">
  <ele>1583.0</ele>
  <time>2026-09-02T20:51:07Z</time>
  <course>0.0</course>
  <speed>0.0</speed>
  <fix>3d</fix>
</trkpt>
<trkpt lat="40.0713749" lon="-105.229789">
  <ele>1583.0</ele>
  <time>2026-09-02T20:51:07Z</time>
  <course>0.0</course>
  <speed>0.0</speed>
  <fix>3d</fix>
</trkpt>
<trkpt lat="40.0713749" lon="-105.229789">
  <ele>1583.0</ele>
  <time>2026-09-02T20:51:07Z</time>
  <course>0.0</course>
  <speed>0.0</speed>
  <fix>3d</fix>
</trkpt>
<trkpt lat="40.0713749" lon="-105.229789">
  <ele>1583.0</ele>
  <time>2026-09-02T20:51:07Z</time>
  <course>0.0</course>
  <speed>0.0</speed>
  <fix>3d</fix>
</trkpt>
<trkpt lat="40.0713749" lon="-105.229789">
  <ele>1583.0</ele>
  <time>2026-09-02T20:51:07Z</time>
  <course>0.0</course>
  <speed>0.0</speed>
  <fix>3d</fix>
</trkpt>
<trkpt lat="40.0713749" lon="-105.229789">
  <ele>1583.0</ele>
  <time>2026-09-02T20:51:07Z</time>
  <course>0.0</course>
  <speed>0.0</speed>
  <fix>3d</fix>
</trkpt>
<trkpt lat="40.0713749" lon="-105.229789">
  <ele>1583.0</ele>
  <time>2026-09-02T20:51:07Z</time>
  <course>0.0</course>
  <speed>0.0</speed>
  <fix>3d</fix>
</trkpt>
<trkpt lat="40.0713749" lon="-105.229789">
  <ele>1583.0</ele>
  <time>2026-09-02T20:51:07Z</time>
  <course>0.0</course>
  <speed>0.0</speed>
  <fix>3d</fix>
</trkpt>
<trkpt lat="40.0713749" lon="-105.229789">
  <ele>1583.0</ele>
  <time>2026-09-02T20:51:07Z</time>
  <course>0.0</course>
  <speed>0.0</speed>
  <fix>3d</fix>
</trkpt>
<trkpt lat="40.0713749" lon="-105.229789">
  <ele>1583.0</ele>
  <time>2026-09-02T20:51:07Z</time>
  <course>0.0</course>
  <speed>0.0</speed>
  <fix>3d</fix>
</trkpt>
<trkpt lat="40.0713749" lon="-105.229789">
  <ele>1583.0</ele>
  <time>2026-09-02T20:51:07Z</time>
  <course>0.0</course>
  <speed>0.0</speed>
  <fix>3d</fix>
</trkpt>
<trkpt lat="40.0713749" lon="-105.229789">
  <ele>1583.0</ele>
  <time>2026-09-02T20:51:07Z</time>
  <course>0.0</course>
  <speed>0.0</speed>
  <fix>3d</fix>
</trkpt>
<trkpt lat="40.0713749" lon="-105.229789">
  <ele>1583.0</ele>
  <time>2026-09-02T20:51:07Z</time>
  <course>0.0</course>
  <speed>0.0</speed>
  <fix>3d</fix>
</trkpt>
<trkpt lat="40.0713749" lon="-105.229789">
  <ele>1583.0</ele>
  <time>2026-09-02T20:51:07Z</time>
  <course>0.0</course>
  <speed>0.0</speed>
  <fix>3d</fix>
</trkpt>
<trkpt lat="40.0713749" lon="-105.229789">
  <ele>1583.0</ele>
  <time>2026-09-02T20:51:07Z</time>
  <course>0.0</course>
  <speed>0.0</speed>
  <fix>3d</fix>
</trkpt>
<trkpt lat="40.0713749" lon="-105.229789">
  <ele>1583.0</ele>
  <time>2026-09-02T20:51:07Z</time>
  <course>0.0</course>
  <speed>0.0</speed>
  <fix>3d</fix>
</trkpt>
<trkpt lat="40.0713749" lon="-105.229789">
  <ele>1583.0</ele>
  <time>2026-09-02T20:51:07Z</time>
  <course>0.0</course>
  <speed>0.0</speed>
  <fix>3d</fix>
</trkpt>
<trkpt lat="40.0713749" lon="-105.229789">
  <ele>1583.0</ele>
  <time>2026-09-02T20:51:07Z</time>
  <course>0.0</course>
  <speed>0.0</speed>
  <fix>3d</fix>
</trkpt>
<trkpt lat="40.0713749" lon="-105.229789">
  <ele>1583.0</ele>
  <time>2026-09-02T20:51:07Z</time>
  <course>0.0</course>
  <speed>0.0</speed>
  <fix>3d</fix>
</trkpt>
<trkpt lat="40.0713749" lon="-105.229789">
  <ele>1583.0</ele>
  <time>2026-09-02T20:51:07Z</time>
  <course>0.0</course>
  <speed>0.0</speed>
  <fix>3d</fix>
</trkpt>
<trkpt lat="40.0713749" lon="-105.229789">
  <ele>1583.0</ele>
  <time>2026-09-02T20:51:07Z</time>
  <course>0.0</course>
  <speed>0.0</speed>
  <fix>3d</fix>
</trkpt>
<trkpt lat="40.0713749" lon="-105.229789">
  <ele>1583.0</ele>
  <time>2026-09-02T20:51:07Z</time>
  <course>0.0</course>
  <speed>0.0</speed>
  <fix>3d</fix>
</trkpt>
<trkpt lat="40.0713749" lon="-105.229789">
  <ele>1583.0</ele>
  <time>2026-09-02T20:51:08Z</time>
  <course>0.0</course>
  <speed>0.0</speed>
  <fix>3d</fix>
</trkpt>
<trkpt lat="40.0713749" lon="-105.229789">
  <ele>1583.0</ele>
  <time>2026-09-02T20:51:08Z</time>
  <course>0.0</course>
  <speed>0.0</speed>
  <fix>3d</fix>
</trkpt>
<trkpt lat="40.0713749" lon="-105.229789">
  <ele>1583.0</ele>
  <time>2026-09-02T20:51:08Z</time>
  <course>0.0</course>
  <speed>0.0</speed>
  <fix>3d</fix>
</trkpt>
<trkpt lat="40.0713749" lon="-105.229789">
  <ele>1583.0</ele>
  <time>2026-09-02T20:51:08Z</time>
  <course>0.0</course>
  <speed>0.0</speed>
  <fix>3d</fix>
</trkpt>
<trkpt lat="40.0713749" lon="-105.229789">
  <ele>1583.0</ele>
  <time>2026-09-02T20:51:08Z</time>
  <course>0.0</course>
  <speed>0.0</speed>
  <fix>3d</fix>
</trkpt>
<trkpt lat="39.655741" lon="-104.1383097">
  <ele>1566.58</ele>
  <time>2026-09-02T20:51:08Z</time>
  <course>0.0</course>
  <speed>0.0</speed>
  <fix>3d</fix>
</trkpt>
<trkpt lat="40.0713749" lon="-105.229789">
  <ele>1583.0</ele>
  <time>2026-09-02T20:51:08Z</time>
  <course>0.0</course>
  <speed>0.0</speed>
  <fix>3d</fix>
</trkpt>
<trkpt lat="40.0713749" lon="-105.229789">
  <ele>1583.0</ele>
  <time>2026-09-02T20:51:08Z</time>
  <course>0.0</course>
  <speed>0.0</speed>
  <fix>3d</fix>
</trkpt>
<trkpt lat="40.0713749" lon="-105.229789">
  <ele>1583.0</ele>
  <time>2026-09-02T20:51:08Z</time>
  <course>0.0</course>
  <speed>0.0</speed>
  <fix>3d</fix>
</trkpt>
<trkpt lat="40.0713749" lon="-105.229789">
  <ele>1583.0</ele>
  <time>2026-09-02T20:51:08Z</time>
  <course>0.0</course>
  <speed>0.0</speed>
  <fix>3d</fix>
</trkpt>
<trkpt lat="40.0713749" lon="-105.229789">
  <ele>1583.0</ele>
  <time>2026-09-02T20:51:08Z</time>
  <course>0.0</course>
  <speed>0.0</speed>
  <fix>3d</fix>
</trkpt>
<trkpt lat="40.0713749" lon="-105.229789">
  <ele>1583.0</ele>
  <time>2026-09-02T20:51:08Z</time>
  <course>0.0</course>
  <speed>0.0</speed>
  <fix>3d</fix>
</trkpt>
<trkpt lat="40.0713749" lon="-105.229789">
  <ele>1583.0</ele>
  <time>2026-09-02T20:51:08Z</time>
  <course>0.0</course>
  <speed>0.0</speed>
  <fix>3d</fix>
</trkpt>
<trkpt lat="40.0713749" lon="-105.229789">
  <ele>1583.0</ele>
  <time>2026-09-02T20:51:08Z</time>
  <course>0.0</course>
  <speed>0.0</speed>
  <fix>3d</fix>
</trkpt>
<trkpt lat="40.0713749" lon="-105.229789">
  <ele>1583.0</ele>
  <time>2026-09-02T20:51:08Z</time>
  <course>0.0</course>
  <speed>0.0</speed>
  <fix>3d</fix>
</trkpt>
<trkpt lat="40.0713749" lon="-105.229789">
  <ele>1583.0</ele>
  <time>2026-09-02T20:51:08Z</time>
  <course>0.0</course>
  <speed>0.0</speed>
  <fix>3d</fix>
</trkpt>
<trkpt lat="40.0713749" lon="-105.229789">
  <ele>1583.0</ele>
  <time>2026-09-02T20:51:09Z</time>
  <course>0.0</course>
  <speed>0.0</speed>
  <fix>3d</fix>
</trkpt>
<trkpt lat="40.0713749" lon="-105.229789">
  <ele>1583.0</ele>
  <time>2026-09-02T20:51:09Z</time>
  <course>0.0</course>
  <speed>0.0</speed>
  <fix>3d</fix>
</trkpt>
<trkpt lat="40.0713749" lon="-105.229789">
  <ele>1583.0</ele>
  <time>2026-09-02T20:51:09Z</time>
  <course>0.0</course>
  <speed>0.0</speed>
  <fix>3d</fix>
</trkpt>
<trkpt lat="40.0713749" lon="-105.229789">
  <ele>1583.0</ele>
  <time>2026-09-02T20:51:09Z</time>
  <course>0.0</course>
  <speed>0.0</speed>
  <fix>3d</fix>
</trkpt>
<trkpt lat="40.0713749" lon="-105.229789">
  <ele>1583.0</ele>
  <time>2026-09-02T20:51:09Z</time>
  <course>0.0</course>
  <speed>0.0</speed>
  <fix>3d</fix>
</trkpt>
<trkpt lat="40.0713749" lon="-105.229789">
  <ele>1583.0</ele>
  <time>2026-09-02T20:51:09Z</time>
  <course>0.0</course>
  <speed>0.0</speed>
  <fix>3d</fix>
</trkpt>
<trkpt lat="40.0713749" lon="-105.229789">
  <ele>1583.0</ele>
  <time>2026-09-02T20:51:09Z</time>
  <course>0.0</course>
  <speed>0.0</speed>
  <fix>3d</fix>
</trkpt>
<trkpt lat="40.0713749" lon="-105.229789">
  <ele>1583.0</ele>
  <time>2026-09-02T20:51:09Z</time>
  <course>0.0</course>
  <speed>0.0</speed>
  <fix>3d</fix>
</trkpt>
<trkpt lat="40.0713749" lon="-105.229789">
  <ele>1583.0</ele>
  <time>2026-09-02T20:51:09Z</time>
  <course>0.0</course>
  <speed>0.0</speed>
  <fix>3d</fix>
</trkpt>
<trkpt lat="40.0713749" lon="-105.229789">
  <ele>1583.0</ele>
  <time>2026-09-02T20:51:09Z</time>
  <course>0.0</course>
  <speed>0.0</speed>
  <fix>3d</fix>
</trkpt>
<trkpt lat="40.0713749" lon="-105.229789">
  <ele>1583.0</ele>
  <time>2026-09-02T20:51:09Z</time>
  <course>0.0</course>
  <speed>0.0</speed>
  <fix>3d</fix>
</trkpt>
<trkpt lat="40.0713749" lon="-105.229789">
  <ele>1583.0</ele>
  <time>2026-09-02T20:51:09Z</time>
  <course>0.0</course>
  <speed>0.0</speed>
  <fix>3d</fix>
</trkpt>
<trkpt lat="40.0713749" lon="-105.229789">
  <ele>1583.0</ele>
  <time>2026-09-02T20:51:09Z</time>
  <course>0.0</course>
  <speed>0.0</speed>
  <fix>3d</fix>
</trkpt>
<trkpt lat="40.0713749" lon="-105.229789">
  <ele>1583.0</ele>
  <time>2026-09-02T20:51:09Z</time>
  <course>0.0</course>
  <speed>0.0</speed>
  <fix>3d</fix>
</trkpt>
<trkpt lat="40.0713749" lon="-105.229789">
  <ele>1583.0</ele>
  <time>2026-09-02T20:51:09Z</time>
  <course>0.0</course>
  <speed>0.0</speed>
  <fix>3d</fix>
</trkpt>
<trkpt lat="40.0713749" lon="-105.229789">
  <ele>1583.0</ele>
  <time>2026-09-02T20:51:09Z</time>
  <course>0.0</course>
  <speed>0.0</speed>
  <fix>3d</fix>
</trkpt>
<trkpt lat="40.0713749" lon="-105.229789">
  <ele>1583.0</ele>
  <time>2026-09-02T20:51:09Z</time>
  <course>0.0</course>
  <speed>0.0</speed>
  <fix>3d</fix>
</trkpt>
<trkpt lat="40.0713749" lon="-105.229789">
  <ele>1583.0</ele>
  <time>2026-09-02T20:51:09Z</time>
  <course>0.0</course>
  <speed>0.0</speed>
  <fix>3d</fix>
</trkpt>
<trkpt lat="40.0713749" lon="-105.229789">
  <ele>1583.0</ele>
  <time>2026-09-02T20:51:09Z</time>
  <course>0.0</course>
  <speed>0.0</speed>
  <fix>3d</fix>
</trkpt>
<trkpt lat="40.0713749" lon="-105.229789">
  <ele>1583.0</ele>
  <time>2026-09-02T20:51:09Z</time>
  <course>0.0</course>
  <speed>0.0</speed>
  <fix>3d</fix>
</trkpt>
<trkpt lat="40.0713749" lon="-105.229789">
  <ele>1583.0</ele>
  <time>2026-09-02T20:51:10Z</time>
  <course>0.0</course>
  <speed>0.0</speed>
  <fix>3d</fix>
</trkpt>
<trkpt lat="40.0713749" lon="-105.229789">
  <ele>1583.0</ele>
  <time>2026-09-02T20:51:10Z</time>
  <course>0.0</course>
  <speed>0.0</speed>
  <fix>3d</fix>
</trkpt>
<trkpt lat="40.0713749" lon="-105.229789">
  <ele>1583.0</ele>
  <time>2026-09-02T20:51:10Z</time>
  <course>0.0</course>
  <speed>0.0</speed>
  <fix>3d</fix>
</trkpt>
<trkpt lat="40.0713749" lon="-105.229789">
  <ele>1583.0</ele>
  <time>2026-09-02T20:51:10Z</time>
  <course>0.0</course>
  <speed>0.0</speed>
  <fix>3d</fix>
</trkpt>
<trkpt lat="40.0713749" lon="-105.229789">
  <ele>1583.0</ele>
  <time>2026-09-02T20:51:10Z</time>
  <course>0.0</course>
  <speed>0.0</speed>
  <fix>3d</fix>
</trkpt>
<trkpt lat="40.0713749" lon="-105.229789">
  <ele>1583.0</ele>
  <time>2026-09-02T20:51:10Z</time>
  <course>0.0</course>
  <speed>0.0</speed>
  <fix>3d</fix>
</trkpt>
<trkpt lat="40.0713749" lon="-105.229789">
  <ele>1583.0</ele>
  <time>2026-09-02T20:51:10Z</time>
  <course>0.0</course>
  <speed>0.0</speed>
  <fix>3d</fix>
</trkpt>
<trkpt lat="40.0713749" lon="-105.229789">
  <ele>1583.0</ele>
  <time>2026-09-02T20:51:10Z</time>
  <course>0.0</course>
  <speed>0.0</speed>
  <fix>3d</fix>
</trkpt>
<trkpt lat="40.0713749" lon="-105.229789">
  <ele>1583.0</ele>
  <time>2026-09-02T20:51:10Z</time>
  <course>0.0</course>
  <speed>0.0</speed>
  <fix>3d</fix>
</trkpt>
<trkpt lat="40.0713749" lon="-105.229789">
  <ele>1583.0</ele>
  <time>2026-09-02T20:51:10Z</time>
  <course>0.0</course>
  <speed>0.0</speed>
  <fix>3d</fix>
</trkpt>
<trkpt lat="40.0713749" lon="-105.229789">
  <ele>1583.0</ele>
  <time>2026-09-02T20:51:10Z</time>
  <course>0.0</course>
  <speed>0.0</speed>
  <fix>3d</fix>
</trkpt>
<trkpt lat="40.0713749" lon="-105.229789">
  <ele>1583.0</ele>
  <time>2026-09-02T20:51:10Z</time>
  <course>0.0</course>
  <speed>0.0</speed>
  <fix>3d</fix>
</trkpt>
<trkpt lat="40.0713749" lon="-105.229789">
  <ele>1583.0</ele>
  <time>2026-09-02T20:51:10Z</time>
  <course>0.0</course>
  <speed>0.0</speed>
  <fix>3d</fix>
</trkpt>
<trkpt lat="40.0713749" lon="-105.229789">
  <ele>1583.0</ele>
  <time>2026-09-02T20:51:10Z</time>
  <course>0.0</course>
  <speed>0.0</speed>
  <fix>3d</fix>
</trkpt>
<trkpt lat="40.0713749" lon="-105.229789">
  <ele>1583.0</ele>
  <time>2026-09-02T20:51:10Z</time>
  <course>0.0</course>
  <speed>0.0</speed>
  <fix>3d</fix>
</trkpt>
<trkpt lat="40.0713749" lon="-105.229789">
  <ele>1583.0</ele>
  <time>2026-09-02T20:51:10Z</time>
  <course>0.0</course>
  <speed>0.0</speed>
  <fix>3d</fix>
</trkpt>
<trkpt lat="40.0713749" lon="-105.229789">
  <ele>1583.0</ele>
  <time>2026-09-02T20:51:10Z</time>
  <course>0.0</course>
  <speed>0.0</speed>
  <fix>3d</fix>
</trkpt>
<trkpt lat="40.0713749" lon="-105.229789">
  <ele>1583.0</ele>
  <time>2026-09-02T20:51:10Z</time>
  <course>0.0</course>
  <speed>0.0</speed>
  <fix>3d</fix>
</trkpt>
<trkpt lat="40.0713749" lon="-105.229789">
  <ele>1583.0</ele>
  <time>2026-09-02T20:51:10Z</time>
  <course>0.0</course>
  <speed>0.0</speed>
  <fix>3d</fix>
</trkpt>
<trkpt lat="40.0713749" lon="-105.229789">
  <ele>1583.0</ele>
  <time>2026-09-02T20:51:10Z</time>
  <course>0.0</course>
  <speed>0.0</speed>
  <fix>3d</fix>
</trkpt>
<trkpt lat="40.0713749" lon="-105.229789">
  <ele>1583.0</ele>
  <time>2026-09-02T20:51:10Z</time>
  <course>0.0</course>
  <speed>0.0</speed>
  <fix>3d</fix>
</trkpt>
<trkpt lat="40.0713749" lon="-105.229789">
  <ele>1583.0</ele>
  <time>2026-09-02T20:51:10Z</time>
  <course>0.0</course>
  <speed>0.0</speed>
  <fix>3d</fix>
</trkpt>
<trkpt lat="40.0713749" lon="-105.229789">
  <ele>1583.0</ele>
  <time>2026-09-02T20:51:10Z</time>
  <course>0.0</course>
  <speed>0.0</speed>
  <fix>3d</fix>
</trkpt>
<trkpt lat="40.0713749" lon="-105.229789">
  <ele>1583.0</ele>
  <time>2026-09-02T20:51:10Z</time>
  <course>0.0</course>
  <speed>0.0</speed>
  <fix>3d</fix>
</trkpt>
<trkpt lat="40.0713749" lon="-105.229789">
  <ele>1583.0</ele>
  <time>2026-09-02T20:51:10Z</time>
  <course>0.0</course>
  <speed>0.0</speed>
  <fix>3d</fix>
</trkpt>
<trkpt lat="40.0713749" lon="-105.229789">
  <ele>1583.0</ele>
  <time>2026-09-02T20:51:10Z</time>
  <course>0.0</course>
  <speed>0.0</speed>
  <fix>3d</fix>
</trkpt>
<trkpt lat="40.0713749" lon="-105.229789">
  <ele>1583.0</ele>
  <time>2026-09-02T20:51:10Z</time>
  <course>0.0</course>
  <speed>0.0</speed>
  <fix>3d</fix>
</trkpt>
<trkpt lat="40.0713749" lon="-105.229789">
  <ele>1583.0</ele>
  <time>2026-09-02T20:51:10Z</time>
  <course>0.0</course>
  <speed>0.0</speed>
  <fix>3d</fix>
</trkpt>
<trkpt lat="40.0713749" lon="-105.229789">
  <ele>1583.0</ele>
  <time>2026-09-02T20:51:10Z</time>
  <course>0.0</course>
  <speed>0.0</speed>
  <fix>3d</fix>
</trkpt>
<trkpt lat="40.0713749" lon="-105.229789">
  <ele>1583.0</ele>
  <time>2026-09-02T20:51:10Z</time>
  <course>0.0</course>
  <speed>0.0</speed>
  <fix>3d</fix>
</trkpt>
<trkpt lat="40.0713749" lon="-105.229789">
  <ele>1583.0</ele>
  <time>2026-09-02T20:51:10Z</time>
  <course>0.0</course>
  <speed>0.0</speed>
  <fix>3d</fix>
</trkpt>
<trkpt lat="40.0713749" lon="-105.229789">
  <ele>1583.0</ele>
  <time>2026-09-02T20:51:10Z</time>
  <course>0.0</course>
  <speed>0.0</speed>
  <fix>3d</fix>
</trkpt>
<trkpt lat="40.0713749" lon="-105.229789">
  <ele>1583.0</ele>
  <time>2026-09-02T20:51:10Z</time>
  <course>0.0</course>
  <speed>0.0</speed>
  <fix>3d</fix>
</trkpt>
<trkpt lat="40.0713749" lon="-105.229789">
  <ele>1583.0</ele>
  <time>2026-09-02T20:51:10Z</time>
  <course>0.0</course>
  <speed>0.0</speed>
  <fix>3d</fix>
</trkpt>
<trkpt lat="40.0713749" lon="-105.229789">
  <ele>1583.0</ele>
  <time>2026-09-02T20:51:10Z</time>
  <course>0.0</course>
  <speed>0.0</speed>
  <fix>3d</fix>
</trkpt>
<trkpt lat="40.0713749" lon="-105.229789">
  <ele>1583.0</ele>
  <time>2026-09-02T20:51:10Z</time>
  <course>0.0</course>
  <speed>0.0</speed>
  <fix>3d</fix>
</trkpt>
<trkpt lat="40.0713749" lon="-105.229789">
  <ele>1583.0</ele>
  <time>2026-09-02T20:51:10Z</time>
  <course>0.0</course>
  <speed>0.0</speed>
  <fix>3d</fix>
</trkpt>
<trkpt lat="40.0713749" lon="-105.229789">
  <ele>1583.0</ele>
  <time>2026-09-02T20:51:10Z</time>
  <course>0.0</course>
  <speed>0.0</speed>
  <fix>3d</fix>
</trkpt>
<trkpt lat="40.0713749" lon="-105.229789">
  <ele>1583.0</ele>
  <time>2026-09-02T20:51:10Z</time>
  <course>0.0</course>
  <speed>0.0</speed>
  <fix>3d</fix>
</trkpt>
<trkpt lat="40.0713749" lon="-105.229789">
  <ele>1583.0</ele>
  <time>2026-09-02T20:51:10Z</time>
  <course>0.0</course>
  <speed>0.0</speed>
  <fix>3d</fix>
</trkpt>
<trkpt lat="40.0713749" lon="-105.229789">
  <ele>1583.0</ele>
  <time>2026-09-02T20:51:10Z</time>
  <course>0.0</course>
  <speed>0.0</speed>
  <fix>3d</fix>
</trkpt>
<trkpt lat="40.0713749" lon="-105.229789">
  <ele>1583.0</ele>
  <time>2026-09-02T20:51:10Z</time>
  <course>0.0</course>
  <speed>0.0</speed>
  <fix>3d</fix>
</trkpt>
<trkpt lat="40.0713749" lon="-105.229789">
  <ele>1583.0</ele>
  <time>2026-09-02T20:51:10Z</time>
  <course>0.0</course>
  <speed>0.0</speed>
  <fix>3d</fix>
</trkpt>
<trkpt lat="40.0713749" lon="-105.229789">
  <ele>1583.0</ele>
  <time>2026-09-02T20:51:10Z</time>
  <course>0.0</course>
  <speed>0.0</speed>
  <fix>3d</fix>
</trkpt>
<trkpt lat="40.0713749" lon="-105.229789">
  <ele>1583.0</ele>
  <time>2026-09-02T20:51:10Z</time>
  <course>0.0</course>
  <speed>0.0</speed>
  <fix>3d</fix>
</trkpt>
<trkpt lat="40.0713749" lon="-105.229789">
  <ele>1583.0</ele>
  <time>2026-09-02T20:51:10Z</time>
  <course>0.0</course>
  <speed>0.0</speed>
  <fix>3d</fix>
</trkpt>
<trkpt lat="40.0713749" lon="-105.229789">
  <ele>1583.0</ele>
  <time>2026-09-02T20:51:10Z</time>
  <course>0.0</course>
  <speed>0.0</speed>
  <fix>3d</fix>
</trkpt>
<trkpt lat="40.0713749" lon="-105.229789">
  <ele>1583.0</ele>
  <time>2026-09-02T20:51:10Z</time>
  <course>0.0</course>
  <speed>0.0</speed>
  <fix>3d</fix>
</trkpt>
</trkseg>
</trk>
</gpx>
